<?xml version="1.0" encoding="UTF-8" standalone="no" ?>
<gpx xmlns="http://www.topografix.com/GPX/1/1" xmlns:xsi="http://www.w3.org/2001/XMLSchema-instance" xsi:schemaLocation="http://www.topografix.com/GPX/1/1 http://www.topografix.com/GPX/1/1/gpx.xsd" version="1.1" creator="VisuGPX - https://www.visugpx.com">
  <metadata>
    <name>Zagreb - Mignavillers</name>
  </metadata>
  <trk>
    <name><![CDATA[5_Zagreb à Bratislava_705km]]></name>
    <extensions>
      <line xmlns="http://www.topografix.com/GPX/gpx_style/0/2">
        <color>0000FF</color>
        <width>4</width>
      </line>
    </extensions>
    <trkseg>
      <trkpt lat="45.81298" lon="15.97697">
        <ele>135.777298</ele>
        <time>2022-08-05T11:11:28.606Z</time>
      </trkpt>
      <trkpt lat="45.81305" lon="15.9765">
        <ele>135.777298</ele>
        <time>2022-08-05T11:11:52.047Z</time>
      </trkpt>
      <trkpt lat="45.81309" lon="15.97625">
        <ele>135.777298</ele>
        <time>2022-08-05T11:12:04.356Z</time>
      </trkpt>
      <trkpt lat="45.81309" lon="15.97572">
        <ele>135.777298</ele>
        <time>2022-08-05T11:12:30.362Z</time>
      </trkpt>
      <trkpt lat="45.81305" lon="15.97572">
        <ele>135.694715</ele>
        <time>2022-08-05T11:12:33.455Z</time>
      </trkpt>
      <trkpt lat="45.81305" lon="15.97547">
        <ele>135.255464</ele>
        <time>2022-08-05T11:12:38.523Z</time>
      </trkpt>
      <trkpt lat="45.81307" lon="15.9745">
        <ele>133.574973</ele>
        <time>2022-08-05T11:12:57.864Z</time>
      </trkpt>
      <trkpt lat="45.81311" lon="15.9738">
        <ele>132.360223</ele>
        <time>2022-08-05T11:13:11.290Z</time>
      </trkpt>
      <trkpt lat="45.81316" lon="15.97307">
        <ele>131.153267</ele>
        <time>2022-08-05T11:13:24.943Z</time>
      </trkpt>
      <trkpt lat="45.81317" lon="15.97262">
        <ele>130.598749</ele>
        <time>2022-08-05T11:13:33.289Z</time>
      </trkpt>
      <trkpt lat="45.81317" lon="15.97239">
        <ele>130.304255</ele>
        <time>2022-08-05T11:13:37.820Z</time>
      </trkpt>
      <trkpt lat="45.81318" lon="15.97214">
        <ele>130.007299</ele>
        <time>2022-08-05T11:13:42.644Z</time>
      </trkpt>
      <trkpt lat="45.81318" lon="15.97211">
        <ele>129.964156</ele>
        <time>2022-08-05T11:13:43.310Z</time>
      </trkpt>
      <trkpt lat="45.81318" lon="15.97203">
        <ele>129.870551</ele>
        <time>2022-08-05T11:13:44.795Z</time>
      </trkpt>
      <trkpt lat="45.81323" lon="15.97116">
        <ele>128.788169</ele>
        <time>2022-08-05T11:13:58.697Z</time>
      </trkpt>
      <trkpt lat="45.81327" lon="15.97049">
        <ele>128.083412</ele>
        <time>2022-08-05T11:14:10.285Z</time>
      </trkpt>
      <trkpt lat="45.81327" lon="15.97033">
        <ele>128.035192</ele>
        <time>2022-08-05T11:14:13.313Z</time>
      </trkpt>
      <trkpt lat="45.81328" lon="15.97003">
        <ele>127.948999</ele>
        <time>2022-08-05T11:14:18.668Z</time>
      </trkpt>
      <trkpt lat="45.81327" lon="15.96972">
        <ele>127.860196</ele>
        <time>2022-08-05T11:14:24.097Z</time>
      </trkpt>
      <trkpt lat="45.81327" lon="15.96957">
        <ele>127.816674</ele>
        <time>2022-08-05T11:14:26.718Z</time>
      </trkpt>
      <trkpt lat="45.81326" lon="15.96886">
        <ele>127.610103</ele>
        <time>2022-08-05T11:14:38.604Z</time>
      </trkpt>
      <trkpt lat="45.81322" lon="15.96801">
        <ele>127.363229</ele>
        <time>2022-08-05T11:14:53.584Z</time>
      </trkpt>
      <trkpt lat="45.81317" lon="15.96759">
        <ele>127.242664</ele>
        <time>2022-08-05T11:15:01.577Z</time>
      </trkpt>
      <trkpt lat="45.81315" lon="15.96748">
        <ele>127.209342</ele>
        <time>2022-08-05T11:15:03.767Z</time>
      </trkpt>
      <trkpt lat="45.81304" lon="15.96683">
        <ele>127.021588</ele>
        <time>2022-08-05T11:15:15.632Z</time>
      </trkpt>
      <trkpt lat="45.81303" lon="15.96675">
        <ele>126.996084</ele>
        <time>2022-08-05T11:15:17.138Z</time>
      </trkpt>
      <trkpt lat="45.81297" lon="15.96651">
        <ele>126.925262</ele>
        <time>2022-08-05T11:15:21.295Z</time>
      </trkpt>
      <trkpt lat="45.81267" lon="15.9653">
        <ele>126.612438</ele>
        <time>2022-08-05T11:15:43.054Z</time>
      </trkpt>
      <trkpt lat="45.81265" lon="15.9652">
        <ele>126.602305</ele>
        <time>2022-08-05T11:15:44.859Z</time>
      </trkpt>
      <trkpt lat="45.81253" lon="15.96475">
        <ele>126.554411</ele>
        <time>2022-08-05T11:15:53.602Z</time>
      </trkpt>
      <trkpt lat="45.81252" lon="15.9647">
        <ele>126.549854</ele>
        <time>2022-08-05T11:15:54.443Z</time>
      </trkpt>
      <trkpt lat="45.81244" lon="15.96442">
        <ele>126.520089</ele>
        <time>2022-08-05T11:15:59.925Z</time>
      </trkpt>
      <trkpt lat="45.81238" lon="15.96418">
        <ele>126.494727</ele>
        <time>2022-08-05T11:16:04.653Z</time>
      </trkpt>
      <trkpt lat="45.81234" lon="15.96402">
        <ele>126.477894</ele>
        <time>2022-08-05T11:16:07.813Z</time>
      </trkpt>
      <trkpt lat="45.81228" lon="15.96346">
        <ele>126.422145</ele>
        <time>2022-08-05T11:16:18.314Z</time>
      </trkpt>
      <trkpt lat="45.8124" lon="15.96265">
        <ele>126.46816</ele>
        <time>2022-08-05T11:16:34.384Z</time>
      </trkpt>
      <trkpt lat="45.81268" lon="15.96127">
        <ele>126.728209</ele>
        <time>2022-08-05T11:17:02.690Z</time>
      </trkpt>
      <trkpt lat="45.81272" lon="15.9611">
        <ele>126.760993</ele>
        <time>2022-08-05T11:17:06.053Z</time>
      </trkpt>
      <trkpt lat="45.81295" lon="15.95995">
        <ele>126.934209</ele>
        <time>2022-08-05T11:17:29.216Z</time>
      </trkpt>
      <trkpt lat="45.81311" lon="15.95889">
        <ele>127.062724</ele>
        <time>2022-08-05T11:17:51.157Z</time>
      </trkpt>
      <trkpt lat="45.81312" lon="15.95875">
        <ele>127.078675</ele>
        <time>2022-08-05T11:17:53.574Z</time>
      </trkpt>
      <trkpt lat="45.81317" lon="15.95765">
        <ele>127.14116</ele>
        <time>2022-08-05T11:18:13.303Z</time>
      </trkpt>
      <trkpt lat="45.81317" lon="15.95754">
        <ele>127.136669</ele>
        <time>2022-08-05T11:18:15.319Z</time>
      </trkpt>
      <trkpt lat="45.81318" lon="15.95697">
        <ele>127.115209</ele>
        <time>2022-08-05T11:18:25.558Z</time>
      </trkpt>
      <trkpt lat="45.81315" lon="15.95617">
        <ele>127.08459</ele>
        <time>2022-08-05T11:18:41.325Z</time>
      </trkpt>
      <trkpt lat="45.81314" lon="15.95606">
        <ele>127.080384</ele>
        <time>2022-08-05T11:18:43.571Z</time>
      </trkpt>
      <trkpt lat="45.81308" lon="15.95567">
        <ele>127.065024</ele>
        <time>2022-08-05T11:18:50.978Z</time>
      </trkpt>
      <trkpt lat="45.81299" lon="15.9552">
        <ele>127.021456</ele>
        <time>2022-08-05T11:18:59.059Z</time>
      </trkpt>
      <trkpt lat="45.81296" lon="15.95506">
        <ele>127.003664</ele>
        <time>2022-08-05T11:19:01.706Z</time>
      </trkpt>
      <trkpt lat="45.81266" lon="15.95382">
        <ele>126.854073</ele>
        <time>2022-08-05T11:19:25.085Z</time>
      </trkpt>
      <trkpt lat="45.81264" lon="15.95375">
        <ele>126.845205</ele>
        <time>2022-08-05T11:19:26.504Z</time>
      </trkpt>
      <trkpt lat="45.81254" lon="15.95321">
        <ele>126.780832</ele>
        <time>2022-08-05T11:19:37.080Z</time>
      </trkpt>
      <trkpt lat="45.81246" lon="15.9523">
        <ele>126.677965</ele>
        <time>2022-08-05T11:19:54.302Z</time>
      </trkpt>
      <trkpt lat="45.81246" lon="15.95219">
        <ele>126.665742</ele>
        <time>2022-08-05T11:19:56.260Z</time>
      </trkpt>
      <trkpt lat="45.81246" lon="15.95207">
        <ele>126.65265</ele>
        <time>2022-08-05T11:19:58.283Z</time>
      </trkpt>
      <trkpt lat="45.81245" lon="15.95159">
        <ele>126.598593</ele>
        <time>2022-08-05T11:20:07.044Z</time>
      </trkpt>
      <trkpt lat="45.81245" lon="15.95071">
        <ele>126.500455</ele>
        <time>2022-08-05T11:20:22.925Z</time>
      </trkpt>
      <trkpt lat="45.81245" lon="15.95062">
        <ele>126.490272</ele>
        <time>2022-08-05T11:20:24.472Z</time>
      </trkpt>
      <trkpt lat="45.81243" lon="15.94878">
        <ele>125.708901</ele>
        <time>2022-08-05T11:20:56.049Z</time>
      </trkpt>
      <trkpt lat="45.81243" lon="15.94865">
        <ele>125.653345</ele>
        <time>2022-08-05T11:20:58.056Z</time>
      </trkpt>
      <trkpt lat="45.81235" lon="15.94862">
        <ele>125.605375</ele>
        <time>2022-08-05T11:20:59.826Z</time>
      </trkpt>
      <trkpt lat="45.81191" lon="15.94857">
        <ele>125.32089</ele>
        <time>2022-08-05T11:21:10.309Z</time>
      </trkpt>
      <trkpt lat="45.81147" lon="15.94851">
        <ele>125.038644</ele>
        <time>2022-08-05T11:21:20.537Z</time>
      </trkpt>
      <trkpt lat="45.81139" lon="15.9485">
        <ele>124.985918</ele>
        <time>2022-08-05T11:21:22.417Z</time>
      </trkpt>
      <trkpt lat="45.8113" lon="15.94849">
        <ele>124.931297</ele>
        <time>2022-08-05T11:21:24.325Z</time>
      </trkpt>
      <trkpt lat="45.8113" lon="15.94843">
        <ele>124.901653</ele>
        <time>2022-08-05T11:21:27.565Z</time>
      </trkpt>
      <trkpt lat="45.81131" lon="15.9484">
        <ele>124.889318</ele>
        <time>2022-08-05T11:21:28.389Z</time>
      </trkpt>
      <trkpt lat="45.81144" lon="15.94587">
        <ele>124.466151</ele>
        <time>2022-08-05T11:22:43.736Z</time>
      </trkpt>
      <trkpt lat="45.81149" lon="15.94542">
        <ele>124.607208</ele>
        <time>2022-08-05T11:22:59.515Z</time>
      </trkpt>
      <trkpt lat="45.81149" lon="15.94538">
        <ele>124.618014</ele>
        <time>2022-08-05T11:23:00.687Z</time>
      </trkpt>
      <trkpt lat="45.81155" lon="15.9454">
        <ele>124.644031</ele>
        <time>2022-08-05T11:23:02.631Z</time>
      </trkpt>
      <trkpt lat="45.81163" lon="15.94542">
        <ele>124.680215</ele>
        <time>2022-08-05T11:23:05.310Z</time>
      </trkpt>
      <trkpt lat="45.81163" lon="15.94536">
        <ele>124.697497</ele>
        <time>2022-08-05T11:23:08.016Z</time>
      </trkpt>
      <trkpt lat="45.81165" lon="15.94531">
        <ele>124.714351</ele>
        <time>2022-08-05T11:23:09.203Z</time>
      </trkpt>
      <trkpt lat="45.81173" lon="15.94376">
        <ele>125.149255</ele>
        <time>2022-08-05T11:23:42.421Z</time>
      </trkpt>
      <trkpt lat="45.81174" lon="15.94356">
        <ele>125.199379</ele>
        <time>2022-08-05T11:23:46.593Z</time>
      </trkpt>
      <trkpt lat="45.81174" lon="15.94351">
        <ele>125.213575</ele>
        <time>2022-08-05T11:23:47.802Z</time>
      </trkpt>
      <trkpt lat="45.81174" lon="15.94344">
        <ele>125.229062</ele>
        <time>2022-08-05T11:23:49.181Z</time>
      </trkpt>
      <trkpt lat="45.81176" lon="15.94336">
        <ele>125.25015</ele>
        <time>2022-08-05T11:23:50.973Z</time>
      </trkpt>
      <trkpt lat="45.81177" lon="15.94308">
        <ele>125.320526</ele>
        <time>2022-08-05T11:23:56.729Z</time>
      </trkpt>
      <trkpt lat="45.81181" lon="15.94237">
        <ele>125.496657</ele>
        <time>2022-08-05T11:24:10.323Z</time>
      </trkpt>
      <trkpt lat="45.81184" lon="15.94228">
        <ele>125.521855</ele>
        <time>2022-08-05T11:24:12.150Z</time>
      </trkpt>
      <trkpt lat="45.81184" lon="15.94225">
        <ele>125.529847</ele>
        <time>2022-08-05T11:24:12.751Z</time>
      </trkpt>
      <trkpt lat="45.81184" lon="15.94213">
        <ele>125.560444</ele>
        <time>2022-08-05T11:24:15.007Z</time>
      </trkpt>
      <trkpt lat="45.81184" lon="15.94204">
        <ele>125.581589</ele>
        <time>2022-08-05T11:24:16.515Z</time>
      </trkpt>
      <trkpt lat="45.81184" lon="15.94196">
        <ele>125.602993</ele>
        <time>2022-08-05T11:24:18.010Z</time>
      </trkpt>
      <trkpt lat="45.81195" lon="15.93947">
        <ele>124.96063</ele>
        <time>2022-08-05T11:25:01.062Z</time>
      </trkpt>
      <trkpt lat="45.81201" lon="15.93813">
        <ele>124.777524</ele>
        <time>2022-08-05T11:25:24.996Z</time>
      </trkpt>
      <trkpt lat="45.81202" lon="15.93809">
        <ele>124.771891</ele>
        <time>2022-08-05T11:25:25.821Z</time>
      </trkpt>
      <trkpt lat="45.81202" lon="15.93804">
        <ele>124.766259</ele>
        <time>2022-08-05T11:25:28.051Z</time>
      </trkpt>
      <trkpt lat="45.81202" lon="15.93796">
        <ele>124.756613</ele>
        <time>2022-08-05T11:25:31.896Z</time>
      </trkpt>
      <trkpt lat="45.81202" lon="15.93791">
        <ele>124.750515</ele>
        <time>2022-08-05T11:25:32.800Z</time>
      </trkpt>
      <trkpt lat="45.81215" lon="15.93536">
        <ele>124.496643</ele>
        <time>2022-08-05T11:26:19.461Z</time>
      </trkpt>
      <trkpt lat="45.81215" lon="15.93525">
        <ele>124.487791</ele>
        <time>2022-08-05T11:26:21.505Z</time>
      </trkpt>
      <trkpt lat="45.81226" lon="15.93389">
        <ele>124.419698</ele>
        <time>2022-08-05T11:26:45.794Z</time>
      </trkpt>
      <trkpt lat="45.81228" lon="15.9334">
        <ele>124.44997</ele>
        <time>2022-08-05T11:26:55.917Z</time>
      </trkpt>
      <trkpt lat="45.8122" lon="15.93338">
        <ele>124.456664</ele>
        <time>2022-08-05T11:26:58.969Z</time>
      </trkpt>
      <trkpt lat="45.81213" lon="15.93337">
        <ele>124.463318</ele>
        <time>2022-08-05T11:27:01.942Z</time>
      </trkpt>
      <trkpt lat="45.81215" lon="15.9327">
        <ele>124.504645</ele>
        <time>2022-08-05T11:27:15.613Z</time>
      </trkpt>
      <trkpt lat="45.81215" lon="15.93221">
        <ele>124.535554</ele>
        <time>2022-08-05T11:27:24.843Z</time>
      </trkpt>
      <trkpt lat="45.81196" lon="15.93174">
        <ele>124.478659</ele>
        <time>2022-08-05T11:27:33.828Z</time>
      </trkpt>
      <trkpt lat="45.81199" lon="15.9317">
        <ele>124.435383</ele>
        <time>2022-08-05T11:27:36.868Z</time>
      </trkpt>
      <trkpt lat="45.81205" lon="15.93159">
        <ele>124.344273</ele>
        <time>2022-08-05T11:27:43.266Z</time>
      </trkpt>
      <trkpt lat="45.81189" lon="15.93152">
        <ele>124.176429</ele>
        <time>2022-08-05T11:27:47.187Z</time>
      </trkpt>
      <trkpt lat="45.81177" lon="15.93135">
        <ele>124.014183</ele>
        <time>2022-08-05T11:27:51.052Z</time>
      </trkpt>
      <trkpt lat="45.81179" lon="15.93127">
        <ele>123.953465</ele>
        <time>2022-08-05T11:27:52.455Z</time>
      </trkpt>
      <trkpt lat="45.81169" lon="15.93109">
        <ele>123.799662</ele>
        <time>2022-08-05T11:27:55.865Z</time>
      </trkpt>
      <trkpt lat="45.81169" lon="15.93108">
        <ele>123.7883</ele>
        <time>2022-08-05T11:27:56.134Z</time>
      </trkpt>
      <trkpt lat="45.81119" lon="15.9304">
        <ele>123.103947</ele>
        <time>2022-08-05T11:28:12.519Z</time>
      </trkpt>
      <trkpt lat="45.81073" lon="15.92974">
        <ele>122.48356</ele>
        <time>2022-08-05T11:28:26.742Z</time>
      </trkpt>
      <trkpt lat="45.81074" lon="15.92963">
        <ele>122.415623</ele>
        <time>2022-08-05T11:28:28.251Z</time>
      </trkpt>
      <trkpt lat="45.81075" lon="15.92921">
        <ele>122.14452</ele>
        <time>2022-08-05T11:28:34.510Z</time>
      </trkpt>
      <trkpt lat="45.81076" lon="15.92916">
        <ele>122.108293</ele>
        <time>2022-08-05T11:28:35.339Z</time>
      </trkpt>
      <trkpt lat="45.81077" lon="15.92885">
        <ele>121.908944</ele>
        <time>2022-08-05T11:28:40.159Z</time>
      </trkpt>
      <trkpt lat="45.81083" lon="15.92872">
        <ele>121.80819</ele>
        <time>2022-08-05T11:28:42.661Z</time>
      </trkpt>
      <trkpt lat="45.81112" lon="15.92863">
        <ele>121.534223</ele>
        <time>2022-08-05T11:28:49.814Z</time>
      </trkpt>
      <trkpt lat="45.81106" lon="15.92746">
        <ele>121.143517</ele>
        <time>2022-08-05T11:29:13.188Z</time>
      </trkpt>
      <trkpt lat="45.8111" lon="15.92693">
        <ele>121.176896</ele>
        <time>2022-08-05T11:29:23.829Z</time>
      </trkpt>
      <trkpt lat="45.81136" lon="15.926">
        <ele>121.240574</ele>
        <time>2022-08-05T11:29:43.374Z</time>
      </trkpt>
      <trkpt lat="45.81137" lon="15.92595">
        <ele>121.24356</ele>
        <time>2022-08-05T11:29:44.308Z</time>
      </trkpt>
      <trkpt lat="45.81128" lon="15.92584">
        <ele>121.25515</ele>
        <time>2022-08-05T11:29:47.793Z</time>
      </trkpt>
      <trkpt lat="45.81089" lon="15.92542">
        <ele>121.32339</ele>
        <time>2022-08-05T11:30:01.059Z</time>
      </trkpt>
      <trkpt lat="45.81084" lon="15.92529">
        <ele>121.341737</ele>
        <time>2022-08-05T11:30:03.879Z</time>
      </trkpt>
      <trkpt lat="45.81085" lon="15.92514">
        <ele>121.361112</ele>
        <time>2022-08-05T11:30:06.930Z</time>
      </trkpt>
      <trkpt lat="45.81085" lon="15.92511">
        <ele>121.364587</ele>
        <time>2022-08-05T11:30:07.478Z</time>
      </trkpt>
      <trkpt lat="45.81085" lon="15.92505">
        <ele>121.372404</ele>
        <time>2022-08-05T11:30:08.716Z</time>
      </trkpt>
      <trkpt lat="45.81085" lon="15.92499">
        <ele>121.378748</ele>
        <time>2022-08-05T11:30:09.743Z</time>
      </trkpt>
      <trkpt lat="45.81079" lon="15.92498">
        <ele>121.390066</ele>
        <time>2022-08-05T11:30:11.478Z</time>
      </trkpt>
      <trkpt lat="45.81055" lon="15.92494">
        <ele>121.433413</ele>
        <time>2022-08-05T11:30:18.118Z</time>
      </trkpt>
      <trkpt lat="45.81064" lon="15.92308">
        <ele>121.612627</ele>
        <time>2022-08-05T11:30:54.009Z</time>
      </trkpt>
      <trkpt lat="45.81057" lon="15.92292">
        <ele>121.619151</ele>
        <time>2022-08-05T11:30:57.548Z</time>
      </trkpt>
      <trkpt lat="45.81054" lon="15.92268">
        <ele>121.627407</ele>
        <time>2022-08-05T11:31:02.306Z</time>
      </trkpt>
      <trkpt lat="45.81052" lon="15.92179">
        <ele>121.657399</ele>
        <time>2022-08-05T11:31:19.046Z</time>
      </trkpt>
      <trkpt lat="45.81046" lon="15.92137">
        <ele>121.672098</ele>
        <time>2022-08-05T11:31:27.119Z</time>
      </trkpt>
      <trkpt lat="45.81017" lon="15.92113">
        <ele>121.646515</ele>
        <time>2022-08-05T11:31:35.504Z</time>
      </trkpt>
      <trkpt lat="45.81013" lon="15.92098">
        <ele>121.622431</ele>
        <time>2022-08-05T11:31:38.336Z</time>
      </trkpt>
      <trkpt lat="45.81014" lon="15.92057">
        <ele>121.560856</ele>
        <time>2022-08-05T11:31:45.526Z</time>
      </trkpt>
      <trkpt lat="45.81016" lon="15.91991">
        <ele>121.461538</ele>
        <time>2022-08-05T11:31:57.301Z</time>
      </trkpt>
      <trkpt lat="45.81016" lon="15.91956">
        <ele>121.408848</ele>
        <time>2022-08-05T11:32:03.592Z</time>
      </trkpt>
      <trkpt lat="45.81016" lon="15.91914">
        <ele>121.346426</ele>
        <time>2022-08-05T11:32:11.070Z</time>
      </trkpt>
      <trkpt lat="45.81017" lon="15.91864">
        <ele>121.287022</ele>
        <time>2022-08-05T11:32:20.145Z</time>
      </trkpt>
      <trkpt lat="45.81017" lon="15.91816">
        <ele>121.263319</ele>
        <time>2022-08-05T11:32:28.991Z</time>
      </trkpt>
      <trkpt lat="45.80917" lon="15.918">
        <ele>121.191743</ele>
        <time>2022-08-05T11:32:55.541Z</time>
      </trkpt>
      <trkpt lat="45.80917" lon="15.91763">
        <ele>121.173671</ele>
        <time>2022-08-05T11:33:02.272Z</time>
      </trkpt>
      <trkpt lat="45.80871" lon="15.91763">
        <ele>121.153167</ele>
        <time>2022-08-05T11:33:14.839Z</time>
      </trkpt>
      <trkpt lat="45.80811" lon="15.91765">
        <ele>121.131131</ele>
        <time>2022-08-05T11:33:30.311Z</time>
      </trkpt>
      <trkpt lat="45.80812" lon="15.91728">
        <ele>121.121552</ele>
        <time>2022-08-05T11:33:37.091Z</time>
      </trkpt>
      <trkpt lat="45.80823" lon="15.91577">
        <ele>121.071115</ele>
        <time>2022-08-05T11:34:05.533Z</time>
      </trkpt>
      <trkpt lat="45.80852" lon="15.91579">
        <ele>121.053632</ele>
        <time>2022-08-05T11:34:13.321Z</time>
      </trkpt>
      <trkpt lat="45.80864" lon="15.91475">
        <ele>121.009499</ele>
        <time>2022-08-05T11:34:33.067Z</time>
      </trkpt>
      <trkpt lat="45.80866" lon="15.91415">
        <ele>120.928916</ele>
        <time>2022-08-05T11:34:43.803Z</time>
      </trkpt>
      <trkpt lat="45.80867" lon="15.91397">
        <ele>120.864014</ele>
        <time>2022-08-05T11:34:47.016Z</time>
      </trkpt>
      <trkpt lat="45.80871" lon="15.91334">
        <ele>120.645828</ele>
        <time>2022-08-05T11:34:57.843Z</time>
      </trkpt>
      <trkpt lat="45.80873" lon="15.91276">
        <ele>120.440888</ele>
        <time>2022-08-05T11:35:07.928Z</time>
      </trkpt>
      <trkpt lat="45.80874" lon="15.91232">
        <ele>120.285758</ele>
        <time>2022-08-05T11:35:15.359Z</time>
      </trkpt>
      <trkpt lat="45.80878" lon="15.91166">
        <ele>120.078024</ele>
        <time>2022-08-05T11:35:26.292Z</time>
      </trkpt>
      <trkpt lat="45.80881" lon="15.9105">
        <ele>119.941398</ele>
        <time>2022-08-05T11:35:45.681Z</time>
      </trkpt>
      <trkpt lat="45.80768" lon="15.91022">
        <ele>119.891805</ele>
        <time>2022-08-05T11:36:18.104Z</time>
      </trkpt>
      <trkpt lat="45.80764" lon="15.9102">
        <ele>119.912242</ele>
        <time>2022-08-05T11:36:19.352Z</time>
      </trkpt>
      <trkpt lat="45.80778" lon="15.90989">
        <ele>120.031851</ele>
        <time>2022-08-05T11:36:26.782Z</time>
      </trkpt>
      <trkpt lat="45.80781" lon="15.90981">
        <ele>120.062299</ele>
        <time>2022-08-05T11:36:28.535Z</time>
      </trkpt>
      <trkpt lat="45.80793" lon="15.90953">
        <ele>120.173189</ele>
        <time>2022-08-05T11:36:35.358Z</time>
      </trkpt>
      <trkpt lat="45.80802" lon="15.90932">
        <ele>120.252466</ele>
        <time>2022-08-05T11:36:40.117Z</time>
      </trkpt>
      <trkpt lat="45.80804" lon="15.90929">
        <ele>120.267149</ele>
        <time>2022-08-05T11:36:41.048Z</time>
      </trkpt>
      <trkpt lat="45.80815" lon="15.90905">
        <ele>120.361911</ele>
        <time>2022-08-05T11:36:47.043Z</time>
      </trkpt>
      <trkpt lat="45.80821" lon="15.90895">
        <ele>120.40404</ele>
        <time>2022-08-05T11:36:49.577Z</time>
      </trkpt>
      <trkpt lat="45.80838" lon="15.90861">
        <ele>120.545556</ele>
        <time>2022-08-05T11:36:58.682Z</time>
      </trkpt>
      <trkpt lat="45.80841" lon="15.90861">
        <ele>120.560754</ele>
        <time>2022-08-05T11:36:59.578Z</time>
      </trkpt>
      <trkpt lat="45.81042" lon="15.90864">
        <ele>121.358882</ele>
        <time>2022-08-05T11:37:56.846Z</time>
      </trkpt>
      <trkpt lat="45.81045" lon="15.90864">
        <ele>121.378509</ele>
        <time>2022-08-05T11:37:57.733Z</time>
      </trkpt>
      <trkpt lat="45.81049" lon="15.90853">
        <ele>121.425598</ele>
        <time>2022-08-05T11:37:59.907Z</time>
      </trkpt>
      <trkpt lat="45.8107" lon="15.90794">
        <ele>121.694104</ele>
        <time>2022-08-05T11:38:12.435Z</time>
      </trkpt>
      <trkpt lat="45.81073" lon="15.90788">
        <ele>121.723076</ele>
        <time>2022-08-05T11:38:13.812Z</time>
      </trkpt>
      <trkpt lat="45.81098" lon="15.90791">
        <ele>121.872525</ele>
        <time>2022-08-05T11:38:21.385Z</time>
      </trkpt>
      <trkpt lat="45.81111" lon="15.90782">
        <ele>121.955672</ele>
        <time>2022-08-05T11:38:25.824Z</time>
      </trkpt>
      <trkpt lat="45.8113" lon="15.9075">
        <ele>122.123817</ele>
        <time>2022-08-05T11:38:35.355Z</time>
      </trkpt>
      <trkpt lat="45.81138" lon="15.90695">
        <ele>122.349922</ele>
        <time>2022-08-05T11:38:47.600Z</time>
      </trkpt>
      <trkpt lat="45.81139" lon="15.9068">
        <ele>122.395654</ele>
        <time>2022-08-05T11:38:50.466Z</time>
      </trkpt>
      <trkpt lat="45.81137" lon="15.90653">
        <ele>122.466014</ele>
        <time>2022-08-05T11:38:56.284Z</time>
      </trkpt>
      <trkpt lat="45.81137" lon="15.90645">
        <ele>122.485606</ele>
        <time>2022-08-05T11:38:57.889Z</time>
      </trkpt>
      <trkpt lat="45.81137" lon="15.90625">
        <ele>122.538003</ele>
        <time>2022-08-05T11:39:01.727Z</time>
      </trkpt>
      <trkpt lat="45.81136" lon="15.90617">
        <ele>122.556621</ele>
        <time>2022-08-05T11:39:03.229Z</time>
      </trkpt>
      <trkpt lat="45.8114" lon="15.90583">
        <ele>122.646106</ele>
        <time>2022-08-05T11:39:09.981Z</time>
      </trkpt>
      <trkpt lat="45.81142" lon="15.9057">
        <ele>122.678387</ele>
        <time>2022-08-05T11:39:12.343Z</time>
      </trkpt>
      <trkpt lat="45.81146" lon="15.90544">
        <ele>122.746106</ele>
        <time>2022-08-05T11:39:17.649Z</time>
      </trkpt>
      <trkpt lat="45.81151" lon="15.90511">
        <ele>122.832814</ele>
        <time>2022-08-05T11:39:24.277Z</time>
      </trkpt>
      <trkpt lat="45.81163" lon="15.9049">
        <ele>122.901875</ele>
        <time>2022-08-05T11:39:29.610Z</time>
      </trkpt>
      <trkpt lat="45.81177" lon="15.90371">
        <ele>122.950859</ele>
        <time>2022-08-05T11:39:53.178Z</time>
      </trkpt>
      <trkpt lat="45.81184" lon="15.902">
        <ele>122.756646</ele>
        <time>2022-08-05T11:40:22.833Z</time>
      </trkpt>
      <trkpt lat="45.81185" lon="15.90177">
        <ele>122.729382</ele>
        <time>2022-08-05T11:40:27.145Z</time>
      </trkpt>
      <trkpt lat="45.81188" lon="15.90124">
        <ele>122.654911</ele>
        <time>2022-08-05T11:40:37.281Z</time>
      </trkpt>
      <trkpt lat="45.81191" lon="15.90057">
        <ele>122.562236</ele>
        <time>2022-08-05T11:40:49.570Z</time>
      </trkpt>
      <trkpt lat="45.81194" lon="15.89955">
        <ele>122.420611</ele>
        <time>2022-08-05T11:41:07.587Z</time>
      </trkpt>
      <trkpt lat="45.81196" lon="15.89923">
        <ele>122.371206</ele>
        <time>2022-08-05T11:41:13.399Z</time>
      </trkpt>
      <trkpt lat="45.81196" lon="15.8992">
        <ele>122.360375</ele>
        <time>2022-08-05T11:41:13.997Z</time>
      </trkpt>
      <trkpt lat="45.81198" lon="15.8987">
        <ele>122.196759</ele>
        <time>2022-08-05T11:41:22.689Z</time>
      </trkpt>
      <trkpt lat="45.81201" lon="15.8979">
        <ele>121.934916</ele>
        <time>2022-08-05T11:41:36.438Z</time>
      </trkpt>
      <trkpt lat="45.81195" lon="15.89687">
        <ele>121.595692</ele>
        <time>2022-08-05T11:41:53.953Z</time>
      </trkpt>
      <trkpt lat="45.81195" lon="15.89684">
        <ele>121.586863</ele>
        <time>2022-08-05T11:41:54.407Z</time>
      </trkpt>
      <trkpt lat="45.81195" lon="15.89677">
        <ele>121.563302</ele>
        <time>2022-08-05T11:41:55.675Z</time>
      </trkpt>
      <trkpt lat="45.81192" lon="15.89598">
        <ele>121.343135</ele>
        <time>2022-08-05T11:42:09.516Z</time>
      </trkpt>
      <trkpt lat="45.81189" lon="15.89583">
        <ele>121.301185</ele>
        <time>2022-08-05T11:42:12.253Z</time>
      </trkpt>
      <trkpt lat="45.81186" lon="15.89574">
        <ele>121.273322</ele>
        <time>2022-08-05T11:42:14.133Z</time>
      </trkpt>
      <trkpt lat="45.81184" lon="15.89564">
        <ele>121.245978</ele>
        <time>2022-08-05T11:42:15.962Z</time>
      </trkpt>
      <trkpt lat="45.81168" lon="15.8949">
        <ele>121.034088</ele>
        <time>2022-08-05T11:42:29.845Z</time>
      </trkpt>
      <trkpt lat="45.81165" lon="15.89414">
        <ele>120.828588</ele>
        <time>2022-08-05T11:42:42.803Z</time>
      </trkpt>
      <trkpt lat="45.81165" lon="15.89351">
        <ele>120.762251</ele>
        <time>2022-08-05T11:42:53.515Z</time>
      </trkpt>
      <trkpt lat="45.81165" lon="15.89315">
        <ele>120.723001</ele>
        <time>2022-08-05T11:43:00.143Z</time>
      </trkpt>
      <trkpt lat="45.81165" lon="15.89306">
        <ele>120.714147</ele>
        <time>2022-08-05T11:43:01.645Z</time>
      </trkpt>
      <trkpt lat="45.81166" lon="15.89289">
        <ele>120.695909</ele>
        <time>2022-08-05T11:43:04.668Z</time>
      </trkpt>
      <trkpt lat="45.81166" lon="15.89176">
        <ele>120.575495</ele>
        <time>2022-08-05T11:43:25.386Z</time>
      </trkpt>
      <trkpt lat="45.81168" lon="15.89053">
        <ele>121.119468</ele>
        <time>2022-08-05T11:43:50.038Z</time>
      </trkpt>
      <trkpt lat="45.81169" lon="15.89041">
        <ele>121.183454</ele>
        <time>2022-08-05T11:43:52.520Z</time>
      </trkpt>
      <trkpt lat="45.8117" lon="15.89027">
        <ele>121.261578</ele>
        <time>2022-08-05T11:43:55.546Z</time>
      </trkpt>
      <trkpt lat="45.81188" lon="15.88942">
        <ele>121.735908</ele>
        <time>2022-08-05T11:44:14.753Z</time>
      </trkpt>
      <trkpt lat="45.81192" lon="15.88928">
        <ele>121.817994</ele>
        <time>2022-08-05T11:44:18.348Z</time>
      </trkpt>
      <trkpt lat="45.81212" lon="15.88815">
        <ele>122.378377</ele>
        <time>2022-08-05T11:44:46.271Z</time>
      </trkpt>
      <trkpt lat="45.81214" lon="15.88741">
        <ele>122.722857</ele>
        <time>2022-08-05T11:45:02.224Z</time>
      </trkpt>
      <trkpt lat="45.81208" lon="15.88692">
        <ele>122.956059</ele>
        <time>2022-08-05T11:45:11.352Z</time>
      </trkpt>
      <trkpt lat="45.81198" lon="15.88639">
        <ele>123.059538</ele>
        <time>2022-08-05T11:45:20.745Z</time>
      </trkpt>
      <trkpt lat="45.81195" lon="15.8863">
        <ele>122.998098</ele>
        <time>2022-08-05T11:45:22.517Z</time>
      </trkpt>
      <trkpt lat="45.81186" lon="15.88591">
        <ele>122.752402</ele>
        <time>2022-08-05T11:45:29.243Z</time>
      </trkpt>
      <trkpt lat="45.81184" lon="15.88579">
        <ele>122.674605</ele>
        <time>2022-08-05T11:45:31.463Z</time>
      </trkpt>
      <trkpt lat="45.81182" lon="15.88561">
        <ele>122.564454</ele>
        <time>2022-08-05T11:45:34.422Z</time>
      </trkpt>
      <trkpt lat="45.8118" lon="15.88522">
        <ele>122.329731</ele>
        <time>2022-08-05T11:45:40.985Z</time>
      </trkpt>
      <trkpt lat="45.81179" lon="15.88507">
        <ele>122.239915</ele>
        <time>2022-08-05T11:45:43.394Z</time>
      </trkpt>
      <trkpt lat="45.81175" lon="15.88413">
        <ele>121.667939</ele>
        <time>2022-08-05T11:45:58.330Z</time>
      </trkpt>
      <trkpt lat="45.81175" lon="15.88399">
        <ele>121.585579</ele>
        <time>2022-08-05T11:46:00.392Z</time>
      </trkpt>
      <trkpt lat="45.81175" lon="15.88385">
        <ele>121.554835</ele>
        <time>2022-08-05T11:46:02.582Z</time>
      </trkpt>
      <trkpt lat="45.81173" lon="15.8834">
        <ele>121.461565</ele>
        <time>2022-08-05T11:46:09.544Z</time>
      </trkpt>
      <trkpt lat="45.81172" lon="15.88314">
        <ele>121.407583</ele>
        <time>2022-08-05T11:46:13.675Z</time>
      </trkpt>
      <trkpt lat="45.81164" lon="15.88109">
        <ele>121.152726</ele>
        <time>2022-08-05T11:46:53.118Z</time>
      </trkpt>
      <trkpt lat="45.81156" lon="15.8798">
        <ele>121.565003</ele>
        <time>2022-08-05T11:47:20.425Z</time>
      </trkpt>
      <trkpt lat="45.81154" lon="15.87961">
        <ele>121.627326</ele>
        <time>2022-08-05T11:47:24.469Z</time>
      </trkpt>
      <trkpt lat="45.81152" lon="15.87936">
        <ele>121.706518</ele>
        <time>2022-08-05T11:47:29.613Z</time>
      </trkpt>
      <trkpt lat="45.8115" lon="15.87897">
        <ele>121.832803</ele>
        <time>2022-08-05T11:47:37.451Z</time>
      </trkpt>
      <trkpt lat="45.81148" lon="15.8786">
        <ele>121.853709</ele>
        <time>2022-08-05T11:47:44.395Z</time>
      </trkpt>
      <trkpt lat="45.81143" lon="15.87808">
        <ele>121.814078</ele>
        <time>2022-08-05T11:47:53.692Z</time>
      </trkpt>
      <trkpt lat="45.81142" lon="15.87799">
        <ele>121.807072</ele>
        <time>2022-08-05T11:47:55.409Z</time>
      </trkpt>
      <trkpt lat="45.81137" lon="15.87746">
        <ele>121.765725</ele>
        <time>2022-08-05T11:48:05.033Z</time>
      </trkpt>
      <trkpt lat="45.81136" lon="15.87738">
        <ele>121.759848</ele>
        <time>2022-08-05T11:48:06.365Z</time>
      </trkpt>
      <trkpt lat="45.81135" lon="15.87729">
        <ele>121.752896</ele>
        <time>2022-08-05T11:48:07.954Z</time>
      </trkpt>
      <trkpt lat="45.81132" lon="15.87697">
        <ele>121.727828</ele>
        <time>2022-08-05T11:48:14.203Z</time>
      </trkpt>
      <trkpt lat="45.81127" lon="15.87654">
        <ele>121.694886</ele>
        <time>2022-08-05T11:48:22.129Z</time>
      </trkpt>
      <trkpt lat="45.81127" lon="15.87648">
        <ele>121.689752</ele>
        <time>2022-08-05T11:48:23.486Z</time>
      </trkpt>
      <trkpt lat="45.81126" lon="15.87636">
        <ele>121.680698</ele>
        <time>2022-08-05T11:48:25.671Z</time>
      </trkpt>
      <trkpt lat="45.81125" lon="15.8762">
        <ele>121.669056</ele>
        <time>2022-08-05T11:48:28.395Z</time>
      </trkpt>
      <trkpt lat="45.81122" lon="15.87508">
        <ele>121.587555</ele>
        <time>2022-08-05T11:48:47.470Z</time>
      </trkpt>
      <trkpt lat="45.81123" lon="15.87492">
        <ele>121.57632</ele>
        <time>2022-08-05T11:48:50.144Z</time>
      </trkpt>
      <trkpt lat="45.81124" lon="15.87476">
        <ele>121.564689</ele>
        <time>2022-08-05T11:48:53.116Z</time>
      </trkpt>
      <trkpt lat="45.81129" lon="15.87406">
        <ele>121.513275</ele>
        <time>2022-08-05T11:49:06.466Z</time>
      </trkpt>
      <trkpt lat="45.81138" lon="15.87303">
        <ele>121.692166</ele>
        <time>2022-08-05T11:49:27.984Z</time>
      </trkpt>
      <trkpt lat="45.81139" lon="15.87289">
        <ele>121.732033</ele>
        <time>2022-08-05T11:49:30.656Z</time>
      </trkpt>
      <trkpt lat="45.8114" lon="15.87277">
        <ele>121.769869</ele>
        <time>2022-08-05T11:49:33.436Z</time>
      </trkpt>
      <trkpt lat="45.81154" lon="15.87151">
        <ele>122.14295</ele>
        <time>2022-08-05T11:49:57.714Z</time>
      </trkpt>
      <trkpt lat="45.81156" lon="15.87136">
        <ele>122.188608</ele>
        <time>2022-08-05T11:50:00.728Z</time>
      </trkpt>
      <trkpt lat="45.81165" lon="15.8706">
        <ele>122.264762</ele>
        <time>2022-08-05T11:50:17.191Z</time>
      </trkpt>
      <trkpt lat="45.81166" lon="15.87051">
        <ele>122.267511</ele>
        <time>2022-08-05T11:50:19.192Z</time>
      </trkpt>
      <trkpt lat="45.81167" lon="15.87045">
        <ele>122.269475</ele>
        <time>2022-08-05T11:50:20.582Z</time>
      </trkpt>
      <trkpt lat="45.81177" lon="15.86993">
        <ele>122.285587</ele>
        <time>2022-08-05T11:50:31.398Z</time>
      </trkpt>
      <trkpt lat="45.81181" lon="15.86972">
        <ele>122.292327</ele>
        <time>2022-08-05T11:50:35.577Z</time>
      </trkpt>
      <trkpt lat="45.81192" lon="15.8693">
        <ele>122.305693</ele>
        <time>2022-08-05T11:50:43.488Z</time>
      </trkpt>
      <trkpt lat="45.81195" lon="15.86918">
        <ele>122.309528</ele>
        <time>2022-08-05T11:50:45.684Z</time>
      </trkpt>
      <trkpt lat="45.81196" lon="15.86908">
        <ele>122.312531</ele>
        <time>2022-08-05T11:50:47.406Z</time>
      </trkpt>
      <trkpt lat="45.812" lon="15.86848">
        <ele>122.243972</ele>
        <time>2022-08-05T11:50:57.364Z</time>
      </trkpt>
      <trkpt lat="45.81199" lon="15.86823">
        <ele>122.1324</ele>
        <time>2022-08-05T11:51:01.288Z</time>
      </trkpt>
      <trkpt lat="45.81193" lon="15.86653">
        <ele>121.356539</ele>
        <time>2022-08-05T11:51:29.697Z</time>
      </trkpt>
      <trkpt lat="45.8119" lon="15.86569">
        <ele>121.170546</ele>
        <time>2022-08-05T11:51:44.459Z</time>
      </trkpt>
      <trkpt lat="45.8119" lon="15.86489">
        <ele>121.210811</ele>
        <time>2022-08-05T11:51:58.824Z</time>
      </trkpt>
      <trkpt lat="45.81194" lon="15.86417">
        <ele>121.247615</ele>
        <time>2022-08-05T11:52:13.039Z</time>
      </trkpt>
      <trkpt lat="45.81202" lon="15.8633">
        <ele>121.308439</ele>
        <time>2022-08-05T11:52:31.184Z</time>
      </trkpt>
      <trkpt lat="45.81205" lon="15.86305">
        <ele>121.342847</ele>
        <time>2022-08-05T11:52:36.421Z</time>
      </trkpt>
      <trkpt lat="45.81212" lon="15.86262">
        <ele>121.400298</ele>
        <time>2022-08-05T11:52:44.894Z</time>
      </trkpt>
      <trkpt lat="45.81223" lon="15.86194">
        <ele>121.49194</ele>
        <time>2022-08-05T11:52:57.729Z</time>
      </trkpt>
      <trkpt lat="45.81234" lon="15.86126">
        <ele>121.58226</ele>
        <time>2022-08-05T11:53:10.696Z</time>
      </trkpt>
      <trkpt lat="45.8124" lon="15.8609">
        <ele>121.626008</ele>
        <time>2022-08-05T11:53:18.045Z</time>
      </trkpt>
      <trkpt lat="45.81246" lon="15.8607">
        <ele>121.642594</ele>
        <time>2022-08-05T11:53:22.385Z</time>
      </trkpt>
      <trkpt lat="45.81249" lon="15.86054">
        <ele>121.654814</ele>
        <time>2022-08-05T11:53:25.604Z</time>
      </trkpt>
      <trkpt lat="45.81251" lon="15.86046">
        <ele>121.661226</ele>
        <time>2022-08-05T11:53:27.242Z</time>
      </trkpt>
      <trkpt lat="45.81256" lon="15.85998">
        <ele>121.697145</ele>
        <time>2022-08-05T11:53:36.025Z</time>
      </trkpt>
      <trkpt lat="45.81259" lon="15.85981">
        <ele>121.710069</ele>
        <time>2022-08-05T11:53:39.247Z</time>
      </trkpt>
      <trkpt lat="45.81264" lon="15.85957">
        <ele>121.72885</ele>
        <time>2022-08-05T11:53:43.884Z</time>
      </trkpt>
      <trkpt lat="45.81271" lon="15.85915">
        <ele>121.761036</ele>
        <time>2022-08-05T11:53:52.266Z</time>
      </trkpt>
      <trkpt lat="45.81276" lon="15.85886">
        <ele>121.78332</ele>
        <time>2022-08-05T11:53:57.897Z</time>
      </trkpt>
      <trkpt lat="45.81282" lon="15.85846">
        <ele>121.814977</ele>
        <time>2022-08-05T11:54:05.560Z</time>
      </trkpt>
      <trkpt lat="45.81286" lon="15.85828">
        <ele>121.838774</ele>
        <time>2022-08-05T11:54:09.338Z</time>
      </trkpt>
      <trkpt lat="45.81292" lon="15.85796">
        <ele>121.880154</ele>
        <time>2022-08-05T11:54:15.672Z</time>
      </trkpt>
      <trkpt lat="45.81299" lon="15.85756">
        <ele>121.931845</ele>
        <time>2022-08-05T11:54:23.683Z</time>
      </trkpt>
      <trkpt lat="45.81301" lon="15.85746">
        <ele>121.944923</ele>
        <time>2022-08-05T11:54:25.601Z</time>
      </trkpt>
      <trkpt lat="45.81303" lon="15.85732">
        <ele>121.962627</ele>
        <time>2022-08-05T11:54:28.363Z</time>
      </trkpt>
      <trkpt lat="45.81305" lon="15.85724">
        <ele>121.973588</ele>
        <time>2022-08-05T11:54:29.994Z</time>
      </trkpt>
      <trkpt lat="45.81306" lon="15.85717">
        <ele>121.981994</ele>
        <time>2022-08-05T11:54:31.259Z</time>
      </trkpt>
      <trkpt lat="45.81307" lon="15.85713">
        <ele>121.987029</ele>
        <time>2022-08-05T11:54:31.999Z</time>
      </trkpt>
      <trkpt lat="45.81308" lon="15.85706">
        <ele>121.995723</ele>
        <time>2022-08-05T11:54:33.334Z</time>
      </trkpt>
      <trkpt lat="45.81311" lon="15.85692">
        <ele>122.014244</ele>
        <time>2022-08-05T11:54:36.179Z</time>
      </trkpt>
      <trkpt lat="45.81315" lon="15.85667">
        <ele>122.046373</ele>
        <time>2022-08-05T11:54:41.009Z</time>
      </trkpt>
      <trkpt lat="45.81316" lon="15.85661">
        <ele>122.054129</ele>
        <time>2022-08-05T11:54:42.117Z</time>
      </trkpt>
      <trkpt lat="45.81347" lon="15.85499">
        <ele>122.266641</ele>
        <time>2022-08-05T11:55:15.108Z</time>
      </trkpt>
      <trkpt lat="45.81349" lon="15.85488">
        <ele>122.280698</ele>
        <time>2022-08-05T11:55:17.323Z</time>
      </trkpt>
      <trkpt lat="45.81378" lon="15.85326">
        <ele>122.445138</ele>
        <time>2022-08-05T11:55:49.013Z</time>
      </trkpt>
      <trkpt lat="45.81389" lon="15.8527">
        <ele>122.406691</ele>
        <time>2022-08-05T11:55:59.803Z</time>
      </trkpt>
      <trkpt lat="45.81395" lon="15.85235">
        <ele>122.38278</ele>
        <time>2022-08-05T11:56:06.348Z</time>
      </trkpt>
      <trkpt lat="45.81398" lon="15.8522">
        <ele>122.372481</ele>
        <time>2022-08-05T11:56:09.108Z</time>
      </trkpt>
      <trkpt lat="45.81401" lon="15.85203">
        <ele>122.361043</ele>
        <time>2022-08-05T11:56:12.115Z</time>
      </trkpt>
      <trkpt lat="45.81428" lon="15.85053">
        <ele>122.358889</ele>
        <time>2022-08-05T11:56:40.418Z</time>
      </trkpt>
      <trkpt lat="45.8143" lon="15.85047">
        <ele>122.367211</ele>
        <time>2022-08-05T11:56:41.589Z</time>
      </trkpt>
      <trkpt lat="45.81431" lon="15.85039">
        <ele>122.378676</ele>
        <time>2022-08-05T11:56:43.167Z</time>
      </trkpt>
      <trkpt lat="45.81442" lon="15.84975">
        <ele>122.469545</ele>
        <time>2022-08-05T11:56:55.769Z</time>
      </trkpt>
      <trkpt lat="45.81448" lon="15.84915">
        <ele>122.554232</ele>
        <time>2022-08-05T11:57:07.828Z</time>
      </trkpt>
      <trkpt lat="45.81448" lon="15.84902">
        <ele>122.571993</ele>
        <time>2022-08-05T11:57:10.440Z</time>
      </trkpt>
      <trkpt lat="45.81449" lon="15.84889">
        <ele>122.589907</ele>
        <time>2022-08-05T11:57:13.029Z</time>
      </trkpt>
      <trkpt lat="45.81461" lon="15.84659">
        <ele>123.019278</ele>
        <time>2022-08-05T11:57:58.952Z</time>
      </trkpt>
      <trkpt lat="45.81462" lon="15.84644">
        <ele>123.048598</ele>
        <time>2022-08-05T11:58:01.553Z</time>
      </trkpt>
      <trkpt lat="45.81463" lon="15.84627">
        <ele>123.082195</ele>
        <time>2022-08-05T11:58:04.605Z</time>
      </trkpt>
      <trkpt lat="45.81468" lon="15.84556">
        <ele>123.158236</ele>
        <time>2022-08-05T11:58:18.386Z</time>
      </trkpt>
      <trkpt lat="45.81473" lon="15.8448">
        <ele>123.163934</ele>
        <time>2022-08-05T11:58:32.380Z</time>
      </trkpt>
      <trkpt lat="45.81478" lon="15.84419">
        <ele>123.168606</ele>
        <time>2022-08-05T11:58:44.009Z</time>
      </trkpt>
      <trkpt lat="45.81483" lon="15.84354">
        <ele>123.173528</ele>
        <time>2022-08-05T11:58:56.250Z</time>
      </trkpt>
      <trkpt lat="45.81496" lon="15.84181">
        <ele>123.231982</ele>
        <time>2022-08-05T11:59:28.082Z</time>
      </trkpt>
      <trkpt lat="45.81497" lon="15.84023">
        <ele>123.452929</ele>
        <time>2022-08-05T11:59:58.537Z</time>
      </trkpt>
      <trkpt lat="45.81497" lon="15.83998">
        <ele>123.539003</ele>
        <time>2022-08-05T12:00:03.592Z</time>
      </trkpt>
      <trkpt lat="45.81497" lon="15.83987">
        <ele>123.577751</ele>
        <time>2022-08-05T12:00:05.855Z</time>
      </trkpt>
      <trkpt lat="45.81497" lon="15.83983">
        <ele>123.590438</ele>
        <time>2022-08-05T12:00:06.608Z</time>
      </trkpt>
      <trkpt lat="45.81497" lon="15.83978">
        <ele>123.60621</ele>
        <time>2022-08-05T12:00:07.557Z</time>
      </trkpt>
      <trkpt lat="45.81497" lon="15.83932">
        <ele>123.765649</ele>
        <time>2022-08-05T12:00:17.186Z</time>
      </trkpt>
      <trkpt lat="45.81496" lon="15.83782">
        <ele>124.256649</ele>
        <time>2022-08-05T12:00:48.021Z</time>
      </trkpt>
      <trkpt lat="45.81496" lon="15.83765">
        <ele>124.304542</ele>
        <time>2022-08-05T12:00:51.473Z</time>
      </trkpt>
      <trkpt lat="45.81495" lon="15.83704">
        <ele>124.474674</ele>
        <time>2022-08-05T12:01:03.896Z</time>
      </trkpt>
      <trkpt lat="45.81495" lon="15.83698">
        <ele>124.489432</ele>
        <time>2022-08-05T12:01:04.984Z</time>
      </trkpt>
      <trkpt lat="45.81496" lon="15.83685">
        <ele>124.525371</ele>
        <time>2022-08-05T12:01:07.634Z</time>
      </trkpt>
      <trkpt lat="45.81494" lon="15.83604">
        <ele>124.752638</ele>
        <time>2022-08-05T12:01:24.018Z</time>
      </trkpt>
      <trkpt lat="45.81494" lon="15.83573">
        <ele>124.837299</ele>
        <time>2022-08-05T12:01:29.898Z</time>
      </trkpt>
      <trkpt lat="45.81494" lon="15.83562">
        <ele>124.867928</ele>
        <time>2022-08-05T12:01:32.006Z</time>
      </trkpt>
      <trkpt lat="45.81494" lon="15.83551">
        <ele>124.858206</ele>
        <time>2022-08-05T12:01:34.103Z</time>
      </trkpt>
      <trkpt lat="45.81492" lon="15.83514">
        <ele>124.788674</ele>
        <time>2022-08-05T12:01:41.089Z</time>
      </trkpt>
      <trkpt lat="45.81484" lon="15.8347">
        <ele>124.706467</ele>
        <time>2022-08-05T12:01:49.120Z</time>
      </trkpt>
      <trkpt lat="45.81487" lon="15.83468">
        <ele>124.69487</ele>
        <time>2022-08-05T12:01:50.619Z</time>
      </trkpt>
      <trkpt lat="45.81486" lon="15.83463">
        <ele>124.686878</ele>
        <time>2022-08-05T12:01:51.381Z</time>
      </trkpt>
      <trkpt lat="45.81462" lon="15.83393">
        <ele>124.542106</ele>
        <time>2022-08-05T12:02:05.222Z</time>
      </trkpt>
      <trkpt lat="45.8135" lon="15.83121">
        <ele>123.584638</ele>
        <time>2022-08-05T12:03:01.605Z</time>
      </trkpt>
      <trkpt lat="45.81309" lon="15.8302">
        <ele>123.442804</ele>
        <time>2022-08-05T12:03:23.281Z</time>
      </trkpt>
      <trkpt lat="45.81298" lon="15.82996">
        <ele>123.420514</ele>
        <time>2022-08-05T12:03:28.590Z</time>
      </trkpt>
      <trkpt lat="45.81247" lon="15.8287">
        <ele>123.314567</ele>
        <time>2022-08-05T12:03:56.117Z</time>
      </trkpt>
      <trkpt lat="45.81196" lon="15.82741">
        <ele>123.285046</ele>
        <time>2022-08-05T12:04:23.872Z</time>
      </trkpt>
      <trkpt lat="45.81189" lon="15.82723">
        <ele>123.28103</ele>
        <time>2022-08-05T12:04:27.351Z</time>
      </trkpt>
      <trkpt lat="45.81184" lon="15.82709">
        <ele>123.277849</ele>
        <time>2022-08-05T12:04:30.134Z</time>
      </trkpt>
      <trkpt lat="45.81173" lon="15.82684">
        <ele>123.27191</ele>
        <time>2022-08-05T12:04:35.533Z</time>
      </trkpt>
      <trkpt lat="45.8115" lon="15.82629">
        <ele>123.258497</ele>
        <time>2022-08-05T12:04:47.067Z</time>
      </trkpt>
      <trkpt lat="45.8111" lon="15.82531">
        <ele>123.233726</ele>
        <time>2022-08-05T12:05:08.417Z</time>
      </trkpt>
      <trkpt lat="45.81104" lon="15.82519">
        <ele>123.230489</ele>
        <time>2022-08-05T12:05:11.271Z</time>
      </trkpt>
      <trkpt lat="45.81089" lon="15.82472">
        <ele>123.219256</ele>
        <time>2022-08-05T12:05:20.854Z</time>
      </trkpt>
      <trkpt lat="45.81082" lon="15.82445">
        <ele>123.212959</ele>
        <time>2022-08-05T12:05:26.223Z</time>
      </trkpt>
      <trkpt lat="45.81088" lon="15.8242">
        <ele>123.202327</ele>
        <time>2022-08-05T12:05:31.218Z</time>
      </trkpt>
      <trkpt lat="45.8109" lon="15.82403">
        <ele>123.191428</ele>
        <time>2022-08-05T12:05:34.385Z</time>
      </trkpt>
      <trkpt lat="45.81089" lon="15.82397">
        <ele>123.187459</ele>
        <time>2022-08-05T12:05:35.683Z</time>
      </trkpt>
      <trkpt lat="45.8111" lon="15.8222">
        <ele>123.073731</ele>
        <time>2022-08-05T12:06:09.149Z</time>
      </trkpt>
      <trkpt lat="45.81102" lon="15.82205">
        <ele>123.061937</ele>
        <time>2022-08-05T12:06:12.401Z</time>
      </trkpt>
      <trkpt lat="45.81069" lon="15.82167">
        <ele>122.99058</ele>
        <time>2022-08-05T12:06:22.612Z</time>
      </trkpt>
      <trkpt lat="45.81033" lon="15.8211">
        <ele>122.867971</ele>
        <time>2022-08-05T12:06:35.826Z</time>
      </trkpt>
      <trkpt lat="45.81003" lon="15.82014">
        <ele>122.701711</ele>
        <time>2022-08-05T12:06:54.885Z</time>
      </trkpt>
      <trkpt lat="45.8099" lon="15.81913">
        <ele>122.83568</ele>
        <time>2022-08-05T12:07:14.602Z</time>
      </trkpt>
      <trkpt lat="45.80992" lon="15.81858">
        <ele>123.011469</ele>
        <time>2022-08-05T12:07:25.898Z</time>
      </trkpt>
      <trkpt lat="45.80985" lon="15.81789">
        <ele>123.232742</ele>
        <time>2022-08-05T12:07:40.448Z</time>
      </trkpt>
      <trkpt lat="45.80987" lon="15.81704">
        <ele>123.493166</ele>
        <time>2022-08-05T12:07:57.866Z</time>
      </trkpt>
      <trkpt lat="45.80982" lon="15.81677">
        <ele>123.562646</ele>
        <time>2022-08-05T12:08:03.923Z</time>
      </trkpt>
      <trkpt lat="45.80979" lon="15.81676">
        <ele>123.575301</ele>
        <time>2022-08-05T12:08:04.905Z</time>
      </trkpt>
      <trkpt lat="45.81088" lon="15.81404">
        <ele>124.215205</ele>
        <time>2022-08-05T12:09:05.697Z</time>
      </trkpt>
      <trkpt lat="45.81081" lon="15.81398">
        <ele>124.228085</ele>
        <time>2022-08-05T12:09:07.860Z</time>
      </trkpt>
      <trkpt lat="45.811" lon="15.8135">
        <ele>124.289827</ele>
        <time>2022-08-05T12:09:18.541Z</time>
      </trkpt>
      <trkpt lat="45.81182" lon="15.81179">
        <ele>124.338764</ele>
        <time>2022-08-05T12:09:57.718Z</time>
      </trkpt>
      <trkpt lat="45.81178" lon="15.81175">
        <ele>124.335649</ele>
        <time>2022-08-05T12:09:59.040Z</time>
      </trkpt>
      <trkpt lat="45.81174" lon="15.81032">
        <ele>124.252026</ele>
        <time>2022-08-05T12:10:24.920Z</time>
      </trkpt>
      <trkpt lat="45.81154" lon="15.80665">
        <ele>123.917304</ele>
        <time>2022-08-05T12:11:29.258Z</time>
      </trkpt>
      <trkpt lat="45.81123" lon="15.80005">
        <ele>125.75889</ele>
        <time>2022-08-05T12:13:44.824Z</time>
      </trkpt>
      <trkpt lat="45.81091" lon="15.79369">
        <ele>126.152248</ele>
        <time>2022-08-05T12:15:43.302Z</time>
      </trkpt>
      <trkpt lat="45.81099" lon="15.7937">
        <ele>126.176312</ele>
        <time>2022-08-05T12:15:45.866Z</time>
      </trkpt>
      <trkpt lat="45.81096" lon="15.79307">
        <ele>126.298809</ele>
        <time>2022-08-05T12:15:58.911Z</time>
      </trkpt>
      <trkpt lat="45.81092" lon="15.79217">
        <ele>126.454727</ele>
        <time>2022-08-05T12:16:17.376Z</time>
      </trkpt>
      <trkpt lat="45.81084" lon="15.79035">
        <ele>126.711378</ele>
        <time>2022-08-05T12:16:52.777Z</time>
      </trkpt>
      <trkpt lat="45.81081" lon="15.78988">
        <ele>126.777987</ele>
        <time>2022-08-05T12:17:00.957Z</time>
      </trkpt>
      <trkpt lat="45.81084" lon="15.78973">
        <ele>126.801104</ele>
        <time>2022-08-05T12:17:03.650Z</time>
      </trkpt>
      <trkpt lat="45.81085" lon="15.78969">
        <ele>126.808034</ele>
        <time>2022-08-05T12:17:04.490Z</time>
      </trkpt>
      <trkpt lat="45.81085" lon="15.78956">
        <ele>126.828243</ele>
        <time>2022-08-05T12:17:06.883Z</time>
      </trkpt>
      <trkpt lat="45.81084" lon="15.78952">
        <ele>126.835173</ele>
        <time>2022-08-05T12:17:07.710Z</time>
      </trkpt>
      <trkpt lat="45.81078" lon="15.78931">
        <ele>126.868519</ele>
        <time>2022-08-05T12:17:11.688Z</time>
      </trkpt>
      <trkpt lat="45.8107" lon="15.78777">
        <ele>127.10216</ele>
        <time>2022-08-05T12:17:42.250Z</time>
      </trkpt>
      <trkpt lat="45.81065" lon="15.78676">
        <ele>127.295941</ele>
        <time>2022-08-05T12:18:02.821Z</time>
      </trkpt>
      <trkpt lat="45.81064" lon="15.78668">
        <ele>127.312803</ele>
        <time>2022-08-05T12:18:04.450Z</time>
      </trkpt>
      <trkpt lat="45.81062" lon="15.78621">
        <ele>127.41321</ele>
        <time>2022-08-05T12:18:13.989Z</time>
      </trkpt>
      <trkpt lat="45.81046" lon="15.78357">
        <ele>127.650754</ele>
        <time>2022-08-05T12:19:04.412Z</time>
      </trkpt>
      <trkpt lat="45.81039" lon="15.78269">
        <ele>127.615404</ele>
        <time>2022-08-05T12:19:20.032Z</time>
      </trkpt>
      <trkpt lat="45.81021" lon="15.78114">
        <ele>127.443964</ele>
        <time>2022-08-05T12:19:49.032Z</time>
      </trkpt>
      <trkpt lat="45.81014" lon="15.78061">
        <ele>127.372555</ele>
        <time>2022-08-05T12:19:58.789Z</time>
      </trkpt>
      <trkpt lat="45.80998" lon="15.77967">
        <ele>127.22429</ele>
        <time>2022-08-05T12:20:15.965Z</time>
      </trkpt>
      <trkpt lat="45.80953" lon="15.77729">
        <ele>126.340249</ele>
        <time>2022-08-05T12:20:57.687Z</time>
      </trkpt>
      <trkpt lat="45.80924" lon="15.77484">
        <ele>125.772457</ele>
        <time>2022-08-05T12:21:41.210Z</time>
      </trkpt>
      <trkpt lat="45.80913" lon="15.77433">
        <ele>125.886935</ele>
        <time>2022-08-05T12:21:51.472Z</time>
      </trkpt>
      <trkpt lat="45.80887" lon="15.77379">
        <ele>126.108089</ele>
        <time>2022-08-05T12:22:04.134Z</time>
      </trkpt>
      <trkpt lat="45.80767" lon="15.77212">
        <ele>126.938644</ele>
        <time>2022-08-05T12:22:54.848Z</time>
      </trkpt>
      <trkpt lat="45.80762" lon="15.77205">
        <ele>126.974383</ele>
        <time>2022-08-05T12:22:57.279Z</time>
      </trkpt>
      <trkpt lat="45.80695" lon="15.77107">
        <ele>127.470315</ele>
        <time>2022-08-05T12:23:24.332Z</time>
      </trkpt>
      <trkpt lat="45.80672" lon="15.77063">
        <ele>127.633636</ele>
        <time>2022-08-05T12:23:35.082Z</time>
      </trkpt>
      <trkpt lat="45.80656" lon="15.76998">
        <ele>127.809944</ele>
        <time>2022-08-05T12:23:48.917Z</time>
      </trkpt>
      <trkpt lat="45.80657" lon="15.76931">
        <ele>127.980929</ele>
        <time>2022-08-05T12:24:02.045Z</time>
      </trkpt>
      <trkpt lat="45.80678" lon="15.76865">
        <ele>128.165696</ele>
        <time>2022-08-05T12:24:16.017Z</time>
      </trkpt>
      <trkpt lat="45.80704" lon="15.76824">
        <ele>128.351189</ele>
        <time>2022-08-05T12:24:27.852Z</time>
      </trkpt>
      <trkpt lat="45.80736" lon="15.76797">
        <ele>128.545572</ele>
        <time>2022-08-05T12:24:39.286Z</time>
      </trkpt>
      <trkpt lat="45.80924" lon="15.76681">
        <ele>129.080497</ele>
        <time>2022-08-05T12:25:38.008Z</time>
      </trkpt>
      <trkpt lat="45.81026" lon="15.76619">
        <ele>128.854755</ele>
        <time>2022-08-05T12:26:05.361Z</time>
      </trkpt>
      <trkpt lat="45.81073" lon="15.76575">
        <ele>128.420715</ele>
        <time>2022-08-05T12:26:18.479Z</time>
      </trkpt>
      <trkpt lat="45.811" lon="15.76529">
        <ele>128.099002</ele>
        <time>2022-08-05T12:26:28.108Z</time>
      </trkpt>
      <trkpt lat="45.81152" lon="15.76394">
        <ele>127.699418</ele>
        <time>2022-08-05T12:26:53.929Z</time>
      </trkpt>
      <trkpt lat="45.81173" lon="15.76335">
        <ele>127.771149</ele>
        <time>2022-08-05T12:27:06.097Z</time>
      </trkpt>
      <trkpt lat="45.81188" lon="15.7627">
        <ele>127.844451</ele>
        <time>2022-08-05T12:27:19.831Z</time>
      </trkpt>
      <trkpt lat="45.8122" lon="15.76095">
        <ele>128.710814</ele>
        <time>2022-08-05T12:27:59.280Z</time>
      </trkpt>
      <trkpt lat="45.81221" lon="15.7607">
        <ele>128.875603</ele>
        <time>2022-08-05T12:28:05.232Z</time>
      </trkpt>
      <trkpt lat="45.81211" lon="15.76037">
        <ele>129.112935</ele>
        <time>2022-08-05T12:28:13.205Z</time>
      </trkpt>
      <trkpt lat="45.81161" lon="15.75969">
        <ele>129.676326</ele>
        <time>2022-08-05T12:28:34.545Z</time>
      </trkpt>
      <trkpt lat="45.81123" lon="15.75894">
        <ele>129.965582</ele>
        <time>2022-08-05T12:28:53.570Z</time>
      </trkpt>
      <trkpt lat="45.8111" lon="15.75867">
        <ele>130.066964</ele>
        <time>2022-08-05T12:28:59.706Z</time>
      </trkpt>
      <trkpt lat="45.81074" lon="15.75811">
        <ele>130.304295</ele>
        <time>2022-08-05T12:29:14.272Z</time>
      </trkpt>
      <trkpt lat="45.81008" lon="15.75738">
        <ele>130.691741</ele>
        <time>2022-08-05T12:29:38.080Z</time>
      </trkpt>
      <trkpt lat="45.80963" lon="15.75673">
        <ele>130.986423</ele>
        <time>2022-08-05T12:29:56.770Z</time>
      </trkpt>
      <trkpt lat="45.80942" lon="15.75635">
        <ele>131.145555</ele>
        <time>2022-08-05T12:30:06.886Z</time>
      </trkpt>
      <trkpt lat="45.80917" lon="15.75589">
        <ele>131.356973</ele>
        <time>2022-08-05T12:30:18.724Z</time>
      </trkpt>
      <trkpt lat="45.80875" lon="15.75485">
        <ele>131.841075</ele>
        <time>2022-08-05T12:30:42.999Z</time>
      </trkpt>
      <trkpt lat="45.80844" lon="15.75335">
        <ele>132.492078</ele>
        <time>2022-08-05T12:31:15.367Z</time>
      </trkpt>
      <trkpt lat="45.80846" lon="15.75306">
        <ele>132.624763</ele>
        <time>2022-08-05T12:31:21.605Z</time>
      </trkpt>
      <trkpt lat="45.80865" lon="15.75244">
        <ele>132.928059</ele>
        <time>2022-08-05T12:31:35.576Z</time>
      </trkpt>
      <trkpt lat="45.80942" lon="15.7504">
        <ele>133.622789</ele>
        <time>2022-08-05T12:32:23.809Z</time>
      </trkpt>
      <trkpt lat="45.80957" lon="15.74998">
        <ele>133.696007</ele>
        <time>2022-08-05T12:32:32.233Z</time>
      </trkpt>
      <trkpt lat="45.80965" lon="15.74919">
        <ele>133.821398</ele>
        <time>2022-08-05T12:32:46.989Z</time>
      </trkpt>
      <trkpt lat="45.80966" lon="15.74906">
        <ele>133.841126</ele>
        <time>2022-08-05T12:32:49.427Z</time>
      </trkpt>
      <trkpt lat="45.80971" lon="15.74836">
        <ele>133.842685</ele>
        <time>2022-08-05T12:33:02.139Z</time>
      </trkpt>
      <trkpt lat="45.80971" lon="15.7478">
        <ele>133.843918</ele>
        <time>2022-08-05T12:33:12.087Z</time>
      </trkpt>
      <trkpt lat="45.8096" lon="15.74721">
        <ele>133.845287</ele>
        <time>2022-08-05T12:33:23.248Z</time>
      </trkpt>
      <trkpt lat="45.80959" lon="15.7464">
        <ele>133.914799</ele>
        <time>2022-08-05T12:33:38.363Z</time>
      </trkpt>
      <trkpt lat="45.80976" lon="15.74503">
        <ele>134.823502</ele>
        <time>2022-08-05T12:34:09.759Z</time>
      </trkpt>
      <trkpt lat="45.8096" lon="15.74459">
        <ele>135.149233</ele>
        <time>2022-08-05T12:34:20.655Z</time>
      </trkpt>
      <trkpt lat="45.80956" lon="15.74448">
        <ele>135.235364</ele>
        <time>2022-08-05T12:34:23.607Z</time>
      </trkpt>
      <trkpt lat="45.80935" lon="15.7439">
        <ele>135.626925</ele>
        <time>2022-08-05T12:34:37.603Z</time>
      </trkpt>
      <trkpt lat="45.80932" lon="15.74377">
        <ele>135.693748</ele>
        <time>2022-08-05T12:34:40.546Z</time>
      </trkpt>
      <trkpt lat="45.80878" lon="15.74098">
        <ele>137.034996</ele>
        <time>2022-08-05T12:35:40.835Z</time>
      </trkpt>
      <trkpt lat="45.80877" lon="15.74091">
        <ele>137.061345</ele>
        <time>2022-08-05T12:35:42.313Z</time>
      </trkpt>
      <trkpt lat="45.80861" lon="15.74003">
        <ele>137.397859</ele>
        <time>2022-08-05T12:36:00.851Z</time>
      </trkpt>
      <trkpt lat="45.80847" lon="15.73959">
        <ele>137.574438</ele>
        <time>2022-08-05T12:36:10.416Z</time>
      </trkpt>
      <trkpt lat="45.8083" lon="15.73901">
        <ele>137.795682</ele>
        <time>2022-08-05T12:36:23.024Z</time>
      </trkpt>
      <trkpt lat="45.80801" lon="15.73798">
        <ele>138.126986</ele>
        <time>2022-08-05T12:36:45.795Z</time>
      </trkpt>
      <trkpt lat="45.80785" lon="15.73742">
        <ele>138.306568</ele>
        <time>2022-08-05T12:36:57.727Z</time>
      </trkpt>
      <trkpt lat="45.80761" lon="15.73632">
        <ele>138.663712</ele>
        <time>2022-08-05T12:37:20.704Z</time>
      </trkpt>
      <trkpt lat="45.80759" lon="15.73617">
        <ele>138.714302</ele>
        <time>2022-08-05T12:37:23.730Z</time>
      </trkpt>
      <trkpt lat="45.80753" lon="15.73577">
        <ele>138.851103</ele>
        <time>2022-08-05T12:37:31.696Z</time>
      </trkpt>
      <trkpt lat="45.8075" lon="15.73557">
        <ele>138.916491</ele>
        <time>2022-08-05T12:37:35.493Z</time>
      </trkpt>
      <trkpt lat="45.80747" lon="15.73544">
        <ele>138.961356</ele>
        <time>2022-08-05T12:37:38.102Z</time>
      </trkpt>
      <trkpt lat="45.80742" lon="15.73517">
        <ele>139.0558</ele>
        <time>2022-08-05T12:37:43.978Z</time>
      </trkpt>
      <trkpt lat="45.80731" lon="15.73473">
        <ele>139.209063</ele>
        <time>2022-08-05T12:37:53.418Z</time>
      </trkpt>
      <trkpt lat="45.80714" lon="15.73431">
        <ele>139.369677</ele>
        <time>2022-08-05T12:38:03.393Z</time>
      </trkpt>
      <trkpt lat="45.80645" lon="15.73306">
        <ele>140.429549</ele>
        <time>2022-08-05T12:38:37.985Z</time>
      </trkpt>
      <trkpt lat="45.8064" lon="15.73298">
        <ele>140.50104</ele>
        <time>2022-08-05T12:38:40.349Z</time>
      </trkpt>
      <trkpt lat="45.80624" lon="15.73272">
        <ele>140.735431</ele>
        <time>2022-08-05T12:38:48.193Z</time>
      </trkpt>
      <trkpt lat="45.80611" lon="15.73249">
        <ele>140.926272</ele>
        <time>2022-08-05T12:38:54.569Z</time>
      </trkpt>
      <trkpt lat="45.80599" lon="15.73226">
        <ele>141.128264</ele>
        <time>2022-08-05T12:39:01.168Z</time>
      </trkpt>
      <trkpt lat="45.8059" lon="15.73203">
        <ele>141.336037</ele>
        <time>2022-08-05T12:39:07.073Z</time>
      </trkpt>
      <trkpt lat="45.80585" lon="15.73184">
        <ele>141.500256</ele>
        <time>2022-08-05T12:39:11.759Z</time>
      </trkpt>
      <trkpt lat="45.80573" lon="15.7313">
        <ele>141.942144</ele>
        <time>2022-08-05T12:39:24.536Z</time>
      </trkpt>
      <trkpt lat="45.80569" lon="15.73088">
        <ele>142.280573</ele>
        <time>2022-08-05T12:39:34.414Z</time>
      </trkpt>
      <trkpt lat="45.80565" lon="15.72991">
        <ele>143.047661</ele>
        <time>2022-08-05T12:39:56.040Z</time>
      </trkpt>
      <trkpt lat="45.80557" lon="15.7289">
        <ele>143.788569</ele>
        <time>2022-08-05T12:40:17.933Z</time>
      </trkpt>
      <trkpt lat="45.80555" lon="15.72851">
        <ele>144.069816</ele>
        <time>2022-08-05T12:40:26.310Z</time>
      </trkpt>
      <trkpt lat="45.80562" lon="15.72771">
        <ele>144.651487</ele>
        <time>2022-08-05T12:40:44.037Z</time>
      </trkpt>
      <trkpt lat="45.80573" lon="15.72668">
        <ele>145.485959</ele>
        <time>2022-08-05T12:41:07.872Z</time>
      </trkpt>
      <trkpt lat="45.80558" lon="15.7244">
        <ele>147.3411</ele>
        <time>2022-08-05T12:42:00.661Z</time>
      </trkpt>
      <trkpt lat="45.80566" lon="15.72259">
        <ele>148.087313</ele>
        <time>2022-08-05T12:42:37.447Z</time>
      </trkpt>
      <trkpt lat="45.80562" lon="15.72222">
        <ele>148.241701</ele>
        <time>2022-08-05T12:42:44.955Z</time>
      </trkpt>
      <trkpt lat="45.80547" lon="15.72167">
        <ele>148.404188</ele>
        <time>2022-08-05T12:42:56.472Z</time>
      </trkpt>
      <trkpt lat="45.80528" lon="15.72123">
        <ele>148.528132</ele>
        <time>2022-08-05T12:43:06.469Z</time>
      </trkpt>
      <trkpt lat="45.80511" lon="15.72087">
        <ele>148.633217</ele>
        <time>2022-08-05T12:43:15.057Z</time>
      </trkpt>
      <trkpt lat="45.80514" lon="15.72083">
        <ele>148.646683</ele>
        <time>2022-08-05T12:43:16.112Z</time>
      </trkpt>
      <trkpt lat="45.80539" lon="15.72015">
        <ele>148.832114</ele>
        <time>2022-08-05T12:43:31.631Z</time>
      </trkpt>
      <trkpt lat="45.80577" lon="15.71863">
        <ele>149.195681</ele>
        <time>2022-08-05T12:44:05.687Z</time>
      </trkpt>
      <trkpt lat="45.80596" lon="15.71821">
        <ele>149.306439</ele>
        <time>2022-08-05T12:44:15.997Z</time>
      </trkpt>
      <trkpt lat="45.80602" lon="15.71808">
        <ele>149.340531</ele>
        <time>2022-08-05T12:44:19.055Z</time>
      </trkpt>
      <trkpt lat="45.80604" lon="15.71802">
        <ele>149.354637</ele>
        <time>2022-08-05T12:44:20.336Z</time>
      </trkpt>
      <trkpt lat="45.806" lon="15.71795">
        <ele>149.374044</ele>
        <time>2022-08-05T12:44:22.096Z</time>
      </trkpt>
      <trkpt lat="45.80619" lon="15.71772">
        <ele>149.453356</ele>
        <time>2022-08-05T12:44:28.889Z</time>
      </trkpt>
      <trkpt lat="45.80628" lon="15.71761">
        <ele>149.488062</ele>
        <time>2022-08-05T12:44:32.000Z</time>
      </trkpt>
      <trkpt lat="45.8063" lon="15.71758">
        <ele>149.495316</ele>
        <time>2022-08-05T12:44:32.768Z</time>
      </trkpt>
      <trkpt lat="45.80661" lon="15.71714">
        <ele>149.60849</ele>
        <time>2022-08-05T12:44:44.594Z</time>
      </trkpt>
      <trkpt lat="45.80671" lon="15.71702">
        <ele>149.641438</ele>
        <time>2022-08-05T12:44:47.983Z</time>
      </trkpt>
      <trkpt lat="45.80689" lon="15.71681">
        <ele>149.701206</ele>
        <time>2022-08-05T12:44:54.156Z</time>
      </trkpt>
      <trkpt lat="45.80702" lon="15.71668">
        <ele>149.741132</ele>
        <time>2022-08-05T12:44:58.221Z</time>
      </trkpt>
      <trkpt lat="45.80692" lon="15.71657">
        <ele>149.772185</ele>
        <time>2022-08-05T12:45:01.502Z</time>
      </trkpt>
      <trkpt lat="45.80675" lon="15.71615">
        <ele>149.860101</ele>
        <time>2022-08-05T12:45:11.123Z</time>
      </trkpt>
      <trkpt lat="45.80668" lon="15.71593">
        <ele>149.902984</ele>
        <time>2022-08-05T12:45:16.157Z</time>
      </trkpt>
      <trkpt lat="45.8066" lon="15.71564">
        <ele>150.007392</ele>
        <time>2022-08-05T12:45:22.735Z</time>
      </trkpt>
      <trkpt lat="45.80657" lon="15.71555">
        <ele>150.078093</ele>
        <time>2022-08-05T12:45:24.873Z</time>
      </trkpt>
      <trkpt lat="45.80654" lon="15.71545">
        <ele>150.15677</ele>
        <time>2022-08-05T12:45:27.226Z</time>
      </trkpt>
      <trkpt lat="45.80651" lon="15.71534">
        <ele>150.244098</ele>
        <time>2022-08-05T12:45:29.774Z</time>
      </trkpt>
      <trkpt lat="45.80646" lon="15.71521">
        <ele>150.356262</ele>
        <time>2022-08-05T12:45:33.059Z</time>
      </trkpt>
      <trkpt lat="45.80629" lon="15.71482">
        <ele>150.687182</ele>
        <time>2022-08-05T12:45:42.907Z</time>
      </trkpt>
      <trkpt lat="45.80606" lon="15.71445">
        <ele>151.055482</ele>
        <time>2022-08-05T12:45:53.933Z</time>
      </trkpt>
      <trkpt lat="45.80599" lon="15.71437">
        <ele>151.149191</ele>
        <time>2022-08-05T12:45:56.786Z</time>
      </trkpt>
      <trkpt lat="45.80556" lon="15.71398">
        <ele>151.682606</ele>
        <time>2022-08-05T12:46:12.976Z</time>
      </trkpt>
      <trkpt lat="45.80531" lon="15.71374">
        <ele>152.052824</ele>
        <time>2022-08-05T12:46:23.172Z</time>
      </trkpt>
      <trkpt lat="45.8049" lon="15.71334">
        <ele>152.729351</ele>
        <time>2022-08-05T12:46:40.326Z</time>
      </trkpt>
      <trkpt lat="45.80486" lon="15.7133">
        <ele>152.797971</ele>
        <time>2022-08-05T12:46:42.089Z</time>
      </trkpt>
      <trkpt lat="45.80487" lon="15.71326">
        <ele>152.838318</ele>
        <time>2022-08-05T12:46:43.140Z</time>
      </trkpt>
      <trkpt lat="45.80484" lon="15.71314">
        <ele>152.958042</ele>
        <time>2022-08-05T12:46:46.214Z</time>
      </trkpt>
      <trkpt lat="45.80489" lon="15.71305">
        <ele>153.072233</ele>
        <time>2022-08-05T12:46:49.076Z</time>
      </trkpt>
      <trkpt lat="45.8051" lon="15.71254">
        <ele>153.622433</ele>
        <time>2022-08-05T12:47:02.584Z</time>
      </trkpt>
      <trkpt lat="45.80522" lon="15.71222">
        <ele>153.96975</ele>
        <time>2022-08-05T12:47:10.713Z</time>
      </trkpt>
      <trkpt lat="45.80526" lon="15.71212">
        <ele>154.086884</ele>
        <time>2022-08-05T12:47:13.531Z</time>
      </trkpt>
      <trkpt lat="45.80536" lon="15.71188">
        <ele>154.34208</ele>
        <time>2022-08-05T12:47:19.506Z</time>
      </trkpt>
      <trkpt lat="45.80549" lon="15.71156">
        <ele>154.676181</ele>
        <time>2022-08-05T12:47:27.943Z</time>
      </trkpt>
      <trkpt lat="45.80555" lon="15.71143">
        <ele>154.811076</ele>
        <time>2022-08-05T12:47:31.203Z</time>
      </trkpt>
      <trkpt lat="45.80566" lon="15.7111">
        <ele>155.137265</ele>
        <time>2022-08-05T12:47:39.628Z</time>
      </trkpt>
      <trkpt lat="45.80577" lon="15.71066">
        <ele>155.552764</ele>
        <time>2022-08-05T12:47:50.553Z</time>
      </trkpt>
      <trkpt lat="45.80582" lon="15.71042">
        <ele>155.776597</ele>
        <time>2022-08-05T12:47:56.285Z</time>
      </trkpt>
      <trkpt lat="45.80583" lon="15.71034">
        <ele>155.849864</ele>
        <time>2022-08-05T12:47:58.300Z</time>
      </trkpt>
      <trkpt lat="45.80593" lon="15.71023">
        <ele>156.012894</ele>
        <time>2022-08-05T12:48:02.723Z</time>
      </trkpt>
      <trkpt lat="45.80628" lon="15.71022">
        <ele>156.450063</ele>
        <time>2022-08-05T12:48:14.068Z</time>
      </trkpt>
      <trkpt lat="45.8077" lon="15.71013">
        <ele>158.029505</ele>
        <time>2022-08-05T12:48:59.680Z</time>
      </trkpt>
      <trkpt lat="45.80805" lon="15.71004">
        <ele>158.422306</ele>
        <time>2022-08-05T12:49:11.017Z</time>
      </trkpt>
      <trkpt lat="45.80895" lon="15.70962">
        <ele>158.819225</ele>
        <time>2022-08-05T12:49:40.033Z</time>
      </trkpt>
      <trkpt lat="45.80977" lon="15.70915">
        <ele>159.10253</ele>
        <time>2022-08-05T12:50:03.529Z</time>
      </trkpt>
      <trkpt lat="45.80986" lon="15.7091">
        <ele>159.128103</ele>
        <time>2022-08-05T12:50:05.916Z</time>
      </trkpt>
      <trkpt lat="45.80993" lon="15.70905">
        <ele>159.087959</ele>
        <time>2022-08-05T12:50:07.889Z</time>
      </trkpt>
      <trkpt lat="45.81079" lon="15.70846">
        <ele>158.597403</ele>
        <time>2022-08-05T12:50:30.953Z</time>
      </trkpt>
      <trkpt lat="45.81176" lon="15.70799">
        <ele>158.331897</ele>
        <time>2022-08-05T12:50:55.789Z</time>
      </trkpt>
      <trkpt lat="45.81204" lon="15.70782">
        <ele>158.481469</ele>
        <time>2022-08-05T12:51:03.820Z</time>
      </trkpt>
      <trkpt lat="45.81208" lon="15.70779">
        <ele>158.501924</ele>
        <time>2022-08-05T12:51:04.963Z</time>
      </trkpt>
      <trkpt lat="45.81242" lon="15.70748">
        <ele>158.701574</ele>
        <time>2022-08-05T12:51:16.644Z</time>
      </trkpt>
      <trkpt lat="45.81273" lon="15.70712">
        <ele>158.895726</ele>
        <time>2022-08-05T12:51:28.796Z</time>
      </trkpt>
      <trkpt lat="45.81442" lon="15.70546">
        <ele>161.608192</ele>
        <time>2022-08-05T12:52:38.929Z</time>
      </trkpt>
      <trkpt lat="45.81447" lon="15.70541">
        <ele>161.704643</ele>
        <time>2022-08-05T12:52:41.114Z</time>
      </trkpt>
      <trkpt lat="45.81493" lon="15.705">
        <ele>162.323666</ele>
        <time>2022-08-05T12:52:58.892Z</time>
      </trkpt>
      <trkpt lat="45.81515" lon="15.70487">
        <ele>162.581514</ele>
        <time>2022-08-05T12:53:06.467Z</time>
      </trkpt>
      <trkpt lat="45.81574" lon="15.70467">
        <ele>163.247593</ele>
        <time>2022-08-05T12:53:25.829Z</time>
      </trkpt>
      <trkpt lat="45.81608" lon="15.70446">
        <ele>163.643026</ele>
        <time>2022-08-05T12:53:37.503Z</time>
      </trkpt>
      <trkpt lat="45.81638" lon="15.7042">
        <ele>163.779673</ele>
        <time>2022-08-05T12:53:48.586Z</time>
      </trkpt>
      <trkpt lat="45.81683" lon="15.70373">
        <ele>163.796522</ele>
        <time>2022-08-05T12:54:03.943Z</time>
      </trkpt>
      <trkpt lat="45.81737" lon="15.70298">
        <ele>163.819404</ele>
        <time>2022-08-05T12:54:23.492Z</time>
      </trkpt>
      <trkpt lat="45.81765" lon="15.70267">
        <ele>163.672733</ele>
        <time>2022-08-05T12:54:32.397Z</time>
      </trkpt>
      <trkpt lat="45.81795" lon="15.70242">
        <ele>163.160999</ele>
        <time>2022-08-05T12:54:40.467Z</time>
      </trkpt>
      <trkpt lat="45.81906" lon="15.70143">
        <ele>161.187655</ele>
        <time>2022-08-05T12:55:08.409Z</time>
      </trkpt>
      <trkpt lat="45.81971" lon="15.70064">
        <ele>159.708477</ele>
        <time>2022-08-05T12:55:26.540Z</time>
      </trkpt>
      <trkpt lat="45.82024" lon="15.69999">
        <ele>158.488828</ele>
        <time>2022-08-05T12:55:41.386Z</time>
      </trkpt>
      <trkpt lat="45.82134" lon="15.69917">
        <ele>156.578671</ele>
        <time>2022-08-05T12:56:08.722Z</time>
      </trkpt>
      <trkpt lat="45.82211" lon="15.69868">
        <ele>155.343856</ele>
        <time>2022-08-05T12:56:27.965Z</time>
      </trkpt>
      <trkpt lat="45.82346" lon="15.69798">
        <ele>152.659359</ele>
        <time>2022-08-05T12:56:58.538Z</time>
      </trkpt>
      <trkpt lat="45.82387" lon="15.69771">
        <ele>151.830784</ele>
        <time>2022-08-05T12:57:07.929Z</time>
      </trkpt>
      <trkpt lat="45.82462" lon="15.697">
        <ele>150.308719</ele>
        <time>2022-08-05T12:57:26.554Z</time>
      </trkpt>
      <trkpt lat="45.82485" lon="15.69677">
        <ele>149.821728</ele>
        <time>2022-08-05T12:57:32.538Z</time>
      </trkpt>
      <trkpt lat="45.82524" lon="15.69655">
        <ele>149.104261</ele>
        <time>2022-08-05T12:57:41.785Z</time>
      </trkpt>
      <trkpt lat="45.82534" lon="15.69649">
        <ele>148.917803</ele>
        <time>2022-08-05T12:57:44.320Z</time>
      </trkpt>
      <trkpt lat="45.8256" lon="15.69629">
        <ele>149.066279</ele>
        <time>2022-08-05T12:57:51.553Z</time>
      </trkpt>
      <trkpt lat="45.82666" lon="15.69539">
        <ele>149.82807</ele>
        <time>2022-08-05T12:58:28.231Z</time>
      </trkpt>
      <trkpt lat="45.8286" lon="15.69365">
        <ele>154.234122</ele>
        <time>2022-08-05T12:59:53.735Z</time>
      </trkpt>
      <trkpt lat="45.82915" lon="15.69287">
        <ele>155.659388</ele>
        <time>2022-08-05T13:00:22.783Z</time>
      </trkpt>
      <trkpt lat="45.83042" lon="15.69127">
        <ele>157.802818</ele>
        <time>2022-08-05T13:01:18.321Z</time>
      </trkpt>
      <trkpt lat="45.83065" lon="15.69098">
        <ele>158.026488</ele>
        <time>2022-08-05T13:01:27.319Z</time>
      </trkpt>
      <trkpt lat="45.83099" lon="15.69069">
        <ele>158.319778</ele>
        <time>2022-08-05T13:01:38.599Z</time>
      </trkpt>
      <trkpt lat="45.83346" lon="15.68915">
        <ele>158.562397</ele>
        <time>2022-08-05T13:02:48.980Z</time>
      </trkpt>
      <trkpt lat="45.83364" lon="15.68905">
        <ele>158.631484</ele>
        <time>2022-08-05T13:02:54.885Z</time>
      </trkpt>
      <trkpt lat="45.83396" lon="15.68886">
        <ele>158.760547</ele>
        <time>2022-08-05T13:03:05.680Z</time>
      </trkpt>
      <trkpt lat="45.83424" lon="15.6887">
        <ele>158.872568</ele>
        <time>2022-08-05T13:03:14.774Z</time>
      </trkpt>
      <trkpt lat="45.83442" lon="15.6886">
        <ele>158.941561</ele>
        <time>2022-08-05T13:03:20.365Z</time>
      </trkpt>
      <trkpt lat="45.83483" lon="15.68838">
        <ele>158.899795</ele>
        <time>2022-08-05T13:03:32.815Z</time>
      </trkpt>
      <trkpt lat="45.83497" lon="15.68835">
        <ele>158.864952</ele>
        <time>2022-08-05T13:03:36.849Z</time>
      </trkpt>
      <trkpt lat="45.8351" lon="15.68832">
        <ele>158.833454</ele>
        <time>2022-08-05T13:03:40.547Z</time>
      </trkpt>
      <trkpt lat="45.83647" lon="15.68818">
        <ele>158.509913</ele>
        <time>2022-08-05T13:04:13.655Z</time>
      </trkpt>
      <trkpt lat="45.83713" lon="15.68812">
        <ele>158.369808</ele>
        <time>2022-08-05T13:04:29.992Z</time>
      </trkpt>
      <trkpt lat="45.83765" lon="15.68807">
        <ele>158.257607</ele>
        <time>2022-08-05T13:04:44.230Z</time>
      </trkpt>
      <trkpt lat="45.83771" lon="15.68806">
        <ele>158.244957</ele>
        <time>2022-08-05T13:04:45.847Z</time>
      </trkpt>
      <trkpt lat="45.83806" lon="15.68801">
        <ele>158.169293</ele>
        <time>2022-08-05T13:04:55.423Z</time>
      </trkpt>
      <trkpt lat="45.83827" lon="15.68799">
        <ele>158.197969</ele>
        <time>2022-08-05T13:05:01.025Z</time>
      </trkpt>
      <trkpt lat="45.83834" lon="15.68798">
        <ele>158.209488</ele>
        <time>2022-08-05T13:05:02.876Z</time>
      </trkpt>
      <trkpt lat="45.83857" lon="15.68795">
        <ele>158.250665</ele>
        <time>2022-08-05T13:05:09.169Z</time>
      </trkpt>
      <trkpt lat="45.83877" lon="15.68793">
        <ele>158.285483</ele>
        <time>2022-08-05T13:05:14.675Z</time>
      </trkpt>
      <trkpt lat="45.84" lon="15.68783">
        <ele>158.411192</ele>
        <time>2022-08-05T13:05:49.311Z</time>
      </trkpt>
      <trkpt lat="45.84008" lon="15.68783">
        <ele>158.366785</ele>
        <time>2022-08-05T13:05:51.406Z</time>
      </trkpt>
      <trkpt lat="45.84016" lon="15.68784">
        <ele>158.322853</ele>
        <time>2022-08-05T13:05:53.592Z</time>
      </trkpt>
      <trkpt lat="45.84024" lon="15.6872">
        <ele>158.075872</ele>
        <time>2022-08-05T13:06:05.068Z</time>
      </trkpt>
      <trkpt lat="45.84023" lon="15.68616">
        <ele>157.678341</ele>
        <time>2022-08-05T13:06:22.300Z</time>
      </trkpt>
      <trkpt lat="45.84028" lon="15.68591">
        <ele>157.576734</ele>
        <time>2022-08-05T13:06:26.579Z</time>
      </trkpt>
      <trkpt lat="45.8404" lon="15.68573">
        <ele>157.442442</ele>
        <time>2022-08-05T13:06:30.985Z</time>
      </trkpt>
      <trkpt lat="45.84096" lon="15.68542">
        <ele>155.821844</ele>
        <time>2022-08-05T13:06:44.032Z</time>
      </trkpt>
      <trkpt lat="45.84116" lon="15.68525">
        <ele>155.183683</ele>
        <time>2022-08-05T13:06:48.773Z</time>
      </trkpt>
      <trkpt lat="45.84143" lon="15.6848">
        <ele>154.04755</ele>
        <time>2022-08-05T13:06:56.821Z</time>
      </trkpt>
      <trkpt lat="45.84175" lon="15.68436">
        <ele>152.841763</ele>
        <time>2022-08-05T13:07:05.044Z</time>
      </trkpt>
      <trkpt lat="45.84192" lon="15.6843">
        <ele>152.328948</ele>
        <time>2022-08-05T13:07:08.348Z</time>
      </trkpt>
      <trkpt lat="45.84203" lon="15.68425">
        <ele>151.977367</ele>
        <time>2022-08-05T13:07:10.473Z</time>
      </trkpt>
      <trkpt lat="45.84211" lon="15.68418">
        <ele>151.68449</ele>
        <time>2022-08-05T13:07:12.315Z</time>
      </trkpt>
      <trkpt lat="45.84239" lon="15.68408">
        <ele>150.790271</ele>
        <time>2022-08-05T13:07:17.868Z</time>
      </trkpt>
      <trkpt lat="45.8425" lon="15.684">
        <ele>150.405989</ele>
        <time>2022-08-05T13:07:20.310Z</time>
      </trkpt>
      <trkpt lat="45.8426" lon="15.68393">
        <ele>150.066781</ele>
        <time>2022-08-05T13:07:22.431Z</time>
      </trkpt>
      <trkpt lat="45.8427" lon="15.68384">
        <ele>149.694584</ele>
        <time>2022-08-05T13:07:24.750Z</time>
      </trkpt>
      <trkpt lat="45.84281" lon="15.68373">
        <ele>149.278044</ele>
        <time>2022-08-05T13:07:27.372Z</time>
      </trkpt>
      <trkpt lat="45.84299" lon="15.68356">
        <ele>148.593424</ele>
        <time>2022-08-05T13:07:31.633Z</time>
      </trkpt>
      <trkpt lat="45.84317" lon="15.68345">
        <ele>147.997387</ele>
        <time>2022-08-05T13:07:35.454Z</time>
      </trkpt>
      <trkpt lat="45.8432" lon="15.68345">
        <ele>147.906392</ele>
        <time>2022-08-05T13:07:36.019Z</time>
      </trkpt>
      <trkpt lat="45.84346" lon="15.68362">
        <ele>147.02018</ele>
        <time>2022-08-05T13:07:41.803Z</time>
      </trkpt>
      <trkpt lat="45.84338" lon="15.68407">
        <ele>146.71009</ele>
        <time>2022-08-05T13:07:48.633Z</time>
      </trkpt>
      <trkpt lat="45.84334" lon="15.68457">
        <ele>146.407175</ele>
        <time>2022-08-05T13:07:56.477Z</time>
      </trkpt>
      <trkpt lat="45.84335" lon="15.68472">
        <ele>146.320268</ele>
        <time>2022-08-05T13:07:58.846Z</time>
      </trkpt>
      <trkpt lat="45.84337" lon="15.6852">
        <ele>146.030443</ele>
        <time>2022-08-05T13:08:07.181Z</time>
      </trkpt>
      <trkpt lat="45.84338" lon="15.68546">
        <ele>145.874199</ele>
        <time>2022-08-05T13:08:11.922Z</time>
      </trkpt>
      <trkpt lat="45.84341" lon="15.68582">
        <ele>145.658544</ele>
        <time>2022-08-05T13:08:18.535Z</time>
      </trkpt>
      <trkpt lat="45.84342" lon="15.68592">
        <ele>145.597667</ele>
        <time>2022-08-05T13:08:20.417Z</time>
      </trkpt>
      <trkpt lat="45.84344" lon="15.68621">
        <ele>145.433948</ele>
        <time>2022-08-05T13:08:25.787Z</time>
      </trkpt>
      <trkpt lat="45.84346" lon="15.68637">
        <ele>145.5259</ele>
        <time>2022-08-05T13:08:29.018Z</time>
      </trkpt>
      <trkpt lat="45.84354" lon="15.68634">
        <ele>145.595758</ele>
        <time>2022-08-05T13:08:31.438Z</time>
      </trkpt>
      <trkpt lat="45.84453" lon="15.68595">
        <ele>146.399394</ele>
        <time>2022-08-05T13:09:00.869Z</time>
      </trkpt>
      <trkpt lat="45.84634" lon="15.68481">
        <ele>149.900749</ele>
        <time>2022-08-05T13:10:10.356Z</time>
      </trkpt>
      <trkpt lat="45.8465" lon="15.68464">
        <ele>150.34102</ele>
        <time>2022-08-05T13:10:19.010Z</time>
      </trkpt>
      <trkpt lat="45.8467" lon="15.68428">
        <ele>151.241758</ele>
        <time>2022-08-05T13:10:32.459Z</time>
      </trkpt>
      <trkpt lat="45.84688" lon="15.68382">
        <ele>152.653777</ele>
        <time>2022-08-05T13:10:48.703Z</time>
      </trkpt>
      <trkpt lat="45.84738" lon="15.68329">
        <ele>154.995135</ele>
        <time>2022-08-05T13:11:17.112Z</time>
      </trkpt>
      <trkpt lat="45.84794" lon="15.68231">
        <ele>158.203343</ele>
        <time>2022-08-05T13:11:58.888Z</time>
      </trkpt>
      <trkpt lat="45.84903" lon="15.68088">
        <ele>162.81976</ele>
        <time>2022-08-05T13:13:00.257Z</time>
      </trkpt>
      <trkpt lat="45.84941" lon="15.6804">
        <ele>163.419143</ele>
        <time>2022-08-05T13:13:18.537Z</time>
      </trkpt>
      <trkpt lat="45.84957" lon="15.68029">
        <ele>163.525475</ele>
        <time>2022-08-05T13:13:24.841Z</time>
      </trkpt>
      <trkpt lat="45.84992" lon="15.68016">
        <ele>163.735344</ele>
        <time>2022-08-05T13:13:35.952Z</time>
      </trkpt>
      <trkpt lat="45.85121" lon="15.68015">
        <ele>163.649797</ele>
        <time>2022-08-05T13:14:07.704Z</time>
      </trkpt>
      <trkpt lat="45.85434" lon="15.68003">
        <ele>158.83425</ele>
        <time>2022-08-05T13:15:15.197Z</time>
      </trkpt>
      <trkpt lat="45.85496" lon="15.67976">
        <ele>158.111162</ele>
        <time>2022-08-05T13:15:30.428Z</time>
      </trkpt>
      <trkpt lat="45.85587" lon="15.67921">
        <ele>157.04474</ele>
        <time>2022-08-05T13:15:53.729Z</time>
      </trkpt>
      <trkpt lat="45.85659" lon="15.67875">
        <ele>155.342783</ele>
        <time>2022-08-05T13:16:11.027Z</time>
      </trkpt>
      <trkpt lat="45.85758" lon="15.67839">
        <ele>152.78054</ele>
        <time>2022-08-05T13:16:31.368Z</time>
      </trkpt>
      <trkpt lat="45.85774" lon="15.67841">
        <ele>152.378247</ele>
        <time>2022-08-05T13:16:34.306Z</time>
      </trkpt>
      <trkpt lat="45.85887" lon="15.67854">
        <ele>149.272437</ele>
        <time>2022-08-05T13:16:56.127Z</time>
      </trkpt>
      <trkpt lat="45.85993" lon="15.67851">
        <ele>147.68502</ele>
        <time>2022-08-05T13:17:19.179Z</time>
      </trkpt>
      <trkpt lat="45.86052" lon="15.67834">
        <ele>148.210537</ele>
        <time>2022-08-05T13:17:36.590Z</time>
      </trkpt>
      <trkpt lat="45.8615" lon="15.67787">
        <ele>149.407394</ele>
        <time>2022-08-05T13:18:15.479Z</time>
      </trkpt>
      <trkpt lat="45.86225" lon="15.67721">
        <ele>151.536922</ele>
        <time>2022-08-05T13:18:51.472Z</time>
      </trkpt>
      <trkpt lat="45.86454" lon="15.67468">
        <ele>158.129013</ele>
        <time>2022-08-05T13:20:35.592Z</time>
      </trkpt>
      <trkpt lat="45.86467" lon="15.67449">
        <ele>158.761549</ele>
        <time>2022-08-05T13:20:42.899Z</time>
      </trkpt>
      <trkpt lat="45.86476" lon="15.67422">
        <ele>159.483146</ele>
        <time>2022-08-05T13:20:51.719Z</time>
      </trkpt>
      <trkpt lat="45.86544" lon="15.6721">
        <ele>164.08513</ele>
        <time>2022-08-05T13:22:08.359Z</time>
      </trkpt>
      <trkpt lat="45.86567" lon="15.67026">
        <ele>165.955052</ele>
        <time>2022-08-05T13:22:50.656Z</time>
      </trkpt>
      <trkpt lat="45.86582" lon="15.66959">
        <ele>164.220605</ele>
        <time>2022-08-05T13:23:00.283Z</time>
      </trkpt>
      <trkpt lat="45.86594" lon="15.66933">
        <ele>163.437995</ele>
        <time>2022-08-05T13:23:04.491Z</time>
      </trkpt>
      <trkpt lat="45.86618" lon="15.669">
        <ele>162.262527</ele>
        <time>2022-08-05T13:23:10.554Z</time>
      </trkpt>
      <trkpt lat="45.86716" lon="15.6681">
        <ele>159.020335</ele>
        <time>2022-08-05T13:23:31.401Z</time>
      </trkpt>
      <trkpt lat="45.8675" lon="15.66741">
        <ele>157.968224</ele>
        <time>2022-08-05T13:23:43.306Z</time>
      </trkpt>
      <trkpt lat="45.8678" lon="15.66691">
        <ele>157.155886</ele>
        <time>2022-08-05T13:23:56.996Z</time>
      </trkpt>
      <trkpt lat="45.86849" lon="15.66596">
        <ele>158.768068</ele>
        <time>2022-08-05T13:24:32.068Z</time>
      </trkpt>
      <trkpt lat="45.8696" lon="15.66523">
        <ele>162.361764</ele>
        <time>2022-08-05T13:25:25.580Z</time>
      </trkpt>
      <trkpt lat="45.87019" lon="15.66453">
        <ele>164.527329</ele>
        <time>2022-08-05T13:26:03.205Z</time>
      </trkpt>
      <trkpt lat="45.87049" lon="15.66348">
        <ele>166.748905</ele>
        <time>2022-08-05T13:26:29.628Z</time>
      </trkpt>
      <trkpt lat="45.87048" lon="15.66311">
        <ele>167.305793</ele>
        <time>2022-08-05T13:26:37.596Z</time>
      </trkpt>
      <trkpt lat="45.87028" lon="15.66247">
        <ele>168.115854</ele>
        <time>2022-08-05T13:26:54.136Z</time>
      </trkpt>
      <trkpt lat="45.87028" lon="15.66222">
        <ele>168.411951</ele>
        <time>2022-08-05T13:27:01.042Z</time>
      </trkpt>
      <trkpt lat="45.87037" lon="15.66216">
        <ele>168.575136</ele>
        <time>2022-08-05T13:27:02.821Z</time>
      </trkpt>
      <trkpt lat="45.87068" lon="15.6622">
        <ele>169.096614</ele>
        <time>2022-08-05T13:27:14.584Z</time>
      </trkpt>
      <trkpt lat="45.8708" lon="15.66215">
        <ele>169.293137</ele>
        <time>2022-08-05T13:27:19.441Z</time>
      </trkpt>
      <trkpt lat="45.87086" lon="15.66203">
        <ele>169.46941</ele>
        <time>2022-08-05T13:27:24.258Z</time>
      </trkpt>
      <trkpt lat="45.87112" lon="15.66035">
        <ele>172.997016</ele>
        <time>2022-08-05T13:28:09.220Z</time>
      </trkpt>
      <trkpt lat="45.87097" lon="15.6593">
        <ele>175.613893</ele>
        <time>2022-08-05T13:28:49.899Z</time>
      </trkpt>
      <trkpt lat="45.87113" lon="15.65715">
        <ele>177.269479</ele>
        <time>2022-08-05T13:29:45.910Z</time>
      </trkpt>
      <trkpt lat="45.87127" lon="15.65629">
        <ele>177.175989</ele>
        <time>2022-08-05T13:29:57.985Z</time>
      </trkpt>
      <trkpt lat="45.87147" lon="15.65553">
        <ele>174.796223</ele>
        <time>2022-08-05T13:30:08.526Z</time>
      </trkpt>
      <trkpt lat="45.87163" lon="15.65514">
        <ele>173.492074</ele>
        <time>2022-08-05T13:30:14.069Z</time>
      </trkpt>
      <trkpt lat="45.87207" lon="15.65442">
        <ele>170.719731</ele>
        <time>2022-08-05T13:30:26.110Z</time>
      </trkpt>
      <trkpt lat="45.87243" lon="15.65401">
        <ele>169.724049</ele>
        <time>2022-08-05T13:30:35.306Z</time>
      </trkpt>
      <trkpt lat="45.87257" lon="15.65369">
        <ele>169.387576</ele>
        <time>2022-08-05T13:30:40.837Z</time>
      </trkpt>
      <trkpt lat="45.87307" lon="15.65212">
        <ele>167.862027</ele>
        <time>2022-08-05T13:31:11.297Z</time>
      </trkpt>
      <trkpt lat="45.87322" lon="15.65142">
        <ele>167.360478</ele>
        <time>2022-08-05T13:31:24.939Z</time>
      </trkpt>
      <trkpt lat="45.87347" lon="15.6508">
        <ele>166.880849</ele>
        <time>2022-08-05T13:31:37.015Z</time>
      </trkpt>
      <trkpt lat="45.87383" lon="15.6502">
        <ele>166.343683</ele>
        <time>2022-08-05T13:31:49.144Z</time>
      </trkpt>
      <trkpt lat="45.87432" lon="15.64957">
        <ele>165.948893</ele>
        <time>2022-08-05T13:32:02.800Z</time>
      </trkpt>
      <trkpt lat="45.8745" lon="15.6489">
        <ele>165.764055</ele>
        <time>2022-08-05T13:32:14.248Z</time>
      </trkpt>
      <trkpt lat="45.87459" lon="15.64872">
        <ele>165.707246</ele>
        <time>2022-08-05T13:32:17.958Z</time>
      </trkpt>
      <trkpt lat="45.87491" lon="15.64822">
        <ele>165.53589</ele>
        <time>2022-08-05T13:32:30.286Z</time>
      </trkpt>
      <trkpt lat="45.87563" lon="15.64619">
        <ele>168.924887</ele>
        <time>2022-08-05T13:33:31.274Z</time>
      </trkpt>
      <trkpt lat="45.87576" lon="15.64517">
        <ele>170.813693</ele>
        <time>2022-08-05T13:34:03.393Z</time>
      </trkpt>
      <trkpt lat="45.87574" lon="15.64482">
        <ele>171.440598</ele>
        <time>2022-08-05T13:34:13.918Z</time>
      </trkpt>
      <trkpt lat="45.87561" lon="15.64408">
        <ele>172.790085</ele>
        <time>2022-08-05T13:34:36.176Z</time>
      </trkpt>
      <trkpt lat="45.87562" lon="15.64333">
        <ele>174.114536</ele>
        <time>2022-08-05T13:34:55.803Z</time>
      </trkpt>
      <trkpt lat="45.87568" lon="15.64299">
        <ele>174.734286</ele>
        <time>2022-08-05T13:35:04.222Z</time>
      </trkpt>
      <trkpt lat="45.87585" lon="15.6425">
        <ele>174.622486</ele>
        <time>2022-08-05T13:35:15.753Z</time>
      </trkpt>
      <trkpt lat="45.8763" lon="15.64037">
        <ele>173.879816</ele>
        <time>2022-08-05T13:35:51.909Z</time>
      </trkpt>
      <trkpt lat="45.87665" lon="15.63918">
        <ele>172.715864</ele>
        <time>2022-08-05T13:36:12.184Z</time>
      </trkpt>
      <trkpt lat="45.8769" lon="15.63863">
        <ele>172.123647</ele>
        <time>2022-08-05T13:36:22.365Z</time>
      </trkpt>
      <trkpt lat="45.87718" lon="15.63782">
        <ele>171.328911</ele>
        <time>2022-08-05T13:36:36.171Z</time>
      </trkpt>
      <trkpt lat="45.87739" lon="15.63686">
        <ele>170.472121</ele>
        <time>2022-08-05T13:36:52.082Z</time>
      </trkpt>
      <trkpt lat="45.87766" lon="15.63609">
        <ele>169.735295</ele>
        <time>2022-08-05T13:37:05.897Z</time>
      </trkpt>
      <trkpt lat="45.87778" lon="15.63527">
        <ele>168.893184</ele>
        <time>2022-08-05T13:37:18.963Z</time>
      </trkpt>
      <trkpt lat="45.87772" lon="15.6343">
        <ele>167.828736</ele>
        <time>2022-08-05T13:37:33.754Z</time>
      </trkpt>
      <trkpt lat="45.87774" lon="15.63354">
        <ele>167.011816</ele>
        <time>2022-08-05T13:37:45.166Z</time>
      </trkpt>
      <trkpt lat="45.87775" lon="15.63334">
        <ele>166.787723</ele>
        <time>2022-08-05T13:37:48.289Z</time>
      </trkpt>
      <trkpt lat="45.87795" lon="15.63246">
        <ele>165.612868</ele>
        <time>2022-08-05T13:38:02.173Z</time>
      </trkpt>
      <trkpt lat="45.87819" lon="15.63083">
        <ele>163.465282</ele>
        <time>2022-08-05T13:38:26.815Z</time>
      </trkpt>
      <trkpt lat="45.87867" lon="15.62904">
        <ele>160.943242</ele>
        <time>2022-08-05T13:38:55.049Z</time>
      </trkpt>
      <trkpt lat="45.87868" lon="15.62872">
        <ele>160.525758</ele>
        <time>2022-08-05T13:38:59.806Z</time>
      </trkpt>
      <trkpt lat="45.87842" lon="15.62757">
        <ele>159.41226</ele>
        <time>2022-08-05T13:39:18.027Z</time>
      </trkpt>
      <trkpt lat="45.87822" lon="15.62487">
        <ele>157.719148</ele>
        <time>2022-08-05T13:40:03.572Z</time>
      </trkpt>
      <trkpt lat="45.87825" lon="15.62377">
        <ele>157.201596</ele>
        <time>2022-08-05T13:40:23.018Z</time>
      </trkpt>
      <trkpt lat="45.87832" lon="15.62332">
        <ele>156.987615</ele>
        <time>2022-08-05T13:40:30.641Z</time>
      </trkpt>
      <trkpt lat="45.87884" lon="15.62112">
        <ele>154.346588</ele>
        <time>2022-08-05T13:41:05.539Z</time>
      </trkpt>
      <trkpt lat="45.87964" lon="15.61927">
        <ele>151.918993</ele>
        <time>2022-08-05T13:41:37.246Z</time>
      </trkpt>
      <trkpt lat="45.88059" lon="15.61667">
        <ele>150.847144</ele>
        <time>2022-08-05T13:42:27.579Z</time>
      </trkpt>
      <trkpt lat="45.88141" lon="15.61524">
        <ele>152.478955</ele>
        <time>2022-08-05T13:43:10.682Z</time>
      </trkpt>
      <trkpt lat="45.88256" lon="15.61369">
        <ele>154.534317</ele>
        <time>2022-08-05T13:44:10.190Z</time>
      </trkpt>
      <trkpt lat="45.88348" lon="15.61298">
        <ele>155.424394</ele>
        <time>2022-08-05T13:44:39.725Z</time>
      </trkpt>
      <trkpt lat="45.88414" lon="15.61254">
        <ele>154.189755</ele>
        <time>2022-08-05T13:44:55.019Z</time>
      </trkpt>
      <trkpt lat="45.88494" lon="15.61197">
        <ele>152.679295</ele>
        <time>2022-08-05T13:45:13.312Z</time>
      </trkpt>
      <trkpt lat="45.88574" lon="15.61151">
        <ele>152.435754</ele>
        <time>2022-08-05T13:45:32.937Z</time>
      </trkpt>
      <trkpt lat="45.88628" lon="15.61101">
        <ele>152.448801</ele>
        <time>2022-08-05T13:45:50.499Z</time>
      </trkpt>
      <trkpt lat="45.88646" lon="15.61084">
        <ele>152.453139</ele>
        <time>2022-08-05T13:45:57.162Z</time>
      </trkpt>
      <trkpt lat="45.88656" lon="15.61072">
        <ele>152.455753</ele>
        <time>2022-08-05T13:46:01.285Z</time>
      </trkpt>
      <trkpt lat="45.88762" lon="15.60964">
        <ele>155.53331</ele>
        <time>2022-08-05T13:46:53.478Z</time>
      </trkpt>
      <trkpt lat="45.8879" lon="15.60928">
        <ele>156.495537</ele>
        <time>2022-08-05T13:47:08.455Z</time>
      </trkpt>
      <trkpt lat="45.88804" lon="15.60919">
        <ele>156.889519</ele>
        <time>2022-08-05T13:47:14.354Z</time>
      </trkpt>
      <trkpt lat="45.88804" lon="15.60886">
        <ele>157.43148</ele>
        <time>2022-08-05T13:47:24.210Z</time>
      </trkpt>
      <trkpt lat="45.88818" lon="15.60822">
        <ele>158.509485</ele>
        <time>2022-08-05T13:47:42.967Z</time>
      </trkpt>
      <trkpt lat="45.88826" lon="15.60719">
        <ele>160.161844</ele>
        <time>2022-08-05T13:48:11.167Z</time>
      </trkpt>
      <trkpt lat="45.88838" lon="15.60686">
        <ele>160.741466</ele>
        <time>2022-08-05T13:48:21.341Z</time>
      </trkpt>
      <trkpt lat="45.88853" lon="15.60665">
        <ele>161.226242</ele>
        <time>2022-08-05T13:48:28.105Z</time>
      </trkpt>
      <trkpt lat="45.8887" lon="15.60653">
        <ele>161.656936</ele>
        <time>2022-08-05T13:48:34.420Z</time>
      </trkpt>
      <trkpt lat="45.88915" lon="15.60636">
        <ele>162.723778</ele>
        <time>2022-08-05T13:48:51.159Z</time>
      </trkpt>
      <trkpt lat="45.88942" lon="15.60598">
        <ele>163.581224</ele>
        <time>2022-08-05T13:49:05.962Z</time>
      </trkpt>
      <trkpt lat="45.88966" lon="15.60516">
        <ele>164.989891</ele>
        <time>2022-08-05T13:49:32.281Z</time>
      </trkpt>
      <trkpt lat="45.88999" lon="15.60357">
        <ele>165.682183</ele>
        <time>2022-08-05T13:50:17.356Z</time>
      </trkpt>
      <trkpt lat="45.89005" lon="15.60308">
        <ele>165.813174</ele>
        <time>2022-08-05T13:50:25.044Z</time>
      </trkpt>
      <trkpt lat="45.89016" lon="15.6027">
        <ele>165.918536</ele>
        <time>2022-08-05T13:50:31.094Z</time>
      </trkpt>
      <trkpt lat="45.89031" lon="15.60244">
        <ele>165.797003</ele>
        <time>2022-08-05T13:50:36.400Z</time>
      </trkpt>
      <trkpt lat="45.89047" lon="15.60229">
        <ele>165.425662</ele>
        <time>2022-08-05T13:50:40.156Z</time>
      </trkpt>
      <trkpt lat="45.89067" lon="15.60219">
        <ele>165.018503</ele>
        <time>2022-08-05T13:50:45.255Z</time>
      </trkpt>
      <trkpt lat="45.89079" lon="15.60219">
        <ele>164.772199</ele>
        <time>2022-08-05T13:50:47.590Z</time>
      </trkpt>
      <trkpt lat="45.89105" lon="15.60233">
        <ele>164.23552</ele>
        <time>2022-08-05T13:50:53.845Z</time>
      </trkpt>
      <trkpt lat="45.89134" lon="15.60237">
        <ele>163.660065</ele>
        <time>2022-08-05T13:51:00.347Z</time>
      </trkpt>
      <trkpt lat="45.89161" lon="15.60221">
        <ele>163.098912</ele>
        <time>2022-08-05T13:51:06.521Z</time>
      </trkpt>
      <trkpt lat="45.89197" lon="15.60172">
        <ele>162.821363</ele>
        <time>2022-08-05T13:51:18.023Z</time>
      </trkpt>
      <trkpt lat="45.89209" lon="15.60151">
        <ele>163.219842</ele>
        <time>2022-08-05T13:51:22.453Z</time>
      </trkpt>
      <trkpt lat="45.89233" lon="15.60074">
        <ele>164.453608</ele>
        <time>2022-08-05T13:51:46.861Z</time>
      </trkpt>
      <trkpt lat="45.89254" lon="15.60077">
        <ele>164.906736</ele>
        <time>2022-08-05T13:51:58.855Z</time>
      </trkpt>
      <trkpt lat="45.89271" lon="15.60058">
        <ele>165.371926</ele>
        <time>2022-08-05T13:52:11.008Z</time>
      </trkpt>
      <trkpt lat="45.89287" lon="15.59912">
        <ele>168.336349</ele>
        <time>2022-08-05T13:53:02.014Z</time>
      </trkpt>
      <trkpt lat="45.89299" lon="15.59885">
        <ele>169.087379</ele>
        <time>2022-08-05T13:53:12.408Z</time>
      </trkpt>
      <trkpt lat="45.89308" lon="15.59876">
        <ele>169.461105</ele>
        <time>2022-08-05T13:53:16.859Z</time>
      </trkpt>
      <trkpt lat="45.89297" lon="15.59817">
        <ele>170.92353</ele>
        <time>2022-08-05T13:53:33.411Z</time>
      </trkpt>
      <trkpt lat="45.89297" lon="15.5979">
        <ele>171.556865</ele>
        <time>2022-08-05T13:53:42.173Z</time>
      </trkpt>
      <trkpt lat="45.89304" lon="15.59753">
        <ele>172.577365</ele>
        <time>2022-08-05T13:53:55.851Z</time>
      </trkpt>
      <trkpt lat="45.89315" lon="15.59725">
        <ele>174.510564</ele>
        <time>2022-08-05T13:54:07.500Z</time>
      </trkpt>
      <trkpt lat="45.89324" lon="15.59697">
        <ele>176.369443</ele>
        <time>2022-08-05T13:54:21.621Z</time>
      </trkpt>
      <trkpt lat="45.89326" lon="15.5965">
        <ele>179.200823</ele>
        <time>2022-08-05T13:54:44.900Z</time>
      </trkpt>
      <trkpt lat="45.8932" lon="15.59633">
        <ele>180.276179</ele>
        <time>2022-08-05T13:54:53.517Z</time>
      </trkpt>
      <trkpt lat="45.89305" lon="15.59617">
        <ele>181.90638</ele>
        <time>2022-08-05T13:55:08.712Z</time>
      </trkpt>
      <trkpt lat="45.89283" lon="15.5961">
        <ele>183.829917</ele>
        <time>2022-08-05T13:55:25.526Z</time>
      </trkpt>
      <trkpt lat="45.89225" lon="15.59593">
        <ele>188.703389</ele>
        <time>2022-08-05T13:56:11.624Z</time>
      </trkpt>
      <trkpt lat="45.89215" lon="15.59581">
        <ele>189.64004</ele>
        <time>2022-08-05T13:56:22.736Z</time>
      </trkpt>
      <trkpt lat="45.89211" lon="15.59488">
        <ele>194.255391</ele>
        <time>2022-08-05T13:57:11.971Z</time>
      </trkpt>
      <trkpt lat="45.89197" lon="15.59348">
        <ele>200.505039</ele>
        <time>2022-08-05T13:58:04.164Z</time>
      </trkpt>
      <trkpt lat="45.89186" lon="15.5923">
        <ele>199.087732</ele>
        <time>2022-08-05T13:58:24.163Z</time>
      </trkpt>
      <trkpt lat="45.89188" lon="15.59098">
        <ele>197.375023</ele>
        <time>2022-08-05T13:58:42.311Z</time>
      </trkpt>
      <trkpt lat="45.89205" lon="15.58881">
        <ele>189.149043</ele>
        <time>2022-08-05T13:59:10.640Z</time>
      </trkpt>
      <trkpt lat="45.89211" lon="15.58829">
        <ele>187.178512</ele>
        <time>2022-08-05T13:59:17.561Z</time>
      </trkpt>
      <trkpt lat="45.8923" lon="15.58786">
        <ele>185.321673</ele>
        <time>2022-08-05T13:59:24.107Z</time>
      </trkpt>
      <trkpt lat="45.89249" lon="15.58756">
        <ele>183.82533</ele>
        <time>2022-08-05T13:59:29.352Z</time>
      </trkpt>
      <trkpt lat="45.89259" lon="15.58727">
        <ele>182.595056</ele>
        <time>2022-08-05T13:59:33.657Z</time>
      </trkpt>
      <trkpt lat="45.89257" lon="15.5871">
        <ele>181.961498</ele>
        <time>2022-08-05T13:59:35.893Z</time>
      </trkpt>
      <trkpt lat="45.89224" lon="15.58621">
        <ele>178.24145</ele>
        <time>2022-08-05T13:59:49.165Z</time>
      </trkpt>
      <trkpt lat="45.89228" lon="15.586">
        <ele>177.580575</ele>
        <time>2022-08-05T13:59:51.921Z</time>
      </trkpt>
      <trkpt lat="45.89201" lon="15.58532">
        <ele>175.119869</ele>
        <time>2022-08-05T14:00:02.510Z</time>
      </trkpt>
      <trkpt lat="45.89189" lon="15.58488">
        <ele>173.659217</ele>
        <time>2022-08-05T14:00:08.674Z</time>
      </trkpt>
      <trkpt lat="45.89184" lon="15.58441">
        <ele>172.164405</ele>
        <time>2022-08-05T14:00:14.779Z</time>
      </trkpt>
      <trkpt lat="45.89183" lon="15.58107">
        <ele>161.588146</ele>
        <time>2022-08-05T14:00:56.632Z</time>
      </trkpt>
      <trkpt lat="45.89176" lon="15.57596">
        <ele>156.601203</ele>
        <time>2022-08-05T14:02:19.135Z</time>
      </trkpt>
      <trkpt lat="45.89166" lon="15.57407">
        <ele>153.091621</ele>
        <time>2022-08-05T14:02:45.942Z</time>
      </trkpt>
      <trkpt lat="45.89165" lon="15.57391">
        <ele>152.791267</ele>
        <time>2022-08-05T14:02:48.002Z</time>
      </trkpt>
      <trkpt lat="45.89148" lon="15.57177">
        <ele>148.18584</ele>
        <time>2022-08-05T14:03:16.647Z</time>
      </trkpt>
      <trkpt lat="45.89143" lon="15.57123">
        <ele>146.987216</ele>
        <time>2022-08-05T14:03:24.068Z</time>
      </trkpt>
      <trkpt lat="45.89109" lon="15.57136">
        <ele>146.212362</ele>
        <time>2022-08-05T14:03:31.597Z</time>
      </trkpt>
      <trkpt lat="45.88991" lon="15.57017">
        <ele>145.599898</ele>
        <time>2022-08-05T14:04:10.692Z</time>
      </trkpt>
      <trkpt lat="45.88948" lon="15.56996">
        <ele>145.609794</ele>
        <time>2022-08-05T14:04:24.273Z</time>
      </trkpt>
      <trkpt lat="45.88925" lon="15.56969">
        <ele>145.752864</ele>
        <time>2022-08-05T14:04:33.406Z</time>
      </trkpt>
      <trkpt lat="45.88852" lon="15.56914">
        <ele>146.156613</ele>
        <time>2022-08-05T14:04:58.782Z</time>
      </trkpt>
      <trkpt lat="45.88832" lon="15.56887">
        <ele>146.29036</ele>
        <time>2022-08-05T14:05:07.143Z</time>
      </trkpt>
      <trkpt lat="45.88813" lon="15.56842">
        <ele>146.422794</ele>
        <time>2022-08-05T14:05:18.087Z</time>
      </trkpt>
      <trkpt lat="45.88763" lon="15.56727">
        <ele>146.640639</ele>
        <time>2022-08-05T14:05:45.694Z</time>
      </trkpt>
      <trkpt lat="45.88738" lon="15.56633">
        <ele>146.795996</ele>
        <time>2022-08-05T14:06:05.597Z</time>
      </trkpt>
      <trkpt lat="45.88717" lon="15.56553">
        <ele>146.806737</ele>
        <time>2022-08-05T14:06:21.984Z</time>
      </trkpt>
      <trkpt lat="45.88663" lon="15.56447">
        <ele>146.823152</ele>
        <time>2022-08-05T14:06:47.280Z</time>
      </trkpt>
      <trkpt lat="45.88596" lon="15.5628">
        <ele>146.905899</ele>
        <time>2022-08-05T14:07:24.865Z</time>
      </trkpt>
      <trkpt lat="45.88574" lon="15.5621">
        <ele>146.944522</ele>
        <time>2022-08-05T14:07:39.982Z</time>
      </trkpt>
      <trkpt lat="45.88519" lon="15.55983">
        <ele>147.183894</ele>
        <time>2022-08-05T14:08:27.988Z</time>
      </trkpt>
      <trkpt lat="45.88501" lon="15.55889">
        <ele>147.232192</ele>
        <time>2022-08-05T14:08:47.275Z</time>
      </trkpt>
      <trkpt lat="45.88473" lon="15.55755">
        <ele>147.235627</ele>
        <time>2022-08-05T14:09:14.139Z</time>
      </trkpt>
      <trkpt lat="45.88465" lon="15.55692">
        <ele>147.237225</ele>
        <time>2022-08-05T14:09:26.493Z</time>
      </trkpt>
      <trkpt lat="45.88475" lon="15.55533">
        <ele>147.400434</ele>
        <time>2022-08-05T14:09:56.974Z</time>
      </trkpt>
      <trkpt lat="45.88484" lon="15.55299">
        <ele>148.010379</ele>
        <time>2022-08-05T14:10:45.958Z</time>
      </trkpt>
      <trkpt lat="45.88492" lon="15.5522">
        <ele>148.311423</ele>
        <time>2022-08-05T14:11:02.813Z</time>
      </trkpt>
      <trkpt lat="45.88492" lon="15.55197">
        <ele>148.398175</ele>
        <time>2022-08-05T14:11:07.727Z</time>
      </trkpt>
      <trkpt lat="45.88502" lon="15.55002">
        <ele>149.292144</ele>
        <time>2022-08-05T14:11:51.550Z</time>
      </trkpt>
      <trkpt lat="45.88521" lon="15.54962">
        <ele>149.516237</ele>
        <time>2022-08-05T14:12:01.193Z</time>
      </trkpt>
      <trkpt lat="45.88553" lon="15.5493">
        <ele>149.717418</ele>
        <time>2022-08-05T14:12:12.674Z</time>
      </trkpt>
      <trkpt lat="45.88533" lon="15.54923">
        <ele>149.769831</ele>
        <time>2022-08-05T14:12:18.960Z</time>
      </trkpt>
      <trkpt lat="45.88519" lon="15.54906">
        <ele>149.815131</ele>
        <time>2022-08-05T14:12:24.355Z</time>
      </trkpt>
      <trkpt lat="45.88516" lon="15.5489">
        <ele>149.842921</ele>
        <time>2022-08-05T14:12:27.802Z</time>
      </trkpt>
      <trkpt lat="45.88512" lon="15.5487">
        <ele>149.879051</ele>
        <time>2022-08-05T14:12:32.223Z</time>
      </trkpt>
      <trkpt lat="45.8851" lon="15.54848">
        <ele>149.917477</ele>
        <time>2022-08-05T14:12:36.876Z</time>
      </trkpt>
      <trkpt lat="45.88511" lon="15.54733">
        <ele>150.116452</ele>
        <time>2022-08-05T14:12:59.538Z</time>
      </trkpt>
      <trkpt lat="45.88515" lon="15.5468">
        <ele>150.105356</ele>
        <time>2022-08-05T14:13:09.516Z</time>
      </trkpt>
      <trkpt lat="45.88512" lon="15.54658">
        <ele>150.094055</ele>
        <time>2022-08-05T14:13:13.944Z</time>
      </trkpt>
      <trkpt lat="45.88447" lon="15.54471">
        <ele>150.047661</ele>
        <time>2022-08-05T14:13:53.656Z</time>
      </trkpt>
      <trkpt lat="45.88414" lon="15.54379">
        <ele>150.30665</ele>
        <time>2022-08-05T14:14:13.565Z</time>
      </trkpt>
      <trkpt lat="45.88391" lon="15.54291">
        <ele>150.541992</ele>
        <time>2022-08-05T14:14:34.118Z</time>
      </trkpt>
      <trkpt lat="45.88386" lon="15.54227">
        <ele>150.791942</ele>
        <time>2022-08-05T14:14:47.812Z</time>
      </trkpt>
      <trkpt lat="45.88391" lon="15.54146">
        <ele>151.317515</ele>
        <time>2022-08-05T14:15:06.454Z</time>
      </trkpt>
      <trkpt lat="45.88356" lon="15.54076">
        <ele>151.879386</ele>
        <time>2022-08-05T14:15:26.848Z</time>
      </trkpt>
      <trkpt lat="45.88343" lon="15.54059">
        <ele>152.042608</ele>
        <time>2022-08-05T14:15:32.516Z</time>
      </trkpt>
      <trkpt lat="45.88343" lon="15.54048">
        <ele>152.110472</ele>
        <time>2022-08-05T14:15:34.951Z</time>
      </trkpt>
      <trkpt lat="45.88324" lon="15.53915">
        <ele>152.377415</ele>
        <time>2022-08-05T14:16:03.460Z</time>
      </trkpt>
      <trkpt lat="45.88322" lon="15.53887">
        <ele>152.393948</ele>
        <time>2022-08-05T14:16:09.025Z</time>
      </trkpt>
      <trkpt lat="45.88319" lon="15.53852">
        <ele>152.415274</ele>
        <time>2022-08-05T14:16:15.713Z</time>
      </trkpt>
      <trkpt lat="45.88318" lon="15.53817">
        <ele>152.435893</ele>
        <time>2022-08-05T14:16:22.304Z</time>
      </trkpt>
      <trkpt lat="45.88335" lon="15.53625">
        <ele>151.844323</ele>
        <time>2022-08-05T14:16:56.636Z</time>
      </trkpt>
      <trkpt lat="45.88363" lon="15.53284">
        <ele>150.304323</ele>
        <time>2022-08-05T14:17:55.890Z</time>
      </trkpt>
      <trkpt lat="45.88361" lon="15.53241">
        <ele>150.150345</ele>
        <time>2022-08-05T14:18:04.036Z</time>
      </trkpt>
      <trkpt lat="45.88332" lon="15.53065">
        <ele>150.244913</ele>
        <time>2022-08-05T14:18:40.515Z</time>
      </trkpt>
      <trkpt lat="45.88362" lon="15.52905">
        <ele>150.103984</ele>
        <time>2022-08-05T14:19:12.422Z</time>
      </trkpt>
      <trkpt lat="45.88355" lon="15.52876">
        <ele>150.046975</ele>
        <time>2022-08-05T14:19:17.987Z</time>
      </trkpt>
      <trkpt lat="45.88355" lon="15.52844">
        <ele>149.98608</ele>
        <time>2022-08-05T14:19:24.181Z</time>
      </trkpt>
      <trkpt lat="45.88364" lon="15.52744">
        <ele>149.798328</ele>
        <time>2022-08-05T14:19:42.344Z</time>
      </trkpt>
      <trkpt lat="45.88367" lon="15.52713">
        <ele>149.716111</ele>
        <time>2022-08-05T14:19:47.679Z</time>
      </trkpt>
      <trkpt lat="45.88367" lon="15.52681">
        <ele>149.629987</ele>
        <time>2022-08-05T14:19:53.209Z</time>
      </trkpt>
      <trkpt lat="45.88359" lon="15.52602">
        <ele>149.413814</ele>
        <time>2022-08-05T14:20:07.196Z</time>
      </trkpt>
      <trkpt lat="45.88349" lon="15.52521">
        <ele>149.193617</ele>
        <time>2022-08-05T14:20:22.120Z</time>
      </trkpt>
      <trkpt lat="45.88329" lon="15.52452">
        <ele>149.326312</ele>
        <time>2022-08-05T14:20:37.656Z</time>
      </trkpt>
      <trkpt lat="45.883" lon="15.52375">
        <ele>149.773621</ele>
        <time>2022-08-05T14:20:56.781Z</time>
      </trkpt>
      <trkpt lat="45.88277" lon="15.52272">
        <ele>150.32875</ele>
        <time>2022-08-05T14:21:21.958Z</time>
      </trkpt>
      <trkpt lat="45.88277" lon="15.52239">
        <ele>150.425117</ele>
        <time>2022-08-05T14:21:29.333Z</time>
      </trkpt>
      <trkpt lat="45.88286" lon="15.52217">
        <ele>150.416387</ele>
        <time>2022-08-05T14:21:34.589Z</time>
      </trkpt>
      <trkpt lat="45.88324" lon="15.52158">
        <ele>150.388718</ele>
        <time>2022-08-05T14:21:52.014Z</time>
      </trkpt>
      <trkpt lat="45.88339" lon="15.5212">
        <ele>150.373373</ele>
        <time>2022-08-05T14:22:00.785Z</time>
      </trkpt>
      <trkpt lat="45.88348" lon="15.52008">
        <ele>150.160716</ele>
        <time>2022-08-05T14:22:19.881Z</time>
      </trkpt>
      <trkpt lat="45.88262" lon="15.52058">
        <ele>148.75124</ele>
        <time>2022-08-05T14:22:40.231Z</time>
      </trkpt>
      <trkpt lat="45.88191" lon="15.52091">
        <ele>147.599283</ele>
        <time>2022-08-05T14:22:57.698Z</time>
      </trkpt>
      <trkpt lat="45.88095" lon="15.52096">
        <ele>146.91885</ele>
        <time>2022-08-05T14:23:36.298Z</time>
      </trkpt>
      <trkpt lat="45.88036" lon="15.52105">
        <ele>146.497568</ele>
        <time>2022-08-05T14:23:51.798Z</time>
      </trkpt>
      <trkpt lat="45.88018" lon="15.52112">
        <ele>146.366762</ele>
        <time>2022-08-05T14:23:56.866Z</time>
      </trkpt>
      <trkpt lat="45.87908" lon="15.52201">
        <ele>147.067491</ele>
        <time>2022-08-05T14:24:33.511Z</time>
      </trkpt>
      <trkpt lat="45.87866" lon="15.52225">
        <ele>147.351343</ele>
        <time>2022-08-05T14:24:48.736Z</time>
      </trkpt>
      <trkpt lat="45.87795" lon="15.52248">
        <ele>148.43024</ele>
        <time>2022-08-05T14:25:14.934Z</time>
      </trkpt>
      <trkpt lat="45.87728" lon="15.52299">
        <ele>149.751218</ele>
        <time>2022-08-05T14:25:43.949Z</time>
      </trkpt>
      <trkpt lat="45.87646" lon="15.52376">
        <ele>151.211362</ele>
        <time>2022-08-05T14:26:17.720Z</time>
      </trkpt>
      <trkpt lat="45.87635" lon="15.52366">
        <ele>151.380534</ele>
        <time>2022-08-05T14:26:21.904Z</time>
      </trkpt>
      <trkpt lat="45.87615" lon="15.52358">
        <ele>151.646016</ele>
        <time>2022-08-05T14:26:28.332Z</time>
      </trkpt>
      <trkpt lat="45.87535" lon="15.52338">
        <ele>152.692337</ele>
        <time>2022-08-05T14:26:54.511Z</time>
      </trkpt>
      <trkpt lat="45.87482" lon="15.52317">
        <ele>154.117654</ele>
        <time>2022-08-05T14:27:15.335Z</time>
      </trkpt>
      <trkpt lat="45.87457" lon="15.52294">
        <ele>155.010124</ele>
        <time>2022-08-05T14:27:27.811Z</time>
      </trkpt>
      <trkpt lat="45.87316" lon="15.52115">
        <ele>159.920046</ele>
        <time>2022-08-05T14:28:52.479Z</time>
      </trkpt>
      <trkpt lat="45.87233" lon="15.52006">
        <ele>161.939288</ele>
        <time>2022-08-05T14:29:30.432Z</time>
      </trkpt>
      <trkpt lat="45.8718" lon="15.51938">
        <ele>161.485983</ele>
        <time>2022-08-05T14:29:48.098Z</time>
      </trkpt>
      <trkpt lat="45.87135" lon="15.51895">
        <ele>161.136312</ele>
        <time>2022-08-05T14:30:01.232Z</time>
      </trkpt>
      <trkpt lat="45.87062" lon="15.51848">
        <ele>160.529086</ele>
        <time>2022-08-05T14:30:20.114Z</time>
      </trkpt>
      <trkpt lat="45.87005" lon="15.51834">
        <ele>160.014149</ele>
        <time>2022-08-05T14:30:33.815Z</time>
      </trkpt>
      <trkpt lat="45.86952" lon="15.5183">
        <ele>159.538284</ele>
        <time>2022-08-05T14:30:45.952Z</time>
      </trkpt>
      <trkpt lat="45.86919" lon="15.51868">
        <ele>159.466085</ele>
        <time>2022-08-05T14:30:57.651Z</time>
      </trkpt>
      <trkpt lat="45.86891" lon="15.51925">
        <ele>160.403403</ele>
        <time>2022-08-05T14:31:14.742Z</time>
      </trkpt>
      <trkpt lat="45.86871" lon="15.51951">
        <ele>160.917968</ele>
        <time>2022-08-05T14:31:23.893Z</time>
      </trkpt>
      <trkpt lat="45.86832" lon="15.51895">
        <ele>161.969935</ele>
        <time>2022-08-05T14:31:46.617Z</time>
      </trkpt>
      <trkpt lat="45.86814" lon="15.51872">
        <ele>162.420728</ele>
        <time>2022-08-05T14:31:58.526Z</time>
      </trkpt>
      <trkpt lat="45.86738" lon="15.51816">
        <ele>163.661866</ele>
        <time>2022-08-05T14:32:31.877Z</time>
      </trkpt>
      <trkpt lat="45.86719" lon="15.51743">
        <ele>164.406715</ele>
        <time>2022-08-05T14:32:51.481Z</time>
      </trkpt>
      <trkpt lat="45.86717" lon="15.51731">
        <ele>164.519314</ele>
        <time>2022-08-05T14:32:53.626Z</time>
      </trkpt>
      <trkpt lat="45.86709" lon="15.51689">
        <ele>164.92896</ele>
        <time>2022-08-05T14:33:01.208Z</time>
      </trkpt>
      <trkpt lat="45.86679" lon="15.51564">
        <ele>166.192117</ele>
        <time>2022-08-05T14:33:24.940Z</time>
      </trkpt>
      <trkpt lat="45.86668" lon="15.51544">
        <ele>166.434114</ele>
        <time>2022-08-05T14:33:30.140Z</time>
      </trkpt>
      <trkpt lat="45.86581" lon="15.51442">
        <ele>169.131939</ele>
        <time>2022-08-05T14:34:15.348Z</time>
      </trkpt>
      <trkpt lat="45.86531" lon="15.5136">
        <ele>173.606766</ele>
        <time>2022-08-05T14:35:02.139Z</time>
      </trkpt>
      <trkpt lat="45.86464" lon="15.51269">
        <ele>178.595571</ele>
        <time>2022-08-05T14:35:57.986Z</time>
      </trkpt>
      <trkpt lat="45.86448" lon="15.51252">
        <ele>179.255568</ele>
        <time>2022-08-05T14:36:08.882Z</time>
      </trkpt>
      <trkpt lat="45.86407" lon="15.51208">
        <ele>180.975408</ele>
        <time>2022-08-05T14:36:34.071Z</time>
      </trkpt>
      <trkpt lat="45.86354" lon="15.51126">
        <ele>183.61879</ele>
        <time>2022-08-05T14:37:03.298Z</time>
      </trkpt>
      <trkpt lat="45.86305" lon="15.51037">
        <ele>184.246101</ele>
        <time>2022-08-05T14:37:26.174Z</time>
      </trkpt>
      <trkpt lat="45.86288" lon="15.51004">
        <ele>184.28207</ele>
        <time>2022-08-05T14:37:34.331Z</time>
      </trkpt>
      <trkpt lat="45.86276" lon="15.50927">
        <ele>184.351962</ele>
        <time>2022-08-05T14:37:49.849Z</time>
      </trkpt>
      <trkpt lat="45.86217" lon="15.50779">
        <ele>182.422409</ele>
        <time>2022-08-05T14:38:19.867Z</time>
      </trkpt>
      <trkpt lat="45.86189" lon="15.50654">
        <ele>180.288589</ele>
        <time>2022-08-05T14:38:38.760Z</time>
      </trkpt>
      <trkpt lat="45.86179" lon="15.50566">
        <ele>176.632145</ele>
        <time>2022-08-05T14:38:50.145Z</time>
      </trkpt>
      <trkpt lat="45.86179" lon="15.50525">
        <ele>174.852351</ele>
        <time>2022-08-05T14:38:55.383Z</time>
      </trkpt>
      <trkpt lat="45.86193" lon="15.50393">
        <ele>169.186938</ele>
        <time>2022-08-05T14:39:12.045Z</time>
      </trkpt>
      <trkpt lat="45.86209" lon="15.5031">
        <ele>166.653769</ele>
        <time>2022-08-05T14:39:23.198Z</time>
      </trkpt>
      <trkpt lat="45.86199" lon="15.50051">
        <ele>160.646363</ele>
        <time>2022-08-05T14:40:00.460Z</time>
      </trkpt>
      <trkpt lat="45.86209" lon="15.49858">
        <ele>158.605362</ele>
        <time>2022-08-05T14:40:33.384Z</time>
      </trkpt>
      <trkpt lat="45.86218" lon="15.49832">
        <ele>158.485022</ele>
        <time>2022-08-05T14:40:38.388Z</time>
      </trkpt>
      <trkpt lat="45.86227" lon="15.49717">
        <ele>157.994092</ele>
        <time>2022-08-05T14:40:59.446Z</time>
      </trkpt>
      <trkpt lat="45.8624" lon="15.49693">
        <ele>157.867001</ele>
        <time>2022-08-05T14:41:04.657Z</time>
      </trkpt>
      <trkpt lat="45.86337" lon="15.49544">
        <ele>157.609977</ele>
        <time>2022-08-05T14:41:41.199Z</time>
      </trkpt>
      <trkpt lat="45.86352" lon="15.49532">
        <ele>157.609478</ele>
        <time>2022-08-05T14:41:46.154Z</time>
      </trkpt>
      <trkpt lat="45.86383" lon="15.49524">
        <ele>157.608603</ele>
        <time>2022-08-05T14:41:54.804Z</time>
      </trkpt>
      <trkpt lat="45.86426" lon="15.49454">
        <ele>158.342264</ele>
        <time>2022-08-05T14:42:15.605Z</time>
      </trkpt>
      <trkpt lat="45.8644" lon="15.4944">
        <ele>158.715733</ele>
        <time>2022-08-05T14:42:22.263Z</time>
      </trkpt>
      <trkpt lat="45.86466" lon="15.49398">
        <ele>159.564682</ele>
        <time>2022-08-05T14:42:36.571Z</time>
      </trkpt>
      <trkpt lat="45.86505" lon="15.4937">
        <ele>160.522748</ele>
        <time>2022-08-05T14:42:52.805Z</time>
      </trkpt>
      <trkpt lat="45.86518" lon="15.4928">
        <ele>162.417512</ele>
        <time>2022-08-05T14:43:21.494Z</time>
      </trkpt>
      <trkpt lat="45.86537" lon="15.49197">
        <ele>165.464346</ele>
        <time>2022-08-05T14:43:51.621Z</time>
      </trkpt>
      <trkpt lat="45.86533" lon="15.49151">
        <ele>167.100522</ele>
        <time>2022-08-05T14:44:08.536Z</time>
      </trkpt>
      <trkpt lat="45.86521" lon="15.49105">
        <ele>168.798536</ele>
        <time>2022-08-05T14:44:26.149Z</time>
      </trkpt>
      <trkpt lat="45.86486" lon="15.48999">
        <ele>174.005683</ele>
        <time>2022-08-05T14:45:15.572Z</time>
      </trkpt>
      <trkpt lat="45.86475" lon="15.48916">
        <ele>178.265666</ele>
        <time>2022-08-05T14:45:54.199Z</time>
      </trkpt>
      <trkpt lat="45.86463" lon="15.48878">
        <ele>180.376816</ele>
        <time>2022-08-05T14:46:13.038Z</time>
      </trkpt>
      <trkpt lat="45.8645" lon="15.48834">
        <ele>182.815604</ele>
        <time>2022-08-05T14:46:34.318Z</time>
      </trkpt>
      <trkpt lat="45.86417" lon="15.48756">
        <ele>186.992847</ele>
        <time>2022-08-05T14:47:14.212Z</time>
      </trkpt>
      <trkpt lat="45.86342" lon="15.48622">
        <ele>194.609804</ele>
        <time>2022-08-05T14:48:24.482Z</time>
      </trkpt>
      <trkpt lat="45.86313" lon="15.48559">
        <ele>196.73618</ele>
        <time>2022-08-05T14:48:49.995Z</time>
      </trkpt>
      <trkpt lat="45.86273" lon="15.48406">
        <ele>200.883108</ele>
        <time>2022-08-05T14:49:40.607Z</time>
      </trkpt>
      <trkpt lat="45.8627" lon="15.48361">
        <ele>201.80546</ele>
        <time>2022-08-05T14:49:53.456Z</time>
      </trkpt>
      <trkpt lat="45.86282" lon="15.48029">
        <ele>203.773439</ele>
        <time>2022-08-05T14:51:10.433Z</time>
      </trkpt>
      <trkpt lat="45.86305" lon="15.47786">
        <ele>201.059323</ele>
        <time>2022-08-05T14:51:49.773Z</time>
      </trkpt>
      <trkpt lat="45.86303" lon="15.47604">
        <ele>196.22484</ele>
        <time>2022-08-05T14:52:14.393Z</time>
      </trkpt>
      <trkpt lat="45.8631" lon="15.47546">
        <ele>193.002236</ele>
        <time>2022-08-05T14:52:21.870Z</time>
      </trkpt>
      <trkpt lat="45.86303" lon="15.47494">
        <ele>190.076526</ele>
        <time>2022-08-05T14:52:28.424Z</time>
      </trkpt>
      <trkpt lat="45.86253" lon="15.47377">
        <ele>182.475306</ele>
        <time>2022-08-05T14:52:45.132Z</time>
      </trkpt>
      <trkpt lat="45.86253" lon="15.47331">
        <ele>179.749708</ele>
        <time>2022-08-05T14:52:50.520Z</time>
      </trkpt>
      <trkpt lat="45.8624" lon="15.47305">
        <ele>177.802338</ele>
        <time>2022-08-05T14:52:54.323Z</time>
      </trkpt>
      <trkpt lat="45.86211" lon="15.47221">
        <ele>172.120774</ele>
        <time>2022-08-05T14:53:05.581Z</time>
      </trkpt>
      <trkpt lat="45.86199" lon="15.47141">
        <ele>167.157102</ele>
        <time>2022-08-05T14:53:15.591Z</time>
      </trkpt>
      <trkpt lat="45.86229" lon="15.47006">
        <ele>162.535226</ele>
        <time>2022-08-05T14:53:33.068Z</time>
      </trkpt>
      <trkpt lat="45.86271" lon="15.46844">
        <ele>158.379519</ele>
        <time>2022-08-05T14:53:57.736Z</time>
      </trkpt>
      <trkpt lat="45.86307" lon="15.46727">
        <ele>157.429767</ele>
        <time>2022-08-05T14:54:19.396Z</time>
      </trkpt>
      <trkpt lat="45.86316" lon="15.46674">
        <ele>157.023479</ele>
        <time>2022-08-05T14:54:28.484Z</time>
      </trkpt>
      <trkpt lat="45.86318" lon="15.46624">
        <ele>156.815224</ele>
        <time>2022-08-05T14:54:36.796Z</time>
      </trkpt>
      <trkpt lat="45.86283" lon="15.46529">
        <ele>157.11784</ele>
        <time>2022-08-05T14:54:55.005Z</time>
      </trkpt>
      <trkpt lat="45.86272" lon="15.46475">
        <ele>157.277452</ele>
        <time>2022-08-05T14:55:05.528Z</time>
      </trkpt>
      <trkpt lat="45.86249" lon="15.4634">
        <ele>160.164121</ele>
        <time>2022-08-05T14:55:43.224Z</time>
      </trkpt>
      <trkpt lat="45.86224" lon="15.46261">
        <ele>163.910331</ele>
        <time>2022-08-05T14:56:14.853Z</time>
      </trkpt>
      <trkpt lat="45.86194" lon="15.46201">
        <ele>167.124068</ele>
        <time>2022-08-05T14:56:47.823Z</time>
      </trkpt>
      <trkpt lat="45.86129" lon="15.4611">
        <ele>173.944897</ele>
        <time>2022-08-05T14:58:05.367Z</time>
      </trkpt>
      <trkpt lat="45.86114" lon="15.46072">
        <ele>176.349374</ele>
        <time>2022-08-05T14:58:29.083Z</time>
      </trkpt>
      <trkpt lat="45.86081" lon="15.45954">
        <ele>182.971401</ele>
        <time>2022-08-05T14:59:20.034Z</time>
      </trkpt>
      <trkpt lat="45.86041" lon="15.4582">
        <ele>180.599627</ele>
        <time>2022-08-05T14:59:46.201Z</time>
      </trkpt>
      <trkpt lat="45.86011" lon="15.45765">
        <ele>179.463</ele>
        <time>2022-08-05T14:59:55.023Z</time>
      </trkpt>
      <trkpt lat="45.8594" lon="15.45678">
        <ele>175.065467</ele>
        <time>2022-08-05T15:00:11.625Z</time>
      </trkpt>
      <trkpt lat="45.85912" lon="15.45634">
        <ele>172.743632</ele>
        <time>2022-08-05T15:00:19.157Z</time>
      </trkpt>
      <trkpt lat="45.85912" lon="15.45602">
        <ele>171.501249</ele>
        <time>2022-08-05T15:00:23.579Z</time>
      </trkpt>
      <trkpt lat="45.85883" lon="15.45524">
        <ele>168.377989</ele>
        <time>2022-08-05T15:00:36.074Z</time>
      </trkpt>
      <trkpt lat="45.85874" lon="15.45482">
        <ele>167.441954</ele>
        <time>2022-08-05T15:00:42.475Z</time>
      </trkpt>
      <trkpt lat="45.85858" lon="15.45313">
        <ele>163.862061</ele>
        <time>2022-08-05T15:01:07.322Z</time>
      </trkpt>
      <trkpt lat="45.85853" lon="15.45245">
        <ele>162.451786</ele>
        <time>2022-08-05T15:01:17.029Z</time>
      </trkpt>
      <trkpt lat="45.85836" lon="15.45191">
        <ele>161.232828</ele>
        <time>2022-08-05T15:01:25.572Z</time>
      </trkpt>
      <trkpt lat="45.85762" lon="15.45053">
        <ele>158.035272</ele>
        <time>2022-08-05T15:01:50.735Z</time>
      </trkpt>
      <trkpt lat="45.85735" lon="15.45042">
        <ele>157.966327</ele>
        <time>2022-08-05T15:01:56.979Z</time>
      </trkpt>
      <trkpt lat="45.8568" lon="15.45041">
        <ele>157.830541</ele>
        <time>2022-08-05T15:02:10.364Z</time>
      </trkpt>
      <trkpt lat="45.85662" lon="15.45041">
        <ele>157.788208</ele>
        <time>2022-08-05T15:02:14.950Z</time>
      </trkpt>
      <trkpt lat="45.85629" lon="15.45031">
        <ele>157.704873</ele>
        <time>2022-08-05T15:02:25.976Z</time>
      </trkpt>
      <trkpt lat="45.85616" lon="15.45009">
        <ele>157.654641</ele>
        <time>2022-08-05T15:02:33.986Z</time>
      </trkpt>
      <trkpt lat="45.8561" lon="15.44929">
        <ele>158.848265</ele>
        <time>2022-08-05T15:02:56.570Z</time>
      </trkpt>
      <trkpt lat="45.85601" lon="15.44891">
        <ele>159.624016</ele>
        <time>2022-08-05T15:03:08.361Z</time>
      </trkpt>
      <trkpt lat="45.85559" lon="15.44804">
        <ele>161.671493</ele>
        <time>2022-08-05T15:03:41.040Z</time>
      </trkpt>
      <trkpt lat="45.85531" lon="15.44672">
        <ele>163.508928</ele>
        <time>2022-08-05T15:04:18.706Z</time>
      </trkpt>
      <trkpt lat="45.85502" lon="15.44596">
        <ele>164.395373</ele>
        <time>2022-08-05T15:04:39.088Z</time>
      </trkpt>
      <trkpt lat="45.85498" lon="15.44552">
        <ele>164.852802</ele>
        <time>2022-08-05T15:04:48.049Z</time>
      </trkpt>
      <trkpt lat="45.85496" lon="15.44527">
        <ele>165.111121</ele>
        <time>2022-08-05T15:04:53.064Z</time>
      </trkpt>
      <trkpt lat="45.8549" lon="15.44509">
        <ele>165.321531</ele>
        <time>2022-08-05T15:04:57.606Z</time>
      </trkpt>
      <trkpt lat="45.85467" lon="15.44474">
        <ele>165.844773</ele>
        <time>2022-08-05T15:05:08.172Z</time>
      </trkpt>
      <trkpt lat="45.85451" lon="15.44436">
        <ele>166.323561</ele>
        <time>2022-08-05T15:05:18.269Z</time>
      </trkpt>
      <trkpt lat="45.85447" lon="15.4441">
        <ele>166.612494</ele>
        <time>2022-08-05T15:05:24.857Z</time>
      </trkpt>
      <trkpt lat="45.85449" lon="15.44333">
        <ele>167.454773</ele>
        <time>2022-08-05T15:05:44.091Z</time>
      </trkpt>
      <trkpt lat="45.8546" lon="15.44236">
        <ele>168.887389</ele>
        <time>2022-08-05T15:06:11.441Z</time>
      </trkpt>
      <trkpt lat="45.85459" lon="15.44206">
        <ele>169.476428</ele>
        <time>2022-08-05T15:06:20.139Z</time>
      </trkpt>
      <trkpt lat="45.8545" lon="15.44169">
        <ele>170.231987</ele>
        <time>2022-08-05T15:06:31.487Z</time>
      </trkpt>
      <trkpt lat="45.85394" lon="15.44028">
        <ele>173.175611</ele>
        <time>2022-08-05T15:07:20.461Z</time>
      </trkpt>
      <trkpt lat="45.85381" lon="15.44007">
        <ele>173.37696</ele>
        <time>2022-08-05T15:07:27.515Z</time>
      </trkpt>
      <trkpt lat="45.85324" lon="15.4392">
        <ele>174.21748</ele>
        <time>2022-08-05T15:07:54.185Z</time>
      </trkpt>
      <trkpt lat="45.85294" lon="15.43763">
        <ele>174.149029</ele>
        <time>2022-08-05T15:08:26.987Z</time>
      </trkpt>
      <trkpt lat="45.85281" lon="15.43733">
        <ele>173.766615</ele>
        <time>2022-08-05T15:08:32.780Z</time>
      </trkpt>
      <trkpt lat="45.85259" lon="15.43707">
        <ele>173.32558</ele>
        <time>2022-08-05T15:08:38.880Z</time>
      </trkpt>
      <trkpt lat="45.85237" lon="15.43695">
        <ele>172.969027</ele>
        <time>2022-08-05T15:08:43.692Z</time>
      </trkpt>
      <trkpt lat="45.85164" lon="15.43672">
        <ele>171.789479</ele>
        <time>2022-08-05T15:08:59.673Z</time>
      </trkpt>
      <trkpt lat="45.85147" lon="15.4366">
        <ele>171.453286</ele>
        <time>2022-08-05T15:09:03.919Z</time>
      </trkpt>
      <trkpt lat="45.85135" lon="15.43643">
        <ele>171.164082</ele>
        <time>2022-08-05T15:09:07.877Z</time>
      </trkpt>
      <trkpt lat="45.85127" lon="15.43608">
        <ele>170.722508</ele>
        <time>2022-08-05T15:09:13.412Z</time>
      </trkpt>
      <trkpt lat="45.8513" lon="15.43535">
        <ele>169.832174</ele>
        <time>2022-08-05T15:09:24.695Z</time>
      </trkpt>
      <trkpt lat="45.85114" lon="15.43449">
        <ele>169.190608</ele>
        <time>2022-08-05T15:09:39.113Z</time>
      </trkpt>
      <trkpt lat="45.851" lon="15.43428">
        <ele>169.462849</ele>
        <time>2022-08-05T15:09:44.777Z</time>
      </trkpt>
      <trkpt lat="45.85037" lon="15.43387">
        <ele>170.396907</ele>
        <time>2022-08-05T15:10:10.581Z</time>
      </trkpt>
      <trkpt lat="45.85017" lon="15.43346">
        <ele>170.861403</ele>
        <time>2022-08-05T15:10:24.316Z</time>
      </trkpt>
      <trkpt lat="45.84998" lon="15.43205">
        <ele>171.475293</ele>
        <time>2022-08-05T15:11:02.405Z</time>
      </trkpt>
      <trkpt lat="45.84905" lon="15.42951">
        <ele>169.391544</ele>
        <time>2022-08-05T15:11:50.833Z</time>
      </trkpt>
      <trkpt lat="45.84889" lon="15.42864">
        <ele>167.635746</ele>
        <time>2022-08-05T15:12:03.286Z</time>
      </trkpt>
      <trkpt lat="45.84874" lon="15.42811">
        <ele>166.531761</ele>
        <time>2022-08-05T15:12:10.994Z</time>
      </trkpt>
      <trkpt lat="45.84849" lon="15.42761">
        <ele>164.480633</ele>
        <time>2022-08-05T15:12:19.370Z</time>
      </trkpt>
      <trkpt lat="45.84824" lon="15.42729">
        <ele>162.924582</ele>
        <time>2022-08-05T15:12:25.677Z</time>
      </trkpt>
      <trkpt lat="45.84733" lon="15.42659">
        <ele>158.047905</ele>
        <time>2022-08-05T15:12:45.365Z</time>
      </trkpt>
      <trkpt lat="45.84693" lon="15.42615">
        <ele>156.303107</ele>
        <time>2022-08-05T15:12:55.059Z</time>
      </trkpt>
      <trkpt lat="45.84674" lon="15.42587">
        <ele>155.364906</ele>
        <time>2022-08-05T15:13:00.466Z</time>
      </trkpt>
      <trkpt lat="45.84616" lon="15.42474">
        <ele>152.013929</ele>
        <time>2022-08-05T15:13:20.824Z</time>
      </trkpt>
      <trkpt lat="45.84587" lon="15.42441">
        <ele>151.793627</ele>
        <time>2022-08-05T15:13:29.105Z</time>
      </trkpt>
      <trkpt lat="45.84557" lon="15.4242">
        <ele>151.714036</ele>
        <time>2022-08-05T15:13:37.582Z</time>
      </trkpt>
      <trkpt lat="45.845" lon="15.42395">
        <ele>151.575228</ele>
        <time>2022-08-05T15:13:54.623Z</time>
      </trkpt>
      <trkpt lat="45.84449" lon="15.42393">
        <ele>151.454559</ele>
        <time>2022-08-05T15:14:11.567Z</time>
      </trkpt>
      <trkpt lat="45.84428" lon="15.42375">
        <ele>151.589317</ele>
        <time>2022-08-05T15:14:19.993Z</time>
      </trkpt>
      <trkpt lat="45.84413" lon="15.42352">
        <ele>151.729939</ele>
        <time>2022-08-05T15:14:26.568Z</time>
      </trkpt>
      <trkpt lat="45.84407" lon="15.42346">
        <ele>151.780864</ele>
        <time>2022-08-05T15:14:29.070Z</time>
      </trkpt>
      <trkpt lat="45.84341" lon="15.42304">
        <ele>152.255276</ele>
        <time>2022-08-05T15:14:51.210Z</time>
      </trkpt>
      <trkpt lat="45.84343" lon="15.42299">
        <ele>152.280017</ele>
        <time>2022-08-05T15:14:52.315Z</time>
      </trkpt>
      <trkpt lat="45.84356" lon="15.42278">
        <ele>152.408574</ele>
        <time>2022-08-05T15:14:57.912Z</time>
      </trkpt>
      <trkpt lat="45.84364" lon="15.42268">
        <ele>152.478045</ele>
        <time>2022-08-05T15:15:01.294Z</time>
      </trkpt>
      <trkpt lat="45.8441" lon="15.42227">
        <ele>152.736869</ele>
        <time>2022-08-05T15:15:16.774Z</time>
      </trkpt>
      <trkpt lat="45.84387" lon="15.42159">
        <ele>152.910497</ele>
        <time>2022-08-05T15:15:31.433Z</time>
      </trkpt>
      <trkpt lat="45.84344" lon="15.41953">
        <ele>153.300226</ele>
        <time>2022-08-05T15:16:13.751Z</time>
      </trkpt>
      <trkpt lat="45.84343" lon="15.41933">
        <ele>153.319724</ele>
        <time>2022-08-05T15:16:17.891Z</time>
      </trkpt>
      <trkpt lat="45.84346" lon="15.41907">
        <ele>153.346165</ele>
        <time>2022-08-05T15:16:23.175Z</time>
      </trkpt>
      <trkpt lat="45.84355" lon="15.4189">
        <ele>153.366627</ele>
        <time>2022-08-05T15:16:27.418Z</time>
      </trkpt>
      <trkpt lat="45.84401" lon="15.41861">
        <ele>153.437527</ele>
        <time>2022-08-05T15:16:41.094Z</time>
      </trkpt>
      <trkpt lat="45.84437" lon="15.41811">
        <ele>153.327239</ele>
        <time>2022-08-05T15:16:53.980Z</time>
      </trkpt>
      <trkpt lat="45.84468" lon="15.4177">
        <ele>153.039815</ele>
        <time>2022-08-05T15:17:03.711Z</time>
      </trkpt>
      <trkpt lat="45.84513" lon="15.41714">
        <ele>152.62404</ele>
        <time>2022-08-05T15:17:17.874Z</time>
      </trkpt>
      <trkpt lat="45.8452" lon="15.41703">
        <ele>152.554805</ele>
        <time>2022-08-05T15:17:20.221Z</time>
      </trkpt>
      <trkpt lat="45.84565" lon="15.41626">
        <ele>152.16862</ele>
        <time>2022-08-05T15:17:36.627Z</time>
      </trkpt>
      <trkpt lat="45.8468" lon="15.41406">
        <ele>151.928916</ele>
        <time>2022-08-05T15:18:26.199Z</time>
      </trkpt>
      <trkpt lat="45.84685" lon="15.4137">
        <ele>152.069299</ele>
        <time>2022-08-05T15:18:34.138Z</time>
      </trkpt>
      <trkpt lat="45.84674" lon="15.41269">
        <ele>152.464176</ele>
        <time>2022-08-05T15:18:56.132Z</time>
      </trkpt>
      <trkpt lat="45.84676" lon="15.41214">
        <ele>152.674205</ele>
        <time>2022-08-05T15:19:07.721Z</time>
      </trkpt>
      <trkpt lat="45.84702" lon="15.41168">
        <ele>152.786156</ele>
        <time>2022-08-05T15:19:20.372Z</time>
      </trkpt>
      <trkpt lat="45.84714" lon="15.41174">
        <ele>152.809446</ele>
        <time>2022-08-05T15:19:23.883Z</time>
      </trkpt>
      <trkpt lat="45.84721" lon="15.41169">
        <ele>152.823913</ele>
        <time>2022-08-05T15:19:25.897Z</time>
      </trkpt>
      <trkpt lat="45.84726" lon="15.41152">
        <ele>152.848023</ele>
        <time>2022-08-05T15:19:29.726Z</time>
      </trkpt>
      <trkpt lat="45.84723" lon="15.41142">
        <ele>152.862518</ele>
        <time>2022-08-05T15:19:32.077Z</time>
      </trkpt>
      <trkpt lat="45.84811" lon="15.41056">
        <ele>153.060073</ele>
        <time>2022-08-05T15:20:00.455Z</time>
      </trkpt>
      <trkpt lat="45.84882" lon="15.41008">
        <ele>152.974971</ele>
        <time>2022-08-05T15:20:19.430Z</time>
      </trkpt>
      <trkpt lat="45.84976" lon="15.40887">
        <ele>153.016942</ele>
        <time>2022-08-05T15:20:53.700Z</time>
      </trkpt>
      <trkpt lat="45.84997" lon="15.40845">
        <ele>153.233032</ele>
        <time>2022-08-05T15:21:04.962Z</time>
      </trkpt>
      <trkpt lat="45.8508" lon="15.40618">
        <ele>154.006116</ele>
        <time>2022-08-05T15:21:58.774Z</time>
      </trkpt>
      <trkpt lat="45.85098" lon="15.4056">
        <ele>154.050284</ele>
        <time>2022-08-05T15:22:10.410Z</time>
      </trkpt>
      <trkpt lat="45.85144" lon="15.40452">
        <ele>154.111329</ele>
        <time>2022-08-05T15:22:32.635Z</time>
      </trkpt>
      <trkpt lat="45.8519" lon="15.40332">
        <ele>153.992506</ele>
        <time>2022-08-05T15:22:56.643Z</time>
      </trkpt>
      <trkpt lat="45.85199" lon="15.40287">
        <ele>153.951988</ele>
        <time>2022-08-05T15:23:05.622Z</time>
      </trkpt>
      <trkpt lat="45.852" lon="15.40229">
        <ele>153.905237</ele>
        <time>2022-08-05T15:23:16.917Z</time>
      </trkpt>
      <trkpt lat="45.85207" lon="15.40178">
        <ele>154.054803</ele>
        <time>2022-08-05T15:23:27.130Z</time>
      </trkpt>
      <trkpt lat="45.85234" lon="15.40059">
        <ele>154.41185</ele>
        <time>2022-08-05T15:23:51.213Z</time>
      </trkpt>
      <trkpt lat="45.85256" lon="15.39995">
        <ele>154.616795</ele>
        <time>2022-08-05T15:24:05.867Z</time>
      </trkpt>
      <trkpt lat="45.85294" lon="15.39918">
        <ele>155.486626</ele>
        <time>2022-08-05T15:24:26.436Z</time>
      </trkpt>
      <trkpt lat="45.85299" lon="15.39888">
        <ele>155.793749</ele>
        <time>2022-08-05T15:24:33.725Z</time>
      </trkpt>
      <trkpt lat="45.85283" lon="15.39675">
        <ele>158.118034</ele>
        <time>2022-08-05T15:25:26.388Z</time>
      </trkpt>
      <trkpt lat="45.85297" lon="15.39306">
        <ele>162.758176</ele>
        <time>2022-08-05T15:26:58.144Z</time>
      </trkpt>
      <trkpt lat="45.85302" lon="15.39189">
        <ele>164.019159</ele>
        <time>2022-08-05T15:27:25.944Z</time>
      </trkpt>
      <trkpt lat="45.85315" lon="15.38927">
        <ele>166.057328</ele>
        <time>2022-08-05T15:28:24.779Z</time>
      </trkpt>
      <trkpt lat="45.85339" lon="15.38774">
        <ele>166.853252</ele>
        <time>2022-08-05T15:28:57.985Z</time>
      </trkpt>
      <trkpt lat="45.85358" lon="15.38563">
        <ele>166.857942</ele>
        <time>2022-08-05T15:29:38.684Z</time>
      </trkpt>
      <trkpt lat="45.85375" lon="15.38164">
        <ele>164.651123</ele>
        <time>2022-08-05T15:30:43.259Z</time>
      </trkpt>
      <trkpt lat="45.85369" lon="15.38115">
        <ele>164.348533</ele>
        <time>2022-08-05T15:30:51.293Z</time>
      </trkpt>
      <trkpt lat="45.85347" lon="15.38023">
        <ele>163.758782</ele>
        <time>2022-08-05T15:31:07.089Z</time>
      </trkpt>
      <trkpt lat="45.85227" lon="15.37509">
        <ele>161.214305</ele>
        <time>2022-08-05T15:32:37.213Z</time>
      </trkpt>
      <trkpt lat="45.85186" lon="15.37334">
        <ele>161.697158</ele>
        <time>2022-08-05T15:33:14.422Z</time>
      </trkpt>
      <trkpt lat="45.85184" lon="15.37325">
        <ele>161.740827</ele>
        <time>2022-08-05T15:33:16.564Z</time>
      </trkpt>
      <trkpt lat="45.85073" lon="15.36863">
        <ele>164.267134</ele>
        <time>2022-08-05T15:35:03.195Z</time>
      </trkpt>
      <trkpt lat="45.85137" lon="15.36771">
        <ele>164.577389</ele>
        <time>2022-08-05T15:35:27.136Z</time>
      </trkpt>
      <trkpt lat="45.85198" lon="15.36668">
        <ele>164.887414</ele>
        <time>2022-08-05T15:35:53.674Z</time>
      </trkpt>
      <trkpt lat="45.85244" lon="15.36625">
        <ele>165.069975</ele>
        <time>2022-08-05T15:36:10.144Z</time>
      </trkpt>
      <trkpt lat="45.85247" lon="15.36622">
        <ele>165.081724</ele>
        <time>2022-08-05T15:36:11.243Z</time>
      </trkpt>
      <trkpt lat="45.85261" lon="15.36577">
        <ele>165.208975</ele>
        <time>2022-08-05T15:36:22.064Z</time>
      </trkpt>
      <trkpt lat="45.85265" lon="15.36514">
        <ele>165.577059</ele>
        <time>2022-08-05T15:36:36.473Z</time>
      </trkpt>
      <trkpt lat="45.8528" lon="15.36431">
        <ele>166.069931</ele>
        <time>2022-08-05T15:36:56.339Z</time>
      </trkpt>
      <trkpt lat="45.85293" lon="15.36398">
        <ele>166.288744</ele>
        <time>2022-08-05T15:37:05.515Z</time>
      </trkpt>
      <trkpt lat="45.85319" lon="15.36363">
        <ele>166.584452</ele>
        <time>2022-08-05T15:37:16.688Z</time>
      </trkpt>
      <trkpt lat="45.85329" lon="15.36251">
        <ele>166.234276</ele>
        <time>2022-08-05T15:37:37.872Z</time>
      </trkpt>
      <trkpt lat="45.85325" lon="15.36196">
        <ele>165.984941</ele>
        <time>2022-08-05T15:37:47.361Z</time>
      </trkpt>
      <trkpt lat="45.85328" lon="15.36181">
        <ele>165.912838</ele>
        <time>2022-08-05T15:37:50.029Z</time>
      </trkpt>
      <trkpt lat="45.8535" lon="15.36159">
        <ele>165.743815</ele>
        <time>2022-08-05T15:37:56.359Z</time>
      </trkpt>
      <trkpt lat="45.85396" lon="15.36151">
        <ele>165.327194</ele>
        <time>2022-08-05T15:38:07.391Z</time>
      </trkpt>
      <trkpt lat="45.85408" lon="15.36119">
        <ele>164.851214</ele>
        <time>2022-08-05T15:38:13.290Z</time>
      </trkpt>
      <trkpt lat="45.85438" lon="15.36069">
        <ele>163.993513</ele>
        <time>2022-08-05T15:38:23.449Z</time>
      </trkpt>
      <trkpt lat="45.85461" lon="15.36042">
        <ele>163.451442</ele>
        <time>2022-08-05T15:38:29.735Z</time>
      </trkpt>
      <trkpt lat="45.85497" lon="15.36023">
        <ele>162.737485</ele>
        <time>2022-08-05T15:38:38.112Z</time>
      </trkpt>
      <trkpt lat="45.85532" lon="15.3602">
        <ele>162.10849</ele>
        <time>2022-08-05T15:38:45.865Z</time>
      </trkpt>
      <trkpt lat="45.85596" lon="15.36032">
        <ele>161.294173</ele>
        <time>2022-08-05T15:39:00.829Z</time>
      </trkpt>
      <trkpt lat="45.85644" lon="15.36015">
        <ele>160.662293</ele>
        <time>2022-08-05T15:39:12.593Z</time>
      </trkpt>
      <trkpt lat="45.85701" lon="15.35971">
        <ele>159.873069</ele>
        <time>2022-08-05T15:39:27.936Z</time>
      </trkpt>
      <trkpt lat="45.85784" lon="15.35879">
        <ele>159.540607</ele>
        <time>2022-08-05T15:39:55.478Z</time>
      </trkpt>
      <trkpt lat="45.85832" lon="15.35843">
        <ele>159.368402</ele>
        <time>2022-08-05T15:40:10.595Z</time>
      </trkpt>
      <trkpt lat="45.85869" lon="15.35796">
        <ele>159.285836</ele>
        <time>2022-08-05T15:40:24.395Z</time>
      </trkpt>
      <trkpt lat="45.85939" lon="15.35678">
        <ele>159.194469</ele>
        <time>2022-08-05T15:40:54.774Z</time>
      </trkpt>
      <trkpt lat="45.85996" lon="15.35631">
        <ele>158.93471</ele>
        <time>2022-08-05T15:41:12.177Z</time>
      </trkpt>
      <trkpt lat="45.85979" lon="15.3561">
        <ele>158.740968</ele>
        <time>2022-08-05T15:41:17.673Z</time>
      </trkpt>
      <trkpt lat="45.85981" lon="15.35604">
        <ele>158.697831</ele>
        <time>2022-08-05T15:41:19.669Z</time>
      </trkpt>
      <trkpt lat="45.8603" lon="15.35341">
        <ele>156.969835</ele>
        <time>2022-08-05T15:42:35.832Z</time>
      </trkpt>
      <trkpt lat="45.86112" lon="15.35361">
        <ele>156.140756</ele>
        <time>2022-08-05T15:43:09.252Z</time>
      </trkpt>
      <trkpt lat="45.86131" lon="15.35361">
        <ele>155.953979</ele>
        <time>2022-08-05T15:43:16.919Z</time>
      </trkpt>
      <trkpt lat="45.8615" lon="15.35343">
        <ele>155.764121</ele>
        <time>2022-08-05T15:43:26.199Z</time>
      </trkpt>
      <trkpt lat="45.8617" lon="15.35289">
        <ele>155.556094</ele>
        <time>2022-08-05T15:43:44.059Z</time>
      </trkpt>
      <trkpt lat="45.86197" lon="15.35217">
        <ele>155.277168</ele>
        <time>2022-08-05T15:44:08.205Z</time>
      </trkpt>
      <trkpt lat="45.86233" lon="15.35142">
        <ele>154.966468</ele>
        <time>2022-08-05T15:44:35.436Z</time>
      </trkpt>
      <trkpt lat="45.86262" lon="15.35125">
        <ele>154.942998</ele>
        <time>2022-08-05T15:44:48.931Z</time>
      </trkpt>
      <trkpt lat="45.86288" lon="15.35118">
        <ele>154.9694</ele>
        <time>2022-08-05T15:45:00.441Z</time>
      </trkpt>
      <trkpt lat="45.8629" lon="15.35112">
        <ele>154.974203</ele>
        <time>2022-08-05T15:45:02.552Z</time>
      </trkpt>
      <trkpt lat="45.86273" lon="15.34812">
        <ele>155.241026</ele>
        <time>2022-08-05T15:46:38.204Z</time>
      </trkpt>
      <trkpt lat="45.86265" lon="15.34407">
        <ele>155.69112</ele>
        <time>2022-08-05T15:48:45.364Z</time>
      </trkpt>
      <trkpt lat="45.86257" lon="15.34224">
        <ele>156.324729</ele>
        <time>2022-08-05T15:49:45.293Z</time>
      </trkpt>
      <trkpt lat="45.86253" lon="15.34121">
        <ele>156.76456</ele>
        <time>2022-08-05T15:50:19.435Z</time>
      </trkpt>
      <trkpt lat="45.86248" lon="15.34002">
        <ele>157.468587</ele>
        <time>2022-08-05T15:50:59.836Z</time>
      </trkpt>
      <trkpt lat="45.86238" lon="15.33696">
        <ele>159.107649</ele>
        <time>2022-08-05T15:52:44.104Z</time>
      </trkpt>
      <trkpt lat="45.86241" lon="15.33687">
        <ele>159.158635</ele>
        <time>2022-08-05T15:52:47.338Z</time>
      </trkpt>
      <trkpt lat="45.86274" lon="15.33632">
        <ele>159.352106</ele>
        <time>2022-08-05T15:53:10.179Z</time>
      </trkpt>
      <trkpt lat="45.8626" lon="15.33586">
        <ele>159.273223</ele>
        <time>2022-08-05T15:53:25.619Z</time>
      </trkpt>
      <trkpt lat="45.8621" lon="15.33444">
        <ele>159.02497</ele>
        <time>2022-08-05T15:53:53.092Z</time>
      </trkpt>
      <trkpt lat="45.8619" lon="15.33374">
        <ele>158.859655</ele>
        <time>2022-08-05T15:54:06.367Z</time>
      </trkpt>
      <trkpt lat="45.86185" lon="15.33341">
        <ele>158.775975</ele>
        <time>2022-08-05T15:54:12.309Z</time>
      </trkpt>
      <trkpt lat="45.86184" lon="15.33283">
        <ele>158.633016</ele>
        <time>2022-08-05T15:54:22.539Z</time>
      </trkpt>
      <trkpt lat="45.86187" lon="15.33222">
        <ele>158.481956</ele>
        <time>2022-08-05T15:54:33.343Z</time>
      </trkpt>
      <trkpt lat="45.86188" lon="15.33219">
        <ele>158.473024</ele>
        <time>2022-08-05T15:54:34.002Z</time>
      </trkpt>
      <trkpt lat="45.86204" lon="15.33102">
        <ele>158.062179</ele>
        <time>2022-08-05T15:54:54.647Z</time>
      </trkpt>
      <trkpt lat="45.86225" lon="15.32988">
        <ele>157.567254</ele>
        <time>2022-08-05T15:55:14.821Z</time>
      </trkpt>
      <trkpt lat="45.8624" lon="15.32946">
        <ele>157.372082</ele>
        <time>2022-08-05T15:55:22.476Z</time>
      </trkpt>
      <trkpt lat="45.8628" lon="15.32873">
        <ele>156.9476</ele>
        <time>2022-08-05T15:55:37.748Z</time>
      </trkpt>
      <trkpt lat="45.86296" lon="15.328">
        <ele>156.590226</ele>
        <time>2022-08-05T15:55:50.379Z</time>
      </trkpt>
      <trkpt lat="45.86286" lon="15.32745">
        <ele>156.324823</ele>
        <time>2022-08-05T15:55:59.853Z</time>
      </trkpt>
      <trkpt lat="45.86207" lon="15.32503">
        <ele>155.756927</ele>
        <time>2022-08-05T15:56:46.511Z</time>
      </trkpt>
      <trkpt lat="45.86198" lon="15.32434">
        <ele>155.772238</ele>
        <time>2022-08-05T15:57:00.097Z</time>
      </trkpt>
      <trkpt lat="45.86198" lon="15.32368">
        <ele>156.011071</ele>
        <time>2022-08-05T15:57:13.880Z</time>
      </trkpt>
      <trkpt lat="45.8621" lon="15.32273">
        <ele>156.353514</ele>
        <time>2022-08-05T15:57:34.277Z</time>
      </trkpt>
      <trkpt lat="45.86214" lon="15.32238">
        <ele>156.481743</ele>
        <time>2022-08-05T15:57:41.544Z</time>
      </trkpt>
      <trkpt lat="45.86216" lon="15.32212">
        <ele>156.575588</ele>
        <time>2022-08-05T15:57:46.854Z</time>
      </trkpt>
      <trkpt lat="45.8623" lon="15.32121">
        <ele>156.827505</ele>
        <time>2022-08-05T15:58:05.530Z</time>
      </trkpt>
      <trkpt lat="45.86233" lon="15.32109">
        <ele>156.861094</ele>
        <time>2022-08-05T15:58:07.946Z</time>
      </trkpt>
      <trkpt lat="45.86237" lon="15.32052">
        <ele>157.008413</ele>
        <time>2022-08-05T15:58:26.369Z</time>
      </trkpt>
      <trkpt lat="45.86228" lon="15.31998">
        <ele>157.150525</ele>
        <time>2022-08-05T15:58:44.180Z</time>
      </trkpt>
      <trkpt lat="45.86203" lon="15.31916">
        <ele>157.319419</ele>
        <time>2022-08-05T15:59:12.777Z</time>
      </trkpt>
      <trkpt lat="45.86153" lon="15.31801">
        <ele>157.451943</ele>
        <time>2022-08-05T15:59:54.995Z</time>
      </trkpt>
      <trkpt lat="45.86137" lon="15.31741">
        <ele>157.515517</ele>
        <time>2022-08-05T16:00:15.452Z</time>
      </trkpt>
      <trkpt lat="45.86134" lon="15.31697">
        <ele>157.558481</ele>
        <time>2022-08-05T16:00:29.649Z</time>
      </trkpt>
      <trkpt lat="45.86161" lon="15.31568">
        <ele>157.686739</ele>
        <time>2022-08-05T16:01:11.523Z</time>
      </trkpt>
      <trkpt lat="45.86197" lon="15.31331">
        <ele>158.013439</ele>
        <time>2022-08-05T16:02:27.925Z</time>
      </trkpt>
      <trkpt lat="45.86214" lon="15.31023">
        <ele>158.506957</ele>
        <time>2022-08-05T16:04:07.435Z</time>
      </trkpt>
      <trkpt lat="45.8622" lon="15.3101">
        <ele>158.533046</ele>
        <time>2022-08-05T16:04:12.583Z</time>
      </trkpt>
      <trkpt lat="45.86265" lon="15.30971">
        <ele>158.439809</ele>
        <time>2022-08-05T16:04:35.839Z</time>
      </trkpt>
      <trkpt lat="45.86312" lon="15.30948">
        <ele>158.026631</ele>
        <time>2022-08-05T16:04:56.664Z</time>
      </trkpt>
      <trkpt lat="45.86389" lon="15.30853">
        <ele>157.176994</ele>
        <time>2022-08-05T16:05:37.345Z</time>
      </trkpt>
      <trkpt lat="45.86402" lon="15.30829">
        <ele>156.974772</ele>
        <time>2022-08-05T16:05:45.809Z</time>
      </trkpt>
      <trkpt lat="45.86431" lon="15.30692">
        <ele>155.976334</ele>
        <time>2022-08-05T16:06:25.332Z</time>
      </trkpt>
      <trkpt lat="45.86472" lon="15.30463">
        <ele>154.811924</ele>
        <time>2022-08-05T16:07:34.378Z</time>
      </trkpt>
      <trkpt lat="45.86504" lon="15.3033">
        <ele>154.319148</ele>
        <time>2022-08-05T16:08:16.325Z</time>
      </trkpt>
      <trkpt lat="45.86533" lon="15.30276">
        <ele>154.06674</ele>
        <time>2022-08-05T16:08:36.220Z</time>
      </trkpt>
      <trkpt lat="45.86531" lon="15.30194">
        <ele>153.764657</ele>
        <time>2022-08-05T16:09:00.400Z</time>
      </trkpt>
      <trkpt lat="45.86535" lon="15.30171">
        <ele>153.679374</ele>
        <time>2022-08-05T16:09:07.036Z</time>
      </trkpt>
      <trkpt lat="45.86552" lon="15.30158">
        <ele>153.573302</ele>
        <time>2022-08-05T16:09:12.125Z</time>
      </trkpt>
      <trkpt lat="45.86633" lon="15.30134">
        <ele>153.341613</ele>
        <time>2022-08-05T16:09:32.279Z</time>
      </trkpt>
      <trkpt lat="45.86644" lon="15.30122">
        <ele>153.316546</ele>
        <time>2022-08-05T16:09:35.703Z</time>
      </trkpt>
      <trkpt lat="45.86646" lon="15.30101">
        <ele>153.289471</ele>
        <time>2022-08-05T16:09:39.399Z</time>
      </trkpt>
      <trkpt lat="45.86626" lon="15.3001">
        <ele>153.168753</ele>
        <time>2022-08-05T16:09:56.715Z</time>
      </trkpt>
      <trkpt lat="45.86604" lon="15.29963">
        <ele>153.261415</ele>
        <time>2022-08-05T16:10:07.878Z</time>
      </trkpt>
      <trkpt lat="45.8661" lon="15.29908">
        <ele>153.68365</ele>
        <time>2022-08-05T16:10:19.355Z</time>
      </trkpt>
      <trkpt lat="45.86611" lon="15.29855">
        <ele>154.086593</ele>
        <time>2022-08-05T16:10:30.764Z</time>
      </trkpt>
      <trkpt lat="45.86562" lon="15.29714">
        <ele>155.498582</ele>
        <time>2022-08-05T16:11:07.814Z</time>
      </trkpt>
      <trkpt lat="45.86499" lon="15.29318">
        <ele>162.074361</ele>
        <time>2022-08-05T16:12:56.540Z</time>
      </trkpt>
      <trkpt lat="45.86469" lon="15.29245">
        <ele>163.467358</ele>
        <time>2022-08-05T16:13:19.378Z</time>
      </trkpt>
      <trkpt lat="45.86445" lon="15.29134">
        <ele>163.891904</ele>
        <time>2022-08-05T16:13:47.748Z</time>
      </trkpt>
      <trkpt lat="45.86384" lon="15.28998">
        <ele>164.100852</ele>
        <time>2022-08-05T16:14:16.135Z</time>
      </trkpt>
      <trkpt lat="45.8636" lon="15.28847">
        <ele>161.783402</ele>
        <time>2022-08-05T16:14:38.761Z</time>
      </trkpt>
      <trkpt lat="45.86406" lon="15.28827">
        <ele>160.748437</ele>
        <time>2022-08-05T16:14:48.671Z</time>
      </trkpt>
      <trkpt lat="45.86411" lon="15.28825">
        <ele>160.621354</ele>
        <time>2022-08-05T16:14:49.867Z</time>
      </trkpt>
      <trkpt lat="45.86474" lon="15.28789">
        <ele>158.921525</ele>
        <time>2022-08-05T16:15:03.606Z</time>
      </trkpt>
      <trkpt lat="45.86558" lon="15.28695">
        <ele>156.187937</ele>
        <time>2022-08-05T16:15:26.748Z</time>
      </trkpt>
      <trkpt lat="45.86652" lon="15.28634">
        <ele>154.363357</ele>
        <time>2022-08-05T16:15:49.555Z</time>
      </trkpt>
      <trkpt lat="45.86725" lon="15.28562">
        <ele>152.889883</ele>
        <time>2022-08-05T16:16:10.145Z</time>
      </trkpt>
      <trkpt lat="45.86748" lon="15.28546">
        <ele>152.699269</ele>
        <time>2022-08-05T16:16:16.201Z</time>
      </trkpt>
      <trkpt lat="45.86816" lon="15.28508">
        <ele>152.149689</ele>
        <time>2022-08-05T16:16:34.197Z</time>
      </trkpt>
      <trkpt lat="45.86895" lon="15.28466">
        <ele>151.551312</ele>
        <time>2022-08-05T16:16:55.849Z</time>
      </trkpt>
      <trkpt lat="45.8688" lon="15.28407">
        <ele>151.528162</ele>
        <time>2022-08-05T16:17:07.161Z</time>
      </trkpt>
      <trkpt lat="45.86831" lon="15.28264">
        <ele>151.469166</ele>
        <time>2022-08-05T16:17:37.390Z</time>
      </trkpt>
      <trkpt lat="45.86581" lon="15.27712">
        <ele>151.195778</ele>
        <time>2022-08-05T16:19:37.834Z</time>
      </trkpt>
      <trkpt lat="45.86528" lon="15.27576">
        <ele>151.250517</ele>
        <time>2022-08-05T16:20:07.400Z</time>
      </trkpt>
      <trkpt lat="45.8648" lon="15.2744">
        <ele>151.560269</ele>
        <time>2022-08-05T16:20:37.234Z</time>
      </trkpt>
      <trkpt lat="45.86397" lon="15.27163">
        <ele>152.281702</ele>
        <time>2022-08-05T16:21:37.191Z</time>
      </trkpt>
      <trkpt lat="45.86358" lon="15.26997">
        <ele>152.496978</ele>
        <time>2022-08-05T16:22:11.658Z</time>
      </trkpt>
      <trkpt lat="45.86312" lon="15.26763">
        <ele>152.484179</ele>
        <time>2022-08-05T16:22:55.952Z</time>
      </trkpt>
      <trkpt lat="45.86295" lon="15.26723">
        <ele>152.439564</ele>
        <time>2022-08-05T16:23:04.162Z</time>
      </trkpt>
      <trkpt lat="45.86271" lon="15.26685">
        <ele>152.390364</ele>
        <time>2022-08-05T16:23:13.323Z</time>
      </trkpt>
      <trkpt lat="45.86237" lon="15.26634">
        <ele>152.3908</ele>
        <time>2022-08-05T16:23:26.193Z</time>
      </trkpt>
      <trkpt lat="45.86215" lon="15.26591">
        <ele>152.533111</ele>
        <time>2022-08-05T16:23:36.042Z</time>
      </trkpt>
      <trkpt lat="45.86191" lon="15.26489">
        <ele>152.824754</ele>
        <time>2022-08-05T16:23:57.739Z</time>
      </trkpt>
      <trkpt lat="45.86174" lon="15.26394">
        <ele>153.13606</ele>
        <time>2022-08-05T16:24:18.428Z</time>
      </trkpt>
      <trkpt lat="45.8617" lon="15.26363">
        <ele>153.297735</ele>
        <time>2022-08-05T16:24:25.231Z</time>
      </trkpt>
      <trkpt lat="45.86169" lon="15.26323">
        <ele>153.500201</ele>
        <time>2022-08-05T16:24:33.691Z</time>
      </trkpt>
      <trkpt lat="45.86167" lon="15.26303">
        <ele>153.601879</ele>
        <time>2022-08-05T16:24:37.975Z</time>
      </trkpt>
      <trkpt lat="45.86161" lon="15.2624">
        <ele>153.931646</ele>
        <time>2022-08-05T16:24:51.592Z</time>
      </trkpt>
      <trkpt lat="45.86152" lon="15.26201">
        <ele>154.138208</ele>
        <time>2022-08-05T16:25:00.150Z</time>
      </trkpt>
      <trkpt lat="45.86139" lon="15.26175">
        <ele>154.304925</ele>
        <time>2022-08-05T16:25:06.921Z</time>
      </trkpt>
      <trkpt lat="45.86048" lon="15.26058">
        <ele>154.850969</ele>
        <time>2022-08-05T16:25:42.236Z</time>
      </trkpt>
      <trkpt lat="45.85953" lon="15.2591">
        <ele>155.122301</ele>
        <time>2022-08-05T16:26:21.947Z</time>
      </trkpt>
      <trkpt lat="45.85938" lon="15.2588">
        <ele>155.120693</ele>
        <time>2022-08-05T16:26:28.633Z</time>
      </trkpt>
      <trkpt lat="45.85933" lon="15.25856">
        <ele>155.11955</ele>
        <time>2022-08-05T16:26:33.320Z</time>
      </trkpt>
      <trkpt lat="45.85919" lon="15.25793">
        <ele>155.116586</ele>
        <time>2022-08-05T16:26:45.114Z</time>
      </trkpt>
      <trkpt lat="45.85869" lon="15.25694">
        <ele>154.952117</ele>
        <time>2022-08-05T16:27:05.790Z</time>
      </trkpt>
      <trkpt lat="45.8584" lon="15.25587">
        <ele>154.767262</ele>
        <time>2022-08-05T16:27:25.775Z</time>
      </trkpt>
      <trkpt lat="45.85822" lon="15.25597">
        <ele>154.722396</ele>
        <time>2022-08-05T16:27:31.149Z</time>
      </trkpt>
      <trkpt lat="45.8581" lon="15.25594">
        <ele>154.713392</ele>
        <time>2022-08-05T16:27:34.687Z</time>
      </trkpt>
      <trkpt lat="45.85776" lon="15.2555">
        <ele>155.426393</ele>
        <time>2022-08-05T16:27:49.061Z</time>
      </trkpt>
      <trkpt lat="45.85679" lon="15.25486">
        <ele>157.098124</ele>
        <time>2022-08-05T16:28:28.574Z</time>
      </trkpt>
      <trkpt lat="45.85617" lon="15.25461">
        <ele>158.081809</ele>
        <time>2022-08-05T16:28:53.942Z</time>
      </trkpt>
      <trkpt lat="45.85569" lon="15.25449">
        <ele>158.828879</ele>
        <time>2022-08-05T16:29:12.616Z</time>
      </trkpt>
      <trkpt lat="45.85549" lon="15.2545">
        <ele>159.129526</ele>
        <time>2022-08-05T16:29:19.594Z</time>
      </trkpt>
      <trkpt lat="45.8551" lon="15.2545">
        <ele>159.73351</ele>
        <time>2022-08-05T16:29:33.017Z</time>
      </trkpt>
      <trkpt lat="45.85499" lon="15.25448">
        <ele>159.897122</ele>
        <time>2022-08-05T16:29:36.554Z</time>
      </trkpt>
      <trkpt lat="45.85403" lon="15.25413">
        <ele>159.825292</ele>
        <time>2022-08-05T16:30:04.063Z</time>
      </trkpt>
      <trkpt lat="45.85287" lon="15.25391">
        <ele>159.047693</ele>
        <time>2022-08-05T16:30:32.480Z</time>
      </trkpt>
      <trkpt lat="45.85174" lon="15.25334">
        <ele>157.31294</ele>
        <time>2022-08-05T16:30:59.687Z</time>
      </trkpt>
      <trkpt lat="45.85096" lon="15.25288">
        <ele>156.308155</ele>
        <time>2022-08-05T16:31:19.300Z</time>
      </trkpt>
      <trkpt lat="45.85053" lon="15.25277">
        <ele>155.935552</ele>
        <time>2022-08-05T16:31:29.833Z</time>
      </trkpt>
      <trkpt lat="45.85011" lon="15.25211">
        <ele>155.404384</ele>
        <time>2022-08-05T16:31:45.577Z</time>
      </trkpt>
      <trkpt lat="45.84957" lon="15.25161">
        <ele>154.941363</ele>
        <time>2022-08-05T16:32:02.661Z</time>
      </trkpt>
      <trkpt lat="45.84892" lon="15.25086">
        <ele>154.488854</ele>
        <time>2022-08-05T16:32:24.318Z</time>
      </trkpt>
      <trkpt lat="45.84765" lon="15.24923">
        <ele>153.566766</ele>
        <time>2022-08-05T16:33:06.865Z</time>
      </trkpt>
      <trkpt lat="45.84622" lon="15.24755">
        <ele>153.349684</ele>
        <time>2022-08-05T16:33:55.819Z</time>
      </trkpt>
      <trkpt lat="45.84541" lon="15.24662">
        <ele>153.854303</ele>
        <time>2022-08-05T16:34:28.570Z</time>
      </trkpt>
      <trkpt lat="45.84334" lon="15.24496">
        <ele>156.517941</ele>
        <time>2022-08-05T16:35:49.651Z</time>
      </trkpt>
      <trkpt lat="45.84231" lon="15.24399">
        <ele>157.484741</ele>
        <time>2022-08-05T16:36:28.026Z</time>
      </trkpt>
      <trkpt lat="45.84164" lon="15.24316">
        <ele>157.65825</ele>
        <time>2022-08-05T16:36:53.594Z</time>
      </trkpt>
      <trkpt lat="45.8411" lon="15.24214">
        <ele>157.643402</ele>
        <time>2022-08-05T16:37:18.027Z</time>
      </trkpt>
      <trkpt lat="45.84028" lon="15.24018">
        <ele>156.909409</ele>
        <time>2022-08-05T16:37:58.904Z</time>
      </trkpt>
      <trkpt lat="45.84011" lon="15.23952">
        <ele>156.712539</ele>
        <time>2022-08-05T16:38:11.172Z</time>
      </trkpt>
      <trkpt lat="45.83988" lon="15.23802">
        <ele>156.283307</ele>
        <time>2022-08-05T16:38:38.856Z</time>
      </trkpt>
      <trkpt lat="45.8398" lon="15.23774">
        <ele>156.239414</ele>
        <time>2022-08-05T16:38:44.691Z</time>
      </trkpt>
      <trkpt lat="45.83937" lon="15.23678">
        <ele>156.488369</ele>
        <time>2022-08-05T16:39:07.758Z</time>
      </trkpt>
      <trkpt lat="45.83913" lon="15.23556">
        <ele>156.761921</ele>
        <time>2022-08-05T16:39:33.119Z</time>
      </trkpt>
      <trkpt lat="45.8391" lon="15.23491">
        <ele>157.037509</ele>
        <time>2022-08-05T16:39:46.770Z</time>
      </trkpt>
      <trkpt lat="45.8391" lon="15.23449">
        <ele>157.229586</ele>
        <time>2022-08-05T16:39:55.474Z</time>
      </trkpt>
      <trkpt lat="45.83908" lon="15.23368">
        <ele>157.599955</ele>
        <time>2022-08-05T16:40:12.219Z</time>
      </trkpt>
      <trkpt lat="45.83904" lon="15.23285">
        <ele>157.994396</ele>
        <time>2022-08-05T16:40:29.765Z</time>
      </trkpt>
      <trkpt lat="45.83893" lon="15.23216">
        <ele>158.55338</ele>
        <time>2022-08-05T16:40:44.934Z</time>
      </trkpt>
      <trkpt lat="45.83882" lon="15.22983">
        <ele>160.480464</ele>
        <time>2022-08-05T16:41:38.074Z</time>
      </trkpt>
      <trkpt lat="45.83883" lon="15.22928">
        <ele>161.002054</ele>
        <time>2022-08-05T16:41:51.099Z</time>
      </trkpt>
      <trkpt lat="45.83875" lon="15.22841">
        <ele>161.842861</ele>
        <time>2022-08-05T16:42:11.702Z</time>
      </trkpt>
      <trkpt lat="45.83874" lon="15.22811">
        <ele>162.130521</ele>
        <time>2022-08-05T16:42:18.804Z</time>
      </trkpt>
      <trkpt lat="45.83885" lon="15.2274">
        <ele>162.717132</ele>
        <time>2022-08-05T16:42:35.444Z</time>
      </trkpt>
      <trkpt lat="45.83869" lon="15.22677">
        <ele>163.151733</ele>
        <time>2022-08-05T16:42:50.453Z</time>
      </trkpt>
      <trkpt lat="45.83845" lon="15.22638">
        <ele>163.492205</ele>
        <time>2022-08-05T16:43:01.919Z</time>
      </trkpt>
      <trkpt lat="45.83785" lon="15.22611">
        <ele>164.084393</ele>
        <time>2022-08-05T16:43:20.661Z</time>
      </trkpt>
      <trkpt lat="45.83737" lon="15.22559">
        <ele>164.274854</ele>
        <time>2022-08-05T16:43:37.795Z</time>
      </trkpt>
      <trkpt lat="45.83694" lon="15.22533">
        <ele>164.374829</ele>
        <time>2022-08-05T16:43:50.417Z</time>
      </trkpt>
      <trkpt lat="45.83641" lon="15.22477">
        <ele>164.519218</ele>
        <time>2022-08-05T16:44:08.203Z</time>
      </trkpt>
      <trkpt lat="45.83569" lon="15.22434">
        <ele>165.030062</ele>
        <time>2022-08-05T16:44:29.543Z</time>
      </trkpt>
      <trkpt lat="45.83512" lon="15.2238">
        <ele>165.550973</ele>
        <time>2022-08-05T16:44:50.182Z</time>
      </trkpt>
      <trkpt lat="45.83504" lon="15.22373">
        <ele>165.623494</ele>
        <time>2022-08-05T16:44:53.173Z</time>
      </trkpt>
      <trkpt lat="45.83442" lon="15.22305">
        <ele>166.527408</ele>
        <time>2022-08-05T16:45:20.106Z</time>
      </trkpt>
      <trkpt lat="45.83424" lon="15.22271">
        <ele>166.985584</ele>
        <time>2022-08-05T16:45:30.543Z</time>
      </trkpt>
      <trkpt lat="45.83416" lon="15.22226">
        <ele>167.498308</ele>
        <time>2022-08-05T16:45:42.401Z</time>
      </trkpt>
      <trkpt lat="45.83396" lon="15.22089">
        <ele>168.812772</ele>
        <time>2022-08-05T16:46:15.463Z</time>
      </trkpt>
      <trkpt lat="45.83386" lon="15.22038">
        <ele>168.962742</ele>
        <time>2022-08-05T16:46:26.697Z</time>
      </trkpt>
      <trkpt lat="45.83368" lon="15.21987">
        <ele>169.125173</ele>
        <time>2022-08-05T16:46:37.841Z</time>
      </trkpt>
      <trkpt lat="45.83355" lon="15.21929">
        <ele>169.302056</ele>
        <time>2022-08-05T16:46:49.340Z</time>
      </trkpt>
      <trkpt lat="45.83322" lon="15.21773">
        <ele>169.585309</ele>
        <time>2022-08-05T16:47:18.571Z</time>
      </trkpt>
      <trkpt lat="45.83314" lon="15.21617">
        <ele>169.753095</ele>
        <time>2022-08-05T16:47:49.558Z</time>
      </trkpt>
      <trkpt lat="45.83303" lon="15.21529">
        <ele>169.84832</ele>
        <time>2022-08-05T16:48:07.992Z</time>
      </trkpt>
      <trkpt lat="45.83308" lon="15.21396">
        <ele>169.991228</ele>
        <time>2022-08-05T16:48:33.824Z</time>
      </trkpt>
      <trkpt lat="45.8333" lon="15.21227">
        <ele>169.464009</ele>
        <time>2022-08-05T16:49:02.616Z</time>
      </trkpt>
      <trkpt lat="45.83325" lon="15.2111">
        <ele>168.973742</ele>
        <time>2022-08-05T16:49:21.999Z</time>
      </trkpt>
      <trkpt lat="45.83332" lon="15.21057">
        <ele>168.834622</ele>
        <time>2022-08-05T16:49:31.365Z</time>
      </trkpt>
      <trkpt lat="45.83358" lon="15.20989">
        <ele>168.645938</ele>
        <time>2022-08-05T16:49:45.393Z</time>
      </trkpt>
      <trkpt lat="45.83359" lon="15.20962">
        <ele>168.581488</ele>
        <time>2022-08-05T16:49:49.898Z</time>
      </trkpt>
      <trkpt lat="45.83357" lon="15.20946">
        <ele>168.541983</ele>
        <time>2022-08-05T16:49:53.177Z</time>
      </trkpt>
      <trkpt lat="45.83347" lon="15.20922">
        <ele>168.47533</ele>
        <time>2022-08-05T16:49:57.770Z</time>
      </trkpt>
      <trkpt lat="45.83324" lon="15.209">
        <ele>168.378217</ele>
        <time>2022-08-05T16:50:04.764Z</time>
      </trkpt>
      <trkpt lat="45.83297" lon="15.20899">
        <ele>168.35067</ele>
        <time>2022-08-05T16:50:11.684Z</time>
      </trkpt>
      <trkpt lat="45.83251" lon="15.20912">
        <ele>168.438062</ele>
        <time>2022-08-05T16:50:24.306Z</time>
      </trkpt>
      <trkpt lat="45.83199" lon="15.2091">
        <ele>168.534637</ele>
        <time>2022-08-05T16:50:38.775Z</time>
      </trkpt>
      <trkpt lat="45.83169" lon="15.20888">
        <ele>168.597715</ele>
        <time>2022-08-05T16:50:48.060Z</time>
      </trkpt>
      <trkpt lat="45.8314" lon="15.2084">
        <ele>168.753359</ele>
        <time>2022-08-05T16:51:00.659Z</time>
      </trkpt>
      <trkpt lat="45.83082" lon="15.20693">
        <ele>169.89976</ele>
        <time>2022-08-05T16:51:37.017Z</time>
      </trkpt>
      <trkpt lat="45.82974" lon="15.20473">
        <ele>172.896867</ele>
        <time>2022-08-05T16:52:40.404Z</time>
      </trkpt>
      <trkpt lat="45.82967" lon="15.20438">
        <ele>173.370809</ele>
        <time>2022-08-05T16:52:50.077Z</time>
      </trkpt>
      <trkpt lat="45.82966" lon="15.20348">
        <ele>175.199572</ele>
        <time>2022-08-05T16:53:15.207Z</time>
      </trkpt>
      <trkpt lat="45.82984" lon="15.20095">
        <ele>180.840021</ele>
        <time>2022-08-05T16:54:34.175Z</time>
      </trkpt>
      <trkpt lat="45.82988" lon="15.2005">
        <ele>181.629596</ele>
        <time>2022-08-05T16:54:47.425Z</time>
      </trkpt>
      <trkpt lat="45.82994" lon="15.20034">
        <ele>181.931043</ele>
        <time>2022-08-05T16:54:52.257Z</time>
      </trkpt>
      <trkpt lat="45.82969" lon="15.20016">
        <ele>182.623041</ele>
        <time>2022-08-05T16:55:03.326Z</time>
      </trkpt>
      <trkpt lat="45.82907" lon="15.19952">
        <ele>184.317111</ele>
        <time>2022-08-05T16:55:29.821Z</time>
      </trkpt>
      <trkpt lat="45.82867" lon="15.19893">
        <ele>184.397821</ele>
        <time>2022-08-05T16:55:46.351Z</time>
      </trkpt>
      <trkpt lat="45.82829" lon="15.19805">
        <ele>184.50104</ele>
        <time>2022-08-05T16:56:04.298Z</time>
      </trkpt>
      <trkpt lat="45.82782" lon="15.19662">
        <ele>184.80521</ele>
        <time>2022-08-05T16:56:32.685Z</time>
      </trkpt>
      <trkpt lat="45.82727" lon="15.19465">
        <ele>185.062469</ele>
        <time>2022-08-05T16:57:17.311Z</time>
      </trkpt>
      <trkpt lat="45.82717" lon="15.19407">
        <ele>184.905024</ele>
        <time>2022-08-05T16:57:29.307Z</time>
      </trkpt>
      <trkpt lat="45.82706" lon="15.19328">
        <ele>184.692194</ele>
        <time>2022-08-05T16:57:43.728Z</time>
      </trkpt>
      <trkpt lat="45.82689" lon="15.19052">
        <ele>181.352558</ele>
        <time>2022-08-05T16:58:24.561Z</time>
      </trkpt>
      <trkpt lat="45.82668" lon="15.19027">
        <ele>180.77306</ele>
        <time>2022-08-05T16:58:29.872Z</time>
      </trkpt>
      <trkpt lat="45.82668" lon="15.19019">
        <ele>180.64335</ele>
        <time>2022-08-05T16:58:33.879Z</time>
      </trkpt>
      <trkpt lat="45.82606" lon="15.19028">
        <ele>178.891797</ele>
        <time>2022-08-05T16:58:46.216Z</time>
      </trkpt>
      <trkpt lat="45.82591" lon="15.19036">
        <ele>178.429096</ele>
        <time>2022-08-05T16:58:49.568Z</time>
      </trkpt>
      <trkpt lat="45.82569" lon="15.19061">
        <ele>177.645591</ele>
        <time>2022-08-05T16:58:55.135Z</time>
      </trkpt>
      <trkpt lat="45.82528" lon="15.19014">
        <ele>176.171221</ele>
        <time>2022-08-05T16:59:05.585Z</time>
      </trkpt>
      <trkpt lat="45.82494" lon="15.18969">
        <ele>174.856058</ele>
        <time>2022-08-05T16:59:14.647Z</time>
      </trkpt>
      <trkpt lat="45.82486" lon="15.18956">
        <ele>174.500949</ele>
        <time>2022-08-05T16:59:17.066Z</time>
      </trkpt>
      <trkpt lat="45.82449" lon="15.18894">
        <ele>172.898269</ele>
        <time>2022-08-05T16:59:27.941Z</time>
      </trkpt>
      <trkpt lat="45.82413" lon="15.18834">
        <ele>171.327029</ele>
        <time>2022-08-05T16:59:39.081Z</time>
      </trkpt>
      <trkpt lat="45.82379" lon="15.18776">
        <ele>170.27474</ele>
        <time>2022-08-05T16:59:49.932Z</time>
      </trkpt>
      <trkpt lat="45.82311" lon="15.18609">
        <ele>169.10162</ele>
        <time>2022-08-05T17:00:21.617Z</time>
      </trkpt>
      <trkpt lat="45.82285" lon="15.18557">
        <ele>169.024578</ele>
        <time>2022-08-05T17:00:34.870Z</time>
      </trkpt>
      <trkpt lat="45.82248" lon="15.18509">
        <ele>169.295051</ele>
        <time>2022-08-05T17:00:49.800Z</time>
      </trkpt>
      <trkpt lat="45.82168" lon="15.18431">
        <ele>169.817634</ele>
        <time>2022-08-05T17:01:18.422Z</time>
      </trkpt>
      <trkpt lat="45.82114" lon="15.18356">
        <ele>170.043447</ele>
        <time>2022-08-05T17:01:40.979Z</time>
      </trkpt>
      <trkpt lat="45.82059" lon="15.18301">
        <ele>170.218495</ele>
        <time>2022-08-05T17:02:00.437Z</time>
      </trkpt>
      <trkpt lat="45.82017" lon="15.18227">
        <ele>170.219373</ele>
        <time>2022-08-05T17:02:17.137Z</time>
      </trkpt>
      <trkpt lat="45.81998" lon="15.18209">
        <ele>170.050801</ele>
        <time>2022-08-05T17:02:22.815Z</time>
      </trkpt>
      <trkpt lat="45.81956" lon="15.18172">
        <ele>169.687466</ele>
        <time>2022-08-05T17:02:34.248Z</time>
      </trkpt>
      <trkpt lat="45.81874" lon="15.18112">
        <ele>169.056354</ele>
        <time>2022-08-05T17:02:55.526Z</time>
      </trkpt>
      <trkpt lat="45.81802" lon="15.18048">
        <ele>170.009859</ele>
        <time>2022-08-05T17:03:17.979Z</time>
      </trkpt>
      <trkpt lat="45.81746" lon="15.18012">
        <ele>170.694321</ele>
        <time>2022-08-05T17:03:39.506Z</time>
      </trkpt>
      <trkpt lat="45.81706" lon="15.17967">
        <ele>171.534121</ele>
        <time>2022-08-05T17:04:01.315Z</time>
      </trkpt>
      <trkpt lat="45.81602" lon="15.17828">
        <ele>175.072819</ele>
        <time>2022-08-05T17:04:59.481Z</time>
      </trkpt>
      <trkpt lat="45.81589" lon="15.17816">
        <ele>175.459105</ele>
        <time>2022-08-05T17:05:04.501Z</time>
      </trkpt>
      <trkpt lat="45.81553" lon="15.17773">
        <ele>175.395799</ele>
        <time>2022-08-05T17:05:18.095Z</time>
      </trkpt>
      <trkpt lat="45.81503" lon="15.17726">
        <ele>175.190717</ele>
        <time>2022-08-05T17:05:32.638Z</time>
      </trkpt>
      <trkpt lat="45.81443" lon="15.1769">
        <ele>174.966775</ele>
        <time>2022-08-05T17:05:46.943Z</time>
      </trkpt>
      <trkpt lat="45.81424" lon="15.17673">
        <ele>174.959642</ele>
        <time>2022-08-05T17:05:52.060Z</time>
      </trkpt>
      <trkpt lat="45.81391" lon="15.17633">
        <ele>175.091034</ele>
        <time>2022-08-05T17:06:02.548Z</time>
      </trkpt>
      <trkpt lat="45.81363" lon="15.17587">
        <ele>175.22035</ele>
        <time>2022-08-05T17:06:14.728Z</time>
      </trkpt>
      <trkpt lat="45.81323" lon="15.17482">
        <ele>175.47397</ele>
        <time>2022-08-05T17:06:41.262Z</time>
      </trkpt>
      <trkpt lat="45.81301" lon="15.17415">
        <ele>175.999073</ele>
        <time>2022-08-05T17:06:58.146Z</time>
      </trkpt>
      <trkpt lat="45.81296" lon="15.17399">
        <ele>176.127064</ele>
        <time>2022-08-05T17:07:02.345Z</time>
      </trkpt>
      <trkpt lat="45.81292" lon="15.17386">
        <ele>176.230337</ele>
        <time>2022-08-05T17:07:06.009Z</time>
      </trkpt>
      <trkpt lat="45.81234" lon="15.17217">
        <ele>177.299498</ele>
        <time>2022-08-05T17:07:46.746Z</time>
      </trkpt>
      <trkpt lat="45.81229" lon="15.17202">
        <ele>177.293379</ele>
        <time>2022-08-05T17:07:49.918Z</time>
      </trkpt>
      <trkpt lat="45.81188" lon="15.17077">
        <ele>177.24084</ele>
        <time>2022-08-05T17:08:13.491Z</time>
      </trkpt>
      <trkpt lat="45.81171" lon="15.17029">
        <ele>177.220352</ele>
        <time>2022-08-05T17:08:23.471Z</time>
      </trkpt>
      <trkpt lat="45.81149" lon="15.16956">
        <ele>177.222145</ele>
        <time>2022-08-05T17:08:39.283Z</time>
      </trkpt>
      <trkpt lat="45.81144" lon="15.16928">
        <ele>177.225139</ele>
        <time>2022-08-05T17:08:44.592Z</time>
      </trkpt>
      <trkpt lat="45.81122" lon="15.16811">
        <ele>177.237851</ele>
        <time>2022-08-05T17:09:07.813Z</time>
      </trkpt>
      <trkpt lat="45.81098" lon="15.1674">
        <ele>176.946745</ele>
        <time>2022-08-05T17:09:21.289Z</time>
      </trkpt>
      <trkpt lat="45.81068" lon="15.1667">
        <ele>176.282837</ele>
        <time>2022-08-05T17:09:35.105Z</time>
      </trkpt>
      <trkpt lat="45.81027" lon="15.16596">
        <ele>175.528325</ele>
        <time>2022-08-05T17:09:49.320Z</time>
      </trkpt>
      <trkpt lat="45.80945" lon="15.16489">
        <ele>175.058507</ele>
        <time>2022-08-05T17:10:13.388Z</time>
      </trkpt>
      <trkpt lat="45.80921" lon="15.16468">
        <ele>175.01946</ele>
        <time>2022-08-05T17:10:20.307Z</time>
      </trkpt>
      <trkpt lat="45.80917" lon="15.16474">
        <ele>175.011197</ele>
        <time>2022-08-05T17:10:21.731Z</time>
      </trkpt>
      <trkpt lat="45.80889" lon="15.16463">
        <ele>174.969005</ele>
        <time>2022-08-05T17:10:33.087Z</time>
      </trkpt>
      <trkpt lat="45.80849" lon="15.16456">
        <ele>175.047538</ele>
        <time>2022-08-05T17:10:50.283Z</time>
      </trkpt>
      <trkpt lat="45.80817" lon="15.16461">
        <ele>176.242886</ele>
        <time>2022-08-05T17:11:05.789Z</time>
      </trkpt>
      <trkpt lat="45.80805" lon="15.16452">
        <ele>176.763005</ele>
        <time>2022-08-05T17:11:12.934Z</time>
      </trkpt>
      <trkpt lat="45.80729" lon="15.16449">
        <ele>179.603332</ele>
        <time>2022-08-05T17:11:56.411Z</time>
      </trkpt>
      <trkpt lat="45.80708" lon="15.16448">
        <ele>180.408575</ele>
        <time>2022-08-05T17:12:08.917Z</time>
      </trkpt>
      <trkpt lat="45.80616" lon="15.16445">
        <ele>181.9766</ele>
        <time>2022-08-05T17:12:58.570Z</time>
      </trkpt>
      <trkpt lat="45.80594" lon="15.1644">
        <ele>182.092742</ele>
        <time>2022-08-05T17:13:08.496Z</time>
      </trkpt>
      <trkpt lat="45.80585" lon="15.16445">
        <ele>182.142851</ele>
        <time>2022-08-05T17:13:12.717Z</time>
      </trkpt>
      <trkpt lat="45.80581" lon="15.16444">
        <ele>182.162755</ele>
        <time>2022-08-05T17:13:14.310Z</time>
      </trkpt>
      <trkpt lat="45.80577" lon="15.16441">
        <ele>182.187128</ele>
        <time>2022-08-05T17:13:16.030Z</time>
      </trkpt>
      <trkpt lat="45.80573" lon="15.16439">
        <ele>182.206956</ele>
        <time>2022-08-05T17:13:17.384Z</time>
      </trkpt>
      <trkpt lat="45.80566" lon="15.1642">
        <ele>182.285977</ele>
        <time>2022-08-05T17:13:22.829Z</time>
      </trkpt>
      <trkpt lat="45.80536" lon="15.16363">
        <ele>182.542721</ele>
        <time>2022-08-05T17:13:36.877Z</time>
      </trkpt>
      <trkpt lat="45.80515" lon="15.16343">
        <ele>182.177363</ele>
        <time>2022-08-05T17:13:43.241Z</time>
      </trkpt>
      <trkpt lat="45.80489" lon="15.16303">
        <ele>180.878327</ele>
        <time>2022-08-05T17:13:52.981Z</time>
      </trkpt>
      <trkpt lat="45.80468" lon="15.16278">
        <ele>179.957218</ele>
        <time>2022-08-05T17:13:59.808Z</time>
      </trkpt>
      <trkpt lat="45.80462" lon="15.16272">
        <ele>179.71277</ele>
        <time>2022-08-05T17:14:01.722Z</time>
      </trkpt>
      <trkpt lat="45.80407" lon="15.1625">
        <ele>177.801778</ele>
        <time>2022-08-05T17:14:16.324Z</time>
      </trkpt>
      <trkpt lat="45.80402" lon="15.16249">
        <ele>177.628864</ele>
        <time>2022-08-05T17:14:17.648Z</time>
      </trkpt>
      <trkpt lat="45.80251" lon="15.16198">
        <ele>177.216892</ele>
        <time>2022-08-05T17:15:06.837Z</time>
      </trkpt>
      <trkpt lat="45.80233" lon="15.16192">
        <ele>177.322053</ele>
        <time>2022-08-05T17:15:16.893Z</time>
      </trkpt>
      <trkpt lat="45.80235" lon="15.16183">
        <ele>177.359205</ele>
        <time>2022-08-05T17:15:20.184Z</time>
      </trkpt>
      <trkpt lat="45.80236" lon="15.16175">
        <ele>177.391685</ele>
        <time>2022-08-05T17:15:23.061Z</time>
      </trkpt>
      <trkpt lat="45.8023" lon="15.16162">
        <ele>177.451163</ele>
        <time>2022-08-05T17:15:29.771Z</time>
      </trkpt>
      <trkpt lat="45.8023" lon="15.16137">
        <ele>177.599465</ele>
        <time>2022-08-05T17:15:40.516Z</time>
      </trkpt>
      <trkpt lat="45.80237" lon="15.16119">
        <ele>178.162859</ele>
        <time>2022-08-05T17:15:49.339Z</time>
      </trkpt>
      <trkpt lat="45.80237" lon="15.16101">
        <ele>178.660532</ele>
        <time>2022-08-05T17:15:57.410Z</time>
      </trkpt>
      <trkpt lat="45.80234" lon="15.15958">
        <ele>182.664384</ele>
        <time>2022-08-05T17:16:46.702Z</time>
      </trkpt>
      <trkpt lat="45.80236" lon="15.15943">
        <ele>183.094573</ele>
        <time>2022-08-05T17:16:51.768Z</time>
      </trkpt>
      <trkpt lat="45.80236" lon="15.15931">
        <ele>183.42721</ele>
        <time>2022-08-05T17:16:57.165Z</time>
      </trkpt>
      <trkpt lat="45.80236" lon="15.15919">
        <ele>183.756981</ele>
        <time>2022-08-05T17:17:02.282Z</time>
      </trkpt>
      <trkpt lat="45.80232" lon="15.15911">
        <ele>184.009891</ele>
        <time>2022-08-05T17:17:05.297Z</time>
      </trkpt>
      <trkpt lat="45.8022" lon="15.15801">
        <ele>185.643691</ele>
        <time>2022-08-05T17:17:40.325Z</time>
      </trkpt>
      <trkpt lat="45.80214" lon="15.15785">
        <ele>185.830191</ele>
        <time>2022-08-05T17:17:45.261Z</time>
      </trkpt>
      <trkpt lat="45.80192" lon="15.1565">
        <ele>187.279573</ele>
        <time>2022-08-05T17:18:16.273Z</time>
      </trkpt>
      <trkpt lat="45.80175" lon="15.1558">
        <ele>186.195637</ele>
        <time>2022-08-05T17:18:27.058Z</time>
      </trkpt>
      <trkpt lat="45.80137" lon="15.15472">
        <ele>183.605293</ele>
        <time>2022-08-05T17:18:43.070Z</time>
      </trkpt>
      <trkpt lat="45.80113" lon="15.15424">
        <ele>182.350639</ele>
        <time>2022-08-05T17:18:50.665Z</time>
      </trkpt>
      <trkpt lat="45.80035" lon="15.15307">
        <ele>179.496647</ele>
        <time>2022-08-05T17:19:13.638Z</time>
      </trkpt>
      <trkpt lat="45.79942" lon="15.15177">
        <ele>177.963807</ele>
        <time>2022-08-05T17:19:44.319Z</time>
      </trkpt>
      <trkpt lat="45.79901" lon="15.15094">
        <ele>178.589806</ele>
        <time>2022-08-05T17:20:08.245Z</time>
      </trkpt>
      <trkpt lat="45.79859" lon="15.14999">
        <ele>179.742178</ele>
        <time>2022-08-05T17:20:37.761Z</time>
      </trkpt>
      <trkpt lat="45.79822" lon="15.1493">
        <ele>181.744085</ele>
        <time>2022-08-05T17:21:04.326Z</time>
      </trkpt>
      <trkpt lat="45.79788" lon="15.14886">
        <ele>183.275545</ele>
        <time>2022-08-05T17:21:26.745Z</time>
      </trkpt>
      <trkpt lat="45.79657" lon="15.1477">
        <ele>186.685151</ele>
        <time>2022-08-05T17:22:33.676Z</time>
      </trkpt>
      <trkpt lat="45.796" lon="15.14704">
        <ele>187.88882</ele>
        <time>2022-08-05T17:22:55.862Z</time>
      </trkpt>
      <trkpt lat="45.79559" lon="15.14636">
        <ele>186.314127</ele>
        <time>2022-08-05T17:23:09.627Z</time>
      </trkpt>
      <trkpt lat="45.79499" lon="15.14505">
        <ele>182.927748</ele>
        <time>2022-08-05T17:23:31.475Z</time>
      </trkpt>
      <trkpt lat="45.79423" lon="15.14363">
        <ele>179.212837</ele>
        <time>2022-08-05T17:23:55.594Z</time>
      </trkpt>
      <trkpt lat="45.79365" lon="15.1424">
        <ele>177.459722</ele>
        <time>2022-08-05T17:24:19.967Z</time>
      </trkpt>
      <trkpt lat="45.79311" lon="15.14105">
        <ele>178.617609</ele>
        <time>2022-08-05T17:24:55.340Z</time>
      </trkpt>
      <trkpt lat="45.79279" lon="15.1399">
        <ele>180.211873</ele>
        <time>2022-08-05T17:25:31.306Z</time>
      </trkpt>
      <trkpt lat="45.79259" lon="15.13898">
        <ele>181.877193</ele>
        <time>2022-08-05T17:25:58.275Z</time>
      </trkpt>
      <trkpt lat="45.79253" lon="15.13845">
        <ele>182.805335</ele>
        <time>2022-08-05T17:26:12.280Z</time>
      </trkpt>
      <trkpt lat="45.79246" lon="15.13598">
        <ele>185.513649</ele>
        <time>2022-08-05T17:27:11.508Z</time>
      </trkpt>
      <trkpt lat="45.79205" lon="15.13402">
        <ele>185.658873</ele>
        <time>2022-08-05T17:27:53.233Z</time>
      </trkpt>
      <trkpt lat="45.79196" lon="15.13324">
        <ele>185.482243</ele>
        <time>2022-08-05T17:28:06.008Z</time>
      </trkpt>
      <trkpt lat="45.79203" lon="15.13241">
        <ele>184.221527</ele>
        <time>2022-08-05T17:28:17.929Z</time>
      </trkpt>
      <trkpt lat="45.79216" lon="15.13182">
        <ele>182.956596</ele>
        <time>2022-08-05T17:28:26.388Z</time>
      </trkpt>
      <trkpt lat="45.79314" lon="15.1275">
        <ele>173.962736</ele>
        <time>2022-08-05T17:29:28.033Z</time>
      </trkpt>
      <trkpt lat="45.79316" lon="15.12718">
        <ele>173.731373</ele>
        <time>2022-08-05T17:29:33.116Z</time>
      </trkpt>
      <trkpt lat="45.79309" lon="15.1265">
        <ele>173.226165</ele>
        <time>2022-08-05T17:29:44.256Z</time>
      </trkpt>
      <trkpt lat="45.79296" lon="15.12589">
        <ele>172.757741</ele>
        <time>2022-08-05T17:29:55.297Z</time>
      </trkpt>
      <trkpt lat="45.79283" lon="15.12539">
        <ele>172.73132</ele>
        <time>2022-08-05T17:30:06.277Z</time>
      </trkpt>
      <trkpt lat="45.79281" lon="15.1253">
        <ele>172.83627</ele>
        <time>2022-08-05T17:30:08.358Z</time>
      </trkpt>
      <trkpt lat="45.7927" lon="15.12483">
        <ele>173.401204</ele>
        <time>2022-08-05T17:30:21.813Z</time>
      </trkpt>
      <trkpt lat="45.79257" lon="15.1236">
        <ele>174.813934</ele>
        <time>2022-08-05T17:30:52.820Z</time>
      </trkpt>
      <trkpt lat="45.79245" lon="15.12277">
        <ele>175.91826</ele>
        <time>2022-08-05T17:31:13.212Z</time>
      </trkpt>
      <trkpt lat="45.79224" lon="15.1221">
        <ele>177.118541</ele>
        <time>2022-08-05T17:31:32.234Z</time>
      </trkpt>
      <trkpt lat="45.7917" lon="15.12115">
        <ele>179.095641</ele>
        <time>2022-08-05T17:32:07.466Z</time>
      </trkpt>
      <trkpt lat="45.79144" lon="15.12059">
        <ele>179.936751</ele>
        <time>2022-08-05T17:32:24.362Z</time>
      </trkpt>
      <trkpt lat="45.7906" lon="15.11853">
        <ele>181.884065</ele>
        <time>2022-08-05T17:33:19.351Z</time>
      </trkpt>
      <trkpt lat="45.78981" lon="15.11696">
        <ele>180.864188</ele>
        <time>2022-08-05T17:33:50.958Z</time>
      </trkpt>
      <trkpt lat="45.78941" lon="15.11651">
        <ele>180.323575</ele>
        <time>2022-08-05T17:34:01.721Z</time>
      </trkpt>
      <trkpt lat="45.78889" lon="15.11615">
        <ele>179.336799</ele>
        <time>2022-08-05T17:34:14.263Z</time>
      </trkpt>
      <trkpt lat="45.78864" lon="15.11591">
        <ele>178.837257</ele>
        <time>2022-08-05T17:34:20.768Z</time>
      </trkpt>
      <trkpt lat="45.78847" lon="15.11561">
        <ele>178.374406</ele>
        <time>2022-08-05T17:34:26.789Z</time>
      </trkpt>
      <trkpt lat="45.7879" lon="15.11391">
        <ele>175.27063</ele>
        <time>2022-08-05T17:34:54.748Z</time>
      </trkpt>
      <trkpt lat="45.78736" lon="15.1123">
        <ele>171.967131</ele>
        <time>2022-08-05T17:35:18.698Z</time>
      </trkpt>
      <trkpt lat="45.78779" lon="15.11203">
        <ele>170.8966</ele>
        <time>2022-08-05T17:35:27.779Z</time>
      </trkpt>
      <trkpt lat="45.78843" lon="15.11174">
        <ele>169.348605</ele>
        <time>2022-08-05T17:35:41.939Z</time>
      </trkpt>
      <trkpt lat="45.78907" lon="15.11147">
        <ele>168.620419</ele>
        <time>2022-08-05T17:35:57.491Z</time>
      </trkpt>
      <trkpt lat="45.78936" lon="15.11112">
        <ele>168.787161</ele>
        <time>2022-08-05T17:36:07.979Z</time>
      </trkpt>
      <trkpt lat="45.78946" lon="15.11102">
        <ele>168.842153</ele>
        <time>2022-08-05T17:36:12.320Z</time>
      </trkpt>
      <trkpt lat="45.78994" lon="15.11082">
        <ele>169.062603</ele>
        <time>2022-08-05T17:36:28.449Z</time>
      </trkpt>
      <trkpt lat="45.79129" lon="15.11044">
        <ele>169.541872</ele>
        <time>2022-08-05T17:37:10.626Z</time>
      </trkpt>
      <trkpt lat="45.7916" lon="15.11028">
        <ele>169.636324</ele>
        <time>2022-08-05T17:37:19.210Z</time>
      </trkpt>
      <trkpt lat="45.79138" lon="15.10923">
        <ele>169.792491</ele>
        <time>2022-08-05T17:37:38.771Z</time>
      </trkpt>
      <trkpt lat="45.79084" lon="15.10803">
        <ele>169.6595</ele>
        <time>2022-08-05T17:38:03.585Z</time>
      </trkpt>
      <trkpt lat="45.79062" lon="15.10738">
        <ele>169.591552</ele>
        <time>2022-08-05T17:38:17.389Z</time>
      </trkpt>
      <trkpt lat="45.79059" lon="15.1071">
        <ele>169.604285</ele>
        <time>2022-08-05T17:38:23.223Z</time>
      </trkpt>
      <trkpt lat="45.79059" lon="15.10414">
        <ele>170.59321</ele>
        <time>2022-08-05T17:39:23.974Z</time>
      </trkpt>
      <trkpt lat="45.79058" lon="15.10399">
        <ele>170.625935</ele>
        <time>2022-08-05T17:39:26.865Z</time>
      </trkpt>
      <trkpt lat="45.79055" lon="15.10367">
        <ele>170.697161</ele>
        <time>2022-08-05T17:39:33.231Z</time>
      </trkpt>
      <trkpt lat="45.79006" lon="15.10183">
        <ele>171.134465</ele>
        <time>2022-08-05T17:40:11.139Z</time>
      </trkpt>
      <trkpt lat="45.78976" lon="15.10099">
        <ele>171.346533</ele>
        <time>2022-08-05T17:40:29.608Z</time>
      </trkpt>
      <trkpt lat="45.78943" lon="15.09955">
        <ele>171.662307</ele>
        <time>2022-08-05T17:40:59.850Z</time>
      </trkpt>
      <trkpt lat="45.78927" lon="15.0983">
        <ele>171.810809</ele>
        <time>2022-08-05T17:41:24.763Z</time>
      </trkpt>
      <trkpt lat="45.78894" lon="15.09723">
        <ele>171.916963</ele>
        <time>2022-08-05T17:41:46.552Z</time>
      </trkpt>
      <trkpt lat="45.78884" lon="15.09693">
        <ele>171.816248</ele>
        <time>2022-08-05T17:41:52.700Z</time>
      </trkpt>
      <trkpt lat="45.78879" lon="15.09652">
        <ele>171.693819</ele>
        <time>2022-08-05T17:41:59.914Z</time>
      </trkpt>
      <trkpt lat="45.7887" lon="15.09517">
        <ele>171.285462</ele>
        <time>2022-08-05T17:42:23.212Z</time>
      </trkpt>
      <trkpt lat="45.78883" lon="15.09401">
        <ele>170.774416</ele>
        <time>2022-08-05T17:42:43.183Z</time>
      </trkpt>
      <trkpt lat="45.78885" lon="15.09301">
        <ele>170.267531</ele>
        <time>2022-08-05T17:42:59.617Z</time>
      </trkpt>
      <trkpt lat="45.78893" lon="15.092">
        <ele>169.790285</ele>
        <time>2022-08-05T17:43:16.205Z</time>
      </trkpt>
      <trkpt lat="45.78867" lon="15.09063">
        <ele>169.297301</ele>
        <time>2022-08-05T17:43:40.296Z</time>
      </trkpt>
      <trkpt lat="45.78853" lon="15.08991">
        <ele>169.034861</ele>
        <time>2022-08-05T17:43:53.645Z</time>
      </trkpt>
      <trkpt lat="45.78835" lon="15.08912">
        <ele>169.044185</ele>
        <time>2022-08-05T17:44:08.810Z</time>
      </trkpt>
      <trkpt lat="45.7883" lon="15.08863">
        <ele>169.105644</ele>
        <time>2022-08-05T17:44:18.166Z</time>
      </trkpt>
      <trkpt lat="45.78832" lon="15.08815">
        <ele>169.164922</ele>
        <time>2022-08-05T17:44:27.417Z</time>
      </trkpt>
      <trkpt lat="45.78826" lon="15.08713">
        <ele>169.315373</ele>
        <time>2022-08-05T17:44:47.817Z</time>
      </trkpt>
      <trkpt lat="45.788" lon="15.08563">
        <ele>170.207669</ele>
        <time>2022-08-05T17:45:20.215Z</time>
      </trkpt>
      <trkpt lat="45.788" lon="15.08561">
        <ele>170.22385</ele>
        <time>2022-08-05T17:45:20.912Z</time>
      </trkpt>
      <trkpt lat="45.78798" lon="15.08406">
        <ele>171.20159</ele>
        <time>2022-08-05T17:45:55.102Z</time>
      </trkpt>
      <trkpt lat="45.788" lon="15.08209">
        <ele>172.604714</ele>
        <time>2022-08-05T17:46:39.232Z</time>
      </trkpt>
      <trkpt lat="45.78806" lon="15.08133">
        <ele>172.655283</ele>
        <time>2022-08-05T17:46:55.543Z</time>
      </trkpt>
      <trkpt lat="45.78821" lon="15.08061">
        <ele>172.687587</ele>
        <time>2022-08-05T17:47:10.139Z</time>
      </trkpt>
      <trkpt lat="45.78841" lon="15.07908">
        <ele>172.476531</ele>
        <time>2022-08-05T17:47:35.971Z</time>
      </trkpt>
      <trkpt lat="45.78814" lon="15.07819">
        <ele>171.935951</ele>
        <time>2022-08-05T17:47:52.290Z</time>
      </trkpt>
      <trkpt lat="45.78793" lon="15.07797">
        <ele>171.726336</ele>
        <time>2022-08-05T17:47:58.614Z</time>
      </trkpt>
      <trkpt lat="45.78771" lon="15.07797">
        <ele>171.554383</ele>
        <time>2022-08-05T17:48:03.549Z</time>
      </trkpt>
      <trkpt lat="45.78719" lon="15.0781">
        <ele>171.175837</ele>
        <time>2022-08-05T17:48:15.716Z</time>
      </trkpt>
      <trkpt lat="45.78693" lon="15.07809">
        <ele>171.014972</ele>
        <time>2022-08-05T17:48:21.795Z</time>
      </trkpt>
      <trkpt lat="45.78667" lon="15.07793">
        <ele>170.839153</ele>
        <time>2022-08-05T17:48:28.653Z</time>
      </trkpt>
      <trkpt lat="45.78665" lon="15.0779">
        <ele>170.824367</ele>
        <time>2022-08-05T17:48:29.290Z</time>
      </trkpt>
      <trkpt lat="45.78565" lon="15.07674">
        <ele>170.276976</ele>
        <time>2022-08-05T17:49:01.283Z</time>
      </trkpt>
      <trkpt lat="45.78556" lon="15.07664">
        <ele>170.308141</ele>
        <time>2022-08-05T17:49:04.151Z</time>
      </trkpt>
      <trkpt lat="45.78514" lon="15.07613">
        <ele>170.461642</ele>
        <time>2022-08-05T17:49:18.291Z</time>
      </trkpt>
      <trkpt lat="45.78445" lon="15.07569">
        <ele>170.670221</ele>
        <time>2022-08-05T17:49:40.330Z</time>
      </trkpt>
      <trkpt lat="45.78359" lon="15.07474">
        <ele>172.315523</ele>
        <time>2022-08-05T17:50:18.648Z</time>
      </trkpt>
      <trkpt lat="45.78338" lon="15.07433">
        <ele>172.887764</ele>
        <time>2022-08-05T17:50:31.092Z</time>
      </trkpt>
      <trkpt lat="45.78329" lon="15.07418">
        <ele>173.117776</ele>
        <time>2022-08-05T17:50:36.166Z</time>
      </trkpt>
      <trkpt lat="45.78306" lon="15.0738">
        <ele>173.675453</ele>
        <time>2022-08-05T17:50:48.577Z</time>
      </trkpt>
      <trkpt lat="45.78276" lon="15.07322">
        <ele>173.94744</ele>
        <time>2022-08-05T17:51:05.870Z</time>
      </trkpt>
      <trkpt lat="45.78236" lon="15.07235">
        <ele>174.341544</ele>
        <time>2022-08-05T17:51:28.044Z</time>
      </trkpt>
      <trkpt lat="45.7821" lon="15.07133">
        <ele>174.392059</ele>
        <time>2022-08-05T17:51:46.273Z</time>
      </trkpt>
      <trkpt lat="45.78176" lon="15.0698">
        <ele>173.075982</ele>
        <time>2022-08-05T17:52:11.163Z</time>
      </trkpt>
      <trkpt lat="45.78169" lon="15.0695">
        <ele>172.821195</ele>
        <time>2022-08-05T17:52:15.914Z</time>
      </trkpt>
      <trkpt lat="45.78128" lon="15.06786">
        <ele>172.006441</ele>
        <time>2022-08-05T17:52:44.116Z</time>
      </trkpt>
      <trkpt lat="45.78067" lon="15.06603">
        <ele>171.499838</ele>
        <time>2022-08-05T17:53:22.223Z</time>
      </trkpt>
      <trkpt lat="45.7801" lon="15.06457">
        <ele>171.383336</ele>
        <time>2022-08-05T17:53:53.616Z</time>
      </trkpt>
      <trkpt lat="45.77928" lon="15.06283">
        <ele>170.789658</ele>
        <time>2022-08-05T17:54:27.763Z</time>
      </trkpt>
      <trkpt lat="45.77874" lon="15.06147">
        <ele>171.647342</ele>
        <time>2022-08-05T17:55:00.105Z</time>
      </trkpt>
      <trkpt lat="45.7782" lon="15.05999">
        <ele>173.445102</ele>
        <time>2022-08-05T17:55:41.694Z</time>
      </trkpt>
      <trkpt lat="45.77772" lon="15.05905">
        <ele>176.07008</ele>
        <time>2022-08-05T17:56:15.783Z</time>
      </trkpt>
      <trkpt lat="45.77742" lon="15.05866">
        <ele>177.364131</ele>
        <time>2022-08-05T17:56:33.245Z</time>
      </trkpt>
      <trkpt lat="45.77684" lon="15.05809">
        <ele>179.645566</ele>
        <time>2022-08-05T17:57:05.178Z</time>
      </trkpt>
      <trkpt lat="45.77613" lon="15.05764">
        <ele>182.058764</ele>
        <time>2022-08-05T17:57:38.578Z</time>
      </trkpt>
      <trkpt lat="45.7759" lon="15.05748">
        <ele>182.872982</ele>
        <time>2022-08-05T17:57:49.782Z</time>
      </trkpt>
      <trkpt lat="45.77503" lon="15.0566">
        <ele>184.959707</ele>
        <time>2022-08-05T17:58:30.780Z</time>
      </trkpt>
      <trkpt lat="45.77435" lon="15.05581">
        <ele>185.476039</ele>
        <time>2022-08-05T17:58:55.448Z</time>
      </trkpt>
      <trkpt lat="45.77401" lon="15.05526">
        <ele>185.608942</ele>
        <time>2022-08-05T17:59:07.481Z</time>
      </trkpt>
      <trkpt lat="45.77361" lon="15.05439">
        <ele>184.593502</ele>
        <time>2022-08-05T17:59:23.592Z</time>
      </trkpt>
      <trkpt lat="45.77239" lon="15.05225">
        <ele>182.151738</ele>
        <time>2022-08-05T18:00:05.790Z</time>
      </trkpt>
      <trkpt lat="45.77205" lon="15.05147">
        <ele>181.431698</ele>
        <time>2022-08-05T18:00:20.874Z</time>
      </trkpt>
      <trkpt lat="45.772" lon="15.05131">
        <ele>181.299833</ele>
        <time>2022-08-05T18:00:24.053Z</time>
      </trkpt>
      <trkpt lat="45.77169" lon="15.05055">
        <ele>181.008097</ele>
        <time>2022-08-05T18:00:39.485Z</time>
      </trkpt>
      <trkpt lat="45.77096" lon="15.04953">
        <ele>180.660051</ele>
        <time>2022-08-05T18:01:06.225Z</time>
      </trkpt>
      <trkpt lat="45.77073" lon="15.049">
        <ele>180.426966</ele>
        <time>2022-08-05T18:01:16.963Z</time>
      </trkpt>
      <trkpt lat="45.77064" lon="15.04804">
        <ele>179.877516</ele>
        <time>2022-08-05T18:01:32.250Z</time>
      </trkpt>
      <trkpt lat="45.77063" lon="15.04671">
        <ele>179.12435</ele>
        <time>2022-08-05T18:01:53.498Z</time>
      </trkpt>
      <trkpt lat="45.7705" lon="15.04571">
        <ele>179.559722</ele>
        <time>2022-08-05T18:02:13.110Z</time>
      </trkpt>
      <trkpt lat="45.77035" lon="15.0449">
        <ele>179.948914</ele>
        <time>2022-08-05T18:02:31.253Z</time>
      </trkpt>
      <trkpt lat="45.77043" lon="15.04383">
        <ele>180.589417</ele>
        <time>2022-08-05T18:02:56.235Z</time>
      </trkpt>
      <trkpt lat="45.77045" lon="15.04356">
        <ele>180.830935</ele>
        <time>2022-08-05T18:03:03.036Z</time>
      </trkpt>
      <trkpt lat="45.77036" lon="15.04303">
        <ele>181.314202</ele>
        <time>2022-08-05T18:03:16.780Z</time>
      </trkpt>
      <trkpt lat="45.77025" lon="15.04223">
        <ele>182.040225</ele>
        <time>2022-08-05T18:03:36.341Z</time>
      </trkpt>
      <trkpt lat="45.77024" lon="15.04176">
        <ele>182.459296</ele>
        <time>2022-08-05T18:03:46.113Z</time>
      </trkpt>
      <trkpt lat="45.77043" lon="15.0403">
        <ele>182.425377</ele>
        <time>2022-08-05T18:04:13.304Z</time>
      </trkpt>
      <trkpt lat="45.77055" lon="15.03974">
        <ele>182.350409</ele>
        <time>2022-08-05T18:04:23.612Z</time>
      </trkpt>
      <trkpt lat="45.77123" lon="15.03762">
        <ele>181.795697</ele>
        <time>2022-08-05T18:05:03.016Z</time>
      </trkpt>
      <trkpt lat="45.77157" lon="15.03633">
        <ele>181.631308</ele>
        <time>2022-08-05T18:05:28.610Z</time>
      </trkpt>
      <trkpt lat="45.77172" lon="15.03595">
        <ele>181.715915</ele>
        <time>2022-08-05T18:05:37.298Z</time>
      </trkpt>
      <trkpt lat="45.77202" lon="15.03554">
        <ele>181.831386</ele>
        <time>2022-08-05T18:05:49.208Z</time>
      </trkpt>
      <trkpt lat="45.77251" lon="15.03501">
        <ele>182.000625</ele>
        <time>2022-08-05T18:06:07.217Z</time>
      </trkpt>
      <trkpt lat="45.77371" lon="15.03385">
        <ele>182.218613</ele>
        <time>2022-08-05T18:06:46.853Z</time>
      </trkpt>
      <trkpt lat="45.77385" lon="15.03369">
        <ele>182.243331</ele>
        <time>2022-08-05T18:06:51.470Z</time>
      </trkpt>
      <trkpt lat="45.77408" lon="15.03325">
        <ele>182.260961</ele>
        <time>2022-08-05T18:07:01.593Z</time>
      </trkpt>
      <trkpt lat="45.77451" lon="15.03237">
        <ele>182.019543</ele>
        <time>2022-08-05T18:07:22.404Z</time>
      </trkpt>
      <trkpt lat="45.77572" lon="15.03065">
        <ele>180.483198</ele>
        <time>2022-08-05T18:08:03.212Z</time>
      </trkpt>
      <trkpt lat="45.77589" lon="15.03037">
        <ele>180.064883</ele>
        <time>2022-08-05T18:08:08.534Z</time>
      </trkpt>
      <trkpt lat="45.77636" lon="15.0293">
        <ele>178.583402</ele>
        <time>2022-08-05T18:08:26.746Z</time>
      </trkpt>
      <trkpt lat="45.77666" lon="15.02865">
        <ele>177.593752</ele>
        <time>2022-08-05T18:08:37.570Z</time>
      </trkpt>
      <trkpt lat="45.77702" lon="15.02806">
        <ele>176.597953</ele>
        <time>2022-08-05T18:08:49.178Z</time>
      </trkpt>
      <trkpt lat="45.7778" lon="15.02691">
        <ele>175.468413</ele>
        <time>2022-08-05T18:09:15.462Z</time>
      </trkpt>
      <trkpt lat="45.77807" lon="15.02639">
        <ele>175.491448</ele>
        <time>2022-08-05T18:09:27.221Z</time>
      </trkpt>
      <trkpt lat="45.77822" lon="15.02583">
        <ele>175.513317</ele>
        <time>2022-08-05T18:09:39.227Z</time>
      </trkpt>
      <trkpt lat="45.77874" lon="15.02329">
        <ele>176.560214</ele>
        <time>2022-08-05T18:10:36.873Z</time>
      </trkpt>
      <trkpt lat="45.77943" lon="15.02116">
        <ele>176.741738</ele>
        <time>2022-08-05T18:11:22.126Z</time>
      </trkpt>
      <trkpt lat="45.77948" lon="15.02078">
        <ele>176.718327</ele>
        <time>2022-08-05T18:11:28.568Z</time>
      </trkpt>
      <trkpt lat="45.77937" lon="15.01997">
        <ele>176.506723</ele>
        <time>2022-08-05T18:11:42.302Z</time>
      </trkpt>
      <trkpt lat="45.77937" lon="15.01978">
        <ele>176.421142</ele>
        <time>2022-08-05T18:11:45.369Z</time>
      </trkpt>
      <trkpt lat="45.77945" lon="15.01941">
        <ele>176.248262</ele>
        <time>2022-08-05T18:11:51.571Z</time>
      </trkpt>
      <trkpt lat="45.77954" lon="15.01919">
        <ele>176.134432</ele>
        <time>2022-08-05T18:11:55.614Z</time>
      </trkpt>
      <trkpt lat="45.77986" lon="15.01863">
        <ele>175.807906</ele>
        <time>2022-08-05T18:12:07.241Z</time>
      </trkpt>
      <trkpt lat="45.78059" lon="15.01758">
        <ele>176.038745</ele>
        <time>2022-08-05T18:12:35.492Z</time>
      </trkpt>
      <trkpt lat="45.7808" lon="15.01696">
        <ele>176.442156</ele>
        <time>2022-08-05T18:12:50.663Z</time>
      </trkpt>
      <trkpt lat="45.78115" lon="15.01533">
        <ele>177.974115</ele>
        <time>2022-08-05T18:13:30.425Z</time>
      </trkpt>
      <trkpt lat="45.78135" lon="15.01469">
        <ele>178.938388</ele>
        <time>2022-08-05T18:13:48.069Z</time>
      </trkpt>
      <trkpt lat="45.78166" lon="15.01397">
        <ele>180.074068</ele>
        <time>2022-08-05T18:14:09.423Z</time>
      </trkpt>
      <trkpt lat="45.78177" lon="15.01351">
        <ele>180.80782</ele>
        <time>2022-08-05T18:14:22.906Z</time>
      </trkpt>
      <trkpt lat="45.78188" lon="15.01273">
        <ele>182.24795</ele>
        <time>2022-08-05T18:14:45.397Z</time>
      </trkpt>
      <trkpt lat="45.78196" lon="15.01123">
        <ele>184.965857</ele>
        <time>2022-08-05T18:15:26.718Z</time>
      </trkpt>
      <trkpt lat="45.78189" lon="15.00911">
        <ele>187.416503</ele>
        <time>2022-08-05T18:16:21.456Z</time>
      </trkpt>
      <trkpt lat="45.78179" lon="15.00851">
        <ele>188.073069</ele>
        <time>2022-08-05T18:16:33.791Z</time>
      </trkpt>
      <trkpt lat="45.78146" lon="15.00728">
        <ele>187.629636</ele>
        <time>2022-08-05T18:16:55.808Z</time>
      </trkpt>
      <trkpt lat="45.78136" lon="15.00658">
        <ele>187.390003</ele>
        <time>2022-08-05T18:17:07.162Z</time>
      </trkpt>
      <trkpt lat="45.78137" lon="15.00615">
        <ele>187.244181</ele>
        <time>2022-08-05T18:17:14.119Z</time>
      </trkpt>
      <trkpt lat="45.7816" lon="15.0044">
        <ele>188.591743</ele>
        <time>2022-08-05T18:17:49.664Z</time>
      </trkpt>
      <trkpt lat="45.78175" lon="15.00372">
        <ele>189.178387</ele>
        <time>2022-08-05T18:18:10.114Z</time>
      </trkpt>
      <trkpt lat="45.7826" lon="15.00199">
        <ele>192.890962</ele>
        <time>2022-08-05T18:19:10.672Z</time>
      </trkpt>
      <trkpt lat="45.7832" lon="15.00068">
        <ele>194.537635</ele>
        <time>2022-08-05T18:19:49.711Z</time>
      </trkpt>
      <trkpt lat="45.78396" lon="14.99999">
        <ele>195.185154</ele>
        <time>2022-08-05T18:20:15.160Z</time>
      </trkpt>
      <trkpt lat="45.7845" lon="14.99932">
        <ele>195.296672</ele>
        <time>2022-08-05T18:20:32.112Z</time>
      </trkpt>
      <trkpt lat="45.78476" lon="14.99881">
        <ele>195.224798</ele>
        <time>2022-08-05T18:20:43.086Z</time>
      </trkpt>
      <trkpt lat="45.78515" lon="14.99779">
        <ele>195.094482</ele>
        <time>2022-08-05T18:21:03.526Z</time>
      </trkpt>
      <trkpt lat="45.78645" lon="14.9946">
        <ele>199.048696</ele>
        <time>2022-08-05T18:22:30.633Z</time>
      </trkpt>
      <trkpt lat="45.78663" lon="14.99409">
        <ele>199.969303</ele>
        <time>2022-08-05T18:22:45.625Z</time>
      </trkpt>
      <trkpt lat="45.78704" lon="14.99256">
        <ele>203.585413</ele>
        <time>2022-08-05T18:23:32.456Z</time>
      </trkpt>
      <trkpt lat="45.78712" lon="14.99234">
        <ele>204.394882</ele>
        <time>2022-08-05T18:23:40.488Z</time>
      </trkpt>
      <trkpt lat="45.78736" lon="14.99195">
        <ele>206.041665</ele>
        <time>2022-08-05T18:23:58.491Z</time>
      </trkpt>
      <trkpt lat="45.78765" lon="14.99167">
        <ele>207.67908</ele>
        <time>2022-08-05T18:24:17.685Z</time>
      </trkpt>
      <trkpt lat="45.78846" lon="14.99111">
        <ele>211.590908</ele>
        <time>2022-08-05T18:25:05.396Z</time>
      </trkpt>
      <trkpt lat="45.78897" lon="14.99066">
        <ele>214.039797</ele>
        <time>2022-08-05T18:25:35.988Z</time>
      </trkpt>
      <trkpt lat="45.79029" lon="14.9892">
        <ele>218.112769</ele>
        <time>2022-08-05T18:26:40.935Z</time>
      </trkpt>
      <trkpt lat="45.79197" lon="14.9884">
        <ele>217.050851</ele>
        <time>2022-08-05T18:27:24.056Z</time>
      </trkpt>
      <trkpt lat="45.7924" lon="14.98811">
        <ele>215.97808</ele>
        <time>2022-08-05T18:27:33.631Z</time>
      </trkpt>
      <trkpt lat="45.79419" lon="14.98665">
        <ele>207.745136</ele>
        <time>2022-08-05T18:28:11.438Z</time>
      </trkpt>
      <trkpt lat="45.79441" lon="14.98641">
        <ele>206.614141</ele>
        <time>2022-08-05T18:28:16.486Z</time>
      </trkpt>
      <trkpt lat="45.7947" lon="14.9859">
        <ele>205.242918</ele>
        <time>2022-08-05T18:28:25.152Z</time>
      </trkpt>
      <trkpt lat="45.79527" lon="14.98415">
        <ele>201.445447</ele>
        <time>2022-08-05T18:28:52.447Z</time>
      </trkpt>
      <trkpt lat="45.79568" lon="14.98346">
        <ele>201.011258</ele>
        <time>2022-08-05T18:29:07.084Z</time>
      </trkpt>
      <trkpt lat="45.79608" lon="14.98316">
        <ele>200.701083</ele>
        <time>2022-08-05T18:29:18.390Z</time>
      </trkpt>
      <trkpt lat="45.7968" lon="14.98278">
        <ele>200.325278</ele>
        <time>2022-08-05T18:29:39.187Z</time>
      </trkpt>
      <trkpt lat="45.79726" lon="14.98225">
        <ele>200.588386</ele>
        <time>2022-08-05T18:29:55.824Z</time>
      </trkpt>
      <trkpt lat="45.7979" lon="14.98093">
        <ele>201.11597</ele>
        <time>2022-08-05T18:30:28.347Z</time>
      </trkpt>
      <trkpt lat="45.79875" lon="14.9797">
        <ele>202.341295</ele>
        <time>2022-08-05T18:31:06.239Z</time>
      </trkpt>
      <trkpt lat="45.79949" lon="14.97809">
        <ele>203.522364</ele>
        <time>2022-08-05T18:31:50.336Z</time>
      </trkpt>
      <trkpt lat="45.80004" lon="14.97735">
        <ele>204.109102</ele>
        <time>2022-08-05T18:32:12.982Z</time>
      </trkpt>
      <trkpt lat="45.80021" lon="14.97718">
        <ele>204.266844</ele>
        <time>2022-08-05T18:32:18.531Z</time>
      </trkpt>
      <trkpt lat="45.80134" lon="14.97619">
        <ele>204.155304</ele>
        <time>2022-08-05T18:32:53.291Z</time>
      </trkpt>
      <trkpt lat="45.80348" lon="14.97386">
        <ele>203.020796</ele>
        <time>2022-08-05T18:34:00.741Z</time>
      </trkpt>
      <trkpt lat="45.8047" lon="14.97202">
        <ele>201.152166</ele>
        <time>2022-08-05T18:34:41.243Z</time>
      </trkpt>
      <trkpt lat="45.80569" lon="14.97096">
        <ele>199.36023</ele>
        <time>2022-08-05T18:35:08.177Z</time>
      </trkpt>
      <trkpt lat="45.80601" lon="14.97039">
        <ele>198.561476</ele>
        <time>2022-08-05T18:35:19.274Z</time>
      </trkpt>
      <trkpt lat="45.80611" lon="14.97022">
        <ele>198.30765</ele>
        <time>2022-08-05T18:35:22.810Z</time>
      </trkpt>
      <trkpt lat="45.80642" lon="14.96981">
        <ele>197.617771</ele>
        <time>2022-08-05T18:35:32.261Z</time>
      </trkpt>
      <trkpt lat="45.80662" lon="14.96958">
        <ele>197.202862</ele>
        <time>2022-08-05T18:35:37.745Z</time>
      </trkpt>
      <trkpt lat="45.8068" lon="14.96946">
        <ele>196.876978</ele>
        <time>2022-08-05T18:35:42.240Z</time>
      </trkpt>
      <trkpt lat="45.80727" lon="14.96927">
        <ele>196.065694</ele>
        <time>2022-08-05T18:35:52.730Z</time>
      </trkpt>
      <trkpt lat="45.80741" lon="14.96922">
        <ele>195.712875</ele>
        <time>2022-08-05T18:35:55.820Z</time>
      </trkpt>
      <trkpt lat="45.80765" lon="14.96899">
        <ele>194.969506</ele>
        <time>2022-08-05T18:36:01.734Z</time>
      </trkpt>
      <trkpt lat="45.80791" lon="14.96849">
        <ele>193.886442</ele>
        <time>2022-08-05T18:36:10.423Z</time>
      </trkpt>
      <trkpt lat="45.80838" lon="14.96792">
        <ele>192.339016</ele>
        <time>2022-08-05T18:36:22.634Z</time>
      </trkpt>
      <trkpt lat="45.80831" lon="14.96772">
        <ele>191.938199</ele>
        <time>2022-08-05T18:36:25.839Z</time>
      </trkpt>
      <trkpt lat="45.8083" lon="14.96742">
        <ele>191.573597</ele>
        <time>2022-08-05T18:36:29.783Z</time>
      </trkpt>
      <trkpt lat="45.80846" lon="14.96587">
        <ele>191.419268</ele>
        <time>2022-08-05T18:36:54.673Z</time>
      </trkpt>
      <trkpt lat="45.80843" lon="14.96561">
        <ele>191.393606</ele>
        <time>2022-08-05T18:36:59.731Z</time>
      </trkpt>
      <trkpt lat="45.80833" lon="14.96527">
        <ele>191.357179</ele>
        <time>2022-08-05T18:37:10.156Z</time>
      </trkpt>
      <trkpt lat="45.80838" lon="14.96522">
        <ele>191.348349</ele>
        <time>2022-08-05T18:37:14.517Z</time>
      </trkpt>
      <trkpt lat="45.80838" lon="14.9652">
        <ele>191.346494</ele>
        <time>2022-08-05T18:37:15.456Z</time>
      </trkpt>
      <trkpt lat="45.80838" lon="14.96522">
        <ele>191.344639</ele>
        <time>2022-08-05T18:37:16.392Z</time>
      </trkpt>
      <trkpt lat="45.80833" lon="14.96527">
        <ele>191.335809</ele>
        <time>2022-08-05T18:37:20.755Z</time>
      </trkpt>
      <trkpt lat="45.80818" lon="14.96476">
        <ele>192.49419</ele>
        <time>2022-08-05T18:37:37.425Z</time>
      </trkpt>
      <trkpt lat="45.8081" lon="14.96468">
        <ele>192.826066</ele>
        <time>2022-08-05T18:37:42.373Z</time>
      </trkpt>
      <trkpt lat="45.80791" lon="14.96461">
        <ele>193.493259</ele>
        <time>2022-08-05T18:37:49.273Z</time>
      </trkpt>
      <trkpt lat="45.80779" lon="14.96469">
        <ele>193.958902</ele>
        <time>2022-08-05T18:37:56.787Z</time>
      </trkpt>
      <trkpt lat="45.80768" lon="14.96489">
        <ele>194.576128</ele>
        <time>2022-08-05T18:38:03.659Z</time>
      </trkpt>
      <trkpt lat="45.80719" lon="14.9661">
        <ele>197.727237</ele>
        <time>2022-08-05T18:38:49.044Z</time>
      </trkpt>
      <trkpt lat="45.80715" lon="14.96613">
        <ele>197.822261</ele>
        <time>2022-08-05T18:38:50.929Z</time>
      </trkpt>
      <trkpt lat="45.80707" lon="14.96607">
        <ele>197.988241</ele>
        <time>2022-08-05T18:38:54.062Z</time>
      </trkpt>
      <trkpt lat="45.80707" lon="14.96588">
        <ele>198.243509</ele>
        <time>2022-08-05T18:39:01.222Z</time>
      </trkpt>
      <trkpt lat="45.8073" lon="14.96535">
        <ele>199.049102</ele>
        <time>2022-08-05T18:39:14.012Z</time>
      </trkpt>
      <trkpt lat="45.8075" lon="14.96465">
        <ele>200.036032</ele>
        <time>2022-08-05T18:39:31.718Z</time>
      </trkpt>
      <trkpt lat="45.80776" lon="14.96416">
        <ele>200.844364</ele>
        <time>2022-08-05T18:39:45.781Z</time>
      </trkpt>
      <trkpt lat="45.80777" lon="14.964">
        <ele>201.028239</ele>
        <time>2022-08-05T18:39:49.276Z</time>
      </trkpt>
      <trkpt lat="45.80757" lon="14.96349">
        <ele>201.677061</ele>
        <time>2022-08-05T18:40:02.967Z</time>
      </trkpt>
      <trkpt lat="45.80755" lon="14.96296">
        <ele>202.26838</ele>
        <time>2022-08-05T18:40:16.040Z</time>
      </trkpt>
      <trkpt lat="45.8076" lon="14.96276">
        <ele>202.498087</ele>
        <time>2022-08-05T18:40:21.770Z</time>
      </trkpt>
      <trkpt lat="45.80772" lon="14.9626">
        <ele>202.766342</ele>
        <time>2022-08-05T18:40:27.834Z</time>
      </trkpt>
      <trkpt lat="45.80828" lon="14.96213">
        <ele>203.75638</ele>
        <time>2022-08-05T18:40:50.000Z</time>
      </trkpt>
      <trkpt lat="45.80847" lon="14.96186">
        <ele>203.814722</ele>
        <time>2022-08-05T18:40:58.442Z</time>
      </trkpt>
      <trkpt lat="45.80855" lon="14.96157">
        <ele>203.862707</ele>
        <time>2022-08-05T18:41:05.081Z</time>
      </trkpt>
      <trkpt lat="45.80878" lon="14.96136">
        <ele>203.923132</ele>
        <time>2022-08-05T18:41:13.245Z</time>
      </trkpt>
      <trkpt lat="45.80884" lon="14.96133">
        <ele>203.936047</ele>
        <time>2022-08-05T18:41:14.614Z</time>
      </trkpt>
      <trkpt lat="45.80908" lon="14.96091">
        <ele>204.02016</ele>
        <time>2022-08-05T18:41:24.814Z</time>
      </trkpt>
      <trkpt lat="45.80943" lon="14.96054">
        <ele>204.114514</ele>
        <time>2022-08-05T18:41:36.196Z</time>
      </trkpt>
      <trkpt lat="45.80952" lon="14.9603">
        <ele>204.076695</ele>
        <time>2022-08-05T18:41:41.679Z</time>
      </trkpt>
      <trkpt lat="45.81014" lon="14.95966">
        <ele>203.173744</ele>
        <time>2022-08-05T18:41:59.361Z</time>
      </trkpt>
      <trkpt lat="45.81038" lon="14.95916">
        <ele>202.677216</ele>
        <time>2022-08-05T18:42:08.964Z</time>
      </trkpt>
      <trkpt lat="45.81045" lon="14.95889">
        <ele>202.439074</ele>
        <time>2022-08-05T18:42:14.072Z</time>
      </trkpt>
      <trkpt lat="45.81057" lon="14.95872">
        <ele>202.244567</ele>
        <time>2022-08-05T18:42:17.808Z</time>
      </trkpt>
      <trkpt lat="45.81091" lon="14.95844">
        <ele>201.877511</ele>
        <time>2022-08-05T18:42:27.274Z</time>
      </trkpt>
      <trkpt lat="45.81178" lon="14.95797">
        <ele>201.222773</ele>
        <time>2022-08-05T18:42:50.224Z</time>
      </trkpt>
      <trkpt lat="45.81205" lon="14.95757">
        <ele>200.952881</ele>
        <time>2022-08-05T18:43:00.048Z</time>
      </trkpt>
      <trkpt lat="45.81224" lon="14.95695">
        <ele>200.889591</ele>
        <time>2022-08-05T18:43:12.980Z</time>
      </trkpt>
      <trkpt lat="45.81234" lon="14.95684">
        <ele>200.965711</ele>
        <time>2022-08-05T18:43:16.376Z</time>
      </trkpt>
      <trkpt lat="45.81306" lon="14.95663">
        <ele>201.426945</ele>
        <time>2022-08-05T18:43:37.099Z</time>
      </trkpt>
      <trkpt lat="45.81348" lon="14.95658">
        <ele>201.686728</ele>
        <time>2022-08-05T18:43:50.987Z</time>
      </trkpt>
      <trkpt lat="45.81369" lon="14.95648">
        <ele>201.824757</ele>
        <time>2022-08-05T18:43:59.075Z</time>
      </trkpt>
      <trkpt lat="45.81416" lon="14.95605">
        <ele>202.986659</ele>
        <time>2022-08-05T18:44:19.604Z</time>
      </trkpt>
      <trkpt lat="45.81452" lon="14.95576">
        <ele>203.990563</ele>
        <time>2022-08-05T18:44:35.380Z</time>
      </trkpt>
      <trkpt lat="45.81471" lon="14.95524">
        <ele>204.966625</ele>
        <time>2022-08-05T18:44:51.806Z</time>
      </trkpt>
      <trkpt lat="45.81552" lon="14.95523">
        <ele>206.847513</ele>
        <time>2022-08-05T18:45:26.527Z</time>
      </trkpt>
      <trkpt lat="45.81578" lon="14.95515">
        <ele>207.428238</ele>
        <time>2022-08-05T18:45:37.978Z</time>
      </trkpt>
      <trkpt lat="45.81611" lon="14.95493">
        <ele>208.229371</ele>
        <time>2022-08-05T18:45:52.885Z</time>
      </trkpt>
      <trkpt lat="45.81624" lon="14.95486">
        <ele>208.523601</ele>
        <time>2022-08-05T18:45:57.739Z</time>
      </trkpt>
      <trkpt lat="45.81664" lon="14.95401">
        <ele>210.088899</ele>
        <time>2022-08-05T18:46:22.028Z</time>
      </trkpt>
      <trkpt lat="45.81682" lon="14.95381">
        <ele>210.439687</ele>
        <time>2022-08-05T18:46:29.585Z</time>
      </trkpt>
      <trkpt lat="45.81729" lon="14.95297">
        <ele>211.571992</ele>
        <time>2022-08-05T18:46:55.849Z</time>
      </trkpt>
      <trkpt lat="45.81738" lon="14.95284">
        <ele>211.765041</ele>
        <time>2022-08-05T18:47:00.514Z</time>
      </trkpt>
      <trkpt lat="45.81751" lon="14.95265">
        <ele>212.042166</ele>
        <time>2022-08-05T18:47:06.729Z</time>
      </trkpt>
      <trkpt lat="45.81755" lon="14.95259">
        <ele>212.12476</ele>
        <time>2022-08-05T18:47:08.584Z</time>
      </trkpt>
      <trkpt lat="45.81861" lon="14.95175">
        <ele>214.271986</ele>
        <time>2022-08-05T18:47:52.357Z</time>
      </trkpt>
      <trkpt lat="45.81916" lon="14.95153">
        <ele>215.371458</ele>
        <time>2022-08-05T18:48:14.797Z</time>
      </trkpt>
      <trkpt lat="45.81949" lon="14.95133">
        <ele>216.062728</ele>
        <time>2022-08-05T18:48:28.553Z</time>
      </trkpt>
      <trkpt lat="45.81981" lon="14.9513">
        <ele>216.428497</ele>
        <time>2022-08-05T18:48:40.311Z</time>
      </trkpt>
      <trkpt lat="45.82005" lon="14.95129">
        <ele>216.580241</ele>
        <time>2022-08-05T18:48:48.614Z</time>
      </trkpt>
      <trkpt lat="45.82023" lon="14.95124">
        <ele>216.6967</ele>
        <time>2022-08-05T18:48:54.667Z</time>
      </trkpt>
      <trkpt lat="45.82067" lon="14.95096">
        <ele>217.00537</ele>
        <time>2022-08-05T18:49:10.021Z</time>
      </trkpt>
      <trkpt lat="45.82157" lon="14.95078">
        <ele>217.143195</ele>
        <time>2022-08-05T18:49:34.296Z</time>
      </trkpt>
      <trkpt lat="45.82195" lon="14.95078">
        <ele>216.579084</ele>
        <time>2022-08-05T18:49:43.229Z</time>
      </trkpt>
      <trkpt lat="45.8228" lon="14.95052">
        <ele>215.306945</ele>
        <time>2022-08-05T18:50:02.717Z</time>
      </trkpt>
      <trkpt lat="45.82368" lon="14.9501">
        <ele>213.725178</ele>
        <time>2022-08-05T18:50:23.457Z</time>
      </trkpt>
      <trkpt lat="45.82405" lon="14.94984">
        <ele>212.956306</ele>
        <time>2022-08-05T18:50:32.601Z</time>
      </trkpt>
      <trkpt lat="45.82434" lon="14.94953">
        <ele>212.282141</ele>
        <time>2022-08-05T18:50:40.660Z</time>
      </trkpt>
      <trkpt lat="45.82469" lon="14.94885">
        <ele>211.206596</ele>
        <time>2022-08-05T18:50:54.025Z</time>
      </trkpt>
      <trkpt lat="45.82487" lon="14.94862">
        <ele>210.801165</ele>
        <time>2022-08-05T18:50:59.396Z</time>
      </trkpt>
      <trkpt lat="45.82511" lon="14.94828">
        <ele>210.232406</ele>
        <time>2022-08-05T18:51:06.943Z</time>
      </trkpt>
      <trkpt lat="45.8254" lon="14.94759">
        <ele>209.282535</ele>
        <time>2022-08-05T18:51:19.555Z</time>
      </trkpt>
      <trkpt lat="45.82562" lon="14.94669">
        <ele>208.33999</ele>
        <time>2022-08-05T18:51:34.496Z</time>
      </trkpt>
      <trkpt lat="45.82609" lon="14.94587">
        <ele>207.998657</ele>
        <time>2022-08-05T18:51:52.546Z</time>
      </trkpt>
      <trkpt lat="45.82631" lon="14.94524">
        <ele>207.77516</ele>
        <time>2022-08-05T18:52:05.630Z</time>
      </trkpt>
      <trkpt lat="45.82638" lon="14.94473">
        <ele>207.607806</ele>
        <time>2022-08-05T18:52:16.250Z</time>
      </trkpt>
      <trkpt lat="45.82633" lon="14.94229">
        <ele>209.556714</ele>
        <time>2022-08-05T18:53:13.947Z</time>
      </trkpt>
      <trkpt lat="45.82636" lon="14.94164">
        <ele>210.179636</ele>
        <time>2022-08-05T18:53:30.353Z</time>
      </trkpt>
      <trkpt lat="45.82639" lon="14.94086">
        <ele>210.962653</ele>
        <time>2022-08-05T18:53:49.662Z</time>
      </trkpt>
      <trkpt lat="45.82648" lon="14.94006">
        <ele>211.784214</ele>
        <time>2022-08-05T18:54:09.242Z</time>
      </trkpt>
      <trkpt lat="45.82673" lon="14.939">
        <ele>212.794531</ele>
        <time>2022-08-05T18:54:35.863Z</time>
      </trkpt>
      <trkpt lat="45.82678" lon="14.93764">
        <ele>213.866754</ele>
        <time>2022-08-05T18:55:05.734Z</time>
      </trkpt>
      <trkpt lat="45.82688" lon="14.93711">
        <ele>214.294443</ele>
        <time>2022-08-05T18:55:17.633Z</time>
      </trkpt>
      <trkpt lat="45.82707" lon="14.93603">
        <ele>216.742439</ele>
        <time>2022-08-05T18:55:47.749Z</time>
      </trkpt>
      <trkpt lat="45.82711" lon="14.93533">
        <ele>218.391151</ele>
        <time>2022-08-05T18:56:10.506Z</time>
      </trkpt>
      <trkpt lat="45.82669" lon="14.93456">
        <ele>220.7172</ele>
        <time>2022-08-05T18:56:43.962Z</time>
      </trkpt>
      <trkpt lat="45.82646" lon="14.9338">
        <ele>223.131058</ele>
        <time>2022-08-05T18:57:14.000Z</time>
      </trkpt>
      <trkpt lat="45.82641" lon="14.93359">
        <ele>223.767158</ele>
        <time>2022-08-05T18:57:22.859Z</time>
      </trkpt>
      <trkpt lat="45.82622" lon="14.9332">
        <ele>225.147674</ele>
        <time>2022-08-05T18:57:40.364Z</time>
      </trkpt>
      <trkpt lat="45.82564" lon="14.93235">
        <ele>227.831202</ele>
        <time>2022-08-05T18:58:15.360Z</time>
      </trkpt>
      <trkpt lat="45.82561" lon="14.9323">
        <ele>227.818734</ele>
        <time>2022-08-05T18:58:16.807Z</time>
      </trkpt>
      <trkpt lat="45.82554" lon="14.93143">
        <ele>227.681242</ele>
        <time>2022-08-05T18:58:37.451Z</time>
      </trkpt>
      <trkpt lat="45.8256" lon="14.93124">
        <ele>227.647889</ele>
        <time>2022-08-05T18:58:41.164Z</time>
      </trkpt>
      <trkpt lat="45.82598" lon="14.93075">
        <ele>227.531841</ele>
        <time>2022-08-05T18:58:53.817Z</time>
      </trkpt>
      <trkpt lat="45.8261" lon="14.93046">
        <ele>227.479019</ele>
        <time>2022-08-05T18:58:58.683Z</time>
      </trkpt>
      <trkpt lat="45.82639" lon="14.93007">
        <ele>226.149502</ele>
        <time>2022-08-05T18:59:06.451Z</time>
      </trkpt>
      <trkpt lat="45.82685" lon="14.92982">
        <ele>224.143381</ele>
        <time>2022-08-05T18:59:16.010Z</time>
      </trkpt>
      <trkpt lat="45.82722" lon="14.92936">
        <ele>222.179236</ele>
        <time>2022-08-05T18:59:25.501Z</time>
      </trkpt>
      <trkpt lat="45.82746" lon="14.92907">
        <ele>220.9005</ele>
        <time>2022-08-05T18:59:31.526Z</time>
      </trkpt>
      <trkpt lat="45.82785" lon="14.92882">
        <ele>219.767634</ele>
        <time>2022-08-05T18:59:39.823Z</time>
      </trkpt>
      <trkpt lat="45.82849" lon="14.92826">
        <ele>218.599843</ele>
        <time>2022-08-05T18:59:55.226Z</time>
      </trkpt>
      <trkpt lat="45.82894" lon="14.92762">
        <ele>217.608168</ele>
        <time>2022-08-05T19:00:12.533Z</time>
      </trkpt>
      <trkpt lat="45.82891" lon="14.92722">
        <ele>217.722142</ele>
        <time>2022-08-05T19:00:23.359Z</time>
      </trkpt>
      <trkpt lat="45.8291" lon="14.92673">
        <ele>219.086861</ele>
        <time>2022-08-05T19:00:39.474Z</time>
      </trkpt>
      <trkpt lat="45.82965" lon="14.92551">
        <ele>222.608357</ele>
        <time>2022-08-05T19:01:28.389Z</time>
      </trkpt>
      <trkpt lat="45.82988" lon="14.9243">
        <ele>224.735346</ele>
        <time>2022-08-05T19:02:10.048Z</time>
      </trkpt>
      <trkpt lat="45.83001" lon="14.92354">
        <ele>225.773528</ele>
        <time>2022-08-05T19:02:30.594Z</time>
      </trkpt>
      <trkpt lat="45.83014" lon="14.92306">
        <ele>226.466615</ele>
        <time>2022-08-05T19:02:42.481Z</time>
      </trkpt>
      <trkpt lat="45.83053" lon="14.92243">
        <ele>226.502236</ele>
        <time>2022-08-05T19:02:57.174Z</time>
      </trkpt>
      <trkpt lat="45.83095" lon="14.92191">
        <ele>225.437276</ele>
        <time>2022-08-05T19:03:09.369Z</time>
      </trkpt>
      <trkpt lat="45.83121" lon="14.92141">
        <ele>224.599282</ele>
        <time>2022-08-05T19:03:18.694Z</time>
      </trkpt>
      <trkpt lat="45.83127" lon="14.92112">
        <ele>224.199946</ele>
        <time>2022-08-05T19:03:22.907Z</time>
      </trkpt>
      <trkpt lat="45.83131" lon="14.92074">
        <ele>223.683604</ele>
        <time>2022-08-05T19:03:28.642Z</time>
      </trkpt>
      <trkpt lat="45.83129" lon="14.91945">
        <ele>222.63274</ele>
        <time>2022-08-05T19:03:48.522Z</time>
      </trkpt>
      <trkpt lat="45.83122" lon="14.91898">
        <ele>222.253374</ele>
        <time>2022-08-05T19:03:56.439Z</time>
      </trkpt>
      <trkpt lat="45.83106" lon="14.91799">
        <ele>221.690948</ele>
        <time>2022-08-05T19:04:16.684Z</time>
      </trkpt>
      <trkpt lat="45.83103" lon="14.91735">
        <ele>222.294142</ele>
        <time>2022-08-05T19:04:30.392Z</time>
      </trkpt>
      <trkpt lat="45.83111" lon="14.9143">
        <ele>225.723</ele>
        <time>2022-08-05T19:05:48.167Z</time>
      </trkpt>
      <trkpt lat="45.83118" lon="14.91366">
        <ele>226.612527</ele>
        <time>2022-08-05T19:06:05.491Z</time>
      </trkpt>
      <trkpt lat="45.83132" lon="14.91282">
        <ele>227.88805</ele>
        <time>2022-08-05T19:06:27.706Z</time>
      </trkpt>
      <trkpt lat="45.83151" lon="14.91228">
        <ele>229.059012</ele>
        <time>2022-08-05T19:06:43.596Z</time>
      </trkpt>
      <trkpt lat="45.83209" lon="14.91111">
        <ele>231.777168</ele>
        <time>2022-08-05T19:07:24.676Z</time>
      </trkpt>
      <trkpt lat="45.83232" lon="14.91029">
        <ele>233.922491</ele>
        <time>2022-08-05T19:07:52.508Z</time>
      </trkpt>
      <trkpt lat="45.83265" lon="14.90889">
        <ele>238.015705</ele>
        <time>2022-08-05T19:08:43.436Z</time>
      </trkpt>
      <trkpt lat="45.83267" lon="14.90857">
        <ele>238.909184</ele>
        <time>2022-08-05T19:08:54.810Z</time>
      </trkpt>
      <trkpt lat="45.83257" lon="14.90724">
        <ele>240.076806</ele>
        <time>2022-08-05T19:09:34.627Z</time>
      </trkpt>
      <trkpt lat="45.83238" lon="14.9058">
        <ele>240.660338</ele>
        <time>2022-08-05T19:09:59.300Z</time>
      </trkpt>
      <trkpt lat="45.83259" lon="14.90579">
        <ele>240.488832</ele>
        <time>2022-08-05T19:10:03.456Z</time>
      </trkpt>
      <trkpt lat="45.83295" lon="14.90597">
        <ele>240.097817</ele>
        <time>2022-08-05T19:10:11.452Z</time>
      </trkpt>
      <trkpt lat="45.83384" lon="14.90578">
        <ele>239.157979</ele>
        <time>2022-08-05T19:10:32.037Z</time>
      </trkpt>
      <trkpt lat="45.83435" lon="14.90583">
        <ele>239.510139</ele>
        <time>2022-08-05T19:10:47.632Z</time>
      </trkpt>
      <trkpt lat="45.83481" lon="14.90641">
        <ele>242.068503</ele>
        <time>2022-08-05T19:11:15.854Z</time>
      </trkpt>
      <trkpt lat="45.83517" lon="14.90668">
        <ele>243.759014</ele>
        <time>2022-08-05T19:11:36.296Z</time>
      </trkpt>
      <trkpt lat="45.83575" lon="14.90707">
        <ele>246.354882</ele>
        <time>2022-08-05T19:12:13.778Z</time>
      </trkpt>
      <trkpt lat="45.83573" lon="14.90751">
        <ele>247.067924</ele>
        <time>2022-08-05T19:12:31.747Z</time>
      </trkpt>
      <trkpt lat="45.83573" lon="14.908">
        <ele>247.852715</ele>
        <time>2022-08-05T19:12:49.781Z</time>
      </trkpt>
      <trkpt lat="45.83577" lon="14.90832">
        <ele>248.381086</ele>
        <time>2022-08-05T19:12:59.995Z</time>
      </trkpt>
      <trkpt lat="45.83582" lon="14.90843">
        <ele>248.585641</ele>
        <time>2022-08-05T19:13:04.146Z</time>
      </trkpt>
      <trkpt lat="45.83619" lon="14.90869">
        <ele>249.529177</ele>
        <time>2022-08-05T19:13:18.583Z</time>
      </trkpt>
      <trkpt lat="45.83632" lon="14.90877">
        <ele>249.873662</ele>
        <time>2022-08-05T19:13:22.007Z</time>
      </trkpt>
      <trkpt lat="45.83661" lon="14.90842">
        <ele>249.456444</ele>
        <time>2022-08-05T19:13:30.056Z</time>
      </trkpt>
      <trkpt lat="45.83704" lon="14.90827">
        <ele>246.099533</ele>
        <time>2022-08-05T19:13:38.392Z</time>
      </trkpt>
      <trkpt lat="45.83741" lon="14.90838">
        <ele>243.216411</ele>
        <time>2022-08-05T19:13:45.144Z</time>
      </trkpt>
      <trkpt lat="45.83784" lon="14.90831">
        <ele>239.886684</ele>
        <time>2022-08-05T19:13:52.599Z</time>
      </trkpt>
      <trkpt lat="45.83838" lon="14.90783">
        <ele>234.898744</ele>
        <time>2022-08-05T19:14:03.205Z</time>
      </trkpt>
      <trkpt lat="45.83941" lon="14.90793">
        <ele>226.150125</ele>
        <time>2022-08-05T19:14:20.787Z</time>
      </trkpt>
      <trkpt lat="45.84002" lon="14.9075">
        <ele>221.419047</ele>
        <time>2022-08-05T19:14:32.982Z</time>
      </trkpt>
      <trkpt lat="45.84085" lon="14.90608">
        <ele>220.656436</ele>
        <time>2022-08-05T19:15:07.563Z</time>
      </trkpt>
      <trkpt lat="45.84137" lon="14.90562">
        <ele>221.269913</ele>
        <time>2022-08-05T19:15:34.821Z</time>
      </trkpt>
      <trkpt lat="45.84251" lon="14.90442">
        <ele>226.31481</ele>
        <time>2022-08-05T19:16:41.597Z</time>
      </trkpt>
      <trkpt lat="45.84274" lon="14.90433">
        <ele>227.325641</ele>
        <time>2022-08-05T19:16:53.977Z</time>
      </trkpt>
      <trkpt lat="45.84313" lon="14.90437">
        <ele>229.255386</ele>
        <time>2022-08-05T19:17:14.200Z</time>
      </trkpt>
      <trkpt lat="45.8442" lon="14.90376">
        <ele>235.033311</ele>
        <time>2022-08-05T19:18:16.387Z</time>
      </trkpt>
      <trkpt lat="45.84458" lon="14.90365">
        <ele>237.028578</ele>
        <time>2022-08-05T19:18:39.039Z</time>
      </trkpt>
      <trkpt lat="45.84506" lon="14.90326">
        <ele>239.803363</ele>
        <time>2022-08-05T19:19:11.917Z</time>
      </trkpt>
      <trkpt lat="45.84519" lon="14.9031">
        <ele>240.677605</ele>
        <time>2022-08-05T19:19:21.677Z</time>
      </trkpt>
      <trkpt lat="45.84551" lon="14.9025">
        <ele>243.390693</ele>
        <time>2022-08-05T19:19:50.638Z</time>
      </trkpt>
      <trkpt lat="45.84585" lon="14.90176">
        <ele>245.291141</ele>
        <time>2022-08-05T19:20:20.076Z</time>
      </trkpt>
      <trkpt lat="45.84681" lon="14.90067">
        <ele>246.24374</ele>
        <time>2022-08-05T19:21:02.579Z</time>
      </trkpt>
      <trkpt lat="45.84722" lon="14.90009">
        <ele>245.421171</ele>
        <time>2022-08-05T19:21:15.380Z</time>
      </trkpt>
      <trkpt lat="45.84728" lon="14.89992">
        <ele>244.916815</ele>
        <time>2022-08-05T19:21:18.375Z</time>
      </trkpt>
      <trkpt lat="45.84732" lon="14.89958">
        <ele>244.066777</ele>
        <time>2022-08-05T19:21:23.291Z</time>
      </trkpt>
      <trkpt lat="45.84752" lon="14.89891">
        <ele>242.198558</ele>
        <time>2022-08-05T19:21:34.165Z</time>
      </trkpt>
      <trkpt lat="45.84789" lon="14.89837">
        <ele>240.28874</ele>
        <time>2022-08-05T19:21:45.185Z</time>
      </trkpt>
      <trkpt lat="45.84819" lon="14.89809">
        <ele>239.341887</ele>
        <time>2022-08-05T19:21:52.344Z</time>
      </trkpt>
      <trkpt lat="45.84836" lon="14.89786">
        <ele>238.812104</ele>
        <time>2022-08-05T19:21:57.092Z</time>
      </trkpt>
      <trkpt lat="45.84912" lon="14.89665">
        <ele>236.246679</ele>
        <time>2022-08-05T19:22:21.619Z</time>
      </trkpt>
      <trkpt lat="45.84922" lon="14.89653">
        <ele>235.948967</ele>
        <time>2022-08-05T19:22:25.139Z</time>
      </trkpt>
      <trkpt lat="45.84972" lon="14.89622">
        <ele>236.139298</ele>
        <time>2022-08-05T19:22:41.397Z</time>
      </trkpt>
      <trkpt lat="45.84982" lon="14.89598">
        <ele>236.24984</ele>
        <time>2022-08-05T19:22:47.385Z</time>
      </trkpt>
      <trkpt lat="45.84988" lon="14.89559">
        <ele>236.410627</ele>
        <time>2022-08-05T19:22:56.484Z</time>
      </trkpt>
      <trkpt lat="45.84998" lon="14.89557">
        <ele>236.466352</ele>
        <time>2022-08-05T19:22:59.463Z</time>
      </trkpt>
      <trkpt lat="45.8504" lon="14.89441">
        <ele>237.158053</ele>
        <time>2022-08-05T19:23:29.177Z</time>
      </trkpt>
      <trkpt lat="45.85042" lon="14.89339">
        <ele>238.248563</ele>
        <time>2022-08-05T19:23:53.823Z</time>
      </trkpt>
      <trkpt lat="45.85057" lon="14.89284">
        <ele>238.880214</ele>
        <time>2022-08-05T19:24:08.297Z</time>
      </trkpt>
      <trkpt lat="45.85068" lon="14.89208">
        <ele>239.758703</ele>
        <time>2022-08-05T19:24:28.204Z</time>
      </trkpt>
      <trkpt lat="45.85083" lon="14.89097">
        <ele>241.560783</ele>
        <time>2022-08-05T19:24:58.741Z</time>
      </trkpt>
      <trkpt lat="45.85139" lon="14.88828">
        <ele>244.890298</ele>
        <time>2022-08-05T19:26:15.828Z</time>
      </trkpt>
      <trkpt lat="45.8524" lon="14.88568">
        <ele>245.327554</ele>
        <time>2022-08-05T19:27:09.439Z</time>
      </trkpt>
      <trkpt lat="45.85259" lon="14.88465">
        <ele>245.67141</ele>
        <time>2022-08-05T19:27:28.084Z</time>
      </trkpt>
      <trkpt lat="45.85296" lon="14.88317">
        <ele>248.469174</ele>
        <time>2022-08-05T19:28:06.368Z</time>
      </trkpt>
      <trkpt lat="45.85271" lon="14.88304">
        <ele>249.144464</ele>
        <time>2022-08-05T19:28:18.926Z</time>
      </trkpt>
      <trkpt lat="45.85241" lon="14.88267">
        <ele>251.018793</ele>
        <time>2022-08-05T19:28:41.502Z</time>
      </trkpt>
      <trkpt lat="45.85208" lon="14.88264">
        <ele>253.584707</ele>
        <time>2022-08-05T19:29:04.360Z</time>
      </trkpt>
      <trkpt lat="45.85191" lon="14.88251">
        <ele>255.080922</ele>
        <time>2022-08-05T19:29:18.203Z</time>
      </trkpt>
      <trkpt lat="45.85189" lon="14.88226">
        <ele>256.400673</ele>
        <time>2022-08-05T19:29:30.082Z</time>
      </trkpt>
      <trkpt lat="45.85202" lon="14.88192">
        <ele>258.502229</ele>
        <time>2022-08-05T19:29:50.377Z</time>
      </trkpt>
      <trkpt lat="45.85202" lon="14.88178">
        <ele>259.270144</ele>
        <time>2022-08-05T19:29:57.375Z</time>
      </trkpt>
      <trkpt lat="45.85191" lon="14.8816">
        <ele>260.539683</ele>
        <time>2022-08-05T19:30:08.394Z</time>
      </trkpt>
      <trkpt lat="45.85164" lon="14.88147">
        <ele>262.771023</ele>
        <time>2022-08-05T19:30:24.866Z</time>
      </trkpt>
      <trkpt lat="45.85142" lon="14.88137">
        <ele>264.202988</ele>
        <time>2022-08-05T19:30:37.732Z</time>
      </trkpt>
      <trkpt lat="45.85083" lon="14.88137">
        <ele>266.907067</ele>
        <time>2022-08-05T19:31:12.673Z</time>
      </trkpt>
      <trkpt lat="45.85019" lon="14.88154">
        <ele>269.855014</ele>
        <time>2022-08-05T19:31:44.982Z</time>
      </trkpt>
      <trkpt lat="45.84988" lon="14.8817">
        <ele>271.344338</ele>
        <time>2022-08-05T19:31:56.450Z</time>
      </trkpt>
      <trkpt lat="45.84935" lon="14.88143">
        <ele>272.526364</ele>
        <time>2022-08-05T19:32:12.801Z</time>
      </trkpt>
      <trkpt lat="45.84936" lon="14.88134">
        <ele>272.621807</ele>
        <time>2022-08-05T19:32:15.074Z</time>
      </trkpt>
      <trkpt lat="45.84951" lon="14.88044">
        <ele>273.60613</ele>
        <time>2022-08-05T19:32:35.076Z</time>
      </trkpt>
      <trkpt lat="45.84983" lon="14.87996">
        <ele>274.311722</ele>
        <time>2022-08-05T19:32:51.612Z</time>
      </trkpt>
      <trkpt lat="45.85005" lon="14.87976">
        <ele>274.787578</ele>
        <time>2022-08-05T19:33:00.861Z</time>
      </trkpt>
      <trkpt lat="45.85009" lon="14.87954">
        <ele>275.186157</ele>
        <time>2022-08-05T19:33:07.484Z</time>
      </trkpt>
      <trkpt lat="45.84995" lon="14.87792">
        <ele>278.068076</ele>
        <time>2022-08-05T19:33:54.582Z</time>
      </trkpt>
      <trkpt lat="45.84996" lon="14.87733">
        <ele>279.100268</ele>
        <time>2022-08-05T19:34:10.685Z</time>
      </trkpt>
      <trkpt lat="45.85021" lon="14.8768">
        <ele>278.851593</ele>
        <time>2022-08-05T19:34:24.862Z</time>
      </trkpt>
      <trkpt lat="45.8503" lon="14.87648">
        <ele>278.698782</ele>
        <time>2022-08-05T19:34:31.845Z</time>
      </trkpt>
      <trkpt lat="45.85028" lon="14.87633">
        <ele>278.628515</ele>
        <time>2022-08-05T19:34:34.359Z</time>
      </trkpt>
      <trkpt lat="45.85028" lon="14.87582">
        <ele>278.398583</ele>
        <time>2022-08-05T19:34:42.668Z</time>
      </trkpt>
      <trkpt lat="45.85029" lon="14.87567">
        <ele>278.332047</ele>
        <time>2022-08-05T19:34:44.952Z</time>
      </trkpt>
      <trkpt lat="45.85018" lon="14.87525">
        <ele>278.128658</ele>
        <time>2022-08-05T19:34:51.462Z</time>
      </trkpt>
      <trkpt lat="45.84991" lon="14.87444">
        <ele>276.864306</ele>
        <time>2022-08-05T19:35:03.895Z</time>
      </trkpt>
      <trkpt lat="45.84991" lon="14.87324">
        <ele>274.397547</ele>
        <time>2022-08-05T19:35:19.809Z</time>
      </trkpt>
      <trkpt lat="45.84995" lon="14.87264">
        <ele>273.151134</ele>
        <time>2022-08-05T19:35:28.247Z</time>
      </trkpt>
      <trkpt lat="45.84999" lon="14.87199">
        <ele>272.334707</ele>
        <time>2022-08-05T19:35:37.768Z</time>
      </trkpt>
      <trkpt lat="45.84994" lon="14.87171">
        <ele>272.100054</ele>
        <time>2022-08-05T19:35:42.173Z</time>
      </trkpt>
      <trkpt lat="45.84945" lon="14.87027">
        <ele>270.796508</ele>
        <time>2022-08-05T19:36:09.431Z</time>
      </trkpt>
      <trkpt lat="45.84953" lon="14.86916">
        <ele>269.718201</ele>
        <time>2022-08-05T19:36:27.443Z</time>
      </trkpt>
      <trkpt lat="45.84954" lon="14.86905">
        <ele>269.60941</ele>
        <time>2022-08-05T19:36:29.143Z</time>
      </trkpt>
      <trkpt lat="45.84968" lon="14.86825">
        <ele>268.770811</ele>
        <time>2022-08-05T19:36:41.829Z</time>
      </trkpt>
      <trkpt lat="45.84998" lon="14.8668">
        <ele>266.929022</ele>
        <time>2022-08-05T19:37:03.994Z</time>
      </trkpt>
      <trkpt lat="45.85044" lon="14.86549">
        <ele>264.80147</ele>
        <time>2022-08-05T19:37:25.054Z</time>
      </trkpt>
      <trkpt lat="45.85044" lon="14.86547">
        <ele>264.783523</ele>
        <time>2022-08-05T19:37:25.242Z</time>
      </trkpt>
      <trkpt lat="45.85082" lon="14.86467">
        <ele>263.50669</ele>
        <time>2022-08-05T19:37:39.940Z</time>
      </trkpt>
      <trkpt lat="45.85104" lon="14.86428">
        <ele>262.881847</ele>
        <time>2022-08-05T19:37:47.688Z</time>
      </trkpt>
      <trkpt lat="45.8519" lon="14.86319">
        <ele>260.793578</ele>
        <time>2022-08-05T19:38:12.354Z</time>
      </trkpt>
      <trkpt lat="45.85315" lon="14.8617">
        <ele>257.264918</ele>
        <time>2022-08-05T19:38:46.036Z</time>
      </trkpt>
      <trkpt lat="45.85333" lon="14.86156">
        <ele>256.889527</ele>
        <time>2022-08-05T19:38:50.100Z</time>
      </trkpt>
      <trkpt lat="45.85384" lon="14.86137">
        <ele>255.973616</ele>
        <time>2022-08-05T19:39:01.009Z</time>
      </trkpt>
      <trkpt lat="45.85406" lon="14.86119">
        <ele>255.535991</ele>
        <time>2022-08-05T19:39:06.358Z</time>
      </trkpt>
      <trkpt lat="45.85437" lon="14.86083">
        <ele>254.842519</ele>
        <time>2022-08-05T19:39:15.108Z</time>
      </trkpt>
      <trkpt lat="45.85492" lon="14.85991">
        <ele>254.012231</ele>
        <time>2022-08-05T19:39:34.750Z</time>
      </trkpt>
      <trkpt lat="45.85493" lon="14.8599">
        <ele>254.012878</ele>
        <time>2022-08-05T19:39:35.091Z</time>
      </trkpt>
      <trkpt lat="45.85518" lon="14.85919">
        <ele>254.037139</ele>
        <time>2022-08-05T19:39:48.437Z</time>
      </trkpt>
      <trkpt lat="45.85526" lon="14.85892">
        <ele>254.046125</ele>
        <time>2022-08-05T19:39:53.406Z</time>
      </trkpt>
      <trkpt lat="45.85531" lon="14.85871">
        <ele>254.052994</ele>
        <time>2022-08-05T19:39:57.336Z</time>
      </trkpt>
      <trkpt lat="45.85535" lon="14.85831">
        <ele>254.06539</ele>
        <time>2022-08-05T19:40:05.216Z</time>
      </trkpt>
      <trkpt lat="45.85542" lon="14.85793">
        <ele>254.18338</ele>
        <time>2022-08-05T19:40:15.790Z</time>
      </trkpt>
      <trkpt lat="45.85586" lon="14.85702">
        <ele>256.500206</ele>
        <time>2022-08-05T19:40:46.113Z</time>
      </trkpt>
      <trkpt lat="45.85591" lon="14.8568">
        <ele>256.978799</ele>
        <time>2022-08-05T19:40:52.805Z</time>
      </trkpt>
      <trkpt lat="45.85585" lon="14.85649">
        <ele>257.665769</ele>
        <time>2022-08-05T19:41:02.305Z</time>
      </trkpt>
      <trkpt lat="45.85568" lon="14.85622">
        <ele>258.421246</ele>
        <time>2022-08-05T19:41:14.191Z</time>
      </trkpt>
      <trkpt lat="45.85556" lon="14.85582">
        <ele>259.338848</ele>
        <time>2022-08-05T19:41:27.856Z</time>
      </trkpt>
      <trkpt lat="45.85556" lon="14.85501">
        <ele>260.899513</ele>
        <time>2022-08-05T19:41:53.123Z</time>
      </trkpt>
      <trkpt lat="45.85566" lon="14.85425">
        <ele>262.37473</ele>
        <time>2022-08-05T19:42:17.870Z</time>
      </trkpt>
      <trkpt lat="45.85568" lon="14.85375">
        <ele>263.329186</ele>
        <time>2022-08-05T19:42:30.164Z</time>
      </trkpt>
      <trkpt lat="45.8558" lon="14.85311">
        <ele>264.380023</ele>
        <time>2022-08-05T19:42:45.425Z</time>
      </trkpt>
      <trkpt lat="45.85581" lon="14.85269">
        <ele>264.280632</ele>
        <time>2022-08-05T19:42:53.904Z</time>
      </trkpt>
      <trkpt lat="45.85554" lon="14.85108">
        <ele>263.878575</ele>
        <time>2022-08-05T19:43:20.724Z</time>
      </trkpt>
      <trkpt lat="45.85551" lon="14.85038">
        <ele>263.910323</ele>
        <time>2022-08-05T19:43:32.467Z</time>
      </trkpt>
      <trkpt lat="45.8555" lon="14.84998">
        <ele>264.087171</ele>
        <time>2022-08-05T19:43:40.214Z</time>
      </trkpt>
      <trkpt lat="45.85566" lon="14.84927">
        <ele>264.407011</ele>
        <time>2022-08-05T19:43:55.340Z</time>
      </trkpt>
      <trkpt lat="45.85568" lon="14.84883">
        <ele>264.600045</ele>
        <time>2022-08-05T19:44:04.750Z</time>
      </trkpt>
      <trkpt lat="45.85566" lon="14.84829">
        <ele>264.834313</ele>
        <time>2022-08-05T19:44:17.416Z</time>
      </trkpt>
      <trkpt lat="45.85562" lon="14.84811">
        <ele>264.921032</ele>
        <time>2022-08-05T19:44:21.810Z</time>
      </trkpt>
      <trkpt lat="45.85527" lon="14.84755">
        <ele>265.355054</ele>
        <time>2022-08-05T19:44:40.412Z</time>
      </trkpt>
      <trkpt lat="45.85518" lon="14.84712">
        <ele>265.612315</ele>
        <time>2022-08-05T19:44:51.615Z</time>
      </trkpt>
      <trkpt lat="45.85512" lon="14.8464">
        <ele>266.037514</ele>
        <time>2022-08-05T19:45:09.308Z</time>
      </trkpt>
      <trkpt lat="45.85466" lon="14.84497">
        <ele>264.836796</ele>
        <time>2022-08-05T19:45:33.593Z</time>
      </trkpt>
      <trkpt lat="45.85452" lon="14.8427">
        <ele>261.052637</ele>
        <time>2022-08-05T19:46:04.737Z</time>
      </trkpt>
      <trkpt lat="45.85458" lon="14.84211">
        <ele>260.027766</ele>
        <time>2022-08-05T19:46:13.201Z</time>
      </trkpt>
      <trkpt lat="45.85479" lon="14.84107">
        <ele>258.194273</ele>
        <time>2022-08-05T19:46:28.627Z</time>
      </trkpt>
      <trkpt lat="45.85496" lon="14.84077">
        <ele>257.79439</ele>
        <time>2022-08-05T19:46:34.393Z</time>
      </trkpt>
      <trkpt lat="45.85524" lon="14.84051">
        <ele>257.901977</ele>
        <time>2022-08-05T19:46:42.226Z</time>
      </trkpt>
      <trkpt lat="45.85555" lon="14.84005">
        <ele>258.044933</ele>
        <time>2022-08-05T19:46:53.622Z</time>
      </trkpt>
      <trkpt lat="45.85589" lon="14.83925">
        <ele>258.257073</ele>
        <time>2022-08-05T19:47:13.277Z</time>
      </trkpt>
      <trkpt lat="45.85648" lon="14.83693">
        <ele>263.003032</ele>
        <time>2022-08-05T19:48:22.729Z</time>
      </trkpt>
      <trkpt lat="45.85651" lon="14.83628">
        <ele>264.328233</ele>
        <time>2022-08-05T19:48:46.692Z</time>
      </trkpt>
      <trkpt lat="45.85629" lon="14.83563">
        <ele>265.244077</ele>
        <time>2022-08-05T19:49:09.721Z</time>
      </trkpt>
      <trkpt lat="45.85621" lon="14.83524">
        <ele>265.758186</ele>
        <time>2022-08-05T19:49:22.673Z</time>
      </trkpt>
      <trkpt lat="45.85621" lon="14.83515">
        <ele>265.873837</ele>
        <time>2022-08-05T19:49:24.511Z</time>
      </trkpt>
      <trkpt lat="45.85632" lon="14.83446">
        <ele>266.769544</ele>
        <time>2022-08-05T19:49:41.217Z</time>
      </trkpt>
      <trkpt lat="45.8564" lon="14.83415">
        <ele>267.193528</ele>
        <time>2022-08-05T19:49:46.475Z</time>
      </trkpt>
      <trkpt lat="45.85641" lon="14.83406">
        <ele>267.306718</ele>
        <time>2022-08-05T19:49:47.955Z</time>
      </trkpt>
      <trkpt lat="45.85649" lon="14.83364">
        <ele>266.107016</ele>
        <time>2022-08-05T19:49:54.182Z</time>
      </trkpt>
      <trkpt lat="45.85656" lon="14.83338">
        <ele>265.071235</ele>
        <time>2022-08-05T19:49:58.020Z</time>
      </trkpt>
      <trkpt lat="45.85674" lon="14.83298">
        <ele>263.238922</ele>
        <time>2022-08-05T19:50:03.846Z</time>
      </trkpt>
      <trkpt lat="45.85773" lon="14.83298">
        <ele>257.793846</ele>
        <time>2022-08-05T19:50:20.717Z</time>
      </trkpt>
      <trkpt lat="45.85816" lon="14.83321">
        <ele>256.031494</ele>
        <time>2022-08-05T19:50:28.716Z</time>
      </trkpt>
      <trkpt lat="45.85834" lon="14.83331">
        <ele>255.317957</ele>
        <time>2022-08-05T19:50:32.131Z</time>
      </trkpt>
      <trkpt lat="45.85856" lon="14.83331">
        <ele>254.531702</ele>
        <time>2022-08-05T19:50:35.980Z</time>
      </trkpt>
      <trkpt lat="45.85874" lon="14.83309">
        <ele>253.647214</ele>
        <time>2022-08-05T19:50:40.505Z</time>
      </trkpt>
      <trkpt lat="45.85902" lon="14.83254">
        <ele>251.912318</ele>
        <time>2022-08-05T19:50:50.474Z</time>
      </trkpt>
      <trkpt lat="45.85935" lon="14.83213">
        <ele>251.36828</ele>
        <time>2022-08-05T19:51:03.314Z</time>
      </trkpt>
      <trkpt lat="45.85993" lon="14.83156">
        <ele>252.891909</ele>
        <time>2022-08-05T19:51:28.933Z</time>
      </trkpt>
      <trkpt lat="45.86005" lon="14.83153">
        <ele>253.160001</ele>
        <time>2022-08-05T19:51:33.973Z</time>
      </trkpt>
      <trkpt lat="45.86039" lon="14.83139">
        <ele>253.927295</ele>
        <time>2022-08-05T19:51:49.240Z</time>
      </trkpt>
      <trkpt lat="45.86051" lon="14.8314">
        <ele>254.194557</ele>
        <time>2022-08-05T19:51:54.807Z</time>
      </trkpt>
      <trkpt lat="45.86138" lon="14.83163">
        <ele>255.781052</ele>
        <time>2022-08-05T19:52:30.529Z</time>
      </trkpt>
      <trkpt lat="45.86191" lon="14.83172">
        <ele>256.626711</ele>
        <time>2022-08-05T19:52:49.107Z</time>
      </trkpt>
      <trkpt lat="45.86199" lon="14.83156">
        <ele>256.842094</ele>
        <time>2022-08-05T19:52:52.511Z</time>
      </trkpt>
      <trkpt lat="45.86206" lon="14.83143">
        <ele>257.015245</ele>
        <time>2022-08-05T19:52:56.037Z</time>
      </trkpt>
      <trkpt lat="45.8626" lon="14.83052">
        <ele>257.654332</ele>
        <time>2022-08-05T19:53:21.058Z</time>
      </trkpt>
      <trkpt lat="45.86289" lon="14.82991">
        <ele>257.552869</ele>
        <time>2022-08-05T19:53:33.366Z</time>
      </trkpt>
      <trkpt lat="45.86338" lon="14.82861">
        <ele>257.503901</ele>
        <time>2022-08-05T19:53:57.905Z</time>
      </trkpt>
      <trkpt lat="45.8637" lon="14.82805">
        <ele>258.046995</ele>
        <time>2022-08-05T19:54:13.879Z</time>
      </trkpt>
      <trkpt lat="45.86427" lon="14.82729">
        <ele>258.888208</ele>
        <time>2022-08-05T19:54:39.941Z</time>
      </trkpt>
      <trkpt lat="45.86485" lon="14.82677">
        <ele>259.687294</ele>
        <time>2022-08-05T19:55:04.041Z</time>
      </trkpt>
      <trkpt lat="45.86513" lon="14.82659">
        <ele>260.081146</ele>
        <time>2022-08-05T19:55:15.029Z</time>
      </trkpt>
      <trkpt lat="45.86562" lon="14.82639">
        <ele>260.723622</ele>
        <time>2022-08-05T19:55:31.662Z</time>
      </trkpt>
      <trkpt lat="45.86589" lon="14.82635">
        <ele>261.07592</ele>
        <time>2022-08-05T19:55:40.432Z</time>
      </trkpt>
      <trkpt lat="45.86617" lon="14.82635">
        <ele>261.42693</ele>
        <time>2022-08-05T19:55:48.985Z</time>
      </trkpt>
      <trkpt lat="45.86635" lon="14.82637">
        <ele>261.59806</ele>
        <time>2022-08-05T19:55:54.536Z</time>
      </trkpt>
      <trkpt lat="45.86698" lon="14.82629">
        <ele>261.489258</ele>
        <time>2022-08-05T19:56:13.251Z</time>
      </trkpt>
      <trkpt lat="45.86715" lon="14.82623">
        <ele>261.459749</ele>
        <time>2022-08-05T19:56:18.225Z</time>
      </trkpt>
      <trkpt lat="45.86723" lon="14.8262">
        <ele>261.445876</ele>
        <time>2022-08-05T19:56:20.571Z</time>
      </trkpt>
      <trkpt lat="45.86845" lon="14.82563">
        <ele>261.050658</ele>
        <time>2022-08-05T19:56:50.011Z</time>
      </trkpt>
      <trkpt lat="45.86867" lon="14.82547">
        <ele>260.905237</ele>
        <time>2022-08-05T19:56:56.037Z</time>
      </trkpt>
      <trkpt lat="45.86889" lon="14.82508">
        <ele>260.696189</ele>
        <time>2022-08-05T19:57:04.961Z</time>
      </trkpt>
      <trkpt lat="45.86907" lon="14.82469">
        <ele>260.498598</ele>
        <time>2022-08-05T19:57:13.041Z</time>
      </trkpt>
      <trkpt lat="45.86928" lon="14.8244">
        <ele>260.324971</ele>
        <time>2022-08-05T19:57:20.104Z</time>
      </trkpt>
      <trkpt lat="45.86978" lon="14.82385">
        <ele>260.33162</ele>
        <time>2022-08-05T19:57:35.967Z</time>
      </trkpt>
      <trkpt lat="45.86979" lon="14.82382">
        <ele>260.337025</ele>
        <time>2022-08-05T19:57:36.531Z</time>
      </trkpt>
      <trkpt lat="45.8699" lon="14.82328">
        <ele>260.426995</ele>
        <time>2022-08-05T19:57:47.384Z</time>
      </trkpt>
      <trkpt lat="45.86998" lon="14.82266">
        <ele>260.529037</ele>
        <time>2022-08-05T19:58:01.055Z</time>
      </trkpt>
      <trkpt lat="45.87001" lon="14.82256">
        <ele>260.547449</ele>
        <time>2022-08-05T19:58:03.599Z</time>
      </trkpt>
      <trkpt lat="45.87025" lon="14.82161">
        <ele>260.648373</ele>
        <time>2022-08-05T19:58:23.481Z</time>
      </trkpt>
      <trkpt lat="45.87027" lon="14.82122">
        <ele>260.655323</ele>
        <time>2022-08-05T19:58:30.618Z</time>
      </trkpt>
      <trkpt lat="45.87035" lon="14.81997">
        <ele>260.677649</ele>
        <time>2022-08-05T19:58:54.258Z</time>
      </trkpt>
      <trkpt lat="45.87037" lon="14.81986">
        <ele>260.679623</ele>
        <time>2022-08-05T19:58:56.269Z</time>
      </trkpt>
      <trkpt lat="45.87052" lon="14.81938">
        <ele>260.639218</ele>
        <time>2022-08-05T19:59:05.640Z</time>
      </trkpt>
      <trkpt lat="45.8706" lon="14.81904">
        <ele>260.508794</ele>
        <time>2022-08-05T19:59:11.784Z</time>
      </trkpt>
      <trkpt lat="45.87061" lon="14.819">
        <ele>260.49396</ele>
        <time>2022-08-05T19:59:12.468Z</time>
      </trkpt>
      <trkpt lat="45.87068" lon="14.81873">
        <ele>260.392519</ele>
        <time>2022-08-05T19:59:17.234Z</time>
      </trkpt>
      <trkpt lat="45.87057" lon="14.81852">
        <ele>260.299184</ele>
        <time>2022-08-05T19:59:21.659Z</time>
      </trkpt>
      <trkpt lat="45.87045" lon="14.81757">
        <ele>259.950942</ele>
        <time>2022-08-05T19:59:38.312Z</time>
      </trkpt>
      <trkpt lat="45.87056" lon="14.81565">
        <ele>259.590108</ele>
        <time>2022-08-05T20:00:14.317Z</time>
      </trkpt>
      <trkpt lat="45.87065" lon="14.81509">
        <ele>259.521385</ele>
        <time>2022-08-05T20:00:25.858Z</time>
      </trkpt>
      <trkpt lat="45.87096" lon="14.81392">
        <ele>259.33726</ele>
        <time>2022-08-05T20:00:49.183Z</time>
      </trkpt>
      <trkpt lat="45.87132" lon="14.81293">
        <ele>259.142877</ele>
        <time>2022-08-05T20:01:08.965Z</time>
      </trkpt>
      <trkpt lat="45.87136" lon="14.81269">
        <ele>259.098424</ele>
        <time>2022-08-05T20:01:13.880Z</time>
      </trkpt>
      <trkpt lat="45.87136" lon="14.81186">
        <ele>259.064825</ele>
        <time>2022-08-05T20:01:30.272Z</time>
      </trkpt>
      <trkpt lat="45.87145" lon="14.81078">
        <ele>259.396933</ele>
        <time>2022-08-05T20:01:51.865Z</time>
      </trkpt>
      <trkpt lat="45.87141" lon="14.81011">
        <ele>259.601363</ele>
        <time>2022-08-05T20:02:05.258Z</time>
      </trkpt>
      <trkpt lat="45.87145" lon="14.81001">
        <ele>259.636701</ele>
        <time>2022-08-05T20:02:07.697Z</time>
      </trkpt>
      <trkpt lat="45.87147" lon="14.80996">
        <ele>259.652467</ele>
        <time>2022-08-05T20:02:08.762Z</time>
      </trkpt>
      <trkpt lat="45.87146" lon="14.80986">
        <ele>259.683853</ele>
        <time>2022-08-05T20:02:10.820Z</time>
      </trkpt>
      <trkpt lat="45.8715" lon="14.80968">
        <ele>259.742888</ele>
        <time>2022-08-05T20:02:15.215Z</time>
      </trkpt>
      <trkpt lat="45.87158" lon="14.80952">
        <ele>259.890046</ele>
        <time>2022-08-05T20:02:19.753Z</time>
      </trkpt>
      <trkpt lat="45.87171" lon="14.80864">
        <ele>261.323219</ele>
        <time>2022-08-05T20:02:42.526Z</time>
      </trkpt>
      <trkpt lat="45.87202" lon="14.80836">
        <ele>262.177531</ele>
        <time>2022-08-05T20:02:57.361Z</time>
      </trkpt>
      <trkpt lat="45.87211" lon="14.80758">
        <ele>263.443864</ele>
        <time>2022-08-05T20:03:19.790Z</time>
      </trkpt>
      <trkpt lat="45.87215" lon="14.80751">
        <ele>263.574791</ele>
        <time>2022-08-05T20:03:22.248Z</time>
      </trkpt>
      <trkpt lat="45.87233" lon="14.80745">
        <ele>264.057446</ele>
        <time>2022-08-05T20:03:30.819Z</time>
      </trkpt>
      <trkpt lat="45.87245" lon="14.80727">
        <ele>264.576975</ele>
        <time>2022-08-05T20:03:39.282Z</time>
      </trkpt>
      <trkpt lat="45.87252" lon="14.80703">
        <ele>265.150359</ele>
        <time>2022-08-05T20:03:49.439Z</time>
      </trkpt>
      <trkpt lat="45.8731" lon="14.8065">
        <ele>267.283355</ele>
        <time>2022-08-05T20:04:25.649Z</time>
      </trkpt>
      <trkpt lat="45.87315" lon="14.80643">
        <ele>267.491707</ele>
        <time>2022-08-05T20:04:29.016Z</time>
      </trkpt>
      <trkpt lat="45.8732" lon="14.80637">
        <ele>267.723039</ele>
        <time>2022-08-05T20:04:32.666Z</time>
      </trkpt>
      <trkpt lat="45.87339" lon="14.80615">
        <ele>268.451931</ele>
        <time>2022-08-05T20:04:44.974Z</time>
      </trkpt>
      <trkpt lat="45.8738" lon="14.80592">
        <ele>269.543047</ele>
        <time>2022-08-05T20:05:05.791Z</time>
      </trkpt>
      <trkpt lat="45.87385" lon="14.8057">
        <ele>269.632543</ele>
        <time>2022-08-05T20:05:11.539Z</time>
      </trkpt>
      <trkpt lat="45.87416" lon="14.80464">
        <ele>270.065078</ele>
        <time>2022-08-05T20:05:34.667Z</time>
      </trkpt>
      <trkpt lat="45.87467" lon="14.80335">
        <ele>270.555616</ele>
        <time>2022-08-05T20:05:59.675Z</time>
      </trkpt>
      <trkpt lat="45.87519" lon="14.80215">
        <ele>270.880855</ele>
        <time>2022-08-05T20:06:27.604Z</time>
      </trkpt>
      <trkpt lat="45.87539" lon="14.80168">
        <ele>271.007939</ele>
        <time>2022-08-05T20:06:39.215Z</time>
      </trkpt>
      <trkpt lat="45.87549" lon="14.80118">
        <ele>271.365594</ele>
        <time>2022-08-05T20:06:51.056Z</time>
      </trkpt>
      <trkpt lat="45.87555" lon="14.80107">
        <ele>271.501333</ele>
        <time>2022-08-05T20:06:54.710Z</time>
      </trkpt>
      <trkpt lat="45.87605" lon="14.80023">
        <ele>272.539325</ele>
        <time>2022-08-05T20:07:21.639Z</time>
      </trkpt>
      <trkpt lat="45.87666" lon="14.79901">
        <ele>273.604928</ele>
        <time>2022-08-05T20:07:58.030Z</time>
      </trkpt>
      <trkpt lat="45.8767" lon="14.79893">
        <ele>273.632219</ele>
        <time>2022-08-05T20:08:00.502Z</time>
      </trkpt>
      <trkpt lat="45.87703" lon="14.79828">
        <ele>273.849669</ele>
        <time>2022-08-05T20:08:18.809Z</time>
      </trkpt>
      <trkpt lat="45.87724" lon="14.79797">
        <ele>273.964677</ele>
        <time>2022-08-05T20:08:27.674Z</time>
      </trkpt>
      <trkpt lat="45.87752" lon="14.79704">
        <ele>273.582327</ele>
        <time>2022-08-05T20:08:45.616Z</time>
      </trkpt>
      <trkpt lat="45.87751" lon="14.79671">
        <ele>272.868911</ele>
        <time>2022-08-05T20:08:50.643Z</time>
      </trkpt>
      <trkpt lat="45.87751" lon="14.79654">
        <ele>272.513737</ele>
        <time>2022-08-05T20:08:53.082Z</time>
      </trkpt>
      <trkpt lat="45.87759" lon="14.79641">
        <ele>272.143645</ele>
        <time>2022-08-05T20:08:55.520Z</time>
      </trkpt>
      <trkpt lat="45.8779" lon="14.79591">
        <ele>270.711374</ele>
        <time>2022-08-05T20:09:04.841Z</time>
      </trkpt>
      <trkpt lat="45.87823" lon="14.79569">
        <ele>269.607261</ele>
        <time>2022-08-05T20:09:11.870Z</time>
      </trkpt>
      <trkpt lat="45.87823" lon="14.79557">
        <ele>269.345358</ele>
        <time>2022-08-05T20:09:13.521Z</time>
      </trkpt>
      <trkpt lat="45.87817" lon="14.79543">
        <ele>268.983644</ele>
        <time>2022-08-05T20:09:15.806Z</time>
      </trkpt>
      <trkpt lat="45.87792" lon="14.79533">
        <ele>268.294277</ele>
        <time>2022-08-05T20:09:20.656Z</time>
      </trkpt>
      <trkpt lat="45.87779" lon="14.79523">
        <ele>267.913599</ele>
        <time>2022-08-05T20:09:23.679Z</time>
      </trkpt>
      <trkpt lat="45.87775" lon="14.79513">
        <ele>267.701708</ele>
        <time>2022-08-05T20:09:25.366Z</time>
      </trkpt>
      <trkpt lat="45.87762" lon="14.79467">
        <ele>266.834087</ele>
        <time>2022-08-05T20:09:32.559Z</time>
      </trkpt>
      <trkpt lat="45.87759" lon="14.79461">
        <ele>266.702625</ele>
        <time>2022-08-05T20:09:33.677Z</time>
      </trkpt>
      <trkpt lat="45.8776" lon="14.79447">
        <ele>266.457695</ele>
        <time>2022-08-05T20:09:35.726Z</time>
      </trkpt>
      <trkpt lat="45.87762" lon="14.79424">
        <ele>266.052817</ele>
        <time>2022-08-05T20:09:41.743Z</time>
      </trkpt>
      <trkpt lat="45.87776" lon="14.79398">
        <ele>265.478988</ele>
        <time>2022-08-05T20:09:50.109Z</time>
      </trkpt>
      <trkpt lat="45.87801" lon="14.79309">
        <ele>264.144567</ele>
        <time>2022-08-05T20:10:16.285Z</time>
      </trkpt>
      <trkpt lat="45.87801" lon="14.79295">
        <ele>264.150318</ele>
        <time>2022-08-05T20:10:20.738Z</time>
      </trkpt>
      <trkpt lat="45.87811" lon="14.7925">
        <ele>264.168955</ele>
        <time>2022-08-05T20:10:35.409Z</time>
      </trkpt>
      <trkpt lat="45.87855" lon="14.79172">
        <ele>264.208649</ele>
        <time>2022-08-05T20:11:07.481Z</time>
      </trkpt>
      <trkpt lat="45.87905" lon="14.78944">
        <ele>265.344611</ele>
        <time>2022-08-05T20:12:26.362Z</time>
      </trkpt>
      <trkpt lat="45.8792" lon="14.78906">
        <ele>265.646802</ele>
        <time>2022-08-05T20:12:41.964Z</time>
      </trkpt>
      <trkpt lat="45.8794" lon="14.78803">
        <ele>266.447658</ele>
        <time>2022-08-05T20:13:20.939Z</time>
      </trkpt>
      <trkpt lat="45.87976" lon="14.78731">
        <ele>267.159384</ele>
        <time>2022-08-05T20:13:52.901Z</time>
      </trkpt>
      <trkpt lat="45.88011" lon="14.78686">
        <ele>267.707115</ele>
        <time>2022-08-05T20:14:16.399Z</time>
      </trkpt>
      <trkpt lat="45.88033" lon="14.78618">
        <ele>268.130633</ele>
        <time>2022-08-05T20:14:40.565Z</time>
      </trkpt>
      <trkpt lat="45.88046" lon="14.78595">
        <ele>268.157</ele>
        <time>2022-08-05T20:14:49.692Z</time>
      </trkpt>
      <trkpt lat="45.88052" lon="14.78589">
        <ele>268.165658</ele>
        <time>2022-08-05T20:14:52.926Z</time>
      </trkpt>
      <trkpt lat="45.88074" lon="14.7857">
        <ele>268.197954</ele>
        <time>2022-08-05T20:15:00.451Z</time>
      </trkpt>
      <trkpt lat="45.88088" lon="14.78543">
        <ele>268.228069</ele>
        <time>2022-08-05T20:15:07.254Z</time>
      </trkpt>
      <trkpt lat="45.88107" lon="14.78528">
        <ele>268.255399</ele>
        <time>2022-08-05T20:15:13.209Z</time>
      </trkpt>
      <trkpt lat="45.88114" lon="14.78522">
        <ele>268.267052</ele>
        <time>2022-08-05T20:15:15.839Z</time>
      </trkpt>
      <trkpt lat="45.88158" lon="14.78486">
        <ele>268.330691</ele>
        <time>2022-08-05T20:15:29.420Z</time>
      </trkpt>
      <trkpt lat="45.88198" lon="14.78487">
        <ele>268.298836</ele>
        <time>2022-08-05T20:15:40.216Z</time>
      </trkpt>
      <trkpt lat="45.88202" lon="14.7844">
        <ele>268.26316</ele>
        <time>2022-08-05T20:15:48.690Z</time>
      </trkpt>
      <trkpt lat="45.88203" lon="14.78431">
        <ele>268.256325</ele>
        <time>2022-08-05T20:15:50.347Z</time>
      </trkpt>
      <trkpt lat="45.88206" lon="14.78408">
        <ele>268.237977</ele>
        <time>2022-08-05T20:15:54.565Z</time>
      </trkpt>
      <trkpt lat="45.88226" lon="14.78302">
        <ele>268.155011</ele>
        <time>2022-08-05T20:16:14.109Z</time>
      </trkpt>
      <trkpt lat="45.88235" lon="14.78197">
        <ele>269.686871</ele>
        <time>2022-08-05T20:16:34.302Z</time>
      </trkpt>
      <trkpt lat="45.88243" lon="14.78143">
        <ele>270.668802</ele>
        <time>2022-08-05T20:16:49.292Z</time>
      </trkpt>
      <trkpt lat="45.88244" lon="14.78138">
        <ele>270.745939</ele>
        <time>2022-08-05T20:16:50.527Z</time>
      </trkpt>
      <trkpt lat="45.88246" lon="14.78108">
        <ele>271.286996</ele>
        <time>2022-08-05T20:17:00.540Z</time>
      </trkpt>
      <trkpt lat="45.88234" lon="14.78033">
        <ele>272.642335</ele>
        <time>2022-08-05T20:17:25.401Z</time>
      </trkpt>
      <trkpt lat="45.8822" lon="14.77983">
        <ele>274.282382</ele>
        <time>2022-08-05T20:17:45.347Z</time>
      </trkpt>
      <trkpt lat="45.88195" lon="14.77919">
        <ele>276.560352</ele>
        <time>2022-08-05T20:18:12.394Z</time>
      </trkpt>
      <trkpt lat="45.88153" lon="14.77837">
        <ele>279.746131</ele>
        <time>2022-08-05T20:18:46.805Z</time>
      </trkpt>
      <trkpt lat="45.8813" lon="14.77814">
        <ele>280.943449</ele>
        <time>2022-08-05T20:18:59.032Z</time>
      </trkpt>
      <trkpt lat="45.88124" lon="14.77812">
        <ele>281.15983</ele>
        <time>2022-08-05T20:19:01.783Z</time>
      </trkpt>
      <trkpt lat="45.88116" lon="14.7781">
        <ele>281.407569</ele>
        <time>2022-08-05T20:19:04.489Z</time>
      </trkpt>
      <trkpt lat="45.88105" lon="14.77801">
        <ele>281.839818</ele>
        <time>2022-08-05T20:19:09.180Z</time>
      </trkpt>
      <trkpt lat="45.8807" lon="14.77762">
        <ele>283.382576</ele>
        <time>2022-08-05T20:19:25.871Z</time>
      </trkpt>
      <trkpt lat="45.88036" lon="14.7773">
        <ele>284.742519</ele>
        <time>2022-08-05T20:19:43.422Z</time>
      </trkpt>
      <trkpt lat="45.87973" lon="14.77681">
        <ele>287.420966</ele>
        <time>2022-08-05T20:20:15.332Z</time>
      </trkpt>
      <trkpt lat="45.87928" lon="14.77636">
        <ele>290.713387</ele>
        <time>2022-08-05T20:20:41.839Z</time>
      </trkpt>
      <trkpt lat="45.87917" lon="14.77613">
        <ele>291.857719</ele>
        <time>2022-08-05T20:20:53.197Z</time>
      </trkpt>
      <trkpt lat="45.87921" lon="14.77576">
        <ele>293.431425</ele>
        <time>2022-08-05T20:21:08.368Z</time>
      </trkpt>
      <trkpt lat="45.87987" lon="14.77524">
        <ele>297.937971</ele>
        <time>2022-08-05T20:21:55.917Z</time>
      </trkpt>
      <trkpt lat="45.88007" lon="14.77497">
        <ele>299.600075</ele>
        <time>2022-08-05T20:22:12.040Z</time>
      </trkpt>
      <trkpt lat="45.88018" lon="14.77473">
        <ele>300.833152</ele>
        <time>2022-08-05T20:22:24.265Z</time>
      </trkpt>
      <trkpt lat="45.88029" lon="14.7745">
        <ele>302.017223</ele>
        <time>2022-08-05T20:22:34.011Z</time>
      </trkpt>
      <trkpt lat="45.88039" lon="14.77396">
        <ele>304.431102</ele>
        <time>2022-08-05T20:22:54.389Z</time>
      </trkpt>
      <trkpt lat="45.88058" lon="14.77359">
        <ele>306.400376</ele>
        <time>2022-08-05T20:23:11.841Z</time>
      </trkpt>
      <trkpt lat="45.88071" lon="14.77344">
        <ele>307.388822</ele>
        <time>2022-08-05T20:23:20.691Z</time>
      </trkpt>
      <trkpt lat="45.88108" lon="14.77319">
        <ele>309.842899</ele>
        <time>2022-08-05T20:23:44.430Z</time>
      </trkpt>
      <trkpt lat="45.8813" lon="14.77294">
        <ele>311.43014</ele>
        <time>2022-08-05T20:24:00.267Z</time>
      </trkpt>
      <trkpt lat="45.88301" lon="14.77059">
        <ele>324.650092</ele>
        <time>2022-08-05T20:26:06.536Z</time>
      </trkpt>
      <trkpt lat="45.88381" lon="14.76989">
        <ele>329.920417</ele>
        <time>2022-08-05T20:26:53.326Z</time>
      </trkpt>
      <trkpt lat="45.88411" lon="14.76956">
        <ele>332.515368</ele>
        <time>2022-08-05T20:27:14.651Z</time>
      </trkpt>
      <trkpt lat="45.88433" lon="14.76917">
        <ele>334.904418</ele>
        <time>2022-08-05T20:27:35.430Z</time>
      </trkpt>
      <trkpt lat="45.88457" lon="14.7685">
        <ele>338.483092</ele>
        <time>2022-08-05T20:28:07.377Z</time>
      </trkpt>
      <trkpt lat="45.88521" lon="14.76746">
        <ele>345.382053</ele>
        <time>2022-08-05T20:29:12.413Z</time>
      </trkpt>
      <trkpt lat="45.88534" lon="14.76718">
        <ele>347.103463</ele>
        <time>2022-08-05T20:29:27.675Z</time>
      </trkpt>
      <trkpt lat="45.88541" lon="14.76694">
        <ele>348.393333</ele>
        <time>2022-08-05T20:29:39.451Z</time>
      </trkpt>
      <trkpt lat="45.88541" lon="14.7662">
        <ele>352.171727</ele>
        <time>2022-08-05T20:30:11.070Z</time>
      </trkpt>
      <trkpt lat="45.88594" lon="14.76463">
        <ele>358.260589</ele>
        <time>2022-08-05T20:31:12.875Z</time>
      </trkpt>
      <trkpt lat="45.8859" lon="14.764">
        <ele>360.210752</ele>
        <time>2022-08-05T20:31:32.711Z</time>
      </trkpt>
      <trkpt lat="45.88604" lon="14.76353">
        <ele>361.807159</ele>
        <time>2022-08-05T20:31:48.078Z</time>
      </trkpt>
      <trkpt lat="45.88614" lon="14.76219">
        <ele>363.111737</ele>
        <time>2022-08-05T20:32:25.842Z</time>
      </trkpt>
      <trkpt lat="45.88634" lon="14.76076">
        <ele>364.001274</ele>
        <time>2022-08-05T20:32:52.230Z</time>
      </trkpt>
      <trkpt lat="45.8866" lon="14.76026">
        <ele>362.98504</ele>
        <time>2022-08-05T20:33:01.713Z</time>
      </trkpt>
      <trkpt lat="45.88725" lon="14.75978">
        <ele>361.306005</ele>
        <time>2022-08-05T20:33:16.405Z</time>
      </trkpt>
      <trkpt lat="45.88826" lon="14.75986">
        <ele>359.543093</ele>
        <time>2022-08-05T20:33:35.713Z</time>
      </trkpt>
      <trkpt lat="45.88838" lon="14.75994">
        <ele>359.39525</ele>
        <time>2022-08-05T20:33:38.504Z</time>
      </trkpt>
      <trkpt lat="45.8886" lon="14.76046">
        <ele>358.936024</ele>
        <time>2022-08-05T20:33:47.623Z</time>
      </trkpt>
      <trkpt lat="45.88881" lon="14.76073">
        <ele>358.627426</ele>
        <time>2022-08-05T20:33:54.754Z</time>
      </trkpt>
      <trkpt lat="45.88895" lon="14.76108">
        <ele>358.317462</ele>
        <time>2022-08-05T20:34:02.655Z</time>
      </trkpt>
      <trkpt lat="45.88974" lon="14.76256">
        <ele>362.044645</ele>
        <time>2022-08-05T20:34:53.942Z</time>
      </trkpt>
      <trkpt lat="45.89027" lon="14.76373">
        <ele>366.114449</ele>
        <time>2022-08-05T20:35:44.718Z</time>
      </trkpt>
      <trkpt lat="45.89058" lon="14.76465">
        <ele>370.149498</ele>
        <time>2022-08-05T20:36:26.555Z</time>
      </trkpt>
      <trkpt lat="45.89109" lon="14.76496">
        <ele>373.305672</ele>
        <time>2022-08-05T20:36:57.349Z</time>
      </trkpt>
      <trkpt lat="45.89179" lon="14.76533">
        <ele>376.1883</ele>
        <time>2022-08-05T20:37:32.016Z</time>
      </trkpt>
      <trkpt lat="45.89195" lon="14.76547">
        <ele>376.749313</ele>
        <time>2022-08-05T20:37:41.144Z</time>
      </trkpt>
      <trkpt lat="45.89196" lon="14.76655">
        <ele>378.939862</ele>
        <time>2022-08-05T20:38:10.571Z</time>
      </trkpt>
      <trkpt lat="45.89216" lon="14.7674">
        <ele>380.702222</ele>
        <time>2022-08-05T20:38:30.929Z</time>
      </trkpt>
      <trkpt lat="45.89226" lon="14.76848">
        <ele>382.739489</ele>
        <time>2022-08-05T20:38:51.770Z</time>
      </trkpt>
      <trkpt lat="45.89263" lon="14.76962">
        <ele>385.518803</ele>
        <time>2022-08-05T20:39:34.175Z</time>
      </trkpt>
      <trkpt lat="45.89287" lon="14.76987">
        <ele>388.015693</ele>
        <time>2022-08-05T20:39:53.743Z</time>
      </trkpt>
      <trkpt lat="45.89303" lon="14.76992">
        <ele>389.393625</ele>
        <time>2022-08-05T20:40:00.617Z</time>
      </trkpt>
      <trkpt lat="45.89369" lon="14.7696">
        <ele>395.383391</ele>
        <time>2022-08-05T20:40:50.183Z</time>
      </trkpt>
      <trkpt lat="45.89393" lon="14.76962">
        <ele>397.393908</ele>
        <time>2022-08-05T20:41:11.439Z</time>
      </trkpt>
      <trkpt lat="45.89401" lon="14.76974">
        <ele>398.350136</ele>
        <time>2022-08-05T20:41:17.865Z</time>
      </trkpt>
      <trkpt lat="45.89417" lon="14.77044">
        <ele>402.842023</ele>
        <time>2022-08-05T20:41:58.860Z</time>
      </trkpt>
      <trkpt lat="45.89418" lon="14.7711">
        <ele>406.867513</ele>
        <time>2022-08-05T20:42:32.727Z</time>
      </trkpt>
      <trkpt lat="45.89424" lon="14.77124">
        <ele>407.913821</ele>
        <time>2022-08-05T20:42:38.953Z</time>
      </trkpt>
      <trkpt lat="45.89439" lon="14.77121">
        <ele>409.241785</ele>
        <time>2022-08-05T20:42:52.106Z</time>
      </trkpt>
      <trkpt lat="45.89451" lon="14.7711">
        <ele>410.478908</ele>
        <time>2022-08-05T20:43:02.015Z</time>
      </trkpt>
      <trkpt lat="45.89459" lon="14.77094">
        <ele>411.711674</ele>
        <time>2022-08-05T20:43:09.774Z</time>
      </trkpt>
      <trkpt lat="45.89468" lon="14.77056">
        <ele>414.185241</ele>
        <time>2022-08-05T20:43:25.614Z</time>
      </trkpt>
      <trkpt lat="45.89467" lon="14.76983">
        <ele>417.898577</ele>
        <time>2022-08-05T20:43:57.680Z</time>
      </trkpt>
      <trkpt lat="45.89479" lon="14.76961">
        <ele>419.088021</ele>
        <time>2022-08-05T20:44:09.386Z</time>
      </trkpt>
      <trkpt lat="45.89497" lon="14.76948">
        <ele>420.328769</ele>
        <time>2022-08-05T20:44:21.830Z</time>
      </trkpt>
      <trkpt lat="45.89541" lon="14.76908">
        <ele>423.492207</ele>
        <time>2022-08-05T20:44:47.565Z</time>
      </trkpt>
      <trkpt lat="45.89578" lon="14.76845">
        <ele>427.011505</ele>
        <time>2022-08-05T20:45:19.695Z</time>
      </trkpt>
      <trkpt lat="45.89613" lon="14.76774">
        <ele>429.888556</ele>
        <time>2022-08-05T20:45:52.589Z</time>
      </trkpt>
      <trkpt lat="45.89672" lon="14.76683">
        <ele>433.969119</ele>
        <time>2022-08-05T20:46:32.774Z</time>
      </trkpt>
      <trkpt lat="45.89685" lon="14.76652">
        <ele>435.162667</ele>
        <time>2022-08-05T20:46:44.548Z</time>
      </trkpt>
      <trkpt lat="45.89697" lon="14.76629">
        <ele>435.976649</ele>
        <time>2022-08-05T20:46:54.188Z</time>
      </trkpt>
      <trkpt lat="45.89718" lon="14.76557">
        <ele>437.980654</ele>
        <time>2022-08-05T20:47:19.155Z</time>
      </trkpt>
      <trkpt lat="45.89731" lon="14.76531">
        <ele>438.813636</ele>
        <time>2022-08-05T20:47:29.625Z</time>
      </trkpt>
      <trkpt lat="45.89765" lon="14.76482">
        <ele>440.577845</ele>
        <time>2022-08-05T20:47:49.795Z</time>
      </trkpt>
      <trkpt lat="45.8981" lon="14.76444">
        <ele>442.261617</ele>
        <time>2022-08-05T20:48:12.765Z</time>
      </trkpt>
      <trkpt lat="45.89866" lon="14.76419">
        <ele>442.713103</ele>
        <time>2022-08-05T20:48:37.169Z</time>
      </trkpt>
      <trkpt lat="45.899" lon="14.7642">
        <ele>442.980533</ele>
        <time>2022-08-05T20:48:48.305Z</time>
      </trkpt>
      <trkpt lat="45.89941" lon="14.76441">
        <ele>443.316574</ele>
        <time>2022-08-05T20:48:58.613Z</time>
      </trkpt>
      <trkpt lat="45.89957" lon="14.76436">
        <ele>443.445332</ele>
        <time>2022-08-05T20:49:02.105Z</time>
      </trkpt>
      <trkpt lat="45.89991" lon="14.76377">
        <ele>442.796722</ele>
        <time>2022-08-05T20:49:13.115Z</time>
      </trkpt>
      <trkpt lat="45.90042" lon="14.76249">
        <ele>440.420101</ele>
        <time>2022-08-05T20:49:34.054Z</time>
      </trkpt>
      <trkpt lat="45.90145" lon="14.76105">
        <ele>438.54941</ele>
        <time>2022-08-05T20:50:03.772Z</time>
      </trkpt>
      <trkpt lat="45.90184" lon="14.76062">
        <ele>438.120204</ele>
        <time>2022-08-05T20:50:18.566Z</time>
      </trkpt>
      <trkpt lat="45.90234" lon="14.76023">
        <ele>437.89422</ele>
        <time>2022-08-05T20:50:37.408Z</time>
      </trkpt>
      <trkpt lat="45.9029" lon="14.7599">
        <ele>437.976566</ele>
        <time>2022-08-05T20:50:55.545Z</time>
      </trkpt>
      <trkpt lat="45.90374" lon="14.75977">
        <ele>438.090521</ele>
        <time>2022-08-05T20:51:18.892Z</time>
      </trkpt>
      <trkpt lat="45.9051" lon="14.75939">
        <ele>434.284043</ele>
        <time>2022-08-05T20:51:47.130Z</time>
      </trkpt>
      <trkpt lat="45.90637" lon="14.75856">
        <ele>428.737575</ele>
        <time>2022-08-05T20:52:12.447Z</time>
      </trkpt>
      <trkpt lat="45.90662" lon="14.75827">
        <ele>427.244348</ele>
        <time>2022-08-05T20:52:18.401Z</time>
      </trkpt>
      <trkpt lat="45.90717" lon="14.75725">
        <ele>423.749094</ele>
        <time>2022-08-05T20:52:35.115Z</time>
      </trkpt>
      <trkpt lat="45.90761" lon="14.75659">
        <ele>422.005647</ele>
        <time>2022-08-05T20:52:47.560Z</time>
      </trkpt>
      <trkpt lat="45.90873" lon="14.75522">
        <ele>419.237557</ele>
        <time>2022-08-05T20:53:19.365Z</time>
      </trkpt>
      <trkpt lat="45.90898" lon="14.75496">
        <ele>419.011888</ele>
        <time>2022-08-05T20:53:27.200Z</time>
      </trkpt>
      <trkpt lat="45.90935" lon="14.75468">
        <ele>418.707639</ele>
        <time>2022-08-05T20:53:37.913Z</time>
      </trkpt>
      <trkpt lat="45.90962" lon="14.75445">
        <ele>418.473033</ele>
        <time>2022-08-05T20:53:46.134Z</time>
      </trkpt>
      <trkpt lat="45.91048" lon="14.75387">
        <ele>417.077237</ele>
        <time>2022-08-05T20:54:11.209Z</time>
      </trkpt>
      <trkpt lat="45.91111" lon="14.75321">
        <ele>415.853048</ele>
        <time>2022-08-05T20:54:28.218Z</time>
      </trkpt>
      <trkpt lat="45.91149" lon="14.75292">
        <ele>414.029172</ele>
        <time>2022-08-05T20:54:36.085Z</time>
      </trkpt>
      <trkpt lat="45.91185" lon="14.75238">
        <ele>410.545449</ele>
        <time>2022-08-05T20:54:45.207Z</time>
      </trkpt>
      <trkpt lat="45.91199" lon="14.75205">
        <ele>408.773408</ele>
        <time>2022-08-05T20:54:49.745Z</time>
      </trkpt>
      <trkpt lat="45.91246" lon="14.75048">
        <ele>401.563839</ele>
        <time>2022-08-05T20:55:09.762Z</time>
      </trkpt>
      <trkpt lat="45.91269" lon="14.74983">
        <ele>399.001739</ele>
        <time>2022-08-05T20:55:18.548Z</time>
      </trkpt>
      <trkpt lat="45.91353" lon="14.74784">
        <ele>392.94347</ele>
        <time>2022-08-05T20:55:51.235Z</time>
      </trkpt>
      <trkpt lat="45.91443" lon="14.74523">
        <ele>388.774481</ele>
        <time>2022-08-05T20:56:34.564Z</time>
      </trkpt>
      <trkpt lat="45.91502" lon="14.74386">
        <ele>386.951336</ele>
        <time>2022-08-05T20:56:58.097Z</time>
      </trkpt>
      <trkpt lat="45.91559" lon="14.74273">
        <ele>386.106594</ele>
        <time>2022-08-05T20:57:20.432Z</time>
      </trkpt>
      <trkpt lat="45.9164" lon="14.74151">
        <ele>384.456041</ele>
        <time>2022-08-05T20:57:53.138Z</time>
      </trkpt>
      <trkpt lat="45.91665" lon="14.7413">
        <ele>383.911046</ele>
        <time>2022-08-05T20:57:59.269Z</time>
      </trkpt>
      <trkpt lat="45.91696" lon="14.74124">
        <ele>383.315408</ele>
        <time>2022-08-05T20:58:05.663Z</time>
      </trkpt>
      <trkpt lat="45.91717" lon="14.74104">
        <ele>382.855143</ele>
        <time>2022-08-05T20:58:10.698Z</time>
      </trkpt>
      <trkpt lat="45.91768" lon="14.74046">
        <ele>380.710054</ele>
        <time>2022-08-05T20:58:22.962Z</time>
      </trkpt>
      <trkpt lat="45.918" lon="14.74006">
        <ele>378.786833</ele>
        <time>2022-08-05T20:58:30.915Z</time>
      </trkpt>
      <trkpt lat="45.91862" lon="14.73945">
        <ele>375.381444</ele>
        <time>2022-08-05T20:58:44.302Z</time>
      </trkpt>
      <trkpt lat="45.91954" lon="14.73808">
        <ele>369.596353</ele>
        <time>2022-08-05T20:59:08.947Z</time>
      </trkpt>
      <trkpt lat="45.9208" lon="14.73585">
        <ele>360.436796</ele>
        <time>2022-08-05T20:59:45.972Z</time>
      </trkpt>
      <trkpt lat="45.92088" lon="14.73548">
        <ele>359.158851</ele>
        <time>2022-08-05T20:59:50.778Z</time>
      </trkpt>
      <trkpt lat="45.92089" lon="14.73469">
        <ele>357.283782</ele>
        <time>2022-08-05T21:00:00.720Z</time>
      </trkpt>
      <trkpt lat="45.92103" lon="14.73409">
        <ele>356.365901</ele>
        <time>2022-08-05T21:00:08.872Z</time>
      </trkpt>
      <trkpt lat="45.92116" lon="14.73372">
        <ele>355.757224</ele>
        <time>2022-08-05T21:00:15.122Z</time>
      </trkpt>
      <trkpt lat="45.92159" lon="14.73288">
        <ele>354.236604</ele>
        <time>2022-08-05T21:00:32.877Z</time>
      </trkpt>
      <trkpt lat="45.92194" lon="14.73239">
        <ele>354.607982</ele>
        <time>2022-08-05T21:00:48.240Z</time>
      </trkpt>
      <trkpt lat="45.92206" lon="14.73232">
        <ele>354.771139</ele>
        <time>2022-08-05T21:00:53.809Z</time>
      </trkpt>
      <trkpt lat="45.92263" lon="14.732">
        <ele>355.560529</ele>
        <time>2022-08-05T21:01:17.332Z</time>
      </trkpt>
      <trkpt lat="45.92322" lon="14.73135">
        <ele>356.312776</ele>
        <time>2022-08-05T21:01:41.326Z</time>
      </trkpt>
      <trkpt lat="45.9239" lon="14.73067">
        <ele>355.669736</ele>
        <time>2022-08-05T21:02:01.622Z</time>
      </trkpt>
      <trkpt lat="45.9241" lon="14.73042">
        <ele>355.459638</ele>
        <time>2022-08-05T21:02:07.244Z</time>
      </trkpt>
      <trkpt lat="45.92466" lon="14.72941">
        <ele>354.858966</ele>
        <time>2022-08-05T21:02:26.818Z</time>
      </trkpt>
      <trkpt lat="45.92501" lon="14.72896">
        <ele>354.645316</ele>
        <time>2022-08-05T21:02:38.423Z</time>
      </trkpt>
      <trkpt lat="45.92533" lon="14.72837">
        <ele>354.411068</ele>
        <time>2022-08-05T21:02:52.158Z</time>
      </trkpt>
      <trkpt lat="45.92559" lon="14.72774">
        <ele>354.184132</ele>
        <time>2022-08-05T21:03:05.980Z</time>
      </trkpt>
      <trkpt lat="45.92577" lon="14.72697">
        <ele>354.275399</ele>
        <time>2022-08-05T21:03:21.213Z</time>
      </trkpt>
      <trkpt lat="45.92656" lon="14.72533">
        <ele>354.559807</ele>
        <time>2022-08-05T21:03:59.812Z</time>
      </trkpt>
      <trkpt lat="45.92665" lon="14.72512">
        <ele>354.640791</ele>
        <time>2022-08-05T21:04:04.618Z</time>
      </trkpt>
      <trkpt lat="45.9267" lon="14.72485">
        <ele>354.734182</ele>
        <time>2022-08-05T21:04:09.759Z</time>
      </trkpt>
      <trkpt lat="45.92674" lon="14.72348">
        <ele>355.187328</ele>
        <time>2022-08-05T21:04:37.122Z</time>
      </trkpt>
      <trkpt lat="45.92691" lon="14.72299">
        <ele>355.477472</ele>
        <time>2022-08-05T21:04:48.438Z</time>
      </trkpt>
      <trkpt lat="45.92727" lon="14.7224">
        <ele>357.022513</ele>
        <time>2022-08-05T21:05:05.558Z</time>
      </trkpt>
      <trkpt lat="45.92739" lon="14.72207">
        <ele>357.754187</ele>
        <time>2022-08-05T21:05:15.263Z</time>
      </trkpt>
      <trkpt lat="45.92747" lon="14.72109">
        <ele>359.678268</ele>
        <time>2022-08-05T21:05:45.616Z</time>
      </trkpt>
      <trkpt lat="45.92733" lon="14.72044">
        <ele>361.798617</ele>
        <time>2022-08-05T21:06:09.720Z</time>
      </trkpt>
      <trkpt lat="45.92681" lon="14.71961">
        <ele>366.672323</ele>
        <time>2022-08-05T21:06:53.460Z</time>
      </trkpt>
      <trkpt lat="45.92659" lon="14.71898">
        <ele>369.766844</ele>
        <time>2022-08-05T21:07:23.289Z</time>
      </trkpt>
      <trkpt lat="45.92644" lon="14.71868">
        <ele>371.395066</ele>
        <time>2022-08-05T21:07:40.004Z</time>
      </trkpt>
      <trkpt lat="45.92589" lon="14.71797">
        <ele>375.254195</ele>
        <time>2022-08-05T21:08:23.383Z</time>
      </trkpt>
      <trkpt lat="45.92559" lon="14.71703">
        <ele>378.987909</ele>
        <time>2022-08-05T21:08:59.526Z</time>
      </trkpt>
      <trkpt lat="45.92549" lon="14.71651">
        <ele>380.891473</ele>
        <time>2022-08-05T21:09:15.535Z</time>
      </trkpt>
      <trkpt lat="45.92543" lon="14.71569">
        <ele>381.81059</ele>
        <time>2022-08-05T21:09:38.037Z</time>
      </trkpt>
      <trkpt lat="45.92547" lon="14.71474">
        <ele>382.785771</ele>
        <time>2022-08-05T21:09:58.158Z</time>
      </trkpt>
      <trkpt lat="45.92556" lon="14.71422">
        <ele>383.323164</ele>
        <time>2022-08-05T21:10:08.805Z</time>
      </trkpt>
      <trkpt lat="45.92574" lon="14.71341">
        <ele>384.291095</ele>
        <time>2022-08-05T21:10:27.234Z</time>
      </trkpt>
      <trkpt lat="45.92612" lon="14.71283">
        <ele>385.227061</ele>
        <time>2022-08-05T21:10:44.345Z</time>
      </trkpt>
      <trkpt lat="45.9264" lon="14.71238">
        <ele>385.954858</ele>
        <time>2022-08-05T21:11:00.215Z</time>
      </trkpt>
      <trkpt lat="45.92646" lon="14.71222">
        <ele>386.170329</ele>
        <time>2022-08-05T21:11:04.880Z</time>
      </trkpt>
      <trkpt lat="45.92646" lon="14.71202">
        <ele>386.400702</ele>
        <time>2022-08-05T21:11:09.761Z</time>
      </trkpt>
      <trkpt lat="45.92622" lon="14.71109">
        <ele>388.272329</ele>
        <time>2022-08-05T21:11:38.668Z</time>
      </trkpt>
      <trkpt lat="45.92622" lon="14.71091">
        <ele>388.6638</ele>
        <time>2022-08-05T21:11:44.811Z</time>
      </trkpt>
      <trkpt lat="45.92629" lon="14.71063">
        <ele>389.30619</ele>
        <time>2022-08-05T21:11:54.656Z</time>
      </trkpt>
      <trkpt lat="45.92669" lon="14.70926">
        <ele>392.452971</ele>
        <time>2022-08-05T21:12:35.664Z</time>
      </trkpt>
      <trkpt lat="45.92714" lon="14.70877">
        <ele>394.052041</ele>
        <time>2022-08-05T21:12:59.052Z</time>
      </trkpt>
      <trkpt lat="45.92729" lon="14.70842">
        <ele>394.844035</ele>
        <time>2022-08-05T21:13:10.245Z</time>
      </trkpt>
      <trkpt lat="45.92741" lon="14.70745">
        <ele>396.770799</ele>
        <time>2022-08-05T21:13:38.835Z</time>
      </trkpt>
      <trkpt lat="45.92741" lon="14.70722">
        <ele>397.219142</ele>
        <time>2022-08-05T21:13:46.169Z</time>
      </trkpt>
      <trkpt lat="45.92711" lon="14.70532">
        <ele>398.022472</ele>
        <time>2022-08-05T21:14:32.726Z</time>
      </trkpt>
      <trkpt lat="45.92685" lon="14.70444">
        <ele>397.475103</ele>
        <time>2022-08-05T21:14:46.520Z</time>
      </trkpt>
      <trkpt lat="45.92689" lon="14.70399">
        <ele>396.15129</ele>
        <time>2022-08-05T21:14:52.548Z</time>
      </trkpt>
      <trkpt lat="45.92714" lon="14.70321">
        <ele>393.678747</ele>
        <time>2022-08-05T21:15:03.353Z</time>
      </trkpt>
      <trkpt lat="45.92715" lon="14.70307">
        <ele>393.280473</ele>
        <time>2022-08-05T21:15:05.110Z</time>
      </trkpt>
      <trkpt lat="45.92698" lon="14.70204">
        <ele>390.550775</ele>
        <time>2022-08-05T21:15:18.282Z</time>
      </trkpt>
      <trkpt lat="45.92707" lon="14.70137">
        <ele>389.697544</ele>
        <time>2022-08-05T21:15:27.460Z</time>
      </trkpt>
      <trkpt lat="45.92707" lon="14.70109">
        <ele>389.353023</ele>
        <time>2022-08-05T21:15:31.702Z</time>
      </trkpt>
      <trkpt lat="45.92698" lon="14.70072">
        <ele>388.872166</ele>
        <time>2022-08-05T21:15:38.780Z</time>
      </trkpt>
      <trkpt lat="45.9268" lon="14.70029">
        <ele>388.253629</ele>
        <time>2022-08-05T21:15:47.852Z</time>
      </trkpt>
      <trkpt lat="45.92675" lon="14.69998">
        <ele>387.862654</ele>
        <time>2022-08-05T21:15:53.594Z</time>
      </trkpt>
      <trkpt lat="45.92672" lon="14.69948">
        <ele>387.529666</ele>
        <time>2022-08-05T21:16:03.299Z</time>
      </trkpt>
      <trkpt lat="45.92675" lon="14.69897">
        <ele>387.414439</ele>
        <time>2022-08-05T21:16:12.588Z</time>
      </trkpt>
      <trkpt lat="45.92677" lon="14.69887">
        <ele>387.389184</ele>
        <time>2022-08-05T21:16:14.697Z</time>
      </trkpt>
      <trkpt lat="45.92695" lon="14.69793">
        <ele>387.165774</ele>
        <time>2022-08-05T21:16:31.946Z</time>
      </trkpt>
      <trkpt lat="45.92708" lon="14.69749">
        <ele>387.05653</ele>
        <time>2022-08-05T21:16:40.213Z</time>
      </trkpt>
      <trkpt lat="45.92758" lon="14.6964">
        <ele>386.206884</ele>
        <time>2022-08-05T21:17:00.929Z</time>
      </trkpt>
      <trkpt lat="45.92797" lon="14.69576">
        <ele>385.574591</ele>
        <time>2022-08-05T21:17:14.490Z</time>
      </trkpt>
      <trkpt lat="45.92807" lon="14.69556">
        <ele>385.395116</ele>
        <time>2022-08-05T21:17:18.182Z</time>
      </trkpt>
      <trkpt lat="45.92837" lon="14.69498">
        <ele>384.912788</ele>
        <time>2022-08-05T21:17:29.804Z</time>
      </trkpt>
      <trkpt lat="45.92857" lon="14.69476">
        <ele>384.703616</ele>
        <time>2022-08-05T21:17:35.669Z</time>
      </trkpt>
      <trkpt lat="45.92873" lon="14.69471">
        <ele>384.568483</ele>
        <time>2022-08-05T21:17:39.707Z</time>
      </trkpt>
      <trkpt lat="45.92894" lon="14.69477">
        <ele>384.390663</ele>
        <time>2022-08-05T21:17:44.741Z</time>
      </trkpt>
      <trkpt lat="45.92919" lon="14.69501">
        <ele>384.135268</ele>
        <time>2022-08-05T21:17:52.103Z</time>
      </trkpt>
      <trkpt lat="45.92945" lon="14.69544">
        <ele>383.802628</ele>
        <time>2022-08-05T21:18:01.858Z</time>
      </trkpt>
      <trkpt lat="45.92966" lon="14.69558">
        <ele>383.610866</ele>
        <time>2022-08-05T21:18:07.421Z</time>
      </trkpt>
      <trkpt lat="45.93079" lon="14.69533">
        <ele>381.00807</ele>
        <time>2022-08-05T21:18:32.894Z</time>
      </trkpt>
      <trkpt lat="45.93098" lon="14.69548">
        <ele>380.509201</ele>
        <time>2022-08-05T21:18:37.065Z</time>
      </trkpt>
      <trkpt lat="45.93115" lon="14.69578">
        <ele>379.886264</ele>
        <time>2022-08-05T21:18:42.067Z</time>
      </trkpt>
      <trkpt lat="45.93132" lon="14.69593">
        <ele>379.402514</ele>
        <time>2022-08-05T21:18:45.870Z</time>
      </trkpt>
      <trkpt lat="45.93153" lon="14.69596">
        <ele>378.4328</ele>
        <time>2022-08-05T21:18:49.812Z</time>
      </trkpt>
      <trkpt lat="45.93192" lon="14.69577">
        <ele>376.597955</ele>
        <time>2022-08-05T21:18:57.246Z</time>
      </trkpt>
      <trkpt lat="45.93245" lon="14.69521">
        <ele>373.608109</ele>
        <time>2022-08-05T21:19:09.355Z</time>
      </trkpt>
      <trkpt lat="45.93297" lon="14.69466">
        <ele>370.931206</ele>
        <time>2022-08-05T21:19:21.083Z</time>
      </trkpt>
      <trkpt lat="45.93318" lon="14.69429">
        <ele>370.029382</ele>
        <time>2022-08-05T21:19:27.397Z</time>
      </trkpt>
      <trkpt lat="45.93339" lon="14.69357">
        <ele>368.580005</ele>
        <time>2022-08-05T21:19:38.312Z</time>
      </trkpt>
      <trkpt lat="45.9335" lon="14.69274">
        <ele>367.004528</ele>
        <time>2022-08-05T21:19:51.036Z</time>
      </trkpt>
      <trkpt lat="45.93377" lon="14.69187">
        <ele>365.891443</ele>
        <time>2022-08-05T21:20:05.794Z</time>
      </trkpt>
      <trkpt lat="45.93377" lon="14.69186">
        <ele>365.884587</ele>
        <time>2022-08-05T21:20:05.884Z</time>
      </trkpt>
      <trkpt lat="45.93386" lon="14.69113">
        <ele>365.259054</ele>
        <time>2022-08-05T21:20:17.366Z</time>
      </trkpt>
      <trkpt lat="45.93378" lon="14.69056">
        <ele>364.77141</ele>
        <time>2022-08-05T21:20:26.385Z</time>
      </trkpt>
      <trkpt lat="45.93337" lon="14.6894">
        <ele>363.66661</ele>
        <time>2022-08-05T21:20:48.348Z</time>
      </trkpt>
      <trkpt lat="45.93334" lon="14.68918">
        <ele>363.475897</ele>
        <time>2022-08-05T21:20:52.195Z</time>
      </trkpt>
      <trkpt lat="45.93339" lon="14.68871">
        <ele>363.074907</ele>
        <time>2022-08-05T21:21:00.352Z</time>
      </trkpt>
      <trkpt lat="45.93362" lon="14.68808">
        <ele>362.476595</ele>
        <time>2022-08-05T21:21:11.400Z</time>
      </trkpt>
      <trkpt lat="45.93394" lon="14.68771">
        <ele>361.808313</ele>
        <time>2022-08-05T21:21:20.014Z</time>
      </trkpt>
      <trkpt lat="45.93423" lon="14.68738">
        <ele>360.678339</ele>
        <time>2022-08-05T21:21:27.391Z</time>
      </trkpt>
      <trkpt lat="45.93436" lon="14.68703">
        <ele>359.810768</ele>
        <time>2022-08-05T21:21:33.011Z</time>
      </trkpt>
      <trkpt lat="45.93436" lon="14.68686">
        <ele>359.444212</ele>
        <time>2022-08-05T21:21:35.322Z</time>
      </trkpt>
      <trkpt lat="45.93435" lon="14.68675">
        <ele>359.19368</ele>
        <time>2022-08-05T21:21:36.932Z</time>
      </trkpt>
      <trkpt lat="45.93433" lon="14.68637">
        <ele>358.36804</ele>
        <time>2022-08-05T21:21:42.088Z</time>
      </trkpt>
      <trkpt lat="45.93437" lon="14.68598">
        <ele>357.520372</ele>
        <time>2022-08-05T21:21:47.319Z</time>
      </trkpt>
      <trkpt lat="45.9347" lon="14.68416">
        <ele>353.72836</ele>
        <time>2022-08-05T21:22:11.643Z</time>
      </trkpt>
      <trkpt lat="45.93469" lon="14.68366">
        <ele>352.735343</ele>
        <time>2022-08-05T21:22:18.947Z</time>
      </trkpt>
      <trkpt lat="45.93459" lon="14.68298">
        <ele>351.384667</ele>
        <time>2022-08-05T21:22:29.790Z</time>
      </trkpt>
      <trkpt lat="45.93459" lon="14.68263">
        <ele>351.679299</ele>
        <time>2022-08-05T21:22:35.618Z</time>
      </trkpt>
      <trkpt lat="45.93468" lon="14.68232">
        <ele>351.964192</ele>
        <time>2022-08-05T21:22:42.165Z</time>
      </trkpt>
      <trkpt lat="45.93507" lon="14.68174">
        <ele>352.646413</ele>
        <time>2022-08-05T21:22:59.995Z</time>
      </trkpt>
      <trkpt lat="45.9351" lon="14.6817">
        <ele>352.696846</ele>
        <time>2022-08-05T21:23:01.586Z</time>
      </trkpt>
      <trkpt lat="45.9352" lon="14.68158">
        <ele>352.857244</ele>
        <time>2022-08-05T21:23:06.553Z</time>
      </trkpt>
      <trkpt lat="45.93514" lon="14.68147">
        <ele>352.974737</ele>
        <time>2022-08-05T21:23:09.187Z</time>
      </trkpt>
      <trkpt lat="45.93515" lon="14.6812">
        <ele>353.207181</ele>
        <time>2022-08-05T21:23:17.548Z</time>
      </trkpt>
      <trkpt lat="45.93536" lon="14.68052">
        <ele>353.584646</ele>
        <time>2022-08-05T21:23:37.743Z</time>
      </trkpt>
      <trkpt lat="45.93543" lon="14.68012">
        <ele>353.591607</ele>
        <time>2022-08-05T21:23:50.465Z</time>
      </trkpt>
      <trkpt lat="45.93576" lon="14.67991">
        <ele>353.600257</ele>
        <time>2022-08-05T21:24:04.437Z</time>
      </trkpt>
      <trkpt lat="45.93586" lon="14.67968">
        <ele>353.604918</ele>
        <time>2022-08-05T21:24:08.957Z</time>
      </trkpt>
      <trkpt lat="45.93588" lon="14.67941">
        <ele>353.609469</ele>
        <time>2022-08-05T21:24:13.554Z</time>
      </trkpt>
      <trkpt lat="45.93575" lon="14.67848">
        <ele>352.943542</ele>
        <time>2022-08-05T21:24:27.065Z</time>
      </trkpt>
      <trkpt lat="45.93574" lon="14.67799">
        <ele>350.586605</ele>
        <time>2022-08-05T21:24:33.187Z</time>
      </trkpt>
      <trkpt lat="45.93578" lon="14.67783">
        <ele>349.807772</ele>
        <time>2022-08-05T21:24:35.163Z</time>
      </trkpt>
      <trkpt lat="45.93586" lon="14.67748">
        <ele>348.044045</ele>
        <time>2022-08-05T21:24:39.552Z</time>
      </trkpt>
      <trkpt lat="45.93588" lon="14.67721">
        <ele>346.75179</ele>
        <time>2022-08-05T21:24:42.717Z</time>
      </trkpt>
      <trkpt lat="45.93583" lon="14.67698">
        <ele>345.61171</ele>
        <time>2022-08-05T21:24:45.561Z</time>
      </trkpt>
      <trkpt lat="45.93567" lon="14.67683">
        <ele>344.321839</ele>
        <time>2022-08-05T21:24:48.684Z</time>
      </trkpt>
      <trkpt lat="45.93551" lon="14.67674">
        <ele>343.162908</ele>
        <time>2022-08-05T21:24:51.522Z</time>
      </trkpt>
      <trkpt lat="45.9355" lon="14.67663">
        <ele>342.650257</ele>
        <time>2022-08-05T21:24:52.769Z</time>
      </trkpt>
      <trkpt lat="45.93553" lon="14.67657">
        <ele>342.302984</ele>
        <time>2022-08-05T21:24:53.604Z</time>
      </trkpt>
      <trkpt lat="45.93562" lon="14.67638">
        <ele>341.194642</ele>
        <time>2022-08-05T21:24:56.257Z</time>
      </trkpt>
      <trkpt lat="45.9356" lon="14.67613">
        <ele>340.002772</ele>
        <time>2022-08-05T21:24:59.137Z</time>
      </trkpt>
      <trkpt lat="45.93566" lon="14.67348">
        <ele>328.393422</ele>
        <time>2022-08-05T21:25:31.035Z</time>
      </trkpt>
      <trkpt lat="45.93564" lon="14.67324">
        <ele>327.964652</ele>
        <time>2022-08-05T21:25:34.290Z</time>
      </trkpt>
      <trkpt lat="45.9356" lon="14.67305">
        <ele>327.602765</ele>
        <time>2022-08-05T21:25:37.027Z</time>
      </trkpt>
      <trkpt lat="45.93557" lon="14.67287">
        <ele>327.280066</ele>
        <time>2022-08-05T21:25:39.535Z</time>
      </trkpt>
      <trkpt lat="45.9355" lon="14.67259">
        <ele>326.741922</ele>
        <time>2022-08-05T21:25:43.734Z</time>
      </trkpt>
      <trkpt lat="45.93477" lon="14.67019">
        <ele>325.231215</ele>
        <time>2022-08-05T21:26:27.780Z</time>
      </trkpt>
      <trkpt lat="45.93476" lon="14.66996">
        <ele>325.380904</ele>
        <time>2022-08-05T21:26:33.358Z</time>
      </trkpt>
      <trkpt lat="45.93483" lon="14.66979">
        <ele>325.504909</ele>
        <time>2022-08-05T21:26:38.546Z</time>
      </trkpt>
      <trkpt lat="45.93526" lon="14.66923">
        <ele>326.044946</ele>
        <time>2022-08-05T21:27:01.688Z</time>
      </trkpt>
      <trkpt lat="45.93547" lon="14.66903">
        <ele>326.619805</ele>
        <time>2022-08-05T21:27:12.016Z</time>
      </trkpt>
      <trkpt lat="45.93556" lon="14.66883">
        <ele>327.001118</ele>
        <time>2022-08-05T21:27:18.443Z</time>
      </trkpt>
      <trkpt lat="45.93561" lon="14.66868">
        <ele>327.265292</ele>
        <time>2022-08-05T21:27:23.006Z</time>
      </trkpt>
      <trkpt lat="45.93592" lon="14.66825">
        <ele>328.281065</ele>
        <time>2022-08-05T21:27:40.179Z</time>
      </trkpt>
      <trkpt lat="45.93594" lon="14.66819">
        <ele>328.377286</ele>
        <time>2022-08-05T21:27:41.880Z</time>
      </trkpt>
      <trkpt lat="45.936" lon="14.66767">
        <ele>329.233792</ele>
        <time>2022-08-05T21:27:54.873Z</time>
      </trkpt>
      <trkpt lat="45.93596" lon="14.66748">
        <ele>329.555195</ele>
        <time>2022-08-05T21:27:59.265Z</time>
      </trkpt>
      <trkpt lat="45.93602" lon="14.66695">
        <ele>330.250239</ele>
        <time>2022-08-05T21:28:12.973Z</time>
      </trkpt>
      <trkpt lat="45.93629" lon="14.66643">
        <ele>330.294971</ele>
        <time>2022-08-05T21:28:30.285Z</time>
      </trkpt>
      <trkpt lat="45.93649" lon="14.6659">
        <ele>330.335377</ele>
        <time>2022-08-05T21:28:42.622Z</time>
      </trkpt>
      <trkpt lat="45.93661" lon="14.6657">
        <ele>330.352953</ele>
        <time>2022-08-05T21:28:46.615Z</time>
      </trkpt>
      <trkpt lat="45.93684" lon="14.66554">
        <ele>330.378627</ele>
        <time>2022-08-05T21:28:52.649Z</time>
      </trkpt>
      <trkpt lat="45.93753" lon="14.66542">
        <ele>329.904339</ele>
        <time>2022-08-05T21:29:07.543Z</time>
      </trkpt>
      <trkpt lat="45.93769" lon="14.66494">
        <ele>329.22945</ele>
        <time>2022-08-05T21:29:15.496Z</time>
      </trkpt>
      <trkpt lat="45.93774" lon="14.66476">
        <ele>328.977537</ele>
        <time>2022-08-05T21:29:18.390Z</time>
      </trkpt>
      <trkpt lat="45.93788" lon="14.66445">
        <ele>328.512452</ele>
        <time>2022-08-05T21:29:28.616Z</time>
      </trkpt>
      <trkpt lat="45.93842" lon="14.66382">
        <ele>327.25097</ele>
        <time>2022-08-05T21:29:54.785Z</time>
      </trkpt>
      <trkpt lat="45.93869" lon="14.66319">
        <ele>326.719402</ele>
        <time>2022-08-05T21:30:13.750Z</time>
      </trkpt>
      <trkpt lat="45.93932" lon="14.66257">
        <ele>326.016259</ele>
        <time>2022-08-05T21:30:44.935Z</time>
      </trkpt>
      <trkpt lat="45.93958" lon="14.66221">
        <ele>325.68795</ele>
        <time>2022-08-05T21:31:00.644Z</time>
      </trkpt>
      <trkpt lat="45.93981" lon="14.66133">
        <ele>325.650812</ele>
        <time>2022-08-05T21:31:30.817Z</time>
      </trkpt>
      <trkpt lat="45.94005" lon="14.66081">
        <ele>325.819976</ele>
        <time>2022-08-05T21:31:50.908Z</time>
      </trkpt>
      <trkpt lat="45.9407" lon="14.65972">
        <ele>326.214312</ele>
        <time>2022-08-05T21:32:37.982Z</time>
      </trkpt>
      <trkpt lat="45.94131" lon="14.65891">
        <ele>326.528754</ele>
        <time>2022-08-05T21:33:16.531Z</time>
      </trkpt>
      <trkpt lat="45.94165" lon="14.65849">
        <ele>326.695805</ele>
        <time>2022-08-05T21:33:36.907Z</time>
      </trkpt>
      <trkpt lat="45.94209" lon="14.6581">
        <ele>326.891904</ele>
        <time>2022-08-05T21:34:00.640Z</time>
      </trkpt>
      <trkpt lat="45.94232" lon="14.65781">
        <ele>327.022841</ele>
        <time>2022-08-05T21:34:15.173Z</time>
      </trkpt>
      <trkpt lat="45.9427" lon="14.6576">
        <ele>327.192669</ele>
        <time>2022-08-05T21:34:33.913Z</time>
      </trkpt>
      <trkpt lat="45.94351" lon="14.6574">
        <ele>327.531517</ele>
        <time>2022-08-05T21:35:11.643Z</time>
      </trkpt>
      <trkpt lat="45.94494" lon="14.65684">
        <ele>328.034107</ele>
        <time>2022-08-05T21:35:55.347Z</time>
      </trkpt>
      <trkpt lat="45.94638" lon="14.65621">
        <ele>328.110539</ele>
        <time>2022-08-05T21:36:34.408Z</time>
      </trkpt>
      <trkpt lat="45.94631" lon="14.65543">
        <ele>328.058953</ele>
        <time>2022-08-05T21:36:48.783Z</time>
      </trkpt>
      <trkpt lat="45.94635" lon="14.65495">
        <ele>328.10073</ele>
        <time>2022-08-05T21:36:58.224Z</time>
      </trkpt>
      <trkpt lat="45.9465" lon="14.65424">
        <ele>328.623972</ele>
        <time>2022-08-05T21:37:13.652Z</time>
      </trkpt>
      <trkpt lat="45.94653" lon="14.65407">
        <ele>328.750666</ele>
        <time>2022-08-05T21:37:17.382Z</time>
      </trkpt>
      <trkpt lat="45.94728" lon="14.65471">
        <ele>329.643658</ele>
        <time>2022-08-05T21:37:47.248Z</time>
      </trkpt>
      <trkpt lat="45.94799" lon="14.65537">
        <ele>330.423535</ele>
        <time>2022-08-05T21:38:16.345Z</time>
      </trkpt>
      <trkpt lat="45.94835" lon="14.65554">
        <ele>330.760877</ele>
        <time>2022-08-05T21:38:27.949Z</time>
      </trkpt>
      <trkpt lat="45.94858" lon="14.65556">
        <ele>330.968963</ele>
        <time>2022-08-05T21:38:35.062Z</time>
      </trkpt>
      <trkpt lat="45.94892" lon="14.65547">
        <ele>331.276662</ele>
        <time>2022-08-05T21:38:45.192Z</time>
      </trkpt>
      <trkpt lat="45.94971" lon="14.65513">
        <ele>331.492068</ele>
        <time>2022-08-05T21:39:06.764Z</time>
      </trkpt>
      <trkpt lat="45.95002" lon="14.65502">
        <ele>331.50416</ele>
        <time>2022-08-05T21:39:14.498Z</time>
      </trkpt>
      <trkpt lat="45.95046" lon="14.65491">
        <ele>331.521379</ele>
        <time>2022-08-05T21:39:25.459Z</time>
      </trkpt>
      <trkpt lat="45.95126" lon="14.65485">
        <ele>332.037312</ele>
        <time>2022-08-05T21:39:49.222Z</time>
      </trkpt>
      <trkpt lat="45.95145" lon="14.65486">
        <ele>332.297751</ele>
        <time>2022-08-05T21:39:56.071Z</time>
      </trkpt>
      <trkpt lat="45.95188" lon="14.65489">
        <ele>332.872561</ele>
        <time>2022-08-05T21:40:10.748Z</time>
      </trkpt>
      <trkpt lat="45.95203" lon="14.65504">
        <ele>333.123246</ele>
        <time>2022-08-05T21:40:17.278Z</time>
      </trkpt>
      <trkpt lat="45.95214" lon="14.65535">
        <ele>333.451402</ele>
        <time>2022-08-05T21:40:25.775Z</time>
      </trkpt>
      <trkpt lat="45.95224" lon="14.65557">
        <ele>333.689654</ele>
        <time>2022-08-05T21:40:32.374Z</time>
      </trkpt>
      <trkpt lat="45.95266" lon="14.65522">
        <ele>334.134599</ele>
        <time>2022-08-05T21:40:49.373Z</time>
      </trkpt>
      <trkpt lat="45.95376" lon="14.65437">
        <ele>334.936085</ele>
        <time>2022-08-05T21:41:27.291Z</time>
      </trkpt>
      <trkpt lat="45.95415" lon="14.6541">
        <ele>335.015843</ele>
        <time>2022-08-05T21:41:37.260Z</time>
      </trkpt>
      <trkpt lat="45.95421" lon="14.65405">
        <ele>334.982902</ele>
        <time>2022-08-05T21:41:38.830Z</time>
      </trkpt>
      <trkpt lat="45.9546" lon="14.65381">
        <ele>334.776265</ele>
        <time>2022-08-05T21:41:48.865Z</time>
      </trkpt>
      <trkpt lat="45.95491" lon="14.65363">
        <ele>334.610178</ele>
        <time>2022-08-05T21:41:57.067Z</time>
      </trkpt>
      <trkpt lat="45.95495" lon="14.6536">
        <ele>334.590556</ele>
        <time>2022-08-05T21:41:58.016Z</time>
      </trkpt>
      <trkpt lat="45.95536" lon="14.65336">
        <ele>334.372431</ele>
        <time>2022-08-05T21:42:08.646Z</time>
      </trkpt>
      <trkpt lat="45.95554" lon="14.65326">
        <ele>334.281666</ele>
        <time>2022-08-05T21:42:13.312Z</time>
      </trkpt>
      <trkpt lat="45.95571" lon="14.65317">
        <ele>334.27519</ele>
        <time>2022-08-05T21:42:18.107Z</time>
      </trkpt>
      <trkpt lat="45.95587" lon="14.65308">
        <ele>334.407822</ele>
        <time>2022-08-05T21:42:23.074Z</time>
      </trkpt>
      <trkpt lat="45.95599" lon="14.65304">
        <ele>334.494985</ele>
        <time>2022-08-05T21:42:26.337Z</time>
      </trkpt>
      <trkpt lat="45.95611" lon="14.65301">
        <ele>334.588346</ele>
        <time>2022-08-05T21:42:29.890Z</time>
      </trkpt>
      <trkpt lat="45.95623" lon="14.65299">
        <ele>334.685441</ele>
        <time>2022-08-05T21:42:33.763Z</time>
      </trkpt>
      <trkpt lat="45.95633" lon="14.65298">
        <ele>334.759255</ele>
        <time>2022-08-05T21:42:36.767Z</time>
      </trkpt>
      <trkpt lat="45.95684" lon="14.6529">
        <ele>335.14996</ele>
        <time>2022-08-05T21:42:53.387Z</time>
      </trkpt>
      <trkpt lat="45.95701" lon="14.6529">
        <ele>335.286126</ele>
        <time>2022-08-05T21:42:59.215Z</time>
      </trkpt>
      <trkpt lat="45.95714" lon="14.6529">
        <ele>335.382513</ele>
        <time>2022-08-05T21:43:03.481Z</time>
      </trkpt>
      <trkpt lat="45.95741" lon="14.65302">
        <ele>335.59979</ele>
        <time>2022-08-05T21:43:12.643Z</time>
      </trkpt>
      <trkpt lat="45.95752" lon="14.6531">
        <ele>335.621159</ele>
        <time>2022-08-05T21:43:16.587Z</time>
      </trkpt>
      <trkpt lat="45.95751" lon="14.65323">
        <ele>335.637756</ele>
        <time>2022-08-05T21:43:19.539Z</time>
      </trkpt>
      <trkpt lat="45.95759" lon="14.65335">
        <ele>335.657735</ele>
        <time>2022-08-05T21:43:23.140Z</time>
      </trkpt>
      <trkpt lat="45.95771" lon="14.65327">
        <ele>335.680674</ele>
        <time>2022-08-05T21:43:27.265Z</time>
      </trkpt>
      <trkpt lat="45.95772" lon="14.65323">
        <ele>335.68637</ele>
        <time>2022-08-05T21:43:28.264Z</time>
      </trkpt>
      <trkpt lat="45.95772" lon="14.65313">
        <ele>335.6976</ele>
        <time>2022-08-05T21:43:30.075Z</time>
      </trkpt>
      <trkpt lat="45.95765" lon="14.65304">
        <ele>335.714081</ele>
        <time>2022-08-05T21:43:32.800Z</time>
      </trkpt>
      <trkpt lat="45.95774" lon="14.6528">
        <ele>335.746251</ele>
        <time>2022-08-05T21:43:38.298Z</time>
      </trkpt>
      <trkpt lat="45.95778" lon="14.65266">
        <ele>335.764768</ele>
        <time>2022-08-05T21:43:41.138Z</time>
      </trkpt>
      <trkpt lat="45.95781" lon="14.65255">
        <ele>335.778803</ele>
        <time>2022-08-05T21:43:43.322Z</time>
      </trkpt>
      <trkpt lat="45.95828" lon="14.65142">
        <ele>335.847396</ele>
        <time>2022-08-05T21:44:07.817Z</time>
      </trkpt>
      <trkpt lat="45.9585" lon="14.65102">
        <ele>335.698823</ele>
        <time>2022-08-05T21:44:16.635Z</time>
      </trkpt>
      <trkpt lat="45.95854" lon="14.65094">
        <ele>335.671039</ele>
        <time>2022-08-05T21:44:18.381Z</time>
      </trkpt>
      <trkpt lat="45.95872" lon="14.65073">
        <ele>335.570119</ele>
        <time>2022-08-05T21:44:24.025Z</time>
      </trkpt>
      <trkpt lat="45.9588" lon="14.65074">
        <ele>335.538121</ele>
        <time>2022-08-05T21:44:26.198Z</time>
      </trkpt>
      <trkpt lat="45.9589" lon="14.65059">
        <ele>335.477145</ele>
        <time>2022-08-05T21:44:29.828Z</time>
      </trkpt>
      <trkpt lat="45.95888" lon="14.65049">
        <ele>335.444954</ele>
        <time>2022-08-05T21:44:31.498Z</time>
      </trkpt>
      <trkpt lat="45.95903" lon="14.65006">
        <ele>335.30469</ele>
        <time>2022-08-05T21:44:39.733Z</time>
      </trkpt>
      <trkpt lat="45.95939" lon="14.6492">
        <ele>335.00477</ele>
        <time>2022-08-05T21:44:58.658Z</time>
      </trkpt>
      <trkpt lat="45.95965" lon="14.64848">
        <ele>334.758498</ele>
        <time>2022-08-05T21:45:13.502Z</time>
      </trkpt>
      <trkpt lat="45.95961" lon="14.64842">
        <ele>334.73234</ele>
        <time>2022-08-05T21:45:14.833Z</time>
      </trkpt>
      <trkpt lat="45.95991" lon="14.64772">
        <ele>334.483175</ele>
        <time>2022-08-05T21:45:28.759Z</time>
      </trkpt>
      <trkpt lat="45.96016" lon="14.64702">
        <ele>334.196393</ele>
        <time>2022-08-05T21:45:42.387Z</time>
      </trkpt>
      <trkpt lat="45.96013" lon="14.6468">
        <ele>334.102056</ele>
        <time>2022-08-05T21:45:46.299Z</time>
      </trkpt>
      <trkpt lat="45.95999" lon="14.64666">
        <ele>334.001721</ele>
        <time>2022-08-05T21:45:50.556Z</time>
      </trkpt>
      <trkpt lat="45.96001" lon="14.64658">
        <ele>333.961403</ele>
        <time>2022-08-05T21:45:52.019Z</time>
      </trkpt>
      <trkpt lat="45.96004" lon="14.64645">
        <ele>333.908611</ele>
        <time>2022-08-05T21:45:54.310Z</time>
      </trkpt>
      <trkpt lat="45.96018" lon="14.64648">
        <ele>333.822614</ele>
        <time>2022-08-05T21:45:58.261Z</time>
      </trkpt>
      <trkpt lat="45.96043" lon="14.64642">
        <ele>333.670134</ele>
        <time>2022-08-05T21:46:04.288Z</time>
      </trkpt>
      <trkpt lat="45.9606" lon="14.64612">
        <ele>333.50888</ele>
        <time>2022-08-05T21:46:10.615Z</time>
      </trkpt>
      <trkpt lat="45.96072" lon="14.6459">
        <ele>333.38971</ele>
        <time>2022-08-05T21:46:15.615Z</time>
      </trkpt>
      <trkpt lat="45.96076" lon="14.64565">
        <ele>333.286012</ele>
        <time>2022-08-05T21:46:19.363Z</time>
      </trkpt>
      <trkpt lat="45.96088" lon="14.64556">
        <ele>333.134783</ele>
        <time>2022-08-05T21:46:22.951Z</time>
      </trkpt>
      <trkpt lat="45.96098" lon="14.64528">
        <ele>332.895471</ele>
        <time>2022-08-05T21:46:28.020Z</time>
      </trkpt>
      <trkpt lat="45.96128" lon="14.64479">
        <ele>332.410059</ele>
        <time>2022-08-05T21:46:39.083Z</time>
      </trkpt>
      <trkpt lat="45.96133" lon="14.64484">
        <ele>332.343</ele>
        <time>2022-08-05T21:46:41.299Z</time>
      </trkpt>
      <trkpt lat="45.96173" lon="14.64412">
        <ele>331.648138</ele>
        <time>2022-08-05T21:46:55.687Z</time>
      </trkpt>
      <trkpt lat="45.96211" lon="14.64347">
        <ele>331.014113</ele>
        <time>2022-08-05T21:47:08.641Z</time>
      </trkpt>
      <trkpt lat="45.96252" lon="14.64296">
        <ele>330.440578</ele>
        <time>2022-08-05T21:47:20.320Z</time>
      </trkpt>
      <trkpt lat="45.96326" lon="14.64212">
        <ele>329.435392</ele>
        <time>2022-08-05T21:47:42.515Z</time>
      </trkpt>
      <trkpt lat="45.96359" lon="14.64135">
        <ele>329.769755</ele>
        <time>2022-08-05T21:47:59.317Z</time>
      </trkpt>
      <trkpt lat="45.96371" lon="14.64088">
        <ele>329.966227</ele>
        <time>2022-08-05T21:48:09.500Z</time>
      </trkpt>
      <trkpt lat="45.9639" lon="14.64004">
        <ele>330.305294</ele>
        <time>2022-08-05T21:48:28.420Z</time>
      </trkpt>
      <trkpt lat="45.96419" lon="14.63882">
        <ele>331.67604</ele>
        <time>2022-08-05T21:48:59.165Z</time>
      </trkpt>
      <trkpt lat="45.96443" lon="14.63762">
        <ele>333.293792</ele>
        <time>2022-08-05T21:49:31.877Z</time>
      </trkpt>
      <trkpt lat="45.96462" lon="14.63701">
        <ele>333.996896</ele>
        <time>2022-08-05T21:49:48.701Z</time>
      </trkpt>
      <trkpt lat="45.96475" lon="14.63676">
        <ele>334.252448</ele>
        <time>2022-08-05T21:49:56.575Z</time>
      </trkpt>
      <trkpt lat="45.96506" lon="14.63632">
        <ele>334.76226</ele>
        <time>2022-08-05T21:50:10.733Z</time>
      </trkpt>
      <trkpt lat="45.9657" lon="14.63586">
        <ele>335.592028</ele>
        <time>2022-08-05T21:50:33.148Z</time>
      </trkpt>
      <trkpt lat="45.96561" lon="14.63546">
        <ele>335.828152</ele>
        <time>2022-08-05T21:50:42.058Z</time>
      </trkpt>
      <trkpt lat="45.96562" lon="14.63513">
        <ele>335.796189</ele>
        <time>2022-08-05T21:50:47.795Z</time>
      </trkpt>
      <trkpt lat="45.96598" lon="14.63455">
        <ele>335.720642</ele>
        <time>2022-08-05T21:51:01.946Z</time>
      </trkpt>
      <trkpt lat="45.96661" lon="14.63348">
        <ele>335.571653</ele>
        <time>2022-08-05T21:51:26.037Z</time>
      </trkpt>
      <trkpt lat="45.96702" lon="14.63268">
        <ele>335.138639</ele>
        <time>2022-08-05T21:51:43.801Z</time>
      </trkpt>
      <trkpt lat="45.96731" lon="14.63207">
        <ele>334.818783</ele>
        <time>2022-08-05T21:51:56.319Z</time>
      </trkpt>
      <trkpt lat="45.96735" lon="14.632">
        <ele>334.779914</ele>
        <time>2022-08-05T21:51:57.857Z</time>
      </trkpt>
      <trkpt lat="45.96743" lon="14.63185">
        <ele>334.699285</ele>
        <time>2022-08-05T21:52:01.001Z</time>
      </trkpt>
      <trkpt lat="45.96753" lon="14.63165">
        <ele>334.589374</ele>
        <time>2022-08-05T21:52:05.155Z</time>
      </trkpt>
      <trkpt lat="45.96789" lon="14.63097">
        <ele>333.968319</ele>
        <time>2022-08-05T21:52:18.677Z</time>
      </trkpt>
      <trkpt lat="45.96809" lon="14.63059">
        <ele>333.554039</ele>
        <time>2022-08-05T21:52:25.723Z</time>
      </trkpt>
      <trkpt lat="45.96845" lon="14.62992">
        <ele>332.80302</ele>
        <time>2022-08-05T21:52:38.600Z</time>
      </trkpt>
      <trkpt lat="45.96861" lon="14.62965">
        <ele>332.497333</ele>
        <time>2022-08-05T21:52:44.020Z</time>
      </trkpt>
      <trkpt lat="45.96869" lon="14.62951">
        <ele>332.338358</ele>
        <time>2022-08-05T21:52:46.925Z</time>
      </trkpt>
      <trkpt lat="45.96932" lon="14.62845">
        <ele>332.458481</ele>
        <time>2022-08-05T21:53:11.237Z</time>
      </trkpt>
      <trkpt lat="45.96985" lon="14.62751">
        <ele>332.718141</ele>
        <time>2022-08-05T21:53:36.357Z</time>
      </trkpt>
      <trkpt lat="45.97069" lon="14.62562">
        <ele>335.493932</ele>
        <time>2022-08-05T21:54:33.701Z</time>
      </trkpt>
      <trkpt lat="45.97112" lon="14.62477">
        <ele>336.827783</ele>
        <time>2022-08-05T21:54:59.477Z</time>
      </trkpt>
      <trkpt lat="45.97139" lon="14.62407">
        <ele>337.8323</ele>
        <time>2022-08-05T21:55:19.241Z</time>
      </trkpt>
      <trkpt lat="45.97143" lon="14.62399">
        <ele>337.94203</ele>
        <time>2022-08-05T21:55:21.332Z</time>
      </trkpt>
      <trkpt lat="45.97156" lon="14.62368">
        <ele>338.407911</ele>
        <time>2022-08-05T21:55:30.528Z</time>
      </trkpt>
      <trkpt lat="45.97181" lon="14.62312">
        <ele>339.22758</ele>
        <time>2022-08-05T21:55:46.528Z</time>
      </trkpt>
      <trkpt lat="45.97252" lon="14.62164">
        <ele>341.738167</ele>
        <time>2022-08-05T21:56:31.079Z</time>
      </trkpt>
      <trkpt lat="45.97311" lon="14.62033">
        <ele>343.955206</ele>
        <time>2022-08-05T21:57:12.385Z</time>
      </trkpt>
      <trkpt lat="45.97341" lon="14.61962">
        <ele>345.146828</ele>
        <time>2022-08-05T21:57:34.008Z</time>
      </trkpt>
      <trkpt lat="45.97356" lon="14.61918">
        <ele>345.852496</ele>
        <time>2022-08-05T21:57:46.552Z</time>
      </trkpt>
      <trkpt lat="45.97441" lon="14.61701">
        <ele>348.603185</ele>
        <time>2022-08-05T21:58:45.535Z</time>
      </trkpt>
      <trkpt lat="45.97494" lon="14.61557">
        <ele>350.209446</ele>
        <time>2022-08-05T21:59:21.749Z</time>
      </trkpt>
      <trkpt lat="45.97512" lon="14.61509">
        <ele>350.738449</ele>
        <time>2022-08-05T21:59:34.322Z</time>
      </trkpt>
      <trkpt lat="45.97542" lon="14.61428">
        <ele>351.632709</ele>
        <time>2022-08-05T21:59:56.061Z</time>
      </trkpt>
      <trkpt lat="45.97554" lon="14.61386">
        <ele>352.110574</ele>
        <time>2022-08-05T22:00:06.979Z</time>
      </trkpt>
      <trkpt lat="45.97557" lon="14.61374">
        <ele>352.257694</ele>
        <time>2022-08-05T22:00:10.133Z</time>
      </trkpt>
      <trkpt lat="45.97564" lon="14.61342">
        <ele>352.635621</ele>
        <time>2022-08-05T22:00:18.497Z</time>
      </trkpt>
      <trkpt lat="45.97584" lon="14.61242">
        <ele>353.817825</ele>
        <time>2022-08-05T22:00:44.157Z</time>
      </trkpt>
      <trkpt lat="45.97593" lon="14.61193">
        <ele>354.382044</ele>
        <time>2022-08-05T22:00:56.066Z</time>
      </trkpt>
      <trkpt lat="45.976" lon="14.61161">
        <ele>354.746238</ele>
        <time>2022-08-05T22:01:03.832Z</time>
      </trkpt>
      <trkpt lat="45.97605" lon="14.61139">
        <ele>354.799558</ele>
        <time>2022-08-05T22:01:09.235Z</time>
      </trkpt>
      <trkpt lat="45.97607" lon="14.61131">
        <ele>354.817934</ele>
        <time>2022-08-05T22:01:11.025Z</time>
      </trkpt>
      <trkpt lat="45.9761" lon="14.61119">
        <ele>354.846863</ele>
        <time>2022-08-05T22:01:13.846Z</time>
      </trkpt>
      <trkpt lat="45.97614" lon="14.61105">
        <ele>354.878445</ele>
        <time>2022-08-05T22:01:16.981Z</time>
      </trkpt>
      <trkpt lat="45.97648" lon="14.60979">
        <ele>355.182784</ele>
        <time>2022-08-05T22:01:46.390Z</time>
      </trkpt>
      <trkpt lat="45.97656" lon="14.60922">
        <ele>355.313277</ele>
        <time>2022-08-05T22:01:56.688Z</time>
      </trkpt>
      <trkpt lat="45.97659" lon="14.60789">
        <ele>353.163829</ele>
        <time>2022-08-05T22:02:14.866Z</time>
      </trkpt>
      <trkpt lat="45.97673" lon="14.60746">
        <ele>352.367145</ele>
        <time>2022-08-05T22:02:21.163Z</time>
      </trkpt>
      <trkpt lat="45.9769" lon="14.60719">
        <ele>351.751413</ele>
        <time>2022-08-05T22:02:26.428Z</time>
      </trkpt>
      <trkpt lat="45.97708" lon="14.60698">
        <ele>351.207064</ele>
        <time>2022-08-05T22:02:31.143Z</time>
      </trkpt>
      <trkpt lat="45.97758" lon="14.60584">
        <ele>350.884253</ele>
        <time>2022-08-05T22:02:51.726Z</time>
      </trkpt>
      <trkpt lat="45.97766" lon="14.60566">
        <ele>350.865911</ele>
        <time>2022-08-05T22:02:55.050Z</time>
      </trkpt>
      <trkpt lat="45.97773" lon="14.60556">
        <ele>350.85392</ele>
        <time>2022-08-05T22:02:57.605Z</time>
      </trkpt>
      <trkpt lat="45.97792" lon="14.60552">
        <ele>350.829955</ele>
        <time>2022-08-05T22:03:03.270Z</time>
      </trkpt>
      <trkpt lat="45.97802" lon="14.60562">
        <ele>350.814649</ele>
        <time>2022-08-05T22:03:06.583Z</time>
      </trkpt>
      <trkpt lat="45.97814" lon="14.60558">
        <ele>350.799065</ele>
        <time>2022-08-05T22:03:11.116Z</time>
      </trkpt>
      <trkpt lat="45.97818" lon="14.60547">
        <ele>350.78794</ele>
        <time>2022-08-05T22:03:15.056Z</time>
      </trkpt>
      <trkpt lat="45.97814" lon="14.60526">
        <ele>350.769394</ele>
        <time>2022-08-05T22:03:20.676Z</time>
      </trkpt>
      <trkpt lat="45.9781" lon="14.60523">
        <ele>350.813757</ele>
        <time>2022-08-05T22:03:22.411Z</time>
      </trkpt>
      <trkpt lat="45.97815" lon="14.60486">
        <ele>351.492725</ele>
        <time>2022-08-05T22:03:33.581Z</time>
      </trkpt>
      <trkpt lat="45.97839" lon="14.60441">
        <ele>352.516016</ele>
        <time>2022-08-05T22:03:51.098Z</time>
      </trkpt>
      <trkpt lat="45.9789" lon="14.60371">
        <ele>354.354107</ele>
        <time>2022-08-05T22:04:19.883Z</time>
      </trkpt>
      <trkpt lat="45.97931" lon="14.60291">
        <ele>356.036124</ele>
        <time>2022-08-05T22:04:44.118Z</time>
      </trkpt>
      <trkpt lat="45.97962" lon="14.60252">
        <ele>356.951135</ele>
        <time>2022-08-05T22:04:57.050Z</time>
      </trkpt>
      <trkpt lat="45.98042" lon="14.60171">
        <ele>359.1082</ele>
        <time>2022-08-05T22:05:34.117Z</time>
      </trkpt>
      <trkpt lat="45.98075" lon="14.60116">
        <ele>360.452958</ele>
        <time>2022-08-05T22:05:56.012Z</time>
      </trkpt>
      <trkpt lat="45.98125" lon="14.60021">
        <ele>362.823798</ele>
        <time>2022-08-05T22:06:32.492Z</time>
      </trkpt>
      <trkpt lat="45.98164" lon="14.59961">
        <ele>364.450943</ele>
        <time>2022-08-05T22:06:55.163Z</time>
      </trkpt>
      <trkpt lat="45.98166" lon="14.59951">
        <ele>364.511267</ele>
        <time>2022-08-05T22:06:57.563Z</time>
      </trkpt>
      <trkpt lat="45.98168" lon="14.59905">
        <ele>364.14879</ele>
        <time>2022-08-05T22:07:06.570Z</time>
      </trkpt>
      <trkpt lat="45.98154" lon="14.59845">
        <ele>363.650118</ele>
        <time>2022-08-05T22:07:18.180Z</time>
      </trkpt>
      <trkpt lat="45.98131" lon="14.59802">
        <ele>363.219659</ele>
        <time>2022-08-05T22:07:27.973Z</time>
      </trkpt>
      <trkpt lat="45.98074" lon="14.59752">
        <ele>362.202452</ele>
        <time>2022-08-05T22:07:40.973Z</time>
      </trkpt>
      <trkpt lat="45.98075" lon="14.59735">
        <ele>361.427227</ele>
        <time>2022-08-05T22:07:43.148Z</time>
      </trkpt>
      <trkpt lat="45.98085" lon="14.59729">
        <ele>360.722694</ele>
        <time>2022-08-05T22:07:44.974Z</time>
      </trkpt>
      <trkpt lat="45.98139" lon="14.59759">
        <ele>356.852209</ele>
        <time>2022-08-05T22:07:55.197Z</time>
      </trkpt>
      <trkpt lat="45.98181" lon="14.59759">
        <ele>354.050091</ele>
        <time>2022-08-05T22:08:02.317Z</time>
      </trkpt>
      <trkpt lat="45.98223" lon="14.5974">
        <ele>351.163285</ele>
        <time>2022-08-05T22:08:09.751Z</time>
      </trkpt>
      <trkpt lat="45.98278" lon="14.59751">
        <ele>346.07261</ele>
        <time>2022-08-05T22:08:19.361Z</time>
      </trkpt>
      <trkpt lat="45.98299" lon="14.59734">
        <ele>343.76864</ele>
        <time>2022-08-05T22:08:23.098Z</time>
      </trkpt>
      <trkpt lat="45.98315" lon="14.59687">
        <ele>340.343264</ele>
        <time>2022-08-05T22:08:28.802Z</time>
      </trkpt>
      <trkpt lat="45.9832" lon="14.59648">
        <ele>337.68654</ele>
        <time>2022-08-05T22:08:33.392Z</time>
      </trkpt>
      <trkpt lat="45.98315" lon="14.59609">
        <ele>335.114605</ele>
        <time>2022-08-05T22:08:37.981Z</time>
      </trkpt>
      <trkpt lat="45.98302" lon="14.59564">
        <ele>332.835072</ele>
        <time>2022-08-05T22:08:43.836Z</time>
      </trkpt>
      <trkpt lat="45.98303" lon="14.5953">
        <ele>332.000728</ele>
        <time>2022-08-05T22:08:47.630Z</time>
      </trkpt>
      <trkpt lat="45.98306" lon="14.5952">
        <ele>331.733937</ele>
        <time>2022-08-05T22:08:49.533Z</time>
      </trkpt>
      <trkpt lat="45.98329" lon="14.59497">
        <ele>330.720108</ele>
        <time>2022-08-05T22:08:54.540Z</time>
      </trkpt>
      <trkpt lat="45.98466" lon="14.59426">
        <ele>326.369777</ele>
        <time>2022-08-05T22:09:27.343Z</time>
      </trkpt>
      <trkpt lat="45.98484" lon="14.59422">
        <ele>326.125777</ele>
        <time>2022-08-05T22:09:32.556Z</time>
      </trkpt>
      <trkpt lat="45.98517" lon="14.59414">
        <ele>325.665732</ele>
        <time>2022-08-05T22:09:41.373Z</time>
      </trkpt>
      <trkpt lat="45.98565" lon="14.59419">
        <ele>324.999317</ele>
        <time>2022-08-05T22:09:51.871Z</time>
      </trkpt>
      <trkpt lat="45.98616" lon="14.59454">
        <ele>323.615649</ele>
        <time>2022-08-05T22:10:03.799Z</time>
      </trkpt>
      <trkpt lat="45.98619" lon="14.59452">
        <ele>323.451723</ele>
        <time>2022-08-05T22:10:04.448Z</time>
      </trkpt>
      <trkpt lat="45.98627" lon="14.5944">
        <ele>322.876746</ele>
        <time>2022-08-05T22:10:06.504Z</time>
      </trkpt>
      <trkpt lat="45.98629" lon="14.59428">
        <ele>322.463397</ele>
        <time>2022-08-05T22:10:08.232Z</time>
      </trkpt>
      <trkpt lat="45.98624" lon="14.59418">
        <ele>322.060127</ele>
        <time>2022-08-05T22:10:09.948Z</time>
      </trkpt>
      <trkpt lat="45.98581" lon="14.59385">
        <ele>319.655882</ele>
        <time>2022-08-05T22:10:19.033Z</time>
      </trkpt>
      <trkpt lat="45.98538" lon="14.59371">
        <ele>317.52297</ele>
        <time>2022-08-05T22:10:26.749Z</time>
      </trkpt>
      <trkpt lat="45.98522" lon="14.59367">
        <ele>316.730232</ele>
        <time>2022-08-05T22:10:29.688Z</time>
      </trkpt>
      <trkpt lat="45.98515" lon="14.59366">
        <ele>316.383751</ele>
        <time>2022-08-05T22:10:30.914Z</time>
      </trkpt>
      <trkpt lat="45.98422" lon="14.59356">
        <ele>310.580301</ele>
        <time>2022-08-05T22:10:46.777Z</time>
      </trkpt>
      <trkpt lat="45.9837" lon="14.59335">
        <ele>307.070836</ele>
        <time>2022-08-05T22:10:56.184Z</time>
      </trkpt>
      <trkpt lat="45.98351" lon="14.59304">
        <ele>305.227491</ele>
        <time>2022-08-05T22:11:01.182Z</time>
      </trkpt>
      <trkpt lat="45.98345" lon="14.5926">
        <ele>303.569907</ele>
        <time>2022-08-05T22:11:06.790Z</time>
      </trkpt>
      <trkpt lat="45.98352" lon="14.59212">
        <ele>302.268249</ele>
        <time>2022-08-05T22:11:13.013Z</time>
      </trkpt>
      <trkpt lat="45.98377" lon="14.59136">
        <ele>300.065247</ele>
        <time>2022-08-05T22:11:23.757Z</time>
      </trkpt>
      <trkpt lat="45.98406" lon="14.59072">
        <ele>298.045824</ele>
        <time>2022-08-05T22:11:34.601Z</time>
      </trkpt>
      <trkpt lat="45.98431" lon="14.5903">
        <ele>296.989282</ele>
        <time>2022-08-05T22:11:42.605Z</time>
      </trkpt>
      <trkpt lat="45.98529" lon="14.58902">
        <ele>295.045259</ele>
        <time>2022-08-05T22:12:11.506Z</time>
      </trkpt>
      <trkpt lat="45.98538" lon="14.58889">
        <ele>294.856821</ele>
        <time>2022-08-05T22:12:14.381Z</time>
      </trkpt>
      <trkpt lat="45.98577" lon="14.58836">
        <ele>294.752334</ele>
        <time>2022-08-05T22:12:27.406Z</time>
      </trkpt>
      <trkpt lat="45.98645" lon="14.5867">
        <ele>295.322713</ele>
        <time>2022-08-05T22:13:08.081Z</time>
      </trkpt>
      <trkpt lat="45.98666" lon="14.58601">
        <ele>295.72923</ele>
        <time>2022-08-05T22:13:24.854Z</time>
      </trkpt>
      <trkpt lat="45.9868" lon="14.5846">
        <ele>296.584877</ele>
        <time>2022-08-05T22:13:55.471Z</time>
      </trkpt>
      <trkpt lat="45.98674" lon="14.58401">
        <ele>296.933615</ele>
        <time>2022-08-05T22:14:08.010Z</time>
      </trkpt>
      <trkpt lat="45.9864" lon="14.58302">
        <ele>297.382623</ele>
        <time>2022-08-05T22:14:30.863Z</time>
      </trkpt>
      <trkpt lat="45.98623" lon="14.58203">
        <ele>297.798708</ele>
        <time>2022-08-05T22:14:51.432Z</time>
      </trkpt>
      <trkpt lat="45.98587" lon="14.58128">
        <ele>298.092296</ele>
        <time>2022-08-05T22:15:09.991Z</time>
      </trkpt>
      <trkpt lat="45.9855" lon="14.58078">
        <ele>298.271401</ele>
        <time>2022-08-05T22:15:25.259Z</time>
      </trkpt>
      <trkpt lat="45.98538" lon="14.5806">
        <ele>298.332518</ele>
        <time>2022-08-05T22:15:30.368Z</time>
      </trkpt>
      <trkpt lat="45.98526" lon="14.58041">
        <ele>298.396608</ele>
        <time>2022-08-05T22:15:35.639Z</time>
      </trkpt>
      <trkpt lat="45.98463" lon="14.57947">
        <ele>298.503411</ele>
        <time>2022-08-05T22:15:59.348Z</time>
      </trkpt>
      <trkpt lat="45.98453" lon="14.57932">
        <ele>298.455721</ele>
        <time>2022-08-05T22:16:03.160Z</time>
      </trkpt>
      <trkpt lat="45.98433" lon="14.57906">
        <ele>298.363876</ele>
        <time>2022-08-05T22:16:10.150Z</time>
      </trkpt>
      <trkpt lat="45.98381" lon="14.57844">
        <ele>298.1366</ele>
        <time>2022-08-05T22:16:27.162Z</time>
      </trkpt>
      <trkpt lat="45.98345" lon="14.57809">
        <ele>297.985195</ele>
        <time>2022-08-05T22:16:37.938Z</time>
      </trkpt>
      <trkpt lat="45.98316" lon="14.57753">
        <ele>297.754195</ele>
        <time>2022-08-05T22:16:49.158Z</time>
      </trkpt>
      <trkpt lat="45.98309" lon="14.57717">
        <ele>297.627593</ele>
        <time>2022-08-05T22:16:55.110Z</time>
      </trkpt>
      <trkpt lat="45.9831" lon="14.57663">
        <ele>297.446161</ele>
        <time>2022-08-05T22:17:04.061Z</time>
      </trkpt>
      <trkpt lat="45.98313" lon="14.57641">
        <ele>297.372614</ele>
        <time>2022-08-05T22:17:08.179Z</time>
      </trkpt>
      <trkpt lat="45.98336" lon="14.57576">
        <ele>297.140547</ele>
        <time>2022-08-05T22:17:22.158Z</time>
      </trkpt>
      <trkpt lat="45.98334" lon="14.57531">
        <ele>297.209348</ele>
        <time>2022-08-05T22:17:30.810Z</time>
      </trkpt>
      <trkpt lat="45.98377" lon="14.57501">
        <ele>297.313196</ele>
        <time>2022-08-05T22:17:44.943Z</time>
      </trkpt>
      <trkpt lat="45.98406" lon="14.57477">
        <ele>297.385869</ele>
        <time>2022-08-05T22:17:55.193Z</time>
      </trkpt>
      <trkpt lat="45.98434" lon="14.57443">
        <ele>297.463251</ele>
        <time>2022-08-05T22:18:05.497Z</time>
      </trkpt>
      <trkpt lat="45.98466" lon="14.57391">
        <ele>297.347473</ele>
        <time>2022-08-05T22:18:18.879Z</time>
      </trkpt>
      <trkpt lat="45.98498" lon="14.57333">
        <ele>296.867004</ele>
        <time>2022-08-05T22:18:33.067Z</time>
      </trkpt>
      <trkpt lat="45.98604" lon="14.57146">
        <ele>295.045911</ele>
        <time>2022-08-05T22:19:09.854Z</time>
      </trkpt>
      <trkpt lat="45.98593" lon="14.57117">
        <ele>294.724337</ele>
        <time>2022-08-05T22:19:14.739Z</time>
      </trkpt>
      <trkpt lat="45.98581" lon="14.57081">
        <ele>294.341451</ele>
        <time>2022-08-05T22:19:20.720Z</time>
      </trkpt>
      <trkpt lat="45.98605" lon="14.57061">
        <ele>293.951708</ele>
        <time>2022-08-05T22:19:26.898Z</time>
      </trkpt>
      <trkpt lat="45.98628" lon="14.57032">
        <ele>293.533388</ele>
        <time>2022-08-05T22:19:33.758Z</time>
      </trkpt>
      <trkpt lat="45.98655" lon="14.5699">
        <ele>293.416422</ele>
        <time>2022-08-05T22:19:43.502Z</time>
      </trkpt>
      <trkpt lat="45.98672" lon="14.56949">
        <ele>293.47471</ele>
        <time>2022-08-05T22:19:52.273Z</time>
      </trkpt>
      <trkpt lat="45.98676" lon="14.5694">
        <ele>293.486692</ele>
        <time>2022-08-05T22:19:54.230Z</time>
      </trkpt>
      <trkpt lat="45.98717" lon="14.56838">
        <ele>293.629789</ele>
        <time>2022-08-05T22:20:17.606Z</time>
      </trkpt>
      <trkpt lat="45.98752" lon="14.56759">
        <ele>293.971886</ele>
        <time>2022-08-05T22:20:38.062Z</time>
      </trkpt>
      <trkpt lat="45.98786" lon="14.56703">
        <ele>294.396357</ele>
        <time>2022-08-05T22:20:54.303Z</time>
      </trkpt>
      <trkpt lat="45.98823" lon="14.56658">
        <ele>294.7988</ele>
        <time>2022-08-05T22:21:09.630Z</time>
      </trkpt>
      <trkpt lat="45.98847" lon="14.56633">
        <ele>295.039777</ele>
        <time>2022-08-05T22:21:18.400Z</time>
      </trkpt>
      <trkpt lat="45.98891" lon="14.56591">
        <ele>295.236584</ele>
        <time>2022-08-05T22:21:33.679Z</time>
      </trkpt>
      <trkpt lat="45.98913" lon="14.56567">
        <ele>295.291015</ele>
        <time>2022-08-05T22:21:41.203Z</time>
      </trkpt>
      <trkpt lat="45.98943" lon="14.56535">
        <ele>295.366127</ele>
        <time>2022-08-05T22:21:51.189Z</time>
      </trkpt>
      <trkpt lat="45.99052" lon="14.56426">
        <ele>295.631152</ele>
        <time>2022-08-05T22:22:27.238Z</time>
      </trkpt>
      <trkpt lat="45.99113" lon="14.56362">
        <ele>295.780873</ele>
        <time>2022-08-05T22:22:48.233Z</time>
      </trkpt>
      <trkpt lat="45.99149" lon="14.56327">
        <ele>295.86829</ele>
        <time>2022-08-05T22:23:00.464Z</time>
      </trkpt>
      <trkpt lat="45.99232" lon="14.56251">
        <ele>296.019495</ele>
        <time>2022-08-05T22:23:44.845Z</time>
      </trkpt>
      <trkpt lat="45.99346" lon="14.56172">
        <ele>296.104452</ele>
        <time>2022-08-05T22:24:42.058Z</time>
      </trkpt>
      <trkpt lat="45.99348" lon="14.56157">
        <ele>296.091697</ele>
        <time>2022-08-05T22:24:45.159Z</time>
      </trkpt>
      <trkpt lat="45.99354" lon="14.5615">
        <ele>296.082557</ele>
        <time>2022-08-05T22:24:47.496Z</time>
      </trkpt>
      <trkpt lat="45.99375" lon="14.56152">
        <ele>296.059056</ele>
        <time>2022-08-05T22:24:53.173Z</time>
      </trkpt>
      <trkpt lat="45.99391" lon="14.56143">
        <ele>296.039541</ele>
        <time>2022-08-05T22:24:57.784Z</time>
      </trkpt>
      <trkpt lat="45.9947" lon="14.56087">
        <ele>295.889868</ele>
        <time>2022-08-05T22:25:19.758Z</time>
      </trkpt>
      <trkpt lat="45.9951" lon="14.56049">
        <ele>295.380867</ele>
        <time>2022-08-05T22:25:31.460Z</time>
      </trkpt>
      <trkpt lat="45.99539" lon="14.56013">
        <ele>294.970036</ele>
        <time>2022-08-05T22:25:40.403Z</time>
      </trkpt>
      <trkpt lat="45.99541" lon="14.56012">
        <ele>294.950236</ele>
        <time>2022-08-05T22:25:40.821Z</time>
      </trkpt>
      <trkpt lat="45.99582" lon="14.55943">
        <ele>294.281543</ele>
        <time>2022-08-05T22:26:05.412Z</time>
      </trkpt>
      <trkpt lat="45.99666" lon="14.55757">
        <ele>292.672109</ele>
        <time>2022-08-05T22:27:06.461Z</time>
      </trkpt>
      <trkpt lat="45.99709" lon="14.55646">
        <ele>292.29627</ele>
        <time>2022-08-05T22:27:43.863Z</time>
      </trkpt>
      <trkpt lat="45.99735" lon="14.557">
        <ele>292.447097</ele>
        <time>2022-08-05T22:27:56.687Z</time>
      </trkpt>
      <trkpt lat="45.99748" lon="14.55716">
        <ele>292.500981</ele>
        <time>2022-08-05T22:28:01.587Z</time>
      </trkpt>
      <trkpt lat="45.99773" lon="14.5568">
        <ele>292.61833</ele>
        <time>2022-08-05T22:28:12.675Z</time>
      </trkpt>
      <trkpt lat="45.99814" lon="14.55636">
        <ele>292.785245</ele>
        <time>2022-08-05T22:28:28.509Z</time>
      </trkpt>
      <trkpt lat="45.9982" lon="14.55632">
        <ele>292.805206</ele>
        <time>2022-08-05T22:28:30.450Z</time>
      </trkpt>
      <trkpt lat="45.99844" lon="14.55615">
        <ele>292.891502</ele>
        <time>2022-08-05T22:28:38.341Z</time>
      </trkpt>
      <trkpt lat="45.99856" lon="14.55607">
        <ele>292.930744</ele>
        <time>2022-08-05T22:28:41.885Z</time>
      </trkpt>
      <trkpt lat="45.99888" lon="14.5559">
        <ele>293.037432</ele>
        <time>2022-08-05T22:28:51.209Z</time>
      </trkpt>
      <trkpt lat="45.99924" lon="14.55571">
        <ele>293.160243</ele>
        <time>2022-08-05T22:29:02.337Z</time>
      </trkpt>
      <trkpt lat="45.9991" lon="14.55504">
        <ele>293.314659</ele>
        <time>2022-08-05T22:29:16.566Z</time>
      </trkpt>
      <trkpt lat="45.99901" lon="14.55455">
        <ele>293.242285</ele>
        <time>2022-08-05T22:29:25.944Z</time>
      </trkpt>
      <trkpt lat="45.99897" lon="14.55429">
        <ele>293.194875</ele>
        <time>2022-08-05T22:29:30.739Z</time>
      </trkpt>
      <trkpt lat="45.99961" lon="14.55401">
        <ele>293.019204</ele>
        <time>2022-08-05T22:29:47.841Z</time>
      </trkpt>
      <trkpt lat="46.00019" lon="14.55372">
        <ele>292.859168</ele>
        <time>2022-08-05T22:30:03.921Z</time>
      </trkpt>
      <trkpt lat="46.00077" lon="14.55343">
        <ele>293.036505</ele>
        <time>2022-08-05T22:30:22.053Z</time>
      </trkpt>
      <trkpt lat="46.00095" lon="14.55334">
        <ele>293.093768</ele>
        <time>2022-08-05T22:30:27.682Z</time>
      </trkpt>
      <trkpt lat="46.001" lon="14.55331">
        <ele>293.11097</ele>
        <time>2022-08-05T22:30:29.317Z</time>
      </trkpt>
      <trkpt lat="46.0023" lon="14.55262">
        <ele>293.450574</ele>
        <time>2022-08-05T22:31:10.783Z</time>
      </trkpt>
      <trkpt lat="46.00327" lon="14.55223">
        <ele>293.572827</ele>
        <time>2022-08-05T22:31:39.598Z</time>
      </trkpt>
      <trkpt lat="46.00353" lon="14.55207">
        <ele>293.607412</ele>
        <time>2022-08-05T22:31:47.202Z</time>
      </trkpt>
      <trkpt lat="46.0039" lon="14.55186">
        <ele>293.464234</ele>
        <time>2022-08-05T22:31:57.559Z</time>
      </trkpt>
      <trkpt lat="46.00416" lon="14.55165">
        <ele>293.319876</ele>
        <time>2022-08-05T22:32:05.280Z</time>
      </trkpt>
      <trkpt lat="46.00453" lon="14.5512">
        <ele>293.087482</ele>
        <time>2022-08-05T22:32:25.333Z</time>
      </trkpt>
      <trkpt lat="46.00485" lon="14.55068">
        <ele>292.855942</ele>
        <time>2022-08-05T22:32:45.061Z</time>
      </trkpt>
      <trkpt lat="46.00561" lon="14.54883">
        <ele>293.510805</ele>
        <time>2022-08-05T22:33:51.727Z</time>
      </trkpt>
      <trkpt lat="46.00567" lon="14.54838">
        <ele>293.701335</ele>
        <time>2022-08-05T22:34:08.877Z</time>
      </trkpt>
      <trkpt lat="46.00575" lon="14.5482">
        <ele>293.788563</ele>
        <time>2022-08-05T22:34:16.361Z</time>
      </trkpt>
      <trkpt lat="46.00583" lon="14.54818">
        <ele>293.872055</ele>
        <time>2022-08-05T22:34:19.474Z</time>
      </trkpt>
      <trkpt lat="46.00641" lon="14.54884">
        <ele>295.424524</ele>
        <time>2022-08-05T22:34:48.207Z</time>
      </trkpt>
      <trkpt lat="46.00733" lon="14.54639">
        <ele>298.841787</ele>
        <time>2022-08-05T22:35:59.569Z</time>
      </trkpt>
      <trkpt lat="46.00767" lon="14.54579">
        <ele>299.587368</ele>
        <time>2022-08-05T22:36:15.869Z</time>
      </trkpt>
      <trkpt lat="46.00826" lon="14.54508">
        <ele>299.974133</ele>
        <time>2022-08-05T22:36:39.239Z</time>
      </trkpt>
      <trkpt lat="46.00959" lon="14.54381">
        <ele>299.765741</ele>
        <time>2022-08-05T22:37:17.886Z</time>
      </trkpt>
      <trkpt lat="46.00953" lon="14.54368">
        <ele>299.843213</ele>
        <time>2022-08-05T22:37:19.909Z</time>
      </trkpt>
      <trkpt lat="46.00965" lon="14.54349">
        <ele>299.971309</ele>
        <time>2022-08-05T22:37:27.212Z</time>
      </trkpt>
      <trkpt lat="46.00959" lon="14.54326">
        <ele>300.096811</ele>
        <time>2022-08-05T22:37:30.876Z</time>
      </trkpt>
      <trkpt lat="46.01039" lon="14.54284">
        <ele>300.711878</ele>
        <time>2022-08-05T22:37:58.430Z</time>
      </trkpt>
      <trkpt lat="46.011" lon="14.54261">
        <ele>301.457994</ele>
        <time>2022-08-05T22:38:20.989Z</time>
      </trkpt>
      <trkpt lat="46.01169" lon="14.54243">
        <ele>302.546736</ele>
        <time>2022-08-05T22:38:50.623Z</time>
      </trkpt>
      <trkpt lat="46.01216" lon="14.54239">
        <ele>303.270431</ele>
        <time>2022-08-05T22:39:07.026Z</time>
      </trkpt>
      <trkpt lat="46.01403" lon="14.54263">
        <ele>300.711528</ele>
        <time>2022-08-05T22:39:47.804Z</time>
      </trkpt>
      <trkpt lat="46.01415" lon="14.54266">
        <ele>300.488447</ele>
        <time>2022-08-05T22:39:50.058Z</time>
      </trkpt>
      <trkpt lat="46.01529" lon="14.54286">
        <ele>297.042454</ele>
        <time>2022-08-05T22:40:11.991Z</time>
      </trkpt>
      <trkpt lat="46.01552" lon="14.54289">
        <ele>296.344945</ele>
        <time>2022-08-05T22:40:16.440Z</time>
      </trkpt>
      <trkpt lat="46.01613" lon="14.54266">
        <ele>294.721674</ele>
        <time>2022-08-05T22:40:29.201Z</time>
      </trkpt>
      <trkpt lat="46.01646" lon="14.54252">
        <ele>294.43925</ele>
        <time>2022-08-05T22:40:36.606Z</time>
      </trkpt>
      <trkpt lat="46.01731" lon="14.54241">
        <ele>293.72225</ele>
        <time>2022-08-05T22:40:58.092Z</time>
      </trkpt>
      <trkpt lat="46.01744" lon="14.54228">
        <ele>293.593739</ele>
        <time>2022-08-05T22:41:03.431Z</time>
      </trkpt>
      <trkpt lat="46.01747" lon="14.54218">
        <ele>293.532532</ele>
        <time>2022-08-05T22:41:05.921Z</time>
      </trkpt>
      <trkpt lat="46.01757" lon="14.54219">
        <ele>293.445774</ele>
        <time>2022-08-05T22:41:08.851Z</time>
      </trkpt>
      <trkpt lat="46.01769" lon="14.54229">
        <ele>293.348307</ele>
        <time>2022-08-05T22:41:12.519Z</time>
      </trkpt>
      <trkpt lat="46.01898" lon="14.54181">
        <ele>293.455806</ele>
        <time>2022-08-05T22:41:49.348Z</time>
      </trkpt>
      <trkpt lat="46.02031" lon="14.54106">
        <ele>293.418838</ele>
        <time>2022-08-05T22:42:27.171Z</time>
      </trkpt>
      <trkpt lat="46.02054" lon="14.54078">
        <ele>293.396722</ele>
        <time>2022-08-05T22:42:34.965Z</time>
      </trkpt>
      <trkpt lat="46.0207" lon="14.54074">
        <ele>293.384783</ele>
        <time>2022-08-05T22:42:39.186Z</time>
      </trkpt>
      <trkpt lat="46.02346" lon="14.53838">
        <ele>292.946982</ele>
        <time>2022-08-05T22:44:02.978Z</time>
      </trkpt>
      <trkpt lat="46.02384" lon="14.53805">
        <ele>292.870686</ele>
        <time>2022-08-05T22:44:14.300Z</time>
      </trkpt>
      <trkpt lat="46.02429" lon="14.53765">
        <ele>292.795657</ele>
        <time>2022-08-05T22:44:27.852Z</time>
      </trkpt>
      <trkpt lat="46.02486" lon="14.53715">
        <ele>292.730698</ele>
        <time>2022-08-05T22:44:45.302Z</time>
      </trkpt>
      <trkpt lat="46.02498" lon="14.53702">
        <ele>292.715627</ele>
        <time>2022-08-05T22:44:49.316Z</time>
      </trkpt>
      <trkpt lat="46.02502" lon="14.53707">
        <ele>292.710796</ele>
        <time>2022-08-05T22:44:50.547Z</time>
      </trkpt>
      <trkpt lat="46.02506" lon="14.53702">
        <ele>292.705529</ele>
        <time>2022-08-05T22:44:52.025Z</time>
      </trkpt>
      <trkpt lat="46.02509" lon="14.53698">
        <ele>292.701151</ele>
        <time>2022-08-05T22:44:53.271Z</time>
      </trkpt>
      <trkpt lat="46.02516" lon="14.53709">
        <ele>292.69056</ele>
        <time>2022-08-05T22:44:56.257Z</time>
      </trkpt>
      <trkpt lat="46.02532" lon="14.53691">
        <ele>292.671149</ele>
        <time>2022-08-05T22:45:01.696Z</time>
      </trkpt>
      <trkpt lat="46.02574" lon="14.53661">
        <ele>292.635894</ele>
        <time>2022-08-05T22:45:14.150Z</time>
      </trkpt>
      <trkpt lat="46.0263" lon="14.53604">
        <ele>292.609215</ele>
        <time>2022-08-05T22:45:31.890Z</time>
      </trkpt>
      <trkpt lat="46.02651" lon="14.53575">
        <ele>292.598186</ele>
        <time>2022-08-05T22:45:39.302Z</time>
      </trkpt>
      <trkpt lat="46.02728" lon="14.53471">
        <ele>292.69184</ele>
        <time>2022-08-05T22:46:07.896Z</time>
      </trkpt>
      <trkpt lat="46.02755" lon="14.53432">
        <ele>292.801422</ele>
        <time>2022-08-05T22:46:18.555Z</time>
      </trkpt>
      <trkpt lat="46.028" lon="14.53361">
        <ele>292.993845</ele>
        <time>2022-08-05T22:46:37.328Z</time>
      </trkpt>
      <trkpt lat="46.02807" lon="14.53348">
        <ele>293.027172</ele>
        <time>2022-08-05T22:46:40.693Z</time>
      </trkpt>
      <trkpt lat="46.02817" lon="14.53342">
        <ele>293.057676</ele>
        <time>2022-08-05T22:46:43.920Z</time>
      </trkpt>
      <trkpt lat="46.02841" lon="14.53306">
        <ele>293.163046</ele>
        <time>2022-08-05T22:46:54.320Z</time>
      </trkpt>
      <trkpt lat="46.029" lon="14.53215">
        <ele>293.433076</ele>
        <time>2022-08-05T22:47:20.104Z</time>
      </trkpt>
      <trkpt lat="46.0294" lon="14.53144">
        <ele>293.631144</ele>
        <time>2022-08-05T22:47:36.993Z</time>
      </trkpt>
      <trkpt lat="46.02945" lon="14.53135">
        <ele>293.636692</ele>
        <time>2022-08-05T22:47:39.082Z</time>
      </trkpt>
      <trkpt lat="46.0296" lon="14.53112">
        <ele>293.464621</ele>
        <time>2022-08-05T22:47:44.625Z</time>
      </trkpt>
      <trkpt lat="46.02975" lon="14.53089">
        <ele>293.29836</ele>
        <time>2022-08-05T22:47:49.834Z</time>
      </trkpt>
      <trkpt lat="46.02991" lon="14.53064">
        <ele>293.115458</ele>
        <time>2022-08-05T22:47:55.514Z</time>
      </trkpt>
      <trkpt lat="46.03024" lon="14.53014">
        <ele>292.742928</ele>
        <time>2022-08-05T22:48:06.768Z</time>
      </trkpt>
      <trkpt lat="46.03028" lon="14.53006">
        <ele>292.687331</ele>
        <time>2022-08-05T22:48:08.402Z</time>
      </trkpt>
      <trkpt lat="46.03049" lon="14.52975">
        <ele>292.456746</ele>
        <time>2022-08-05T22:48:15.159Z</time>
      </trkpt>
      <trkpt lat="46.03063" lon="14.52953">
        <ele>292.293519</ele>
        <time>2022-08-05T22:48:19.896Z</time>
      </trkpt>
      <trkpt lat="46.03074" lon="14.52937">
        <ele>292.174541</ele>
        <time>2022-08-05T22:48:23.326Z</time>
      </trkpt>
      <trkpt lat="46.03078" lon="14.5293">
        <ele>292.125262</ele>
        <time>2022-08-05T22:48:24.773Z</time>
      </trkpt>
      <trkpt lat="46.03148" lon="14.52823">
        <ele>291.341411</ele>
        <time>2022-08-05T22:48:48.632Z</time>
      </trkpt>
      <trkpt lat="46.032" lon="14.52743">
        <ele>290.850011</ele>
        <time>2022-08-05T22:49:07.615Z</time>
      </trkpt>
      <trkpt lat="46.03207" lon="14.52732">
        <ele>290.837932</ele>
        <time>2022-08-05T22:49:10.138Z</time>
      </trkpt>
      <trkpt lat="46.03211" lon="14.52726">
        <ele>290.83038</ele>
        <time>2022-08-05T22:49:11.765Z</time>
      </trkpt>
      <trkpt lat="46.03286" lon="14.5261">
        <ele>290.697247</ele>
        <time>2022-08-05T22:49:41.277Z</time>
      </trkpt>
      <trkpt lat="46.03356" lon="14.52497">
        <ele>290.500575</ele>
        <time>2022-08-05T22:50:09.003Z</time>
      </trkpt>
      <trkpt lat="46.03405" lon="14.52401">
        <ele>290.315064</ele>
        <time>2022-08-05T22:50:29.326Z</time>
      </trkpt>
      <trkpt lat="46.0346" lon="14.52284">
        <ele>290.172777</ele>
        <time>2022-08-05T22:50:55.071Z</time>
      </trkpt>
      <trkpt lat="46.03467" lon="14.52269">
        <ele>290.159196</ele>
        <time>2022-08-05T22:50:58.426Z</time>
      </trkpt>
      <trkpt lat="46.03487" lon="14.52225">
        <ele>290.119136</ele>
        <time>2022-08-05T22:51:07.837Z</time>
      </trkpt>
      <trkpt lat="46.0352" lon="14.52165">
        <ele>290.061727</ele>
        <time>2022-08-05T22:51:21.530Z</time>
      </trkpt>
      <trkpt lat="46.03541" lon="14.5212">
        <ele>290.076877</ele>
        <time>2022-08-05T22:51:31.943Z</time>
      </trkpt>
      <trkpt lat="46.03569" lon="14.52065">
        <ele>290.122641</ele>
        <time>2022-08-05T22:51:45.694Z</time>
      </trkpt>
      <trkpt lat="46.03588" lon="14.52027">
        <ele>290.154296</ele>
        <time>2022-08-05T22:51:54.704Z</time>
      </trkpt>
      <trkpt lat="46.03611" lon="14.51981">
        <ele>290.192436</ele>
        <time>2022-08-05T22:52:04.960Z</time>
      </trkpt>
      <trkpt lat="46.03678" lon="14.51845">
        <ele>290.394741</ele>
        <time>2022-08-05T22:52:34.912Z</time>
      </trkpt>
      <trkpt lat="46.03681" lon="14.5184">
        <ele>290.40391</ele>
        <time>2022-08-05T22:52:36.063Z</time>
      </trkpt>
      <trkpt lat="46.03737" lon="14.51743">
        <ele>290.584465</ele>
        <time>2022-08-05T22:53:00.104Z</time>
      </trkpt>
      <trkpt lat="46.0374" lon="14.51738">
        <ele>290.594337</ele>
        <time>2022-08-05T22:53:01.550Z</time>
      </trkpt>
      <trkpt lat="46.03785" lon="14.51667">
        <ele>292.607691</ele>
        <time>2022-08-05T22:53:24.782Z</time>
      </trkpt>
      <trkpt lat="46.03814" lon="14.51622">
        <ele>293.918367</ele>
        <time>2022-08-05T22:53:44.002Z</time>
      </trkpt>
      <trkpt lat="46.03829" lon="14.51642">
        <ele>294.54521</ele>
        <time>2022-08-05T22:53:53.475Z</time>
      </trkpt>
      <trkpt lat="46.03844" lon="14.51662">
        <ele>295.161048</ele>
        <time>2022-08-05T22:54:02.648Z</time>
      </trkpt>
      <trkpt lat="46.03869" lon="14.51697">
        <ele>296.318745</ele>
        <time>2022-08-05T22:54:19.326Z</time>
      </trkpt>
      <trkpt lat="46.03877" lon="14.51708">
        <ele>296.838091</ele>
        <time>2022-08-05T22:54:24.899Z</time>
      </trkpt>
      <trkpt lat="46.0389" lon="14.51726">
        <ele>297.680341</ele>
        <time>2022-08-05T22:54:33.688Z</time>
      </trkpt>
      <trkpt lat="46.03894" lon="14.51732">
        <ele>297.950379</ele>
        <time>2022-08-05T22:54:36.607Z</time>
      </trkpt>
      <trkpt lat="46.039" lon="14.51739">
        <ele>298.292874</ele>
        <time>2022-08-05T22:54:40.409Z</time>
      </trkpt>
      <trkpt lat="46.03905" lon="14.51745">
        <ele>298.630108</ele>
        <time>2022-08-05T22:54:44.373Z</time>
      </trkpt>
      <trkpt lat="46.03912" lon="14.51737">
        <ele>299.038303</ele>
        <time>2022-08-05T22:54:48.496Z</time>
      </trkpt>
      <trkpt lat="46.0392" lon="14.51743">
        <ele>299.432986</ele>
        <time>2022-08-05T22:54:53.122Z</time>
      </trkpt>
      <trkpt lat="46.0393" lon="14.51735">
        <ele>299.986135</ele>
        <time>2022-08-05T22:54:59.517Z</time>
      </trkpt>
      <trkpt lat="46.03964" lon="14.51679">
        <ele>302.434733</ele>
        <time>2022-08-05T22:55:28.607Z</time>
      </trkpt>
      <trkpt lat="46.04028" lon="14.51615">
        <ele>304.356917</ele>
        <time>2022-08-05T22:56:04.387Z</time>
      </trkpt>
      <trkpt lat="46.04098" lon="14.51571">
        <ele>303.96577</ele>
        <time>2022-08-05T22:56:22.268Z</time>
      </trkpt>
      <trkpt lat="46.04107" lon="14.51564">
        <ele>303.914348</ele>
        <time>2022-08-05T22:56:24.368Z</time>
      </trkpt>
      <trkpt lat="46.04116" lon="14.51556">
        <ele>303.857846</ele>
        <time>2022-08-05T22:56:26.662Z</time>
      </trkpt>
      <trkpt lat="46.04122" lon="14.51551">
        <ele>303.823884</ele>
        <time>2022-08-05T22:56:28.010Z</time>
      </trkpt>
      <trkpt lat="46.04131" lon="14.51544">
        <ele>303.771219</ele>
        <time>2022-08-05T22:56:29.994Z</time>
      </trkpt>
      <trkpt lat="46.04134" lon="14.51543">
        <ele>303.755141</ele>
        <time>2022-08-05T22:56:30.616Z</time>
      </trkpt>
      <trkpt lat="46.04139" lon="14.51539">
        <ele>303.724913</ele>
        <time>2022-08-05T22:56:31.771Z</time>
      </trkpt>
      <trkpt lat="46.04184" lon="14.51494">
        <ele>302.576064</ele>
        <time>2022-08-05T22:56:42.502Z</time>
      </trkpt>
      <trkpt lat="46.04194" lon="14.51486">
        <ele>302.190437</ele>
        <time>2022-08-05T22:56:44.649Z</time>
      </trkpt>
      <trkpt lat="46.04258" lon="14.5142">
        <ele>299.556468</ele>
        <time>2022-08-05T22:56:59.183Z</time>
      </trkpt>
      <trkpt lat="46.0427" lon="14.51406">
        <ele>299.055181</ele>
        <time>2022-08-05T22:57:02.055Z</time>
      </trkpt>
      <trkpt lat="46.04281" lon="14.51397">
        <ele>298.631402</ele>
        <time>2022-08-05T22:57:04.511Z</time>
      </trkpt>
      <trkpt lat="46.0429" lon="14.51396">
        <ele>298.333294</ele>
        <time>2022-08-05T22:57:06.262Z</time>
      </trkpt>
      <trkpt lat="46.043" lon="14.51405">
        <ele>297.936712</ele>
        <time>2022-08-05T22:57:08.757Z</time>
      </trkpt>
      <trkpt lat="46.04332" lon="14.51479">
        <ele>297.516371</ele>
        <time>2022-08-05T22:57:22.631Z</time>
      </trkpt>
      <trkpt lat="46.0434" lon="14.51496">
        <ele>297.493406</ele>
        <time>2022-08-05T22:57:26.631Z</time>
      </trkpt>
      <trkpt lat="46.04432" lon="14.51668">
        <ele>297.662441</ele>
        <time>2022-08-05T22:58:10.847Z</time>
      </trkpt>
      <trkpt lat="46.04461" lon="14.51738">
        <ele>298.221927</ele>
        <time>2022-08-05T22:58:28.570Z</time>
      </trkpt>
      <trkpt lat="46.04468" lon="14.51759">
        <ele>298.381486</ele>
        <time>2022-08-05T22:58:33.598Z</time>
      </trkpt>
      <trkpt lat="46.04472" lon="14.51776">
        <ele>298.501522</ele>
        <time>2022-08-05T22:58:37.978Z</time>
      </trkpt>
      <trkpt lat="46.04478" lon="14.51771">
        <ele>298.571302</ele>
        <time>2022-08-05T22:58:40.150Z</time>
      </trkpt>
      <trkpt lat="46.04484" lon="14.51766">
        <ele>298.642611</ele>
        <time>2022-08-05T22:58:42.365Z</time>
      </trkpt>
      <trkpt lat="46.0449" lon="14.51761">
        <ele>298.710333</ele>
        <time>2022-08-05T22:58:44.530Z</time>
      </trkpt>
      <trkpt lat="46.0449" lon="14.51748">
        <ele>298.801512</ele>
        <time>2022-08-05T22:58:47.995Z</time>
      </trkpt>
      <trkpt lat="46.04503" lon="14.51733">
        <ele>298.966143</ele>
        <time>2022-08-05T22:58:53.503Z</time>
      </trkpt>
      <trkpt lat="46.04516" lon="14.51719">
        <ele>299.136028</ele>
        <time>2022-08-05T22:58:58.826Z</time>
      </trkpt>
      <trkpt lat="46.04553" lon="14.51679">
        <ele>299.660884</ele>
        <time>2022-08-05T22:59:13.574Z</time>
      </trkpt>
      <trkpt lat="46.0456" lon="14.51671">
        <ele>299.765855</ele>
        <time>2022-08-05T22:59:16.242Z</time>
      </trkpt>
      <trkpt lat="46.04611" lon="14.51615">
        <ele>300.503222</ele>
        <time>2022-08-05T22:59:36.162Z</time>
      </trkpt>
      <trkpt lat="46.04618" lon="14.51606">
        <ele>300.609511</ele>
        <time>2022-08-05T22:59:39.273Z</time>
      </trkpt>
      <trkpt lat="46.04667" lon="14.5154">
        <ele>301.31671</ele>
        <time>2022-08-05T23:00:01.796Z</time>
      </trkpt>
      <trkpt lat="46.04695" lon="14.51493">
        <ele>301.672501</ele>
        <time>2022-08-05T23:00:15.251Z</time>
      </trkpt>
      <trkpt lat="46.04692" lon="14.51489">
        <ele>301.70527</ele>
        <time>2022-08-05T23:00:16.782Z</time>
      </trkpt>
      <trkpt lat="46.04696" lon="14.51482">
        <ele>301.756912</ele>
        <time>2022-08-05T23:00:18.565Z</time>
      </trkpt>
      <trkpt lat="46.04758" lon="14.51379">
        <ele>302.53761</ele>
        <time>2022-08-05T23:00:46.550Z</time>
      </trkpt>
      <trkpt lat="46.04767" lon="14.51365">
        <ele>302.644367</ele>
        <time>2022-08-05T23:00:50.836Z</time>
      </trkpt>
      <trkpt lat="46.04773" lon="14.51357">
        <ele>302.676976</ele>
        <time>2022-08-05T23:00:53.238Z</time>
      </trkpt>
      <trkpt lat="46.0478" lon="14.51347">
        <ele>302.71415</ele>
        <time>2022-08-05T23:00:55.913Z</time>
      </trkpt>
      <trkpt lat="46.04842" lon="14.51266">
        <ele>303.04398</ele>
        <time>2022-08-05T23:01:19.881Z</time>
      </trkpt>
      <trkpt lat="46.04935" lon="14.51157">
        <ele>302.793727</ele>
        <time>2022-08-05T23:01:54.842Z</time>
      </trkpt>
      <trkpt lat="46.04942" lon="14.51148">
        <ele>302.662748</ele>
        <time>2022-08-05T23:01:57.018Z</time>
      </trkpt>
      <trkpt lat="46.04962" lon="14.5112">
        <ele>302.30378</ele>
        <time>2022-08-05T23:02:02.802Z</time>
      </trkpt>
      <trkpt lat="46.04988" lon="14.51069">
        <ele>301.730848</ele>
        <time>2022-08-05T23:02:12.209Z</time>
      </trkpt>
      <trkpt lat="46.04993" lon="14.51049">
        <ele>301.532548</ele>
        <time>2022-08-05T23:02:15.807Z</time>
      </trkpt>
      <trkpt lat="46.05006" lon="14.51051">
        <ele>301.36428</ele>
        <time>2022-08-05T23:02:18.271Z</time>
      </trkpt>
      <trkpt lat="46.05066" lon="14.51064">
        <ele>300.261874</ele>
        <time>2022-08-05T23:02:30.965Z</time>
      </trkpt>
      <trkpt lat="46.05069" lon="14.51065">
        <ele>300.190768</ele>
        <time>2022-08-05T23:02:31.554Z</time>
      </trkpt>
      <trkpt lat="46.05078" lon="14.51068">
        <ele>299.983641</ele>
        <time>2022-08-05T23:02:33.299Z</time>
      </trkpt>
      <trkpt lat="46.05085" lon="14.5107">
        <ele>299.805878</ele>
        <time>2022-08-05T23:02:35.086Z</time>
      </trkpt>
      <trkpt lat="46.05118" lon="14.51068">
        <ele>299.077564</ele>
        <time>2022-08-05T23:02:41.707Z</time>
      </trkpt>
      <trkpt lat="46.05157" lon="14.51057">
        <ele>298.173566</ele>
        <time>2022-08-05T23:02:49.582Z</time>
      </trkpt>
      <trkpt lat="46.05167" lon="14.51052">
        <ele>297.928383</ele>
        <time>2022-08-05T23:02:51.667Z</time>
      </trkpt>
      <trkpt lat="46.05175" lon="14.51049">
        <ele>297.731491</ele>
        <time>2022-08-05T23:02:53.379Z</time>
      </trkpt>
      <trkpt lat="46.05178" lon="14.51048">
        <ele>297.660937</ele>
        <time>2022-08-05T23:02:54.039Z</time>
      </trkpt>
      <trkpt lat="46.05211" lon="14.51034">
        <ele>296.911567</ele>
        <time>2022-08-05T23:03:01.322Z</time>
      </trkpt>
      <trkpt lat="46.05217" lon="14.51032">
        <ele>296.858479</ele>
        <time>2022-08-05T23:03:02.635Z</time>
      </trkpt>
      <trkpt lat="46.05217" lon="14.51044">
        <ele>296.778499</ele>
        <time>2022-08-05T23:03:04.781Z</time>
      </trkpt>
      <trkpt lat="46.05217" lon="14.51073">
        <ele>296.592752</ele>
        <time>2022-08-05T23:03:09.348Z</time>
      </trkpt>
      <trkpt lat="46.05217" lon="14.51096">
        <ele>296.440032</ele>
        <time>2022-08-05T23:03:13.183Z</time>
      </trkpt>
      <trkpt lat="46.05215" lon="14.51124">
        <ele>296.253372</ele>
        <time>2022-08-05T23:03:17.693Z</time>
      </trkpt>
      <trkpt lat="46.05204" lon="14.51227">
        <ele>295.564923</ele>
        <time>2022-08-05T23:03:35.001Z</time>
      </trkpt>
      <trkpt lat="46.05183" lon="14.51381">
        <ele>294.634086</ele>
        <time>2022-08-05T23:04:01.602Z</time>
      </trkpt>
      <trkpt lat="46.0518" lon="14.51393">
        <ele>294.567931</ele>
        <time>2022-08-05T23:04:03.533Z</time>
      </trkpt>
      <trkpt lat="46.05163" lon="14.51442">
        <ele>294.261413</ele>
        <time>2022-08-05T23:04:12.324Z</time>
      </trkpt>
      <trkpt lat="46.05087" lon="14.51606">
        <ele>293.513677</ele>
        <time>2022-08-05T23:04:44.597Z</time>
      </trkpt>
      <trkpt lat="46.05072" lon="14.5166">
        <ele>293.373716</ele>
        <time>2022-08-05T23:04:55.159Z</time>
      </trkpt>
      <trkpt lat="46.05074" lon="14.51661">
        <ele>293.36777</ele>
        <time>2022-08-05T23:04:55.573Z</time>
      </trkpt>
      <trkpt lat="46.05083" lon="14.51665">
        <ele>293.334957</ele>
        <time>2022-08-05T23:04:58.031Z</time>
      </trkpt>
      <trkpt lat="46.05147" lon="14.51664">
        <ele>293.193063</ele>
        <time>2022-08-05T23:05:15.477Z</time>
      </trkpt>
      <trkpt lat="46.05206" lon="14.51663">
        <ele>293.368122</ele>
        <time>2022-08-05T23:05:31.832Z</time>
      </trkpt>
      <trkpt lat="46.05208" lon="14.51671">
        <ele>293.386667</ele>
        <time>2022-08-05T23:05:33.483Z</time>
      </trkpt>
      <trkpt lat="46.05208" lon="14.51727">
        <ele>293.503768</ele>
        <time>2022-08-05T23:05:44.524Z</time>
      </trkpt>
      <trkpt lat="46.05208" lon="14.51809">
        <ele>293.673479</ele>
        <time>2022-08-05T23:06:00.849Z</time>
      </trkpt>
      <trkpt lat="46.05217" lon="14.51827">
        <ele>293.675034</ele>
        <time>2022-08-05T23:06:05.699Z</time>
      </trkpt>
      <trkpt lat="46.05224" lon="14.51844">
        <ele>293.642757</ele>
        <time>2022-08-05T23:06:09.797Z</time>
      </trkpt>
      <trkpt lat="46.05224" lon="14.51906">
        <ele>293.540195</ele>
        <time>2022-08-05T23:06:21.301Z</time>
      </trkpt>
      <trkpt lat="46.0522" lon="14.51909">
        <ele>293.529775</ele>
        <time>2022-08-05T23:06:22.371Z</time>
      </trkpt>
      <trkpt lat="46.0522" lon="14.51917">
        <ele>293.516987</ele>
        <time>2022-08-05T23:06:23.721Z</time>
      </trkpt>
      <trkpt lat="46.0522" lon="14.51923">
        <ele>293.506529</ele>
        <time>2022-08-05T23:06:24.870Z</time>
      </trkpt>
      <trkpt lat="46.05221" lon="14.51938">
        <ele>293.482123</ele>
        <time>2022-08-05T23:06:27.580Z</time>
      </trkpt>
      <trkpt lat="46.05221" lon="14.5194">
        <ele>293.477733</ele>
        <time>2022-08-05T23:06:28.055Z</time>
      </trkpt>
      <trkpt lat="46.0523" lon="14.51959">
        <ele>293.439553</ele>
        <time>2022-08-05T23:06:31.910Z</time>
      </trkpt>
      <trkpt lat="46.05233" lon="14.52021">
        <ele>293.33632</ele>
        <time>2022-08-05T23:06:42.348Z</time>
      </trkpt>
      <trkpt lat="46.05234" lon="14.52043">
        <ele>293.300574</ele>
        <time>2022-08-05T23:06:46.099Z</time>
      </trkpt>
      <trkpt lat="46.05242" lon="14.52105">
        <ele>292.843878</ele>
        <time>2022-08-05T23:06:56.680Z</time>
      </trkpt>
      <trkpt lat="46.05244" lon="14.52113">
        <ele>292.768871</ele>
        <time>2022-08-05T23:06:57.880Z</time>
      </trkpt>
      <trkpt lat="46.05249" lon="14.52138">
        <ele>292.507809</ele>
        <time>2022-08-05T23:07:02.368Z</time>
      </trkpt>
      <trkpt lat="46.05254" lon="14.52159">
        <ele>292.283691</ele>
        <time>2022-08-05T23:07:05.877Z</time>
      </trkpt>
      <trkpt lat="46.05268" lon="14.52218">
        <ele>291.665224</ele>
        <time>2022-08-05T23:07:15.609Z</time>
      </trkpt>
      <trkpt lat="46.05281" lon="14.52268">
        <ele>291.139712</ele>
        <time>2022-08-05T23:07:23.314Z</time>
      </trkpt>
      <trkpt lat="46.05284" lon="14.5228">
        <ele>291.007316</ele>
        <time>2022-08-05T23:07:25.242Z</time>
      </trkpt>
      <trkpt lat="46.05295" lon="14.52321">
        <ele>290.559323</ele>
        <time>2022-08-05T23:07:31.384Z</time>
      </trkpt>
      <trkpt lat="46.05312" lon="14.5239">
        <ele>289.688743</ele>
        <time>2022-08-05T23:07:42.042Z</time>
      </trkpt>
      <trkpt lat="46.05307" lon="14.52393">
        <ele>289.594487</ele>
        <time>2022-08-05T23:07:43.236Z</time>
      </trkpt>
      <trkpt lat="46.05311" lon="14.52413">
        <ele>289.350132</ele>
        <time>2022-08-05T23:07:46.310Z</time>
      </trkpt>
      <trkpt lat="46.05316" lon="14.52431">
        <ele>289.119</ele>
        <time>2022-08-05T23:07:49.263Z</time>
      </trkpt>
      <trkpt lat="46.05317" lon="14.52434">
        <ele>289.076569</ele>
        <time>2022-08-05T23:07:49.801Z</time>
      </trkpt>
      <trkpt lat="46.05335" lon="14.52504">
        <ele>288.202522</ele>
        <time>2022-08-05T23:08:01.035Z</time>
      </trkpt>
      <trkpt lat="46.05346" lon="14.52546">
        <ele>287.672582</ele>
        <time>2022-08-05T23:08:07.901Z</time>
      </trkpt>
      <trkpt lat="46.05347" lon="14.52552">
        <ele>287.632793</ele>
        <time>2022-08-05T23:08:08.823Z</time>
      </trkpt>
      <trkpt lat="46.05398" lon="14.52754">
        <ele>286.918406</ele>
        <time>2022-08-05T23:08:45.960Z</time>
      </trkpt>
      <trkpt lat="46.05406" lon="14.52785">
        <ele>286.808367</ele>
        <time>2022-08-05T23:08:52.067Z</time>
      </trkpt>
      <trkpt lat="46.05431" lon="14.52885">
        <ele>287.09419</ele>
        <time>2022-08-05T23:09:12.203Z</time>
      </trkpt>
      <trkpt lat="46.05434" lon="14.5289">
        <ele>287.114656</ele>
        <time>2022-08-05T23:09:13.407Z</time>
      </trkpt>
      <trkpt lat="46.05437" lon="14.52888">
        <ele>287.128433</ele>
        <time>2022-08-05T23:09:14.252Z</time>
      </trkpt>
      <trkpt lat="46.05451" lon="14.52944">
        <ele>287.314505</ele>
        <time>2022-08-05T23:09:26.355Z</time>
      </trkpt>
      <trkpt lat="46.05449" lon="14.52966">
        <ele>287.384432</ele>
        <time>2022-08-05T23:09:31.190Z</time>
      </trkpt>
      <trkpt lat="46.05451" lon="14.52975">
        <ele>287.411485</ele>
        <time>2022-08-05T23:09:33.107Z</time>
      </trkpt>
      <trkpt lat="46.05452" lon="14.52983">
        <ele>287.439138</ele>
        <time>2022-08-05T23:09:34.968Z</time>
      </trkpt>
      <trkpt lat="46.05453" lon="14.52987">
        <ele>287.452879</ele>
        <time>2022-08-05T23:09:35.877Z</time>
      </trkpt>
      <trkpt lat="46.0546" lon="14.53009">
        <ele>287.52827</ele>
        <time>2022-08-05T23:09:41.121Z</time>
      </trkpt>
      <trkpt lat="46.05511" lon="14.53212">
        <ele>288.239629</ele>
        <time>2022-08-05T23:10:26.666Z</time>
      </trkpt>
      <trkpt lat="46.05538" lon="14.53323">
        <ele>288.089425</ele>
        <time>2022-08-05T23:10:47.598Z</time>
      </trkpt>
      <trkpt lat="46.05546" lon="14.53331">
        <ele>287.993092</ele>
        <time>2022-08-05T23:10:49.824Z</time>
      </trkpt>
      <trkpt lat="46.05561" lon="14.53394">
        <ele>287.538206</ele>
        <time>2022-08-05T23:11:00.191Z</time>
      </trkpt>
      <trkpt lat="46.05567" lon="14.53416">
        <ele>287.377678</ele>
        <time>2022-08-05T23:11:03.763Z</time>
      </trkpt>
      <trkpt lat="46.05572" lon="14.53438">
        <ele>287.21422</ele>
        <time>2022-08-05T23:11:07.317Z</time>
      </trkpt>
      <trkpt lat="46.0557" lon="14.53453">
        <ele>287.109608</ele>
        <time>2022-08-05T23:11:09.668Z</time>
      </trkpt>
      <trkpt lat="46.05608" lon="14.53619">
        <ele>286.374357</ele>
        <time>2022-08-05T23:11:37.520Z</time>
      </trkpt>
      <trkpt lat="46.0561" lon="14.53631">
        <ele>286.342719</ele>
        <time>2022-08-05T23:11:39.698Z</time>
      </trkpt>
      <trkpt lat="46.05613" lon="14.53653">
        <ele>286.280927</ele>
        <time>2022-08-05T23:11:43.986Z</time>
      </trkpt>
      <trkpt lat="46.05618" lon="14.53733">
        <ele>286.069224</ele>
        <time>2022-08-05T23:11:59.429Z</time>
      </trkpt>
      <trkpt lat="46.05614" lon="14.53824">
        <ele>286.171075</ele>
        <time>2022-08-05T23:12:16.538Z</time>
      </trkpt>
      <trkpt lat="46.05613" lon="14.53833">
        <ele>286.198247</ele>
        <time>2022-08-05T23:12:18.111Z</time>
      </trkpt>
      <trkpt lat="46.05612" lon="14.53847">
        <ele>286.244936</ele>
        <time>2022-08-05T23:12:21.002Z</time>
      </trkpt>
      <trkpt lat="46.05596" lon="14.53941">
        <ele>286.561906</ele>
        <time>2022-08-05T23:12:41.068Z</time>
      </trkpt>
      <trkpt lat="46.05594" lon="14.53948">
        <ele>286.587168</ele>
        <time>2022-08-05T23:12:42.683Z</time>
      </trkpt>
      <trkpt lat="46.05592" lon="14.53952">
        <ele>286.603137</ele>
        <time>2022-08-05T23:12:43.669Z</time>
      </trkpt>
      <trkpt lat="46.05582" lon="14.54039">
        <ele>286.772885</ele>
        <time>2022-08-05T23:13:02.592Z</time>
      </trkpt>
      <trkpt lat="46.05574" lon="14.54051">
        <ele>286.725025</ele>
        <time>2022-08-05T23:13:05.694Z</time>
      </trkpt>
      <trkpt lat="46.05574" lon="14.5406">
        <ele>286.697139</ele>
        <time>2022-08-05T23:13:08.569Z</time>
      </trkpt>
      <trkpt lat="46.05574" lon="14.54072">
        <ele>286.660329</ele>
        <time>2022-08-05T23:13:12.354Z</time>
      </trkpt>
      <trkpt lat="46.05573" lon="14.54087">
        <ele>286.618534</ele>
        <time>2022-08-05T23:13:16.904Z</time>
      </trkpt>
      <trkpt lat="46.05575" lon="14.54089">
        <ele>286.610971</ele>
        <time>2022-08-05T23:13:17.452Z</time>
      </trkpt>
      <trkpt lat="46.05579" lon="14.54096">
        <ele>286.582677</ele>
        <time>2022-08-05T23:13:19.004Z</time>
      </trkpt>
      <trkpt lat="46.0558" lon="14.54104">
        <ele>286.558317</ele>
        <time>2022-08-05T23:13:20.359Z</time>
      </trkpt>
      <trkpt lat="46.05582" lon="14.54138">
        <ele>286.458335</ele>
        <time>2022-08-05T23:13:26.207Z</time>
      </trkpt>
      <trkpt lat="46.05582" lon="14.54223">
        <ele>286.20611</ele>
        <time>2022-08-05T23:13:39.608Z</time>
      </trkpt>
      <trkpt lat="46.05584" lon="14.54242">
        <ele>286.147835</ele>
        <time>2022-08-05T23:13:43.046Z</time>
      </trkpt>
      <trkpt lat="46.0559" lon="14.54281">
        <ele>285.997793</ele>
        <time>2022-08-05T23:13:49.677Z</time>
      </trkpt>
      <trkpt lat="46.05594" lon="14.5441">
        <ele>285.198876</ele>
        <time>2022-08-05T23:14:10.818Z</time>
      </trkpt>
      <trkpt lat="46.05592" lon="14.54469">
        <ele>284.840476</ele>
        <time>2022-08-05T23:14:19.851Z</time>
      </trkpt>
      <trkpt lat="46.05591" lon="14.54472">
        <ele>284.820278</ele>
        <time>2022-08-05T23:14:20.357Z</time>
      </trkpt>
      <trkpt lat="46.05591" lon="14.54486">
        <ele>284.729755</ele>
        <time>2022-08-05T23:14:22.621Z</time>
      </trkpt>
      <trkpt lat="46.05592" lon="14.54496">
        <ele>284.670401</ele>
        <time>2022-08-05T23:14:24.122Z</time>
      </trkpt>
      <trkpt lat="46.05593" lon="14.5451">
        <ele>284.580982</ele>
        <time>2022-08-05T23:14:26.401Z</time>
      </trkpt>
      <trkpt lat="46.05595" lon="14.54522">
        <ele>284.507757</ele>
        <time>2022-08-05T23:14:28.366Z</time>
      </trkpt>
      <trkpt lat="46.056" lon="14.54634">
        <ele>284.678704</ele>
        <time>2022-08-05T23:14:48.906Z</time>
      </trkpt>
      <trkpt lat="46.05602" lon="14.54845">
        <ele>285.240574</ele>
        <time>2022-08-05T23:15:33.348Z</time>
      </trkpt>
      <trkpt lat="46.05601" lon="14.55016">
        <ele>285.990677</ele>
        <time>2022-08-05T23:16:08.426Z</time>
      </trkpt>
      <trkpt lat="46.05597" lon="14.55032">
        <ele>286.064727</ele>
        <time>2022-08-05T23:16:12.022Z</time>
      </trkpt>
      <trkpt lat="46.05597" lon="14.55043">
        <ele>286.114645</ele>
        <time>2022-08-05T23:16:14.428Z</time>
      </trkpt>
      <trkpt lat="46.05597" lon="14.55055">
        <ele>286.145984</ele>
        <time>2022-08-05T23:16:16.598Z</time>
      </trkpt>
      <trkpt lat="46.05597" lon="14.55066">
        <ele>286.173628</ele>
        <time>2022-08-05T23:16:18.950Z</time>
      </trkpt>
      <trkpt lat="46.05598" lon="14.55074">
        <ele>286.192393</ele>
        <time>2022-08-05T23:16:20.660Z</time>
      </trkpt>
      <trkpt lat="46.05598" lon="14.55121">
        <ele>286.301683</ele>
        <time>2022-08-05T23:16:30.219Z</time>
      </trkpt>
      <trkpt lat="46.05602" lon="14.55176">
        <ele>286.428944</ele>
        <time>2022-08-05T23:16:41.332Z</time>
      </trkpt>
      <trkpt lat="46.05602" lon="14.55579">
        <ele>286.861234</ele>
        <time>2022-08-05T23:17:57.632Z</time>
      </trkpt>
      <trkpt lat="46.05601" lon="14.55595">
        <ele>286.823087</ele>
        <time>2022-08-05T23:18:00.463Z</time>
      </trkpt>
      <trkpt lat="46.05601" lon="14.55608">
        <ele>286.793195</ele>
        <time>2022-08-05T23:18:02.721Z</time>
      </trkpt>
      <trkpt lat="46.05601" lon="14.5562">
        <ele>286.764691</ele>
        <time>2022-08-05T23:18:04.934Z</time>
      </trkpt>
      <trkpt lat="46.056" lon="14.55631">
        <ele>286.740046</ele>
        <time>2022-08-05T23:18:06.750Z</time>
      </trkpt>
      <trkpt lat="46.05601" lon="14.55638">
        <ele>286.724201</ele>
        <time>2022-08-05T23:18:07.909Z</time>
      </trkpt>
      <trkpt lat="46.05601" lon="14.55686">
        <ele>286.612941</ele>
        <time>2022-08-05T23:18:16.438Z</time>
      </trkpt>
      <trkpt lat="46.05603" lon="14.55708">
        <ele>286.561568</ele>
        <time>2022-08-05T23:18:20.346Z</time>
      </trkpt>
      <trkpt lat="46.05606" lon="14.55785">
        <ele>286.383126</ele>
        <time>2022-08-05T23:18:33.866Z</time>
      </trkpt>
      <trkpt lat="46.05606" lon="14.55789">
        <ele>286.372909</ele>
        <time>2022-08-05T23:18:34.616Z</time>
      </trkpt>
      <trkpt lat="46.05606" lon="14.55795">
        <ele>286.35831</ele>
        <time>2022-08-05T23:18:35.698Z</time>
      </trkpt>
      <trkpt lat="46.05606" lon="14.558">
        <ele>286.348572</ele>
        <time>2022-08-05T23:18:36.434Z</time>
      </trkpt>
      <trkpt lat="46.05605" lon="14.55902">
        <ele>285.942242</ele>
        <time>2022-08-05T23:18:53.233Z</time>
      </trkpt>
      <trkpt lat="46.05605" lon="14.55907">
        <ele>285.918994</ele>
        <time>2022-08-05T23:18:54.079Z</time>
      </trkpt>
      <trkpt lat="46.05605" lon="14.55913">
        <ele>285.890821</ele>
        <time>2022-08-05T23:18:55.100Z</time>
      </trkpt>
      <trkpt lat="46.05602" lon="14.55961">
        <ele>285.676857</ele>
        <time>2022-08-05T23:19:03.214Z</time>
      </trkpt>
      <trkpt lat="46.05598" lon="14.56023">
        <ele>285.395999</ele>
        <time>2022-08-05T23:19:13.952Z</time>
      </trkpt>
      <trkpt lat="46.05584" lon="14.56116">
        <ele>284.97954</ele>
        <time>2022-08-05T23:19:29.655Z</time>
      </trkpt>
      <trkpt lat="46.05576" lon="14.56136">
        <ele>284.879369</ele>
        <time>2022-08-05T23:19:33.426Z</time>
      </trkpt>
      <trkpt lat="46.05575" lon="14.56144">
        <ele>284.841882</ele>
        <time>2022-08-05T23:19:34.838Z</time>
      </trkpt>
      <trkpt lat="46.05571" lon="14.56167">
        <ele>284.742151</ele>
        <time>2022-08-05T23:19:38.780Z</time>
      </trkpt>
      <trkpt lat="46.05572" lon="14.56174">
        <ele>284.710919</ele>
        <time>2022-08-05T23:19:39.991Z</time>
      </trkpt>
      <trkpt lat="46.05563" lon="14.56219">
        <ele>284.511552</ele>
        <time>2022-08-05T23:19:47.704Z</time>
      </trkpt>
      <trkpt lat="46.05551" lon="14.56294">
        <ele>284.179634</ele>
        <time>2022-08-05T23:20:00.634Z</time>
      </trkpt>
      <trkpt lat="46.05543" lon="14.56327">
        <ele>284.029895</ele>
        <time>2022-08-05T23:20:06.773Z</time>
      </trkpt>
      <trkpt lat="46.05511" lon="14.56472">
        <ele>283.571729</ele>
        <time>2022-08-05T23:20:33.343Z</time>
      </trkpt>
      <trkpt lat="46.05489" lon="14.56637">
        <ele>282.967711</ele>
        <time>2022-08-05T23:21:02.070Z</time>
      </trkpt>
      <trkpt lat="46.05485" lon="14.56653">
        <ele>282.882717</ele>
        <time>2022-08-05T23:21:05.020Z</time>
      </trkpt>
      <trkpt lat="46.05484" lon="14.56665">
        <ele>282.826302</ele>
        <time>2022-08-05T23:21:07.017Z</time>
      </trkpt>
      <trkpt lat="46.05484" lon="14.56672">
        <ele>282.790939</ele>
        <time>2022-08-05T23:21:08.261Z</time>
      </trkpt>
      <trkpt lat="46.05487" lon="14.56687">
        <ele>282.718146</ele>
        <time>2022-08-05T23:21:10.815Z</time>
      </trkpt>
      <trkpt lat="46.05483" lon="14.56692">
        <ele>282.685541</ele>
        <time>2022-08-05T23:21:11.924Z</time>
      </trkpt>
      <trkpt lat="46.05481" lon="14.56696">
        <ele>282.65841</ele>
        <time>2022-08-05T23:21:12.834Z</time>
      </trkpt>
      <trkpt lat="46.05484" lon="14.56755">
        <ele>282.372845</ele>
        <time>2022-08-05T23:21:22.736Z</time>
      </trkpt>
      <trkpt lat="46.05484" lon="14.5676">
        <ele>282.351823</ele>
        <time>2022-08-05T23:21:23.472Z</time>
      </trkpt>
      <trkpt lat="46.05498" lon="14.56907">
        <ele>281.623176</ele>
        <time>2022-08-05T23:21:48.043Z</time>
      </trkpt>
      <trkpt lat="46.05502" lon="14.57048">
        <ele>280.916486</ele>
        <time>2022-08-05T23:22:11.441Z</time>
      </trkpt>
      <trkpt lat="46.05502" lon="14.57098">
        <ele>280.690123</ele>
        <time>2022-08-05T23:22:19.773Z</time>
      </trkpt>
      <trkpt lat="46.05493" lon="14.57245">
        <ele>280.361149</ele>
        <time>2022-08-05T23:22:44.322Z</time>
      </trkpt>
      <trkpt lat="46.05487" lon="14.57274">
        <ele>280.293249</ele>
        <time>2022-08-05T23:22:49.933Z</time>
      </trkpt>
      <trkpt lat="46.05471" lon="14.57306">
        <ele>280.204829</ele>
        <time>2022-08-05T23:22:57.226Z</time>
      </trkpt>
      <trkpt lat="46.05473" lon="14.5731">
        <ele>280.195083</ele>
        <time>2022-08-05T23:22:58.038Z</time>
      </trkpt>
      <trkpt lat="46.05475" lon="14.57313">
        <ele>280.186178</ele>
        <time>2022-08-05T23:22:58.919Z</time>
      </trkpt>
      <trkpt lat="46.05477" lon="14.57315">
        <ele>280.17842</ele>
        <time>2022-08-05T23:22:59.717Z</time>
      </trkpt>
      <trkpt lat="46.05479" lon="14.5732">
        <ele>280.165</ele>
        <time>2022-08-05T23:23:01.057Z</time>
      </trkpt>
      <trkpt lat="46.05478" lon="14.57326">
        <ele>280.152128</ele>
        <time>2022-08-05T23:23:02.153Z</time>
      </trkpt>
      <trkpt lat="46.05478" lon="14.5733">
        <ele>280.141832</ele>
        <time>2022-08-05T23:23:02.996Z</time>
      </trkpt>
      <trkpt lat="46.05476" lon="14.57335">
        <ele>280.132933</ele>
        <time>2022-08-05T23:23:03.894Z</time>
      </trkpt>
      <trkpt lat="46.05476" lon="14.57347">
        <ele>280.175847</ele>
        <time>2022-08-05T23:23:06.140Z</time>
      </trkpt>
      <trkpt lat="46.05461" lon="14.5741">
        <ele>280.414193</ele>
        <time>2022-08-05T23:23:20.213Z</time>
      </trkpt>
      <trkpt lat="46.0546" lon="14.57414">
        <ele>280.429578</ele>
        <time>2022-08-05T23:23:21.237Z</time>
      </trkpt>
      <trkpt lat="46.05458" lon="14.5742">
        <ele>280.455659</ele>
        <time>2022-08-05T23:23:22.991Z</time>
      </trkpt>
      <trkpt lat="46.05456" lon="14.57427">
        <ele>280.479162</ele>
        <time>2022-08-05T23:23:24.334Z</time>
      </trkpt>
      <trkpt lat="46.05455" lon="14.57433">
        <ele>280.501798</ele>
        <time>2022-08-05T23:23:25.612Z</time>
      </trkpt>
      <trkpt lat="46.05452" lon="14.57438">
        <ele>280.527797</ele>
        <time>2022-08-05T23:23:27.064Z</time>
      </trkpt>
      <trkpt lat="46.0545" lon="14.57441">
        <ele>280.542493</ele>
        <time>2022-08-05T23:23:27.854Z</time>
      </trkpt>
      <trkpt lat="46.05448" lon="14.57444">
        <ele>280.556343</ele>
        <time>2022-08-05T23:23:28.570Z</time>
      </trkpt>
      <trkpt lat="46.05449" lon="14.57468">
        <ele>280.639025</ele>
        <time>2022-08-05T23:23:33.855Z</time>
      </trkpt>
      <trkpt lat="46.05427" lon="14.57638">
        <ele>280.926473</ele>
        <time>2022-08-05T23:24:08.051Z</time>
      </trkpt>
      <trkpt lat="46.05425" lon="14.57645">
        <ele>280.908446</ele>
        <time>2022-08-05T23:24:09.374Z</time>
      </trkpt>
      <trkpt lat="46.05424" lon="14.57653">
        <ele>280.889175</ele>
        <time>2022-08-05T23:24:11.024Z</time>
      </trkpt>
      <trkpt lat="46.05422" lon="14.57663">
        <ele>280.867328</ele>
        <time>2022-08-05T23:24:12.968Z</time>
      </trkpt>
      <trkpt lat="46.0542" lon="14.57675">
        <ele>280.838579</ele>
        <time>2022-08-05T23:24:15.339Z</time>
      </trkpt>
      <trkpt lat="46.05419" lon="14.57686">
        <ele>280.811043</ele>
        <time>2022-08-05T23:24:17.340Z</time>
      </trkpt>
      <trkpt lat="46.05414" lon="14.57737">
        <ele>280.691612</ele>
        <time>2022-08-05T23:24:25.772Z</time>
      </trkpt>
      <trkpt lat="46.05415" lon="14.57759">
        <ele>280.640039</ele>
        <time>2022-08-05T23:24:29.486Z</time>
      </trkpt>
      <trkpt lat="46.0541" lon="14.57934">
        <ele>280.334025</ele>
        <time>2022-08-05T23:24:58.311Z</time>
      </trkpt>
      <trkpt lat="46.0541" lon="14.58073">
        <ele>280.161684</ele>
        <time>2022-08-05T23:25:23.985Z</time>
      </trkpt>
      <trkpt lat="46.0539" lon="14.58209">
        <ele>280.271927</ele>
        <time>2022-08-05T23:25:52.965Z</time>
      </trkpt>
      <trkpt lat="46.05389" lon="14.58213">
        <ele>280.27693</ele>
        <time>2022-08-05T23:25:53.776Z</time>
      </trkpt>
      <trkpt lat="46.05389" lon="14.58217">
        <ele>280.282499</ele>
        <time>2022-08-05T23:25:54.721Z</time>
      </trkpt>
      <trkpt lat="46.05379" lon="14.58304">
        <ele>280.391885</ele>
        <time>2022-08-05T23:26:11.642Z</time>
      </trkpt>
      <trkpt lat="46.05379" lon="14.5831">
        <ele>280.398861</ele>
        <time>2022-08-05T23:26:12.642Z</time>
      </trkpt>
      <trkpt lat="46.05379" lon="14.58315">
        <ele>280.405589</ele>
        <time>2022-08-05T23:26:13.560Z</time>
      </trkpt>
      <trkpt lat="46.05378" lon="14.58319">
        <ele>280.410608</ele>
        <time>2022-08-05T23:26:14.275Z</time>
      </trkpt>
      <trkpt lat="46.05375" lon="14.5834">
        <ele>280.437312</ele>
        <time>2022-08-05T23:26:17.982Z</time>
      </trkpt>
      <trkpt lat="46.05373" lon="14.58366">
        <ele>280.35514</ele>
        <time>2022-08-05T23:26:22.516Z</time>
      </trkpt>
      <trkpt lat="46.05374" lon="14.58382">
        <ele>280.250641</ele>
        <time>2022-08-05T23:26:25.059Z</time>
      </trkpt>
      <trkpt lat="46.05376" lon="14.58424">
        <ele>279.964547</ele>
        <time>2022-08-05T23:26:32.084Z</time>
      </trkpt>
      <trkpt lat="46.05379" lon="14.58466">
        <ele>279.677436</ele>
        <time>2022-08-05T23:26:38.959Z</time>
      </trkpt>
      <trkpt lat="46.05378" lon="14.5847">
        <ele>279.652501</ele>
        <time>2022-08-05T23:26:39.523Z</time>
      </trkpt>
      <trkpt lat="46.05377" lon="14.58474">
        <ele>279.621663</ele>
        <time>2022-08-05T23:26:40.235Z</time>
      </trkpt>
      <trkpt lat="46.05376" lon="14.58483">
        <ele>279.562142</ele>
        <time>2022-08-05T23:26:41.600Z</time>
      </trkpt>
      <trkpt lat="46.05377" lon="14.58489">
        <ele>279.521122</ele>
        <time>2022-08-05T23:26:42.530Z</time>
      </trkpt>
      <trkpt lat="46.05394" lon="14.58664">
        <ele>278.329846</ele>
        <time>2022-08-05T23:27:10.148Z</time>
      </trkpt>
      <trkpt lat="46.05396" lon="14.58673">
        <ele>278.267478</ele>
        <time>2022-08-05T23:27:11.609Z</time>
      </trkpt>
      <trkpt lat="46.05397" lon="14.58683">
        <ele>278.202503</ele>
        <time>2022-08-05T23:27:13.096Z</time>
      </trkpt>
      <trkpt lat="46.05399" lon="14.58756">
        <ele>277.716365</ele>
        <time>2022-08-05T23:27:24.563Z</time>
      </trkpt>
      <trkpt lat="46.05399" lon="14.58764">
        <ele>277.665301</ele>
        <time>2022-08-05T23:27:25.763Z</time>
      </trkpt>
      <trkpt lat="46.05398" lon="14.58772">
        <ele>277.611609</ele>
        <time>2022-08-05T23:27:27.086Z</time>
      </trkpt>
      <trkpt lat="46.05397" lon="14.58804">
        <ele>277.398157</ele>
        <time>2022-08-05T23:27:32.418Z</time>
      </trkpt>
      <trkpt lat="46.05396" lon="14.58819">
        <ele>277.29862</ele>
        <time>2022-08-05T23:27:34.895Z</time>
      </trkpt>
      <trkpt lat="46.05385" lon="14.58885">
        <ele>276.944871</ele>
        <time>2022-08-05T23:27:46.826Z</time>
      </trkpt>
      <trkpt lat="46.05382" lon="14.58916">
        <ele>276.892816</ele>
        <time>2022-08-05T23:27:52.580Z</time>
      </trkpt>
      <trkpt lat="46.05367" lon="14.58963">
        <ele>276.809715</ele>
        <time>2022-08-05T23:28:01.780Z</time>
      </trkpt>
      <trkpt lat="46.05348" lon="14.58978">
        <ele>276.757467</ele>
        <time>2022-08-05T23:28:07.604Z</time>
      </trkpt>
      <trkpt lat="46.05345" lon="14.58984">
        <ele>276.744569</ele>
        <time>2022-08-05T23:28:09.056Z</time>
      </trkpt>
      <trkpt lat="46.05341" lon="14.59003">
        <ele>276.713838</ele>
        <time>2022-08-05T23:28:12.436Z</time>
      </trkpt>
      <trkpt lat="46.05341" lon="14.5901">
        <ele>276.701577</ele>
        <time>2022-08-05T23:28:13.823Z</time>
      </trkpt>
      <trkpt lat="46.05343" lon="14.5902">
        <ele>276.685407</ele>
        <time>2022-08-05T23:28:15.607Z</time>
      </trkpt>
      <trkpt lat="46.05347" lon="14.59031">
        <ele>276.663687</ele>
        <time>2022-08-05T23:28:17.990Z</time>
      </trkpt>
      <trkpt lat="46.05349" lon="14.59034">
        <ele>276.658653</ele>
        <time>2022-08-05T23:28:18.534Z</time>
      </trkpt>
      <trkpt lat="46.0536" lon="14.59088">
        <ele>276.565897</ele>
        <time>2022-08-05T23:28:28.621Z</time>
      </trkpt>
      <trkpt lat="46.05373" lon="14.59101">
        <ele>276.529459</ele>
        <time>2022-08-05T23:28:32.725Z</time>
      </trkpt>
      <trkpt lat="46.05376" lon="14.59109">
        <ele>276.515583</ele>
        <time>2022-08-05T23:28:34.333Z</time>
      </trkpt>
      <trkpt lat="46.05376" lon="14.59149">
        <ele>276.454428</ele>
        <time>2022-08-05T23:28:41.308Z</time>
      </trkpt>
      <trkpt lat="46.05374" lon="14.59165">
        <ele>276.42928</ele>
        <time>2022-08-05T23:28:44.182Z</time>
      </trkpt>
      <trkpt lat="46.05373" lon="14.59178">
        <ele>276.407979</ele>
        <time>2022-08-05T23:28:46.604Z</time>
      </trkpt>
      <trkpt lat="46.0537" lon="14.59201">
        <ele>276.371957</ele>
        <time>2022-08-05T23:28:50.808Z</time>
      </trkpt>
      <trkpt lat="46.05368" lon="14.59221">
        <ele>276.340728</ele>
        <time>2022-08-05T23:28:54.443Z</time>
      </trkpt>
      <trkpt lat="46.05367" lon="14.59223">
        <ele>276.337514</ele>
        <time>2022-08-05T23:28:54.799Z</time>
      </trkpt>
      <trkpt lat="46.05357" lon="14.5928">
        <ele>276.247622</ele>
        <time>2022-08-05T23:29:05.163Z</time>
      </trkpt>
      <trkpt lat="46.05356" lon="14.59287">
        <ele>276.235676</ele>
        <time>2022-08-05T23:29:06.554Z</time>
      </trkpt>
      <trkpt lat="46.05351" lon="14.59348">
        <ele>276.13558</ele>
        <time>2022-08-05T23:29:17.650Z</time>
      </trkpt>
      <trkpt lat="46.05349" lon="14.59384">
        <ele>276.056188</ele>
        <time>2022-08-05T23:29:24.124Z</time>
      </trkpt>
      <trkpt lat="46.05347" lon="14.59442">
        <ele>275.930145</ele>
        <time>2022-08-05T23:29:34.432Z</time>
      </trkpt>
      <trkpt lat="46.05346" lon="14.59456">
        <ele>275.899244</ele>
        <time>2022-08-05T23:29:36.971Z</time>
      </trkpt>
      <trkpt lat="46.05343" lon="14.59535">
        <ele>275.725385</ele>
        <time>2022-08-05T23:29:50.900Z</time>
      </trkpt>
      <trkpt lat="46.05342" lon="14.59616">
        <ele>275.514719</ele>
        <time>2022-08-05T23:30:04.828Z</time>
      </trkpt>
      <trkpt lat="46.05341" lon="14.59661">
        <ele>275.326365</ele>
        <time>2022-08-05T23:30:12.435Z</time>
      </trkpt>
      <trkpt lat="46.05315" lon="14.59786">
        <ele>274.776349</ele>
        <time>2022-08-05T23:30:34.133Z</time>
      </trkpt>
      <trkpt lat="46.05309" lon="14.59875">
        <ele>274.461498</ele>
        <time>2022-08-05T23:30:49.151Z</time>
      </trkpt>
      <trkpt lat="46.05305" lon="14.59936">
        <ele>274.365974</ele>
        <time>2022-08-05T23:30:59.595Z</time>
      </trkpt>
      <trkpt lat="46.05293" lon="14.59974">
        <ele>274.30027</ele>
        <time>2022-08-05T23:31:07.128Z</time>
      </trkpt>
      <trkpt lat="46.05287" lon="14.59989">
        <ele>274.273475</ele>
        <time>2022-08-05T23:31:10.243Z</time>
      </trkpt>
      <trkpt lat="46.05273" lon="14.60025">
        <ele>274.207606</ele>
        <time>2022-08-05T23:31:18.065Z</time>
      </trkpt>
      <trkpt lat="46.05256" lon="14.60123">
        <ele>274.032407</ele>
        <time>2022-08-05T23:31:36.917Z</time>
      </trkpt>
      <trkpt lat="46.05232" lon="14.60172">
        <ele>273.899042</ele>
        <time>2022-08-05T23:31:47.479Z</time>
      </trkpt>
      <trkpt lat="46.05216" lon="14.60195">
        <ele>273.825755</ele>
        <time>2022-08-05T23:31:52.835Z</time>
      </trkpt>
      <trkpt lat="46.05177" lon="14.60229">
        <ele>273.67804</ele>
        <time>2022-08-05T23:32:04.012Z</time>
      </trkpt>
      <trkpt lat="46.05165" lon="14.6025">
        <ele>273.617747</ele>
        <time>2022-08-05T23:32:08.611Z</time>
      </trkpt>
      <trkpt lat="46.05159" lon="14.60261">
        <ele>273.586459</ele>
        <time>2022-08-05T23:32:11.072Z</time>
      </trkpt>
      <trkpt lat="46.05145" lon="14.6032">
        <ele>273.52324</ele>
        <time>2022-08-05T23:32:22.477Z</time>
      </trkpt>
      <trkpt lat="46.05131" lon="14.60362">
        <ele>273.543498</ele>
        <time>2022-08-05T23:32:30.762Z</time>
      </trkpt>
      <trkpt lat="46.05121" lon="14.60426">
        <ele>273.573071</ele>
        <time>2022-08-05T23:32:43.446Z</time>
      </trkpt>
      <trkpt lat="46.05117" lon="14.60471">
        <ele>273.593022</ele>
        <time>2022-08-05T23:32:51.782Z</time>
      </trkpt>
      <trkpt lat="46.05152" lon="14.60576">
        <ele>273.579817</ele>
        <time>2022-08-05T23:33:14.029Z</time>
      </trkpt>
      <trkpt lat="46.05168" lon="14.60629">
        <ele>273.517523</ele>
        <time>2022-08-05T23:33:25.985Z</time>
      </trkpt>
      <trkpt lat="46.0518" lon="14.60674">
        <ele>273.466039</ele>
        <time>2022-08-05T23:33:35.471Z</time>
      </trkpt>
      <trkpt lat="46.05193" lon="14.60727">
        <ele>273.405717</ele>
        <time>2022-08-05T23:33:45.454Z</time>
      </trkpt>
      <trkpt lat="46.05229" lon="14.6082">
        <ele>272.802721</ele>
        <time>2022-08-05T23:34:02.286Z</time>
      </trkpt>
      <trkpt lat="46.05222" lon="14.6084">
        <ele>272.56897</ele>
        <time>2022-08-05T23:34:05.710Z</time>
      </trkpt>
      <trkpt lat="46.05192" lon="14.60848">
        <ele>272.120324</ele>
        <time>2022-08-05T23:34:12.217Z</time>
      </trkpt>
      <trkpt lat="46.05162" lon="14.60856">
        <ele>271.668125</ele>
        <time>2022-08-05T23:34:18.906Z</time>
      </trkpt>
      <trkpt lat="46.05135" lon="14.60867">
        <ele>271.241913</ele>
        <time>2022-08-05T23:34:25.182Z</time>
      </trkpt>
      <trkpt lat="46.05109" lon="14.60878">
        <ele>270.841263</ele>
        <time>2022-08-05T23:34:30.954Z</time>
      </trkpt>
      <trkpt lat="46.05056" lon="14.60904">
        <ele>270.071782</ele>
        <time>2022-08-05T23:34:42.869Z</time>
      </trkpt>
      <trkpt lat="46.05052" lon="14.60922">
        <ele>269.894203</ele>
        <time>2022-08-05T23:34:45.697Z</time>
      </trkpt>
      <trkpt lat="46.05055" lon="14.6096">
        <ele>269.541569</ele>
        <time>2022-08-05T23:34:51.326Z</time>
      </trkpt>
      <trkpt lat="46.0506" lon="14.60994">
        <ele>269.210582</ele>
        <time>2022-08-05T23:34:56.750Z</time>
      </trkpt>
      <trkpt lat="46.05053" lon="14.6102">
        <ele>268.958202</ele>
        <time>2022-08-05T23:35:00.988Z</time>
      </trkpt>
      <trkpt lat="46.05045" lon="14.61027">
        <ele>268.831304</ele>
        <time>2022-08-05T23:35:03.196Z</time>
      </trkpt>
      <trkpt lat="46.05002" lon="14.61059">
        <ele>268.22592</ele>
        <time>2022-08-05T23:35:14.845Z</time>
      </trkpt>
      <trkpt lat="46.04957" lon="14.61093">
        <ele>268.035932</ele>
        <time>2022-08-05T23:35:27.349Z</time>
      </trkpt>
      <trkpt lat="46.04985" lon="14.61185">
        <ele>267.773808</ele>
        <time>2022-08-05T23:35:57.059Z</time>
      </trkpt>
      <trkpt lat="46.04978" lon="14.61202">
        <ele>267.721712</ele>
        <time>2022-08-05T23:36:03.096Z</time>
      </trkpt>
      <trkpt lat="46.04965" lon="14.61215">
        <ele>267.66272</ele>
        <time>2022-08-05T23:36:09.938Z</time>
      </trkpt>
      <trkpt lat="46.04901" lon="14.61251">
        <ele>267.631647</ele>
        <time>2022-08-05T23:36:40.360Z</time>
      </trkpt>
      <trkpt lat="46.04888" lon="14.61266">
        <ele>267.655669</ele>
        <time>2022-08-05T23:36:47.713Z</time>
      </trkpt>
      <trkpt lat="46.04864" lon="14.6134">
        <ele>267.739457</ele>
        <time>2022-08-05T23:37:13.295Z</time>
      </trkpt>
      <trkpt lat="46.04827" lon="14.6141">
        <ele>267.829155</ele>
        <time>2022-08-05T23:37:41.345Z</time>
      </trkpt>
      <trkpt lat="46.04809" lon="14.61434">
        <ele>267.964095</ele>
        <time>2022-08-05T23:37:52.569Z</time>
      </trkpt>
      <trkpt lat="46.04784" lon="14.61451">
        <ele>268.130145</ele>
        <time>2022-08-05T23:38:05.503Z</time>
      </trkpt>
      <trkpt lat="46.04773" lon="14.61471">
        <ele>268.233381</ele>
        <time>2022-08-05T23:38:13.704Z</time>
      </trkpt>
      <trkpt lat="46.0478" lon="14.61515">
        <ele>268.418638</ele>
        <time>2022-08-05T23:38:28.184Z</time>
      </trkpt>
      <trkpt lat="46.04785" lon="14.61541">
        <ele>268.531828</ele>
        <time>2022-08-05T23:38:36.927Z</time>
      </trkpt>
      <trkpt lat="46.04785" lon="14.61564">
        <ele>268.625885</ele>
        <time>2022-08-05T23:38:44.366Z</time>
      </trkpt>
      <trkpt lat="46.04775" lon="14.6162">
        <ele>268.86252</ele>
        <time>2022-08-05T23:39:03.902Z</time>
      </trkpt>
      <trkpt lat="46.04752" lon="14.61667">
        <ele>269.306018</ele>
        <time>2022-08-05T23:39:24.455Z</time>
      </trkpt>
      <trkpt lat="46.04717" lon="14.6176">
        <ele>270.193495</ele>
        <time>2022-08-05T23:40:01.760Z</time>
      </trkpt>
      <trkpt lat="46.04717" lon="14.61777">
        <ele>270.332584</ele>
        <time>2022-08-05T23:40:07.834Z</time>
      </trkpt>
      <trkpt lat="46.04719" lon="14.61785">
        <ele>270.408972</ele>
        <time>2022-08-05T23:40:11.031Z</time>
      </trkpt>
      <trkpt lat="46.04743" lon="14.61824">
        <ele>270.838728</ele>
        <time>2022-08-05T23:40:28.957Z</time>
      </trkpt>
      <trkpt lat="46.04748" lon="14.61841">
        <ele>270.996902</ele>
        <time>2022-08-05T23:40:35.293Z</time>
      </trkpt>
      <trkpt lat="46.04772" lon="14.61916">
        <ele>271.148918</ele>
        <time>2022-08-05T23:41:03.181Z</time>
      </trkpt>
      <trkpt lat="46.04809" lon="14.61958">
        <ele>271.221688</ele>
        <time>2022-08-05T23:41:25.897Z</time>
      </trkpt>
      <trkpt lat="46.04832" lon="14.6197">
        <ele>271.258413</ele>
        <time>2022-08-05T23:41:36.873Z</time>
      </trkpt>
      <trkpt lat="46.04907" lon="14.61955">
        <ele>271.27446</ele>
        <time>2022-08-05T23:42:07.795Z</time>
      </trkpt>
      <trkpt lat="46.04941" lon="14.61957">
        <ele>271.144303</ele>
        <time>2022-08-05T23:42:21.126Z</time>
      </trkpt>
      <trkpt lat="46.04977" lon="14.61967">
        <ele>271.004676</ele>
        <time>2022-08-05T23:42:35.312Z</time>
      </trkpt>
      <trkpt lat="46.0509" lon="14.6199">
        <ele>271.232566</ele>
        <time>2022-08-05T23:43:26.528Z</time>
      </trkpt>
      <trkpt lat="46.05114" lon="14.62">
        <ele>271.835874</ele>
        <time>2022-08-05T23:43:41.213Z</time>
      </trkpt>
      <trkpt lat="46.05143" lon="14.62023">
        <ele>272.654349</ele>
        <time>2022-08-05T23:44:01.281Z</time>
      </trkpt>
      <trkpt lat="46.05178" lon="14.62072">
        <ele>273.848449</ele>
        <time>2022-08-05T23:44:29.907Z</time>
      </trkpt>
      <trkpt lat="46.05204" lon="14.62082">
        <ele>274.502299</ele>
        <time>2022-08-05T23:44:46.766Z</time>
      </trkpt>
      <trkpt lat="46.05257" lon="14.6215">
        <ele>275.4993</ele>
        <time>2022-08-05T23:45:27.458Z</time>
      </trkpt>
      <trkpt lat="46.0528" lon="14.62171">
        <ele>275.742956</ele>
        <time>2022-08-05T23:45:41.876Z</time>
      </trkpt>
      <trkpt lat="46.05331" lon="14.62199">
        <ele>276.235794</ele>
        <time>2022-08-05T23:46:09.268Z</time>
      </trkpt>
      <trkpt lat="46.05352" lon="14.62203">
        <ele>276.433517</ele>
        <time>2022-08-05T23:46:17.923Z</time>
      </trkpt>
      <trkpt lat="46.05406" lon="14.62178">
        <ele>276.675218</ele>
        <time>2022-08-05T23:46:39.353Z</time>
      </trkpt>
      <trkpt lat="46.05437" lon="14.62181">
        <ele>276.661179</ele>
        <time>2022-08-05T23:46:51.002Z</time>
      </trkpt>
      <trkpt lat="46.05479" lon="14.62225">
        <ele>276.637716</ele>
        <time>2022-08-05T23:47:11.757Z</time>
      </trkpt>
      <trkpt lat="46.05557" lon="14.62283">
        <ele>277.392012</ele>
        <time>2022-08-05T23:47:59.540Z</time>
      </trkpt>
      <trkpt lat="46.05585" lon="14.62326">
        <ele>279.0716</ele>
        <time>2022-08-05T23:48:22.919Z</time>
      </trkpt>
      <trkpt lat="46.05623" lon="14.62352">
        <ele>280.786645</ele>
        <time>2022-08-05T23:48:50.564Z</time>
      </trkpt>
      <trkpt lat="46.05628" lon="14.62355">
        <ele>281.002857</ele>
        <time>2022-08-05T23:48:54.175Z</time>
      </trkpt>
      <trkpt lat="46.05645" lon="14.62363">
        <ele>281.71269</ele>
        <time>2022-08-05T23:49:06.964Z</time>
      </trkpt>
      <trkpt lat="46.05701" lon="14.62316">
        <ele>284.25723</ele>
        <time>2022-08-05T23:49:52.046Z</time>
      </trkpt>
      <trkpt lat="46.05732" lon="14.62294">
        <ele>285.362581</ele>
        <time>2022-08-05T23:50:17.056Z</time>
      </trkpt>
      <trkpt lat="46.05771" lon="14.6229">
        <ele>286.618997</ele>
        <time>2022-08-05T23:50:44.740Z</time>
      </trkpt>
      <trkpt lat="46.05933" lon="14.62235">
        <ele>287.596089</ele>
        <time>2022-08-05T23:52:08.693Z</time>
      </trkpt>
      <trkpt lat="46.06025" lon="14.62242">
        <ele>284.89163</ele>
        <time>2022-08-05T23:52:25.239Z</time>
      </trkpt>
      <trkpt lat="46.06068" lon="14.62227">
        <ele>283.301158</ele>
        <time>2022-08-05T23:52:32.866Z</time>
      </trkpt>
      <trkpt lat="46.06116" lon="14.6222">
        <ele>281.377412</ele>
        <time>2022-08-05T23:52:41.266Z</time>
      </trkpt>
      <trkpt lat="46.06157" lon="14.62215">
        <ele>279.734368</ele>
        <time>2022-08-05T23:52:48.848Z</time>
      </trkpt>
      <trkpt lat="46.06185" lon="14.62213">
        <ele>278.608763</ele>
        <time>2022-08-05T23:52:54.211Z</time>
      </trkpt>
      <trkpt lat="46.06211" lon="14.62229">
        <ele>277.490386</ele>
        <time>2022-08-05T23:53:00.079Z</time>
      </trkpt>
      <trkpt lat="46.06223" lon="14.62227">
        <ele>277.487082</ele>
        <time>2022-08-05T23:53:02.676Z</time>
      </trkpt>
      <trkpt lat="46.06245" lon="14.62283">
        <ele>279.603786</ele>
        <time>2022-08-05T23:53:21.225Z</time>
      </trkpt>
      <trkpt lat="46.06308" lon="14.62391">
        <ele>284.22284</ele>
        <time>2022-08-05T23:54:16.110Z</time>
      </trkpt>
      <trkpt lat="46.06338" lon="14.62453">
        <ele>286.85671</ele>
        <time>2022-08-05T23:54:50.546Z</time>
      </trkpt>
      <trkpt lat="46.06407" lon="14.62599">
        <ele>293.629999</ele>
        <time>2022-08-05T23:55:59.464Z</time>
      </trkpt>
      <trkpt lat="46.0649" lon="14.62739">
        <ele>297.359403</ele>
        <time>2022-08-05T23:56:49.001Z</time>
      </trkpt>
      <trkpt lat="46.06561" lon="14.62869">
        <ele>299.432096</ele>
        <time>2022-08-05T23:57:24.260Z</time>
      </trkpt>
      <trkpt lat="46.06698" lon="14.63183">
        <ele>302.820768</ele>
        <time>2022-08-05T23:58:52.859Z</time>
      </trkpt>
      <trkpt lat="46.06726" lon="14.63228">
        <ele>303.298123</ele>
        <time>2022-08-05T23:59:06.182Z</time>
      </trkpt>
      <trkpt lat="46.06753" lon="14.6326">
        <ele>303.682758</ele>
        <time>2022-08-05T23:59:16.644Z</time>
      </trkpt>
      <trkpt lat="46.06894" lon="14.63387">
        <ele>302.452718</ele>
        <time>2022-08-05T23:59:57.883Z</time>
      </trkpt>
      <trkpt lat="46.06929" lon="14.63409">
        <ele>300.995758</ele>
        <time>2022-08-06T00:00:05.790Z</time>
      </trkpt>
      <trkpt lat="46.07011" lon="14.63441">
        <ele>296.397723</ele>
        <time>2022-08-06T00:00:21.388Z</time>
      </trkpt>
      <trkpt lat="46.07039" lon="14.63462">
        <ele>294.666439</ele>
        <time>2022-08-06T00:00:26.898Z</time>
      </trkpt>
      <trkpt lat="46.07159" lon="14.63623">
        <ele>282.502576</ele>
        <time>2022-08-06T00:00:53.980Z</time>
      </trkpt>
      <trkpt lat="46.07167" lon="14.63631">
        <ele>281.699634</ele>
        <time>2022-08-06T00:00:55.634Z</time>
      </trkpt>
      <trkpt lat="46.07172" lon="14.63638">
        <ele>281.152644</ele>
        <time>2022-08-06T00:00:56.763Z</time>
      </trkpt>
      <trkpt lat="46.07174" lon="14.63643">
        <ele>280.83176</ele>
        <time>2022-08-06T00:00:57.422Z</time>
      </trkpt>
      <trkpt lat="46.07207" lon="14.63706">
        <ele>277.544954</ele>
        <time>2022-08-06T00:01:06.851Z</time>
      </trkpt>
      <trkpt lat="46.0733" lon="14.63892">
        <ele>273.714578</ele>
        <time>2022-08-06T00:01:44.083Z</time>
      </trkpt>
      <trkpt lat="46.07342" lon="14.63904">
        <ele>274.19971</ele>
        <time>2022-08-06T00:01:48.939Z</time>
      </trkpt>
      <trkpt lat="46.07399" lon="14.63939">
        <ele>276.288599</ele>
        <time>2022-08-06T00:02:13.549Z</time>
      </trkpt>
      <trkpt lat="46.0743" lon="14.63976">
        <ele>277.651964</ele>
        <time>2022-08-06T00:02:33.862Z</time>
      </trkpt>
      <trkpt lat="46.07479" lon="14.64075">
        <ele>281.806185</ele>
        <time>2022-08-06T00:03:24.969Z</time>
      </trkpt>
      <trkpt lat="46.07516" lon="14.64193">
        <ele>287.692861</ele>
        <time>2022-08-06T00:04:22.582Z</time>
      </trkpt>
      <trkpt lat="46.07527" lon="14.6425">
        <ele>290.387809</ele>
        <time>2022-08-06T00:04:45.209Z</time>
      </trkpt>
      <trkpt lat="46.07532" lon="14.64356">
        <ele>290.651864</ele>
        <time>2022-08-06T00:05:17.029Z</time>
      </trkpt>
      <trkpt lat="46.07514" lon="14.64622">
        <ele>286.666758</ele>
        <time>2022-08-06T00:05:53.445Z</time>
      </trkpt>
      <trkpt lat="46.07536" lon="14.64919">
        <ele>276.484586</ele>
        <time>2022-08-06T00:06:29.718Z</time>
      </trkpt>
      <trkpt lat="46.0755" lon="14.65053">
        <ele>272.504835</ele>
        <time>2022-08-06T00:06:47.675Z</time>
      </trkpt>
      <trkpt lat="46.07552" lon="14.65066">
        <ele>272.481645</ele>
        <time>2022-08-06T00:06:49.483Z</time>
      </trkpt>
      <trkpt lat="46.07555" lon="14.65081">
        <ele>272.451665</ele>
        <time>2022-08-06T00:06:51.818Z</time>
      </trkpt>
      <trkpt lat="46.0758" lon="14.65226">
        <ele>272.176133</ele>
        <time>2022-08-06T00:07:16.987Z</time>
      </trkpt>
      <trkpt lat="46.07597" lon="14.65282">
        <ele>272.06396</ele>
        <time>2022-08-06T00:07:30.610Z</time>
      </trkpt>
      <trkpt lat="46.07687" lon="14.65459">
        <ele>279.533048</ele>
        <time>2022-08-06T00:08:47.077Z</time>
      </trkpt>
      <trkpt lat="46.0772" lon="14.65563">
        <ele>283.988725</ele>
        <time>2022-08-06T00:09:37.120Z</time>
      </trkpt>
      <trkpt lat="46.07726" lon="14.65615">
        <ele>286.185008</ele>
        <time>2022-08-06T00:10:00.330Z</time>
      </trkpt>
      <trkpt lat="46.07731" lon="14.6573">
        <ele>290.977976</ele>
        <time>2022-08-06T00:10:45.842Z</time>
      </trkpt>
      <trkpt lat="46.07757" lon="14.65843">
        <ele>291.864168</ele>
        <time>2022-08-06T00:11:14.166Z</time>
      </trkpt>
      <trkpt lat="46.0778" lon="14.66006">
        <ele>292.163276</ele>
        <time>2022-08-06T00:11:39.178Z</time>
      </trkpt>
      <trkpt lat="46.07788" lon="14.66131">
        <ele>292.86265</ele>
        <time>2022-08-06T00:12:01.861Z</time>
      </trkpt>
      <trkpt lat="46.07777" lon="14.66264">
        <ele>293.613732</ele>
        <time>2022-08-06T00:12:35.864Z</time>
      </trkpt>
      <trkpt lat="46.07783" lon="14.66339">
        <ele>294.09476</ele>
        <time>2022-08-06T00:12:57.565Z</time>
      </trkpt>
      <trkpt lat="46.07796" lon="14.66401">
        <ele>294.503245</ele>
        <time>2022-08-06T00:13:14.510Z</time>
      </trkpt>
      <trkpt lat="46.0785" lon="14.66516">
        <ele>294.864962</ele>
        <time>2022-08-06T00:13:39.010Z</time>
      </trkpt>
      <trkpt lat="46.07859" lon="14.66544">
        <ele>294.487993</ele>
        <time>2022-08-06T00:13:42.788Z</time>
      </trkpt>
      <trkpt lat="46.07875" lon="14.66632">
        <ele>293.360548</ele>
        <time>2022-08-06T00:13:54.079Z</time>
      </trkpt>
      <trkpt lat="46.07923" lon="14.66774">
        <ele>293.485711</ele>
        <time>2022-08-06T00:14:27.955Z</time>
      </trkpt>
      <trkpt lat="46.07925" lon="14.66779">
        <ele>293.680002</ele>
        <time>2022-08-06T00:14:29.619Z</time>
      </trkpt>
      <trkpt lat="46.07934" lon="14.66808">
        <ele>294.61522</ele>
        <time>2022-08-06T00:14:38.769Z</time>
      </trkpt>
      <trkpt lat="46.07968" lon="14.66871">
        <ele>297.055676</ele>
        <time>2022-08-06T00:15:05.595Z</time>
      </trkpt>
      <trkpt lat="46.08036" lon="14.66975">
        <ele>301.243912</ele>
        <time>2022-08-06T00:16:06.131Z</time>
      </trkpt>
      <trkpt lat="46.08081" lon="14.67068">
        <ele>304.353929</ele>
        <time>2022-08-06T00:16:45.529Z</time>
      </trkpt>
      <trkpt lat="46.08125" lon="14.67132">
        <ele>306.822122</ele>
        <time>2022-08-06T00:17:06.588Z</time>
      </trkpt>
      <trkpt lat="46.08147" lon="14.67174">
        <ele>307.262366</ele>
        <time>2022-08-06T00:17:17.015Z</time>
      </trkpt>
      <trkpt lat="46.08163" lon="14.67223">
        <ele>307.579507</ele>
        <time>2022-08-06T00:17:28.115Z</time>
      </trkpt>
      <trkpt lat="46.08198" lon="14.67389">
        <ele>308.418445</ele>
        <time>2022-08-06T00:18:05.528Z</time>
      </trkpt>
      <trkpt lat="46.08222" lon="14.67455">
        <ele>307.984141</ele>
        <time>2022-08-06T00:18:20.581Z</time>
      </trkpt>
      <trkpt lat="46.08258" lon="14.67512">
        <ele>307.535983</ele>
        <time>2022-08-06T00:18:34.305Z</time>
      </trkpt>
      <trkpt lat="46.0831" lon="14.67573">
        <ele>306.937184</ele>
        <time>2022-08-06T00:18:47.731Z</time>
      </trkpt>
      <trkpt lat="46.08373" lon="14.67658">
        <ele>305.284107</ele>
        <time>2022-08-06T00:19:05.529Z</time>
      </trkpt>
      <trkpt lat="46.0842" lon="14.67704">
        <ele>304.185932</ele>
        <time>2022-08-06T00:19:17.504Z</time>
      </trkpt>
      <trkpt lat="46.08455" lon="14.67726">
        <ele>303.551409</ele>
        <time>2022-08-06T00:19:25.868Z</time>
      </trkpt>
      <trkpt lat="46.0856" lon="14.67771">
        <ele>304.198911</ele>
        <time>2022-08-06T00:19:54.849Z</time>
      </trkpt>
      <trkpt lat="46.08613" lon="14.67814">
        <ele>304.563698</ele>
        <time>2022-08-06T00:20:18.865Z</time>
      </trkpt>
      <trkpt lat="46.0868" lon="14.67911">
        <ele>304.92959</ele>
        <time>2022-08-06T00:20:50.897Z</time>
      </trkpt>
      <trkpt lat="46.08723" lon="14.68029">
        <ele>305.197459</ele>
        <time>2022-08-06T00:21:13.581Z</time>
      </trkpt>
      <trkpt lat="46.08736" lon="14.68079">
        <ele>303.997763</ele>
        <time>2022-08-06T00:21:21.615Z</time>
      </trkpt>
      <trkpt lat="46.08752" lon="14.68203">
        <ele>301.168678</ele>
        <time>2022-08-06T00:21:40.113Z</time>
      </trkpt>
      <trkpt lat="46.08769" lon="14.68444">
        <ele>291.861533</ele>
        <time>2022-08-06T00:22:11.346Z</time>
      </trkpt>
      <trkpt lat="46.08778" lon="14.68502">
        <ele>289.147179</ele>
        <time>2022-08-06T00:22:18.653Z</time>
      </trkpt>
      <trkpt lat="46.08835" lon="14.68722">
        <ele>276.678139</ele>
        <time>2022-08-06T00:22:47.034Z</time>
      </trkpt>
      <trkpt lat="46.08878" lon="14.68915">
        <ele>269.695199</ele>
        <time>2022-08-06T00:23:13.209Z</time>
      </trkpt>
      <trkpt lat="46.08889" lon="14.68991">
        <ele>267.669831</ele>
        <time>2022-08-06T00:23:24.800Z</time>
      </trkpt>
      <trkpt lat="46.08902" lon="14.69151">
        <ele>267.197867</ele>
        <time>2022-08-06T00:23:55.899Z</time>
      </trkpt>
      <trkpt lat="46.08903" lon="14.69288">
        <ele>267.80137</ele>
        <time>2022-08-06T00:24:29.090Z</time>
      </trkpt>
      <trkpt lat="46.08895" lon="14.69414">
        <ele>268.704532</ele>
        <time>2022-08-06T00:24:59.812Z</time>
      </trkpt>
      <trkpt lat="46.08874" lon="14.69579">
        <ele>269.544946</ele>
        <time>2022-08-06T00:25:36.376Z</time>
      </trkpt>
      <trkpt lat="46.08728" lon="14.70211">
        <ele>267.52596</ele>
        <time>2022-08-06T00:27:34.712Z</time>
      </trkpt>
      <trkpt lat="46.08629" lon="14.70655">
        <ele>266.691037</ele>
        <time>2022-08-06T00:29:01.000Z</time>
      </trkpt>
      <trkpt lat="46.08596" lon="14.70753">
        <ele>266.58042</ele>
        <time>2022-08-06T00:29:20.748Z</time>
      </trkpt>
      <trkpt lat="46.0858" lon="14.70825">
        <ele>267.141642</ele>
        <time>2022-08-06T00:29:36.258Z</time>
      </trkpt>
      <trkpt lat="46.08561" lon="14.70876">
        <ele>267.73662</ele>
        <time>2022-08-06T00:29:49.161Z</time>
      </trkpt>
      <trkpt lat="46.08528" lon="14.70936">
        <ele>268.527278</ele>
        <time>2022-08-06T00:30:08.183Z</time>
      </trkpt>
      <trkpt lat="46.08427" lon="14.71209">
        <ele>273.897267</ele>
        <time>2022-08-06T00:31:37.542Z</time>
      </trkpt>
      <trkpt lat="46.08369" lon="14.71461">
        <ele>278.923439</ele>
        <time>2022-08-06T00:32:51.161Z</time>
      </trkpt>
      <trkpt lat="46.08356" lon="14.71605">
        <ele>282.553319</ele>
        <time>2022-08-06T00:33:37.038Z</time>
      </trkpt>
      <trkpt lat="46.08351" lon="14.7173">
        <ele>285.74375</ele>
        <time>2022-08-06T00:34:18.766Z</time>
      </trkpt>
      <trkpt lat="46.08346" lon="14.71804">
        <ele>286.728068</ele>
        <time>2022-08-06T00:34:41.127Z</time>
      </trkpt>
      <trkpt lat="46.08331" lon="14.7188">
        <ele>287.75108</ele>
        <time>2022-08-06T00:35:01.365Z</time>
      </trkpt>
      <trkpt lat="46.08327" lon="14.71932">
        <ele>288.437631</ele>
        <time>2022-08-06T00:35:14.031Z</time>
      </trkpt>
      <trkpt lat="46.08318" lon="14.72355">
        <ele>288.890262</ele>
        <time>2022-08-06T00:36:34.878Z</time>
      </trkpt>
      <trkpt lat="46.08306" lon="14.72495">
        <ele>288.557062</ele>
        <time>2022-08-06T00:37:00.508Z</time>
      </trkpt>
      <trkpt lat="46.08291" lon="14.7251">
        <ele>288.406718</ele>
        <time>2022-08-06T00:37:04.613Z</time>
      </trkpt>
      <trkpt lat="46.08287" lon="14.72611">
        <ele>287.610981</ele>
        <time>2022-08-06T00:37:22.024Z</time>
      </trkpt>
      <trkpt lat="46.08288" lon="14.72676">
        <ele>287.100434</ele>
        <time>2022-08-06T00:37:32.622Z</time>
      </trkpt>
      <trkpt lat="46.08295" lon="14.72713">
        <ele>286.800892</ele>
        <time>2022-08-06T00:37:38.449Z</time>
      </trkpt>
      <trkpt lat="46.08299" lon="14.72799">
        <ele>286.483859</ele>
        <time>2022-08-06T00:37:52.284Z</time>
      </trkpt>
      <trkpt lat="46.08309" lon="14.72859">
        <ele>286.459636</ele>
        <time>2022-08-06T00:38:03.203Z</time>
      </trkpt>
      <trkpt lat="46.08321" lon="14.7297">
        <ele>286.41574</ele>
        <time>2022-08-06T00:38:27.067Z</time>
      </trkpt>
      <trkpt lat="46.08325" lon="14.73156">
        <ele>286.433179</ele>
        <time>2022-08-06T00:39:09.047Z</time>
      </trkpt>
      <trkpt lat="46.08321" lon="14.7322">
        <ele>286.447105</ele>
        <time>2022-08-06T00:39:22.209Z</time>
      </trkpt>
      <trkpt lat="46.0832" lon="14.73253">
        <ele>286.454107</ele>
        <time>2022-08-06T00:39:27.360Z</time>
      </trkpt>
      <trkpt lat="46.0833" lon="14.73374">
        <ele>282.725222</ele>
        <time>2022-08-06T00:39:44.942Z</time>
      </trkpt>
      <trkpt lat="46.08329" lon="14.73462">
        <ele>279.697296</ele>
        <time>2022-08-06T00:39:55.876Z</time>
      </trkpt>
      <trkpt lat="46.08333" lon="14.73543">
        <ele>277.368899</ele>
        <time>2022-08-06T00:40:06.123Z</time>
      </trkpt>
      <trkpt lat="46.08353" lon="14.73622">
        <ele>276.638309</ele>
        <time>2022-08-06T00:40:16.855Z</time>
      </trkpt>
      <trkpt lat="46.08345" lon="14.73724">
        <ele>275.738594</ele>
        <time>2022-08-06T00:40:34.075Z</time>
      </trkpt>
      <trkpt lat="46.08343" lon="14.73733">
        <ele>275.652695</ele>
        <time>2022-08-06T00:40:35.878Z</time>
      </trkpt>
      <trkpt lat="46.08336" lon="14.73748">
        <ele>275.493078</ele>
        <time>2022-08-06T00:40:42.770Z</time>
      </trkpt>
      <trkpt lat="46.0832" lon="14.73787">
        <ele>276.595051</ele>
        <time>2022-08-06T00:40:58.376Z</time>
      </trkpt>
      <trkpt lat="46.08298" lon="14.73821">
        <ele>279.904822</ele>
        <time>2022-08-06T00:41:20.825Z</time>
      </trkpt>
      <trkpt lat="46.08307" lon="14.73832">
        <ele>281.115515</ele>
        <time>2022-08-06T00:41:33.127Z</time>
      </trkpt>
      <trkpt lat="46.08359" lon="14.73836">
        <ele>286.471826</ele>
        <time>2022-08-06T00:42:15.190Z</time>
      </trkpt>
      <trkpt lat="46.08369" lon="14.73842">
        <ele>287.555307</ele>
        <time>2022-08-06T00:42:23.105Z</time>
      </trkpt>
      <trkpt lat="46.08387" lon="14.73868">
        <ele>290.164282</ele>
        <time>2022-08-06T00:42:47.784Z</time>
      </trkpt>
      <trkpt lat="46.08422" lon="14.73928">
        <ele>295.254939</ele>
        <time>2022-08-06T00:43:38.892Z</time>
      </trkpt>
      <trkpt lat="46.08437" lon="14.73964">
        <ele>297.472129</ele>
        <time>2022-08-06T00:44:01.720Z</time>
      </trkpt>
      <trkpt lat="46.08498" lon="14.74168">
        <ele>306.414818</ele>
        <time>2022-08-06T00:45:31.834Z</time>
      </trkpt>
      <trkpt lat="46.08522" lon="14.74313">
        <ele>302.397019</ele>
        <time>2022-08-06T00:45:53.449Z</time>
      </trkpt>
      <trkpt lat="46.08539" lon="14.74381">
        <ele>300.443193</ele>
        <time>2022-08-06T00:46:02.007Z</time>
      </trkpt>
      <trkpt lat="46.08543" lon="14.74434">
        <ele>296.017677</ele>
        <time>2022-08-06T00:46:08.112Z</time>
      </trkpt>
      <trkpt lat="46.08551" lon="14.74458">
        <ele>293.687859</ele>
        <time>2022-08-06T00:46:11.092Z</time>
      </trkpt>
      <trkpt lat="46.08589" lon="14.74493">
        <ele>287.949435</ele>
        <time>2022-08-06T00:46:18.423Z</time>
      </trkpt>
      <trkpt lat="46.08615" lon="14.74544">
        <ele>282.299677</ele>
        <time>2022-08-06T00:46:25.691Z</time>
      </trkpt>
      <trkpt lat="46.08646" lon="14.74579">
        <ele>277.251582</ele>
        <time>2022-08-06T00:46:32.234Z</time>
      </trkpt>
      <trkpt lat="46.08696" lon="14.74682">
        <ele>272.280745</ele>
        <time>2022-08-06T00:46:47.286Z</time>
      </trkpt>
      <trkpt lat="46.08713" lon="14.74734">
        <ele>270.025395</ele>
        <time>2022-08-06T00:46:55.279Z</time>
      </trkpt>
      <trkpt lat="46.08738" lon="14.74868">
        <ele>267.541309</ele>
        <time>2022-08-06T00:47:23.097Z</time>
      </trkpt>
      <trkpt lat="46.08777" lon="14.74977">
        <ele>268.513373</ele>
        <time>2022-08-06T00:47:53.525Z</time>
      </trkpt>
      <trkpt lat="46.08859" lon="14.7507">
        <ele>269.4207</ele>
        <time>2022-08-06T00:48:31.065Z</time>
      </trkpt>
      <trkpt lat="46.08865" lon="14.75103">
        <ele>269.55874</ele>
        <time>2022-08-06T00:48:38.355Z</time>
      </trkpt>
      <trkpt lat="46.08858" lon="14.75135">
        <ele>269.697898</ele>
        <time>2022-08-06T00:48:45.927Z</time>
      </trkpt>
      <trkpt lat="46.08855" lon="14.75161">
        <ele>269.804213</ele>
        <time>2022-08-06T00:48:50.677Z</time>
      </trkpt>
      <trkpt lat="46.08859" lon="14.75186">
        <ele>269.910644</ele>
        <time>2022-08-06T00:48:55.937Z</time>
      </trkpt>
      <trkpt lat="46.0888" lon="14.75241">
        <ele>270.166314</ele>
        <time>2022-08-06T00:49:07.410Z</time>
      </trkpt>
      <trkpt lat="46.08908" lon="14.75335">
        <ele>269.236467</ele>
        <time>2022-08-06T00:49:25.470Z</time>
      </trkpt>
      <trkpt lat="46.08915" lon="14.75418">
        <ele>268.477356</ele>
        <time>2022-08-06T00:49:38.610Z</time>
      </trkpt>
      <trkpt lat="46.08919" lon="14.75447">
        <ele>268.212522</ele>
        <time>2022-08-06T00:49:43.113Z</time>
      </trkpt>
      <trkpt lat="46.0893" lon="14.75504">
        <ele>267.616835</ele>
        <time>2022-08-06T00:49:52.212Z</time>
      </trkpt>
      <trkpt lat="46.0898" lon="14.75622">
        <ele>265.863783</ele>
        <time>2022-08-06T00:50:13.205Z</time>
      </trkpt>
      <trkpt lat="46.09024" lon="14.758">
        <ele>264.3482</ele>
        <time>2022-08-06T00:50:43.327Z</time>
      </trkpt>
      <trkpt lat="46.09063" lon="14.75884">
        <ele>264.132831</ele>
        <time>2022-08-06T00:51:02.376Z</time>
      </trkpt>
      <trkpt lat="46.0906" lon="14.7593">
        <ele>264.034366</ele>
        <time>2022-08-06T00:51:11.340Z</time>
      </trkpt>
      <trkpt lat="46.0903" lon="14.76042">
        <ele>265.451523</ele>
        <time>2022-08-06T00:51:39.881Z</time>
      </trkpt>
      <trkpt lat="46.09026" lon="14.76128">
        <ele>266.847619</ele>
        <time>2022-08-06T00:52:03.325Z</time>
      </trkpt>
      <trkpt lat="46.09043" lon="14.76168">
        <ele>267.603589</ele>
        <time>2022-08-06T00:52:17.304Z</time>
      </trkpt>
      <trkpt lat="46.09045" lon="14.76177">
        <ele>267.758276</ele>
        <time>2022-08-06T00:52:20.039Z</time>
      </trkpt>
      <trkpt lat="46.09066" lon="14.76212">
        <ele>268.882852</ele>
        <time>2022-08-06T00:52:35.098Z</time>
      </trkpt>
      <trkpt lat="46.0908" lon="14.7627">
        <ele>270.968994</ele>
        <time>2022-08-06T00:52:54.530Z</time>
      </trkpt>
      <trkpt lat="46.09076" lon="14.76368">
        <ele>274.373009</ele>
        <time>2022-08-06T00:53:29.714Z</time>
      </trkpt>
      <trkpt lat="46.09085" lon="14.76386">
        <ele>275.123686</ele>
        <time>2022-08-06T00:53:40.188Z</time>
      </trkpt>
      <trkpt lat="46.09112" lon="14.76391">
        <ele>276.49981</ele>
        <time>2022-08-06T00:53:54.297Z</time>
      </trkpt>
      <trkpt lat="46.09117" lon="14.76395">
        <ele>276.794408</ele>
        <time>2022-08-06T00:53:58.823Z</time>
      </trkpt>
      <trkpt lat="46.09119" lon="14.76469">
        <ele>280.230026</ele>
        <time>2022-08-06T00:54:26.361Z</time>
      </trkpt>
      <trkpt lat="46.0914" lon="14.76626">
        <ele>287.919715</ele>
        <time>2022-08-06T00:55:34.970Z</time>
      </trkpt>
      <trkpt lat="46.09183" lon="14.76803">
        <ele>295.739701</ele>
        <time>2022-08-06T00:56:56.103Z</time>
      </trkpt>
      <trkpt lat="46.09215" lon="14.76891">
        <ele>299.726214</ele>
        <time>2022-08-06T00:57:29.366Z</time>
      </trkpt>
      <trkpt lat="46.09248" lon="14.76967">
        <ele>299.829751</ele>
        <time>2022-08-06T00:57:52.014Z</time>
      </trkpt>
      <trkpt lat="46.09303" lon="14.7706">
        <ele>299.577204</ele>
        <time>2022-08-06T00:58:12.111Z</time>
      </trkpt>
      <trkpt lat="46.094" lon="14.77185">
        <ele>296.116314</ele>
        <time>2022-08-06T00:58:36.865Z</time>
      </trkpt>
      <trkpt lat="46.09476" lon="14.77268">
        <ele>292.842885</ele>
        <time>2022-08-06T00:58:54.571Z</time>
      </trkpt>
      <trkpt lat="46.09538" lon="14.77353">
        <ele>291.381075</ele>
        <time>2022-08-06T00:59:12.462Z</time>
      </trkpt>
      <trkpt lat="46.09597" lon="14.77412">
        <ele>290.16399</ele>
        <time>2022-08-06T00:59:28.984Z</time>
      </trkpt>
      <trkpt lat="46.096" lon="14.77421">
        <ele>290.049974</ele>
        <time>2022-08-06T00:59:30.321Z</time>
      </trkpt>
      <trkpt lat="46.09597" lon="14.77445">
        <ele>289.978006</ele>
        <time>2022-08-06T00:59:36.093Z</time>
      </trkpt>
      <trkpt lat="46.09602" lon="14.77458">
        <ele>290.051964</ele>
        <time>2022-08-06T00:59:38.781Z</time>
      </trkpt>
      <trkpt lat="46.09635" lon="14.77495">
        <ele>290.34728</ele>
        <time>2022-08-06T00:59:51.008Z</time>
      </trkpt>
      <trkpt lat="46.09681" lon="14.77564">
        <ele>290.810761</ele>
        <time>2022-08-06T01:00:15.419Z</time>
      </trkpt>
      <trkpt lat="46.09798" lon="14.77685">
        <ele>289.900986</ele>
        <time>2022-08-06T01:00:53.714Z</time>
      </trkpt>
      <trkpt lat="46.09871" lon="14.77785">
        <ele>288.291294</ele>
        <time>2022-08-06T01:01:13.792Z</time>
      </trkpt>
      <trkpt lat="46.09897" lon="14.77832">
        <ele>286.978427</ele>
        <time>2022-08-06T01:01:21.853Z</time>
      </trkpt>
      <trkpt lat="46.09897" lon="14.77844">
        <ele>286.706819</ele>
        <time>2022-08-06T01:01:23.496Z</time>
      </trkpt>
      <trkpt lat="46.09904" lon="14.77857">
        <ele>286.34619</ele>
        <time>2022-08-06T01:01:25.854Z</time>
      </trkpt>
      <trkpt lat="46.0996" lon="14.77906">
        <ele>284.30431</ele>
        <time>2022-08-06T01:01:39.178Z</time>
      </trkpt>
      <trkpt lat="46.1002" lon="14.77993">
        <ele>282.161892</ele>
        <time>2022-08-06T01:01:56.675Z</time>
      </trkpt>
      <trkpt lat="46.10038" lon="14.78047">
        <ele>281.371902</ele>
        <time>2022-08-06T01:02:05.850Z</time>
      </trkpt>
      <trkpt lat="46.10073" lon="14.78065">
        <ele>280.659257</ele>
        <time>2022-08-06T01:02:14.757Z</time>
      </trkpt>
      <trkpt lat="46.10101" lon="14.78089">
        <ele>280.047072</ele>
        <time>2022-08-06T01:02:22.390Z</time>
      </trkpt>
      <trkpt lat="46.10151" lon="14.78147">
        <ele>279.900217</ele>
        <time>2022-08-06T01:02:37.746Z</time>
      </trkpt>
      <trkpt lat="46.10159" lon="14.78172">
        <ele>280.05423</ele>
        <time>2022-08-06T01:02:43.107Z</time>
      </trkpt>
      <trkpt lat="46.10172" lon="14.78191">
        <ele>280.199151</ele>
        <time>2022-08-06T01:02:47.044Z</time>
      </trkpt>
      <trkpt lat="46.10162" lon="14.78188">
        <ele>280.276976</ele>
        <time>2022-08-06T01:02:50.951Z</time>
      </trkpt>
      <trkpt lat="46.10162" lon="14.78197">
        <ele>280.327606</ele>
        <time>2022-08-06T01:02:52.800Z</time>
      </trkpt>
      <trkpt lat="46.10191" lon="14.7828">
        <ele>280.835112</ele>
        <time>2022-08-06T01:03:16.739Z</time>
      </trkpt>
      <trkpt lat="46.10205" lon="14.78356">
        <ele>281.764288</ele>
        <time>2022-08-06T01:03:39.916Z</time>
      </trkpt>
      <trkpt lat="46.10205" lon="14.78451">
        <ele>283.258692</ele>
        <time>2022-08-06T01:04:07.420Z</time>
      </trkpt>
      <trkpt lat="46.10212" lon="14.78549">
        <ele>284.820838</ele>
        <time>2022-08-06T01:04:32.581Z</time>
      </trkpt>
      <trkpt lat="46.10209" lon="14.78561">
        <ele>285.022553</ele>
        <time>2022-08-06T01:04:35.697Z</time>
      </trkpt>
      <trkpt lat="46.10197" lon="14.78618">
        <ele>285.139198</ele>
        <time>2022-08-06T01:04:49.875Z</time>
      </trkpt>
      <trkpt lat="46.10188" lon="14.78656">
        <ele>285.170343</ele>
        <time>2022-08-06T01:04:58.379Z</time>
      </trkpt>
      <trkpt lat="46.10172" lon="14.78784">
        <ele>285.269515</ele>
        <time>2022-08-06T01:05:23.388Z</time>
      </trkpt>
      <trkpt lat="46.1016" lon="14.78833">
        <ele>284.804474</ele>
        <time>2022-08-06T01:05:31.836Z</time>
      </trkpt>
      <trkpt lat="46.10161" lon="14.78858">
        <ele>284.104805</ele>
        <time>2022-08-06T01:05:35.557Z</time>
      </trkpt>
      <trkpt lat="46.10156" lon="14.78869">
        <ele>283.734151</ele>
        <time>2022-08-06T01:05:37.780Z</time>
      </trkpt>
      <trkpt lat="46.10141" lon="14.78967">
        <ele>280.909974</ele>
        <time>2022-08-06T01:05:52.129Z</time>
      </trkpt>
      <trkpt lat="46.10131" lon="14.79071">
        <ele>277.923642</ele>
        <time>2022-08-06T01:06:05.596Z</time>
      </trkpt>
      <trkpt lat="46.10104" lon="14.7914">
        <ele>273.988207</ele>
        <time>2022-08-06T01:06:15.229Z</time>
      </trkpt>
      <trkpt lat="46.10119" lon="14.79137">
        <ele>272.865948</ele>
        <time>2022-08-06T01:06:17.910Z</time>
      </trkpt>
      <trkpt lat="46.10175" lon="14.79171">
        <ele>268.505126</ele>
        <time>2022-08-06T01:06:28.467Z</time>
      </trkpt>
      <trkpt lat="46.1015" lon="14.79219">
        <ele>265.508029</ele>
        <time>2022-08-06T01:06:35.882Z</time>
      </trkpt>
      <trkpt lat="46.1012" lon="14.79256">
        <ele>264.499965</ele>
        <time>2022-08-06T01:06:43.264Z</time>
      </trkpt>
      <trkpt lat="46.10074" lon="14.79287">
        <ele>263.692508</ele>
        <time>2022-08-06T01:06:53.904Z</time>
      </trkpt>
      <trkpt lat="46.10074" lon="14.79299">
        <ele>263.565774</ele>
        <time>2022-08-06T01:06:55.353Z</time>
      </trkpt>
      <trkpt lat="46.10014" lon="14.79312">
        <ele>262.609534</ele>
        <time>2022-08-06T01:07:14.788Z</time>
      </trkpt>
      <trkpt lat="46.09942" lon="14.79348">
        <ele>263.122915</ele>
        <time>2022-08-06T01:07:46.079Z</time>
      </trkpt>
      <trkpt lat="46.09839" lon="14.79376">
        <ele>265.142411</ele>
        <time>2022-08-06T01:08:24.757Z</time>
      </trkpt>
      <trkpt lat="46.0978" lon="14.79462">
        <ele>265.268666</ele>
        <time>2022-08-06T01:08:49.678Z</time>
      </trkpt>
      <trkpt lat="46.09738" lon="14.79489">
        <ele>264.976608</ele>
        <time>2022-08-06T01:09:00.538Z</time>
      </trkpt>
      <trkpt lat="46.09704" lon="14.79498">
        <ele>264.75545</ele>
        <time>2022-08-06T01:09:07.827Z</time>
      </trkpt>
      <trkpt lat="46.09669" lon="14.79534">
        <ele>264.481186</ele>
        <time>2022-08-06T01:09:16.892Z</time>
      </trkpt>
      <trkpt lat="46.09596" lon="14.79583">
        <ele>264.048672</ele>
        <time>2022-08-06T01:09:35.563Z</time>
      </trkpt>
      <trkpt lat="46.09572" lon="14.79612">
        <ele>263.880287</ele>
        <time>2022-08-06T01:09:43.590Z</time>
      </trkpt>
      <trkpt lat="46.09556" lon="14.79621">
        <ele>263.787829</ele>
        <time>2022-08-06T01:09:48.496Z</time>
      </trkpt>
      <trkpt lat="46.09515" lon="14.79626">
        <ele>263.566463</ele>
        <time>2022-08-06T01:10:00.807Z</time>
      </trkpt>
      <trkpt lat="46.09466" lon="14.79648">
        <ele>262.86744</ele>
        <time>2022-08-06T01:10:14.144Z</time>
      </trkpt>
      <trkpt lat="46.0944" lon="14.79649">
        <ele>262.488224</ele>
        <time>2022-08-06T01:10:20.051Z</time>
      </trkpt>
      <trkpt lat="46.09402" lon="14.79719">
        <ele>261.576256</ele>
        <time>2022-08-06T01:10:33.360Z</time>
      </trkpt>
      <trkpt lat="46.09335" lon="14.79825">
        <ele>259.680979</ele>
        <time>2022-08-06T01:10:53.152Z</time>
      </trkpt>
      <trkpt lat="46.09258" lon="14.79897">
        <ele>257.58591</ele>
        <time>2022-08-06T01:11:10.901Z</time>
      </trkpt>
      <trkpt lat="46.09176" lon="14.79948">
        <ele>258.053379</ele>
        <time>2022-08-06T01:11:35.605Z</time>
      </trkpt>
      <trkpt lat="46.09159" lon="14.79957">
        <ele>258.510727</ele>
        <time>2022-08-06T01:11:41.335Z</time>
      </trkpt>
      <trkpt lat="46.09108" lon="14.79971">
        <ele>259.846469</ele>
        <time>2022-08-06T01:12:04.344Z</time>
      </trkpt>
      <trkpt lat="46.09059" lon="14.80005">
        <ele>261.235346</ele>
        <time>2022-08-06T01:12:30.303Z</time>
      </trkpt>
      <trkpt lat="46.09007" lon="14.80031">
        <ele>262.914342</ele>
        <time>2022-08-06T01:12:59.368Z</time>
      </trkpt>
      <trkpt lat="46.08974" lon="14.80083">
        <ele>264.415099</ele>
        <time>2022-08-06T01:13:21.218Z</time>
      </trkpt>
      <trkpt lat="46.08931" lon="14.80194">
        <ele>266.834244</ele>
        <time>2022-08-06T01:13:53.159Z</time>
      </trkpt>
      <trkpt lat="46.08801" lon="14.80356">
        <ele>266.649918</ele>
        <time>2022-08-06T01:14:34.522Z</time>
      </trkpt>
      <trkpt lat="46.08732" lon="14.80456">
        <ele>267.760548</ele>
        <time>2022-08-06T01:15:03.991Z</time>
      </trkpt>
      <trkpt lat="46.08665" lon="14.80512">
        <ele>268.63756</ele>
        <time>2022-08-06T01:15:31.588Z</time>
      </trkpt>
      <trkpt lat="46.08641" lon="14.80563">
        <ele>269.255491</ele>
        <time>2022-08-06T01:15:47.644Z</time>
      </trkpt>
      <trkpt lat="46.08625" lon="14.8063">
        <ele>269.979569</ele>
        <time>2022-08-06T01:16:05.794Z</time>
      </trkpt>
      <trkpt lat="46.08624" lon="14.80691">
        <ele>270.60761</ele>
        <time>2022-08-06T01:16:20.923Z</time>
      </trkpt>
      <trkpt lat="46.08513" lon="14.80956">
        <ele>272.455086</ele>
        <time>2022-08-06T01:17:20.350Z</time>
      </trkpt>
      <trkpt lat="46.08472" lon="14.81113">
        <ele>275.438541</ele>
        <time>2022-08-06T01:18:06.054Z</time>
      </trkpt>
      <trkpt lat="46.08462" lon="14.81189">
        <ele>276.973503</ele>
        <time>2022-08-06T01:18:30.219Z</time>
      </trkpt>
      <trkpt lat="46.0846" lon="14.81317">
        <ele>279.077335</ele>
        <time>2022-08-06T01:19:08.866Z</time>
      </trkpt>
      <trkpt lat="46.0848" lon="14.81714">
        <ele>282.48101</ele>
        <time>2022-08-06T01:20:40.715Z</time>
      </trkpt>
      <trkpt lat="46.08485" lon="14.81809">
        <ele>280.748996</ele>
        <time>2022-08-06T01:20:54.043Z</time>
      </trkpt>
      <trkpt lat="46.08499" lon="14.82048">
        <ele>273.902391</ele>
        <time>2022-08-06T01:21:24.292Z</time>
      </trkpt>
      <trkpt lat="46.08496" lon="14.82139">
        <ele>270.822589</ele>
        <time>2022-08-06T01:21:35.780Z</time>
      </trkpt>
      <trkpt lat="46.08442" lon="14.82354">
        <ele>263.681059</ele>
        <time>2022-08-06T01:22:04.764Z</time>
      </trkpt>
      <trkpt lat="46.08436" lon="14.82353">
        <ele>263.456273</ele>
        <time>2022-08-06T01:22:05.679Z</time>
      </trkpt>
      <trkpt lat="46.08434" lon="14.82311">
        <ele>262.239922</ele>
        <time>2022-08-06T01:22:11.335Z</time>
      </trkpt>
      <trkpt lat="46.08426" lon="14.82311">
        <ele>261.919448</ele>
        <time>2022-08-06T01:22:12.664Z</time>
      </trkpt>
      <trkpt lat="46.08421" lon="14.82371">
        <ele>260.17368</ele>
        <time>2022-08-06T01:22:20.781Z</time>
      </trkpt>
      <trkpt lat="46.08405" lon="14.82383">
        <ele>259.446108</ele>
        <time>2022-08-06T01:22:24.173Z</time>
      </trkpt>
      <trkpt lat="46.08404" lon="14.82283">
        <ele>257.661837</ele>
        <time>2022-08-06T01:22:37.866Z</time>
      </trkpt>
      <trkpt lat="46.08401" lon="14.82259">
        <ele>257.240747</ele>
        <time>2022-08-06T01:22:41.141Z</time>
      </trkpt>
      <trkpt lat="46.08344" lon="14.82184">
        <ele>255.328621</ele>
        <time>2022-08-06T01:22:57.554Z</time>
      </trkpt>
      <trkpt lat="46.08284" lon="14.82058">
        <ele>253.626664</ele>
        <time>2022-08-06T01:23:20.818Z</time>
      </trkpt>
      <trkpt lat="46.08255" lon="14.8201">
        <ele>253.01139</ele>
        <time>2022-08-06T01:23:30.285Z</time>
      </trkpt>
      <trkpt lat="46.08164" lon="14.81918">
        <ele>252.250245</ele>
        <time>2022-08-06T01:23:56.014Z</time>
      </trkpt>
      <trkpt lat="46.08128" lon="14.81888">
        <ele>252.214624</ele>
        <time>2022-08-06T01:24:06.497Z</time>
      </trkpt>
      <trkpt lat="46.08096" lon="14.81871">
        <ele>252.184563</ele>
        <time>2022-08-06T01:24:16.224Z</time>
      </trkpt>
      <trkpt lat="46.08071" lon="14.81825">
        <ele>252.149637</ele>
        <time>2022-08-06T01:24:28.935Z</time>
      </trkpt>
      <trkpt lat="46.08022" lon="14.81772">
        <ele>253.079771</ele>
        <time>2022-08-06T01:24:49.429Z</time>
      </trkpt>
      <trkpt lat="46.07998" lon="14.8173">
        <ele>253.667505</ele>
        <time>2022-08-06T01:25:02.320Z</time>
      </trkpt>
      <trkpt lat="46.07997" lon="14.81699">
        <ele>253.998843</ele>
        <time>2022-08-06T01:25:09.834Z</time>
      </trkpt>
      <trkpt lat="46.07992" lon="14.81692">
        <ele>254.10946</ele>
        <time>2022-08-06T01:25:12.505Z</time>
      </trkpt>
      <trkpt lat="46.07969" lon="14.81707">
        <ele>254.506678</ele>
        <time>2022-08-06T01:25:21.353Z</time>
      </trkpt>
      <trkpt lat="46.07947" lon="14.81703">
        <ele>254.850237</ele>
        <time>2022-08-06T01:25:29.013Z</time>
      </trkpt>
      <trkpt lat="46.07919" lon="14.81694">
        <ele>255.448772</ele>
        <time>2022-08-06T01:25:39.247Z</time>
      </trkpt>
      <trkpt lat="46.07876" lon="14.81665">
        <ele>256.529001</ele>
        <time>2022-08-06T01:25:56.943Z</time>
      </trkpt>
      <trkpt lat="46.07775" lon="14.8157">
        <ele>259.388436</ele>
        <time>2022-08-06T01:26:42.570Z</time>
      </trkpt>
      <trkpt lat="46.07762" lon="14.8154">
        <ele>260.249801</ele>
        <time>2022-08-06T01:26:52.566Z</time>
      </trkpt>
      <trkpt lat="46.07572" lon="14.81492">
        <ele>266.6155</ele>
        <time>2022-08-06T01:28:18.957Z</time>
      </trkpt>
      <trkpt lat="46.07533" lon="14.81469">
        <ele>267.775999</ele>
        <time>2022-08-06T01:28:37.686Z</time>
      </trkpt>
      <trkpt lat="46.07475" lon="14.81462">
        <ele>269.386497</ele>
        <time>2022-08-06T01:29:01.413Z</time>
      </trkpt>
      <trkpt lat="46.07452" lon="14.81469">
        <ele>270.05371</ele>
        <time>2022-08-06T01:29:09.456Z</time>
      </trkpt>
      <trkpt lat="46.07383" lon="14.81537">
        <ele>267.534578</ele>
        <time>2022-08-06T01:29:31.684Z</time>
      </trkpt>
      <trkpt lat="46.07299" lon="14.81649">
        <ele>263.016086</ele>
        <time>2022-08-06T01:29:51.657Z</time>
      </trkpt>
      <trkpt lat="46.07283" lon="14.81676">
        <ele>261.227693</ele>
        <time>2022-08-06T01:29:55.819Z</time>
      </trkpt>
      <trkpt lat="46.07266" lon="14.81719">
        <ele>258.777321</ele>
        <time>2022-08-06T01:30:01.569Z</time>
      </trkpt>
      <trkpt lat="46.07243" lon="14.8174">
        <ele>256.799769</ele>
        <time>2022-08-06T01:30:06.348Z</time>
      </trkpt>
      <trkpt lat="46.07228" lon="14.81741">
        <ele>255.723526</ele>
        <time>2022-08-06T01:30:08.710Z</time>
      </trkpt>
      <trkpt lat="46.07214" lon="14.81733">
        <ele>254.674748</ele>
        <time>2022-08-06T01:30:11.504Z</time>
      </trkpt>
      <trkpt lat="46.07158" lon="14.81641">
        <ele>249.742602</ele>
        <time>2022-08-06T01:30:26.173Z</time>
      </trkpt>
      <trkpt lat="46.07134" lon="14.81618">
        <ele>248.75163</ele>
        <time>2022-08-06T01:30:31.388Z</time>
      </trkpt>
      <trkpt lat="46.07093" lon="14.81582">
        <ele>247.093997</ele>
        <time>2022-08-06T01:30:40.460Z</time>
      </trkpt>
      <trkpt lat="46.07067" lon="14.81548">
        <ele>245.888261</ele>
        <time>2022-08-06T01:30:48.700Z</time>
      </trkpt>
      <trkpt lat="46.06982" lon="14.81463">
        <ele>244.310251</ele>
        <time>2022-08-06T01:31:13.020Z</time>
      </trkpt>
      <trkpt lat="46.06896" lon="14.81327">
        <ele>243.621434</ele>
        <time>2022-08-06T01:31:46.747Z</time>
      </trkpt>
      <trkpt lat="46.06874" lon="14.81301">
        <ele>243.301581</ele>
        <time>2022-08-06T01:31:53.384Z</time>
      </trkpt>
      <trkpt lat="46.06844" lon="14.81234">
        <ele>242.663631</ele>
        <time>2022-08-06T01:32:06.268Z</time>
      </trkpt>
      <trkpt lat="46.06829" lon="14.81224">
        <ele>242.477169</ele>
        <time>2022-08-06T01:32:10.014Z</time>
      </trkpt>
      <trkpt lat="46.06807" lon="14.81226">
        <ele>242.222971</ele>
        <time>2022-08-06T01:32:14.901Z</time>
      </trkpt>
      <trkpt lat="46.06771" lon="14.81246">
        <ele>241.792296</ele>
        <time>2022-08-06T01:32:23.026Z</time>
      </trkpt>
      <trkpt lat="46.06706" lon="14.8126">
        <ele>240.657052</ele>
        <time>2022-08-06T01:32:36.781Z</time>
      </trkpt>
      <trkpt lat="46.06611" lon="14.81233">
        <ele>238.934329</ele>
        <time>2022-08-06T01:32:56.949Z</time>
      </trkpt>
      <trkpt lat="46.06459" lon="14.81148">
        <ele>237.982903</ele>
        <time>2022-08-06T01:33:37.524Z</time>
      </trkpt>
      <trkpt lat="46.06321" lon="14.81108">
        <ele>238.348607</ele>
        <time>2022-08-06T01:34:16.646Z</time>
      </trkpt>
      <trkpt lat="46.06197" lon="14.8113">
        <ele>240.189226</ele>
        <time>2022-08-06T01:34:54.799Z</time>
      </trkpt>
      <trkpt lat="46.06074" lon="14.81166">
        <ele>243.996176</ele>
        <time>2022-08-06T01:35:48.036Z</time>
      </trkpt>
      <trkpt lat="46.05967" lon="14.81175">
        <ele>250.900804</ele>
        <time>2022-08-06T01:36:50.484Z</time>
      </trkpt>
      <trkpt lat="46.05964" lon="14.81177">
        <ele>251.11658</ele>
        <time>2022-08-06T01:36:52.311Z</time>
      </trkpt>
      <trkpt lat="46.05956" lon="14.81183">
        <ele>251.714322</ele>
        <time>2022-08-06T01:36:57.678Z</time>
      </trkpt>
      <trkpt lat="46.05918" lon="14.81218">
        <ele>254.743694</ele>
        <time>2022-08-06T01:37:27.381Z</time>
      </trkpt>
      <trkpt lat="46.05837" lon="14.81279">
        <ele>260.755062</ele>
        <time>2022-08-06T01:38:24.682Z</time>
      </trkpt>
      <trkpt lat="46.05803" lon="14.81315">
        <ele>263.4534</ele>
        <time>2022-08-06T01:38:49.763Z</time>
      </trkpt>
      <trkpt lat="46.05694" lon="14.81484">
        <ele>272.471914</ele>
        <time>2022-08-06T01:40:12.369Z</time>
      </trkpt>
      <trkpt lat="46.05652" lon="14.81538">
        <ele>275.230857</ele>
        <time>2022-08-06T01:40:40.276Z</time>
      </trkpt>
      <trkpt lat="46.05625" lon="14.81596">
        <ele>277.426123</ele>
        <time>2022-08-06T01:41:05.028Z</time>
      </trkpt>
      <trkpt lat="46.05578" lon="14.8177">
        <ele>281.939785</ele>
        <time>2022-08-06T01:42:03.672Z</time>
      </trkpt>
      <trkpt lat="46.05563" lon="14.81844">
        <ele>283.207325</ele>
        <time>2022-08-06T01:42:23.542Z</time>
      </trkpt>
      <trkpt lat="46.05549" lon="14.82008">
        <ele>283.591764</ele>
        <time>2022-08-06T01:42:55.254Z</time>
      </trkpt>
      <trkpt lat="46.0553" lon="14.8216">
        <ele>283.965031</ele>
        <time>2022-08-06T01:43:20.146Z</time>
      </trkpt>
      <trkpt lat="46.05538" lon="14.82312">
        <ele>284.342376</ele>
        <time>2022-08-06T01:43:51.949Z</time>
      </trkpt>
      <trkpt lat="46.05538" lon="14.82433">
        <ele>284.389991</ele>
        <time>2022-08-06T01:44:22.582Z</time>
      </trkpt>
      <trkpt lat="46.05544" lon="14.82496">
        <ele>284.39195</ele>
        <time>2022-08-06T01:44:38.947Z</time>
      </trkpt>
      <trkpt lat="46.05598" lon="14.82695">
        <ele>276.799822</ele>
        <time>2022-08-06T01:45:07.891Z</time>
      </trkpt>
      <trkpt lat="46.05624" lon="14.82838">
        <ele>267.195022</ele>
        <time>2022-08-06T01:45:24.043Z</time>
      </trkpt>
      <trkpt lat="46.05643" lon="14.82831">
        <ele>264.596205</ele>
        <time>2022-08-06T01:45:27.196Z</time>
      </trkpt>
      <trkpt lat="46.05649" lon="14.82835">
        <ele>263.766349</ele>
        <time>2022-08-06T01:45:28.219Z</time>
      </trkpt>
      <trkpt lat="46.05667" lon="14.82886">
        <ele>258.517985</ele>
        <time>2022-08-06T01:45:34.604Z</time>
      </trkpt>
      <trkpt lat="46.05681" lon="14.82911">
        <ele>255.455029</ele>
        <time>2022-08-06T01:45:38.317Z</time>
      </trkpt>
      <trkpt lat="46.0569" lon="14.82894">
        <ele>253.527477</ele>
        <time>2022-08-06T01:45:40.607Z</time>
      </trkpt>
      <trkpt lat="46.05788" lon="14.82808">
        <ele>242.081433</ele>
        <time>2022-08-06T01:45:59.186Z</time>
      </trkpt>
      <trkpt lat="46.05814" lon="14.82779">
        <ele>240.581582</ele>
        <time>2022-08-06T01:46:05.112Z</time>
      </trkpt>
      <trkpt lat="46.05829" lon="14.82817">
        <ele>239.191665</ele>
        <time>2022-08-06T01:46:11.053Z</time>
      </trkpt>
      <trkpt lat="46.0584" lon="14.82846">
        <ele>238.128305</ele>
        <time>2022-08-06T01:46:15.812Z</time>
      </trkpt>
      <trkpt lat="46.05859" lon="14.82833">
        <ele>237.14573</ele>
        <time>2022-08-06T01:46:20.519Z</time>
      </trkpt>
      <trkpt lat="46.05879" lon="14.8284">
        <ele>236.180388</ele>
        <time>2022-08-06T01:46:25.769Z</time>
      </trkpt>
      <trkpt lat="46.05906" lon="14.829">
        <ele>235.659941</ele>
        <time>2022-08-06T01:46:39.291Z</time>
      </trkpt>
      <trkpt lat="46.05935" lon="14.8295">
        <ele>235.498321</ele>
        <time>2022-08-06T01:46:52.335Z</time>
      </trkpt>
      <trkpt lat="46.05963" lon="14.83">
        <ele>235.339092</ele>
        <time>2022-08-06T01:47:04.740Z</time>
      </trkpt>
      <trkpt lat="46.05989" lon="14.83037">
        <ele>235.209685</ele>
        <time>2022-08-06T01:47:13.736Z</time>
      </trkpt>
      <trkpt lat="46.0599" lon="14.83034">
        <ele>235.201629</ele>
        <time>2022-08-06T01:47:14.555Z</time>
      </trkpt>
      <trkpt lat="46.05989" lon="14.83037">
        <ele>235.193573</ele>
        <time>2022-08-06T01:47:15.004Z</time>
      </trkpt>
      <trkpt lat="46.05964" lon="14.83069">
        <ele>235.043267</ele>
        <time>2022-08-06T01:47:23.350Z</time>
      </trkpt>
      <trkpt lat="46.05991" lon="14.83107">
        <ele>234.864049</ele>
        <time>2022-08-06T01:47:32.244Z</time>
      </trkpt>
      <trkpt lat="46.06019" lon="14.83133">
        <ele>234.703993</ele>
        <time>2022-08-06T01:47:40.536Z</time>
      </trkpt>
      <trkpt lat="46.06064" lon="14.83169">
        <ele>234.457326</ele>
        <time>2022-08-06T01:47:53.358Z</time>
      </trkpt>
      <trkpt lat="46.06162" lon="14.83237">
        <ele>234.939248</ele>
        <time>2022-08-06T01:48:21.910Z</time>
      </trkpt>
      <trkpt lat="46.062" lon="14.83269">
        <ele>235.310049</ele>
        <time>2022-08-06T01:48:35.925Z</time>
      </trkpt>
      <trkpt lat="46.06294" lon="14.83366">
        <ele>236.928628</ele>
        <time>2022-08-06T01:49:16.862Z</time>
      </trkpt>
      <trkpt lat="46.06316" lon="14.8339">
        <ele>237.477261</ele>
        <time>2022-08-06T01:49:27.413Z</time>
      </trkpt>
      <trkpt lat="46.0635" lon="14.83441">
        <ele>238.448288</ele>
        <time>2022-08-06T01:49:46.078Z</time>
      </trkpt>
      <trkpt lat="46.06377" lon="14.83495">
        <ele>239.369251</ele>
        <time>2022-08-06T01:50:02.975Z</time>
      </trkpt>
      <trkpt lat="46.06395" lon="14.83545">
        <ele>239.387822</ele>
        <time>2022-08-06T01:50:16.241Z</time>
      </trkpt>
      <trkpt lat="46.06415" lon="14.83624">
        <ele>239.402588</ele>
        <time>2022-08-06T01:50:33.298Z</time>
      </trkpt>
      <trkpt lat="46.06489" lon="14.83952">
        <ele>237.39449</ele>
        <time>2022-08-06T01:51:29.638Z</time>
      </trkpt>
      <trkpt lat="46.06504" lon="14.84004">
        <ele>236.984056</ele>
        <time>2022-08-06T01:51:38.372Z</time>
      </trkpt>
      <trkpt lat="46.06562" lon="14.84157">
        <ele>236.132519</ele>
        <time>2022-08-06T01:52:08.818Z</time>
      </trkpt>
      <trkpt lat="46.0657" lon="14.84165">
        <ele>236.061969</ele>
        <time>2022-08-06T01:52:11.812Z</time>
      </trkpt>
      <trkpt lat="46.0659" lon="14.84164">
        <ele>235.919899</ele>
        <time>2022-08-06T01:52:16.726Z</time>
      </trkpt>
      <trkpt lat="46.06601" lon="14.84168">
        <ele>235.843308</ele>
        <time>2022-08-06T01:52:20.309Z</time>
      </trkpt>
      <trkpt lat="46.06677" lon="14.84297">
        <ele>235.267338</ele>
        <time>2022-08-06T01:52:51.808Z</time>
      </trkpt>
      <trkpt lat="46.06806" lon="14.84664">
        <ele>232.926509</ele>
        <time>2022-08-06T01:54:01.275Z</time>
      </trkpt>
      <trkpt lat="46.06872" lon="14.84829">
        <ele>231.979915</ele>
        <time>2022-08-06T01:54:34.456Z</time>
      </trkpt>
      <trkpt lat="46.06895" lon="14.84891">
        <ele>231.978597</ele>
        <time>2022-08-06T01:54:47.281Z</time>
      </trkpt>
      <trkpt lat="46.06904" lon="14.84917">
        <ele>232.002087</ele>
        <time>2022-08-06T01:54:52.614Z</time>
      </trkpt>
      <trkpt lat="46.0692" lon="14.84963">
        <ele>232.042883</ele>
        <time>2022-08-06T01:55:02.230Z</time>
      </trkpt>
      <trkpt lat="46.0694" lon="14.85014">
        <ele>232.090561</ele>
        <time>2022-08-06T01:55:13.805Z</time>
      </trkpt>
      <trkpt lat="46.07085" lon="14.8538">
        <ele>234.361603</ele>
        <time>2022-08-06T01:56:50.782Z</time>
      </trkpt>
      <trkpt lat="46.07099" lon="14.85409">
        <ele>234.454231</ele>
        <time>2022-08-06T01:56:58.229Z</time>
      </trkpt>
      <trkpt lat="46.0714" lon="14.85475">
        <ele>234.687329</ele>
        <time>2022-08-06T01:57:15.051Z</time>
      </trkpt>
      <trkpt lat="46.07219" lon="14.85646">
        <ele>234.14582</ele>
        <time>2022-08-06T01:57:50.845Z</time>
      </trkpt>
      <trkpt lat="46.0729" lon="14.85786">
        <ele>234.077296</ele>
        <time>2022-08-06T01:58:22.508Z</time>
      </trkpt>
      <trkpt lat="46.07333" lon="14.85827">
        <ele>234.285275</ele>
        <time>2022-08-06T01:58:38.532Z</time>
      </trkpt>
      <trkpt lat="46.07347" lon="14.85849">
        <ele>234.367971</ele>
        <time>2022-08-06T01:58:44.951Z</time>
      </trkpt>
      <trkpt lat="46.07363" lon="14.8589">
        <ele>234.500698</ele>
        <time>2022-08-06T01:58:55.687Z</time>
      </trkpt>
      <trkpt lat="46.07388" lon="14.85924">
        <ele>234.68185</ele>
        <time>2022-08-06T01:59:07.127Z</time>
      </trkpt>
      <trkpt lat="46.07456" lon="14.85973">
        <ele>235.149406</ele>
        <time>2022-08-06T01:59:31.011Z</time>
      </trkpt>
      <trkpt lat="46.07503" lon="14.8604">
        <ele>235.554552</ele>
        <time>2022-08-06T01:59:50.776Z</time>
      </trkpt>
      <trkpt lat="46.07575" lon="14.8614">
        <ele>235.461666</ele>
        <time>2022-08-06T02:00:19.021Z</time>
      </trkpt>
      <trkpt lat="46.07635" lon="14.86268">
        <ele>235.148834</ele>
        <time>2022-08-06T02:00:46.478Z</time>
      </trkpt>
      <trkpt lat="46.07721" lon="14.86386">
        <ele>234.305679</ele>
        <time>2022-08-06T02:01:16.269Z</time>
      </trkpt>
      <trkpt lat="46.07777" lon="14.86502">
        <ele>233.74597</ele>
        <time>2022-08-06T02:01:40.748Z</time>
      </trkpt>
      <trkpt lat="46.078" lon="14.86532">
        <ele>233.619104</ele>
        <time>2022-08-06T02:01:48.569Z</time>
      </trkpt>
      <trkpt lat="46.07835" lon="14.86588">
        <ele>233.401818</ele>
        <time>2022-08-06T02:02:02.309Z</time>
      </trkpt>
      <trkpt lat="46.07865" lon="14.86665">
        <ele>233.217043</ele>
        <time>2022-08-06T02:02:18.672Z</time>
      </trkpt>
      <trkpt lat="46.0797" lon="14.86782">
        <ele>233.480311</ele>
        <time>2022-08-06T02:02:57.191Z</time>
      </trkpt>
      <trkpt lat="46.08062" lon="14.86853">
        <ele>233.845755</ele>
        <time>2022-08-06T02:03:27.858Z</time>
      </trkpt>
      <trkpt lat="46.08108" lon="14.86876">
        <ele>234.057787</ele>
        <time>2022-08-06T02:03:42.629Z</time>
      </trkpt>
      <trkpt lat="46.08126" lon="14.86916">
        <ele>234.201757</ele>
        <time>2022-08-06T02:03:52.772Z</time>
      </trkpt>
      <trkpt lat="46.08223" lon="14.87037">
        <ele>234.805183</ele>
        <time>2022-08-06T02:04:31.235Z</time>
      </trkpt>
      <trkpt lat="46.08273" lon="14.87109">
        <ele>235.147362</ele>
        <time>2022-08-06T02:04:53.174Z</time>
      </trkpt>
      <trkpt lat="46.08289" lon="14.87136">
        <ele>235.16467</ele>
        <time>2022-08-06T02:05:00.536Z</time>
      </trkpt>
      <trkpt lat="46.08293" lon="14.87152">
        <ele>235.133141</ele>
        <time>2022-08-06T02:05:03.971Z</time>
      </trkpt>
      <trkpt lat="46.08313" lon="14.87276">
        <ele>234.896818</ele>
        <time>2022-08-06T02:05:27.584Z</time>
      </trkpt>
      <trkpt lat="46.08366" lon="14.87463">
        <ele>234.208695</ele>
        <time>2022-08-06T02:06:02.754Z</time>
      </trkpt>
      <trkpt lat="46.0839" lon="14.8751">
        <ele>233.92988</ele>
        <time>2022-08-06T02:06:12.569Z</time>
      </trkpt>
      <trkpt lat="46.08423" lon="14.87555">
        <ele>233.619509</ele>
        <time>2022-08-06T02:06:23.733Z</time>
      </trkpt>
      <trkpt lat="46.08565" lon="14.87856">
        <ele>233.334393</ele>
        <time>2022-08-06T02:07:32.221Z</time>
      </trkpt>
      <trkpt lat="46.08604" lon="14.87964">
        <ele>233.580912</ele>
        <time>2022-08-06T02:07:57.223Z</time>
      </trkpt>
      <trkpt lat="46.08614" lon="14.87988">
        <ele>233.636947</ele>
        <time>2022-08-06T02:08:02.957Z</time>
      </trkpt>
      <trkpt lat="46.08678" lon="14.88208">
        <ele>234.716498</ele>
        <time>2022-08-06T02:08:54.714Z</time>
      </trkpt>
      <trkpt lat="46.08733" lon="14.88525">
        <ele>235.975876</ele>
        <time>2022-08-06T02:10:05.863Z</time>
      </trkpt>
      <trkpt lat="46.08834" lon="14.88689">
        <ele>234.863844</ele>
        <time>2022-08-06T02:10:43.455Z</time>
      </trkpt>
      <trkpt lat="46.08836" lon="14.88702">
        <ele>234.796545</ele>
        <time>2022-08-06T02:10:45.438Z</time>
      </trkpt>
      <trkpt lat="46.08835" lon="14.88708">
        <ele>234.766293</ele>
        <time>2022-08-06T02:10:46.343Z</time>
      </trkpt>
      <trkpt lat="46.08832" lon="14.88722">
        <ele>234.682094</ele>
        <time>2022-08-06T02:10:48.928Z</time>
      </trkpt>
      <trkpt lat="46.08814" lon="14.8874">
        <ele>234.484021</ele>
        <time>2022-08-06T02:10:54.039Z</time>
      </trkpt>
      <trkpt lat="46.08809" lon="14.88753">
        <ele>234.394838</ele>
        <time>2022-08-06T02:10:56.370Z</time>
      </trkpt>
      <trkpt lat="46.08809" lon="14.88781">
        <ele>234.219473</ele>
        <time>2022-08-06T02:11:01.153Z</time>
      </trkpt>
      <trkpt lat="46.08827" lon="14.88893">
        <ele>233.508803</ele>
        <time>2022-08-06T02:11:19.874Z</time>
      </trkpt>
      <trkpt lat="46.0882" lon="14.88918">
        <ele>233.337017</ele>
        <time>2022-08-06T02:11:24.697Z</time>
      </trkpt>
      <trkpt lat="46.08791" lon="14.88937">
        <ele>233.212345</ele>
        <time>2022-08-06T02:11:33.167Z</time>
      </trkpt>
      <trkpt lat="46.08785" lon="14.88949">
        <ele>233.347182</ele>
        <time>2022-08-06T02:11:36.302Z</time>
      </trkpt>
      <trkpt lat="46.08788" lon="14.89085">
        <ele>234.57767</ele>
        <time>2022-08-06T02:12:06.202Z</time>
      </trkpt>
      <trkpt lat="46.08788" lon="14.89131">
        <ele>234.993917</ele>
        <time>2022-08-06T02:12:17.622Z</time>
      </trkpt>
      <trkpt lat="46.08789" lon="14.89193">
        <ele>235.620398</ele>
        <time>2022-08-06T02:12:35.484Z</time>
      </trkpt>
      <trkpt lat="46.088" lon="14.89264">
        <ele>236.695242</ele>
        <time>2022-08-06T02:12:58.355Z</time>
      </trkpt>
      <trkpt lat="46.08807" lon="14.89272">
        <ele>236.892711</ele>
        <time>2022-08-06T02:13:02.183Z</time>
      </trkpt>
      <trkpt lat="46.08819" lon="14.89271">
        <ele>237.139235</ele>
        <time>2022-08-06T02:13:07.347Z</time>
      </trkpt>
      <trkpt lat="46.0888" lon="14.89242">
        <ele>238.518628</ele>
        <time>2022-08-06T02:13:31.395Z</time>
      </trkpt>
      <trkpt lat="46.08896" lon="14.89246">
        <ele>238.867484</ele>
        <time>2022-08-06T02:13:37.323Z</time>
      </trkpt>
      <trkpt lat="46.08915" lon="14.89278">
        <ele>239.199305</ele>
        <time>2022-08-06T02:13:46.035Z</time>
      </trkpt>
      <trkpt lat="46.08916" lon="14.89304">
        <ele>238.931427</ele>
        <time>2022-08-06T02:13:51.423Z</time>
      </trkpt>
      <trkpt lat="46.08906" lon="14.89336">
        <ele>238.582281</ele>
        <time>2022-08-06T02:13:58.587Z</time>
      </trkpt>
      <trkpt lat="46.08885" lon="14.89415">
        <ele>237.742087</ele>
        <time>2022-08-06T02:14:12.475Z</time>
      </trkpt>
      <trkpt lat="46.08881" lon="14.89446">
        <ele>237.426895</ele>
        <time>2022-08-06T02:14:17.253Z</time>
      </trkpt>
      <trkpt lat="46.08885" lon="14.89485">
        <ele>237.030845</ele>
        <time>2022-08-06T02:14:22.766Z</time>
      </trkpt>
      <trkpt lat="46.08856" lon="14.89635">
        <ele>234.422015</ele>
        <time>2022-08-06T02:14:44.274Z</time>
      </trkpt>
      <trkpt lat="46.08855" lon="14.89698">
        <ele>233.250759</ele>
        <time>2022-08-06T02:14:53.791Z</time>
      </trkpt>
      <trkpt lat="46.08876" lon="14.89806">
        <ele>231.801026</ele>
        <time>2022-08-06T02:15:11.486Z</time>
      </trkpt>
      <trkpt lat="46.08914" lon="14.89888">
        <ele>231.488093</ele>
        <time>2022-08-06T02:15:29.356Z</time>
      </trkpt>
      <trkpt lat="46.08933" lon="14.89916">
        <ele>231.362637</ele>
        <time>2022-08-06T02:15:37.631Z</time>
      </trkpt>
      <trkpt lat="46.08965" lon="14.9">
        <ele>231.287951</ele>
        <time>2022-08-06T02:15:56.866Z</time>
      </trkpt>
      <trkpt lat="46.0898" lon="14.90047">
        <ele>231.907937</ele>
        <time>2022-08-06T02:16:05.829Z</time>
      </trkpt>
      <trkpt lat="46.09036" lon="14.90103">
        <ele>233.079073</ele>
        <time>2022-08-06T02:16:22.162Z</time>
      </trkpt>
      <trkpt lat="46.09042" lon="14.9012">
        <ele>233.310417</ele>
        <time>2022-08-06T02:16:25.917Z</time>
      </trkpt>
      <trkpt lat="46.09042" lon="14.9014">
        <ele>233.559152</ele>
        <time>2022-08-06T02:16:29.341Z</time>
      </trkpt>
      <trkpt lat="46.09001" lon="14.90175">
        <ele>235.379422</ele>
        <time>2022-08-06T02:16:57.414Z</time>
      </trkpt>
      <trkpt lat="46.08975" lon="14.902">
        <ele>239.127785</ele>
        <time>2022-08-06T02:17:21.022Z</time>
      </trkpt>
      <trkpt lat="46.08975" lon="14.90223">
        <ele>241.038147</ele>
        <time>2022-08-06T02:17:39.604Z</time>
      </trkpt>
      <trkpt lat="46.09006" lon="14.90277">
        <ele>246.862164</ele>
        <time>2022-08-06T02:18:23.090Z</time>
      </trkpt>
      <trkpt lat="46.09001" lon="14.90284">
        <ele>247.683062</ele>
        <time>2022-08-06T02:18:27.178Z</time>
      </trkpt>
      <trkpt lat="46.08985" lon="14.9031">
        <ele>250.556877</ele>
        <time>2022-08-06T02:18:53.705Z</time>
      </trkpt>
      <trkpt lat="46.08947" lon="14.90374">
        <ele>257.218996</ele>
        <time>2022-08-06T02:19:47.192Z</time>
      </trkpt>
      <trkpt lat="46.08941" lon="14.90384">
        <ele>258.172036</ele>
        <time>2022-08-06T02:20:00.354Z</time>
      </trkpt>
      <trkpt lat="46.09058" lon="14.90541">
        <ele>273.594048</ele>
        <time>2022-08-06T02:22:00.115Z</time>
      </trkpt>
      <trkpt lat="46.09199" lon="14.90709">
        <ele>274.74481</ele>
        <time>2022-08-06T02:22:45.425Z</time>
      </trkpt>
      <trkpt lat="46.0924" lon="14.90771">
        <ele>273.154747</ele>
        <time>2022-08-06T02:22:57.925Z</time>
      </trkpt>
      <trkpt lat="46.09264" lon="14.90846">
        <ele>271.635318</ele>
        <time>2022-08-06T02:23:09.245Z</time>
      </trkpt>
      <trkpt lat="46.09282" lon="14.91013">
        <ele>268.534405</ele>
        <time>2022-08-06T02:23:31.448Z</time>
      </trkpt>
      <trkpt lat="46.09283" lon="14.91118">
        <ele>266.632951</ele>
        <time>2022-08-06T02:23:45.872Z</time>
      </trkpt>
      <trkpt lat="46.09279" lon="14.9122">
        <ele>265.747495</ele>
        <time>2022-08-06T02:24:01.987Z</time>
      </trkpt>
      <trkpt lat="46.09261" lon="14.9132">
        <ele>266.719302</ele>
        <time>2022-08-06T02:24:23.025Z</time>
      </trkpt>
      <trkpt lat="46.09171" lon="14.91723">
        <ele>272.502028</ele>
        <time>2022-08-06T02:26:25.783Z</time>
      </trkpt>
      <trkpt lat="46.09159" lon="14.91809">
        <ele>271.215376</ele>
        <time>2022-08-06T02:26:40.042Z</time>
      </trkpt>
      <trkpt lat="46.09152" lon="14.91906">
        <ele>269.774482</ele>
        <time>2022-08-06T02:26:52.903Z</time>
      </trkpt>
      <trkpt lat="46.0915" lon="14.92015">
        <ele>265.587642</ele>
        <time>2022-08-06T02:27:05.866Z</time>
      </trkpt>
      <trkpt lat="46.09166" lon="14.92195">
        <ele>256.929854</ele>
        <time>2022-08-06T02:27:26.798Z</time>
      </trkpt>
      <trkpt lat="46.09177" lon="14.92247">
        <ele>257.74016</ele>
        <time>2022-08-06T02:27:35.455Z</time>
      </trkpt>
      <trkpt lat="46.09202" lon="14.92329">
        <ele>259.093908</ele>
        <time>2022-08-06T02:27:59.329Z</time>
      </trkpt>
      <trkpt lat="46.09205" lon="14.92358">
        <ele>259.529795</ele>
        <time>2022-08-06T02:28:07.097Z</time>
      </trkpt>
      <trkpt lat="46.09205" lon="14.92365">
        <ele>259.627668</ele>
        <time>2022-08-06T02:28:09.463Z</time>
      </trkpt>
      <trkpt lat="46.09206" lon="14.92403">
        <ele>260.205439</ele>
        <time>2022-08-06T02:28:24.877Z</time>
      </trkpt>
      <trkpt lat="46.0921" lon="14.92447">
        <ele>260.941611</ele>
        <time>2022-08-06T02:28:44.655Z</time>
      </trkpt>
      <trkpt lat="46.09233" lon="14.92547">
        <ele>264.755782</ele>
        <time>2022-08-06T02:29:29.117Z</time>
      </trkpt>
      <trkpt lat="46.09237" lon="14.92594">
        <ele>266.510378</ele>
        <time>2022-08-06T02:29:49.938Z</time>
      </trkpt>
      <trkpt lat="46.09234" lon="14.92692">
        <ele>270.054633</ele>
        <time>2022-08-06T02:30:20.992Z</time>
      </trkpt>
      <trkpt lat="46.09222" lon="14.92812">
        <ele>270.020514</ele>
        <time>2022-08-06T02:30:40.993Z</time>
      </trkpt>
      <trkpt lat="46.09211" lon="14.92876">
        <ele>269.900404</ele>
        <time>2022-08-06T02:30:51.137Z</time>
      </trkpt>
      <trkpt lat="46.09195" lon="14.92933">
        <ele>269.789172</ele>
        <time>2022-08-06T02:31:00.646Z</time>
      </trkpt>
      <trkpt lat="46.09187" lon="14.92996">
        <ele>270.242639</ele>
        <time>2022-08-06T02:31:12.261Z</time>
      </trkpt>
      <trkpt lat="46.09183" lon="14.93062">
        <ele>270.907746</ele>
        <time>2022-08-06T02:31:27.541Z</time>
      </trkpt>
      <trkpt lat="46.09169" lon="14.93178">
        <ele>272.082415</ele>
        <time>2022-08-06T02:31:58.961Z</time>
      </trkpt>
      <trkpt lat="46.09145" lon="14.93286">
        <ele>273.388972</ele>
        <time>2022-08-06T02:32:28.162Z</time>
      </trkpt>
      <trkpt lat="46.09105" lon="14.93423">
        <ele>275.196077</ele>
        <time>2022-08-06T02:33:03.356Z</time>
      </trkpt>
      <trkpt lat="46.09095" lon="14.93475">
        <ele>275.44913</ele>
        <time>2022-08-06T02:33:15.988Z</time>
      </trkpt>
      <trkpt lat="46.09094" lon="14.93544">
        <ele>275.347764</ele>
        <time>2022-08-06T02:33:31.485Z</time>
      </trkpt>
      <trkpt lat="46.09099" lon="14.93638">
        <ele>275.209826</ele>
        <time>2022-08-06T02:33:48.899Z</time>
      </trkpt>
      <trkpt lat="46.09078" lon="14.93776">
        <ele>273.031007</ele>
        <time>2022-08-06T02:34:08.961Z</time>
      </trkpt>
      <trkpt lat="46.09077" lon="14.93807">
        <ele>272.161052</ele>
        <time>2022-08-06T02:34:13.009Z</time>
      </trkpt>
      <trkpt lat="46.09086" lon="14.93869">
        <ele>270.417147</ele>
        <time>2022-08-06T02:34:21.035Z</time>
      </trkpt>
      <trkpt lat="46.09141" lon="14.93995">
        <ele>266.630606</ele>
        <time>2022-08-06T02:34:39.576Z</time>
      </trkpt>
      <trkpt lat="46.09152" lon="14.94042">
        <ele>265.535474</ele>
        <time>2022-08-06T02:34:45.863Z</time>
      </trkpt>
      <trkpt lat="46.09155" lon="14.9421">
        <ele>262.202519</ele>
        <time>2022-08-06T02:35:09.839Z</time>
      </trkpt>
      <trkpt lat="46.0919" lon="14.94415">
        <ele>262.386322</ele>
        <time>2022-08-06T02:35:55.716Z</time>
      </trkpt>
      <trkpt lat="46.09178" lon="14.94545">
        <ele>260.696201</ele>
        <time>2022-08-06T02:36:17.652Z</time>
      </trkpt>
      <trkpt lat="46.09179" lon="14.94643">
        <ele>258.989163</ele>
        <time>2022-08-06T02:36:31.493Z</time>
      </trkpt>
      <trkpt lat="46.09197" lon="14.9472">
        <ele>257.106664</ele>
        <time>2022-08-06T02:36:41.795Z</time>
      </trkpt>
      <trkpt lat="46.09251" lon="14.94835">
        <ele>251.266049</ele>
        <time>2022-08-06T02:36:58.409Z</time>
      </trkpt>
      <trkpt lat="46.09279" lon="14.94912">
        <ele>247.581244</ele>
        <time>2022-08-06T02:37:08.724Z</time>
      </trkpt>
      <trkpt lat="46.09321" lon="14.95101">
        <ele>244.862409</ele>
        <time>2022-08-06T02:37:35.723Z</time>
      </trkpt>
      <trkpt lat="46.09367" lon="14.95206">
        <ele>245.994593</ele>
        <time>2022-08-06T02:38:07.451Z</time>
      </trkpt>
      <trkpt lat="46.09433" lon="14.95324">
        <ele>252.07926</ele>
        <time>2022-08-06T02:39:09.300Z</time>
      </trkpt>
      <trkpt lat="46.09551" lon="14.95579">
        <ele>266.862785</ele>
        <time>2022-08-06T02:41:26.142Z</time>
      </trkpt>
      <trkpt lat="46.09578" lon="14.95621">
        <ele>267.772948</ele>
        <time>2022-08-06T02:41:45.649Z</time>
      </trkpt>
      <trkpt lat="46.09604" lon="14.95652">
        <ele>268.174666</ele>
        <time>2022-08-06T02:42:00.729Z</time>
      </trkpt>
      <trkpt lat="46.09796" lon="14.95819">
        <ele>267.104282</ele>
        <time>2022-08-06T02:42:51.459Z</time>
      </trkpt>
      <trkpt lat="46.09928" lon="14.95873">
        <ele>264.673107</ele>
        <time>2022-08-06T02:43:17.528Z</time>
      </trkpt>
      <trkpt lat="46.09985" lon="14.95919">
        <ele>263.803073</ele>
        <time>2022-08-06T02:43:32.862Z</time>
      </trkpt>
      <trkpt lat="46.10043" lon="14.95981">
        <ele>263.960937</ele>
        <time>2022-08-06T02:43:56.228Z</time>
      </trkpt>
      <trkpt lat="46.10127" lon="14.96085">
        <ele>267.274608</ele>
        <time>2022-08-06T02:44:39.193Z</time>
      </trkpt>
      <trkpt lat="46.10167" lon="14.96111">
        <ele>268.619967</ele>
        <time>2022-08-06T02:44:56.515Z</time>
      </trkpt>
      <trkpt lat="46.10282" lon="14.96139">
        <ele>280.399852</ele>
        <time>2022-08-06T02:46:17.687Z</time>
      </trkpt>
      <trkpt lat="46.1032" lon="14.96163">
        <ele>284.6531</ele>
        <time>2022-08-06T02:46:57.191Z</time>
      </trkpt>
      <trkpt lat="46.10413" lon="14.96219">
        <ele>295.622494</ele>
        <time>2022-08-06T02:48:36.222Z</time>
      </trkpt>
      <trkpt lat="46.10456" lon="14.9626">
        <ele>301.326119</ele>
        <time>2022-08-06T02:49:25.529Z</time>
      </trkpt>
      <trkpt lat="46.10494" lon="14.96314">
        <ele>306.679727</ele>
        <time>2022-08-06T02:49:56.992Z</time>
      </trkpt>
      <trkpt lat="46.1055" lon="14.9645">
        <ele>304.343256</ele>
        <time>2022-08-06T02:50:19.692Z</time>
      </trkpt>
      <trkpt lat="46.10578" lon="14.96514">
        <ele>303.224118</ele>
        <time>2022-08-06T02:50:29.374Z</time>
      </trkpt>
      <trkpt lat="46.1066" lon="14.96734">
        <ele>295.02685</ele>
        <time>2022-08-06T02:51:00.420Z</time>
      </trkpt>
      <trkpt lat="46.10747" lon="14.96864">
        <ele>291.06808</ele>
        <time>2022-08-06T02:51:25.291Z</time>
      </trkpt>
      <trkpt lat="46.10835" lon="14.97014">
        <ele>287.724822</ele>
        <time>2022-08-06T02:51:53.550Z</time>
      </trkpt>
      <trkpt lat="46.10951" lon="14.97184">
        <ele>285.162019</ele>
        <time>2022-08-06T02:52:28.476Z</time>
      </trkpt>
      <trkpt lat="46.1106" lon="14.97371">
        <ele>286.57159</ele>
        <time>2022-08-06T02:53:13.866Z</time>
      </trkpt>
      <trkpt lat="46.1109" lon="14.9745">
        <ele>289.812705</ele>
        <time>2022-08-06T02:53:44.008Z</time>
      </trkpt>
      <trkpt lat="46.11101" lon="14.97493">
        <ele>291.476452</ele>
        <time>2022-08-06T02:54:02.915Z</time>
      </trkpt>
      <trkpt lat="46.11112" lon="14.97619">
        <ele>297.449135</ele>
        <time>2022-08-06T02:55:05.590Z</time>
      </trkpt>
      <trkpt lat="46.11121" lon="14.97682">
        <ele>301.333628</ele>
        <time>2022-08-06T02:55:40.100Z</time>
      </trkpt>
      <trkpt lat="46.11151" lon="14.97799">
        <ele>308.871072</ele>
        <time>2022-08-06T02:56:39.448Z</time>
      </trkpt>
      <trkpt lat="46.11161" lon="14.97906">
        <ele>311.914369</ele>
        <time>2022-08-06T02:57:20.585Z</time>
      </trkpt>
      <trkpt lat="46.11172" lon="14.9796">
        <ele>313.213001</ele>
        <time>2022-08-06T02:57:38.386Z</time>
      </trkpt>
      <trkpt lat="46.11303" lon="14.9824">
        <ele>313.713611</ele>
        <time>2022-08-06T02:58:42.828Z</time>
      </trkpt>
      <trkpt lat="46.11419" lon="14.9838">
        <ele>302.40352</ele>
        <time>2022-08-06T02:59:08.545Z</time>
      </trkpt>
      <trkpt lat="46.11459" lon="14.98428">
        <ele>297.912597</ele>
        <time>2022-08-06T02:59:16.842Z</time>
      </trkpt>
      <trkpt lat="46.11486" lon="14.98453">
        <ele>294.408281</ele>
        <time>2022-08-06T02:59:21.995Z</time>
      </trkpt>
      <trkpt lat="46.11555" lon="14.98493">
        <ele>286.384077</ele>
        <time>2022-08-06T02:59:33.821Z</time>
      </trkpt>
      <trkpt lat="46.11616" lon="14.98561">
        <ele>278.382591</ele>
        <time>2022-08-06T02:59:46.338Z</time>
      </trkpt>
      <trkpt lat="46.11692" lon="14.98624">
        <ele>273.157592</ele>
        <time>2022-08-06T03:00:01.855Z</time>
      </trkpt>
      <trkpt lat="46.11724" lon="14.98658">
        <ele>270.785959</ele>
        <time>2022-08-06T03:00:09.512Z</time>
      </trkpt>
      <trkpt lat="46.11824" lon="14.98798">
        <ele>262.423252</ele>
        <time>2022-08-06T03:00:34.358Z</time>
      </trkpt>
      <trkpt lat="46.11885" lon="14.98904">
        <ele>256.756567</ele>
        <time>2022-08-06T03:00:50.795Z</time>
      </trkpt>
      <trkpt lat="46.11909" lon="14.98966">
        <ele>254.264464</ele>
        <time>2022-08-06T03:00:59.250Z</time>
      </trkpt>
      <trkpt lat="46.11914" lon="14.98992">
        <ele>253.294191</ele>
        <time>2022-08-06T03:01:02.518Z</time>
      </trkpt>
      <trkpt lat="46.11917" lon="14.9904">
        <ele>251.582404</ele>
        <time>2022-08-06T03:01:08.458Z</time>
      </trkpt>
      <trkpt lat="46.11915" lon="14.99092">
        <ele>249.740906</ele>
        <time>2022-08-06T03:01:15.220Z</time>
      </trkpt>
      <trkpt lat="46.11905" lon="14.99147">
        <ele>247.816531</ele>
        <time>2022-08-06T03:01:23.175Z</time>
      </trkpt>
      <trkpt lat="46.11852" lon="14.99312">
        <ele>243.957278</ele>
        <time>2022-08-06T03:01:48.516Z</time>
      </trkpt>
      <trkpt lat="46.11814" lon="14.99427">
        <ele>241.022022</ele>
        <time>2022-08-06T03:02:05.498Z</time>
      </trkpt>
      <trkpt lat="46.11774" lon="14.9952">
        <ele>238.256594</ele>
        <time>2022-08-06T03:02:19.749Z</time>
      </trkpt>
      <trkpt lat="46.11668" lon="14.9967">
        <ele>233.739317</ele>
        <time>2022-08-06T03:02:48.537Z</time>
      </trkpt>
      <trkpt lat="46.11621" lon="14.99726">
        <ele>232.17713</ele>
        <time>2022-08-06T03:03:01.367Z</time>
      </trkpt>
      <trkpt lat="46.11522" lon="14.99816">
        <ele>230.961482</ele>
        <time>2022-08-06T03:03:27.338Z</time>
      </trkpt>
      <trkpt lat="46.11373" lon="14.99898">
        <ele>234.320693</ele>
        <time>2022-08-06T03:04:12.405Z</time>
      </trkpt>
      <trkpt lat="46.11303" lon="14.99955">
        <ele>239.20233</ele>
        <time>2022-08-06T03:05:02.308Z</time>
      </trkpt>
      <trkpt lat="46.11288" lon="14.99971">
        <ele>240.332716</ele>
        <time>2022-08-06T03:05:17.038Z</time>
      </trkpt>
      <trkpt lat="46.1128" lon="14.99981">
        <ele>240.990795</ele>
        <time>2022-08-06T03:05:27.077Z</time>
      </trkpt>
      <trkpt lat="46.11176" lon="15.00144">
        <ele>256.194395</ele>
        <time>2022-08-06T03:07:37.907Z</time>
      </trkpt>
      <trkpt lat="46.11153" lon="15.00192">
        <ele>259.593387</ele>
        <time>2022-08-06T03:08:03.653Z</time>
      </trkpt>
      <trkpt lat="46.1114" lon="15.00266">
        <ele>257.869145</ele>
        <time>2022-08-06T03:08:23.244Z</time>
      </trkpt>
      <trkpt lat="46.11138" lon="15.00434">
        <ele>254.124247</ele>
        <time>2022-08-06T03:08:43.250Z</time>
      </trkpt>
      <trkpt lat="46.11132" lon="15.00512">
        <ele>250.320229</ele>
        <time>2022-08-06T03:08:52.117Z</time>
      </trkpt>
      <trkpt lat="46.11122" lon="15.00655">
        <ele>242.928156</ele>
        <time>2022-08-06T03:09:08.892Z</time>
      </trkpt>
      <trkpt lat="46.11121" lon="15.00768">
        <ele>239.959995</ele>
        <time>2022-08-06T03:09:23.516Z</time>
      </trkpt>
      <trkpt lat="46.11131" lon="15.0088">
        <ele>238.800973</ele>
        <time>2022-08-06T03:09:41.724Z</time>
      </trkpt>
      <trkpt lat="46.11146" lon="15.00952">
        <ele>238.035175</ele>
        <time>2022-08-06T03:09:56.753Z</time>
      </trkpt>
      <trkpt lat="46.1118" lon="15.01039">
        <ele>239.51017</ele>
        <time>2022-08-06T03:10:21.453Z</time>
      </trkpt>
      <trkpt lat="46.11245" lon="15.01145">
        <ele>241.688182</ele>
        <time>2022-08-06T03:10:58.373Z</time>
      </trkpt>
      <trkpt lat="46.11426" lon="15.01767">
        <ele>260.409089</ele>
        <time>2022-08-06T03:14:36.720Z</time>
      </trkpt>
      <trkpt lat="46.11532" lon="15.0206">
        <ele>267.723549</ele>
        <time>2022-08-06T03:16:18.909Z</time>
      </trkpt>
      <trkpt lat="46.11598" lon="15.02221">
        <ele>266.740893</ele>
        <time>2022-08-06T03:16:51.387Z</time>
      </trkpt>
      <trkpt lat="46.11679" lon="15.02371">
        <ele>262.235798</ele>
        <time>2022-08-06T03:17:15.973Z</time>
      </trkpt>
      <trkpt lat="46.11812" lon="15.02553">
        <ele>252.362827</ele>
        <time>2022-08-06T03:17:47.828Z</time>
      </trkpt>
      <trkpt lat="46.1185" lon="15.02596">
        <ele>250.485828</ele>
        <time>2022-08-06T03:17:56.556Z</time>
      </trkpt>
      <trkpt lat="46.11912" lon="15.02637">
        <ele>247.822885</ele>
        <time>2022-08-06T03:18:10.263Z</time>
      </trkpt>
      <trkpt lat="46.11949" lon="15.02674">
        <ele>247.689443</ele>
        <time>2022-08-06T03:18:20.929Z</time>
      </trkpt>
      <trkpt lat="46.1202" lon="15.02794">
        <ele>249.49517</ele>
        <time>2022-08-06T03:18:59.972Z</time>
      </trkpt>
      <trkpt lat="46.12105" lon="15.02868">
        <ele>251.892425</ele>
        <time>2022-08-06T03:19:45.691Z</time>
      </trkpt>
      <trkpt lat="46.12134" lon="15.02905">
        <ele>253.020669</ele>
        <time>2022-08-06T03:20:01.509Z</time>
      </trkpt>
      <trkpt lat="46.12171" lon="15.02997">
        <ele>255.191316</ele>
        <time>2022-08-06T03:20:29.929Z</time>
      </trkpt>
      <trkpt lat="46.12204" lon="15.03066">
        <ele>255.687384</ele>
        <time>2022-08-06T03:20:51.542Z</time>
      </trkpt>
      <trkpt lat="46.12523" lon="15.0366">
        <ele>257.766213</ele>
        <time>2022-08-06T03:23:13.296Z</time>
      </trkpt>
      <trkpt lat="46.12562" lon="15.03777">
        <ele>258.768592</ele>
        <time>2022-08-06T03:23:45.235Z</time>
      </trkpt>
      <trkpt lat="46.12572" lon="15.03821">
        <ele>259.121849</ele>
        <time>2022-08-06T03:23:56.050Z</time>
      </trkpt>
      <trkpt lat="46.12579" lon="15.03848">
        <ele>259.348366</ele>
        <time>2022-08-06T03:24:02.625Z</time>
      </trkpt>
      <trkpt lat="46.12595" lon="15.03974">
        <ele>258.931235</ele>
        <time>2022-08-06T03:24:27.393Z</time>
      </trkpt>
      <trkpt lat="46.12617" lon="15.04224">
        <ele>257.642779</ele>
        <time>2022-08-06T03:25:05.557Z</time>
      </trkpt>
      <trkpt lat="46.12632" lon="15.04571">
        <ele>255.791971</ele>
        <time>2022-08-06T03:26:05.968Z</time>
      </trkpt>
      <trkpt lat="46.12626" lon="15.04653">
        <ele>255.15239</ele>
        <time>2022-08-06T03:26:19.445Z</time>
      </trkpt>
      <trkpt lat="46.12582" lon="15.04991">
        <ele>249.051328</ele>
        <time>2022-08-06T03:27:07.301Z</time>
      </trkpt>
      <trkpt lat="46.12569" lon="15.05072">
        <ele>247.370665</ele>
        <time>2022-08-06T03:27:18.532Z</time>
      </trkpt>
      <trkpt lat="46.12532" lon="15.05236">
        <ele>244.260375</ele>
        <time>2022-08-06T03:27:42.364Z</time>
      </trkpt>
      <trkpt lat="46.12499" lon="15.05437">
        <ele>241.351116</ele>
        <time>2022-08-06T03:28:12.208Z</time>
      </trkpt>
      <trkpt lat="46.12464" lon="15.05745">
        <ele>242.603979</ele>
        <time>2022-08-06T03:29:04.965Z</time>
      </trkpt>
      <trkpt lat="46.12457" lon="15.05834">
        <ele>244.913156</ele>
        <time>2022-08-06T03:29:36.148Z</time>
      </trkpt>
      <trkpt lat="46.12453" lon="15.05882">
        <ele>246.16441</ele>
        <time>2022-08-06T03:29:57.384Z</time>
      </trkpt>
      <trkpt lat="46.12453" lon="15.05935">
        <ele>248.341108</ele>
        <time>2022-08-06T03:30:22.686Z</time>
      </trkpt>
      <trkpt lat="46.12469" lon="15.06043">
        <ele>253.832633</ele>
        <time>2022-08-06T03:31:15.940Z</time>
      </trkpt>
      <trkpt lat="46.12491" lon="15.06112">
        <ele>257.63208</ele>
        <time>2022-08-06T03:31:50.784Z</time>
      </trkpt>
      <trkpt lat="46.12555" lon="15.06269">
        <ele>258.650857</ele>
        <time>2022-08-06T03:32:40.789Z</time>
      </trkpt>
      <trkpt lat="46.12582" lon="15.06375">
        <ele>257.824178</ele>
        <time>2022-08-06T03:32:54.914Z</time>
      </trkpt>
      <trkpt lat="46.12587" lon="15.06475">
        <ele>251.108817</ele>
        <time>2022-08-06T03:33:06.461Z</time>
      </trkpt>
      <trkpt lat="46.12576" lon="15.06561">
        <ele>244.950546</ele>
        <time>2022-08-06T03:33:16.097Z</time>
      </trkpt>
      <trkpt lat="46.12561" lon="15.06615">
        <ele>240.857994</ele>
        <time>2022-08-06T03:33:22.532Z</time>
      </trkpt>
      <trkpt lat="46.12522" lon="15.06709">
        <ele>234.553022</ele>
        <time>2022-08-06T03:33:34.876Z</time>
      </trkpt>
      <trkpt lat="46.12496" lon="15.06759">
        <ele>231.166381</ele>
        <time>2022-08-06T03:33:42.054Z</time>
      </trkpt>
      <trkpt lat="46.12461" lon="15.06805">
        <ele>227.429986</ele>
        <time>2022-08-06T03:33:50.257Z</time>
      </trkpt>
      <trkpt lat="46.12446" lon="15.06815">
        <ele>226.143201</ele>
        <time>2022-08-06T03:33:53.158Z</time>
      </trkpt>
      <trkpt lat="46.124" lon="15.06828">
        <ele>225.592279</ele>
        <time>2022-08-06T03:34:02.750Z</time>
      </trkpt>
      <trkpt lat="46.12337" lon="15.0683">
        <ele>225.988325</ele>
        <time>2022-08-06T03:34:23.271Z</time>
      </trkpt>
      <trkpt lat="46.1228" lon="15.06843">
        <ele>226.350554</ele>
        <time>2022-08-06T03:34:46.737Z</time>
      </trkpt>
      <trkpt lat="46.12247" lon="15.0686">
        <ele>226.926413</ele>
        <time>2022-08-06T03:35:00.219Z</time>
      </trkpt>
      <trkpt lat="46.12174" lon="15.06915">
        <ele>229.639938</ele>
        <time>2022-08-06T03:35:32.833Z</time>
      </trkpt>
      <trkpt lat="46.12143" lon="15.06946">
        <ele>230.896225</ele>
        <time>2022-08-06T03:35:49.385Z</time>
      </trkpt>
      <trkpt lat="46.12117" lon="15.06982">
        <ele>232.082693</ele>
        <time>2022-08-06T03:36:06.114Z</time>
      </trkpt>
      <trkpt lat="46.12061" lon="15.0711">
        <ele>235.59863</ele>
        <time>2022-08-06T03:36:56.313Z</time>
      </trkpt>
      <trkpt lat="46.12002" lon="15.07196">
        <ele>238.431743</ele>
        <time>2022-08-06T03:37:31.553Z</time>
      </trkpt>
      <trkpt lat="46.11984" lon="15.07245">
        <ele>238.105704</ele>
        <time>2022-08-06T03:37:43.714Z</time>
      </trkpt>
      <trkpt lat="46.11942" lon="15.07446">
        <ele>236.504362</ele>
        <time>2022-08-06T03:38:14.217Z</time>
      </trkpt>
      <trkpt lat="46.11938" lon="15.07521">
        <ele>235.682359</ele>
        <time>2022-08-06T03:38:25.008Z</time>
      </trkpt>
      <trkpt lat="46.1194" lon="15.07612">
        <ele>234.690744</ele>
        <time>2022-08-06T03:38:38.848Z</time>
      </trkpt>
      <trkpt lat="46.11924" lon="15.07738">
        <ele>233.351106</ele>
        <time>2022-08-06T03:38:59.438Z</time>
      </trkpt>
      <trkpt lat="46.11922" lon="15.07815">
        <ele>232.641592</ele>
        <time>2022-08-06T03:39:11.095Z</time>
      </trkpt>
      <trkpt lat="46.11927" lon="15.07861">
        <ele>232.210863</ele>
        <time>2022-08-06T03:39:18.757Z</time>
      </trkpt>
      <trkpt lat="46.1195" lon="15.07981">
        <ele>231.334131</ele>
        <time>2022-08-06T03:39:37.157Z</time>
      </trkpt>
      <trkpt lat="46.11971" lon="15.08107">
        <ele>231.461692</ele>
        <time>2022-08-06T03:39:59.200Z</time>
      </trkpt>
      <trkpt lat="46.12015" lon="15.08511">
        <ele>233.016324</ele>
        <time>2022-08-06T03:41:38.540Z</time>
      </trkpt>
      <trkpt lat="46.12029" lon="15.08573">
        <ele>231.322275</ele>
        <time>2022-08-06T03:41:47.462Z</time>
      </trkpt>
      <trkpt lat="46.12118" lon="15.08872">
        <ele>220.782827</ele>
        <time>2022-08-06T03:42:26.962Z</time>
      </trkpt>
      <trkpt lat="46.12141" lon="15.08954">
        <ele>217.559821</ele>
        <time>2022-08-06T03:42:38.263Z</time>
      </trkpt>
      <trkpt lat="46.12162" lon="15.09097">
        <ele>214.775917</ele>
        <time>2022-08-06T03:42:58.547Z</time>
      </trkpt>
      <trkpt lat="46.12163" lon="15.09102">
        <ele>214.673473</ele>
        <time>2022-08-06T03:42:59.264Z</time>
      </trkpt>
      <trkpt lat="46.12159" lon="15.09204">
        <ele>212.725304</ele>
        <time>2022-08-06T03:43:14.284Z</time>
      </trkpt>
      <trkpt lat="46.12162" lon="15.09223">
        <ele>212.492943</ele>
        <time>2022-08-06T03:43:16.957Z</time>
      </trkpt>
      <trkpt lat="46.12153" lon="15.09258">
        <ele>212.054717</ele>
        <time>2022-08-06T03:43:22.329Z</time>
      </trkpt>
      <trkpt lat="46.12139" lon="15.09255">
        <ele>211.801381</ele>
        <time>2022-08-06T03:43:25.459Z</time>
      </trkpt>
      <trkpt lat="46.12132" lon="15.09237">
        <ele>211.567382</ele>
        <time>2022-08-06T03:43:28.693Z</time>
      </trkpt>
      <trkpt lat="46.12126" lon="15.09243">
        <ele>211.44316</ele>
        <time>2022-08-06T03:43:30.139Z</time>
      </trkpt>
      <trkpt lat="46.12121" lon="15.09262">
        <ele>211.209242</ele>
        <time>2022-08-06T03:43:33.235Z</time>
      </trkpt>
      <trkpt lat="46.12122" lon="15.09287">
        <ele>210.913104</ele>
        <time>2022-08-06T03:43:37.418Z</time>
      </trkpt>
      <trkpt lat="46.12131" lon="15.09314">
        <ele>210.560628</ele>
        <time>2022-08-06T03:43:41.912Z</time>
      </trkpt>
      <trkpt lat="46.12134" lon="15.09337">
        <ele>210.283082</ele>
        <time>2022-08-06T03:43:45.810Z</time>
      </trkpt>
      <trkpt lat="46.12123" lon="15.09383">
        <ele>209.704564</ele>
        <time>2022-08-06T03:43:53.696Z</time>
      </trkpt>
      <trkpt lat="46.12103" lon="15.09427">
        <ele>209.673514</ele>
        <time>2022-08-06T03:44:02.929Z</time>
      </trkpt>
      <trkpt lat="46.12081" lon="15.09458">
        <ele>209.681131</ele>
        <time>2022-08-06T03:44:10.319Z</time>
      </trkpt>
      <trkpt lat="46.12053" lon="15.0948">
        <ele>209.68927</ele>
        <time>2022-08-06T03:44:18.749Z</time>
      </trkpt>
      <trkpt lat="46.12032" lon="15.0951">
        <ele>209.696557</ele>
        <time>2022-08-06T03:44:28.351Z</time>
      </trkpt>
      <trkpt lat="46.11927" lon="15.09546">
        <ele>210.276449</ele>
        <time>2022-08-06T03:45:04.050Z</time>
      </trkpt>
      <trkpt lat="46.119" lon="15.09566">
        <ele>210.597507</ele>
        <time>2022-08-06T03:45:14.330Z</time>
      </trkpt>
      <trkpt lat="46.11765" lon="15.09712">
        <ele>211.76233</ele>
        <time>2022-08-06T03:46:08.633Z</time>
      </trkpt>
      <trkpt lat="46.11633" lon="15.09834">
        <ele>211.701622</ele>
        <time>2022-08-06T03:46:50.470Z</time>
      </trkpt>
      <trkpt lat="46.11575" lon="15.0991">
        <ele>211.231863</ele>
        <time>2022-08-06T03:47:09.866Z</time>
      </trkpt>
      <trkpt lat="46.11503" lon="15.10005">
        <ele>211.019732</ele>
        <time>2022-08-06T03:47:34.214Z</time>
      </trkpt>
      <trkpt lat="46.11446" lon="15.10078">
        <ele>211.180237</ele>
        <time>2022-08-06T03:47:55.624Z</time>
      </trkpt>
      <trkpt lat="46.11352" lon="15.10177">
        <ele>212.495964</ele>
        <time>2022-08-06T03:48:35.161Z</time>
      </trkpt>
      <trkpt lat="46.11337" lon="15.102">
        <ele>212.94072</ele>
        <time>2022-08-06T03:48:43.595Z</time>
      </trkpt>
      <trkpt lat="46.11324" lon="15.10224">
        <ele>213.370952</ele>
        <time>2022-08-06T03:48:51.773Z</time>
      </trkpt>
      <trkpt lat="46.11312" lon="15.10261">
        <ele>213.93637</ele>
        <time>2022-08-06T03:49:02.823Z</time>
      </trkpt>
      <trkpt lat="46.11294" lon="15.10343">
        <ele>215.162348</ele>
        <time>2022-08-06T03:49:26.933Z</time>
      </trkpt>
      <trkpt lat="46.1126" lon="15.10604">
        <ele>219.042915</ele>
        <time>2022-08-06T03:50:39.475Z</time>
      </trkpt>
      <trkpt lat="46.11257" lon="15.10733">
        <ele>219.145883</ele>
        <time>2022-08-06T03:51:06.559Z</time>
      </trkpt>
      <trkpt lat="46.11262" lon="15.10808">
        <ele>219.206265</ele>
        <time>2022-08-06T03:51:19.545Z</time>
      </trkpt>
      <trkpt lat="46.11286" lon="15.10991">
        <ele>218.161671</ele>
        <time>2022-08-06T03:51:49.268Z</time>
      </trkpt>
      <trkpt lat="46.11286" lon="15.1105">
        <ele>217.749918</ele>
        <time>2022-08-06T03:51:59.263Z</time>
      </trkpt>
      <trkpt lat="46.11252" lon="15.11246">
        <ele>217.185172</ele>
        <time>2022-08-06T03:52:37.118Z</time>
      </trkpt>
      <trkpt lat="46.11222" lon="15.11319">
        <ele>217.060069</ele>
        <time>2022-08-06T03:52:53.823Z</time>
      </trkpt>
      <trkpt lat="46.11197" lon="15.11421">
        <ele>215.976162</ele>
        <time>2022-08-06T03:53:13.265Z</time>
      </trkpt>
      <trkpt lat="46.11115" lon="15.11635">
        <ele>212.371465</ele>
        <time>2022-08-06T03:53:49.478Z</time>
      </trkpt>
      <trkpt lat="46.11033" lon="15.11795">
        <ele>208.440365</ele>
        <time>2022-08-06T03:54:17.402Z</time>
      </trkpt>
      <trkpt lat="46.11001" lon="15.11842">
        <ele>208.595304</ele>
        <time>2022-08-06T03:54:27.112Z</time>
      </trkpt>
      <trkpt lat="46.10981" lon="15.11867">
        <ele>208.684841</ele>
        <time>2022-08-06T03:54:33.604Z</time>
      </trkpt>
      <trkpt lat="46.10969" lon="15.11874">
        <ele>208.729835</ele>
        <time>2022-08-06T03:54:37.350Z</time>
      </trkpt>
      <trkpt lat="46.10876" lon="15.11907">
        <ele>209.44834</ele>
        <time>2022-08-06T03:55:15.514Z</time>
      </trkpt>
      <trkpt lat="46.10779" lon="15.11962">
        <ele>213.982241</ele>
        <time>2022-08-06T03:56:06.894Z</time>
      </trkpt>
      <trkpt lat="46.10685" lon="15.12083">
        <ele>219.24832</ele>
        <time>2022-08-06T03:57:12.505Z</time>
      </trkpt>
      <trkpt lat="46.10586" lon="15.12184">
        <ele>224.003076</ele>
        <time>2022-08-06T03:58:07.659Z</time>
      </trkpt>
      <trkpt lat="46.10533" lon="15.12269">
        <ele>225.395809</ele>
        <time>2022-08-06T03:58:37.468Z</time>
      </trkpt>
      <trkpt lat="46.10518" lon="15.12318">
        <ele>226.04755</ele>
        <time>2022-08-06T03:58:49.828Z</time>
      </trkpt>
      <trkpt lat="46.10505" lon="15.12408">
        <ele>227.209602</ele>
        <time>2022-08-06T03:59:09.536Z</time>
      </trkpt>
      <trkpt lat="46.10507" lon="15.12589">
        <ele>231.465938</ele>
        <time>2022-08-06T03:59:57.880Z</time>
      </trkpt>
      <trkpt lat="46.10498" lon="15.12646">
        <ele>232.848759</ele>
        <time>2022-08-06T04:00:19.718Z</time>
      </trkpt>
      <trkpt lat="46.10468" lon="15.12766">
        <ele>239.185458</ele>
        <time>2022-08-06T04:01:17.199Z</time>
      </trkpt>
      <trkpt lat="46.10465" lon="15.12832">
        <ele>242.676727</ele>
        <time>2022-08-06T04:01:49.458Z</time>
      </trkpt>
      <trkpt lat="46.10477" lon="15.12915">
        <ele>247.177807</ele>
        <time>2022-08-06T04:02:30.304Z</time>
      </trkpt>
      <trkpt lat="46.10505" lon="15.13005">
        <ele>249.164869</ele>
        <time>2022-08-06T04:03:09.874Z</time>
      </trkpt>
      <trkpt lat="46.10519" lon="15.13075">
        <ele>250.653904</ele>
        <time>2022-08-06T04:03:32.571Z</time>
      </trkpt>
      <trkpt lat="46.10509" lon="15.13135">
        <ele>251.892333</ele>
        <time>2022-08-06T04:03:44.107Z</time>
      </trkpt>
      <trkpt lat="46.10505" lon="15.13193">
        <ele>250.556546</ele>
        <time>2022-08-06T04:03:52.563Z</time>
      </trkpt>
      <trkpt lat="46.10481" lon="15.13272">
        <ele>245.884528</ele>
        <time>2022-08-06T04:04:03.592Z</time>
      </trkpt>
      <trkpt lat="46.10463" lon="15.133">
        <ele>243.88091</ele>
        <time>2022-08-06T04:04:08.047Z</time>
      </trkpt>
      <trkpt lat="46.10425" lon="15.13395">
        <ele>237.752087</ele>
        <time>2022-08-06T04:04:21.015Z</time>
      </trkpt>
      <trkpt lat="46.10396" lon="15.13443">
        <ele>233.249765</ele>
        <time>2022-08-06T04:04:28.181Z</time>
      </trkpt>
      <trkpt lat="46.10364" lon="15.13471">
        <ele>229.384727</ele>
        <time>2022-08-06T04:04:34.409Z</time>
      </trkpt>
      <trkpt lat="46.10327" lon="15.13539">
        <ele>223.204796</ele>
        <time>2022-08-06T04:04:44.728Z</time>
      </trkpt>
      <trkpt lat="46.10308" lon="15.13558">
        <ele>220.782714</ele>
        <time>2022-08-06T04:04:48.783Z</time>
      </trkpt>
      <trkpt lat="46.10248" lon="15.13618">
        <ele>218.711465</ele>
        <time>2022-08-06T04:05:02.588Z</time>
      </trkpt>
      <trkpt lat="46.10202" lon="15.13691">
        <ele>217.498867</ele>
        <time>2022-08-06T04:05:18.693Z</time>
      </trkpt>
      <trkpt lat="46.10152" lon="15.1379">
        <ele>217.704123</ele>
        <time>2022-08-06T04:05:56.054Z</time>
      </trkpt>
      <trkpt lat="46.10136" lon="15.13841">
        <ele>218.799331</ele>
        <time>2022-08-06T04:06:13.193Z</time>
      </trkpt>
      <trkpt lat="46.10104" lon="15.13973">
        <ele>221.536394</ele>
        <time>2022-08-06T04:06:52.460Z</time>
      </trkpt>
      <trkpt lat="46.10056" lon="15.1408">
        <ele>223.689252</ele>
        <time>2022-08-06T04:07:27.632Z</time>
      </trkpt>
      <trkpt lat="46.10046" lon="15.14115">
        <ele>224.310064</ele>
        <time>2022-08-06T04:07:37.242Z</time>
      </trkpt>
      <trkpt lat="46.10034" lon="15.14179">
        <ele>225.413887</ele>
        <time>2022-08-06T04:07:56.698Z</time>
      </trkpt>
      <trkpt lat="46.09996" lon="15.14277">
        <ele>226.054921</ele>
        <time>2022-08-06T04:08:25.806Z</time>
      </trkpt>
      <trkpt lat="46.09963" lon="15.14327">
        <ele>226.062432</ele>
        <time>2022-08-06T04:08:40.793Z</time>
      </trkpt>
      <trkpt lat="46.09947" lon="15.14375">
        <ele>226.068228</ele>
        <time>2022-08-06T04:08:50.249Z</time>
      </trkpt>
      <trkpt lat="46.09908" lon="15.14437">
        <ele>225.596371</ele>
        <time>2022-08-06T04:09:02.881Z</time>
      </trkpt>
      <trkpt lat="46.09833" lon="15.14585">
        <ele>221.409725</ele>
        <time>2022-08-06T04:09:28.119Z</time>
      </trkpt>
      <trkpt lat="46.09704" lon="15.14907">
        <ele>213.450088</ele>
        <time>2022-08-06T04:10:21.223Z</time>
      </trkpt>
      <trkpt lat="46.09652" lon="15.15022">
        <ele>210.996242</ele>
        <time>2022-08-06T04:10:41.326Z</time>
      </trkpt>
      <trkpt lat="46.09615" lon="15.15112">
        <ele>209.736028</ele>
        <time>2022-08-06T04:10:57.388Z</time>
      </trkpt>
      <trkpt lat="46.09591" lon="15.15146">
        <ele>209.595502</ele>
        <time>2022-08-06T04:11:05.501Z</time>
      </trkpt>
      <trkpt lat="46.09498" lon="15.15249">
        <ele>209.109518</ele>
        <time>2022-08-06T04:11:38.964Z</time>
      </trkpt>
      <trkpt lat="46.09413" lon="15.15363">
        <ele>209.65717</ele>
        <time>2022-08-06T04:12:14.947Z</time>
      </trkpt>
      <trkpt lat="46.0939" lon="15.15387">
        <ele>209.795396</ele>
        <time>2022-08-06T04:12:23.381Z</time>
      </trkpt>
      <trkpt lat="46.09238" lon="15.15518">
        <ele>210.517503</ele>
        <time>2022-08-06T04:13:14.929Z</time>
      </trkpt>
      <trkpt lat="46.09144" lon="15.1558">
        <ele>211.990603</ele>
        <time>2022-08-06T04:13:46.652Z</time>
      </trkpt>
      <trkpt lat="46.09033" lon="15.15628">
        <ele>214.404753</ele>
        <time>2022-08-06T04:14:28.310Z</time>
      </trkpt>
      <trkpt lat="46.08986" lon="15.1567">
        <ele>219.985091</ele>
        <time>2022-08-06T04:15:04.937Z</time>
      </trkpt>
      <trkpt lat="46.08944" lon="15.15705">
        <ele>224.874995</ele>
        <time>2022-08-06T04:15:42.359Z</time>
      </trkpt>
      <trkpt lat="46.08874" lon="15.15762">
        <ele>233.100149</ele>
        <time>2022-08-06T04:16:54.571Z</time>
      </trkpt>
      <trkpt lat="46.08819" lon="15.15846">
        <ele>242.108199</ele>
        <time>2022-08-06T04:18:15.092Z</time>
      </trkpt>
      <trkpt lat="46.08771" lon="15.15961">
        <ele>252.587632</ele>
        <time>2022-08-06T04:19:29.200Z</time>
      </trkpt>
      <trkpt lat="46.08754" lon="15.16017">
        <ele>251.897996</ele>
        <time>2022-08-06T04:19:47.332Z</time>
      </trkpt>
      <trkpt lat="46.08736" lon="15.16115">
        <ele>250.199295</ele>
        <time>2022-08-06T04:20:02.491Z</time>
      </trkpt>
      <trkpt lat="46.08731" lon="15.16321">
        <ele>241.076057</ele>
        <time>2022-08-06T04:20:27.491Z</time>
      </trkpt>
      <trkpt lat="46.08722" lon="15.16409">
        <ele>234.774545</ele>
        <time>2022-08-06T04:20:37.875Z</time>
      </trkpt>
      <trkpt lat="46.08705" lon="15.1647">
        <ele>230.135016</ele>
        <time>2022-08-06T04:20:45.600Z</time>
      </trkpt>
      <trkpt lat="46.08682" lon="15.16531">
        <ele>225.364</ele>
        <time>2022-08-06T04:20:53.709Z</time>
      </trkpt>
      <trkpt lat="46.08663" lon="15.16657">
        <ele>216.425195</ele>
        <time>2022-08-06T04:21:09.026Z</time>
      </trkpt>
      <trkpt lat="46.08634" lon="15.16773">
        <ele>209.411601</ele>
        <time>2022-08-06T04:21:23.818Z</time>
      </trkpt>
      <trkpt lat="46.08605" lon="15.16818">
        <ele>206.644154</ele>
        <time>2022-08-06T04:21:31.438Z</time>
      </trkpt>
      <trkpt lat="46.0855" lon="15.16877">
        <ele>202.280406</ele>
        <time>2022-08-06T04:21:43.955Z</time>
      </trkpt>
      <trkpt lat="46.08447" lon="15.17013">
        <ele>198.665274</ele>
        <time>2022-08-06T04:22:14.471Z</time>
      </trkpt>
      <trkpt lat="46.08375" lon="15.17096">
        <ele>197.728226</ele>
        <time>2022-08-06T04:22:38.701Z</time>
      </trkpt>
      <trkpt lat="46.08356" lon="15.17105">
        <ele>197.858893</ele>
        <time>2022-08-06T04:22:44.219Z</time>
      </trkpt>
      <trkpt lat="46.08351" lon="15.17107">
        <ele>197.898582</ele>
        <time>2022-08-06T04:22:45.950Z</time>
      </trkpt>
      <trkpt lat="46.08292" lon="15.17113">
        <ele>198.296186</ele>
        <time>2022-08-06T04:23:04.097Z</time>
      </trkpt>
      <trkpt lat="46.08267" lon="15.17108">
        <ele>198.466083</ele>
        <time>2022-08-06T04:23:12.172Z</time>
      </trkpt>
      <trkpt lat="46.08206" lon="15.17089">
        <ele>199.441319</ele>
        <time>2022-08-06T04:23:33.583Z</time>
      </trkpt>
      <trkpt lat="46.08126" lon="15.17043">
        <ele>202.424931</ele>
        <time>2022-08-06T04:24:08.435Z</time>
      </trkpt>
      <trkpt lat="46.08086" lon="15.17038">
        <ele>203.850137</ele>
        <time>2022-08-06T04:24:27.345Z</time>
      </trkpt>
      <trkpt lat="46.07929" lon="15.17094">
        <ele>213.406131</ele>
        <time>2022-08-06T04:26:00.804Z</time>
      </trkpt>
      <trkpt lat="46.07886" lon="15.171">
        <ele>216.221793</ele>
        <time>2022-08-06T04:26:28.553Z</time>
      </trkpt>
      <trkpt lat="46.07842" lon="15.17119">
        <ele>219.422255</ele>
        <time>2022-08-06T04:26:58.679Z</time>
      </trkpt>
      <trkpt lat="46.07817" lon="15.17137">
        <ele>221.295813</ele>
        <time>2022-08-06T04:27:16.235Z</time>
      </trkpt>
      <trkpt lat="46.07803" lon="15.1717">
        <ele>223.151834</ele>
        <time>2022-08-06T04:27:33.579Z</time>
      </trkpt>
      <trkpt lat="46.07797" lon="15.17219">
        <ele>225.552194</ele>
        <time>2022-08-06T04:27:56.331Z</time>
      </trkpt>
      <trkpt lat="46.0779" lon="15.17241">
        <ele>226.672537</ele>
        <time>2022-08-06T04:28:06.770Z</time>
      </trkpt>
      <trkpt lat="46.07734" lon="15.17356">
        <ele>229.183031</ele>
        <time>2022-08-06T04:28:57.457Z</time>
      </trkpt>
      <trkpt lat="46.07712" lon="15.17422">
        <ele>229.132942</ele>
        <time>2022-08-06T04:29:11.231Z</time>
      </trkpt>
      <trkpt lat="46.07681" lon="15.17496">
        <ele>229.073095</ele>
        <time>2022-08-06T04:29:23.322Z</time>
      </trkpt>
      <trkpt lat="46.07665" lon="15.17549">
        <ele>227.016625</ele>
        <time>2022-08-06T04:29:30.655Z</time>
      </trkpt>
      <trkpt lat="46.07644" lon="15.17661">
        <ele>221.879639</ele>
        <time>2022-08-06T04:29:44.786Z</time>
      </trkpt>
      <trkpt lat="46.07613" lon="15.17722">
        <ele>218.500629</ele>
        <time>2022-08-06T04:29:53.988Z</time>
      </trkpt>
      <trkpt lat="46.0748" lon="15.17847">
        <ele>215.615853</ele>
        <time>2022-08-06T04:30:28.452Z</time>
      </trkpt>
      <trkpt lat="46.07395" lon="15.17891">
        <ele>215.073204</ele>
        <time>2022-08-06T04:31:10.859Z</time>
      </trkpt>
      <trkpt lat="46.07338" lon="15.17907">
        <ele>215.00693</ele>
        <time>2022-08-06T04:31:29.848Z</time>
      </trkpt>
      <trkpt lat="46.07306" lon="15.17929">
        <ele>214.966496</ele>
        <time>2022-08-06T04:31:38.213Z</time>
      </trkpt>
      <trkpt lat="46.07255" lon="15.17978">
        <ele>213.005003</ele>
        <time>2022-08-06T04:31:49.951Z</time>
      </trkpt>
      <trkpt lat="46.07201" lon="15.18068">
        <ele>207.559255</ele>
        <time>2022-08-06T04:32:04.835Z</time>
      </trkpt>
      <trkpt lat="46.07154" lon="15.18111">
        <ele>203.873159</ele>
        <time>2022-08-06T04:32:14.546Z</time>
      </trkpt>
      <trkpt lat="46.07157" lon="15.18119">
        <ele>203.456099</ele>
        <time>2022-08-06T04:32:18.966Z</time>
      </trkpt>
      <trkpt lat="46.07186" lon="15.18178">
        <ele>202.346775</ele>
        <time>2022-08-06T04:32:53.942Z</time>
      </trkpt>
      <trkpt lat="46.07203" lon="15.18211">
        <ele>201.890232</ele>
        <time>2022-08-06T04:33:13.395Z</time>
      </trkpt>
      <trkpt lat="46.07206" lon="15.18217">
        <ele>201.806366</ele>
        <time>2022-08-06T04:33:14.766Z</time>
      </trkpt>
      <trkpt lat="46.07332" lon="15.18094">
        <ele>202.045565</ele>
        <time>2022-08-06T04:34:06.109Z</time>
      </trkpt>
      <trkpt lat="46.0743" lon="15.18023">
        <ele>206.215739</ele>
        <time>2022-08-06T04:35:02.114Z</time>
      </trkpt>
      <trkpt lat="46.07572" lon="15.17945">
        <ele>210.642766</ele>
        <time>2022-08-06T04:36:12.704Z</time>
      </trkpt>
      <trkpt lat="46.07611" lon="15.17917">
        <ele>211.833032</ele>
        <time>2022-08-06T04:36:24.969Z</time>
      </trkpt>
      <trkpt lat="46.07674" lon="15.17841">
        <ele>209.958247</ele>
        <time>2022-08-06T04:36:42.756Z</time>
      </trkpt>
      <trkpt lat="46.07727" lon="15.17749">
        <ele>207.836961</ele>
        <time>2022-08-06T04:36:58.245Z</time>
      </trkpt>
      <trkpt lat="46.07782" lon="15.17613">
        <ele>205.220113</ele>
        <time>2022-08-06T04:37:19.667Z</time>
      </trkpt>
      <trkpt lat="46.07829" lon="15.17474">
        <ele>203.166085</ele>
        <time>2022-08-06T04:37:42.791Z</time>
      </trkpt>
      <trkpt lat="46.07869" lon="15.17342">
        <ele>203.505656</ele>
        <time>2022-08-06T04:38:08.861Z</time>
      </trkpt>
      <trkpt lat="46.07905" lon="15.17267">
        <ele>203.737385</ele>
        <time>2022-08-06T04:38:30.217Z</time>
      </trkpt>
      <trkpt lat="46.07938" lon="15.17234">
        <ele>205.219599</ele>
        <time>2022-08-06T04:38:46.017Z</time>
      </trkpt>
      <trkpt lat="46.08017" lon="15.17196">
        <ele>208.338408</ele>
        <time>2022-08-06T04:39:25.092Z</time>
      </trkpt>
      <trkpt lat="46.08041" lon="15.17189">
        <ele>209.249326</ele>
        <time>2022-08-06T04:39:37.690Z</time>
      </trkpt>
      <trkpt lat="46.08087" lon="15.17191">
        <ele>210.651431</ele>
        <time>2022-08-06T04:40:02.209Z</time>
      </trkpt>
      <trkpt lat="46.08228" lon="15.17219">
        <ele>213.100492</ele>
        <time>2022-08-06T04:40:54.415Z</time>
      </trkpt>
      <trkpt lat="46.08283" lon="15.17237">
        <ele>212.871888</ele>
        <time>2022-08-06T04:41:05.880Z</time>
      </trkpt>
      <trkpt lat="46.08395" lon="15.17298">
        <ele>210.670997</ele>
        <time>2022-08-06T04:41:29.955Z</time>
      </trkpt>
      <trkpt lat="46.08406" lon="15.17306">
        <ele>210.449947</ele>
        <time>2022-08-06T04:41:32.894Z</time>
      </trkpt>
      <trkpt lat="46.08438" lon="15.17333">
        <ele>211.115286</ele>
        <time>2022-08-06T04:41:41.714Z</time>
      </trkpt>
      <trkpt lat="46.08458" lon="15.17359">
        <ele>212.178075</ele>
        <time>2022-08-06T04:41:49.236Z</time>
      </trkpt>
      <trkpt lat="46.08462" lon="15.17372">
        <ele>212.588392</ele>
        <time>2022-08-06T04:41:53.062Z</time>
      </trkpt>
      <trkpt lat="46.08487" lon="15.174">
        <ele>213.827774</ele>
        <time>2022-08-06T04:42:05.006Z</time>
      </trkpt>
      <trkpt lat="46.0859" lon="15.17513">
        <ele>220.79517</ele>
        <time>2022-08-06T04:43:25.840Z</time>
      </trkpt>
      <trkpt lat="46.08614" lon="15.17574">
        <ele>224.95387</ele>
        <time>2022-08-06T04:44:00.328Z</time>
      </trkpt>
      <trkpt lat="46.08631" lon="15.17646">
        <ele>229.423368</ele>
        <time>2022-08-06T04:44:38.161Z</time>
      </trkpt>
      <trkpt lat="46.08652" lon="15.17745">
        <ele>234.336799</ele>
        <time>2022-08-06T04:45:27.192Z</time>
      </trkpt>
      <trkpt lat="46.08672" lon="15.17913">
        <ele>240.288062</ele>
        <time>2022-08-06T04:46:30.754Z</time>
      </trkpt>
      <trkpt lat="46.08706" lon="15.18328">
        <ele>238.891962</ele>
        <time>2022-08-06T04:47:41.053Z</time>
      </trkpt>
      <trkpt lat="46.08753" lon="15.1864">
        <ele>231.019266</ele>
        <time>2022-08-06T04:48:21.549Z</time>
      </trkpt>
      <trkpt lat="46.0878" lon="15.18799">
        <ele>229.62615</ele>
        <time>2022-08-06T04:48:43.450Z</time>
      </trkpt>
      <trkpt lat="46.08798" lon="15.18872">
        <ele>230.507272</ele>
        <time>2022-08-06T04:49:08.554Z</time>
      </trkpt>
      <trkpt lat="46.08815" lon="15.18919">
        <ele>231.107607</ele>
        <time>2022-08-06T04:49:24.360Z</time>
      </trkpt>
      <trkpt lat="46.08804" lon="15.1894">
        <ele>231.404067</ele>
        <time>2022-08-06T04:49:30.906Z</time>
      </trkpt>
      <trkpt lat="46.08787" lon="15.18971">
        <ele>232.300107</ele>
        <time>2022-08-06T04:49:45.972Z</time>
      </trkpt>
      <trkpt lat="46.08786" lon="15.18995">
        <ele>233.149355</ele>
        <time>2022-08-06T04:49:54.907Z</time>
      </trkpt>
      <trkpt lat="46.08798" lon="15.19014">
        <ele>234.058889</ele>
        <time>2022-08-06T04:50:05.340Z</time>
      </trkpt>
      <trkpt lat="46.08819" lon="15.19033">
        <ele>235.253967</ele>
        <time>2022-08-06T04:50:20.742Z</time>
      </trkpt>
      <trkpt lat="46.08823" lon="15.19037">
        <ele>235.535455</ele>
        <time>2022-08-06T04:50:23.883Z</time>
      </trkpt>
      <trkpt lat="46.08835" lon="15.19051">
        <ele>236.302739</ele>
        <time>2022-08-06T04:50:31.209Z</time>
      </trkpt>
      <trkpt lat="46.08894" lon="15.19075">
        <ele>239.365099</ele>
        <time>2022-08-06T04:51:08.360Z</time>
      </trkpt>
      <trkpt lat="46.08911" lon="15.19089">
        <ele>240.317759</ele>
        <time>2022-08-06T04:51:16.031Z</time>
      </trkpt>
      <trkpt lat="46.0894" lon="15.19142">
        <ele>239.617091</ele>
        <time>2022-08-06T04:51:32.534Z</time>
      </trkpt>
      <trkpt lat="46.08952" lon="15.19202">
        <ele>238.582049</ele>
        <time>2022-08-06T04:51:40.189Z</time>
      </trkpt>
      <trkpt lat="46.08962" lon="15.19227">
        <ele>238.096286</ele>
        <time>2022-08-06T04:51:44.366Z</time>
      </trkpt>
      <trkpt lat="46.08996" lon="15.19285">
        <ele>236.833406</ele>
        <time>2022-08-06T04:51:54.133Z</time>
      </trkpt>
      <trkpt lat="46.09012" lon="15.19301">
        <ele>236.370531</ele>
        <time>2022-08-06T04:51:58.109Z</time>
      </trkpt>
      <trkpt lat="46.09054" lon="15.19324">
        <ele>233.926398</ele>
        <time>2022-08-06T04:52:06.136Z</time>
      </trkpt>
      <trkpt lat="46.091" lon="15.19336">
        <ele>231.267898</ele>
        <time>2022-08-06T04:52:14.562Z</time>
      </trkpt>
      <trkpt lat="46.09132" lon="15.19357">
        <ele>229.245332</ele>
        <time>2022-08-06T04:52:20.736Z</time>
      </trkpt>
      <trkpt lat="46.0917" lon="15.194">
        <ele>226.513972</ele>
        <time>2022-08-06T04:52:28.810Z</time>
      </trkpt>
      <trkpt lat="46.09198" lon="15.1945">
        <ele>225.242823</ele>
        <time>2022-08-06T04:52:36.904Z</time>
      </trkpt>
      <trkpt lat="46.09224" lon="15.19478">
        <ele>224.526913</ele>
        <time>2022-08-06T04:52:43.095Z</time>
      </trkpt>
      <trkpt lat="46.09296" lon="15.19598">
        <ele>222.084526</ele>
        <time>2022-08-06T04:53:08.994Z</time>
      </trkpt>
      <trkpt lat="46.09308" lon="15.19608">
        <ele>222.464026</ele>
        <time>2022-08-06T04:53:14.183Z</time>
      </trkpt>
      <trkpt lat="46.09336" lon="15.19607">
        <ele>223.28538</ele>
        <time>2022-08-06T04:53:23.822Z</time>
      </trkpt>
      <trkpt lat="46.09367" lon="15.19667">
        <ele>224.805647</ele>
        <time>2022-08-06T04:53:44.656Z</time>
      </trkpt>
      <trkpt lat="46.0938" lon="15.19701">
        <ele>225.597343</ele>
        <time>2022-08-06T04:53:56.659Z</time>
      </trkpt>
      <trkpt lat="46.09429" lon="15.19768">
        <ele>227.751377</ele>
        <time>2022-08-06T04:54:27.873Z</time>
      </trkpt>
      <trkpt lat="46.09492" lon="15.1985">
        <ele>232.222581</ele>
        <time>2022-08-06T04:55:13.219Z</time>
      </trkpt>
      <trkpt lat="46.09565" lon="15.19926">
        <ele>236.929673</ele>
        <time>2022-08-06T04:56:00.477Z</time>
      </trkpt>
      <trkpt lat="46.09589" lon="15.19961">
        <ele>238.344143</ele>
        <time>2022-08-06T04:56:19.143Z</time>
      </trkpt>
      <trkpt lat="46.09614" lon="15.20019">
        <ele>240.318508</ele>
        <time>2022-08-06T04:56:43.255Z</time>
      </trkpt>
      <trkpt lat="46.09625" lon="15.20067">
        <ele>241.805134</ele>
        <time>2022-08-06T04:57:00.030Z</time>
      </trkpt>
      <trkpt lat="46.09647" lon="15.20086">
        <ele>242.851597</ele>
        <time>2022-08-06T04:57:10.799Z</time>
      </trkpt>
      <trkpt lat="46.09678" lon="15.20127">
        <ele>244.511685</ele>
        <time>2022-08-06T04:57:27.047Z</time>
      </trkpt>
      <trkpt lat="46.09723" lon="15.20205">
        <ele>246.271001</ele>
        <time>2022-08-06T04:57:52.304Z</time>
      </trkpt>
      <trkpt lat="46.09756" lon="15.20281">
        <ele>247.804865</ele>
        <time>2022-08-06T04:58:13.183Z</time>
      </trkpt>
      <trkpt lat="46.09797" lon="15.2043">
        <ele>253.203545</ele>
        <time>2022-08-06T04:59:04.270Z</time>
      </trkpt>
      <trkpt lat="46.09813" lon="15.20438">
        <ele>254.31094</ele>
        <time>2022-08-06T04:59:14.429Z</time>
      </trkpt>
      <trkpt lat="46.0986" lon="15.20504">
        <ele>258.381569</ele>
        <time>2022-08-06T04:59:54.926Z</time>
      </trkpt>
      <trkpt lat="46.09919" lon="15.20565">
        <ele>264.268067</ele>
        <time>2022-08-06T05:00:45.902Z</time>
      </trkpt>
      <trkpt lat="46.09971" lon="15.20607">
        <ele>269.659355</ele>
        <time>2022-08-06T05:01:31.637Z</time>
      </trkpt>
      <trkpt lat="46.10028" lon="15.20728">
        <ele>278.613431</ele>
        <time>2022-08-06T05:02:40.956Z</time>
      </trkpt>
      <trkpt lat="46.10043" lon="15.20787">
        <ele>282.020956</ele>
        <time>2022-08-06T05:03:08.814Z</time>
      </trkpt>
      <trkpt lat="46.10064" lon="15.20839">
        <ele>285.28068</ele>
        <time>2022-08-06T05:03:35.110Z</time>
      </trkpt>
      <trkpt lat="46.10054" lon="15.20867">
        <ele>286.973356</ele>
        <time>2022-08-06T05:03:47.871Z</time>
      </trkpt>
      <trkpt lat="46.10052" lon="15.20936">
        <ele>290.694511</ele>
        <time>2022-08-06T05:04:18.710Z</time>
      </trkpt>
      <trkpt lat="46.10057" lon="15.20944">
        <ele>291.288109</ele>
        <time>2022-08-06T05:04:23.639Z</time>
      </trkpt>
      <trkpt lat="46.10134" lon="15.20986">
        <ele>297.441924</ele>
        <time>2022-08-06T05:05:15.931Z</time>
      </trkpt>
      <trkpt lat="46.10272" lon="15.21114">
        <ele>306.138716</ele>
        <time>2022-08-06T05:06:58.448Z</time>
      </trkpt>
      <trkpt lat="46.10391" lon="15.21285">
        <ele>306.116165</ele>
        <time>2022-08-06T05:07:38.415Z</time>
      </trkpt>
      <trkpt lat="46.10451" lon="15.2139">
        <ele>302.035626</ele>
        <time>2022-08-06T05:07:54.715Z</time>
      </trkpt>
      <trkpt lat="46.10484" lon="15.21456">
        <ele>300.011472</ele>
        <time>2022-08-06T05:08:04.621Z</time>
      </trkpt>
      <trkpt lat="46.10488" lon="15.21473">
        <ele>299.62421</ele>
        <time>2022-08-06T05:08:06.820Z</time>
      </trkpt>
      <trkpt lat="46.10474" lon="15.21552">
        <ele>297.863548</ele>
        <time>2022-08-06T05:08:17.444Z</time>
      </trkpt>
      <trkpt lat="46.10476" lon="15.21586">
        <ele>297.10628</ele>
        <time>2022-08-06T05:08:22.508Z</time>
      </trkpt>
      <trkpt lat="46.10489" lon="15.21632">
        <ele>296.034227</ele>
        <time>2022-08-06T05:08:30.318Z</time>
      </trkpt>
      <trkpt lat="46.10505" lon="15.21667">
        <ele>295.606374</ele>
        <time>2022-08-06T05:08:37.674Z</time>
      </trkpt>
      <trkpt lat="46.10524" lon="15.21777">
        <ele>296.621393</ele>
        <time>2022-08-06T05:09:05.454Z</time>
      </trkpt>
      <trkpt lat="46.10521" lon="15.21821">
        <ele>297.009791</ele>
        <time>2022-08-06T05:09:17.409Z</time>
      </trkpt>
      <trkpt lat="46.10507" lon="15.21843">
        <ele>297.281488</ele>
        <time>2022-08-06T05:09:25.015Z</time>
      </trkpt>
      <trkpt lat="46.10479" lon="15.21875">
        <ele>297.741216</ele>
        <time>2022-08-06T05:09:37.867Z</time>
      </trkpt>
      <trkpt lat="46.1046" lon="15.21921">
        <ele>297.115565</ele>
        <time>2022-08-06T05:09:48.823Z</time>
      </trkpt>
      <trkpt lat="46.10461" lon="15.21934">
        <ele>296.942375</ele>
        <time>2022-08-06T05:09:51.296Z</time>
      </trkpt>
      <trkpt lat="46.10468" lon="15.21942">
        <ele>296.763661</ele>
        <time>2022-08-06T05:09:53.714Z</time>
      </trkpt>
      <trkpt lat="46.10506" lon="15.2195">
        <ele>296.041325</ele>
        <time>2022-08-06T05:10:01.769Z</time>
      </trkpt>
      <trkpt lat="46.10534" lon="15.21965">
        <ele>295.467263</ele>
        <time>2022-08-06T05:10:07.935Z</time>
      </trkpt>
      <trkpt lat="46.10563" lon="15.2199">
        <ele>294.828515</ele>
        <time>2022-08-06T05:10:14.635Z</time>
      </trkpt>
      <trkpt lat="46.1058" lon="15.22037">
        <ele>293.275493</ele>
        <time>2022-08-06T05:10:21.582Z</time>
      </trkpt>
      <trkpt lat="46.10619" lon="15.22096">
        <ele>288.084973</ele>
        <time>2022-08-06T05:10:31.595Z</time>
      </trkpt>
      <trkpt lat="46.1067" lon="15.22161">
        <ele>281.913431</ele>
        <time>2022-08-06T05:10:42.504Z</time>
      </trkpt>
      <trkpt lat="46.10721" lon="15.22217">
        <ele>275.143718</ele>
        <time>2022-08-06T05:10:52.745Z</time>
      </trkpt>
      <trkpt lat="46.10756" lon="15.22262">
        <ele>268.634828</ele>
        <time>2022-08-06T05:11:00.164Z</time>
      </trkpt>
      <trkpt lat="46.10762" lon="15.22252">
        <ele>267.381695</ele>
        <time>2022-08-06T05:11:01.527Z</time>
      </trkpt>
      <trkpt lat="46.1076" lon="15.22239">
        <ele>266.104327</ele>
        <time>2022-08-06T05:11:02.994Z</time>
      </trkpt>
      <trkpt lat="46.10748" lon="15.22182">
        <ele>260.303532</ele>
        <time>2022-08-06T05:11:09.456Z</time>
      </trkpt>
      <trkpt lat="46.10728" lon="15.22144">
        <ele>255.712072</ele>
        <time>2022-08-06T05:11:14.561Z</time>
      </trkpt>
      <trkpt lat="46.10728" lon="15.22132">
        <ele>254.542657</ele>
        <time>2022-08-06T05:11:15.880Z</time>
      </trkpt>
      <trkpt lat="46.10736" lon="15.22131">
        <ele>253.509235</ele>
        <time>2022-08-06T05:11:17.033Z</time>
      </trkpt>
      <trkpt lat="46.10807" lon="15.22181">
        <ele>246.255579</ele>
        <time>2022-08-06T05:11:29.775Z</time>
      </trkpt>
      <trkpt lat="46.1084" lon="15.22187">
        <ele>243.259017</ele>
        <time>2022-08-06T05:11:35.521Z</time>
      </trkpt>
      <trkpt lat="46.10979" lon="15.2221">
        <ele>232.989255</ele>
        <time>2022-08-06T05:12:00.327Z</time>
      </trkpt>
      <trkpt lat="46.11043" lon="15.22206">
        <ele>229.258636</ele>
        <time>2022-08-06T05:12:11.890Z</time>
      </trkpt>
      <trkpt lat="46.11091" lon="15.22191">
        <ele>226.47482</ele>
        <time>2022-08-06T05:12:20.392Z</time>
      </trkpt>
      <trkpt lat="46.11112" lon="15.22186">
        <ele>225.306298</ele>
        <time>2022-08-06T05:12:27.189Z</time>
      </trkpt>
      <trkpt lat="46.11127" lon="15.22179">
        <ele>224.497272</ele>
        <time>2022-08-06T05:12:29.845Z</time>
      </trkpt>
      <trkpt lat="46.11133" lon="15.22153">
        <ele>223.493022</ele>
        <time>2022-08-06T05:12:33.016Z</time>
      </trkpt>
      <trkpt lat="46.11177" lon="15.22096">
        <ele>220.312277</ele>
        <time>2022-08-06T05:12:43.327Z</time>
      </trkpt>
      <trkpt lat="46.11224" lon="15.22005">
        <ele>217.117631</ele>
        <time>2022-08-06T05:12:57.759Z</time>
      </trkpt>
      <trkpt lat="46.11301" lon="15.21782">
        <ele>218.636518</ele>
        <time>2022-08-06T05:13:57.653Z</time>
      </trkpt>
      <trkpt lat="46.1136" lon="15.21735">
        <ele>220.598548</ele>
        <time>2022-08-06T05:14:26.618Z</time>
      </trkpt>
      <trkpt lat="46.11395" lon="15.21671">
        <ele>222.265208</ele>
        <time>2022-08-06T05:14:50.530Z</time>
      </trkpt>
      <trkpt lat="46.11427" lon="15.21627">
        <ele>223.560295</ele>
        <time>2022-08-06T05:15:09.131Z</time>
      </trkpt>
      <trkpt lat="46.11461" lon="15.21597">
        <ele>223.979715</ele>
        <time>2022-08-06T05:15:25.436Z</time>
      </trkpt>
      <trkpt lat="46.11479" lon="15.21588">
        <ele>224.158349</ele>
        <time>2022-08-06T05:15:32.394Z</time>
      </trkpt>
      <trkpt lat="46.11553" lon="15.21578">
        <ele>224.845586</ele>
        <time>2022-08-06T05:15:55.629Z</time>
      </trkpt>
      <trkpt lat="46.11572" lon="15.21545">
        <ele>225.121303</ele>
        <time>2022-08-06T05:16:02.882Z</time>
      </trkpt>
      <trkpt lat="46.1159" lon="15.21532">
        <ele>225.289302</ele>
        <time>2022-08-06T05:16:07.383Z</time>
      </trkpt>
      <trkpt lat="46.11725" lon="15.21523">
        <ele>222.930587</ele>
        <time>2022-08-06T05:16:36.448Z</time>
      </trkpt>
      <trkpt lat="46.11772" lon="15.21505">
        <ele>222.077773</ele>
        <time>2022-08-06T05:16:46.549Z</time>
      </trkpt>
      <trkpt lat="46.11853" lon="15.21461">
        <ele>220.483036</ele>
        <time>2022-08-06T05:17:04.988Z</time>
      </trkpt>
      <trkpt lat="46.11886" lon="15.21433">
        <ele>219.777564</ele>
        <time>2022-08-06T05:17:13.257Z</time>
      </trkpt>
      <trkpt lat="46.11971" lon="15.21376">
        <ele>217.784576</ele>
        <time>2022-08-06T05:17:33.394Z</time>
      </trkpt>
      <trkpt lat="46.1201" lon="15.21346">
        <ele>216.699765</ele>
        <time>2022-08-06T05:17:42.594Z</time>
      </trkpt>
      <trkpt lat="46.12149" lon="15.21188">
        <ele>212.33739</ele>
        <time>2022-08-06T05:18:17.759Z</time>
      </trkpt>
      <trkpt lat="46.12186" lon="15.21122">
        <ele>210.876516</ele>
        <time>2022-08-06T05:18:29.665Z</time>
      </trkpt>
      <trkpt lat="46.12198" lon="15.21089">
        <ele>210.231044</ele>
        <time>2022-08-06T05:18:35.064Z</time>
      </trkpt>
      <trkpt lat="46.12203" lon="15.21075">
        <ele>209.974729</ele>
        <time>2022-08-06T05:18:37.471Z</time>
      </trkpt>
      <trkpt lat="46.12214" lon="15.21005">
        <ele>209.706597</ele>
        <time>2022-08-06T05:18:48.545Z</time>
      </trkpt>
      <trkpt lat="46.12207" lon="15.20996">
        <ele>209.656241</ele>
        <time>2022-08-06T05:18:50.576Z</time>
      </trkpt>
      <trkpt lat="46.12198" lon="15.20993">
        <ele>209.606185</ele>
        <time>2022-08-06T05:18:52.855Z</time>
      </trkpt>
      <trkpt lat="46.12193" lon="15.2099">
        <ele>209.578548</ele>
        <time>2022-08-06T05:18:54.101Z</time>
      </trkpt>
      <trkpt lat="46.12216" lon="15.20703">
        <ele>208.545644</ele>
        <time>2022-08-06T05:19:49.414Z</time>
      </trkpt>
      <trkpt lat="46.1225" lon="15.20584">
        <ele>208.101034</ele>
        <time>2022-08-06T05:20:09.349Z</time>
      </trkpt>
      <trkpt lat="46.123" lon="15.20458">
        <ele>207.456658</ele>
        <time>2022-08-06T05:20:32.749Z</time>
      </trkpt>
      <trkpt lat="46.12326" lon="15.20325">
        <ele>207.275364</ele>
        <time>2022-08-06T05:20:56.964Z</time>
      </trkpt>
      <trkpt lat="46.12325" lon="15.2031">
        <ele>207.425142</ele>
        <time>2022-08-06T05:21:00.307Z</time>
      </trkpt>
      <trkpt lat="46.12335" lon="15.20284">
        <ele>207.723908</ele>
        <time>2022-08-06T05:21:06.926Z</time>
      </trkpt>
      <trkpt lat="46.12378" lon="15.20213">
        <ele>208.652115</ele>
        <time>2022-08-06T05:21:30.223Z</time>
      </trkpt>
      <trkpt lat="46.12401" lon="15.20138">
        <ele>209.464144</ele>
        <time>2022-08-06T05:21:51.494Z</time>
      </trkpt>
      <trkpt lat="46.12419" lon="15.19999">
        <ele>210.911625</ele>
        <time>2022-08-06T05:22:24.982Z</time>
      </trkpt>
      <trkpt lat="46.12432" lon="15.19977">
        <ele>211.205073</ele>
        <time>2022-08-06T05:22:32.036Z</time>
      </trkpt>
      <trkpt lat="46.12448" lon="15.19967">
        <ele>211.468822</ele>
        <time>2022-08-06T05:22:37.224Z</time>
      </trkpt>
      <trkpt lat="46.12468" lon="15.19963">
        <ele>211.771003</ele>
        <time>2022-08-06T05:22:44.541Z</time>
      </trkpt>
      <trkpt lat="46.12493" lon="15.19956">
        <ele>212.14278</ele>
        <time>2022-08-06T05:22:52.257Z</time>
      </trkpt>
      <trkpt lat="46.12538" lon="15.19896">
        <ele>212.796857</ele>
        <time>2022-08-06T05:23:11.861Z</time>
      </trkpt>
      <trkpt lat="46.12555" lon="15.19886">
        <ele>212.98655</ele>
        <time>2022-08-06T05:23:18.312Z</time>
      </trkpt>
      <trkpt lat="46.12699" lon="15.19836">
        <ele>214.949963</ele>
        <time>2022-08-06T05:24:03.346Z</time>
      </trkpt>
      <trkpt lat="46.12784" lon="15.19824">
        <ele>216.699714</ele>
        <time>2022-08-06T05:24:35.263Z</time>
      </trkpt>
      <trkpt lat="46.1288" lon="15.19827">
        <ele>218.997436</ele>
        <time>2022-08-06T05:25:14.585Z</time>
      </trkpt>
      <trkpt lat="46.12888" lon="15.19829">
        <ele>219.21011</ele>
        <time>2022-08-06T05:25:17.042Z</time>
      </trkpt>
      <trkpt lat="46.12889" lon="15.19835">
        <ele>219.32859</ele>
        <time>2022-08-06T05:25:19.944Z</time>
      </trkpt>
      <trkpt lat="46.12889" lon="15.19857">
        <ele>219.742412</ele>
        <time>2022-08-06T05:25:26.528Z</time>
      </trkpt>
      <trkpt lat="46.12931" lon="15.19859">
        <ele>220.900271</ele>
        <time>2022-08-06T05:25:42.865Z</time>
      </trkpt>
      <trkpt lat="46.13001" lon="15.19847">
        <ele>222.816176</ele>
        <time>2022-08-06T05:26:11.054Z</time>
      </trkpt>
      <trkpt lat="46.13037" lon="15.1986">
        <ele>223.453127</ele>
        <time>2022-08-06T05:26:25.095Z</time>
      </trkpt>
      <trkpt lat="46.13086" lon="15.19838">
        <ele>224.342708</ele>
        <time>2022-08-06T05:26:41.259Z</time>
      </trkpt>
      <trkpt lat="46.13109" lon="15.19837">
        <ele>224.755792</ele>
        <time>2022-08-06T05:26:49.240Z</time>
      </trkpt>
      <trkpt lat="46.13161" lon="15.1982">
        <ele>225.682311</ele>
        <time>2022-08-06T05:27:06.825Z</time>
      </trkpt>
      <trkpt lat="46.13197" lon="15.19823">
        <ele>226.579153</ele>
        <time>2022-08-06T05:27:18.719Z</time>
      </trkpt>
      <trkpt lat="46.13235" lon="15.19817">
        <ele>227.650765</ele>
        <time>2022-08-06T05:27:35.386Z</time>
      </trkpt>
      <trkpt lat="46.13257" lon="15.19799">
        <ele>228.362976</ele>
        <time>2022-08-06T05:27:46.697Z</time>
      </trkpt>
      <trkpt lat="46.13283" lon="15.1979">
        <ele>229.104757</ele>
        <time>2022-08-06T05:27:58.403Z</time>
      </trkpt>
      <trkpt lat="46.13327" lon="15.19788">
        <ele>230.329811</ele>
        <time>2022-08-06T05:28:17.016Z</time>
      </trkpt>
      <trkpt lat="46.13352" lon="15.19795">
        <ele>230.95234</ele>
        <time>2022-08-06T05:28:27.187Z</time>
      </trkpt>
      <trkpt lat="46.13364" lon="15.19837">
        <ele>231.329548</ele>
        <time>2022-08-06T05:28:39.183Z</time>
      </trkpt>
      <trkpt lat="46.13453" lon="15.19787">
        <ele>232.472167</ele>
        <time>2022-08-06T05:29:07.250Z</time>
      </trkpt>
      <trkpt lat="46.13499" lon="15.19718">
        <ele>233.510768</ele>
        <time>2022-08-06T05:29:26.946Z</time>
      </trkpt>
      <trkpt lat="46.13574" lon="15.19659">
        <ele>235.585239</ele>
        <time>2022-08-06T05:29:54.026Z</time>
      </trkpt>
      <trkpt lat="46.13609" lon="15.19669">
        <ele>236.468174</ele>
        <time>2022-08-06T05:30:10.971Z</time>
      </trkpt>
      <trkpt lat="46.13651" lon="15.19694">
        <ele>237.495365</ele>
        <time>2022-08-06T05:30:33.791Z</time>
      </trkpt>
      <trkpt lat="46.13701" lon="15.19745">
        <ele>238.111354</ele>
        <time>2022-08-06T05:31:04.071Z</time>
      </trkpt>
      <trkpt lat="46.13715" lon="15.19791">
        <ele>238.462828</ele>
        <time>2022-08-06T05:31:17.062Z</time>
      </trkpt>
      <trkpt lat="46.13737" lon="15.19823">
        <ele>238.781081</ele>
        <time>2022-08-06T05:31:24.475Z</time>
      </trkpt>
      <trkpt lat="46.13756" lon="15.1987">
        <ele>239.158974</ele>
        <time>2022-08-06T05:31:32.963Z</time>
      </trkpt>
      <trkpt lat="46.13768" lon="15.19926">
        <ele>237.084368</ele>
        <time>2022-08-06T05:31:40.391Z</time>
      </trkpt>
      <trkpt lat="46.13804" lon="15.19999">
        <ele>232.724995</ele>
        <time>2022-08-06T05:31:50.895Z</time>
      </trkpt>
      <trkpt lat="46.13817" lon="15.20059">
        <ele>229.724313</ele>
        <time>2022-08-06T05:31:58.020Z</time>
      </trkpt>
      <trkpt lat="46.13826" lon="15.20066">
        <ele>228.96723</ele>
        <time>2022-08-06T05:31:59.835Z</time>
      </trkpt>
      <trkpt lat="46.13836" lon="15.20063">
        <ele>228.307209</ele>
        <time>2022-08-06T05:32:01.375Z</time>
      </trkpt>
      <trkpt lat="46.13847" lon="15.20051">
        <ele>227.333739</ele>
        <time>2022-08-06T05:32:03.668Z</time>
      </trkpt>
      <trkpt lat="46.13857" lon="15.20047">
        <ele>226.625099</ele>
        <time>2022-08-06T05:32:05.482Z</time>
      </trkpt>
      <trkpt lat="46.13862" lon="15.20053">
        <ele>226.354059</ele>
        <time>2022-08-06T05:32:06.499Z</time>
      </trkpt>
      <trkpt lat="46.13923" lon="15.20227">
        <ele>220.305153</ele>
        <time>2022-08-06T05:32:30.959Z</time>
      </trkpt>
      <trkpt lat="46.13945" lon="15.20274">
        <ele>218.721839</ele>
        <time>2022-08-06T05:32:40.448Z</time>
      </trkpt>
      <trkpt lat="46.13995" lon="15.20352">
        <ele>219.747475</ele>
        <time>2022-08-06T05:33:02.198Z</time>
      </trkpt>
      <trkpt lat="46.14069" lon="15.20436">
        <ele>221.047017</ele>
        <time>2022-08-06T05:33:37.604Z</time>
      </trkpt>
      <trkpt lat="46.1416" lon="15.20551">
        <ele>224.553331</ele>
        <time>2022-08-06T05:34:30.552Z</time>
      </trkpt>
      <trkpt lat="46.14241" lon="15.20638">
        <ele>226.766993</ele>
        <time>2022-08-06T05:35:10.848Z</time>
      </trkpt>
      <trkpt lat="46.14276" lon="15.20685">
        <ele>226.969903</ele>
        <time>2022-08-06T05:35:26.215Z</time>
      </trkpt>
      <trkpt lat="46.14324" lon="15.20722">
        <ele>227.200492</ele>
        <time>2022-08-06T05:35:40.458Z</time>
      </trkpt>
      <trkpt lat="46.1442" lon="15.20773">
        <ele>226.49446</ele>
        <time>2022-08-06T05:36:02.651Z</time>
      </trkpt>
      <trkpt lat="46.1445" lon="15.208">
        <ele>225.93404</ele>
        <time>2022-08-06T05:36:10.182Z</time>
      </trkpt>
      <trkpt lat="46.14472" lon="15.2081">
        <ele>225.561824</ele>
        <time>2022-08-06T05:36:15.133Z</time>
      </trkpt>
      <trkpt lat="46.14504" lon="15.20827">
        <ele>225.02988</ele>
        <time>2022-08-06T05:36:22.463Z</time>
      </trkpt>
      <trkpt lat="46.1452" lon="15.20844">
        <ele>224.707249</ele>
        <time>2022-08-06T05:36:27.054Z</time>
      </trkpt>
      <trkpt lat="46.14553" lon="15.20894">
        <ele>224.152967</ele>
        <time>2022-08-06T05:36:37.890Z</time>
      </trkpt>
      <trkpt lat="46.14568" lon="15.20929">
        <ele>223.857399</ele>
        <time>2022-08-06T05:36:44.674Z</time>
      </trkpt>
      <trkpt lat="46.14582" lon="15.21">
        <ele>223.324188</ele>
        <time>2022-08-06T05:36:56.523Z</time>
      </trkpt>
      <trkpt lat="46.14576" lon="15.21068">
        <ele>222.831064</ele>
        <time>2022-08-06T05:37:07.047Z</time>
      </trkpt>
      <trkpt lat="46.14564" lon="15.21108">
        <ele>222.60661</ele>
        <time>2022-08-06T05:37:14.285Z</time>
      </trkpt>
      <trkpt lat="46.14563" lon="15.21147">
        <ele>222.496894</ele>
        <time>2022-08-06T05:37:20.795Z</time>
      </trkpt>
      <trkpt lat="46.1454" lon="15.21244">
        <ele>222.205474</ele>
        <time>2022-08-06T05:37:38.465Z</time>
      </trkpt>
      <trkpt lat="46.14523" lon="15.21333">
        <ele>221.942412</ele>
        <time>2022-08-06T05:37:54.774Z</time>
      </trkpt>
      <trkpt lat="46.14518" lon="15.21383">
        <ele>222.272471</ele>
        <time>2022-08-06T05:38:03.723Z</time>
      </trkpt>
      <trkpt lat="46.14519" lon="15.21564">
        <ele>223.610917</ele>
        <time>2022-08-06T05:38:46.050Z</time>
      </trkpt>
      <trkpt lat="46.14535" lon="15.21906">
        <ele>226.390817</ele>
        <time>2022-08-06T05:40:06.617Z</time>
      </trkpt>
      <trkpt lat="46.1456" lon="15.22155">
        <ele>225.938904</ele>
        <time>2022-08-06T05:40:49.838Z</time>
      </trkpt>
      <trkpt lat="46.14577" lon="15.22246">
        <ele>225.051552</ele>
        <time>2022-08-06T05:41:04.359Z</time>
      </trkpt>
      <trkpt lat="46.14595" lon="15.22305">
        <ele>224.448417</ele>
        <time>2022-08-06T05:41:14.091Z</time>
      </trkpt>
      <trkpt lat="46.1462" lon="15.22466">
        <ele>222.668605</ele>
        <time>2022-08-06T05:41:38.308Z</time>
      </trkpt>
      <trkpt lat="46.14609" lon="15.2263">
        <ele>220.817954</ele>
        <time>2022-08-06T05:42:03.282Z</time>
      </trkpt>
      <trkpt lat="46.14546" lon="15.22861">
        <ele>219.2462</ele>
        <time>2022-08-06T05:42:43.884Z</time>
      </trkpt>
      <trkpt lat="46.14519" lon="15.23094">
        <ele>218.379305</ele>
        <time>2022-08-06T05:43:23.611Z</time>
      </trkpt>
      <trkpt lat="46.14508" lon="15.23237">
        <ele>218.705197</ele>
        <time>2022-08-06T05:43:50.043Z</time>
      </trkpt>
      <trkpt lat="46.14495" lon="15.23324">
        <ele>219.006257</ele>
        <time>2022-08-06T05:44:08.547Z</time>
      </trkpt>
      <trkpt lat="46.14483" lon="15.23368">
        <ele>219.168179</ele>
        <time>2022-08-06T05:44:19.287Z</time>
      </trkpt>
      <trkpt lat="46.14447" lon="15.23458">
        <ele>220.313323</ele>
        <time>2022-08-06T05:44:44.145Z</time>
      </trkpt>
      <trkpt lat="46.14401" lon="15.23673">
        <ele>222.717785</ele>
        <time>2022-08-06T05:45:38.670Z</time>
      </trkpt>
      <trkpt lat="46.14402" lon="15.23754">
        <ele>223.460046</ele>
        <time>2022-08-06T05:45:58.331Z</time>
      </trkpt>
      <trkpt lat="46.14412" lon="15.23824">
        <ele>224.113182</ele>
        <time>2022-08-06T05:46:15.164Z</time>
      </trkpt>
      <trkpt lat="46.14423" lon="15.23823">
        <ele>224.261952</ele>
        <time>2022-08-06T05:46:18.702Z</time>
      </trkpt>
      <trkpt lat="46.14432" lon="15.23835">
        <ele>224.428371</ele>
        <time>2022-08-06T05:46:22.085Z</time>
      </trkpt>
      <trkpt lat="46.14435" lon="15.23846">
        <ele>224.451979</ele>
        <time>2022-08-06T05:46:24.583Z</time>
      </trkpt>
      <trkpt lat="46.14445" lon="15.23883">
        <ele>224.198181</ele>
        <time>2022-08-06T05:46:31.721Z</time>
      </trkpt>
      <trkpt lat="46.14474" lon="15.23934">
        <ele>223.77721</ele>
        <time>2022-08-06T05:46:42.388Z</time>
      </trkpt>
      <trkpt lat="46.1451" lon="15.23979">
        <ele>223.344576</ele>
        <time>2022-08-06T05:46:52.770Z</time>
      </trkpt>
      <trkpt lat="46.14558" lon="15.24018">
        <ele>222.836143</ele>
        <time>2022-08-06T05:47:05.092Z</time>
      </trkpt>
      <trkpt lat="46.14602" lon="15.24032">
        <ele>222.28559</ele>
        <time>2022-08-06T05:47:14.925Z</time>
      </trkpt>
      <trkpt lat="46.14656" lon="15.24035">
        <ele>221.624257</ele>
        <time>2022-08-06T05:47:26.071Z</time>
      </trkpt>
      <trkpt lat="46.14674" lon="15.24044">
        <ele>221.383716</ele>
        <time>2022-08-06T05:47:30.321Z</time>
      </trkpt>
      <trkpt lat="46.14757" lon="15.23964">
        <ele>220.966876</ele>
        <time>2022-08-06T05:47:55.770Z</time>
      </trkpt>
      <trkpt lat="46.14789" lon="15.23913">
        <ele>221.399989</ele>
        <time>2022-08-06T05:48:11.528Z</time>
      </trkpt>
      <trkpt lat="46.14853" lon="15.23803">
        <ele>222.273966</ele>
        <time>2022-08-06T05:48:44.660Z</time>
      </trkpt>
      <trkpt lat="46.14903" lon="15.23736">
        <ele>222.60903</ele>
        <time>2022-08-06T05:49:06.513Z</time>
      </trkpt>
      <trkpt lat="46.14935" lon="15.23706">
        <ele>222.797474</ele>
        <time>2022-08-06T05:49:17.918Z</time>
      </trkpt>
      <trkpt lat="46.15057" lon="15.23625">
        <ele>223.058695</ele>
        <time>2022-08-06T05:49:51.547Z</time>
      </trkpt>
      <trkpt lat="46.15153" lon="15.23595">
        <ele>222.948084</ele>
        <time>2022-08-06T05:50:16.718Z</time>
      </trkpt>
      <trkpt lat="46.15306" lon="15.23544">
        <ele>223.776442</ele>
        <time>2022-08-06T05:51:03.700Z</time>
      </trkpt>
      <trkpt lat="46.15358" lon="15.23523">
        <ele>224.159091</ele>
        <time>2022-08-06T05:51:20.210Z</time>
      </trkpt>
      <trkpt lat="46.15388" lon="15.23494">
        <ele>224.534604</ele>
        <time>2022-08-06T05:51:31.090Z</time>
      </trkpt>
      <trkpt lat="46.15386" lon="15.23478">
        <ele>224.651486</ele>
        <time>2022-08-06T05:51:34.130Z</time>
      </trkpt>
      <trkpt lat="46.15471" lon="15.23444">
        <ele>225.554465</ele>
        <time>2022-08-06T05:52:14.820Z</time>
      </trkpt>
      <trkpt lat="46.1565" lon="15.23396">
        <ele>231.542905</ele>
        <time>2022-08-06T05:54:02.186Z</time>
      </trkpt>
      <trkpt lat="46.15618" lon="15.23459">
        <ele>235.192436</ele>
        <time>2022-08-06T05:54:33.525Z</time>
      </trkpt>
      <trkpt lat="46.15633" lon="15.2349">
        <ele>237.817003</ele>
        <time>2022-08-06T05:54:51.983Z</time>
      </trkpt>
      <trkpt lat="46.15643" lon="15.23497">
        <ele>238.868487</ele>
        <time>2022-08-06T05:54:59.019Z</time>
      </trkpt>
      <trkpt lat="46.15664" lon="15.23495">
        <ele>240.966101</ele>
        <time>2022-08-06T05:55:15.519Z</time>
      </trkpt>
      <trkpt lat="46.15715" lon="15.2346">
        <ele>246.5067</ele>
        <time>2022-08-06T05:56:01.120Z</time>
      </trkpt>
      <trkpt lat="46.15749" lon="15.23448">
        <ele>249.947969</ele>
        <time>2022-08-06T05:56:32.486Z</time>
      </trkpt>
      <trkpt lat="46.15812" lon="15.23471">
        <ele>258.658298</ele>
        <time>2022-08-06T05:57:30.140Z</time>
      </trkpt>
      <trkpt lat="46.15843" lon="15.23465">
        <ele>262.923254</ele>
        <time>2022-08-06T05:58:02.198Z</time>
      </trkpt>
      <trkpt lat="46.15902" lon="15.2343">
        <ele>271.682372</ele>
        <time>2022-08-06T05:59:09.058Z</time>
      </trkpt>
      <trkpt lat="46.15937" lon="15.23425">
        <ele>274.947429</ele>
        <time>2022-08-06T05:59:39.069Z</time>
      </trkpt>
      <trkpt lat="46.15954" lon="15.23425">
        <ele>275.218862</ele>
        <time>2022-08-06T05:59:52.187Z</time>
      </trkpt>
      <trkpt lat="46.16019" lon="15.23447">
        <ele>276.297622</ele>
        <time>2022-08-06T06:00:39.843Z</time>
      </trkpt>
      <trkpt lat="46.16031" lon="15.23437">
        <ele>276.522367</ele>
        <time>2022-08-06T06:00:43.719Z</time>
      </trkpt>
      <trkpt lat="46.16022" lon="15.23419">
        <ele>276.763917</ele>
        <time>2022-08-06T06:00:50.660Z</time>
      </trkpt>
      <trkpt lat="46.16048" lon="15.23414">
        <ele>277.182306</ele>
        <time>2022-08-06T06:00:58.356Z</time>
      </trkpt>
      <trkpt lat="46.16055" lon="15.23419">
        <ele>277.313876</ele>
        <time>2022-08-06T06:01:01.549Z</time>
      </trkpt>
      <trkpt lat="46.16071" lon="15.23404">
        <ele>277.6238</ele>
        <time>2022-08-06T06:01:07.282Z</time>
      </trkpt>
      <trkpt lat="46.16099" lon="15.23402">
        <ele>274.457462</ele>
        <time>2022-08-06T06:01:15.979Z</time>
      </trkpt>
      <trkpt lat="46.16119" lon="15.23379">
        <ele>271.151153</ele>
        <time>2022-08-06T06:01:23.004Z</time>
      </trkpt>
      <trkpt lat="46.16133" lon="15.23382">
        <ele>269.380559</ele>
        <time>2022-08-06T06:01:26.958Z</time>
      </trkpt>
      <trkpt lat="46.1615" lon="15.23369">
        <ele>266.938427</ele>
        <time>2022-08-06T06:01:32.061Z</time>
      </trkpt>
      <trkpt lat="46.1614" lon="15.23349">
        <ele>264.703157</ele>
        <time>2022-08-06T06:01:35.003Z</time>
      </trkpt>
      <trkpt lat="46.16162" lon="15.23343">
        <ele>261.761013</ele>
        <time>2022-08-06T06:01:38.690Z</time>
      </trkpt>
      <trkpt lat="46.16394" lon="15.23355">
        <ele>239.337593</ele>
        <time>2022-08-06T06:02:18.420Z</time>
      </trkpt>
      <trkpt lat="46.16402" lon="15.23366">
        <ele>239.006002</ele>
        <time>2022-08-06T06:02:21.872Z</time>
      </trkpt>
      <trkpt lat="46.16428" lon="15.23412">
        <ele>238.871357</ele>
        <time>2022-08-06T06:02:34.361Z</time>
      </trkpt>
      <trkpt lat="46.16451" lon="15.23477">
        <ele>238.70311</ele>
        <time>2022-08-06T06:02:50.528Z</time>
      </trkpt>
      <trkpt lat="46.1648" lon="15.2355">
        <ele>238.509055</ele>
        <time>2022-08-06T06:03:12.410Z</time>
      </trkpt>
      <trkpt lat="46.16507" lon="15.2357">
        <ele>238.369648</ele>
        <time>2022-08-06T06:03:21.439Z</time>
      </trkpt>
      <trkpt lat="46.16626" lon="15.23615">
        <ele>237.253706</ele>
        <time>2022-08-06T06:03:52.159Z</time>
      </trkpt>
      <trkpt lat="46.16636" lon="15.23611">
        <ele>237.160844</ele>
        <time>2022-08-06T06:03:54.218Z</time>
      </trkpt>
      <trkpt lat="46.16641" lon="15.23601">
        <ele>237.082876</ele>
        <time>2022-08-06T06:03:55.683Z</time>
      </trkpt>
      <trkpt lat="46.16646" lon="15.23624">
        <ele>236.928906</ele>
        <time>2022-08-06T06:04:00.398Z</time>
      </trkpt>
      <trkpt lat="46.16664" lon="15.2366">
        <ele>236.89993</ele>
        <time>2022-08-06T06:04:06.977Z</time>
      </trkpt>
      <trkpt lat="46.16673" lon="15.23672">
        <ele>236.973778</ele>
        <time>2022-08-06T06:04:10.881Z</time>
      </trkpt>
      <trkpt lat="46.16692" lon="15.23687">
        <ele>237.099176</ele>
        <time>2022-08-06T06:04:15.363Z</time>
      </trkpt>
      <trkpt lat="46.1676" lon="15.23712">
        <ele>237.509949</ele>
        <time>2022-08-06T06:04:34.564Z</time>
      </trkpt>
      <trkpt lat="46.1686" lon="15.23767">
        <ele>240.552662</ele>
        <time>2022-08-06T06:05:18.636Z</time>
      </trkpt>
      <trkpt lat="46.16871" lon="15.2378">
        <ele>241.379892</ele>
        <time>2022-08-06T06:05:24.687Z</time>
      </trkpt>
      <trkpt lat="46.16885" lon="15.23795">
        <ele>242.400513</ele>
        <time>2022-08-06T06:05:32.001Z</time>
      </trkpt>
      <trkpt lat="46.16908" lon="15.23805">
        <ele>243.751617</ele>
        <time>2022-08-06T06:05:41.544Z</time>
      </trkpt>
      <trkpt lat="46.16928" lon="15.2383">
        <ele>245.242092</ele>
        <time>2022-08-06T06:05:58.508Z</time>
      </trkpt>
      <trkpt lat="46.1694" lon="15.23833">
        <ele>245.919512</ele>
        <time>2022-08-06T06:06:04.924Z</time>
      </trkpt>
      <trkpt lat="46.17004" lon="15.23816">
        <ele>251.2261</ele>
        <time>2022-08-06T06:06:56.978Z</time>
      </trkpt>
      <trkpt lat="46.17021" lon="15.23818">
        <ele>253.119732</ele>
        <time>2022-08-06T06:07:10.826Z</time>
      </trkpt>
      <trkpt lat="46.17039" lon="15.23843">
        <ele>255.947949</ele>
        <time>2022-08-06T06:07:28.787Z</time>
      </trkpt>
      <trkpt lat="46.17049" lon="15.23867">
        <ele>258.127782</ele>
        <time>2022-08-06T06:07:44.878Z</time>
      </trkpt>
      <trkpt lat="46.17074" lon="15.23942">
        <ele>264.712405</ele>
        <time>2022-08-06T06:08:32.704Z</time>
      </trkpt>
      <trkpt lat="46.1709" lon="15.23965">
        <ele>267.246848</ele>
        <time>2022-08-06T06:08:54.188Z</time>
      </trkpt>
      <trkpt lat="46.17106" lon="15.23973">
        <ele>268.843587</ele>
        <time>2022-08-06T06:09:08.766Z</time>
      </trkpt>
      <trkpt lat="46.1715" lon="15.23975">
        <ele>271.538914</ele>
        <time>2022-08-06T06:09:48.942Z</time>
      </trkpt>
      <trkpt lat="46.17182" lon="15.23993">
        <ele>273.568869</ele>
        <time>2022-08-06T06:10:09.711Z</time>
      </trkpt>
      <trkpt lat="46.17188" lon="15.24006">
        <ele>274.263584</ele>
        <time>2022-08-06T06:10:16.806Z</time>
      </trkpt>
      <trkpt lat="46.17191" lon="15.24047">
        <ele>275.958316</ele>
        <time>2022-08-06T06:10:27.680Z</time>
      </trkpt>
      <trkpt lat="46.17201" lon="15.24062">
        <ele>276.841508</ele>
        <time>2022-08-06T06:10:32.286Z</time>
      </trkpt>
      <trkpt lat="46.17225" lon="15.24058">
        <ele>278.313244</ele>
        <time>2022-08-06T06:10:39.652Z</time>
      </trkpt>
      <trkpt lat="46.17251" lon="15.24075">
        <ele>278.963047</ele>
        <time>2022-08-06T06:10:47.190Z</time>
      </trkpt>
      <trkpt lat="46.17282" lon="15.24068">
        <ele>277.894385</ele>
        <time>2022-08-06T06:10:55.225Z</time>
      </trkpt>
      <trkpt lat="46.17317" lon="15.24045">
        <ele>276.539105</ele>
        <time>2022-08-06T06:11:04.281Z</time>
      </trkpt>
      <trkpt lat="46.17343" lon="15.24044">
        <ele>275.637941</ele>
        <time>2022-08-06T06:11:08.861Z</time>
      </trkpt>
      <trkpt lat="46.17426" lon="15.24119">
        <ele>271.61291</ele>
        <time>2022-08-06T06:11:25.784Z</time>
      </trkpt>
      <trkpt lat="46.17446" lon="15.24122">
        <ele>270.404185</ele>
        <time>2022-08-06T06:11:29.495Z</time>
      </trkpt>
      <trkpt lat="46.17494" lon="15.24089">
        <ele>267.210482</ele>
        <time>2022-08-06T06:11:39.104Z</time>
      </trkpt>
      <trkpt lat="46.17505" lon="15.24087">
        <ele>266.529129</ele>
        <time>2022-08-06T06:11:41.147Z</time>
      </trkpt>
      <trkpt lat="46.1753" lon="15.24097">
        <ele>264.967594</ele>
        <time>2022-08-06T06:11:45.826Z</time>
      </trkpt>
      <trkpt lat="46.17559" lon="15.24081">
        <ele>263.111399</ele>
        <time>2022-08-06T06:11:51.227Z</time>
      </trkpt>
      <trkpt lat="46.17611" lon="15.24078">
        <ele>259.635422</ele>
        <time>2022-08-06T06:12:00.032Z</time>
      </trkpt>
      <trkpt lat="46.17629" lon="15.24069">
        <ele>258.304258</ele>
        <time>2022-08-06T06:12:03.306Z</time>
      </trkpt>
      <trkpt lat="46.1767" lon="15.24063">
        <ele>255.478715</ele>
        <time>2022-08-06T06:12:10.232Z</time>
      </trkpt>
      <trkpt lat="46.17707" lon="15.24065">
        <ele>252.914738</ele>
        <time>2022-08-06T06:12:16.590Z</time>
      </trkpt>
      <trkpt lat="46.17711" lon="15.24066">
        <ele>252.631129</ele>
        <time>2022-08-06T06:12:17.315Z</time>
      </trkpt>
      <trkpt lat="46.17727" lon="15.24072">
        <ele>251.495982</ele>
        <time>2022-08-06T06:12:20.060Z</time>
      </trkpt>
      <trkpt lat="46.17738" lon="15.24063">
        <ele>250.623442</ele>
        <time>2022-08-06T06:12:22.350Z</time>
      </trkpt>
      <trkpt lat="46.17733" lon="15.24017">
        <ele>249.932619</ele>
        <time>2022-08-06T06:12:28.043Z</time>
      </trkpt>
      <trkpt lat="46.17743" lon="15.23998">
        <ele>249.96989</ele>
        <time>2022-08-06T06:12:31.068Z</time>
      </trkpt>
      <trkpt lat="46.17807" lon="15.23996">
        <ele>250.110995</ele>
        <time>2022-08-06T06:12:45.275Z</time>
      </trkpt>
      <trkpt lat="46.1785" lon="15.23986">
        <ele>250.207749</ele>
        <time>2022-08-06T06:13:03.509Z</time>
      </trkpt>
      <trkpt lat="46.17886" lon="15.23991">
        <ele>250.487518</ele>
        <time>2022-08-06T06:13:23.764Z</time>
      </trkpt>
      <trkpt lat="46.18002" lon="15.24026">
        <ele>258.712538</ele>
        <time>2022-08-06T06:14:40.001Z</time>
      </trkpt>
      <trkpt lat="46.18056" lon="15.24029">
        <ele>262.535628</ele>
        <time>2022-08-06T06:15:14.306Z</time>
      </trkpt>
      <trkpt lat="46.18118" lon="15.24061">
        <ele>264.427137</ele>
        <time>2022-08-06T06:15:47.647Z</time>
      </trkpt>
      <trkpt lat="46.18173" lon="15.24058">
        <ele>265.861539</ele>
        <time>2022-08-06T06:16:06.858Z</time>
      </trkpt>
      <trkpt lat="46.18189" lon="15.24054">
        <ele>266.288266</ele>
        <time>2022-08-06T06:16:12.319Z</time>
      </trkpt>
      <trkpt lat="46.18209" lon="15.2406">
        <ele>266.83644</ele>
        <time>2022-08-06T06:16:18.000Z</time>
      </trkpt>
      <trkpt lat="46.18246" lon="15.24097">
        <ele>267.360916</ele>
        <time>2022-08-06T06:16:30.766Z</time>
      </trkpt>
      <trkpt lat="46.18273" lon="15.24159">
        <ele>266.863305</ele>
        <time>2022-08-06T06:16:42.107Z</time>
      </trkpt>
      <trkpt lat="46.18295" lon="15.24232">
        <ele>266.329106</ele>
        <time>2022-08-06T06:16:54.413Z</time>
      </trkpt>
      <trkpt lat="46.18309" lon="15.24247">
        <ele>266.16347</ele>
        <time>2022-08-06T06:16:58.027Z</time>
      </trkpt>
      <trkpt lat="46.18328" lon="15.24242">
        <ele>265.973864</ele>
        <time>2022-08-06T06:17:02.523Z</time>
      </trkpt>
      <trkpt lat="46.18326" lon="15.24166">
        <ele>266.603472</ele>
        <time>2022-08-06T06:17:14.424Z</time>
      </trkpt>
      <trkpt lat="46.18319" lon="15.24123">
        <ele>267.36172</ele>
        <time>2022-08-06T06:17:21.948Z</time>
      </trkpt>
      <trkpt lat="46.18322" lon="15.24101">
        <ele>267.750324</ele>
        <time>2022-08-06T06:17:27.305Z</time>
      </trkpt>
      <trkpt lat="46.18337" lon="15.24084">
        <ele>268.22763</ele>
        <time>2022-08-06T06:17:33.313Z</time>
      </trkpt>
      <trkpt lat="46.18444" lon="15.24093">
        <ele>272.504167</ele>
        <time>2022-08-06T06:18:28.378Z</time>
      </trkpt>
      <trkpt lat="46.18515" lon="15.24113">
        <ele>278.880117</ele>
        <time>2022-08-06T06:19:22.658Z</time>
      </trkpt>
      <trkpt lat="46.1856" lon="15.24156">
        <ele>283.555636</ele>
        <time>2022-08-06T06:20:06.025Z</time>
      </trkpt>
      <trkpt lat="46.18624" lon="15.24275">
        <ele>288.48458</ele>
        <time>2022-08-06T06:21:11.948Z</time>
      </trkpt>
      <trkpt lat="46.18633" lon="15.24282">
        <ele>288.797457</ele>
        <time>2022-08-06T06:21:15.676Z</time>
      </trkpt>
      <trkpt lat="46.18639" lon="15.2428">
        <ele>289.020495</ele>
        <time>2022-08-06T06:21:18.051Z</time>
      </trkpt>
      <trkpt lat="46.18656" lon="15.24243">
        <ele>290.024488</ele>
        <time>2022-08-06T06:21:27.404Z</time>
      </trkpt>
      <trkpt lat="46.18679" lon="15.24213">
        <ele>291.050249</ele>
        <time>2022-08-06T06:21:34.887Z</time>
      </trkpt>
      <trkpt lat="46.18766" lon="15.242">
        <ele>288.272153</ele>
        <time>2022-08-06T06:21:53.059Z</time>
      </trkpt>
      <trkpt lat="46.18775" lon="15.2419">
        <ele>287.642763</ele>
        <time>2022-08-06T06:21:55.248Z</time>
      </trkpt>
      <trkpt lat="46.18797" lon="15.24185">
        <ele>286.352863</ele>
        <time>2022-08-06T06:21:59.523Z</time>
      </trkpt>
      <trkpt lat="46.18802" lon="15.24176">
        <ele>285.881866</ele>
        <time>2022-08-06T06:22:01.061Z</time>
      </trkpt>
      <trkpt lat="46.1881" lon="15.24123">
        <ele>283.749934</ele>
        <time>2022-08-06T06:22:07.064Z</time>
      </trkpt>
      <trkpt lat="46.18817" lon="15.24109">
        <ele>283.019463</ele>
        <time>2022-08-06T06:22:09.058Z</time>
      </trkpt>
      <trkpt lat="46.18827" lon="15.24104">
        <ele>282.41111</ele>
        <time>2022-08-06T06:22:10.749Z</time>
      </trkpt>
      <trkpt lat="46.18844" lon="15.24107">
        <ele>281.429299</ele>
        <time>2022-08-06T06:22:13.608Z</time>
      </trkpt>
      <trkpt lat="46.18877" lon="15.24148">
        <ele>277.538194</ele>
        <time>2022-08-06T06:22:20.785Z</time>
      </trkpt>
      <trkpt lat="46.18885" lon="15.24147">
        <ele>276.841378</ele>
        <time>2022-08-06T06:22:22.037Z</time>
      </trkpt>
      <trkpt lat="46.18892" lon="15.2413">
        <ele>275.561176</ele>
        <time>2022-08-06T06:22:25.102Z</time>
      </trkpt>
      <trkpt lat="46.18891" lon="15.24096">
        <ele>273.436111</ele>
        <time>2022-08-06T06:22:28.923Z</time>
      </trkpt>
      <trkpt lat="46.18898" lon="15.24074">
        <ele>271.934227</ele>
        <time>2022-08-06T06:22:32.138Z</time>
      </trkpt>
      <trkpt lat="46.18939" lon="15.24037">
        <ele>267.602082</ele>
        <time>2022-08-06T06:22:40.173Z</time>
      </trkpt>
      <trkpt lat="46.18937" lon="15.2399">
        <ele>264.705394</ele>
        <time>2022-08-06T06:22:45.446Z</time>
      </trkpt>
      <trkpt lat="46.1894" lon="15.23973">
        <ele>263.647839</ele>
        <time>2022-08-06T06:22:47.336Z</time>
      </trkpt>
      <trkpt lat="46.18949" lon="15.23965">
        <ele>262.71298</ele>
        <time>2022-08-06T06:22:49.235Z</time>
      </trkpt>
      <trkpt lat="46.19026" lon="15.23969">
        <ele>256.020668</ele>
        <time>2022-08-06T06:23:01.770Z</time>
      </trkpt>
      <trkpt lat="46.19037" lon="15.23959">
        <ele>254.914668</ele>
        <time>2022-08-06T06:23:03.949Z</time>
      </trkpt>
      <trkpt lat="46.19045" lon="15.23941">
        <ele>253.613917</ele>
        <time>2022-08-06T06:23:06.586Z</time>
      </trkpt>
      <trkpt lat="46.19046" lon="15.23923">
        <ele>252.507989</ele>
        <time>2022-08-06T06:23:08.727Z</time>
      </trkpt>
      <trkpt lat="46.19045" lon="15.23895">
        <ele>250.784006</ele>
        <time>2022-08-06T06:23:12.029Z</time>
      </trkpt>
      <trkpt lat="46.19066" lon="15.23838">
        <ele>247.670139</ele>
        <time>2022-08-06T06:23:19.563Z</time>
      </trkpt>
      <trkpt lat="46.19065" lon="15.23813">
        <ele>246.56384</ele>
        <time>2022-08-06T06:23:22.474Z</time>
      </trkpt>
      <trkpt lat="46.19081" lon="15.23803">
        <ele>245.445892</ele>
        <time>2022-08-06T06:23:25.420Z</time>
      </trkpt>
      <trkpt lat="46.19095" lon="15.23785">
        <ele>244.247728</ele>
        <time>2022-08-06T06:23:28.571Z</time>
      </trkpt>
      <trkpt lat="46.19109" lon="15.23721">
        <ele>241.278592</ele>
        <time>2022-08-06T06:23:36.320Z</time>
      </trkpt>
      <trkpt lat="46.19152" lon="15.23254">
        <ele>230.615286</ele>
        <time>2022-08-06T06:24:44.753Z</time>
      </trkpt>
      <trkpt lat="46.19175" lon="15.2318">
        <ele>229.38164</ele>
        <time>2022-08-06T06:24:57.225Z</time>
      </trkpt>
      <trkpt lat="46.1921" lon="15.2314">
        <ele>229.014971</ele>
        <time>2022-08-06T06:25:07.620Z</time>
      </trkpt>
      <trkpt lat="46.19243" lon="15.23112">
        <ele>229.430024</ele>
        <time>2022-08-06T06:25:17.359Z</time>
      </trkpt>
      <trkpt lat="46.19282" lon="15.23097">
        <ele>229.856715</ele>
        <time>2022-08-06T06:25:28.325Z</time>
      </trkpt>
      <trkpt lat="46.19321" lon="15.23097">
        <ele>230.261124</ele>
        <time>2022-08-06T06:25:39.943Z</time>
      </trkpt>
      <trkpt lat="46.19372" lon="15.23123">
        <ele>231.402986</ele>
        <time>2022-08-06T06:26:03.493Z</time>
      </trkpt>
      <trkpt lat="46.19407" lon="15.23166">
        <ele>234.326259</ele>
        <time>2022-08-06T06:26:33.243Z</time>
      </trkpt>
      <trkpt lat="46.19423" lon="15.23197">
        <ele>236.015735</ele>
        <time>2022-08-06T06:26:53.649Z</time>
      </trkpt>
      <trkpt lat="46.19436" lon="15.23237">
        <ele>237.938743</ele>
        <time>2022-08-06T06:27:20.136Z</time>
      </trkpt>
      <trkpt lat="46.19454" lon="15.23459">
        <ele>242.366814</ele>
        <time>2022-08-06T06:28:27.868Z</time>
      </trkpt>
      <trkpt lat="46.19528" lon="15.23456">
        <ele>242.628524</ele>
        <time>2022-08-06T06:28:45.179Z</time>
      </trkpt>
      <trkpt lat="46.19537" lon="15.23459">
        <ele>242.660985</ele>
        <time>2022-08-06T06:28:46.859Z</time>
      </trkpt>
      <trkpt lat="46.19541" lon="15.2346">
        <ele>242.677067</ele>
        <time>2022-08-06T06:28:47.631Z</time>
      </trkpt>
      <trkpt lat="46.19549" lon="15.23638">
        <ele>240.538572</ele>
        <time>2022-08-06T06:29:11.079Z</time>
      </trkpt>
      <trkpt lat="46.19578" lon="15.23767">
        <ele>239.671668</ele>
        <time>2022-08-06T06:29:53.551Z</time>
      </trkpt>
      <trkpt lat="46.19599" lon="15.23823">
        <ele>239.96857</ele>
        <time>2022-08-06T06:30:11.222Z</time>
      </trkpt>
      <trkpt lat="46.19643" lon="15.2391">
        <ele>240.470103</ele>
        <time>2022-08-06T06:30:32.473Z</time>
      </trkpt>
      <trkpt lat="46.19665" lon="15.23937">
        <ele>240.616001</ele>
        <time>2022-08-06T06:30:38.872Z</time>
      </trkpt>
      <trkpt lat="46.19686" lon="15.23951">
        <ele>239.722103</ele>
        <time>2022-08-06T06:30:43.818Z</time>
      </trkpt>
      <trkpt lat="46.19767" lon="15.23967">
        <ele>236.68748</ele>
        <time>2022-08-06T06:30:59.828Z</time>
      </trkpt>
      <trkpt lat="46.19802" lon="15.23962">
        <ele>235.379034</ele>
        <time>2022-08-06T06:31:06.572Z</time>
      </trkpt>
      <trkpt lat="46.199" lon="15.23933">
        <ele>232.22986</ele>
        <time>2022-08-06T06:31:26.333Z</time>
      </trkpt>
      <trkpt lat="46.1994" lon="15.23909">
        <ele>231.00441</ele>
        <time>2022-08-06T06:31:35.593Z</time>
      </trkpt>
      <trkpt lat="46.20022" lon="15.23822">
        <ele>228.669239</ele>
        <time>2022-08-06T06:31:58.077Z</time>
      </trkpt>
      <trkpt lat="46.20065" lon="15.23791">
        <ele>228.224502</ele>
        <time>2022-08-06T06:32:09.456Z</time>
      </trkpt>
      <trkpt lat="46.20088" lon="15.23757">
        <ele>227.921258</ele>
        <time>2022-08-06T06:32:17.255Z</time>
      </trkpt>
      <trkpt lat="46.20142" lon="15.23717">
        <ele>227.356375</ele>
        <time>2022-08-06T06:32:32.851Z</time>
      </trkpt>
      <trkpt lat="46.20216" lon="15.23694">
        <ele>229.25465</ele>
        <time>2022-08-06T06:32:56.218Z</time>
      </trkpt>
      <trkpt lat="46.20216" lon="15.23704">
        <ele>229.468981</ele>
        <time>2022-08-06T06:32:58.142Z</time>
      </trkpt>
      <trkpt lat="46.20217" lon="15.23802">
        <ele>231.551027</ele>
        <time>2022-08-06T06:33:27.468Z</time>
      </trkpt>
      <trkpt lat="46.20211" lon="15.23826">
        <ele>232.106139</ele>
        <time>2022-08-06T06:33:36.739Z</time>
      </trkpt>
      <trkpt lat="46.2022" lon="15.23834">
        <ele>232.435412</ele>
        <time>2022-08-06T06:33:43.445Z</time>
      </trkpt>
      <trkpt lat="46.20258" lon="15.23817">
        <ele>235.347332</ele>
        <time>2022-08-06T06:34:08.203Z</time>
      </trkpt>
      <trkpt lat="46.20285" lon="15.2382">
        <ele>237.81768</ele>
        <time>2022-08-06T06:34:26.703Z</time>
      </trkpt>
      <trkpt lat="46.20462" lon="15.23882">
        <ele>252.874544</ele>
        <time>2022-08-06T06:36:47.651Z</time>
      </trkpt>
      <trkpt lat="46.20501" lon="15.23907">
        <ele>255.532336</ele>
        <time>2022-08-06T06:37:14.206Z</time>
      </trkpt>
      <trkpt lat="46.20556" lon="15.2395">
        <ele>259.499235</ele>
        <time>2022-08-06T06:37:44.490Z</time>
      </trkpt>
      <trkpt lat="46.20607" lon="15.24015">
        <ele>260.939461</ele>
        <time>2022-08-06T06:38:06.928Z</time>
      </trkpt>
      <trkpt lat="46.20654" lon="15.24135">
        <ele>261.468621</ele>
        <time>2022-08-06T06:38:32.986Z</time>
      </trkpt>
      <trkpt lat="46.20676" lon="15.24255">
        <ele>261.546491</ele>
        <time>2022-08-06T06:38:57.361Z</time>
      </trkpt>
      <trkpt lat="46.20683" lon="15.24376">
        <ele>261.362196</ele>
        <time>2022-08-06T06:39:21.106Z</time>
      </trkpt>
      <trkpt lat="46.20659" lon="15.24703">
        <ele>260.31211</ele>
        <time>2022-08-06T06:40:15.944Z</time>
      </trkpt>
      <trkpt lat="46.20656" lon="15.24808">
        <ele>262.871085</ele>
        <time>2022-08-06T06:40:44.518Z</time>
      </trkpt>
      <trkpt lat="46.20654" lon="15.24993">
        <ele>267.580764</ele>
        <time>2022-08-06T06:41:52.874Z</time>
      </trkpt>
      <trkpt lat="46.20661" lon="15.25339">
        <ele>274.607559</ele>
        <time>2022-08-06T06:43:45.273Z</time>
      </trkpt>
      <trkpt lat="46.20667" lon="15.25401">
        <ele>274.834587</ele>
        <time>2022-08-06T06:43:56.548Z</time>
      </trkpt>
      <trkpt lat="46.20678" lon="15.25455">
        <ele>275.04078</ele>
        <time>2022-08-06T06:44:05.138Z</time>
      </trkpt>
      <trkpt lat="46.20694" lon="15.25509">
        <ele>273.024498</ele>
        <time>2022-08-06T06:44:13.026Z</time>
      </trkpt>
      <trkpt lat="46.2073" lon="15.25611">
        <ele>266.846449</ele>
        <time>2022-08-06T06:44:27.072Z</time>
      </trkpt>
      <trkpt lat="46.20752" lon="15.2566">
        <ele>263.63875</ele>
        <time>2022-08-06T06:44:34.124Z</time>
      </trkpt>
      <trkpt lat="46.20813" lon="15.25766">
        <ele>255.34144</ele>
        <time>2022-08-06T06:44:50.217Z</time>
      </trkpt>
      <trkpt lat="46.2089" lon="15.25872">
        <ele>245.515192</ele>
        <time>2022-08-06T06:45:08.544Z</time>
      </trkpt>
      <trkpt lat="46.2095" lon="15.25939">
        <ele>241.578344</ele>
        <time>2022-08-06T06:45:21.723Z</time>
      </trkpt>
      <trkpt lat="46.21056" lon="15.26036">
        <ele>236.228268</ele>
        <time>2022-08-06T06:45:46.355Z</time>
      </trkpt>
      <trkpt lat="46.21113" lon="15.26076">
        <ele>235.271901</ele>
        <time>2022-08-06T06:46:00.101Z</time>
      </trkpt>
      <trkpt lat="46.21206" lon="15.26159">
        <ele>233.670702</ele>
        <time>2022-08-06T06:46:25.158Z</time>
      </trkpt>
      <trkpt lat="46.21227" lon="15.26218">
        <ele>233.685591</ele>
        <time>2022-08-06T06:46:36.308Z</time>
      </trkpt>
      <trkpt lat="46.2123" lon="15.26221">
        <ele>233.686537</ele>
        <time>2022-08-06T06:46:37.022Z</time>
      </trkpt>
      <trkpt lat="46.21234" lon="15.26225">
        <ele>233.68818</ele>
        <time>2022-08-06T06:46:38.246Z</time>
      </trkpt>
      <trkpt lat="46.2124" lon="15.2623">
        <ele>233.690564</ele>
        <time>2022-08-06T06:46:40.097Z</time>
      </trkpt>
      <trkpt lat="46.21308" lon="15.26224">
        <ele>233.712484</ele>
        <time>2022-08-06T06:46:58.279Z</time>
      </trkpt>
      <trkpt lat="46.21336" lon="15.26231">
        <ele>233.721534</ele>
        <time>2022-08-06T06:47:06.596Z</time>
      </trkpt>
      <trkpt lat="46.21378" lon="15.26256">
        <ele>234.12753</ele>
        <time>2022-08-06T06:47:21.125Z</time>
      </trkpt>
      <trkpt lat="46.2163" lon="15.26438">
        <ele>237.860283</ele>
        <time>2022-08-06T06:48:59.532Z</time>
      </trkpt>
      <trkpt lat="46.21654" lon="15.26447">
        <ele>238.130782</ele>
        <time>2022-08-06T06:49:06.315Z</time>
      </trkpt>
      <trkpt lat="46.21661" lon="15.2645">
        <ele>238.208245</ele>
        <time>2022-08-06T06:49:08.223Z</time>
      </trkpt>
      <trkpt lat="46.21696" lon="15.26458">
        <ele>238.361034</ele>
        <time>2022-08-06T06:49:17.446Z</time>
      </trkpt>
      <trkpt lat="46.21796" lon="15.26463">
        <ele>237.946931</ele>
        <time>2022-08-06T06:49:40.521Z</time>
      </trkpt>
      <trkpt lat="46.21854" lon="15.26476">
        <ele>237.704006</ele>
        <time>2022-08-06T06:49:55.174Z</time>
      </trkpt>
      <trkpt lat="46.21903" lon="15.26501">
        <ele>238.132607</ele>
        <time>2022-08-06T06:50:10.413Z</time>
      </trkpt>
      <trkpt lat="46.22033" lon="15.26585">
        <ele>239.390243</ele>
        <time>2022-08-06T06:50:58.906Z</time>
      </trkpt>
      <trkpt lat="46.22075" lon="15.26627">
        <ele>238.980575</ele>
        <time>2022-08-06T06:51:12.400Z</time>
      </trkpt>
      <trkpt lat="46.22087" lon="15.26641">
        <ele>238.852671</ele>
        <time>2022-08-06T06:51:16.180Z</time>
      </trkpt>
      <trkpt lat="46.22093" lon="15.26666">
        <ele>238.705327</ele>
        <time>2022-08-06T06:51:20.726Z</time>
      </trkpt>
      <trkpt lat="46.22096" lon="15.26667">
        <ele>238.679342</ele>
        <time>2022-08-06T06:51:21.386Z</time>
      </trkpt>
      <trkpt lat="46.22129" lon="15.2667">
        <ele>238.414897</ele>
        <time>2022-08-06T06:51:29.252Z</time>
      </trkpt>
      <trkpt lat="46.22161" lon="15.26703">
        <ele>238.10035</ele>
        <time>2022-08-06T06:51:37.622Z</time>
      </trkpt>
      <trkpt lat="46.22215" lon="15.26734">
        <ele>236.994504</ele>
        <time>2022-08-06T06:51:49.632Z</time>
      </trkpt>
      <trkpt lat="46.22279" lon="15.26758">
        <ele>235.577652</ele>
        <time>2022-08-06T06:52:02.385Z</time>
      </trkpt>
      <trkpt lat="46.22365" lon="15.26759">
        <ele>234.266501</ele>
        <time>2022-08-06T06:52:21.730Z</time>
      </trkpt>
      <trkpt lat="46.22428" lon="15.26747">
        <ele>234.559631</ele>
        <time>2022-08-06T06:52:39.474Z</time>
      </trkpt>
      <trkpt lat="46.22453" lon="15.26732">
        <ele>234.687734</ele>
        <time>2022-08-06T06:52:47.957Z</time>
      </trkpt>
      <trkpt lat="46.22516" lon="15.26688">
        <ele>235.022285</ele>
        <time>2022-08-06T06:53:10.664Z</time>
      </trkpt>
      <trkpt lat="46.22542" lon="15.26682">
        <ele>235.458963</ele>
        <time>2022-08-06T06:53:19.563Z</time>
      </trkpt>
      <trkpt lat="46.22547" lon="15.26687">
        <ele>235.557384</ele>
        <time>2022-08-06T06:53:21.558Z</time>
      </trkpt>
      <trkpt lat="46.2255" lon="15.2668">
        <ele>235.652468</ele>
        <time>2022-08-06T06:53:23.798Z</time>
      </trkpt>
      <trkpt lat="46.22556" lon="15.2668">
        <ele>235.753538</ele>
        <time>2022-08-06T06:53:26.008Z</time>
      </trkpt>
      <trkpt lat="46.22563" lon="15.26667">
        <ele>235.946596</ele>
        <time>2022-08-06T06:53:30.025Z</time>
      </trkpt>
      <trkpt lat="46.22712" lon="15.26704">
        <ele>238.251573</ele>
        <time>2022-08-06T06:54:23.665Z</time>
      </trkpt>
      <trkpt lat="46.22773" lon="15.2672">
        <ele>238.741541</ele>
        <time>2022-08-06T06:54:43.796Z</time>
      </trkpt>
      <trkpt lat="46.22798" lon="15.26728">
        <ele>238.950553</ele>
        <time>2022-08-06T06:54:51.550Z</time>
      </trkpt>
      <trkpt lat="46.22847" lon="15.26742">
        <ele>239.347211</ele>
        <time>2022-08-06T06:55:05.463Z</time>
      </trkpt>
      <trkpt lat="46.22881" lon="15.26752">
        <ele>239.349823</ele>
        <time>2022-08-06T06:55:14.331Z</time>
      </trkpt>
      <trkpt lat="46.22905" lon="15.26759">
        <ele>239.20483</ele>
        <time>2022-08-06T06:55:20.262Z</time>
      </trkpt>
      <trkpt lat="46.22955" lon="15.26773">
        <ele>238.897897</ele>
        <time>2022-08-06T06:55:32.637Z</time>
      </trkpt>
      <trkpt lat="46.23049" lon="15.26778">
        <ele>238.391843</ele>
        <time>2022-08-06T06:55:54.259Z</time>
      </trkpt>
      <trkpt lat="46.23158" lon="15.26781">
        <ele>238.424968</ele>
        <time>2022-08-06T06:56:23.375Z</time>
      </trkpt>
      <trkpt lat="46.23159" lon="15.26768">
        <ele>238.427618</ele>
        <time>2022-08-06T06:56:26.035Z</time>
      </trkpt>
      <trkpt lat="46.23162" lon="15.2675">
        <ele>238.431624</ele>
        <time>2022-08-06T06:56:29.886Z</time>
      </trkpt>
      <trkpt lat="46.23167" lon="15.26713">
        <ele>238.439524</ele>
        <time>2022-08-06T06:56:37.652Z</time>
      </trkpt>
      <trkpt lat="46.23184" lon="15.26611">
        <ele>238.639381</ele>
        <time>2022-08-06T06:56:58.528Z</time>
      </trkpt>
      <trkpt lat="46.23207" lon="15.26632">
        <ele>238.730275</ele>
        <time>2022-08-06T06:57:17.487Z</time>
      </trkpt>
      <trkpt lat="46.2323" lon="15.26694">
        <ele>238.890813</ele>
        <time>2022-08-06T06:57:31.766Z</time>
      </trkpt>
      <trkpt lat="46.23245" lon="15.26723">
        <ele>238.977087</ele>
        <time>2022-08-06T06:57:39.356Z</time>
      </trkpt>
      <trkpt lat="46.23276" lon="15.26752">
        <ele>238.983701</ele>
        <time>2022-08-06T06:57:49.510Z</time>
      </trkpt>
      <trkpt lat="46.23278" lon="15.26766">
        <ele>238.947899</ele>
        <time>2022-08-06T06:57:52.160Z</time>
      </trkpt>
      <trkpt lat="46.23304" lon="15.26771">
        <ele>238.857503</ele>
        <time>2022-08-06T06:57:58.999Z</time>
      </trkpt>
      <trkpt lat="46.23354" lon="15.26799">
        <ele>238.669565</ele>
        <time>2022-08-06T06:58:12.638Z</time>
      </trkpt>
      <trkpt lat="46.23424" lon="15.26869">
        <ele>238.366119</ele>
        <time>2022-08-06T06:58:33.243Z</time>
      </trkpt>
      <trkpt lat="46.23466" lon="15.2693">
        <ele>238.132044</ele>
        <time>2022-08-06T06:58:47.775Z</time>
      </trkpt>
      <trkpt lat="46.23486" lon="15.2695">
        <ele>238.037894</ele>
        <time>2022-08-06T06:58:53.638Z</time>
      </trkpt>
      <trkpt lat="46.23489" lon="15.26973">
        <ele>237.973809</ele>
        <time>2022-08-06T06:58:57.933Z</time>
      </trkpt>
      <trkpt lat="46.23508" lon="15.27002">
        <ele>237.865263</ele>
        <time>2022-08-06T06:59:05.209Z</time>
      </trkpt>
      <trkpt lat="46.23515" lon="15.27002">
        <ele>237.839066</ele>
        <time>2022-08-06T06:59:06.831Z</time>
      </trkpt>
      <trkpt lat="46.23518" lon="15.27006">
        <ele>237.822741</ele>
        <time>2022-08-06T06:59:07.907Z</time>
      </trkpt>
      <trkpt lat="46.2353" lon="15.27037">
        <ele>237.726301</ele>
        <time>2022-08-06T06:59:14.349Z</time>
      </trkpt>
      <trkpt lat="46.2354" lon="15.27048">
        <ele>237.748281</ele>
        <time>2022-08-06T06:59:17.645Z</time>
      </trkpt>
      <trkpt lat="46.23556" lon="15.27052">
        <ele>237.815727</ele>
        <time>2022-08-06T06:59:21.696Z</time>
      </trkpt>
      <trkpt lat="46.23558" lon="15.27058">
        <ele>237.836601</ele>
        <time>2022-08-06T06:59:23.110Z</time>
      </trkpt>
      <trkpt lat="46.2356" lon="15.27066">
        <ele>237.86101</ele>
        <time>2022-08-06T06:59:24.739Z</time>
      </trkpt>
      <trkpt lat="46.23569" lon="15.2707">
        <ele>237.899317</ele>
        <time>2022-08-06T06:59:27.024Z</time>
      </trkpt>
      <trkpt lat="46.23578" lon="15.27075">
        <ele>237.942126</ele>
        <time>2022-08-06T06:59:29.598Z</time>
      </trkpt>
      <trkpt lat="46.23585" lon="15.27109">
        <ele>238.04484</ele>
        <time>2022-08-06T06:59:36.553Z</time>
      </trkpt>
      <trkpt lat="46.23612" lon="15.27145">
        <ele>238.204041</ele>
        <time>2022-08-06T06:59:47.757Z</time>
      </trkpt>
      <trkpt lat="46.23657" lon="15.27192">
        <ele>238.440881</ele>
        <time>2022-08-06T07:00:04.739Z</time>
      </trkpt>
      <trkpt lat="46.23696" lon="15.2721">
        <ele>238.569472</ele>
        <time>2022-08-06T07:00:17.245Z</time>
      </trkpt>
      <trkpt lat="46.23738" lon="15.27241">
        <ele>238.707638</ele>
        <time>2022-08-06T07:00:30.892Z</time>
      </trkpt>
      <trkpt lat="46.23742" lon="15.27254">
        <ele>238.737223</ele>
        <time>2022-08-06T07:00:33.624Z</time>
      </trkpt>
      <trkpt lat="46.23921" lon="15.2738">
        <ele>239.002863</ele>
        <time>2022-08-06T07:01:26.684Z</time>
      </trkpt>
      <trkpt lat="46.24046" lon="15.27485">
        <ele>239.264073</ele>
        <time>2022-08-06T07:02:05.331Z</time>
      </trkpt>
      <trkpt lat="46.24075" lon="15.27505">
        <ele>239.378612</ele>
        <time>2022-08-06T07:02:14.972Z</time>
      </trkpt>
      <trkpt lat="46.24096" lon="15.27509">
        <ele>239.452792</ele>
        <time>2022-08-06T07:02:21.394Z</time>
      </trkpt>
      <trkpt lat="46.24106" lon="15.27517">
        <ele>239.493307</ele>
        <time>2022-08-06T07:02:25.049Z</time>
      </trkpt>
      <trkpt lat="46.24102" lon="15.27534">
        <ele>239.536581</ele>
        <time>2022-08-06T07:02:28.579Z</time>
      </trkpt>
      <trkpt lat="46.24098" lon="15.27546">
        <ele>239.570589</ele>
        <time>2022-08-06T07:02:31.428Z</time>
      </trkpt>
      <trkpt lat="46.24086" lon="15.27556">
        <ele>239.620759</ele>
        <time>2022-08-06T07:02:35.765Z</time>
      </trkpt>
      <trkpt lat="46.24051" lon="15.27703">
        <ele>239.819667</ele>
        <time>2022-08-06T07:03:05.603Z</time>
      </trkpt>
      <trkpt lat="46.24036" lon="15.27776">
        <ele>239.912626</ele>
        <time>2022-08-06T07:03:20.164Z</time>
      </trkpt>
      <trkpt lat="46.24014" lon="15.27913">
        <ele>239.479702</ele>
        <time>2022-08-06T07:03:44.801Z</time>
      </trkpt>
      <trkpt lat="46.2402" lon="15.27926">
        <ele>239.406328</ele>
        <time>2022-08-06T07:03:47.357Z</time>
      </trkpt>
      <trkpt lat="46.24016" lon="15.27938">
        <ele>239.344119</ele>
        <time>2022-08-06T07:03:49.512Z</time>
      </trkpt>
      <trkpt lat="46.24001" lon="15.2795">
        <ele>239.231524</ele>
        <time>2022-08-06T07:03:53.427Z</time>
      </trkpt>
      <trkpt lat="46.23995" lon="15.27962">
        <ele>239.159656</ele>
        <time>2022-08-06T07:03:55.928Z</time>
      </trkpt>
      <trkpt lat="46.23968" lon="15.28106">
        <ele>238.317151</ele>
        <time>2022-08-06T07:04:20.003Z</time>
      </trkpt>
      <trkpt lat="46.23947" lon="15.28236">
        <ele>237.364919</ele>
        <time>2022-08-06T07:04:40.950Z</time>
      </trkpt>
      <trkpt lat="46.23943" lon="15.28298">
        <ele>236.916917</ele>
        <time>2022-08-06T07:04:50.979Z</time>
      </trkpt>
      <trkpt lat="46.23944" lon="15.28376">
        <ele>236.705327</ele>
        <time>2022-08-06T07:05:03.487Z</time>
      </trkpt>
      <trkpt lat="46.23952" lon="15.28622">
        <ele>236.374967</ele>
        <time>2022-08-06T07:05:47.746Z</time>
      </trkpt>
      <trkpt lat="46.23962" lon="15.28646">
        <ele>236.444245</ele>
        <time>2022-08-06T07:05:53.138Z</time>
      </trkpt>
      <trkpt lat="46.23955" lon="15.28709">
        <ele>236.603737</ele>
        <time>2022-08-06T07:06:06.364Z</time>
      </trkpt>
      <trkpt lat="46.23956" lon="15.28846">
        <ele>236.9683</ele>
        <time>2022-08-06T07:06:34.262Z</time>
      </trkpt>
      <trkpt lat="46.23959" lon="15.28922">
        <ele>237.209905</ele>
        <time>2022-08-06T07:06:49.331Z</time>
      </trkpt>
      <trkpt lat="46.23971" lon="15.2897">
        <ele>237.375691</ele>
        <time>2022-08-06T07:06:59.577Z</time>
      </trkpt>
      <trkpt lat="46.23987" lon="15.29015">
        <ele>237.53696</ele>
        <time>2022-08-06T07:07:09.654Z</time>
      </trkpt>
      <trkpt lat="46.24013" lon="15.29033">
        <ele>237.670094</ele>
        <time>2022-08-06T07:07:18.143Z</time>
      </trkpt>
      <trkpt lat="46.24027" lon="15.29059">
        <ele>237.756494</ele>
        <time>2022-08-06T07:07:24.834Z</time>
      </trkpt>
      <trkpt lat="46.24026" lon="15.29065">
        <ele>237.771814</ele>
        <time>2022-08-06T07:07:26.281Z</time>
      </trkpt>
      <trkpt lat="46.2402" lon="15.29084">
        <ele>237.819273</ele>
        <time>2022-08-06T07:07:30.056Z</time>
      </trkpt>
      <trkpt lat="46.24073" lon="15.29204">
        <ele>238.1562</ele>
        <time>2022-08-06T07:07:57.474Z</time>
      </trkpt>
      <trkpt lat="46.24109" lon="15.29326">
        <ele>238.504255</ele>
        <time>2022-08-06T07:08:23.479Z</time>
      </trkpt>
      <trkpt lat="46.24166" lon="15.29586">
        <ele>239.487606</ele>
        <time>2022-08-06T07:09:17.810Z</time>
      </trkpt>
      <trkpt lat="46.24175" lon="15.29642">
        <ele>239.79274</ele>
        <time>2022-08-06T07:09:29.631Z</time>
      </trkpt>
      <trkpt lat="46.24162" lon="15.29744">
        <ele>240.34298</ele>
        <time>2022-08-06T07:09:52.013Z</time>
      </trkpt>
      <trkpt lat="46.24099" lon="15.29916">
        <ele>241.994703</ele>
        <time>2022-08-06T07:10:36.489Z</time>
      </trkpt>
      <trkpt lat="46.24087" lon="15.29971">
        <ele>242.49905</ele>
        <time>2022-08-06T07:10:49.789Z</time>
      </trkpt>
      <trkpt lat="46.24083" lon="15.30071">
        <ele>243.128105</ele>
        <time>2022-08-06T07:11:12.653Z</time>
      </trkpt>
      <trkpt lat="46.24095" lon="15.30242">
        <ele>243.998672</ele>
        <time>2022-08-06T07:11:47.547Z</time>
      </trkpt>
      <trkpt lat="46.24087" lon="15.30243">
        <ele>244.061135</ele>
        <time>2022-08-06T07:11:50.201Z</time>
      </trkpt>
      <trkpt lat="46.24108" lon="15.30555">
        <ele>244.886432</ele>
        <time>2022-08-06T07:12:49.691Z</time>
      </trkpt>
      <trkpt lat="46.24106" lon="15.30624">
        <ele>245.445914</ele>
        <time>2022-08-06T07:13:03.801Z</time>
      </trkpt>
      <trkpt lat="46.2404" lon="15.31316">
        <ele>251.694366</ele>
        <time>2022-08-06T07:15:45.340Z</time>
      </trkpt>
      <trkpt lat="46.2402" lon="15.31407">
        <ele>252.775816</ele>
        <time>2022-08-06T07:16:08.103Z</time>
      </trkpt>
      <trkpt lat="46.24006" lon="15.31426">
        <ele>253.105057</ele>
        <time>2022-08-06T07:16:15.348Z</time>
      </trkpt>
      <trkpt lat="46.2401" lon="15.31442">
        <ele>253.296771</ele>
        <time>2022-08-06T07:16:19.193Z</time>
      </trkpt>
      <trkpt lat="46.23974" lon="15.31645">
        <ele>255.365211</ele>
        <time>2022-08-06T07:17:09.640Z</time>
      </trkpt>
      <trkpt lat="46.23954" lon="15.31799">
        <ele>256.709812</ele>
        <time>2022-08-06T07:17:43.655Z</time>
      </trkpt>
      <trkpt lat="46.23923" lon="15.31919">
        <ele>257.620379</ele>
        <time>2022-08-06T07:18:09.102Z</time>
      </trkpt>
      <trkpt lat="46.23919" lon="15.31993">
        <ele>258.144583</ele>
        <time>2022-08-06T07:18:25.386Z</time>
      </trkpt>
      <trkpt lat="46.23923" lon="15.32113">
        <ele>259.786293</ele>
        <time>2022-08-06T07:18:56.192Z</time>
      </trkpt>
      <trkpt lat="46.23954" lon="15.32369">
        <ele>263.311367</ele>
        <time>2022-08-06T07:20:07.145Z</time>
      </trkpt>
      <trkpt lat="46.23984" lon="15.3253">
        <ele>264.540786</ele>
        <time>2022-08-06T07:20:40.608Z</time>
      </trkpt>
      <trkpt lat="46.24002" lon="15.32671">
        <ele>264.432728</ele>
        <time>2022-08-06T07:21:04.492Z</time>
      </trkpt>
      <trkpt lat="46.24005" lon="15.32719">
        <ele>264.365876</ele>
        <time>2022-08-06T07:21:13.439Z</time>
      </trkpt>
      <trkpt lat="46.24001" lon="15.32768">
        <ele>264.298188</ele>
        <time>2022-08-06T07:21:22.874Z</time>
      </trkpt>
      <trkpt lat="46.23993" lon="15.32809">
        <ele>264.193386</ele>
        <time>2022-08-06T07:21:31.048Z</time>
      </trkpt>
      <trkpt lat="46.23975" lon="15.32864">
        <ele>263.899989</ele>
        <time>2022-08-06T07:21:42.701Z</time>
      </trkpt>
      <trkpt lat="46.23912" lon="15.33078">
        <ele>262.986767</ele>
        <time>2022-08-06T07:22:19.450Z</time>
      </trkpt>
      <trkpt lat="46.23903" lon="15.33142">
        <ele>262.967388</ele>
        <time>2022-08-06T07:22:30.155Z</time>
      </trkpt>
      <trkpt lat="46.23903" lon="15.33185">
        <ele>262.954656</ele>
        <time>2022-08-06T07:22:37.193Z</time>
      </trkpt>
      <trkpt lat="46.23904" lon="15.3326">
        <ele>262.932285</ele>
        <time>2022-08-06T07:22:52.207Z</time>
      </trkpt>
      <trkpt lat="46.23894" lon="15.33312">
        <ele>263.406606</ele>
        <time>2022-08-06T07:23:04.173Z</time>
      </trkpt>
      <trkpt lat="46.23817" lon="15.33434">
        <ele>266.742705</ele>
        <time>2022-08-06T07:23:51.541Z</time>
      </trkpt>
      <trkpt lat="46.23796" lon="15.33478">
        <ele>267.818458</ele>
        <time>2022-08-06T07:24:08.548Z</time>
      </trkpt>
      <trkpt lat="46.23788" lon="15.33515">
        <ele>268.55527</ele>
        <time>2022-08-06T07:24:20.807Z</time>
      </trkpt>
      <trkpt lat="46.23786" lon="15.33561">
        <ele>269.376346</ele>
        <time>2022-08-06T07:24:35.232Z</time>
      </trkpt>
      <trkpt lat="46.238" lon="15.3366">
        <ele>271.192411</ele>
        <time>2022-08-06T07:25:04.853Z</time>
      </trkpt>
      <trkpt lat="46.23798" lon="15.33711">
        <ele>272.099167</ele>
        <time>2022-08-06T07:25:17.588Z</time>
      </trkpt>
      <trkpt lat="46.23792" lon="15.33734">
        <ele>272.545248</ele>
        <time>2022-08-06T07:25:23.376Z</time>
      </trkpt>
      <trkpt lat="46.2376" lon="15.33777">
        <ele>272.029258</ele>
        <time>2022-08-06T07:25:36.274Z</time>
      </trkpt>
      <trkpt lat="46.23751" lon="15.33797">
        <ele>271.629372</ele>
        <time>2022-08-06T07:25:40.226Z</time>
      </trkpt>
      <trkpt lat="46.23704" lon="15.33961">
        <ele>268.596499</ele>
        <time>2022-08-06T07:26:03.995Z</time>
      </trkpt>
      <trkpt lat="46.23695" lon="15.34027">
        <ele>266.81952</ele>
        <time>2022-08-06T07:26:12.256Z</time>
      </trkpt>
      <trkpt lat="46.23705" lon="15.34072">
        <ele>265.472751</ele>
        <time>2022-08-06T07:26:18.100Z</time>
      </trkpt>
      <trkpt lat="46.23744" lon="15.34151">
        <ele>262.71149</ele>
        <time>2022-08-06T07:26:30.424Z</time>
      </trkpt>
      <trkpt lat="46.23777" lon="15.34274">
        <ele>261.475822</ele>
        <time>2022-08-06T07:26:48.954Z</time>
      </trkpt>
      <trkpt lat="46.23852" lon="15.34394">
        <ele>262.594938</ele>
        <time>2022-08-06T07:27:29.947Z</time>
      </trkpt>
      <trkpt lat="46.23876" lon="15.34447">
        <ele>263.611772</ele>
        <time>2022-08-06T07:27:50.003Z</time>
      </trkpt>
      <trkpt lat="46.23889" lon="15.34497">
        <ele>264.854999</ele>
        <time>2022-08-06T07:28:08.020Z</time>
      </trkpt>
      <trkpt lat="46.23899" lon="15.34597">
        <ele>267.18123</ele>
        <time>2022-08-06T07:28:40.375Z</time>
      </trkpt>
      <trkpt lat="46.23916" lon="15.34689">
        <ele>268.633987</ele>
        <time>2022-08-06T07:29:05.821Z</time>
      </trkpt>
      <trkpt lat="46.23915" lon="15.34705">
        <ele>268.550014</ele>
        <time>2022-08-06T07:29:09.192Z</time>
      </trkpt>
      <trkpt lat="46.23921" lon="15.34714">
        <ele>268.488076</ele>
        <time>2022-08-06T07:29:11.565Z</time>
      </trkpt>
      <trkpt lat="46.23929" lon="15.34714">
        <ele>268.42598</ele>
        <time>2022-08-06T07:29:13.934Z</time>
      </trkpt>
      <trkpt lat="46.23938" lon="15.34775">
        <ele>268.10169</ele>
        <time>2022-08-06T07:29:24.508Z</time>
      </trkpt>
      <trkpt lat="46.2394" lon="15.34832">
        <ele>267.798106</ele>
        <time>2022-08-06T07:29:33.228Z</time>
      </trkpt>
      <trkpt lat="46.23932" lon="15.34906">
        <ele>267.408205</ele>
        <time>2022-08-06T07:29:43.652Z</time>
      </trkpt>
      <trkpt lat="46.239" lon="15.35032">
        <ele>265.709833</ele>
        <time>2022-08-06T07:30:01.705Z</time>
      </trkpt>
      <trkpt lat="46.23886" lon="15.35059">
        <ele>265.281124</ele>
        <time>2022-08-06T07:30:06.396Z</time>
      </trkpt>
      <trkpt lat="46.23865" lon="15.3508">
        <ele>264.81627</ele>
        <time>2022-08-06T07:30:12.646Z</time>
      </trkpt>
      <trkpt lat="46.23806" lon="15.35122">
        <ele>264.744668</ele>
        <time>2022-08-06T07:30:30.683Z</time>
      </trkpt>
      <trkpt lat="46.23792" lon="15.35151">
        <ele>265.312747</ele>
        <time>2022-08-06T07:30:38.535Z</time>
      </trkpt>
      <trkpt lat="46.23789" lon="15.35171">
        <ele>265.637642</ele>
        <time>2022-08-06T07:30:44.653Z</time>
      </trkpt>
      <trkpt lat="46.23792" lon="15.3521">
        <ele>266.27153</ele>
        <time>2022-08-06T07:30:54.039Z</time>
      </trkpt>
      <trkpt lat="46.23788" lon="15.35223">
        <ele>266.486648</ele>
        <time>2022-08-06T07:30:59.181Z</time>
      </trkpt>
      <trkpt lat="46.23724" lon="15.35308">
        <ele>268.648917</ele>
        <time>2022-08-06T07:31:36.040Z</time>
      </trkpt>
      <trkpt lat="46.23711" lon="15.35336">
        <ele>269.502898</ele>
        <time>2022-08-06T07:31:47.778Z</time>
      </trkpt>
      <trkpt lat="46.23703" lon="15.35363">
        <ele>270.230067</ele>
        <time>2022-08-06T07:31:56.606Z</time>
      </trkpt>
      <trkpt lat="46.23685" lon="15.35481">
        <ele>273.260319</ele>
        <time>2022-08-06T07:32:34.821Z</time>
      </trkpt>
      <trkpt lat="46.23651" lon="15.35602">
        <ele>276.143828</ele>
        <time>2022-08-06T07:33:12.010Z</time>
      </trkpt>
      <trkpt lat="46.23629" lon="15.35664">
        <ele>277.483454</ele>
        <time>2022-08-06T07:33:31.763Z</time>
      </trkpt>
      <trkpt lat="46.23638" lon="15.35694">
        <ele>278.124008</ele>
        <time>2022-08-06T07:33:40.912Z</time>
      </trkpt>
      <trkpt lat="46.23687" lon="15.3579">
        <ele>280.289135</ele>
        <time>2022-08-06T07:34:13.255Z</time>
      </trkpt>
      <trkpt lat="46.23706" lon="15.35884">
        <ele>281.741493</ele>
        <time>2022-08-06T07:34:38.929Z</time>
      </trkpt>
      <trkpt lat="46.23708" lon="15.35918">
        <ele>282.247636</ele>
        <time>2022-08-06T07:34:48.126Z</time>
      </trkpt>
      <trkpt lat="46.23704" lon="15.35938">
        <ele>282.56262</ele>
        <time>2022-08-06T07:34:53.759Z</time>
      </trkpt>
      <trkpt lat="46.23672" lon="15.36064">
        <ele>283.210917</ele>
        <time>2022-08-06T07:35:25.486Z</time>
      </trkpt>
      <trkpt lat="46.23668" lon="15.36095">
        <ele>282.953966</ele>
        <time>2022-08-06T07:35:31.759Z</time>
      </trkpt>
      <trkpt lat="46.23669" lon="15.36182">
        <ele>282.241083</ele>
        <time>2022-08-06T07:35:45.270Z</time>
      </trkpt>
      <trkpt lat="46.23675" lon="15.36211">
        <ele>282.000925</ele>
        <time>2022-08-06T07:35:49.305Z</time>
      </trkpt>
      <trkpt lat="46.23688" lon="15.36237">
        <ele>281.741423</ele>
        <time>2022-08-06T07:35:53.738Z</time>
      </trkpt>
      <trkpt lat="46.23749" lon="15.36302">
        <ele>278.752825</ele>
        <time>2022-08-06T07:36:07.772Z</time>
      </trkpt>
      <trkpt lat="46.23729" lon="15.36365">
        <ele>276.567785</ele>
        <time>2022-08-06T07:36:16.232Z</time>
      </trkpt>
      <trkpt lat="46.23726" lon="15.36396">
        <ele>275.559835</ele>
        <time>2022-08-06T07:36:20.243Z</time>
      </trkpt>
      <trkpt lat="46.2373" lon="15.36537">
        <ele>272.374518</ele>
        <time>2022-08-06T07:36:38.171Z</time>
      </trkpt>
      <trkpt lat="46.23732" lon="15.36748">
        <ele>270.210954</ele>
        <time>2022-08-06T07:37:11.465Z</time>
      </trkpt>
      <trkpt lat="46.23737" lon="15.3682">
        <ele>271.483751</ele>
        <time>2022-08-06T07:37:28.802Z</time>
      </trkpt>
      <trkpt lat="46.23741" lon="15.36962">
        <ele>273.968942</ele>
        <time>2022-08-06T07:38:10.728Z</time>
      </trkpt>
      <trkpt lat="46.23746" lon="15.37004">
        <ele>275.008853</ele>
        <time>2022-08-06T07:38:25.632Z</time>
      </trkpt>
      <trkpt lat="46.2379" lon="15.37252">
        <ele>283.123737</ele>
        <time>2022-08-06T07:39:55.930Z</time>
      </trkpt>
      <trkpt lat="46.23834" lon="15.37375">
        <ele>285.05146</ele>
        <time>2022-08-06T07:40:37.008Z</time>
      </trkpt>
      <trkpt lat="46.23841" lon="15.37406">
        <ele>285.50921</ele>
        <time>2022-08-06T07:40:44.910Z</time>
      </trkpt>
      <trkpt lat="46.23851" lon="15.37516">
        <ele>285.679556</ele>
        <time>2022-08-06T07:41:03.108Z</time>
      </trkpt>
      <trkpt lat="46.2385" lon="15.37621">
        <ele>283.107478</ele>
        <time>2022-08-06T07:41:17.352Z</time>
      </trkpt>
      <trkpt lat="46.23854" lon="15.37654">
        <ele>282.287517</ele>
        <time>2022-08-06T07:41:21.645Z</time>
      </trkpt>
      <trkpt lat="46.23879" lon="15.37763">
        <ele>279.102301</ele>
        <time>2022-08-06T07:41:35.963Z</time>
      </trkpt>
      <trkpt lat="46.23869" lon="15.37833">
        <ele>276.418155</ele>
        <time>2022-08-06T07:41:44.675Z</time>
      </trkpt>
      <trkpt lat="46.23833" lon="15.37975">
        <ele>270.785451</ele>
        <time>2022-08-06T07:42:03.169Z</time>
      </trkpt>
      <trkpt lat="46.23828" lon="15.38114">
        <ele>268.385111</ele>
        <time>2022-08-06T07:42:22.193Z</time>
      </trkpt>
      <trkpt lat="46.23842" lon="15.38187">
        <ele>267.169972</ele>
        <time>2022-08-06T07:42:33.612Z</time>
      </trkpt>
      <trkpt lat="46.23857" lon="15.38234">
        <ele>266.330356</ele>
        <time>2022-08-06T07:42:42.034Z</time>
      </trkpt>
      <trkpt lat="46.23859" lon="15.38256">
        <ele>266.262195</ele>
        <time>2022-08-06T07:42:45.905Z</time>
      </trkpt>
      <trkpt lat="46.23857" lon="15.38366">
        <ele>265.991897</ele>
        <time>2022-08-06T07:43:06.246Z</time>
      </trkpt>
      <trkpt lat="46.23849" lon="15.38374">
        <ele>265.955365</ele>
        <time>2022-08-06T07:43:08.869Z</time>
      </trkpt>
      <trkpt lat="46.23847" lon="15.38389">
        <ele>265.918949</ele>
        <time>2022-08-06T07:43:11.495Z</time>
      </trkpt>
      <trkpt lat="46.23856" lon="15.38402">
        <ele>265.875123</ele>
        <time>2022-08-06T07:43:15.023Z</time>
      </trkpt>
      <trkpt lat="46.23864" lon="15.38402">
        <ele>265.8452</ele>
        <time>2022-08-06T07:43:17.270Z</time>
      </trkpt>
      <trkpt lat="46.23871" lon="15.38507">
        <ele>265.781843</ele>
        <time>2022-08-06T07:43:34.951Z</time>
      </trkpt>
      <trkpt lat="46.23865" lon="15.38595">
        <ele>266.046756</ele>
        <time>2022-08-06T07:43:49.056Z</time>
      </trkpt>
      <trkpt lat="46.23875" lon="15.38778">
        <ele>268.398268</ele>
        <time>2022-08-06T07:44:30.528Z</time>
      </trkpt>
      <trkpt lat="46.23861" lon="15.38833">
        <ele>270.745337</ele>
        <time>2022-08-06T07:44:52.129Z</time>
      </trkpt>
      <trkpt lat="46.23848" lon="15.38856">
        <ele>271.918376</ele>
        <time>2022-08-06T07:45:03.694Z</time>
      </trkpt>
      <trkpt lat="46.23775" lon="15.38982">
        <ele>278.939724</ele>
        <time>2022-08-06T07:46:17.468Z</time>
      </trkpt>
      <trkpt lat="46.23764" lon="15.39022">
        <ele>281.044777</ele>
        <time>2022-08-06T07:46:37.588Z</time>
      </trkpt>
      <trkpt lat="46.23764" lon="15.39054">
        <ele>282.679048</ele>
        <time>2022-08-06T07:46:54.046Z</time>
      </trkpt>
      <trkpt lat="46.23775" lon="15.39089">
        <ele>284.584007</ele>
        <time>2022-08-06T07:47:12.529Z</time>
      </trkpt>
      <trkpt lat="46.23851" lon="15.39184">
        <ele>290.331035</ele>
        <time>2022-08-06T07:48:06.903Z</time>
      </trkpt>
      <trkpt lat="46.23886" lon="15.39236">
        <ele>291.202355</ele>
        <time>2022-08-06T07:48:24.619Z</time>
      </trkpt>
      <trkpt lat="46.23915" lon="15.393">
        <ele>292.127862</ele>
        <time>2022-08-06T07:48:39.849Z</time>
      </trkpt>
      <trkpt lat="46.23945" lon="15.39387">
        <ele>292.914752</ele>
        <time>2022-08-06T07:48:58.420Z</time>
      </trkpt>
      <trkpt lat="46.23959" lon="15.39434">
        <ele>292.77358</ele>
        <time>2022-08-06T07:49:07.321Z</time>
      </trkpt>
      <trkpt lat="46.24009" lon="15.39596">
        <ele>292.283358</ele>
        <time>2022-08-06T07:49:36.859Z</time>
      </trkpt>
      <trkpt lat="46.24018" lon="15.39755">
        <ele>291.496167</ele>
        <time>2022-08-06T07:50:05.214Z</time>
      </trkpt>
      <trkpt lat="46.24024" lon="15.39784">
        <ele>291.342613</ele>
        <time>2022-08-06T07:50:09.991Z</time>
      </trkpt>
      <trkpt lat="46.24072" lon="15.39896">
        <ele>290.777145</ele>
        <time>2022-08-06T07:50:30.074Z</time>
      </trkpt>
      <trkpt lat="46.2409" lon="15.4002">
        <ele>290.34469</ele>
        <time>2022-08-06T07:50:50.738Z</time>
      </trkpt>
      <trkpt lat="46.24112" lon="15.40135">
        <ele>290.810532</ele>
        <time>2022-08-06T07:51:14.511Z</time>
      </trkpt>
      <trkpt lat="46.24093" lon="15.40248">
        <ele>292.861513</ele>
        <time>2022-08-06T07:51:44.298Z</time>
      </trkpt>
      <trkpt lat="46.24092" lon="15.4027">
        <ele>293.251623</ele>
        <time>2022-08-06T07:51:50.471Z</time>
      </trkpt>
      <trkpt lat="46.24096" lon="15.40287">
        <ele>293.557325</ele>
        <time>2022-08-06T07:51:56.064Z</time>
      </trkpt>
      <trkpt lat="46.24162" lon="15.40425">
        <ele>298.591984</ele>
        <time>2022-08-06T07:52:51.788Z</time>
      </trkpt>
      <trkpt lat="46.24197" lon="15.40554">
        <ele>303.713173</ele>
        <time>2022-08-06T07:53:46.865Z</time>
      </trkpt>
      <trkpt lat="46.24228" lon="15.40731">
        <ele>308.009997</ele>
        <time>2022-08-06T07:54:52.792Z</time>
      </trkpt>
      <trkpt lat="46.24259" lon="15.40849">
        <ele>309.068056</ele>
        <time>2022-08-06T07:55:16.587Z</time>
      </trkpt>
      <trkpt lat="46.24285" lon="15.409">
        <ele>307.138244</ele>
        <time>2022-08-06T07:55:24.946Z</time>
      </trkpt>
      <trkpt lat="46.24307" lon="15.40943">
        <ele>305.508901</ele>
        <time>2022-08-06T07:55:31.394Z</time>
      </trkpt>
      <trkpt lat="46.24316" lon="15.40973">
        <ele>304.494554</ele>
        <time>2022-08-06T07:55:35.442Z</time>
      </trkpt>
      <trkpt lat="46.2433" lon="15.41072">
        <ele>301.986906</ele>
        <time>2022-08-06T07:55:47.485Z</time>
      </trkpt>
      <trkpt lat="46.24343" lon="15.41143">
        <ele>301.548258</ele>
        <time>2022-08-06T07:55:56.427Z</time>
      </trkpt>
      <trkpt lat="46.24515" lon="15.41687">
        <ele>300.589768</ele>
        <time>2022-08-06T07:57:55.958Z</time>
      </trkpt>
      <trkpt lat="46.24576" lon="15.41892">
        <ele>302.03188</ele>
        <time>2022-08-06T07:58:57.895Z</time>
      </trkpt>
      <trkpt lat="46.24602" lon="15.4194">
        <ele>302.340494</ele>
        <time>2022-08-06T07:59:09.572Z</time>
      </trkpt>
      <trkpt lat="46.24648" lon="15.42001">
        <ele>301.792634</ele>
        <time>2022-08-06T07:59:22.630Z</time>
      </trkpt>
      <trkpt lat="46.24657" lon="15.42015">
        <ele>301.234805</ele>
        <time>2022-08-06T07:59:25.161Z</time>
      </trkpt>
      <trkpt lat="46.2476" lon="15.42156">
        <ele>295.409825</ele>
        <time>2022-08-06T07:59:50.876Z</time>
      </trkpt>
      <trkpt lat="46.24781" lon="15.42204">
        <ele>294.065157</ele>
        <time>2022-08-06T07:59:58.146Z</time>
      </trkpt>
      <trkpt lat="46.24787" lon="15.42248">
        <ele>293.04044</ele>
        <time>2022-08-06T08:00:04.003Z</time>
      </trkpt>
      <trkpt lat="46.24757" lon="15.42458">
        <ele>288.020242</ele>
        <time>2022-08-06T08:00:34.068Z</time>
      </trkpt>
      <trkpt lat="46.24771" lon="15.42522">
        <ele>286.353103</ele>
        <time>2022-08-06T08:00:43.210Z</time>
      </trkpt>
      <trkpt lat="46.24797" lon="15.42588">
        <ele>284.485446</ele>
        <time>2022-08-06T08:00:53.134Z</time>
      </trkpt>
      <trkpt lat="46.24816" lon="15.42674">
        <ele>282.246455</ele>
        <time>2022-08-06T08:01:04.584Z</time>
      </trkpt>
      <trkpt lat="46.24854" lon="15.4281">
        <ele>278.450832</ele>
        <time>2022-08-06T08:01:23.634Z</time>
      </trkpt>
      <trkpt lat="46.24896" lon="15.42921">
        <ele>276.079058</ele>
        <time>2022-08-06T08:01:40.727Z</time>
      </trkpt>
      <trkpt lat="46.24919" lon="15.42963">
        <ele>276.003385</ele>
        <time>2022-08-06T08:01:48.586Z</time>
      </trkpt>
      <trkpt lat="46.24941" lon="15.42992">
        <ele>275.940136</ele>
        <time>2022-08-06T08:01:55.958Z</time>
      </trkpt>
      <trkpt lat="46.24947" lon="15.42999">
        <ele>275.925075</ele>
        <time>2022-08-06T08:01:57.908Z</time>
      </trkpt>
      <trkpt lat="46.24961" lon="15.43017">
        <ele>275.886479</ele>
        <time>2022-08-06T08:02:03.039Z</time>
      </trkpt>
      <trkpt lat="46.24974" lon="15.43043">
        <ele>275.840562</ele>
        <time>2022-08-06T08:02:09.722Z</time>
      </trkpt>
      <trkpt lat="46.24982" lon="15.43063">
        <ele>275.806912</ele>
        <time>2022-08-06T08:02:15.115Z</time>
      </trkpt>
      <trkpt lat="46.24996" lon="15.43095">
        <ele>275.945395</ele>
        <time>2022-08-06T08:02:25.822Z</time>
      </trkpt>
      <trkpt lat="46.25056" lon="15.43221">
        <ele>281.837538</ele>
        <time>2022-08-06T08:03:13.126Z</time>
      </trkpt>
      <trkpt lat="46.25064" lon="15.43238">
        <ele>282.625354</ele>
        <time>2022-08-06T08:03:21.802Z</time>
      </trkpt>
      <trkpt lat="46.25089" lon="15.4327">
        <ele>284.503734</ele>
        <time>2022-08-06T08:03:44.701Z</time>
      </trkpt>
      <trkpt lat="46.2512" lon="15.43284">
        <ele>286.738454</ele>
        <time>2022-08-06T08:04:07.800Z</time>
      </trkpt>
      <trkpt lat="46.25151" lon="15.43284">
        <ele>290.03129</ele>
        <time>2022-08-06T08:04:31.746Z</time>
      </trkpt>
      <trkpt lat="46.25159" lon="15.43278">
        <ele>290.9758</ele>
        <time>2022-08-06T08:04:38.024Z</time>
      </trkpt>
      <trkpt lat="46.25179" lon="15.43241">
        <ele>294.353159</ele>
        <time>2022-08-06T08:05:01.927Z</time>
      </trkpt>
      <trkpt lat="46.25199" lon="15.43241">
        <ele>296.520629</ele>
        <time>2022-08-06T08:05:21.150Z</time>
      </trkpt>
      <trkpt lat="46.25211" lon="15.43253">
        <ele>298.055143</ele>
        <time>2022-08-06T08:05:31.186Z</time>
      </trkpt>
      <trkpt lat="46.25242" lon="15.43338">
        <ele>304.944642</ele>
        <time>2022-08-06T08:06:24.359Z</time>
      </trkpt>
      <trkpt lat="46.25278" lon="15.43371">
        <ele>308.626168</ele>
        <time>2022-08-06T08:06:58.330Z</time>
      </trkpt>
      <trkpt lat="46.25304" lon="15.43425">
        <ele>312.517611</ele>
        <time>2022-08-06T08:07:33.032Z</time>
      </trkpt>
      <trkpt lat="46.25324" lon="15.43453">
        <ele>314.921141</ele>
        <time>2022-08-06T08:07:50.489Z</time>
      </trkpt>
      <trkpt lat="46.25356" lon="15.43524">
        <ele>319.844007</ele>
        <time>2022-08-06T08:08:24.978Z</time>
      </trkpt>
      <trkpt lat="46.25358" lon="15.4355">
        <ele>320.561819</ele>
        <time>2022-08-06T08:08:35.040Z</time>
      </trkpt>
      <trkpt lat="46.25352" lon="15.43574">
        <ele>321.116455</ele>
        <time>2022-08-06T08:08:43.897Z</time>
      </trkpt>
      <trkpt lat="46.25289" lon="15.4365">
        <ele>323.728504</ele>
        <time>2022-08-06T08:09:17.038Z</time>
      </trkpt>
      <trkpt lat="46.25277" lon="15.43667">
        <ele>324.238007</ele>
        <time>2022-08-06T08:09:22.641Z</time>
      </trkpt>
      <trkpt lat="46.25258" lon="15.43694">
        <ele>325.086012</ele>
        <time>2022-08-06T08:09:31.977Z</time>
      </trkpt>
      <trkpt lat="46.25245" lon="15.43737">
        <ele>325.959958</ele>
        <time>2022-08-06T08:09:43.034Z</time>
      </trkpt>
      <trkpt lat="46.25245" lon="15.43799">
        <ele>326.76274</ele>
        <time>2022-08-06T08:09:57.479Z</time>
      </trkpt>
      <trkpt lat="46.25275" lon="15.44029">
        <ele>330.006319</ele>
        <time>2022-08-06T08:10:56.221Z</time>
      </trkpt>
      <trkpt lat="46.25276" lon="15.44149">
        <ele>331.990293</ele>
        <time>2022-08-06T08:11:28.845Z</time>
      </trkpt>
      <trkpt lat="46.25272" lon="15.44253">
        <ele>333.696775</ele>
        <time>2022-08-06T08:11:56.421Z</time>
      </trkpt>
      <trkpt lat="46.25278" lon="15.44274">
        <ele>334.076411</ele>
        <time>2022-08-06T08:12:02.530Z</time>
      </trkpt>
      <trkpt lat="46.25305" lon="15.4432">
        <ele>335.062694</ele>
        <time>2022-08-06T08:12:18.477Z</time>
      </trkpt>
      <trkpt lat="46.25373" lon="15.44399">
        <ele>337.101409</ele>
        <time>2022-08-06T08:12:51.600Z</time>
      </trkpt>
      <trkpt lat="46.25405" lon="15.44382">
        <ele>337.744338</ele>
        <time>2022-08-06T08:13:04.456Z</time>
      </trkpt>
      <trkpt lat="46.25422" lon="15.44379">
        <ele>337.906005</ele>
        <time>2022-08-06T08:13:10.941Z</time>
      </trkpt>
      <trkpt lat="46.25449" lon="15.44394">
        <ele>338.172721</ele>
        <time>2022-08-06T08:13:20.976Z</time>
      </trkpt>
      <trkpt lat="46.25469" lon="15.44416">
        <ele>338.409307</ele>
        <time>2022-08-06T08:13:28.957Z</time>
      </trkpt>
      <trkpt lat="46.25491" lon="15.44455">
        <ele>338.736817</ele>
        <time>2022-08-06T08:13:38.903Z</time>
      </trkpt>
      <trkpt lat="46.25521" lon="15.44529">
        <ele>339.30165</ele>
        <time>2022-08-06T08:13:54.796Z</time>
      </trkpt>
      <trkpt lat="46.25527" lon="15.44542">
        <ele>339.432194</ele>
        <time>2022-08-06T08:13:57.623Z</time>
      </trkpt>
      <trkpt lat="46.25558" lon="15.44595">
        <ele>340.151263</ele>
        <time>2022-08-06T08:14:10.646Z</time>
      </trkpt>
      <trkpt lat="46.25629" lon="15.44664">
        <ele>341.419573</ele>
        <time>2022-08-06T08:14:39.107Z</time>
      </trkpt>
      <trkpt lat="46.25655" lon="15.44698">
        <ele>341.944271</ele>
        <time>2022-08-06T08:14:52.270Z</time>
      </trkpt>
      <trkpt lat="46.25684" lon="15.44738">
        <ele>343.54617</ele>
        <time>2022-08-06T08:15:11.313Z</time>
      </trkpt>
      <trkpt lat="46.25755" lon="15.44782">
        <ele>346.872183</ele>
        <time>2022-08-06T08:15:50.187Z</time>
      </trkpt>
      <trkpt lat="46.25792" lon="15.44822">
        <ele>348.891013</ele>
        <time>2022-08-06T08:16:14.655Z</time>
      </trkpt>
      <trkpt lat="46.2581" lon="15.44836">
        <ele>349.767394</ele>
        <time>2022-08-06T08:16:24.952Z</time>
      </trkpt>
      <trkpt lat="46.2587" lon="15.44856">
        <ele>351.080315</ele>
        <time>2022-08-06T08:16:49.633Z</time>
      </trkpt>
      <trkpt lat="46.25916" lon="15.44904">
        <ele>352.277891</ele>
        <time>2022-08-06T08:17:09.871Z</time>
      </trkpt>
      <trkpt lat="46.25947" lon="15.44953">
        <ele>353.234921</ele>
        <time>2022-08-06T08:17:23.190Z</time>
      </trkpt>
      <trkpt lat="46.2598" lon="15.4503">
        <ele>354.759732</ele>
        <time>2022-08-06T08:17:42.742Z</time>
      </trkpt>
      <trkpt lat="46.25989" lon="15.4507">
        <ele>355.504114</ele>
        <time>2022-08-06T08:17:52.680Z</time>
      </trkpt>
      <trkpt lat="46.25989" lon="15.45212">
        <ele>357.989996</ele>
        <time>2022-08-06T08:18:33.309Z</time>
      </trkpt>
      <trkpt lat="46.25958" lon="15.4527">
        <ele>360.384386</ele>
        <time>2022-08-06T08:18:59.197Z</time>
      </trkpt>
      <trkpt lat="46.2594" lon="15.45328">
        <ele>362.555147</ele>
        <time>2022-08-06T08:19:23.873Z</time>
      </trkpt>
      <trkpt lat="46.25952" lon="15.45409">
        <ele>365.424247</ele>
        <time>2022-08-06T08:19:55.207Z</time>
      </trkpt>
      <trkpt lat="46.25991" lon="15.45491">
        <ele>367.490204</ele>
        <time>2022-08-06T08:20:29.194Z</time>
      </trkpt>
      <trkpt lat="46.26115" lon="15.45658">
        <ele>368.116601</ele>
        <time>2022-08-06T08:21:16.428Z</time>
      </trkpt>
      <trkpt lat="46.26144" lon="15.45708">
        <ele>366.392074</ele>
        <time>2022-08-06T08:21:24.798Z</time>
      </trkpt>
      <trkpt lat="46.26149" lon="15.45774">
        <ele>364.649706</ele>
        <time>2022-08-06T08:21:33.233Z</time>
      </trkpt>
      <trkpt lat="46.26143" lon="15.45889">
        <ele>361.645149</ele>
        <time>2022-08-06T08:21:47.551Z</time>
      </trkpt>
      <trkpt lat="46.26128" lon="15.46069">
        <ele>356.982353</ele>
        <time>2022-08-06T08:22:10.709Z</time>
      </trkpt>
      <trkpt lat="46.26131" lon="15.46093">
        <ele>356.373353</ele>
        <time>2022-08-06T08:22:14.096Z</time>
      </trkpt>
      <trkpt lat="46.26155" lon="15.46187">
        <ele>355.0384</ele>
        <time>2022-08-06T08:22:31.709Z</time>
      </trkpt>
      <trkpt lat="46.26174" lon="15.46289">
        <ele>354.246675</ele>
        <time>2022-08-06T08:22:49.851Z</time>
      </trkpt>
      <trkpt lat="46.26187" lon="15.46323">
        <ele>353.954057</ele>
        <time>2022-08-06T08:22:56.848Z</time>
      </trkpt>
      <trkpt lat="46.26366" lon="15.46702">
        <ele>344.492354</ele>
        <time>2022-08-06T08:24:01.751Z</time>
      </trkpt>
      <trkpt lat="46.26374" lon="15.46728">
        <ele>343.574288</ele>
        <time>2022-08-06T08:24:05.123Z</time>
      </trkpt>
      <trkpt lat="46.26372" lon="15.46761">
        <ele>342.46883</ele>
        <time>2022-08-06T08:24:09.114Z</time>
      </trkpt>
      <trkpt lat="46.26361" lon="15.46795">
        <ele>341.247467</ele>
        <time>2022-08-06T08:24:13.422Z</time>
      </trkpt>
      <trkpt lat="46.26324" lon="15.46977">
        <ele>330.682929</ele>
        <time>2022-08-06T08:24:35.255Z</time>
      </trkpt>
      <trkpt lat="46.2631" lon="15.47001">
        <ele>328.9075</ele>
        <time>2022-08-06T08:24:38.822Z</time>
      </trkpt>
      <trkpt lat="46.26273" lon="15.4701">
        <ele>325.878241</ele>
        <time>2022-08-06T08:24:45.186Z</time>
      </trkpt>
      <trkpt lat="46.26249" lon="15.47038">
        <ele>323.824485</ele>
        <time>2022-08-06T08:24:50.412Z</time>
      </trkpt>
      <trkpt lat="46.26235" lon="15.47099">
        <ele>320.791312</ele>
        <time>2022-08-06T08:24:58.334Z</time>
      </trkpt>
      <trkpt lat="46.26201" lon="15.47201">
        <ele>315.560247</ele>
        <time>2022-08-06T08:25:12.082Z</time>
      </trkpt>
      <trkpt lat="46.26207" lon="15.47222">
        <ele>314.493996</ele>
        <time>2022-08-06T08:25:14.765Z</time>
      </trkpt>
      <trkpt lat="46.26214" lon="15.47229">
        <ele>313.902908</ele>
        <time>2022-08-06T08:25:16.203Z</time>
      </trkpt>
      <trkpt lat="46.26283" lon="15.47244">
        <ele>308.504614</ele>
        <time>2022-08-06T08:25:27.801Z</time>
      </trkpt>
      <trkpt lat="46.26327" lon="15.47301">
        <ele>303.876003</ele>
        <time>2022-08-06T08:25:37.734Z</time>
      </trkpt>
      <trkpt lat="46.26369" lon="15.47319">
        <ele>300.452499</ele>
        <time>2022-08-06T08:25:45.205Z</time>
      </trkpt>
      <trkpt lat="46.26391" lon="15.47337">
        <ele>299.783716</ele>
        <time>2022-08-06T08:25:49.534Z</time>
      </trkpt>
      <trkpt lat="46.2642" lon="15.47407">
        <ele>299.018558</ele>
        <time>2022-08-06T08:25:59.560Z</time>
      </trkpt>
      <trkpt lat="46.26486" lon="15.47627">
        <ele>302.135554</ele>
        <time>2022-08-06T08:27:01.283Z</time>
      </trkpt>
      <trkpt lat="46.26569" lon="15.47666">
        <ele>308.51279</ele>
        <time>2022-08-06T08:28:04.551Z</time>
      </trkpt>
      <trkpt lat="46.26595" lon="15.4769">
        <ele>310.729802</ele>
        <time>2022-08-06T08:28:28.588Z</time>
      </trkpt>
      <trkpt lat="46.2662" lon="15.47795">
        <ele>318.983489</ele>
        <time>2022-08-06T08:29:32.394Z</time>
      </trkpt>
      <trkpt lat="46.26652" lon="15.47842">
        <ele>323.912702</ele>
        <time>2022-08-06T08:30:09.445Z</time>
      </trkpt>
      <trkpt lat="46.26681" lon="15.47865">
        <ele>327.468229</ele>
        <time>2022-08-06T08:30:35.140Z</time>
      </trkpt>
      <trkpt lat="46.26745" lon="15.47876">
        <ele>332.95042</ele>
        <time>2022-08-06T08:31:21.175Z</time>
      </trkpt>
      <trkpt lat="46.26787" lon="15.47902">
        <ele>336.276191</ele>
        <time>2022-08-06T08:31:49.958Z</time>
      </trkpt>
      <trkpt lat="46.26802" lon="15.47901">
        <ele>337.39601</ele>
        <time>2022-08-06T08:31:59.136Z</time>
      </trkpt>
      <trkpt lat="46.26838" lon="15.47872">
        <ele>340.36008</ele>
        <time>2022-08-06T08:32:22.374Z</time>
      </trkpt>
      <trkpt lat="46.26855" lon="15.47867">
        <ele>341.643491</ele>
        <time>2022-08-06T08:32:32.037Z</time>
      </trkpt>
      <trkpt lat="46.26867" lon="15.4787">
        <ele>342.523063</ele>
        <time>2022-08-06T08:32:38.739Z</time>
      </trkpt>
      <trkpt lat="46.26903" lon="15.47942">
        <ele>344.939697</ele>
        <time>2022-08-06T08:33:10.589Z</time>
      </trkpt>
      <trkpt lat="46.26977" lon="15.47977">
        <ele>347.579179</ele>
        <time>2022-08-06T08:33:45.845Z</time>
      </trkpt>
      <trkpt lat="46.26995" lon="15.48002">
        <ele>348.427369</ele>
        <time>2022-08-06T08:33:54.725Z</time>
      </trkpt>
      <trkpt lat="46.27039" lon="15.48035">
        <ele>348.720316</ele>
        <time>2022-08-06T08:34:09.120Z</time>
      </trkpt>
      <trkpt lat="46.27069" lon="15.48077">
        <ele>347.903909</ele>
        <time>2022-08-06T08:34:18.743Z</time>
      </trkpt>
      <trkpt lat="46.27112" lon="15.4819">
        <ele>346.146933</ele>
        <time>2022-08-06T08:34:36.382Z</time>
      </trkpt>
      <trkpt lat="46.27141" lon="15.48346">
        <ele>341.615954</ele>
        <time>2022-08-06T08:34:57.373Z</time>
      </trkpt>
      <trkpt lat="46.27148" lon="15.48436">
        <ele>338.730435</ele>
        <time>2022-08-06T08:35:08.851Z</time>
      </trkpt>
      <trkpt lat="46.27161" lon="15.48521">
        <ele>335.148758</ele>
        <time>2022-08-06T08:35:19.539Z</time>
      </trkpt>
      <trkpt lat="46.27175" lon="15.48558">
        <ele>333.032107</ele>
        <time>2022-08-06T08:35:24.596Z</time>
      </trkpt>
      <trkpt lat="46.27261" lon="15.4873">
        <ele>322.576003</ele>
        <time>2022-08-06T08:35:49.295Z</time>
      </trkpt>
      <trkpt lat="46.27296" lon="15.48867">
        <ele>315.696948</ele>
        <time>2022-08-06T08:36:06.527Z</time>
      </trkpt>
      <trkpt lat="46.27311" lon="15.4891">
        <ele>313.407024</ele>
        <time>2022-08-06T08:36:12.454Z</time>
      </trkpt>
      <trkpt lat="46.2733" lon="15.48949">
        <ele>311.497227</ele>
        <time>2022-08-06T08:36:18.303Z</time>
      </trkpt>
      <trkpt lat="46.27414" lon="15.49038">
        <ele>306.981734</ele>
        <time>2022-08-06T08:36:37.080Z</time>
      </trkpt>
      <trkpt lat="46.27452" lon="15.49092">
        <ele>304.67382</ele>
        <time>2022-08-06T08:36:47.374Z</time>
      </trkpt>
      <trkpt lat="46.27498" lon="15.49132">
        <ele>305.271585</ele>
        <time>2022-08-06T08:36:58.898Z</time>
      </trkpt>
      <trkpt lat="46.27567" lon="15.49151">
        <ele>306.779054</ele>
        <time>2022-08-06T08:37:18.020Z</time>
      </trkpt>
      <trkpt lat="46.27687" lon="15.49211">
        <ele>314.225733</ele>
        <time>2022-08-06T08:38:37.895Z</time>
      </trkpt>
      <trkpt lat="46.2772" lon="15.49241">
        <ele>318.005842</ele>
        <time>2022-08-06T08:39:07.254Z</time>
      </trkpt>
      <trkpt lat="46.2775" lon="15.49261">
        <ele>321.255763</ele>
        <time>2022-08-06T08:39:33.973Z</time>
      </trkpt>
      <trkpt lat="46.27824" lon="15.49285">
        <ele>328.479593</ele>
        <time>2022-08-06T08:40:36.703Z</time>
      </trkpt>
      <trkpt lat="46.27899" lon="15.49328">
        <ele>336.075844</ele>
        <time>2022-08-06T08:41:41.039Z</time>
      </trkpt>
      <trkpt lat="46.27916" lon="15.49348">
        <ele>338.164336</ele>
        <time>2022-08-06T08:41:56.125Z</time>
      </trkpt>
      <trkpt lat="46.27958" lon="15.4948">
        <ele>342.853103</ele>
        <time>2022-08-06T08:42:52.493Z</time>
      </trkpt>
      <trkpt lat="46.27993" lon="15.4951">
        <ele>343.110222</ele>
        <time>2022-08-06T08:43:05.285Z</time>
      </trkpt>
      <trkpt lat="46.28052" lon="15.49593">
        <ele>343.637874</ele>
        <time>2022-08-06T08:43:22.167Z</time>
      </trkpt>
      <trkpt lat="46.28109" lon="15.49638">
        <ele>339.985114</ele>
        <time>2022-08-06T08:43:33.561Z</time>
      </trkpt>
      <trkpt lat="46.28211" lon="15.49786">
        <ele>331.884262</ele>
        <time>2022-08-06T08:43:58.505Z</time>
      </trkpt>
      <trkpt lat="46.28221" lon="15.49809">
        <ele>331.080145</ele>
        <time>2022-08-06T08:44:02.169Z</time>
      </trkpt>
      <trkpt lat="46.28236" lon="15.4988">
        <ele>328.940414</ele>
        <time>2022-08-06T08:44:12.065Z</time>
      </trkpt>
      <trkpt lat="46.28252" lon="15.49914">
        <ele>327.734498</ele>
        <time>2022-08-06T08:44:17.657Z</time>
      </trkpt>
      <trkpt lat="46.28311" lon="15.49961">
        <ele>324.888412</ele>
        <time>2022-08-06T08:44:30.410Z</time>
      </trkpt>
      <trkpt lat="46.28345" lon="15.50022">
        <ele>322.515242</ele>
        <time>2022-08-06T08:44:40.546Z</time>
      </trkpt>
      <trkpt lat="46.28382" lon="15.50076">
        <ele>320.218869</ele>
        <time>2022-08-06T08:44:50.280Z</time>
      </trkpt>
      <trkpt lat="46.28407" lon="15.50159">
        <ele>317.489678</ele>
        <time>2022-08-06T08:45:01.862Z</time>
      </trkpt>
      <trkpt lat="46.28452" lon="15.50225">
        <ele>314.769417</ele>
        <time>2022-08-06T08:45:13.344Z</time>
      </trkpt>
      <trkpt lat="46.28522" lon="15.50285">
        <ele>311.254662</ele>
        <time>2022-08-06T08:45:28.598Z</time>
      </trkpt>
      <trkpt lat="46.2872" lon="15.50355">
        <ele>304.471206</ele>
        <time>2022-08-06T08:46:07.859Z</time>
      </trkpt>
      <trkpt lat="46.28822" lon="15.50428">
        <ele>302.26854</ele>
        <time>2022-08-06T08:46:33.584Z</time>
      </trkpt>
      <trkpt lat="46.2886" lon="15.50465">
        <ele>301.429789</ele>
        <time>2022-08-06T08:46:43.619Z</time>
      </trkpt>
      <trkpt lat="46.28934" lon="15.50555">
        <ele>299.220557</ele>
        <time>2022-08-06T08:47:03.198Z</time>
      </trkpt>
      <trkpt lat="46.28967" lon="15.50581">
        <ele>298.290203</ele>
        <time>2022-08-06T08:47:10.619Z</time>
      </trkpt>
      <trkpt lat="46.29037" lon="15.50677">
        <ele>296.596843</ele>
        <time>2022-08-06T08:47:29.884Z</time>
      </trkpt>
      <trkpt lat="46.29124" lon="15.50823">
        <ele>297.488937</ele>
        <time>2022-08-06T08:48:09.218Z</time>
      </trkpt>
      <trkpt lat="46.29134" lon="15.50853">
        <ele>297.643746</ele>
        <time>2022-08-06T08:48:22.941Z</time>
      </trkpt>
      <trkpt lat="46.29135" lon="15.50897">
        <ele>297.950909</ele>
        <time>2022-08-06T08:48:35.726Z</time>
      </trkpt>
      <trkpt lat="46.29148" lon="15.50932">
        <ele>298.231015</ele>
        <time>2022-08-06T08:48:46.205Z</time>
      </trkpt>
      <trkpt lat="46.29167" lon="15.50953">
        <ele>298.480388</ele>
        <time>2022-08-06T08:48:54.975Z</time>
      </trkpt>
      <trkpt lat="46.29234" lon="15.50984">
        <ele>299.204308</ele>
        <time>2022-08-06T08:49:15.752Z</time>
      </trkpt>
      <trkpt lat="46.29209" lon="15.51003">
        <ele>299.496675</ele>
        <time>2022-08-06T08:49:22.118Z</time>
      </trkpt>
      <trkpt lat="46.2915" lon="15.51032">
        <ele>297.722252</ele>
        <time>2022-08-06T08:49:36.283Z</time>
      </trkpt>
      <trkpt lat="46.29093" lon="15.51051">
        <ele>296.030802</ele>
        <time>2022-08-06T08:49:47.972Z</time>
      </trkpt>
      <trkpt lat="46.29027" lon="15.51111">
        <ele>294.02069</ele>
        <time>2022-08-06T08:50:03.251Z</time>
      </trkpt>
      <trkpt lat="46.2899" lon="15.51109">
        <ele>293.374767</ele>
        <time>2022-08-06T08:50:11.629Z</time>
      </trkpt>
      <trkpt lat="46.28977" lon="15.51114">
        <ele>293.158707</ele>
        <time>2022-08-06T08:50:14.318Z</time>
      </trkpt>
      <trkpt lat="46.28966" lon="15.51126">
        <ele>292.92337</ele>
        <time>2022-08-06T08:50:17.824Z</time>
      </trkpt>
      <trkpt lat="46.28968" lon="15.51144">
        <ele>292.7078</ele>
        <time>2022-08-06T08:50:20.644Z</time>
      </trkpt>
      <trkpt lat="46.29005" lon="15.51269">
        <ele>291.320294</ele>
        <time>2022-08-06T08:50:43.225Z</time>
      </trkpt>
      <trkpt lat="46.29053" lon="15.51391">
        <ele>291.84847</ele>
        <time>2022-08-06T08:51:12.027Z</time>
      </trkpt>
      <trkpt lat="46.29074" lon="15.51456">
        <ele>292.117882</ele>
        <time>2022-08-06T08:51:28.370Z</time>
      </trkpt>
      <trkpt lat="46.29087" lon="15.51558">
        <ele>292.585645</ele>
        <time>2022-08-06T08:51:53.656Z</time>
      </trkpt>
      <trkpt lat="46.29065" lon="15.51592">
        <ele>292.815064</ele>
        <time>2022-08-06T08:52:05.511Z</time>
      </trkpt>
      <trkpt lat="46.29025" lon="15.51627">
        <ele>293.145386</ele>
        <time>2022-08-06T08:52:21.311Z</time>
      </trkpt>
      <trkpt lat="46.2902" lon="15.51639">
        <ele>293.216497</ele>
        <time>2022-08-06T08:52:24.405Z</time>
      </trkpt>
      <trkpt lat="46.29011" lon="15.51769">
        <ele>292.03368</ele>
        <time>2022-08-06T08:52:46.455Z</time>
      </trkpt>
      <trkpt lat="46.28971" lon="15.51872">
        <ele>289.477683</ele>
        <time>2022-08-06T08:53:03.000Z</time>
      </trkpt>
      <trkpt lat="46.28926" lon="15.51962">
        <ele>287.05287</ele>
        <time>2022-08-06T08:53:17.674Z</time>
      </trkpt>
      <trkpt lat="46.28921" lon="15.51982">
        <ele>286.595464</ele>
        <time>2022-08-06T08:53:20.281Z</time>
      </trkpt>
      <trkpt lat="46.28915" lon="15.52093">
        <ele>284.123385</ele>
        <time>2022-08-06T08:53:35.049Z</time>
      </trkpt>
      <trkpt lat="46.28884" lon="15.52214">
        <ele>282.329242</ele>
        <time>2022-08-06T08:53:57.424Z</time>
      </trkpt>
      <trkpt lat="46.28913" lon="15.52245">
        <ele>282.623496</ele>
        <time>2022-08-06T08:54:09.062Z</time>
      </trkpt>
      <trkpt lat="46.28927" lon="15.52274">
        <ele>282.826486</ele>
        <time>2022-08-06T08:54:17.283Z</time>
      </trkpt>
      <trkpt lat="46.28929" lon="15.52297">
        <ele>282.959789</ele>
        <time>2022-08-06T08:54:23.052Z</time>
      </trkpt>
      <trkpt lat="46.28938" lon="15.52382">
        <ele>283.446464</ele>
        <time>2022-08-06T08:54:44.126Z</time>
      </trkpt>
      <trkpt lat="46.2897" lon="15.52527">
        <ele>281.934164</ele>
        <time>2022-08-06T08:55:13.311Z</time>
      </trkpt>
      <trkpt lat="46.28977" lon="15.52575">
        <ele>281.294031</ele>
        <time>2022-08-06T08:55:20.180Z</time>
      </trkpt>
      <trkpt lat="46.28975" lon="15.52586">
        <ele>281.147983</ele>
        <time>2022-08-06T08:55:21.660Z</time>
      </trkpt>
      <trkpt lat="46.28988" lon="15.52642">
        <ele>280.374996</ele>
        <time>2022-08-06T08:55:29.157Z</time>
      </trkpt>
      <trkpt lat="46.29013" lon="15.52688">
        <ele>279.068677</ele>
        <time>2022-08-06T08:55:36.306Z</time>
      </trkpt>
      <trkpt lat="46.2909" lon="15.52754">
        <ele>275.784721</ele>
        <time>2022-08-06T08:55:52.897Z</time>
      </trkpt>
      <trkpt lat="46.2913" lon="15.52771">
        <ele>274.278564</ele>
        <time>2022-08-06T08:56:01.132Z</time>
      </trkpt>
      <trkpt lat="46.29154" lon="15.52763">
        <ele>273.659415</ele>
        <time>2022-08-06T08:56:06.793Z</time>
      </trkpt>
      <trkpt lat="46.29174" lon="15.52766">
        <ele>273.711315</ele>
        <time>2022-08-06T08:56:11.591Z</time>
      </trkpt>
      <trkpt lat="46.29227" lon="15.52804">
        <ele>273.863608</ele>
        <time>2022-08-06T08:56:27.706Z</time>
      </trkpt>
      <trkpt lat="46.29251" lon="15.52813">
        <ele>273.926677</ele>
        <time>2022-08-06T08:56:35.334Z</time>
      </trkpt>
      <trkpt lat="46.29295" lon="15.52819">
        <ele>274.040372</ele>
        <time>2022-08-06T08:56:50.657Z</time>
      </trkpt>
      <trkpt lat="46.2932" lon="15.52833">
        <ele>274.088282</ele>
        <time>2022-08-06T08:56:59.443Z</time>
      </trkpt>
      <trkpt lat="46.29382" lon="15.52901">
        <ele>273.648706</ele>
        <time>2022-08-06T08:57:22.891Z</time>
      </trkpt>
      <trkpt lat="46.29465" lon="15.53024">
        <ele>272.45925</ele>
        <time>2022-08-06T08:57:49.137Z</time>
      </trkpt>
      <trkpt lat="46.29513" lon="15.53076">
        <ele>270.48986</ele>
        <time>2022-08-06T08:58:00.493Z</time>
      </trkpt>
      <trkpt lat="46.2958" lon="15.53176">
        <ele>267.308754</ele>
        <time>2022-08-06T08:58:18.802Z</time>
      </trkpt>
      <trkpt lat="46.29592" lon="15.53206">
        <ele>266.857383</ele>
        <time>2022-08-06T08:58:23.425Z</time>
      </trkpt>
      <trkpt lat="46.2959" lon="15.53213">
        <ele>266.77867</ele>
        <time>2022-08-06T08:58:24.464Z</time>
      </trkpt>
      <trkpt lat="46.29586" lon="15.53218">
        <ele>266.701242</ele>
        <time>2022-08-06T08:58:25.501Z</time>
      </trkpt>
      <trkpt lat="46.29579" lon="15.53235">
        <ele>266.485919</ele>
        <time>2022-08-06T08:58:28.257Z</time>
      </trkpt>
      <trkpt lat="46.29579" lon="15.5325">
        <ele>266.328037</ele>
        <time>2022-08-06T08:58:30.292Z</time>
      </trkpt>
      <trkpt lat="46.29583" lon="15.53259">
        <ele>266.216705</ele>
        <time>2022-08-06T08:58:31.828Z</time>
      </trkpt>
      <trkpt lat="46.296" lon="15.53272">
        <ele>265.912874</ele>
        <time>2022-08-06T08:58:39.237Z</time>
      </trkpt>
      <trkpt lat="46.29616" lon="15.53267">
        <ele>265.65387</ele>
        <time>2022-08-06T08:58:42.805Z</time>
      </trkpt>
      <trkpt lat="46.29714" lon="15.53499">
        <ele>264.327043</ele>
        <time>2022-08-06T08:59:31.620Z</time>
      </trkpt>
      <trkpt lat="46.29775" lon="15.53682">
        <ele>264.083175</ele>
        <time>2022-08-06T09:00:09.648Z</time>
      </trkpt>
      <trkpt lat="46.2987" lon="15.53935">
        <ele>263.029705</ele>
        <time>2022-08-06T09:00:58.185Z</time>
      </trkpt>
      <trkpt lat="46.29882" lon="15.54005">
        <ele>262.629845</ele>
        <time>2022-08-06T09:01:09.795Z</time>
      </trkpt>
      <trkpt lat="46.29896" lon="15.54043">
        <ele>262.393246</ele>
        <time>2022-08-06T09:01:16.590Z</time>
      </trkpt>
      <trkpt lat="46.29911" lon="15.54071">
        <ele>262.192835</ele>
        <time>2022-08-06T09:01:22.258Z</time>
      </trkpt>
      <trkpt lat="46.2992" lon="15.54092">
        <ele>262.04405</ele>
        <time>2022-08-06T09:01:26.242Z</time>
      </trkpt>
      <trkpt lat="46.29984" lon="15.54221">
        <ele>261.106171</ele>
        <time>2022-08-06T09:01:51.857Z</time>
      </trkpt>
      <trkpt lat="46.30067" lon="15.54314">
        <ele>260.469036</ele>
        <time>2022-08-06T09:02:17.212Z</time>
      </trkpt>
      <trkpt lat="46.30112" lon="15.54385">
        <ele>260.185086</ele>
        <time>2022-08-06T09:02:34.049Z</time>
      </trkpt>
      <trkpt lat="46.30183" lon="15.54509">
        <ele>259.8695</ele>
        <time>2022-08-06T09:03:02.301Z</time>
      </trkpt>
      <trkpt lat="46.30209" lon="15.54572">
        <ele>259.790222</ele>
        <time>2022-08-06T09:03:15.499Z</time>
      </trkpt>
      <trkpt lat="46.30219" lon="15.54634">
        <ele>259.721301</ele>
        <time>2022-08-06T09:03:27.142Z</time>
      </trkpt>
      <trkpt lat="46.30244" lon="15.54872">
        <ele>259.583873</ele>
        <time>2022-08-06T09:04:11.351Z</time>
      </trkpt>
      <trkpt lat="46.30246" lon="15.54891">
        <ele>259.574606</ele>
        <time>2022-08-06T09:04:14.930Z</time>
      </trkpt>
      <trkpt lat="46.30256" lon="15.55012">
        <ele>259.448502</ele>
        <time>2022-08-06T09:04:36.731Z</time>
      </trkpt>
      <trkpt lat="46.3026" lon="15.55079">
        <ele>259.362099</ele>
        <time>2022-08-06T09:04:48.424Z</time>
      </trkpt>
      <trkpt lat="46.30274" lon="15.55117">
        <ele>259.305589</ele>
        <time>2022-08-06T09:04:56.044Z</time>
      </trkpt>
      <trkpt lat="46.30314" lon="15.55197">
        <ele>259.410177</ele>
        <time>2022-08-06T09:05:13.599Z</time>
      </trkpt>
      <trkpt lat="46.30317" lon="15.55221">
        <ele>259.55891</ele>
        <time>2022-08-06T09:05:18.062Z</time>
      </trkpt>
      <trkpt lat="46.30313" lon="15.5529">
        <ele>259.979222</ele>
        <time>2022-08-06T09:05:31.498Z</time>
      </trkpt>
      <trkpt lat="46.30317" lon="15.55323">
        <ele>260.181472</ele>
        <time>2022-08-06T09:05:38.760Z</time>
      </trkpt>
      <trkpt lat="46.30207" lon="15.55374">
        <ele>261.614698</ele>
        <time>2022-08-06T09:06:19.925Z</time>
      </trkpt>
      <trkpt lat="46.30198" lon="15.55384">
        <ele>261.82073</ele>
        <time>2022-08-06T09:06:24.431Z</time>
      </trkpt>
      <trkpt lat="46.30145" lon="15.55422">
        <ele>262.875446</ele>
        <time>2022-08-06T09:06:44.539Z</time>
      </trkpt>
      <trkpt lat="46.30132" lon="15.55451">
        <ele>263.305585</ele>
        <time>2022-08-06T09:06:53.797Z</time>
      </trkpt>
      <trkpt lat="46.30139" lon="15.55461">
        <ele>263.474954</ele>
        <time>2022-08-06T09:06:56.170Z</time>
      </trkpt>
      <trkpt lat="46.30192" lon="15.55495">
        <ele>264.310251</ele>
        <time>2022-08-06T09:07:17.048Z</time>
      </trkpt>
      <trkpt lat="46.30206" lon="15.5553">
        <ele>264.605189</ele>
        <time>2022-08-06T09:07:26.573Z</time>
      </trkpt>
      <trkpt lat="46.30208" lon="15.55556">
        <ele>264.7959</ele>
        <time>2022-08-06T09:07:32.634Z</time>
      </trkpt>
      <trkpt lat="46.30205" lon="15.55628">
        <ele>265.315541</ele>
        <time>2022-08-06T09:07:47.559Z</time>
      </trkpt>
      <trkpt lat="46.30241" lon="15.55829">
        <ele>266.55485</ele>
        <time>2022-08-06T09:08:30.017Z</time>
      </trkpt>
      <trkpt lat="46.30239" lon="15.5585">
        <ele>266.66211</ele>
        <time>2022-08-06T09:08:34.328Z</time>
      </trkpt>
      <trkpt lat="46.30221" lon="15.55896">
        <ele>266.933096</ele>
        <time>2022-08-06T09:08:44.633Z</time>
      </trkpt>
      <trkpt lat="46.30214" lon="15.55948">
        <ele>267.206602</ele>
        <time>2022-08-06T09:08:55.389Z</time>
      </trkpt>
      <trkpt lat="46.30217" lon="15.55964">
        <ele>267.438888</ele>
        <time>2022-08-06T09:08:58.605Z</time>
      </trkpt>
      <trkpt lat="46.30248" lon="15.55996">
        <ele>268.81843</ele>
        <time>2022-08-06T09:09:12.005Z</time>
      </trkpt>
      <trkpt lat="46.3026" lon="15.56009">
        <ele>269.367588</ele>
        <time>2022-08-06T09:09:18.583Z</time>
      </trkpt>
      <trkpt lat="46.30264" lon="15.56021">
        <ele>269.720485</ele>
        <time>2022-08-06T09:09:22.260Z</time>
      </trkpt>
      <trkpt lat="46.30269" lon="15.56101">
        <ele>271.73506</ele>
        <time>2022-08-06T09:09:47.070Z</time>
      </trkpt>
      <trkpt lat="46.30255" lon="15.56199">
        <ele>274.343065</ele>
        <time>2022-08-06T09:10:24.847Z</time>
      </trkpt>
      <trkpt lat="46.30227" lon="15.56375">
        <ele>279.649648</ele>
        <time>2022-08-06T09:11:34.880Z</time>
      </trkpt>
      <trkpt lat="46.30225" lon="15.56518">
        <ele>280.043382</ele>
        <time>2022-08-06T09:12:00.284Z</time>
      </trkpt>
      <trkpt lat="46.30227" lon="15.5655">
        <ele>279.489942</ele>
        <time>2022-08-06T09:12:04.283Z</time>
      </trkpt>
      <trkpt lat="46.30244" lon="15.56633">
        <ele>277.993446</ele>
        <time>2022-08-06T09:12:15.300Z</time>
      </trkpt>
      <trkpt lat="46.30232" lon="15.56802">
        <ele>277.36775</ele>
        <time>2022-08-06T09:12:38.931Z</time>
      </trkpt>
      <trkpt lat="46.30238" lon="15.56857">
        <ele>277.568548</ele>
        <time>2022-08-06T09:12:51.883Z</time>
      </trkpt>
      <trkpt lat="46.30198" lon="15.57067">
        <ele>279.047912</ele>
        <time>2022-08-06T09:13:59.403Z</time>
      </trkpt>
      <trkpt lat="46.30201" lon="15.57138">
        <ele>279.709446</ele>
        <time>2022-08-06T09:14:15.110Z</time>
      </trkpt>
      <trkpt lat="46.3021" lon="15.57173">
        <ele>280.05374</ele>
        <time>2022-08-06T09:14:20.884Z</time>
      </trkpt>
      <trkpt lat="46.30211" lon="15.57253">
        <ele>279.109356</ele>
        <time>2022-08-06T09:14:32.034Z</time>
      </trkpt>
      <trkpt lat="46.3022" lon="15.57344">
        <ele>276.958748</ele>
        <time>2022-08-06T09:14:43.917Z</time>
      </trkpt>
      <trkpt lat="46.30236" lon="15.57392">
        <ele>275.716897</ele>
        <time>2022-08-06T09:14:50.787Z</time>
      </trkpt>
      <trkpt lat="46.30264" lon="15.57504">
        <ele>273.403221</ele>
        <time>2022-08-06T09:15:06.635Z</time>
      </trkpt>
      <trkpt lat="46.30268" lon="15.5754">
        <ele>272.865075</ele>
        <time>2022-08-06T09:15:11.692Z</time>
      </trkpt>
      <trkpt lat="46.30279" lon="15.57585">
        <ele>272.174525</ele>
        <time>2022-08-06T09:15:18.210Z</time>
      </trkpt>
      <trkpt lat="46.30312" lon="15.57648">
        <ele>271.008484</ele>
        <time>2022-08-06T09:15:30.754Z</time>
      </trkpt>
      <trkpt lat="46.30334" lon="15.57704">
        <ele>270.228567</ele>
        <time>2022-08-06T09:15:41.694Z</time>
      </trkpt>
      <trkpt lat="46.30378" lon="15.57867">
        <ele>268.82625</ele>
        <time>2022-08-06T09:16:10.897Z</time>
      </trkpt>
      <trkpt lat="46.30395" lon="15.57972">
        <ele>267.29277</ele>
        <time>2022-08-06T09:16:26.288Z</time>
      </trkpt>
      <trkpt lat="46.30395" lon="15.58027">
        <ele>266.021208</ele>
        <time>2022-08-06T09:16:33.805Z</time>
      </trkpt>
      <trkpt lat="46.30447" lon="15.57983">
        <ele>264.036267</ele>
        <time>2022-08-06T09:16:45.254Z</time>
      </trkpt>
      <trkpt lat="46.30474" lon="15.57952">
        <ele>262.893609</ele>
        <time>2022-08-06T09:16:51.749Z</time>
      </trkpt>
      <trkpt lat="46.30505" lon="15.57916">
        <ele>261.647577</ele>
        <time>2022-08-06T09:16:59.260Z</time>
      </trkpt>
      <trkpt lat="46.30526" lon="15.57889">
        <ele>260.804939</ele>
        <time>2022-08-06T09:17:04.533Z</time>
      </trkpt>
      <trkpt lat="46.30651" lon="15.57731">
        <ele>256.882501</ele>
        <time>2022-08-06T09:17:38.074Z</time>
      </trkpt>
      <trkpt lat="46.30678" lon="15.57697">
        <ele>256.757821</ele>
        <time>2022-08-06T09:17:46.802Z</time>
      </trkpt>
      <trkpt lat="46.30716" lon="15.57654">
        <ele>256.586479</ele>
        <time>2022-08-06T09:18:00.054Z</time>
      </trkpt>
      <trkpt lat="46.30751" lon="15.57632">
        <ele>256.455815</ele>
        <time>2022-08-06T09:18:11.499Z</time>
      </trkpt>
      <trkpt lat="46.30772" lon="15.57625">
        <ele>256.408749</ele>
        <time>2022-08-06T09:18:18.583Z</time>
      </trkpt>
      <trkpt lat="46.30844" lon="15.57628">
        <ele>257.175618</ele>
        <time>2022-08-06T09:18:42.003Z</time>
      </trkpt>
      <trkpt lat="46.30891" lon="15.57688">
        <ele>257.846241</ele>
        <time>2022-08-06T09:19:02.241Z</time>
      </trkpt>
      <trkpt lat="46.30943" lon="15.5775">
        <ele>258.513861</ele>
        <time>2022-08-06T09:19:23.417Z</time>
      </trkpt>
      <trkpt lat="46.30958" lon="15.57763">
        <ele>258.666255</ele>
        <time>2022-08-06T09:19:28.752Z</time>
      </trkpt>
      <trkpt lat="46.31022" lon="15.57809">
        <ele>259.29263</ele>
        <time>2022-08-06T09:19:50.524Z</time>
      </trkpt>
      <trkpt lat="46.31231" lon="15.57841">
        <ele>261.249928</ele>
        <time>2022-08-06T09:20:55.100Z</time>
      </trkpt>
      <trkpt lat="46.31273" lon="15.57849">
        <ele>261.735748</ele>
        <time>2022-08-06T09:21:08.430Z</time>
      </trkpt>
      <trkpt lat="46.31284" lon="15.5785">
        <ele>261.976782</ele>
        <time>2022-08-06T09:21:12.028Z</time>
      </trkpt>
      <trkpt lat="46.31359" lon="15.57862">
        <ele>263.633327</ele>
        <time>2022-08-06T09:21:39.315Z</time>
      </trkpt>
      <trkpt lat="46.31379" lon="15.57863">
        <ele>264.073589</ele>
        <time>2022-08-06T09:21:46.660Z</time>
      </trkpt>
      <trkpt lat="46.31417" lon="15.57849">
        <ele>264.930073</ele>
        <time>2022-08-06T09:22:01.597Z</time>
      </trkpt>
      <trkpt lat="46.31424" lon="15.57886">
        <ele>265.524859</ele>
        <time>2022-08-06T09:22:12.215Z</time>
      </trkpt>
      <trkpt lat="46.31432" lon="15.57903">
        <ele>266.347041</ele>
        <time>2022-08-06T09:22:17.773Z</time>
      </trkpt>
      <trkpt lat="46.31438" lon="15.57912">
        <ele>266.91439</ele>
        <time>2022-08-06T09:22:21.623Z</time>
      </trkpt>
      <trkpt lat="46.31456" lon="15.5792">
        <ele>268.095497</ele>
        <time>2022-08-06T09:22:30.085Z</time>
      </trkpt>
      <trkpt lat="46.31488" lon="15.57889">
        <ele>270.490314</ele>
        <time>2022-08-06T09:22:50.021Z</time>
      </trkpt>
      <trkpt lat="46.31569" lon="15.57831">
        <ele>276.222559</ele>
        <time>2022-08-06T09:23:47.979Z</time>
      </trkpt>
      <trkpt lat="46.31616" lon="15.57815">
        <ele>280.684523</ele>
        <time>2022-08-06T09:24:21.532Z</time>
      </trkpt>
      <trkpt lat="46.31642" lon="15.57853">
        <ele>284.462891</ele>
        <time>2022-08-06T09:24:48.939Z</time>
      </trkpt>
      <trkpt lat="46.31665" lon="15.57892">
        <ele>288.170359</ele>
        <time>2022-08-06T09:25:16.537Z</time>
      </trkpt>
      <trkpt lat="46.31684" lon="15.57928">
        <ele>291.320262</ele>
        <time>2022-08-06T09:25:41.045Z</time>
      </trkpt>
      <trkpt lat="46.31695" lon="15.5795">
        <ele>293.25114</ele>
        <time>2022-08-06T09:25:56.899Z</time>
      </trkpt>
      <trkpt lat="46.31699" lon="15.57958">
        <ele>293.95491</ele>
        <time>2022-08-06T09:26:02.781Z</time>
      </trkpt>
      <trkpt lat="46.31705" lon="15.57972">
        <ele>295.106381</ele>
        <time>2022-08-06T09:26:12.773Z</time>
      </trkpt>
      <trkpt lat="46.31726" lon="15.58015">
        <ele>298.58937</ele>
        <time>2022-08-06T09:26:43.128Z</time>
      </trkpt>
      <trkpt lat="46.31753" lon="15.58089">
        <ele>304.028344</ele>
        <time>2022-08-06T09:27:26.609Z</time>
      </trkpt>
      <trkpt lat="46.31799" lon="15.5817">
        <ele>310.849255</ele>
        <time>2022-08-06T09:28:16.795Z</time>
      </trkpt>
      <trkpt lat="46.31833" lon="15.58194">
        <ele>313.096465</ele>
        <time>2022-08-06T09:28:39.139Z</time>
      </trkpt>
      <trkpt lat="46.31879" lon="15.5827">
        <ele>315.66809</ele>
        <time>2022-08-06T09:29:13.731Z</time>
      </trkpt>
      <trkpt lat="46.31903" lon="15.58327">
        <ele>317.367702</ele>
        <time>2022-08-06T09:29:31.406Z</time>
      </trkpt>
      <trkpt lat="46.31913" lon="15.58389">
        <ele>318.913543</ele>
        <time>2022-08-06T09:29:45.036Z</time>
      </trkpt>
      <trkpt lat="46.3194" lon="15.58428">
        <ele>318.889582</ele>
        <time>2022-08-06T09:29:55.602Z</time>
      </trkpt>
      <trkpt lat="46.31961" lon="15.58433">
        <ele>318.876018</ele>
        <time>2022-08-06T09:30:01.326Z</time>
      </trkpt>
      <trkpt lat="46.3201" lon="15.58426">
        <ele>318.844505</ele>
        <time>2022-08-06T09:30:13.517Z</time>
      </trkpt>
      <trkpt lat="46.32094" lon="15.58395">
        <ele>318.974972</ele>
        <time>2022-08-06T09:30:34.086Z</time>
      </trkpt>
      <trkpt lat="46.32178" lon="15.58439">
        <ele>319.819282</ele>
        <time>2022-08-06T09:31:04.576Z</time>
      </trkpt>
      <trkpt lat="46.32197" lon="15.58457">
        <ele>320.034895</ele>
        <time>2022-08-06T09:31:12.228Z</time>
      </trkpt>
      <trkpt lat="46.32214" lon="15.58486">
        <ele>320.2855</ele>
        <time>2022-08-06T09:31:19.812Z</time>
      </trkpt>
      <trkpt lat="46.32235" lon="15.58515">
        <ele>320.544283</ele>
        <time>2022-08-06T09:31:29.446Z</time>
      </trkpt>
      <trkpt lat="46.32244" lon="15.58519">
        <ele>320.612696</ele>
        <time>2022-08-06T09:31:32.187Z</time>
      </trkpt>
      <trkpt lat="46.32285" lon="15.58516">
        <ele>320.895608</ele>
        <time>2022-08-06T09:31:45.299Z</time>
      </trkpt>
      <trkpt lat="46.32329" lon="15.58495">
        <ele>321.215076</ele>
        <time>2022-08-06T09:31:59.418Z</time>
      </trkpt>
      <trkpt lat="46.32337" lon="15.58496">
        <ele>321.275123</ele>
        <time>2022-08-06T09:32:01.862Z</time>
      </trkpt>
      <trkpt lat="46.3237" lon="15.58535">
        <ele>321.565608</ele>
        <time>2022-08-06T09:32:15.713Z</time>
      </trkpt>
      <trkpt lat="46.32389" lon="15.58548">
        <ele>321.716536</ele>
        <time>2022-08-06T09:32:21.277Z</time>
      </trkpt>
      <trkpt lat="46.32444" lon="15.58547">
        <ele>321.664928</ele>
        <time>2022-08-06T09:32:34.550Z</time>
      </trkpt>
      <trkpt lat="46.32457" lon="15.58553">
        <ele>321.638893</ele>
        <time>2022-08-06T09:32:37.939Z</time>
      </trkpt>
      <trkpt lat="46.3249" lon="15.58586">
        <ele>321.564866</ele>
        <time>2022-08-06T09:32:47.980Z</time>
      </trkpt>
      <trkpt lat="46.32539" lon="15.58653">
        <ele>321.439448</ele>
        <time>2022-08-06T09:33:05.764Z</time>
      </trkpt>
      <trkpt lat="46.32552" lon="15.58657">
        <ele>321.408682</ele>
        <time>2022-08-06T09:33:09.573Z</time>
      </trkpt>
      <trkpt lat="46.32621" lon="15.5865">
        <ele>321.155771</ele>
        <time>2022-08-06T09:33:27.388Z</time>
      </trkpt>
      <trkpt lat="46.32712" lon="15.58628">
        <ele>320.814048</ele>
        <time>2022-08-06T09:33:50.522Z</time>
      </trkpt>
      <trkpt lat="46.32764" lon="15.58594">
        <ele>320.418626</ele>
        <time>2022-08-06T09:34:03.983Z</time>
      </trkpt>
      <trkpt lat="46.32807" lon="15.58537">
        <ele>319.955069</ele>
        <time>2022-08-06T09:34:17.407Z</time>
      </trkpt>
      <trkpt lat="46.32867" lon="15.58512">
        <ele>319.449052</ele>
        <time>2022-08-06T09:34:31.763Z</time>
      </trkpt>
      <trkpt lat="46.32923" lon="15.58506">
        <ele>319.363174</ele>
        <time>2022-08-06T09:34:46.357Z</time>
      </trkpt>
      <trkpt lat="46.33023" lon="15.58535">
        <ele>319.483354</ele>
        <time>2022-08-06T09:35:15.753Z</time>
      </trkpt>
      <trkpt lat="46.33048" lon="15.58524">
        <ele>319.514566</ele>
        <time>2022-08-06T09:35:23.392Z</time>
      </trkpt>
      <trkpt lat="46.33102" lon="15.58498">
        <ele>319.088332</ele>
        <time>2022-08-06T09:35:38.553Z</time>
      </trkpt>
      <trkpt lat="46.33199" lon="15.58479">
        <ele>318.122986</ele>
        <time>2022-08-06T09:36:00.747Z</time>
      </trkpt>
      <trkpt lat="46.33272" lon="15.58426">
        <ele>317.803906</ele>
        <time>2022-08-06T09:36:18.011Z</time>
      </trkpt>
      <trkpt lat="46.33361" lon="15.58434">
        <ele>317.92103</ele>
        <time>2022-08-06T09:36:40.011Z</time>
      </trkpt>
      <trkpt lat="46.33429" lon="15.58475">
        <ele>319.288103</ele>
        <time>2022-08-06T09:37:08.353Z</time>
      </trkpt>
      <trkpt lat="46.33519" lon="15.58479">
        <ele>323.611814</ele>
        <time>2022-08-06T09:37:54.518Z</time>
      </trkpt>
      <trkpt lat="46.33538" lon="15.58485">
        <ele>324.55106</ele>
        <time>2022-08-06T09:38:07.297Z</time>
      </trkpt>
      <trkpt lat="46.33558" lon="15.58499">
        <ele>325.60718</ele>
        <time>2022-08-06T09:38:21.748Z</time>
      </trkpt>
      <trkpt lat="46.3363" lon="15.58593">
        <ele>329.090939</ele>
        <time>2022-08-06T09:39:06.876Z</time>
      </trkpt>
      <trkpt lat="46.33635" lon="15.58606">
        <ele>329.435789</ele>
        <time>2022-08-06T09:39:14.100Z</time>
      </trkpt>
      <trkpt lat="46.33636" lon="15.58762">
        <ele>332.414971</ele>
        <time>2022-08-06T09:39:52.396Z</time>
      </trkpt>
      <trkpt lat="46.33645" lon="15.58806">
        <ele>332.263908</ele>
        <time>2022-08-06T09:40:00.757Z</time>
      </trkpt>
      <trkpt lat="46.33693" lon="15.58848">
        <ele>331.991038</ele>
        <time>2022-08-06T09:40:13.744Z</time>
      </trkpt>
      <trkpt lat="46.33695" lon="15.5885">
        <ele>331.976914</ele>
        <time>2022-08-06T09:40:14.993Z</time>
      </trkpt>
      <trkpt lat="46.33734" lon="15.58901">
        <ele>331.727553</ele>
        <time>2022-08-06T09:40:26.474Z</time>
      </trkpt>
      <trkpt lat="46.3382" lon="15.58971">
        <ele>329.63688</ele>
        <time>2022-08-06T09:40:49.095Z</time>
      </trkpt>
      <trkpt lat="46.33885" lon="15.58983">
        <ele>327.945018</ele>
        <time>2022-08-06T09:41:01.914Z</time>
      </trkpt>
      <trkpt lat="46.33961" lon="15.59011">
        <ele>324.920345</ele>
        <time>2022-08-06T09:41:16.536Z</time>
      </trkpt>
      <trkpt lat="46.34082" lon="15.5909">
        <ele>318.125609</ele>
        <time>2022-08-06T09:41:40.279Z</time>
      </trkpt>
      <trkpt lat="46.34177" lon="15.59141">
        <ele>312.783215</ele>
        <time>2022-08-06T09:41:58.424Z</time>
      </trkpt>
      <trkpt lat="46.34288" lon="15.59226">
        <ele>306.46312</ele>
        <time>2022-08-06T09:42:21.039Z</time>
      </trkpt>
      <trkpt lat="46.34299" lon="15.59218">
        <ele>305.893832</ele>
        <time>2022-08-06T09:42:23.171Z</time>
      </trkpt>
      <trkpt lat="46.34305" lon="15.592">
        <ele>305.287058</ele>
        <time>2022-08-06T09:42:25.994Z</time>
      </trkpt>
      <trkpt lat="46.34301" lon="15.59169">
        <ele>304.313569</ele>
        <time>2022-08-06T09:42:29.918Z</time>
      </trkpt>
      <trkpt lat="46.34268" lon="15.59114">
        <ele>302.030632</ele>
        <time>2022-08-06T09:42:39.700Z</time>
      </trkpt>
      <trkpt lat="46.34267" lon="15.59093">
        <ele>301.383503</ele>
        <time>2022-08-06T09:42:42.351Z</time>
      </trkpt>
      <trkpt lat="46.34281" lon="15.59074">
        <ele>300.54798</ele>
        <time>2022-08-06T09:42:45.758Z</time>
      </trkpt>
      <trkpt lat="46.34296" lon="15.59077">
        <ele>299.83531</ele>
        <time>2022-08-06T09:42:48.680Z</time>
      </trkpt>
      <trkpt lat="46.3432" lon="15.59117">
        <ele>298.182788</ele>
        <time>2022-08-06T09:42:55.380Z</time>
      </trkpt>
      <trkpt lat="46.3433" lon="15.59123">
        <ele>297.659323</ele>
        <time>2022-08-06T09:42:57.711Z</time>
      </trkpt>
      <trkpt lat="46.34344" lon="15.59124">
        <ele>297.010367</ele>
        <time>2022-08-06T09:43:00.622Z</time>
      </trkpt>
      <trkpt lat="46.34376" lon="15.59112">
        <ele>295.510797</ele>
        <time>2022-08-06T09:43:06.789Z</time>
      </trkpt>
      <trkpt lat="46.34441" lon="15.5914">
        <ele>292.40801</ele>
        <time>2022-08-06T09:43:18.792Z</time>
      </trkpt>
      <trkpt lat="46.34492" lon="15.59136">
        <ele>289.497731</ele>
        <time>2022-08-06T09:43:27.869Z</time>
      </trkpt>
      <trkpt lat="46.34527" lon="15.59157">
        <ele>287.183515</ele>
        <time>2022-08-06T09:43:34.682Z</time>
      </trkpt>
      <trkpt lat="46.34581" lon="15.59174">
        <ele>283.908635</ele>
        <time>2022-08-06T09:43:44.266Z</time>
      </trkpt>
      <trkpt lat="46.34656" lon="15.59233">
        <ele>279.268582</ele>
        <time>2022-08-06T09:43:59.133Z</time>
      </trkpt>
      <trkpt lat="46.34787" lon="15.59318">
        <ele>272.366002</ele>
        <time>2022-08-06T09:44:25.680Z</time>
      </trkpt>
      <trkpt lat="46.34873" lon="15.59351">
        <ele>269.522159</ele>
        <time>2022-08-06T09:44:42.521Z</time>
      </trkpt>
      <trkpt lat="46.34948" lon="15.59389">
        <ele>266.975756</ele>
        <time>2022-08-06T09:44:58.656Z</time>
      </trkpt>
      <trkpt lat="46.34969" lon="15.59391">
        <ele>266.524668</ele>
        <time>2022-08-06T09:45:03.045Z</time>
      </trkpt>
      <trkpt lat="46.35024" lon="15.59369">
        <ele>265.712572</ele>
        <time>2022-08-06T09:45:15.417Z</time>
      </trkpt>
      <trkpt lat="46.35038" lon="15.59362">
        <ele>265.503921</ele>
        <time>2022-08-06T09:45:18.684Z</time>
      </trkpt>
      <trkpt lat="46.35108" lon="15.59338">
        <ele>264.480344</ele>
        <time>2022-08-06T09:45:35.182Z</time>
      </trkpt>
      <trkpt lat="46.35237" lon="15.59381">
        <ele>262.888554</ele>
        <time>2022-08-06T09:46:05.874Z</time>
      </trkpt>
      <trkpt lat="46.35257" lon="15.59383">
        <ele>262.654495</ele>
        <time>2022-08-06T09:46:10.480Z</time>
      </trkpt>
      <trkpt lat="46.35358" lon="15.5937">
        <ele>261.254583</ele>
        <time>2022-08-06T09:46:33.106Z</time>
      </trkpt>
      <trkpt lat="46.35403" lon="15.59379">
        <ele>260.514424</ele>
        <time>2022-08-06T09:46:42.884Z</time>
      </trkpt>
      <trkpt lat="46.35427" lon="15.59398">
        <ele>260.063593</ele>
        <time>2022-08-06T09:46:48.865Z</time>
      </trkpt>
      <trkpt lat="46.35579" lon="15.59638">
        <ele>256.573517</ele>
        <time>2022-08-06T09:47:36.756Z</time>
      </trkpt>
      <trkpt lat="46.35903" lon="15.59416">
        <ele>257.015654</ele>
        <time>2022-08-06T09:49:17.020Z</time>
      </trkpt>
      <trkpt lat="46.36199" lon="15.59215">
        <ele>258.490166</ele>
        <time>2022-08-06T09:50:54.871Z</time>
      </trkpt>
      <trkpt lat="46.36262" lon="15.59197">
        <ele>258.348192</ele>
        <time>2022-08-06T09:51:10.029Z</time>
      </trkpt>
      <trkpt lat="46.36269" lon="15.59196">
        <ele>258.247408</ele>
        <time>2022-08-06T09:51:11.734Z</time>
      </trkpt>
      <trkpt lat="46.36273" lon="15.59196">
        <ele>258.193912</ele>
        <time>2022-08-06T09:51:12.628Z</time>
      </trkpt>
      <trkpt lat="46.36288" lon="15.59195">
        <ele>257.994226</ele>
        <time>2022-08-06T09:51:15.939Z</time>
      </trkpt>
      <trkpt lat="46.36298" lon="15.59206">
        <ele>257.825952</ele>
        <time>2022-08-06T09:51:18.704Z</time>
      </trkpt>
      <trkpt lat="46.36306" lon="15.59247">
        <ele>257.426799</ele>
        <time>2022-08-06T09:51:25.135Z</time>
      </trkpt>
      <trkpt lat="46.36331" lon="15.59597">
        <ele>254.145461</ele>
        <time>2022-08-06T09:52:17.962Z</time>
      </trkpt>
      <trkpt lat="46.36345" lon="15.59771">
        <ele>253.54142</ele>
        <time>2022-08-06T09:52:48.645Z</time>
      </trkpt>
      <trkpt lat="46.3636" lon="15.598">
        <ele>253.492112</ele>
        <time>2022-08-06T09:52:55.197Z</time>
      </trkpt>
      <trkpt lat="46.36381" lon="15.59821">
        <ele>253.441052</ele>
        <time>2022-08-06T09:53:02.264Z</time>
      </trkpt>
      <trkpt lat="46.36411" lon="15.59835">
        <ele>253.377147</ele>
        <time>2022-08-06T09:53:10.924Z</time>
      </trkpt>
      <trkpt lat="46.36451" lon="15.59836">
        <ele>253.318332</ele>
        <time>2022-08-06T09:53:21.549Z</time>
      </trkpt>
      <trkpt lat="46.36713" lon="15.59819">
        <ele>253.046525</ele>
        <time>2022-08-06T09:54:29.131Z</time>
      </trkpt>
      <trkpt lat="46.36763" lon="15.59808">
        <ele>253.015215</ele>
        <time>2022-08-06T09:54:42.728Z</time>
      </trkpt>
      <trkpt lat="46.3685" lon="15.5977">
        <ele>253.361846</ele>
        <time>2022-08-06T09:55:08.573Z</time>
      </trkpt>
      <trkpt lat="46.3717" lon="15.59554">
        <ele>255.024325</ele>
        <time>2022-08-06T09:56:52.998Z</time>
      </trkpt>
      <trkpt lat="46.37316" lon="15.59437">
        <ele>255.292294</ele>
        <time>2022-08-06T09:57:35.641Z</time>
      </trkpt>
      <trkpt lat="46.3732" lon="15.59433">
        <ele>255.306336</ele>
        <time>2022-08-06T09:57:36.876Z</time>
      </trkpt>
      <trkpt lat="46.37335" lon="15.59421">
        <ele>255.356526</ele>
        <time>2022-08-06T09:57:41.294Z</time>
      </trkpt>
      <trkpt lat="46.37345" lon="15.59413">
        <ele>255.389464</ele>
        <time>2022-08-06T09:57:44.168Z</time>
      </trkpt>
      <trkpt lat="46.38263" lon="15.58672">
        <ele>258.397393</ele>
        <time>2022-08-06T10:02:42.440Z</time>
      </trkpt>
      <trkpt lat="46.38265" lon="15.58697">
        <ele>258.406659</ele>
        <time>2022-08-06T10:02:46.931Z</time>
      </trkpt>
      <trkpt lat="46.3825" lon="15.58773">
        <ele>258.435157</ele>
        <time>2022-08-06T10:03:01.109Z</time>
      </trkpt>
      <trkpt lat="46.3825" lon="15.58801">
        <ele>258.445554</ele>
        <time>2022-08-06T10:03:06.365Z</time>
      </trkpt>
      <trkpt lat="46.3829" lon="15.58848">
        <ele>258.534177</ele>
        <time>2022-08-06T10:03:19.901Z</time>
      </trkpt>
      <trkpt lat="46.38319" lon="15.58883">
        <ele>258.65113</ele>
        <time>2022-08-06T10:03:29.887Z</time>
      </trkpt>
      <trkpt lat="46.38332" lon="15.58902">
        <ele>258.707807</ele>
        <time>2022-08-06T10:03:34.920Z</time>
      </trkpt>
      <trkpt lat="46.38366" lon="15.58956">
        <ele>258.866558</ele>
        <time>2022-08-06T10:03:48.871Z</time>
      </trkpt>
      <trkpt lat="46.38462" lon="15.59133">
        <ele>260.873501</ele>
        <time>2022-08-06T10:04:37.060Z</time>
      </trkpt>
      <trkpt lat="46.38505" lon="15.59311">
        <ele>265.255356</ele>
        <time>2022-08-06T10:05:29.426Z</time>
      </trkpt>
      <trkpt lat="46.38544" lon="15.59433">
        <ele>270.343757</ele>
        <time>2022-08-06T10:06:21.841Z</time>
      </trkpt>
      <trkpt lat="46.38555" lon="15.59487">
        <ele>272.698862</ele>
        <time>2022-08-06T10:06:46.973Z</time>
      </trkpt>
      <trkpt lat="46.38557" lon="15.59527">
        <ele>274.911655</ele>
        <time>2022-08-06T10:07:05.690Z</time>
      </trkpt>
      <trkpt lat="46.38544" lon="15.59592">
        <ele>278.613729</ele>
        <time>2022-08-06T10:07:36.071Z</time>
      </trkpt>
      <trkpt lat="46.3854" lon="15.59671">
        <ele>283.033964</ele>
        <time>2022-08-06T10:08:13.093Z</time>
      </trkpt>
      <trkpt lat="46.38548" lon="15.59747">
        <ele>287.015188</ele>
        <time>2022-08-06T10:08:48.298Z</time>
      </trkpt>
      <trkpt lat="46.38554" lon="15.59755">
        <ele>287.463935</ele>
        <time>2022-08-06T10:08:53.312Z</time>
      </trkpt>
      <trkpt lat="46.3856" lon="15.59752">
        <ele>287.824996</ele>
        <time>2022-08-06T10:08:57.413Z</time>
      </trkpt>
      <trkpt lat="46.38582" lon="15.59726">
        <ele>289.401907</ele>
        <time>2022-08-06T10:09:14.188Z</time>
      </trkpt>
      <trkpt lat="46.38696" lon="15.59695">
        <ele>295.900719</ele>
        <time>2022-08-06T10:10:13.376Z</time>
      </trkpt>
      <trkpt lat="46.388" lon="15.5966">
        <ele>298.697263</ele>
        <time>2022-08-06T10:10:58.255Z</time>
      </trkpt>
      <trkpt lat="46.38813" lon="15.59665">
        <ele>298.986026</ele>
        <time>2022-08-06T10:11:02.707Z</time>
      </trkpt>
      <trkpt lat="46.38844" lon="15.59708">
        <ele>299.963795</ele>
        <time>2022-08-06T10:11:16.551Z</time>
      </trkpt>
      <trkpt lat="46.38926" lon="15.5974">
        <ele>300.643307</ele>
        <time>2022-08-06T10:11:40.973Z</time>
      </trkpt>
      <trkpt lat="46.38937" lon="15.59772">
        <ele>300.664143</ele>
        <time>2022-08-06T10:11:47.585Z</time>
      </trkpt>
      <trkpt lat="46.38912" lon="15.59823">
        <ele>300.700834</ele>
        <time>2022-08-06T10:11:58.721Z</time>
      </trkpt>
      <trkpt lat="46.38905" lon="15.59847">
        <ele>300.716433</ele>
        <time>2022-08-06T10:12:03.856Z</time>
      </trkpt>
      <trkpt lat="46.38906" lon="15.59866">
        <ele>300.727456</ele>
        <time>2022-08-06T10:12:07.156Z</time>
      </trkpt>
      <trkpt lat="46.38919" lon="15.59898">
        <ele>300.755932</ele>
        <time>2022-08-06T10:12:13.695Z</time>
      </trkpt>
      <trkpt lat="46.38931" lon="15.59968">
        <ele>300.977622</ele>
        <time>2022-08-06T10:12:26.169Z</time>
      </trkpt>
      <trkpt lat="46.38933" lon="15.60021">
        <ele>301.136743</ele>
        <time>2022-08-06T10:12:35.787Z</time>
      </trkpt>
      <trkpt lat="46.38929" lon="15.60053">
        <ele>301.237461</ele>
        <time>2022-08-06T10:12:42.811Z</time>
      </trkpt>
      <trkpt lat="46.3892" lon="15.60112">
        <ele>301.421768</ele>
        <time>2022-08-06T10:12:55.132Z</time>
      </trkpt>
      <trkpt lat="46.38918" lon="15.60119">
        <ele>301.443917</ele>
        <time>2022-08-06T10:12:56.545Z</time>
      </trkpt>
      <trkpt lat="46.38902" lon="15.60198">
        <ele>302.13558</ele>
        <time>2022-08-06T10:13:15.558Z</time>
      </trkpt>
      <trkpt lat="46.38844" lon="15.60244">
        <ele>303.255224</ele>
        <time>2022-08-06T10:13:41.660Z</time>
      </trkpt>
      <trkpt lat="46.38828" lon="15.60263">
        <ele>303.604472</ele>
        <time>2022-08-06T10:13:48.687Z</time>
      </trkpt>
      <trkpt lat="46.38804" lon="15.60298">
        <ele>304.174204</ele>
        <time>2022-08-06T10:14:00.757Z</time>
      </trkpt>
      <trkpt lat="46.38775" lon="15.60357">
        <ele>304.227736</ele>
        <time>2022-08-06T10:14:18.566Z</time>
      </trkpt>
      <trkpt lat="46.38824" lon="15.60589">
        <ele>301.216577</ele>
        <time>2022-08-06T10:14:54.785Z</time>
      </trkpt>
      <trkpt lat="46.38846" lon="15.60615">
        <ele>299.54585</ele>
        <time>2022-08-06T10:14:59.598Z</time>
      </trkpt>
      <trkpt lat="46.38884" lon="15.60741">
        <ele>293.809011</ele>
        <time>2022-08-06T10:15:15.967Z</time>
      </trkpt>
      <trkpt lat="46.38892" lon="15.608">
        <ele>291.338254</ele>
        <time>2022-08-06T10:15:23.007Z</time>
      </trkpt>
      <trkpt lat="46.38885" lon="15.60915">
        <ele>287.165179</ele>
        <time>2022-08-06T10:15:36.870Z</time>
      </trkpt>
      <trkpt lat="46.38891" lon="15.61005">
        <ele>283.908331</ele>
        <time>2022-08-06T10:15:48.238Z</time>
      </trkpt>
      <trkpt lat="46.38891" lon="15.6111">
        <ele>280.922032</ele>
        <time>2022-08-06T10:16:02.336Z</time>
      </trkpt>
      <trkpt lat="46.38886" lon="15.61149">
        <ele>280.171334</ele>
        <time>2022-08-06T10:16:07.654Z</time>
      </trkpt>
      <trkpt lat="46.38858" lon="15.61247">
        <ele>278.140818</ele>
        <time>2022-08-06T10:16:22.355Z</time>
      </trkpt>
      <trkpt lat="46.38851" lon="15.61304">
        <ele>277.012854</ele>
        <time>2022-08-06T10:16:30.618Z</time>
      </trkpt>
      <trkpt lat="46.38846" lon="15.61433">
        <ele>275.556488</ele>
        <time>2022-08-06T10:16:49.691Z</time>
      </trkpt>
      <trkpt lat="46.38846" lon="15.6145">
        <ele>275.377961</ele>
        <time>2022-08-06T10:16:52.322Z</time>
      </trkpt>
      <trkpt lat="46.38843" lon="15.61472">
        <ele>275.133598</ele>
        <time>2022-08-06T10:16:56.079Z</time>
      </trkpt>
      <trkpt lat="46.38819" lon="15.61527">
        <ele>274.444846</ele>
        <time>2022-08-06T10:17:06.453Z</time>
      </trkpt>
      <trkpt lat="46.38801" lon="15.61571">
        <ele>273.783476</ele>
        <time>2022-08-06T10:17:14.324Z</time>
      </trkpt>
      <trkpt lat="46.38789" lon="15.61687">
        <ele>271.454188</ele>
        <time>2022-08-06T10:17:31.418Z</time>
      </trkpt>
      <trkpt lat="46.38758" lon="15.61827">
        <ele>268.31973</ele>
        <time>2022-08-06T10:17:50.820Z</time>
      </trkpt>
      <trkpt lat="46.3876" lon="15.61914">
        <ele>265.491502</ele>
        <time>2022-08-06T10:18:01.583Z</time>
      </trkpt>
      <trkpt lat="46.38742" lon="15.61988">
        <ele>262.944693</ele>
        <time>2022-08-06T10:18:11.366Z</time>
      </trkpt>
      <trkpt lat="46.38735" lon="15.62039">
        <ele>261.269604</ele>
        <time>2022-08-06T10:18:17.817Z</time>
      </trkpt>
      <trkpt lat="46.38735" lon="15.62174">
        <ele>258.476244</ele>
        <time>2022-08-06T10:18:35.526Z</time>
      </trkpt>
      <trkpt lat="46.38745" lon="15.62193">
        <ele>258.063905</ele>
        <time>2022-08-06T10:18:38.737Z</time>
      </trkpt>
      <trkpt lat="46.38773" lon="15.62264">
        <ele>256.60761</ele>
        <time>2022-08-06T10:18:50.685Z</time>
      </trkpt>
      <trkpt lat="46.38812" lon="15.62392">
        <ele>255.694615</ele>
        <time>2022-08-06T10:19:14.422Z</time>
      </trkpt>
      <trkpt lat="46.38829" lon="15.62491">
        <ele>255.605157</ele>
        <time>2022-08-06T10:19:33.408Z</time>
      </trkpt>
      <trkpt lat="46.38831" lon="15.62593">
        <ele>255.463387</ele>
        <time>2022-08-06T10:19:53.676Z</time>
      </trkpt>
      <trkpt lat="46.38822" lon="15.62733">
        <ele>255.137619</ele>
        <time>2022-08-06T10:20:19.329Z</time>
      </trkpt>
      <trkpt lat="46.38809" lon="15.62813">
        <ele>254.947474</ele>
        <time>2022-08-06T10:20:32.801Z</time>
      </trkpt>
      <trkpt lat="46.38774" lon="15.62911">
        <ele>253.734763</ele>
        <time>2022-08-06T10:20:49.283Z</time>
      </trkpt>
      <trkpt lat="46.38738" lon="15.62978">
        <ele>252.795432</ele>
        <time>2022-08-06T10:21:01.687Z</time>
      </trkpt>
      <trkpt lat="46.38733" lon="15.63014">
        <ele>252.390571</ele>
        <time>2022-08-06T10:21:06.965Z</time>
      </trkpt>
      <trkpt lat="46.38804" lon="15.63052">
        <ele>251.624777</ele>
        <time>2022-08-06T10:21:23.844Z</time>
      </trkpt>
      <trkpt lat="46.38826" lon="15.63044">
        <ele>251.448207</ele>
        <time>2022-08-06T10:21:29.117Z</time>
      </trkpt>
      <trkpt lat="46.389" lon="15.63003">
        <ele>250.831307</ele>
        <time>2022-08-06T10:21:48.189Z</time>
      </trkpt>
      <trkpt lat="46.38956" lon="15.62962">
        <ele>250.788584</ele>
        <time>2022-08-06T10:22:05.996Z</time>
      </trkpt>
      <trkpt lat="46.38998" lon="15.62957">
        <ele>250.934905</ele>
        <time>2022-08-06T10:22:18.808Z</time>
      </trkpt>
      <trkpt lat="46.39061" lon="15.62953">
        <ele>251.157094</ele>
        <time>2022-08-06T10:22:36.864Z</time>
      </trkpt>
      <trkpt lat="46.39122" lon="15.6295">
        <ele>251.308886</ele>
        <time>2022-08-06T10:22:53.909Z</time>
      </trkpt>
      <trkpt lat="46.39158" lon="15.62959">
        <ele>251.35129</ele>
        <time>2022-08-06T10:23:03.806Z</time>
      </trkpt>
      <trkpt lat="46.39204" lon="15.62972">
        <ele>251.406248</ele>
        <time>2022-08-06T10:23:16.362Z</time>
      </trkpt>
      <trkpt lat="46.39263" lon="15.62991">
        <ele>251.477962</ele>
        <time>2022-08-06T10:23:32.763Z</time>
      </trkpt>
      <trkpt lat="46.39338" lon="15.63002">
        <ele>252.007849</ele>
        <time>2022-08-06T10:23:53.029Z</time>
      </trkpt>
      <trkpt lat="46.39388" lon="15.63003">
        <ele>252.405134</ele>
        <time>2022-08-06T10:24:08.594Z</time>
      </trkpt>
      <trkpt lat="46.39426" lon="15.62983">
        <ele>252.732621</ele>
        <time>2022-08-06T10:24:22.753Z</time>
      </trkpt>
      <trkpt lat="46.39475" lon="15.62968">
        <ele>253.104145</ele>
        <time>2022-08-06T10:24:39.392Z</time>
      </trkpt>
      <trkpt lat="46.395" lon="15.62968">
        <ele>253.28327</ele>
        <time>2022-08-06T10:24:47.320Z</time>
      </trkpt>
      <trkpt lat="46.39571" lon="15.63007">
        <ele>253.825733</ele>
        <time>2022-08-06T10:25:11.040Z</time>
      </trkpt>
      <trkpt lat="46.39577" lon="15.63068">
        <ele>254.128821</ele>
        <time>2022-08-06T10:25:22.969Z</time>
      </trkpt>
      <trkpt lat="46.39597" lon="15.63151">
        <ele>253.883386</ele>
        <time>2022-08-06T10:25:38.160Z</time>
      </trkpt>
      <trkpt lat="46.39635" lon="15.63257">
        <ele>253.36117</ele>
        <time>2022-08-06T10:25:56.723Z</time>
      </trkpt>
      <trkpt lat="46.3966" lon="15.63302">
        <ele>253.110221</ele>
        <time>2022-08-06T10:26:06.076Z</time>
      </trkpt>
      <trkpt lat="46.39691" lon="15.63341">
        <ele>253.29525</ele>
        <time>2022-08-06T10:26:16.840Z</time>
      </trkpt>
      <trkpt lat="46.39749" lon="15.63398">
        <ele>253.781565</ele>
        <time>2022-08-06T10:26:38.063Z</time>
      </trkpt>
      <trkpt lat="46.39762" lon="15.63387">
        <ele>253.884922</ele>
        <time>2022-08-06T10:26:43.192Z</time>
      </trkpt>
      <trkpt lat="46.398" lon="15.63378">
        <ele>254.150082</ele>
        <time>2022-08-06T10:26:56.097Z</time>
      </trkpt>
      <trkpt lat="46.39832" lon="15.63367">
        <ele>254.426383</ele>
        <time>2022-08-06T10:27:07.531Z</time>
      </trkpt>
      <trkpt lat="46.39902" lon="15.63364">
        <ele>255.249509</ele>
        <time>2022-08-06T10:27:32.304Z</time>
      </trkpt>
      <trkpt lat="46.39984" lon="15.63379">
        <ele>256.21005</ele>
        <time>2022-08-06T10:28:00.097Z</time>
      </trkpt>
      <trkpt lat="46.40054" lon="15.63381">
        <ele>256.522261</ele>
        <time>2022-08-06T10:28:20.473Z</time>
      </trkpt>
      <trkpt lat="46.40106" lon="15.63394">
        <ele>256.637441</ele>
        <time>2022-08-06T10:28:35.274Z</time>
      </trkpt>
      <trkpt lat="46.40222" lon="15.63439">
        <ele>256.806392</ele>
        <time>2022-08-06T10:29:08.742Z</time>
      </trkpt>
      <trkpt lat="46.40377" lon="15.63556">
        <ele>256.98553</ele>
        <time>2022-08-06T10:29:57.619Z</time>
      </trkpt>
      <trkpt lat="46.40476" lon="15.63634">
        <ele>257.405564</ele>
        <time>2022-08-06T10:30:31.191Z</time>
      </trkpt>
      <trkpt lat="46.40527" lon="15.6371">
        <ele>257.844327</ele>
        <time>2022-08-06T10:30:52.924Z</time>
      </trkpt>
      <trkpt lat="46.40552" lon="15.63727">
        <ele>258.038148</ele>
        <time>2022-08-06T10:31:01.116Z</time>
      </trkpt>
      <trkpt lat="46.40561" lon="15.63733">
        <ele>258.112327</ele>
        <time>2022-08-06T10:31:04.164Z</time>
      </trkpt>
      <trkpt lat="46.40561" lon="15.63741">
        <ele>258.147614</ele>
        <time>2022-08-06T10:31:05.669Z</time>
      </trkpt>
      <trkpt lat="46.40562" lon="15.63761">
        <ele>258.251344</ele>
        <time>2022-08-06T10:31:10.281Z</time>
      </trkpt>
      <trkpt lat="46.40563" lon="15.6377">
        <ele>258.292764</ele>
        <time>2022-08-06T10:31:12.138Z</time>
      </trkpt>
      <trkpt lat="46.40604" lon="15.63771">
        <ele>258.585182</ele>
        <time>2022-08-06T10:31:24.740Z</time>
      </trkpt>
      <trkpt lat="46.40661" lon="15.63794">
        <ele>258.961405</ele>
        <time>2022-08-06T10:31:42.937Z</time>
      </trkpt>
      <trkpt lat="46.40759" lon="15.63813">
        <ele>259.507764</ele>
        <time>2022-08-06T10:32:11.237Z</time>
      </trkpt>
      <trkpt lat="46.4082" lon="15.63834">
        <ele>259.868313</ele>
        <time>2022-08-06T10:32:29.604Z</time>
      </trkpt>
      <trkpt lat="46.40901" lon="15.63807">
        <ele>260.438728</ele>
        <time>2022-08-06T10:32:54.570Z</time>
      </trkpt>
      <trkpt lat="46.40953" lon="15.63806">
        <ele>260.79193</ele>
        <time>2022-08-06T10:33:10.125Z</time>
      </trkpt>
      <trkpt lat="46.4103" lon="15.63822">
        <ele>261.380484</ele>
        <time>2022-08-06T10:33:33.625Z</time>
      </trkpt>
      <trkpt lat="46.41052" lon="15.63821">
        <ele>261.553993</ele>
        <time>2022-08-06T10:33:40.402Z</time>
      </trkpt>
      <trkpt lat="46.41076" lon="15.6381">
        <ele>261.754853</ele>
        <time>2022-08-06T10:33:48.423Z</time>
      </trkpt>
      <trkpt lat="46.41152" lon="15.63751">
        <ele>262.448191</ele>
        <time>2022-08-06T10:34:15.201Z</time>
      </trkpt>
      <trkpt lat="46.41179" lon="15.63737">
        <ele>262.531088</ele>
        <time>2022-08-06T10:34:23.785Z</time>
      </trkpt>
      <trkpt lat="46.4122" lon="15.6374">
        <ele>262.643488</ele>
        <time>2022-08-06T10:34:35.402Z</time>
      </trkpt>
      <trkpt lat="46.41308" lon="15.63789">
        <ele>262.903306</ele>
        <time>2022-08-06T10:35:01.232Z</time>
      </trkpt>
      <trkpt lat="46.41314" lon="15.63832">
        <ele>262.904339</ele>
        <time>2022-08-06T10:35:09.409Z</time>
      </trkpt>
      <trkpt lat="46.41334" lon="15.63856">
        <ele>262.817041</ele>
        <time>2022-08-06T10:35:16.008Z</time>
      </trkpt>
      <trkpt lat="46.41377" lon="15.63923">
        <ele>262.6044</ele>
        <time>2022-08-06T10:35:31.671Z</time>
      </trkpt>
      <trkpt lat="46.41387" lon="15.63949">
        <ele>262.534197</ele>
        <time>2022-08-06T10:35:36.826Z</time>
      </trkpt>
      <trkpt lat="46.41391" lon="15.63992">
        <ele>262.432715</ele>
        <time>2022-08-06T10:35:44.025Z</time>
      </trkpt>
      <trkpt lat="46.41522" lon="15.64098">
        <ele>261.896618</ele>
        <time>2022-08-06T10:36:22.010Z</time>
      </trkpt>
      <trkpt lat="46.41556" lon="15.64164">
        <ele>261.691519</ele>
        <time>2022-08-06T10:36:36.297Z</time>
      </trkpt>
      <trkpt lat="46.41581" lon="15.64187">
        <ele>261.564693</ele>
        <time>2022-08-06T10:36:43.762Z</time>
      </trkpt>
      <trkpt lat="46.41646" lon="15.64209">
        <ele>261.282037</ele>
        <time>2022-08-06T10:37:00.312Z</time>
      </trkpt>
      <trkpt lat="46.41867" lon="15.64264">
        <ele>260.476686</ele>
        <time>2022-08-06T10:37:55.895Z</time>
      </trkpt>
      <trkpt lat="46.41925" lon="15.64288">
        <ele>260.363497</ele>
        <time>2022-08-06T10:38:12.129Z</time>
      </trkpt>
      <trkpt lat="46.41999" lon="15.64272">
        <ele>260.414752</ele>
        <time>2022-08-06T10:38:32.175Z</time>
      </trkpt>
      <trkpt lat="46.42019" lon="15.64314">
        <ele>260.438949</ele>
        <time>2022-08-06T10:38:42.813Z</time>
      </trkpt>
      <trkpt lat="46.42071" lon="15.64395">
        <ele>260.440896</ele>
        <time>2022-08-06T10:39:06.246Z</time>
      </trkpt>
      <trkpt lat="46.42088" lon="15.64434">
        <ele>260.404075</ele>
        <time>2022-08-06T10:39:15.660Z</time>
      </trkpt>
      <trkpt lat="46.42104" lon="15.64563">
        <ele>260.298113</ele>
        <time>2022-08-06T10:39:41.362Z</time>
      </trkpt>
      <trkpt lat="46.42097" lon="15.64663">
        <ele>260.241281</ele>
        <time>2022-08-06T10:40:01.127Z</time>
      </trkpt>
      <trkpt lat="46.42101" lon="15.64685">
        <ele>260.23248</ele>
        <time>2022-08-06T10:40:05.538Z</time>
      </trkpt>
      <trkpt lat="46.42293" lon="15.64604">
        <ele>260.179472</ele>
        <time>2022-08-06T10:41:35.109Z</time>
      </trkpt>
      <trkpt lat="46.42302" lon="15.64604">
        <ele>260.181498</ele>
        <time>2022-08-06T10:41:39.227Z</time>
      </trkpt>
      <trkpt lat="46.42316" lon="15.64629">
        <ele>260.186452</ele>
        <time>2022-08-06T10:41:45.912Z</time>
      </trkpt>
      <trkpt lat="46.42329" lon="15.6467">
        <ele>260.193344</ele>
        <time>2022-08-06T10:41:55.162Z</time>
      </trkpt>
      <trkpt lat="46.42432" lon="15.651">
        <ele>260.123612</ele>
        <time>2022-08-06T10:43:25.699Z</time>
      </trkpt>
      <trkpt lat="46.42435" lon="15.65135">
        <ele>260.191898</ele>
        <time>2022-08-06T10:43:33.717Z</time>
      </trkpt>
      <trkpt lat="46.42432" lon="15.65212">
        <ele>260.336535</ele>
        <time>2022-08-06T10:43:51.460Z</time>
      </trkpt>
      <trkpt lat="46.42398" lon="15.65451">
        <ele>260.979184</ele>
        <time>2022-08-06T10:44:47.846Z</time>
      </trkpt>
      <trkpt lat="46.42298" lon="15.66157">
        <ele>256.032297</ele>
        <time>2022-08-06T10:46:54.198Z</time>
      </trkpt>
      <trkpt lat="46.423" lon="15.66214">
        <ele>255.734682</ele>
        <time>2022-08-06T10:47:05.375Z</time>
      </trkpt>
      <trkpt lat="46.42307" lon="15.66241">
        <ele>255.583774</ele>
        <time>2022-08-06T10:47:11.219Z</time>
      </trkpt>
      <trkpt lat="46.42333" lon="15.66293">
        <ele>256.003573</ele>
        <time>2022-08-06T10:47:24.665Z</time>
      </trkpt>
      <trkpt lat="46.42361" lon="15.66325">
        <ele>256.448724</ele>
        <time>2022-08-06T10:47:36.247Z</time>
      </trkpt>
      <trkpt lat="46.424" lon="15.6634">
        <ele>256.944633</ele>
        <time>2022-08-06T10:47:50.801Z</time>
      </trkpt>
      <trkpt lat="46.42413" lon="15.66337">
        <ele>257.110332</ele>
        <time>2022-08-06T10:47:55.878Z</time>
      </trkpt>
      <trkpt lat="46.42426" lon="15.66326">
        <ele>257.295832</ele>
        <time>2022-08-06T10:48:01.403Z</time>
      </trkpt>
      <trkpt lat="46.42459" lon="15.66341">
        <ele>257.731399</ele>
        <time>2022-08-06T10:48:15.291Z</time>
      </trkpt>
      <trkpt lat="46.425" lon="15.66341">
        <ele>259.178924</ele>
        <time>2022-08-06T10:48:33.026Z</time>
      </trkpt>
      <trkpt lat="46.42546" lon="15.66338">
        <ele>260.864543</ele>
        <time>2022-08-06T10:48:54.992Z</time>
      </trkpt>
      <trkpt lat="46.42565" lon="15.66346">
        <ele>261.57875</ele>
        <time>2022-08-06T10:49:04.745Z</time>
      </trkpt>
      <trkpt lat="46.42577" lon="15.66361">
        <ele>262.190754</ele>
        <time>2022-08-06T10:49:13.381Z</time>
      </trkpt>
      <trkpt lat="46.426" lon="15.66417">
        <ele>263.831712</ele>
        <time>2022-08-06T10:49:35.909Z</time>
      </trkpt>
      <trkpt lat="46.42602" lon="15.66452">
        <ele>264.508394</ele>
        <time>2022-08-06T10:49:48.107Z</time>
      </trkpt>
      <trkpt lat="46.42636" lon="15.66549">
        <ele>265.472041</ele>
        <time>2022-08-06T10:50:23.785Z</time>
      </trkpt>
      <trkpt lat="46.42859" lon="15.67105">
        <ele>269.439772</ele>
        <time>2022-08-06T10:52:45.137Z</time>
      </trkpt>
      <trkpt lat="46.4287" lon="15.67161">
        <ele>269.218537</ele>
        <time>2022-08-06T10:52:55.996Z</time>
      </trkpt>
      <trkpt lat="46.42888" lon="15.67211">
        <ele>268.866065</ele>
        <time>2022-08-06T10:53:06.115Z</time>
      </trkpt>
      <trkpt lat="46.42884" lon="15.67235">
        <ele>268.713859</ele>
        <time>2022-08-06T10:53:10.410Z</time>
      </trkpt>
      <trkpt lat="46.42865" lon="15.67259">
        <ele>268.485112</ele>
        <time>2022-08-06T10:53:16.945Z</time>
      </trkpt>
      <trkpt lat="46.42771" lon="15.67331">
        <ele>267.64511</ele>
        <time>2022-08-06T10:53:44.181Z</time>
      </trkpt>
      <trkpt lat="46.42654" lon="15.67422">
        <ele>266.899479</ele>
        <time>2022-08-06T10:54:20.356Z</time>
      </trkpt>
      <trkpt lat="46.42642" lon="15.67437">
        <ele>266.855788</ele>
        <time>2022-08-06T10:54:25.126Z</time>
      </trkpt>
      <trkpt lat="46.42654" lon="15.67462">
        <ele>266.968833</ele>
        <time>2022-08-06T10:54:32.092Z</time>
      </trkpt>
      <trkpt lat="46.42704" lon="15.67571">
        <ele>267.447172</ele>
        <time>2022-08-06T10:55:01.871Z</time>
      </trkpt>
      <trkpt lat="46.42725" lon="15.67633">
        <ele>267.699455</ele>
        <time>2022-08-06T10:55:18.045Z</time>
      </trkpt>
      <trkpt lat="46.42764" lon="15.67787">
        <ele>267.334992</ele>
        <time>2022-08-06T10:55:53.490Z</time>
      </trkpt>
      <trkpt lat="46.42839" lon="15.67985">
        <ele>264.828146</ele>
        <time>2022-08-06T10:56:32.093Z</time>
      </trkpt>
      <trkpt lat="46.42872" lon="15.68126">
        <ele>261.820033</ele>
        <time>2022-08-06T10:56:54.127Z</time>
      </trkpt>
      <trkpt lat="46.42934" lon="15.6829">
        <ele>257.476796</ele>
        <time>2022-08-06T10:57:21.551Z</time>
      </trkpt>
      <trkpt lat="46.42971" lon="15.68363">
        <ele>255.541887</ele>
        <time>2022-08-06T10:57:35.619Z</time>
      </trkpt>
      <trkpt lat="46.43125" lon="15.68663">
        <ele>254.025643</ele>
        <time>2022-08-06T10:59:24.809Z</time>
      </trkpt>
      <trkpt lat="46.43199" lon="15.68585">
        <ele>253.951851</ele>
        <time>2022-08-06T10:59:50.286Z</time>
      </trkpt>
      <trkpt lat="46.43256" lon="15.68506">
        <ele>254.36983</ele>
        <time>2022-08-06T11:00:12.584Z</time>
      </trkpt>
      <trkpt lat="46.43302" lon="15.68431">
        <ele>254.75909</ele>
        <time>2022-08-06T11:00:32.217Z</time>
      </trkpt>
      <trkpt lat="46.43347" lon="15.68391">
        <ele>255.240672</ele>
        <time>2022-08-06T11:00:49.182Z</time>
      </trkpt>
      <trkpt lat="46.43421" lon="15.6831">
        <ele>256.749094</ele>
        <time>2022-08-06T11:01:21.495Z</time>
      </trkpt>
      <trkpt lat="46.43454" lon="15.68275">
        <ele>257.402513</ele>
        <time>2022-08-06T11:01:35.882Z</time>
      </trkpt>
      <trkpt lat="46.43489" lon="15.68248">
        <ele>258.068701</ele>
        <time>2022-08-06T11:01:50.429Z</time>
      </trkpt>
      <trkpt lat="46.4367" lon="15.68147">
        <ele>261.278324</ele>
        <time>2022-08-06T11:02:58.938Z</time>
      </trkpt>
      <trkpt lat="46.43706" lon="15.68137">
        <ele>261.583837</ele>
        <time>2022-08-06T11:03:10.474Z</time>
      </trkpt>
      <trkpt lat="46.43738" lon="15.68138">
        <ele>261.854798</ele>
        <time>2022-08-06T11:03:20.463Z</time>
      </trkpt>
      <trkpt lat="46.43741" lon="15.68144">
        <ele>261.896764</ele>
        <time>2022-08-06T11:03:21.925Z</time>
      </trkpt>
      <trkpt lat="46.43747" lon="15.68149">
        <ele>261.95573</ele>
        <time>2022-08-06T11:03:24.119Z</time>
      </trkpt>
      <trkpt lat="46.43753" lon="15.68149">
        <ele>262.003855</ele>
        <time>2022-08-06T11:03:25.965Z</time>
      </trkpt>
      <trkpt lat="46.43777" lon="15.68177">
        <ele>262.263759</ele>
        <time>2022-08-06T11:03:35.278Z</time>
      </trkpt>
      <trkpt lat="46.4378" lon="15.68199">
        <ele>262.397913</ele>
        <time>2022-08-06T11:03:39.875Z</time>
      </trkpt>
      <trkpt lat="46.43778" lon="15.68341">
        <ele>261.562354</ele>
        <time>2022-08-06T11:04:04.798Z</time>
      </trkpt>
      <trkpt lat="46.43788" lon="15.68386">
        <ele>261.120377</ele>
        <time>2022-08-06T11:04:11.529Z</time>
      </trkpt>
      <trkpt lat="46.43828" lon="15.68477">
        <ele>260.079171</ele>
        <time>2022-08-06T11:04:26.939Z</time>
      </trkpt>
      <trkpt lat="46.4386" lon="15.68568">
        <ele>258.635065</ele>
        <time>2022-08-06T11:04:41.487Z</time>
      </trkpt>
      <trkpt lat="46.43942" lon="15.6874">
        <ele>256.165125</ele>
        <time>2022-08-06T11:05:12.009Z</time>
      </trkpt>
      <trkpt lat="46.43945" lon="15.68752">
        <ele>256.101178</ele>
        <time>2022-08-06T11:05:14.086Z</time>
      </trkpt>
      <trkpt lat="46.4404" lon="15.69013">
        <ele>254.926588</ele>
        <time>2022-08-06T11:06:05.356Z</time>
      </trkpt>
      <trkpt lat="46.44082" lon="15.69139">
        <ele>254.722049</ele>
        <time>2022-08-06T11:06:29.921Z</time>
      </trkpt>
      <trkpt lat="46.44121" lon="15.69279">
        <ele>254.9032</ele>
        <time>2022-08-06T11:06:58.594Z</time>
      </trkpt>
      <trkpt lat="46.44145" lon="15.69372">
        <ele>255.064967</ele>
        <time>2022-08-06T11:07:17.723Z</time>
      </trkpt>
      <trkpt lat="46.4418" lon="15.69438">
        <ele>255.281504</ele>
        <time>2022-08-06T11:07:34.719Z</time>
      </trkpt>
      <trkpt lat="46.442" lon="15.69553">
        <ele>255.662727</ele>
        <time>2022-08-06T11:07:59.154Z</time>
      </trkpt>
      <trkpt lat="46.44194" lon="15.6957">
        <ele>255.724764</ele>
        <time>2022-08-06T11:08:02.900Z</time>
      </trkpt>
      <trkpt lat="46.44211" lon="15.69578">
        <ele>255.811078</ele>
        <time>2022-08-06T11:08:08.438Z</time>
      </trkpt>
      <trkpt lat="46.44244" lon="15.69566">
        <ele>255.945888</ele>
        <time>2022-08-06T11:08:18.220Z</time>
      </trkpt>
      <trkpt lat="46.44286" lon="15.6956">
        <ele>255.833427</ele>
        <time>2022-08-06T11:08:29.957Z</time>
      </trkpt>
      <trkpt lat="46.44315" lon="15.69564">
        <ele>255.757443</ele>
        <time>2022-08-06T11:08:38.061Z</time>
      </trkpt>
      <trkpt lat="46.44339" lon="15.69567">
        <ele>255.692389</ele>
        <time>2022-08-06T11:08:44.639Z</time>
      </trkpt>
      <trkpt lat="46.4445" lon="15.69559">
        <ele>255.319205</ele>
        <time>2022-08-06T11:09:13.002Z</time>
      </trkpt>
      <trkpt lat="46.44515" lon="15.69548">
        <ele>254.980791</ele>
        <time>2022-08-06T11:09:29.162Z</time>
      </trkpt>
      <trkpt lat="46.44565" lon="15.69539">
        <ele>254.722283</ele>
        <time>2022-08-06T11:09:42.000Z</time>
      </trkpt>
      <trkpt lat="46.44635" lon="15.69531">
        <ele>254.677927</ele>
        <time>2022-08-06T11:10:01.084Z</time>
      </trkpt>
      <trkpt lat="46.44784" lon="15.69499">
        <ele>255.23402</ele>
        <time>2022-08-06T11:10:46.534Z</time>
      </trkpt>
      <trkpt lat="46.4482" lon="15.69498">
        <ele>255.402805</ele>
        <time>2022-08-06T11:10:58.080Z</time>
      </trkpt>
      <trkpt lat="46.44824" lon="15.69503">
        <ele>255.424942</ele>
        <time>2022-08-06T11:11:00.358Z</time>
      </trkpt>
      <trkpt lat="46.44851" lon="15.69509">
        <ele>255.552626</ele>
        <time>2022-08-06T11:11:08.993Z</time>
      </trkpt>
      <trkpt lat="46.44891" lon="15.69499">
        <ele>255.736142</ele>
        <time>2022-08-06T11:11:21.183Z</time>
      </trkpt>
      <trkpt lat="46.45076" lon="15.69428">
        <ele>256.264356</ele>
        <time>2022-08-06T11:12:16.071Z</time>
      </trkpt>
      <trkpt lat="46.45231" lon="15.69361">
        <ele>256.767643</ele>
        <time>2022-08-06T11:13:02.037Z</time>
      </trkpt>
      <trkpt lat="46.45289" lon="15.69343">
        <ele>256.989664</ele>
        <time>2022-08-06T11:13:20.722Z</time>
      </trkpt>
      <trkpt lat="46.45403" lon="15.69301">
        <ele>257.708205</ele>
        <time>2022-08-06T11:13:58.161Z</time>
      </trkpt>
      <trkpt lat="46.45402" lon="15.69292">
        <ele>257.748757</ele>
        <time>2022-08-06T11:14:00.129Z</time>
      </trkpt>
      <trkpt lat="46.45399" lon="15.6926">
        <ele>257.889884</ele>
        <time>2022-08-06T11:14:06.766Z</time>
      </trkpt>
      <trkpt lat="46.45485" lon="15.69265">
        <ele>257.976906</ele>
        <time>2022-08-06T11:14:31.936Z</time>
      </trkpt>
      <trkpt lat="46.45533" lon="15.69244">
        <ele>257.733087</ele>
        <time>2022-08-06T11:14:44.389Z</time>
      </trkpt>
      <trkpt lat="46.45583" lon="15.69224">
        <ele>257.476855</ele>
        <time>2022-08-06T11:14:57.110Z</time>
      </trkpt>
      <trkpt lat="46.457" lon="15.69177">
        <ele>257.265847</ele>
        <time>2022-08-06T11:15:27.794Z</time>
      </trkpt>
      <trkpt lat="46.45719" lon="15.69169">
        <ele>257.259055</ele>
        <time>2022-08-06T11:15:33.104Z</time>
      </trkpt>
      <trkpt lat="46.46011" lon="15.69001">
        <ele>258.685746</ele>
        <time>2022-08-06T11:17:10.996Z</time>
      </trkpt>
      <trkpt lat="46.46019" lon="15.68997">
        <ele>258.715048</ele>
        <time>2022-08-06T11:17:13.748Z</time>
      </trkpt>
      <trkpt lat="46.46527" lon="15.68709">
        <ele>260.431126</ele>
        <time>2022-08-06T11:19:51.487Z</time>
      </trkpt>
      <trkpt lat="46.46647" lon="15.68648">
        <ele>260.925926</ele>
        <time>2022-08-06T11:20:30.377Z</time>
      </trkpt>
      <trkpt lat="46.46693" lon="15.6858">
        <ele>261.085689</ele>
        <time>2022-08-06T11:20:50.027Z</time>
      </trkpt>
      <trkpt lat="46.46697" lon="15.68574">
        <ele>261.100199</ele>
        <time>2022-08-06T11:20:51.784Z</time>
      </trkpt>
      <trkpt lat="46.46705" lon="15.68563">
        <ele>261.126671</ele>
        <time>2022-08-06T11:20:54.958Z</time>
      </trkpt>
      <trkpt lat="46.46709" lon="15.68556">
        <ele>261.14113</ele>
        <time>2022-08-06T11:20:56.693Z</time>
      </trkpt>
      <trkpt lat="46.46745" lon="15.68493">
        <ele>261.278391</ele>
        <time>2022-08-06T11:21:12.509Z</time>
      </trkpt>
      <trkpt lat="46.46765" lon="15.6844">
        <ele>261.240792</ele>
        <time>2022-08-06T11:21:23.675Z</time>
      </trkpt>
      <trkpt lat="46.46785" lon="15.68354">
        <ele>261.069908</ele>
        <time>2022-08-06T11:21:40.254Z</time>
      </trkpt>
      <trkpt lat="46.46806" lon="15.68294">
        <ele>260.942917</ele>
        <time>2022-08-06T11:21:52.446Z</time>
      </trkpt>
      <trkpt lat="46.46838" lon="15.68209">
        <ele>260.836708</ele>
        <time>2022-08-06T11:22:10.183Z</time>
      </trkpt>
      <trkpt lat="46.46914" lon="15.68044">
        <ele>260.921436</ele>
        <time>2022-08-06T11:22:48.439Z</time>
      </trkpt>
      <trkpt lat="46.46935" lon="15.67976">
        <ele>261.063282</ele>
        <time>2022-08-06T11:23:03.897Z</time>
      </trkpt>
      <trkpt lat="46.46937" lon="15.67956">
        <ele>261.120442</ele>
        <time>2022-08-06T11:23:08.197Z</time>
      </trkpt>
      <trkpt lat="46.46905" lon="15.67848">
        <ele>261.455847</ele>
        <time>2022-08-06T11:23:31.985Z</time>
      </trkpt>
      <trkpt lat="46.46853" lon="15.67769">
        <ele>261.817773</ele>
        <time>2022-08-06T11:23:54.343Z</time>
      </trkpt>
      <trkpt lat="46.46825" lon="15.67718">
        <ele>262.108733</ele>
        <time>2022-08-06T11:24:08.550Z</time>
      </trkpt>
      <trkpt lat="46.46789" lon="15.67668">
        <ele>262.432766</ele>
        <time>2022-08-06T11:24:24.492Z</time>
      </trkpt>
      <trkpt lat="46.46745" lon="15.67618">
        <ele>262.798146</ele>
        <time>2022-08-06T11:24:41.655Z</time>
      </trkpt>
      <trkpt lat="46.46729" lon="15.67591">
        <ele>262.906652</ele>
        <time>2022-08-06T11:24:48.982Z</time>
      </trkpt>
      <trkpt lat="46.46695" lon="15.67474">
        <ele>263.195653</ele>
        <time>2022-08-06T11:25:15.269Z</time>
      </trkpt>
      <trkpt lat="46.46706" lon="15.67466">
        <ele>263.234787</ele>
        <time>2022-08-06T11:25:18.580Z</time>
      </trkpt>
      <trkpt lat="46.46764" lon="15.67387">
        <ele>263.476849</ele>
        <time>2022-08-06T11:25:40.131Z</time>
      </trkpt>
      <trkpt lat="46.46845" lon="15.67277">
        <ele>263.697766</ele>
        <time>2022-08-06T11:26:09.654Z</time>
      </trkpt>
      <trkpt lat="46.46887" lon="15.67217">
        <ele>263.862189</ele>
        <time>2022-08-06T11:26:26.714Z</time>
      </trkpt>
      <trkpt lat="46.46968" lon="15.67104">
        <ele>265.019254</ele>
        <time>2022-08-06T11:27:02.343Z</time>
      </trkpt>
      <trkpt lat="46.46977" lon="15.67073">
        <ele>265.256215</ele>
        <time>2022-08-06T11:27:09.879Z</time>
      </trkpt>
      <trkpt lat="46.47" lon="15.66944">
        <ele>266.232804</ele>
        <time>2022-08-06T11:27:39.627Z</time>
      </trkpt>
      <trkpt lat="46.47012" lon="15.66905">
        <ele>266.554202</ele>
        <time>2022-08-06T11:27:49.180Z</time>
      </trkpt>
      <trkpt lat="46.47051" lon="15.66856">
        <ele>267.116732</ele>
        <time>2022-08-06T11:28:06.022Z</time>
      </trkpt>
      <trkpt lat="46.47093" lon="15.66775">
        <ele>267.777964</ele>
        <time>2022-08-06T11:28:27.769Z</time>
      </trkpt>
      <trkpt lat="46.4716" lon="15.66734">
        <ele>268.28855</ele>
        <time>2022-08-06T11:28:49.404Z</time>
      </trkpt>
      <trkpt lat="46.472" lon="15.667">
        <ele>268.610691</ele>
        <time>2022-08-06T11:29:02.940Z</time>
      </trkpt>
      <trkpt lat="46.47225" lon="15.66668">
        <ele>268.846274</ele>
        <time>2022-08-06T11:29:12.918Z</time>
      </trkpt>
      <trkpt lat="46.47262" lon="15.66614">
        <ele>269.220506</ele>
        <time>2022-08-06T11:29:28.676Z</time>
      </trkpt>
      <trkpt lat="46.47307" lon="15.66462">
        <ele>270.028543</ele>
        <time>2022-08-06T11:30:02.717Z</time>
      </trkpt>
      <trkpt lat="46.4736" lon="15.66356">
        <ele>270.764478</ele>
        <time>2022-08-06T11:30:30.393Z</time>
      </trkpt>
      <trkpt lat="46.47367" lon="15.66341">
        <ele>270.877184</ele>
        <time>2022-08-06T11:30:34.525Z</time>
      </trkpt>
      <trkpt lat="46.47372" lon="15.66329">
        <ele>270.954479</ele>
        <time>2022-08-06T11:30:37.446Z</time>
      </trkpt>
      <trkpt lat="46.47387" lon="15.66295">
        <ele>271.191716</ele>
        <time>2022-08-06T11:30:46.357Z</time>
      </trkpt>
      <trkpt lat="46.47397" lon="15.66269">
        <ele>271.363628</ele>
        <time>2022-08-06T11:30:52.669Z</time>
      </trkpt>
      <trkpt lat="46.47461" lon="15.66119">
        <ele>272.22174</ele>
        <time>2022-08-06T11:31:29.144Z</time>
      </trkpt>
      <trkpt lat="46.47484" lon="15.66095">
        <ele>272.403851</ele>
        <time>2022-08-06T11:31:37.561Z</time>
      </trkpt>
      <trkpt lat="46.4749" lon="15.66091">
        <ele>272.448988</ele>
        <time>2022-08-06T11:31:39.678Z</time>
      </trkpt>
      <trkpt lat="46.47493" lon="15.6608">
        <ele>272.500044</ele>
        <time>2022-08-06T11:31:42.157Z</time>
      </trkpt>
      <trkpt lat="46.47628" lon="15.6599">
        <ele>273.557591</ele>
        <time>2022-08-06T11:32:27.045Z</time>
      </trkpt>
      <trkpt lat="46.47698" lon="15.65955">
        <ele>274.11366</ele>
        <time>2022-08-06T11:32:50.784Z</time>
      </trkpt>
      <trkpt lat="46.47727" lon="15.65935">
        <ele>274.556072</ele>
        <time>2022-08-06T11:33:01.555Z</time>
      </trkpt>
      <trkpt lat="46.47747" lon="15.65911">
        <ele>274.973622</ele>
        <time>2022-08-06T11:33:10.396Z</time>
      </trkpt>
      <trkpt lat="46.47711" lon="15.65803">
        <ele>276.309806</ele>
        <time>2022-08-06T11:33:40.091Z</time>
      </trkpt>
      <trkpt lat="46.47685" lon="15.65673">
        <ele>277.904402</ele>
        <time>2022-08-06T11:34:14.899Z</time>
      </trkpt>
      <trkpt lat="46.47658" lon="15.65539">
        <ele>279.644887</ele>
        <time>2022-08-06T11:34:50.418Z</time>
      </trkpt>
      <trkpt lat="46.47644" lon="15.65494">
        <ele>280.258503</ele>
        <time>2022-08-06T11:35:02.639Z</time>
      </trkpt>
      <trkpt lat="46.47653" lon="15.65488">
        <ele>280.391199</ele>
        <time>2022-08-06T11:35:06.002Z</time>
      </trkpt>
      <trkpt lat="46.47659" lon="15.65484">
        <ele>280.462047</ele>
        <time>2022-08-06T11:35:08.429Z</time>
      </trkpt>
      <trkpt lat="46.47664" lon="15.65468">
        <ele>280.582611</ele>
        <time>2022-08-06T11:35:12.651Z</time>
      </trkpt>
      <trkpt lat="46.47725" lon="15.65411">
        <ele>281.292395</ele>
        <time>2022-08-06T11:35:36.775Z</time>
      </trkpt>
      <trkpt lat="46.47723" lon="15.65403">
        <ele>281.349229</ele>
        <time>2022-08-06T11:35:38.859Z</time>
      </trkpt>
      <trkpt lat="46.4773" lon="15.65397">
        <ele>281.429879</ele>
        <time>2022-08-06T11:35:41.201Z</time>
      </trkpt>
      <trkpt lat="46.47752" lon="15.65382">
        <ele>281.668512</ele>
        <time>2022-08-06T11:35:48.445Z</time>
      </trkpt>
      <trkpt lat="46.47759" lon="15.65377">
        <ele>281.737293</ele>
        <time>2022-08-06T11:35:50.677Z</time>
      </trkpt>
      <trkpt lat="46.47823" lon="15.6535">
        <ele>282.082514</ele>
        <time>2022-08-06T11:36:10.217Z</time>
      </trkpt>
      <trkpt lat="46.47831" lon="15.65352">
        <ele>282.073954</ele>
        <time>2022-08-06T11:36:12.280Z</time>
      </trkpt>
      <trkpt lat="46.47874" lon="15.65336">
        <ele>282.025639</ele>
        <time>2022-08-06T11:36:24.590Z</time>
      </trkpt>
      <trkpt lat="46.47883" lon="15.65344">
        <ele>282.014162</ele>
        <time>2022-08-06T11:36:27.434Z</time>
      </trkpt>
      <trkpt lat="46.47888" lon="15.65342">
        <ele>282.009161</ele>
        <time>2022-08-06T11:36:28.610Z</time>
      </trkpt>
      <trkpt lat="46.4789" lon="15.65341">
        <ele>282.006372</ele>
        <time>2022-08-06T11:36:29.270Z</time>
      </trkpt>
      <trkpt lat="46.47895" lon="15.65329">
        <ele>281.995601</ele>
        <time>2022-08-06T11:36:31.689Z</time>
      </trkpt>
      <trkpt lat="46.47901" lon="15.65327">
        <ele>281.98952</ele>
        <time>2022-08-06T11:36:33.175Z</time>
      </trkpt>
      <trkpt lat="46.47901" lon="15.65321">
        <ele>281.985286</ele>
        <time>2022-08-06T11:36:34.240Z</time>
      </trkpt>
      <trkpt lat="46.47902" lon="15.65314">
        <ele>281.979853</ele>
        <time>2022-08-06T11:36:35.561Z</time>
      </trkpt>
      <trkpt lat="46.47902" lon="15.65307">
        <ele>281.974806</ele>
        <time>2022-08-06T11:36:36.804Z</time>
      </trkpt>
      <trkpt lat="46.47921" lon="15.65308">
        <ele>281.953921</ele>
        <time>2022-08-06T11:36:41.467Z</time>
      </trkpt>
      <trkpt lat="46.48048" lon="15.65267">
        <ele>280.980933</ele>
        <time>2022-08-06T11:37:12.584Z</time>
      </trkpt>
      <trkpt lat="46.48234" lon="15.65225">
        <ele>278.847528</ele>
        <time>2022-08-06T11:37:55.084Z</time>
      </trkpt>
      <trkpt lat="46.48348" lon="15.6522">
        <ele>277.296699</ele>
        <time>2022-08-06T11:38:20.524Z</time>
      </trkpt>
      <trkpt lat="46.48643" lon="15.65196">
        <ele>272.869997</ele>
        <time>2022-08-06T11:39:24.956Z</time>
      </trkpt>
      <trkpt lat="46.48757" lon="15.65197">
        <ele>271.738347</ele>
        <time>2022-08-06T11:39:51.287Z</time>
      </trkpt>
      <trkpt lat="46.48889" lon="15.65203">
        <ele>270.799497</ele>
        <time>2022-08-06T11:40:23.470Z</time>
      </trkpt>
      <trkpt lat="46.48935" lon="15.65194">
        <ele>270.617037</ele>
        <time>2022-08-06T11:40:34.938Z</time>
      </trkpt>
      <trkpt lat="46.48968" lon="15.65169">
        <ele>270.468786</ele>
        <time>2022-08-06T11:40:44.327Z</time>
      </trkpt>
      <trkpt lat="46.48975" lon="15.65179">
        <ele>270.427911</ele>
        <time>2022-08-06T11:40:47.074Z</time>
      </trkpt>
      <trkpt lat="46.49013" lon="15.65153">
        <ele>270.261878</ele>
        <time>2022-08-06T11:40:57.740Z</time>
      </trkpt>
      <trkpt lat="46.49022" lon="15.65148">
        <ele>270.254739</ele>
        <time>2022-08-06T11:41:00.200Z</time>
      </trkpt>
      <trkpt lat="46.49038" lon="15.65138">
        <ele>270.252078</ele>
        <time>2022-08-06T11:41:04.740Z</time>
      </trkpt>
      <trkpt lat="46.49062" lon="15.65135">
        <ele>270.24839</ele>
        <time>2022-08-06T11:41:11.053Z</time>
      </trkpt>
      <trkpt lat="46.49081" lon="15.65142">
        <ele>270.24554</ele>
        <time>2022-08-06T11:41:15.937Z</time>
      </trkpt>
      <trkpt lat="46.49101" lon="15.65161">
        <ele>270.241921</ele>
        <time>2022-08-06T11:41:22.178Z</time>
      </trkpt>
      <trkpt lat="46.49126" lon="15.65133">
        <ele>270.237074</ele>
        <time>2022-08-06T11:41:31.047Z</time>
      </trkpt>
      <trkpt lat="46.49149" lon="15.65132">
        <ele>270.233639</ele>
        <time>2022-08-06T11:41:37.441Z</time>
      </trkpt>
      <trkpt lat="46.49169" lon="15.65146">
        <ele>270.230248</ele>
        <time>2022-08-06T11:41:43.911Z</time>
      </trkpt>
      <trkpt lat="46.492" lon="15.65181">
        <ele>270.368793</ele>
        <time>2022-08-06T11:41:55.218Z</time>
      </trkpt>
      <trkpt lat="46.49224" lon="15.65199">
        <ele>270.503462</ele>
        <time>2022-08-06T11:42:03.447Z</time>
      </trkpt>
      <trkpt lat="46.49272" lon="15.65203">
        <ele>270.733959</ele>
        <time>2022-08-06T11:42:17.737Z</time>
      </trkpt>
      <trkpt lat="46.49556" lon="15.65142">
        <ele>272.570422</ele>
        <time>2022-08-06T11:43:47.015Z</time>
      </trkpt>
      <trkpt lat="46.49668" lon="15.65075">
        <ele>273.575351</ele>
        <time>2022-08-06T11:44:25.071Z</time>
      </trkpt>
      <trkpt lat="46.49729" lon="15.65041">
        <ele>274.304627</ele>
        <time>2022-08-06T11:44:46.197Z</time>
      </trkpt>
      <trkpt lat="46.49826" lon="15.64978">
        <ele>275.690651</ele>
        <time>2022-08-06T11:45:23.499Z</time>
      </trkpt>
      <trkpt lat="46.49897" lon="15.64923">
        <ele>276.569233</ele>
        <time>2022-08-06T11:45:51.439Z</time>
      </trkpt>
      <trkpt lat="46.49948" lon="15.64887">
        <ele>277.090684</ele>
        <time>2022-08-06T11:46:10.014Z</time>
      </trkpt>
      <trkpt lat="46.49949" lon="15.64891">
        <ele>277.112509</ele>
        <time>2022-08-06T11:46:10.681Z</time>
      </trkpt>
      <trkpt lat="46.49959" lon="15.64897">
        <ele>277.211611</ele>
        <time>2022-08-06T11:46:13.943Z</time>
      </trkpt>
      <trkpt lat="46.49964" lon="15.64883">
        <ele>277.311723</ele>
        <time>2022-08-06T11:46:17.388Z</time>
      </trkpt>
      <trkpt lat="46.49983" lon="15.64876">
        <ele>277.487837</ele>
        <time>2022-08-06T11:46:23.414Z</time>
      </trkpt>
      <trkpt lat="46.49991" lon="15.64874">
        <ele>277.561316</ele>
        <time>2022-08-06T11:46:25.864Z</time>
      </trkpt>
      <trkpt lat="46.50006" lon="15.64869">
        <ele>277.702765</ele>
        <time>2022-08-06T11:46:30.656Z</time>
      </trkpt>
      <trkpt lat="46.50053" lon="15.64853">
        <ele>277.756209</ele>
        <time>2022-08-06T11:46:44.701Z</time>
      </trkpt>
      <trkpt lat="46.50103" lon="15.64841">
        <ele>277.69293</ele>
        <time>2022-08-06T11:46:58.232Z</time>
      </trkpt>
      <trkpt lat="46.50152" lon="15.64839">
        <ele>277.629622</ele>
        <time>2022-08-06T11:47:11.570Z</time>
      </trkpt>
      <trkpt lat="46.50199" lon="15.64851">
        <ele>277.546782</ele>
        <time>2022-08-06T11:47:23.895Z</time>
      </trkpt>
      <trkpt lat="46.50224" lon="15.64868">
        <ele>277.38816</ele>
        <time>2022-08-06T11:47:30.704Z</time>
      </trkpt>
      <trkpt lat="46.50262" lon="15.64916">
        <ele>277.089567</ele>
        <time>2022-08-06T11:47:43.871Z</time>
      </trkpt>
      <trkpt lat="46.50302" lon="15.64959">
        <ele>276.799807</ele>
        <time>2022-08-06T11:47:56.504Z</time>
      </trkpt>
      <trkpt lat="46.50336" lon="15.64987">
        <ele>276.571364</ele>
        <time>2022-08-06T11:48:06.249Z</time>
      </trkpt>
      <trkpt lat="46.50425" lon="15.64993">
        <ele>276.014733</ele>
        <time>2022-08-06T11:48:28.294Z</time>
      </trkpt>
      <trkpt lat="46.50506" lon="15.65011">
        <ele>275.492488</ele>
        <time>2022-08-06T11:48:49.240Z</time>
      </trkpt>
      <trkpt lat="46.50597" lon="15.65041">
        <ele>274.991529</ele>
        <time>2022-08-06T11:49:13.477Z</time>
      </trkpt>
      <trkpt lat="46.5081" lon="15.65142">
        <ele>273.787006</ele>
        <time>2022-08-06T11:50:10.529Z</time>
      </trkpt>
      <trkpt lat="46.50847" lon="15.65168">
        <ele>273.559119</ele>
        <time>2022-08-06T11:50:21.203Z</time>
      </trkpt>
      <trkpt lat="46.50868" lon="15.65169">
        <ele>273.448479</ele>
        <time>2022-08-06T11:50:26.744Z</time>
      </trkpt>
      <trkpt lat="46.50881" lon="15.65159">
        <ele>273.392159</ele>
        <time>2022-08-06T11:50:30.610Z</time>
      </trkpt>
      <trkpt lat="46.50902" lon="15.6515">
        <ele>273.310423</ele>
        <time>2022-08-06T11:50:36.403Z</time>
      </trkpt>
      <trkpt lat="46.5093" lon="15.65154">
        <ele>273.207339</ele>
        <time>2022-08-06T11:50:43.683Z</time>
      </trkpt>
      <trkpt lat="46.51094" lon="15.65188">
        <ele>272.518672</ele>
        <time>2022-08-06T11:51:27.253Z</time>
      </trkpt>
      <trkpt lat="46.51229" lon="15.65196">
        <ele>271.867463</ele>
        <time>2022-08-06T11:52:01.637Z</time>
      </trkpt>
      <trkpt lat="46.51305" lon="15.65226">
        <ele>271.66048</ele>
        <time>2022-08-06T11:52:22.146Z</time>
      </trkpt>
      <trkpt lat="46.51374" lon="15.65216">
        <ele>271.478284</ele>
        <time>2022-08-06T11:52:40.816Z</time>
      </trkpt>
      <trkpt lat="46.51559" lon="15.65158">
        <ele>271.401345</ele>
        <time>2022-08-06T11:53:33.866Z</time>
      </trkpt>
      <trkpt lat="46.51612" lon="15.65133">
        <ele>271.441982</ele>
        <time>2022-08-06T11:53:48.912Z</time>
      </trkpt>
      <trkpt lat="46.51688" lon="15.65089">
        <ele>271.525639</ele>
        <time>2022-08-06T11:54:12.188Z</time>
      </trkpt>
      <trkpt lat="46.51702" lon="15.6514">
        <ele>271.564219</ele>
        <time>2022-08-06T11:54:22.833Z</time>
      </trkpt>
      <trkpt lat="46.51706" lon="15.65154">
        <ele>271.574752</ele>
        <time>2022-08-06T11:54:25.712Z</time>
      </trkpt>
      <trkpt lat="46.51707" lon="15.65159">
        <ele>271.578215</ele>
        <time>2022-08-06T11:54:26.678Z</time>
      </trkpt>
      <trkpt lat="46.5172" lon="15.65225">
        <ele>271.717453</ele>
        <time>2022-08-06T11:54:39.918Z</time>
      </trkpt>
      <trkpt lat="46.51721" lon="15.65233">
        <ele>271.735214</ele>
        <time>2022-08-06T11:54:41.578Z</time>
      </trkpt>
      <trkpt lat="46.51881" lon="15.65131">
        <ele>272.249834</ele>
        <time>2022-08-06T11:55:30.640Z</time>
      </trkpt>
      <trkpt lat="46.51962" lon="15.65066">
        <ele>272.477628</ele>
        <time>2022-08-06T11:55:56.492Z</time>
      </trkpt>
      <trkpt lat="46.52018" lon="15.65024">
        <ele>272.700899</ele>
        <time>2022-08-06T11:56:14.077Z</time>
      </trkpt>
      <trkpt lat="46.52053" lon="15.6501">
        <ele>272.909348</ele>
        <time>2022-08-06T11:56:23.885Z</time>
      </trkpt>
      <trkpt lat="46.52077" lon="15.65009">
        <ele>273.04823</ele>
        <time>2022-08-06T11:56:30.673Z</time>
      </trkpt>
      <trkpt lat="46.52076" lon="15.65006">
        <ele>273.061704</ele>
        <time>2022-08-06T11:56:31.339Z</time>
      </trkpt>
      <trkpt lat="46.5208" lon="15.64999">
        <ele>273.098466</ele>
        <time>2022-08-06T11:56:33.151Z</time>
      </trkpt>
      <trkpt lat="46.5208" lon="15.64987">
        <ele>273.147822</ele>
        <time>2022-08-06T11:56:35.582Z</time>
      </trkpt>
      <trkpt lat="46.52126" lon="15.64928">
        <ele>273.504643</ele>
        <time>2022-08-06T11:56:54.265Z</time>
      </trkpt>
      <trkpt lat="46.52174" lon="15.64887">
        <ele>273.968653</ele>
        <time>2022-08-06T11:57:11.743Z</time>
      </trkpt>
      <trkpt lat="46.52223" lon="15.64865">
        <ele>274.491988</ele>
        <time>2022-08-06T11:57:28.467Z</time>
      </trkpt>
      <trkpt lat="46.52282" lon="15.6485">
        <ele>275.096745</ele>
        <time>2022-08-06T11:57:47.392Z</time>
      </trkpt>
      <trkpt lat="46.52286" lon="15.64841">
        <ele>275.173498</ele>
        <time>2022-08-06T11:57:50.085Z</time>
      </trkpt>
      <trkpt lat="46.52316" lon="15.64838">
        <ele>275.467156</ele>
        <time>2022-08-06T11:57:59.249Z</time>
      </trkpt>
      <trkpt lat="46.5243" lon="15.64844">
        <ele>276.142683</ele>
        <time>2022-08-06T11:58:34.461Z</time>
      </trkpt>
      <trkpt lat="46.52446" lon="15.6485">
        <ele>276.240614</ele>
        <time>2022-08-06T11:58:38.879Z</time>
      </trkpt>
      <trkpt lat="46.52581" lon="15.64834">
        <ele>276.393602</ele>
        <time>2022-08-06T11:59:17.034Z</time>
      </trkpt>
      <trkpt lat="46.52598" lon="15.6483">
        <ele>276.369931</ele>
        <time>2022-08-06T11:59:21.385Z</time>
      </trkpt>
      <trkpt lat="46.52704" lon="15.64798">
        <ele>276.069374</ele>
        <time>2022-08-06T11:59:50.058Z</time>
      </trkpt>
      <trkpt lat="46.52761" lon="15.64774">
        <ele>275.737808</ele>
        <time>2022-08-06T12:00:05.023Z</time>
      </trkpt>
      <trkpt lat="46.52848" lon="15.64729">
        <ele>275.235101</ele>
        <time>2022-08-06T12:00:28.191Z</time>
      </trkpt>
      <trkpt lat="46.52892" lon="15.64699">
        <ele>275.077152</ele>
        <time>2022-08-06T12:00:40.587Z</time>
      </trkpt>
      <trkpt lat="46.52944" lon="15.64669">
        <ele>274.895029</ele>
        <time>2022-08-06T12:00:55.572Z</time>
      </trkpt>
      <trkpt lat="46.52951" lon="15.64662">
        <ele>274.868934</ele>
        <time>2022-08-06T12:00:57.731Z</time>
      </trkpt>
      <trkpt lat="46.52995" lon="15.64638">
        <ele>274.71791</ele>
        <time>2022-08-06T12:01:10.462Z</time>
      </trkpt>
      <trkpt lat="46.53077" lon="15.64607">
        <ele>274.753665</ele>
        <time>2022-08-06T12:01:33.953Z</time>
      </trkpt>
      <trkpt lat="46.53172" lon="15.64599">
        <ele>274.865408</ele>
        <time>2022-08-06T12:02:00.680Z</time>
      </trkpt>
      <trkpt lat="46.5322" lon="15.64604">
        <ele>275.148438</ele>
        <time>2022-08-06T12:02:15.507Z</time>
      </trkpt>
      <trkpt lat="46.53296" lon="15.64626">
        <ele>275.74381</ele>
        <time>2022-08-06T12:02:40.206Z</time>
      </trkpt>
      <trkpt lat="46.53375" lon="15.64653">
        <ele>276.328365</ele>
        <time>2022-08-06T12:03:06.763Z</time>
      </trkpt>
      <trkpt lat="46.53517" lon="15.64706">
        <ele>277.027461</ele>
        <time>2022-08-06T12:03:51.471Z</time>
      </trkpt>
      <trkpt lat="46.53584" lon="15.6475">
        <ele>276.794517</ele>
        <time>2022-08-06T12:04:10.975Z</time>
      </trkpt>
      <trkpt lat="46.53602" lon="15.64765">
        <ele>276.664731</ele>
        <time>2022-08-06T12:04:16.394Z</time>
      </trkpt>
      <trkpt lat="46.53674" lon="15.64842">
        <ele>276.114168</ele>
        <time>2022-08-06T12:04:37.948Z</time>
      </trkpt>
      <trkpt lat="46.53707" lon="15.64885">
        <ele>275.859553</ele>
        <time>2022-08-06T12:04:48.818Z</time>
      </trkpt>
      <trkpt lat="46.53718" lon="15.64878">
        <ele>275.791338</ele>
        <time>2022-08-06T12:04:51.848Z</time>
      </trkpt>
      <trkpt lat="46.5374" lon="15.64833">
        <ele>275.578976</ele>
        <time>2022-08-06T12:05:01.326Z</time>
      </trkpt>
      <trkpt lat="46.53752" lon="15.64808">
        <ele>275.46011</ele>
        <time>2022-08-06T12:05:06.714Z</time>
      </trkpt>
      <trkpt lat="46.53765" lon="15.64817">
        <ele>275.380542</ele>
        <time>2022-08-06T12:05:10.148Z</time>
      </trkpt>
      <trkpt lat="46.53824" lon="15.64829">
        <ele>275.045077</ele>
        <time>2022-08-06T12:05:24.918Z</time>
      </trkpt>
      <trkpt lat="46.53825" lon="15.64822">
        <ele>275.016215</ele>
        <time>2022-08-06T12:05:26.162Z</time>
      </trkpt>
      <trkpt lat="46.53856" lon="15.64834">
        <ele>275.086243</ele>
        <time>2022-08-06T12:05:39.340Z</time>
      </trkpt>
      <trkpt lat="46.53872" lon="15.64848">
        <ele>275.136973</ele>
        <time>2022-08-06T12:05:47.270Z</time>
      </trkpt>
      <trkpt lat="46.53953" lon="15.64977">
        <ele>275.464407</ele>
        <time>2022-08-06T12:06:43.509Z</time>
      </trkpt>
      <trkpt lat="46.53983" lon="15.64998">
        <ele>275.675249</ele>
        <time>2022-08-06T12:07:00.184Z</time>
      </trkpt>
      <trkpt lat="46.53998" lon="15.64988">
        <ele>275.815512</ele>
        <time>2022-08-06T12:07:08.756Z</time>
      </trkpt>
      <trkpt lat="46.53994" lon="15.64959">
        <ele>275.98434</ele>
        <time>2022-08-06T12:07:15.419Z</time>
      </trkpt>
      <trkpt lat="46.53965" lon="15.6485">
        <ele>276.651759</ele>
        <time>2022-08-06T12:07:39.744Z</time>
      </trkpt>
      <trkpt lat="46.53955" lon="15.64794">
        <ele>276.978779</ele>
        <time>2022-08-06T12:07:51.786Z</time>
      </trkpt>
      <trkpt lat="46.53963" lon="15.64792">
        <ele>276.983322</ele>
        <time>2022-08-06T12:07:54.026Z</time>
      </trkpt>
      <trkpt lat="46.53973" lon="15.6479">
        <ele>276.980738</ele>
        <time>2022-08-06T12:07:57.194Z</time>
      </trkpt>
      <trkpt lat="46.53978" lon="15.64789">
        <ele>276.979567</ele>
        <time>2022-08-06T12:07:58.655Z</time>
      </trkpt>
      <trkpt lat="46.53985" lon="15.64785">
        <ele>276.977745</ele>
        <time>2022-08-06T12:08:01.137Z</time>
      </trkpt>
      <trkpt lat="46.53993" lon="15.64791">
        <ele>276.975664</ele>
        <time>2022-08-06T12:08:03.866Z</time>
      </trkpt>
      <trkpt lat="46.53996" lon="15.64795">
        <ele>276.974724</ele>
        <time>2022-08-06T12:08:05.027Z</time>
      </trkpt>
      <trkpt lat="46.5401" lon="15.64788">
        <ele>276.971233</ele>
        <time>2022-08-06T12:08:09.020Z</time>
      </trkpt>
      <trkpt lat="46.54102" lon="15.64828">
        <ele>276.948218</ele>
        <time>2022-08-06T12:08:34.946Z</time>
      </trkpt>
      <trkpt lat="46.54229" lon="15.6489">
        <ele>276.199912</ele>
        <time>2022-08-06T12:09:08.149Z</time>
      </trkpt>
      <trkpt lat="46.54231" lon="15.64888">
        <ele>276.180613</ele>
        <time>2022-08-06T12:09:08.877Z</time>
      </trkpt>
      <trkpt lat="46.54244" lon="15.6489">
        <ele>276.088069</ele>
        <time>2022-08-06T12:09:12.225Z</time>
      </trkpt>
      <trkpt lat="46.54253" lon="15.64892">
        <ele>276.025014</ele>
        <time>2022-08-06T12:09:14.502Z</time>
      </trkpt>
      <trkpt lat="46.54293" lon="15.64901">
        <ele>275.746846</ele>
        <time>2022-08-06T12:09:24.548Z</time>
      </trkpt>
      <trkpt lat="46.5436" lon="15.64909">
        <ele>275.701818</ele>
        <time>2022-08-06T12:09:41.767Z</time>
      </trkpt>
      <trkpt lat="46.54423" lon="15.64904">
        <ele>275.706096</ele>
        <time>2022-08-06T12:09:58.539Z</time>
      </trkpt>
      <trkpt lat="46.54448" lon="15.64905">
        <ele>275.707805</ele>
        <time>2022-08-06T12:10:05.752Z</time>
      </trkpt>
      <trkpt lat="46.54553" lon="15.64895">
        <ele>276.444466</ele>
        <time>2022-08-06T12:10:41.593Z</time>
      </trkpt>
      <trkpt lat="46.54691" lon="15.64892">
        <ele>277.358796</ele>
        <time>2022-08-06T12:11:26.416Z</time>
      </trkpt>
      <trkpt lat="46.54708" lon="15.64895">
        <ele>277.285602</ele>
        <time>2022-08-06T12:11:31.329Z</time>
      </trkpt>
      <trkpt lat="46.54724" lon="15.6489">
        <ele>277.214616</ele>
        <time>2022-08-06T12:11:35.805Z</time>
      </trkpt>
      <trkpt lat="46.54818" lon="15.64887">
        <ele>276.806543</ele>
        <time>2022-08-06T12:11:59.202Z</time>
      </trkpt>
      <trkpt lat="46.54837" lon="15.64888">
        <ele>276.725328</ele>
        <time>2022-08-06T12:12:03.449Z</time>
      </trkpt>
      <trkpt lat="46.54871" lon="15.64901">
        <ele>276.315012</ele>
        <time>2022-08-06T12:12:11.127Z</time>
      </trkpt>
      <trkpt lat="46.55072" lon="15.64994">
        <ele>274.394733</ele>
        <time>2022-08-06T12:13:01.837Z</time>
      </trkpt>
      <trkpt lat="46.55092" lon="15.6501">
        <ele>274.347314</ele>
        <time>2022-08-06T12:13:08.329Z</time>
      </trkpt>
      <trkpt lat="46.55096" lon="15.65024">
        <ele>274.324984</ele>
        <time>2022-08-06T12:13:11.204Z</time>
      </trkpt>
      <trkpt lat="46.55104" lon="15.65027">
        <ele>274.307013</ele>
        <time>2022-08-06T12:13:13.717Z</time>
      </trkpt>
      <trkpt lat="46.55112" lon="15.65029">
        <ele>274.289979</ele>
        <time>2022-08-06T12:13:16.083Z</time>
      </trkpt>
      <trkpt lat="46.55139" lon="15.65014">
        <ele>274.229768</ele>
        <time>2022-08-06T12:13:24.654Z</time>
      </trkpt>
      <trkpt lat="46.5518" lon="15.65025">
        <ele>274.127027</ele>
        <time>2022-08-06T12:13:37.294Z</time>
      </trkpt>
      <trkpt lat="46.55293" lon="15.65047">
        <ele>273.583873</ele>
        <time>2022-08-06T12:14:09.868Z</time>
      </trkpt>
      <trkpt lat="46.5536" lon="15.65056">
        <ele>273.091858</ele>
        <time>2022-08-06T12:14:25.820Z</time>
      </trkpt>
      <trkpt lat="46.55411" lon="15.6506">
        <ele>271.567067</ele>
        <time>2022-08-06T12:14:36.364Z</time>
      </trkpt>
      <trkpt lat="46.55432" lon="15.65079">
        <ele>270.817466</ele>
        <time>2022-08-06T12:14:41.427Z</time>
      </trkpt>
      <trkpt lat="46.55435" lon="15.65074">
        <ele>270.696761</ele>
        <time>2022-08-06T12:14:42.168Z</time>
      </trkpt>
      <trkpt lat="46.55454" lon="15.65071">
        <ele>270.110963</ele>
        <time>2022-08-06T12:14:45.796Z</time>
      </trkpt>
      <trkpt lat="46.55459" lon="15.65077">
        <ele>269.917065</ele>
        <time>2022-08-06T12:14:47.013Z</time>
      </trkpt>
      <trkpt lat="46.55461" lon="15.65081">
        <ele>269.812712</ele>
        <time>2022-08-06T12:14:47.664Z</time>
      </trkpt>
      <trkpt lat="46.55476" lon="15.65071">
        <ele>269.315292</ele>
        <time>2022-08-06T12:14:50.668Z</time>
      </trkpt>
      <trkpt lat="46.55481" lon="15.6507">
        <ele>269.16253</ele>
        <time>2022-08-06T12:14:51.603Z</time>
      </trkpt>
      <trkpt lat="46.5568" lon="15.65094">
        <ele>264.988475</ele>
        <time>2022-08-06T12:15:31.949Z</time>
      </trkpt>
      <trkpt lat="46.55726" lon="15.65101">
        <ele>265.21836</ele>
        <time>2022-08-06T12:15:47.284Z</time>
      </trkpt>
      <trkpt lat="46.55754" lon="15.65106">
        <ele>265.980549</ele>
        <time>2022-08-06T12:15:57.866Z</time>
      </trkpt>
      <trkpt lat="46.55781" lon="15.65113">
        <ele>266.742198</ele>
        <time>2022-08-06T12:16:09.449Z</time>
      </trkpt>
      <trkpt lat="46.55792" lon="15.65128">
        <ele>267.148591</ele>
        <time>2022-08-06T12:16:15.747Z</time>
      </trkpt>
      <trkpt lat="46.55794" lon="15.65143">
        <ele>267.441763</ele>
        <time>2022-08-06T12:16:21.018Z</time>
      </trkpt>
      <trkpt lat="46.55794" lon="15.65151">
        <ele>267.587836</ele>
        <time>2022-08-06T12:16:23.350Z</time>
      </trkpt>
      <trkpt lat="46.55799" lon="15.65151">
        <ele>267.714397</ele>
        <time>2022-08-06T12:16:25.376Z</time>
      </trkpt>
      <trkpt lat="46.55806" lon="15.65152">
        <ele>267.912913</ele>
        <time>2022-08-06T12:16:28.792Z</time>
      </trkpt>
      <trkpt lat="46.55812" lon="15.65135">
        <ele>268.264323</ele>
        <time>2022-08-06T12:16:34.999Z</time>
      </trkpt>
      <trkpt lat="46.55825" lon="15.65127">
        <ele>268.662473</ele>
        <time>2022-08-06T12:16:42.176Z</time>
      </trkpt>
      <trkpt lat="46.55898" lon="15.65136">
        <ele>269.934275</ele>
        <time>2022-08-06T12:17:13.706Z</time>
      </trkpt>
      <trkpt lat="46.55923" lon="15.65138">
        <ele>270.187403</ele>
        <time>2022-08-06T12:17:22.149Z</time>
      </trkpt>
      <trkpt lat="46.55988" lon="15.65146">
        <ele>270.84395</ele>
        <time>2022-08-06T12:17:40.362Z</time>
      </trkpt>
      <trkpt lat="46.56009" lon="15.65154">
        <ele>271.062412</ele>
        <time>2022-08-06T12:17:45.777Z</time>
      </trkpt>
      <trkpt lat="46.56027" lon="15.65184">
        <ele>271.310108</ele>
        <time>2022-08-06T12:17:54.674Z</time>
      </trkpt>
      <trkpt lat="46.56028" lon="15.65186">
        <ele>271.295607</ele>
        <time>2022-08-06T12:17:55.040Z</time>
      </trkpt>
      <trkpt lat="46.56034" lon="15.65264">
        <ele>270.774291</ele>
        <time>2022-08-06T12:18:07.958Z</time>
      </trkpt>
      <trkpt lat="46.56037" lon="15.65295">
        <ele>270.564483</ele>
        <time>2022-08-06T12:18:12.946Z</time>
      </trkpt>
      <trkpt lat="46.56047" lon="15.65404">
        <ele>269.8352</ele>
        <time>2022-08-06T12:18:30.601Z</time>
      </trkpt>
      <trkpt lat="46.56065" lon="15.65554">
        <ele>269.785575</ele>
        <time>2022-08-06T12:18:58.838Z</time>
      </trkpt>
      <trkpt lat="46.56076" lon="15.65555">
        <ele>269.813325</ele>
        <time>2022-08-06T12:19:01.949Z</time>
      </trkpt>
      <trkpt lat="46.56085" lon="15.65557">
        <ele>269.835812</ele>
        <time>2022-08-06T12:19:04.575Z</time>
      </trkpt>
      <trkpt lat="46.56094" lon="15.65574">
        <ele>269.873956</ele>
        <time>2022-08-06T12:19:08.937Z</time>
      </trkpt>
      <trkpt lat="46.56142" lon="15.65642">
        <ele>270.050812</ele>
        <time>2022-08-06T12:19:29.367Z</time>
      </trkpt>
      <trkpt lat="46.5616" lon="15.65662">
        <ele>270.223434</ele>
        <time>2022-08-06T12:19:36.149Z</time>
      </trkpt>
      <trkpt lat="46.5617" lon="15.65667">
        <ele>270.306077</ele>
        <time>2022-08-06T12:19:39.709Z</time>
      </trkpt>
      <trkpt lat="46.56174" lon="15.6567">
        <ele>270.338878</ele>
        <time>2022-08-06T12:19:40.978Z</time>
      </trkpt>
      <trkpt lat="46.56204" lon="15.65696">
        <ele>270.607125</ele>
        <time>2022-08-06T12:19:52.029Z</time>
      </trkpt>
      <trkpt lat="46.56201" lon="15.65704">
        <ele>270.656523</ele>
        <time>2022-08-06T12:19:53.870Z</time>
      </trkpt>
      <trkpt lat="46.56204" lon="15.65706">
        <ele>270.683123</ele>
        <time>2022-08-06T12:19:54.969Z</time>
      </trkpt>
      <trkpt lat="46.56226" lon="15.65723">
        <ele>270.868754</ele>
        <time>2022-08-06T12:20:02.789Z</time>
      </trkpt>
      <trkpt lat="46.56302" lon="15.65778">
        <ele>271.495183</ele>
        <time>2022-08-06T12:20:29.130Z</time>
      </trkpt>
      <trkpt lat="46.56305" lon="15.6578">
        <ele>271.513214</ele>
        <time>2022-08-06T12:20:30.106Z</time>
      </trkpt>
      <trkpt lat="46.5631" lon="15.65783">
        <ele>271.543177</ele>
        <time>2022-08-06T12:20:31.740Z</time>
      </trkpt>
      <trkpt lat="46.56437" lon="15.65858">
        <ele>272.313357</ele>
        <time>2022-08-06T12:21:12.932Z</time>
      </trkpt>
      <trkpt lat="46.56526" lon="15.65906">
        <ele>273.396242</ele>
        <time>2022-08-06T12:21:42.915Z</time>
      </trkpt>
      <trkpt lat="46.56538" lon="15.65913">
        <ele>273.567548</ele>
        <time>2022-08-06T12:21:47.298Z</time>
      </trkpt>
      <trkpt lat="46.56569" lon="15.65931">
        <ele>274.012262</ele>
        <time>2022-08-06T12:21:59.117Z</time>
      </trkpt>
      <trkpt lat="46.5659" lon="15.65942">
        <ele>274.303472</ele>
        <time>2022-08-06T12:22:06.779Z</time>
      </trkpt>
      <trkpt lat="46.56644" lon="15.65953">
        <ele>275.162041</ele>
        <time>2022-08-06T12:22:26.193Z</time>
      </trkpt>
      <trkpt lat="46.56681" lon="15.65936">
        <ele>276.034834</ele>
        <time>2022-08-06T12:22:40.603Z</time>
      </trkpt>
      <trkpt lat="46.56712" lon="15.65911">
        <ele>276.817458</ele>
        <time>2022-08-06T12:22:54.065Z</time>
      </trkpt>
      <trkpt lat="46.56732" lon="15.65895">
        <ele>277.316904</ele>
        <time>2022-08-06T12:23:02.834Z</time>
      </trkpt>
      <trkpt lat="46.56806" lon="15.65853">
        <ele>278.966172</ele>
        <time>2022-08-06T12:23:33.441Z</time>
      </trkpt>
      <trkpt lat="46.56898" lon="15.6583">
        <ele>280.283758</ele>
        <time>2022-08-06T12:24:06.330Z</time>
      </trkpt>
      <trkpt lat="46.56924" lon="15.65827">
        <ele>280.642362</ele>
        <time>2022-08-06T12:24:14.350Z</time>
      </trkpt>
      <trkpt lat="46.5699" lon="15.65822">
        <ele>281.313285</ele>
        <time>2022-08-06T12:24:33.895Z</time>
      </trkpt>
      <trkpt lat="46.57078" lon="15.65812">
        <ele>281.392126</ele>
        <time>2022-08-06T12:24:58.170Z</time>
      </trkpt>
      <trkpt lat="46.57225" lon="15.65799">
        <ele>281.658675</ele>
        <time>2022-08-06T12:25:36.080Z</time>
      </trkpt>
      <trkpt lat="46.57405" lon="15.65782">
        <ele>282.739599</ele>
        <time>2022-08-06T12:26:29.335Z</time>
      </trkpt>
      <trkpt lat="46.57622" lon="15.65762">
        <ele>285.459895</ele>
        <time>2022-08-06T12:27:41.838Z</time>
      </trkpt>
      <trkpt lat="46.57682" lon="15.65763">
        <ele>286.316449</ele>
        <time>2022-08-06T12:28:02.291Z</time>
      </trkpt>
      <trkpt lat="46.5774" lon="15.65785">
        <ele>287.380738</ele>
        <time>2022-08-06T12:28:22.719Z</time>
      </trkpt>
      <trkpt lat="46.57841" lon="15.65871">
        <ele>289.490036</ele>
        <time>2022-08-06T12:29:03.449Z</time>
      </trkpt>
      <trkpt lat="46.5793" lon="15.65936">
        <ele>291.936812</ele>
        <time>2022-08-06T12:29:42.571Z</time>
      </trkpt>
      <trkpt lat="46.57966" lon="15.65984">
        <ele>293.149064</ele>
        <time>2022-08-06T12:30:02.777Z</time>
      </trkpt>
      <trkpt lat="46.58069" lon="15.66175">
        <ele>295.836984</ele>
        <time>2022-08-06T12:31:04.324Z</time>
      </trkpt>
      <trkpt lat="46.58109" lon="15.66301">
        <ele>296.346546</ele>
        <time>2022-08-06T12:31:28.067Z</time>
      </trkpt>
      <trkpt lat="46.58169" lon="15.66479">
        <ele>295.680692</ele>
        <time>2022-08-06T12:31:59.911Z</time>
      </trkpt>
      <trkpt lat="46.58199" lon="15.66539">
        <ele>296.660615</ele>
        <time>2022-08-06T12:32:15.639Z</time>
      </trkpt>
      <trkpt lat="46.58223" lon="15.66563">
        <ele>297.257412</ele>
        <time>2022-08-06T12:32:25.746Z</time>
      </trkpt>
      <trkpt lat="46.58252" lon="15.66576">
        <ele>297.87502</ele>
        <time>2022-08-06T12:32:37.217Z</time>
      </trkpt>
      <trkpt lat="46.58514" lon="15.66573">
        <ele>306.096335</ele>
        <time>2022-08-06T12:34:30.888Z</time>
      </trkpt>
      <trkpt lat="46.58557" lon="15.66561">
        <ele>307.82447</ele>
        <time>2022-08-06T12:34:50.228Z</time>
      </trkpt>
      <trkpt lat="46.58594" lon="15.66534">
        <ele>309.448268</ele>
        <time>2022-08-06T12:35:10.445Z</time>
      </trkpt>
      <trkpt lat="46.58641" lon="15.66461">
        <ele>312.131418</ele>
        <time>2022-08-06T12:35:45.986Z</time>
      </trkpt>
      <trkpt lat="46.58705" lon="15.66333">
        <ele>311.603772</ele>
        <time>2022-08-06T12:36:22.854Z</time>
      </trkpt>
      <trkpt lat="46.58734" lon="15.66279">
        <ele>311.031325</ele>
        <time>2022-08-06T12:36:32.631Z</time>
      </trkpt>
      <trkpt lat="46.58783" lon="15.66247">
        <ele>309.293283</ele>
        <time>2022-08-06T12:36:42.077Z</time>
      </trkpt>
      <trkpt lat="46.58834" lon="15.66244">
        <ele>304.846376</ele>
        <time>2022-08-06T12:36:50.582Z</time>
      </trkpt>
      <trkpt lat="46.58861" lon="15.66251">
        <ele>302.529698</ele>
        <time>2022-08-06T12:36:54.896Z</time>
      </trkpt>
      <trkpt lat="46.58896" lon="15.66274">
        <ele>299.141393</ele>
        <time>2022-08-06T12:37:01.180Z</time>
      </trkpt>
      <trkpt lat="46.58973" lon="15.66366">
        <ele>291.495112</ele>
        <time>2022-08-06T12:37:17.817Z</time>
      </trkpt>
      <trkpt lat="46.59053" lon="15.66398">
        <ele>285.941197</ele>
        <time>2022-08-06T12:37:32.299Z</time>
      </trkpt>
      <trkpt lat="46.59074" lon="15.66411">
        <ele>284.401306</ele>
        <time>2022-08-06T12:37:36.469Z</time>
      </trkpt>
      <trkpt lat="46.59098" lon="15.66439">
        <ele>282.443067</ele>
        <time>2022-08-06T12:37:42.036Z</time>
      </trkpt>
      <trkpt lat="46.5916" lon="15.66599">
        <ele>275.665428</ele>
        <time>2022-08-06T12:38:04.273Z</time>
      </trkpt>
      <trkpt lat="46.59184" lon="15.66623">
        <ele>274.091957</ele>
        <time>2022-08-06T12:38:09.546Z</time>
      </trkpt>
      <trkpt lat="46.59205" lon="15.66634">
        <ele>273.019612</ele>
        <time>2022-08-06T12:38:13.605Z</time>
      </trkpt>
      <trkpt lat="46.59249" lon="15.6664">
        <ele>271.700353</ele>
        <time>2022-08-06T12:38:22.142Z</time>
      </trkpt>
      <trkpt lat="46.59257" lon="15.66649">
        <ele>271.392422</ele>
        <time>2022-08-06T12:38:24.091Z</time>
      </trkpt>
      <trkpt lat="46.5928" lon="15.66657">
        <ele>270.70956</ele>
        <time>2022-08-06T12:38:28.748Z</time>
      </trkpt>
      <trkpt lat="46.59284" lon="15.6665">
        <ele>270.531047</ele>
        <time>2022-08-06T12:38:29.937Z</time>
      </trkpt>
      <trkpt lat="46.59286" lon="15.66635">
        <ele>270.216419</ele>
        <time>2022-08-06T12:38:32.026Z</time>
      </trkpt>
      <trkpt lat="46.59288" lon="15.66628">
        <ele>270.061856</ele>
        <time>2022-08-06T12:38:33.110Z</time>
      </trkpt>
      <trkpt lat="46.59303" lon="15.66621">
        <ele>269.606945</ele>
        <time>2022-08-06T12:38:36.362Z</time>
      </trkpt>
      <trkpt lat="46.59345" lon="15.66589">
        <ele>268.202565</ele>
        <time>2022-08-06T12:38:46.331Z</time>
      </trkpt>
      <trkpt lat="46.59374" lon="15.66584">
        <ele>267.690569</ele>
        <time>2022-08-06T12:38:53.029Z</time>
      </trkpt>
      <trkpt lat="46.59404" lon="15.66589">
        <ele>267.373614</ele>
        <time>2022-08-06T12:39:00.285Z</time>
      </trkpt>
      <trkpt lat="46.5945" lon="15.66621">
        <ele>266.830709</ele>
        <time>2022-08-06T12:39:12.525Z</time>
      </trkpt>
      <trkpt lat="46.59503" lon="15.66618">
        <ele>266.270717</ele>
        <time>2022-08-06T12:39:25.240Z</time>
      </trkpt>
      <trkpt lat="46.59506" lon="15.66624">
        <ele>266.215747</ele>
        <time>2022-08-06T12:39:26.404Z</time>
      </trkpt>
      <trkpt lat="46.5951" lon="15.6664">
        <ele>266.09521</ele>
        <time>2022-08-06T12:39:28.796Z</time>
      </trkpt>
      <trkpt lat="46.59471" lon="15.66676">
        <ele>265.235526</ele>
        <time>2022-08-06T12:39:39.067Z</time>
      </trkpt>
      <trkpt lat="46.59448" lon="15.66707">
        <ele>264.56087</ele>
        <time>2022-08-06T12:39:45.840Z</time>
      </trkpt>
      <trkpt lat="46.59441" lon="15.66761">
        <ele>263.760343</ele>
        <time>2022-08-06T12:39:53.783Z</time>
      </trkpt>
      <trkpt lat="46.59446" lon="15.66782">
        <ele>263.442963</ele>
        <time>2022-08-06T12:39:57.000Z</time>
      </trkpt>
      <trkpt lat="46.59457" lon="15.668">
        <ele>263.084847</ele>
        <time>2022-08-06T12:40:00.351Z</time>
      </trkpt>
      <trkpt lat="46.59559" lon="15.66903">
        <ele>259.907348</ele>
        <time>2022-08-06T12:40:25.239Z</time>
      </trkpt>
      <trkpt lat="46.59563" lon="15.66928">
        <ele>259.413449</ele>
        <time>2022-08-06T12:40:28.615Z</time>
      </trkpt>
      <trkpt lat="46.59542" lon="15.66958">
        <ele>258.583487</ele>
        <time>2022-08-06T12:40:34.703Z</time>
      </trkpt>
      <trkpt lat="46.5954" lon="15.66967">
        <ele>258.418889</ele>
        <time>2022-08-06T12:40:35.788Z</time>
      </trkpt>
      <trkpt lat="46.59573" lon="15.67004">
        <ele>257.249722</ele>
        <time>2022-08-06T12:40:44.297Z</time>
      </trkpt>
      <trkpt lat="46.59591" lon="15.6703">
        <ele>256.75927</ele>
        <time>2022-08-06T12:40:49.412Z</time>
      </trkpt>
      <trkpt lat="46.5966" lon="15.67135">
        <ele>254.860932</ele>
        <time>2022-08-06T12:41:10.254Z</time>
      </trkpt>
      <trkpt lat="46.59671" lon="15.67153">
        <ele>254.557723</ele>
        <time>2022-08-06T12:41:13.726Z</time>
      </trkpt>
      <trkpt lat="46.59689" lon="15.67187">
        <ele>253.993081</ele>
        <time>2022-08-06T12:41:20.487Z</time>
      </trkpt>
      <trkpt lat="46.59715" lon="15.67162">
        <ele>253.655841</ele>
        <time>2022-08-06T12:41:27.721Z</time>
      </trkpt>
      <trkpt lat="46.59727" lon="15.6716">
        <ele>253.579875</ele>
        <time>2022-08-06T12:41:30.725Z</time>
      </trkpt>
      <trkpt lat="46.59803" lon="15.67201">
        <ele>253.089179</ele>
        <time>2022-08-06T12:41:50.231Z</time>
      </trkpt>
      <trkpt lat="46.59828" lon="15.67215">
        <ele>252.932725</ele>
        <time>2022-08-06T12:41:56.738Z</time>
      </trkpt>
      <trkpt lat="46.59844" lon="15.67225">
        <ele>252.825834</ele>
        <time>2022-08-06T12:42:01.269Z</time>
      </trkpt>
      <trkpt lat="46.59899" lon="15.67265">
        <ele>252.742774</ele>
        <time>2022-08-06T12:42:17.394Z</time>
      </trkpt>
      <trkpt lat="46.5994" lon="15.67305">
        <ele>252.816425</ele>
        <time>2022-08-06T12:42:30.579Z</time>
      </trkpt>
      <trkpt lat="46.60045" lon="15.67452">
        <ele>253.075854</ele>
        <time>2022-08-06T12:43:12.020Z</time>
      </trkpt>
      <trkpt lat="46.60052" lon="15.67457">
        <ele>253.093456</ele>
        <time>2022-08-06T12:43:14.068Z</time>
      </trkpt>
      <trkpt lat="46.60063" lon="15.67455">
        <ele>253.118498</ele>
        <time>2022-08-06T12:43:16.965Z</time>
      </trkpt>
      <trkpt lat="46.60067" lon="15.67459">
        <ele>253.131501</ele>
        <time>2022-08-06T12:43:18.603Z</time>
      </trkpt>
      <trkpt lat="46.60096" lon="15.67497">
        <ele>253.218286</ele>
        <time>2022-08-06T12:43:29.182Z</time>
      </trkpt>
      <trkpt lat="46.60101" lon="15.6749">
        <ele>253.234988</ele>
        <time>2022-08-06T12:43:31.380Z</time>
      </trkpt>
      <trkpt lat="46.60106" lon="15.67485">
        <ele>253.248809</ele>
        <time>2022-08-06T12:43:33.035Z</time>
      </trkpt>
      <trkpt lat="46.60119" lon="15.6749">
        <ele>253.279451</ele>
        <time>2022-08-06T12:43:36.520Z</time>
      </trkpt>
      <trkpt lat="46.60128" lon="15.67485">
        <ele>253.300925</ele>
        <time>2022-08-06T12:43:39.279Z</time>
      </trkpt>
      <trkpt lat="46.60135" lon="15.67479">
        <ele>253.318758</ele>
        <time>2022-08-06T12:43:41.655Z</time>
      </trkpt>
      <trkpt lat="46.60135" lon="15.67476">
        <ele>253.323814</ele>
        <time>2022-08-06T12:43:42.251Z</time>
      </trkpt>
      <trkpt lat="46.60136" lon="15.67445">
        <ele>253.367201</ele>
        <time>2022-08-06T12:43:47.832Z</time>
      </trkpt>
      <trkpt lat="46.60134" lon="15.67411">
        <ele>253.395342</ele>
        <time>2022-08-06T12:43:54.571Z</time>
      </trkpt>
      <trkpt lat="46.60134" lon="15.67404">
        <ele>253.40035</ele>
        <time>2022-08-06T12:43:55.699Z</time>
      </trkpt>
      <trkpt lat="46.60127" lon="15.67365">
        <ele>253.433213</ele>
        <time>2022-08-06T12:44:03.705Z</time>
      </trkpt>
      <trkpt lat="46.60124" lon="15.67281">
        <ele>253.501656</ele>
        <time>2022-08-06T12:44:19.473Z</time>
      </trkpt>
      <trkpt lat="46.60145" lon="15.67174">
        <ele>253.682076</ele>
        <time>2022-08-06T12:44:39.152Z</time>
      </trkpt>
      <trkpt lat="46.60202" lon="15.66994">
        <ele>254.680889</ele>
        <time>2022-08-06T12:45:19.493Z</time>
      </trkpt>
      <trkpt lat="46.60224" lon="15.66958">
        <ele>254.964037</ele>
        <time>2022-08-06T12:45:30.550Z</time>
      </trkpt>
      <trkpt lat="46.60231" lon="15.66954">
        <ele>255.124061</ele>
        <time>2022-08-06T12:45:33.347Z</time>
      </trkpt>
      <trkpt lat="46.60266" lon="15.66965">
        <ele>255.824918</ele>
        <time>2022-08-06T12:45:46.408Z</time>
      </trkpt>
      <trkpt lat="46.60277" lon="15.66963">
        <ele>256.058742</ele>
        <time>2022-08-06T12:45:50.700Z</time>
      </trkpt>
      <trkpt lat="46.60286" lon="15.66953">
        <ele>256.274794</ele>
        <time>2022-08-06T12:45:55.005Z</time>
      </trkpt>
      <trkpt lat="46.60367" lon="15.6681">
        <ele>258.653623</ele>
        <time>2022-08-06T12:46:44.005Z</time>
      </trkpt>
      <trkpt lat="46.60417" lon="15.66731">
        <ele>259.519942</ele>
        <time>2022-08-06T12:47:11.412Z</time>
      </trkpt>
      <trkpt lat="46.60515" lon="15.66614">
        <ele>260.643927</ele>
        <time>2022-08-06T12:47:48.375Z</time>
      </trkpt>
      <trkpt lat="46.60567" lon="15.66519">
        <ele>260.836042</ele>
        <time>2022-08-06T12:48:11.443Z</time>
      </trkpt>
      <trkpt lat="46.60613" lon="15.66469">
        <ele>260.969731</ele>
        <time>2022-08-06T12:48:28.504Z</time>
      </trkpt>
      <trkpt lat="46.60656" lon="15.6644">
        <ele>261.484133</ele>
        <time>2022-08-06T12:48:42.937Z</time>
      </trkpt>
      <trkpt lat="46.60682" lon="15.66432">
        <ele>261.772648</ele>
        <time>2022-08-06T12:48:51.421Z</time>
      </trkpt>
      <trkpt lat="46.60811" lon="15.66421">
        <ele>263.224413</ele>
        <time>2022-08-06T12:49:36.307Z</time>
      </trkpt>
      <trkpt lat="46.60892" lon="15.66412">
        <ele>264.202827</ele>
        <time>2022-08-06T12:50:03.425Z</time>
      </trkpt>
      <trkpt lat="46.60931" lon="15.66431">
        <ele>264.692764</ele>
        <time>2022-08-06T12:50:16.709Z</time>
      </trkpt>
      <trkpt lat="46.60985" lon="15.66473">
        <ele>265.363083</ele>
        <time>2022-08-06T12:50:35.537Z</time>
      </trkpt>
      <trkpt lat="46.61028" lon="15.66486">
        <ele>265.791065</ele>
        <time>2022-08-06T12:50:49.096Z</time>
      </trkpt>
      <trkpt lat="46.61076" lon="15.66476">
        <ele>266.257427</ele>
        <time>2022-08-06T12:51:04.368Z</time>
      </trkpt>
      <trkpt lat="46.61123" lon="15.66454">
        <ele>266.737038</ele>
        <time>2022-08-06T12:51:20.140Z</time>
      </trkpt>
      <trkpt lat="46.61166" lon="15.66448">
        <ele>267.05053</ele>
        <time>2022-08-06T12:51:33.786Z</time>
      </trkpt>
      <trkpt lat="46.61282" lon="15.66485">
        <ele>267.819807</ele>
        <time>2022-08-06T12:52:09.674Z</time>
      </trkpt>
      <trkpt lat="46.61305" lon="15.66489">
        <ele>267.96984</ele>
        <time>2022-08-06T12:52:16.560Z</time>
      </trkpt>
      <trkpt lat="46.61337" lon="15.66485">
        <ele>267.741531</ele>
        <time>2022-08-06T12:52:25.236Z</time>
      </trkpt>
      <trkpt lat="46.61397" lon="15.66499">
        <ele>267.082623</ele>
        <time>2022-08-06T12:52:39.461Z</time>
      </trkpt>
      <trkpt lat="46.61432" lon="15.6649">
        <ele>266.691324</ele>
        <time>2022-08-06T12:52:47.254Z</time>
      </trkpt>
      <trkpt lat="46.61451" lon="15.66477">
        <ele>266.464966</ele>
        <time>2022-08-06T12:52:51.746Z</time>
      </trkpt>
      <trkpt lat="46.61471" lon="15.66457">
        <ele>266.2028</ele>
        <time>2022-08-06T12:52:56.709Z</time>
      </trkpt>
      <trkpt lat="46.61499" lon="15.66408">
        <ele>266.073145</ele>
        <time>2022-08-06T12:53:06.143Z</time>
      </trkpt>
      <trkpt lat="46.61508" lon="15.66389">
        <ele>266.079204</ele>
        <time>2022-08-06T12:53:09.511Z</time>
      </trkpt>
      <trkpt lat="46.61551" lon="15.66299">
        <ele>266.108148</ele>
        <time>2022-08-06T12:53:28.691Z</time>
      </trkpt>
      <trkpt lat="46.61579" lon="15.66265">
        <ele>266.122352</ele>
        <time>2022-08-06T12:53:40.930Z</time>
      </trkpt>
      <trkpt lat="46.61581" lon="15.66262">
        <ele>266.12338</ele>
        <time>2022-08-06T12:53:41.996Z</time>
      </trkpt>
      <trkpt lat="46.61623" lon="15.66254">
        <ele>266.496333</ele>
        <time>2022-08-06T12:53:58.626Z</time>
      </trkpt>
      <trkpt lat="46.61733" lon="15.66268">
        <ele>268.191242</ele>
        <time>2022-08-06T12:54:39.598Z</time>
      </trkpt>
      <trkpt lat="46.61783" lon="15.66246">
        <ele>268.830863</ele>
        <time>2022-08-06T12:54:55.343Z</time>
      </trkpt>
      <trkpt lat="46.61813" lon="15.66212">
        <ele>268.298985</ele>
        <time>2022-08-06T12:55:04.514Z</time>
      </trkpt>
      <trkpt lat="46.61834" lon="15.66169">
        <ele>267.812834</ele>
        <time>2022-08-06T12:55:12.071Z</time>
      </trkpt>
      <trkpt lat="46.61872" lon="15.66023">
        <ele>266.484625</ele>
        <time>2022-08-06T12:55:34.166Z</time>
      </trkpt>
      <trkpt lat="46.61902" lon="15.65979">
        <ele>266.671256</ele>
        <time>2022-08-06T12:55:44.334Z</time>
      </trkpt>
      <trkpt lat="46.62019" lon="15.65928">
        <ele>267.20813</ele>
        <time>2022-08-06T12:56:25.810Z</time>
      </trkpt>
      <trkpt lat="46.62093" lon="15.65925">
        <ele>267.285417</ele>
        <time>2022-08-06T12:56:47.404Z</time>
      </trkpt>
      <trkpt lat="46.62151" lon="15.65912">
        <ele>267.326051</ele>
        <time>2022-08-06T12:57:03.599Z</time>
      </trkpt>
      <trkpt lat="46.62151" lon="15.65895">
        <ele>267.334077</ele>
        <time>2022-08-06T12:57:05.930Z</time>
      </trkpt>
      <trkpt lat="46.62137" lon="15.6579">
        <ele>267.387407</ele>
        <time>2022-08-06T12:57:24.443Z</time>
      </trkpt>
      <trkpt lat="46.62134" lon="15.65768">
        <ele>267.399473</ele>
        <time>2022-08-06T12:57:29.243Z</time>
      </trkpt>
      <trkpt lat="46.62158" lon="15.65761">
        <ele>267.418325</ele>
        <time>2022-08-06T12:57:34.811Z</time>
      </trkpt>
      <trkpt lat="46.62215" lon="15.65777">
        <ele>267.463044</ele>
        <time>2022-08-06T12:57:48.955Z</time>
      </trkpt>
      <trkpt lat="46.62269" lon="15.65773">
        <ele>267.549857</ele>
        <time>2022-08-06T12:58:06.787Z</time>
      </trkpt>
      <trkpt lat="46.62378" lon="15.65744">
        <ele>269.194465</ele>
        <time>2022-08-06T12:58:47.285Z</time>
      </trkpt>
      <trkpt lat="46.62575" lon="15.65732">
        <ele>270.748562</ele>
        <time>2022-08-06T12:59:48.591Z</time>
      </trkpt>
      <trkpt lat="46.6262" lon="15.6571">
        <ele>270.951913</ele>
        <time>2022-08-06T13:00:00.314Z</time>
      </trkpt>
      <trkpt lat="46.62713" lon="15.6565">
        <ele>270.097747</ele>
        <time>2022-08-06T13:00:24.243Z</time>
      </trkpt>
      <trkpt lat="46.62733" lon="15.65654">
        <ele>269.92969</ele>
        <time>2022-08-06T13:00:28.665Z</time>
      </trkpt>
      <trkpt lat="46.62809" lon="15.65702">
        <ele>269.359086</ele>
        <time>2022-08-06T13:00:47.655Z</time>
      </trkpt>
      <trkpt lat="46.62918" lon="15.65709">
        <ele>269.09586</ele>
        <time>2022-08-06T13:01:14.485Z</time>
      </trkpt>
      <trkpt lat="46.63003" lon="15.657">
        <ele>269.647456</ele>
        <time>2022-08-06T13:01:40.382Z</time>
      </trkpt>
      <trkpt lat="46.63058" lon="15.65708">
        <ele>270.625679</ele>
        <time>2022-08-06T13:01:59.691Z</time>
      </trkpt>
      <trkpt lat="46.63132" lon="15.65709">
        <ele>271.94145</ele>
        <time>2022-08-06T13:02:28.204Z</time>
      </trkpt>
      <trkpt lat="46.63157" lon="15.65702">
        <ele>272.354559</ele>
        <time>2022-08-06T13:02:37.847Z</time>
      </trkpt>
      <trkpt lat="46.63226" lon="15.65638">
        <ele>273.570526</ele>
        <time>2022-08-06T13:03:08.158Z</time>
      </trkpt>
      <trkpt lat="46.63312" lon="15.65589">
        <ele>274.853539</ele>
        <time>2022-08-06T13:03:36.595Z</time>
      </trkpt>
      <trkpt lat="46.63346" lon="15.65586">
        <ele>274.856134</ele>
        <time>2022-08-06T13:03:45.822Z</time>
      </trkpt>
      <trkpt lat="46.63438" lon="15.65597">
        <ele>274.86305</ele>
        <time>2022-08-06T13:04:08.925Z</time>
      </trkpt>
      <trkpt lat="46.63483" lon="15.65591">
        <ele>274.866474</ele>
        <time>2022-08-06T13:04:20.628Z</time>
      </trkpt>
      <trkpt lat="46.63598" lon="15.65527">
        <ele>275.523871</ele>
        <time>2022-08-06T13:04:56.838Z</time>
      </trkpt>
      <trkpt lat="46.6364" lon="15.65521">
        <ele>275.752388</ele>
        <time>2022-08-06T13:05:10.408Z</time>
      </trkpt>
      <trkpt lat="46.63659" lon="15.6551">
        <ele>275.862235</ele>
        <time>2022-08-06T13:05:16.384Z</time>
      </trkpt>
      <trkpt lat="46.63714" lon="15.65445">
        <ele>276.276105</ele>
        <time>2022-08-06T13:05:37.426Z</time>
      </trkpt>
      <trkpt lat="46.63734" lon="15.65429">
        <ele>276.409119</ele>
        <time>2022-08-06T13:05:44.424Z</time>
      </trkpt>
      <trkpt lat="46.6382" lon="15.65391">
        <ele>276.924876</ele>
        <time>2022-08-06T13:06:10.090Z</time>
      </trkpt>
      <trkpt lat="46.64193" lon="15.65118">
        <ele>278.82668</ele>
        <time>2022-08-06T13:08:09.923Z</time>
      </trkpt>
      <trkpt lat="46.64244" lon="15.65078">
        <ele>279.184303</ele>
        <time>2022-08-06T13:08:27.536Z</time>
      </trkpt>
      <trkpt lat="46.64298" lon="15.65014">
        <ele>279.574177</ele>
        <time>2022-08-06T13:08:48.460Z</time>
      </trkpt>
      <trkpt lat="46.64321" lon="15.65">
        <ele>279.659832</ele>
        <time>2022-08-06T13:08:56.304Z</time>
      </trkpt>
      <trkpt lat="46.64341" lon="15.64992">
        <ele>279.729003</ele>
        <time>2022-08-06T13:09:02.172Z</time>
      </trkpt>
      <trkpt lat="46.64395" lon="15.64995">
        <ele>279.907422</ele>
        <time>2022-08-06T13:09:17.368Z</time>
      </trkpt>
      <trkpt lat="46.64434" lon="15.6499">
        <ele>280.038465</ele>
        <time>2022-08-06T13:09:27.882Z</time>
      </trkpt>
      <trkpt lat="46.64642" lon="15.64913">
        <ele>280.619038</ele>
        <time>2022-08-06T13:10:26.041Z</time>
      </trkpt>
      <trkpt lat="46.64698" lon="15.64903">
        <ele>281.389954</ele>
        <time>2022-08-06T13:10:44.130Z</time>
      </trkpt>
      <trkpt lat="46.64847" lon="15.64869">
        <ele>283.493061</ele>
        <time>2022-08-06T13:11:37.274Z</time>
      </trkpt>
      <trkpt lat="46.64943" lon="15.64835">
        <ele>284.92547</ele>
        <time>2022-08-06T13:12:10.738Z</time>
      </trkpt>
      <trkpt lat="46.6497" lon="15.64834">
        <ele>285.320606</ele>
        <time>2022-08-06T13:12:19.769Z</time>
      </trkpt>
      <trkpt lat="46.65065" lon="15.64837">
        <ele>286.118114</ele>
        <time>2022-08-06T13:12:49.703Z</time>
      </trkpt>
      <trkpt lat="46.65171" lon="15.64778">
        <ele>286.868903</ele>
        <time>2022-08-06T13:13:22.244Z</time>
      </trkpt>
      <trkpt lat="46.65177" lon="15.64751">
        <ele>286.963816</ele>
        <time>2022-08-06T13:13:27.549Z</time>
      </trkpt>
      <trkpt lat="46.65196" lon="15.64727">
        <ele>287.084323</ele>
        <time>2022-08-06T13:13:34.556Z</time>
      </trkpt>
      <trkpt lat="46.65307" lon="15.64718">
        <ele>287.625092</ele>
        <time>2022-08-06T13:14:06.951Z</time>
      </trkpt>
      <trkpt lat="46.65345" lon="15.64704">
        <ele>287.922353</ele>
        <time>2022-08-06T13:14:18.650Z</time>
      </trkpt>
      <trkpt lat="46.65456" lon="15.64661">
        <ele>288.99862</ele>
        <time>2022-08-06T13:14:54.949Z</time>
      </trkpt>
      <trkpt lat="46.65582" lon="15.64642">
        <ele>290.254654</ele>
        <time>2022-08-06T13:15:34.906Z</time>
      </trkpt>
      <trkpt lat="46.65616" lon="15.6462">
        <ele>290.632175</ele>
        <time>2022-08-06T13:15:46.475Z</time>
      </trkpt>
      <trkpt lat="46.65647" lon="15.6459">
        <ele>291.011523</ele>
        <time>2022-08-06T13:15:58.161Z</time>
      </trkpt>
      <trkpt lat="46.6568" lon="15.64575">
        <ele>291.433454</ele>
        <time>2022-08-06T13:16:09.054Z</time>
      </trkpt>
      <trkpt lat="46.65716" lon="15.64576">
        <ele>291.975059</ele>
        <time>2022-08-06T13:16:20.725Z</time>
      </trkpt>
      <trkpt lat="46.65794" lon="15.64607">
        <ele>293.204255</ele>
        <time>2022-08-06T13:16:48.182Z</time>
      </trkpt>
      <trkpt lat="46.65889" lon="15.6463">
        <ele>294.912604</ele>
        <time>2022-08-06T13:17:22.756Z</time>
      </trkpt>
      <trkpt lat="46.65961" lon="15.64615">
        <ele>296.399957</ele>
        <time>2022-08-06T13:17:49.955Z</time>
      </trkpt>
      <trkpt lat="46.66062" lon="15.64583">
        <ele>299.276794</ele>
        <time>2022-08-06T13:18:27.147Z</time>
      </trkpt>
      <trkpt lat="46.66116" lon="15.64582">
        <ele>301.331082</ele>
        <time>2022-08-06T13:18:47.191Z</time>
      </trkpt>
      <trkpt lat="46.66157" lon="15.64553">
        <ele>303.07827</ele>
        <time>2022-08-06T13:19:12.299Z</time>
      </trkpt>
      <trkpt lat="46.66229" lon="15.64485">
        <ele>308.265719</ele>
        <time>2022-08-06T13:19:58.975Z</time>
      </trkpt>
      <trkpt lat="46.66239" lon="15.64481">
        <ele>309.079296</ele>
        <time>2022-08-06T13:20:04.737Z</time>
      </trkpt>
      <trkpt lat="46.66243" lon="15.64522">
        <ele>311.312882</ele>
        <time>2022-08-06T13:20:23.336Z</time>
      </trkpt>
      <trkpt lat="46.6625" lon="15.64545">
        <ele>312.641953</ele>
        <time>2022-08-06T13:20:33.999Z</time>
      </trkpt>
      <trkpt lat="46.66268" lon="15.64582">
        <ele>315.061534</ele>
        <time>2022-08-06T13:20:55.752Z</time>
      </trkpt>
      <trkpt lat="46.66286" lon="15.64595">
        <ele>316.611427</ele>
        <time>2022-08-06T13:21:10.987Z</time>
      </trkpt>
      <trkpt lat="46.66314" lon="15.64596">
        <ele>318.821634</ele>
        <time>2022-08-06T13:21:31.582Z</time>
      </trkpt>
      <trkpt lat="46.6643" lon="15.64566">
        <ele>329.163254</ele>
        <time>2022-08-06T13:22:54.560Z</time>
      </trkpt>
      <trkpt lat="46.66496" lon="15.64564">
        <ele>334.518598</ele>
        <time>2022-08-06T13:23:39.269Z</time>
      </trkpt>
      <trkpt lat="46.66518" lon="15.64571">
        <ele>335.439686</ele>
        <time>2022-08-06T13:23:53.103Z</time>
      </trkpt>
      <trkpt lat="46.6653" lon="15.64584">
        <ele>336.03452</ele>
        <time>2022-08-06T13:24:01.377Z</time>
      </trkpt>
      <trkpt lat="46.66541" lon="15.64625">
        <ele>337.288352</ele>
        <time>2022-08-06T13:24:18.001Z</time>
      </trkpt>
      <trkpt lat="46.66535" lon="15.64663">
        <ele>338.389335</ele>
        <time>2022-08-06T13:24:30.561Z</time>
      </trkpt>
      <trkpt lat="46.66525" lon="15.6468">
        <ele>339.021758</ele>
        <time>2022-08-06T13:24:36.868Z</time>
      </trkpt>
      <trkpt lat="46.66489" lon="15.64714">
        <ele>340.780365</ele>
        <time>2022-08-06T13:24:53.570Z</time>
      </trkpt>
      <trkpt lat="46.66476" lon="15.64738">
        <ele>341.27257</ele>
        <time>2022-08-06T13:24:59.697Z</time>
      </trkpt>
      <trkpt lat="46.66471" lon="15.64762">
        <ele>340.217469</ele>
        <time>2022-08-06T13:25:04.176Z</time>
      </trkpt>
      <trkpt lat="46.66478" lon="15.64808">
        <ele>338.194983</ele>
        <time>2022-08-06T13:25:10.860Z</time>
      </trkpt>
      <trkpt lat="46.66533" lon="15.64898">
        <ele>332.957881</ele>
        <time>2022-08-06T13:25:25.181Z</time>
      </trkpt>
      <trkpt lat="46.66602" lon="15.65177">
        <ele>310.932603</ele>
        <time>2022-08-06T13:25:57.536Z</time>
      </trkpt>
      <trkpt lat="46.66642" lon="15.65283">
        <ele>303.005122</ele>
        <time>2022-08-06T13:26:10.784Z</time>
      </trkpt>
      <trkpt lat="46.6664" lon="15.65321">
        <ele>300.724619</ele>
        <time>2022-08-06T13:26:14.975Z</time>
      </trkpt>
      <trkpt lat="46.6655" lon="15.65567">
        <ele>287.759529</ele>
        <time>2022-08-06T13:26:48.241Z</time>
      </trkpt>
      <trkpt lat="46.66504" lon="15.65634">
        <ele>284.571663</ele>
        <time>2022-08-06T13:27:00.929Z</time>
      </trkpt>
      <trkpt lat="46.66471" lon="15.65662">
        <ele>283.345948</ele>
        <time>2022-08-06T13:27:08.444Z</time>
      </trkpt>
      <trkpt lat="46.66442" lon="15.65701">
        <ele>282.561062</ele>
        <time>2022-08-06T13:27:16.343Z</time>
      </trkpt>
      <trkpt lat="46.66426" lon="15.65735">
        <ele>282.000922</ele>
        <time>2022-08-06T13:27:22.368Z</time>
      </trkpt>
      <trkpt lat="46.66414" lon="15.6578">
        <ele>281.334091</ele>
        <time>2022-08-06T13:27:29.556Z</time>
      </trkpt>
      <trkpt lat="46.66405" lon="15.65854">
        <ele>280.309192</ele>
        <time>2022-08-06T13:27:40.891Z</time>
      </trkpt>
      <trkpt lat="46.66394" lon="15.65949">
        <ele>280.456992</ele>
        <time>2022-08-06T13:27:57.123Z</time>
      </trkpt>
      <trkpt lat="46.66437" lon="15.65953">
        <ele>280.621756</ele>
        <time>2022-08-06T13:28:08.752Z</time>
      </trkpt>
      <trkpt lat="46.66481" lon="15.6598">
        <ele>280.80539</ele>
        <time>2022-08-06T13:28:24.334Z</time>
      </trkpt>
      <trkpt lat="46.66555" lon="15.66071">
        <ele>281.966978</ele>
        <time>2022-08-06T13:28:59.777Z</time>
      </trkpt>
      <trkpt lat="46.66697" lon="15.66228">
        <ele>284.294562</ele>
        <time>2022-08-06T13:29:57.999Z</time>
      </trkpt>
      <trkpt lat="46.66734" lon="15.66261">
        <ele>284.703717</ele>
        <time>2022-08-06T13:30:10.424Z</time>
      </trkpt>
      <trkpt lat="46.66768" lon="15.66281">
        <ele>285.055111</ele>
        <time>2022-08-06T13:30:21.533Z</time>
      </trkpt>
      <trkpt lat="46.66845" lon="15.66297">
        <ele>286.451079</ele>
        <time>2022-08-06T13:30:46.073Z</time>
      </trkpt>
      <trkpt lat="46.66977" lon="15.66277">
        <ele>289.595286</ele>
        <time>2022-08-06T13:31:37.866Z</time>
      </trkpt>
      <trkpt lat="46.6703" lon="15.66254">
        <ele>291.26496</ele>
        <time>2022-08-06T13:32:04.758Z</time>
      </trkpt>
      <trkpt lat="46.67055" lon="15.66235">
        <ele>292.133349</ele>
        <time>2022-08-06T13:32:18.900Z</time>
      </trkpt>
      <trkpt lat="46.67086" lon="15.66196">
        <ele>293.382619</ele>
        <time>2022-08-06T13:32:36.511Z</time>
      </trkpt>
      <trkpt lat="46.67105" lon="15.6616">
        <ele>294.329573</ele>
        <time>2022-08-06T13:32:48.584Z</time>
      </trkpt>
      <trkpt lat="46.67118" lon="15.66135">
        <ele>294.976341</ele>
        <time>2022-08-06T13:32:55.876Z</time>
      </trkpt>
      <trkpt lat="46.67142" lon="15.66089">
        <ele>294.673708</ele>
        <time>2022-08-06T13:33:07.851Z</time>
      </trkpt>
      <trkpt lat="46.6719" lon="15.66005">
        <ele>293.746033</ele>
        <time>2022-08-06T13:33:25.065Z</time>
      </trkpt>
      <trkpt lat="46.67255" lon="15.65907">
        <ele>292.351298</ele>
        <time>2022-08-06T13:33:43.447Z</time>
      </trkpt>
      <trkpt lat="46.6732" lon="15.65843">
        <ele>290.632299</ele>
        <time>2022-08-06T13:33:59.092Z</time>
      </trkpt>
      <trkpt lat="46.67375" lon="15.65795">
        <ele>289.246379</ele>
        <time>2022-08-06T13:34:12.854Z</time>
      </trkpt>
      <trkpt lat="46.67424" lon="15.65747">
        <ele>289.037132</ele>
        <time>2022-08-06T13:34:28.307Z</time>
      </trkpt>
      <trkpt lat="46.67468" lon="15.65697">
        <ele>289.144918</ele>
        <time>2022-08-06T13:34:44.196Z</time>
      </trkpt>
      <trkpt lat="46.67475" lon="15.65689">
        <ele>289.162153</ele>
        <time>2022-08-06T13:34:47.145Z</time>
      </trkpt>
      <trkpt lat="46.67521" lon="15.65638">
        <ele>289.275556</ele>
        <time>2022-08-06T13:35:05.668Z</time>
      </trkpt>
      <trkpt lat="46.67603" lon="15.65541">
        <ele>290.189244</ele>
        <time>2022-08-06T13:35:39.426Z</time>
      </trkpt>
      <trkpt lat="46.67687" lon="15.65412">
        <ele>291.451348</ele>
        <time>2022-08-06T13:36:19.685Z</time>
      </trkpt>
      <trkpt lat="46.67719" lon="15.65369">
        <ele>291.983559</ele>
        <time>2022-08-06T13:36:33.439Z</time>
      </trkpt>
      <trkpt lat="46.67766" lon="15.6532">
        <ele>292.685427</ele>
        <time>2022-08-06T13:36:52.725Z</time>
      </trkpt>
      <trkpt lat="46.67783" lon="15.65303">
        <ele>292.943032</ele>
        <time>2022-08-06T13:36:59.865Z</time>
      </trkpt>
      <trkpt lat="46.67818" lon="15.65274">
        <ele>293.591558</ele>
        <time>2022-08-06T13:37:14.391Z</time>
      </trkpt>
      <trkpt lat="46.67903" lon="15.65208">
        <ele>295.540446</ele>
        <time>2022-08-06T13:37:49.927Z</time>
      </trkpt>
      <trkpt lat="46.67935" lon="15.65184">
        <ele>296.260746</ele>
        <time>2022-08-06T13:38:03.844Z</time>
      </trkpt>
      <trkpt lat="46.67953" lon="15.6517">
        <ele>296.693053</ele>
        <time>2022-08-06T13:38:12.366Z</time>
      </trkpt>
      <trkpt lat="46.67997" lon="15.65145">
        <ele>297.279278</ele>
        <time>2022-08-06T13:38:31.570Z</time>
      </trkpt>
      <trkpt lat="46.68018" lon="15.65145">
        <ele>297.500445</ele>
        <time>2022-08-06T13:38:39.143Z</time>
      </trkpt>
      <trkpt lat="46.6803" lon="15.6514">
        <ele>297.640536</ele>
        <time>2022-08-06T13:38:43.902Z</time>
      </trkpt>
      <trkpt lat="46.6806" lon="15.65131">
        <ele>297.967414</ele>
        <time>2022-08-06T13:38:53.963Z</time>
      </trkpt>
      <trkpt lat="46.68115" lon="15.6511">
        <ele>298.587652</ele>
        <time>2022-08-06T13:39:11.049Z</time>
      </trkpt>
      <trkpt lat="46.68133" lon="15.651">
        <ele>298.796438</ele>
        <time>2022-08-06T13:39:16.389Z</time>
      </trkpt>
      <trkpt lat="46.68265" lon="15.65039">
        <ele>296.500277</ele>
        <time>2022-08-06T13:39:48.581Z</time>
      </trkpt>
      <trkpt lat="46.68316" lon="15.64995">
        <ele>295.276252</ele>
        <time>2022-08-06T13:40:00.719Z</time>
      </trkpt>
      <trkpt lat="46.68371" lon="15.64936">
        <ele>293.208785</ele>
        <time>2022-08-06T13:40:14.824Z</time>
      </trkpt>
      <trkpt lat="46.68403" lon="15.64901">
        <ele>292.002371</ele>
        <time>2022-08-06T13:40:23.129Z</time>
      </trkpt>
      <trkpt lat="46.68425" lon="15.6488">
        <ele>291.183216</ele>
        <time>2022-08-06T13:40:28.687Z</time>
      </trkpt>
      <trkpt lat="46.6847" lon="15.64836">
        <ele>289.607956</ele>
        <time>2022-08-06T13:40:39.760Z</time>
      </trkpt>
      <trkpt lat="46.68497" lon="15.64811">
        <ele>288.720729</ele>
        <time>2022-08-06T13:40:46.312Z</time>
      </trkpt>
      <trkpt lat="46.68651" lon="15.64657">
        <ele>284.022433</ele>
        <time>2022-08-06T13:41:25.964Z</time>
      </trkpt>
      <trkpt lat="46.68689" lon="15.64622">
        <ele>283.133383</ele>
        <time>2022-08-06T13:41:35.873Z</time>
      </trkpt>
      <trkpt lat="46.69009" lon="15.64309">
        <ele>277.195631</ele>
        <time>2022-08-06T13:43:05.835Z</time>
      </trkpt>
      <trkpt lat="46.69053" lon="15.6426">
        <ele>276.313262</ele>
        <time>2022-08-06T13:43:18.212Z</time>
      </trkpt>
      <trkpt lat="46.69071" lon="15.64243">
        <ele>275.923699</ele>
        <time>2022-08-06T13:43:22.865Z</time>
      </trkpt>
      <trkpt lat="46.69165" lon="15.64157">
        <ele>273.848685</ele>
        <time>2022-08-06T13:43:47.379Z</time>
      </trkpt>
      <trkpt lat="46.69172" lon="15.64143">
        <ele>273.619883</ele>
        <time>2022-08-06T13:43:49.979Z</time>
      </trkpt>
      <trkpt lat="46.69197" lon="15.64123">
        <ele>273.126</ele>
        <time>2022-08-06T13:43:56.118Z</time>
      </trkpt>
      <trkpt lat="46.69225" lon="15.641">
        <ele>272.829193</ele>
        <time>2022-08-06T13:44:03.607Z</time>
      </trkpt>
      <trkpt lat="46.69237" lon="15.64101">
        <ele>272.721587</ele>
        <time>2022-08-06T13:44:06.136Z</time>
      </trkpt>
      <trkpt lat="46.69273" lon="15.64082">
        <ele>272.376029</ele>
        <time>2022-08-06T13:44:14.930Z</time>
      </trkpt>
      <trkpt lat="46.69286" lon="15.6407">
        <ele>272.233835</ele>
        <time>2022-08-06T13:44:18.769Z</time>
      </trkpt>
      <trkpt lat="46.69303" lon="15.64054">
        <ele>272.047564</ele>
        <time>2022-08-06T13:44:23.461Z</time>
      </trkpt>
      <trkpt lat="46.69305" lon="15.64052">
        <ele>272.029143</ele>
        <time>2022-08-06T13:44:23.977Z</time>
      </trkpt>
      <trkpt lat="46.69327" lon="15.64031">
        <ele>271.785677</ele>
        <time>2022-08-06T13:44:30.357Z</time>
      </trkpt>
      <trkpt lat="46.69336" lon="15.6401">
        <ele>271.634023</ele>
        <time>2022-08-06T13:44:34.596Z</time>
      </trkpt>
      <trkpt lat="46.6935" lon="15.63997">
        <ele>271.493217</ele>
        <time>2022-08-06T13:44:38.797Z</time>
      </trkpt>
      <trkpt lat="46.69379" lon="15.6397">
        <ele>271.277072</ele>
        <time>2022-08-06T13:44:48.075Z</time>
      </trkpt>
      <trkpt lat="46.69426" lon="15.63924">
        <ele>270.926189</ele>
        <time>2022-08-06T13:45:03.071Z</time>
      </trkpt>
      <trkpt lat="46.69456" lon="15.63894">
        <ele>270.694019</ele>
        <time>2022-08-06T13:45:12.049Z</time>
      </trkpt>
      <trkpt lat="46.69465" lon="15.63885">
        <ele>270.625995</ele>
        <time>2022-08-06T13:45:14.445Z</time>
      </trkpt>
      <trkpt lat="46.69489" lon="15.63865">
        <ele>270.456878</ele>
        <time>2022-08-06T13:45:20.568Z</time>
      </trkpt>
      <trkpt lat="46.69502" lon="15.6386">
        <ele>270.340529</ele>
        <time>2022-08-06T13:45:23.397Z</time>
      </trkpt>
      <trkpt lat="46.69518" lon="15.63848">
        <ele>269.991929</ele>
        <time>2022-08-06T13:45:27.547Z</time>
      </trkpt>
      <trkpt lat="46.69558" lon="15.63813">
        <ele>269.109433</ele>
        <time>2022-08-06T13:45:37.534Z</time>
      </trkpt>
      <trkpt lat="46.69597" lon="15.63786">
        <ele>268.303459</ele>
        <time>2022-08-06T13:45:46.611Z</time>
      </trkpt>
      <trkpt lat="46.6962" lon="15.63772">
        <ele>267.836306</ele>
        <time>2022-08-06T13:45:51.898Z</time>
      </trkpt>
      <trkpt lat="46.69686" lon="15.63737">
        <ele>266.81107</ele>
        <time>2022-08-06T13:46:05.928Z</time>
      </trkpt>
      <trkpt lat="46.6987" lon="15.63676">
        <ele>265.435756</ele>
        <time>2022-08-06T13:46:53.467Z</time>
      </trkpt>
      <trkpt lat="46.69901" lon="15.6367">
        <ele>265.289233</ele>
        <time>2022-08-06T13:47:02.676Z</time>
      </trkpt>
      <trkpt lat="46.69939" lon="15.63662">
        <ele>265.108066</ele>
        <time>2022-08-06T13:47:12.779Z</time>
      </trkpt>
      <trkpt lat="46.69949" lon="15.6366">
        <ele>265.062105</ele>
        <time>2022-08-06T13:47:15.223Z</time>
      </trkpt>
      <trkpt lat="46.69975" lon="15.63655">
        <ele>264.939</ele>
        <time>2022-08-06T13:47:21.312Z</time>
      </trkpt>
      <trkpt lat="46.69993" lon="15.63652">
        <ele>264.850462</ele>
        <time>2022-08-06T13:47:25.655Z</time>
      </trkpt>
      <trkpt lat="46.7" lon="15.63651">
        <ele>264.819199</ele>
        <time>2022-08-06T13:47:27.201Z</time>
      </trkpt>
      <trkpt lat="46.70003" lon="15.6365">
        <ele>264.804596</ele>
        <time>2022-08-06T13:47:27.924Z</time>
      </trkpt>
      <trkpt lat="46.70053" lon="15.63642">
        <ele>264.022469</ele>
        <time>2022-08-06T13:47:39.516Z</time>
      </trkpt>
      <trkpt lat="46.70106" lon="15.63634">
        <ele>263.037256</ele>
        <time>2022-08-06T13:47:50.713Z</time>
      </trkpt>
      <trkpt lat="46.70114" lon="15.63633">
        <ele>262.886862</ele>
        <time>2022-08-06T13:47:52.364Z</time>
      </trkpt>
      <trkpt lat="46.70131" lon="15.6363">
        <ele>262.569688</ele>
        <time>2022-08-06T13:47:55.827Z</time>
      </trkpt>
      <trkpt lat="46.70159" lon="15.63626">
        <ele>262.048619</ele>
        <time>2022-08-06T13:48:01.544Z</time>
      </trkpt>
      <trkpt lat="46.70302" lon="15.63603">
        <ele>259.985875</ele>
        <time>2022-08-06T13:48:32.426Z</time>
      </trkpt>
      <trkpt lat="46.70385" lon="15.6358">
        <ele>258.887172</ele>
        <time>2022-08-06T13:48:53.625Z</time>
      </trkpt>
      <trkpt lat="46.70477" lon="15.63541">
        <ele>257.77286</ele>
        <time>2022-08-06T13:49:15.251Z</time>
      </trkpt>
      <trkpt lat="46.70467" lon="15.63507">
        <ele>257.485013</ele>
        <time>2022-08-06T13:49:21.001Z</time>
      </trkpt>
      <trkpt lat="46.70557" lon="15.63472">
        <ele>256.512408</ele>
        <time>2022-08-06T13:49:41.432Z</time>
      </trkpt>
      <trkpt lat="46.70591" lon="15.63451">
        <ele>256.162079</ele>
        <time>2022-08-06T13:49:49.863Z</time>
      </trkpt>
      <trkpt lat="46.70608" lon="15.63439">
        <ele>255.979777</ele>
        <time>2022-08-06T13:49:54.468Z</time>
      </trkpt>
      <trkpt lat="46.70616" lon="15.63431">
        <ele>255.884063</ele>
        <time>2022-08-06T13:49:56.659Z</time>
      </trkpt>
      <trkpt lat="46.70687" lon="15.63353">
        <ele>255.196934</ele>
        <time>2022-08-06T13:50:18.048Z</time>
      </trkpt>
      <trkpt lat="46.70733" lon="15.63303">
        <ele>255.03064</ele>
        <time>2022-08-06T13:50:33.904Z</time>
      </trkpt>
      <trkpt lat="46.70787" lon="15.63241">
        <ele>254.831021</ele>
        <time>2022-08-06T13:50:51.396Z</time>
      </trkpt>
      <trkpt lat="46.70817" lon="15.63215">
        <ele>254.673951</ele>
        <time>2022-08-06T13:51:00.275Z</time>
      </trkpt>
      <trkpt lat="46.70859" lon="15.63214">
        <ele>254.034687</ele>
        <time>2022-08-06T13:51:10.774Z</time>
      </trkpt>
      <trkpt lat="46.70862" lon="15.63227">
        <ele>253.893268</ele>
        <time>2022-08-06T13:51:13.028Z</time>
      </trkpt>
      <trkpt lat="46.70868" lon="15.63238">
        <ele>253.748056</ele>
        <time>2022-08-06T13:51:15.250Z</time>
      </trkpt>
      <trkpt lat="46.70889" lon="15.63254">
        <ele>253.388815</ele>
        <time>2022-08-06T13:51:20.617Z</time>
      </trkpt>
      <trkpt lat="46.70903" lon="15.63276">
        <ele>253.08004</ele>
        <time>2022-08-06T13:51:25.046Z</time>
      </trkpt>
      <trkpt lat="46.70907" lon="15.63288">
        <ele>252.93719</ele>
        <time>2022-08-06T13:51:27.023Z</time>
      </trkpt>
      <trkpt lat="46.70908" lon="15.63308">
        <ele>252.732175</ele>
        <time>2022-08-06T13:51:29.832Z</time>
      </trkpt>
      <trkpt lat="46.70904" lon="15.63345">
        <ele>252.348751</ele>
        <time>2022-08-06T13:51:34.956Z</time>
      </trkpt>
      <trkpt lat="46.70899" lon="15.63389">
        <ele>251.869913</ele>
        <time>2022-08-06T13:51:40.898Z</time>
      </trkpt>
      <trkpt lat="46.70912" lon="15.63391">
        <ele>251.646712</ele>
        <time>2022-08-06T13:51:43.533Z</time>
      </trkpt>
      <trkpt lat="46.71042" lon="15.6341">
        <ele>249.370105</ele>
        <time>2022-08-06T13:52:11.201Z</time>
      </trkpt>
      <trkpt lat="46.71051" lon="15.63412">
        <ele>249.201749</ele>
        <time>2022-08-06T13:52:13.548Z</time>
      </trkpt>
      <trkpt lat="46.71104" lon="15.63273">
        <ele>248.8727</ele>
        <time>2022-08-06T13:52:40.321Z</time>
      </trkpt>
      <trkpt lat="46.71145" lon="15.63164">
        <ele>248.85909</ele>
        <time>2022-08-06T13:53:06.282Z</time>
      </trkpt>
      <trkpt lat="46.71164" lon="15.63136">
        <ele>248.91533</ele>
        <time>2022-08-06T13:53:14.310Z</time>
      </trkpt>
      <trkpt lat="46.71263" lon="15.62934">
        <ele>249.352113</ele>
        <time>2022-08-06T13:54:00.697Z</time>
      </trkpt>
      <trkpt lat="46.71273" lon="15.62927">
        <ele>249.399448</ele>
        <time>2022-08-06T13:54:03.750Z</time>
      </trkpt>
      <trkpt lat="46.71292" lon="15.62934">
        <ele>249.481138</ele>
        <time>2022-08-06T13:54:09.012Z</time>
      </trkpt>
      <trkpt lat="46.71303" lon="15.62913">
        <ele>249.560311</ele>
        <time>2022-08-06T13:54:14.234Z</time>
      </trkpt>
      <trkpt lat="46.71291" lon="15.62887">
        <ele>249.654689</ele>
        <time>2022-08-06T13:54:20.535Z</time>
      </trkpt>
      <trkpt lat="46.71294" lon="15.6287">
        <ele>249.705594</ele>
        <time>2022-08-06T13:54:24.023Z</time>
      </trkpt>
      <trkpt lat="46.71341" lon="15.62817">
        <ele>249.960831</ele>
        <time>2022-08-06T13:54:41.703Z</time>
      </trkpt>
      <trkpt lat="46.71387" lon="15.62733">
        <ele>250.282126</ele>
        <time>2022-08-06T13:55:03.604Z</time>
      </trkpt>
      <trkpt lat="46.71449" lon="15.62666">
        <ele>250.621444</ele>
        <time>2022-08-06T13:55:26.684Z</time>
      </trkpt>
      <trkpt lat="46.71639" lon="15.62348">
        <ele>250.970844</ele>
        <time>2022-08-06T13:56:43.517Z</time>
      </trkpt>
      <trkpt lat="46.71648" lon="15.6234">
        <ele>250.997239</ele>
        <time>2022-08-06T13:56:46.162Z</time>
      </trkpt>
      <trkpt lat="46.71659" lon="15.62329">
        <ele>251.03475</ele>
        <time>2022-08-06T13:56:49.921Z</time>
      </trkpt>
      <trkpt lat="46.71771" lon="15.62275">
        <ele>251.311373</ele>
        <time>2022-08-06T13:57:24.351Z</time>
      </trkpt>
      <trkpt lat="46.71797" lon="15.62243">
        <ele>251.337516</ele>
        <time>2022-08-06T13:57:34.224Z</time>
      </trkpt>
      <trkpt lat="46.71875" lon="15.62124">
        <ele>251.423506</ele>
        <time>2022-08-06T13:58:04.702Z</time>
      </trkpt>
      <trkpt lat="46.71866" lon="15.62108">
        <ele>251.432396</ele>
        <time>2022-08-06T13:58:08.302Z</time>
      </trkpt>
      <trkpt lat="46.71928" lon="15.62011">
        <ele>250.752844</ele>
        <time>2022-08-06T13:58:29.480Z</time>
      </trkpt>
      <trkpt lat="46.71955" lon="15.6196">
        <ele>250.417528</ele>
        <time>2022-08-06T13:58:39.448Z</time>
      </trkpt>
      <trkpt lat="46.71995" lon="15.61824">
        <ele>250.465678</ele>
        <time>2022-08-06T13:59:04.524Z</time>
      </trkpt>
      <trkpt lat="46.72051" lon="15.6159">
        <ele>251.81924</ele>
        <time>2022-08-06T14:00:00.262Z</time>
      </trkpt>
      <trkpt lat="46.7209" lon="15.61428">
        <ele>253.150525</ele>
        <time>2022-08-06T14:00:39.003Z</time>
      </trkpt>
      <trkpt lat="46.72163" lon="15.61224">
        <ele>254.059484</ele>
        <time>2022-08-06T14:01:24.105Z</time>
      </trkpt>
      <trkpt lat="46.72237" lon="15.60993">
        <ele>255.121292</ele>
        <time>2022-08-06T14:02:15.845Z</time>
      </trkpt>
      <trkpt lat="46.72334" lon="15.60749">
        <ele>256.17744</ele>
        <time>2022-08-06T14:03:13.958Z</time>
      </trkpt>
      <trkpt lat="46.72429" lon="15.60549">
        <ele>256.130861</ele>
        <time>2022-08-06T14:03:58.510Z</time>
      </trkpt>
      <trkpt lat="46.72446" lon="15.60502">
        <ele>256.078548</ele>
        <time>2022-08-06T14:04:07.234Z</time>
      </trkpt>
      <trkpt lat="46.7252" lon="15.60212">
        <ele>254.896796</ele>
        <time>2022-08-06T14:04:57.816Z</time>
      </trkpt>
      <trkpt lat="46.72644" lon="15.59615">
        <ele>255.869682</ele>
        <time>2022-08-06T14:06:58.441Z</time>
      </trkpt>
      <trkpt lat="46.72708" lon="15.59411">
        <ele>256.277144</ele>
        <time>2022-08-06T14:07:41.525Z</time>
      </trkpt>
      <trkpt lat="46.72818" lon="15.59099">
        <ele>256.725037</ele>
        <time>2022-08-06T14:08:47.820Z</time>
      </trkpt>
      <trkpt lat="46.72858" lon="15.58949">
        <ele>256.783165</ele>
        <time>2022-08-06T14:09:17.548Z</time>
      </trkpt>
      <trkpt lat="46.72867" lon="15.58915">
        <ele>256.775713</ele>
        <time>2022-08-06T14:09:24.385Z</time>
      </trkpt>
      <trkpt lat="46.72898" lon="15.5871">
        <ele>256.51984</ele>
        <time>2022-08-06T14:10:02.243Z</time>
      </trkpt>
      <trkpt lat="46.72905" lon="15.58635">
        <ele>256.279302</ele>
        <time>2022-08-06T14:10:14.761Z</time>
      </trkpt>
      <trkpt lat="46.72903" lon="15.58623">
        <ele>256.240127</ele>
        <time>2022-08-06T14:10:16.891Z</time>
      </trkpt>
      <trkpt lat="46.72902" lon="15.5857">
        <ele>256.072009</ele>
        <time>2022-08-06T14:10:25.687Z</time>
      </trkpt>
      <trkpt lat="46.7291" lon="15.585">
        <ele>255.882117</ele>
        <time>2022-08-06T14:10:37.447Z</time>
      </trkpt>
      <trkpt lat="46.7291" lon="15.58495">
        <ele>255.874511</ele>
        <time>2022-08-06T14:10:38.322Z</time>
      </trkpt>
      <trkpt lat="46.72911" lon="15.58473">
        <ele>255.843253</ele>
        <time>2022-08-06T14:10:41.926Z</time>
      </trkpt>
      <trkpt lat="46.7291" lon="15.58455">
        <ele>255.817123</ele>
        <time>2022-08-06T14:10:44.888Z</time>
      </trkpt>
      <trkpt lat="46.72909" lon="15.58451">
        <ele>255.810638</ele>
        <time>2022-08-06T14:10:45.686Z</time>
      </trkpt>
      <trkpt lat="46.72907" lon="15.58445">
        <ele>255.801808</ele>
        <time>2022-08-06T14:10:46.710Z</time>
      </trkpt>
      <trkpt lat="46.72909" lon="15.58366">
        <ele>255.686872</ele>
        <time>2022-08-06T14:11:00.112Z</time>
      </trkpt>
      <trkpt lat="46.72892" lon="15.58172">
        <ele>255.948072</ele>
        <time>2022-08-06T14:11:37.968Z</time>
      </trkpt>
      <trkpt lat="46.72892" lon="15.58134">
        <ele>256.122191</ele>
        <time>2022-08-06T14:11:45.875Z</time>
      </trkpt>
      <trkpt lat="46.72909" lon="15.58047">
        <ele>256.537578</ele>
        <time>2022-08-06T14:12:04.853Z</time>
      </trkpt>
      <trkpt lat="46.72941" lon="15.57972">
        <ele>257.096343</ele>
        <time>2022-08-06T14:12:23.622Z</time>
      </trkpt>
      <trkpt lat="46.73" lon="15.57884">
        <ele>258.122246</ele>
        <time>2022-08-06T14:12:50.937Z</time>
      </trkpt>
      <trkpt lat="46.73047" lon="15.57849">
        <ele>258.760117</ele>
        <time>2022-08-06T14:13:08.470Z</time>
      </trkpt>
      <trkpt lat="46.73092" lon="15.57829">
        <ele>259.30625</ele>
        <time>2022-08-06T14:13:24.180Z</time>
      </trkpt>
      <trkpt lat="46.73156" lon="15.57815">
        <ele>260.053135</ele>
        <time>2022-08-06T14:13:45.728Z</time>
      </trkpt>
      <trkpt lat="46.73182" lon="15.57812">
        <ele>260.357522</ele>
        <time>2022-08-06T14:13:54.503Z</time>
      </trkpt>
      <trkpt lat="46.73342" lon="15.57843">
        <ele>261.352867</ele>
        <time>2022-08-06T14:14:43.155Z</time>
      </trkpt>
      <trkpt lat="46.73399" lon="15.57848">
        <ele>261.546389</ele>
        <time>2022-08-06T14:14:58.172Z</time>
      </trkpt>
      <trkpt lat="46.73504" lon="15.57841">
        <ele>261.341085</ele>
        <time>2022-08-06T14:15:24.204Z</time>
      </trkpt>
      <trkpt lat="46.73559" lon="15.5783">
        <ele>261.178542</ele>
        <time>2022-08-06T14:15:38.046Z</time>
      </trkpt>
      <trkpt lat="46.73627" lon="15.57805">
        <ele>261.201041</ele>
        <time>2022-08-06T14:15:56.729Z</time>
      </trkpt>
      <trkpt lat="46.73679" lon="15.57779">
        <ele>261.397981</ele>
        <time>2022-08-06T14:16:12.246Z</time>
      </trkpt>
      <trkpt lat="46.73782" lon="15.57702">
        <ele>261.836767</ele>
        <time>2022-08-06T14:16:46.519Z</time>
      </trkpt>
      <trkpt lat="46.74054" lon="15.57456">
        <ele>263.062565</ele>
        <time>2022-08-06T14:18:18.052Z</time>
      </trkpt>
      <trkpt lat="46.74244" lon="15.57293">
        <ele>263.059688</ele>
        <time>2022-08-06T14:19:16.231Z</time>
      </trkpt>
      <trkpt lat="46.74273" lon="15.5728">
        <ele>263.084043</ele>
        <time>2022-08-06T14:19:24.326Z</time>
      </trkpt>
      <trkpt lat="46.74475" lon="15.57234">
        <ele>263.29544</ele>
        <time>2022-08-06T14:20:20.235Z</time>
      </trkpt>
      <trkpt lat="46.74487" lon="15.57229">
        <ele>263.313635</ele>
        <time>2022-08-06T14:20:23.856Z</time>
      </trkpt>
      <trkpt lat="46.74538" lon="15.57231">
        <ele>263.384213</ele>
        <time>2022-08-06T14:20:37.614Z</time>
      </trkpt>
      <trkpt lat="46.74659" lon="15.57167">
        <ele>263.743179</ele>
        <time>2022-08-06T14:21:12.126Z</time>
      </trkpt>
      <trkpt lat="46.74679" lon="15.57155">
        <ele>263.816944</ele>
        <time>2022-08-06T14:21:18.285Z</time>
      </trkpt>
      <trkpt lat="46.74731" lon="15.57125">
        <ele>264.003069</ele>
        <time>2022-08-06T14:21:34.560Z</time>
      </trkpt>
      <trkpt lat="46.74955" lon="15.57014">
        <ele>266.365165</ele>
        <time>2022-08-06T14:22:50.884Z</time>
      </trkpt>
      <trkpt lat="46.7506" lon="15.56983">
        <ele>267.155299</ele>
        <time>2022-08-06T14:23:23.350Z</time>
      </trkpt>
      <trkpt lat="46.75184" lon="15.56968">
        <ele>267.36717</ele>
        <time>2022-08-06T14:23:57.014Z</time>
      </trkpt>
      <trkpt lat="46.75267" lon="15.5697">
        <ele>267.380945</ele>
        <time>2022-08-06T14:24:18.882Z</time>
      </trkpt>
      <trkpt lat="46.75868" lon="15.57096">
        <ele>266.19472</ele>
        <time>2022-08-06T14:26:55.600Z</time>
      </trkpt>
      <trkpt lat="46.76539" lon="15.57239">
        <ele>264.662272</ele>
        <time>2022-08-06T14:29:50.170Z</time>
      </trkpt>
      <trkpt lat="46.76547" lon="15.57257">
        <ele>264.581072</ele>
        <time>2022-08-06T14:29:53.821Z</time>
      </trkpt>
      <trkpt lat="46.76556" lon="15.57319">
        <ele>264.34063</ele>
        <time>2022-08-06T14:30:04.451Z</time>
      </trkpt>
      <trkpt lat="46.76566" lon="15.57348">
        <ele>264.21877</ele>
        <time>2022-08-06T14:30:09.694Z</time>
      </trkpt>
      <trkpt lat="46.76577" lon="15.57344">
        <ele>264.155365</ele>
        <time>2022-08-06T14:30:12.440Z</time>
      </trkpt>
      <trkpt lat="46.7659" lon="15.57341">
        <ele>264.08395</ele>
        <time>2022-08-06T14:30:15.517Z</time>
      </trkpt>
      <trkpt lat="46.76605" lon="15.57338">
        <ele>263.996812</ele>
        <time>2022-08-06T14:30:19.193Z</time>
      </trkpt>
      <trkpt lat="46.766" lon="15.57318">
        <ele>263.914544</ele>
        <time>2022-08-06T14:30:22.683Z</time>
      </trkpt>
      <trkpt lat="46.76602" lon="15.57289">
        <ele>263.820594</ele>
        <time>2022-08-06T14:30:27.238Z</time>
      </trkpt>
      <trkpt lat="46.76611" lon="15.5725">
        <ele>263.784708</ele>
        <time>2022-08-06T14:30:34.150Z</time>
      </trkpt>
      <trkpt lat="46.7663" lon="15.57207">
        <ele>263.740544</ele>
        <time>2022-08-06T14:30:43.429Z</time>
      </trkpt>
      <trkpt lat="46.76655" lon="15.57162">
        <ele>263.690417</ele>
        <time>2022-08-06T14:30:54.387Z</time>
      </trkpt>
      <trkpt lat="46.7668" lon="15.5713">
        <ele>263.64805</ele>
        <time>2022-08-06T14:31:03.535Z</time>
      </trkpt>
      <trkpt lat="46.76703" lon="15.57107">
        <ele>263.613692</ele>
        <time>2022-08-06T14:31:10.821Z</time>
      </trkpt>
      <trkpt lat="46.76701" lon="15.571">
        <ele>263.607305</ele>
        <time>2022-08-06T14:31:12.518Z</time>
      </trkpt>
      <trkpt lat="46.76726" lon="15.57077">
        <ele>263.586535</ele>
        <time>2022-08-06T14:31:20.460Z</time>
      </trkpt>
      <trkpt lat="46.76722" lon="15.57073">
        <ele>263.58386</ele>
        <time>2022-08-06T14:31:21.834Z</time>
      </trkpt>
      <trkpt lat="46.76675" lon="15.57014">
        <ele>263.552128</ele>
        <time>2022-08-06T14:31:39.058Z</time>
      </trkpt>
      <trkpt lat="46.76666" lon="15.57002">
        <ele>263.545812</ele>
        <time>2022-08-06T14:31:42.402Z</time>
      </trkpt>
      <trkpt lat="46.76537" lon="15.56848">
        <ele>263.419113</ele>
        <time>2022-08-06T14:32:28.049Z</time>
      </trkpt>
      <trkpt lat="46.76518" lon="15.56819">
        <ele>263.392227</ele>
        <time>2022-08-06T14:32:35.383Z</time>
      </trkpt>
      <trkpt lat="46.76494" lon="15.56748">
        <ele>263.339087</ele>
        <time>2022-08-06T14:32:50.163Z</time>
      </trkpt>
      <trkpt lat="46.76475" lon="15.56672">
        <ele>263.333265</ele>
        <time>2022-08-06T14:33:05.286Z</time>
      </trkpt>
      <trkpt lat="46.76459" lon="15.56605">
        <ele>263.337332</ele>
        <time>2022-08-06T14:33:18.945Z</time>
      </trkpt>
      <trkpt lat="46.76344" lon="15.56379">
        <ele>264.015249</ele>
        <time>2022-08-06T14:34:13.055Z</time>
      </trkpt>
      <trkpt lat="46.76274" lon="15.5621">
        <ele>264.975964</ele>
        <time>2022-08-06T14:35:00.201Z</time>
      </trkpt>
      <trkpt lat="46.7623" lon="15.56124">
        <ele>265.568028</ele>
        <time>2022-08-06T14:35:23.800Z</time>
      </trkpt>
      <trkpt lat="46.76185" lon="15.56053">
        <ele>265.831839</ele>
        <time>2022-08-06T14:35:42.117Z</time>
      </trkpt>
      <trkpt lat="46.76125" lon="15.56">
        <ele>265.570257</ele>
        <time>2022-08-06T14:36:00.857Z</time>
      </trkpt>
      <trkpt lat="46.76097" lon="15.55971">
        <ele>265.441855</ele>
        <time>2022-08-06T14:36:09.386Z</time>
      </trkpt>
      <trkpt lat="46.7607" lon="15.5593">
        <ele>265.300892</ele>
        <time>2022-08-06T14:36:18.851Z</time>
      </trkpt>
      <trkpt lat="46.76053" lon="15.55889">
        <ele>265.29315</ele>
        <time>2022-08-06T14:36:27.245Z</time>
      </trkpt>
      <trkpt lat="46.76052" lon="15.55883">
        <ele>265.301929</ele>
        <time>2022-08-06T14:36:28.304Z</time>
      </trkpt>
      <trkpt lat="46.76123" lon="15.55853">
        <ele>265.472965</ele>
        <time>2022-08-06T14:36:49.403Z</time>
      </trkpt>
      <trkpt lat="46.76216" lon="15.55759">
        <ele>265.831624</ele>
        <time>2022-08-06T14:37:24.853Z</time>
      </trkpt>
      <trkpt lat="46.76277" lon="15.55688">
        <ele>266.25236</ele>
        <time>2022-08-06T14:37:48.664Z</time>
      </trkpt>
      <trkpt lat="46.76319" lon="15.55641">
        <ele>266.535996</ele>
        <time>2022-08-06T14:38:04.434Z</time>
      </trkpt>
      <trkpt lat="46.76363" lon="15.55587">
        <ele>266.766277</ele>
        <time>2022-08-06T14:38:21.475Z</time>
      </trkpt>
      <trkpt lat="46.76426" lon="15.55511">
        <ele>267.045769</ele>
        <time>2022-08-06T14:38:45.758Z</time>
      </trkpt>
      <trkpt lat="46.7654" lon="15.55353">
        <ele>267.178931</ele>
        <time>2022-08-06T14:39:31.488Z</time>
      </trkpt>
      <trkpt lat="46.76607" lon="15.55274">
        <ele>267.095025</ele>
        <time>2022-08-06T14:39:53.835Z</time>
      </trkpt>
      <trkpt lat="46.76609" lon="15.55265">
        <ele>267.056076</ele>
        <time>2022-08-06T14:39:55.413Z</time>
      </trkpt>
      <trkpt lat="46.76633" lon="15.55233">
        <ele>266.862938</ele>
        <time>2022-08-06T14:40:03.428Z</time>
      </trkpt>
      <trkpt lat="46.7664" lon="15.55228">
        <ele>266.813997</ele>
        <time>2022-08-06T14:40:05.464Z</time>
      </trkpt>
      <trkpt lat="46.76635" lon="15.55203">
        <ele>266.70857</ele>
        <time>2022-08-06T14:40:09.698Z</time>
      </trkpt>
      <trkpt lat="46.76664" lon="15.55183">
        <ele>266.513149</ele>
        <time>2022-08-06T14:40:17.927Z</time>
      </trkpt>
      <trkpt lat="46.76687" lon="15.55159">
        <ele>266.343551</ele>
        <time>2022-08-06T14:40:25.120Z</time>
      </trkpt>
      <trkpt lat="46.76696" lon="15.55133">
        <ele>266.225847</ele>
        <time>2022-08-06T14:40:30.083Z</time>
      </trkpt>
      <trkpt lat="46.76705" lon="15.5511">
        <ele>266.118166</ele>
        <time>2022-08-06T14:40:34.651Z</time>
      </trkpt>
      <trkpt lat="46.76719" lon="15.55097">
        <ele>266.032448</ele>
        <time>2022-08-06T14:40:39.103Z</time>
      </trkpt>
      <trkpt lat="46.76744" lon="15.55095">
        <ele>265.974689</ele>
        <time>2022-08-06T14:40:45.407Z</time>
      </trkpt>
      <trkpt lat="46.76746" lon="15.55089">
        <ele>265.962834</ele>
        <time>2022-08-06T14:40:46.697Z</time>
      </trkpt>
      <trkpt lat="46.76763" lon="15.55081">
        <ele>265.919962</ele>
        <time>2022-08-06T14:40:51.337Z</time>
      </trkpt>
      <trkpt lat="46.76841" lon="15.55003">
        <ele>265.695932</ele>
        <time>2022-08-06T14:41:15.839Z</time>
      </trkpt>
      <trkpt lat="46.76897" lon="15.54956">
        <ele>265.616037</ele>
        <time>2022-08-06T14:41:33.089Z</time>
      </trkpt>
      <trkpt lat="46.76964" lon="15.54929">
        <ele>265.608495</ele>
        <time>2022-08-06T14:41:51.372Z</time>
      </trkpt>
      <trkpt lat="46.77" lon="15.54884">
        <ele>265.603388</ele>
        <time>2022-08-06T14:42:03.942Z</time>
      </trkpt>
      <trkpt lat="46.77022" lon="15.54838">
        <ele>265.592797</ele>
        <time>2022-08-06T14:42:14.269Z</time>
      </trkpt>
      <trkpt lat="46.77105" lon="15.54791">
        <ele>265.505408</ele>
        <time>2022-08-06T14:42:38.095Z</time>
      </trkpt>
      <trkpt lat="46.77115" lon="15.54786">
        <ele>265.494884</ele>
        <time>2022-08-06T14:42:40.963Z</time>
      </trkpt>
      <trkpt lat="46.77154" lon="15.54763">
        <ele>265.453855</ele>
        <time>2022-08-06T14:42:51.860Z</time>
      </trkpt>
      <trkpt lat="46.77174" lon="15.54742">
        <ele>265.429506</ele>
        <time>2022-08-06T14:42:58.259Z</time>
      </trkpt>
      <trkpt lat="46.77187" lon="15.54717">
        <ele>265.367611</ele>
        <time>2022-08-06T14:43:03.825Z</time>
      </trkpt>
      <trkpt lat="46.77152" lon="15.54546">
        <ele>264.925384</ele>
        <time>2022-08-06T14:43:36.006Z</time>
      </trkpt>
      <trkpt lat="46.77136" lon="15.54439">
        <ele>264.67822</ele>
        <time>2022-08-06T14:43:55.362Z</time>
      </trkpt>
      <trkpt lat="46.77134" lon="15.54369">
        <ele>264.53849</ele>
        <time>2022-08-06T14:44:07.927Z</time>
      </trkpt>
      <trkpt lat="46.77139" lon="15.54333">
        <ele>264.464836</ele>
        <time>2022-08-06T14:44:14.698Z</time>
      </trkpt>
      <trkpt lat="46.77148" lon="15.54302">
        <ele>264.398139</ele>
        <time>2022-08-06T14:44:20.830Z</time>
      </trkpt>
      <trkpt lat="46.7717" lon="15.54211">
        <ele>264.298855</ele>
        <time>2022-08-06T14:44:38.859Z</time>
      </trkpt>
      <trkpt lat="46.7719" lon="15.54149">
        <ele>264.432</ele>
        <time>2022-08-06T14:44:51.950Z</time>
      </trkpt>
      <trkpt lat="46.77289" lon="15.53959">
        <ele>264.8865</ele>
        <time>2022-08-06T14:45:40.950Z</time>
      </trkpt>
      <trkpt lat="46.77323" lon="15.53882">
        <ele>265.052871</ele>
        <time>2022-08-06T14:45:59.676Z</time>
      </trkpt>
      <trkpt lat="46.77324" lon="15.53878">
        <ele>265.061442</ele>
        <time>2022-08-06T14:46:00.606Z</time>
      </trkpt>
      <trkpt lat="46.77336" lon="15.53793">
        <ele>265.217816</ele>
        <time>2022-08-06T14:46:16.503Z</time>
      </trkpt>
      <trkpt lat="46.77333" lon="15.53763">
        <ele>265.265506</ele>
        <time>2022-08-06T14:46:22.014Z</time>
      </trkpt>
      <trkpt lat="46.77324" lon="15.53735">
        <ele>265.310006</ele>
        <time>2022-08-06T14:46:27.546Z</time>
      </trkpt>
      <trkpt lat="46.77284" lon="15.53665">
        <ele>265.441718</ele>
        <time>2022-08-06T14:46:43.581Z</time>
      </trkpt>
      <trkpt lat="46.77261" lon="15.53624">
        <ele>265.517528</ele>
        <time>2022-08-06T14:46:52.660Z</time>
      </trkpt>
      <trkpt lat="46.77172" lon="15.53467">
        <ele>266.774248</ele>
        <time>2022-08-06T14:47:37.904Z</time>
      </trkpt>
      <trkpt lat="46.77166" lon="15.53454">
        <ele>266.911955</ele>
        <time>2022-08-06T14:47:41.723Z</time>
      </trkpt>
      <trkpt lat="46.77147" lon="15.53414">
        <ele>267.33004</ele>
        <time>2022-08-06T14:47:52.751Z</time>
      </trkpt>
      <trkpt lat="46.77143" lon="15.53408">
        <ele>267.402323</ele>
        <time>2022-08-06T14:47:55.020Z</time>
      </trkpt>
      <trkpt lat="46.77095" lon="15.53429">
        <ele>268.010532</ele>
        <time>2022-08-06T14:48:11.281Z</time>
      </trkpt>
      <trkpt lat="46.7705" lon="15.53441">
        <ele>268.502821</ele>
        <time>2022-08-06T14:48:26.692Z</time>
      </trkpt>
      <trkpt lat="46.77024" lon="15.53442">
        <ele>268.774764</ele>
        <time>2022-08-06T14:48:35.313Z</time>
      </trkpt>
      <trkpt lat="46.76975" lon="15.5342">
        <ele>269.320658</ele>
        <time>2022-08-06T14:48:49.869Z</time>
      </trkpt>
      <trkpt lat="46.76923" lon="15.53374">
        <ele>270.199732</ele>
        <time>2022-08-06T14:49:08.070Z</time>
      </trkpt>
      <trkpt lat="46.7688" lon="15.53356">
        <ele>271.376814</ele>
        <time>2022-08-06T14:49:24.195Z</time>
      </trkpt>
      <trkpt lat="46.76864" lon="15.53264">
        <ele>273.059009</ele>
        <time>2022-08-06T14:49:49.067Z</time>
      </trkpt>
      <trkpt lat="46.76851" lon="15.53154">
        <ele>275.881541</ele>
        <time>2022-08-06T14:50:23.943Z</time>
      </trkpt>
      <trkpt lat="46.76851" lon="15.53119">
        <ele>277.387844</ele>
        <time>2022-08-06T14:50:36.226Z</time>
      </trkpt>
      <trkpt lat="46.7686" lon="15.53082">
        <ele>279.097638</ele>
        <time>2022-08-06T14:50:51.121Z</time>
      </trkpt>
      <trkpt lat="46.76893" lon="15.53019">
        <ele>282.51146</ele>
        <time>2022-08-06T14:51:22.693Z</time>
      </trkpt>
      <trkpt lat="46.76914" lon="15.52942">
        <ele>286.265058</ele>
        <time>2022-08-06T14:51:57.441Z</time>
      </trkpt>
      <trkpt lat="46.76986" lon="15.52851">
        <ele>296.324887</ele>
        <time>2022-08-06T14:53:07.215Z</time>
      </trkpt>
      <trkpt lat="46.77022" lon="15.52822">
        <ele>300.683375</ele>
        <time>2022-08-06T14:53:41.742Z</time>
      </trkpt>
      <trkpt lat="46.77214" lon="15.52707">
        <ele>325.971789</ele>
        <time>2022-08-06T14:56:46.102Z</time>
      </trkpt>
      <trkpt lat="46.7724" lon="15.52681">
        <ele>329.076267</ele>
        <time>2022-08-06T14:57:11.704Z</time>
      </trkpt>
      <trkpt lat="46.77271" lon="15.52634">
        <ele>332.736771</ele>
        <time>2022-08-06T14:57:46.491Z</time>
      </trkpt>
      <trkpt lat="46.77294" lon="15.52614">
        <ele>334.92151</ele>
        <time>2022-08-06T14:58:04.795Z</time>
      </trkpt>
      <trkpt lat="46.77369" lon="15.52585">
        <ele>341.299842</ele>
        <time>2022-08-06T14:58:49.375Z</time>
      </trkpt>
      <trkpt lat="46.77407" lon="15.52587">
        <ele>343.107438</ele>
        <time>2022-08-06T14:59:08.065Z</time>
      </trkpt>
      <trkpt lat="46.77434" lon="15.52605">
        <ele>344.106267</ele>
        <time>2022-08-06T14:59:21.447Z</time>
      </trkpt>
      <trkpt lat="46.77445" lon="15.52624">
        <ele>344.646834</ele>
        <time>2022-08-06T14:59:28.465Z</time>
      </trkpt>
      <trkpt lat="46.77473" lon="15.52641">
        <ele>345.658304</ele>
        <time>2022-08-06T14:59:43.053Z</time>
      </trkpt>
      <trkpt lat="46.77513" lon="15.52628">
        <ele>347.016539</ele>
        <time>2022-08-06T15:00:01.821Z</time>
      </trkpt>
      <trkpt lat="46.77562" lon="15.52625">
        <ele>348.003255</ele>
        <time>2022-08-06T15:00:20.282Z</time>
      </trkpt>
      <trkpt lat="46.77576" lon="15.52622">
        <ele>347.859329</ele>
        <time>2022-08-06T15:00:23.454Z</time>
      </trkpt>
      <trkpt lat="46.77592" lon="15.52607">
        <ele>347.657179</ele>
        <time>2022-08-06T15:00:27.506Z</time>
      </trkpt>
      <trkpt lat="46.77606" lon="15.52569">
        <ele>347.342741</ele>
        <time>2022-08-06T15:00:33.583Z</time>
      </trkpt>
      <trkpt lat="46.77626" lon="15.52506">
        <ele>346.839518</ele>
        <time>2022-08-06T15:00:43.467Z</time>
      </trkpt>
      <trkpt lat="46.77644" lon="15.52484">
        <ele>346.589217</ele>
        <time>2022-08-06T15:00:50.622Z</time>
      </trkpt>
      <trkpt lat="46.77681" lon="15.52461">
        <ele>346.020764</ele>
        <time>2022-08-06T15:01:02.198Z</time>
      </trkpt>
      <trkpt lat="46.7771" lon="15.52429">
        <ele>344.954455</ele>
        <time>2022-08-06T15:01:11.804Z</time>
      </trkpt>
      <trkpt lat="46.77716" lon="15.52416">
        <ele>344.629567</ele>
        <time>2022-08-06T15:01:14.253Z</time>
      </trkpt>
      <trkpt lat="46.77705" lon="15.52405">
        <ele>344.245169</ele>
        <time>2022-08-06T15:01:17.002Z</time>
      </trkpt>
      <trkpt lat="46.77645" lon="15.52374">
        <ele>342.36202</ele>
        <time>2022-08-06T15:01:29.197Z</time>
      </trkpt>
      <trkpt lat="46.77619" lon="15.52329">
        <ele>341.191198</ele>
        <time>2022-08-06T15:01:37.155Z</time>
      </trkpt>
      <trkpt lat="46.77568" lon="15.52145">
        <ele>329.839021</ele>
        <time>2022-08-06T15:02:00.390Z</time>
      </trkpt>
      <trkpt lat="46.77569" lon="15.52117">
        <ele>328.204151</ele>
        <time>2022-08-06T15:02:03.398Z</time>
      </trkpt>
      <trkpt lat="46.776" lon="15.52051">
        <ele>323.281286</ele>
        <time>2022-08-06T15:02:12.038Z</time>
      </trkpt>
      <trkpt lat="46.77618" lon="15.51996">
        <ele>319.399524</ele>
        <time>2022-08-06T15:02:18.644Z</time>
      </trkpt>
      <trkpt lat="46.77631" lon="15.51874">
        <ele>311.556506</ele>
        <time>2022-08-06T15:02:32.314Z</time>
      </trkpt>
      <trkpt lat="46.77633" lon="15.51816">
        <ele>308.665563</ele>
        <time>2022-08-06T15:02:42.388Z</time>
      </trkpt>
      <trkpt lat="46.77556" lon="15.51646">
        <ele>309.860628</ele>
        <time>2022-08-06T15:03:30.707Z</time>
      </trkpt>
      <trkpt lat="46.77449" lon="15.51499">
        <ele>312.451504</ele>
        <time>2022-08-06T15:04:35.612Z</time>
      </trkpt>
      <trkpt lat="46.77388" lon="15.51425">
        <ele>313.364948</ele>
        <time>2022-08-06T15:04:57.478Z</time>
      </trkpt>
      <trkpt lat="46.77342" lon="15.51349">
        <ele>311.332448</ele>
        <time>2022-08-06T15:05:11.740Z</time>
      </trkpt>
      <trkpt lat="46.772" lon="15.51207">
        <ele>305.511524</ele>
        <time>2022-08-06T15:05:43.924Z</time>
      </trkpt>
      <trkpt lat="46.77143" lon="15.51161">
        <ele>302.937136</ele>
        <time>2022-08-06T15:05:56.107Z</time>
      </trkpt>
      <trkpt lat="46.77066" lon="15.51061">
        <ele>298.254952</ele>
        <time>2022-08-06T15:06:16.014Z</time>
      </trkpt>
      <trkpt lat="46.77041" lon="15.51018">
        <ele>296.361554</ele>
        <time>2022-08-06T15:06:23.108Z</time>
      </trkpt>
      <trkpt lat="46.77021" lon="15.51002">
        <ele>295.274424</ele>
        <time>2022-08-06T15:06:27.198Z</time>
      </trkpt>
      <trkpt lat="46.77001" lon="15.51">
        <ele>294.270416</ele>
        <time>2022-08-06T15:06:30.782Z</time>
      </trkpt>
      <trkpt lat="46.7699" lon="15.50984">
        <ele>293.51105</ele>
        <time>2022-08-06T15:06:33.519Z</time>
      </trkpt>
      <trkpt lat="46.76946" lon="15.50883">
        <ele>288.165842</ele>
        <time>2022-08-06T15:06:47.481Z</time>
      </trkpt>
      <trkpt lat="46.76928" lon="15.5086">
        <ele>286.514351</ele>
        <time>2022-08-06T15:06:51.521Z</time>
      </trkpt>
      <trkpt lat="46.76838" lon="15.50777">
        <ele>279.465915</ele>
        <time>2022-08-06T15:07:09.781Z</time>
      </trkpt>
      <trkpt lat="46.76795" lon="15.5075">
        <ele>277.631008</ele>
        <time>2022-08-06T15:07:21.275Z</time>
      </trkpt>
      <trkpt lat="46.76751" lon="15.50734">
        <ele>275.839576</ele>
        <time>2022-08-06T15:07:32.890Z</time>
      </trkpt>
      <trkpt lat="46.7672" lon="15.50732">
        <ele>274.611639</ele>
        <time>2022-08-06T15:07:41.395Z</time>
      </trkpt>
      <trkpt lat="46.76721" lon="15.50717">
        <ele>274.211306</ele>
        <time>2022-08-06T15:07:43.656Z</time>
      </trkpt>
      <trkpt lat="46.76725" lon="15.50678">
        <ele>273.145141</ele>
        <time>2022-08-06T15:07:51.901Z</time>
      </trkpt>
      <trkpt lat="46.76726" lon="15.50667">
        <ele>272.919946</ele>
        <time>2022-08-06T15:07:54.492Z</time>
      </trkpt>
      <trkpt lat="46.76737" lon="15.50609">
        <ele>272.747656</ele>
        <time>2022-08-06T15:08:08.118Z</time>
      </trkpt>
      <trkpt lat="46.7682" lon="15.50427">
        <ele>272.203381</ele>
        <time>2022-08-06T15:08:59.265Z</time>
      </trkpt>
      <trkpt lat="46.76813" lon="15.50392">
        <ele>272.24671</ele>
        <time>2022-08-06T15:09:07.981Z</time>
      </trkpt>
      <trkpt lat="46.76735" lon="15.50147">
        <ele>272.806549</ele>
        <time>2022-08-06T15:10:14.972Z</time>
      </trkpt>
      <trkpt lat="46.76735" lon="15.5013">
        <ele>272.889143</ele>
        <time>2022-08-06T15:10:19.292Z</time>
      </trkpt>
      <trkpt lat="46.7674" lon="15.50114">
        <ele>272.980799</ele>
        <time>2022-08-06T15:10:24.129Z</time>
      </trkpt>
      <trkpt lat="46.76673" lon="15.49991">
        <ele>273.758834</ele>
        <time>2022-08-06T15:10:57.685Z</time>
      </trkpt>
      <trkpt lat="46.76681" lon="15.49982">
        <ele>273.844558</ele>
        <time>2022-08-06T15:11:00.971Z</time>
      </trkpt>
      <trkpt lat="46.76743" lon="15.49915">
        <ele>274.584071</ele>
        <time>2022-08-06T15:11:25.919Z</time>
      </trkpt>
      <trkpt lat="46.7682" lon="15.49833">
        <ele>275.486328</ele>
        <time>2022-08-06T15:11:55.642Z</time>
      </trkpt>
      <trkpt lat="46.76906" lon="15.49742">
        <ele>275.754145</ele>
        <time>2022-08-06T15:12:45.196Z</time>
      </trkpt>
      <trkpt lat="46.77005" lon="15.49875">
        <ele>275.872997</ele>
        <time>2022-08-06T15:13:43.961Z</time>
      </trkpt>
      <trkpt lat="46.77147" lon="15.49733">
        <ele>276.40792</ele>
        <time>2022-08-06T15:14:59.724Z</time>
      </trkpt>
      <trkpt lat="46.77152" lon="15.49729">
        <ele>276.483371</ele>
        <time>2022-08-06T15:15:02.425Z</time>
      </trkpt>
      <trkpt lat="46.77156" lon="15.49725">
        <ele>276.543854</ele>
        <time>2022-08-06T15:15:04.619Z</time>
      </trkpt>
      <trkpt lat="46.77166" lon="15.49717">
        <ele>276.696711</ele>
        <time>2022-08-06T15:15:10.409Z</time>
      </trkpt>
      <trkpt lat="46.77192" lon="15.49714">
        <ele>277.028558</ele>
        <time>2022-08-06T15:15:23.316Z</time>
      </trkpt>
      <trkpt lat="46.77241" lon="15.49722">
        <ele>277.655308</ele>
        <time>2022-08-06T15:15:49.924Z</time>
      </trkpt>
      <trkpt lat="46.77276" lon="15.49727">
        <ele>278.204388</ele>
        <time>2022-08-06T15:16:10.022Z</time>
      </trkpt>
      <trkpt lat="46.77313" lon="15.49733">
        <ele>279.463045</ele>
        <time>2022-08-06T15:16:25.124Z</time>
      </trkpt>
      <trkpt lat="46.77301" lon="15.49639">
        <ele>281.677316</ele>
        <time>2022-08-06T15:16:53.823Z</time>
      </trkpt>
      <trkpt lat="46.77294" lon="15.49515">
        <ele>284.65914</ele>
        <time>2022-08-06T15:17:33.697Z</time>
      </trkpt>
      <trkpt lat="46.77308" lon="15.49347">
        <ele>289.417616</ele>
        <time>2022-08-06T15:18:28.520Z</time>
      </trkpt>
      <trkpt lat="46.77337" lon="15.49238">
        <ele>293.609159</ele>
        <time>2022-08-06T15:19:07.290Z</time>
      </trkpt>
      <trkpt lat="46.7734" lon="15.49186">
        <ele>296.168791</ele>
        <time>2022-08-06T15:19:24.620Z</time>
      </trkpt>
      <trkpt lat="46.77335" lon="15.49153">
        <ele>297.835685</ele>
        <time>2022-08-06T15:19:36.027Z</time>
      </trkpt>
      <trkpt lat="46.77321" lon="15.49109">
        <ele>300.223713</ele>
        <time>2022-08-06T15:19:56.394Z</time>
      </trkpt>
      <trkpt lat="46.77252" lon="15.48994">
        <ele>310.067848</ele>
        <time>2022-08-06T15:21:22.320Z</time>
      </trkpt>
      <trkpt lat="46.77238" lon="15.48963">
        <ele>313.235516</ele>
        <time>2022-08-06T15:21:43.173Z</time>
      </trkpt>
      <trkpt lat="46.77234" lon="15.48939">
        <ele>315.297116</ele>
        <time>2022-08-06T15:21:59.468Z</time>
      </trkpt>
      <trkpt lat="46.77243" lon="15.4888">
        <ele>320.366624</ele>
        <time>2022-08-06T15:22:36.622Z</time>
      </trkpt>
      <trkpt lat="46.77255" lon="15.48851">
        <ele>323.180566</ele>
        <time>2022-08-06T15:22:56.289Z</time>
      </trkpt>
      <trkpt lat="46.7727" lon="15.48839">
        <ele>325.336369</ele>
        <time>2022-08-06T15:23:13.196Z</time>
      </trkpt>
      <trkpt lat="46.77328" lon="15.48823">
        <ele>330.951293</ele>
        <time>2022-08-06T15:24:07.077Z</time>
      </trkpt>
      <trkpt lat="46.77355" lon="15.48802">
        <ele>333.703058</ele>
        <time>2022-08-06T15:24:32.515Z</time>
      </trkpt>
      <trkpt lat="46.77384" lon="15.48765">
        <ele>337.077453</ele>
        <time>2022-08-06T15:24:56.487Z</time>
      </trkpt>
      <trkpt lat="46.77401" lon="15.48759">
        <ele>338.686539</ele>
        <time>2022-08-06T15:25:07.057Z</time>
      </trkpt>
      <trkpt lat="46.7744" lon="15.4876">
        <ele>342.192507</ele>
        <time>2022-08-06T15:25:28.564Z</time>
      </trkpt>
      <trkpt lat="46.77468" lon="15.48773">
        <ele>343.242578</ele>
        <time>2022-08-06T15:25:43.732Z</time>
      </trkpt>
      <trkpt lat="46.7749" lon="15.48808">
        <ele>343.972692</ele>
        <time>2022-08-06T15:25:58.876Z</time>
      </trkpt>
      <trkpt lat="46.77496" lon="15.4884">
        <ele>344.480084</ele>
        <time>2022-08-06T15:26:08.078Z</time>
      </trkpt>
      <trkpt lat="46.77502" lon="15.48937">
        <ele>345.97998</ele>
        <time>2022-08-06T15:26:31.049Z</time>
      </trkpt>
      <trkpt lat="46.77521" lon="15.49026">
        <ele>346.401934</ele>
        <time>2022-08-06T15:26:47.897Z</time>
      </trkpt>
      <trkpt lat="46.77559" lon="15.49014">
        <ele>345.934502</ele>
        <time>2022-08-06T15:26:57.206Z</time>
      </trkpt>
      <trkpt lat="46.7759" lon="15.48995">
        <ele>345.526088</ele>
        <time>2022-08-06T15:27:04.979Z</time>
      </trkpt>
      <trkpt lat="46.77614" lon="15.48986">
        <ele>345.2292</ele>
        <time>2022-08-06T15:27:10.269Z</time>
      </trkpt>
      <trkpt lat="46.77653" lon="15.48977">
        <ele>344.755542</ele>
        <time>2022-08-06T15:27:18.384Z</time>
      </trkpt>
      <trkpt lat="46.77685" lon="15.48972">
        <ele>344.366335</ele>
        <time>2022-08-06T15:27:25.037Z</time>
      </trkpt>
      <trkpt lat="46.77748" lon="15.48956">
        <ele>343.590784</ele>
        <time>2022-08-06T15:27:38.818Z</time>
      </trkpt>
      <trkpt lat="46.77806" lon="15.48904">
        <ele>342.771718</ele>
        <time>2022-08-06T15:27:55.213Z</time>
      </trkpt>
      <trkpt lat="46.77872" lon="15.48855">
        <ele>342.914381</ele>
        <time>2022-08-06T15:28:13.320Z</time>
      </trkpt>
      <trkpt lat="46.7794" lon="15.48787">
        <ele>343.838353</ele>
        <time>2022-08-06T15:28:37.903Z</time>
      </trkpt>
      <trkpt lat="46.78009" lon="15.48745">
        <ele>345.240877</ele>
        <time>2022-08-06T15:29:09.188Z</time>
      </trkpt>
      <trkpt lat="46.78015" lon="15.48731">
        <ele>345.660798</ele>
        <time>2022-08-06T15:29:13.638Z</time>
      </trkpt>
      <trkpt lat="46.78015" lon="15.48711">
        <ele>346.166881</ele>
        <time>2022-08-06T15:29:19.163Z</time>
      </trkpt>
      <trkpt lat="46.78006" lon="15.4868">
        <ele>347.021936</ele>
        <time>2022-08-06T15:29:28.992Z</time>
      </trkpt>
      <trkpt lat="46.77987" lon="15.48637">
        <ele>348.357533</ele>
        <time>2022-08-06T15:29:45.088Z</time>
      </trkpt>
      <trkpt lat="46.77988" lon="15.48608">
        <ele>349.083861</ele>
        <time>2022-08-06T15:29:53.811Z</time>
      </trkpt>
      <trkpt lat="46.77999" lon="15.48597">
        <ele>349.589815</ele>
        <time>2022-08-06T15:30:00.091Z</time>
      </trkpt>
      <trkpt lat="46.78045" lon="15.48566">
        <ele>351.611359</ele>
        <time>2022-08-06T15:30:23.957Z</time>
      </trkpt>
      <trkpt lat="46.78053" lon="15.48562">
        <ele>352.057205</ele>
        <time>2022-08-06T15:30:28.212Z</time>
      </trkpt>
      <trkpt lat="46.78111" lon="15.48538">
        <ele>355.27828</ele>
        <time>2022-08-06T15:30:58.828Z</time>
      </trkpt>
      <trkpt lat="46.78145" lon="15.48515">
        <ele>357.276942</ele>
        <time>2022-08-06T15:31:17.773Z</time>
      </trkpt>
      <trkpt lat="46.78155" lon="15.48514">
        <ele>357.851446</ele>
        <time>2022-08-06T15:31:23.540Z</time>
      </trkpt>
      <trkpt lat="46.78236" lon="15.48579">
        <ele>362.235632</ele>
        <time>2022-08-06T15:32:17.399Z</time>
      </trkpt>
      <trkpt lat="46.7834" lon="15.48548">
        <ele>366.311197</ele>
        <time>2022-08-06T15:33:07.538Z</time>
      </trkpt>
      <trkpt lat="46.78404" lon="15.48541">
        <ele>367.334115</ele>
        <time>2022-08-06T15:33:27.029Z</time>
      </trkpt>
      <trkpt lat="46.78431" lon="15.48527">
        <ele>366.896709</ele>
        <time>2022-08-06T15:33:34.093Z</time>
      </trkpt>
      <trkpt lat="46.78449" lon="15.48482">
        <ele>366.359404</ele>
        <time>2022-08-06T15:33:41.953Z</time>
      </trkpt>
      <trkpt lat="46.78453" lon="15.48442">
        <ele>365.950781</ele>
        <time>2022-08-06T15:33:47.300Z</time>
      </trkpt>
      <trkpt lat="46.78453" lon="15.4837">
        <ele>365.211878</ele>
        <time>2022-08-06T15:33:57.034Z</time>
      </trkpt>
      <trkpt lat="46.78459" lon="15.48343">
        <ele>365.218968</ele>
        <time>2022-08-06T15:34:00.556Z</time>
      </trkpt>
      <trkpt lat="46.7847" lon="15.48318">
        <ele>365.634228</ele>
        <time>2022-08-06T15:34:04.439Z</time>
      </trkpt>
      <trkpt lat="46.785" lon="15.48256">
        <ele>366.707204</ele>
        <time>2022-08-06T15:34:17.715Z</time>
      </trkpt>
      <trkpt lat="46.78547" lon="15.48217">
        <ele>367.810176</ele>
        <time>2022-08-06T15:34:43.713Z</time>
      </trkpt>
      <trkpt lat="46.78549" lon="15.48217">
        <ele>367.845187</ele>
        <time>2022-08-06T15:34:44.096Z</time>
      </trkpt>
      <trkpt lat="46.78547" lon="15.48217">
        <ele>367.880199</ele>
        <time>2022-08-06T15:34:45.669Z</time>
      </trkpt>
      <trkpt lat="46.78601" lon="15.48164">
        <ele>369.70952</ele>
        <time>2022-08-06T15:35:22.883Z</time>
      </trkpt>
      <trkpt lat="46.78634" lon="15.48117">
        <ele>371.682409</ele>
        <time>2022-08-06T15:35:48.610Z</time>
      </trkpt>
      <trkpt lat="46.78649" lon="15.48082">
        <ele>372.887664</ele>
        <time>2022-08-06T15:36:03.913Z</time>
      </trkpt>
      <trkpt lat="46.78678" lon="15.48034">
        <ele>374.73747</ele>
        <time>2022-08-06T15:36:20.427Z</time>
      </trkpt>
      <trkpt lat="46.78709" lon="15.47965">
        <ele>376.247803</ele>
        <time>2022-08-06T15:36:44.160Z</time>
      </trkpt>
      <trkpt lat="46.78778" lon="15.47915">
        <ele>375.755021</ele>
        <time>2022-08-06T15:37:05.653Z</time>
      </trkpt>
      <trkpt lat="46.78778" lon="15.47914">
        <ele>375.749568</ele>
        <time>2022-08-06T15:37:05.810Z</time>
      </trkpt>
      <trkpt lat="46.78791" lon="15.47898">
        <ele>375.639239</ele>
        <time>2022-08-06T15:37:09.016Z</time>
      </trkpt>
      <trkpt lat="46.78798" lon="15.47883">
        <ele>375.562081</ele>
        <time>2022-08-06T15:37:11.893Z</time>
      </trkpt>
      <trkpt lat="46.78807" lon="15.47814">
        <ele>375.254241</ele>
        <time>2022-08-06T15:37:21.156Z</time>
      </trkpt>
      <trkpt lat="46.78882" lon="15.47832">
        <ele>374.412289</ele>
        <time>2022-08-06T15:37:37.976Z</time>
      </trkpt>
      <trkpt lat="46.78916" lon="15.47826">
        <ele>374.01862</ele>
        <time>2022-08-06T15:37:48.520Z</time>
      </trkpt>
      <trkpt lat="46.78937" lon="15.47816">
        <ele>373.762467</ele>
        <time>2022-08-06T15:37:54.850Z</time>
      </trkpt>
      <trkpt lat="46.79011" lon="15.47786">
        <ele>372.983119</ele>
        <time>2022-08-06T15:38:13.152Z</time>
      </trkpt>
      <trkpt lat="46.79064" lon="15.4778">
        <ele>372.642821</ele>
        <time>2022-08-06T15:38:25.684Z</time>
      </trkpt>
      <trkpt lat="46.79082" lon="15.47777">
        <ele>372.525032</ele>
        <time>2022-08-06T15:38:30.472Z</time>
      </trkpt>
      <trkpt lat="46.79098" lon="15.47786">
        <ele>372.413928</ele>
        <time>2022-08-06T15:38:34.639Z</time>
      </trkpt>
      <trkpt lat="46.79126" lon="15.47762">
        <ele>372.202622</ele>
        <time>2022-08-06T15:38:42.965Z</time>
      </trkpt>
      <trkpt lat="46.79166" lon="15.47749">
        <ele>372.004896</ele>
        <time>2022-08-06T15:38:53.455Z</time>
      </trkpt>
      <trkpt lat="46.79197" lon="15.47773">
        <ele>372.523354</ele>
        <time>2022-08-06T15:39:02.492Z</time>
      </trkpt>
      <trkpt lat="46.79227" lon="15.47746">
        <ele>373.039221</ele>
        <time>2022-08-06T15:39:12.124Z</time>
      </trkpt>
      <trkpt lat="46.79249" lon="15.47701">
        <ele>373.604613</ele>
        <time>2022-08-06T15:39:23.761Z</time>
      </trkpt>
      <trkpt lat="46.79276" lon="15.47622">
        <ele>374.49597</ele>
        <time>2022-08-06T15:39:47.777Z</time>
      </trkpt>
      <trkpt lat="46.79315" lon="15.47486">
        <ele>378.502129</ele>
        <time>2022-08-06T15:40:37.198Z</time>
      </trkpt>
      <trkpt lat="46.79341" lon="15.47442">
        <ele>380.152278</ele>
        <time>2022-08-06T15:40:56.169Z</time>
      </trkpt>
      <trkpt lat="46.79432" lon="15.47331">
        <ele>384.268474</ele>
        <time>2022-08-06T15:41:50.677Z</time>
      </trkpt>
      <trkpt lat="46.79528" lon="15.47268">
        <ele>387.416228</ele>
        <time>2022-08-06T15:42:31.372Z</time>
      </trkpt>
      <trkpt lat="46.79563" lon="15.47232">
        <ele>388.248482</ele>
        <time>2022-08-06T15:42:46.150Z</time>
      </trkpt>
      <trkpt lat="46.79592" lon="15.4719">
        <ele>389.002492</ele>
        <time>2022-08-06T15:42:59.372Z</time>
      </trkpt>
      <trkpt lat="46.79602" lon="15.47174">
        <ele>389.282659</ele>
        <time>2022-08-06T15:43:04.353Z</time>
      </trkpt>
      <trkpt lat="46.79631" lon="15.47104">
        <ele>390.326064</ele>
        <time>2022-08-06T15:43:23.476Z</time>
      </trkpt>
      <trkpt lat="46.79665" lon="15.47053">
        <ele>391.459805</ele>
        <time>2022-08-06T15:43:42.528Z</time>
      </trkpt>
      <trkpt lat="46.79729" lon="15.4702">
        <ele>393.526457</ele>
        <time>2022-08-06T15:44:11.256Z</time>
      </trkpt>
      <trkpt lat="46.79761" lon="15.46967">
        <ele>395.003648</ele>
        <time>2022-08-06T15:44:31.640Z</time>
      </trkpt>
      <trkpt lat="46.79773" lon="15.46941">
        <ele>395.65003</ele>
        <time>2022-08-06T15:44:40.483Z</time>
      </trkpt>
      <trkpt lat="46.79788" lon="15.46911">
        <ele>396.381347</ele>
        <time>2022-08-06T15:44:51.958Z</time>
      </trkpt>
      <trkpt lat="46.7984" lon="15.46841">
        <ele>397.438182</ele>
        <time>2022-08-06T15:45:20.548Z</time>
      </trkpt>
      <trkpt lat="46.79849" lon="15.46814">
        <ele>397.756317</ele>
        <time>2022-08-06T15:45:28.104Z</time>
      </trkpt>
      <trkpt lat="46.79858" lon="15.46731">
        <ele>398.615112</ele>
        <time>2022-08-06T15:45:43.974Z</time>
      </trkpt>
      <trkpt lat="46.79859" lon="15.46605">
        <ele>398.88016</ele>
        <time>2022-08-06T15:46:06.393Z</time>
      </trkpt>
      <trkpt lat="46.79877" lon="15.46533">
        <ele>398.744775</ele>
        <time>2022-08-06T15:46:19.942Z</time>
      </trkpt>
      <trkpt lat="46.79892" lon="15.46461">
        <ele>398.611188</ele>
        <time>2022-08-06T15:46:33.794Z</time>
      </trkpt>
      <trkpt lat="46.79909" lon="15.46382">
        <ele>398.076891</ele>
        <time>2022-08-06T15:46:46.710Z</time>
      </trkpt>
      <trkpt lat="46.79936" lon="15.46286">
        <ele>397.199903</ele>
        <time>2022-08-06T15:47:03.326Z</time>
      </trkpt>
      <trkpt lat="46.79951" lon="15.46252">
        <ele>396.852847</ele>
        <time>2022-08-06T15:47:09.758Z</time>
      </trkpt>
      <trkpt lat="46.79966" lon="15.46235">
        <ele>396.618732</ele>
        <time>2022-08-06T15:47:13.635Z</time>
      </trkpt>
      <trkpt lat="46.80014" lon="15.46211">
        <ele>395.971379</ele>
        <time>2022-08-06T15:47:24.274Z</time>
      </trkpt>
      <trkpt lat="46.80064" lon="15.46176">
        <ele>395.23433</ele>
        <time>2022-08-06T15:47:35.781Z</time>
      </trkpt>
      <trkpt lat="46.80151" lon="15.46161">
        <ele>394.071203</ele>
        <time>2022-08-06T15:47:55.664Z</time>
      </trkpt>
      <trkpt lat="46.80192" lon="15.46148">
        <ele>394.017125</ele>
        <time>2022-08-06T15:48:07.540Z</time>
      </trkpt>
      <trkpt lat="46.80226" lon="15.46126">
        <ele>394.099237</ele>
        <time>2022-08-06T15:48:18.549Z</time>
      </trkpt>
      <trkpt lat="46.80246" lon="15.46106">
        <ele>394.152675</ele>
        <time>2022-08-06T15:48:25.865Z</time>
      </trkpt>
      <trkpt lat="46.80262" lon="15.46077">
        <ele>394.209781</ele>
        <time>2022-08-06T15:48:33.477Z</time>
      </trkpt>
      <trkpt lat="46.80293" lon="15.45997">
        <ele>394.305065</ele>
        <time>2022-08-06T15:48:51.393Z</time>
      </trkpt>
      <trkpt lat="46.80342" lon="15.45845">
        <ele>392.943095</ele>
        <time>2022-08-06T15:49:19.122Z</time>
      </trkpt>
      <trkpt lat="46.80359" lon="15.45815">
        <ele>392.62181</ele>
        <time>2022-08-06T15:49:25.069Z</time>
      </trkpt>
      <trkpt lat="46.80462" lon="15.45811">
        <ele>388.665399</ele>
        <time>2022-08-06T15:49:45.450Z</time>
      </trkpt>
      <trkpt lat="46.80532" lon="15.45824">
        <ele>384.950325</ele>
        <time>2022-08-06T15:49:58.207Z</time>
      </trkpt>
      <trkpt lat="46.80629" lon="15.45746">
        <ele>375.288559</ele>
        <time>2022-08-06T15:50:16.601Z</time>
      </trkpt>
      <trkpt lat="46.80688" lon="15.45751">
        <ele>368.903121</ele>
        <time>2022-08-06T15:50:25.944Z</time>
      </trkpt>
      <trkpt lat="46.80704" lon="15.45765">
        <ele>366.900409</ele>
        <time>2022-08-06T15:50:28.891Z</time>
      </trkpt>
      <trkpt lat="46.80764" lon="15.45831">
        <ele>358.350261</ele>
        <time>2022-08-06T15:50:40.852Z</time>
      </trkpt>
      <trkpt lat="46.80778" lon="15.45835">
        <ele>356.657803</ele>
        <time>2022-08-06T15:50:43.133Z</time>
      </trkpt>
      <trkpt lat="46.80845" lon="15.45763">
        <ele>346.884583</ele>
        <time>2022-08-06T15:50:56.533Z</time>
      </trkpt>
      <trkpt lat="46.80872" lon="15.45696">
        <ele>340.919742</ele>
        <time>2022-08-06T15:51:05.056Z</time>
      </trkpt>
      <trkpt lat="46.80877" lon="15.4561">
        <ele>335.257188</ele>
        <time>2022-08-06T15:51:14.479Z</time>
      </trkpt>
      <trkpt lat="46.80883" lon="15.45586">
        <ele>333.568299</ele>
        <time>2022-08-06T15:51:17.383Z</time>
      </trkpt>
      <trkpt lat="46.80902" lon="15.45573">
        <ele>331.454989</ele>
        <time>2022-08-06T15:51:20.967Z</time>
      </trkpt>
      <trkpt lat="46.80967" lon="15.4559">
        <ele>325.093418</ele>
        <time>2022-08-06T15:51:31.976Z</time>
      </trkpt>
      <trkpt lat="46.8103" lon="15.45596">
        <ele>321.586283</ele>
        <time>2022-08-06T15:51:42.712Z</time>
      </trkpt>
      <trkpt lat="46.81074" lon="15.45585">
        <ele>319.197615</ele>
        <time>2022-08-06T15:51:50.445Z</time>
      </trkpt>
      <trkpt lat="46.81243" lon="15.45464">
        <ele>312.284824</ele>
        <time>2022-08-06T15:52:28.519Z</time>
      </trkpt>
      <trkpt lat="46.8127" lon="15.45451">
        <ele>311.568865</ele>
        <time>2022-08-06T15:52:34.223Z</time>
      </trkpt>
      <trkpt lat="46.81329" lon="15.45442">
        <ele>310.437148</ele>
        <time>2022-08-06T15:52:46.505Z</time>
      </trkpt>
      <trkpt lat="46.81336" lon="15.45441">
        <ele>310.387412</ele>
        <time>2022-08-06T15:52:47.889Z</time>
      </trkpt>
      <trkpt lat="46.81346" lon="15.4544">
        <ele>310.316834</ele>
        <time>2022-08-06T15:52:49.943Z</time>
      </trkpt>
      <trkpt lat="46.81375" lon="15.45437">
        <ele>310.096963</ele>
        <time>2022-08-06T15:52:56.163Z</time>
      </trkpt>
      <trkpt lat="46.81413" lon="15.45422">
        <ele>309.808194</ele>
        <time>2022-08-06T15:53:04.733Z</time>
      </trkpt>
      <trkpt lat="46.81426" lon="15.4541">
        <ele>309.69157</ele>
        <time>2022-08-06T15:53:08.334Z</time>
      </trkpt>
      <trkpt lat="46.81507" lon="15.45296">
        <ele>310.955502</ele>
        <time>2022-08-06T15:53:45.566Z</time>
      </trkpt>
      <trkpt lat="46.81597" lon="15.4519">
        <ele>314.530478</ele>
        <time>2022-08-06T15:54:36.538Z</time>
      </trkpt>
      <trkpt lat="46.81622" lon="15.45169">
        <ele>315.783822</ele>
        <time>2022-08-06T15:54:50.915Z</time>
      </trkpt>
      <trkpt lat="46.81692" lon="15.45137">
        <ele>319.499966</ele>
        <time>2022-08-06T15:55:31.202Z</time>
      </trkpt>
      <trkpt lat="46.81827" lon="15.45062">
        <ele>325.877558</ele>
        <time>2022-08-06T15:56:42.937Z</time>
      </trkpt>
      <trkpt lat="46.81893" lon="15.4504">
        <ele>328.228478</ele>
        <time>2022-08-06T15:57:12.383Z</time>
      </trkpt>
      <trkpt lat="46.81933" lon="15.45035">
        <ele>329.646366</ele>
        <time>2022-08-06T15:57:28.179Z</time>
      </trkpt>
      <trkpt lat="46.81991" lon="15.45022">
        <ele>330.822915</ele>
        <time>2022-08-06T15:57:48.504Z</time>
      </trkpt>
      <trkpt lat="46.82029" lon="15.44972">
        <ele>331.598848</ele>
        <time>2022-08-06T15:58:06.284Z</time>
      </trkpt>
      <trkpt lat="46.82049" lon="15.44928">
        <ele>332.151869</ele>
        <time>2022-08-06T15:58:19.619Z</time>
      </trkpt>
      <trkpt lat="46.82076" lon="15.44926">
        <ele>332.55117</ele>
        <time>2022-08-06T15:58:28.812Z</time>
      </trkpt>
      <trkpt lat="46.82107" lon="15.44961">
        <ele>332.577827</ele>
        <time>2022-08-06T15:58:39.756Z</time>
      </trkpt>
      <trkpt lat="46.82123" lon="15.44977">
        <ele>332.20249</ele>
        <time>2022-08-06T15:58:45.197Z</time>
      </trkpt>
      <trkpt lat="46.82125" lon="15.44973">
        <ele>332.132986</ele>
        <time>2022-08-06T15:58:46.268Z</time>
      </trkpt>
      <trkpt lat="46.82136" lon="15.44948">
        <ele>331.750939</ele>
        <time>2022-08-06T15:58:50.922Z</time>
      </trkpt>
      <trkpt lat="46.82156" lon="15.44926">
        <ele>331.273315</ele>
        <time>2022-08-06T15:58:56.672Z</time>
      </trkpt>
      <trkpt lat="46.82183" lon="15.44917">
        <ele>330.74363</ele>
        <time>2022-08-06T15:59:02.778Z</time>
      </trkpt>
      <trkpt lat="46.82229" lon="15.44911">
        <ele>329.871076</ele>
        <time>2022-08-06T15:59:11.786Z</time>
      </trkpt>
      <trkpt lat="46.82281" lon="15.44941">
        <ele>327.449057</ele>
        <time>2022-08-06T15:59:22.069Z</time>
      </trkpt>
      <trkpt lat="46.82369" lon="15.44963">
        <ele>322.35758</ele>
        <time>2022-08-06T15:59:37.384Z</time>
      </trkpt>
      <trkpt lat="46.8246" lon="15.45029">
        <ele>318.51444</ele>
        <time>2022-08-06T15:59:55.423Z</time>
      </trkpt>
      <trkpt lat="46.82519" lon="15.45032">
        <ele>317.603584</ele>
        <time>2022-08-06T16:00:08.610Z</time>
      </trkpt>
      <trkpt lat="46.82576" lon="15.45026">
        <ele>316.743838</ele>
        <time>2022-08-06T16:00:23.647Z</time>
      </trkpt>
      <trkpt lat="46.82613" lon="15.4501">
        <ele>317.526321</ele>
        <time>2022-08-06T16:00:37.777Z</time>
      </trkpt>
      <trkpt lat="46.82625" lon="15.44993">
        <ele>318.314704</ele>
        <time>2022-08-06T16:00:46.396Z</time>
      </trkpt>
      <trkpt lat="46.82641" lon="15.44945">
        <ele>320.087753</ele>
        <time>2022-08-06T16:01:03.074Z</time>
      </trkpt>
      <trkpt lat="46.82661" lon="15.44911">
        <ele>321.548652</ele>
        <time>2022-08-06T16:01:17.869Z</time>
      </trkpt>
      <trkpt lat="46.82678" lon="15.44902">
        <ele>322.428676</ele>
        <time>2022-08-06T16:01:27.565Z</time>
      </trkpt>
      <trkpt lat="46.82712" lon="15.44897">
        <ele>324.113429</ele>
        <time>2022-08-06T16:01:48.788Z</time>
      </trkpt>
      <trkpt lat="46.82732" lon="15.44886">
        <ele>325.121209</ele>
        <time>2022-08-06T16:02:02.702Z</time>
      </trkpt>
      <trkpt lat="46.82747" lon="15.4487">
        <ele>326.401343</ele>
        <time>2022-08-06T16:02:13.933Z</time>
      </trkpt>
      <trkpt lat="46.82779" lon="15.44807">
        <ele>330.095696</ele>
        <time>2022-08-06T16:02:46.160Z</time>
      </trkpt>
      <trkpt lat="46.82788" lon="15.4476">
        <ele>332.352375</ele>
        <time>2022-08-06T16:03:06.989Z</time>
      </trkpt>
      <trkpt lat="46.82805" lon="15.44566">
        <ele>339.210225</ele>
        <time>2022-08-06T16:04:24.735Z</time>
      </trkpt>
      <trkpt lat="46.82818" lon="15.44506">
        <ele>340.481727</ele>
        <time>2022-08-06T16:04:42.963Z</time>
      </trkpt>
      <trkpt lat="46.82833" lon="15.4447">
        <ele>341.336715</ele>
        <time>2022-08-06T16:04:52.709Z</time>
      </trkpt>
      <trkpt lat="46.82845" lon="15.44454">
        <ele>341.815409</ele>
        <time>2022-08-06T16:04:57.172Z</time>
      </trkpt>
      <trkpt lat="46.82854" lon="15.44448">
        <ele>342.108169</ele>
        <time>2022-08-06T16:04:59.979Z</time>
      </trkpt>
      <trkpt lat="46.82876" lon="15.44448">
        <ele>342.750755</ele>
        <time>2022-08-06T16:05:05.156Z</time>
      </trkpt>
      <trkpt lat="46.82888" lon="15.44457">
        <ele>342.84604</ele>
        <time>2022-08-06T16:05:08.380Z</time>
      </trkpt>
      <trkpt lat="46.82921" lon="15.44497">
        <ele>343.066703</ele>
        <time>2022-08-06T16:05:17.588Z</time>
      </trkpt>
      <trkpt lat="46.8294" lon="15.44499">
        <ele>343.16573</ele>
        <time>2022-08-06T16:05:21.817Z</time>
      </trkpt>
      <trkpt lat="46.82965" lon="15.44483">
        <ele>343.310127</ele>
        <time>2022-08-06T16:05:28.390Z</time>
      </trkpt>
      <trkpt lat="46.83024" lon="15.44418">
        <ele>343.693034</ele>
        <time>2022-08-06T16:05:51.854Z</time>
      </trkpt>
      <trkpt lat="46.83096" lon="15.44391">
        <ele>347.808818</ele>
        <time>2022-08-06T16:06:30.928Z</time>
      </trkpt>
      <trkpt lat="46.83146" lon="15.44362">
        <ele>350.907101</ele>
        <time>2022-08-06T16:07:04.276Z</time>
      </trkpt>
      <trkpt lat="46.83156" lon="15.4435">
        <ele>351.651942</ele>
        <time>2022-08-06T16:07:11.608Z</time>
      </trkpt>
      <trkpt lat="46.83158" lon="15.44339">
        <ele>352.096711</ele>
        <time>2022-08-06T16:07:16.936Z</time>
      </trkpt>
      <trkpt lat="46.83138" lon="15.44273">
        <ele>354.485809</ele>
        <time>2022-08-06T16:07:48.113Z</time>
      </trkpt>
      <trkpt lat="46.83137" lon="15.44111">
        <ele>357.365015</ele>
        <time>2022-08-06T16:08:38.456Z</time>
      </trkpt>
      <trkpt lat="46.83098" lon="15.44">
        <ele>358.172967</ele>
        <time>2022-08-06T16:08:56.779Z</time>
      </trkpt>
      <trkpt lat="46.83112" lon="15.439">
        <ele>356.835186</ele>
        <time>2022-08-06T16:09:10.555Z</time>
      </trkpt>
      <trkpt lat="46.83126" lon="15.43856">
        <ele>356.194311</ele>
        <time>2022-08-06T16:09:17.085Z</time>
      </trkpt>
      <trkpt lat="46.83232" lon="15.43666">
        <ele>356.357375</ele>
        <time>2022-08-06T16:09:58.784Z</time>
      </trkpt>
      <trkpt lat="46.83243" lon="15.43619">
        <ele>356.643216</ele>
        <time>2022-08-06T16:10:12.570Z</time>
      </trkpt>
      <trkpt lat="46.83254" lon="15.43537">
        <ele>358.347842</ele>
        <time>2022-08-06T16:10:38.324Z</time>
      </trkpt>
      <trkpt lat="46.83282" lon="15.43331">
        <ele>364.842281</ele>
        <time>2022-08-06T16:11:52.858Z</time>
      </trkpt>
      <trkpt lat="46.833" lon="15.43276">
        <ele>365.123782</ele>
        <time>2022-08-06T16:12:11.305Z</time>
      </trkpt>
      <trkpt lat="46.83337" lon="15.43216">
        <ele>365.349442</ele>
        <time>2022-08-06T16:12:32.019Z</time>
      </trkpt>
      <trkpt lat="46.83338" lon="15.43197">
        <ele>365.404377</ele>
        <time>2022-08-06T16:12:34.737Z</time>
      </trkpt>
      <trkpt lat="46.83331" lon="15.43159">
        <ele>365.513477</ele>
        <time>2022-08-06T16:12:41.925Z</time>
      </trkpt>
      <trkpt lat="46.83291" lon="15.43031">
        <ele>362.087034</ele>
        <time>2022-08-06T16:13:00.323Z</time>
      </trkpt>
      <trkpt lat="46.83287" lon="15.42982">
        <ele>359.676275</ele>
        <time>2022-08-06T16:13:05.982Z</time>
      </trkpt>
      <trkpt lat="46.83302" lon="15.42855">
        <ele>353.340706</ele>
        <time>2022-08-06T16:13:20.727Z</time>
      </trkpt>
      <trkpt lat="46.83313" lon="15.42818">
        <ele>350.878065</ele>
        <time>2022-08-06T16:13:25.198Z</time>
      </trkpt>
      <trkpt lat="46.83372" lon="15.42707">
        <ele>341.538071</ele>
        <time>2022-08-06T16:13:40.972Z</time>
      </trkpt>
      <trkpt lat="46.834" lon="15.42636">
        <ele>336.175766</ele>
        <time>2022-08-06T16:13:50.046Z</time>
      </trkpt>
      <trkpt lat="46.83423" lon="15.42528">
        <ele>329.642427</ele>
        <time>2022-08-06T16:14:02.920Z</time>
      </trkpt>
      <trkpt lat="46.83442" lon="15.42439">
        <ele>324.320011</ele>
        <time>2022-08-06T16:14:13.627Z</time>
      </trkpt>
      <trkpt lat="46.83448" lon="15.42411">
        <ele>322.621371</ele>
        <time>2022-08-06T16:14:17.027Z</time>
      </trkpt>
      <trkpt lat="46.83472" lon="15.42355">
        <ele>319.289839</ele>
        <time>2022-08-06T16:14:24.738Z</time>
      </trkpt>
      <trkpt lat="46.83497" lon="15.42305">
        <ele>316.691295</ele>
        <time>2022-08-06T16:14:32.049Z</time>
      </trkpt>
      <trkpt lat="46.83593" lon="15.42161">
        <ele>308.763275</ele>
        <time>2022-08-06T16:14:56.487Z</time>
      </trkpt>
      <trkpt lat="46.83596" lon="15.42141">
        <ele>308.229755</ele>
        <time>2022-08-06T16:14:59.165Z</time>
      </trkpt>
      <trkpt lat="46.83592" lon="15.42123">
        <ele>307.740653</ele>
        <time>2022-08-06T16:15:01.597Z</time>
      </trkpt>
      <trkpt lat="46.83572" lon="15.42096">
        <ele>306.740504</ele>
        <time>2022-08-06T16:15:06.642Z</time>
      </trkpt>
      <trkpt lat="46.83558" lon="15.42082">
        <ele>306.104601</ele>
        <time>2022-08-06T16:15:09.845Z</time>
      </trkpt>
      <trkpt lat="46.83541" lon="15.42064">
        <ele>305.329459</ele>
        <time>2022-08-06T16:15:13.895Z</time>
      </trkpt>
      <trkpt lat="46.83514" lon="15.4202">
        <ele>303.799203</ele>
        <time>2022-08-06T16:15:21.960Z</time>
      </trkpt>
      <trkpt lat="46.83511" lon="15.41995">
        <ele>303.155669</ele>
        <time>2022-08-06T16:15:25.376Z</time>
      </trkpt>
      <trkpt lat="46.83525" lon="15.41956">
        <ele>302.17775</ele>
        <time>2022-08-06T16:15:31.683Z</time>
      </trkpt>
      <trkpt lat="46.83545" lon="15.41877">
        <ele>300.516303</ele>
        <time>2022-08-06T16:15:43.223Z</time>
      </trkpt>
      <trkpt lat="46.83577" lon="15.41747">
        <ele>297.768478</ele>
        <time>2022-08-06T16:16:01.693Z</time>
      </trkpt>
      <trkpt lat="46.83669" lon="15.41456">
        <ele>292.364532</ele>
        <time>2022-08-06T16:16:45.477Z</time>
      </trkpt>
      <trkpt lat="46.83685" lon="15.41409">
        <ele>292.112784</ele>
        <time>2022-08-06T16:16:53.956Z</time>
      </trkpt>
      <trkpt lat="46.83687" lon="15.41401">
        <ele>292.070619</ele>
        <time>2022-08-06T16:16:55.470Z</time>
      </trkpt>
      <trkpt lat="46.83698" lon="15.41365">
        <ele>291.885082</ele>
        <time>2022-08-06T16:17:02.282Z</time>
      </trkpt>
      <trkpt lat="46.837" lon="15.4136">
        <ele>291.858804</ele>
        <time>2022-08-06T16:17:03.213Z</time>
      </trkpt>
      <trkpt lat="46.83762" lon="15.41177">
        <ele>291.533466</ele>
        <time>2022-08-06T16:17:42.356Z</time>
      </trkpt>
      <trkpt lat="46.83709" lon="15.41139">
        <ele>291.725572</ele>
        <time>2022-08-06T16:18:00.044Z</time>
      </trkpt>
      <trkpt lat="46.83665" lon="15.41116">
        <ele>291.875352</ele>
        <time>2022-08-06T16:18:13.012Z</time>
      </trkpt>
      <trkpt lat="46.83521" lon="15.4108">
        <ele>291.874872</ele>
        <time>2022-08-06T16:18:50.975Z</time>
      </trkpt>
      <trkpt lat="46.83469" lon="15.41066">
        <ele>291.890455</ele>
        <time>2022-08-06T16:19:05.056Z</time>
      </trkpt>
      <trkpt lat="46.83315" lon="15.40977">
        <ele>292.417877</ele>
        <time>2022-08-06T16:19:51.801Z</time>
      </trkpt>
      <trkpt lat="46.83261" lon="15.40946">
        <ele>293.033882</ele>
        <time>2022-08-06T16:20:09.203Z</time>
      </trkpt>
      <trkpt lat="46.83187" lon="15.40913">
        <ele>293.931656</ele>
        <time>2022-08-06T16:20:34.274Z</time>
      </trkpt>
      <trkpt lat="46.83074" lon="15.40898">
        <ele>295.426436</ele>
        <time>2022-08-06T16:21:14.074Z</time>
      </trkpt>
      <trkpt lat="46.83017" lon="15.40882">
        <ele>296.260976</ele>
        <time>2022-08-06T16:21:34.098Z</time>
      </trkpt>
      <trkpt lat="46.83016" lon="15.40887">
        <ele>296.320013</ele>
        <time>2022-08-06T16:21:35.477Z</time>
      </trkpt>
      <trkpt lat="46.82969" lon="15.40855">
        <ele>297.073048</ele>
        <time>2022-08-06T16:21:53.537Z</time>
      </trkpt>
      <trkpt lat="46.82763" lon="15.40667">
        <ele>297.957825</ele>
        <time>2022-08-06T16:23:05.748Z</time>
      </trkpt>
      <trkpt lat="46.82674" lon="15.40516">
        <ele>297.815081</ele>
        <time>2022-08-06T16:23:41.260Z</time>
      </trkpt>
      <trkpt lat="46.82627" lon="15.40465">
        <ele>297.818033</ele>
        <time>2022-08-06T16:23:57.009Z</time>
      </trkpt>
      <trkpt lat="46.82614" lon="15.40434">
        <ele>297.819302</ele>
        <time>2022-08-06T16:24:03.887Z</time>
      </trkpt>
      <trkpt lat="46.82583" lon="15.40395">
        <ele>297.821364</ele>
        <time>2022-08-06T16:24:15.470Z</time>
      </trkpt>
      <trkpt lat="46.82564" lon="15.40358">
        <ele>297.822965</ele>
        <time>2022-08-06T16:24:24.651Z</time>
      </trkpt>
      <trkpt lat="46.8256" lon="15.40335">
        <ele>297.900237</ele>
        <time>2022-08-06T16:24:29.535Z</time>
      </trkpt>
      <trkpt lat="46.82501" lon="15.40138">
        <ele>299.173213</ele>
        <time>2022-08-06T16:25:14.851Z</time>
      </trkpt>
      <trkpt lat="46.8249" lon="15.401">
        <ele>299.55158</ele>
        <time>2022-08-06T16:25:23.940Z</time>
      </trkpt>
      <trkpt lat="46.82493" lon="15.40093">
        <ele>299.777595</ele>
        <time>2022-08-06T16:25:26.024Z</time>
      </trkpt>
      <trkpt lat="46.825" lon="15.40075">
        <ele>300.302139</ele>
        <time>2022-08-06T16:25:30.954Z</time>
      </trkpt>
      <trkpt lat="46.82507" lon="15.39998">
        <ele>302.376713</ele>
        <time>2022-08-06T16:25:55.513Z</time>
      </trkpt>
      <trkpt lat="46.82498" lon="15.39977">
        <ele>303.0383</ele>
        <time>2022-08-06T16:26:03.364Z</time>
      </trkpt>
      <trkpt lat="46.8246" lon="15.39958">
        <ele>304.594516</ele>
        <time>2022-08-06T16:26:23.255Z</time>
      </trkpt>
      <trkpt lat="46.82483" lon="15.39844">
        <ele>308.325489</ele>
        <time>2022-08-06T16:27:06.536Z</time>
      </trkpt>
      <trkpt lat="46.82535" lon="15.3955">
        <ele>318.56537</ele>
        <time>2022-08-06T16:28:56.877Z</time>
      </trkpt>
      <trkpt lat="46.82536" lon="15.39469">
        <ele>320.661794</ele>
        <time>2022-08-06T16:29:20.880Z</time>
      </trkpt>
      <trkpt lat="46.82537" lon="15.39361">
        <ele>322.937425</ele>
        <time>2022-08-06T16:29:50.337Z</time>
      </trkpt>
      <trkpt lat="46.82549" lon="15.39226">
        <ele>322.978244</ele>
        <time>2022-08-06T16:30:19.342Z</time>
      </trkpt>
      <trkpt lat="46.82574" lon="15.39154">
        <ele>323.002747</ele>
        <time>2022-08-06T16:30:32.184Z</time>
      </trkpt>
      <trkpt lat="46.82655" lon="15.39034">
        <ele>319.601519</ele>
        <time>2022-08-06T16:30:54.724Z</time>
      </trkpt>
      <trkpt lat="46.82662" lon="15.39025">
        <ele>319.291312</ele>
        <time>2022-08-06T16:30:56.348Z</time>
      </trkpt>
      <trkpt lat="46.82696" lon="15.38976">
        <ele>317.614168</ele>
        <time>2022-08-06T16:31:05.309Z</time>
      </trkpt>
      <trkpt lat="46.82732" lon="15.38904">
        <ele>315.593623</ele>
        <time>2022-08-06T16:31:16.722Z</time>
      </trkpt>
      <trkpt lat="46.82753" lon="15.38882">
        <ele>314.779113</ele>
        <time>2022-08-06T16:31:21.562Z</time>
      </trkpt>
      <trkpt lat="46.82862" lon="15.38796">
        <ele>310.882213</ele>
        <time>2022-08-06T16:31:46.277Z</time>
      </trkpt>
      <trkpt lat="46.82893" lon="15.38745">
        <ele>309.902627</ele>
        <time>2022-08-06T16:31:56.104Z</time>
      </trkpt>
      <trkpt lat="46.82911" lon="15.38705">
        <ele>309.223262</ele>
        <time>2022-08-06T16:32:02.991Z</time>
      </trkpt>
      <trkpt lat="46.82946" lon="15.38619">
        <ele>307.815449</ele>
        <time>2022-08-06T16:32:17.546Z</time>
      </trkpt>
      <trkpt lat="46.82949" lon="15.38607">
        <ele>307.63716</ele>
        <time>2022-08-06T16:32:19.435Z</time>
      </trkpt>
      <trkpt lat="46.82952" lon="15.38598">
        <ele>307.489804</ele>
        <time>2022-08-06T16:32:21.002Z</time>
      </trkpt>
      <trkpt lat="46.82963" lon="15.38577">
        <ele>307.070492</ele>
        <time>2022-08-06T16:32:24.910Z</time>
      </trkpt>
      <trkpt lat="46.83012" lon="15.38546">
        <ele>305.691605</ele>
        <time>2022-08-06T16:32:36.151Z</time>
      </trkpt>
      <trkpt lat="46.8303" lon="15.38523">
        <ele>305.063969</ele>
        <time>2022-08-06T16:32:41.032Z</time>
      </trkpt>
      <trkpt lat="46.83054" lon="15.38485">
        <ele>304.121711</ele>
        <time>2022-08-06T16:32:48.240Z</time>
      </trkpt>
      <trkpt lat="46.83098" lon="15.38452">
        <ele>302.843346</ele>
        <time>2022-08-06T16:32:57.795Z</time>
      </trkpt>
      <trkpt lat="46.83105" lon="15.38492">
        <ele>301.987976</ele>
        <time>2022-08-06T16:33:03.208Z</time>
      </trkpt>
      <trkpt lat="46.83113" lon="15.38558">
        <ele>300.465626</ele>
        <time>2022-08-06T16:33:12.014Z</time>
      </trkpt>
      <trkpt lat="46.83188" lon="15.38574">
        <ele>297.946555</ele>
        <time>2022-08-06T16:33:26.528Z</time>
      </trkpt>
      <trkpt lat="46.832" lon="15.38597">
        <ele>297.300493</ele>
        <time>2022-08-06T16:33:30.290Z</time>
      </trkpt>
      <trkpt lat="46.83207" lon="15.38628">
        <ele>296.595886</ele>
        <time>2022-08-06T16:33:34.723Z</time>
      </trkpt>
      <trkpt lat="46.83212" lon="15.38652">
        <ele>296.490884</ele>
        <time>2022-08-06T16:33:38.137Z</time>
      </trkpt>
      <trkpt lat="46.8323" lon="15.38741">
        <ele>296.096216</ele>
        <time>2022-08-06T16:33:52.048Z</time>
      </trkpt>
      <trkpt lat="46.83241" lon="15.38804">
        <ele>295.82391</ele>
        <time>2022-08-06T16:34:03.734Z</time>
      </trkpt>
      <trkpt lat="46.83254" lon="15.38867">
        <ele>295.542753</ele>
        <time>2022-08-06T16:34:17.427Z</time>
      </trkpt>
      <trkpt lat="46.83261" lon="15.38924">
        <ele>296.707041</ele>
        <time>2022-08-06T16:34:32.105Z</time>
      </trkpt>
      <trkpt lat="46.83265" lon="15.38961">
        <ele>297.710437</ele>
        <time>2022-08-06T16:34:43.115Z</time>
      </trkpt>
      <trkpt lat="46.83279" lon="15.39004">
        <ele>298.995625</ele>
        <time>2022-08-06T16:34:58.674Z</time>
      </trkpt>
      <trkpt lat="46.83293" lon="15.39023">
        <ele>299.725153</ele>
        <time>2022-08-06T16:35:08.203Z</time>
      </trkpt>
      <trkpt lat="46.83313" lon="15.39037">
        <ele>300.595252</ele>
        <time>2022-08-06T16:35:19.860Z</time>
      </trkpt>
      <trkpt lat="46.83343" lon="15.39207">
        <ele>305.202971</ele>
        <time>2022-08-06T16:36:24.742Z</time>
      </trkpt>
      <trkpt lat="46.83348" lon="15.39269">
        <ele>306.827294</ele>
        <time>2022-08-06T16:36:43.893Z</time>
      </trkpt>
      <trkpt lat="46.83365" lon="15.39302">
        <ele>307.891629</ele>
        <time>2022-08-06T16:36:56.271Z</time>
      </trkpt>
      <trkpt lat="46.83429" lon="15.39341">
        <ele>309.785982</ele>
        <time>2022-08-06T16:37:21.549Z</time>
      </trkpt>
      <trkpt lat="46.83454" lon="15.39362">
        <ele>310.176959</ele>
        <time>2022-08-06T16:37:30.957Z</time>
      </trkpt>
      <trkpt lat="46.8347" lon="15.39391">
        <ele>310.529619</ele>
        <time>2022-08-06T16:37:39.206Z</time>
      </trkpt>
      <trkpt lat="46.835" lon="15.39468">
        <ele>311.363439</ele>
        <time>2022-08-06T16:37:57.273Z</time>
      </trkpt>
      <trkpt lat="46.83566" lon="15.3954">
        <ele>312.340647</ele>
        <time>2022-08-06T16:38:28.953Z</time>
      </trkpt>
      <trkpt lat="46.83641" lon="15.39667">
        <ele>313.5788</ele>
        <time>2022-08-06T16:39:11.805Z</time>
      </trkpt>
      <trkpt lat="46.83677" lon="15.39753">
        <ele>310.999454</ele>
        <time>2022-08-06T16:39:26.688Z</time>
      </trkpt>
      <trkpt lat="46.83786" lon="15.39958">
        <ele>301.624286</ele>
        <time>2022-08-06T16:39:58.537Z</time>
      </trkpt>
      <trkpt lat="46.83819" lon="15.4001">
        <ele>299.015979</ele>
        <time>2022-08-06T16:40:07.209Z</time>
      </trkpt>
      <trkpt lat="46.83837" lon="15.40028">
        <ele>297.829896</ele>
        <time>2022-08-06T16:40:11.251Z</time>
      </trkpt>
      <trkpt lat="46.83843" lon="15.4003">
        <ele>297.521257</ele>
        <time>2022-08-06T16:40:12.353Z</time>
      </trkpt>
      <trkpt lat="46.8386" lon="15.40037">
        <ele>296.559979</ele>
        <time>2022-08-06T16:40:15.784Z</time>
      </trkpt>
      <trkpt lat="46.83939" lon="15.40054">
        <ele>295.320464</ele>
        <time>2022-08-06T16:40:33.683Z</time>
      </trkpt>
      <trkpt lat="46.83975" lon="15.40064">
        <ele>295.922125</ele>
        <time>2022-08-06T16:40:46.178Z</time>
      </trkpt>
      <trkpt lat="46.83962" lon="15.40148">
        <ele>296.874725</ele>
        <time>2022-08-06T16:41:10.886Z</time>
      </trkpt>
      <trkpt lat="46.83976" lon="15.40186">
        <ele>297.355228</ele>
        <time>2022-08-06T16:41:24.525Z</time>
      </trkpt>
      <trkpt lat="46.83979" lon="15.40217">
        <ele>297.908056</ele>
        <time>2022-08-06T16:41:35.764Z</time>
      </trkpt>
      <trkpt lat="46.83958" lon="15.40269">
        <ele>299.399496</ele>
        <time>2022-08-06T16:41:56.872Z</time>
      </trkpt>
      <trkpt lat="46.83959" lon="15.40305">
        <ele>300.277694</ele>
        <time>2022-08-06T16:42:10.794Z</time>
      </trkpt>
      <trkpt lat="46.84104" lon="15.40549">
        <ele>305.092982</ele>
        <time>2022-08-06T16:43:40.420Z</time>
      </trkpt>
      <trkpt lat="46.84163" lon="15.40685">
        <ele>304.199667</ele>
        <time>2022-08-06T16:44:04.606Z</time>
      </trkpt>
      <trkpt lat="46.84167" lon="15.40734">
        <ele>303.17555</ele>
        <time>2022-08-06T16:44:11.624Z</time>
      </trkpt>
      <trkpt lat="46.84152" lon="15.40836">
        <ele>301.003459</ele>
        <time>2022-08-06T16:44:25.912Z</time>
      </trkpt>
      <trkpt lat="46.84133" lon="15.4089">
        <ele>299.710607</ele>
        <time>2022-08-06T16:44:34.127Z</time>
      </trkpt>
      <trkpt lat="46.84099" lon="15.40938">
        <ele>298.120488</ele>
        <time>2022-08-06T16:44:43.696Z</time>
      </trkpt>
      <trkpt lat="46.84096" lon="15.41011">
        <ele>296.465931</ele>
        <time>2022-08-06T16:44:53.898Z</time>
      </trkpt>
      <trkpt lat="46.84092" lon="15.41115">
        <ele>294.12343</ele>
        <time>2022-08-06T16:45:08.639Z</time>
      </trkpt>
      <trkpt lat="46.84098" lon="15.41137">
        <ele>293.772876</ele>
        <time>2022-08-06T16:45:11.805Z</time>
      </trkpt>
      <trkpt lat="46.84104" lon="15.41134">
        <ele>293.636137</ele>
        <time>2022-08-06T16:45:13.098Z</time>
      </trkpt>
      <trkpt lat="46.84171" lon="15.41117">
        <ele>292.116514</ele>
        <time>2022-08-06T16:45:26.574Z</time>
      </trkpt>
      <trkpt lat="46.843" lon="15.41105">
        <ele>289.814095</ele>
        <time>2022-08-06T16:45:55.467Z</time>
      </trkpt>
      <trkpt lat="46.84423" lon="15.41119">
        <ele>288.702989</ele>
        <time>2022-08-06T16:46:24.693Z</time>
      </trkpt>
      <trkpt lat="46.84509" lon="15.41144">
        <ele>288.096041</ele>
        <time>2022-08-06T16:46:45.686Z</time>
      </trkpt>
      <trkpt lat="46.84527" lon="15.4115">
        <ele>287.972627</ele>
        <time>2022-08-06T16:46:50.226Z</time>
      </trkpt>
      <trkpt lat="46.84581" lon="15.4117">
        <ele>287.615761</ele>
        <time>2022-08-06T16:47:03.604Z</time>
      </trkpt>
      <trkpt lat="46.846" lon="15.41177">
        <ele>287.484042</ele>
        <time>2022-08-06T16:47:08.491Z</time>
      </trkpt>
      <trkpt lat="46.846" lon="15.4117">
        <ele>287.456441</ele>
        <time>2022-08-06T16:47:09.917Z</time>
      </trkpt>
      <trkpt lat="46.84823" lon="15.41254">
        <ele>287.167025</ele>
        <time>2022-08-06T16:48:11.310Z</time>
      </trkpt>
      <trkpt lat="46.8484" lon="15.41254">
        <ele>287.276519</ele>
        <time>2022-08-06T16:48:16.238Z</time>
      </trkpt>
      <trkpt lat="46.84858" lon="15.41244">
        <ele>287.4043</ele>
        <time>2022-08-06T16:48:21.773Z</time>
      </trkpt>
      <trkpt lat="46.84864" lon="15.41244">
        <ele>287.439259</ele>
        <time>2022-08-06T16:48:23.349Z</time>
      </trkpt>
      <trkpt lat="46.8487" lon="15.41245">
        <ele>287.483532</ele>
        <time>2022-08-06T16:48:25.344Z</time>
      </trkpt>
      <trkpt lat="46.84874" lon="15.41258">
        <ele>287.546134</ele>
        <time>2022-08-06T16:48:28.270Z</time>
      </trkpt>
      <trkpt lat="46.84886" lon="15.4127">
        <ele>287.644267</ele>
        <time>2022-08-06T16:48:32.878Z</time>
      </trkpt>
      <trkpt lat="46.84927" lon="15.41273">
        <ele>287.913169</ele>
        <time>2022-08-06T16:48:46.412Z</time>
      </trkpt>
      <trkpt lat="46.84973" lon="15.4127">
        <ele>288.74954</ele>
        <time>2022-08-06T16:49:02.981Z</time>
      </trkpt>
      <trkpt lat="46.85006" lon="15.41256">
        <ele>289.772985</ele>
        <time>2022-08-06T16:49:16.386Z</time>
      </trkpt>
      <trkpt lat="46.85018" lon="15.41244">
        <ele>290.19495</ele>
        <time>2022-08-06T16:49:22.325Z</time>
      </trkpt>
      <trkpt lat="46.85134" lon="15.41122">
        <ele>294.453101</ele>
        <time>2022-08-06T16:50:26.963Z</time>
      </trkpt>
      <trkpt lat="46.85138" lon="15.41129">
        <ele>294.642469</ele>
        <time>2022-08-06T16:50:29.759Z</time>
      </trkpt>
      <trkpt lat="46.8514" lon="15.41136">
        <ele>294.790525</ele>
        <time>2022-08-06T16:50:31.951Z</time>
      </trkpt>
      <trkpt lat="46.85151" lon="15.41126">
        <ele>295.175756</ele>
        <time>2022-08-06T16:50:37.863Z</time>
      </trkpt>
      <trkpt lat="46.85221" lon="15.41068">
        <ele>297.621238</ele>
        <time>2022-08-06T16:51:12.612Z</time>
      </trkpt>
      <trkpt lat="46.85255" lon="15.41043">
        <ele>298.787078</ele>
        <time>2022-08-06T16:51:26.733Z</time>
      </trkpt>
      <trkpt lat="46.85263" lon="15.41041">
        <ele>298.834642</ele>
        <time>2022-08-06T16:51:29.338Z</time>
      </trkpt>
      <trkpt lat="46.85273" lon="15.41051">
        <ele>298.820521</ele>
        <time>2022-08-06T16:51:33.536Z</time>
      </trkpt>
      <trkpt lat="46.8529" lon="15.41118">
        <ele>298.765724</ele>
        <time>2022-08-06T16:51:48.103Z</time>
      </trkpt>
      <trkpt lat="46.85302" lon="15.41177">
        <ele>298.718373</ele>
        <time>2022-08-06T16:51:58.499Z</time>
      </trkpt>
      <trkpt lat="46.85332" lon="15.41342">
        <ele>298.548178</ele>
        <time>2022-08-06T16:52:24.767Z</time>
      </trkpt>
      <trkpt lat="46.85338" lon="15.41413">
        <ele>298.453608</ele>
        <time>2022-08-06T16:52:35.699Z</time>
      </trkpt>
      <trkpt lat="46.85329" lon="15.41532">
        <ele>298.294388</ele>
        <time>2022-08-06T16:53:00.395Z</time>
      </trkpt>
      <trkpt lat="46.85314" lon="15.41611">
        <ele>299.30788</ele>
        <time>2022-08-06T16:53:19.989Z</time>
      </trkpt>
      <trkpt lat="46.8529" lon="15.41677">
        <ele>300.268917</ele>
        <time>2022-08-06T16:53:39.685Z</time>
      </trkpt>
      <trkpt lat="46.8521" lon="15.41889">
        <ele>302.341358</ele>
        <time>2022-08-06T16:54:39.789Z</time>
      </trkpt>
      <trkpt lat="46.85196" lon="15.41954">
        <ele>302.674623</ele>
        <time>2022-08-06T16:54:52.142Z</time>
      </trkpt>
      <trkpt lat="46.85189" lon="15.42061">
        <ele>302.48886</ele>
        <time>2022-08-06T16:55:09.084Z</time>
      </trkpt>
      <trkpt lat="46.85194" lon="15.42128">
        <ele>301.749756</ele>
        <time>2022-08-06T16:55:19.225Z</time>
      </trkpt>
      <trkpt lat="46.85215" lon="15.42209">
        <ele>300.812183</ele>
        <time>2022-08-06T16:55:31.595Z</time>
      </trkpt>
      <trkpt lat="46.85241" lon="15.42277">
        <ele>300.027339</ele>
        <time>2022-08-06T16:55:43.055Z</time>
      </trkpt>
      <trkpt lat="46.85305" lon="15.42398">
        <ele>299.11875</ele>
        <time>2022-08-06T16:56:06.626Z</time>
      </trkpt>
      <trkpt lat="46.85376" lon="15.42529">
        <ele>298.719578</ele>
        <time>2022-08-06T16:56:37.089Z</time>
      </trkpt>
      <trkpt lat="46.85418" lon="15.42619">
        <ele>298.982314</ele>
        <time>2022-08-06T16:56:58.605Z</time>
      </trkpt>
      <trkpt lat="46.85443" lon="15.42697">
        <ele>299.202603</ele>
        <time>2022-08-06T16:57:15.521Z</time>
      </trkpt>
      <trkpt lat="46.85518" lon="15.42989">
        <ele>301.004112</ele>
        <time>2022-08-06T16:58:20.365Z</time>
      </trkpt>
      <trkpt lat="46.85556" lon="15.43098">
        <ele>301.963544</ele>
        <time>2022-08-06T16:58:51.242Z</time>
      </trkpt>
      <trkpt lat="46.85595" lon="15.43182">
        <ele>302.592811</ele>
        <time>2022-08-06T16:59:14.740Z</time>
      </trkpt>
      <trkpt lat="46.85774" lon="15.43533">
        <ele>300.556849</ele>
        <time>2022-08-06T17:00:27.161Z</time>
      </trkpt>
      <trkpt lat="46.85809" lon="15.4361">
        <ele>300.262599</ele>
        <time>2022-08-06T17:00:43.740Z</time>
      </trkpt>
      <trkpt lat="46.85843" lon="15.43716">
        <ele>300.80584</ele>
        <time>2022-08-06T17:01:07.898Z</time>
      </trkpt>
      <trkpt lat="46.85926" lon="15.44094">
        <ele>303.214956</ele>
        <time>2022-08-06T17:02:39.311Z</time>
      </trkpt>
      <trkpt lat="46.85948" lon="15.44171">
        <ele>302.332413</ele>
        <time>2022-08-06T17:02:54.075Z</time>
      </trkpt>
      <trkpt lat="46.85965" lon="15.44215">
        <ele>301.798714</ele>
        <time>2022-08-06T17:03:02.141Z</time>
      </trkpt>
      <trkpt lat="46.8599" lon="15.44262">
        <ele>301.160681</ele>
        <time>2022-08-06T17:03:11.175Z</time>
      </trkpt>
      <trkpt lat="46.86081" lon="15.44411">
        <ele>297.671193</ele>
        <time>2022-08-06T17:03:38.749Z</time>
      </trkpt>
      <trkpt lat="46.86083" lon="15.44413">
        <ele>297.617597</ele>
        <time>2022-08-06T17:03:39.097Z</time>
      </trkpt>
      <trkpt lat="46.86129" lon="15.44495">
        <ele>295.413346</ele>
        <time>2022-08-06T17:03:54.136Z</time>
      </trkpt>
      <trkpt lat="46.86133" lon="15.44502">
        <ele>295.23185</ele>
        <time>2022-08-06T17:03:55.441Z</time>
      </trkpt>
      <trkpt lat="46.86143" lon="15.44521">
        <ele>294.990402</ele>
        <time>2022-08-06T17:03:59.100Z</time>
      </trkpt>
      <trkpt lat="46.8616" lon="15.44566">
        <ele>294.846519</ele>
        <time>2022-08-06T17:04:07.027Z</time>
      </trkpt>
      <trkpt lat="46.86184" lon="15.44656">
        <ele>294.574218</ele>
        <time>2022-08-06T17:04:23.579Z</time>
      </trkpt>
      <trkpt lat="46.86302" lon="15.45311">
        <ele>298.483227</ele>
        <time>2022-08-06T17:06:57.518Z</time>
      </trkpt>
      <trkpt lat="46.86324" lon="15.4541">
        <ele>298.935226</ele>
        <time>2022-08-06T17:07:19.066Z</time>
      </trkpt>
      <trkpt lat="46.86356" lon="15.45514">
        <ele>299.473063</ele>
        <time>2022-08-06T17:07:42.355Z</time>
      </trkpt>
      <trkpt lat="46.86361" lon="15.45523">
        <ele>299.601828</ele>
        <time>2022-08-06T17:07:44.652Z</time>
      </trkpt>
      <trkpt lat="46.86388" lon="15.45567">
        <ele>300.253838</ele>
        <time>2022-08-06T17:07:56.679Z</time>
      </trkpt>
      <trkpt lat="46.86391" lon="15.45557">
        <ele>300.382925</ele>
        <time>2022-08-06T17:08:00.637Z</time>
      </trkpt>
      <trkpt lat="46.86408" lon="15.45586">
        <ele>300.799329</ele>
        <time>2022-08-06T17:08:08.482Z</time>
      </trkpt>
      <trkpt lat="46.86452" lon="15.45663">
        <ele>301.913077</ele>
        <time>2022-08-06T17:08:32.491Z</time>
      </trkpt>
      <trkpt lat="46.86448" lon="15.4567">
        <ele>302.017342</ele>
        <time>2022-08-06T17:08:36.385Z</time>
      </trkpt>
      <trkpt lat="46.86487" lon="15.45742">
        <ele>303.879366</ele>
        <time>2022-08-06T17:09:05.915Z</time>
      </trkpt>
      <trkpt lat="46.86516" lon="15.45824">
        <ele>306.096863</ele>
        <time>2022-08-06T17:09:37.341Z</time>
      </trkpt>
      <trkpt lat="46.86527" lon="15.45868">
        <ele>307.21202</ele>
        <time>2022-08-06T17:09:52.102Z</time>
      </trkpt>
      <trkpt lat="46.86549" lon="15.46027">
        <ele>308.773505</ele>
        <time>2022-08-06T17:10:34.823Z</time>
      </trkpt>
      <trkpt lat="46.86564" lon="15.46116">
        <ele>308.923727</ele>
        <time>2022-08-06T17:10:51.904Z</time>
      </trkpt>
      <trkpt lat="46.86651" lon="15.46406">
        <ele>305.121805</ele>
        <time>2022-08-06T17:11:38.448Z</time>
      </trkpt>
      <trkpt lat="46.86678" lon="15.46543">
        <ele>303.433421</ele>
        <time>2022-08-06T17:12:00.161Z</time>
      </trkpt>
      <trkpt lat="46.8668" lon="15.46559">
        <ele>303.246662</ele>
        <time>2022-08-06T17:12:02.748Z</time>
      </trkpt>
      <trkpt lat="46.86673" lon="15.46594">
        <ele>302.830343</ele>
        <time>2022-08-06T17:12:08.532Z</time>
      </trkpt>
      <trkpt lat="46.86652" lon="15.4662">
        <ele>302.371707</ele>
        <time>2022-08-06T17:12:15.096Z</time>
      </trkpt>
      <trkpt lat="46.86639" lon="15.46637">
        <ele>302.074788</ele>
        <time>2022-08-06T17:12:18.990Z</time>
      </trkpt>
      <trkpt lat="46.86653" lon="15.46669">
        <ele>301.644291</ele>
        <time>2022-08-06T17:12:24.810Z</time>
      </trkpt>
      <trkpt lat="46.86679" lon="15.46765">
        <ele>300.433161</ele>
        <time>2022-08-06T17:12:39.999Z</time>
      </trkpt>
      <trkpt lat="46.86687" lon="15.46786">
        <ele>300.146579</ele>
        <time>2022-08-06T17:12:43.454Z</time>
      </trkpt>
      <trkpt lat="46.86697" lon="15.46791">
        <ele>299.978635</ele>
        <time>2022-08-06T17:12:45.791Z</time>
      </trkpt>
      <trkpt lat="46.86698" lon="15.46883">
        <ele>298.891828</ele>
        <time>2022-08-06T17:13:00.019Z</time>
      </trkpt>
      <trkpt lat="46.86698" lon="15.4694">
        <ele>298.162369</ele>
        <time>2022-08-06T17:13:08.757Z</time>
      </trkpt>
      <trkpt lat="46.86696" lon="15.47197">
        <ele>295.072316</ele>
        <time>2022-08-06T17:13:47.533Z</time>
      </trkpt>
      <trkpt lat="46.86663" lon="15.4741">
        <ele>293.407078</ele>
        <time>2022-08-06T17:14:24.012Z</time>
      </trkpt>
      <trkpt lat="46.86662" lon="15.4745">
        <ele>293.407938</ele>
        <time>2022-08-06T17:14:31.136Z</time>
      </trkpt>
      <trkpt lat="46.86666" lon="15.47451">
        <ele>293.408063</ele>
        <time>2022-08-06T17:14:31.965Z</time>
      </trkpt>
      <trkpt lat="46.86671" lon="15.47451">
        <ele>293.408212</ele>
        <time>2022-08-06T17:14:33.551Z</time>
      </trkpt>
      <trkpt lat="46.86676" lon="15.47535">
        <ele>293.41004</ele>
        <time>2022-08-06T17:14:48.722Z</time>
      </trkpt>
      <trkpt lat="46.86686" lon="15.47656">
        <ele>293.412661</ele>
        <time>2022-08-06T17:15:12.491Z</time>
      </trkpt>
      <trkpt lat="46.86698" lon="15.47703">
        <ele>294.622204</ele>
        <time>2022-08-06T17:15:25.034Z</time>
      </trkpt>
      <trkpt lat="46.86707" lon="15.47723">
        <ele>295.243046</ele>
        <time>2022-08-06T17:15:30.936Z</time>
      </trkpt>
      <trkpt lat="46.86718" lon="15.47733">
        <ele>295.73374</ele>
        <time>2022-08-06T17:15:35.770Z</time>
      </trkpt>
      <trkpt lat="46.86742" lon="15.4774">
        <ele>296.653326</ele>
        <time>2022-08-06T17:15:44.678Z</time>
      </trkpt>
      <trkpt lat="46.86917" lon="15.47753">
        <ele>306.148008</ele>
        <time>2022-08-06T17:17:23.627Z</time>
      </trkpt>
      <trkpt lat="46.87086" lon="15.4775">
        <ele>318.765</ele>
        <time>2022-08-06T17:19:18.588Z</time>
      </trkpt>
      <trkpt lat="46.87162" lon="15.47768">
        <ele>324.751392</ele>
        <time>2022-08-06T17:20:04.410Z</time>
      </trkpt>
      <trkpt lat="46.87191" lon="15.47784">
        <ele>327.094914</ele>
        <time>2022-08-06T17:20:25.774Z</time>
      </trkpt>
      <trkpt lat="46.87224" lon="15.47817">
        <ele>330.426931</ele>
        <time>2022-08-06T17:20:53.956Z</time>
      </trkpt>
      <trkpt lat="46.87247" lon="15.47856">
        <ele>333.317756</ele>
        <time>2022-08-06T17:21:16.852Z</time>
      </trkpt>
      <trkpt lat="46.87259" lon="15.47888">
        <ele>335.382114</ele>
        <time>2022-08-06T17:21:32.818Z</time>
      </trkpt>
      <trkpt lat="46.87267" lon="15.47922">
        <ele>337.395222</ele>
        <time>2022-08-06T17:21:52.204Z</time>
      </trkpt>
      <trkpt lat="46.87285" lon="15.48054">
        <ele>343.600092</ele>
        <time>2022-08-06T17:22:52.103Z</time>
      </trkpt>
      <trkpt lat="46.87293" lon="15.48082">
        <ele>344.495141</ele>
        <time>2022-08-06T17:23:06.714Z</time>
      </trkpt>
      <trkpt lat="46.87319" lon="15.48127">
        <ele>346.293415</ele>
        <time>2022-08-06T17:23:31.688Z</time>
      </trkpt>
      <trkpt lat="46.87364" lon="15.4816">
        <ele>348.476716</ele>
        <time>2022-08-06T17:23:49.035Z</time>
      </trkpt>
      <trkpt lat="46.87413" lon="15.4816">
        <ele>349.599782</ele>
        <time>2022-08-06T17:24:03.539Z</time>
      </trkpt>
      <trkpt lat="46.87459" lon="15.48133">
        <ele>348.458266</ele>
        <time>2022-08-06T17:24:15.377Z</time>
      </trkpt>
      <trkpt lat="46.87542" lon="15.48037">
        <ele>346.031107</ele>
        <time>2022-08-06T17:24:36.860Z</time>
      </trkpt>
      <trkpt lat="46.8756" lon="15.47992">
        <ele>344.847915</ele>
        <time>2022-08-06T17:24:43.754Z</time>
      </trkpt>
      <trkpt lat="46.87573" lon="15.47961">
        <ele>343.905525</ele>
        <time>2022-08-06T17:24:48.463Z</time>
      </trkpt>
      <trkpt lat="46.87588" lon="15.47943">
        <ele>343.158229</ele>
        <time>2022-08-06T17:24:52.391Z</time>
      </trkpt>
      <trkpt lat="46.87596" lon="15.47941">
        <ele>342.860595</ele>
        <time>2022-08-06T17:24:53.818Z</time>
      </trkpt>
      <trkpt lat="46.87635" lon="15.47948">
        <ele>341.408329</ele>
        <time>2022-08-06T17:25:01.211Z</time>
      </trkpt>
      <trkpt lat="46.87651" lon="15.47959">
        <ele>340.750033</ele>
        <time>2022-08-06T17:25:04.735Z</time>
      </trkpt>
      <trkpt lat="46.8768" lon="15.47958">
        <ele>339.681559</ele>
        <time>2022-08-06T17:25:10.230Z</time>
      </trkpt>
      <trkpt lat="46.87715" lon="15.47946">
        <ele>338.204898</ele>
        <time>2022-08-06T17:25:17.444Z</time>
      </trkpt>
      <trkpt lat="46.87738" lon="15.4793">
        <ele>337.110625</ele>
        <time>2022-08-06T17:25:22.318Z</time>
      </trkpt>
      <trkpt lat="46.87759" lon="15.47907">
        <ele>336.011201</ele>
        <time>2022-08-06T17:25:26.959Z</time>
      </trkpt>
      <trkpt lat="46.87779" lon="15.47804">
        <ele>332.879926</ele>
        <time>2022-08-06T17:25:40.880Z</time>
      </trkpt>
      <trkpt lat="46.87805" lon="15.47779">
        <ele>331.550559</ele>
        <time>2022-08-06T17:25:46.679Z</time>
      </trkpt>
      <trkpt lat="46.87833" lon="15.47769">
        <ele>329.550464</ele>
        <time>2022-08-06T17:25:51.708Z</time>
      </trkpt>
      <trkpt lat="46.87847" lon="15.47756">
        <ele>328.271657</ele>
        <time>2022-08-06T17:25:54.555Z</time>
      </trkpt>
      <trkpt lat="46.87884" lon="15.47745">
        <ele>325.453109</ele>
        <time>2022-08-06T17:26:00.983Z</time>
      </trkpt>
      <trkpt lat="46.87934" lon="15.4771">
        <ele>321.366987</ele>
        <time>2022-08-06T17:26:10.180Z</time>
      </trkpt>
      <trkpt lat="46.87988" lon="15.47648">
        <ele>316.652008</ele>
        <time>2022-08-06T17:26:21.611Z</time>
      </trkpt>
      <trkpt lat="46.88073" lon="15.47579">
        <ele>311.068103</ele>
        <time>2022-08-06T17:26:38.713Z</time>
      </trkpt>
      <trkpt lat="46.88082" lon="15.47603">
        <ele>309.989531</ele>
        <time>2022-08-06T17:26:42.369Z</time>
      </trkpt>
      <trkpt lat="46.88097" lon="15.47646">
        <ele>308.106539</ele>
        <time>2022-08-06T17:26:48.904Z</time>
      </trkpt>
      <trkpt lat="46.88105" lon="15.47659">
        <ele>307.663788</ele>
        <time>2022-08-06T17:26:51.268Z</time>
      </trkpt>
      <trkpt lat="46.88107" lon="15.4768">
        <ele>307.470151</ele>
        <time>2022-08-06T17:26:54.303Z</time>
      </trkpt>
      <trkpt lat="46.88096" lon="15.47723">
        <ele>307.032288</ele>
        <time>2022-08-06T17:27:01.345Z</time>
      </trkpt>
      <trkpt lat="46.88069" lon="15.47809">
        <ele>306.158279</ele>
        <time>2022-08-06T17:27:17.636Z</time>
      </trkpt>
      <trkpt lat="46.8805" lon="15.47939">
        <ele>304.831113</ele>
        <time>2022-08-06T17:27:41.210Z</time>
      </trkpt>
      <trkpt lat="46.88038" lon="15.47984">
        <ele>304.268775</ele>
        <time>2022-08-06T17:27:49.317Z</time>
      </trkpt>
      <trkpt lat="46.88044" lon="15.48069">
        <ele>303.284232</ele>
        <time>2022-08-06T17:28:02.311Z</time>
      </trkpt>
      <trkpt lat="46.88092" lon="15.48074">
        <ele>302.482857</ele>
        <time>2022-08-06T17:28:12.585Z</time>
      </trkpt>
      <trkpt lat="46.88107" lon="15.48064">
        <ele>302.184972</ele>
        <time>2022-08-06T17:28:16.158Z</time>
      </trkpt>
      <trkpt lat="46.88129" lon="15.48058">
        <ele>301.691455</ele>
        <time>2022-08-06T17:28:20.879Z</time>
      </trkpt>
      <trkpt lat="46.88188" lon="15.48042">
        <ele>300.352333</ele>
        <time>2022-08-06T17:28:33.440Z</time>
      </trkpt>
      <trkpt lat="46.8824" lon="15.4801">
        <ele>299.099214</ele>
        <time>2022-08-06T17:28:45.723Z</time>
      </trkpt>
      <trkpt lat="46.88273" lon="15.47977">
        <ele>298.243145</ele>
        <time>2022-08-06T17:28:54.812Z</time>
      </trkpt>
      <trkpt lat="46.88292" lon="15.47966">
        <ele>298.128674</ele>
        <time>2022-08-06T17:28:59.523Z</time>
      </trkpt>
      <trkpt lat="46.88304" lon="15.47967">
        <ele>298.055767</ele>
        <time>2022-08-06T17:29:02.588Z</time>
      </trkpt>
      <trkpt lat="46.88308" lon="15.47967">
        <ele>298.032227</ele>
        <time>2022-08-06T17:29:03.562Z</time>
      </trkpt>
      <trkpt lat="46.88352" lon="15.47995">
        <ele>297.760694</ele>
        <time>2022-08-06T17:29:15.952Z</time>
      </trkpt>
      <trkpt lat="46.88379" lon="15.4798">
        <ele>297.597811</ele>
        <time>2022-08-06T17:29:23.445Z</time>
      </trkpt>
      <trkpt lat="46.88439" lon="15.47911">
        <ele>297.218979</ele>
        <time>2022-08-06T17:29:44.376Z</time>
      </trkpt>
      <trkpt lat="46.88473" lon="15.47899">
        <ele>297.197562</ele>
        <time>2022-08-06T17:29:53.997Z</time>
      </trkpt>
      <trkpt lat="46.8854" lon="15.47884">
        <ele>297.15596</ele>
        <time>2022-08-06T17:30:12.298Z</time>
      </trkpt>
      <trkpt lat="46.88576" lon="15.47891">
        <ele>297.13433</ele>
        <time>2022-08-06T17:30:22.193Z</time>
      </trkpt>
      <trkpt lat="46.88595" lon="15.47902">
        <ele>297.12194</ele>
        <time>2022-08-06T17:30:28.022Z</time>
      </trkpt>
      <trkpt lat="46.88638" lon="15.47956">
        <ele>297.407498</ele>
        <time>2022-08-06T17:30:44.469Z</time>
      </trkpt>
      <trkpt lat="46.88676" lon="15.47984">
        <ele>297.669299</ele>
        <time>2022-08-06T17:30:57.086Z</time>
      </trkpt>
      <trkpt lat="46.88722" lon="15.48012">
        <ele>297.967183</ele>
        <time>2022-08-06T17:31:12.252Z</time>
      </trkpt>
      <trkpt lat="46.88833" lon="15.48063">
        <ele>299.909094</ele>
        <time>2022-08-06T17:31:51.248Z</time>
      </trkpt>
      <trkpt lat="46.88851" lon="15.4806">
        <ele>300.325582</ele>
        <time>2022-08-06T17:31:58.079Z</time>
      </trkpt>
      <trkpt lat="46.88935" lon="15.48013">
        <ele>302.352425</ele>
        <time>2022-08-06T17:32:37.483Z</time>
      </trkpt>
      <trkpt lat="46.88954" lon="15.48012">
        <ele>302.867899</ele>
        <time>2022-08-06T17:32:45.463Z</time>
      </trkpt>
      <trkpt lat="46.88971" lon="15.48019">
        <ele>303.337475</ele>
        <time>2022-08-06T17:32:54.099Z</time>
      </trkpt>
      <trkpt lat="46.88975" lon="15.48022">
        <ele>303.458329</ele>
        <time>2022-08-06T17:32:55.789Z</time>
      </trkpt>
      <trkpt lat="46.89018" lon="15.47932">
        <ele>305.495913</ele>
        <time>2022-08-06T17:33:27.666Z</time>
      </trkpt>
      <trkpt lat="46.89062" lon="15.47872">
        <ele>307.058228</ele>
        <time>2022-08-06T17:33:52.067Z</time>
      </trkpt>
      <trkpt lat="46.89147" lon="15.47788">
        <ele>306.669862</ele>
        <time>2022-08-06T17:34:20.717Z</time>
      </trkpt>
      <trkpt lat="46.89196" lon="15.47729">
        <ele>306.432232</ele>
        <time>2022-08-06T17:34:35.008Z</time>
      </trkpt>
      <trkpt lat="46.89242" lon="15.4773">
        <ele>305.854693</ele>
        <time>2022-08-06T17:34:45.102Z</time>
      </trkpt>
      <trkpt lat="46.89466" lon="15.47728">
        <ele>303.163417</ele>
        <time>2022-08-06T17:35:36.854Z</time>
      </trkpt>
      <trkpt lat="46.89554" lon="15.47671">
        <ele>302.680537</ele>
        <time>2022-08-06T17:36:04.513Z</time>
      </trkpt>
      <trkpt lat="46.89654" lon="15.47637">
        <ele>303.038043</ele>
        <time>2022-08-06T17:36:35.896Z</time>
      </trkpt>
      <trkpt lat="46.89662" lon="15.47634">
        <ele>303.071658</ele>
        <time>2022-08-06T17:36:38.448Z</time>
      </trkpt>
      <trkpt lat="46.89714" lon="15.47626">
        <ele>303.281377</ele>
        <time>2022-08-06T17:36:54.216Z</time>
      </trkpt>
      <trkpt lat="46.89772" lon="15.47618">
        <ele>303.21847</ele>
        <time>2022-08-06T17:37:10.269Z</time>
      </trkpt>
      <trkpt lat="46.89825" lon="15.47604">
        <ele>302.988254</ele>
        <time>2022-08-06T17:37:24.568Z</time>
      </trkpt>
      <trkpt lat="46.89834" lon="15.47603">
        <ele>302.949585</ele>
        <time>2022-08-06T17:37:26.857Z</time>
      </trkpt>
      <trkpt lat="46.89879" lon="15.47619">
        <ele>302.755455</ele>
        <time>2022-08-06T17:37:38.115Z</time>
      </trkpt>
      <trkpt lat="46.89936" lon="15.47628">
        <ele>302.532887</ele>
        <time>2022-08-06T17:37:52.598Z</time>
      </trkpt>
      <trkpt lat="46.89955" lon="15.47628">
        <ele>302.471898</ele>
        <time>2022-08-06T17:37:57.467Z</time>
      </trkpt>
      <trkpt lat="46.89984" lon="15.47613">
        <ele>302.372802</ele>
        <time>2022-08-06T17:38:05.545Z</time>
      </trkpt>
      <trkpt lat="46.90018" lon="15.47616">
        <ele>302.261303</ele>
        <time>2022-08-06T17:38:14.678Z</time>
      </trkpt>
      <trkpt lat="46.90055" lon="15.47649">
        <ele>302.122146</ele>
        <time>2022-08-06T17:38:26.187Z</time>
      </trkpt>
      <trkpt lat="46.90069" lon="15.47655">
        <ele>302.076128</ele>
        <time>2022-08-06T17:38:30.076Z</time>
      </trkpt>
      <trkpt lat="46.90142" lon="15.47667">
        <ele>302.060857</ele>
        <time>2022-08-06T17:38:50.474Z</time>
      </trkpt>
      <trkpt lat="46.90169" lon="15.47672">
        <ele>302.078664</ele>
        <time>2022-08-06T17:38:58.162Z</time>
      </trkpt>
      <trkpt lat="46.9026" lon="15.47687">
        <ele>302.138726</ele>
        <time>2022-08-06T17:39:24.416Z</time>
      </trkpt>
      <trkpt lat="46.90367" lon="15.47744">
        <ele>302.475032</ele>
        <time>2022-08-06T17:39:57.093Z</time>
      </trkpt>
      <trkpt lat="46.9046" lon="15.47764">
        <ele>302.690976</ele>
        <time>2022-08-06T17:40:25.221Z</time>
      </trkpt>
      <trkpt lat="46.90555" lon="15.47765">
        <ele>302.716345</ele>
        <time>2022-08-06T17:40:53.193Z</time>
      </trkpt>
      <trkpt lat="46.90568" lon="15.47838">
        <ele>302.730037</ele>
        <time>2022-08-06T17:41:07.208Z</time>
      </trkpt>
      <trkpt lat="46.9058" lon="15.48012">
        <ele>301.851336</ele>
        <time>2022-08-06T17:41:35.749Z</time>
      </trkpt>
      <trkpt lat="46.90585" lon="15.48081">
        <ele>301.478725</ele>
        <time>2022-08-06T17:41:47.320Z</time>
      </trkpt>
      <trkpt lat="46.90589" lon="15.48123">
        <ele>301.342875</ele>
        <time>2022-08-06T17:41:54.949Z</time>
      </trkpt>
      <trkpt lat="46.90593" lon="15.48154">
        <ele>301.43849</ele>
        <time>2022-08-06T17:42:00.818Z</time>
      </trkpt>
      <trkpt lat="46.90607" lon="15.48222">
        <ele>301.654971</ele>
        <time>2022-08-06T17:42:13.815Z</time>
      </trkpt>
      <trkpt lat="46.90654" lon="15.48264">
        <ele>301.903987</ele>
        <time>2022-08-06T17:42:30.145Z</time>
      </trkpt>
      <trkpt lat="46.90666" lon="15.48275">
        <ele>301.969206</ele>
        <time>2022-08-06T17:42:34.659Z</time>
      </trkpt>
      <trkpt lat="46.90676" lon="15.48283">
        <ele>302.020507</ele>
        <time>2022-08-06T17:42:38.608Z</time>
      </trkpt>
      <trkpt lat="46.90832" lon="15.48192">
        <ele>303.520174</ele>
        <time>2022-08-06T17:43:34.764Z</time>
      </trkpt>
      <trkpt lat="46.9087" lon="15.48186">
        <ele>303.785614</ele>
        <time>2022-08-06T17:43:45.020Z</time>
      </trkpt>
      <trkpt lat="46.90907" lon="15.4819">
        <ele>303.42507</ele>
        <time>2022-08-06T17:43:54.075Z</time>
      </trkpt>
      <trkpt lat="46.90927" lon="15.48202">
        <ele>303.222871</ele>
        <time>2022-08-06T17:43:58.822Z</time>
      </trkpt>
      <trkpt lat="46.90961" lon="15.48245">
        <ele>302.781824</ele>
        <time>2022-08-06T17:44:09.141Z</time>
      </trkpt>
      <trkpt lat="46.91017" lon="15.48387">
        <ele>301.797507</ele>
        <time>2022-08-06T17:44:33.912Z</time>
      </trkpt>
      <trkpt lat="46.91062" lon="15.48363">
        <ele>301.446468</ele>
        <time>2022-08-06T17:44:44.723Z</time>
      </trkpt>
      <trkpt lat="46.91286" lon="15.48313">
        <ele>300.614158</ele>
        <time>2022-08-06T17:45:43.625Z</time>
      </trkpt>
      <trkpt lat="46.91305" lon="15.48316">
        <ele>300.590647</ele>
        <time>2022-08-06T17:45:48.767Z</time>
      </trkpt>
      <trkpt lat="46.91339" lon="15.48336">
        <ele>300.594577</ele>
        <time>2022-08-06T17:45:58.364Z</time>
      </trkpt>
      <trkpt lat="46.91408" lon="15.48347">
        <ele>300.813842</ele>
        <time>2022-08-06T17:46:16.310Z</time>
      </trkpt>
      <trkpt lat="46.91472" lon="15.48346">
        <ele>301.015045</ele>
        <time>2022-08-06T17:46:34.187Z</time>
      </trkpt>
      <trkpt lat="46.91538" lon="15.48384">
        <ele>301.596544</ele>
        <time>2022-08-06T17:46:57.254Z</time>
      </trkpt>
      <trkpt lat="46.91554" lon="15.48399">
        <ele>301.845489</ele>
        <time>2022-08-06T17:47:03.865Z</time>
      </trkpt>
      <trkpt lat="46.91575" lon="15.48431">
        <ele>302.241284</ele>
        <time>2022-08-06T17:47:14.410Z</time>
      </trkpt>
      <trkpt lat="46.91636" lon="15.48518">
        <ele>303.348505</ele>
        <time>2022-08-06T17:47:42.452Z</time>
      </trkpt>
      <trkpt lat="46.91664" lon="15.48539">
        <ele>303.585907</ele>
        <time>2022-08-06T17:47:52.468Z</time>
      </trkpt>
      <trkpt lat="46.91687" lon="15.48541">
        <ele>303.709892</ele>
        <time>2022-08-06T17:47:59.975Z</time>
      </trkpt>
      <trkpt lat="46.917" lon="15.48535">
        <ele>303.779471</ele>
        <time>2022-08-06T17:48:04.280Z</time>
      </trkpt>
      <trkpt lat="46.91753" lon="15.48484">
        <ele>304.112034</ele>
        <time>2022-08-06T17:48:22.587Z</time>
      </trkpt>
      <trkpt lat="46.91809" lon="15.48465">
        <ele>304.416559</ele>
        <time>2022-08-06T17:48:37.832Z</time>
      </trkpt>
      <trkpt lat="46.91895" lon="15.48417">
        <ele>304.698311</ele>
        <time>2022-08-06T17:49:02.178Z</time>
      </trkpt>
      <trkpt lat="46.91955" lon="15.48495">
        <ele>304.94133</ele>
        <time>2022-08-06T17:49:26.154Z</time>
      </trkpt>
      <trkpt lat="46.92078" lon="15.4868">
        <ele>306.078544</ele>
        <time>2022-08-06T17:50:18.841Z</time>
      </trkpt>
      <trkpt lat="46.9211" lon="15.48727">
        <ele>306.262081</ele>
        <time>2022-08-06T17:50:32.365Z</time>
      </trkpt>
      <trkpt lat="46.92141" lon="15.48766">
        <ele>306.388483</ele>
        <time>2022-08-06T17:50:44.215Z</time>
      </trkpt>
      <trkpt lat="46.9223" lon="15.48913">
        <ele>306.789056</ele>
        <time>2022-08-06T17:51:20.957Z</time>
      </trkpt>
      <trkpt lat="46.92255" lon="15.4894">
        <ele>306.865622</ele>
        <time>2022-08-06T17:51:28.747Z</time>
      </trkpt>
      <trkpt lat="46.92286" lon="15.48987">
        <ele>306.978708</ele>
        <time>2022-08-06T17:51:40.810Z</time>
      </trkpt>
      <trkpt lat="46.92291" lon="15.49004">
        <ele>307.009515</ele>
        <time>2022-08-06T17:51:44.375Z</time>
      </trkpt>
      <trkpt lat="46.92292" lon="15.49025">
        <ele>307.0459</ele>
        <time>2022-08-06T17:51:48.639Z</time>
      </trkpt>
      <trkpt lat="46.92365" lon="15.4903">
        <ele>307.356855</ele>
        <time>2022-08-06T17:52:10.648Z</time>
      </trkpt>
      <trkpt lat="46.92375" lon="15.4903">
        <ele>307.431702</ele>
        <time>2022-08-06T17:52:13.624Z</time>
      </trkpt>
      <trkpt lat="46.92386" lon="15.49031">
        <ele>307.513283</ele>
        <time>2022-08-06T17:52:17.207Z</time>
      </trkpt>
      <trkpt lat="46.92422" lon="15.49031">
        <ele>307.781937</ele>
        <time>2022-08-06T17:52:28.243Z</time>
      </trkpt>
      <trkpt lat="46.9244" lon="15.49033">
        <ele>307.914823</ele>
        <time>2022-08-06T17:52:33.520Z</time>
      </trkpt>
      <trkpt lat="46.92444" lon="15.49033">
        <ele>307.946269</ele>
        <time>2022-08-06T17:52:34.723Z</time>
      </trkpt>
      <trkpt lat="46.92458" lon="15.49033">
        <ele>308.052532</ele>
        <time>2022-08-06T17:52:39.101Z</time>
      </trkpt>
      <trkpt lat="46.92519" lon="15.49032">
        <ele>308.503042</ele>
        <time>2022-08-06T17:52:57.245Z</time>
      </trkpt>
      <trkpt lat="46.92521" lon="15.49032">
        <ele>308.512669</ele>
        <time>2022-08-06T17:52:57.930Z</time>
      </trkpt>
      <trkpt lat="46.92551" lon="15.49032">
        <ele>308.5032</ele>
        <time>2022-08-06T17:53:07.392Z</time>
      </trkpt>
      <trkpt lat="46.92571" lon="15.4903">
        <ele>308.497016</ele>
        <time>2022-08-06T17:53:13.211Z</time>
      </trkpt>
      <trkpt lat="46.92596" lon="15.49019">
        <ele>308.488868</ele>
        <time>2022-08-06T17:53:20.344Z</time>
      </trkpt>
      <trkpt lat="46.92621" lon="15.49017">
        <ele>308.480989</ele>
        <time>2022-08-06T17:53:26.741Z</time>
      </trkpt>
      <trkpt lat="46.92796" lon="15.49002">
        <ele>308.1573</ele>
        <time>2022-08-06T17:54:09.836Z</time>
      </trkpt>
      <trkpt lat="46.92939" lon="15.4899">
        <ele>307.99823</ele>
        <time>2022-08-06T17:54:47.806Z</time>
      </trkpt>
      <trkpt lat="46.93008" lon="15.48994">
        <ele>308.099668</ele>
        <time>2022-08-06T17:55:06.987Z</time>
      </trkpt>
      <trkpt lat="46.93079" lon="15.48997">
        <ele>308.22205</ele>
        <time>2022-08-06T17:55:26.749Z</time>
      </trkpt>
      <trkpt lat="46.93214" lon="15.48955">
        <ele>308.538286</ele>
        <time>2022-08-06T17:56:04.785Z</time>
      </trkpt>
      <trkpt lat="46.93451" lon="15.48939">
        <ele>309.333159</ele>
        <time>2022-08-06T17:57:11.876Z</time>
      </trkpt>
      <trkpt lat="46.93492" lon="15.48926">
        <ele>309.498809</ele>
        <time>2022-08-06T17:57:24.224Z</time>
      </trkpt>
      <trkpt lat="46.93572" lon="15.48881">
        <ele>309.838584</ele>
        <time>2022-08-06T17:57:48.980Z</time>
      </trkpt>
      <trkpt lat="46.93601" lon="15.48863">
        <ele>309.946766</ele>
        <time>2022-08-06T17:57:57.723Z</time>
      </trkpt>
      <trkpt lat="46.93623" lon="15.4884">
        <ele>310.023943</ele>
        <time>2022-08-06T17:58:04.893Z</time>
      </trkpt>
      <trkpt lat="46.93676" lon="15.48816">
        <ele>310.188118</ele>
        <time>2022-08-06T17:58:20.941Z</time>
      </trkpt>
      <trkpt lat="46.93765" lon="15.48789">
        <ele>310.472913</ele>
        <time>2022-08-06T17:58:46.113Z</time>
      </trkpt>
      <trkpt lat="46.93774" lon="15.48786">
        <ele>310.516892</ele>
        <time>2022-08-06T17:58:48.542Z</time>
      </trkpt>
      <trkpt lat="46.93795" lon="15.48775">
        <ele>310.631526</ele>
        <time>2022-08-06T17:58:55.170Z</time>
      </trkpt>
      <trkpt lat="46.93826" lon="15.48743">
        <ele>310.820644</ele>
        <time>2022-08-06T17:59:06.424Z</time>
      </trkpt>
      <trkpt lat="46.93874" lon="15.48707">
        <ele>311.094295</ele>
        <time>2022-08-06T17:59:22.658Z</time>
      </trkpt>
      <trkpt lat="46.93925" lon="15.48687">
        <ele>311.334194</ele>
        <time>2022-08-06T17:59:38.200Z</time>
      </trkpt>
      <trkpt lat="46.93964" lon="15.48681">
        <ele>311.371971</ele>
        <time>2022-08-06T17:59:48.961Z</time>
      </trkpt>
      <trkpt lat="46.94009" lon="15.48683">
        <ele>311.415493</ele>
        <time>2022-08-06T18:00:01.307Z</time>
      </trkpt>
      <trkpt lat="46.94075" lon="15.48693">
        <ele>311.478629</ele>
        <time>2022-08-06T18:00:18.647Z</time>
      </trkpt>
      <trkpt lat="46.94084" lon="15.48695">
        <ele>311.488076</ele>
        <time>2022-08-06T18:00:21.201Z</time>
      </trkpt>
      <trkpt lat="46.9411" lon="15.48701">
        <ele>311.526213</ele>
        <time>2022-08-06T18:00:27.962Z</time>
      </trkpt>
      <trkpt lat="46.94143" lon="15.4871">
        <ele>311.591443</ele>
        <time>2022-08-06T18:00:36.354Z</time>
      </trkpt>
      <trkpt lat="46.94235" lon="15.48759">
        <ele>311.78582</ele>
        <time>2022-08-06T18:01:04.053Z</time>
      </trkpt>
      <trkpt lat="46.94266" lon="15.4877">
        <ele>311.849265</ele>
        <time>2022-08-06T18:01:13.551Z</time>
      </trkpt>
      <trkpt lat="46.94293" lon="15.48776">
        <ele>311.897511</ele>
        <time>2022-08-06T18:01:21.279Z</time>
      </trkpt>
      <trkpt lat="46.94326" lon="15.48763">
        <ele>311.957854</ele>
        <time>2022-08-06T18:01:30.564Z</time>
      </trkpt>
      <trkpt lat="46.94341" lon="15.48756">
        <ele>311.985454</ele>
        <time>2022-08-06T18:01:34.967Z</time>
      </trkpt>
      <trkpt lat="46.94425" lon="15.48764">
        <ele>312.133038</ele>
        <time>2022-08-06T18:01:58.238Z</time>
      </trkpt>
      <trkpt lat="46.94462" lon="15.48774">
        <ele>312.161978</ele>
        <time>2022-08-06T18:02:08.377Z</time>
      </trkpt>
      <trkpt lat="46.94469" lon="15.48791">
        <ele>312.150732</ele>
        <time>2022-08-06T18:02:11.997Z</time>
      </trkpt>
      <trkpt lat="46.94503" lon="15.48808">
        <ele>312.122049</ele>
        <time>2022-08-06T18:02:21.056Z</time>
      </trkpt>
      <trkpt lat="46.94606" lon="15.4884">
        <ele>312.037588</ele>
        <time>2022-08-06T18:02:48.545Z</time>
      </trkpt>
      <trkpt lat="46.94611" lon="15.48841">
        <ele>312.033811</ele>
        <time>2022-08-06T18:02:49.851Z</time>
      </trkpt>
      <trkpt lat="46.9462" lon="15.48842">
        <ele>312.024326</ele>
        <time>2022-08-06T18:02:52.315Z</time>
      </trkpt>
      <trkpt lat="46.94621" lon="15.48851">
        <ele>312.014406</ele>
        <time>2022-08-06T18:02:54.103Z</time>
      </trkpt>
      <trkpt lat="46.94628" lon="15.48856">
        <ele>312.002412</ele>
        <time>2022-08-06T18:02:56.251Z</time>
      </trkpt>
      <trkpt lat="46.94636" lon="15.48847">
        <ele>311.987248</ele>
        <time>2022-08-06T18:02:59.214Z</time>
      </trkpt>
      <trkpt lat="46.94637" lon="15.48842">
        <ele>311.981726</ele>
        <time>2022-08-06T18:03:00.265Z</time>
      </trkpt>
      <trkpt lat="46.94644" lon="15.48841">
        <ele>311.970522</ele>
        <time>2022-08-06T18:03:02.220Z</time>
      </trkpt>
      <trkpt lat="46.94647" lon="15.48841">
        <ele>311.966686</ele>
        <time>2022-08-06T18:03:02.882Z</time>
      </trkpt>
      <trkpt lat="46.9467" lon="15.48849">
        <ele>311.929752</ele>
        <time>2022-08-06T18:03:09.209Z</time>
      </trkpt>
      <trkpt lat="46.94685" lon="15.48858">
        <ele>311.905134</ele>
        <time>2022-08-06T18:03:13.353Z</time>
      </trkpt>
      <trkpt lat="46.94737" lon="15.48892">
        <ele>311.817319</ele>
        <time>2022-08-06T18:03:28.107Z</time>
      </trkpt>
      <trkpt lat="46.94802" lon="15.48894">
        <ele>311.695944</ele>
        <time>2022-08-06T18:03:44.733Z</time>
      </trkpt>
      <trkpt lat="46.94848" lon="15.48924">
        <ele>311.572096</ele>
        <time>2022-08-06T18:03:57.157Z</time>
      </trkpt>
      <trkpt lat="46.94996" lon="15.49018">
        <ele>311.2966</ele>
        <time>2022-08-06T18:04:38.854Z</time>
      </trkpt>
      <trkpt lat="46.95065" lon="15.49037">
        <ele>311.28129</ele>
        <time>2022-08-06T18:04:57.742Z</time>
      </trkpt>
      <trkpt lat="46.95123" lon="15.49039">
        <ele>311.27386</ele>
        <time>2022-08-06T18:05:13.391Z</time>
      </trkpt>
      <trkpt lat="46.95168" lon="15.49006">
        <ele>311.342295</ele>
        <time>2022-08-06T18:05:26.828Z</time>
      </trkpt>
      <trkpt lat="46.95224" lon="15.48933">
        <ele>311.445254</ele>
        <time>2022-08-06T18:05:47.190Z</time>
      </trkpt>
      <trkpt lat="46.95313" lon="15.48863">
        <ele>311.75724</ele>
        <time>2022-08-06T18:06:15.528Z</time>
      </trkpt>
      <trkpt lat="46.95369" lon="15.48813">
        <ele>312.07238</ele>
        <time>2022-08-06T18:06:34.406Z</time>
      </trkpt>
      <trkpt lat="46.95431" lon="15.48738">
        <ele>312.492591</ele>
        <time>2022-08-06T18:06:58.627Z</time>
      </trkpt>
      <trkpt lat="46.95476" lon="15.48693">
        <ele>312.854328</ele>
        <time>2022-08-06T18:07:15.242Z</time>
      </trkpt>
      <trkpt lat="46.95498" lon="15.4867">
        <ele>313.038265</ele>
        <time>2022-08-06T18:07:23.463Z</time>
      </trkpt>
      <trkpt lat="46.95522" lon="15.48649">
        <ele>313.221164</ele>
        <time>2022-08-06T18:07:31.608Z</time>
      </trkpt>
      <trkpt lat="46.95526" lon="15.48647">
        <ele>313.250224</ele>
        <time>2022-08-06T18:07:32.888Z</time>
      </trkpt>
      <trkpt lat="46.95575" lon="15.48619">
        <ele>313.600495</ele>
        <time>2022-08-06T18:07:48.376Z</time>
      </trkpt>
      <trkpt lat="46.95679" lon="15.48607">
        <ele>314.127162</ele>
        <time>2022-08-06T18:08:18.722Z</time>
      </trkpt>
      <trkpt lat="46.95731" lon="15.48594">
        <ele>314.39572</ele>
        <time>2022-08-06T18:08:34.011Z</time>
      </trkpt>
      <trkpt lat="46.95781" lon="15.48578">
        <ele>314.657382</ele>
        <time>2022-08-06T18:08:48.926Z</time>
      </trkpt>
      <trkpt lat="46.95831" lon="15.48573">
        <ele>314.912232</ele>
        <time>2022-08-06T18:09:03.628Z</time>
      </trkpt>
      <trkpt lat="46.95855" lon="15.48558">
        <ele>315.042943</ele>
        <time>2022-08-06T18:09:11.197Z</time>
      </trkpt>
      <trkpt lat="46.95896" lon="15.48493">
        <ele>315.35113</ele>
        <time>2022-08-06T18:09:28.838Z</time>
      </trkpt>
      <trkpt lat="46.95918" lon="15.48469">
        <ele>315.489214</ele>
        <time>2022-08-06T18:09:36.629Z</time>
      </trkpt>
      <trkpt lat="46.95975" lon="15.48425">
        <ele>315.820233</ele>
        <time>2022-08-06T18:09:55.169Z</time>
      </trkpt>
      <trkpt lat="46.96009" lon="15.48399">
        <ele>316.016454</ele>
        <time>2022-08-06T18:10:06.174Z</time>
      </trkpt>
      <trkpt lat="46.96084" lon="15.48374">
        <ele>316.418407</ele>
        <time>2022-08-06T18:10:29.167Z</time>
      </trkpt>
      <trkpt lat="46.96142" lon="15.48362">
        <ele>316.752025</ele>
        <time>2022-08-06T18:10:47.276Z</time>
      </trkpt>
      <trkpt lat="46.96202" lon="15.48228">
        <ele>317.347666</ele>
        <time>2022-08-06T18:11:18.743Z</time>
      </trkpt>
      <trkpt lat="46.96219" lon="15.482">
        <ele>317.310371</ele>
        <time>2022-08-06T18:11:26.074Z</time>
      </trkpt>
      <trkpt lat="46.9625" lon="15.4817">
        <ele>317.256082</ele>
        <time>2022-08-06T18:11:36.658Z</time>
      </trkpt>
      <trkpt lat="46.96327" lon="15.48123">
        <ele>317.136247</ele>
        <time>2022-08-06T18:11:58.091Z</time>
      </trkpt>
      <trkpt lat="46.9637" lon="15.48101">
        <ele>317.018316</ele>
        <time>2022-08-06T18:12:08.675Z</time>
      </trkpt>
      <trkpt lat="46.96377" lon="15.48103">
        <ele>316.982389</ele>
        <time>2022-08-06T18:12:10.368Z</time>
      </trkpt>
      <trkpt lat="46.96385" lon="15.48202">
        <ele>316.646714</ele>
        <time>2022-08-06T18:12:26.790Z</time>
      </trkpt>
      <trkpt lat="46.96404" lon="15.48233">
        <ele>316.50418</ele>
        <time>2022-08-06T18:12:34.027Z</time>
      </trkpt>
      <trkpt lat="46.96438" lon="15.48261">
        <ele>316.315546</ele>
        <time>2022-08-06T18:12:43.773Z</time>
      </trkpt>
      <trkpt lat="46.96445" lon="15.48267">
        <ele>316.275515</ele>
        <time>2022-08-06T18:12:47.360Z</time>
      </trkpt>
      <trkpt lat="46.96461" lon="15.4828">
        <ele>316.204947</ele>
        <time>2022-08-06T18:12:51.893Z</time>
      </trkpt>
      <trkpt lat="46.96477" lon="15.48276">
        <ele>316.201946</ele>
        <time>2022-08-06T18:12:56.018Z</time>
      </trkpt>
      <trkpt lat="46.96551" lon="15.48232">
        <ele>316.187007</ele>
        <time>2022-08-06T18:13:16.346Z</time>
      </trkpt>
      <trkpt lat="46.96558" lon="15.48229">
        <ele>316.185499</ele>
        <time>2022-08-06T18:13:18.376Z</time>
      </trkpt>
      <trkpt lat="46.96714" lon="15.48172">
        <ele>316.672611</ele>
        <time>2022-08-06T18:14:04.282Z</time>
      </trkpt>
      <trkpt lat="46.96736" lon="15.48171">
        <ele>316.798428</ele>
        <time>2022-08-06T18:14:11.046Z</time>
      </trkpt>
      <trkpt lat="46.96815" lon="15.48165">
        <ele>317.245041</ele>
        <time>2022-08-06T18:14:35.320Z</time>
      </trkpt>
      <trkpt lat="46.96989" lon="15.48133">
        <ele>318.232408</ele>
        <time>2022-08-06T18:15:26.640Z</time>
      </trkpt>
      <trkpt lat="46.97016" lon="15.48107">
        <ele>318.415492</ele>
        <time>2022-08-06T18:15:35.260Z</time>
      </trkpt>
      <trkpt lat="46.97043" lon="15.48042">
        <ele>318.71857</ele>
        <time>2022-08-06T18:15:50.399Z</time>
      </trkpt>
      <trkpt lat="46.97056" lon="15.47977">
        <ele>318.986848</ele>
        <time>2022-08-06T18:16:05.240Z</time>
      </trkpt>
      <trkpt lat="46.97067" lon="15.47966">
        <ele>319.063235</ele>
        <time>2022-08-06T18:16:09.690Z</time>
      </trkpt>
      <trkpt lat="46.97079" lon="15.47964">
        <ele>319.134831</ele>
        <time>2022-08-06T18:16:13.508Z</time>
      </trkpt>
      <trkpt lat="46.97096" lon="15.47967">
        <ele>319.234673</ele>
        <time>2022-08-06T18:16:19.154Z</time>
      </trkpt>
      <trkpt lat="46.97118" lon="15.47957">
        <ele>319.314156</ele>
        <time>2022-08-06T18:16:25.633Z</time>
      </trkpt>
      <trkpt lat="46.9714" lon="15.47925">
        <ele>319.417463</ele>
        <time>2022-08-06T18:16:34.589Z</time>
      </trkpt>
      <trkpt lat="46.97167" lon="15.47918">
        <ele>319.510045</ele>
        <time>2022-08-06T18:16:42.787Z</time>
      </trkpt>
      <trkpt lat="46.97172" lon="15.47918">
        <ele>319.529314</ele>
        <time>2022-08-06T18:16:44.529Z</time>
      </trkpt>
      <trkpt lat="46.97226" lon="15.47884">
        <ele>319.726523</ele>
        <time>2022-08-06T18:17:02.543Z</time>
      </trkpt>
      <trkpt lat="46.97217" lon="15.47834">
        <ele>319.845886</ele>
        <time>2022-08-06T18:17:12.784Z</time>
      </trkpt>
      <trkpt lat="46.97219" lon="15.47824">
        <ele>319.802182</ele>
        <time>2022-08-06T18:17:14.713Z</time>
      </trkpt>
      <trkpt lat="46.97381" lon="15.47711">
        <ele>318.66421</ele>
        <time>2022-08-06T18:17:58.593Z</time>
      </trkpt>
      <trkpt lat="46.97463" lon="15.47602">
        <ele>318.430869</ele>
        <time>2022-08-06T18:18:28.260Z</time>
      </trkpt>
      <trkpt lat="46.97504" lon="15.476">
        <ele>318.346008</ele>
        <time>2022-08-06T18:18:39.038Z</time>
      </trkpt>
      <trkpt lat="46.97523" lon="15.47587">
        <ele>318.301755</ele>
        <time>2022-08-06T18:18:44.759Z</time>
      </trkpt>
      <trkpt lat="46.97531" lon="15.47565">
        <ele>318.353507</ele>
        <time>2022-08-06T18:18:49.620Z</time>
      </trkpt>
      <trkpt lat="46.97537" lon="15.47427">
        <ele>318.663979</ele>
        <time>2022-08-06T18:19:16.270Z</time>
      </trkpt>
      <trkpt lat="46.97542" lon="15.47403">
        <ele>318.721067</ele>
        <time>2022-08-06T18:19:21.288Z</time>
      </trkpt>
      <trkpt lat="46.97782" lon="15.47245">
        <ele>319.64992</ele>
        <time>2022-08-06T18:20:36.669Z</time>
      </trkpt>
      <trkpt lat="46.97988" lon="15.4714">
        <ele>320.514171</ele>
        <time>2022-08-06T18:21:39.555Z</time>
      </trkpt>
      <trkpt lat="46.98009" lon="15.47175">
        <ele>320.728155</ele>
        <time>2022-08-06T18:21:49.388Z</time>
      </trkpt>
      <trkpt lat="46.98023" lon="15.4723">
        <ele>321.000419</ele>
        <time>2022-08-06T18:22:02.289Z</time>
      </trkpt>
      <trkpt lat="46.9813" lon="15.4718">
        <ele>322.263923</ele>
        <time>2022-08-06T18:22:40.110Z</time>
      </trkpt>
      <trkpt lat="46.98185" lon="15.47187">
        <ele>323.011742</ele>
        <time>2022-08-06T18:22:59.278Z</time>
      </trkpt>
      <trkpt lat="46.98229" lon="15.47205">
        <ele>323.6331</ele>
        <time>2022-08-06T18:23:15.151Z</time>
      </trkpt>
      <trkpt lat="46.98295" lon="15.47194">
        <ele>324.364213</ele>
        <time>2022-08-06T18:23:38.784Z</time>
      </trkpt>
      <trkpt lat="46.98336" lon="15.47198">
        <ele>324.802086</ele>
        <time>2022-08-06T18:23:52.552Z</time>
      </trkpt>
      <trkpt lat="46.98369" lon="15.47187">
        <ele>325.170841</ele>
        <time>2022-08-06T18:24:03.590Z</time>
      </trkpt>
      <trkpt lat="46.98413" lon="15.47184">
        <ele>325.638837</ele>
        <time>2022-08-06T18:24:16.810Z</time>
      </trkpt>
      <trkpt lat="46.98433" lon="15.47151">
        <ele>325.660912</ele>
        <time>2022-08-06T18:24:25.840Z</time>
      </trkpt>
      <trkpt lat="46.98476" lon="15.4707">
        <ele>325.710934</ele>
        <time>2022-08-06T18:24:45.981Z</time>
      </trkpt>
      <trkpt lat="46.98515" lon="15.47027">
        <ele>325.746185</ele>
        <time>2022-08-06T18:24:59.470Z</time>
      </trkpt>
      <trkpt lat="46.98544" lon="15.47007">
        <ele>325.759797</ele>
        <time>2022-08-06T18:25:07.714Z</time>
      </trkpt>
      <trkpt lat="46.98637" lon="15.47">
        <ele>325.375401</ele>
        <time>2022-08-06T18:25:31.498Z</time>
      </trkpt>
      <trkpt lat="46.98662" lon="15.46996">
        <ele>325.272298</ele>
        <time>2022-08-06T18:25:37.984Z</time>
      </trkpt>
      <trkpt lat="46.98687" lon="15.46979">
        <ele>325.158312</ele>
        <time>2022-08-06T18:25:45.331Z</time>
      </trkpt>
      <trkpt lat="46.98729" lon="15.46954">
        <ele>324.985536</ele>
        <time>2022-08-06T18:25:57.753Z</time>
      </trkpt>
      <trkpt lat="46.98737" lon="15.46947">
        <ele>324.960784</ele>
        <time>2022-08-06T18:26:00.047Z</time>
      </trkpt>
      <trkpt lat="46.98772" lon="15.46907">
        <ele>324.832307</ele>
        <time>2022-08-06T18:26:11.806Z</time>
      </trkpt>
      <trkpt lat="46.98836" lon="15.46866">
        <ele>324.630451</ele>
        <time>2022-08-06T18:26:30.404Z</time>
      </trkpt>
      <trkpt lat="46.98867" lon="15.46835">
        <ele>324.523156</ele>
        <time>2022-08-06T18:26:40.334Z</time>
      </trkpt>
      <trkpt lat="46.98904" lon="15.46781">
        <ele>324.418132</ele>
        <time>2022-08-06T18:26:54.201Z</time>
      </trkpt>
      <trkpt lat="46.9894" lon="15.46701">
        <ele>324.291752</ele>
        <time>2022-08-06T18:27:11.919Z</time>
      </trkpt>
      <trkpt lat="46.98964" lon="15.46623">
        <ele>324.179277</ele>
        <time>2022-08-06T18:27:27.482Z</time>
      </trkpt>
      <trkpt lat="46.99051" lon="15.46505">
        <ele>324.004458</ele>
        <time>2022-08-06T18:27:59.317Z</time>
      </trkpt>
      <trkpt lat="46.99095" lon="15.46431">
        <ele>323.908573</ele>
        <time>2022-08-06T18:28:17.801Z</time>
      </trkpt>
      <trkpt lat="46.99129" lon="15.46412">
        <ele>323.917677</ele>
        <time>2022-08-06T18:28:27.892Z</time>
      </trkpt>
      <trkpt lat="46.9919" lon="15.46358">
        <ele>323.951674</ele>
        <time>2022-08-06T18:28:48.026Z</time>
      </trkpt>
      <trkpt lat="46.99221" lon="15.46327">
        <ele>323.969677</ele>
        <time>2022-08-06T18:28:58.632Z</time>
      </trkpt>
      <trkpt lat="46.99265" lon="15.46309">
        <ele>324.00248</ele>
        <time>2022-08-06T18:29:11.371Z</time>
      </trkpt>
      <trkpt lat="46.99314" lon="15.46307">
        <ele>324.098205</ele>
        <time>2022-08-06T18:29:25.010Z</time>
      </trkpt>
      <trkpt lat="46.99363" lon="15.46277">
        <ele>324.203679</ele>
        <time>2022-08-06T18:29:40.315Z</time>
      </trkpt>
      <trkpt lat="46.99378" lon="15.46261">
        <ele>324.238919</ele>
        <time>2022-08-06T18:29:45.530Z</time>
      </trkpt>
      <trkpt lat="46.99385" lon="15.46235">
        <ele>324.2767</ele>
        <time>2022-08-06T18:29:51.149Z</time>
      </trkpt>
      <trkpt lat="46.99392" lon="15.46197">
        <ele>324.330209</ele>
        <time>2022-08-06T18:29:59.157Z</time>
      </trkpt>
      <trkpt lat="46.99393" lon="15.46125">
        <ele>324.5489</ele>
        <time>2022-08-06T18:30:13.808Z</time>
      </trkpt>
      <trkpt lat="46.99399" lon="15.46094">
        <ele>324.656318</ele>
        <time>2022-08-06T18:30:20.482Z</time>
      </trkpt>
      <trkpt lat="46.99472" lon="15.45945">
        <ele>325.276905</ele>
        <time>2022-08-06T18:30:58.286Z</time>
      </trkpt>
      <trkpt lat="46.99477" lon="15.45865">
        <ele>325.636982</ele>
        <time>2022-08-06T18:31:14.767Z</time>
      </trkpt>
      <trkpt lat="46.9949" lon="15.45808">
        <ele>325.904769</ele>
        <time>2022-08-06T18:31:26.937Z</time>
      </trkpt>
      <trkpt lat="46.99504" lon="15.45789">
        <ele>326.028432</ele>
        <time>2022-08-06T18:31:32.654Z</time>
      </trkpt>
      <trkpt lat="46.99626" lon="15.45704">
        <ele>327.171127</ele>
        <time>2022-08-06T18:32:17.029Z</time>
      </trkpt>
      <trkpt lat="46.99657" lon="15.45665">
        <ele>327.569327</ele>
        <time>2022-08-06T18:32:30.720Z</time>
      </trkpt>
      <trkpt lat="46.99704" lon="15.45603">
        <ele>328.154189</ele>
        <time>2022-08-06T18:32:50.687Z</time>
      </trkpt>
      <trkpt lat="46.99767" lon="15.45575">
        <ele>328.15542</ele>
        <time>2022-08-06T18:33:09.717Z</time>
      </trkpt>
      <trkpt lat="46.99805" lon="15.45546">
        <ele>328.15621</ele>
        <time>2022-08-06T18:33:21.227Z</time>
      </trkpt>
      <trkpt lat="46.99838" lon="15.45522">
        <ele>328.156892</ele>
        <time>2022-08-06T18:33:30.452Z</time>
      </trkpt>
      <trkpt lat="46.99873" lon="15.45516">
        <ele>328.116465</ele>
        <time>2022-08-06T18:33:38.855Z</time>
      </trkpt>
      <trkpt lat="46.99919" lon="15.45494">
        <ele>327.676531</ele>
        <time>2022-08-06T18:33:50.051Z</time>
      </trkpt>
      <trkpt lat="46.99988" lon="15.45478">
        <ele>327.047576</ele>
        <time>2022-08-06T18:34:06.004Z</time>
      </trkpt>
      <trkpt lat="47.00004" lon="15.45479">
        <ele>326.90319</ele>
        <time>2022-08-06T18:34:09.769Z</time>
      </trkpt>
      <trkpt lat="47.00011" lon="15.45491">
        <ele>326.805336</ele>
        <time>2022-08-06T18:34:12.390Z</time>
      </trkpt>
      <trkpt lat="47.00017" lon="15.45515">
        <ele>326.653103</ele>
        <time>2022-08-06T18:34:16.659Z</time>
      </trkpt>
      <trkpt lat="47.00029" lon="15.4554">
        <ele>326.517993</ele>
        <time>2022-08-06T18:34:21.877Z</time>
      </trkpt>
      <trkpt lat="47.00032" lon="15.45541">
        <ele>326.510444</ele>
        <time>2022-08-06T18:34:22.675Z</time>
      </trkpt>
      <trkpt lat="47.0005" lon="15.45552">
        <ele>326.467042</ele>
        <time>2022-08-06T18:34:27.353Z</time>
      </trkpt>
      <trkpt lat="47.00073" lon="15.45586">
        <ele>326.39265</ele>
        <time>2022-08-06T18:34:35.543Z</time>
      </trkpt>
      <trkpt lat="47.00084" lon="15.45588">
        <ele>326.367725</ele>
        <time>2022-08-06T18:34:38.313Z</time>
      </trkpt>
      <trkpt lat="47.00119" lon="15.45572">
        <ele>326.285594</ele>
        <time>2022-08-06T18:34:47.611Z</time>
      </trkpt>
      <trkpt lat="47.00191" lon="15.45522">
        <ele>326.18761</ele>
        <time>2022-08-06T18:35:09.156Z</time>
      </trkpt>
      <trkpt lat="47.00213" lon="15.45514">
        <ele>326.306288</ele>
        <time>2022-08-06T18:35:15.854Z</time>
      </trkpt>
      <trkpt lat="47.0028" lon="15.45506">
        <ele>326.657272</ele>
        <time>2022-08-06T18:35:35.650Z</time>
      </trkpt>
      <trkpt lat="47.00371" lon="15.45513">
        <ele>327.111051</ele>
        <time>2022-08-06T18:36:02.861Z</time>
      </trkpt>
      <trkpt lat="47.00379" lon="15.45508">
        <ele>327.141046</ele>
        <time>2022-08-06T18:36:05.459Z</time>
      </trkpt>
      <trkpt lat="47.00385" lon="15.45495">
        <ele>327.175893</ele>
        <time>2022-08-06T18:36:08.432Z</time>
      </trkpt>
      <trkpt lat="47.0036" lon="15.45389">
        <ele>327.434675</ele>
        <time>2022-08-06T18:36:30.262Z</time>
      </trkpt>
      <trkpt lat="47.00397" lon="15.45383">
        <ele>327.559401</ele>
        <time>2022-08-06T18:36:40.758Z</time>
      </trkpt>
      <trkpt lat="47.00433" lon="15.45419">
        <ele>327.694842</ele>
        <time>2022-08-06T18:36:52.758Z</time>
      </trkpt>
      <trkpt lat="47.00464" lon="15.45434">
        <ele>327.761164</ele>
        <time>2022-08-06T18:37:01.552Z</time>
      </trkpt>
      <trkpt lat="47.0049" lon="15.45431">
        <ele>327.813165</ele>
        <time>2022-08-06T18:37:08.405Z</time>
      </trkpt>
      <trkpt lat="47.00524" lon="15.45413">
        <ele>327.885479</ele>
        <time>2022-08-06T18:37:18.069Z</time>
      </trkpt>
      <trkpt lat="47.00628" lon="15.45356">
        <ele>328.248901</ele>
        <time>2022-08-06T18:37:49.303Z</time>
      </trkpt>
      <trkpt lat="47.00735" lon="15.45279">
        <ele>328.963205</ele>
        <time>2022-08-06T18:38:25.109Z</time>
      </trkpt>
      <trkpt lat="47.00766" lon="15.45245">
        <ele>329.188655</ele>
        <time>2022-08-06T18:38:36.790Z</time>
      </trkpt>
      <trkpt lat="47.00769" lon="15.45216">
        <ele>329.303132</ele>
        <time>2022-08-06T18:38:43.142Z</time>
      </trkpt>
      <trkpt lat="47.00845" lon="15.45194">
        <ele>329.748708</ele>
        <time>2022-08-06T18:39:06.343Z</time>
      </trkpt>
      <trkpt lat="47.00882" lon="15.45198">
        <ele>329.95572</ele>
        <time>2022-08-06T18:39:16.786Z</time>
      </trkpt>
      <trkpt lat="47.00896" lon="15.45209">
        <ele>330.04732</ele>
        <time>2022-08-06T18:39:21.295Z</time>
      </trkpt>
      <trkpt lat="47.00911" lon="15.45268">
        <ele>330.403154</ele>
        <time>2022-08-06T18:39:33.292Z</time>
      </trkpt>
      <trkpt lat="47.0093" lon="15.45316">
        <ele>330.769415</ele>
        <time>2022-08-06T18:39:43.906Z</time>
      </trkpt>
      <trkpt lat="47.00958" lon="15.45476">
        <ele>331.864457</ele>
        <time>2022-08-06T18:40:20.001Z</time>
      </trkpt>
      <trkpt lat="47.01141" lon="15.4546">
        <ele>335.505228</ele>
        <time>2022-08-06T18:41:28.950Z</time>
      </trkpt>
      <trkpt lat="47.01241" lon="15.45441">
        <ele>336.462776</ele>
        <time>2022-08-06T18:42:02.327Z</time>
      </trkpt>
      <trkpt lat="47.01281" lon="15.45446">
        <ele>336.840725</ele>
        <time>2022-08-06T18:42:13.820Z</time>
      </trkpt>
      <trkpt lat="47.01349" lon="15.45503">
        <ele>337.301913</ele>
        <time>2022-08-06T18:42:34.479Z</time>
      </trkpt>
      <trkpt lat="47.01358" lon="15.45543">
        <ele>337.369065</ele>
        <time>2022-08-06T18:42:42.087Z</time>
      </trkpt>
      <trkpt lat="47.01361" lon="15.45555">
        <ele>337.388885</ele>
        <time>2022-08-06T18:42:44.230Z</time>
      </trkpt>
      <trkpt lat="47.01376" lon="15.45548">
        <ele>337.423929</ele>
        <time>2022-08-06T18:42:48.141Z</time>
      </trkpt>
      <trkpt lat="47.01411" lon="15.45533">
        <ele>337.510015</ele>
        <time>2022-08-06T18:42:58.315Z</time>
      </trkpt>
      <trkpt lat="47.01428" lon="15.45525">
        <ele>337.551927</ele>
        <time>2022-08-06T18:43:03.543Z</time>
      </trkpt>
      <trkpt lat="47.01425" lon="15.45514">
        <ele>337.571233</ele>
        <time>2022-08-06T18:43:07.383Z</time>
      </trkpt>
      <trkpt lat="47.01468" lon="15.45462">
        <ele>337.87572</ele>
        <time>2022-08-06T18:43:34.257Z</time>
      </trkpt>
      <trkpt lat="47.01483" lon="15.45437">
        <ele>338.060535</ele>
        <time>2022-08-06T18:43:45.451Z</time>
      </trkpt>
      <trkpt lat="47.0152" lon="15.454">
        <ele>338.417549</ele>
        <time>2022-08-06T18:44:07.174Z</time>
      </trkpt>
      <trkpt lat="47.01539" lon="15.45379">
        <ele>338.610147</ele>
        <time>2022-08-06T18:44:14.571Z</time>
      </trkpt>
      <trkpt lat="47.01576" lon="15.45361">
        <ele>338.924372</ele>
        <time>2022-08-06T18:44:26.849Z</time>
      </trkpt>
      <trkpt lat="47.01622" lon="15.45341">
        <ele>339.231499</ele>
        <time>2022-08-06T18:44:42.371Z</time>
      </trkpt>
      <trkpt lat="47.01643" lon="15.45342">
        <ele>339.337119</ele>
        <time>2022-08-06T18:44:48.714Z</time>
      </trkpt>
      <trkpt lat="47.01719" lon="15.45371">
        <ele>339.741796</ele>
        <time>2022-08-06T18:45:13.521Z</time>
      </trkpt>
      <trkpt lat="47.01759" lon="15.45361">
        <ele>339.947624</ele>
        <time>2022-08-06T18:45:25.255Z</time>
      </trkpt>
      <trkpt lat="47.01818" lon="15.45336">
        <ele>339.676684</ele>
        <time>2022-08-06T18:45:41.294Z</time>
      </trkpt>
      <trkpt lat="47.01829" lon="15.45335">
        <ele>339.604333</ele>
        <time>2022-08-06T18:45:44.184Z</time>
      </trkpt>
      <trkpt lat="47.01864" lon="15.45332">
        <ele>339.373469</ele>
        <time>2022-08-06T18:45:53.144Z</time>
      </trkpt>
      <trkpt lat="47.01915" lon="15.45529">
        <ele>338.149778</ele>
        <time>2022-08-06T18:46:51.333Z</time>
      </trkpt>
      <trkpt lat="47.01914" lon="15.45555">
        <ele>337.953367</ele>
        <time>2022-08-06T18:46:58.238Z</time>
      </trkpt>
      <trkpt lat="47.01901" lon="15.45605">
        <ele>337.54735</ele>
        <time>2022-08-06T18:47:12.592Z</time>
      </trkpt>
      <trkpt lat="47.01919" lon="15.45602">
        <ele>337.348264</ele>
        <time>2022-08-06T18:47:19.680Z</time>
      </trkpt>
      <trkpt lat="47.01926" lon="15.45611">
        <ele>337.236722</ele>
        <time>2022-08-06T18:47:23.714Z</time>
      </trkpt>
      <trkpt lat="47.01946" lon="15.45624">
        <ele>336.995771</ele>
        <time>2022-08-06T18:47:28.686Z</time>
      </trkpt>
      <trkpt lat="47.02013" lon="15.45584">
        <ele>336.354344</ele>
        <time>2022-08-06T18:47:45.304Z</time>
      </trkpt>
      <trkpt lat="47.02031" lon="15.45567">
        <ele>336.174676</ele>
        <time>2022-08-06T18:47:50.231Z</time>
      </trkpt>
      <trkpt lat="47.02073" lon="15.45556">
        <ele>335.819068</ele>
        <time>2022-08-06T18:48:00.605Z</time>
      </trkpt>
      <trkpt lat="47.02133" lon="15.45524">
        <ele>335.305336</ele>
        <time>2022-08-06T18:48:16.096Z</time>
      </trkpt>
      <trkpt lat="47.02252" lon="15.45468">
        <ele>334.723233</ele>
        <time>2022-08-06T18:48:46.141Z</time>
      </trkpt>
      <trkpt lat="47.02365" lon="15.45406">
        <ele>334.564406</ele>
        <time>2022-08-06T18:49:18.376Z</time>
      </trkpt>
      <trkpt lat="47.02468" lon="15.45366">
        <ele>334.684908</ele>
        <time>2022-08-06T18:49:48.168Z</time>
      </trkpt>
      <trkpt lat="47.02562" lon="15.45304">
        <ele>334.819351</ele>
        <time>2022-08-06T18:50:16.385Z</time>
      </trkpt>
      <trkpt lat="47.02679" lon="15.45246">
        <ele>335.104363</ele>
        <time>2022-08-06T18:50:49.482Z</time>
      </trkpt>
      <trkpt lat="47.02699" lon="15.45239">
        <ele>335.192572</ele>
        <time>2022-08-06T18:50:55.347Z</time>
      </trkpt>
      <trkpt lat="47.02728" lon="15.4522">
        <ele>335.323921</ele>
        <time>2022-08-06T18:51:04.290Z</time>
      </trkpt>
      <trkpt lat="47.02749" lon="15.45208">
        <ele>335.416358</ele>
        <time>2022-08-06T18:51:10.762Z</time>
      </trkpt>
      <trkpt lat="47.02875" lon="15.45146">
        <ele>336.184966</ele>
        <time>2022-08-06T18:51:51.026Z</time>
      </trkpt>
      <trkpt lat="47.0294" lon="15.45106">
        <ele>336.693113</ele>
        <time>2022-08-06T18:52:12.697Z</time>
      </trkpt>
      <trkpt lat="47.02975" lon="15.45225">
        <ele>337.074396</ele>
        <time>2022-08-06T18:52:54.817Z</time>
      </trkpt>
      <trkpt lat="47.02995" lon="15.4522">
        <ele>337.11536</ele>
        <time>2022-08-06T18:53:00.176Z</time>
      </trkpt>
      <trkpt lat="47.02997" lon="15.45225">
        <ele>337.123856</ele>
        <time>2022-08-06T18:53:01.287Z</time>
      </trkpt>
      <trkpt lat="47.0299" lon="15.45228">
        <ele>337.138303</ele>
        <time>2022-08-06T18:53:03.143Z</time>
      </trkpt>
      <trkpt lat="47.03005" lon="15.45351">
        <ele>337.311583</ele>
        <time>2022-08-06T18:53:25.676Z</time>
      </trkpt>
      <trkpt lat="47.03029" lon="15.45473">
        <ele>337.383367</ele>
        <time>2022-08-06T18:53:49.495Z</time>
      </trkpt>
      <trkpt lat="47.03033" lon="15.45491">
        <ele>337.390788</ele>
        <time>2022-08-06T18:53:53.175Z</time>
      </trkpt>
      <trkpt lat="47.03053" lon="15.45592">
        <ele>337.434423</ele>
        <time>2022-08-06T18:54:12.275Z</time>
      </trkpt>
      <trkpt lat="47.03056" lon="15.45604">
        <ele>337.439583</ele>
        <time>2022-08-06T18:54:14.422Z</time>
      </trkpt>
      <trkpt lat="47.03062" lon="15.4563">
        <ele>337.457371</ele>
        <time>2022-08-06T18:54:19.014Z</time>
      </trkpt>
      <trkpt lat="47.0308" lon="15.45713">
        <ele>337.568438</ele>
        <time>2022-08-06T18:54:34.963Z</time>
      </trkpt>
      <trkpt lat="47.03007" lon="15.45743">
        <ele>337.70961</ele>
        <time>2022-08-06T18:54:56.378Z</time>
      </trkpt>
      <trkpt lat="47.02972" lon="15.45742">
        <ele>337.77648</ele>
        <time>2022-08-06T18:55:06.355Z</time>
      </trkpt>
      <trkpt lat="47.02987" lon="15.45839">
        <ele>338.173849</ele>
        <time>2022-08-06T18:55:25.319Z</time>
      </trkpt>
      <trkpt lat="47.03039" lon="15.46103">
        <ele>339.39481</ele>
        <time>2022-08-06T18:56:22.656Z</time>
      </trkpt>
      <trkpt lat="47.03066" lon="15.46112">
        <ele>339.59402</ele>
        <time>2022-08-06T18:56:30.423Z</time>
      </trkpt>
      <trkpt lat="47.03077" lon="15.46116">
        <ele>339.669793</ele>
        <time>2022-08-06T18:56:33.433Z</time>
      </trkpt>
      <trkpt lat="47.03072" lon="15.46132">
        <ele>339.755559</ele>
        <time>2022-08-06T18:56:37.047Z</time>
      </trkpt>
      <trkpt lat="47.03077" lon="15.46164">
        <ele>339.917611</ele>
        <time>2022-08-06T18:56:43.626Z</time>
      </trkpt>
      <trkpt lat="47.03074" lon="15.46176">
        <ele>339.980358</ele>
        <time>2022-08-06T18:56:46.454Z</time>
      </trkpt>
      <trkpt lat="47.03061" lon="15.46212">
        <ele>340.175402</ele>
        <time>2022-08-06T18:56:54.843Z</time>
      </trkpt>
      <trkpt lat="47.03049" lon="15.46256">
        <ele>340.486781</ele>
        <time>2022-08-06T18:57:04.997Z</time>
      </trkpt>
      <trkpt lat="47.03041" lon="15.46311">
        <ele>340.860927</ele>
        <time>2022-08-06T18:57:17.336Z</time>
      </trkpt>
      <trkpt lat="47.03037" lon="15.46428">
        <ele>341.635701</ele>
        <time>2022-08-06T18:57:42.472Z</time>
      </trkpt>
      <trkpt lat="47.03032" lon="15.46455">
        <ele>341.817124</ele>
        <time>2022-08-06T18:57:47.990Z</time>
      </trkpt>
      <trkpt lat="47.03035" lon="15.46494">
        <ele>341.986726</ele>
        <time>2022-08-06T18:57:56.542Z</time>
      </trkpt>
      <trkpt lat="47.03042" lon="15.46508">
        <ele>342.040603</ele>
        <time>2022-08-06T18:58:00.269Z</time>
      </trkpt>
      <trkpt lat="47.03054" lon="15.46511">
        <ele>342.096206</ele>
        <time>2022-08-06T18:58:04.631Z</time>
      </trkpt>
      <trkpt lat="47.03056" lon="15.46519">
        <ele>342.120087</ele>
        <time>2022-08-06T18:58:06.307Z</time>
      </trkpt>
      <trkpt lat="47.03058" lon="15.46527">
        <ele>342.147404</ele>
        <time>2022-08-06T18:58:08.215Z</time>
      </trkpt>
      <trkpt lat="47.03058" lon="15.46531">
        <ele>342.159577</ele>
        <time>2022-08-06T18:58:09.045Z</time>
      </trkpt>
      <trkpt lat="47.03059" lon="15.46533">
        <ele>342.165291</ele>
        <time>2022-08-06T18:58:09.429Z</time>
      </trkpt>
      <trkpt lat="47.03051" lon="15.4655">
        <ele>342.226428</ele>
        <time>2022-08-06T18:58:13.930Z</time>
      </trkpt>
      <trkpt lat="47.03074" lon="15.46752">
        <ele>342.60351</ele>
        <time>2022-08-06T18:58:51.851Z</time>
      </trkpt>
      <trkpt lat="47.03086" lon="15.46894">
        <ele>342.262688</ele>
        <time>2022-08-06T18:59:15.298Z</time>
      </trkpt>
      <trkpt lat="47.03106" lon="15.47053">
        <ele>342.087078</ele>
        <time>2022-08-06T18:59:43.457Z</time>
      </trkpt>
      <trkpt lat="47.03111" lon="15.47063">
        <ele>342.088276</ele>
        <time>2022-08-06T18:59:45.844Z</time>
      </trkpt>
      <trkpt lat="47.03112" lon="15.47072">
        <ele>342.089113</ele>
        <time>2022-08-06T18:59:47.510Z</time>
      </trkpt>
      <trkpt lat="47.03114" lon="15.47087">
        <ele>342.09047</ele>
        <time>2022-08-06T18:59:50.246Z</time>
      </trkpt>
      <trkpt lat="47.03136" lon="15.47241">
        <ele>342.118975</ele>
        <time>2022-08-06T19:00:20.061Z</time>
      </trkpt>
      <trkpt lat="47.03168" lon="15.47371">
        <ele>342.257338</ele>
        <time>2022-08-06T19:00:46.474Z</time>
      </trkpt>
      <trkpt lat="47.03193" lon="15.47446">
        <ele>342.340615</ele>
        <time>2022-08-06T19:01:01.663Z</time>
      </trkpt>
      <trkpt lat="47.03246" lon="15.4758">
        <ele>342.410161</ele>
        <time>2022-08-06T19:01:29.279Z</time>
      </trkpt>
      <trkpt lat="47.03328" lon="15.4775">
        <ele>342.902585</ele>
        <time>2022-08-06T19:02:08.107Z</time>
      </trkpt>
      <trkpt lat="47.0333" lon="15.47754">
        <ele>342.932765</ele>
        <time>2022-08-06T19:02:09.108Z</time>
      </trkpt>
      <trkpt lat="47.03345" lon="15.47783">
        <ele>343.160358</ele>
        <time>2022-08-06T19:02:16.776Z</time>
      </trkpt>
      <trkpt lat="47.03374" lon="15.47838">
        <ele>343.58634</ele>
        <time>2022-08-06T19:02:31.817Z</time>
      </trkpt>
      <trkpt lat="47.0339" lon="15.47854">
        <ele>343.76155</ele>
        <time>2022-08-06T19:02:38.252Z</time>
      </trkpt>
      <trkpt lat="47.03389" lon="15.47857">
        <ele>343.78262</ele>
        <time>2022-08-06T19:02:39.066Z</time>
      </trkpt>
      <trkpt lat="47.03388" lon="15.47862">
        <ele>343.813926</ele>
        <time>2022-08-06T19:02:40.266Z</time>
      </trkpt>
      <trkpt lat="47.03393" lon="15.47874">
        <ele>343.894412</ele>
        <time>2022-08-06T19:02:43.254Z</time>
      </trkpt>
      <trkpt lat="47.0339" lon="15.47877">
        <ele>343.928795</ele>
        <time>2022-08-06T19:02:44.572Z</time>
      </trkpt>
      <trkpt lat="47.03385" lon="15.47884">
        <ele>343.988743</ele>
        <time>2022-08-06T19:02:46.808Z</time>
      </trkpt>
      <trkpt lat="47.03379" lon="15.47889">
        <ele>344.047865</ele>
        <time>2022-08-06T19:02:49.098Z</time>
      </trkpt>
      <trkpt lat="47.03378" lon="15.47891">
        <ele>344.065391</ele>
        <time>2022-08-06T19:02:49.754Z</time>
      </trkpt>
      <trkpt lat="47.03373" lon="15.4791">
        <ele>344.232404</ele>
        <time>2022-08-06T19:02:54.467Z</time>
      </trkpt>
      <trkpt lat="47.0337" lon="15.47914">
        <ele>344.290061</ele>
        <time>2022-08-06T19:02:56.028Z</time>
      </trkpt>
      <trkpt lat="47.03378" lon="15.47923">
        <ele>344.420095</ele>
        <time>2022-08-06T19:02:59.497Z</time>
      </trkpt>
      <trkpt lat="47.03383" lon="15.47947">
        <ele>344.632336</ele>
        <time>2022-08-06T19:03:05.269Z</time>
      </trkpt>
      <trkpt lat="47.03421" lon="15.48011">
        <ele>345.376544</ele>
        <time>2022-08-06T19:03:24.949Z</time>
      </trkpt>
      <trkpt lat="47.03429" lon="15.48066">
        <ele>345.867357</ele>
        <time>2022-08-06T19:03:37.857Z</time>
      </trkpt>
      <trkpt lat="47.03422" lon="15.48111">
        <ele>346.275639</ele>
        <time>2022-08-06T19:03:48.277Z</time>
      </trkpt>
      <trkpt lat="47.03332" lon="15.48407">
        <ele>347.14561</ele>
        <time>2022-08-06T19:04:48.631Z</time>
      </trkpt>
      <trkpt lat="47.033" lon="15.48472">
        <ele>347.543442</ele>
        <time>2022-08-06T19:05:05.218Z</time>
      </trkpt>
      <trkpt lat="47.03293" lon="15.48499">
        <ele>347.686596</ele>
        <time>2022-08-06T19:05:11.588Z</time>
      </trkpt>
      <trkpt lat="47.03268" lon="15.48585">
        <ele>348.149206</ele>
        <time>2022-08-06T19:05:32.103Z</time>
      </trkpt>
      <trkpt lat="47.03252" lon="15.48624">
        <ele>348.278293</ele>
        <time>2022-08-06T19:05:41.785Z</time>
      </trkpt>
      <trkpt lat="47.03221" lon="15.48687">
        <ele>348.414589</ele>
        <time>2022-08-06T19:05:56.554Z</time>
      </trkpt>
      <trkpt lat="47.03211" lon="15.48708">
        <ele>348.460264</ele>
        <time>2022-08-06T19:06:01.837Z</time>
      </trkpt>
      <trkpt lat="47.03155" lon="15.48883">
        <ele>348.492555</ele>
        <time>2022-08-06T19:06:36.558Z</time>
      </trkpt>
      <trkpt lat="47.03104" lon="15.49064">
        <ele>347.894875</ele>
        <time>2022-08-06T19:07:08.087Z</time>
      </trkpt>
      <trkpt lat="47.03093" lon="15.49146">
        <ele>348.339966</ele>
        <time>2022-08-06T19:07:23.904Z</time>
      </trkpt>
      <trkpt lat="47.03064" lon="15.4925">
        <ele>348.988216</ele>
        <time>2022-08-06T19:07:48.520Z</time>
      </trkpt>
      <trkpt lat="47.03019" lon="15.49327">
        <ele>349.671336</ele>
        <time>2022-08-06T19:08:12.144Z</time>
      </trkpt>
      <trkpt lat="47.03017" lon="15.49421">
        <ele>350.526583</ele>
        <time>2022-08-06T19:08:33.804Z</time>
      </trkpt>
      <trkpt lat="47.02994" lon="15.49545">
        <ele>351.701502</ele>
        <time>2022-08-06T19:09:03.165Z</time>
      </trkpt>
      <trkpt lat="47.02985" lon="15.49549">
        <ele>351.812426</ele>
        <time>2022-08-06T19:09:06.092Z</time>
      </trkpt>
      <trkpt lat="47.02969" lon="15.49557">
        <ele>351.822901</ele>
        <time>2022-08-06T19:09:11.521Z</time>
      </trkpt>
      <trkpt lat="47.02933" lon="15.49567">
        <ele>351.844516</ele>
        <time>2022-08-06T19:09:21.694Z</time>
      </trkpt>
      <trkpt lat="47.02923" lon="15.49571">
        <ele>351.851171</ele>
        <time>2022-08-06T19:09:24.580Z</time>
      </trkpt>
      <trkpt lat="47.02892" lon="15.49586">
        <ele>351.870792</ele>
        <time>2022-08-06T19:09:32.814Z</time>
      </trkpt>
      <trkpt lat="47.02884" lon="15.49593">
        <ele>351.87612</ele>
        <time>2022-08-06T19:09:35.058Z</time>
      </trkpt>
      <trkpt lat="47.02851" lon="15.49621">
        <ele>351.89904</ele>
        <time>2022-08-06T19:09:45.197Z</time>
      </trkpt>
      <trkpt lat="47.0285" lon="15.49622">
        <ele>351.899996</ele>
        <time>2022-08-06T19:09:45.639Z</time>
      </trkpt>
      <trkpt lat="47.02826" lon="15.49642">
        <ele>351.916639</ele>
        <time>2022-08-06T19:09:52.841Z</time>
      </trkpt>
      <trkpt lat="47.02824" lon="15.49643">
        <ele>351.917688</ele>
        <time>2022-08-06T19:09:53.304Z</time>
      </trkpt>
      <trkpt lat="47.02791" lon="15.49668">
        <ele>351.846857</ele>
        <time>2022-08-06T19:10:03.133Z</time>
      </trkpt>
      <trkpt lat="47.02783" lon="15.49674">
        <ele>351.828427</ele>
        <time>2022-08-06T19:10:05.361Z</time>
      </trkpt>
      <trkpt lat="47.02787" lon="15.49695">
        <ele>351.796595</ele>
        <time>2022-08-06T19:10:08.906Z</time>
      </trkpt>
      <trkpt lat="47.02807" lon="15.49792">
        <ele>351.643803</ele>
        <time>2022-08-06T19:10:26.381Z</time>
      </trkpt>
      <trkpt lat="47.02815" lon="15.49823">
        <ele>351.594681</ele>
        <time>2022-08-06T19:10:32.117Z</time>
      </trkpt>
      <trkpt lat="47.02832" lon="15.49883">
        <ele>351.558746</ele>
        <time>2022-08-06T19:10:44.504Z</time>
      </trkpt>
      <trkpt lat="47.02843" lon="15.49904">
        <ele>351.608107</ele>
        <time>2022-08-06T19:10:49.658Z</time>
      </trkpt>
      <trkpt lat="47.02845" lon="15.4992">
        <ele>351.636609</ele>
        <time>2022-08-06T19:10:52.887Z</time>
      </trkpt>
      <trkpt lat="47.02848" lon="15.49943">
        <ele>351.679593</ele>
        <time>2022-08-06T19:10:57.416Z</time>
      </trkpt>
      <trkpt lat="47.02848" lon="15.49951">
        <ele>351.693177</ele>
        <time>2022-08-06T19:10:58.735Z</time>
      </trkpt>
      <trkpt lat="47.02909" lon="15.50039">
        <ele>351.921755</ele>
        <time>2022-08-06T19:11:22.317Z</time>
      </trkpt>
      <trkpt lat="47.02937" lon="15.50081">
        <ele>352.071417</ele>
        <time>2022-08-06T19:11:33.755Z</time>
      </trkpt>
      <trkpt lat="47.02946" lon="15.50099">
        <ele>352.177008</ele>
        <time>2022-08-06T19:11:37.971Z</time>
      </trkpt>
      <trkpt lat="47.02959" lon="15.50129">
        <ele>352.359621</ele>
        <time>2022-08-06T19:11:45.511Z</time>
      </trkpt>
      <trkpt lat="47.02966" lon="15.50157">
        <ele>352.506666</ele>
        <time>2022-08-06T19:11:51.681Z</time>
      </trkpt>
      <trkpt lat="47.02977" lon="15.50173">
        <ele>352.622454</ele>
        <time>2022-08-06T19:11:56.416Z</time>
      </trkpt>
      <trkpt lat="47.03042" lon="15.50237">
        <ele>353.194836</ele>
        <time>2022-08-06T19:12:20.229Z</time>
      </trkpt>
      <trkpt lat="47.03061" lon="15.50256">
        <ele>353.373304</ele>
        <time>2022-08-06T19:12:27.564Z</time>
      </trkpt>
      <trkpt lat="47.03147" lon="15.50333">
        <ele>354.234537</ele>
        <time>2022-08-06T19:12:58.852Z</time>
      </trkpt>
      <trkpt lat="47.03167" lon="15.50362">
        <ele>354.475586</ele>
        <time>2022-08-06T19:13:07.582Z</time>
      </trkpt>
      <trkpt lat="47.03184" lon="15.50392">
        <ele>354.699064</ele>
        <time>2022-08-06T19:13:15.768Z</time>
      </trkpt>
      <trkpt lat="47.03194" lon="15.50398">
        <ele>354.794146</ele>
        <time>2022-08-06T19:13:19.153Z</time>
      </trkpt>
      <trkpt lat="47.0328" lon="15.50454">
        <ele>355.54934</ele>
        <time>2022-08-06T19:13:46.854Z</time>
      </trkpt>
      <trkpt lat="47.03315" lon="15.50485">
        <ele>355.883054</ele>
        <time>2022-08-06T19:13:59.156Z</time>
      </trkpt>
      <trkpt lat="47.03322" lon="15.50483">
        <ele>355.932942</ele>
        <time>2022-08-06T19:14:01.020Z</time>
      </trkpt>
      <trkpt lat="47.03336" lon="15.50481">
        <ele>356.052107</ele>
        <time>2022-08-06T19:14:05.728Z</time>
      </trkpt>
      <trkpt lat="47.03345" lon="15.50484">
        <ele>356.123111</ele>
        <time>2022-08-06T19:14:08.521Z</time>
      </trkpt>
      <trkpt lat="47.03374" lon="15.5052">
        <ele>356.600876</ele>
        <time>2022-08-06T19:14:20.788Z</time>
      </trkpt>
      <trkpt lat="47.03383" lon="15.50519">
        <ele>356.787342</ele>
        <time>2022-08-06T19:14:24.017Z</time>
      </trkpt>
      <trkpt lat="47.03401" lon="15.50557">
        <ele>357.416454</ele>
        <time>2022-08-06T19:14:34.847Z</time>
      </trkpt>
      <trkpt lat="47.03424" lon="15.50577">
        <ele>357.943759</ele>
        <time>2022-08-06T19:14:44.097Z</time>
      </trkpt>
      <trkpt lat="47.03468" lon="15.5062">
        <ele>358.97932</ele>
        <time>2022-08-06T19:15:02.864Z</time>
      </trkpt>
      <trkpt lat="47.03572" lon="15.50794">
        <ele>363.30571</ele>
        <time>2022-08-06T19:16:06.993Z</time>
      </trkpt>
      <trkpt lat="47.03598" lon="15.50819">
        <ele>364.264644</ele>
        <time>2022-08-06T19:16:20.177Z</time>
      </trkpt>
      <trkpt lat="47.03598" lon="15.50826">
        <ele>364.415129</ele>
        <time>2022-08-06T19:16:22.252Z</time>
      </trkpt>
      <trkpt lat="47.03596" lon="15.50846">
        <ele>364.834316</ele>
        <time>2022-08-06T19:16:29.595Z</time>
      </trkpt>
      <trkpt lat="47.03594" lon="15.50856">
        <ele>365.063478</ele>
        <time>2022-08-06T19:16:33.089Z</time>
      </trkpt>
      <trkpt lat="47.03645" lon="15.50885">
        <ele>366.941726</ele>
        <time>2022-08-06T19:16:56.541Z</time>
      </trkpt>
      <trkpt lat="47.03793" lon="15.51066">
        <ele>373.17864</ele>
        <time>2022-08-06T19:18:21.202Z</time>
      </trkpt>
      <trkpt lat="47.03851" lon="15.51135">
        <ele>375.11099</ele>
        <time>2022-08-06T19:18:49.638Z</time>
      </trkpt>
      <trkpt lat="47.03943" lon="15.5127">
        <ele>377.625436</ele>
        <time>2022-08-06T19:19:34.442Z</time>
      </trkpt>
      <trkpt lat="47.03957" lon="15.51297">
        <ele>377.983783</ele>
        <time>2022-08-06T19:19:41.189Z</time>
      </trkpt>
      <trkpt lat="47.03977" lon="15.51346">
        <ele>378.599305</ele>
        <time>2022-08-06T19:19:54.973Z</time>
      </trkpt>
      <trkpt lat="47.04043" lon="15.51466">
        <ele>380.354837</ele>
        <time>2022-08-06T19:20:32.061Z</time>
      </trkpt>
      <trkpt lat="47.04066" lon="15.51511">
        <ele>381.003221</ele>
        <time>2022-08-06T19:20:47.151Z</time>
      </trkpt>
      <trkpt lat="47.04105" lon="15.51587">
        <ele>382.123116</ele>
        <time>2022-08-06T19:21:09.976Z</time>
      </trkpt>
      <trkpt lat="47.04131" lon="15.51662">
        <ele>381.84104</ele>
        <time>2022-08-06T19:21:26.745Z</time>
      </trkpt>
      <trkpt lat="47.04155" lon="15.51744">
        <ele>381.387621</ele>
        <time>2022-08-06T19:21:40.384Z</time>
      </trkpt>
      <trkpt lat="47.0417" lon="15.51779">
        <ele>381.173415</ele>
        <time>2022-08-06T19:21:46.448Z</time>
      </trkpt>
      <trkpt lat="47.04186" lon="15.51832">
        <ele>380.874526</ele>
        <time>2022-08-06T19:21:55.210Z</time>
      </trkpt>
      <trkpt lat="47.0421" lon="15.51916">
        <ele>379.422992</ele>
        <time>2022-08-06T19:22:08.342Z</time>
      </trkpt>
      <trkpt lat="47.0422" lon="15.51956">
        <ele>378.734899</ele>
        <time>2022-08-06T19:22:14.233Z</time>
      </trkpt>
      <trkpt lat="47.04235" lon="15.51994">
        <ele>378.032736</ele>
        <time>2022-08-06T19:22:20.165Z</time>
      </trkpt>
      <trkpt lat="47.04252" lon="15.5205">
        <ele>377.043485</ele>
        <time>2022-08-06T19:22:28.617Z</time>
      </trkpt>
      <trkpt lat="47.04259" lon="15.52115">
        <ele>376.071015</ele>
        <time>2022-08-06T19:22:37.664Z</time>
      </trkpt>
      <trkpt lat="47.0427" lon="15.5218">
        <ele>375.117344</ele>
        <time>2022-08-06T19:22:47.176Z</time>
      </trkpt>
      <trkpt lat="47.04281" lon="15.52226">
        <ele>374.425196</ele>
        <time>2022-08-06T19:22:54.185Z</time>
      </trkpt>
      <trkpt lat="47.04281" lon="15.52267">
        <ele>373.834555</ele>
        <time>2022-08-06T19:23:00.547Z</time>
      </trkpt>
      <trkpt lat="47.04286" lon="15.52266">
        <ele>373.719488</ele>
        <time>2022-08-06T19:23:01.602Z</time>
      </trkpt>
      <trkpt lat="47.04297" lon="15.52261">
        <ele>373.490774</ele>
        <time>2022-08-06T19:23:04.820Z</time>
      </trkpt>
      <trkpt lat="47.04308" lon="15.52258">
        <ele>373.256854</ele>
        <time>2022-08-06T19:23:08.201Z</time>
      </trkpt>
      <trkpt lat="47.04396" lon="15.52224">
        <ele>372.552932</ele>
        <time>2022-08-06T19:23:27.517Z</time>
      </trkpt>
      <trkpt lat="47.04401" lon="15.52227">
        <ele>372.525327</ele>
        <time>2022-08-06T19:23:29.224Z</time>
      </trkpt>
      <trkpt lat="47.04466" lon="15.52204">
        <ele>372.214016</ele>
        <time>2022-08-06T19:23:47.110Z</time>
      </trkpt>
      <trkpt lat="47.04542" lon="15.52171">
        <ele>372.360073</ele>
        <time>2022-08-06T19:24:12.636Z</time>
      </trkpt>
      <trkpt lat="47.04541" lon="15.52169">
        <ele>372.368623</ele>
        <time>2022-08-06T19:24:13.019Z</time>
      </trkpt>
      <trkpt lat="47.04545" lon="15.52167">
        <ele>372.396469</ele>
        <time>2022-08-06T19:24:14.338Z</time>
      </trkpt>
      <trkpt lat="47.0456" lon="15.52224">
        <ele>372.676037</ele>
        <time>2022-08-06T19:24:26.618Z</time>
      </trkpt>
      <trkpt lat="47.04583" lon="15.52307">
        <ele>373.090205</ele>
        <time>2022-08-06T19:24:44.369Z</time>
      </trkpt>
      <trkpt lat="47.04588" lon="15.52322">
        <ele>373.167659</ele>
        <time>2022-08-06T19:24:47.815Z</time>
      </trkpt>
      <trkpt lat="47.04599" lon="15.52365">
        <ele>373.386345</ele>
        <time>2022-08-06T19:24:57.108Z</time>
      </trkpt>
      <trkpt lat="47.04604" lon="15.52376">
        <ele>373.447764</ele>
        <time>2022-08-06T19:24:59.720Z</time>
      </trkpt>
      <trkpt lat="47.046" lon="15.52379">
        <ele>373.477267</ele>
        <time>2022-08-06T19:25:00.881Z</time>
      </trkpt>
      <trkpt lat="47.0461" lon="15.5241">
        <ele>373.63968</ele>
        <time>2022-08-06T19:25:07.725Z</time>
      </trkpt>
      <trkpt lat="47.04616" lon="15.52427">
        <ele>373.733847</ele>
        <time>2022-08-06T19:25:11.521Z</time>
      </trkpt>
      <trkpt lat="47.04641" lon="15.52486">
        <ele>374.063275</ele>
        <time>2022-08-06T19:25:25.564Z</time>
      </trkpt>
      <trkpt lat="47.047" lon="15.52595">
        <ele>374.954292</ele>
        <time>2022-08-06T19:25:54.821Z</time>
      </trkpt>
      <trkpt lat="47.04756" lon="15.52695">
        <ele>376.278364</ele>
        <time>2022-08-06T19:26:24.459Z</time>
      </trkpt>
      <trkpt lat="47.04761" lon="15.52701">
        <ele>376.376451</ele>
        <time>2022-08-06T19:26:26.746Z</time>
      </trkpt>
      <trkpt lat="47.04833" lon="15.52792">
        <ele>378.218021</ele>
        <time>2022-08-06T19:27:00.902Z</time>
      </trkpt>
      <trkpt lat="47.04881" lon="15.52838">
        <ele>379.683131</ele>
        <time>2022-08-06T19:27:22.605Z</time>
      </trkpt>
      <trkpt lat="47.04933" lon="15.52868">
        <ele>381.121997</ele>
        <time>2022-08-06T19:27:45.048Z</time>
      </trkpt>
      <trkpt lat="47.04938" lon="15.5287">
        <ele>381.269584</ele>
        <time>2022-08-06T19:27:47.444Z</time>
      </trkpt>
      <trkpt lat="47.04976" lon="15.52879">
        <ele>382.290302</ele>
        <time>2022-08-06T19:28:03.655Z</time>
      </trkpt>
      <trkpt lat="47.05024" lon="15.52878">
        <ele>383.635308</ele>
        <time>2022-08-06T19:28:24.068Z</time>
      </trkpt>
      <trkpt lat="47.05069" lon="15.52877">
        <ele>384.871707</ele>
        <time>2022-08-06T19:28:42.478Z</time>
      </trkpt>
      <trkpt lat="47.0511" lon="15.52867">
        <ele>386.037189</ele>
        <time>2022-08-06T19:28:59.207Z</time>
      </trkpt>
      <trkpt lat="47.05195" lon="15.52848">
        <ele>387.480464</ele>
        <time>2022-08-06T19:29:30.313Z</time>
      </trkpt>
      <trkpt lat="47.0522" lon="15.5285">
        <ele>387.751828</ele>
        <time>2022-08-06T19:29:38.530Z</time>
      </trkpt>
      <trkpt lat="47.05281" lon="15.52873">
        <ele>388.417708</ele>
        <time>2022-08-06T19:29:56.750Z</time>
      </trkpt>
      <trkpt lat="47.05295" lon="15.52881">
        <ele>388.583792</ele>
        <time>2022-08-06T19:30:01.112Z</time>
      </trkpt>
      <trkpt lat="47.05327" lon="15.52899">
        <ele>388.916741</ele>
        <time>2022-08-06T19:30:10.546Z</time>
      </trkpt>
      <trkpt lat="47.05335" lon="15.52905">
        <ele>388.989864</ele>
        <time>2022-08-06T19:30:13.014Z</time>
      </trkpt>
      <trkpt lat="47.05393" lon="15.52944">
        <ele>389.527575</ele>
        <time>2022-08-06T19:30:31.495Z</time>
      </trkpt>
      <trkpt lat="47.05406" lon="15.52951">
        <ele>389.63834</ele>
        <time>2022-08-06T19:30:35.463Z</time>
      </trkpt>
      <trkpt lat="47.0545" lon="15.52972">
        <ele>390.02778</ele>
        <time>2022-08-06T19:30:50.431Z</time>
      </trkpt>
      <trkpt lat="47.05494" lon="15.52994">
        <ele>390.41929</ele>
        <time>2022-08-06T19:31:06.435Z</time>
      </trkpt>
      <trkpt lat="47.05535" lon="15.53019">
        <ele>390.826248</ele>
        <time>2022-08-06T19:31:21.922Z</time>
      </trkpt>
      <trkpt lat="47.05576" lon="15.5305">
        <ele>391.244282</ele>
        <time>2022-08-06T19:31:36.830Z</time>
      </trkpt>
      <trkpt lat="47.05597" lon="15.53065">
        <ele>391.453298</ele>
        <time>2022-08-06T19:31:43.931Z</time>
      </trkpt>
      <trkpt lat="47.05628" lon="15.53095">
        <ele>391.790697</ele>
        <time>2022-08-06T19:31:54.305Z</time>
      </trkpt>
      <trkpt lat="47.05634" lon="15.53105">
        <ele>391.876909</ele>
        <time>2022-08-06T19:31:56.773Z</time>
      </trkpt>
      <trkpt lat="47.05653" lon="15.53167">
        <ele>391.877052</ele>
        <time>2022-08-06T19:32:08.536Z</time>
      </trkpt>
      <trkpt lat="47.05672" lon="15.53242">
        <ele>391.789694</ele>
        <time>2022-08-06T19:32:22.260Z</time>
      </trkpt>
      <trkpt lat="47.05675" lon="15.53257">
        <ele>391.772584</ele>
        <time>2022-08-06T19:32:24.933Z</time>
      </trkpt>
      <trkpt lat="47.05683" lon="15.53286">
        <ele>391.738148</ele>
        <time>2022-08-06T19:32:30.322Z</time>
      </trkpt>
      <trkpt lat="47.05687" lon="15.53303">
        <ele>391.718133</ele>
        <time>2022-08-06T19:32:33.523Z</time>
      </trkpt>
      <trkpt lat="47.05699" lon="15.53355">
        <ele>391.658402</ele>
        <time>2022-08-06T19:32:43.002Z</time>
      </trkpt>
      <trkpt lat="47.05699" lon="15.53357">
        <ele>391.656112</ele>
        <time>2022-08-06T19:32:43.390Z</time>
      </trkpt>
      <trkpt lat="47.05706" lon="15.53386">
        <ele>391.75208</ele>
        <time>2022-08-06T19:32:49.117Z</time>
      </trkpt>
      <trkpt lat="47.05714" lon="15.53424">
        <ele>391.904757</ele>
        <time>2022-08-06T19:32:56.840Z</time>
      </trkpt>
      <trkpt lat="47.05729" lon="15.53477">
        <ele>392.128001</ele>
        <time>2022-08-06T19:33:08.517Z</time>
      </trkpt>
      <trkpt lat="47.05734" lon="15.53496">
        <ele>392.206704</ele>
        <time>2022-08-06T19:33:12.710Z</time>
      </trkpt>
      <trkpt lat="47.05738" lon="15.53514">
        <ele>392.280194</ele>
        <time>2022-08-06T19:33:16.782Z</time>
      </trkpt>
      <trkpt lat="47.05748" lon="15.53566">
        <ele>392.488972</ele>
        <time>2022-08-06T19:33:28.232Z</time>
      </trkpt>
      <trkpt lat="47.0575" lon="15.53585">
        <ele>392.56541</ele>
        <time>2022-08-06T19:33:32.336Z</time>
      </trkpt>
      <trkpt lat="47.0575" lon="15.53587">
        <ele>392.572107</ele>
        <time>2022-08-06T19:33:32.677Z</time>
      </trkpt>
      <trkpt lat="47.05754" lon="15.53635">
        <ele>392.676964</ele>
        <time>2022-08-06T19:33:42.751Z</time>
      </trkpt>
      <trkpt lat="47.05757" lon="15.53674">
        <ele>392.67981</ele>
        <time>2022-08-06T19:33:50.614Z</time>
      </trkpt>
      <trkpt lat="47.05759" lon="15.53691">
        <ele>392.680982</ele>
        <time>2022-08-06T19:33:53.750Z</time>
      </trkpt>
      <trkpt lat="47.05759" lon="15.53703">
        <ele>392.681884</ele>
        <time>2022-08-06T19:33:56.028Z</time>
      </trkpt>
      <trkpt lat="47.05763" lon="15.53761">
        <ele>392.686062</ele>
        <time>2022-08-06T19:34:06.522Z</time>
      </trkpt>
      <trkpt lat="47.05766" lon="15.53815">
        <ele>392.689924</ele>
        <time>2022-08-06T19:34:15.651Z</time>
      </trkpt>
      <trkpt lat="47.05769" lon="15.53862">
        <ele>392.693273</ele>
        <time>2022-08-06T19:34:23.530Z</time>
      </trkpt>
      <trkpt lat="47.05775" lon="15.53956">
        <ele>392.954576</ele>
        <time>2022-08-06T19:34:39.850Z</time>
      </trkpt>
      <trkpt lat="47.05775" lon="15.53963">
        <ele>392.974964</ele>
        <time>2022-08-06T19:34:40.920Z</time>
      </trkpt>
      <trkpt lat="47.05779" lon="15.53994">
        <ele>393.077139</ele>
        <time>2022-08-06T19:34:46.719Z</time>
      </trkpt>
      <trkpt lat="47.05784" lon="15.54022">
        <ele>393.172148</ele>
        <time>2022-08-06T19:34:52.162Z</time>
      </trkpt>
      <trkpt lat="47.05801" lon="15.54064">
        <ele>393.32894</ele>
        <time>2022-08-06T19:35:02.702Z</time>
      </trkpt>
      <trkpt lat="47.05808" lon="15.54074">
        <ele>393.375778</ele>
        <time>2022-08-06T19:35:05.997Z</time>
      </trkpt>
      <trkpt lat="47.05827" lon="15.54103">
        <ele>393.502261</ele>
        <time>2022-08-06T19:35:14.944Z</time>
      </trkpt>
      <trkpt lat="47.05859" lon="15.54146">
        <ele>394.117265</ele>
        <time>2022-08-06T19:35:29.609Z</time>
      </trkpt>
      <trkpt lat="47.05887" lon="15.54168">
        <ele>394.644583</ele>
        <time>2022-08-06T19:35:40.466Z</time>
      </trkpt>
      <trkpt lat="47.05915" lon="15.54195">
        <ele>395.197078</ele>
        <time>2022-08-06T19:35:52.391Z</time>
      </trkpt>
      <trkpt lat="47.05927" lon="15.54221">
        <ele>395.558215</ele>
        <time>2022-08-06T19:36:00.009Z</time>
      </trkpt>
      <trkpt lat="47.05952" lon="15.54401">
        <ele>397.713082</ele>
        <time>2022-08-06T19:36:43.837Z</time>
      </trkpt>
      <trkpt lat="47.0596" lon="15.54453">
        <ele>398.369213</ele>
        <time>2022-08-06T19:36:56.633Z</time>
      </trkpt>
      <trkpt lat="47.05984" lon="15.54543">
        <ele>399.542233</ele>
        <time>2022-08-06T19:37:19.826Z</time>
      </trkpt>
      <trkpt lat="47.05985" lon="15.54549">
        <ele>399.616085</ele>
        <time>2022-08-06T19:37:21.406Z</time>
      </trkpt>
      <trkpt lat="47.05991" lon="15.54575">
        <ele>399.985733</ele>
        <time>2022-08-06T19:37:28.245Z</time>
      </trkpt>
      <trkpt lat="47.05999" lon="15.54617">
        <ele>400.592324</ele>
        <time>2022-08-06T19:37:38.804Z</time>
      </trkpt>
      <trkpt lat="47.06011" lon="15.54681">
        <ele>401.534882</ele>
        <time>2022-08-06T19:37:55.279Z</time>
      </trkpt>
      <trkpt lat="47.06037" lon="15.54774">
        <ele>402.944761</ele>
        <time>2022-08-06T19:38:21.079Z</time>
      </trkpt>
      <trkpt lat="47.06056" lon="15.54843">
        <ele>403.93698</ele>
        <time>2022-08-06T19:38:39.893Z</time>
      </trkpt>
      <trkpt lat="47.06059" lon="15.54854">
        <ele>404.079228</ele>
        <time>2022-08-06T19:38:42.667Z</time>
      </trkpt>
      <trkpt lat="47.0608" lon="15.5494">
        <ele>405.224241</ele>
        <time>2022-08-06T19:39:04.617Z</time>
      </trkpt>
      <trkpt lat="47.06083" lon="15.54954">
        <ele>405.407238</ele>
        <time>2022-08-06T19:39:08.019Z</time>
      </trkpt>
      <trkpt lat="47.06109" lon="15.55052">
        <ele>406.733261</ele>
        <time>2022-08-06T19:39:32.882Z</time>
      </trkpt>
      <trkpt lat="47.06111" lon="15.55057">
        <ele>406.810857</ele>
        <time>2022-08-06T19:39:34.151Z</time>
      </trkpt>
      <trkpt lat="47.06114" lon="15.55066">
        <ele>406.970521</ele>
        <time>2022-08-06T19:39:36.478Z</time>
      </trkpt>
      <trkpt lat="47.06125" lon="15.55114">
        <ele>407.802302</ele>
        <time>2022-08-06T19:39:48.750Z</time>
      </trkpt>
      <trkpt lat="47.0613" lon="15.55134">
        <ele>408.134539</ele>
        <time>2022-08-06T19:39:53.922Z</time>
      </trkpt>
      <trkpt lat="47.06131" lon="15.5514">
        <ele>408.239375</ele>
        <time>2022-08-06T19:39:55.525Z</time>
      </trkpt>
      <trkpt lat="47.06138" lon="15.55172">
        <ele>408.797532</ele>
        <time>2022-08-06T19:40:04.157Z</time>
      </trkpt>
      <trkpt lat="47.06173" lon="15.55319">
        <ele>411.418137</ele>
        <time>2022-08-06T19:40:46.202Z</time>
      </trkpt>
      <trkpt lat="47.06175" lon="15.55327">
        <ele>411.618614</ele>
        <time>2022-08-06T19:40:48.818Z</time>
      </trkpt>
      <trkpt lat="47.06199" lon="15.55419">
        <ele>413.834763</ele>
        <time>2022-08-06T19:41:17.644Z</time>
      </trkpt>
      <trkpt lat="47.06263" lon="15.55672">
        <ele>419.40367</ele>
        <time>2022-08-06T19:42:36.849Z</time>
      </trkpt>
      <trkpt lat="47.06266" lon="15.55684">
        <ele>419.639811</ele>
        <time>2022-08-06T19:42:40.284Z</time>
      </trkpt>
      <trkpt lat="47.06268" lon="15.55694">
        <ele>419.837767</ele>
        <time>2022-08-06T19:42:43.116Z</time>
      </trkpt>
      <trkpt lat="47.06283" lon="15.55746">
        <ele>420.889484</ele>
        <time>2022-08-06T19:42:57.793Z</time>
      </trkpt>
      <trkpt lat="47.0634" lon="15.55968">
        <ele>424.160946</ele>
        <time>2022-08-06T19:43:53.912Z</time>
      </trkpt>
      <trkpt lat="47.06387" lon="15.56186">
        <ele>427.627014</ele>
        <time>2022-08-06T19:44:50.728Z</time>
      </trkpt>
      <trkpt lat="47.0639" lon="15.56207">
        <ele>427.988486</ele>
        <time>2022-08-06T19:44:57.060Z</time>
      </trkpt>
      <trkpt lat="47.06395" lon="15.56249">
        <ele>428.714314</ele>
        <time>2022-08-06T19:45:08.961Z</time>
      </trkpt>
      <trkpt lat="47.06395" lon="15.5625">
        <ele>428.726371</ele>
        <time>2022-08-06T19:45:09.179Z</time>
      </trkpt>
      <trkpt lat="47.06395" lon="15.56257">
        <ele>428.850053</ele>
        <time>2022-08-06T19:45:11.398Z</time>
      </trkpt>
      <trkpt lat="47.06395" lon="15.56258">
        <ele>428.86211</ele>
        <time>2022-08-06T19:45:11.615Z</time>
      </trkpt>
      <trkpt lat="47.064" lon="15.56438">
        <ele>432.002557</ele>
        <time>2022-08-06T19:46:00.636Z</time>
      </trkpt>
      <trkpt lat="47.06404" lon="15.56598">
        <ele>434.51622</ele>
        <time>2022-08-06T19:46:43.312Z</time>
      </trkpt>
      <trkpt lat="47.06405" lon="15.568">
        <ele>436.189992</ele>
        <time>2022-08-06T19:47:27.032Z</time>
      </trkpt>
      <trkpt lat="47.06406" lon="15.56909">
        <ele>436.708924</ele>
        <time>2022-08-06T19:47:47.774Z</time>
      </trkpt>
      <trkpt lat="47.0641" lon="15.56976">
        <ele>436.932269</ele>
        <time>2022-08-06T19:48:00.563Z</time>
      </trkpt>
      <trkpt lat="47.06425" lon="15.57048">
        <ele>437.186916</ele>
        <time>2022-08-06T19:48:15.000Z</time>
      </trkpt>
      <trkpt lat="47.0643" lon="15.57072">
        <ele>437.268934</ele>
        <time>2022-08-06T19:48:20.330Z</time>
      </trkpt>
      <trkpt lat="47.06495" lon="15.57287">
        <ele>439.260065</ele>
        <time>2022-08-06T19:49:11.520Z</time>
      </trkpt>
      <trkpt lat="47.06496" lon="15.57291">
        <ele>439.29594</ele>
        <time>2022-08-06T19:49:12.528Z</time>
      </trkpt>
      <trkpt lat="47.065" lon="15.57308">
        <ele>439.455419</ele>
        <time>2022-08-06T19:49:16.792Z</time>
      </trkpt>
      <trkpt lat="47.06513" lon="15.57358">
        <ele>440.145562</ele>
        <time>2022-08-06T19:49:30.609Z</time>
      </trkpt>
      <trkpt lat="47.06569" lon="15.57584">
        <ele>443.979064</ele>
        <time>2022-08-06T19:50:32.562Z</time>
      </trkpt>
      <trkpt lat="47.06584" lon="15.57678">
        <ele>445.989806</ele>
        <time>2022-08-06T19:50:59.668Z</time>
      </trkpt>
      <trkpt lat="47.06587" lon="15.57708">
        <ele>446.626414</ele>
        <time>2022-08-06T19:51:08.203Z</time>
      </trkpt>
      <trkpt lat="47.06589" lon="15.57724">
        <ele>446.968239</ele>
        <time>2022-08-06T19:51:12.776Z</time>
      </trkpt>
      <trkpt lat="47.06604" lon="15.57875">
        <ele>450.230897</ele>
        <time>2022-08-06T19:51:57.855Z</time>
      </trkpt>
      <trkpt lat="47.06613" lon="15.57919">
        <ele>451.295442</ele>
        <time>2022-08-06T19:52:11.034Z</time>
      </trkpt>
      <trkpt lat="47.0663" lon="15.57954">
        <ele>452.277979</ele>
        <time>2022-08-06T19:52:22.655Z</time>
      </trkpt>
      <trkpt lat="47.06641" lon="15.57973">
        <ele>452.858787</ele>
        <time>2022-08-06T19:52:30.029Z</time>
      </trkpt>
      <trkpt lat="47.06649" lon="15.57988">
        <ele>453.297413</ele>
        <time>2022-08-06T19:52:35.559Z</time>
      </trkpt>
      <trkpt lat="47.06665" lon="15.58012">
        <ele>454.065859</ele>
        <time>2022-08-06T19:52:45.655Z</time>
      </trkpt>
      <trkpt lat="47.06736" lon="15.58114">
        <ele>457.046257</ele>
        <time>2022-08-06T19:53:29.229Z</time>
      </trkpt>
      <trkpt lat="47.06782" lon="15.58164">
        <ele>458.632004</ele>
        <time>2022-08-06T19:53:50.473Z</time>
      </trkpt>
      <trkpt lat="47.06787" lon="15.58155">
        <ele>458.836304</ele>
        <time>2022-08-06T19:53:52.321Z</time>
      </trkpt>
      <trkpt lat="47.06797" lon="15.58149">
        <ele>459.135157</ele>
        <time>2022-08-06T19:53:57.100Z</time>
      </trkpt>
      <trkpt lat="47.06821" lon="15.58175">
        <ele>459.957404</ele>
        <time>2022-08-06T19:54:08.274Z</time>
      </trkpt>
      <trkpt lat="47.06858" lon="15.58186">
        <ele>461.023257</ele>
        <time>2022-08-06T19:54:23.569Z</time>
      </trkpt>
      <trkpt lat="47.06873" lon="15.58183">
        <ele>461.430784</ele>
        <time>2022-08-06T19:54:29.621Z</time>
      </trkpt>
      <trkpt lat="47.06891" lon="15.58155">
        <ele>462.163521</ele>
        <time>2022-08-06T19:54:41.323Z</time>
      </trkpt>
      <trkpt lat="47.069" lon="15.58152">
        <ele>462.417654</ele>
        <time>2022-08-06T19:54:44.618Z</time>
      </trkpt>
      <trkpt lat="47.06919" lon="15.58163">
        <ele>463.002838</ele>
        <time>2022-08-06T19:54:53.169Z</time>
      </trkpt>
      <trkpt lat="47.06963" lon="15.58159">
        <ele>464.208612</ele>
        <time>2022-08-06T19:55:09.020Z</time>
      </trkpt>
      <trkpt lat="47.06994" lon="15.58141">
        <ele>465.13921</ele>
        <time>2022-08-06T19:55:20.890Z</time>
      </trkpt>
      <trkpt lat="47.07025" lon="15.58136">
        <ele>466.507021</ele>
        <time>2022-08-06T19:55:33.526Z</time>
      </trkpt>
      <trkpt lat="47.07036" lon="15.58116">
        <ele>467.404927</ele>
        <time>2022-08-06T19:55:42.387Z</time>
      </trkpt>
      <trkpt lat="47.07035" lon="15.58086">
        <ele>468.4505</ele>
        <time>2022-08-06T19:55:54.398Z</time>
      </trkpt>
      <trkpt lat="47.06974" lon="15.58006">
        <ele>472.651312</ele>
        <time>2022-08-06T19:56:37.003Z</time>
      </trkpt>
      <trkpt lat="47.06971" lon="15.57996">
        <ele>473.006838</ele>
        <time>2022-08-06T19:56:40.277Z</time>
      </trkpt>
      <trkpt lat="47.06977" lon="15.57986">
        <ele>473.44688</ele>
        <time>2022-08-06T19:56:44.951Z</time>
      </trkpt>
      <trkpt lat="47.07024" lon="15.57994">
        <ele>476.621786</ele>
        <time>2022-08-06T19:57:12.894Z</time>
      </trkpt>
      <trkpt lat="47.07056" lon="15.58008">
        <ele>479.382564</ele>
        <time>2022-08-06T19:57:32.917Z</time>
      </trkpt>
      <trkpt lat="47.0709" lon="15.58004">
        <ele>482.236115</ele>
        <time>2022-08-06T19:57:56.214Z</time>
      </trkpt>
      <trkpt lat="47.07109" lon="15.57997">
        <ele>483.911434</ele>
        <time>2022-08-06T19:58:10.478Z</time>
      </trkpt>
      <trkpt lat="47.0712" lon="15.57985">
        <ele>485.007858</ele>
        <time>2022-08-06T19:58:20.848Z</time>
      </trkpt>
      <trkpt lat="47.0714" lon="15.5794">
        <ele>488.056297</ele>
        <time>2022-08-06T19:58:48.692Z</time>
      </trkpt>
      <trkpt lat="47.07148" lon="15.57888">
        <ele>491.065925</ele>
        <time>2022-08-06T19:59:12.472Z</time>
      </trkpt>
      <trkpt lat="47.07155" lon="15.5784">
        <ele>493.978199</ele>
        <time>2022-08-06T19:59:34.994Z</time>
      </trkpt>
      <trkpt lat="47.07179" lon="15.57808">
        <ele>496.75275</ele>
        <time>2022-08-06T19:59:57.382Z</time>
      </trkpt>
      <trkpt lat="47.07216" lon="15.57759">
        <ele>501.04927</ele>
        <time>2022-08-06T20:00:33.018Z</time>
      </trkpt>
      <trkpt lat="47.07243" lon="15.57736">
        <ele>503.703311</ele>
        <time>2022-08-06T20:00:53.333Z</time>
      </trkpt>
      <trkpt lat="47.07284" lon="15.57716">
        <ele>507.044489</ele>
        <time>2022-08-06T20:01:21.150Z</time>
      </trkpt>
      <trkpt lat="47.07373" lon="15.57684">
        <ele>513.559647</ele>
        <time>2022-08-06T20:02:15.406Z</time>
      </trkpt>
      <trkpt lat="47.07412" lon="15.57693">
        <ele>516.367791</ele>
        <time>2022-08-06T20:02:39.349Z</time>
      </trkpt>
      <trkpt lat="47.07451" lon="15.5772">
        <ele>519.079096</ele>
        <time>2022-08-06T20:03:04.702Z</time>
      </trkpt>
      <trkpt lat="47.07465" lon="15.57768">
        <ele>521.113521</ele>
        <time>2022-08-06T20:03:26.453Z</time>
      </trkpt>
      <trkpt lat="47.07493" lon="15.5779">
        <ele>522.931357</ele>
        <time>2022-08-06T20:03:45.194Z</time>
      </trkpt>
      <trkpt lat="47.07513" lon="15.57833">
        <ele>524.93815</ele>
        <time>2022-08-06T20:04:03.806Z</time>
      </trkpt>
      <trkpt lat="47.07522" lon="15.5786">
        <ele>526.115737</ele>
        <time>2022-08-06T20:04:14.047Z</time>
      </trkpt>
      <trkpt lat="47.07527" lon="15.57937">
        <ele>528.17803</ele>
        <time>2022-08-06T20:04:39.103Z</time>
      </trkpt>
      <trkpt lat="47.07528" lon="15.57983">
        <ele>528.380727</ele>
        <time>2022-08-06T20:04:52.855Z</time>
      </trkpt>
      <trkpt lat="47.07531" lon="15.57995">
        <ele>528.439467</ele>
        <time>2022-08-06T20:04:55.635Z</time>
      </trkpt>
      <trkpt lat="47.07567" lon="15.58129">
        <ele>529.078997</ele>
        <time>2022-08-06T20:05:18.933Z</time>
      </trkpt>
      <trkpt lat="47.07587" lon="15.58177">
        <ele>529.123916</ele>
        <time>2022-08-06T20:05:27.224Z</time>
      </trkpt>
      <trkpt lat="47.07588" lon="15.5818">
        <ele>529.104068</ele>
        <time>2022-08-06T20:05:27.777Z</time>
      </trkpt>
      <trkpt lat="47.07594" lon="15.58211">
        <ele>528.938923</ele>
        <time>2022-08-06T20:05:32.534Z</time>
      </trkpt>
      <trkpt lat="47.07601" lon="15.58247">
        <ele>528.747518</ele>
        <time>2022-08-06T20:05:38.430Z</time>
      </trkpt>
      <trkpt lat="47.07606" lon="15.58273">
        <ele>528.610584</ele>
        <time>2022-08-06T20:05:42.760Z</time>
      </trkpt>
      <trkpt lat="47.07614" lon="15.58311">
        <ele>528.404396</ele>
        <time>2022-08-06T20:05:48.906Z</time>
      </trkpt>
      <trkpt lat="47.07619" lon="15.58339">
        <ele>528.258487</ele>
        <time>2022-08-06T20:05:53.581Z</time>
      </trkpt>
      <trkpt lat="47.07621" lon="15.5835">
        <ele>528.199962</ele>
        <time>2022-08-06T20:05:55.280Z</time>
      </trkpt>
      <trkpt lat="47.07631" lon="15.58415">
        <ele>527.933728</ele>
        <time>2022-08-06T20:06:06.357Z</time>
      </trkpt>
      <trkpt lat="47.07637" lon="15.58419">
        <ele>528.040449</ele>
        <time>2022-08-06T20:06:08.394Z</time>
      </trkpt>
      <trkpt lat="47.07633" lon="15.58434">
        <ele>528.22317</ele>
        <time>2022-08-06T20:06:11.905Z</time>
      </trkpt>
      <trkpt lat="47.07618" lon="15.58482">
        <ele>528.819478</ele>
        <time>2022-08-06T20:06:24.650Z</time>
      </trkpt>
      <trkpt lat="47.07582" lon="15.58546">
        <ele>529.774066</ele>
        <time>2022-08-06T20:06:47.445Z</time>
      </trkpt>
      <trkpt lat="47.07562" lon="15.58598">
        <ele>530.451247</ele>
        <time>2022-08-06T20:07:03.199Z</time>
      </trkpt>
      <trkpt lat="47.07561" lon="15.58605">
        <ele>530.53126</ele>
        <time>2022-08-06T20:07:04.944Z</time>
      </trkpt>
      <trkpt lat="47.07541" lon="15.58701">
        <ele>531.163117</ele>
        <time>2022-08-06T20:07:26.354Z</time>
      </trkpt>
      <trkpt lat="47.07529" lon="15.58816">
        <ele>531.613202</ele>
        <time>2022-08-06T20:07:48.341Z</time>
      </trkpt>
      <trkpt lat="47.07522" lon="15.58871">
        <ele>531.830939</ele>
        <time>2022-08-06T20:07:59.816Z</time>
      </trkpt>
      <trkpt lat="47.07502" lon="15.58986">
        <ele>531.648019</ele>
        <time>2022-08-06T20:08:20.852Z</time>
      </trkpt>
      <trkpt lat="47.07502" lon="15.59018">
        <ele>531.553005</ele>
        <time>2022-08-06T20:08:26.611Z</time>
      </trkpt>
      <trkpt lat="47.07506" lon="15.59055">
        <ele>531.444623</ele>
        <time>2022-08-06T20:08:32.455Z</time>
      </trkpt>
      <trkpt lat="47.07507" lon="15.5907">
        <ele>531.402229</ele>
        <time>2022-08-06T20:08:34.760Z</time>
      </trkpt>
      <trkpt lat="47.07505" lon="15.59117">
        <ele>531.266168</ele>
        <time>2022-08-06T20:08:42.467Z</time>
      </trkpt>
      <trkpt lat="47.0749" lon="15.59156">
        <ele>531.104742</ele>
        <time>2022-08-06T20:08:49.835Z</time>
      </trkpt>
      <trkpt lat="47.07475" lon="15.59172">
        <ele>530.895504</ele>
        <time>2022-08-06T20:08:54.047Z</time>
      </trkpt>
      <trkpt lat="47.07448" lon="15.59184">
        <ele>530.582662</ele>
        <time>2022-08-06T20:09:01.378Z</time>
      </trkpt>
      <trkpt lat="47.0741" lon="15.59194">
        <ele>530.144868</ele>
        <time>2022-08-06T20:09:10.758Z</time>
      </trkpt>
      <trkpt lat="47.07361" lon="15.59202">
        <ele>529.596093</ele>
        <time>2022-08-06T20:09:21.677Z</time>
      </trkpt>
      <trkpt lat="47.07359" lon="15.59221">
        <ele>529.442868</ele>
        <time>2022-08-06T20:09:24.780Z</time>
      </trkpt>
      <trkpt lat="47.07356" lon="15.59245">
        <ele>529.257476</ele>
        <time>2022-08-06T20:09:28.421Z</time>
      </trkpt>
      <trkpt lat="47.07324" lon="15.5929">
        <ele>528.430465</ele>
        <time>2022-08-06T20:09:38.416Z</time>
      </trkpt>
      <trkpt lat="47.07298" lon="15.59338">
        <ele>527.560738</ele>
        <time>2022-08-06T20:09:47.572Z</time>
      </trkpt>
      <trkpt lat="47.07253" lon="15.59384">
        <ele>526.403675</ele>
        <time>2022-08-06T20:09:59.514Z</time>
      </trkpt>
      <trkpt lat="47.07239" lon="15.59431">
        <ele>525.668202</ele>
        <time>2022-08-06T20:10:07.185Z</time>
      </trkpt>
      <trkpt lat="47.07239" lon="15.59548">
        <ele>524.062999</ele>
        <time>2022-08-06T20:10:24.356Z</time>
      </trkpt>
      <trkpt lat="47.0726" lon="15.59647">
        <ele>522.64628</ele>
        <time>2022-08-06T20:10:39.439Z</time>
      </trkpt>
      <trkpt lat="47.07261" lon="15.59673">
        <ele>522.285511</ele>
        <time>2022-08-06T20:10:43.542Z</time>
      </trkpt>
      <trkpt lat="47.07261" lon="15.59749">
        <ele>521.706426</ele>
        <time>2022-08-06T20:10:56.355Z</time>
      </trkpt>
      <trkpt lat="47.07257" lon="15.59789">
        <ele>521.644737</ele>
        <time>2022-08-06T20:11:03.059Z</time>
      </trkpt>
      <trkpt lat="47.07281" lon="15.59929">
        <ele>521.422884</ele>
        <time>2022-08-06T20:11:31.547Z</time>
      </trkpt>
      <trkpt lat="47.07307" lon="15.59962">
        <ele>521.267837</ele>
        <time>2022-08-06T20:11:41.306Z</time>
      </trkpt>
      <trkpt lat="47.07337" lon="15.59976">
        <ele>520.783562</ele>
        <time>2022-08-06T20:11:50.531Z</time>
      </trkpt>
      <trkpt lat="47.07371" lon="15.59977">
        <ele>520.249501</ele>
        <time>2022-08-06T20:12:00.001Z</time>
      </trkpt>
      <trkpt lat="47.0739" lon="15.5999">
        <ele>519.927787</ele>
        <time>2022-08-06T20:12:04.927Z</time>
      </trkpt>
      <trkpt lat="47.07401" lon="15.60013">
        <ele>519.634878</ele>
        <time>2022-08-06T20:12:09.115Z</time>
      </trkpt>
      <trkpt lat="47.07398" lon="15.6015">
        <ele>517.618213</ele>
        <time>2022-08-06T20:12:28.363Z</time>
      </trkpt>
      <trkpt lat="47.07386" lon="15.60222">
        <ele>515.689648</ele>
        <time>2022-08-06T20:12:38.169Z</time>
      </trkpt>
      <trkpt lat="47.07391" lon="15.60304">
        <ele>513.528818</ele>
        <time>2022-08-06T20:12:49.179Z</time>
      </trkpt>
      <trkpt lat="47.07427" lon="15.60407">
        <ele>511.203273</ele>
        <time>2022-08-06T20:13:04.795Z</time>
      </trkpt>
      <trkpt lat="47.07434" lon="15.60438">
        <ele>510.863989</ele>
        <time>2022-08-06T20:13:09.430Z</time>
      </trkpt>
      <trkpt lat="47.07431" lon="15.60445">
        <ele>510.771025</ele>
        <time>2022-08-06T20:13:10.737Z</time>
      </trkpt>
      <trkpt lat="47.07398" lon="15.60466">
        <ele>510.210451</ele>
        <time>2022-08-06T20:13:18.896Z</time>
      </trkpt>
      <trkpt lat="47.0737" lon="15.60497">
        <ele>509.659588</ele>
        <time>2022-08-06T20:13:27.506Z</time>
      </trkpt>
      <trkpt lat="47.07347" lon="15.60548">
        <ele>509.007268</ele>
        <time>2022-08-06T20:13:38.714Z</time>
      </trkpt>
      <trkpt lat="47.07321" lon="15.60677">
        <ele>508.892917</ele>
        <time>2022-08-06T20:14:07.816Z</time>
      </trkpt>
      <trkpt lat="47.07322" lon="15.60718">
        <ele>508.898329</ele>
        <time>2022-08-06T20:14:16.411Z</time>
      </trkpt>
      <trkpt lat="47.07331" lon="15.60759">
        <ele>508.90406</ele>
        <time>2022-08-06T20:14:24.926Z</time>
      </trkpt>
      <trkpt lat="47.07384" lon="15.60884">
        <ele>507.281315</ele>
        <time>2022-08-06T20:14:48.411Z</time>
      </trkpt>
      <trkpt lat="47.074" lon="15.60994">
        <ele>505.234944</ele>
        <time>2022-08-06T20:15:03.756Z</time>
      </trkpt>
      <trkpt lat="47.07417" lon="15.6104">
        <ele>504.293964</ele>
        <time>2022-08-06T20:15:10.884Z</time>
      </trkpt>
      <trkpt lat="47.07421" lon="15.6108">
        <ele>503.780333</ele>
        <time>2022-08-06T20:15:16.647Z</time>
      </trkpt>
      <trkpt lat="47.07419" lon="15.61111">
        <ele>503.455291</ele>
        <time>2022-08-06T20:15:20.919Z</time>
      </trkpt>
      <trkpt lat="47.0741" lon="15.61134">
        <ele>503.165523</ele>
        <time>2022-08-06T20:15:24.738Z</time>
      </trkpt>
      <trkpt lat="47.07342" lon="15.61266">
        <ele>501.415829</ele>
        <time>2022-08-06T20:15:51.554Z</time>
      </trkpt>
      <trkpt lat="47.07315" lon="15.61412">
        <ele>501.557073</ele>
        <time>2022-08-06T20:16:25.583Z</time>
      </trkpt>
      <trkpt lat="47.07312" lon="15.61443">
        <ele>501.614763</ele>
        <time>2022-08-06T20:16:32.282Z</time>
      </trkpt>
      <trkpt lat="47.07316" lon="15.61485">
        <ele>501.69134</ele>
        <time>2022-08-06T20:16:40.279Z</time>
      </trkpt>
      <trkpt lat="47.07323" lon="15.61514">
        <ele>501.74814</ele>
        <time>2022-08-06T20:16:45.977Z</time>
      </trkpt>
      <trkpt lat="47.07359" lon="15.61563">
        <ele>500.904255</ele>
        <time>2022-08-06T20:16:58.195Z</time>
      </trkpt>
      <trkpt lat="47.07379" lon="15.61598">
        <ele>500.140562</ele>
        <time>2022-08-06T20:17:05.587Z</time>
      </trkpt>
      <trkpt lat="47.07403" lon="15.61659">
        <ele>498.966489</ele>
        <time>2022-08-06T20:17:15.743Z</time>
      </trkpt>
      <trkpt lat="47.07464" lon="15.61747">
        <ele>496.557502</ele>
        <time>2022-08-06T20:17:32.893Z</time>
      </trkpt>
      <trkpt lat="47.07487" lon="15.61798">
        <ele>494.949234</ele>
        <time>2022-08-06T20:17:40.645Z</time>
      </trkpt>
      <trkpt lat="47.07489" lon="15.6184">
        <ele>493.825567</ele>
        <time>2022-08-06T20:17:46.044Z</time>
      </trkpt>
      <trkpt lat="47.07484" lon="15.61961">
        <ele>490.59466</ele>
        <time>2022-08-06T20:18:02.556Z</time>
      </trkpt>
      <trkpt lat="47.0749" lon="15.61998">
        <ele>490.257091</ele>
        <time>2022-08-06T20:18:07.890Z</time>
      </trkpt>
      <trkpt lat="47.0751" lon="15.62047">
        <ele>490.08006</ele>
        <time>2022-08-06T20:18:16.902Z</time>
      </trkpt>
      <trkpt lat="47.07523" lon="15.6219">
        <ele>489.628577</ele>
        <time>2022-08-06T20:18:46.297Z</time>
      </trkpt>
      <trkpt lat="47.07543" lon="15.62304">
        <ele>489.15593</ele>
        <time>2022-08-06T20:19:12.741Z</time>
      </trkpt>
      <trkpt lat="47.07541" lon="15.62362">
        <ele>488.90362</ele>
        <time>2022-08-06T20:19:24.164Z</time>
      </trkpt>
      <trkpt lat="47.07491" lon="15.62468">
        <ele>488.17794</ele>
        <time>2022-08-06T20:19:44.233Z</time>
      </trkpt>
      <trkpt lat="47.07482" lon="15.62486">
        <ele>487.480816</ele>
        <time>2022-08-06T20:19:47.356Z</time>
      </trkpt>
      <trkpt lat="47.07481" lon="15.62502">
        <ele>486.988142</ele>
        <time>2022-08-06T20:19:49.538Z</time>
      </trkpt>
      <trkpt lat="47.07493" lon="15.62596">
        <ele>484.087321</ele>
        <time>2022-08-06T20:20:02.161Z</time>
      </trkpt>
      <trkpt lat="47.07498" lon="15.62743">
        <ele>479.265418</ele>
        <time>2022-08-06T20:20:20.954Z</time>
      </trkpt>
      <trkpt lat="47.07487" lon="15.62793">
        <ele>476.934074</ele>
        <time>2022-08-06T20:20:27.547Z</time>
      </trkpt>
      <trkpt lat="47.07469" lon="15.62831">
        <ele>474.852467</ele>
        <time>2022-08-06T20:20:33.427Z</time>
      </trkpt>
      <trkpt lat="47.07447" lon="15.62871">
        <ele>472.544419</ele>
        <time>2022-08-06T20:20:39.961Z</time>
      </trkpt>
      <trkpt lat="47.07441" lon="15.62903">
        <ele>471.104864</ele>
        <time>2022-08-06T20:20:43.938Z</time>
      </trkpt>
      <trkpt lat="47.07444" lon="15.63054">
        <ele>463.292546</ele>
        <time>2022-08-06T20:21:01.985Z</time>
      </trkpt>
      <trkpt lat="47.07452" lon="15.6307">
        <ele>462.180547</ele>
        <time>2022-08-06T20:21:04.324Z</time>
      </trkpt>
      <trkpt lat="47.0758" lon="15.6315">
        <ele>451.6872</ele>
        <time>2022-08-06T20:21:28.845Z</time>
      </trkpt>
      <trkpt lat="47.0759" lon="15.63162">
        <ele>450.985495</ele>
        <time>2022-08-06T20:21:31.129Z</time>
      </trkpt>
      <trkpt lat="47.07598" lon="15.63186">
        <ele>449.962676</ele>
        <time>2022-08-06T20:21:34.386Z</time>
      </trkpt>
      <trkpt lat="47.07597" lon="15.63206">
        <ele>449.181158</ele>
        <time>2022-08-06T20:21:36.975Z</time>
      </trkpt>
      <trkpt lat="47.07579" lon="15.63265">
        <ele>446.738625</ele>
        <time>2022-08-06T20:21:45.208Z</time>
      </trkpt>
      <trkpt lat="47.07559" lon="15.63309">
        <ele>444.745836</ele>
        <time>2022-08-06T20:21:52.346Z</time>
      </trkpt>
      <trkpt lat="47.07542" lon="15.63335">
        <ele>443.640679</ele>
        <time>2022-08-06T20:21:57.521Z</time>
      </trkpt>
      <trkpt lat="47.07499" lon="15.63337">
        <ele>443.050216</ele>
        <time>2022-08-06T20:22:07.616Z</time>
      </trkpt>
      <trkpt lat="47.0748" lon="15.63346">
        <ele>442.779365</ele>
        <time>2022-08-06T20:22:12.630Z</time>
      </trkpt>
      <trkpt lat="47.07469" lon="15.63368">
        <ele>442.51888</ele>
        <time>2022-08-06T20:22:17.375Z</time>
      </trkpt>
      <trkpt lat="47.07467" lon="15.63404">
        <ele>442.187457</ele>
        <time>2022-08-06T20:22:23.348Z</time>
      </trkpt>
      <trkpt lat="47.07473" lon="15.63448">
        <ele>441.769609</ele>
        <time>2022-08-06T20:22:30.865Z</time>
      </trkpt>
      <trkpt lat="47.0749" lon="15.63511">
        <ele>441.127039</ele>
        <time>2022-08-06T20:22:42.044Z</time>
      </trkpt>
      <trkpt lat="47.07488" lon="15.6355">
        <ele>440.733309</ele>
        <time>2022-08-06T20:22:48.385Z</time>
      </trkpt>
      <trkpt lat="47.07469" lon="15.63572">
        <ele>440.37763</ele>
        <time>2022-08-06T20:22:54.014Z</time>
      </trkpt>
      <trkpt lat="47.07419" lon="15.63596">
        <ele>439.611935</ele>
        <time>2022-08-06T20:23:06.048Z</time>
      </trkpt>
      <trkpt lat="47.07411" lon="15.63596">
        <ele>439.498722</ele>
        <time>2022-08-06T20:23:07.792Z</time>
      </trkpt>
      <trkpt lat="47.07399" lon="15.63596">
        <ele>439.334708</ele>
        <time>2022-08-06T20:23:10.415Z</time>
      </trkpt>
      <trkpt lat="47.07367" lon="15.63566">
        <ele>438.777515</ele>
        <time>2022-08-06T20:23:19.233Z</time>
      </trkpt>
      <trkpt lat="47.07343" lon="15.63557">
        <ele>438.464043</ele>
        <time>2022-08-06T20:23:24.938Z</time>
      </trkpt>
      <trkpt lat="47.07325" lon="15.63542">
        <ele>438.232294</ele>
        <time>2022-08-06T20:23:29.644Z</time>
      </trkpt>
      <trkpt lat="47.07287" lon="15.63446">
        <ele>437.356036</ele>
        <time>2022-08-06T20:23:47.834Z</time>
      </trkpt>
      <trkpt lat="47.07287" lon="15.63421">
        <ele>437.158063</ele>
        <time>2022-08-06T20:23:52.075Z</time>
      </trkpt>
      <trkpt lat="47.07315" lon="15.63355">
        <ele>436.516463</ele>
        <time>2022-08-06T20:24:04.941Z</time>
      </trkpt>
      <trkpt lat="47.07273" lon="15.63241">
        <ele>434.66868</ele>
        <time>2022-08-06T20:24:26.112Z</time>
      </trkpt>
      <trkpt lat="47.07213" lon="15.63229">
        <ele>433.383444</ele>
        <time>2022-08-06T20:24:39.507Z</time>
      </trkpt>
      <trkpt lat="47.0718" lon="15.63185">
        <ele>431.848232</ele>
        <time>2022-08-06T20:24:48.408Z</time>
      </trkpt>
      <trkpt lat="47.07139" lon="15.63091">
        <ele>427.582899</ele>
        <time>2022-08-06T20:25:02.509Z</time>
      </trkpt>
      <trkpt lat="47.07124" lon="15.63068">
        <ele>426.302164</ele>
        <time>2022-08-06T20:25:06.600Z</time>
      </trkpt>
      <trkpt lat="47.07077" lon="15.62999">
        <ele>422.583767</ele>
        <time>2022-08-06T20:25:18.529Z</time>
      </trkpt>
      <trkpt lat="47.07059" lon="15.62993">
        <ele>421.623479</ele>
        <time>2022-08-06T20:25:21.907Z</time>
      </trkpt>
      <trkpt lat="47.07024" lon="15.63019">
        <ele>419.538415</ele>
        <time>2022-08-06T20:25:29.116Z</time>
      </trkpt>
      <trkpt lat="47.06988" lon="15.63058">
        <ele>417.185813</ele>
        <time>2022-08-06T20:25:37.303Z</time>
      </trkpt>
      <trkpt lat="47.07018" lon="15.63132">
        <ele>414.101786</ele>
        <time>2022-08-06T20:25:48.116Z</time>
      </trkpt>
      <trkpt lat="47.07051" lon="15.63243">
        <ele>412.118438</ele>
        <time>2022-08-06T20:26:04.934Z</time>
      </trkpt>
      <trkpt lat="47.07065" lon="15.63283">
        <ele>411.623291</ele>
        <time>2022-08-06T20:26:12.192Z</time>
      </trkpt>
      <trkpt lat="47.07097" lon="15.63341">
        <ele>410.799767</ele>
        <time>2022-08-06T20:26:24.470Z</time>
      </trkpt>
      <trkpt lat="47.07125" lon="15.63378">
        <ele>410.19876</ele>
        <time>2022-08-06T20:26:33.410Z</time>
      </trkpt>
      <trkpt lat="47.07141" lon="15.63402">
        <ele>409.897041</ele>
        <time>2022-08-06T20:26:38.627Z</time>
      </trkpt>
      <trkpt lat="47.07152" lon="15.6343">
        <ele>409.596529</ele>
        <time>2022-08-06T20:26:43.594Z</time>
      </trkpt>
      <trkpt lat="47.07163" lon="15.63514">
        <ele>408.794577</ele>
        <time>2022-08-06T20:26:56.681Z</time>
      </trkpt>
      <trkpt lat="47.07176" lon="15.63677">
        <ele>407.170923</ele>
        <time>2022-08-06T20:27:20.961Z</time>
      </trkpt>
      <trkpt lat="47.07198" lon="15.63739">
        <ele>406.400321</ele>
        <time>2022-08-06T20:27:30.863Z</time>
      </trkpt>
      <trkpt lat="47.07244" lon="15.63813">
        <ele>405.27867</ele>
        <time>2022-08-06T20:27:45.768Z</time>
      </trkpt>
      <trkpt lat="47.07296" lon="15.63887">
        <ele>403.90913</ele>
        <time>2022-08-06T20:28:02.111Z</time>
      </trkpt>
      <trkpt lat="47.07322" lon="15.63914">
        <ele>403.247462</ele>
        <time>2022-08-06T20:28:09.263Z</time>
      </trkpt>
      <trkpt lat="47.07375" lon="15.63946">
        <ele>402.079303</ele>
        <time>2022-08-06T20:28:20.883Z</time>
      </trkpt>
      <trkpt lat="47.07422" lon="15.63947">
        <ele>401.080051</ele>
        <time>2022-08-06T20:28:30.463Z</time>
      </trkpt>
      <trkpt lat="47.07444" lon="15.6395">
        <ele>400.517923</ele>
        <time>2022-08-06T20:28:34.892Z</time>
      </trkpt>
      <trkpt lat="47.07509" lon="15.63978">
        <ele>398.773557</ele>
        <time>2022-08-06T20:28:48.459Z</time>
      </trkpt>
      <trkpt lat="47.07535" lon="15.63998">
        <ele>398.034892</ele>
        <time>2022-08-06T20:28:54.219Z</time>
      </trkpt>
      <trkpt lat="47.07563" lon="15.64042">
        <ele>396.95758</ele>
        <time>2022-08-06T20:29:02.715Z</time>
      </trkpt>
      <trkpt lat="47.07583" lon="15.64106">
        <ele>396.174558</ele>
        <time>2022-08-06T20:29:12.674Z</time>
      </trkpt>
      <trkpt lat="47.07633" lon="15.64193">
        <ele>395.258078</ele>
        <time>2022-08-06T20:29:30.397Z</time>
      </trkpt>
      <trkpt lat="47.07642" lon="15.64202">
        <ele>395.119432</ele>
        <time>2022-08-06T20:29:33.178Z</time>
      </trkpt>
      <trkpt lat="47.07653" lon="15.6421">
        <ele>394.975731</ele>
        <time>2022-08-06T20:29:36.033Z</time>
      </trkpt>
      <trkpt lat="47.07659" lon="15.64214">
        <ele>394.89565</ele>
        <time>2022-08-06T20:29:37.586Z</time>
      </trkpt>
      <trkpt lat="47.07723" lon="15.64246">
        <ele>394.239373</ele>
        <time>2022-08-06T20:29:53.893Z</time>
      </trkpt>
      <trkpt lat="47.07859" lon="15.64292">
        <ele>393.344413</ele>
        <time>2022-08-06T20:30:27.911Z</time>
      </trkpt>
      <trkpt lat="47.07923" lon="15.6431">
        <ele>392.840406</ele>
        <time>2022-08-06T20:30:43.474Z</time>
      </trkpt>
      <trkpt lat="47.0794" lon="15.64322">
        <ele>392.694634</ele>
        <time>2022-08-06T20:30:47.686Z</time>
      </trkpt>
      <trkpt lat="47.07955" lon="15.64339">
        <ele>392.534848</ele>
        <time>2022-08-06T20:30:52.333Z</time>
      </trkpt>
      <trkpt lat="47.07999" lon="15.64413">
        <ele>391.995129</ele>
        <time>2022-08-06T20:31:08.190Z</time>
      </trkpt>
      <trkpt lat="47.08028" lon="15.64464">
        <ele>391.655953</ele>
        <time>2022-08-06T20:31:18.812Z</time>
      </trkpt>
      <trkpt lat="47.08085" lon="15.64536">
        <ele>391.138819</ele>
        <time>2022-08-06T20:31:36.619Z</time>
      </trkpt>
      <trkpt lat="47.0815" lon="15.64585">
        <ele>390.638686</ele>
        <time>2022-08-06T20:31:54.029Z</time>
      </trkpt>
      <trkpt lat="47.08206" lon="15.64612">
        <ele>390.555009</ele>
        <time>2022-08-06T20:32:09.199Z</time>
      </trkpt>
      <trkpt lat="47.08239" lon="15.64624">
        <ele>390.543872</ele>
        <time>2022-08-06T20:32:17.854Z</time>
      </trkpt>
      <trkpt lat="47.08297" lon="15.6469">
        <ele>390.519982</ele>
        <time>2022-08-06T20:32:37.392Z</time>
      </trkpt>
      <trkpt lat="47.08327" lon="15.64725">
        <ele>390.586985</ele>
        <time>2022-08-06T20:32:48.848Z</time>
      </trkpt>
      <trkpt lat="47.08333" lon="15.64733">
        <ele>390.626422</ele>
        <time>2022-08-06T20:32:51.301Z</time>
      </trkpt>
      <trkpt lat="47.08347" lon="15.6475">
        <ele>390.708865</ele>
        <time>2022-08-06T20:32:56.625Z</time>
      </trkpt>
      <trkpt lat="47.0836" lon="15.64771">
        <ele>390.801763</ele>
        <time>2022-08-06T20:33:02.427Z</time>
      </trkpt>
      <trkpt lat="47.08367" lon="15.64782">
        <ele>390.853202</ele>
        <time>2022-08-06T20:33:05.699Z</time>
      </trkpt>
      <trkpt lat="47.0837" lon="15.64787">
        <ele>390.872131</ele>
        <time>2022-08-06T20:33:06.856Z</time>
      </trkpt>
      <trkpt lat="47.08386" lon="15.64807">
        <ele>390.970832</ele>
        <time>2022-08-06T20:33:12.833Z</time>
      </trkpt>
      <trkpt lat="47.08456" lon="15.64871">
        <ele>391.362367</ele>
        <time>2022-08-06T20:33:36.812Z</time>
      </trkpt>
      <trkpt lat="47.08475" lon="15.64896">
        <ele>391.211657</ele>
        <time>2022-08-06T20:33:44.342Z</time>
      </trkpt>
      <trkpt lat="47.08493" lon="15.64945">
        <ele>390.980376</ele>
        <time>2022-08-06T20:33:55.016Z</time>
      </trkpt>
      <trkpt lat="47.08547" lon="15.6507">
        <ele>390.354305</ele>
        <time>2022-08-06T20:34:18.549Z</time>
      </trkpt>
      <trkpt lat="47.0856" lon="15.6512">
        <ele>389.89974</ele>
        <time>2022-08-06T20:34:26.340Z</time>
      </trkpt>
      <trkpt lat="47.08564" lon="15.65214">
        <ele>388.784091</ele>
        <time>2022-08-06T20:34:39.881Z</time>
      </trkpt>
      <trkpt lat="47.0857" lon="15.65241">
        <ele>388.448692</ele>
        <time>2022-08-06T20:34:44.013Z</time>
      </trkpt>
      <trkpt lat="47.08619" lon="15.65389">
        <ele>386.592571</ele>
        <time>2022-08-06T20:35:07.970Z</time>
      </trkpt>
      <trkpt lat="47.08671" lon="15.65496">
        <ele>385.300039</ele>
        <time>2022-08-06T20:35:27.970Z</time>
      </trkpt>
      <trkpt lat="47.08752" lon="15.65681">
        <ele>383.105961</ele>
        <time>2022-08-06T20:36:01.729Z</time>
      </trkpt>
      <trkpt lat="47.08792" lon="15.65762">
        <ele>382.098526</ele>
        <time>2022-08-06T20:36:16.555Z</time>
      </trkpt>
      <trkpt lat="47.08807" lon="15.65802">
        <ele>381.613402</ele>
        <time>2022-08-06T20:36:23.148Z</time>
      </trkpt>
      <trkpt lat="47.08827" lon="15.65897">
        <ele>380.459248</ele>
        <time>2022-08-06T20:36:37.618Z</time>
      </trkpt>
      <trkpt lat="47.08859" lon="15.66045">
        <ele>378.702618</ele>
        <time>2022-08-06T20:37:00.555Z</time>
      </trkpt>
      <trkpt lat="47.08882" lon="15.66198">
        <ele>377.511564</ele>
        <time>2022-08-06T20:37:24.467Z</time>
      </trkpt>
      <trkpt lat="47.08954" lon="15.66407">
        <ele>376.16561</ele>
        <time>2022-08-06T20:38:03.546Z</time>
      </trkpt>
      <trkpt lat="47.09001" lon="15.6651">
        <ele>375.60431</ele>
        <time>2022-08-06T20:38:23.966Z</time>
      </trkpt>
      <trkpt lat="47.09011" lon="15.66534">
        <ele>375.410463</ele>
        <time>2022-08-06T20:38:28.337Z</time>
      </trkpt>
      <trkpt lat="47.09074" lon="15.66727">
        <ele>373.892347</ele>
        <time>2022-08-06T20:39:01.489Z</time>
      </trkpt>
      <trkpt lat="47.0911" lon="15.6681">
        <ele>373.363514</ele>
        <time>2022-08-06T20:39:17.133Z</time>
      </trkpt>
      <trkpt lat="47.09142" lon="15.66872">
        <ele>372.980553</ele>
        <time>2022-08-06T20:39:30.600Z</time>
      </trkpt>
      <trkpt lat="47.09201" lon="15.66963">
        <ele>372.275736</ele>
        <time>2022-08-06T20:39:51.148Z</time>
      </trkpt>
      <trkpt lat="47.09228" lon="15.67031">
        <ele>371.411564</ele>
        <time>2022-08-06T20:40:03.609Z</time>
      </trkpt>
      <trkpt lat="47.09296" lon="15.67204">
        <ele>369.164343</ele>
        <time>2022-08-06T20:40:32.396Z</time>
      </trkpt>
      <trkpt lat="47.09298" lon="15.67249">
        <ele>368.612137</ele>
        <time>2022-08-06T20:40:38.622Z</time>
      </trkpt>
      <trkpt lat="47.09303" lon="15.67266">
        <ele>368.383575</ele>
        <time>2022-08-06T20:40:41.160Z</time>
      </trkpt>
      <trkpt lat="47.09342" lon="15.67326">
        <ele>367.354756</ele>
        <time>2022-08-06T20:40:53.698Z</time>
      </trkpt>
      <trkpt lat="47.0942" lon="15.67518">
        <ele>365.107421</ele>
        <time>2022-08-06T20:41:29.717Z</time>
      </trkpt>
      <trkpt lat="47.09457" lon="15.67628">
        <ele>364.053157</ele>
        <time>2022-08-06T20:41:49.555Z</time>
      </trkpt>
      <trkpt lat="47.09529" lon="15.67798">
        <ele>362.104277</ele>
        <time>2022-08-06T20:42:21.299Z</time>
      </trkpt>
      <trkpt lat="47.09538" lon="15.67855">
        <ele>361.533697</ele>
        <time>2022-08-06T20:42:30.200Z</time>
      </trkpt>
      <trkpt lat="47.09567" lon="15.67843">
        <ele>361.090434</ele>
        <time>2022-08-06T20:42:37.116Z</time>
      </trkpt>
      <trkpt lat="47.09615" lon="15.67949">
        <ele>359.804393</ele>
        <time>2022-08-06T20:42:55.946Z</time>
      </trkpt>
      <trkpt lat="47.09664" lon="15.68038">
        <ele>358.635217</ele>
        <time>2022-08-06T20:43:13.632Z</time>
      </trkpt>
      <trkpt lat="47.09707" lon="15.68098">
        <ele>357.698057</ele>
        <time>2022-08-06T20:43:26.594Z</time>
      </trkpt>
      <trkpt lat="47.09722" lon="15.68136">
        <ele>357.224863</ele>
        <time>2022-08-06T20:43:33.093Z</time>
      </trkpt>
      <trkpt lat="47.09749" lon="15.68269">
        <ele>355.749003</ele>
        <time>2022-08-06T20:43:53.483Z</time>
      </trkpt>
      <trkpt lat="47.0976" lon="15.68296">
        <ele>355.436758</ele>
        <time>2022-08-06T20:43:58.214Z</time>
      </trkpt>
      <trkpt lat="47.09794" lon="15.68343">
        <ele>354.753788</ele>
        <time>2022-08-06T20:44:08.386Z</time>
      </trkpt>
      <trkpt lat="47.09835" lon="15.68372">
        <ele>354.086572</ele>
        <time>2022-08-06T20:44:18.391Z</time>
      </trkpt>
      <trkpt lat="47.09869" lon="15.68394">
        <ele>353.547361</ele>
        <time>2022-08-06T20:44:26.503Z</time>
      </trkpt>
      <trkpt lat="47.1" lon="15.6848">
        <ele>352.408501</ele>
        <time>2022-08-06T20:45:00.757Z</time>
      </trkpt>
      <trkpt lat="47.10031" lon="15.68501">
        <ele>352.174646</ele>
        <time>2022-08-06T20:45:09.162Z</time>
      </trkpt>
      <trkpt lat="47.10042" lon="15.68508">
        <ele>352.093832</ele>
        <time>2022-08-06T20:45:12.103Z</time>
      </trkpt>
      <trkpt lat="47.10153" lon="15.68582">
        <ele>351.847349</ele>
        <time>2022-08-06T20:45:43.015Z</time>
      </trkpt>
      <trkpt lat="47.10183" lon="15.68612">
        <ele>351.789225</ele>
        <time>2022-08-06T20:45:52.255Z</time>
      </trkpt>
      <trkpt lat="47.10188" lon="15.68618">
        <ele>351.777367</ele>
        <time>2022-08-06T20:45:54.253Z</time>
      </trkpt>
      <trkpt lat="47.10217" lon="15.68653">
        <ele>351.803374</ele>
        <time>2022-08-06T20:46:04.445Z</time>
      </trkpt>
      <trkpt lat="47.10225" lon="15.68663">
        <ele>351.855615</ele>
        <time>2022-08-06T20:46:07.510Z</time>
      </trkpt>
      <trkpt lat="47.10233" lon="15.6869">
        <ele>351.950207</ele>
        <time>2022-08-06T20:46:13.051Z</time>
      </trkpt>
      <trkpt lat="47.10233" lon="15.68709">
        <ele>352.015867</ele>
        <time>2022-08-06T20:46:17.142Z</time>
      </trkpt>
      <trkpt lat="47.10236" lon="15.68713">
        <ele>352.035801</ele>
        <time>2022-08-06T20:46:18.364Z</time>
      </trkpt>
      <trkpt lat="47.10241" lon="15.68716">
        <ele>352.061996</ele>
        <time>2022-08-06T20:46:19.914Z</time>
      </trkpt>
      <trkpt lat="47.10246" lon="15.68716">
        <ele>352.088045</ele>
        <time>2022-08-06T20:46:21.424Z</time>
      </trkpt>
      <trkpt lat="47.10255" lon="15.68728">
        <ele>352.150302</ele>
        <time>2022-08-06T20:46:25.316Z</time>
      </trkpt>
      <trkpt lat="47.10262" lon="15.68747">
        <ele>352.219748</ele>
        <time>2022-08-06T20:46:29.661Z</time>
      </trkpt>
      <trkpt lat="47.10265" lon="15.68821">
        <ele>352.466157</ele>
        <time>2022-08-06T20:46:44.481Z</time>
      </trkpt>
      <trkpt lat="47.10265" lon="15.68828">
        <ele>352.490834</ele>
        <time>2022-08-06T20:46:45.956Z</time>
      </trkpt>
      <trkpt lat="47.10265" lon="15.68847">
        <ele>352.552147</ele>
        <time>2022-08-06T20:46:49.592Z</time>
      </trkpt>
      <trkpt lat="47.10267" lon="15.68906">
        <ele>352.719743</ele>
        <time>2022-08-06T20:47:01.211Z</time>
      </trkpt>
      <trkpt lat="47.10287" lon="15.68978">
        <ele>352.917532</ele>
        <time>2022-08-06T20:47:16.919Z</time>
      </trkpt>
      <trkpt lat="47.10297" lon="15.69002">
        <ele>352.990859</ele>
        <time>2022-08-06T20:47:22.723Z</time>
      </trkpt>
      <trkpt lat="47.10299" lon="15.69006">
        <ele>353.002291</ele>
        <time>2022-08-06T20:47:23.585Z</time>
      </trkpt>
      <trkpt lat="47.10307" lon="15.69026">
        <ele>353.063289</ele>
        <time>2022-08-06T20:47:28.306Z</time>
      </trkpt>
      <trkpt lat="47.10317" lon="15.6905">
        <ele>353.134281</ele>
        <time>2022-08-06T20:47:33.770Z</time>
      </trkpt>
      <trkpt lat="47.10353" lon="15.6914">
        <ele>353.181986</ele>
        <time>2022-08-06T20:47:52.610Z</time>
      </trkpt>
      <trkpt lat="47.10368" lon="15.69178">
        <ele>353.062748</ele>
        <time>2022-08-06T20:48:00.154Z</time>
      </trkpt>
      <trkpt lat="47.10373" lon="15.69194">
        <ele>353.014976</ele>
        <time>2022-08-06T20:48:03.140Z</time>
      </trkpt>
      <trkpt lat="47.10374" lon="15.69197">
        <ele>353.00559</ele>
        <time>2022-08-06T20:48:03.722Z</time>
      </trkpt>
      <trkpt lat="47.10374" lon="15.69199">
        <ele>353.000106</ele>
        <time>2022-08-06T20:48:04.066Z</time>
      </trkpt>
      <trkpt lat="47.10386" lon="15.69238">
        <ele>352.882717</ele>
        <time>2022-08-06T20:48:11.474Z</time>
      </trkpt>
      <trkpt lat="47.10396" lon="15.6928">
        <ele>352.761748</ele>
        <time>2022-08-06T20:48:19.222Z</time>
      </trkpt>
      <trkpt lat="47.10415" lon="15.69403">
        <ele>352.163859</ele>
        <time>2022-08-06T20:48:39.375Z</time>
      </trkpt>
      <trkpt lat="47.10432" lon="15.69465">
        <ele>351.688565</ele>
        <time>2022-08-06T20:48:49.832Z</time>
      </trkpt>
      <trkpt lat="47.10438" lon="15.69462">
        <ele>351.621681</ele>
        <time>2022-08-06T20:48:51.347Z</time>
      </trkpt>
      <trkpt lat="47.1044" lon="15.69466">
        <ele>351.587347</ele>
        <time>2022-08-06T20:48:52.086Z</time>
      </trkpt>
      <trkpt lat="47.10456" lon="15.69505">
        <ele>351.259172</ele>
        <time>2022-08-06T20:48:59.205Z</time>
      </trkpt>
      <trkpt lat="47.1047" lon="15.69555">
        <ele>350.876944</ele>
        <time>2022-08-06T20:49:07.531Z</time>
      </trkpt>
      <trkpt lat="47.10468" lon="15.69558">
        <ele>350.847338</ele>
        <time>2022-08-06T20:49:08.175Z</time>
      </trkpt>
      <trkpt lat="47.10466" lon="15.69561">
        <ele>350.814515</ele>
        <time>2022-08-06T20:49:08.873Z</time>
      </trkpt>
      <trkpt lat="47.10479" lon="15.69604">
        <ele>350.60053</ele>
        <time>2022-08-06T20:49:16.135Z</time>
      </trkpt>
      <trkpt lat="47.10481" lon="15.69608">
        <ele>350.58327</ele>
        <time>2022-08-06T20:49:16.962Z</time>
      </trkpt>
      <trkpt lat="47.10493" lon="15.69637">
        <ele>350.476617</ele>
        <time>2022-08-06T20:49:22.208Z</time>
      </trkpt>
      <trkpt lat="47.10494" lon="15.6964">
        <ele>350.46771</ele>
        <time>2022-08-06T20:49:22.652Z</time>
      </trkpt>
      <trkpt lat="47.10496" lon="15.69644">
        <ele>350.453367</ele>
        <time>2022-08-06T20:49:23.430Z</time>
      </trkpt>
      <trkpt lat="47.10495" lon="15.69663">
        <ele>350.391236</ele>
        <time>2022-08-06T20:49:26.612Z</time>
      </trkpt>
      <trkpt lat="47.10493" lon="15.69668">
        <ele>350.373259</ele>
        <time>2022-08-06T20:49:27.547Z</time>
      </trkpt>
      <trkpt lat="47.10491" lon="15.69671">
        <ele>350.360184</ele>
        <time>2022-08-06T20:49:28.191Z</time>
      </trkpt>
      <trkpt lat="47.10535" lon="15.69736">
        <ele>350.070927</ele>
        <time>2022-08-06T20:49:44.208Z</time>
      </trkpt>
      <trkpt lat="47.10558" lon="15.69802">
        <ele>349.855467</ele>
        <time>2022-08-06T20:49:58.084Z</time>
      </trkpt>
      <trkpt lat="47.10558" lon="15.69814">
        <ele>349.843687</ele>
        <time>2022-08-06T20:50:00.468Z</time>
      </trkpt>
      <trkpt lat="47.1056" lon="15.69821">
        <ele>349.837264</ele>
        <time>2022-08-06T20:50:01.757Z</time>
      </trkpt>
      <trkpt lat="47.10565" lon="15.69828">
        <ele>349.827285</ele>
        <time>2022-08-06T20:50:03.680Z</time>
      </trkpt>
      <trkpt lat="47.10567" lon="15.69837">
        <ele>349.818784</ele>
        <time>2022-08-06T20:50:05.312Z</time>
      </trkpt>
      <trkpt lat="47.10572" lon="15.69879">
        <ele>349.77818</ele>
        <time>2022-08-06T20:50:13.110Z</time>
      </trkpt>
      <trkpt lat="47.10565" lon="15.69969">
        <ele>349.693688</ele>
        <time>2022-08-06T20:50:28.895Z</time>
      </trkpt>
      <trkpt lat="47.10564" lon="15.69974">
        <ele>349.688613</ele>
        <time>2022-08-06T20:50:29.886Z</time>
      </trkpt>
      <trkpt lat="47.10563" lon="15.69981">
        <ele>349.682777</ele>
        <time>2022-08-06T20:50:30.999Z</time>
      </trkpt>
      <trkpt lat="47.10559" lon="15.7001">
        <ele>349.654655</ele>
        <time>2022-08-06T20:50:36.211Z</time>
      </trkpt>
      <trkpt lat="47.10554" lon="15.70045">
        <ele>349.621734</ele>
        <time>2022-08-06T20:50:42.344Z</time>
      </trkpt>
      <trkpt lat="47.10553" lon="15.70052">
        <ele>349.616507</ele>
        <time>2022-08-06T20:50:43.761Z</time>
      </trkpt>
      <trkpt lat="47.10552" lon="15.7006">
        <ele>349.620949</ele>
        <time>2022-08-06T20:50:45.100Z</time>
      </trkpt>
      <trkpt lat="47.10537" lon="15.70168">
        <ele>349.687131</ele>
        <time>2022-08-06T20:51:05.231Z</time>
      </trkpt>
      <trkpt lat="47.10536" lon="15.70178">
        <ele>349.692762</ele>
        <time>2022-08-06T20:51:06.997Z</time>
      </trkpt>
      <trkpt lat="47.10535" lon="15.70187">
        <ele>349.698236</ele>
        <time>2022-08-06T20:51:08.684Z</time>
      </trkpt>
      <trkpt lat="47.10526" lon="15.70271">
        <ele>349.749375</ele>
        <time>2022-08-06T20:51:24.693Z</time>
      </trkpt>
      <trkpt lat="47.10525" lon="15.7028">
        <ele>349.754572</ele>
        <time>2022-08-06T20:51:26.415Z</time>
      </trkpt>
      <trkpt lat="47.10524" lon="15.70287">
        <ele>349.758684</ele>
        <time>2022-08-06T20:51:27.739Z</time>
      </trkpt>
      <trkpt lat="47.10507" lon="15.70325">
        <ele>349.803522</ele>
        <time>2022-08-06T20:51:36.556Z</time>
      </trkpt>
      <trkpt lat="47.10478" lon="15.70376">
        <ele>349.896308</ele>
        <time>2022-08-06T20:51:49.188Z</time>
      </trkpt>
      <trkpt lat="47.10467" lon="15.70399">
        <ele>349.93724</ele>
        <time>2022-08-06T20:51:54.877Z</time>
      </trkpt>
      <trkpt lat="47.10465" lon="15.70402">
        <ele>349.942502</ele>
        <time>2022-08-06T20:51:55.606Z</time>
      </trkpt>
      <trkpt lat="47.10466" lon="15.70409">
        <ele>349.952856</ele>
        <time>2022-08-06T20:51:57.098Z</time>
      </trkpt>
      <trkpt lat="47.10456" lon="15.70429">
        <ele>349.986279</ele>
        <time>2022-08-06T20:52:01.944Z</time>
      </trkpt>
      <trkpt lat="47.10437" lon="15.7046">
        <ele>350.045251</ele>
        <time>2022-08-06T20:52:10.397Z</time>
      </trkpt>
      <trkpt lat="47.10421" lon="15.70476">
        <ele>350.086124</ele>
        <time>2022-08-06T20:52:16.141Z</time>
      </trkpt>
      <trkpt lat="47.10406" lon="15.70487">
        <ele>350.122062</ele>
        <time>2022-08-06T20:52:21.042Z</time>
      </trkpt>
      <trkpt lat="47.1039" lon="15.70478">
        <ele>350.12888</ele>
        <time>2022-08-06T20:52:25.363Z</time>
      </trkpt>
      <trkpt lat="47.10381" lon="15.70473">
        <ele>350.084287</ele>
        <time>2022-08-06T20:52:28.138Z</time>
      </trkpt>
      <trkpt lat="47.10355" lon="15.70503">
        <ele>349.947289</ele>
        <time>2022-08-06T20:52:36.559Z</time>
      </trkpt>
      <trkpt lat="47.10344" lon="15.70518">
        <ele>349.884109</ele>
        <time>2022-08-06T20:52:40.436Z</time>
      </trkpt>
      <trkpt lat="47.10313" lon="15.70559">
        <ele>349.70773</ele>
        <time>2022-08-06T20:52:51.110Z</time>
      </trkpt>
      <trkpt lat="47.10307" lon="15.70567">
        <ele>349.673201</ele>
        <time>2022-08-06T20:52:53.185Z</time>
      </trkpt>
      <trkpt lat="47.10292" lon="15.70587">
        <ele>349.587103</ele>
        <time>2022-08-06T20:52:58.373Z</time>
      </trkpt>
      <trkpt lat="47.10273" lon="15.70612">
        <ele>349.47826</ele>
        <time>2022-08-06T20:53:04.941Z</time>
      </trkpt>
      <trkpt lat="47.10262" lon="15.70625">
        <ele>349.418643</ele>
        <time>2022-08-06T20:53:08.650Z</time>
      </trkpt>
      <trkpt lat="47.1026" lon="15.70628">
        <ele>349.408062</ele>
        <time>2022-08-06T20:53:09.294Z</time>
      </trkpt>
      <trkpt lat="47.10259" lon="15.7063">
        <ele>349.400206</ele>
        <time>2022-08-06T20:53:09.781Z</time>
      </trkpt>
      <trkpt lat="47.10248" lon="15.70643">
        <ele>349.336073</ele>
        <time>2022-08-06T20:53:13.378Z</time>
      </trkpt>
      <trkpt lat="47.10242" lon="15.70651">
        <ele>349.296805</ele>
        <time>2022-08-06T20:53:15.558Z</time>
      </trkpt>
      <trkpt lat="47.10237" lon="15.70658">
        <ele>349.264338</ele>
        <time>2022-08-06T20:53:17.348Z</time>
      </trkpt>
      <trkpt lat="47.10224" lon="15.70675">
        <ele>349.181104</ele>
        <time>2022-08-06T20:53:21.845Z</time>
      </trkpt>
      <trkpt lat="47.10218" lon="15.70684">
        <ele>349.141754</ele>
        <time>2022-08-06T20:53:23.983Z</time>
      </trkpt>
      <trkpt lat="47.10212" lon="15.70689">
        <ele>349.108849</ele>
        <time>2022-08-06T20:53:25.725Z</time>
      </trkpt>
      <trkpt lat="47.10205" lon="15.70701">
        <ele>349.057557</ele>
        <time>2022-08-06T20:53:28.391Z</time>
      </trkpt>
      <trkpt lat="47.10195" lon="15.70713">
        <ele>348.994637</ele>
        <time>2022-08-06T20:53:31.682Z</time>
      </trkpt>
      <trkpt lat="47.10186" lon="15.70725">
        <ele>348.940513</ele>
        <time>2022-08-06T20:53:34.651Z</time>
      </trkpt>
      <trkpt lat="47.10158" lon="15.70761">
        <ele>348.763273</ele>
        <time>2022-08-06T20:53:44.295Z</time>
      </trkpt>
      <trkpt lat="47.10147" lon="15.70775">
        <ele>348.692832</ele>
        <time>2022-08-06T20:53:47.926Z</time>
      </trkpt>
      <trkpt lat="47.10142" lon="15.70782">
        <ele>348.660665</ele>
        <time>2022-08-06T20:53:49.613Z</time>
      </trkpt>
      <trkpt lat="47.10132" lon="15.70794">
        <ele>348.60265</ele>
        <time>2022-08-06T20:53:52.652Z</time>
      </trkpt>
      <trkpt lat="47.1013" lon="15.70797">
        <ele>348.587311</ele>
        <time>2022-08-06T20:53:53.433Z</time>
      </trkpt>
      <trkpt lat="47.10119" lon="15.70812">
        <ele>348.510115</ele>
        <time>2022-08-06T20:53:56.855Z</time>
      </trkpt>
      <trkpt lat="47.10096" lon="15.70847">
        <ele>348.290021</ele>
        <time>2022-08-06T20:54:04.746Z</time>
      </trkpt>
      <trkpt lat="47.10088" lon="15.70857">
        <ele>348.225117</ele>
        <time>2022-08-06T20:54:07.106Z</time>
      </trkpt>
      <trkpt lat="47.10075" lon="15.70872">
        <ele>348.114842</ele>
        <time>2022-08-06T20:54:11.142Z</time>
      </trkpt>
      <trkpt lat="47.10058" lon="15.70892">
        <ele>347.974399</ele>
        <time>2022-08-06T20:54:16.177Z</time>
      </trkpt>
      <trkpt lat="47.10053" lon="15.70899">
        <ele>347.924322</ele>
        <time>2022-08-06T20:54:18.072Z</time>
      </trkpt>
      <trkpt lat="47.10046" lon="15.70909">
        <ele>347.861348</ele>
        <time>2022-08-06T20:54:20.387Z</time>
      </trkpt>
      <trkpt lat="47.10037" lon="15.70922">
        <ele>347.780768</ele>
        <time>2022-08-06T20:54:23.297Z</time>
      </trkpt>
      <trkpt lat="47.10028" lon="15.70935">
        <ele>347.696448</ele>
        <time>2022-08-06T20:54:26.545Z</time>
      </trkpt>
      <trkpt lat="47.10028" lon="15.70943">
        <ele>347.662877</ele>
        <time>2022-08-06T20:54:27.845Z</time>
      </trkpt>
      <trkpt lat="47.10032" lon="15.70959">
        <ele>347.588443</ele>
        <time>2022-08-06T20:54:30.495Z</time>
      </trkpt>
      <trkpt lat="47.10035" lon="15.70969">
        <ele>347.539309</ele>
        <time>2022-08-06T20:54:32.346Z</time>
      </trkpt>
      <trkpt lat="47.10038" lon="15.70981">
        <ele>347.480331</ele>
        <time>2022-08-06T20:54:34.608Z</time>
      </trkpt>
      <trkpt lat="47.10047" lon="15.71001">
        <ele>347.373905</ele>
        <time>2022-08-06T20:54:38.630Z</time>
      </trkpt>
      <trkpt lat="47.10057" lon="15.71021">
        <ele>347.313892</ele>
        <time>2022-08-06T20:54:42.742Z</time>
      </trkpt>
      <trkpt lat="47.10092" lon="15.71095">
        <ele>347.119871</ele>
        <time>2022-08-06T20:54:57.910Z</time>
      </trkpt>
      <trkpt lat="47.10104" lon="15.71107">
        <ele>347.076064</ele>
        <time>2022-08-06T20:55:01.349Z</time>
      </trkpt>
      <trkpt lat="47.10108" lon="15.7111">
        <ele>347.061818</ele>
        <time>2022-08-06T20:55:02.463Z</time>
      </trkpt>
      <trkpt lat="47.10108" lon="15.71118">
        <ele>347.042879</ele>
        <time>2022-08-06T20:55:03.990Z</time>
      </trkpt>
      <trkpt lat="47.10091" lon="15.7112">
        <ele>346.987681</ele>
        <time>2022-08-06T20:55:08.575Z</time>
      </trkpt>
      <trkpt lat="47.10084" lon="15.71118">
        <ele>346.966047</ele>
        <time>2022-08-06T20:55:10.444Z</time>
      </trkpt>
      <trkpt lat="47.10045" lon="15.71125">
        <ele>346.84228</ele>
        <time>2022-08-06T20:55:21.362Z</time>
      </trkpt>
      <trkpt lat="47.10024" lon="15.71133">
        <ele>346.774197</ele>
        <time>2022-08-06T20:55:27.362Z</time>
      </trkpt>
      <trkpt lat="47.09984" lon="15.71147">
        <ele>346.635197</ele>
        <time>2022-08-06T20:55:38.931Z</time>
      </trkpt>
      <trkpt lat="47.09977" lon="15.7115">
        <ele>346.613259</ele>
        <time>2022-08-06T20:55:40.668Z</time>
      </trkpt>
      <trkpt lat="47.09973" lon="15.71151">
        <ele>346.598739</ele>
        <time>2022-08-06T20:55:41.789Z</time>
      </trkpt>
      <trkpt lat="47.09926" lon="15.71164">
        <ele>346.440655</ele>
        <time>2022-08-06T20:55:53.663Z</time>
      </trkpt>
      <trkpt lat="47.09904" lon="15.71164">
        <ele>346.365136</ele>
        <time>2022-08-06T20:55:59.514Z</time>
      </trkpt>
      <trkpt lat="47.09901" lon="15.71162">
        <ele>346.355924</ele>
        <time>2022-08-06T20:56:00.191Z</time>
      </trkpt>
      <trkpt lat="47.099" lon="15.71163">
        <ele>346.351874</ele>
        <time>2022-08-06T20:56:00.497Z</time>
      </trkpt>
      <trkpt lat="47.09895" lon="15.71162">
        <ele>346.335804</ele>
        <time>2022-08-06T20:56:01.715Z</time>
      </trkpt>
      <trkpt lat="47.0989" lon="15.71161">
        <ele>346.319566</ele>
        <time>2022-08-06T20:56:02.940Z</time>
      </trkpt>
      <trkpt lat="47.09886" lon="15.71164">
        <ele>346.304676</ele>
        <time>2022-08-06T20:56:04.013Z</time>
      </trkpt>
      <trkpt lat="47.09863" lon="15.71149">
        <ele>346.218736</ele>
        <time>2022-08-06T20:56:10.655Z</time>
      </trkpt>
      <trkpt lat="47.09852" lon="15.7114">
        <ele>346.164826</ele>
        <time>2022-08-06T20:56:13.814Z</time>
      </trkpt>
      <trkpt lat="47.09839" lon="15.71128">
        <ele>346.071489</ele>
        <time>2022-08-06T20:56:17.768Z</time>
      </trkpt>
      <trkpt lat="47.09832" lon="15.71122">
        <ele>346.02029</ele>
        <time>2022-08-06T20:56:19.973Z</time>
      </trkpt>
      <trkpt lat="47.09815" lon="15.71105">
        <ele>345.897744</ele>
        <time>2022-08-06T20:56:25.108Z</time>
      </trkpt>
      <trkpt lat="47.09801" lon="15.7109">
        <ele>345.794618</ele>
        <time>2022-08-06T20:56:29.507Z</time>
      </trkpt>
      <trkpt lat="47.09796" lon="15.71086">
        <ele>345.762777</ele>
        <time>2022-08-06T20:56:30.791Z</time>
      </trkpt>
      <trkpt lat="47.09794" lon="15.7109">
        <ele>345.741278</ele>
        <time>2022-08-06T20:56:31.632Z</time>
      </trkpt>
      <trkpt lat="47.09796" lon="15.71093">
        <ele>345.722801</ele>
        <time>2022-08-06T20:56:32.376Z</time>
      </trkpt>
      <trkpt lat="47.09794" lon="15.71098">
        <ele>345.699787</ele>
        <time>2022-08-06T20:56:33.314Z</time>
      </trkpt>
      <trkpt lat="47.09791" lon="15.71113">
        <ele>345.636856</ele>
        <time>2022-08-06T20:56:36.000Z</time>
      </trkpt>
      <trkpt lat="47.0981" lon="15.71129">
        <ele>345.503931</ele>
        <time>2022-08-06T20:56:41.591Z</time>
      </trkpt>
      <trkpt lat="47.09815" lon="15.71142">
        <ele>345.445194</ele>
        <time>2022-08-06T20:56:44.042Z</time>
      </trkpt>
      <trkpt lat="47.09651" lon="15.71578">
        <ele>343.615483</ele>
        <time>2022-08-06T20:58:10.873Z</time>
      </trkpt>
      <trkpt lat="47.09648" lon="15.71588">
        <ele>343.575184</ele>
        <time>2022-08-06T20:58:12.853Z</time>
      </trkpt>
      <trkpt lat="47.095" lon="15.7196">
        <ele>341.902823</ele>
        <time>2022-08-06T20:59:28.051Z</time>
      </trkpt>
      <trkpt lat="47.09457" lon="15.72035">
        <ele>341.395192</ele>
        <time>2022-08-06T20:59:45.152Z</time>
      </trkpt>
      <trkpt lat="47.09455" lon="15.72039">
        <ele>341.371574</ele>
        <time>2022-08-06T20:59:45.872Z</time>
      </trkpt>
      <trkpt lat="47.09453" lon="15.72055">
        <ele>341.290341</ele>
        <time>2022-08-06T20:59:48.486Z</time>
      </trkpt>
      <trkpt lat="47.09423" lon="15.72048">
        <ele>341.0624</ele>
        <time>2022-08-06T20:59:55.389Z</time>
      </trkpt>
      <trkpt lat="47.09368" lon="15.7203">
        <ele>340.558815</ele>
        <time>2022-08-06T21:00:08.308Z</time>
      </trkpt>
      <trkpt lat="47.09342" lon="15.72021">
        <ele>340.292567</ele>
        <time>2022-08-06T21:00:14.449Z</time>
      </trkpt>
      <trkpt lat="47.0932" lon="15.72011">
        <ele>340.069098</ele>
        <time>2022-08-06T21:00:19.681Z</time>
      </trkpt>
      <trkpt lat="47.09224" lon="15.71968">
        <ele>339.085137</ele>
        <time>2022-08-06T21:01:01.083Z</time>
      </trkpt>
      <trkpt lat="47.09202" lon="15.71966">
        <ele>338.94936</ele>
        <time>2022-08-06T21:01:09.747Z</time>
      </trkpt>
      <trkpt lat="47.09165" lon="15.71975">
        <ele>338.7157</ele>
        <time>2022-08-06T21:01:25.245Z</time>
      </trkpt>
      <trkpt lat="47.0914" lon="15.71993">
        <ele>338.545655</ele>
        <time>2022-08-06T21:01:36.906Z</time>
      </trkpt>
      <trkpt lat="47.09095" lon="15.72042">
        <ele>338.198684</ele>
        <time>2022-08-06T21:02:00.591Z</time>
      </trkpt>
      <trkpt lat="47.09075" lon="15.72055">
        <ele>338.060778</ele>
        <time>2022-08-06T21:02:10.062Z</time>
      </trkpt>
      <trkpt lat="47.0904" lon="15.72062">
        <ele>337.886927</ele>
        <time>2022-08-06T21:02:25.218Z</time>
      </trkpt>
      <trkpt lat="47.08988" lon="15.72063">
        <ele>337.667193</ele>
        <time>2022-08-06T21:02:47.035Z</time>
      </trkpt>
      <trkpt lat="47.08968" lon="15.7207">
        <ele>337.579095</ele>
        <time>2022-08-06T21:02:55.803Z</time>
      </trkpt>
      <trkpt lat="47.08953" lon="15.7208">
        <ele>337.506619</ele>
        <time>2022-08-06T21:03:03.031Z</time>
      </trkpt>
      <trkpt lat="47.08931" lon="15.72111">
        <ele>337.376594</ele>
        <time>2022-08-06T21:03:16.007Z</time>
      </trkpt>
      <trkpt lat="47.08854" lon="15.72296">
        <ele>336.658156</ele>
        <time>2022-08-06T21:04:19.020Z</time>
      </trkpt>
      <trkpt lat="47.08701" lon="15.72585">
        <ele>335.375045</ele>
        <time>2022-08-06T21:06:03.400Z</time>
      </trkpt>
      <trkpt lat="47.08638" lon="15.72669">
        <ele>335.25906</ele>
        <time>2022-08-06T21:06:40.237Z</time>
      </trkpt>
      <trkpt lat="47.08632" lon="15.72678">
        <ele>335.246476</ele>
        <time>2022-08-06T21:06:44.233Z</time>
      </trkpt>
      <trkpt lat="47.08601" lon="15.72725">
        <ele>335.185725</ele>
        <time>2022-08-06T21:07:03.972Z</time>
      </trkpt>
      <trkpt lat="47.08582" lon="15.72772">
        <ele>335.13425</ele>
        <time>2022-08-06T21:07:20.740Z</time>
      </trkpt>
      <trkpt lat="47.08513" lon="15.72831">
        <ele>335.140772</ele>
        <time>2022-08-06T21:07:56.891Z</time>
      </trkpt>
      <trkpt lat="47.08427" lon="15.72934">
        <ele>335.145598</ele>
        <time>2022-08-06T21:08:46.048Z</time>
      </trkpt>
      <trkpt lat="47.08389" lon="15.72953">
        <ele>335.089035</ele>
        <time>2022-08-06T21:09:03.334Z</time>
      </trkpt>
      <trkpt lat="47.08278" lon="15.72965">
        <ele>334.930088</ele>
        <time>2022-08-06T21:09:52.101Z</time>
      </trkpt>
      <trkpt lat="47.08136" lon="15.7301">
        <ele>334.832692</ele>
        <time>2022-08-06T21:10:56.143Z</time>
      </trkpt>
      <trkpt lat="47.0811" lon="15.73023">
        <ele>334.817602</ele>
        <time>2022-08-06T21:11:08.519Z</time>
      </trkpt>
      <trkpt lat="47.07935" lon="15.73109">
        <ele>334.768744</ele>
        <time>2022-08-06T21:12:30.558Z</time>
      </trkpt>
      <trkpt lat="47.0786" lon="15.73211">
        <ele>334.533141</ele>
        <time>2022-08-06T21:13:15.203Z</time>
      </trkpt>
      <trkpt lat="47.07773" lon="15.73295">
        <ele>334.213216</ele>
        <time>2022-08-06T21:13:59.965Z</time>
      </trkpt>
      <trkpt lat="47.07771" lon="15.73321">
        <ele>334.093944</ele>
        <time>2022-08-06T21:14:07.329Z</time>
      </trkpt>
      <trkpt lat="47.07824" lon="15.73454">
        <ele>333.383509</ele>
        <time>2022-08-06T21:14:50.575Z</time>
      </trkpt>
      <trkpt lat="47.07812" lon="15.73471">
        <ele>333.271603</ele>
        <time>2022-08-06T21:14:57.434Z</time>
      </trkpt>
      <trkpt lat="47.07711" lon="15.73541">
        <ele>332.957851</ele>
        <time>2022-08-06T21:15:44.235Z</time>
      </trkpt>
      <trkpt lat="47.07349" lon="15.73827">
        <ele>332.777669</ele>
        <time>2022-08-06T21:18:48.177Z</time>
      </trkpt>
      <trkpt lat="47.07353" lon="15.73921">
        <ele>332.768478</ele>
        <time>2022-08-06T21:19:06.117Z</time>
      </trkpt>
      <trkpt lat="47.07361" lon="15.73978">
        <ele>332.649468</ele>
        <time>2022-08-06T21:19:17.099Z</time>
      </trkpt>
      <trkpt lat="47.07369" lon="15.74005">
        <ele>332.589343</ele>
        <time>2022-08-06T21:19:22.705Z</time>
      </trkpt>
      <trkpt lat="47.07388" lon="15.74045">
        <ele>332.493345</ele>
        <time>2022-08-06T21:19:31.153Z</time>
      </trkpt>
      <trkpt lat="47.07389" lon="15.74099">
        <ele>332.382115</ele>
        <time>2022-08-06T21:19:40.830Z</time>
      </trkpt>
      <trkpt lat="47.07404" lon="15.74187">
        <ele>332.272488</ele>
        <time>2022-08-06T21:19:56.420Z</time>
      </trkpt>
      <trkpt lat="47.07405" lon="15.74257">
        <ele>332.301808</ele>
        <time>2022-08-06T21:20:08.687Z</time>
      </trkpt>
      <trkpt lat="47.07424" lon="15.7431">
        <ele>332.326975</ele>
        <time>2022-08-06T21:20:20.130Z</time>
      </trkpt>
      <trkpt lat="47.07428" lon="15.74322">
        <ele>332.33247</ele>
        <time>2022-08-06T21:20:22.772Z</time>
      </trkpt>
      <trkpt lat="47.0745" lon="15.74378">
        <ele>332.359384</ele>
        <time>2022-08-06T21:20:35.634Z</time>
      </trkpt>
      <trkpt lat="47.07456" lon="15.74404">
        <ele>332.387861</ele>
        <time>2022-08-06T21:20:41.233Z</time>
      </trkpt>
      <trkpt lat="47.07495" lon="15.74508">
        <ele>333.617806</ele>
        <time>2022-08-06T21:21:09.150Z</time>
      </trkpt>
      <trkpt lat="47.07492" lon="15.74549">
        <ele>334.047276</ele>
        <time>2022-08-06T21:21:19.759Z</time>
      </trkpt>
      <trkpt lat="47.07469" lon="15.74628">
        <ele>334.930251</ele>
        <time>2022-08-06T21:21:40.854Z</time>
      </trkpt>
      <trkpt lat="47.07467" lon="15.74675">
        <ele>335.679392</ele>
        <time>2022-08-06T21:21:52.520Z</time>
      </trkpt>
      <trkpt lat="47.07473" lon="15.74716">
        <ele>336.451761</ele>
        <time>2022-08-06T21:22:03.623Z</time>
      </trkpt>
      <trkpt lat="47.0745" lon="15.74733">
        <ele>337.141001</ele>
        <time>2022-08-06T21:22:12.496Z</time>
      </trkpt>
      <trkpt lat="47.07428" lon="15.74754">
        <ele>337.877043</ele>
        <time>2022-08-06T21:22:22.412Z</time>
      </trkpt>
      <trkpt lat="47.07402" lon="15.74781">
        <ele>338.750666</ele>
        <time>2022-08-06T21:22:35.354Z</time>
      </trkpt>
      <trkpt lat="47.07374" lon="15.74816">
        <ele>339.738685</ele>
        <time>2022-08-06T21:22:51.656Z</time>
      </trkpt>
      <trkpt lat="47.07311" lon="15.74902">
        <ele>343.803161</ele>
        <time>2022-08-06T21:23:32.772Z</time>
      </trkpt>
      <trkpt lat="47.07418" lon="15.75027">
        <ele>350.651849</ele>
        <time>2022-08-06T21:24:45.828Z</time>
      </trkpt>
      <trkpt lat="47.07444" lon="15.75071">
        <ele>352.703098</ele>
        <time>2022-08-06T21:25:07.448Z</time>
      </trkpt>
      <trkpt lat="47.07463" lon="15.75134">
        <ele>355.076384</ele>
        <time>2022-08-06T21:25:30.608Z</time>
      </trkpt>
      <trkpt lat="47.07472" lon="15.75212">
        <ele>357.825204</ele>
        <time>2022-08-06T21:25:55.444Z</time>
      </trkpt>
      <trkpt lat="47.07473" lon="15.75216">
        <ele>357.997307</ele>
        <time>2022-08-06T21:25:56.932Z</time>
      </trkpt>
      <trkpt lat="47.07487" lon="15.75408">
        <ele>366.493933</ele>
        <time>2022-08-06T21:27:08.692Z</time>
      </trkpt>
      <trkpt lat="47.07485" lon="15.75465">
        <ele>369.010248</ele>
        <time>2022-08-06T21:27:33.841Z</time>
      </trkpt>
      <trkpt lat="47.07471" lon="15.75515">
        <ele>371.910515</ele>
        <time>2022-08-06T21:27:59.607Z</time>
      </trkpt>
      <trkpt lat="47.07388" lon="15.75707">
        <ele>385.470903</ele>
        <time>2022-08-06T21:29:49.444Z</time>
      </trkpt>
      <trkpt lat="47.07372" lon="15.75751">
        <ele>388.178187</ele>
        <time>2022-08-06T21:30:10.405Z</time>
      </trkpt>
      <trkpt lat="47.07358" lon="15.75789">
        <ele>390.545795</ele>
        <time>2022-08-06T21:30:28.562Z</time>
      </trkpt>
      <trkpt lat="47.07342" lon="15.75859">
        <ele>394.559312</ele>
        <time>2022-08-06T21:31:00.126Z</time>
      </trkpt>
      <trkpt lat="47.07343" lon="15.75909">
        <ele>397.296608</ele>
        <time>2022-08-06T21:31:22.433Z</time>
      </trkpt>
      <trkpt lat="47.07353" lon="15.75949">
        <ele>399.617463</ele>
        <time>2022-08-06T21:31:41.775Z</time>
      </trkpt>
      <trkpt lat="47.0737" lon="15.75989">
        <ele>402.264819</ele>
        <time>2022-08-06T21:32:03.792Z</time>
      </trkpt>
      <trkpt lat="47.07431" lon="15.76092">
        <ele>410.081483</ele>
        <time>2022-08-06T21:33:07.957Z</time>
      </trkpt>
      <trkpt lat="47.07441" lon="15.76127">
        <ele>412.221285</ele>
        <time>2022-08-06T21:33:25.541Z</time>
      </trkpt>
      <trkpt lat="47.07441" lon="15.76148">
        <ele>413.435877</ele>
        <time>2022-08-06T21:33:35.206Z</time>
      </trkpt>
      <trkpt lat="47.07437" lon="15.76178">
        <ele>415.109908</ele>
        <time>2022-08-06T21:33:48.638Z</time>
      </trkpt>
      <trkpt lat="47.07426" lon="15.76203">
        <ele>416.160779</ele>
        <time>2022-08-06T21:34:01.959Z</time>
      </trkpt>
      <trkpt lat="47.07369" lon="15.76291">
        <ele>420.368171</ele>
        <time>2022-08-06T21:34:47.135Z</time>
      </trkpt>
      <trkpt lat="47.07348" lon="15.76385">
        <ele>423.813865</ele>
        <time>2022-08-06T21:35:15.511Z</time>
      </trkpt>
      <trkpt lat="47.07334" lon="15.76415">
        <ele>424.55543</ele>
        <time>2022-08-06T21:35:25.439Z</time>
      </trkpt>
      <trkpt lat="47.07322" lon="15.76426">
        <ele>424.810149</ele>
        <time>2022-08-06T21:35:30.922Z</time>
      </trkpt>
      <trkpt lat="47.07262" lon="15.76457">
        <ele>425.96348</ele>
        <time>2022-08-06T21:35:55.996Z</time>
      </trkpt>
      <trkpt lat="47.07218" lon="15.76471">
        <ele>426.778468</ele>
        <time>2022-08-06T21:36:11.794Z</time>
      </trkpt>
      <trkpt lat="47.07173" lon="15.76474">
        <ele>427.496286</ele>
        <time>2022-08-06T21:36:25.411Z</time>
      </trkpt>
      <trkpt lat="47.07052" lon="15.76457">
        <ele>426.839943</ele>
        <time>2022-08-06T21:36:53.417Z</time>
      </trkpt>
      <trkpt lat="47.07027" lon="15.76476">
        <ele>426.691118</ele>
        <time>2022-08-06T21:36:59.506Z</time>
      </trkpt>
      <trkpt lat="47.07016" lon="15.765">
        <ele>426.586639</ele>
        <time>2022-08-06T21:37:04.950Z</time>
      </trkpt>
      <trkpt lat="47.07012" lon="15.76525">
        <ele>426.712682</ele>
        <time>2022-08-06T21:37:08.922Z</time>
      </trkpt>
      <trkpt lat="47.07004" lon="15.76619">
        <ele>427.645074</ele>
        <time>2022-08-06T21:37:30.008Z</time>
      </trkpt>
      <trkpt lat="47.07014" lon="15.76685">
        <ele>428.314138</ele>
        <time>2022-08-06T21:37:47.076Z</time>
      </trkpt>
      <trkpt lat="47.07016" lon="15.76705">
        <ele>428.51924</ele>
        <time>2022-08-06T21:37:53.184Z</time>
      </trkpt>
      <trkpt lat="47.07008" lon="15.76782">
        <ele>429.294157</ele>
        <time>2022-08-06T21:38:11.980Z</time>
      </trkpt>
      <trkpt lat="47.06989" lon="15.76839">
        <ele>429.967515</ele>
        <time>2022-08-06T21:38:27.782Z</time>
      </trkpt>
      <trkpt lat="47.06964" lon="15.76907">
        <ele>430.788388</ele>
        <time>2022-08-06T21:38:47.382Z</time>
      </trkpt>
      <trkpt lat="47.06945" lon="15.76962">
        <ele>431.437527</ele>
        <time>2022-08-06T21:39:01.537Z</time>
      </trkpt>
      <trkpt lat="47.06929" lon="15.7703">
        <ele>432.058</ele>
        <time>2022-08-06T21:39:15.646Z</time>
      </trkpt>
      <trkpt lat="47.06892" lon="15.772">
        <ele>432.882316</ele>
        <time>2022-08-06T21:39:47.098Z</time>
      </trkpt>
      <trkpt lat="47.06886" lon="15.77228">
        <ele>433.019527</ele>
        <time>2022-08-06T21:39:54.531Z</time>
      </trkpt>
      <trkpt lat="47.06852" lon="15.77343">
        <ele>434.31106</ele>
        <time>2022-08-06T21:40:27.746Z</time>
      </trkpt>
      <trkpt lat="47.06816" lon="15.77437">
        <ele>435.64548</ele>
        <time>2022-08-06T21:40:53.168Z</time>
      </trkpt>
      <trkpt lat="47.06777" lon="15.77525">
        <ele>436.7935</ele>
        <time>2022-08-06T21:41:17.302Z</time>
      </trkpt>
      <trkpt lat="47.06772" lon="15.77522">
        <ele>436.854502</ele>
        <time>2022-08-06T21:41:18.982Z</time>
      </trkpt>
      <trkpt lat="47.06751" lon="15.77581">
        <ele>437.428074</ele>
        <time>2022-08-06T21:41:34.509Z</time>
      </trkpt>
      <trkpt lat="47.06746" lon="15.77611">
        <ele>437.689544</ele>
        <time>2022-08-06T21:41:41.382Z</time>
      </trkpt>
      <trkpt lat="47.06748" lon="15.77648">
        <ele>438.012462</ele>
        <time>2022-08-06T21:41:49.212Z</time>
      </trkpt>
      <trkpt lat="47.06763" lon="15.77696">
        <ele>438.46152</ele>
        <time>2022-08-06T21:42:00.698Z</time>
      </trkpt>
      <trkpt lat="47.06818" lon="15.77808">
        <ele>439.63691</ele>
        <time>2022-08-06T21:42:30.420Z</time>
      </trkpt>
      <trkpt lat="47.06833" lon="15.77867">
        <ele>440.168648</ele>
        <time>2022-08-06T21:42:44.536Z</time>
      </trkpt>
      <trkpt lat="47.06832" lon="15.77902">
        <ele>440.461341</ele>
        <time>2022-08-06T21:42:53.089Z</time>
      </trkpt>
      <trkpt lat="47.06821" lon="15.77992">
        <ele>441.382648</ele>
        <time>2022-08-06T21:43:13.266Z</time>
      </trkpt>
      <trkpt lat="47.06828" lon="15.77993">
        <ele>441.514989</ele>
        <time>2022-08-06T21:43:16.030Z</time>
      </trkpt>
      <trkpt lat="47.06827" lon="15.78047">
        <ele>442.201838</ele>
        <time>2022-08-06T21:43:27.987Z</time>
      </trkpt>
      <trkpt lat="47.06836" lon="15.78092">
        <ele>442.795092</ele>
        <time>2022-08-06T21:43:37.895Z</time>
      </trkpt>
      <trkpt lat="47.06839" lon="15.78099">
        <ele>442.90744</ele>
        <time>2022-08-06T21:43:40.869Z</time>
      </trkpt>
      <trkpt lat="47.06833" lon="15.78107">
        <ele>443.057727</ele>
        <time>2022-08-06T21:43:43.637Z</time>
      </trkpt>
      <trkpt lat="47.06825" lon="15.78119">
        <ele>443.270382</ele>
        <time>2022-08-06T21:43:46.911Z</time>
      </trkpt>
      <trkpt lat="47.06807" lon="15.78158">
        <ele>443.870702</ele>
        <time>2022-08-06T21:43:59.421Z</time>
      </trkpt>
      <trkpt lat="47.06791" lon="15.78282">
        <ele>445.853798</ele>
        <time>2022-08-06T21:44:35.224Z</time>
      </trkpt>
      <trkpt lat="47.06801" lon="15.78287">
        <ele>446.114206</ele>
        <time>2022-08-06T21:44:40.404Z</time>
      </trkpt>
      <trkpt lat="47.06833" lon="15.78275">
        <ele>446.91933</ele>
        <time>2022-08-06T21:44:52.406Z</time>
      </trkpt>
      <trkpt lat="47.06861" lon="15.78277">
        <ele>447.612089</ele>
        <time>2022-08-06T21:45:03.370Z</time>
      </trkpt>
      <trkpt lat="47.06878" lon="15.78282">
        <ele>448.0472</ele>
        <time>2022-08-06T21:45:10.954Z</time>
      </trkpt>
      <trkpt lat="47.06886" lon="15.78294">
        <ele>448.317694</ele>
        <time>2022-08-06T21:45:14.758Z</time>
      </trkpt>
      <trkpt lat="47.06936" lon="15.78399">
        <ele>449.150621</ele>
        <time>2022-08-06T21:45:45.784Z</time>
      </trkpt>
      <trkpt lat="47.06949" lon="15.78438">
        <ele>449.31576</ele>
        <time>2022-08-06T21:45:54.881Z</time>
      </trkpt>
      <trkpt lat="47.06959" lon="15.78484">
        <ele>449.500289</ele>
        <time>2022-08-06T21:46:03.602Z</time>
      </trkpt>
      <trkpt lat="47.06961" lon="15.7863">
        <ele>449.202005</ele>
        <time>2022-08-06T21:46:28.906Z</time>
      </trkpt>
      <trkpt lat="47.06939" lon="15.78829">
        <ele>447.534221</ele>
        <time>2022-08-06T21:47:01.278Z</time>
      </trkpt>
      <trkpt lat="47.0694" lon="15.7894">
        <ele>445.261777</ele>
        <time>2022-08-06T21:47:18.267Z</time>
      </trkpt>
      <trkpt lat="47.06869" lon="15.79143">
        <ele>438.317182</ele>
        <time>2022-08-06T21:47:48.869Z</time>
      </trkpt>
      <trkpt lat="47.06843" lon="15.79255">
        <ele>432.839717</ele>
        <time>2022-08-06T21:48:03.445Z</time>
      </trkpt>
      <trkpt lat="47.06763" lon="15.79461">
        <ele>417.51166</ele>
        <time>2022-08-06T21:48:30.910Z</time>
      </trkpt>
      <trkpt lat="47.06728" lon="15.7952">
        <ele>412.015938</ele>
        <time>2022-08-06T21:48:39.851Z</time>
      </trkpt>
      <trkpt lat="47.06715" lon="15.79571">
        <ele>408.402575</ele>
        <time>2022-08-06T21:48:46.153Z</time>
      </trkpt>
      <trkpt lat="47.06716" lon="15.7975">
        <ele>396.646766</ele>
        <time>2022-08-06T21:49:07.185Z</time>
      </trkpt>
      <trkpt lat="47.06725" lon="15.79782">
        <ele>394.340901</ele>
        <time>2022-08-06T21:49:11.303Z</time>
      </trkpt>
      <trkpt lat="47.06753" lon="15.79844">
        <ele>389.014542</ele>
        <time>2022-08-06T21:49:19.907Z</time>
      </trkpt>
      <trkpt lat="47.06764" lon="15.79856">
        <ele>387.524783</ele>
        <time>2022-08-06T21:49:22.299Z</time>
      </trkpt>
      <trkpt lat="47.06792" lon="15.79868">
        <ele>384.459513</ele>
        <time>2022-08-06T21:49:27.187Z</time>
      </trkpt>
      <trkpt lat="47.06801" lon="15.79869">
        <ele>383.522545</ele>
        <time>2022-08-06T21:49:28.683Z</time>
      </trkpt>
      <trkpt lat="47.06815" lon="15.79883">
        <ele>381.672687</ele>
        <time>2022-08-06T21:49:31.605Z</time>
      </trkpt>
      <trkpt lat="47.06822" lon="15.79904">
        <ele>380.009582</ele>
        <time>2022-08-06T21:49:34.279Z</time>
      </trkpt>
      <trkpt lat="47.06823" lon="15.79932">
        <ele>377.959727</ele>
        <time>2022-08-06T21:49:37.523Z</time>
      </trkpt>
      <trkpt lat="47.06807" lon="15.79988">
        <ele>374.023441</ele>
        <time>2022-08-06T21:49:44.459Z</time>
      </trkpt>
      <trkpt lat="47.06797" lon="15.80019">
        <ele>372.216271</ele>
        <time>2022-08-06T21:49:48.380Z</time>
      </trkpt>
      <trkpt lat="47.06769" lon="15.80119">
        <ele>366.452215</ele>
        <time>2022-08-06T21:50:01.089Z</time>
      </trkpt>
      <trkpt lat="47.06762" lon="15.80143">
        <ele>365.012253</ele>
        <time>2022-08-06T21:50:04.450Z</time>
      </trkpt>
      <trkpt lat="47.06761" lon="15.80163">
        <ele>363.979235</ele>
        <time>2022-08-06T21:50:06.894Z</time>
      </trkpt>
      <trkpt lat="47.06765" lon="15.80188">
        <ele>362.582438</ele>
        <time>2022-08-06T21:50:10.344Z</time>
      </trkpt>
      <trkpt lat="47.06769" lon="15.80201">
        <ele>361.829181</ele>
        <time>2022-08-06T21:50:12.229Z</time>
      </trkpt>
      <trkpt lat="47.06742" lon="15.80242">
        <ele>360.765171</ele>
        <time>2022-08-06T21:50:19.873Z</time>
      </trkpt>
      <trkpt lat="47.06737" lon="15.80256">
        <ele>360.642177</ele>
        <time>2022-08-06T21:50:22.106Z</time>
      </trkpt>
      <trkpt lat="47.06724" lon="15.80295">
        <ele>360.310673</ele>
        <time>2022-08-06T21:50:28.855Z</time>
      </trkpt>
      <trkpt lat="47.06722" lon="15.803">
        <ele>360.266757</ele>
        <time>2022-08-06T21:50:29.688Z</time>
      </trkpt>
      <trkpt lat="47.06719" lon="15.80301">
        <ele>360.235266</ele>
        <time>2022-08-06T21:50:30.379Z</time>
      </trkpt>
      <trkpt lat="47.0671" lon="15.80347">
        <ele>359.863067</ele>
        <time>2022-08-06T21:50:39.474Z</time>
      </trkpt>
      <trkpt lat="47.06697" lon="15.80419">
        <ele>359.292534</ele>
        <time>2022-08-06T21:50:53.901Z</time>
      </trkpt>
      <trkpt lat="47.06692" lon="15.80457">
        <ele>359.062698</ele>
        <time>2022-08-06T21:51:00.116Z</time>
      </trkpt>
      <trkpt lat="47.06686" lon="15.80469">
        <ele>359.046147</ele>
        <time>2022-08-06T21:51:03.430Z</time>
      </trkpt>
      <trkpt lat="47.06685" lon="15.80472">
        <ele>359.042261</ele>
        <time>2022-08-06T21:51:04.086Z</time>
      </trkpt>
      <trkpt lat="47.06687" lon="15.80489">
        <ele>359.023529</ele>
        <time>2022-08-06T21:51:07.130Z</time>
      </trkpt>
      <trkpt lat="47.0668" lon="15.8051">
        <ele>358.997348</ele>
        <time>2022-08-06T21:51:10.894Z</time>
      </trkpt>
      <trkpt lat="47.06638" lon="15.8056">
        <ele>358.908383</ele>
        <time>2022-08-06T21:51:26.446Z</time>
      </trkpt>
      <trkpt lat="47.06641" lon="15.80563">
        <ele>358.901735</ele>
        <time>2022-08-06T21:51:27.360Z</time>
      </trkpt>
      <trkpt lat="47.06647" lon="15.8057">
        <ele>358.889473</ele>
        <time>2022-08-06T21:51:29.024Z</time>
      </trkpt>
      <trkpt lat="47.0665" lon="15.80571">
        <ele>358.885436</ele>
        <time>2022-08-06T21:51:29.604Z</time>
      </trkpt>
      <trkpt lat="47.06641" lon="15.80597">
        <ele>358.853298</ele>
        <time>2022-08-06T21:51:35.673Z</time>
      </trkpt>
      <trkpt lat="47.06635" lon="15.80613">
        <ele>358.832341</ele>
        <time>2022-08-06T21:51:38.504Z</time>
      </trkpt>
      <trkpt lat="47.06588" lon="15.80729">
        <ele>357.94989</ele>
        <time>2022-08-06T21:52:00.956Z</time>
      </trkpt>
      <trkpt lat="47.06543" lon="15.80842">
        <ele>356.698359</ele>
        <time>2022-08-06T21:52:20.468Z</time>
      </trkpt>
      <trkpt lat="47.06492" lon="15.80988">
        <ele>353.98405</ele>
        <time>2022-08-06T21:52:43.334Z</time>
      </trkpt>
      <trkpt lat="47.06439" lon="15.81068">
        <ele>351.825443</ele>
        <time>2022-08-06T21:52:58.185Z</time>
      </trkpt>
      <trkpt lat="47.06334" lon="15.81193">
        <ele>348.424998</ele>
        <time>2022-08-06T21:53:24.525Z</time>
      </trkpt>
      <trkpt lat="47.0632" lon="15.81202">
        <ele>348.041804</ele>
        <time>2022-08-06T21:53:27.844Z</time>
      </trkpt>
      <trkpt lat="47.06283" lon="15.81253">
        <ele>346.798184</ele>
        <time>2022-08-06T21:53:39.072Z</time>
      </trkpt>
      <trkpt lat="47.06252" lon="15.81315">
        <ele>346.479393</ele>
        <time>2022-08-06T21:53:51.680Z</time>
      </trkpt>
      <trkpt lat="47.06248" lon="15.81341">
        <ele>346.384832</ele>
        <time>2022-08-06T21:53:56.061Z</time>
      </trkpt>
      <trkpt lat="47.06241" lon="15.81352">
        <ele>346.334624</ele>
        <time>2022-08-06T21:53:58.807Z</time>
      </trkpt>
      <trkpt lat="47.06226" lon="15.81412">
        <ele>346.107936</ele>
        <time>2022-08-06T21:54:10.313Z</time>
      </trkpt>
      <trkpt lat="47.06217" lon="15.81468">
        <ele>345.907711</ele>
        <time>2022-08-06T21:54:21.426Z</time>
      </trkpt>
      <trkpt lat="47.06151" lon="15.8187">
        <ele>342.510426</ele>
        <time>2022-08-06T21:55:26.528Z</time>
      </trkpt>
      <trkpt lat="47.0614" lon="15.81908">
        <ele>341.963142</ele>
        <time>2022-08-06T21:55:32.077Z</time>
      </trkpt>
      <trkpt lat="47.06141" lon="15.81926">
        <ele>341.717794</ele>
        <time>2022-08-06T21:55:34.704Z</time>
      </trkpt>
      <trkpt lat="47.06132" lon="15.81949">
        <ele>341.356932</ele>
        <time>2022-08-06T21:55:38.263Z</time>
      </trkpt>
      <trkpt lat="47.06122" lon="15.81968">
        <ele>341.036652</ele>
        <time>2022-08-06T21:55:41.646Z</time>
      </trkpt>
      <trkpt lat="47.06122" lon="15.81977">
        <ele>340.919507</ele>
        <time>2022-08-06T21:55:42.818Z</time>
      </trkpt>
      <trkpt lat="47.06125" lon="15.81992">
        <ele>340.698965</ele>
        <time>2022-08-06T21:55:44.969Z</time>
      </trkpt>
      <trkpt lat="47.06128" lon="15.82002">
        <ele>340.547445</ele>
        <time>2022-08-06T21:55:46.376Z</time>
      </trkpt>
      <trkpt lat="47.06121" lon="15.82045">
        <ele>339.755514</ele>
        <time>2022-08-06T21:55:52.400Z</time>
      </trkpt>
      <trkpt lat="47.0609" lon="15.82136">
        <ele>337.951607</ele>
        <time>2022-08-06T21:56:06.024Z</time>
      </trkpt>
      <trkpt lat="47.05958" lon="15.82426">
        <ele>332.775808</ele>
        <time>2022-08-06T21:56:56.107Z</time>
      </trkpt>
      <trkpt lat="47.05919" lon="15.82526">
        <ele>331.530115</ele>
        <time>2022-08-06T21:57:12.926Z</time>
      </trkpt>
      <trkpt lat="47.05898" lon="15.82595">
        <ele>330.783042</ele>
        <time>2022-08-06T21:57:24.177Z</time>
      </trkpt>
      <trkpt lat="47.05879" lon="15.82684">
        <ele>329.848183</ele>
        <time>2022-08-06T21:57:38.670Z</time>
      </trkpt>
      <trkpt lat="47.05873" lon="15.82744">
        <ele>329.501685</ele>
        <time>2022-08-06T21:57:48.048Z</time>
      </trkpt>
      <trkpt lat="47.05834" lon="15.82975">
        <ele>328.371365</ele>
        <time>2022-08-06T21:58:27.558Z</time>
      </trkpt>
      <trkpt lat="47.05829" lon="15.83007">
        <ele>328.271645</ele>
        <time>2022-08-06T21:58:32.914Z</time>
      </trkpt>
      <trkpt lat="47.05815" lon="15.83083">
        <ele>328.029108</ele>
        <time>2022-08-06T21:58:46.708Z</time>
      </trkpt>
      <trkpt lat="47.05806" lon="15.83123">
        <ele>327.900366</ele>
        <time>2022-08-06T21:58:54.046Z</time>
      </trkpt>
      <trkpt lat="47.05774" lon="15.83207">
        <ele>327.574409</ele>
        <time>2022-08-06T21:59:10.063Z</time>
      </trkpt>
      <trkpt lat="47.05766" lon="15.83224">
        <ele>327.45493</ele>
        <time>2022-08-06T21:59:13.581Z</time>
      </trkpt>
      <trkpt lat="47.05764" lon="15.83236">
        <ele>327.386947</ele>
        <time>2022-08-06T21:59:15.445Z</time>
      </trkpt>
      <trkpt lat="47.05727" lon="15.83312">
        <ele>326.843406</ele>
        <time>2022-08-06T21:59:30.564Z</time>
      </trkpt>
      <trkpt lat="47.05702" lon="15.83364">
        <ele>326.475348</ele>
        <time>2022-08-06T21:59:40.758Z</time>
      </trkpt>
      <trkpt lat="47.05612" lon="15.83545">
        <ele>325.150957</ele>
        <time>2022-08-06T22:00:15.842Z</time>
      </trkpt>
      <trkpt lat="47.05616" lon="15.83551">
        <ele>325.098563</ele>
        <time>2022-08-06T22:00:17.539Z</time>
      </trkpt>
      <trkpt lat="47.05595" lon="15.83597">
        <ele>324.76897</ele>
        <time>2022-08-06T22:00:27.474Z</time>
      </trkpt>
      <trkpt lat="47.05581" lon="15.83626">
        <ele>324.555233</ele>
        <time>2022-08-06T22:00:33.524Z</time>
      </trkpt>
      <trkpt lat="47.05579" lon="15.8363">
        <ele>324.527128</ele>
        <time>2022-08-06T22:00:34.477Z</time>
      </trkpt>
      <trkpt lat="47.05576" lon="15.83636">
        <ele>324.498489</ele>
        <time>2022-08-06T22:00:35.814Z</time>
      </trkpt>
      <trkpt lat="47.05569" lon="15.83648">
        <ele>324.435743</ele>
        <time>2022-08-06T22:00:38.411Z</time>
      </trkpt>
      <trkpt lat="47.05552" lon="15.83689">
        <ele>324.244134</ele>
        <time>2022-08-06T22:00:45.998Z</time>
      </trkpt>
      <trkpt lat="47.05545" lon="15.83704">
        <ele>324.172358</ele>
        <time>2022-08-06T22:00:48.780Z</time>
      </trkpt>
      <trkpt lat="47.05526" lon="15.83756">
        <ele>323.936772</ele>
        <time>2022-08-06T22:00:58.154Z</time>
      </trkpt>
      <trkpt lat="47.05518" lon="15.83774">
        <ele>323.854709</ele>
        <time>2022-08-06T22:01:01.525Z</time>
      </trkpt>
      <trkpt lat="47.05497" lon="15.8384">
        <ele>323.561945</ele>
        <time>2022-08-06T22:01:14.223Z</time>
      </trkpt>
      <trkpt lat="47.05491" lon="15.83875">
        <ele>323.541419</ele>
        <time>2022-08-06T22:01:20.784Z</time>
      </trkpt>
      <trkpt lat="47.05483" lon="15.8393">
        <ele>323.744385</ele>
        <time>2022-08-06T22:01:31.436Z</time>
      </trkpt>
      <trkpt lat="47.05479" lon="15.83952">
        <ele>323.825924</ele>
        <time>2022-08-06T22:01:35.857Z</time>
      </trkpt>
      <trkpt lat="47.05473" lon="15.83988">
        <ele>323.956703</ele>
        <time>2022-08-06T22:01:42.806Z</time>
      </trkpt>
      <trkpt lat="47.0547" lon="15.84003">
        <ele>324.012921</ele>
        <time>2022-08-06T22:01:45.823Z</time>
      </trkpt>
      <trkpt lat="47.05466" lon="15.8402">
        <ele>324.078332</ele>
        <time>2022-08-06T22:01:49.391Z</time>
      </trkpt>
      <trkpt lat="47.05459" lon="15.84055">
        <ele>324.208654</ele>
        <time>2022-08-06T22:01:56.881Z</time>
      </trkpt>
      <trkpt lat="47.05453" lon="15.84082">
        <ele>324.312301</ele>
        <time>2022-08-06T22:02:03.047Z</time>
      </trkpt>
      <trkpt lat="47.05447" lon="15.84121">
        <ele>324.470666</ele>
        <time>2022-08-06T22:02:11.884Z</time>
      </trkpt>
      <trkpt lat="47.05444" lon="15.84143">
        <ele>324.613776</ele>
        <time>2022-08-06T22:02:17.020Z</time>
      </trkpt>
      <trkpt lat="47.05439" lon="15.84179">
        <ele>324.839513</ele>
        <time>2022-08-06T22:02:25.236Z</time>
      </trkpt>
      <trkpt lat="47.0543" lon="15.84247">
        <ele>325.277771</ele>
        <time>2022-08-06T22:02:41.542Z</time>
      </trkpt>
      <trkpt lat="47.05429" lon="15.84252">
        <ele>325.305975</ele>
        <time>2022-08-06T22:02:42.599Z</time>
      </trkpt>
      <trkpt lat="47.05428" lon="15.84258">
        <ele>325.343715</ele>
        <time>2022-08-06T22:02:44.017Z</time>
      </trkpt>
      <trkpt lat="47.05425" lon="15.84282">
        <ele>325.494474</ele>
        <time>2022-08-06T22:02:49.349Z</time>
      </trkpt>
      <trkpt lat="47.05422" lon="15.84321">
        <ele>325.740518</ele>
        <time>2022-08-06T22:02:57.651Z</time>
      </trkpt>
      <trkpt lat="47.05418" lon="15.84343">
        <ele>325.884237</ele>
        <time>2022-08-06T22:03:02.154Z</time>
      </trkpt>
      <trkpt lat="47.05405" lon="15.84402">
        <ele>325.878527</ele>
        <time>2022-08-06T22:03:13.180Z</time>
      </trkpt>
      <trkpt lat="47.05401" lon="15.84422">
        <ele>325.737457</ele>
        <time>2022-08-06T22:03:16.846Z</time>
      </trkpt>
      <trkpt lat="47.05399" lon="15.84434">
        <ele>325.655092</ele>
        <time>2022-08-06T22:03:18.908Z</time>
      </trkpt>
      <trkpt lat="47.05395" lon="15.84453">
        <ele>325.528381</ele>
        <time>2022-08-06T22:03:21.899Z</time>
      </trkpt>
      <trkpt lat="47.05395" lon="15.84454">
        <ele>325.518383</ele>
        <time>2022-08-06T22:03:22.141Z</time>
      </trkpt>
      <trkpt lat="47.05393" lon="15.84463">
        <ele>325.455411</ele>
        <time>2022-08-06T22:03:23.713Z</time>
      </trkpt>
      <trkpt lat="47.05392" lon="15.84465">
        <ele>325.441019</ele>
        <time>2022-08-06T22:03:24.069Z</time>
      </trkpt>
      <trkpt lat="47.05392" lon="15.84467">
        <ele>325.42841</ele>
        <time>2022-08-06T22:03:24.378Z</time>
      </trkpt>
      <trkpt lat="47.05385" lon="15.84487">
        <ele>325.285011</ele>
        <time>2022-08-06T22:03:27.747Z</time>
      </trkpt>
      <trkpt lat="47.05373" lon="15.84515">
        <ele>325.063936</ele>
        <time>2022-08-06T22:03:32.937Z</time>
      </trkpt>
      <trkpt lat="47.05363" lon="15.84534">
        <ele>324.909206</ele>
        <time>2022-08-06T22:03:36.423Z</time>
      </trkpt>
      <trkpt lat="47.05354" lon="15.84548">
        <ele>324.780629</ele>
        <time>2022-08-06T22:03:39.421Z</time>
      </trkpt>
      <trkpt lat="47.05342" lon="15.84567">
        <ele>324.607539</ele>
        <time>2022-08-06T22:03:43.424Z</time>
      </trkpt>
      <trkpt lat="47.05339" lon="15.84564">
        <ele>324.576737</ele>
        <time>2022-08-06T22:03:44.059Z</time>
      </trkpt>
      <trkpt lat="47.05318" lon="15.84595">
        <ele>324.2756</ele>
        <time>2022-08-06T22:03:50.622Z</time>
      </trkpt>
      <trkpt lat="47.05307" lon="15.84619">
        <ele>324.042915</ele>
        <time>2022-08-06T22:03:54.796Z</time>
      </trkpt>
      <trkpt lat="47.05227" lon="15.8477">
        <ele>322.49288</ele>
        <time>2022-08-06T22:04:23.884Z</time>
      </trkpt>
      <trkpt lat="47.05191" lon="15.84852">
        <ele>322.022789</ele>
        <time>2022-08-06T22:04:40.551Z</time>
      </trkpt>
      <trkpt lat="47.05145" lon="15.84972">
        <ele>321.631242</ele>
        <time>2022-08-06T22:05:04.184Z</time>
      </trkpt>
      <trkpt lat="47.0511" lon="15.85096">
        <ele>321.256841</ele>
        <time>2022-08-06T22:05:27.550Z</time>
      </trkpt>
      <trkpt lat="47.05088" lon="15.85215">
        <ele>320.917606</ele>
        <time>2022-08-06T22:05:48.268Z</time>
      </trkpt>
      <trkpt lat="47.05066" lon="15.85377">
        <ele>320.337863</ele>
        <time>2022-08-06T22:06:16.750Z</time>
      </trkpt>
      <trkpt lat="47.0506" lon="15.85465">
        <ele>319.977276</ele>
        <time>2022-08-06T22:06:30.734Z</time>
      </trkpt>
      <trkpt lat="47.05063" lon="15.85466">
        <ele>319.95873</ele>
        <time>2022-08-06T22:06:31.513Z</time>
      </trkpt>
      <trkpt lat="47.05061" lon="15.85521">
        <ele>319.73503</ele>
        <time>2022-08-06T22:06:40.586Z</time>
      </trkpt>
      <trkpt lat="47.05061" lon="15.85556">
        <ele>319.550611</ele>
        <time>2022-08-06T22:06:46.708Z</time>
      </trkpt>
      <trkpt lat="47.05062" lon="15.85626">
        <ele>319.047327</ele>
        <time>2022-08-06T22:06:58.502Z</time>
      </trkpt>
      <trkpt lat="47.05073" lon="15.8579">
        <ele>317.875135</ele>
        <time>2022-08-06T22:07:24.032Z</time>
      </trkpt>
      <trkpt lat="47.05073" lon="15.85795">
        <ele>317.837796</ele>
        <time>2022-08-06T22:07:24.850Z</time>
      </trkpt>
      <trkpt lat="47.05074" lon="15.85798">
        <ele>317.814748</ele>
        <time>2022-08-06T22:07:25.334Z</time>
      </trkpt>
      <trkpt lat="47.05074" lon="15.85801">
        <ele>317.793113</ele>
        <time>2022-08-06T22:07:25.783Z</time>
      </trkpt>
      <trkpt lat="47.05098" lon="15.86045">
        <ele>314.409006</ele>
        <time>2022-08-06T22:08:01.110Z</time>
      </trkpt>
      <trkpt lat="47.05109" lon="15.86227">
        <ele>311.484703</ele>
        <time>2022-08-06T22:08:26.199Z</time>
      </trkpt>
      <trkpt lat="47.0511" lon="15.86252">
        <ele>311.063993</ele>
        <time>2022-08-06T22:08:29.858Z</time>
      </trkpt>
      <trkpt lat="47.05111" lon="15.86312">
        <ele>310.090517</ele>
        <time>2022-08-06T22:08:38.206Z</time>
      </trkpt>
      <trkpt lat="47.05112" lon="15.86335">
        <ele>309.76999</ele>
        <time>2022-08-06T22:08:41.449Z</time>
      </trkpt>
      <trkpt lat="47.05112" lon="15.86346">
        <ele>309.704503</ele>
        <time>2022-08-06T22:08:43.137Z</time>
      </trkpt>
      <trkpt lat="47.05114" lon="15.8642">
        <ele>309.289828</ele>
        <time>2022-08-06T22:08:53.976Z</time>
      </trkpt>
      <trkpt lat="47.05116" lon="15.8646">
        <ele>309.062411</ele>
        <time>2022-08-06T22:09:00.408Z</time>
      </trkpt>
      <trkpt lat="47.05116" lon="15.86463">
        <ele>309.043205</ele>
        <time>2022-08-06T22:09:00.951Z</time>
      </trkpt>
      <trkpt lat="47.0512" lon="15.86517">
        <ele>308.739551</ele>
        <time>2022-08-06T22:09:09.988Z</time>
      </trkpt>
      <trkpt lat="47.05115" lon="15.86518">
        <ele>308.703398</ele>
        <time>2022-08-06T22:09:11.015Z</time>
      </trkpt>
      <trkpt lat="47.05127" lon="15.86585">
        <ele>308.313313</ele>
        <time>2022-08-06T22:09:23.699Z</time>
      </trkpt>
      <trkpt lat="47.05146" lon="15.86639">
        <ele>308.696842</ele>
        <time>2022-08-06T22:09:35.919Z</time>
      </trkpt>
      <trkpt lat="47.05157" lon="15.86664">
        <ele>308.894141</ele>
        <time>2022-08-06T22:09:42.329Z</time>
      </trkpt>
      <trkpt lat="47.0518" lon="15.86704">
        <ele>309.239383</ele>
        <time>2022-08-06T22:09:53.712Z</time>
      </trkpt>
      <trkpt lat="47.05186" lon="15.86713">
        <ele>309.322368</ele>
        <time>2022-08-06T22:09:56.479Z</time>
      </trkpt>
      <trkpt lat="47.05191" lon="15.86719">
        <ele>309.383348</ele>
        <time>2022-08-06T22:09:58.599Z</time>
      </trkpt>
      <trkpt lat="47.05201" lon="15.86731">
        <ele>309.507963</ele>
        <time>2022-08-06T22:10:03.027Z</time>
      </trkpt>
      <trkpt lat="47.05223" lon="15.86778">
        <ele>309.880148</ele>
        <time>2022-08-06T22:10:16.010Z</time>
      </trkpt>
      <trkpt lat="47.05231" lon="15.86829">
        <ele>310.039476</ele>
        <time>2022-08-06T22:10:27.888Z</time>
      </trkpt>
      <trkpt lat="47.05225" lon="15.86885">
        <ele>310.040414</ele>
        <time>2022-08-06T22:10:39.899Z</time>
      </trkpt>
      <trkpt lat="47.05216" lon="15.8694">
        <ele>310.041331</ele>
        <time>2022-08-06T22:10:50.507Z</time>
      </trkpt>
      <trkpt lat="47.0519" lon="15.87012">
        <ele>310.042666</ele>
        <time>2022-08-06T22:11:04.050Z</time>
      </trkpt>
      <trkpt lat="47.05147" lon="15.87106">
        <ele>309.373916</ele>
        <time>2022-08-06T22:11:21.331Z</time>
      </trkpt>
      <trkpt lat="47.05115" lon="15.87216">
        <ele>308.267419</ele>
        <time>2022-08-06T22:11:39.202Z</time>
      </trkpt>
      <trkpt lat="47.05089" lon="15.87349">
        <ele>307.133884</ele>
        <time>2022-08-06T22:12:00.271Z</time>
      </trkpt>
      <trkpt lat="47.05079" lon="15.87403">
        <ele>306.741658</ele>
        <time>2022-08-06T22:12:09.101Z</time>
      </trkpt>
      <trkpt lat="47.05068" lon="15.87412">
        <ele>306.605411</ele>
        <time>2022-08-06T22:12:12.212Z</time>
      </trkpt>
      <trkpt lat="47.0502" lon="15.87531">
        <ele>305.656664</ele>
        <time>2022-08-06T22:12:35.707Z</time>
      </trkpt>
      <trkpt lat="47.05007" lon="15.876">
        <ele>305.277097</ele>
        <time>2022-08-06T22:12:47.379Z</time>
      </trkpt>
      <trkpt lat="47.05006" lon="15.87664">
        <ele>304.936862</ele>
        <time>2022-08-06T22:12:58.365Z</time>
      </trkpt>
      <trkpt lat="47.0501" lon="15.87674">
        <ele>304.873025</ele>
        <time>2022-08-06T22:13:00.519Z</time>
      </trkpt>
      <trkpt lat="47.04999" lon="15.87698">
        <ele>304.723691</ele>
        <time>2022-08-06T22:13:05.117Z</time>
      </trkpt>
      <trkpt lat="47.04998" lon="15.87701">
        <ele>304.70267</ele>
        <time>2022-08-06T22:13:05.772Z</time>
      </trkpt>
      <trkpt lat="47.04978" lon="15.87744">
        <ele>304.429841</ele>
        <time>2022-08-06T22:13:14.339Z</time>
      </trkpt>
      <trkpt lat="47.04948" lon="15.87798">
        <ele>303.930675</ele>
        <time>2022-08-06T22:13:25.679Z</time>
      </trkpt>
      <trkpt lat="47.04895" lon="15.87879">
        <ele>303.053224</ele>
        <time>2022-08-06T22:13:43.191Z</time>
      </trkpt>
      <trkpt lat="47.04891" lon="15.87884">
        <ele>302.990791</ele>
        <time>2022-08-06T22:13:44.409Z</time>
      </trkpt>
      <trkpt lat="47.04872" lon="15.87907">
        <ele>302.712071</ele>
        <time>2022-08-06T22:13:49.899Z</time>
      </trkpt>
      <trkpt lat="47.04802" lon="15.88004">
        <ele>301.238324</ele>
        <time>2022-08-06T22:14:11.011Z</time>
      </trkpt>
      <trkpt lat="47.04784" lon="15.8803">
        <ele>300.800113</ele>
        <time>2022-08-06T22:14:16.302Z</time>
      </trkpt>
      <trkpt lat="47.04733" lon="15.88115">
        <ele>299.42798</ele>
        <time>2022-08-06T22:14:32.749Z</time>
      </trkpt>
      <trkpt lat="47.04728" lon="15.88124">
        <ele>299.296239</ele>
        <time>2022-08-06T22:14:34.325Z</time>
      </trkpt>
      <trkpt lat="47.04722" lon="15.88135">
        <ele>299.125358</ele>
        <time>2022-08-06T22:14:36.348Z</time>
      </trkpt>
      <trkpt lat="47.04668" lon="15.88246">
        <ele>297.873542</ele>
        <time>2022-08-06T22:14:56.836Z</time>
      </trkpt>
      <trkpt lat="47.0464" lon="15.88315">
        <ele>297.136302</ele>
        <time>2022-08-06T22:15:09.396Z</time>
      </trkpt>
      <trkpt lat="47.04612" lon="15.88399">
        <ele>296.391505</ele>
        <time>2022-08-06T22:15:24.095Z</time>
      </trkpt>
      <trkpt lat="47.04597" lon="15.88456">
        <ele>295.976731</ele>
        <time>2022-08-06T22:15:33.636Z</time>
      </trkpt>
      <trkpt lat="47.04593" lon="15.88471">
        <ele>295.864979</ele>
        <time>2022-08-06T22:15:36.156Z</time>
      </trkpt>
      <trkpt lat="47.04559" lon="15.88655">
        <ele>294.630237</ele>
        <time>2022-08-06T22:16:06.382Z</time>
      </trkpt>
      <trkpt lat="47.04548" lon="15.88774">
        <ele>293.962566</ele>
        <time>2022-08-06T22:16:25.484Z</time>
      </trkpt>
      <trkpt lat="47.04546" lon="15.88893">
        <ele>293.374811</ele>
        <time>2022-08-06T22:16:45.068Z</time>
      </trkpt>
      <trkpt lat="47.04548" lon="15.88955">
        <ele>293.219203</ele>
        <time>2022-08-06T22:16:55.606Z</time>
      </trkpt>
      <trkpt lat="47.04555" lon="15.89057">
        <ele>292.965609</ele>
        <time>2022-08-06T22:17:13.541Z</time>
      </trkpt>
      <trkpt lat="47.04563" lon="15.89117">
        <ele>292.813371</ele>
        <time>2022-08-06T22:17:24.128Z</time>
      </trkpt>
      <trkpt lat="47.04575" lon="15.89191">
        <ele>292.807255</ele>
        <time>2022-08-06T22:17:37.183Z</time>
      </trkpt>
      <trkpt lat="47.04588" lon="15.89249">
        <ele>292.836048</ele>
        <time>2022-08-06T22:17:48.523Z</time>
      </trkpt>
      <trkpt lat="47.04606" lon="15.89321">
        <ele>292.872558</ele>
        <time>2022-08-06T22:18:03.168Z</time>
      </trkpt>
      <trkpt lat="47.04611" lon="15.89334">
        <ele>292.879657</ele>
        <time>2022-08-06T22:18:06.104Z</time>
      </trkpt>
      <trkpt lat="47.04613" lon="15.89343">
        <ele>292.884394</ele>
        <time>2022-08-06T22:18:08.147Z</time>
      </trkpt>
      <trkpt lat="47.04624" lon="15.89377">
        <ele>292.901758</ele>
        <time>2022-08-06T22:18:15.098Z</time>
      </trkpt>
      <trkpt lat="47.04634" lon="15.89403">
        <ele>292.866829</ele>
        <time>2022-08-06T22:18:20.850Z</time>
      </trkpt>
      <trkpt lat="47.04649" lon="15.8943">
        <ele>292.820136</ele>
        <time>2022-08-06T22:18:27.052Z</time>
      </trkpt>
      <trkpt lat="47.04678" lon="15.89475">
        <ele>292.7373</ele>
        <time>2022-08-06T22:18:37.630Z</time>
      </trkpt>
      <trkpt lat="47.04695" lon="15.89511">
        <ele>292.677503</ele>
        <time>2022-08-06T22:18:45.097Z</time>
      </trkpt>
      <trkpt lat="47.04702" lon="15.89534">
        <ele>292.644848</ele>
        <time>2022-08-06T22:18:49.203Z</time>
      </trkpt>
      <trkpt lat="47.04704" lon="15.89544">
        <ele>292.629945</ele>
        <time>2022-08-06T22:18:51.080Z</time>
      </trkpt>
      <trkpt lat="47.04714" lon="15.8965">
        <ele>292.509539</ele>
        <time>2022-08-06T22:19:09.837Z</time>
      </trkpt>
      <trkpt lat="47.04715" lon="15.89657">
        <ele>292.503316</ele>
        <time>2022-08-06T22:19:11.100Z</time>
      </trkpt>
      <trkpt lat="47.04721" lon="15.89702">
        <ele>292.464901</ele>
        <time>2022-08-06T22:19:18.956Z</time>
      </trkpt>
      <trkpt lat="47.04727" lon="15.8973">
        <ele>292.439759</ele>
        <time>2022-08-06T22:19:24.158Z</time>
      </trkpt>
      <trkpt lat="47.04731" lon="15.89738">
        <ele>292.432152</ele>
        <time>2022-08-06T22:19:25.766Z</time>
      </trkpt>
      <trkpt lat="47.04747" lon="15.89773">
        <ele>292.396368</ele>
        <time>2022-08-06T22:19:33.332Z</time>
      </trkpt>
      <trkpt lat="47.04782" lon="15.89822">
        <ele>292.335977</ele>
        <time>2022-08-06T22:19:46.564Z</time>
      </trkpt>
      <trkpt lat="47.04785" lon="15.89826">
        <ele>292.331253</ele>
        <time>2022-08-06T22:19:47.573Z</time>
      </trkpt>
      <trkpt lat="47.04788" lon="15.8983">
        <ele>292.326058</ele>
        <time>2022-08-06T22:19:48.728Z</time>
      </trkpt>
      <trkpt lat="47.04809" lon="15.89861">
        <ele>292.300302</ele>
        <time>2022-08-06T22:19:56.851Z</time>
      </trkpt>
      <trkpt lat="47.04829" lon="15.89892">
        <ele>292.275895</ele>
        <time>2022-08-06T22:20:04.738Z</time>
      </trkpt>
      <trkpt lat="47.04832" lon="15.89901">
        <ele>292.269916</ele>
        <time>2022-08-06T22:20:06.644Z</time>
      </trkpt>
      <trkpt lat="47.04843" lon="15.89925">
        <ele>292.253696</ele>
        <time>2022-08-06T22:20:12.024Z</time>
      </trkpt>
      <trkpt lat="47.04846" lon="15.89933">
        <ele>292.248147</ele>
        <time>2022-08-06T22:20:13.694Z</time>
      </trkpt>
      <trkpt lat="47.04856" lon="15.89958">
        <ele>292.231344</ele>
        <time>2022-08-06T22:20:19.140Z</time>
      </trkpt>
      <trkpt lat="47.04859" lon="15.89968">
        <ele>292.224912</ele>
        <time>2022-08-06T22:20:21.192Z</time>
      </trkpt>
      <trkpt lat="47.04866" lon="15.89994">
        <ele>292.208753</ele>
        <time>2022-08-06T22:20:26.031Z</time>
      </trkpt>
      <trkpt lat="47.0487" lon="15.90007">
        <ele>292.200578</ele>
        <time>2022-08-06T22:20:28.617Z</time>
      </trkpt>
      <trkpt lat="47.04871" lon="15.90012">
        <ele>292.197455</ele>
        <time>2022-08-06T22:20:29.594Z</time>
      </trkpt>
      <trkpt lat="47.04879" lon="15.90045">
        <ele>292.177374</ele>
        <time>2022-08-06T22:20:35.664Z</time>
      </trkpt>
      <trkpt lat="47.04881" lon="15.90056">
        <ele>292.155858</ele>
        <time>2022-08-06T22:20:37.703Z</time>
      </trkpt>
      <trkpt lat="47.04884" lon="15.90074">
        <ele>292.049942</ele>
        <time>2022-08-06T22:20:40.970Z</time>
      </trkpt>
      <trkpt lat="47.0488" lon="15.90075">
        <ele>292.021625</ele>
        <time>2022-08-06T22:20:41.713Z</time>
      </trkpt>
      <trkpt lat="47.04884" lon="15.90113">
        <ele>291.807801</ele>
        <time>2022-08-06T22:20:48.195Z</time>
      </trkpt>
      <trkpt lat="47.04884" lon="15.90121">
        <ele>291.766106</ele>
        <time>2022-08-06T22:20:49.445Z</time>
      </trkpt>
      <trkpt lat="47.04885" lon="15.90176">
        <ele>291.452618</ele>
        <time>2022-08-06T22:20:58.623Z</time>
      </trkpt>
      <trkpt lat="47.04883" lon="15.90224">
        <ele>291.186827</ele>
        <time>2022-08-06T22:21:06.408Z</time>
      </trkpt>
      <trkpt lat="47.04887" lon="15.903">
        <ele>290.756373</ele>
        <time>2022-08-06T22:21:19.343Z</time>
      </trkpt>
      <trkpt lat="47.04913" lon="15.90385">
        <ele>290.122243</ele>
        <time>2022-08-06T22:21:34.928Z</time>
      </trkpt>
      <trkpt lat="47.04928" lon="15.90475">
        <ele>289.483048</ele>
        <time>2022-08-06T22:21:50.041Z</time>
      </trkpt>
      <trkpt lat="47.04929" lon="15.90482">
        <ele>289.429933</ele>
        <time>2022-08-06T22:21:51.277Z</time>
      </trkpt>
      <trkpt lat="47.04938" lon="15.90572">
        <ele>288.79335</ele>
        <time>2022-08-06T22:22:06.217Z</time>
      </trkpt>
      <trkpt lat="47.04957" lon="15.90633">
        <ele>288.281187</ele>
        <time>2022-08-06T22:22:17.077Z</time>
      </trkpt>
      <trkpt lat="47.05072" lon="15.90795">
        <ele>286.663991</ele>
        <time>2022-08-06T22:22:55.114Z</time>
      </trkpt>
      <trkpt lat="47.05156" lon="15.90908">
        <ele>286.006441</ele>
        <time>2022-08-06T22:23:24.517Z</time>
      </trkpt>
      <trkpt lat="47.05209" lon="15.90954">
        <ele>285.737955</ele>
        <time>2022-08-06T22:23:40.994Z</time>
      </trkpt>
      <trkpt lat="47.05248" lon="15.90982">
        <ele>285.627552</ele>
        <time>2022-08-06T22:23:52.358Z</time>
      </trkpt>
      <trkpt lat="47.05289" lon="15.91029">
        <ele>285.492044</ele>
        <time>2022-08-06T22:24:06.407Z</time>
      </trkpt>
      <trkpt lat="47.05365" lon="15.91161">
        <ele>285.253747</ele>
        <time>2022-08-06T22:24:37.791Z</time>
      </trkpt>
      <trkpt lat="47.05372" lon="15.91172">
        <ele>285.239024</ele>
        <time>2022-08-06T22:24:40.342Z</time>
      </trkpt>
      <trkpt lat="47.05428" lon="15.91265">
        <ele>285.114607</ele>
        <time>2022-08-06T22:25:03.289Z</time>
      </trkpt>
      <trkpt lat="47.05465" lon="15.91348">
        <ele>285.230529</ele>
        <time>2022-08-06T22:25:22.600Z</time>
      </trkpt>
      <trkpt lat="47.05515" lon="15.91476">
        <ele>285.589081</ele>
        <time>2022-08-06T22:25:51.891Z</time>
      </trkpt>
      <trkpt lat="47.05555" lon="15.91559">
        <ele>285.971511</ele>
        <time>2022-08-06T22:26:13.595Z</time>
      </trkpt>
      <trkpt lat="47.05598" lon="15.91625">
        <ele>286.448596</ele>
        <time>2022-08-06T22:26:33.506Z</time>
      </trkpt>
      <trkpt lat="47.0567" lon="15.91709">
        <ele>287.12878</ele>
        <time>2022-08-06T22:27:02.526Z</time>
      </trkpt>
      <trkpt lat="47.05696" lon="15.91751">
        <ele>287.261417</ele>
        <time>2022-08-06T22:27:14.400Z</time>
      </trkpt>
      <trkpt lat="47.05708" lon="15.91793">
        <ele>287.367686</ele>
        <time>2022-08-06T22:27:23.745Z</time>
      </trkpt>
      <trkpt lat="47.05712" lon="15.91822">
        <ele>287.436762</ele>
        <time>2022-08-06T22:27:29.751Z</time>
      </trkpt>
      <trkpt lat="47.05711" lon="15.91864">
        <ele>287.535986</ele>
        <time>2022-08-06T22:27:38.103Z</time>
      </trkpt>
      <trkpt lat="47.05685" lon="15.91987">
        <ele>287.704522</ele>
        <time>2022-08-06T22:28:02.504Z</time>
      </trkpt>
      <trkpt lat="47.05679" lon="15.92043">
        <ele>287.682551</ele>
        <time>2022-08-06T22:28:13.035Z</time>
      </trkpt>
      <trkpt lat="47.05677" lon="15.92131">
        <ele>287.648154</ele>
        <time>2022-08-06T22:28:29.698Z</time>
      </trkpt>
      <trkpt lat="47.05672" lon="15.92264">
        <ele>287.397861</ele>
        <time>2022-08-06T22:28:54.507Z</time>
      </trkpt>
      <trkpt lat="47.05655" lon="15.92325">
        <ele>287.160129</ele>
        <time>2022-08-06T22:29:06.180Z</time>
      </trkpt>
      <trkpt lat="47.05658" lon="15.92331">
        <ele>287.136735</ele>
        <time>2022-08-06T22:29:07.283Z</time>
      </trkpt>
      <trkpt lat="47.0564" lon="15.9236">
        <ele>286.994531</ele>
        <time>2022-08-06T22:29:14.094Z</time>
      </trkpt>
      <trkpt lat="47.05623" lon="15.92391">
        <ele>286.853295</ele>
        <time>2022-08-06T22:29:20.811Z</time>
      </trkpt>
      <trkpt lat="47.05608" lon="15.92438">
        <ele>286.651783</ele>
        <time>2022-08-06T22:29:29.742Z</time>
      </trkpt>
      <trkpt lat="47.05609" lon="15.9245">
        <ele>286.547644</ele>
        <time>2022-08-06T22:29:31.801Z</time>
      </trkpt>
      <trkpt lat="47.05614" lon="15.92502">
        <ele>286.102236</ele>
        <time>2022-08-06T22:29:40.331Z</time>
      </trkpt>
      <trkpt lat="47.05612" lon="15.92556">
        <ele>285.633009</ele>
        <time>2022-08-06T22:29:49.025Z</time>
      </trkpt>
      <trkpt lat="47.05606" lon="15.92572">
        <ele>285.475855</ele>
        <time>2022-08-06T22:29:51.823Z</time>
      </trkpt>
      <trkpt lat="47.05604" lon="15.92576">
        <ele>285.431048</ele>
        <time>2022-08-06T22:29:52.625Z</time>
      </trkpt>
      <trkpt lat="47.0558" lon="15.9262">
        <ele>284.946821</ele>
        <time>2022-08-06T22:30:00.929Z</time>
      </trkpt>
      <trkpt lat="47.05549" lon="15.92655">
        <ele>284.460437</ele>
        <time>2022-08-06T22:30:09.304Z</time>
      </trkpt>
      <trkpt lat="47.0553" lon="15.92678">
        <ele>284.272544</ele>
        <time>2022-08-06T22:30:14.951Z</time>
      </trkpt>
      <trkpt lat="47.05472" lon="15.92733">
        <ele>283.824189</ele>
        <time>2022-08-06T22:30:31.818Z</time>
      </trkpt>
      <trkpt lat="47.05468" lon="15.92736">
        <ele>283.797309</ele>
        <time>2022-08-06T22:30:32.834Z</time>
      </trkpt>
      <trkpt lat="47.05466" lon="15.92748">
        <ele>283.744386</ele>
        <time>2022-08-06T22:30:34.844Z</time>
      </trkpt>
      <trkpt lat="47.0546" lon="15.92779">
        <ele>283.603183</ele>
        <time>2022-08-06T22:30:40.232Z</time>
      </trkpt>
      <trkpt lat="47.05456" lon="15.92795">
        <ele>283.529216</ele>
        <time>2022-08-06T22:30:43.044Z</time>
      </trkpt>
      <trkpt lat="47.05452" lon="15.92793">
        <ele>283.503738</ele>
        <time>2022-08-06T22:30:43.984Z</time>
      </trkpt>
      <trkpt lat="47.05445" lon="15.92836">
        <ele>283.306514</ele>
        <time>2022-08-06T22:30:51.673Z</time>
      </trkpt>
      <trkpt lat="47.05447" lon="15.92873">
        <ele>283.304949</ele>
        <time>2022-08-06T22:30:58.221Z</time>
      </trkpt>
      <trkpt lat="47.0545" lon="15.9291">
        <ele>283.410383</ele>
        <time>2022-08-06T22:31:04.907Z</time>
      </trkpt>
      <trkpt lat="47.05451" lon="15.92968">
        <ele>283.573991</ele>
        <time>2022-08-06T22:31:15.841Z</time>
      </trkpt>
      <trkpt lat="47.05441" lon="15.93023">
        <ele>283.736421</ele>
        <time>2022-08-06T22:31:27.452Z</time>
      </trkpt>
      <trkpt lat="47.05404" lon="15.93152">
        <ele>284.433926</ele>
        <time>2022-08-06T22:31:56.184Z</time>
      </trkpt>
      <trkpt lat="47.05397" lon="15.93189">
        <ele>284.777789</ele>
        <time>2022-08-06T22:32:04.712Z</time>
      </trkpt>
      <trkpt lat="47.05389" lon="15.93288">
        <ele>285.659001</ele>
        <time>2022-08-06T22:32:27.909Z</time>
      </trkpt>
      <trkpt lat="47.05315" lon="15.93521">
        <ele>287.856899</ele>
        <time>2022-08-06T22:33:28.122Z</time>
      </trkpt>
      <trkpt lat="47.05278" lon="15.93616">
        <ele>288.52956</ele>
        <time>2022-08-06T22:33:50.036Z</time>
      </trkpt>
      <trkpt lat="47.05237" lon="15.93671">
        <ele>288.476521</ele>
        <time>2022-08-06T22:34:05.004Z</time>
      </trkpt>
      <trkpt lat="47.05205" lon="15.93696">
        <ele>288.442152</ele>
        <time>2022-08-06T22:34:14.080Z</time>
      </trkpt>
      <trkpt lat="47.05123" lon="15.9374">
        <ele>288.289776</ele>
        <time>2022-08-06T22:34:36.191Z</time>
      </trkpt>
      <trkpt lat="47.0506" lon="15.93803">
        <ele>287.927377</ele>
        <time>2022-08-06T22:34:55.504Z</time>
      </trkpt>
      <trkpt lat="47.05063" lon="15.93809">
        <ele>287.901867</ele>
        <time>2022-08-06T22:34:56.912Z</time>
      </trkpt>
      <trkpt lat="47.05067" lon="15.93816">
        <ele>287.874199</ele>
        <time>2022-08-06T22:34:58.439Z</time>
      </trkpt>
      <trkpt lat="47.05044" lon="15.93842">
        <ele>287.739112</ele>
        <time>2022-08-06T22:35:05.498Z</time>
      </trkpt>
      <trkpt lat="47.04967" lon="15.93926">
        <ele>287.249908</ele>
        <time>2022-08-06T22:35:27.870Z</time>
      </trkpt>
      <trkpt lat="47.0492" lon="15.93985">
        <ele>286.916227</ele>
        <time>2022-08-06T22:35:41.806Z</time>
      </trkpt>
      <trkpt lat="47.04892" lon="15.94054">
        <ele>286.619582</ele>
        <time>2022-08-06T22:35:56.354Z</time>
      </trkpt>
      <trkpt lat="47.04878" lon="15.94137">
        <ele>286.843846</ele>
        <time>2022-08-06T22:36:13.882Z</time>
      </trkpt>
      <trkpt lat="47.04877" lon="15.94156">
        <ele>286.92705</ele>
        <time>2022-08-06T22:36:18.426Z</time>
      </trkpt>
      <trkpt lat="47.04877" lon="15.94177">
        <ele>287.018044</ele>
        <time>2022-08-06T22:36:22.683Z</time>
      </trkpt>
      <trkpt lat="47.04878" lon="15.94205">
        <ele>287.144085</ele>
        <time>2022-08-06T22:36:29.385Z</time>
      </trkpt>
      <trkpt lat="47.04874" lon="15.94242">
        <ele>287.307999</ele>
        <time>2022-08-06T22:36:36.743Z</time>
      </trkpt>
      <trkpt lat="47.04853" lon="15.9431">
        <ele>287.632711</ele>
        <time>2022-08-06T22:36:52.252Z</time>
      </trkpt>
      <trkpt lat="47.04837" lon="15.94343">
        <ele>287.495411</ele>
        <time>2022-08-06T22:37:00.195Z</time>
      </trkpt>
      <trkpt lat="47.04832" lon="15.94351">
        <ele>287.399989</ele>
        <time>2022-08-06T22:37:02.231Z</time>
      </trkpt>
      <trkpt lat="47.04823" lon="15.94364">
        <ele>287.225806</ele>
        <time>2022-08-06T22:37:05.415Z</time>
      </trkpt>
      <trkpt lat="47.0482" lon="15.94361">
        <ele>287.17703</ele>
        <time>2022-08-06T22:37:06.333Z</time>
      </trkpt>
      <trkpt lat="47.04816" lon="15.94369">
        <ele>287.085693</ele>
        <time>2022-08-06T22:37:08.360Z</time>
      </trkpt>
      <trkpt lat="47.04814" lon="15.94372">
        <ele>287.051898</ele>
        <time>2022-08-06T22:37:09.139Z</time>
      </trkpt>
      <trkpt lat="47.04807" lon="15.94366">
        <ele>286.939333</ele>
        <time>2022-08-06T22:37:11.318Z</time>
      </trkpt>
      <trkpt lat="47.04749" lon="15.94307">
        <ele>286.004641</ele>
        <time>2022-08-06T22:37:26.797Z</time>
      </trkpt>
      <trkpt lat="47.0472" lon="15.94284">
        <ele>285.562318</ele>
        <time>2022-08-06T22:37:33.583Z</time>
      </trkpt>
      <trkpt lat="47.04716" lon="15.94281">
        <ele>285.505388</ele>
        <time>2022-08-06T22:37:34.434Z</time>
      </trkpt>
      <trkpt lat="47.04686" lon="15.94258">
        <ele>284.827739</ele>
        <time>2022-08-06T22:37:41.106Z</time>
      </trkpt>
      <trkpt lat="47.04682" lon="15.94255">
        <ele>284.721836</ele>
        <time>2022-08-06T22:37:41.940Z</time>
      </trkpt>
      <trkpt lat="47.04676" lon="15.94254">
        <ele>284.581301</ele>
        <time>2022-08-06T22:37:43.040Z</time>
      </trkpt>
      <trkpt lat="47.04646" lon="15.94283">
        <ele>283.690002</ele>
        <time>2022-08-06T22:37:50.147Z</time>
      </trkpt>
      <trkpt lat="47.04645" lon="15.94283">
        <ele>283.678977</ele>
        <time>2022-08-06T22:37:50.229Z</time>
      </trkpt>
      <trkpt lat="47.0461" lon="15.94319">
        <ele>282.625852</ele>
        <time>2022-08-06T22:37:58.860Z</time>
      </trkpt>
      <trkpt lat="47.046" lon="15.94329">
        <ele>282.341674</ele>
        <time>2022-08-06T22:38:01.233Z</time>
      </trkpt>
      <trkpt lat="47.04558" lon="15.94374">
        <ele>281.045578</ele>
        <time>2022-08-06T22:38:12.415Z</time>
      </trkpt>
      <trkpt lat="47.04529" lon="15.9441">
        <ele>280.560242</ele>
        <time>2022-08-06T22:38:20.843Z</time>
      </trkpt>
      <trkpt lat="47.04502" lon="15.94442">
        <ele>280.185228</ele>
        <time>2022-08-06T22:38:28.637Z</time>
      </trkpt>
      <trkpt lat="47.04473" lon="15.94484">
        <ele>279.738154</ele>
        <time>2022-08-06T22:38:38.098Z</time>
      </trkpt>
      <trkpt lat="47.04445" lon="15.94552">
        <ele>279.150781</ele>
        <time>2022-08-06T22:38:50.829Z</time>
      </trkpt>
      <trkpt lat="47.0442" lon="15.94765">
        <ele>278.282285</ele>
        <time>2022-08-06T22:39:27.009Z</time>
      </trkpt>
      <trkpt lat="47.04395" lon="15.94841">
        <ele>277.969118</ele>
        <time>2022-08-06T22:39:41.432Z</time>
      </trkpt>
      <trkpt lat="47.04377" lon="15.94889">
        <ele>277.692569</ele>
        <time>2022-08-06T22:39:50.723Z</time>
      </trkpt>
      <trkpt lat="47.04325" lon="15.94993">
        <ele>277.044888</ele>
        <time>2022-08-06T22:40:11.892Z</time>
      </trkpt>
      <trkpt lat="47.04249" lon="15.95124">
        <ele>275.857543</ele>
        <time>2022-08-06T22:40:38.706Z</time>
      </trkpt>
      <trkpt lat="47.04208" lon="15.95182">
        <ele>275.171844</ele>
        <time>2022-08-06T22:40:51.394Z</time>
      </trkpt>
      <trkpt lat="47.04181" lon="15.9524">
        <ele>274.591266</ele>
        <time>2022-08-06T22:41:02.114Z</time>
      </trkpt>
      <trkpt lat="47.041" lon="15.95361">
        <ele>273.341221</ele>
        <time>2022-08-06T22:41:28.224Z</time>
      </trkpt>
      <trkpt lat="47.04008" lon="15.95532">
        <ele>272.217568</ele>
        <time>2022-08-06T22:42:03.645Z</time>
      </trkpt>
      <trkpt lat="47.03991" lon="15.95563">
        <ele>272.090608</ele>
        <time>2022-08-06T22:42:10.323Z</time>
      </trkpt>
      <trkpt lat="47.03985" lon="15.9557">
        <ele>272.055121</ele>
        <time>2022-08-06T22:42:12.198Z</time>
      </trkpt>
      <trkpt lat="47.03978" lon="15.9558">
        <ele>272.010191</ele>
        <time>2022-08-06T22:42:14.606Z</time>
      </trkpt>
      <trkpt lat="47.03954" lon="15.95596">
        <ele>271.881741</ele>
        <time>2022-08-06T22:42:21.520Z</time>
      </trkpt>
      <trkpt lat="47.03923" lon="15.95605">
        <ele>271.738394</ele>
        <time>2022-08-06T22:42:29.605Z</time>
      </trkpt>
      <trkpt lat="47.03911" lon="15.9563">
        <ele>271.727392</ele>
        <time>2022-08-06T22:42:35.148Z</time>
      </trkpt>
      <trkpt lat="47.03907" lon="15.95749">
        <ele>271.683971</ele>
        <time>2022-08-06T22:42:56.821Z</time>
      </trkpt>
      <trkpt lat="47.03895" lon="15.95792">
        <ele>271.667394</ele>
        <time>2022-08-06T22:43:04.924Z</time>
      </trkpt>
      <trkpt lat="47.03892" lon="15.95798">
        <ele>271.664513</ele>
        <time>2022-08-06T22:43:06.337Z</time>
      </trkpt>
      <trkpt lat="47.03881" lon="15.95813">
        <ele>271.656779</ele>
        <time>2022-08-06T22:43:10.187Z</time>
      </trkpt>
      <trkpt lat="47.03874" lon="15.95823">
        <ele>271.651226</ele>
        <time>2022-08-06T22:43:12.954Z</time>
      </trkpt>
      <trkpt lat="47.03789" lon="15.95934">
        <ele>271.687494</ele>
        <time>2022-08-06T22:43:43.591Z</time>
      </trkpt>
      <trkpt lat="47.03721" lon="15.96077">
        <ele>271.828915</ele>
        <time>2022-08-06T22:44:15.253Z</time>
      </trkpt>
      <trkpt lat="47.03597" lon="15.96035">
        <ele>272.191421</ele>
        <time>2022-08-06T22:44:51.089Z</time>
      </trkpt>
      <trkpt lat="47.03518" lon="15.96022">
        <ele>272.44402</ele>
        <time>2022-08-06T22:45:14.571Z</time>
      </trkpt>
      <trkpt lat="47.03501" lon="15.96021">
        <ele>272.497779</ele>
        <time>2022-08-06T22:45:19.420Z</time>
      </trkpt>
      <trkpt lat="47.03456" lon="15.96019">
        <ele>272.645631</ele>
        <time>2022-08-06T22:45:32.389Z</time>
      </trkpt>
      <trkpt lat="47.03399" lon="15.96015">
        <ele>272.808625</ele>
        <time>2022-08-06T22:45:47.842Z</time>
      </trkpt>
      <trkpt lat="47.03381" lon="15.96013">
        <ele>272.729228</ele>
        <time>2022-08-06T22:45:52.645Z</time>
      </trkpt>
      <trkpt lat="47.03381" lon="15.96017">
        <ele>272.716917</ele>
        <time>2022-08-06T22:45:53.356Z</time>
      </trkpt>
      <trkpt lat="47.03381" lon="15.96025">
        <ele>272.692906</ele>
        <time>2022-08-06T22:45:54.775Z</time>
      </trkpt>
      <trkpt lat="47.03381" lon="15.96029">
        <ele>272.681494</ele>
        <time>2022-08-06T22:45:55.467Z</time>
      </trkpt>
      <trkpt lat="47.03389" lon="15.96084">
        <ele>272.513135</ele>
        <time>2022-08-06T22:46:05.370Z</time>
      </trkpt>
      <trkpt lat="47.03394" lon="15.96114">
        <ele>272.420077</ele>
        <time>2022-08-06T22:46:10.672Z</time>
      </trkpt>
      <trkpt lat="47.03396" lon="15.96128">
        <ele>272.378816</ele>
        <time>2022-08-06T22:46:12.957Z</time>
      </trkpt>
      <trkpt lat="47.03398" lon="15.96146">
        <ele>272.321631</ele>
        <time>2022-08-06T22:46:16.099Z</time>
      </trkpt>
      <trkpt lat="47.03402" lon="15.96176">
        <ele>272.230949</ele>
        <time>2022-08-06T22:46:21.058Z</time>
      </trkpt>
      <trkpt lat="47.03403" lon="15.96184">
        <ele>272.207801</ele>
        <time>2022-08-06T22:46:22.314Z</time>
      </trkpt>
      <trkpt lat="47.03412" lon="15.96243">
        <ele>272.023707</ele>
        <time>2022-08-06T22:46:32.085Z</time>
      </trkpt>
      <trkpt lat="47.03433" lon="15.96325">
        <ele>271.695781</ele>
        <time>2022-08-06T22:46:45.986Z</time>
      </trkpt>
      <trkpt lat="47.03546" lon="15.96577">
        <ele>271.647037</ele>
        <time>2022-08-06T22:47:37.468Z</time>
      </trkpt>
      <trkpt lat="47.03593" lon="15.96661">
        <ele>272.168171</ele>
        <time>2022-08-06T22:48:01.015Z</time>
      </trkpt>
      <trkpt lat="47.03635" lon="15.96708">
        <ele>273.660966</ele>
        <time>2022-08-06T22:48:21.100Z</time>
      </trkpt>
      <trkpt lat="47.03734" lon="15.9689">
        <ele>279.846883</ele>
        <time>2022-08-06T22:49:38.375Z</time>
      </trkpt>
      <trkpt lat="47.03741" lon="15.96908">
        <ele>280.244316</ele>
        <time>2022-08-06T22:49:46.352Z</time>
      </trkpt>
      <trkpt lat="47.03759" lon="15.97061">
        <ele>283.230364</ele>
        <time>2022-08-06T22:50:36.993Z</time>
      </trkpt>
      <trkpt lat="47.0381" lon="15.97119">
        <ele>284.074171</ele>
        <time>2022-08-06T22:50:51.734Z</time>
      </trkpt>
      <trkpt lat="47.03842" lon="15.97177">
        <ele>282.595766</ele>
        <time>2022-08-06T22:51:02.516Z</time>
      </trkpt>
      <trkpt lat="47.03876" lon="15.97194">
        <ele>281.558362</ele>
        <time>2022-08-06T22:51:09.597Z</time>
      </trkpt>
      <trkpt lat="47.03882" lon="15.97197">
        <ele>281.383732</ele>
        <time>2022-08-06T22:51:10.737Z</time>
      </trkpt>
      <trkpt lat="47.03885" lon="15.97199">
        <ele>281.275985</ele>
        <time>2022-08-06T22:51:11.419Z</time>
      </trkpt>
      <trkpt lat="47.03842" lon="15.97383">
        <ele>277.839721</ele>
        <time>2022-08-06T22:51:35.928Z</time>
      </trkpt>
      <trkpt lat="47.03735" lon="15.97792">
        <ele>273.049104</ele>
        <time>2022-08-06T22:52:45.675Z</time>
      </trkpt>
      <trkpt lat="47.03733" lon="15.97814">
        <ele>272.659133</ele>
        <time>2022-08-06T22:52:48.570Z</time>
      </trkpt>
      <trkpt lat="47.03783" lon="15.97871">
        <ele>270.98514</ele>
        <time>2022-08-06T22:53:01.035Z</time>
      </trkpt>
      <trkpt lat="47.03781" lon="15.9794">
        <ele>269.753568</ele>
        <time>2022-08-06T22:53:10.230Z</time>
      </trkpt>
      <trkpt lat="47.0378" lon="15.97956">
        <ele>269.466265</ele>
        <time>2022-08-06T22:53:12.375Z</time>
      </trkpt>
      <trkpt lat="47.03759" lon="15.98107">
        <ele>267.845317</ele>
        <time>2022-08-06T22:53:33.927Z</time>
      </trkpt>
      <trkpt lat="47.03751" lon="15.98136">
        <ele>267.650236</ele>
        <time>2022-08-06T22:53:39.071Z</time>
      </trkpt>
      <trkpt lat="47.03729" lon="15.98174">
        <ele>267.339885</ele>
        <time>2022-08-06T22:53:48.454Z</time>
      </trkpt>
      <trkpt lat="47.03728" lon="15.98248">
        <ele>266.878506</ele>
        <time>2022-08-06T22:54:02.612Z</time>
      </trkpt>
      <trkpt lat="47.03708" lon="15.98343">
        <ele>267.691164</ele>
        <time>2022-08-06T22:54:21.282Z</time>
      </trkpt>
      <trkpt lat="47.03701" lon="15.98392">
        <ele>268.192877</ele>
        <time>2022-08-06T22:54:31.333Z</time>
      </trkpt>
      <trkpt lat="47.03672" lon="15.98421">
        <ele>268.703526</ele>
        <time>2022-08-06T22:54:42.545Z</time>
      </trkpt>
      <trkpt lat="47.03664" lon="15.98429">
        <ele>268.851655</ele>
        <time>2022-08-06T22:54:46.131Z</time>
      </trkpt>
      <trkpt lat="47.03661" lon="15.9843">
        <ele>268.900943</ele>
        <time>2022-08-06T22:54:47.412Z</time>
      </trkpt>
      <trkpt lat="47.03642" lon="15.98433">
        <ele>269.171523</ele>
        <time>2022-08-06T22:54:55.157Z</time>
      </trkpt>
      <trkpt lat="47.03583" lon="15.98421">
        <ele>270.923946</ele>
        <time>2022-08-06T22:55:23.166Z</time>
      </trkpt>
      <trkpt lat="47.03525" lon="15.98413">
        <ele>273.034263</ele>
        <time>2022-08-06T22:55:50.642Z</time>
      </trkpt>
      <trkpt lat="47.03508" lon="15.98407">
        <ele>273.655752</ele>
        <time>2022-08-06T22:55:59.578Z</time>
      </trkpt>
      <trkpt lat="47.03459" lon="15.98401">
        <ele>275.438686</ele>
        <time>2022-08-06T22:56:21.481Z</time>
      </trkpt>
      <trkpt lat="47.0345" lon="15.98485">
        <ele>275.376573</ele>
        <time>2022-08-06T22:56:42.357Z</time>
      </trkpt>
      <trkpt lat="47.03449" lon="15.98503">
        <ele>275.215419</ele>
        <time>2022-08-06T22:56:46.865Z</time>
      </trkpt>
      <trkpt lat="47.03419" lon="15.98545">
        <ele>274.701689</ele>
        <time>2022-08-06T22:56:57.185Z</time>
      </trkpt>
      <trkpt lat="47.03413" lon="15.98572">
        <ele>274.452385</ele>
        <time>2022-08-06T22:57:00.898Z</time>
      </trkpt>
      <trkpt lat="47.03394" lon="15.98603">
        <ele>274.090337</ele>
        <time>2022-08-06T22:57:06.457Z</time>
      </trkpt>
      <trkpt lat="47.03353" lon="15.98705">
        <ele>271.988655</ele>
        <time>2022-08-06T22:57:21.066Z</time>
      </trkpt>
      <trkpt lat="47.03336" lon="15.98794">
        <ele>269.689746</ele>
        <time>2022-08-06T22:57:33.434Z</time>
      </trkpt>
      <trkpt lat="47.03333" lon="15.98828">
        <ele>268.834418</ele>
        <time>2022-08-06T22:57:38.159Z</time>
      </trkpt>
      <trkpt lat="47.03334" lon="15.98857">
        <ele>268.116031</ele>
        <time>2022-08-06T22:57:42.200Z</time>
      </trkpt>
      <trkpt lat="47.0336" lon="15.99004">
        <ele>267.36913</ele>
        <time>2022-08-06T22:58:06.219Z</time>
      </trkpt>
      <trkpt lat="47.03357" lon="15.99081">
        <ele>267.527559</ele>
        <time>2022-08-06T22:58:22.405Z</time>
      </trkpt>
      <trkpt lat="47.03345" lon="15.99124">
        <ele>267.624849</ele>
        <time>2022-08-06T22:58:34.133Z</time>
      </trkpt>
      <trkpt lat="47.03308" lon="15.99212">
        <ele>269.246807</ele>
        <time>2022-08-06T22:59:04.740Z</time>
      </trkpt>
      <trkpt lat="47.0325" lon="15.99399">
        <ele>273.150138</ele>
        <time>2022-08-06T23:00:07.495Z</time>
      </trkpt>
      <trkpt lat="47.03233" lon="15.99436">
        <ele>272.99068</ele>
        <time>2022-08-06T23:00:18.696Z</time>
      </trkpt>
      <trkpt lat="47.03189" lon="15.99494">
        <ele>272.687635</ele>
        <time>2022-08-06T23:00:34.583Z</time>
      </trkpt>
      <trkpt lat="47.03181" lon="15.99573">
        <ele>272.408342</ele>
        <time>2022-08-06T23:00:46.506Z</time>
      </trkpt>
      <trkpt lat="47.03156" lon="15.99617">
        <ele>271.859038</ele>
        <time>2022-08-06T23:00:54.433Z</time>
      </trkpt>
      <trkpt lat="47.03114" lon="15.99666">
        <ele>270.248851</ele>
        <time>2022-08-06T23:01:05.066Z</time>
      </trkpt>
      <trkpt lat="47.02975" lon="15.99808">
        <ele>265.837761</ele>
        <time>2022-08-06T23:01:40.830Z</time>
      </trkpt>
      <trkpt lat="47.02916" lon="15.99892">
        <ele>264.327252</ele>
        <time>2022-08-06T23:01:59.839Z</time>
      </trkpt>
      <trkpt lat="47.02912" lon="15.99905">
        <ele>264.143204</ele>
        <time>2022-08-06T23:02:01.961Z</time>
      </trkpt>
      <trkpt lat="47.02936" lon="15.99948">
        <ele>263.52307</ele>
        <time>2022-08-06T23:02:10.500Z</time>
      </trkpt>
      <trkpt lat="47.02899" lon="15.99988">
        <ele>263.167305</ele>
        <time>2022-08-06T23:02:21.092Z</time>
      </trkpt>
      <trkpt lat="47.02866" lon="15.9997">
        <ele>262.895019</ele>
        <time>2022-08-06T23:02:29.248Z</time>
      </trkpt>
      <trkpt lat="47.02848" lon="15.99974">
        <ele>262.753456</ele>
        <time>2022-08-06T23:02:33.625Z</time>
      </trkpt>
      <trkpt lat="47.02831" lon="15.99988">
        <ele>262.602835</ele>
        <time>2022-08-06T23:02:38.152Z</time>
      </trkpt>
      <trkpt lat="47.02776" lon="16.00042">
        <ele>262.166869</ele>
        <time>2022-08-06T23:02:54.901Z</time>
      </trkpt>
      <trkpt lat="47.02665" lon="16.00187">
        <ele>261.905893</ele>
        <time>2022-08-06T23:03:33.985Z</time>
      </trkpt>
      <trkpt lat="47.02609" lon="16.00242">
        <ele>261.719002</ele>
        <time>2022-08-06T23:03:51.336Z</time>
      </trkpt>
      <trkpt lat="47.02598" lon="16.00274">
        <ele>261.641503</ele>
        <time>2022-08-06T23:03:57.526Z</time>
      </trkpt>
      <trkpt lat="47.02599" lon="16.00391">
        <ele>261.388097</ele>
        <time>2022-08-06T23:04:17.257Z</time>
      </trkpt>
      <trkpt lat="47.02561" lon="16.0049">
        <ele>261.21226</ele>
        <time>2022-08-06T23:04:36.627Z</time>
      </trkpt>
      <trkpt lat="47.0254" lon="16.00537">
        <ele>261.146442</ele>
        <time>2022-08-06T23:04:46.234Z</time>
      </trkpt>
      <trkpt lat="47.02517" lon="16.00572">
        <ele>261.08869</ele>
        <time>2022-08-06T23:04:54.794Z</time>
      </trkpt>
      <trkpt lat="47.02502" lon="16.00546">
        <ele>261.047947</ele>
        <time>2022-08-06T23:05:01.106Z</time>
      </trkpt>
      <trkpt lat="47.02452" lon="16.00464">
        <ele>261.208413</ele>
        <time>2022-08-06T23:05:21.751Z</time>
      </trkpt>
      <trkpt lat="47.02436" lon="16.00445">
        <ele>261.328646</ele>
        <time>2022-08-06T23:05:27.953Z</time>
      </trkpt>
      <trkpt lat="47.02425" lon="16.00432">
        <ele>261.404673</ele>
        <time>2022-08-06T23:05:31.847Z</time>
      </trkpt>
      <trkpt lat="47.02406" lon="16.00417">
        <ele>261.528859</ele>
        <time>2022-08-06T23:05:38.398Z</time>
      </trkpt>
      <trkpt lat="47.02372" lon="16.00397">
        <ele>261.735522</ele>
        <time>2022-08-06T23:05:49.362Z</time>
      </trkpt>
      <trkpt lat="47.02355" lon="16.00396">
        <ele>261.833115</ele>
        <time>2022-08-06T23:05:54.487Z</time>
      </trkpt>
      <trkpt lat="47.02302" lon="16.00412">
        <ele>262.186764</ele>
        <time>2022-08-06T23:06:11.071Z</time>
      </trkpt>
      <trkpt lat="47.02259" lon="16.00407">
        <ele>262.517952</ele>
        <time>2022-08-06T23:06:24.591Z</time>
      </trkpt>
      <trkpt lat="47.02239" lon="16.00396">
        <ele>262.688494</ele>
        <time>2022-08-06T23:06:31.526Z</time>
      </trkpt>
      <trkpt lat="47.02201" lon="16.00394">
        <ele>262.977853</ele>
        <time>2022-08-06T23:06:42.851Z</time>
      </trkpt>
      <trkpt lat="47.02175" lon="16.00401">
        <ele>263.18543</ele>
        <time>2022-08-06T23:06:50.633Z</time>
      </trkpt>
      <trkpt lat="47.0214" lon="16.0041">
        <ele>263.392731</ele>
        <time>2022-08-06T23:07:01.106Z</time>
      </trkpt>
      <trkpt lat="47.02132" lon="16.00412">
        <ele>263.389882</ele>
        <time>2022-08-06T23:07:03.354Z</time>
      </trkpt>
      <trkpt lat="47.0209" lon="16.00424">
        <ele>263.373969</ele>
        <time>2022-08-06T23:07:16.113Z</time>
      </trkpt>
      <trkpt lat="47.02049" lon="16.00447">
        <ele>263.357515</ele>
        <time>2022-08-06T23:07:28.821Z</time>
      </trkpt>
      <trkpt lat="47.02043" lon="16.00451">
        <ele>263.355077</ele>
        <time>2022-08-06T23:07:30.295Z</time>
      </trkpt>
      <trkpt lat="47.01956" lon="16.00513">
        <ele>263.102669</ele>
        <time>2022-08-06T23:07:53.340Z</time>
      </trkpt>
      <trkpt lat="47.01943" lon="16.00527">
        <ele>262.958287</ele>
        <time>2022-08-06T23:07:57.060Z</time>
      </trkpt>
      <trkpt lat="47.01928" lon="16.00555">
        <ele>262.750045</ele>
        <time>2022-08-06T23:08:02.860Z</time>
      </trkpt>
      <trkpt lat="47.01921" lon="16.00588">
        <ele>262.550703</ele>
        <time>2022-08-06T23:08:08.108Z</time>
      </trkpt>
      <trkpt lat="47.01926" lon="16.00636">
        <ele>262.266343</ele>
        <time>2022-08-06T23:08:16.047Z</time>
      </trkpt>
      <trkpt lat="47.01921" lon="16.00678">
        <ele>262.016732</ele>
        <time>2022-08-06T23:08:22.943Z</time>
      </trkpt>
      <trkpt lat="47.01871" lon="16.00771">
        <ele>261.645552</ele>
        <time>2022-08-06T23:08:41.919Z</time>
      </trkpt>
      <trkpt lat="47.01852" lon="16.00811">
        <ele>261.560057</ele>
        <time>2022-08-06T23:08:50.679Z</time>
      </trkpt>
      <trkpt lat="47.01815" lon="16.00906">
        <ele>261.366689</ele>
        <time>2022-08-06T23:09:10.897Z</time>
      </trkpt>
      <trkpt lat="47.01787" lon="16.0098">
        <ele>261.346983</ele>
        <time>2022-08-06T23:09:26.331Z</time>
      </trkpt>
      <trkpt lat="47.01764" lon="16.01012">
        <ele>261.369274</ele>
        <time>2022-08-06T23:09:34.842Z</time>
      </trkpt>
      <trkpt lat="47.01796" lon="16.01123">
        <ele>261.427103</ele>
        <time>2022-08-06T23:09:56.968Z</time>
      </trkpt>
      <trkpt lat="47.01815" lon="16.01165">
        <ele>261.50946</ele>
        <time>2022-08-06T23:10:06.308Z</time>
      </trkpt>
      <trkpt lat="47.01901" lon="16.01292">
        <ele>262.505578</ele>
        <time>2022-08-06T23:10:40.249Z</time>
      </trkpt>
      <trkpt lat="47.0202" lon="16.01449">
        <ele>265.751574</ele>
        <time>2022-08-06T23:11:40.487Z</time>
      </trkpt>
      <trkpt lat="47.0201" lon="16.01453">
        <ele>266.013706</ele>
        <time>2022-08-06T23:11:45.583Z</time>
      </trkpt>
      <trkpt lat="47.01961" lon="16.01438">
        <ele>267.304587</ele>
        <time>2022-08-06T23:12:05.394Z</time>
      </trkpt>
      <trkpt lat="47.01949" lon="16.01443">
        <ele>267.619813</ele>
        <time>2022-08-06T23:12:11.475Z</time>
      </trkpt>
      <trkpt lat="47.01939" lon="16.01464">
        <ele>267.985824</ele>
        <time>2022-08-06T23:12:18.886Z</time>
      </trkpt>
      <trkpt lat="47.01938" lon="16.01497">
        <ele>268.457452</ele>
        <time>2022-08-06T23:12:28.676Z</time>
      </trkpt>
      <trkpt lat="47.01969" lon="16.0177">
        <ele>270.734272</ele>
        <time>2022-08-06T23:13:34.580Z</time>
      </trkpt>
      <trkpt lat="47.01974" lon="16.01844">
        <ele>270.175385</ele>
        <time>2022-08-06T23:13:46.151Z</time>
      </trkpt>
      <trkpt lat="47.01952" lon="16.01947">
        <ele>269.362324</ele>
        <time>2022-08-06T23:14:01.028Z</time>
      </trkpt>
      <trkpt lat="47.01928" lon="16.0214">
        <ele>264.299834</ele>
        <time>2022-08-06T23:14:25.885Z</time>
      </trkpt>
      <trkpt lat="47.01918" lon="16.02172">
        <ele>263.378734</ele>
        <time>2022-08-06T23:14:30.263Z</time>
      </trkpt>
      <trkpt lat="47.01866" lon="16.02231">
        <ele>261.862607</ele>
        <time>2022-08-06T23:14:43.129Z</time>
      </trkpt>
      <trkpt lat="47.01821" lon="16.02301">
        <ele>261.015807</ele>
        <time>2022-08-06T23:14:57.176Z</time>
      </trkpt>
      <trkpt lat="47.01798" lon="16.02339">
        <ele>260.567249</ele>
        <time>2022-08-06T23:15:06.320Z</time>
      </trkpt>
      <trkpt lat="47.01784" lon="16.02376">
        <ele>260.190122</ele>
        <time>2022-08-06T23:15:15.017Z</time>
      </trkpt>
      <trkpt lat="47.01752" lon="16.0247">
        <ele>260.223502</ele>
        <time>2022-08-06T23:15:36.818Z</time>
      </trkpt>
      <trkpt lat="47.01748" lon="16.02502">
        <ele>260.285527</ele>
        <time>2022-08-06T23:15:43.827Z</time>
      </trkpt>
      <trkpt lat="47.01765" lon="16.03019">
        <ele>260.257208</ele>
        <time>2022-08-06T23:17:16.168Z</time>
      </trkpt>
      <trkpt lat="47.01761" lon="16.03039">
        <ele>260.247678</ele>
        <time>2022-08-06T23:17:19.718Z</time>
      </trkpt>
      <trkpt lat="47.017" lon="16.03123">
        <ele>260.190912</ele>
        <time>2022-08-06T23:17:41.618Z</time>
      </trkpt>
      <trkpt lat="47.01655" lon="16.03153">
        <ele>260.148372</ele>
        <time>2022-08-06T23:17:55.544Z</time>
      </trkpt>
      <trkpt lat="47.01607" lon="16.03164">
        <ele>260.104559</ele>
        <time>2022-08-06T23:18:09.494Z</time>
      </trkpt>
      <trkpt lat="47.01552" lon="16.03162">
        <ele>260.055723</ele>
        <time>2022-08-06T23:18:23.779Z</time>
      </trkpt>
      <trkpt lat="47.01484" lon="16.03168">
        <ele>259.599004</ele>
        <time>2022-08-06T23:18:40.399Z</time>
      </trkpt>
      <trkpt lat="47.01531" lon="16.03272">
        <ele>258.581829</ele>
        <time>2022-08-06T23:18:59.929Z</time>
      </trkpt>
      <trkpt lat="47.0154" lon="16.03306">
        <ele>258.291043</ele>
        <time>2022-08-06T23:19:05.301Z</time>
      </trkpt>
      <trkpt lat="47.01553" lon="16.03366">
        <ele>257.778642</ele>
        <time>2022-08-06T23:19:14.521Z</time>
      </trkpt>
      <trkpt lat="47.01561" lon="16.03402">
        <ele>257.474997</ele>
        <time>2022-08-06T23:19:19.929Z</time>
      </trkpt>
      <trkpt lat="47.01572" lon="16.03563">
        <ele>256.168033</ele>
        <time>2022-08-06T23:19:44.910Z</time>
      </trkpt>
      <trkpt lat="47.01574" lon="16.03688">
        <ele>255.605788</ele>
        <time>2022-08-06T23:20:05.862Z</time>
      </trkpt>
      <trkpt lat="47.01572" lon="16.03744">
        <ele>255.488258</ele>
        <time>2022-08-06T23:20:15.322Z</time>
      </trkpt>
      <trkpt lat="47.01564" lon="16.0392">
        <ele>255.523328</ele>
        <time>2022-08-06T23:20:46.979Z</time>
      </trkpt>
      <trkpt lat="47.01565" lon="16.0398">
        <ele>255.950055</ele>
        <time>2022-08-06T23:20:58.223Z</time>
      </trkpt>
      <trkpt lat="47.01599" lon="16.04247">
        <ele>258.924945</ele>
        <time>2022-08-06T23:22:03.032Z</time>
      </trkpt>
      <trkpt lat="47.01603" lon="16.0434">
        <ele>260.456738</ele>
        <time>2022-08-06T23:22:32.406Z</time>
      </trkpt>
      <trkpt lat="47.01599" lon="16.04395">
        <ele>261.361369</ele>
        <time>2022-08-06T23:22:46.479Z</time>
      </trkpt>
      <trkpt lat="47.01599" lon="16.04411">
        <ele>261.365553</ele>
        <time>2022-08-06T23:22:50.699Z</time>
      </trkpt>
      <trkpt lat="47.016" lon="16.04422">
        <ele>261.315701</ele>
        <time>2022-08-06T23:22:53.620Z</time>
      </trkpt>
      <trkpt lat="47.01621" lon="16.04509">
        <ele>260.895681</ele>
        <time>2022-08-06T23:23:09.918Z</time>
      </trkpt>
      <trkpt lat="47.01636" lon="16.04573">
        <ele>260.587354</ele>
        <time>2022-08-06T23:23:21.674Z</time>
      </trkpt>
      <trkpt lat="47.01635" lon="16.04587">
        <ele>260.521538</ele>
        <time>2022-08-06T23:23:23.595Z</time>
      </trkpt>
      <trkpt lat="47.01648" lon="16.04602">
        <ele>260.408092</ele>
        <time>2022-08-06T23:23:27.362Z</time>
      </trkpt>
      <trkpt lat="47.01683" lon="16.04704">
        <ele>258.817545</ele>
        <time>2022-08-06T23:23:42.031Z</time>
      </trkpt>
      <trkpt lat="47.01779" lon="16.04973">
        <ele>254.053189</ele>
        <time>2022-08-06T23:24:24.053Z</time>
      </trkpt>
      <trkpt lat="47.018" lon="16.0503">
        <ele>253.446417</ele>
        <time>2022-08-06T23:24:34.534Z</time>
      </trkpt>
      <trkpt lat="47.0182" lon="16.0508">
        <ele>252.90633</ele>
        <time>2022-08-06T23:24:44.216Z</time>
      </trkpt>
      <trkpt lat="47.01834" lon="16.05103">
        <ele>252.645289</ele>
        <time>2022-08-06T23:24:49.606Z</time>
      </trkpt>
      <trkpt lat="47.01837" lon="16.05107">
        <ele>252.661815</ele>
        <time>2022-08-06T23:24:50.649Z</time>
      </trkpt>
      <trkpt lat="47.01853" lon="16.05124">
        <ele>252.745286</ele>
        <time>2022-08-06T23:24:55.858Z</time>
      </trkpt>
      <trkpt lat="47.01856" lon="16.05127">
        <ele>252.757764</ele>
        <time>2022-08-06T23:24:56.645Z</time>
      </trkpt>
      <trkpt lat="47.01907" lon="16.05168">
        <ele>253.002094</ele>
        <time>2022-08-06T23:25:12.859Z</time>
      </trkpt>
      <trkpt lat="47.01913" lon="16.05173">
        <ele>253.032327</ele>
        <time>2022-08-06T23:25:14.839Z</time>
      </trkpt>
      <trkpt lat="47.01998" lon="16.05243">
        <ele>253.537482</ele>
        <time>2022-08-06T23:25:44.493Z</time>
      </trkpt>
      <trkpt lat="47.02039" lon="16.05277">
        <ele>254.158431</ele>
        <time>2022-08-06T23:26:00.100Z</time>
      </trkpt>
      <trkpt lat="47.02065" lon="16.0523">
        <ele>254.709645</ele>
        <time>2022-08-06T23:26:13.823Z</time>
      </trkpt>
      <trkpt lat="47.02068" lon="16.05232">
        <ele>254.748152</ele>
        <time>2022-08-06T23:26:14.784Z</time>
      </trkpt>
      <trkpt lat="47.02087" lon="16.05251">
        <ele>255.049194</ele>
        <time>2022-08-06T23:26:22.453Z</time>
      </trkpt>
      <trkpt lat="47.02103" lon="16.0528">
        <ele>255.388763</ele>
        <time>2022-08-06T23:26:31.108Z</time>
      </trkpt>
      <trkpt lat="47.02132" lon="16.05304">
        <ele>255.814844</ele>
        <time>2022-08-06T23:26:42.496Z</time>
      </trkpt>
      <trkpt lat="47.02138" lon="16.05306">
        <ele>255.876574</ele>
        <time>2022-08-06T23:26:44.454Z</time>
      </trkpt>
      <trkpt lat="47.02154" lon="16.05312">
        <ele>256.062983</ele>
        <time>2022-08-06T23:26:50.511Z</time>
      </trkpt>
      <trkpt lat="47.02171" lon="16.05317">
        <ele>256.240009</ele>
        <time>2022-08-06T23:26:56.252Z</time>
      </trkpt>
      <trkpt lat="47.02189" lon="16.0532">
        <ele>256.435105</ele>
        <time>2022-08-06T23:27:02.377Z</time>
      </trkpt>
      <trkpt lat="47.02209" lon="16.05324">
        <ele>256.647376</ele>
        <time>2022-08-06T23:27:08.954Z</time>
      </trkpt>
      <trkpt lat="47.02223" lon="16.05326">
        <ele>256.795348</ele>
        <time>2022-08-06T23:27:13.325Z</time>
      </trkpt>
      <trkpt lat="47.0224" lon="16.05329">
        <ele>256.979785</ele>
        <time>2022-08-06T23:27:18.604Z</time>
      </trkpt>
      <trkpt lat="47.02295" lon="16.05339">
        <ele>257.57696</ele>
        <time>2022-08-06T23:27:35.273Z</time>
      </trkpt>
      <trkpt lat="47.02305" lon="16.05346">
        <ele>257.683944</ele>
        <time>2022-08-06T23:27:38.137Z</time>
      </trkpt>
      <trkpt lat="47.02309" lon="16.0536">
        <ele>257.730106</ele>
        <time>2022-08-06T23:27:41.263Z</time>
      </trkpt>
      <trkpt lat="47.02293" lon="16.05412">
        <ele>257.907656</ele>
        <time>2022-08-06T23:27:52.689Z</time>
      </trkpt>
      <trkpt lat="47.0229" lon="16.05435">
        <ele>257.981612</ele>
        <time>2022-08-06T23:27:57.401Z</time>
      </trkpt>
      <trkpt lat="47.02289" lon="16.05443">
        <ele>258.008055</ele>
        <time>2022-08-06T23:27:59.046Z</time>
      </trkpt>
      <trkpt lat="47.02298" lon="16.05474">
        <ele>258.113413</ele>
        <time>2022-08-06T23:28:06.092Z</time>
      </trkpt>
      <trkpt lat="47.02302" lon="16.05499">
        <ele>258.194675</ele>
        <time>2022-08-06T23:28:11.270Z</time>
      </trkpt>
      <trkpt lat="47.02309" lon="16.0553">
        <ele>258.295232</ele>
        <time>2022-08-06T23:28:17.644Z</time>
      </trkpt>
      <trkpt lat="47.02313" lon="16.05546">
        <ele>258.34792</ele>
        <time>2022-08-06T23:28:20.821Z</time>
      </trkpt>
      <trkpt lat="47.02315" lon="16.05555">
        <ele>258.377421</ele>
        <time>2022-08-06T23:28:22.759Z</time>
      </trkpt>
      <trkpt lat="47.02324" lon="16.05578">
        <ele>258.460196</ele>
        <time>2022-08-06T23:28:27.530Z</time>
      </trkpt>
      <trkpt lat="47.02334" lon="16.05594">
        <ele>258.54161</ele>
        <time>2022-08-06T23:28:31.420Z</time>
      </trkpt>
      <trkpt lat="47.02347" lon="16.05615">
        <ele>258.682852</ele>
        <time>2022-08-06T23:28:36.527Z</time>
      </trkpt>
      <trkpt lat="47.0235" lon="16.05619">
        <ele>258.714738</ele>
        <time>2022-08-06T23:28:37.723Z</time>
      </trkpt>
      <trkpt lat="47.02352" lon="16.05622">
        <ele>258.734884</ele>
        <time>2022-08-06T23:28:38.508Z</time>
      </trkpt>
      <trkpt lat="47.02359" lon="16.05633">
        <ele>258.808295</ele>
        <time>2022-08-06T23:28:41.317Z</time>
      </trkpt>
      <trkpt lat="47.0238" lon="16.05671">
        <ele>259.055173</ele>
        <time>2022-08-06T23:28:51.047Z</time>
      </trkpt>
      <trkpt lat="47.02393" lon="16.0573">
        <ele>259.366181</ele>
        <time>2022-08-06T23:29:04.373Z</time>
      </trkpt>
      <trkpt lat="47.02405" lon="16.05789">
        <ele>259.673463</ele>
        <time>2022-08-06T23:29:17.795Z</time>
      </trkpt>
      <trkpt lat="47.02411" lon="16.0582">
        <ele>259.837198</ele>
        <time>2022-08-06T23:29:24.976Z</time>
      </trkpt>
      <trkpt lat="47.02415" lon="16.05852">
        <ele>260.018144</ele>
        <time>2022-08-06T23:29:32.093Z</time>
      </trkpt>
      <trkpt lat="47.02418" lon="16.0587">
        <ele>260.118763</ele>
        <time>2022-08-06T23:29:36.046Z</time>
      </trkpt>
      <trkpt lat="47.02429" lon="16.05877">
        <ele>260.21711</ele>
        <time>2022-08-06T23:29:39.885Z</time>
      </trkpt>
      <trkpt lat="47.02441" lon="16.05885">
        <ele>260.326137</ele>
        <time>2022-08-06T23:29:44.083Z</time>
      </trkpt>
      <trkpt lat="47.02452" lon="16.05909">
        <ele>260.483604</ele>
        <time>2022-08-06T23:29:50.239Z</time>
      </trkpt>
      <trkpt lat="47.02458" lon="16.05946">
        <ele>260.693153</ele>
        <time>2022-08-06T23:29:57.956Z</time>
      </trkpt>
      <trkpt lat="47.02477" lon="16.05991">
        <ele>260.984744</ele>
        <time>2022-08-06T23:30:08.812Z</time>
      </trkpt>
      <trkpt lat="47.02493" lon="16.06023">
        <ele>261.207359</ele>
        <time>2022-08-06T23:30:17.145Z</time>
      </trkpt>
      <trkpt lat="47.0253" lon="16.06094">
        <ele>261.221022</ele>
        <time>2022-08-06T23:30:34.398Z</time>
      </trkpt>
      <trkpt lat="47.02518" lon="16.06188">
        <ele>261.143006</ele>
        <time>2022-08-06T23:30:51.267Z</time>
      </trkpt>
      <trkpt lat="47.02524" lon="16.06228">
        <ele>261.109248</ele>
        <time>2022-08-06T23:30:58.370Z</time>
      </trkpt>
      <trkpt lat="47.02521" lon="16.06347">
        <ele>260.893344</ele>
        <time>2022-08-06T23:31:17.935Z</time>
      </trkpt>
      <trkpt lat="47.02517" lon="16.06376">
        <ele>260.817238</ele>
        <time>2022-08-06T23:31:22.838Z</time>
      </trkpt>
      <trkpt lat="47.02519" lon="16.06437">
        <ele>260.660258</ele>
        <time>2022-08-06T23:31:33.175Z</time>
      </trkpt>
      <trkpt lat="47.02529" lon="16.06531">
        <ele>260.413522</ele>
        <time>2022-08-06T23:31:49.732Z</time>
      </trkpt>
      <trkpt lat="47.02558" lon="16.06668">
        <ele>260.719176</ele>
        <time>2022-08-06T23:32:16.066Z</time>
      </trkpt>
      <trkpt lat="47.02576" lon="16.06777">
        <ele>260.999928</ele>
        <time>2022-08-06T23:32:39.568Z</time>
      </trkpt>
      <trkpt lat="47.026" lon="16.06892">
        <ele>261.186779</ele>
        <time>2022-08-06T23:33:03.571Z</time>
      </trkpt>
      <trkpt lat="47.02613" lon="16.06926">
        <ele>261.240395</ele>
        <time>2022-08-06T23:33:11.187Z</time>
      </trkpt>
      <trkpt lat="47.02659" lon="16.06996">
        <ele>261.374869</ele>
        <time>2022-08-06T23:33:29.259Z</time>
      </trkpt>
      <trkpt lat="47.02716" lon="16.07072">
        <ele>260.961411</ele>
        <time>2022-08-06T23:33:48.203Z</time>
      </trkpt>
      <trkpt lat="47.0277" lon="16.07128">
        <ele>260.458661</ele>
        <time>2022-08-06T23:34:02.846Z</time>
      </trkpt>
      <trkpt lat="47.02828" lon="16.07338">
        <ele>259.7215</ele>
        <time>2022-08-06T23:34:41.003Z</time>
      </trkpt>
      <trkpt lat="47.02831" lon="16.07349">
        <ele>259.69583</ele>
        <time>2022-08-06T23:34:43.061Z</time>
      </trkpt>
      <trkpt lat="47.02833" lon="16.07357">
        <ele>259.676074</ele>
        <time>2022-08-06T23:34:44.642Z</time>
      </trkpt>
      <trkpt lat="47.02865" lon="16.07479">
        <ele>259.286761</ele>
        <time>2022-08-06T23:35:08.477Z</time>
      </trkpt>
      <trkpt lat="47.02862" lon="16.07482">
        <ele>259.259092</ele>
        <time>2022-08-06T23:35:09.401Z</time>
      </trkpt>
      <trkpt lat="47.02844" lon="16.07493">
        <ele>259.113526</ele>
        <time>2022-08-06T23:35:14.416Z</time>
      </trkpt>
      <trkpt lat="47.02834" lon="16.07516">
        <ele>258.977322</ele>
        <time>2022-08-06T23:35:19.141Z</time>
      </trkpt>
      <trkpt lat="47.02828" lon="16.07577">
        <ele>258.665759</ele>
        <time>2022-08-06T23:35:29.276Z</time>
      </trkpt>
      <trkpt lat="47.02819" lon="16.07619">
        <ele>258.447568</ele>
        <time>2022-08-06T23:35:36.173Z</time>
      </trkpt>
      <trkpt lat="47.02801" lon="16.07658">
        <ele>258.208642</ele>
        <time>2022-08-06T23:35:43.428Z</time>
      </trkpt>
      <trkpt lat="47.02759" lon="16.07686">
        <ele>257.657639</ele>
        <time>2022-08-06T23:35:53.287Z</time>
      </trkpt>
      <trkpt lat="47.02748" lon="16.0769">
        <ele>257.506946</ele>
        <time>2022-08-06T23:35:55.683Z</time>
      </trkpt>
      <trkpt lat="47.0274" lon="16.07673">
        <ele>257.318371</ele>
        <time>2022-08-06T23:35:58.968Z</time>
      </trkpt>
      <trkpt lat="47.02732" lon="16.07672">
        <ele>257.201348</ele>
        <time>2022-08-06T23:36:00.826Z</time>
      </trkpt>
      <trkpt lat="47.02723" lon="16.07674">
        <ele>257.086742</ele>
        <time>2022-08-06T23:36:02.642Z</time>
      </trkpt>
      <trkpt lat="47.02736" lon="16.07748">
        <ele>256.388699</ele>
        <time>2022-08-06T23:36:14.439Z</time>
      </trkpt>
      <trkpt lat="47.02761" lon="16.0785">
        <ele>255.568297</ele>
        <time>2022-08-06T23:36:30.972Z</time>
      </trkpt>
      <trkpt lat="47.02759" lon="16.07867">
        <ele>255.488216</ele>
        <time>2022-08-06T23:36:33.772Z</time>
      </trkpt>
      <trkpt lat="47.0271" lon="16.08002">
        <ele>254.808923</ele>
        <time>2022-08-06T23:36:59.139Z</time>
      </trkpt>
      <trkpt lat="47.02688" lon="16.081">
        <ele>254.657839</ele>
        <time>2022-08-06T23:37:16.969Z</time>
      </trkpt>
      <trkpt lat="47.02686" lon="16.08137">
        <ele>254.750298</ele>
        <time>2022-08-06T23:37:23.832Z</time>
      </trkpt>
      <trkpt lat="47.02688" lon="16.08167">
        <ele>254.8246</ele>
        <time>2022-08-06T23:37:29.446Z</time>
      </trkpt>
      <trkpt lat="47.02696" lon="16.082">
        <ele>254.910005</ele>
        <time>2022-08-06T23:37:35.991Z</time>
      </trkpt>
      <trkpt lat="47.027" lon="16.08222">
        <ele>254.966981</ele>
        <time>2022-08-06T23:37:40.369Z</time>
      </trkpt>
      <trkpt lat="47.02746" lon="16.08352">
        <ele>255.98253</ele>
        <time>2022-08-06T23:38:11.124Z</time>
      </trkpt>
      <trkpt lat="47.02765" lon="16.08429">
        <ele>257.218823</ele>
        <time>2022-08-06T23:38:31.584Z</time>
      </trkpt>
      <trkpt lat="47.02785" lon="16.08473">
        <ele>258.011551</ele>
        <time>2022-08-06T23:38:45.814Z</time>
      </trkpt>
      <trkpt lat="47.02863" lon="16.08569">
        <ele>260.473258</ele>
        <time>2022-08-06T23:39:28.249Z</time>
      </trkpt>
      <trkpt lat="47.02888" lon="16.08597">
        <ele>261.300382</ele>
        <time>2022-08-06T23:39:41.535Z</time>
      </trkpt>
      <trkpt lat="47.02957" lon="16.08677">
        <ele>263.616602</ele>
        <time>2022-08-06T23:40:15.848Z</time>
      </trkpt>
      <trkpt lat="47.02973" lon="16.08694">
        <ele>263.999414</ele>
        <time>2022-08-06T23:40:22.516Z</time>
      </trkpt>
      <trkpt lat="47.03025" lon="16.08753">
        <ele>264.755686</ele>
        <time>2022-08-06T23:40:43.666Z</time>
      </trkpt>
      <trkpt lat="47.03026" lon="16.08755">
        <ele>264.773552</ele>
        <time>2022-08-06T23:40:44.166Z</time>
      </trkpt>
      <trkpt lat="47.03042" lon="16.08779">
        <ele>265.035301</ele>
        <time>2022-08-06T23:40:51.345Z</time>
      </trkpt>
      <trkpt lat="47.03059" lon="16.0883">
        <ele>265.487673</ele>
        <time>2022-08-06T23:41:03.693Z</time>
      </trkpt>
      <trkpt lat="47.03071" lon="16.0886">
        <ele>265.760725</ele>
        <time>2022-08-06T23:41:10.771Z</time>
      </trkpt>
      <trkpt lat="47.03069" lon="16.08866">
        <ele>265.81023</ele>
        <time>2022-08-06T23:41:13.753Z</time>
      </trkpt>
      <trkpt lat="47.03071" lon="16.0886">
        <ele>265.859734</ele>
        <time>2022-08-06T23:41:16.737Z</time>
      </trkpt>
      <trkpt lat="47.03075" lon="16.08873">
        <ele>265.974034</ele>
        <time>2022-08-06T23:41:19.603Z</time>
      </trkpt>
      <trkpt lat="47.03081" lon="16.08872">
        <ele>266.021311</ele>
        <time>2022-08-06T23:41:21.374Z</time>
      </trkpt>
      <trkpt lat="47.03083" lon="16.08872">
        <ele>266.037346</ele>
        <time>2022-08-06T23:41:21.938Z</time>
      </trkpt>
      <trkpt lat="47.03087" lon="16.08879">
        <ele>266.083432</ele>
        <time>2022-08-06T23:41:23.674Z</time>
      </trkpt>
      <trkpt lat="47.03089" lon="16.08884">
        <ele>266.119477</ele>
        <time>2022-08-06T23:41:25.139Z</time>
      </trkpt>
      <trkpt lat="47.03095" lon="16.08895">
        <ele>266.192165</ele>
        <time>2022-08-06T23:41:28.078Z</time>
      </trkpt>
      <trkpt lat="47.03104" lon="16.08911">
        <ele>266.310756</ele>
        <time>2022-08-06T23:41:32.703Z</time>
      </trkpt>
      <trkpt lat="47.03115" lon="16.0893">
        <ele>266.444904</ele>
        <time>2022-08-06T23:41:38.021Z</time>
      </trkpt>
      <trkpt lat="47.03134" lon="16.08961">
        <ele>266.669838</ele>
        <time>2022-08-06T23:41:47.171Z</time>
      </trkpt>
      <trkpt lat="47.03141" lon="16.08973">
        <ele>266.756472</ele>
        <time>2022-08-06T23:41:50.973Z</time>
      </trkpt>
      <trkpt lat="47.03229" lon="16.09123">
        <ele>267.350896</ele>
        <time>2022-08-06T23:42:32.932Z</time>
      </trkpt>
      <trkpt lat="47.03233" lon="16.0913">
        <ele>267.342919</ele>
        <time>2022-08-06T23:42:34.862Z</time>
      </trkpt>
      <trkpt lat="47.0326" lon="16.09175">
        <ele>267.293511</ele>
        <time>2022-08-06T23:42:45.614Z</time>
      </trkpt>
      <trkpt lat="47.03268" lon="16.0919">
        <ele>267.277781</ele>
        <time>2022-08-06T23:42:48.935Z</time>
      </trkpt>
      <trkpt lat="47.03276" lon="16.09204">
        <ele>267.262258</ele>
        <time>2022-08-06T23:42:52.212Z</time>
      </trkpt>
      <trkpt lat="47.03405" lon="16.09422">
        <ele>266.258367</ele>
        <time>2022-08-06T23:43:41.613Z</time>
      </trkpt>
      <trkpt lat="47.03413" lon="16.09436">
        <ele>266.179158</ele>
        <time>2022-08-06T23:43:44.687Z</time>
      </trkpt>
      <trkpt lat="47.03431" lon="16.09464">
        <ele>266.004852</ele>
        <time>2022-08-06T23:43:51.489Z</time>
      </trkpt>
      <trkpt lat="47.03435" lon="16.09471">
        <ele>265.974352</ele>
        <time>2022-08-06T23:43:52.927Z</time>
      </trkpt>
      <trkpt lat="47.03509" lon="16.09595">
        <ele>265.359898</ele>
        <time>2022-08-06T23:44:21.874Z</time>
      </trkpt>
      <trkpt lat="47.03554" lon="16.0967">
        <ele>264.965192</ele>
        <time>2022-08-06T23:44:39.480Z</time>
      </trkpt>
      <trkpt lat="47.0359" lon="16.09729">
        <ele>264.509905</ele>
        <time>2022-08-06T23:44:53.227Z</time>
      </trkpt>
      <trkpt lat="47.03593" lon="16.09735">
        <ele>264.458941</ele>
        <time>2022-08-06T23:44:54.779Z</time>
      </trkpt>
      <trkpt lat="47.03662" lon="16.09869">
        <ele>263.470653</ele>
        <time>2022-08-06T23:45:22.652Z</time>
      </trkpt>
      <trkpt lat="47.03673" lon="16.09888">
        <ele>263.049242</ele>
        <time>2022-08-06T23:45:26.530Z</time>
      </trkpt>
      <trkpt lat="47.03714" lon="16.09949">
        <ele>261.599207</ele>
        <time>2022-08-06T23:45:39.492Z</time>
      </trkpt>
      <trkpt lat="47.03728" lon="16.09969">
        <ele>261.124681</ele>
        <time>2022-08-06T23:45:43.576Z</time>
      </trkpt>
      <trkpt lat="47.03733" lon="16.09977">
        <ele>260.928188</ele>
        <time>2022-08-06T23:45:45.257Z</time>
      </trkpt>
      <trkpt lat="47.03891" lon="16.10203">
        <ele>254.599701</ele>
        <time>2022-08-06T23:46:30.261Z</time>
      </trkpt>
      <trkpt lat="47.03909" lon="16.10186">
        <ele>253.954761</ele>
        <time>2022-08-06T23:46:34.784Z</time>
      </trkpt>
      <trkpt lat="47.03924" lon="16.10191">
        <ele>253.480586</ele>
        <time>2022-08-06T23:46:38.101Z</time>
      </trkpt>
      <trkpt lat="47.03993" lon="16.10239">
        <ele>251.784307</ele>
        <time>2022-08-06T23:46:54.893Z</time>
      </trkpt>
      <trkpt lat="47.04014" lon="16.10254">
        <ele>251.258416</ele>
        <time>2022-08-06T23:47:00.083Z</time>
      </trkpt>
      <trkpt lat="47.04027" lon="16.10262">
        <ele>250.939585</ele>
        <time>2022-08-06T23:47:03.209Z</time>
      </trkpt>
      <trkpt lat="47.04084" lon="16.10281">
        <ele>249.640048</ele>
        <time>2022-08-06T23:47:15.809Z</time>
      </trkpt>
      <trkpt lat="47.04094" lon="16.1028">
        <ele>249.434995</ele>
        <time>2022-08-06T23:47:17.853Z</time>
      </trkpt>
      <trkpt lat="47.04128" lon="16.10278">
        <ele>248.727048</ele>
        <time>2022-08-06T23:47:25.364Z</time>
      </trkpt>
      <trkpt lat="47.04141" lon="16.1028">
        <ele>248.475097</ele>
        <time>2022-08-06T23:47:28.041Z</time>
      </trkpt>
      <trkpt lat="47.04177" lon="16.10286">
        <ele>247.732013</ele>
        <time>2022-08-06T23:47:35.989Z</time>
      </trkpt>
      <trkpt lat="47.042" lon="16.10295">
        <ele>247.254611</ele>
        <time>2022-08-06T23:47:41.098Z</time>
      </trkpt>
      <trkpt lat="47.04207" lon="16.10345">
        <ele>246.546571</ele>
        <time>2022-08-06T23:47:48.400Z</time>
      </trkpt>
      <trkpt lat="47.04235" lon="16.10384">
        <ele>245.817586</ele>
        <time>2022-08-06T23:47:56.416Z</time>
      </trkpt>
      <trkpt lat="47.04357" lon="16.10441">
        <ele>245.004752</ele>
        <time>2022-08-06T23:48:26.978Z</time>
      </trkpt>
      <trkpt lat="47.04369" lon="16.10459">
        <ele>244.898601</ele>
        <time>2022-08-06T23:48:31.546Z</time>
      </trkpt>
      <trkpt lat="47.04397" lon="16.10601">
        <ele>244.93339</ele>
        <time>2022-08-06T23:49:00.305Z</time>
      </trkpt>
      <trkpt lat="47.04406" lon="16.10714">
        <ele>245.190644</ele>
        <time>2022-08-06T23:49:22.834Z</time>
      </trkpt>
      <trkpt lat="47.04417" lon="16.10741">
        <ele>245.261755</ele>
        <time>2022-08-06T23:49:28.833Z</time>
      </trkpt>
      <trkpt lat="47.04435" lon="16.10758">
        <ele>245.28655</ele>
        <time>2022-08-06T23:49:34.611Z</time>
      </trkpt>
      <trkpt lat="47.04448" lon="16.10754">
        <ele>245.265721</ele>
        <time>2022-08-06T23:49:38.372Z</time>
      </trkpt>
      <trkpt lat="47.04503" lon="16.10666">
        <ele>245.144678</ele>
        <time>2022-08-06T23:49:59.799Z</time>
      </trkpt>
      <trkpt lat="47.04508" lon="16.10669">
        <ele>245.136837</ele>
        <time>2022-08-06T23:50:01.152Z</time>
      </trkpt>
      <trkpt lat="47.04517" lon="16.10679">
        <ele>245.119796</ele>
        <time>2022-08-06T23:50:04.057Z</time>
      </trkpt>
      <trkpt lat="47.04545" lon="16.10725">
        <ele>245.057506</ele>
        <time>2022-08-06T23:50:14.647Z</time>
      </trkpt>
      <trkpt lat="47.04546" lon="16.10727">
        <ele>245.054237</ele>
        <time>2022-08-06T23:50:15.209Z</time>
      </trkpt>
      <trkpt lat="47.04581" lon="16.10932">
        <ele>244.547051</ele>
        <time>2022-08-06T23:50:50.931Z</time>
      </trkpt>
      <trkpt lat="47.04602" lon="16.1103">
        <ele>244.297363</ele>
        <time>2022-08-06T23:51:08.619Z</time>
      </trkpt>
      <trkpt lat="47.04633" lon="16.11258">
        <ele>243.806443</ele>
        <time>2022-08-06T23:51:48.948Z</time>
      </trkpt>
      <trkpt lat="47.04657" lon="16.1134">
        <ele>243.756952</ele>
        <time>2022-08-06T23:52:04.314Z</time>
      </trkpt>
      <trkpt lat="47.04638" lon="16.11606">
        <ele>243.618788</ele>
        <time>2022-08-06T23:52:53.325Z</time>
      </trkpt>
      <trkpt lat="47.04615" lon="16.11688">
        <ele>243.572656</ele>
        <time>2022-08-06T23:53:09.265Z</time>
      </trkpt>
      <trkpt lat="47.0461" lon="16.11705">
        <ele>243.563485</ele>
        <time>2022-08-06T23:53:14.619Z</time>
      </trkpt>
      <trkpt lat="47.04585" lon="16.11786">
        <ele>243.502905</ele>
        <time>2022-08-06T23:53:30.218Z</time>
      </trkpt>
      <trkpt lat="47.04586" lon="16.11827">
        <ele>243.454676</ele>
        <time>2022-08-06T23:53:37.416Z</time>
      </trkpt>
      <trkpt lat="47.04589" lon="16.11855">
        <ele>243.421761</ele>
        <time>2022-08-06T23:53:42.427Z</time>
      </trkpt>
      <trkpt lat="47.04583" lon="16.11887">
        <ele>243.382776</ele>
        <time>2022-08-06T23:53:48.324Z</time>
      </trkpt>
      <trkpt lat="47.04588" lon="16.11903">
        <ele>243.362552</ele>
        <time>2022-08-06T23:53:53.526Z</time>
      </trkpt>
      <trkpt lat="47.04599" lon="16.11926">
        <ele>243.329546</ele>
        <time>2022-08-06T23:54:01.892Z</time>
      </trkpt>
      <trkpt lat="47.04566" lon="16.11958">
        <ele>243.261378</ele>
        <time>2022-08-06T23:54:12.492Z</time>
      </trkpt>
      <trkpt lat="47.04556" lon="16.11983">
        <ele>243.227441</ele>
        <time>2022-08-06T23:54:17.782Z</time>
      </trkpt>
      <trkpt lat="47.04551" lon="16.12017">
        <ele>243.326755</ele>
        <time>2022-08-06T23:54:23.973Z</time>
      </trkpt>
      <trkpt lat="47.04557" lon="16.12067">
        <ele>243.527771</ele>
        <time>2022-08-06T23:54:33.182Z</time>
      </trkpt>
      <trkpt lat="47.04582" lon="16.12199">
        <ele>244.071336</ele>
        <time>2022-08-06T23:55:02.402Z</time>
      </trkpt>
      <trkpt lat="47.04591" lon="16.12242">
        <ele>244.249565</ele>
        <time>2022-08-06T23:55:13.209Z</time>
      </trkpt>
      <trkpt lat="47.04597" lon="16.1226">
        <ele>244.408059</ele>
        <time>2022-08-06T23:55:18.185Z</time>
      </trkpt>
      <trkpt lat="47.04634" lon="16.12327">
        <ele>245.156814</ele>
        <time>2022-08-06T23:55:38.236Z</time>
      </trkpt>
      <trkpt lat="47.04637" lon="16.12331">
        <ele>245.208756</ele>
        <time>2022-08-06T23:55:39.669Z</time>
      </trkpt>
      <trkpt lat="47.04668" lon="16.12381">
        <ele>245.795377</ele>
        <time>2022-08-06T23:55:55.190Z</time>
      </trkpt>
      <trkpt lat="47.04673" lon="16.12388">
        <ele>245.879391</ele>
        <time>2022-08-06T23:55:57.366Z</time>
      </trkpt>
      <trkpt lat="47.04685" lon="16.12408">
        <ele>246.113028</ele>
        <time>2022-08-06T23:56:03.396Z</time>
      </trkpt>
      <trkpt lat="47.04696" lon="16.12415">
        <ele>246.263456</ele>
        <time>2022-08-06T23:56:07.544Z</time>
      </trkpt>
      <trkpt lat="47.04721" lon="16.1241">
        <ele>246.573606</ele>
        <time>2022-08-06T23:56:16.609Z</time>
      </trkpt>
      <trkpt lat="47.04805" lon="16.12345">
        <ele>247.105224</ele>
        <time>2022-08-06T23:56:47.223Z</time>
      </trkpt>
      <trkpt lat="47.04817" lon="16.12335">
        <ele>247.184723</ele>
        <time>2022-08-06T23:56:51.154Z</time>
      </trkpt>
      <trkpt lat="47.04833" lon="16.12322">
        <ele>247.288041</ele>
        <time>2022-08-06T23:56:56.196Z</time>
      </trkpt>
      <trkpt lat="47.04868" lon="16.12289">
        <ele>247.519272</ele>
        <time>2022-08-06T23:57:07.310Z</time>
      </trkpt>
      <trkpt lat="47.04888" lon="16.1226">
        <ele>247.583934</ele>
        <time>2022-08-06T23:57:15.253Z</time>
      </trkpt>
      <trkpt lat="47.04931" lon="16.12226">
        <ele>247.626036</ele>
        <time>2022-08-06T23:57:29.587Z</time>
      </trkpt>
      <trkpt lat="47.04949" lon="16.12235">
        <ele>247.64302</ele>
        <time>2022-08-06T23:57:35.283Z</time>
      </trkpt>
      <trkpt lat="47.04968" lon="16.1222">
        <ele>247.661736</ele>
        <time>2022-08-06T23:57:41.393Z</time>
      </trkpt>
      <trkpt lat="47.04975" lon="16.12193">
        <ele>247.678641</ele>
        <time>2022-08-06T23:57:46.863Z</time>
      </trkpt>
      <trkpt lat="47.05037" lon="16.12146">
        <ele>247.666298</ele>
        <time>2022-08-06T23:58:06.046Z</time>
      </trkpt>
      <trkpt lat="47.0513" lon="16.12078">
        <ele>247.359903</ele>
        <time>2022-08-06T23:58:34.269Z</time>
      </trkpt>
      <trkpt lat="47.05147" lon="16.12058">
        <ele>247.294406</ele>
        <time>2022-08-06T23:58:40.015Z</time>
      </trkpt>
      <trkpt lat="47.05159" lon="16.12046">
        <ele>247.252291</ele>
        <time>2022-08-06T23:58:43.575Z</time>
      </trkpt>
      <trkpt lat="47.05184" lon="16.1202">
        <ele>247.131768</ele>
        <time>2022-08-06T23:58:51.154Z</time>
      </trkpt>
      <trkpt lat="47.05188" lon="16.12009">
        <ele>247.079059</ele>
        <time>2022-08-06T23:58:53.258Z</time>
      </trkpt>
      <trkpt lat="47.05207" lon="16.11995">
        <ele>246.95405</ele>
        <time>2022-08-06T23:58:58.533Z</time>
      </trkpt>
      <trkpt lat="47.05243" lon="16.11968">
        <ele>246.705076</ele>
        <time>2022-08-06T23:59:09.045Z</time>
      </trkpt>
      <trkpt lat="47.0525" lon="16.11955">
        <ele>246.63813</ele>
        <time>2022-08-06T23:59:11.878Z</time>
      </trkpt>
      <trkpt lat="47.05252" lon="16.11954">
        <ele>246.625454</ele>
        <time>2022-08-06T23:59:12.424Z</time>
      </trkpt>
      <trkpt lat="47.0527" lon="16.11958">
        <ele>246.517758</ele>
        <time>2022-08-06T23:59:17.015Z</time>
      </trkpt>
      <trkpt lat="47.05275" lon="16.11956">
        <ele>246.485802</ele>
        <time>2022-08-06T23:59:18.323Z</time>
      </trkpt>
      <trkpt lat="47.0528" lon="16.11954">
        <ele>246.453661</ele>
        <time>2022-08-06T23:59:19.636Z</time>
      </trkpt>
      <trkpt lat="47.05303" lon="16.11946">
        <ele>246.3094</ele>
        <time>2022-08-06T23:59:25.536Z</time>
      </trkpt>
      <trkpt lat="47.05366" lon="16.11921">
        <ele>245.963321</ele>
        <time>2022-08-06T23:59:41.008Z</time>
      </trkpt>
      <trkpt lat="47.05384" lon="16.11915">
        <ele>245.881121</ele>
        <time>2022-08-06T23:59:45.340Z</time>
      </trkpt>
      <trkpt lat="47.05418" lon="16.11904">
        <ele>245.72465</ele>
        <time>2022-08-06T23:59:53.801Z</time>
      </trkpt>
      <trkpt lat="47.05439" lon="16.11895">
        <ele>245.626852</ele>
        <time>2022-08-06T23:59:59.267Z</time>
      </trkpt>
      <trkpt lat="47.05463" lon="16.11886">
        <ele>245.518389</ele>
        <time>2022-08-07T00:00:05.454Z</time>
      </trkpt>
      <trkpt lat="47.05481" lon="16.11879">
        <ele>245.432277</ele>
        <time>2022-08-07T00:00:10.486Z</time>
      </trkpt>
      <trkpt lat="47.05498" lon="16.11873">
        <ele>245.355963</ele>
        <time>2022-08-07T00:00:14.875Z</time>
      </trkpt>
      <trkpt lat="47.05509" lon="16.11869">
        <ele>245.303659</ele>
        <time>2022-08-07T00:00:17.948Z</time>
      </trkpt>
      <trkpt lat="47.0554" lon="16.11857">
        <ele>245.455768</ele>
        <time>2022-08-07T00:00:26.239Z</time>
      </trkpt>
      <trkpt lat="47.05586" lon="16.1184">
        <ele>245.700121</ele>
        <time>2022-08-07T00:00:39.458Z</time>
      </trkpt>
      <trkpt lat="47.05624" lon="16.11826">
        <ele>245.899198</ele>
        <time>2022-08-07T00:00:50.891Z</time>
      </trkpt>
      <trkpt lat="47.05641" lon="16.1182">
        <ele>245.989275</ele>
        <time>2022-08-07T00:00:56.286Z</time>
      </trkpt>
      <trkpt lat="47.05682" lon="16.11803">
        <ele>246.206648</ele>
        <time>2022-08-07T00:01:09.965Z</time>
      </trkpt>
      <trkpt lat="47.05763" lon="16.11774">
        <ele>247.218237</ele>
        <time>2022-08-07T00:01:36.632Z</time>
      </trkpt>
      <trkpt lat="47.05805" lon="16.11759">
        <ele>247.743615</ele>
        <time>2022-08-07T00:01:50.226Z</time>
      </trkpt>
      <trkpt lat="47.05809" lon="16.11757">
        <ele>247.800553</ele>
        <time>2022-08-07T00:01:51.718Z</time>
      </trkpt>
      <trkpt lat="47.05821" lon="16.11753">
        <ele>247.954258</ele>
        <time>2022-08-07T00:01:55.774Z</time>
      </trkpt>
      <trkpt lat="47.05853" lon="16.11741">
        <ele>248.358996</ele>
        <time>2022-08-07T00:02:06.969Z</time>
      </trkpt>
      <trkpt lat="47.05943" lon="16.11706">
        <ele>250.216935</ele>
        <time>2022-08-07T00:02:40.125Z</time>
      </trkpt>
      <trkpt lat="47.06029" lon="16.11888">
        <ele>253.832794</ele>
        <time>2022-08-07T00:03:36.809Z</time>
      </trkpt>
      <trkpt lat="47.06108" lon="16.12088">
        <ele>259.470377</ele>
        <time>2022-08-07T00:04:42.662Z</time>
      </trkpt>
      <trkpt lat="47.0615" lon="16.12233">
        <ele>265.554175</ele>
        <time>2022-08-07T00:05:39.602Z</time>
      </trkpt>
      <trkpt lat="47.06172" lon="16.12427">
        <ele>273.733129</ele>
        <time>2022-08-07T00:07:11.036Z</time>
      </trkpt>
      <trkpt lat="47.06216" lon="16.12555">
        <ele>279.108596</ele>
        <time>2022-08-07T00:07:56.684Z</time>
      </trkpt>
      <trkpt lat="47.06285" lon="16.1259">
        <ele>280.118894</ele>
        <time>2022-08-07T00:08:22.790Z</time>
      </trkpt>
      <trkpt lat="47.06346" lon="16.12634">
        <ele>281.057665</ele>
        <time>2022-08-07T00:08:39.419Z</time>
      </trkpt>
      <trkpt lat="47.06398" lon="16.12662">
        <ele>282.946694</ele>
        <time>2022-08-07T00:08:53.204Z</time>
      </trkpt>
      <trkpt lat="47.06471" lon="16.12701">
        <ele>286.775128</ele>
        <time>2022-08-07T00:09:34.427Z</time>
      </trkpt>
      <trkpt lat="47.06503" lon="16.12707">
        <ele>288.33517</ele>
        <time>2022-08-07T00:09:54.154Z</time>
      </trkpt>
      <trkpt lat="47.0653" lon="16.12709">
        <ele>289.675043</ele>
        <time>2022-08-07T00:10:11.415Z</time>
      </trkpt>
      <trkpt lat="47.06548" lon="16.12709">
        <ele>290.687715</ele>
        <time>2022-08-07T00:10:21.829Z</time>
      </trkpt>
      <trkpt lat="47.06589" lon="16.12695">
        <ele>293.584925</ele>
        <time>2022-08-07T00:10:49.133Z</time>
      </trkpt>
      <trkpt lat="47.06601" lon="16.12696">
        <ele>294.416604</ele>
        <time>2022-08-07T00:10:57.703Z</time>
      </trkpt>
      <trkpt lat="47.06623" lon="16.12713">
        <ele>296.128868</ele>
        <time>2022-08-07T00:11:13.152Z</time>
      </trkpt>
      <trkpt lat="47.06662" lon="16.12762">
        <ele>299.69799</ele>
        <time>2022-08-07T00:11:45.453Z</time>
      </trkpt>
      <trkpt lat="47.06669" lon="16.12815">
        <ele>302.229537</ele>
        <time>2022-08-07T00:12:05.236Z</time>
      </trkpt>
      <trkpt lat="47.06675" lon="16.1284">
        <ele>303.270866</ele>
        <time>2022-08-07T00:12:13.613Z</time>
      </trkpt>
      <trkpt lat="47.06685" lon="16.12858">
        <ele>304.116919</ele>
        <time>2022-08-07T00:12:21.507Z</time>
      </trkpt>
      <trkpt lat="47.06793" lon="16.1292">
        <ele>310.220639</ele>
        <time>2022-08-07T00:13:17.635Z</time>
      </trkpt>
      <trkpt lat="47.06834" lon="16.12923">
        <ele>312.473817</ele>
        <time>2022-08-07T00:13:41.727Z</time>
      </trkpt>
      <trkpt lat="47.06851" lon="16.12915">
        <ele>313.690475</ele>
        <time>2022-08-07T00:13:52.375Z</time>
      </trkpt>
      <trkpt lat="47.0688" lon="16.12843">
        <ele>317.655638</ele>
        <time>2022-08-07T00:14:26.788Z</time>
      </trkpt>
      <trkpt lat="47.06934" lon="16.12734">
        <ele>324.010086</ele>
        <time>2022-08-07T00:15:22.532Z</time>
      </trkpt>
      <trkpt lat="47.06974" lon="16.12758">
        <ele>326.646174</ele>
        <time>2022-08-07T00:15:50.084Z</time>
      </trkpt>
      <trkpt lat="47.07028" lon="16.12773">
        <ele>329.910209</ele>
        <time>2022-08-07T00:16:22.313Z</time>
      </trkpt>
      <trkpt lat="47.07062" lon="16.12797">
        <ele>332.118297</ele>
        <time>2022-08-07T00:16:41.909Z</time>
      </trkpt>
      <trkpt lat="47.07088" lon="16.12821">
        <ele>333.948885</ele>
        <time>2022-08-07T00:16:56.592Z</time>
      </trkpt>
      <trkpt lat="47.07107" lon="16.12825">
        <ele>335.095711</ele>
        <time>2022-08-07T00:17:05.815Z</time>
      </trkpt>
      <trkpt lat="47.0715" lon="16.12824">
        <ele>336.843943</ele>
        <time>2022-08-07T00:17:26.987Z</time>
      </trkpt>
      <trkpt lat="47.07163" lon="16.12826">
        <ele>337.341213</ele>
        <time>2022-08-07T00:17:32.962Z</time>
      </trkpt>
      <trkpt lat="47.07184" lon="16.12849">
        <ele>338.391977</ele>
        <time>2022-08-07T00:17:46.299Z</time>
      </trkpt>
      <trkpt lat="47.0722" lon="16.12844">
        <ele>339.818922</ele>
        <time>2022-08-07T00:18:03.747Z</time>
      </trkpt>
      <trkpt lat="47.0727" lon="16.12847">
        <ele>341.822282</ele>
        <time>2022-08-07T00:18:25.980Z</time>
      </trkpt>
      <trkpt lat="47.07279" lon="16.12851">
        <ele>342.197271</ele>
        <time>2022-08-07T00:18:30.189Z</time>
      </trkpt>
      <trkpt lat="47.07381" lon="16.12854">
        <ele>343.76521</ele>
        <time>2022-08-07T00:19:08.673Z</time>
      </trkpt>
      <trkpt lat="47.07411" lon="16.12864">
        <ele>344.214762</ele>
        <time>2022-08-07T00:19:18.756Z</time>
      </trkpt>
      <trkpt lat="47.07445" lon="16.12865">
        <ele>344.700113</ele>
        <time>2022-08-07T00:19:29.109Z</time>
      </trkpt>
      <trkpt lat="47.07555" lon="16.12846">
        <ele>344.68211</ele>
        <time>2022-08-07T00:20:16.237Z</time>
      </trkpt>
      <trkpt lat="47.07579" lon="16.12853">
        <ele>344.610779</ele>
        <time>2022-08-07T00:20:26.071Z</time>
      </trkpt>
      <trkpt lat="47.0759" lon="16.12856">
        <ele>344.578995</ele>
        <time>2022-08-07T00:20:29.051Z</time>
      </trkpt>
      <trkpt lat="47.07597" lon="16.12886">
        <ele>344.517302</ele>
        <time>2022-08-07T00:20:34.144Z</time>
      </trkpt>
      <trkpt lat="47.07641" lon="16.12823">
        <ele>344.995024</ele>
        <time>2022-08-07T00:20:50.862Z</time>
      </trkpt>
      <trkpt lat="47.07667" lon="16.12781">
        <ele>345.692565</ele>
        <time>2022-08-07T00:21:03.850Z</time>
      </trkpt>
      <trkpt lat="47.07675" lon="16.12767">
        <ele>345.913715</ele>
        <time>2022-08-07T00:21:08.130Z</time>
      </trkpt>
      <trkpt lat="47.07805" lon="16.12627">
        <ele>349.223882</ele>
        <time>2022-08-07T00:22:12.461Z</time>
      </trkpt>
      <trkpt lat="47.07839" lon="16.12605">
        <ele>350.129543</ele>
        <time>2022-08-07T00:22:28.033Z</time>
      </trkpt>
      <trkpt lat="47.07907" lon="16.12583">
        <ele>351.809915</ele>
        <time>2022-08-07T00:22:53.935Z</time>
      </trkpt>
      <trkpt lat="47.07987" lon="16.12543">
        <ele>353.11601</ele>
        <time>2022-08-07T00:23:20.714Z</time>
      </trkpt>
      <trkpt lat="47.08073" lon="16.12479">
        <ele>354.498631</ele>
        <time>2022-08-07T00:23:53.701Z</time>
      </trkpt>
      <trkpt lat="47.08088" lon="16.12459">
        <ele>354.644055</ele>
        <time>2022-08-07T00:24:00.571Z</time>
      </trkpt>
      <trkpt lat="47.08095" lon="16.12432">
        <ele>354.693637</ele>
        <time>2022-08-07T00:24:07.500Z</time>
      </trkpt>
      <trkpt lat="47.08136" lon="16.12391">
        <ele>354.817123</ele>
        <time>2022-08-07T00:24:23.037Z</time>
      </trkpt>
      <trkpt lat="47.08219" lon="16.12319">
        <ele>355.056479</ele>
        <time>2022-08-07T00:24:47.536Z</time>
      </trkpt>
      <trkpt lat="47.08377" lon="16.12229">
        <ele>352.999152</ele>
        <time>2022-08-07T00:25:24.095Z</time>
      </trkpt>
      <trkpt lat="47.08439" lon="16.12214">
        <ele>353.37589</ele>
        <time>2022-08-07T00:25:40.863Z</time>
      </trkpt>
      <trkpt lat="47.08501" lon="16.12208">
        <ele>354.051064</ele>
        <time>2022-08-07T00:26:01.584Z</time>
      </trkpt>
      <trkpt lat="47.08552" lon="16.12173">
        <ele>354.649133</ele>
        <time>2022-08-07T00:26:22.397Z</time>
      </trkpt>
      <trkpt lat="47.08571" lon="16.1216">
        <ele>354.86082</ele>
        <time>2022-08-07T00:26:30.502Z</time>
      </trkpt>
      <trkpt lat="47.08602" lon="16.12158">
        <ele>355.125251</ele>
        <time>2022-08-07T00:26:41.685Z</time>
      </trkpt>
      <trkpt lat="47.08675" lon="16.12193">
        <ele>355.797749</ele>
        <time>2022-08-07T00:27:06.864Z</time>
      </trkpt>
      <trkpt lat="47.08724" lon="16.12191">
        <ele>356.224602</ele>
        <time>2022-08-07T00:27:19.299Z</time>
      </trkpt>
      <trkpt lat="47.08814" lon="16.12221">
        <ele>356.393015</ele>
        <time>2022-08-07T00:27:41.502Z</time>
      </trkpt>
      <trkpt lat="47.08817" lon="16.12222">
        <ele>356.39535</ele>
        <time>2022-08-07T00:27:42.326Z</time>
      </trkpt>
      <trkpt lat="47.0883" lon="16.12226">
        <ele>356.404545</ele>
        <time>2022-08-07T00:27:45.601Z</time>
      </trkpt>
      <trkpt lat="47.08936" lon="16.12269">
        <ele>356.885996</ele>
        <time>2022-08-07T00:28:18.113Z</time>
      </trkpt>
      <trkpt lat="47.08957" lon="16.12282">
        <ele>357.252528</ele>
        <time>2022-08-07T00:28:25.891Z</time>
      </trkpt>
      <trkpt lat="47.09087" lon="16.12333">
        <ele>359.402517</ele>
        <time>2022-08-07T00:29:16.057Z</time>
      </trkpt>
      <trkpt lat="47.0912" lon="16.12352">
        <ele>359.087247</ele>
        <time>2022-08-07T00:29:27.493Z</time>
      </trkpt>
      <trkpt lat="47.09139" lon="16.12363">
        <ele>358.908928</ele>
        <time>2022-08-07T00:29:33.363Z</time>
      </trkpt>
      <trkpt lat="47.09176" lon="16.12371">
        <ele>358.582599</ele>
        <time>2022-08-07T00:29:42.044Z</time>
      </trkpt>
      <trkpt lat="47.09275" lon="16.1235">
        <ele>357.435115</ele>
        <time>2022-08-07T00:30:02.583Z</time>
      </trkpt>
      <trkpt lat="47.09309" lon="16.12345">
        <ele>356.565499</ele>
        <time>2022-08-07T00:30:09.297Z</time>
      </trkpt>
      <trkpt lat="47.09342" lon="16.12339">
        <ele>355.734232</ele>
        <time>2022-08-07T00:30:15.558Z</time>
      </trkpt>
      <trkpt lat="47.09363" lon="16.1259">
        <ele>352.474525</ele>
        <time>2022-08-07T00:30:51.629Z</time>
      </trkpt>
      <trkpt lat="47.09366" lon="16.12613">
        <ele>352.304222</ele>
        <time>2022-08-07T00:30:55.496Z</time>
      </trkpt>
      <trkpt lat="47.09368" lon="16.12631">
        <ele>352.170362</ele>
        <time>2022-08-07T00:30:58.578Z</time>
      </trkpt>
      <trkpt lat="47.09387" lon="16.12778">
        <ele>351.581751</ele>
        <time>2022-08-07T00:31:24.031Z</time>
      </trkpt>
      <trkpt lat="47.09412" lon="16.12924">
        <ele>352.51842</ele>
        <time>2022-08-07T00:31:55.578Z</time>
      </trkpt>
      <trkpt lat="47.09482" lon="16.13158">
        <ele>354.256171</ele>
        <time>2022-08-07T00:32:57.448Z</time>
      </trkpt>
      <trkpt lat="47.09498" lon="16.13196">
        <ele>354.569123</ele>
        <time>2022-08-07T00:33:06.838Z</time>
      </trkpt>
      <trkpt lat="47.0957" lon="16.13336">
        <ele>353.03069</ele>
        <time>2022-08-07T00:33:33.478Z</time>
      </trkpt>
      <trkpt lat="47.09583" lon="16.13381">
        <ele>352.368746</ele>
        <time>2022-08-07T00:33:39.977Z</time>
      </trkpt>
      <trkpt lat="47.09616" lon="16.13501">
        <ele>350.712549</ele>
        <time>2022-08-07T00:33:57.613Z</time>
      </trkpt>
      <trkpt lat="47.09624" lon="16.1352">
        <ele>350.457188</ele>
        <time>2022-08-07T00:34:00.552Z</time>
      </trkpt>
      <trkpt lat="47.09638" lon="16.1355">
        <ele>350.037263</ele>
        <time>2022-08-07T00:34:05.784Z</time>
      </trkpt>
      <trkpt lat="47.09751" lon="16.13776">
        <ele>347.348709</ele>
        <time>2022-08-07T00:34:50.508Z</time>
      </trkpt>
      <trkpt lat="47.09778" lon="16.1384">
        <ele>346.798948</ele>
        <time>2022-08-07T00:35:03.197Z</time>
      </trkpt>
      <trkpt lat="47.09805" lon="16.13923">
        <ele>345.81606</ele>
        <time>2022-08-07T00:35:16.565Z</time>
      </trkpt>
      <trkpt lat="47.09824" lon="16.14033">
        <ele>343.680898</ele>
        <time>2022-08-07T00:35:32.244Z</time>
      </trkpt>
      <trkpt lat="47.09831" lon="16.14047">
        <ele>343.346604</ele>
        <time>2022-08-07T00:35:34.595Z</time>
      </trkpt>
      <trkpt lat="47.09857" lon="16.14068">
        <ele>342.538711</ele>
        <time>2022-08-07T00:35:40.311Z</time>
      </trkpt>
      <trkpt lat="47.09885" lon="16.14083">
        <ele>341.714015</ele>
        <time>2022-08-07T00:35:46.151Z</time>
      </trkpt>
      <trkpt lat="47.09968" lon="16.14113">
        <ele>339.091917</ele>
        <time>2022-08-07T00:36:02.581Z</time>
      </trkpt>
      <trkpt lat="47.09985" lon="16.14127">
        <ele>338.471182</ele>
        <time>2022-08-07T00:36:06.408Z</time>
      </trkpt>
      <trkpt lat="47.10038" lon="16.14196">
        <ele>336.270683</ele>
        <time>2022-08-07T00:36:20.402Z</time>
      </trkpt>
      <trkpt lat="47.10059" lon="16.14224">
        <ele>335.619189</ele>
        <time>2022-08-07T00:36:26.141Z</time>
      </trkpt>
      <trkpt lat="47.1008" lon="16.14265">
        <ele>335.215748</ele>
        <time>2022-08-07T00:36:33.426Z</time>
      </trkpt>
      <trkpt lat="47.10097" lon="16.14316">
        <ele>334.768705</ele>
        <time>2022-08-07T00:36:41.707Z</time>
      </trkpt>
      <trkpt lat="47.10133" lon="16.14416">
        <ele>333.874696</ele>
        <time>2022-08-07T00:37:00.169Z</time>
      </trkpt>
      <trkpt lat="47.10167" lon="16.14477">
        <ele>334.164473</ele>
        <time>2022-08-07T00:37:15.779Z</time>
      </trkpt>
      <trkpt lat="47.10175" lon="16.14492">
        <ele>334.355062</ele>
        <time>2022-08-07T00:37:20.097Z</time>
      </trkpt>
      <trkpt lat="47.10212" lon="16.14547">
        <ele>335.074545</ele>
        <time>2022-08-07T00:37:39.225Z</time>
      </trkpt>
      <trkpt lat="47.10277" lon="16.14608">
        <ele>336.145798</ele>
        <time>2022-08-07T00:38:07.476Z</time>
      </trkpt>
      <trkpt lat="47.10358" lon="16.14648">
        <ele>336.281751</ele>
        <time>2022-08-07T00:38:34.101Z</time>
      </trkpt>
      <trkpt lat="47.1048" lon="16.14691">
        <ele>336.294239</ele>
        <time>2022-08-07T00:39:03.706Z</time>
      </trkpt>
      <trkpt lat="47.10571" lon="16.14725">
        <ele>335.887995</ele>
        <time>2022-08-07T00:39:25.738Z</time>
      </trkpt>
      <trkpt lat="47.10592" lon="16.14722">
        <ele>335.799315</ele>
        <time>2022-08-07T00:39:31.049Z</time>
      </trkpt>
      <trkpt lat="47.10678" lon="16.14682">
        <ele>336.121132</ele>
        <time>2022-08-07T00:39:58.471Z</time>
      </trkpt>
      <trkpt lat="47.1071" lon="16.14679">
        <ele>336.391779</ele>
        <time>2022-08-07T00:40:09.312Z</time>
      </trkpt>
      <trkpt lat="47.10811" lon="16.14702">
        <ele>337.02845</ele>
        <time>2022-08-07T00:40:41.406Z</time>
      </trkpt>
      <trkpt lat="47.10847" lon="16.14709">
        <ele>336.418512</ele>
        <time>2022-08-07T00:40:51.448Z</time>
      </trkpt>
      <trkpt lat="47.10862" lon="16.14712">
        <ele>336.163779</ele>
        <time>2022-08-07T00:40:55.505Z</time>
      </trkpt>
      <trkpt lat="47.10895" lon="16.14738">
        <ele>335.558188</ele>
        <time>2022-08-07T00:41:03.840Z</time>
      </trkpt>
      <trkpt lat="47.1094" lon="16.1479">
        <ele>334.607042</ele>
        <time>2022-08-07T00:41:15.516Z</time>
      </trkpt>
      <trkpt lat="47.10977" lon="16.14852">
        <ele>332.689325</ele>
        <time>2022-08-07T00:41:25.914Z</time>
      </trkpt>
      <trkpt lat="47.10989" lon="16.14906">
        <ele>330.852037</ele>
        <time>2022-08-07T00:41:32.805Z</time>
      </trkpt>
      <trkpt lat="47.10993" lon="16.15002">
        <ele>327.739947</ele>
        <time>2022-08-07T00:41:44.567Z</time>
      </trkpt>
      <trkpt lat="47.11003" lon="16.15047">
        <ele>326.199743</ele>
        <time>2022-08-07T00:41:50.422Z</time>
      </trkpt>
      <trkpt lat="47.11013" lon="16.15096">
        <ele>325.054415</ele>
        <time>2022-08-07T00:41:56.753Z</time>
      </trkpt>
      <trkpt lat="47.11035" lon="16.15187">
        <ele>323.350073</ele>
        <time>2022-08-07T00:42:09.565Z</time>
      </trkpt>
      <trkpt lat="47.11038" lon="16.15264">
        <ele>321.99924</ele>
        <time>2022-08-07T00:42:20.716Z</time>
      </trkpt>
      <trkpt lat="47.11047" lon="16.15325">
        <ele>320.96905</ele>
        <time>2022-08-07T00:42:30.953Z</time>
      </trkpt>
      <trkpt lat="47.11058" lon="16.15349">
        <ele>320.75036</ele>
        <time>2022-08-07T00:42:36.227Z</time>
      </trkpt>
      <trkpt lat="47.11075" lon="16.15367">
        <ele>320.520282</ele>
        <time>2022-08-07T00:42:41.276Z</time>
      </trkpt>
      <trkpt lat="47.1114" lon="16.15431">
        <ele>319.65684</ele>
        <time>2022-08-07T00:42:59.757Z</time>
      </trkpt>
      <trkpt lat="47.11186" lon="16.15462">
        <ele>319.102594</ele>
        <time>2022-08-07T00:43:11.073Z</time>
      </trkpt>
      <trkpt lat="47.11226" lon="16.15494">
        <ele>318.320102</ele>
        <time>2022-08-07T00:43:20.424Z</time>
      </trkpt>
      <trkpt lat="47.11261" lon="16.15537">
        <ele>317.489612</ele>
        <time>2022-08-07T00:43:30.185Z</time>
      </trkpt>
      <trkpt lat="47.11287" lon="16.15592">
        <ele>316.673785</ele>
        <time>2022-08-07T00:43:39.796Z</time>
      </trkpt>
      <trkpt lat="47.11303" lon="16.15665">
        <ele>315.717999</ele>
        <time>2022-08-07T00:43:51.025Z</time>
      </trkpt>
      <trkpt lat="47.1131" lon="16.15725">
        <ele>314.914267</ele>
        <time>2022-08-07T00:44:00.442Z</time>
      </trkpt>
      <trkpt lat="47.11307" lon="16.1581">
        <ele>313.785468</ele>
        <time>2022-08-07T00:44:12.962Z</time>
      </trkpt>
      <trkpt lat="47.11311" lon="16.1587">
        <ele>312.978552</ele>
        <time>2022-08-07T00:44:21.665Z</time>
      </trkpt>
      <trkpt lat="47.11307" lon="16.15923">
        <ele>312.271083</ele>
        <time>2022-08-07T00:44:29.252Z</time>
      </trkpt>
      <trkpt lat="47.11307" lon="16.15957">
        <ele>311.16336</ele>
        <time>2022-08-07T00:44:33.938Z</time>
      </trkpt>
      <trkpt lat="47.11313" lon="16.16002">
        <ele>309.664846</ele>
        <time>2022-08-07T00:44:39.884Z</time>
      </trkpt>
      <trkpt lat="47.11326" lon="16.16024">
        <ele>308.734989</ele>
        <time>2022-08-07T00:44:43.502Z</time>
      </trkpt>
      <trkpt lat="47.11347" lon="16.16033">
        <ele>307.667388</ele>
        <time>2022-08-07T00:44:47.611Z</time>
      </trkpt>
      <trkpt lat="47.11379" lon="16.16046">
        <ele>306.074329</ele>
        <time>2022-08-07T00:44:53.579Z</time>
      </trkpt>
      <trkpt lat="47.11412" lon="16.16074">
        <ele>304.252155</ele>
        <time>2022-08-07T00:45:00.227Z</time>
      </trkpt>
      <trkpt lat="47.11503" lon="16.16174">
        <ele>295.686373</ele>
        <time>2022-08-07T00:45:19.529Z</time>
      </trkpt>
      <trkpt lat="47.11572" lon="16.16254">
        <ele>288.65593</ele>
        <time>2022-08-07T00:45:34.215Z</time>
      </trkpt>
      <trkpt lat="47.11583" lon="16.16279">
        <ele>286.858127</ele>
        <time>2022-08-07T00:45:37.562Z</time>
      </trkpt>
      <trkpt lat="47.11588" lon="16.16305">
        <ele>285.16553</ele>
        <time>2022-08-07T00:45:40.611Z</time>
      </trkpt>
      <trkpt lat="47.11588" lon="16.16325">
        <ele>283.924974</ele>
        <time>2022-08-07T00:45:42.869Z</time>
      </trkpt>
      <trkpt lat="47.11586" lon="16.16462">
        <ele>275.534028</ele>
        <time>2022-08-07T00:45:58.078Z</time>
      </trkpt>
      <trkpt lat="47.11593" lon="16.16568">
        <ele>269.662369</ele>
        <time>2022-08-07T00:46:10.466Z</time>
      </trkpt>
      <trkpt lat="47.11606" lon="16.16597">
        <ele>267.870943</ele>
        <time>2022-08-07T00:46:14.437Z</time>
      </trkpt>
      <trkpt lat="47.11619" lon="16.16607">
        <ele>266.757126</ele>
        <time>2022-08-07T00:46:16.875Z</time>
      </trkpt>
      <trkpt lat="47.11648" lon="16.166">
        <ele>264.530451</ele>
        <time>2022-08-07T00:46:21.761Z</time>
      </trkpt>
      <trkpt lat="47.11702" lon="16.16532">
        <ele>259.242616</ele>
        <time>2022-08-07T00:46:33.743Z</time>
      </trkpt>
      <trkpt lat="47.11734" lon="16.1652">
        <ele>257.514457</ele>
        <time>2022-08-07T00:46:39.701Z</time>
      </trkpt>
      <trkpt lat="47.11765" lon="16.16517">
        <ele>255.947914</ele>
        <time>2022-08-07T00:46:45.181Z</time>
      </trkpt>
      <trkpt lat="47.11798" lon="16.16472">
        <ele>253.625254</ele>
        <time>2022-08-07T00:46:53.473Z</time>
      </trkpt>
      <trkpt lat="47.1183" lon="16.1646">
        <ele>251.944244</ele>
        <time>2022-08-07T00:46:59.474Z</time>
      </trkpt>
      <trkpt lat="47.11836" lon="16.16461">
        <ele>251.673045</ele>
        <time>2022-08-07T00:47:00.464Z</time>
      </trkpt>
      <trkpt lat="47.11841" lon="16.16461">
        <ele>251.402181</ele>
        <time>2022-08-07T00:47:01.428Z</time>
      </trkpt>
      <trkpt lat="47.11854" lon="16.1646">
        <ele>250.722203</ele>
        <time>2022-08-07T00:47:03.832Z</time>
      </trkpt>
      <trkpt lat="47.11864" lon="16.16459">
        <ele>250.292807</ele>
        <time>2022-08-07T00:47:05.598Z</time>
      </trkpt>
      <trkpt lat="47.11882" lon="16.16458">
        <ele>250.169152</ele>
        <time>2022-08-07T00:47:09.372Z</time>
      </trkpt>
      <trkpt lat="47.11884" lon="16.16466">
        <ele>250.132727</ele>
        <time>2022-08-07T00:47:11.398Z</time>
      </trkpt>
      <trkpt lat="47.11868" lon="16.16473">
        <ele>250.022372</ele>
        <time>2022-08-07T00:47:17.910Z</time>
      </trkpt>
      <trkpt lat="47.11884" lon="16.16466">
        <ele>249.912017</ele>
        <time>2022-08-07T00:47:24.626Z</time>
      </trkpt>
      <trkpt lat="47.11882" lon="16.16458">
        <ele>249.875591</ele>
        <time>2022-08-07T00:47:26.893Z</time>
      </trkpt>
      <trkpt lat="47.119" lon="16.1645">
        <ele>249.75341</ele>
        <time>2022-08-07T00:47:31.588Z</time>
      </trkpt>
      <trkpt lat="47.11906" lon="16.16445">
        <ele>249.710171</ele>
        <time>2022-08-07T00:47:33.243Z</time>
      </trkpt>
      <trkpt lat="47.11917" lon="16.16422">
        <ele>249.583669</ele>
        <time>2022-08-07T00:47:38.414Z</time>
      </trkpt>
      <trkpt lat="47.11947" lon="16.16368">
        <ele>249.273651</ele>
        <time>2022-08-07T00:47:52.792Z</time>
      </trkpt>
      <trkpt lat="47.11976" lon="16.16352">
        <ele>249.241656</ele>
        <time>2022-08-07T00:48:03.094Z</time>
      </trkpt>
      <trkpt lat="47.12036" lon="16.16342">
        <ele>250.106903</ele>
        <time>2022-08-07T00:48:23.970Z</time>
      </trkpt>
      <trkpt lat="47.12053" lon="16.16322">
        <ele>250.408827</ele>
        <time>2022-08-07T00:48:31.078Z</time>
      </trkpt>
      <trkpt lat="47.12069" lon="16.16284">
        <ele>250.852226</ele>
        <time>2022-08-07T00:48:41.429Z</time>
      </trkpt>
      <trkpt lat="47.12079" lon="16.1627">
        <ele>251.050397</ele>
        <time>2022-08-07T00:48:46.268Z</time>
      </trkpt>
      <trkpt lat="47.12106" lon="16.16256">
        <ele>251.459408</ele>
        <time>2022-08-07T00:48:55.821Z</time>
      </trkpt>
      <trkpt lat="47.12151" lon="16.16266">
        <ele>252.066354</ele>
        <time>2022-08-07T00:49:10.896Z</time>
      </trkpt>
      <trkpt lat="47.12188" lon="16.16279">
        <ele>252.557953</ele>
        <time>2022-08-07T00:49:23.197Z</time>
      </trkpt>
      <trkpt lat="47.12214" lon="16.16289">
        <ele>252.901771</ele>
        <time>2022-08-07T00:49:31.767Z</time>
      </trkpt>
      <trkpt lat="47.1224" lon="16.163">
        <ele>253.255222</ele>
        <time>2022-08-07T00:49:40.946Z</time>
      </trkpt>
      <trkpt lat="47.12248" lon="16.16305">
        <ele>253.368656</ele>
        <time>2022-08-07T00:49:43.915Z</time>
      </trkpt>
      <trkpt lat="47.1241" lon="16.16383">
        <ele>255.765471</ele>
        <time>2022-08-07T00:50:39.558Z</time>
      </trkpt>
      <trkpt lat="47.12498" lon="16.16421">
        <ele>257.392949</ele>
        <time>2022-08-07T00:51:11.615Z</time>
      </trkpt>
      <trkpt lat="47.12651" lon="16.16453">
        <ele>261.079357</ele>
        <time>2022-08-07T00:52:11.845Z</time>
      </trkpt>
      <trkpt lat="47.1278" lon="16.1648">
        <ele>264.260205</ele>
        <time>2022-08-07T00:53:02.460Z</time>
      </trkpt>
      <trkpt lat="47.12789" lon="16.1648">
        <ele>264.4821</ele>
        <time>2022-08-07T00:53:05.724Z</time>
      </trkpt>
      <trkpt lat="47.12909" lon="16.16465">
        <ele>267.75306</ele>
        <time>2022-08-07T00:53:51.190Z</time>
      </trkpt>
      <trkpt lat="47.1297" lon="16.16472">
        <ele>269.483887</ele>
        <time>2022-08-07T00:54:16.256Z</time>
      </trkpt>
      <trkpt lat="47.1309" lon="16.16531">
        <ele>274.437143</ele>
        <time>2022-08-07T00:55:12.907Z</time>
      </trkpt>
      <trkpt lat="47.13167" lon="16.16574">
        <ele>277.940066</ele>
        <time>2022-08-07T00:55:54.689Z</time>
      </trkpt>
      <trkpt lat="47.1321" lon="16.16615">
        <ele>280.156029</ele>
        <time>2022-08-07T00:56:19.895Z</time>
      </trkpt>
      <trkpt lat="47.13278" lon="16.16678">
        <ele>283.678392</ele>
        <time>2022-08-07T00:56:58.108Z</time>
      </trkpt>
      <trkpt lat="47.13282" lon="16.16679">
        <ele>283.825687</ele>
        <time>2022-08-07T00:57:00.741Z</time>
      </trkpt>
      <trkpt lat="47.13417" lon="16.16747">
        <ele>289.73538</ele>
        <time>2022-08-07T00:58:04.102Z</time>
      </trkpt>
      <trkpt lat="47.13468" lon="16.16752">
        <ele>291.811471</ele>
        <time>2022-08-07T00:58:26.794Z</time>
      </trkpt>
      <trkpt lat="47.13491" lon="16.16746">
        <ele>292.743423</ele>
        <time>2022-08-07T00:58:37.463Z</time>
      </trkpt>
      <trkpt lat="47.13531" lon="16.16722">
        <ele>294.907591</ele>
        <time>2022-08-07T00:58:59.371Z</time>
      </trkpt>
      <trkpt lat="47.13619" lon="16.16676">
        <ele>299.815109</ele>
        <time>2022-08-07T00:59:55.164Z</time>
      </trkpt>
      <trkpt lat="47.13648" lon="16.16666">
        <ele>301.372017</ele>
        <time>2022-08-07T01:00:11.745Z</time>
      </trkpt>
      <trkpt lat="47.13678" lon="16.1667">
        <ele>302.353995</ele>
        <time>2022-08-07T01:00:26.228Z</time>
      </trkpt>
      <trkpt lat="47.13687" lon="16.16675">
        <ele>301.919696</ele>
        <time>2022-08-07T01:00:29.995Z</time>
      </trkpt>
      <trkpt lat="47.13708" lon="16.16705">
        <ele>300.579612</ele>
        <time>2022-08-07T01:00:38.877Z</time>
      </trkpt>
      <trkpt lat="47.13717" lon="16.16756">
        <ele>298.983446</ele>
        <time>2022-08-07T01:00:46.089Z</time>
      </trkpt>
      <trkpt lat="47.13723" lon="16.16809">
        <ele>297.331756</ele>
        <time>2022-08-07T01:00:52.578Z</time>
      </trkpt>
      <trkpt lat="47.13734" lon="16.16839">
        <ele>296.288975</ele>
        <time>2022-08-07T01:00:56.504Z</time>
      </trkpt>
      <trkpt lat="47.13744" lon="16.1685">
        <ele>295.712051</ele>
        <time>2022-08-07T01:00:58.654Z</time>
      </trkpt>
      <trkpt lat="47.13767" lon="16.16872">
        <ele>294.327207</ele>
        <time>2022-08-07T01:01:03.139Z</time>
      </trkpt>
      <trkpt lat="47.13824" lon="16.1693">
        <ele>285.093563</ele>
        <time>2022-08-07T01:01:13.883Z</time>
      </trkpt>
      <trkpt lat="47.1386" lon="16.16979">
        <ele>278.499764</ele>
        <time>2022-08-07T01:01:21.489Z</time>
      </trkpt>
      <trkpt lat="47.13868" lon="16.1699">
        <ele>276.968656</ele>
        <time>2022-08-07T01:01:23.268Z</time>
      </trkpt>
      <trkpt lat="47.139" lon="16.17026">
        <ele>271.58303</ele>
        <time>2022-08-07T01:01:29.569Z</time>
      </trkpt>
      <trkpt lat="47.13913" lon="16.17052">
        <ele>269.202005</ele>
        <time>2022-08-07T01:01:33.035Z</time>
      </trkpt>
      <trkpt lat="47.13913" lon="16.17058">
        <ele>268.820409</ele>
        <time>2022-08-07T01:01:33.708Z</time>
      </trkpt>
      <trkpt lat="47.13914" lon="16.17073">
        <ele>267.896616</ele>
        <time>2022-08-07T01:01:35.347Z</time>
      </trkpt>
      <trkpt lat="47.13913" lon="16.17096">
        <ele>266.457175</ele>
        <time>2022-08-07T01:01:37.894Z</time>
      </trkpt>
      <trkpt lat="47.13913" lon="16.17112">
        <ele>265.422066</ele>
        <time>2022-08-07T01:01:39.739Z</time>
      </trkpt>
      <trkpt lat="47.13912" lon="16.17129">
        <ele>264.362084</ele>
        <time>2022-08-07T01:01:41.637Z</time>
      </trkpt>
      <trkpt lat="47.1391" lon="16.17202">
        <ele>259.847594</ele>
        <time>2022-08-07T01:01:49.762Z</time>
      </trkpt>
      <trkpt lat="47.13911" lon="16.17244">
        <ele>257.224173</ele>
        <time>2022-08-07T01:01:54.585Z</time>
      </trkpt>
      <trkpt lat="47.13921" lon="16.17295">
        <ele>253.904691</ele>
        <time>2022-08-07T01:02:00.846Z</time>
      </trkpt>
      <trkpt lat="47.13933" lon="16.17352">
        <ele>251.88964</ele>
        <time>2022-08-07T01:02:08.151Z</time>
      </trkpt>
      <trkpt lat="47.13935" lon="16.17365">
        <ele>251.462281</ele>
        <time>2022-08-07T01:02:09.722Z</time>
      </trkpt>
      <trkpt lat="47.13936" lon="16.1741">
        <ele>249.945049</ele>
        <time>2022-08-07T01:02:15.371Z</time>
      </trkpt>
      <trkpt lat="47.13933" lon="16.17454">
        <ele>248.493871</ele>
        <time>2022-08-07T01:02:20.812Z</time>
      </trkpt>
      <trkpt lat="47.13931" lon="16.17473">
        <ele>247.867008</ele>
        <time>2022-08-07T01:02:23.110Z</time>
      </trkpt>
      <trkpt lat="47.13923" lon="16.1756">
        <ele>245.0319</ele>
        <time>2022-08-07T01:02:34.293Z</time>
      </trkpt>
      <trkpt lat="47.13914" lon="16.17669">
        <ele>243.575934</ele>
        <time>2022-08-07T01:02:49.603Z</time>
      </trkpt>
      <trkpt lat="47.13912" lon="16.17683">
        <ele>243.378565</ele>
        <time>2022-08-07T01:02:51.740Z</time>
      </trkpt>
      <trkpt lat="47.13921" lon="16.17687">
        <ele>243.202846</ele>
        <time>2022-08-07T01:02:53.781Z</time>
      </trkpt>
      <trkpt lat="47.13923" lon="16.17688">
        <ele>243.166502</ele>
        <time>2022-08-07T01:02:54.196Z</time>
      </trkpt>
      <trkpt lat="47.13943" lon="16.17695">
        <ele>242.746248</ele>
        <time>2022-08-07T01:02:59.004Z</time>
      </trkpt>
      <trkpt lat="47.13947" lon="16.17696">
        <ele>242.680479</ele>
        <time>2022-08-07T01:02:59.728Z</time>
      </trkpt>
      <trkpt lat="47.13985" lon="16.17708">
        <ele>241.907898</ele>
        <time>2022-08-07T01:03:08.672Z</time>
      </trkpt>
      <trkpt lat="47.14053" lon="16.17715">
        <ele>241.729018</ele>
        <time>2022-08-07T01:03:24.932Z</time>
      </trkpt>
      <trkpt lat="47.14076" lon="16.17717">
        <ele>241.792492</ele>
        <time>2022-08-07T01:03:30.899Z</time>
      </trkpt>
      <trkpt lat="47.14098" lon="16.1772">
        <ele>241.85625</ele>
        <time>2022-08-07T01:03:37.062Z</time>
      </trkpt>
      <trkpt lat="47.14122" lon="16.17721">
        <ele>241.924245</ele>
        <time>2022-08-07T01:03:44.023Z</time>
      </trkpt>
      <trkpt lat="47.14135" lon="16.17723">
        <ele>241.963385</ele>
        <time>2022-08-07T01:03:48.238Z</time>
      </trkpt>
      <trkpt lat="47.14184" lon="16.17727">
        <ele>242.139953</ele>
        <time>2022-08-07T01:04:04.236Z</time>
      </trkpt>
      <trkpt lat="47.14194" lon="16.17728">
        <ele>242.294007</ele>
        <time>2022-08-07T01:04:07.527Z</time>
      </trkpt>
      <trkpt lat="47.14212" lon="16.17731">
        <ele>242.58145</ele>
        <time>2022-08-07T01:04:13.808Z</time>
      </trkpt>
      <trkpt lat="47.14249" lon="16.17748">
        <ele>243.218162</ele>
        <time>2022-08-07T01:04:28.128Z</time>
      </trkpt>
      <trkpt lat="47.14254" lon="16.17752">
        <ele>243.305979</ele>
        <time>2022-08-07T01:04:30.117Z</time>
      </trkpt>
      <trkpt lat="47.1427" lon="16.17772">
        <ele>243.65227</ele>
        <time>2022-08-07T01:04:37.874Z</time>
      </trkpt>
      <trkpt lat="47.14282" lon="16.17796">
        <ele>243.976459</ele>
        <time>2022-08-07T01:04:44.996Z</time>
      </trkpt>
      <trkpt lat="47.14286" lon="16.17808">
        <ele>244.117705</ele>
        <time>2022-08-07T01:04:48.066Z</time>
      </trkpt>
      <trkpt lat="47.14348" lon="16.17926">
        <ele>245.103756</ele>
        <time>2022-08-07T01:05:21.950Z</time>
      </trkpt>
      <trkpt lat="47.14317" lon="16.17971">
        <ele>245.200574</ele>
        <time>2022-08-07T01:05:35.407Z</time>
      </trkpt>
      <trkpt lat="47.14293" lon="16.17994">
        <ele>245.263037</ele>
        <time>2022-08-07T01:05:43.423Z</time>
      </trkpt>
      <trkpt lat="47.14268" lon="16.1809">
        <ele>245.25578</ele>
        <time>2022-08-07T01:06:01.092Z</time>
      </trkpt>
      <trkpt lat="47.14241" lon="16.18186">
        <ele>244.252271</ele>
        <time>2022-08-07T01:06:17.168Z</time>
      </trkpt>
      <trkpt lat="47.14239" lon="16.18196">
        <ele>244.150373</ele>
        <time>2022-08-07T01:06:18.763Z</time>
      </trkpt>
      <trkpt lat="47.14166" lon="16.18462">
        <ele>241.777881</ele>
        <time>2022-08-07T01:07:03.781Z</time>
      </trkpt>
      <trkpt lat="47.14056" lon="16.18868">
        <ele>240.006964</ele>
        <time>2022-08-07T01:08:21.478Z</time>
      </trkpt>
      <trkpt lat="47.14053" lon="16.1888">
        <ele>239.953184</ele>
        <time>2022-08-07T01:08:23.693Z</time>
      </trkpt>
      <trkpt lat="47.13913" lon="16.19403">
        <ele>237.792749</ele>
        <time>2022-08-07T01:09:59.267Z</time>
      </trkpt>
      <trkpt lat="47.13831" lon="16.1987">
        <ele>239.453317</ele>
        <time>2022-08-07T01:11:36.732Z</time>
      </trkpt>
      <trkpt lat="47.14071" lon="16.20125">
        <ele>245.999726</ele>
        <time>2022-08-07T01:13:37.859Z</time>
      </trkpt>
      <trkpt lat="47.14056" lon="16.20156">
        <ele>246.545967</ele>
        <time>2022-08-07T01:13:46.319Z</time>
      </trkpt>
      <trkpt lat="47.14058" lon="16.20168">
        <ele>246.554216</ele>
        <time>2022-08-07T01:13:49.118Z</time>
      </trkpt>
      <trkpt lat="47.14054" lon="16.20181">
        <ele>246.564263</ele>
        <time>2022-08-07T01:13:52.085Z</time>
      </trkpt>
      <trkpt lat="47.14039" lon="16.20204">
        <ele>246.586318</ele>
        <time>2022-08-07T01:13:58.576Z</time>
      </trkpt>
      <trkpt lat="47.13994" lon="16.20316">
        <ele>246.677005</ele>
        <time>2022-08-07T01:14:22.304Z</time>
      </trkpt>
      <trkpt lat="47.13951" lon="16.20463">
        <ele>246.697254</ele>
        <time>2022-08-07T01:14:50.723Z</time>
      </trkpt>
      <trkpt lat="47.13897" lon="16.20641">
        <ele>246.58559</ele>
        <time>2022-08-07T01:15:28.466Z</time>
      </trkpt>
      <trkpt lat="47.13855" lon="16.20762">
        <ele>246.203174</ele>
        <time>2022-08-07T01:15:53.727Z</time>
      </trkpt>
      <trkpt lat="47.13627" lon="16.21347">
        <ele>242.227026</ele>
        <time>2022-08-07T01:17:45.664Z</time>
      </trkpt>
      <trkpt lat="47.13524" lon="16.21588">
        <ele>239.739717</ele>
        <time>2022-08-07T01:18:31.887Z</time>
      </trkpt>
      <trkpt lat="47.13432" lon="16.21832">
        <ele>236.315996</ele>
        <time>2022-08-07T01:19:13.240Z</time>
      </trkpt>
      <trkpt lat="47.13368" lon="16.22055">
        <ele>233.977473</ele>
        <time>2022-08-07T01:19:51.739Z</time>
      </trkpt>
      <trkpt lat="47.13337" lon="16.22233">
        <ele>233.034418</ele>
        <time>2022-08-07T01:20:23.445Z</time>
      </trkpt>
      <trkpt lat="47.13323" lon="16.22302">
        <ele>232.79825</ele>
        <time>2022-08-07T01:20:36.206Z</time>
      </trkpt>
      <trkpt lat="47.1328" lon="16.22376">
        <ele>232.625839</ele>
        <time>2022-08-07T01:20:53.919Z</time>
      </trkpt>
      <trkpt lat="47.13257" lon="16.22433">
        <ele>232.508517</ele>
        <time>2022-08-07T01:21:06.048Z</time>
      </trkpt>
      <trkpt lat="47.13239" lon="16.22493">
        <ele>232.386109</ele>
        <time>2022-08-07T01:21:17.976Z</time>
      </trkpt>
      <trkpt lat="47.13221" lon="16.22609">
        <ele>231.950366</ele>
        <time>2022-08-07T01:21:39.482Z</time>
      </trkpt>
      <trkpt lat="47.13164" lon="16.2321">
        <ele>229.605613</ele>
        <time>2022-08-07T01:23:19.616Z</time>
      </trkpt>
      <trkpt lat="47.12989" lon="16.23271">
        <ele>228.546556</ele>
        <time>2022-08-07T01:24:03.095Z</time>
      </trkpt>
      <trkpt lat="47.12986" lon="16.23273">
        <ele>228.523991</ele>
        <time>2022-08-07T01:24:04.040Z</time>
      </trkpt>
      <trkpt lat="47.12962" lon="16.23281">
        <ele>228.384799</ele>
        <time>2022-08-07T01:24:09.916Z</time>
      </trkpt>
      <trkpt lat="47.12958" lon="16.23282">
        <ele>228.361097</ele>
        <time>2022-08-07T01:24:10.927Z</time>
      </trkpt>
      <trkpt lat="47.12981" lon="16.23481">
        <ele>227.813499</ele>
        <time>2022-08-07T01:24:45.443Z</time>
      </trkpt>
      <trkpt lat="47.12986" lon="16.23601">
        <ele>227.530066</ele>
        <time>2022-08-07T01:25:06.190Z</time>
      </trkpt>
      <trkpt lat="47.12983" lon="16.23696">
        <ele>227.345335</ele>
        <time>2022-08-07T01:25:22.668Z</time>
      </trkpt>
      <trkpt lat="47.12967" lon="16.2386">
        <ele>227.108682</ele>
        <time>2022-08-07T01:25:51.347Z</time>
      </trkpt>
      <trkpt lat="47.12942" lon="16.23994">
        <ele>227.146825</ele>
        <time>2022-08-07T01:26:16.275Z</time>
      </trkpt>
      <trkpt lat="47.12916" lon="16.24095">
        <ele>227.203929</ele>
        <time>2022-08-07T01:26:36.813Z</time>
      </trkpt>
      <trkpt lat="47.12841" lon="16.24338">
        <ele>227.606513</ele>
        <time>2022-08-07T01:27:27.820Z</time>
      </trkpt>
      <trkpt lat="47.12801" lon="16.24456">
        <ele>227.549135</ele>
        <time>2022-08-07T01:27:51.868Z</time>
      </trkpt>
      <trkpt lat="47.12726" lon="16.2465">
        <ele>227.320405</ele>
        <time>2022-08-07T01:28:30.866Z</time>
      </trkpt>
      <trkpt lat="47.12655" lon="16.24811">
        <ele>227.056775</ele>
        <time>2022-08-07T01:29:04.066Z</time>
      </trkpt>
      <trkpt lat="47.12587" lon="16.24956">
        <ele>226.958694</ele>
        <time>2022-08-07T01:29:35.382Z</time>
      </trkpt>
      <trkpt lat="47.12481" lon="16.25153">
        <ele>226.98144</ele>
        <time>2022-08-07T01:30:21.903Z</time>
      </trkpt>
      <trkpt lat="47.12372" lon="16.25327">
        <ele>227.034011</ele>
        <time>2022-08-07T01:31:04.318Z</time>
      </trkpt>
      <trkpt lat="47.12344" lon="16.25358">
        <ele>227.045264</ele>
        <time>2022-08-07T01:31:13.793Z</time>
      </trkpt>
      <trkpt lat="47.12347" lon="16.25363">
        <ele>227.046465</ele>
        <time>2022-08-07T01:31:14.835Z</time>
      </trkpt>
      <trkpt lat="47.12364" lon="16.25395">
        <ele>227.073448</ele>
        <time>2022-08-07T01:31:22.427Z</time>
      </trkpt>
      <trkpt lat="47.12366" lon="16.25399">
        <ele>227.086106</ele>
        <time>2022-08-07T01:31:23.467Z</time>
      </trkpt>
      <trkpt lat="47.12368" lon="16.25402">
        <ele>227.093549</ele>
        <time>2022-08-07T01:31:24.085Z</time>
      </trkpt>
      <trkpt lat="47.12436" lon="16.25557">
        <ele>227.509179</ele>
        <time>2022-08-07T01:31:59.759Z</time>
      </trkpt>
      <trkpt lat="47.12449" lon="16.25605">
        <ele>227.623592</ele>
        <time>2022-08-07T01:32:09.741Z</time>
      </trkpt>
      <trkpt lat="47.12454" lon="16.25688">
        <ele>227.987106</ele>
        <time>2022-08-07T01:32:26.581Z</time>
      </trkpt>
      <trkpt lat="47.12458" lon="16.25711">
        <ele>228.094028</ele>
        <time>2022-08-07T01:32:31.261Z</time>
      </trkpt>
      <trkpt lat="47.1247" lon="16.25734">
        <ele>228.226551</ele>
        <time>2022-08-07T01:32:37.095Z</time>
      </trkpt>
      <trkpt lat="47.12496" lon="16.25761">
        <ele>228.446172</ele>
        <time>2022-08-07T01:32:46.769Z</time>
      </trkpt>
      <trkpt lat="47.12511" lon="16.25769">
        <ele>228.552222</ele>
        <time>2022-08-07T01:32:51.448Z</time>
      </trkpt>
      <trkpt lat="47.12552" lon="16.25769">
        <ele>228.832466</ele>
        <time>2022-08-07T01:33:03.901Z</time>
      </trkpt>
      <trkpt lat="47.12857" lon="16.25769">
        <ele>231.195998</ele>
        <time>2022-08-07T01:34:38.109Z</time>
      </trkpt>
      <trkpt lat="47.12859" lon="16.2577">
        <ele>231.206236</ele>
        <time>2022-08-07T01:34:38.556Z</time>
      </trkpt>
      <trkpt lat="47.12865" lon="16.25775">
        <ele>231.255776</ele>
        <time>2022-08-07T01:34:40.679Z</time>
      </trkpt>
      <trkpt lat="47.1277" lon="16.26017">
        <ele>231.948746</ele>
        <time>2022-08-07T01:35:33.941Z</time>
      </trkpt>
      <trkpt lat="47.12755" lon="16.26056">
        <ele>232.024706</ele>
        <time>2022-08-07T01:35:42.193Z</time>
      </trkpt>
      <trkpt lat="47.12739" lon="16.26099">
        <ele>232.17186</ele>
        <time>2022-08-07T01:35:50.990Z</time>
      </trkpt>
      <trkpt lat="47.12711" lon="16.2617">
        <ele>232.473061</ele>
        <time>2022-08-07T01:36:07.329Z</time>
      </trkpt>
      <trkpt lat="47.12669" lon="16.26275">
        <ele>232.91507</ele>
        <time>2022-08-07T01:36:32.259Z</time>
      </trkpt>
      <trkpt lat="47.12664" lon="16.26287">
        <ele>232.969391</ele>
        <time>2022-08-07T01:36:35.224Z</time>
      </trkpt>
      <trkpt lat="47.12687" lon="16.26308">
        <ele>233.333677</ele>
        <time>2022-08-07T01:36:43.458Z</time>
      </trkpt>
      <trkpt lat="47.12694" lon="16.26329">
        <ele>233.602647</ele>
        <time>2022-08-07T01:36:48.114Z</time>
      </trkpt>
      <trkpt lat="47.12694" lon="16.26354">
        <ele>233.883058</ele>
        <time>2022-08-07T01:36:52.943Z</time>
      </trkpt>
      <trkpt lat="47.12693" lon="16.2638">
        <ele>234.182702</ele>
        <time>2022-08-07T01:36:58.143Z</time>
      </trkpt>
      <trkpt lat="47.12696" lon="16.26438">
        <ele>234.85317</ele>
        <time>2022-08-07T01:37:10.888Z</time>
      </trkpt>
      <trkpt lat="47.12711" lon="16.265">
        <ele>235.604137</ele>
        <time>2022-08-07T01:37:27.782Z</time>
      </trkpt>
      <trkpt lat="47.12727" lon="16.26541">
        <ele>236.320448</ele>
        <time>2022-08-07T01:37:41.401Z</time>
      </trkpt>
      <trkpt lat="47.12734" lon="16.26562">
        <ele>237.057142</ele>
        <time>2022-08-07T01:37:47.791Z</time>
      </trkpt>
      <trkpt lat="47.12747" lon="16.26604">
        <ele>238.533259</ele>
        <time>2022-08-07T01:38:02.939Z</time>
      </trkpt>
      <trkpt lat="47.12757" lon="16.26652">
        <ele>240.149687</ele>
        <time>2022-08-07T01:38:20.456Z</time>
      </trkpt>
      <trkpt lat="47.12766" lon="16.2674">
        <ele>242.977062</ele>
        <time>2022-08-07T01:38:51.860Z</time>
      </trkpt>
      <trkpt lat="47.12764" lon="16.26775">
        <ele>244.107094</ele>
        <time>2022-08-07T01:39:04.568Z</time>
      </trkpt>
      <trkpt lat="47.12754" lon="16.26824">
        <ele>245.45223</ele>
        <time>2022-08-07T01:39:23.231Z</time>
      </trkpt>
      <trkpt lat="47.12743" lon="16.26864">
        <ele>246.501344</ele>
        <time>2022-08-07T01:39:38.274Z</time>
      </trkpt>
      <trkpt lat="47.12742" lon="16.26892">
        <ele>247.186042</ele>
        <time>2022-08-07T01:39:47.707Z</time>
      </trkpt>
      <trkpt lat="47.12756" lon="16.26915">
        <ele>247.953005</ele>
        <time>2022-08-07T01:39:57.493Z</time>
      </trkpt>
      <trkpt lat="47.12759" lon="16.26921">
        <ele>248.140079</ele>
        <time>2022-08-07T01:39:59.784Z</time>
      </trkpt>
      <trkpt lat="47.12787" lon="16.2697">
        <ele>249.698159</ele>
        <time>2022-08-07T01:40:17.406Z</time>
      </trkpt>
      <trkpt lat="47.1281" lon="16.27028">
        <ele>250.976455</ele>
        <time>2022-08-07T01:40:32.992Z</time>
      </trkpt>
      <trkpt lat="47.12834" lon="16.27061">
        <ele>250.972612</ele>
        <time>2022-08-07T01:40:42.454Z</time>
      </trkpt>
      <trkpt lat="47.12854" lon="16.27074">
        <ele>250.970185</ele>
        <time>2022-08-07T01:40:48.212Z</time>
      </trkpt>
      <trkpt lat="47.12872" lon="16.27146">
        <ele>250.964165</ele>
        <time>2022-08-07T01:41:01.765Z</time>
      </trkpt>
      <trkpt lat="47.12884" lon="16.27208">
        <ele>250.959183</ele>
        <time>2022-08-07T01:41:12.490Z</time>
      </trkpt>
      <trkpt lat="47.12886" lon="16.27241">
        <ele>250.864772</ele>
        <time>2022-08-07T01:41:18.029Z</time>
      </trkpt>
      <trkpt lat="47.12869" lon="16.27334">
        <ele>249.391528</ele>
        <time>2022-08-07T01:41:32.469Z</time>
      </trkpt>
      <trkpt lat="47.12857" lon="16.2738">
        <ele>248.634518</ele>
        <time>2022-08-07T01:41:39.406Z</time>
      </trkpt>
      <trkpt lat="47.12853" lon="16.27429">
        <ele>247.87667</ele>
        <time>2022-08-07T01:41:46.060Z</time>
      </trkpt>
      <trkpt lat="47.12857" lon="16.27466">
        <ele>247.306731</ele>
        <time>2022-08-07T01:41:50.954Z</time>
      </trkpt>
      <trkpt lat="47.129" lon="16.27598">
        <ele>244.684531</ele>
        <time>2022-08-07T01:42:10.078Z</time>
      </trkpt>
      <trkpt lat="47.12911" lon="16.27638">
        <ele>243.892774</ele>
        <time>2022-08-07T01:42:15.784Z</time>
      </trkpt>
      <trkpt lat="47.12914" lon="16.27655">
        <ele>243.566741</ele>
        <time>2022-08-07T01:42:18.229Z</time>
      </trkpt>
      <trkpt lat="47.12909" lon="16.27725">
        <ele>242.261879</ele>
        <time>2022-08-07T01:42:28.009Z</time>
      </trkpt>
      <trkpt lat="47.12909" lon="16.27728">
        <ele>242.194308</ele>
        <time>2022-08-07T01:42:28.557Z</time>
      </trkpt>
      <trkpt lat="47.12906" lon="16.27744">
        <ele>242.004065</ele>
        <time>2022-08-07T01:42:30.992Z</time>
      </trkpt>
      <trkpt lat="47.12906" lon="16.27757">
        <ele>242.006349</ele>
        <time>2022-08-07T01:42:32.892Z</time>
      </trkpt>
      <trkpt lat="47.13147" lon="16.27692">
        <ele>242.308592</ele>
        <time>2022-08-07T01:43:46.133Z</time>
      </trkpt>
      <trkpt lat="47.13269" lon="16.27638">
        <ele>242.72237</ele>
        <time>2022-08-07T01:44:22.994Z</time>
      </trkpt>
      <trkpt lat="47.13595" lon="16.27611">
        <ele>244.200926</ele>
        <time>2022-08-07T01:45:58.219Z</time>
      </trkpt>
      <trkpt lat="47.13652" lon="16.27608">
        <ele>245.695211</ele>
        <time>2022-08-07T01:46:29.592Z</time>
      </trkpt>
      <trkpt lat="47.13707" lon="16.27597">
        <ele>247.335827</ele>
        <time>2022-08-07T01:47:02.363Z</time>
      </trkpt>
      <trkpt lat="47.13835" lon="16.2755">
        <ele>251.38735</ele>
        <time>2022-08-07T01:48:25.969Z</time>
      </trkpt>
      <trkpt lat="47.13937" lon="16.27549">
        <ele>254.705157</ele>
        <time>2022-08-07T01:49:27.175Z</time>
      </trkpt>
      <trkpt lat="47.1397" lon="16.2755">
        <ele>255.576992</ele>
        <time>2022-08-07T01:49:45.975Z</time>
      </trkpt>
      <trkpt lat="47.14032" lon="16.27585">
        <ele>256.514223</ele>
        <time>2022-08-07T01:50:20.853Z</time>
      </trkpt>
      <trkpt lat="47.14147" lon="16.27727">
        <ele>258.433866</ele>
        <time>2022-08-07T01:51:34.250Z</time>
      </trkpt>
      <trkpt lat="47.14177" lon="16.27772">
        <ele>258.839868</ele>
        <time>2022-08-07T01:51:55.096Z</time>
      </trkpt>
      <trkpt lat="47.14404" lon="16.28038">
        <ele>261.677767</ele>
        <time>2022-08-07T01:54:19.236Z</time>
      </trkpt>
      <trkpt lat="47.14444" lon="16.28094">
        <ele>261.854741</ele>
        <time>2022-08-07T01:54:45.525Z</time>
      </trkpt>
      <trkpt lat="47.14469" lon="16.28121">
        <ele>261.955522</ele>
        <time>2022-08-07T01:54:59.949Z</time>
      </trkpt>
      <trkpt lat="47.14503" lon="16.28136">
        <ele>262.068489</ele>
        <time>2022-08-07T01:55:15.714Z</time>
      </trkpt>
      <trkpt lat="47.1465" lon="16.28177">
        <ele>262.015828</ele>
        <time>2022-08-07T01:56:19.872Z</time>
      </trkpt>
      <trkpt lat="47.14746" lon="16.28189">
        <ele>262.108382</ele>
        <time>2022-08-07T01:57:02.399Z</time>
      </trkpt>
      <trkpt lat="47.14853" lon="16.28223">
        <ele>262.811698</ele>
        <time>2022-08-07T01:57:54.906Z</time>
      </trkpt>
      <trkpt lat="47.14932" lon="16.28224">
        <ele>263.738867</ele>
        <time>2022-08-07T01:58:34.088Z</time>
      </trkpt>
      <trkpt lat="47.14988" lon="16.28218">
        <ele>264.710096</ele>
        <time>2022-08-07T01:59:03.463Z</time>
      </trkpt>
      <trkpt lat="47.15026" lon="16.28201">
        <ele>265.406028</ele>
        <time>2022-08-07T01:59:25.541Z</time>
      </trkpt>
      <trkpt lat="47.15051" lon="16.28203">
        <ele>265.838865</ele>
        <time>2022-08-07T01:59:39.638Z</time>
      </trkpt>
      <trkpt lat="47.15086" lon="16.28214">
        <ele>266.272281</ele>
        <time>2022-08-07T01:59:59.001Z</time>
      </trkpt>
      <trkpt lat="47.15114" lon="16.28232">
        <ele>266.452881</ele>
        <time>2022-08-07T02:00:15.658Z</time>
      </trkpt>
      <trkpt lat="47.15183" lon="16.28298">
        <ele>266.932637</ele>
        <time>2022-08-07T02:00:58.615Z</time>
      </trkpt>
      <trkpt lat="47.15298" lon="16.28421">
        <ele>264.360524</ele>
        <time>2022-08-07T02:01:51.446Z</time>
      </trkpt>
      <trkpt lat="47.15314" lon="16.2841">
        <ele>263.818135</ele>
        <time>2022-08-07T02:01:57.283Z</time>
      </trkpt>
      <trkpt lat="47.15327" lon="16.28366">
        <ele>262.764974</ele>
        <time>2022-08-07T02:02:08.394Z</time>
      </trkpt>
      <trkpt lat="47.15332" lon="16.2835">
        <ele>262.38768</ele>
        <time>2022-08-07T02:02:11.371Z</time>
      </trkpt>
      <trkpt lat="47.15357" lon="16.28263">
        <ele>260.602061</ele>
        <time>2022-08-07T02:02:27.971Z</time>
      </trkpt>
      <trkpt lat="47.15415" lon="16.28304">
        <ele>258.984018</ele>
        <time>2022-08-07T02:02:40.229Z</time>
      </trkpt>
      <trkpt lat="47.15547" lon="16.28353">
        <ele>256.949784</ele>
        <time>2022-08-07T02:03:13.354Z</time>
      </trkpt>
      <trkpt lat="47.15584" lon="16.28373">
        <ele>256.902783</ele>
        <time>2022-08-07T02:03:24.097Z</time>
      </trkpt>
      <trkpt lat="47.15615" lon="16.2839">
        <ele>256.862549</ele>
        <time>2022-08-07T02:03:33.217Z</time>
      </trkpt>
      <trkpt lat="47.15723" lon="16.28439">
        <ele>257.225167</ele>
        <time>2022-08-07T02:04:03.637Z</time>
      </trkpt>
      <trkpt lat="47.15766" lon="16.28471">
        <ele>257.54132</ele>
        <time>2022-08-07T02:04:18.349Z</time>
      </trkpt>
      <trkpt lat="47.15788" lon="16.28498">
        <ele>257.732143</ele>
        <time>2022-08-07T02:04:27.455Z</time>
      </trkpt>
      <trkpt lat="47.15794" lon="16.28504">
        <ele>257.778639</ele>
        <time>2022-08-07T02:04:29.679Z</time>
      </trkpt>
      <trkpt lat="47.15824" lon="16.28552">
        <ele>258.142584</ele>
        <time>2022-08-07T02:04:44.102Z</time>
      </trkpt>
      <trkpt lat="47.15867" lon="16.28631">
        <ele>258.969359</ele>
        <time>2022-08-07T02:05:06.746Z</time>
      </trkpt>
      <trkpt lat="47.1587" lon="16.28637">
        <ele>259.027509</ele>
        <time>2022-08-07T02:05:08.285Z</time>
      </trkpt>
      <trkpt lat="47.15894" lon="16.28685">
        <ele>259.515894</ele>
        <time>2022-08-07T02:05:21.761Z</time>
      </trkpt>
      <trkpt lat="47.15935" lon="16.28772">
        <ele>260.324148</ele>
        <time>2022-08-07T02:05:45.202Z</time>
      </trkpt>
      <trkpt lat="47.15936" lon="16.28777">
        <ele>260.358761</ele>
        <time>2022-08-07T02:05:46.511Z</time>
      </trkpt>
      <trkpt lat="47.15953" lon="16.28821">
        <ele>260.670307</ele>
        <time>2022-08-07T02:05:56.609Z</time>
      </trkpt>
      <trkpt lat="47.15975" lon="16.28919">
        <ele>261.316102</ele>
        <time>2022-08-07T02:06:17.066Z</time>
      </trkpt>
      <trkpt lat="47.15979" lon="16.28916">
        <ele>261.35514</ele>
        <time>2022-08-07T02:06:18.610Z</time>
      </trkpt>
      <trkpt lat="47.15975" lon="16.28919">
        <ele>261.394177</ele>
        <time>2022-08-07T02:06:19.772Z</time>
      </trkpt>
      <trkpt lat="47.15978" lon="16.28965">
        <ele>261.67837</ele>
        <time>2022-08-07T02:06:29.568Z</time>
      </trkpt>
      <trkpt lat="47.15971" lon="16.29069">
        <ele>262.843104</ele>
        <time>2022-08-07T02:06:54.076Z</time>
      </trkpt>
      <trkpt lat="47.15962" lon="16.29132">
        <ele>263.634807</ele>
        <time>2022-08-07T02:07:08.465Z</time>
      </trkpt>
      <trkpt lat="47.1596" lon="16.29148">
        <ele>263.847001</ele>
        <time>2022-08-07T02:07:12.243Z</time>
      </trkpt>
      <trkpt lat="47.15958" lon="16.29165">
        <ele>264.051932</ele>
        <time>2022-08-07T02:07:16.079Z</time>
      </trkpt>
      <trkpt lat="47.15955" lon="16.29184">
        <ele>264.299757</ele>
        <time>2022-08-07T02:07:21.058Z</time>
      </trkpt>
      <trkpt lat="47.15942" lon="16.29254">
        <ele>265.433774</ele>
        <time>2022-08-07T02:07:39.005Z</time>
      </trkpt>
      <trkpt lat="47.15935" lon="16.29273">
        <ele>266.19092</ele>
        <time>2022-08-07T02:07:45.405Z</time>
      </trkpt>
      <trkpt lat="47.15938" lon="16.29279">
        <ele>266.476413</ele>
        <time>2022-08-07T02:07:47.940Z</time>
      </trkpt>
      <trkpt lat="47.15959" lon="16.29296">
        <ele>267.719689</ele>
        <time>2022-08-07T02:07:58.916Z</time>
      </trkpt>
      <trkpt lat="47.15991" lon="16.29327">
        <ele>269.742384</ele>
        <time>2022-08-07T02:08:19.577Z</time>
      </trkpt>
      <trkpt lat="47.16016" lon="16.29374">
        <ele>271.895898</ele>
        <time>2022-08-07T02:08:43.569Z</time>
      </trkpt>
      <trkpt lat="47.16031" lon="16.29401">
        <ele>273.14516</ele>
        <time>2022-08-07T02:08:57.163Z</time>
      </trkpt>
      <trkpt lat="47.16092" lon="16.29526">
        <ele>280.16945</ele>
        <time>2022-08-07T02:10:01.242Z</time>
      </trkpt>
      <trkpt lat="47.1617" lon="16.29586">
        <ele>286.499723</ele>
        <time>2022-08-07T02:10:59.072Z</time>
      </trkpt>
      <trkpt lat="47.16213" lon="16.29629">
        <ele>289.417388</ele>
        <time>2022-08-07T02:11:30.812Z</time>
      </trkpt>
      <trkpt lat="47.16238" lon="16.29645">
        <ele>290.777643</ele>
        <time>2022-08-07T02:11:45.537Z</time>
      </trkpt>
      <trkpt lat="47.16271" lon="16.29672">
        <ele>292.686079</ele>
        <time>2022-08-07T02:12:05.064Z</time>
      </trkpt>
      <trkpt lat="47.16287" lon="16.29715">
        <ele>294.362515</ele>
        <time>2022-08-07T02:12:21.062Z</time>
      </trkpt>
      <trkpt lat="47.16288" lon="16.29742">
        <ele>295.274997</ele>
        <time>2022-08-07T02:12:29.319Z</time>
      </trkpt>
      <trkpt lat="47.16277" lon="16.29775">
        <ele>296.516492</ele>
        <time>2022-08-07T02:12:40.277Z</time>
      </trkpt>
      <trkpt lat="47.16246" lon="16.29842">
        <ele>297.399899</ele>
        <time>2022-08-07T02:13:04.019Z</time>
      </trkpt>
      <trkpt lat="47.16221" lon="16.29883">
        <ele>297.970415</ele>
        <time>2022-08-07T02:13:17.912Z</time>
      </trkpt>
      <trkpt lat="47.16218" lon="16.29888">
        <ele>298.041998</ele>
        <time>2022-08-07T02:13:19.477Z</time>
      </trkpt>
      <trkpt lat="47.16214" lon="16.29912">
        <ele>298.298902</ele>
        <time>2022-08-07T02:13:25.074Z</time>
      </trkpt>
      <trkpt lat="47.16288" lon="16.30052">
        <ele>299.159708</ele>
        <time>2022-08-07T02:13:57.988Z</time>
      </trkpt>
      <trkpt lat="47.16355" lon="16.30175">
        <ele>298.851308</ele>
        <time>2022-08-07T02:14:25.941Z</time>
      </trkpt>
      <trkpt lat="47.1654" lon="16.30515">
        <ele>297.293257</ele>
        <time>2022-08-07T02:15:42.311Z</time>
      </trkpt>
      <trkpt lat="47.16608" lon="16.30642">
        <ele>296.669225</ele>
        <time>2022-08-07T02:16:09.036Z</time>
      </trkpt>
      <trkpt lat="47.16627" lon="16.30676">
        <ele>296.607961</ele>
        <time>2022-08-07T02:16:16.459Z</time>
      </trkpt>
      <trkpt lat="47.16693" lon="16.30798">
        <ele>296.387171</ele>
        <time>2022-08-07T02:16:45.433Z</time>
      </trkpt>
      <trkpt lat="47.16698" lon="16.30807">
        <ele>296.37087</ele>
        <time>2022-08-07T02:16:47.885Z</time>
      </trkpt>
      <trkpt lat="47.1672" lon="16.30847">
        <ele>296.522261</ele>
        <time>2022-08-07T02:16:59.102Z</time>
      </trkpt>
      <trkpt lat="47.16738" lon="16.30881">
        <ele>296.706532</ele>
        <time>2022-08-07T02:17:08.701Z</time>
      </trkpt>
      <trkpt lat="47.16919" lon="16.31223">
        <ele>298.404427</ele>
        <time>2022-08-07T02:18:39.445Z</time>
      </trkpt>
      <trkpt lat="47.16976" lon="16.31333">
        <ele>298.503877</ele>
        <time>2022-08-07T02:19:05.391Z</time>
      </trkpt>
      <trkpt lat="47.16992" lon="16.31362">
        <ele>298.51789</ele>
        <time>2022-08-07T02:19:12.230Z</time>
      </trkpt>
      <trkpt lat="47.16999" lon="16.31378">
        <ele>298.525463</ele>
        <time>2022-08-07T02:19:15.874Z</time>
      </trkpt>
      <trkpt lat="47.17125" lon="16.31621">
        <ele>298.693481</ele>
        <time>2022-08-07T02:20:14.743Z</time>
      </trkpt>
      <trkpt lat="47.17201" lon="16.31781">
        <ele>298.950966</ele>
        <time>2022-08-07T02:20:51.809Z</time>
      </trkpt>
      <trkpt lat="47.17206" lon="16.31793">
        <ele>298.972934</ele>
        <time>2022-08-07T02:20:54.506Z</time>
      </trkpt>
      <trkpt lat="47.17209" lon="16.31798">
        <ele>298.98323</ele>
        <time>2022-08-07T02:20:55.772Z</time>
      </trkpt>
      <trkpt lat="47.17348" lon="16.32102">
        <ele>300.391651</ele>
        <time>2022-08-07T02:22:12.530Z</time>
      </trkpt>
      <trkpt lat="47.17455" lon="16.3233">
        <ele>302.164193</ele>
        <time>2022-08-07T02:23:13.896Z</time>
      </trkpt>
      <trkpt lat="47.17536" lon="16.32519">
        <ele>303.565066</ele>
        <time>2022-08-07T02:24:02.072Z</time>
      </trkpt>
      <trkpt lat="47.17574" lon="16.32583">
        <ele>304.460737</ele>
        <time>2022-08-07T02:24:20.975Z</time>
      </trkpt>
      <trkpt lat="47.17611" lon="16.32631">
        <ele>305.311223</ele>
        <time>2022-08-07T02:24:38.159Z</time>
      </trkpt>
      <trkpt lat="47.17706" lon="16.3275">
        <ele>307.177938</ele>
        <time>2022-08-07T02:25:27.145Z</time>
      </trkpt>
      <trkpt lat="47.17738" lon="16.32768">
        <ele>307.511571</ele>
        <time>2022-08-07T02:25:40.653Z</time>
      </trkpt>
      <trkpt lat="47.17854" lon="16.32789">
        <ele>308.015929</ele>
        <time>2022-08-07T02:26:16.901Z</time>
      </trkpt>
      <trkpt lat="47.17868" lon="16.32796">
        <ele>307.237559</ele>
        <time>2022-08-07T02:26:20.879Z</time>
      </trkpt>
      <trkpt lat="47.18006" lon="16.32876">
        <ele>299.795676</ele>
        <time>2022-08-07T02:26:48.679Z</time>
      </trkpt>
      <trkpt lat="47.1818" lon="16.33033">
        <ele>279.530511</ele>
        <time>2022-08-07T02:27:23.067Z</time>
      </trkpt>
      <trkpt lat="47.18194" lon="16.33043">
        <ele>278.110447</ele>
        <time>2022-08-07T02:27:25.816Z</time>
      </trkpt>
      <trkpt lat="47.1827" lon="16.33096">
        <ele>270.735509</ele>
        <time>2022-08-07T02:27:40.232Z</time>
      </trkpt>
      <trkpt lat="47.18323" lon="16.33148">
        <ele>265.18704</ele>
        <time>2022-08-07T02:27:51.640Z</time>
      </trkpt>
      <trkpt lat="47.18398" lon="16.33279">
        <ele>260.318957</ele>
        <time>2022-08-07T02:28:13.974Z</time>
      </trkpt>
      <trkpt lat="47.18369" lon="16.33312">
        <ele>258.772403</ele>
        <time>2022-08-07T02:28:21.349Z</time>
      </trkpt>
      <trkpt lat="47.18324" lon="16.33365">
        <ele>257.384301</ele>
        <time>2022-08-07T02:28:33.572Z</time>
      </trkpt>
      <trkpt lat="47.18308" lon="16.33406">
        <ele>257.034587</ele>
        <time>2022-08-07T02:28:40.898Z</time>
      </trkpt>
      <trkpt lat="47.18298" lon="16.33451">
        <ele>256.691627</ele>
        <time>2022-08-07T02:28:48.611Z</time>
      </trkpt>
      <trkpt lat="47.1828" lon="16.33566">
        <ele>255.824746</ele>
        <time>2022-08-07T02:29:08.815Z</time>
      </trkpt>
      <trkpt lat="47.18289" lon="16.33652">
        <ele>255.221288</ele>
        <time>2022-08-07T02:29:22.346Z</time>
      </trkpt>
      <trkpt lat="47.18285" lon="16.33725">
        <ele>254.715358</ele>
        <time>2022-08-07T02:29:33.526Z</time>
      </trkpt>
      <trkpt lat="47.18279" lon="16.33777">
        <ele>254.354382</ele>
        <time>2022-08-07T02:29:41.656Z</time>
      </trkpt>
      <trkpt lat="47.18283" lon="16.3382">
        <ele>254.056886</ele>
        <time>2022-08-07T02:29:48.488Z</time>
      </trkpt>
      <trkpt lat="47.18299" lon="16.33877">
        <ele>253.776041</ele>
        <time>2022-08-07T02:29:58.294Z</time>
      </trkpt>
      <trkpt lat="47.18331" lon="16.33862">
        <ele>253.576628</ele>
        <time>2022-08-07T02:30:06.312Z</time>
      </trkpt>
      <trkpt lat="47.18375" lon="16.33853">
        <ele>253.317546</ele>
        <time>2022-08-07T02:30:16.804Z</time>
      </trkpt>
      <trkpt lat="47.18405" lon="16.33853">
        <ele>253.142808</ele>
        <time>2022-08-07T02:30:24.218Z</time>
      </trkpt>
      <trkpt lat="47.18449" lon="16.33865">
        <ele>252.937446</ele>
        <time>2022-08-07T02:30:35.885Z</time>
      </trkpt>
      <trkpt lat="47.18555" lon="16.33936">
        <ele>253.236717</ele>
        <time>2022-08-07T02:31:08.397Z</time>
      </trkpt>
      <trkpt lat="47.18664" lon="16.34024">
        <ele>253.726764</ele>
        <time>2022-08-07T02:31:44.219Z</time>
      </trkpt>
      <trkpt lat="47.1888" lon="16.34185">
        <ele>254.987563</ele>
        <time>2022-08-07T02:32:55.434Z</time>
      </trkpt>
      <trkpt lat="47.18882" lon="16.34187">
        <ele>255.002393</ele>
        <time>2022-08-07T02:32:56.254Z</time>
      </trkpt>
      <trkpt lat="47.18884" lon="16.34188">
        <ele>255.011072</ele>
        <time>2022-08-07T02:32:56.727Z</time>
      </trkpt>
      <trkpt lat="47.18904" lon="16.34203">
        <ele>255.130476</ele>
        <time>2022-08-07T02:33:03.316Z</time>
      </trkpt>
      <trkpt lat="47.18909" lon="16.34206">
        <ele>255.15871</ele>
        <time>2022-08-07T02:33:04.861Z</time>
      </trkpt>
      <trkpt lat="47.19014" lon="16.34283">
        <ele>255.583431</ele>
        <time>2022-08-07T02:33:38.428Z</time>
      </trkpt>
      <trkpt lat="47.19017" lon="16.34284">
        <ele>255.592803</ele>
        <time>2022-08-07T02:33:39.222Z</time>
      </trkpt>
      <trkpt lat="47.19035" lon="16.34298">
        <ele>255.661084</ele>
        <time>2022-08-07T02:33:44.948Z</time>
      </trkpt>
      <trkpt lat="47.1904" lon="16.34302">
        <ele>255.681519</ele>
        <time>2022-08-07T02:33:46.637Z</time>
      </trkpt>
      <trkpt lat="47.19077" lon="16.34328">
        <ele>255.81848</ele>
        <time>2022-08-07T02:33:58.176Z</time>
      </trkpt>
      <trkpt lat="47.19117" lon="16.34353">
        <ele>255.979628</ele>
        <time>2022-08-07T02:34:10.232Z</time>
      </trkpt>
      <trkpt lat="47.19123" lon="16.34354">
        <ele>256.001559</ele>
        <time>2022-08-07T02:34:11.833Z</time>
      </trkpt>
      <trkpt lat="47.19183" lon="16.34359">
        <ele>256.232386</ele>
        <time>2022-08-07T02:34:28.660Z</time>
      </trkpt>
      <trkpt lat="47.19205" lon="16.34448">
        <ele>256.479267</ele>
        <time>2022-08-07T02:34:46.973Z</time>
      </trkpt>
      <trkpt lat="47.19241" lon="16.34591">
        <ele>257.524525</ele>
        <time>2022-08-07T02:35:18.106Z</time>
      </trkpt>
      <trkpt lat="47.19288" lon="16.34763">
        <ele>259.026294</ele>
        <time>2022-08-07T02:36:01.350Z</time>
      </trkpt>
      <trkpt lat="47.19356" lon="16.3494">
        <ele>260.95315</ele>
        <time>2022-08-07T02:36:48.559Z</time>
      </trkpt>
      <trkpt lat="47.19428" lon="16.35128">
        <ele>261.955819</ele>
        <time>2022-08-07T02:37:31.295Z</time>
      </trkpt>
      <trkpt lat="47.19446" lon="16.35176">
        <ele>262.194607</ele>
        <time>2022-08-07T02:37:41.451Z</time>
      </trkpt>
      <trkpt lat="47.19472" lon="16.35251">
        <ele>262.786251</ele>
        <time>2022-08-07T02:37:58.888Z</time>
      </trkpt>
      <trkpt lat="47.19498" lon="16.3538">
        <ele>263.766005</ele>
        <time>2022-08-07T02:38:28.903Z</time>
      </trkpt>
      <trkpt lat="47.19503" lon="16.35404">
        <ele>263.942535</ele>
        <time>2022-08-07T02:38:34.836Z</time>
      </trkpt>
      <trkpt lat="47.19511" lon="16.35462">
        <ele>264.10521</ele>
        <time>2022-08-07T02:38:48.998Z</time>
      </trkpt>
      <trkpt lat="47.19527" lon="16.35628">
        <ele>263.931545</ele>
        <time>2022-08-07T02:39:20.141Z</time>
      </trkpt>
      <trkpt lat="47.19537" lon="16.35672">
        <ele>263.883962</ele>
        <time>2022-08-07T02:39:27.024Z</time>
      </trkpt>
      <trkpt lat="47.19556" lon="16.35723">
        <ele>263.225781</ele>
        <time>2022-08-07T02:39:35.404Z</time>
      </trkpt>
      <trkpt lat="47.1959" lon="16.35806">
        <ele>261.66565</ele>
        <time>2022-08-07T02:39:48.910Z</time>
      </trkpt>
      <trkpt lat="47.19715" lon="16.36109">
        <ele>255.991529</ele>
        <time>2022-08-07T02:40:37.431Z</time>
      </trkpt>
      <trkpt lat="47.19719" lon="16.3612">
        <ele>255.792867</ele>
        <time>2022-08-07T02:40:38.935Z</time>
      </trkpt>
      <trkpt lat="47.19868" lon="16.36484">
        <ele>253.34775</ele>
        <time>2022-08-07T02:41:48.572Z</time>
      </trkpt>
      <trkpt lat="47.19876" lon="16.36505">
        <ele>253.263974</ele>
        <time>2022-08-07T02:41:52.968Z</time>
      </trkpt>
      <trkpt lat="47.20017" lon="16.36851">
        <ele>252.072353</ele>
        <time>2022-08-07T02:43:01.559Z</time>
      </trkpt>
      <trkpt lat="47.20061" lon="16.36955">
        <ele>251.672565</ele>
        <time>2022-08-07T02:43:22.184Z</time>
      </trkpt>
      <trkpt lat="47.20211" lon="16.37321">
        <ele>250.142243</ele>
        <time>2022-08-07T02:44:33.533Z</time>
      </trkpt>
      <trkpt lat="47.20256" lon="16.3743">
        <ele>249.563973</ele>
        <time>2022-08-07T02:44:54.877Z</time>
      </trkpt>
      <trkpt lat="47.20351" lon="16.37656">
        <ele>248.135019</ele>
        <time>2022-08-07T02:45:37.032Z</time>
      </trkpt>
      <trkpt lat="47.20433" lon="16.37865">
        <ele>247.073028</ele>
        <time>2022-08-07T02:46:15.898Z</time>
      </trkpt>
      <trkpt lat="47.20486" lon="16.37984">
        <ele>246.664888</ele>
        <time>2022-08-07T02:46:40.811Z</time>
      </trkpt>
      <trkpt lat="47.206" lon="16.38187">
        <ele>246.588099</ele>
        <time>2022-08-07T02:47:28.561Z</time>
      </trkpt>
      <trkpt lat="47.20614" lon="16.3823">
        <ele>246.615964</ele>
        <time>2022-08-07T02:47:36.945Z</time>
      </trkpt>
      <trkpt lat="47.20631" lon="16.38339">
        <ele>246.681425</ele>
        <time>2022-08-07T02:47:56.875Z</time>
      </trkpt>
      <trkpt lat="47.20625" lon="16.38496">
        <ele>247.586118</ele>
        <time>2022-08-07T02:48:27.884Z</time>
      </trkpt>
      <trkpt lat="47.20636" lon="16.38578">
        <ele>248.429913</ele>
        <time>2022-08-07T02:48:46.604Z</time>
      </trkpt>
      <trkpt lat="47.20671" lon="16.38746">
        <ele>251.716157</ele>
        <time>2022-08-07T02:49:32.645Z</time>
      </trkpt>
      <trkpt lat="47.2068" lon="16.38788">
        <ele>252.995356</ele>
        <time>2022-08-07T02:49:46.237Z</time>
      </trkpt>
      <trkpt lat="47.20695" lon="16.38857">
        <ele>255.084788</ele>
        <time>2022-08-07T02:50:10.287Z</time>
      </trkpt>
      <trkpt lat="47.20707" lon="16.38949">
        <ele>258.301036</ele>
        <time>2022-08-07T02:50:46.031Z</time>
      </trkpt>
      <trkpt lat="47.20791" lon="16.38935">
        <ele>264.281683</ele>
        <time>2022-08-07T02:51:35.040Z</time>
      </trkpt>
      <trkpt lat="47.2079" lon="16.38959">
        <ele>265.438745</ele>
        <time>2022-08-07T02:51:45.300Z</time>
      </trkpt>
      <trkpt lat="47.20788" lon="16.39007">
        <ele>267.735644</ele>
        <time>2022-08-07T02:52:06.997Z</time>
      </trkpt>
      <trkpt lat="47.20792" lon="16.39025">
        <ele>268.659069</ele>
        <time>2022-08-07T02:52:15.526Z</time>
      </trkpt>
      <trkpt lat="47.20832" lon="16.39105">
        <ele>274.15162</ele>
        <time>2022-08-07T02:53:01.911Z</time>
      </trkpt>
      <trkpt lat="47.20841" lon="16.39161">
        <ele>277.430818</ele>
        <time>2022-08-07T02:53:28.675Z</time>
      </trkpt>
      <trkpt lat="47.20846" lon="16.39179">
        <ele>278.570584</ele>
        <time>2022-08-07T02:53:38.090Z</time>
      </trkpt>
      <trkpt lat="47.20906" lon="16.39487">
        <ele>296.44455</ele>
        <time>2022-08-07T02:56:06.620Z</time>
      </trkpt>
      <trkpt lat="47.21006" lon="16.39448">
        <ele>302.948818</ele>
        <time>2022-08-07T02:57:11.720Z</time>
      </trkpt>
      <trkpt lat="47.21084" lon="16.39452">
        <ele>307.019102</ele>
        <time>2022-08-07T02:57:51.349Z</time>
      </trkpt>
      <trkpt lat="47.21128" lon="16.39462">
        <ele>308.958272</ele>
        <time>2022-08-07T02:58:10.675Z</time>
      </trkpt>
      <trkpt lat="47.21145" lon="16.39494">
        <ele>309.225415</ele>
        <time>2022-08-07T02:58:20.622Z</time>
      </trkpt>
      <trkpt lat="47.21187" lon="16.39548">
        <ele>309.76694</ele>
        <time>2022-08-07T02:58:39.321Z</time>
      </trkpt>
      <trkpt lat="47.21342" lon="16.39719">
        <ele>309.409064</ele>
        <time>2022-08-07T02:59:32.034Z</time>
      </trkpt>
      <trkpt lat="47.21406" lon="16.39824">
        <ele>306.987088</ele>
        <time>2022-08-07T02:59:53.311Z</time>
      </trkpt>
      <trkpt lat="47.21431" lon="16.3994">
        <ele>301.151818</ele>
        <time>2022-08-07T03:00:08.721Z</time>
      </trkpt>
      <trkpt lat="47.21432" lon="16.40058">
        <ele>295.226014</ele>
        <time>2022-08-07T03:00:22.398Z</time>
      </trkpt>
      <trkpt lat="47.21406" lon="16.40286">
        <ele>275.179947</ele>
        <time>2022-08-07T03:00:48.374Z</time>
      </trkpt>
      <trkpt lat="47.21397" lon="16.40357">
        <ele>269.617317</ele>
        <time>2022-08-07T03:00:56.441Z</time>
      </trkpt>
      <trkpt lat="47.21442" lon="16.40445">
        <ele>261.539394</ele>
        <time>2022-08-07T03:01:09.045Z</time>
      </trkpt>
      <trkpt lat="47.21467" lon="16.40477">
        <ele>258.016774</ele>
        <time>2022-08-07T03:01:14.664Z</time>
      </trkpt>
      <trkpt lat="47.21491" lon="16.40498">
        <ele>255.006064</ele>
        <time>2022-08-07T03:01:19.548Z</time>
      </trkpt>
      <trkpt lat="47.21558" lon="16.40531">
        <ele>250.803143</ele>
        <time>2022-08-07T03:01:32.072Z</time>
      </trkpt>
      <trkpt lat="47.21554" lon="16.40583">
        <ele>249.044602</ele>
        <time>2022-08-07T03:01:38.934Z</time>
      </trkpt>
      <trkpt lat="47.21554" lon="16.40596">
        <ele>248.61677</ele>
        <time>2022-08-07T03:01:40.655Z</time>
      </trkpt>
      <trkpt lat="47.21557" lon="16.40603">
        <ele>248.354488</ele>
        <time>2022-08-07T03:01:41.714Z</time>
      </trkpt>
      <trkpt lat="47.21592" lon="16.40723">
        <ele>244.536998</ele>
        <time>2022-08-07T03:01:59.828Z</time>
      </trkpt>
      <trkpt lat="47.21648" lon="16.40689">
        <ele>243.737955</ele>
        <time>2022-08-07T03:02:12.992Z</time>
      </trkpt>
      <trkpt lat="47.21704" lon="16.40676">
        <ele>242.994777</ele>
        <time>2022-08-07T03:02:25.972Z</time>
      </trkpt>
      <trkpt lat="47.21716" lon="16.40675">
        <ele>242.829999</ele>
        <time>2022-08-07T03:02:28.989Z</time>
      </trkpt>
      <trkpt lat="47.21733" lon="16.40676">
        <ele>242.611173</ele>
        <time>2022-08-07T03:02:33.182Z</time>
      </trkpt>
      <trkpt lat="47.21801" lon="16.40693">
        <ele>242.558814</ele>
        <time>2022-08-07T03:02:52.149Z</time>
      </trkpt>
      <trkpt lat="47.21816" lon="16.40702">
        <ele>242.617497</ele>
        <time>2022-08-07T03:02:56.701Z</time>
      </trkpt>
      <trkpt lat="47.21826" lon="16.40709">
        <ele>242.657288</ele>
        <time>2022-08-07T03:02:59.644Z</time>
      </trkpt>
      <trkpt lat="47.21849" lon="16.40734">
        <ele>242.761922</ele>
        <time>2022-08-07T03:03:07.731Z</time>
      </trkpt>
      <trkpt lat="47.21883" lon="16.40799">
        <ele>242.960849</ele>
        <time>2022-08-07T03:03:23.866Z</time>
      </trkpt>
      <trkpt lat="47.2189" lon="16.40818">
        <ele>243.013438</ele>
        <time>2022-08-07T03:03:28.394Z</time>
      </trkpt>
      <trkpt lat="47.21935" lon="16.40887">
        <ele>243.684354</ele>
        <time>2022-08-07T03:03:49.928Z</time>
      </trkpt>
      <trkpt lat="47.22143" lon="16.41114">
        <ele>246.402743</ele>
        <time>2022-08-07T03:05:11.907Z</time>
      </trkpt>
      <trkpt lat="47.22228" lon="16.41205">
        <ele>247.501857</ele>
        <time>2022-08-07T03:05:44.851Z</time>
      </trkpt>
      <trkpt lat="47.22266" lon="16.4123">
        <ele>247.947199</ele>
        <time>2022-08-07T03:05:58.174Z</time>
      </trkpt>
      <trkpt lat="47.22303" lon="16.41241">
        <ele>248.338188</ele>
        <time>2022-08-07T03:06:09.936Z</time>
      </trkpt>
      <trkpt lat="47.23233" lon="16.41328">
        <ele>258.804849</ele>
        <time>2022-08-07T03:11:10.075Z</time>
      </trkpt>
      <trkpt lat="47.23278" lon="16.41339">
        <ele>258.878508</ele>
        <time>2022-08-07T03:11:23.252Z</time>
      </trkpt>
      <trkpt lat="47.23638" lon="16.41505">
        <ele>258.708894</ele>
        <time>2022-08-07T03:13:02.308Z</time>
      </trkpt>
      <trkpt lat="47.23935" lon="16.4164">
        <ele>257.646634</ele>
        <time>2022-08-07T03:14:20.823Z</time>
      </trkpt>
      <trkpt lat="47.24042" lon="16.41695">
        <ele>256.613475</ele>
        <time>2022-08-07T03:14:47.679Z</time>
      </trkpt>
      <trkpt lat="47.24083" lon="16.41726">
        <ele>256.192535</ele>
        <time>2022-08-07T03:14:58.077Z</time>
      </trkpt>
      <trkpt lat="47.24108" lon="16.41749">
        <ele>255.853496</ele>
        <time>2022-08-07T03:15:04.612Z</time>
      </trkpt>
      <trkpt lat="47.24152" lon="16.41789">
        <ele>255.22691</ele>
        <time>2022-08-07T03:15:15.864Z</time>
      </trkpt>
      <trkpt lat="47.24231" lon="16.41859">
        <ele>254.104923</ele>
        <time>2022-08-07T03:15:36.526Z</time>
      </trkpt>
      <trkpt lat="47.24252" lon="16.41877">
        <ele>254.048154</ele>
        <time>2022-08-07T03:15:42.312Z</time>
      </trkpt>
      <trkpt lat="47.2427" lon="16.41893">
        <ele>254.264676</ele>
        <time>2022-08-07T03:15:47.621Z</time>
      </trkpt>
      <trkpt lat="47.24283" lon="16.41905">
        <ele>254.426833</ele>
        <time>2022-08-07T03:15:51.644Z</time>
      </trkpt>
      <trkpt lat="47.24329" lon="16.41946">
        <ele>254.983465</ele>
        <time>2022-08-07T03:16:07.688Z</time>
      </trkpt>
      <trkpt lat="47.24334" lon="16.4195">
        <ele>255.043337</ele>
        <time>2022-08-07T03:16:09.562Z</time>
      </trkpt>
      <trkpt lat="47.24347" lon="16.41961">
        <ele>255.20046</ele>
        <time>2022-08-07T03:16:14.563Z</time>
      </trkpt>
      <trkpt lat="47.24412" lon="16.42019">
        <ele>256.442792</ele>
        <time>2022-08-07T03:16:43.638Z</time>
      </trkpt>
      <trkpt lat="47.24418" lon="16.42024">
        <ele>256.679881</ele>
        <time>2022-08-07T03:16:46.362Z</time>
      </trkpt>
      <trkpt lat="47.24553" lon="16.42143">
        <ele>262.283146</ele>
        <time>2022-08-07T03:17:57.664Z</time>
      </trkpt>
      <trkpt lat="47.24579" lon="16.42167">
        <ele>263.238305</ele>
        <time>2022-08-07T03:18:11.558Z</time>
      </trkpt>
      <trkpt lat="47.24586" lon="16.42173">
        <ele>263.504186</ele>
        <time>2022-08-07T03:18:15.357Z</time>
      </trkpt>
      <trkpt lat="47.24606" lon="16.42189">
        <ele>264.204543</ele>
        <time>2022-08-07T03:18:25.245Z</time>
      </trkpt>
      <trkpt lat="47.24614" lon="16.42196">
        <ele>264.50251</ele>
        <time>2022-08-07T03:18:29.353Z</time>
      </trkpt>
      <trkpt lat="47.24635" lon="16.42213">
        <ele>265.23824</ele>
        <time>2022-08-07T03:18:39.383Z</time>
      </trkpt>
      <trkpt lat="47.24643" lon="16.42221">
        <ele>265.545439</ele>
        <time>2022-08-07T03:18:43.435Z</time>
      </trkpt>
      <trkpt lat="47.24675" lon="16.42251">
        <ele>266.702864</ele>
        <time>2022-08-07T03:18:58.454Z</time>
      </trkpt>
      <trkpt lat="47.24757" lon="16.4232">
        <ele>268.89544</ele>
        <time>2022-08-07T03:19:33.983Z</time>
      </trkpt>
      <trkpt lat="47.24832" lon="16.42367">
        <ele>270.360545</ele>
        <time>2022-08-07T03:20:01.615Z</time>
      </trkpt>
      <trkpt lat="47.24899" lon="16.42384">
        <ele>271.520296</ele>
        <time>2022-08-07T03:20:25.025Z</time>
      </trkpt>
      <trkpt lat="47.24937" lon="16.42387">
        <ele>272.096977</ele>
        <time>2022-08-07T03:20:37.900Z</time>
      </trkpt>
      <trkpt lat="47.25246" lon="16.42388">
        <ele>276.846944</ele>
        <time>2022-08-07T03:22:22.592Z</time>
      </trkpt>
      <trkpt lat="47.25666" lon="16.42402">
        <ele>283.070475</ele>
        <time>2022-08-07T03:24:49.109Z</time>
      </trkpt>
      <trkpt lat="47.26039" lon="16.42413">
        <ele>282.818504</ele>
        <time>2022-08-07T03:26:25.301Z</time>
      </trkpt>
      <trkpt lat="47.26193" lon="16.42418">
        <ele>281.592591</ele>
        <time>2022-08-07T03:27:00.921Z</time>
      </trkpt>
      <trkpt lat="47.2623" lon="16.42418">
        <ele>281.199168</ele>
        <time>2022-08-07T03:27:09.573Z</time>
      </trkpt>
      <trkpt lat="47.26254" lon="16.42409">
        <ele>280.930792</ele>
        <time>2022-08-07T03:27:15.437Z</time>
      </trkpt>
      <trkpt lat="47.26261" lon="16.42436">
        <ele>280.717029</ele>
        <time>2022-08-07T03:27:20.101Z</time>
      </trkpt>
      <trkpt lat="47.26286" lon="16.42548">
        <ele>279.445437</ele>
        <time>2022-08-07T03:27:38.121Z</time>
      </trkpt>
      <trkpt lat="47.26299" lon="16.42528">
        <ele>279.066013</ele>
        <time>2022-08-07T03:27:42.337Z</time>
      </trkpt>
      <trkpt lat="47.26313" lon="16.42396">
        <ele>277.241661</ele>
        <time>2022-08-07T03:28:02.442Z</time>
      </trkpt>
      <trkpt lat="47.26325" lon="16.42179">
        <ele>273.040068</ele>
        <time>2022-08-07T03:28:32.670Z</time>
      </trkpt>
      <trkpt lat="47.26585" lon="16.41758">
        <ele>262.733372</ele>
        <time>2022-08-07T03:29:53.704Z</time>
      </trkpt>
      <trkpt lat="47.26595" lon="16.41747">
        <ele>262.43464</ele>
        <time>2022-08-07T03:29:56.612Z</time>
      </trkpt>
      <trkpt lat="47.26639" lon="16.41735">
        <ele>262.031334</ele>
        <time>2022-08-07T03:30:07.302Z</time>
      </trkpt>
      <trkpt lat="47.26657" lon="16.41736">
        <ele>262.041281</ele>
        <time>2022-08-07T03:30:11.883Z</time>
      </trkpt>
      <trkpt lat="47.26955" lon="16.41886">
        <ele>263.377385</ele>
        <time>2022-08-07T03:31:48.378Z</time>
      </trkpt>
      <trkpt lat="47.27364" lon="16.42089">
        <ele>268.834071</ele>
        <time>2022-08-07T03:34:16.999Z</time>
      </trkpt>
      <trkpt lat="47.27581" lon="16.42091">
        <ele>269.742149</ele>
        <time>2022-08-07T03:35:23.108Z</time>
      </trkpt>
      <trkpt lat="47.2759" lon="16.42087">
        <ele>269.737088</ele>
        <time>2022-08-07T03:35:25.627Z</time>
      </trkpt>
      <trkpt lat="47.27595" lon="16.42077">
        <ele>269.732591</ele>
        <time>2022-08-07T03:35:27.847Z</time>
      </trkpt>
      <trkpt lat="47.27595" lon="16.42009">
        <ele>269.708541</ele>
        <time>2022-08-07T03:35:39.303Z</time>
      </trkpt>
      <trkpt lat="47.2758" lon="16.41644">
        <ele>266.547433</ele>
        <time>2022-08-07T03:36:36.421Z</time>
      </trkpt>
      <trkpt lat="47.27573" lon="16.4146">
        <ele>265.415669</ele>
        <time>2022-08-07T03:37:07.321Z</time>
      </trkpt>
      <trkpt lat="47.27589" lon="16.41446">
        <ele>265.524735</ele>
        <time>2022-08-07T03:37:12.338Z</time>
      </trkpt>
      <trkpt lat="47.27623" lon="16.41444">
        <ele>265.728576</ele>
        <time>2022-08-07T03:37:22.450Z</time>
      </trkpt>
      <trkpt lat="47.27643" lon="16.41627">
        <ele>266.537854</ele>
        <time>2022-08-07T03:38:02.550Z</time>
      </trkpt>
      <trkpt lat="47.27652" lon="16.41643">
        <ele>266.810262</ele>
        <time>2022-08-07T03:38:07.585Z</time>
      </trkpt>
      <trkpt lat="47.27682" lon="16.4167">
        <ele>267.486997</ele>
        <time>2022-08-07T03:38:20.325Z</time>
      </trkpt>
      <trkpt lat="47.28103" lon="16.42015">
        <ele>276.78192</ele>
        <time>2022-08-07T03:41:20.682Z</time>
      </trkpt>
      <trkpt lat="47.28183" lon="16.42081">
        <ele>278.163894</ele>
        <time>2022-08-07T03:41:53.365Z</time>
      </trkpt>
      <trkpt lat="47.28736" lon="16.42535">
        <ele>287.583503</ele>
        <time>2022-08-07T03:45:33.347Z</time>
      </trkpt>
      <trkpt lat="47.29263" lon="16.4297">
        <ele>298.513966</ele>
        <time>2022-08-07T03:49:13.970Z</time>
      </trkpt>
      <trkpt lat="47.29456" lon="16.43131">
        <ele>302.934335</ele>
        <time>2022-08-07T03:50:35.186Z</time>
      </trkpt>
      <trkpt lat="47.29494" lon="16.43163">
        <ele>303.88786</ele>
        <time>2022-08-07T03:50:51.665Z</time>
      </trkpt>
      <trkpt lat="47.29643" lon="16.43284">
        <ele>309.45892</ele>
        <time>2022-08-07T03:52:04.588Z</time>
      </trkpt>
      <trkpt lat="47.29684" lon="16.43319">
        <ele>311.250472</ele>
        <time>2022-08-07T03:52:28.379Z</time>
      </trkpt>
      <trkpt lat="47.29779" lon="16.43396">
        <ele>316.484793</ele>
        <time>2022-08-07T03:53:25.843Z</time>
      </trkpt>
      <trkpt lat="47.29865" lon="16.43465">
        <ele>320.778519</ele>
        <time>2022-08-07T03:54:15.294Z</time>
      </trkpt>
      <trkpt lat="47.29957" lon="16.43542">
        <ele>324.532533</ele>
        <time>2022-08-07T03:55:01.863Z</time>
      </trkpt>
      <trkpt lat="47.3001" lon="16.43559">
        <ele>326.364717</ele>
        <time>2022-08-07T03:55:23.943Z</time>
      </trkpt>
      <trkpt lat="47.30048" lon="16.43566">
        <ele>327.489287</ele>
        <time>2022-08-07T03:55:39.530Z</time>
      </trkpt>
      <trkpt lat="47.30128" lon="16.43567">
        <ele>329.811295</ele>
        <time>2022-08-07T03:56:12.644Z</time>
      </trkpt>
      <trkpt lat="47.30155" lon="16.43568">
        <ele>330.627211</ele>
        <time>2022-08-07T03:56:24.566Z</time>
      </trkpt>
      <trkpt lat="47.30262" lon="16.43569">
        <ele>333.912564</ele>
        <time>2022-08-07T03:57:10.508Z</time>
      </trkpt>
      <trkpt lat="47.30313" lon="16.43589">
        <ele>335.577308</ele>
        <time>2022-08-07T03:57:33.192Z</time>
      </trkpt>
      <trkpt lat="47.30329" lon="16.43582">
        <ele>336.088917</ele>
        <time>2022-08-07T03:57:40.211Z</time>
      </trkpt>
      <trkpt lat="47.30348" lon="16.43631">
        <ele>337.229982</ele>
        <time>2022-08-07T03:57:56.007Z</time>
      </trkpt>
      <trkpt lat="47.3036" lon="16.43657">
        <ele>337.820858</ele>
        <time>2022-08-07T03:58:04.836Z</time>
      </trkpt>
      <trkpt lat="47.30394" lon="16.43776">
        <ele>340.250399</ele>
        <time>2022-08-07T03:58:41.086Z</time>
      </trkpt>
      <trkpt lat="47.30419" lon="16.43864">
        <ele>341.77914</ele>
        <time>2022-08-07T03:59:06.285Z</time>
      </trkpt>
      <trkpt lat="47.30426" lon="16.43886">
        <ele>341.755151</ele>
        <time>2022-08-07T03:59:12.504Z</time>
      </trkpt>
      <trkpt lat="47.30463" lon="16.44001">
        <ele>341.633709</ele>
        <time>2022-08-07T03:59:38.935Z</time>
      </trkpt>
      <trkpt lat="47.30488" lon="16.44106">
        <ele>341.211882</ele>
        <time>2022-08-07T03:59:55.002Z</time>
      </trkpt>
      <trkpt lat="47.30483" lon="16.44109">
        <ele>340.965469</ele>
        <time>2022-08-07T03:59:56.011Z</time>
      </trkpt>
      <trkpt lat="47.30452" lon="16.44128">
        <ele>339.553905</ele>
        <time>2022-08-07T04:00:02.391Z</time>
      </trkpt>
      <trkpt lat="47.30401" lon="16.44135">
        <ele>337.394312</ele>
        <time>2022-08-07T04:00:11.722Z</time>
      </trkpt>
      <trkpt lat="47.30401" lon="16.4416">
        <ele>336.692112</ele>
        <time>2022-08-07T04:00:14.979Z</time>
      </trkpt>
      <trkpt lat="47.30403" lon="16.44181">
        <ele>336.077233</ele>
        <time>2022-08-07T04:00:17.430Z</time>
      </trkpt>
      <trkpt lat="47.30432" lon="16.44273">
        <ele>333.533575</ele>
        <time>2022-08-07T04:00:29.952Z</time>
      </trkpt>
      <trkpt lat="47.30446" lon="16.44299">
        <ele>333.024908</ele>
        <time>2022-08-07T04:00:34.463Z</time>
      </trkpt>
      <trkpt lat="47.30473" lon="16.44324">
        <ele>332.302065</ele>
        <time>2022-08-07T04:00:40.490Z</time>
      </trkpt>
      <trkpt lat="47.30486" lon="16.44334">
        <ele>331.973707</ele>
        <time>2022-08-07T04:00:43.213Z</time>
      </trkpt>
      <trkpt lat="47.30496" lon="16.44355">
        <ele>331.580002</ele>
        <time>2022-08-07T04:00:46.775Z</time>
      </trkpt>
      <trkpt lat="47.30502" lon="16.44386">
        <ele>331.084988</ele>
        <time>2022-08-07T04:00:52.298Z</time>
      </trkpt>
      <trkpt lat="47.30505" lon="16.44404">
        <ele>330.797517</ele>
        <time>2022-08-07T04:00:55.610Z</time>
      </trkpt>
      <trkpt lat="47.30521" lon="16.44474">
        <ele>329.930371</ele>
        <time>2022-08-07T04:01:09.043Z</time>
      </trkpt>
      <trkpt lat="47.30538" lon="16.44515">
        <ele>330.136315</ele>
        <time>2022-08-07T04:01:17.797Z</time>
      </trkpt>
      <trkpt lat="47.30572" lon="16.44581">
        <ele>330.490427</ele>
        <time>2022-08-07T04:01:34.653Z</time>
      </trkpt>
      <trkpt lat="47.30606" lon="16.44639">
        <ele>330.815648</ele>
        <time>2022-08-07T04:01:50.920Z</time>
      </trkpt>
      <trkpt lat="47.30635" lon="16.4469">
        <ele>331.109834</ele>
        <time>2022-08-07T04:02:05.049Z</time>
      </trkpt>
      <trkpt lat="47.30664" lon="16.44767">
        <ele>331.532726</ele>
        <time>2022-08-07T04:02:23.496Z</time>
      </trkpt>
      <trkpt lat="47.30694" lon="16.44904">
        <ele>332.21897</ele>
        <time>2022-08-07T04:02:53.477Z</time>
      </trkpt>
      <trkpt lat="47.30729" lon="16.45012">
        <ele>330.655005</ele>
        <time>2022-08-07T04:03:14.386Z</time>
      </trkpt>
      <trkpt lat="47.30742" lon="16.45049">
        <ele>330.045998</ele>
        <time>2022-08-07T04:03:20.384Z</time>
      </trkpt>
      <trkpt lat="47.30764" lon="16.45103">
        <ele>329.121459</ele>
        <time>2022-08-07T04:03:28.953Z</time>
      </trkpt>
      <trkpt lat="47.3089" lon="16.45343">
        <ele>318.713265</ele>
        <time>2022-08-07T04:04:05.366Z</time>
      </trkpt>
      <trkpt lat="47.30986" lon="16.45518">
        <ele>311.148928</ele>
        <time>2022-08-07T04:04:32.735Z</time>
      </trkpt>
      <trkpt lat="47.31032" lon="16.45592">
        <ele>308.518011</ele>
        <time>2022-08-07T04:04:45.835Z</time>
      </trkpt>
      <trkpt lat="47.31118" lon="16.45729">
        <ele>305.178805</ele>
        <time>2022-08-07T04:05:11.564Z</time>
      </trkpt>
      <trkpt lat="47.31207" lon="16.45887">
        <ele>302.95997</ele>
        <time>2022-08-07T04:05:42.022Z</time>
      </trkpt>
      <trkpt lat="47.31255" lon="16.45973">
        <ele>301.981726</ele>
        <time>2022-08-07T04:05:59.643Z</time>
      </trkpt>
      <trkpt lat="47.31289" lon="16.46021">
        <ele>301.614737</ele>
        <time>2022-08-07T04:06:10.678Z</time>
      </trkpt>
      <trkpt lat="47.3135" lon="16.46103">
        <ele>300.981154</ele>
        <time>2022-08-07T04:06:30.016Z</time>
      </trkpt>
      <trkpt lat="47.31393" lon="16.46173">
        <ele>300.747229</ele>
        <time>2022-08-07T04:06:45.981Z</time>
      </trkpt>
      <trkpt lat="47.31411" lon="16.46216">
        <ele>300.810208</ele>
        <time>2022-08-07T04:06:54.840Z</time>
      </trkpt>
      <trkpt lat="47.31551" lon="16.46639">
        <ele>302.300229</ele>
        <time>2022-08-07T04:08:28.030Z</time>
      </trkpt>
      <trkpt lat="47.31589" lon="16.46734">
        <ele>303.221022</ele>
        <time>2022-08-07T04:08:51.498Z</time>
      </trkpt>
      <trkpt lat="47.31617" lon="16.46816">
        <ele>303.992741</ele>
        <time>2022-08-07T04:09:12.656Z</time>
      </trkpt>
      <trkpt lat="47.31629" lon="16.46852">
        <ele>304.343358</ele>
        <time>2022-08-07T04:09:22.391Z</time>
      </trkpt>
      <trkpt lat="47.31669" lon="16.46965">
        <ele>305.739876</ele>
        <time>2022-08-07T04:09:53.759Z</time>
      </trkpt>
      <trkpt lat="47.31688" lon="16.47009">
        <ele>306.322105</ele>
        <time>2022-08-07T04:10:06.151Z</time>
      </trkpt>
      <trkpt lat="47.31701" lon="16.47036">
        <ele>306.674517</ele>
        <time>2022-08-07T04:10:13.403Z</time>
      </trkpt>
      <trkpt lat="47.31746" lon="16.47136">
        <ele>307.429589</ele>
        <time>2022-08-07T04:10:39.051Z</time>
      </trkpt>
      <trkpt lat="47.31754" lon="16.47171">
        <ele>307.558831</ele>
        <time>2022-08-07T04:10:46.595Z</time>
      </trkpt>
      <trkpt lat="47.31764" lon="16.47254">
        <ele>307.85377</ele>
        <time>2022-08-07T04:11:02.365Z</time>
      </trkpt>
      <trkpt lat="47.31786" lon="16.47335">
        <ele>308.18971</ele>
        <time>2022-08-07T04:11:18.000Z</time>
      </trkpt>
      <trkpt lat="47.31846" lon="16.47477">
        <ele>309.066161</ele>
        <time>2022-08-07T04:11:51.884Z</time>
      </trkpt>
      <trkpt lat="47.3185" lon="16.47485">
        <ele>309.117634</ele>
        <time>2022-08-07T04:11:54.081Z</time>
      </trkpt>
      <trkpt lat="47.31902" lon="16.47601">
        <ele>310.213594</ele>
        <time>2022-08-07T04:12:25.626Z</time>
      </trkpt>
      <trkpt lat="47.31907" lon="16.4761">
        <ele>310.332502</ele>
        <time>2022-08-07T04:12:28.212Z</time>
      </trkpt>
      <trkpt lat="47.31958" lon="16.47725">
        <ele>311.767304</ele>
        <time>2022-08-07T04:13:00.170Z</time>
      </trkpt>
      <trkpt lat="47.31991" lon="16.47825">
        <ele>313.03016</ele>
        <time>2022-08-07T04:13:26.412Z</time>
      </trkpt>
      <trkpt lat="47.32041" lon="16.47982">
        <ele>315.091408</ele>
        <time>2022-08-07T04:14:07.880Z</time>
      </trkpt>
      <trkpt lat="47.32061" lon="16.48052">
        <ele>315.849034</ele>
        <time>2022-08-07T04:14:26.500Z</time>
      </trkpt>
      <trkpt lat="47.32106" lon="16.48296">
        <ele>317.765638</ele>
        <time>2022-08-07T04:15:22.249Z</time>
      </trkpt>
      <trkpt lat="47.32109" lon="16.48339">
        <ele>317.767181</ele>
        <time>2022-08-07T04:15:30.276Z</time>
      </trkpt>
      <trkpt lat="47.3211" lon="16.48357">
        <ele>317.767787</ele>
        <time>2022-08-07T04:15:33.549Z</time>
      </trkpt>
      <trkpt lat="47.32107" lon="16.48388">
        <ele>317.768886</ele>
        <time>2022-08-07T04:15:38.792Z</time>
      </trkpt>
      <trkpt lat="47.32087" lon="16.48467">
        <ele>317.771829</ele>
        <time>2022-08-07T04:15:53.150Z</time>
      </trkpt>
      <trkpt lat="47.32042" lon="16.48561">
        <ele>317.974648</ele>
        <time>2022-08-07T04:16:12.350Z</time>
      </trkpt>
      <trkpt lat="47.31997" lon="16.48662">
        <ele>318.357062</ele>
        <time>2022-08-07T04:16:35.404Z</time>
      </trkpt>
      <trkpt lat="47.31989" lon="16.48693">
        <ele>318.459523</ele>
        <time>2022-08-07T04:16:42.228Z</time>
      </trkpt>
      <trkpt lat="47.32013" lon="16.48712">
        <ele>318.58706</ele>
        <time>2022-08-07T04:16:51.071Z</time>
      </trkpt>
      <trkpt lat="47.32019" lon="16.48717">
        <ele>318.644364</ele>
        <time>2022-08-07T04:16:53.558Z</time>
      </trkpt>
      <trkpt lat="47.3213" lon="16.48823">
        <ele>321.276796</ele>
        <time>2022-08-07T04:17:41.817Z</time>
      </trkpt>
      <trkpt lat="47.32239" lon="16.48896">
        <ele>323.920737</ele>
        <time>2022-08-07T04:18:27.261Z</time>
      </trkpt>
      <trkpt lat="47.32251" lon="16.48903">
        <ele>324.222577</ele>
        <time>2022-08-07T04:18:32.131Z</time>
      </trkpt>
      <trkpt lat="47.32343" lon="16.48973">
        <ele>326.695791</ele>
        <time>2022-08-07T04:19:11.153Z</time>
      </trkpt>
      <trkpt lat="47.32423" lon="16.49045">
        <ele>329.443569</ele>
        <time>2022-08-07T04:19:47.918Z</time>
      </trkpt>
      <trkpt lat="47.32466" lon="16.49081">
        <ele>330.882719</ele>
        <time>2022-08-07T04:20:08.182Z</time>
      </trkpt>
      <trkpt lat="47.32473" lon="16.491">
        <ele>331.314732</ele>
        <time>2022-08-07T04:20:14.703Z</time>
      </trkpt>
      <trkpt lat="47.3247" lon="16.49131">
        <ele>332.031974</ele>
        <time>2022-08-07T04:20:24.215Z</time>
      </trkpt>
      <trkpt lat="47.32465" lon="16.49257">
        <ele>335.506484</ele>
        <time>2022-08-07T04:21:04.582Z</time>
      </trkpt>
      <trkpt lat="47.32475" lon="16.49398">
        <ele>339.269371</ele>
        <time>2022-08-07T04:21:49.802Z</time>
      </trkpt>
      <trkpt lat="47.32502" lon="16.4946">
        <ele>340.656083</ele>
        <time>2022-08-07T04:22:11.532Z</time>
      </trkpt>
      <trkpt lat="47.32548" lon="16.49539">
        <ele>342.590445</ele>
        <time>2022-08-07T04:22:39.646Z</time>
      </trkpt>
      <trkpt lat="47.32552" lon="16.49546">
        <ele>342.765341</ele>
        <time>2022-08-07T04:22:41.847Z</time>
      </trkpt>
      <trkpt lat="47.32556" lon="16.49554">
        <ele>342.938172</ele>
        <time>2022-08-07T04:22:44.054Z</time>
      </trkpt>
      <trkpt lat="47.32592" lon="16.4964">
        <ele>344.295173</ele>
        <time>2022-08-07T04:23:07.377Z</time>
      </trkpt>
      <trkpt lat="47.32635" lon="16.49789">
        <ele>345.52178</ele>
        <time>2022-08-07T04:23:43.028Z</time>
      </trkpt>
      <trkpt lat="47.32691" lon="16.49926">
        <ele>345.376546</ele>
        <time>2022-08-07T04:24:14.471Z</time>
      </trkpt>
      <trkpt lat="47.32769" lon="16.50077">
        <ele>344.011919</ele>
        <time>2022-08-07T04:24:42.722Z</time>
      </trkpt>
      <trkpt lat="47.32872" lon="16.50203">
        <ele>340.644881</ele>
        <time>2022-08-07T04:25:09.222Z</time>
      </trkpt>
      <trkpt lat="47.32905" lon="16.50234">
        <ele>339.946645</ele>
        <time>2022-08-07T04:25:17.334Z</time>
      </trkpt>
      <trkpt lat="47.32942" lon="16.50252">
        <ele>339.828253</ele>
        <time>2022-08-07T04:25:25.694Z</time>
      </trkpt>
      <trkpt lat="47.32983" lon="16.50293">
        <ele>339.675027</ele>
        <time>2022-08-07T04:25:37.972Z</time>
      </trkpt>
      <trkpt lat="47.32995" lon="16.50345">
        <ele>339.562361</ele>
        <time>2022-08-07T04:25:48.638Z</time>
      </trkpt>
      <trkpt lat="47.33016" lon="16.50486">
        <ele>340.28114</ele>
        <time>2022-08-07T04:26:22.074Z</time>
      </trkpt>
      <trkpt lat="47.33018" lon="16.50497">
        <ele>340.389811</ele>
        <time>2022-08-07T04:26:25.258Z</time>
      </trkpt>
      <trkpt lat="47.33059" lon="16.50601">
        <ele>341.607168</ele>
        <time>2022-08-07T04:26:53.980Z</time>
      </trkpt>
      <trkpt lat="47.33081" lon="16.50642">
        <ele>342.10614</ele>
        <time>2022-08-07T04:27:05.755Z</time>
      </trkpt>
      <trkpt lat="47.33106" lon="16.50689">
        <ele>341.806769</ele>
        <time>2022-08-07T04:27:18.060Z</time>
      </trkpt>
      <trkpt lat="47.33176" lon="16.50788">
        <ele>341.093508</ele>
        <time>2022-08-07T04:27:41.215Z</time>
      </trkpt>
      <trkpt lat="47.33341" lon="16.50976">
        <ele>336.029876</ele>
        <time>2022-08-07T04:28:23.275Z</time>
      </trkpt>
      <trkpt lat="47.33387" lon="16.5106">
        <ele>332.578236</ele>
        <time>2022-08-07T04:28:36.993Z</time>
      </trkpt>
      <trkpt lat="47.33508" lon="16.51432">
        <ele>317.634749</ele>
        <time>2022-08-07T04:29:26.424Z</time>
      </trkpt>
      <trkpt lat="47.33529" lon="16.51454">
        <ele>316.231795</ele>
        <time>2022-08-07T04:29:31.274Z</time>
      </trkpt>
      <trkpt lat="47.33553" lon="16.51455">
        <ele>315.157409</ele>
        <time>2022-08-07T04:29:35.613Z</time>
      </trkpt>
      <trkpt lat="47.33676" lon="16.51425">
        <ele>309.46524</ele>
        <time>2022-08-07T04:29:58.912Z</time>
      </trkpt>
      <trkpt lat="47.33789" lon="16.51452">
        <ele>304.423998</ele>
        <time>2022-08-07T04:30:19.728Z</time>
      </trkpt>
      <trkpt lat="47.33841" lon="16.51442">
        <ele>302.121212</ele>
        <time>2022-08-07T04:30:29.455Z</time>
      </trkpt>
      <trkpt lat="47.3387" lon="16.51433">
        <ele>300.807617</ele>
        <time>2022-08-07T04:30:35.097Z</time>
      </trkpt>
      <trkpt lat="47.33904" lon="16.51426">
        <ele>299.829441</ele>
        <time>2022-08-07T04:30:41.605Z</time>
      </trkpt>
      <trkpt lat="47.33954" lon="16.51441">
        <ele>298.551215</ele>
        <time>2022-08-07T04:30:51.894Z</time>
      </trkpt>
      <trkpt lat="47.33967" lon="16.51446">
        <ele>298.220664</ele>
        <time>2022-08-07T04:30:54.610Z</time>
      </trkpt>
      <trkpt lat="47.33977" lon="16.51451">
        <ele>297.963997</ele>
        <time>2022-08-07T04:30:56.716Z</time>
      </trkpt>
      <trkpt lat="47.34" lon="16.51465">
        <ele>297.351481</ele>
        <time>2022-08-07T04:31:01.963Z</time>
      </trkpt>
      <trkpt lat="47.34011" lon="16.5148">
        <ele>296.965363</ele>
        <time>2022-08-07T04:31:05.271Z</time>
      </trkpt>
      <trkpt lat="47.34022" lon="16.51511">
        <ele>296.381054</ele>
        <time>2022-08-07T04:31:10.479Z</time>
      </trkpt>
      <trkpt lat="47.34032" lon="16.5159">
        <ele>295.440503</ele>
        <time>2022-08-07T04:31:22.509Z</time>
      </trkpt>
      <trkpt lat="47.34039" lon="16.51703">
        <ele>294.32696</ele>
        <time>2022-08-07T04:31:39.097Z</time>
      </trkpt>
      <trkpt lat="47.34038" lon="16.51881">
        <ele>293.807284</ele>
        <time>2022-08-07T04:32:06.509Z</time>
      </trkpt>
      <trkpt lat="47.34044" lon="16.51951">
        <ele>294.13208</ele>
        <time>2022-08-07T04:32:19.582Z</time>
      </trkpt>
      <trkpt lat="47.34273" lon="16.51894">
        <ele>298.803976</ele>
        <time>2022-08-07T04:33:50.151Z</time>
      </trkpt>
      <trkpt lat="47.34379" lon="16.51849">
        <ele>301.730312</ele>
        <time>2022-08-07T04:34:34.986Z</time>
      </trkpt>
      <trkpt lat="47.34449" lon="16.51795">
        <ele>303.838136</ele>
        <time>2022-08-07T04:35:05.472Z</time>
      </trkpt>
      <trkpt lat="47.34548" lon="16.51769">
        <ele>306.105842</ele>
        <time>2022-08-07T04:35:43.690Z</time>
      </trkpt>
      <trkpt lat="47.34664" lon="16.51759">
        <ele>308.20386</ele>
        <time>2022-08-07T04:36:27.332Z</time>
      </trkpt>
      <trkpt lat="47.3474" lon="16.51763">
        <ele>308.429574</ele>
        <time>2022-08-07T04:36:50.813Z</time>
      </trkpt>
      <trkpt lat="47.34766" lon="16.5177">
        <ele>308.510155</ele>
        <time>2022-08-07T04:36:57.974Z</time>
      </trkpt>
      <trkpt lat="47.3479" lon="16.51789">
        <ele>308.591902</ele>
        <time>2022-08-07T04:37:04.717Z</time>
      </trkpt>
      <trkpt lat="47.34833" lon="16.51835">
        <ele>307.889753</ele>
        <time>2022-08-07T04:37:16.419Z</time>
      </trkpt>
      <trkpt lat="47.34988" lon="16.51966">
        <ele>302.642391</ele>
        <time>2022-08-07T04:37:51.023Z</time>
      </trkpt>
      <trkpt lat="47.35177" lon="16.52163">
        <ele>296.600481</ele>
        <time>2022-08-07T04:38:35.688Z</time>
      </trkpt>
      <trkpt lat="47.35237" lon="16.52229">
        <ele>295.903214</ele>
        <time>2022-08-07T04:38:54.709Z</time>
      </trkpt>
      <trkpt lat="47.35255" lon="16.52243">
        <ele>295.708814</ele>
        <time>2022-08-07T04:39:01.714Z</time>
      </trkpt>
      <trkpt lat="47.35268" lon="16.52252">
        <ele>295.974219</ele>
        <time>2022-08-07T04:39:06.806Z</time>
      </trkpt>
      <trkpt lat="47.35466" lon="16.52353">
        <ele>305.280846</ele>
        <time>2022-08-07T04:40:52.585Z</time>
      </trkpt>
      <trkpt lat="47.35546" lon="16.52404">
        <ele>309.454396</ele>
        <time>2022-08-07T04:41:38.084Z</time>
      </trkpt>
      <trkpt lat="47.35583" lon="16.52417">
        <ele>311.27851</ele>
        <time>2022-08-07T04:41:56.323Z</time>
      </trkpt>
      <trkpt lat="47.35663" lon="16.52434">
        <ele>313.741922</ele>
        <time>2022-08-07T04:42:32.148Z</time>
      </trkpt>
      <trkpt lat="47.35845" lon="16.52444">
        <ele>316.789209</ele>
        <time>2022-08-07T04:43:36.643Z</time>
      </trkpt>
      <trkpt lat="47.3592" lon="16.52459">
        <ele>316.909466</ele>
        <time>2022-08-07T04:43:56.322Z</time>
      </trkpt>
      <trkpt lat="47.36002" lon="16.52488">
        <ele>315.618913</ele>
        <time>2022-08-07T04:44:14.511Z</time>
      </trkpt>
      <trkpt lat="47.36037" lon="16.52509">
        <ele>314.501118</ele>
        <time>2022-08-07T04:44:22.018Z</time>
      </trkpt>
      <trkpt lat="47.36186" lon="16.52622">
        <ele>309.134445</ele>
        <time>2022-08-07T04:44:53.851Z</time>
      </trkpt>
      <trkpt lat="47.36401" lon="16.52738">
        <ele>302.848805</ele>
        <time>2022-08-07T04:45:38.410Z</time>
      </trkpt>
      <trkpt lat="47.36477" lon="16.52747">
        <ele>301.886804</ele>
        <time>2022-08-07T04:45:57.855Z</time>
      </trkpt>
      <trkpt lat="47.36521" lon="16.52765">
        <ele>302.7031</ele>
        <time>2022-08-07T04:46:13.361Z</time>
      </trkpt>
      <trkpt lat="47.36721" lon="16.52874">
        <ele>305.682001</ele>
        <time>2022-08-07T04:47:35.141Z</time>
      </trkpt>
      <trkpt lat="47.36747" lon="16.52889">
        <ele>305.951184</ele>
        <time>2022-08-07T04:47:43.394Z</time>
      </trkpt>
      <trkpt lat="47.36857" lon="16.5299">
        <ele>305.405688</ele>
        <time>2022-08-07T04:48:12.945Z</time>
      </trkpt>
      <trkpt lat="47.3692" lon="16.53037">
        <ele>304.365942</ele>
        <time>2022-08-07T04:48:27.678Z</time>
      </trkpt>
      <trkpt lat="47.36974" lon="16.53104">
        <ele>303.504749</ele>
        <time>2022-08-07T04:48:43.219Z</time>
      </trkpt>
      <trkpt lat="47.3702" lon="16.5315">
        <ele>302.982253</ele>
        <time>2022-08-07T04:48:56.163Z</time>
      </trkpt>
      <trkpt lat="47.3704" lon="16.53189">
        <ele>302.675306</ele>
        <time>2022-08-07T04:49:04.120Z</time>
      </trkpt>
      <trkpt lat="47.37059" lon="16.53256">
        <ele>302.219311</ele>
        <time>2022-08-07T04:49:16.378Z</time>
      </trkpt>
      <trkpt lat="47.37145" lon="16.53637">
        <ele>300.111579</ele>
        <time>2022-08-07T04:50:22.668Z</time>
      </trkpt>
      <trkpt lat="47.37175" lon="16.53726">
        <ele>299.269712</ele>
        <time>2022-08-07T04:50:37.515Z</time>
      </trkpt>
      <trkpt lat="47.37201" lon="16.53781">
        <ele>298.358205</ele>
        <time>2022-08-07T04:50:47.384Z</time>
      </trkpt>
      <trkpt lat="47.37312" lon="16.53931">
        <ele>293.596604</ele>
        <time>2022-08-07T04:51:16.772Z</time>
      </trkpt>
      <trkpt lat="47.37343" lon="16.53967">
        <ele>291.922413</ele>
        <time>2022-08-07T04:51:24.084Z</time>
      </trkpt>
      <trkpt lat="47.37427" lon="16.54045">
        <ele>287.280748</ele>
        <time>2022-08-07T04:51:42.057Z</time>
      </trkpt>
      <trkpt lat="47.37661" lon="16.54216">
        <ele>275.43713</ele>
        <time>2022-08-07T04:52:29.797Z</time>
      </trkpt>
      <trkpt lat="47.37698" lon="16.54262">
        <ele>273.840059</ele>
        <time>2022-08-07T04:52:39.062Z</time>
      </trkpt>
      <trkpt lat="47.37737" lon="16.54327">
        <ele>271.887993</ele>
        <time>2022-08-07T04:52:50.675Z</time>
      </trkpt>
      <trkpt lat="47.37748" lon="16.54346">
        <ele>271.332062</ele>
        <time>2022-08-07T04:52:54.142Z</time>
      </trkpt>
      <trkpt lat="47.37768" lon="16.54372">
        <ele>270.467345</ele>
        <time>2022-08-07T04:52:59.496Z</time>
      </trkpt>
      <trkpt lat="47.37784" lon="16.54394">
        <ele>270.162758</ele>
        <time>2022-08-07T04:53:04.107Z</time>
      </trkpt>
      <trkpt lat="47.37844" lon="16.54465">
        <ele>269.21517</ele>
        <time>2022-08-07T04:53:20.565Z</time>
      </trkpt>
      <trkpt lat="47.37874" lon="16.54489">
        <ele>268.78935</ele>
        <time>2022-08-07T04:53:28.656Z</time>
      </trkpt>
      <trkpt lat="47.37909" lon="16.54496">
        <ele>268.359034</ele>
        <time>2022-08-07T04:53:37.436Z</time>
      </trkpt>
      <trkpt lat="47.37911" lon="16.54496">
        <ele>268.326887</ele>
        <time>2022-08-07T04:53:38.110Z</time>
      </trkpt>
      <trkpt lat="47.37938" lon="16.54493">
        <ele>268.259929</ele>
        <time>2022-08-07T04:53:45.483Z</time>
      </trkpt>
      <trkpt lat="47.38019" lon="16.54467">
        <ele>268.591197</ele>
        <time>2022-08-07T04:54:08.329Z</time>
      </trkpt>
      <trkpt lat="47.38074" lon="16.54448">
        <ele>268.819366</ele>
        <time>2022-08-07T04:54:25.237Z</time>
      </trkpt>
      <trkpt lat="47.38093" lon="16.54441">
        <ele>268.899431</ele>
        <time>2022-08-07T04:54:31.486Z</time>
      </trkpt>
      <trkpt lat="47.38134" lon="16.54425">
        <ele>269.199568</ele>
        <time>2022-08-07T04:54:44.987Z</time>
      </trkpt>
      <trkpt lat="47.38144" lon="16.54421">
        <ele>269.274053</ele>
        <time>2022-08-07T04:54:48.085Z</time>
      </trkpt>
      <trkpt lat="47.38151" lon="16.54419">
        <ele>269.330707</ele>
        <time>2022-08-07T04:54:50.384Z</time>
      </trkpt>
      <trkpt lat="47.3818" lon="16.54407">
        <ele>269.554626</ele>
        <time>2022-08-07T04:54:59.653Z</time>
      </trkpt>
      <trkpt lat="47.38191" lon="16.54402">
        <ele>269.638176</ele>
        <time>2022-08-07T04:55:02.993Z</time>
      </trkpt>
      <trkpt lat="47.38266" lon="16.54363">
        <ele>270.238486</ele>
        <time>2022-08-07T04:55:26.831Z</time>
      </trkpt>
      <trkpt lat="47.38271" lon="16.54361">
        <ele>270.268137</ele>
        <time>2022-08-07T04:55:28.286Z</time>
      </trkpt>
      <trkpt lat="47.38377" lon="16.54296">
        <ele>270.533806</ele>
        <time>2022-08-07T04:56:01.196Z</time>
      </trkpt>
      <trkpt lat="47.38476" lon="16.54236">
        <ele>270.691714</ele>
        <time>2022-08-07T04:56:28.975Z</time>
      </trkpt>
      <trkpt lat="47.38485" lon="16.54262">
        <ele>270.696876</ele>
        <time>2022-08-07T04:56:34.410Z</time>
      </trkpt>
      <trkpt lat="47.38493" lon="16.54286">
        <ele>270.7016</ele>
        <time>2022-08-07T04:56:39.408Z</time>
      </trkpt>
      <trkpt lat="47.38499" lon="16.54302">
        <ele>270.704768</ele>
        <time>2022-08-07T04:56:42.754Z</time>
      </trkpt>
      <trkpt lat="47.38506" lon="16.54322">
        <ele>270.708737</ele>
        <time>2022-08-07T04:56:46.935Z</time>
      </trkpt>
      <trkpt lat="47.38537" lon="16.544">
        <ele>270.724849</ele>
        <time>2022-08-07T04:57:04.344Z</time>
      </trkpt>
      <trkpt lat="47.38549" lon="16.54411">
        <ele>270.750652</ele>
        <time>2022-08-07T04:57:08.514Z</time>
      </trkpt>
      <trkpt lat="47.38538" lon="16.54434">
        <ele>270.8491</ele>
        <time>2022-08-07T04:57:14.194Z</time>
      </trkpt>
      <trkpt lat="47.38543" lon="16.5445">
        <ele>270.910476</ele>
        <time>2022-08-07T04:57:17.761Z</time>
      </trkpt>
      <trkpt lat="47.38551" lon="16.54454">
        <ele>270.948936</ele>
        <time>2022-08-07T04:57:20.036Z</time>
      </trkpt>
      <trkpt lat="47.38605" lon="16.54444">
        <ele>271.229695</ele>
        <time>2022-08-07T04:57:36.487Z</time>
      </trkpt>
      <trkpt lat="47.38681" lon="16.54423">
        <ele>271.617144</ele>
        <time>2022-08-07T04:58:00.527Z</time>
      </trkpt>
      <trkpt lat="47.38712" lon="16.54408">
        <ele>271.869663</ele>
        <time>2022-08-07T04:58:10.872Z</time>
      </trkpt>
      <trkpt lat="47.38728" lon="16.54397">
        <ele>272.012531</ele>
        <time>2022-08-07T04:58:16.356Z</time>
      </trkpt>
      <trkpt lat="47.38735" lon="16.54389">
        <ele>272.083712</ele>
        <time>2022-08-07T04:58:18.986Z</time>
      </trkpt>
      <trkpt lat="47.38769" lon="16.54357">
        <ele>272.417255</ele>
        <time>2022-08-07T04:58:31.798Z</time>
      </trkpt>
      <trkpt lat="47.38815" lon="16.54324">
        <ele>272.831413</ele>
        <time>2022-08-07T04:58:48.436Z</time>
      </trkpt>
      <trkpt lat="47.38821" lon="16.5432">
        <ele>272.882919</ele>
        <time>2022-08-07T04:58:50.548Z</time>
      </trkpt>
      <trkpt lat="47.38827" lon="16.54317">
        <ele>272.9357</ele>
        <time>2022-08-07T04:58:52.689Z</time>
      </trkpt>
      <trkpt lat="47.38857" lon="16.543">
        <ele>273.137808</ele>
        <time>2022-08-07T04:59:02.982Z</time>
      </trkpt>
      <trkpt lat="47.3886" lon="16.54299">
        <ele>273.150796</ele>
        <time>2022-08-07T04:59:04.250Z</time>
      </trkpt>
      <trkpt lat="47.38866" lon="16.54299">
        <ele>273.17077</ele>
        <time>2022-08-07T04:59:06.090Z</time>
      </trkpt>
      <trkpt lat="47.38873" lon="16.543">
        <ele>273.192755</ele>
        <time>2022-08-07T04:59:08.098Z</time>
      </trkpt>
      <trkpt lat="47.38876" lon="16.54299">
        <ele>273.202409</ele>
        <time>2022-08-07T04:59:08.993Z</time>
      </trkpt>
      <trkpt lat="47.38886" lon="16.54299">
        <ele>273.237355</ele>
        <time>2022-08-07T04:59:12.234Z</time>
      </trkpt>
      <trkpt lat="47.38949" lon="16.54278">
        <ele>273.452384</ele>
        <time>2022-08-07T04:59:30.605Z</time>
      </trkpt>
      <trkpt lat="47.38967" lon="16.5427">
        <ele>273.513287</ele>
        <time>2022-08-07T04:59:35.590Z</time>
      </trkpt>
      <trkpt lat="47.38994" lon="16.54261">
        <ele>273.607334</ele>
        <time>2022-08-07T04:59:42.862Z</time>
      </trkpt>
      <trkpt lat="47.39003" lon="16.54258">
        <ele>273.637294</ele>
        <time>2022-08-07T04:59:45.286Z</time>
      </trkpt>
      <trkpt lat="47.3906" lon="16.54433">
        <ele>273.704625</ele>
        <time>2022-08-07T05:00:21.368Z</time>
      </trkpt>
      <trkpt lat="47.39087" lon="16.54494">
        <ele>273.707188</ele>
        <time>2022-08-07T05:00:35.064Z</time>
      </trkpt>
      <trkpt lat="47.39127" lon="16.54614">
        <ele>274.077187</ele>
        <time>2022-08-07T05:01:01.277Z</time>
      </trkpt>
      <trkpt lat="47.39129" lon="16.54622">
        <ele>274.109139</ele>
        <time>2022-08-07T05:01:03.271Z</time>
      </trkpt>
      <trkpt lat="47.39132" lon="16.54637">
        <ele>274.160891</ele>
        <time>2022-08-07T05:01:06.419Z</time>
      </trkpt>
      <trkpt lat="47.39226" lon="16.54579">
        <ele>274.703163</ele>
        <time>2022-08-07T05:01:54.487Z</time>
      </trkpt>
      <trkpt lat="47.39262" lon="16.5457">
        <ele>275.005694</ele>
        <time>2022-08-07T05:02:12.427Z</time>
      </trkpt>
      <trkpt lat="47.39281" lon="16.54571">
        <ele>275.154786</ele>
        <time>2022-08-07T05:02:21.190Z</time>
      </trkpt>
      <trkpt lat="47.39311" lon="16.54592">
        <ele>275.424373</ele>
        <time>2022-08-07T05:02:36.957Z</time>
      </trkpt>
      <trkpt lat="47.39324" lon="16.54589">
        <ele>275.52803</ele>
        <time>2022-08-07T05:02:43.061Z</time>
      </trkpt>
      <trkpt lat="47.39332" lon="16.54617">
        <ele>275.693143</ele>
        <time>2022-08-07T05:02:49.365Z</time>
      </trkpt>
      <trkpt lat="47.39343" lon="16.54648">
        <ele>275.883979</ele>
        <time>2022-08-07T05:02:57.071Z</time>
      </trkpt>
      <trkpt lat="47.39349" lon="16.54667">
        <ele>276.000184</ele>
        <time>2022-08-07T05:03:01.734Z</time>
      </trkpt>
      <trkpt lat="47.39365" lon="16.54713">
        <ele>276.53125</ele>
        <time>2022-08-07T05:03:13.391Z</time>
      </trkpt>
      <trkpt lat="47.39402" lon="16.54788">
        <ele>277.658228</ele>
        <time>2022-08-07T05:03:35.433Z</time>
      </trkpt>
      <trkpt lat="47.3943" lon="16.54817">
        <ele>278.27258</ele>
        <time>2022-08-07T05:03:48.033Z</time>
      </trkpt>
      <trkpt lat="47.39448" lon="16.54844">
        <ele>278.718413</ele>
        <time>2022-08-07T05:03:57.457Z</time>
      </trkpt>
      <trkpt lat="47.39509" lon="16.54973">
        <ele>281.84822</ele>
        <time>2022-08-07T05:04:41.322Z</time>
      </trkpt>
      <trkpt lat="47.39522" lon="16.55">
        <ele>282.624542</ele>
        <time>2022-08-07T05:04:51.431Z</time>
      </trkpt>
      <trkpt lat="47.39526" lon="16.55012">
        <ele>282.943788</ele>
        <time>2022-08-07T05:04:56.299Z</time>
      </trkpt>
      <trkpt lat="47.39611" lon="16.55179">
        <ele>288.665091</ele>
        <time>2022-08-07T05:06:27.130Z</time>
      </trkpt>
      <trkpt lat="47.39695" lon="16.55322">
        <ele>294.861216</ele>
        <time>2022-08-07T05:07:54.336Z</time>
      </trkpt>
      <trkpt lat="47.39733" lon="16.55402">
        <ele>298.795478</ele>
        <time>2022-08-07T05:08:42.469Z</time>
      </trkpt>
      <trkpt lat="47.39782" lon="16.55479">
        <ele>303.038909</ele>
        <time>2022-08-07T05:09:35.528Z</time>
      </trkpt>
      <trkpt lat="47.39798" lon="16.55513">
        <ele>304.706231</ele>
        <time>2022-08-07T05:09:57.417Z</time>
      </trkpt>
      <trkpt lat="47.39819" lon="16.55656">
        <ele>310.601491</ele>
        <time>2022-08-07T05:11:11.292Z</time>
      </trkpt>
      <trkpt lat="47.39837" lon="16.55708">
        <ele>312.957829</ele>
        <time>2022-08-07T05:11:40.310Z</time>
      </trkpt>
      <trkpt lat="47.39863" lon="16.55754">
        <ele>315.371798</ele>
        <time>2022-08-07T05:12:08.484Z</time>
      </trkpt>
      <trkpt lat="47.39934" lon="16.5581">
        <ele>318.686354</ele>
        <time>2022-08-07T05:13:03.745Z</time>
      </trkpt>
      <trkpt lat="47.39975" lon="16.5587">
        <ele>321.047213</ele>
        <time>2022-08-07T05:13:39.503Z</time>
      </trkpt>
      <trkpt lat="47.40011" lon="16.55895">
        <ele>322.676953</ele>
        <time>2022-08-07T05:14:03.552Z</time>
      </trkpt>
      <trkpt lat="47.40175" lon="16.56003">
        <ele>327.005361</ele>
        <time>2022-08-07T05:15:43.619Z</time>
      </trkpt>
      <trkpt lat="47.40487" lon="16.56181">
        <ele>332.208802</ele>
        <time>2022-08-07T05:18:37.621Z</time>
      </trkpt>
      <trkpt lat="47.40511" lon="16.56206">
        <ele>332.60139</ele>
        <time>2022-08-07T05:18:51.905Z</time>
      </trkpt>
      <trkpt lat="47.40574" lon="16.56365">
        <ele>333.712145</ele>
        <time>2022-08-07T05:19:53.056Z</time>
      </trkpt>
      <trkpt lat="47.40604" lon="16.56411">
        <ele>334.089353</ele>
        <time>2022-08-07T05:20:13.383Z</time>
      </trkpt>
      <trkpt lat="47.40604" lon="16.56441">
        <ele>334.248334</ele>
        <time>2022-08-07T05:20:23.282Z</time>
      </trkpt>
      <trkpt lat="47.40573" lon="16.56552">
        <ele>334.821217</ele>
        <time>2022-08-07T05:21:02.144Z</time>
      </trkpt>
      <trkpt lat="47.40565" lon="16.56671">
        <ele>335.387509</ele>
        <time>2022-08-07T05:21:41.136Z</time>
      </trkpt>
      <trkpt lat="47.40564" lon="16.56735">
        <ele>335.548393</ele>
        <time>2022-08-07T05:22:01.752Z</time>
      </trkpt>
      <trkpt lat="47.40583" lon="16.5682">
        <ele>335.743926</ele>
        <time>2022-08-07T05:22:30.210Z</time>
      </trkpt>
      <trkpt lat="47.40595" lon="16.56942">
        <ele>335.977597</ele>
        <time>2022-08-07T05:23:08.198Z</time>
      </trkpt>
      <trkpt lat="47.4059" lon="16.56997">
        <ele>335.388516</ele>
        <time>2022-08-07T05:23:24.239Z</time>
      </trkpt>
      <trkpt lat="47.40564" lon="16.571">
        <ele>334.235806</ele>
        <time>2022-08-07T05:23:53.679Z</time>
      </trkpt>
      <trkpt lat="47.40554" lon="16.57329">
        <ele>329.331921</ele>
        <time>2022-08-07T05:24:49.689Z</time>
      </trkpt>
      <trkpt lat="47.40541" lon="16.57405">
        <ele>327.035397</ele>
        <time>2022-08-07T05:25:07.076Z</time>
      </trkpt>
      <trkpt lat="47.40494" lon="16.57513">
        <ele>322.150769</ele>
        <time>2022-08-07T05:25:34.685Z</time>
      </trkpt>
      <trkpt lat="47.40568" lon="16.57585">
        <ele>316.336449</ele>
        <time>2022-08-07T05:26:02.744Z</time>
      </trkpt>
      <trkpt lat="47.40637" lon="16.5764">
        <ele>310.649088</ele>
        <time>2022-08-07T05:26:27.228Z</time>
      </trkpt>
      <trkpt lat="47.40658" lon="16.57667">
        <ele>308.436678</ele>
        <time>2022-08-07T05:26:35.747Z</time>
      </trkpt>
      <trkpt lat="47.40673" lon="16.57699">
        <ele>306.321742</ele>
        <time>2022-08-07T05:26:43.959Z</time>
      </trkpt>
      <trkpt lat="47.40775" lon="16.57989">
        <ele>287.799446</ele>
        <time>2022-08-07T05:27:50.532Z</time>
      </trkpt>
      <trkpt lat="47.40809" lon="16.58102">
        <ele>280.653282</ele>
        <time>2022-08-07T05:28:15.602Z</time>
      </trkpt>
      <trkpt lat="47.4081" lon="16.58122">
        <ele>279.516374</ele>
        <time>2022-08-07T05:28:19.634Z</time>
      </trkpt>
      <trkpt lat="47.40824" lon="16.58297">
        <ele>269.564562</ele>
        <time>2022-08-07T05:28:39.711Z</time>
      </trkpt>
      <trkpt lat="47.40822" lon="16.58363">
        <ele>265.945915</ele>
        <time>2022-08-07T05:28:47.143Z</time>
      </trkpt>
      <trkpt lat="47.40838" lon="16.58431">
        <ele>262.051466</ele>
        <time>2022-08-07T05:28:55.281Z</time>
      </trkpt>
      <trkpt lat="47.40869" lon="16.58507">
        <ele>257.299248</ele>
        <time>2022-08-07T05:29:05.264Z</time>
      </trkpt>
      <trkpt lat="47.40915" lon="16.58653">
        <ele>250.270516</ele>
        <time>2022-08-07T05:29:24.138Z</time>
      </trkpt>
      <trkpt lat="47.40949" lon="16.58715">
        <ele>247.184107</ele>
        <time>2022-08-07T05:29:33.778Z</time>
      </trkpt>
      <trkpt lat="47.40975" lon="16.58751">
        <ele>245.181543</ele>
        <time>2022-08-07T05:29:40.261Z</time>
      </trkpt>
      <trkpt lat="47.4101" lon="16.58777">
        <ele>243.547497</ele>
        <time>2022-08-07T05:29:47.697Z</time>
      </trkpt>
      <trkpt lat="47.41026" lon="16.58789">
        <ele>243.026233</ele>
        <time>2022-08-07T05:29:51.150Z</time>
      </trkpt>
      <trkpt lat="47.41039" lon="16.58798">
        <ele>242.618807</ele>
        <time>2022-08-07T05:29:53.925Z</time>
      </trkpt>
      <trkpt lat="47.41135" lon="16.58879">
        <ele>239.395234</ele>
        <time>2022-08-07T05:30:16.153Z</time>
      </trkpt>
      <trkpt lat="47.41232" lon="16.58922">
        <ele>238.644038</ele>
        <time>2022-08-07T05:30:38.357Z</time>
      </trkpt>
      <trkpt lat="47.41294" lon="16.58942">
        <ele>238.426877</ele>
        <time>2022-08-07T05:30:56.006Z</time>
      </trkpt>
      <trkpt lat="47.41304" lon="16.58945">
        <ele>238.390518</ele>
        <time>2022-08-07T05:30:58.941Z</time>
      </trkpt>
      <trkpt lat="47.4133" lon="16.58943">
        <ele>238.483821</ele>
        <time>2022-08-07T05:31:08.424Z</time>
      </trkpt>
      <trkpt lat="47.41353" lon="16.5893">
        <ele>239.320998</ele>
        <time>2022-08-07T05:31:17.443Z</time>
      </trkpt>
      <trkpt lat="47.41405" lon="16.58889">
        <ele>241.334116</ele>
        <time>2022-08-07T05:31:39.777Z</time>
      </trkpt>
      <trkpt lat="47.41413" lon="16.58897">
        <ele>241.653408</ele>
        <time>2022-08-07T05:31:43.723Z</time>
      </trkpt>
      <trkpt lat="47.41433" lon="16.58939">
        <ele>242.82004</ele>
        <time>2022-08-07T05:31:59.925Z</time>
      </trkpt>
      <trkpt lat="47.41438" lon="16.58933">
        <ele>243.040909</ele>
        <time>2022-08-07T05:32:04.124Z</time>
      </trkpt>
      <trkpt lat="47.41459" lon="16.58859">
        <ele>245.216566</ele>
        <time>2022-08-07T05:32:32.049Z</time>
      </trkpt>
      <trkpt lat="47.41489" lon="16.58789">
        <ele>248.501837</ele>
        <time>2022-08-07T05:33:03.065Z</time>
      </trkpt>
      <trkpt lat="47.415" lon="16.58752">
        <ele>250.101906</ele>
        <time>2022-08-07T05:33:17.076Z</time>
      </trkpt>
      <trkpt lat="47.41517" lon="16.58695">
        <ele>252.580522</ele>
        <time>2022-08-07T05:33:40.312Z</time>
      </trkpt>
      <trkpt lat="47.4155" lon="16.58658">
        <ele>255.041496</ele>
        <time>2022-08-07T05:34:11.687Z</time>
      </trkpt>
      <trkpt lat="47.41603" lon="16.58573">
        <ele>261.248775</ele>
        <time>2022-08-07T05:35:17.649Z</time>
      </trkpt>
      <trkpt lat="47.41656" lon="16.58444">
        <ele>269.286858</ele>
        <time>2022-08-07T05:36:43.162Z</time>
      </trkpt>
      <trkpt lat="47.41677" lon="16.584">
        <ele>271.497558</ele>
        <time>2022-08-07T05:37:14.149Z</time>
      </trkpt>
      <trkpt lat="47.41694" lon="16.58349">
        <ele>273.781427</ele>
        <time>2022-08-07T05:37:45.354Z</time>
      </trkpt>
      <trkpt lat="47.417" lon="16.58323">
        <ele>274.874943</ele>
        <time>2022-08-07T05:37:58.366Z</time>
      </trkpt>
      <trkpt lat="47.417" lon="16.58299">
        <ele>275.839632</ele>
        <time>2022-08-07T05:38:11.686Z</time>
      </trkpt>
      <trkpt lat="47.41685" lon="16.58227">
        <ele>278.899674</ele>
        <time>2022-08-07T05:38:45.869Z</time>
      </trkpt>
      <trkpt lat="47.41678" lon="16.58163">
        <ele>279.936446</ele>
        <time>2022-08-07T05:39:11.170Z</time>
      </trkpt>
      <trkpt lat="47.41686" lon="16.5804">
        <ele>279.923728</ele>
        <time>2022-08-07T05:39:51.949Z</time>
      </trkpt>
      <trkpt lat="47.41681" lon="16.5799">
        <ele>279.918502</ele>
        <time>2022-08-07T05:40:05.166Z</time>
      </trkpt>
      <trkpt lat="47.4168" lon="16.57934">
        <ele>279.7931</ele>
        <time>2022-08-07T05:40:18.751Z</time>
      </trkpt>
      <trkpt lat="47.41694" lon="16.57878">
        <ele>277.658911</ele>
        <time>2022-08-07T05:40:32.640Z</time>
      </trkpt>
      <trkpt lat="47.4173" lon="16.57773">
        <ele>273.449659</ele>
        <time>2022-08-07T05:40:58.576Z</time>
      </trkpt>
      <trkpt lat="47.41788" lon="16.57634">
        <ele>266.007257</ele>
        <time>2022-08-07T05:41:33.000Z</time>
      </trkpt>
      <trkpt lat="47.41814" lon="16.57585">
        <ele>262.434971</ele>
        <time>2022-08-07T05:41:45.826Z</time>
      </trkpt>
      <trkpt lat="47.41903" lon="16.57558">
        <ele>254.955634</ele>
        <time>2022-08-07T05:42:12.555Z</time>
      </trkpt>
      <trkpt lat="47.4195" lon="16.57569">
        <ele>251.339006</ele>
        <time>2022-08-07T05:42:20.480Z</time>
      </trkpt>
      <trkpt lat="47.42006" lon="16.57579">
        <ele>246.986201</ele>
        <time>2022-08-07T05:42:30.561Z</time>
      </trkpt>
      <trkpt lat="47.42049" lon="16.5756">
        <ele>243.580048</ele>
        <time>2022-08-07T05:42:38.587Z</time>
      </trkpt>
      <trkpt lat="47.42082" lon="16.57527">
        <ele>241.154359</ele>
        <time>2022-08-07T05:42:45.773Z</time>
      </trkpt>
      <trkpt lat="47.42101" lon="16.57494">
        <ele>240.056003</ele>
        <time>2022-08-07T05:42:51.562Z</time>
      </trkpt>
      <trkpt lat="47.42115" lon="16.57419">
        <ele>238.135884</ele>
        <time>2022-08-07T05:43:02.511Z</time>
      </trkpt>
      <trkpt lat="47.42183" lon="16.57194">
        <ele>232.55955</ele>
        <time>2022-08-07T05:43:37.769Z</time>
      </trkpt>
      <trkpt lat="47.42196" lon="16.57179">
        <ele>232.064205</ele>
        <time>2022-08-07T05:43:41.191Z</time>
      </trkpt>
      <trkpt lat="47.42243" lon="16.5715">
        <ele>230.530376</ele>
        <time>2022-08-07T05:43:51.473Z</time>
      </trkpt>
      <trkpt lat="47.42262" lon="16.57147">
        <ele>229.94468</ele>
        <time>2022-08-07T05:43:56.656Z</time>
      </trkpt>
      <trkpt lat="47.4227" lon="16.5717">
        <ele>229.357577</ele>
        <time>2022-08-07T05:44:00.119Z</time>
      </trkpt>
      <trkpt lat="47.42274" lon="16.57218">
        <ele>228.070327</ele>
        <time>2022-08-07T05:44:06.710Z</time>
      </trkpt>
      <trkpt lat="47.42252" lon="16.5737">
        <ele>224.013479</ele>
        <time>2022-08-07T05:44:27.000Z</time>
      </trkpt>
      <trkpt lat="47.42378" lon="16.57404">
        <ele>220.680448</ele>
        <time>2022-08-07T05:44:52.598Z</time>
      </trkpt>
      <trkpt lat="47.42503" lon="16.57393">
        <ele>218.96124</ele>
        <time>2022-08-07T05:45:20.450Z</time>
      </trkpt>
      <trkpt lat="47.42507" lon="16.57392">
        <ele>218.974596</ele>
        <time>2022-08-07T05:45:21.603Z</time>
      </trkpt>
      <trkpt lat="47.42531" lon="16.57391">
        <ele>219.047398</ele>
        <time>2022-08-07T05:45:28.222Z</time>
      </trkpt>
      <trkpt lat="47.42536" lon="16.5739">
        <ele>219.063199</ele>
        <time>2022-08-07T05:45:29.748Z</time>
      </trkpt>
      <trkpt lat="47.42668" lon="16.57379">
        <ele>219.66424</ele>
        <time>2022-08-07T05:46:11.424Z</time>
      </trkpt>
      <trkpt lat="47.4277" lon="16.57343">
        <ele>220.82387</ele>
        <time>2022-08-07T05:46:45.492Z</time>
      </trkpt>
      <trkpt lat="47.4282" lon="16.57316">
        <ele>221.413734</ele>
        <time>2022-08-07T05:47:02.451Z</time>
      </trkpt>
      <trkpt lat="47.4289" lon="16.57232">
        <ele>222.125032</ele>
        <time>2022-08-07T05:47:29.997Z</time>
      </trkpt>
      <trkpt lat="47.42907" lon="16.5723">
        <ele>222.259709</ele>
        <time>2022-08-07T05:47:35.246Z</time>
      </trkpt>
      <trkpt lat="47.43017" lon="16.57351">
        <ele>223.413539</ele>
        <time>2022-08-07T05:48:16.319Z</time>
      </trkpt>
      <trkpt lat="47.43031" lon="16.57352">
        <ele>223.539378</ele>
        <time>2022-08-07T05:48:20.841Z</time>
      </trkpt>
      <trkpt lat="47.43042" lon="16.57345">
        <ele>223.648914</ele>
        <time>2022-08-07T05:48:24.611Z</time>
      </trkpt>
      <trkpt lat="47.43298" lon="16.57115">
        <ele>226.442945</ele>
        <time>2022-08-07T05:49:59.649Z</time>
      </trkpt>
      <trkpt lat="47.43307" lon="16.57109">
        <ele>226.485509</ele>
        <time>2022-08-07T05:50:02.495Z</time>
      </trkpt>
      <trkpt lat="47.43528" lon="16.57027">
        <ele>227.259274</ele>
        <time>2022-08-07T05:51:06.041Z</time>
      </trkpt>
      <trkpt lat="47.43733" lon="16.56861">
        <ele>228.034774</ele>
        <time>2022-08-07T05:52:09.968Z</time>
      </trkpt>
      <trkpt lat="47.43938" lon="16.56692">
        <ele>231.123642</ele>
        <time>2022-08-07T05:53:27.790Z</time>
      </trkpt>
      <trkpt lat="47.44178" lon="16.56515">
        <ele>236.987122</ele>
        <time>2022-08-07T05:55:10.880Z</time>
      </trkpt>
      <trkpt lat="47.44414" lon="16.56344">
        <ele>241.47335</ele>
        <time>2022-08-07T05:56:40.698Z</time>
      </trkpt>
      <trkpt lat="47.44618" lon="16.56212">
        <ele>245.200303</ele>
        <time>2022-08-07T05:57:58.800Z</time>
      </trkpt>
      <trkpt lat="47.44853" lon="16.5602">
        <ele>248.797297</ele>
        <time>2022-08-07T05:59:27.393Z</time>
      </trkpt>
      <trkpt lat="47.45094" lon="16.55821">
        <ele>251.487281</ele>
        <time>2022-08-07T06:00:54.440Z</time>
      </trkpt>
      <trkpt lat="47.45221" lon="16.56086">
        <ele>252.904187</ele>
        <time>2022-08-07T06:01:58.713Z</time>
      </trkpt>
      <trkpt lat="47.45885" lon="16.56894">
        <ele>257.402908</ele>
        <time>2022-08-07T06:06:18.036Z</time>
      </trkpt>
      <trkpt lat="47.45924" lon="16.56927">
        <ele>256.495365</ele>
        <time>2022-08-07T06:06:27.657Z</time>
      </trkpt>
      <trkpt lat="47.45949" lon="16.56934">
        <ele>255.978492</ele>
        <time>2022-08-07T06:06:32.872Z</time>
      </trkpt>
      <trkpt lat="47.46223" lon="16.57007">
        <ele>242.499803</ele>
        <time>2022-08-07T06:07:23.140Z</time>
      </trkpt>
      <trkpt lat="47.46279" lon="16.57027">
        <ele>238.680774</ele>
        <time>2022-08-07T06:07:32.955Z</time>
      </trkpt>
      <trkpt lat="47.46306" lon="16.57051">
        <ele>236.57755</ele>
        <time>2022-08-07T06:07:38.333Z</time>
      </trkpt>
      <trkpt lat="47.46325" lon="16.57084">
        <ele>234.663085</ele>
        <time>2022-08-07T06:07:43.236Z</time>
      </trkpt>
      <trkpt lat="47.4638" lon="16.57245">
        <ele>227.363582</ele>
        <time>2022-08-07T06:08:04.312Z</time>
      </trkpt>
      <trkpt lat="47.46387" lon="16.57238">
        <ele>226.901382</ele>
        <time>2022-08-07T06:08:05.736Z</time>
      </trkpt>
      <trkpt lat="47.46409" lon="16.5727">
        <ele>225.078884</ele>
        <time>2022-08-07T06:08:11.311Z</time>
      </trkpt>
      <trkpt lat="47.46519" lon="16.5739">
        <ele>220.596623</ele>
        <time>2022-08-07T06:08:37.897Z</time>
      </trkpt>
      <trkpt lat="47.4654" lon="16.57413">
        <ele>219.946437</ele>
        <time>2022-08-07T06:08:43.604Z</time>
      </trkpt>
      <trkpt lat="47.46545" lon="16.57418">
        <ele>219.792576</ele>
        <time>2022-08-07T06:08:44.988Z</time>
      </trkpt>
      <trkpt lat="47.46572" lon="16.57451">
        <ele>218.937688</ele>
        <time>2022-08-07T06:08:52.881Z</time>
      </trkpt>
      <trkpt lat="47.46591" lon="16.57472">
        <ele>218.76903</ele>
        <time>2022-08-07T06:08:58.641Z</time>
      </trkpt>
      <trkpt lat="47.46622" lon="16.57491">
        <ele>218.87428</ele>
        <time>2022-08-07T06:09:06.869Z</time>
      </trkpt>
      <trkpt lat="47.46646" lon="16.57497">
        <ele>218.949758</ele>
        <time>2022-08-07T06:09:13.077Z</time>
      </trkpt>
      <trkpt lat="47.46712" lon="16.57519">
        <ele>219.164699</ele>
        <time>2022-08-07T06:09:33.368Z</time>
      </trkpt>
      <trkpt lat="47.46806" lon="16.57575">
        <ele>220.123196</ele>
        <time>2022-08-07T06:10:06.994Z</time>
      </trkpt>
      <trkpt lat="47.46817" lon="16.57587">
        <ele>220.3131</ele>
        <time>2022-08-07T06:10:11.902Z</time>
      </trkpt>
      <trkpt lat="47.46828" lon="16.57626">
        <ele>220.693691</ele>
        <time>2022-08-07T06:10:21.526Z</time>
      </trkpt>
      <trkpt lat="47.46823" lon="16.57655">
        <ele>220.965438</ele>
        <time>2022-08-07T06:10:28.352Z</time>
      </trkpt>
      <trkpt lat="47.46795" lon="16.57717">
        <ele>221.644571</ele>
        <time>2022-08-07T06:10:45.587Z</time>
      </trkpt>
      <trkpt lat="47.46716" lon="16.57856">
        <ele>223.087171</ele>
        <time>2022-08-07T06:11:23.579Z</time>
      </trkpt>
      <trkpt lat="47.46704" lon="16.57891">
        <ele>223.406133</ele>
        <time>2022-08-07T06:11:31.810Z</time>
      </trkpt>
      <trkpt lat="47.46702" lon="16.57941">
        <ele>223.802598</ele>
        <time>2022-08-07T06:11:42.438Z</time>
      </trkpt>
      <trkpt lat="47.46707" lon="16.58033">
        <ele>226.166095</ele>
        <time>2022-08-07T06:12:05.349Z</time>
      </trkpt>
      <trkpt lat="47.46814" lon="16.58061">
        <ele>230.390946</ele>
        <time>2022-08-07T06:12:58.666Z</time>
      </trkpt>
      <trkpt lat="47.4683" lon="16.58071">
        <ele>231.252246</ele>
        <time>2022-08-07T06:13:09.589Z</time>
      </trkpt>
      <trkpt lat="47.46885" lon="16.58115">
        <ele>235.222173</ele>
        <time>2022-08-07T06:13:47.303Z</time>
      </trkpt>
      <trkpt lat="47.47019" lon="16.58228">
        <ele>243.959075</ele>
        <time>2022-08-07T06:15:16.926Z</time>
      </trkpt>
      <trkpt lat="47.47094" lon="16.5834">
        <ele>248.070046</ele>
        <time>2022-08-07T06:16:03.283Z</time>
      </trkpt>
      <trkpt lat="47.47168" lon="16.58446">
        <ele>249.567235</ele>
        <time>2022-08-07T06:16:37.082Z</time>
      </trkpt>
      <trkpt lat="47.47257" lon="16.58589">
        <ele>249.289968</ele>
        <time>2022-08-07T06:17:11.645Z</time>
      </trkpt>
      <trkpt lat="47.47329" lon="16.58678">
        <ele>246.434027</ele>
        <time>2022-08-07T06:17:31.026Z</time>
      </trkpt>
      <trkpt lat="47.47777" lon="16.59031">
        <ele>222.831695</ele>
        <time>2022-08-07T06:19:01.319Z</time>
      </trkpt>
      <trkpt lat="47.47798" lon="16.59047">
        <ele>222.434841</ele>
        <time>2022-08-07T06:19:06.333Z</time>
      </trkpt>
      <trkpt lat="47.47832" lon="16.59086">
        <ele>221.701276</ele>
        <time>2022-08-07T06:19:18.605Z</time>
      </trkpt>
      <trkpt lat="47.47844" lon="16.59104">
        <ele>221.403638</ele>
        <time>2022-08-07T06:19:24.802Z</time>
      </trkpt>
      <trkpt lat="47.47849" lon="16.59113">
        <ele>221.268769</ele>
        <time>2022-08-07T06:19:27.650Z</time>
      </trkpt>
      <trkpt lat="47.48053" lon="16.59437">
        <ele>241.547357</ele>
        <time>2022-08-07T06:22:38.186Z</time>
      </trkpt>
      <trkpt lat="47.48144" lon="16.59593">
        <ele>247.806688</ele>
        <time>2022-08-07T06:23:48.501Z</time>
      </trkpt>
      <trkpt lat="47.4844" lon="16.6009">
        <ele>258.623944</ele>
        <time>2022-08-07T06:26:33.335Z</time>
      </trkpt>
      <trkpt lat="47.48565" lon="16.60296">
        <ele>259.916518</ele>
        <time>2022-08-07T06:27:29.621Z</time>
      </trkpt>
      <trkpt lat="47.48684" lon="16.60507">
        <ele>257.947965</ele>
        <time>2022-08-07T06:28:12.409Z</time>
      </trkpt>
      <trkpt lat="47.48737" lon="16.60623">
        <ele>255.015638</ele>
        <time>2022-08-07T06:28:31.329Z</time>
      </trkpt>
      <trkpt lat="47.48755" lon="16.60649">
        <ele>254.215853</ele>
        <time>2022-08-07T06:28:36.314Z</time>
      </trkpt>
      <trkpt lat="47.48996" lon="16.60766">
        <ele>244.042823</ele>
        <time>2022-08-07T06:29:23.359Z</time>
      </trkpt>
      <trkpt lat="47.4902" lon="16.60784">
        <ele>243.140756</ele>
        <time>2022-08-07T06:29:28.477Z</time>
      </trkpt>
      <trkpt lat="47.49046" lon="16.60818">
        <ele>241.964425</ele>
        <time>2022-08-07T06:29:35.313Z</time>
      </trkpt>
      <trkpt lat="47.49115" lon="16.60967">
        <ele>238.196509</ele>
        <time>2022-08-07T06:30:00.621Z</time>
      </trkpt>
      <trkpt lat="47.49132" lon="16.61003">
        <ele>237.862119</ele>
        <time>2022-08-07T06:30:07.419Z</time>
      </trkpt>
      <trkpt lat="47.49139" lon="16.61016">
        <ele>237.741715</ele>
        <time>2022-08-07T06:30:09.935Z</time>
      </trkpt>
      <trkpt lat="47.49146" lon="16.61032">
        <ele>237.597624</ele>
        <time>2022-08-07T06:30:13.097Z</time>
      </trkpt>
      <trkpt lat="47.49193" lon="16.60988">
        <ele>236.979771</ele>
        <time>2022-08-07T06:30:26.030Z</time>
      </trkpt>
      <trkpt lat="47.49245" lon="16.60944">
        <ele>236.39079</ele>
        <time>2022-08-07T06:30:41.729Z</time>
      </trkpt>
      <trkpt lat="47.49381" lon="16.60869">
        <ele>236.962332</ele>
        <time>2022-08-07T06:31:23.476Z</time>
      </trkpt>
      <trkpt lat="47.49422" lon="16.60846">
        <ele>237.129559</ele>
        <time>2022-08-07T06:31:36.666Z</time>
      </trkpt>
      <trkpt lat="47.49486" lon="16.60792">
        <ele>237.400522</ele>
        <time>2022-08-07T06:31:58.049Z</time>
      </trkpt>
      <trkpt lat="47.49494" lon="16.60784">
        <ele>237.434613</ele>
        <time>2022-08-07T06:32:00.708Z</time>
      </trkpt>
      <trkpt lat="47.49533" lon="16.60758">
        <ele>237.591771</ele>
        <time>2022-08-07T06:32:13.391Z</time>
      </trkpt>
      <trkpt lat="47.49593" lon="16.60711">
        <ele>237.779847</ele>
        <time>2022-08-07T06:32:32.470Z</time>
      </trkpt>
      <trkpt lat="47.49703" lon="16.60631">
        <ele>237.971752</ele>
        <time>2022-08-07T06:33:05.134Z</time>
      </trkpt>
      <trkpt lat="47.49796" lon="16.60642">
        <ele>238.439961</ele>
        <time>2022-08-07T06:33:32.586Z</time>
      </trkpt>
      <trkpt lat="47.49827" lon="16.60629">
        <ele>238.651467</ele>
        <time>2022-08-07T06:33:42.385Z</time>
      </trkpt>
      <trkpt lat="47.50172" lon="16.60407">
        <ele>241.379332</ele>
        <time>2022-08-07T06:35:35.982Z</time>
      </trkpt>
      <trkpt lat="47.50199" lon="16.60399">
        <ele>241.598148</ele>
        <time>2022-08-07T06:35:44.389Z</time>
      </trkpt>
      <trkpt lat="47.50633" lon="16.60257">
        <ele>246.149018</ele>
        <time>2022-08-07T06:38:04.247Z</time>
      </trkpt>
      <trkpt lat="47.50802" lon="16.60827">
        <ele>252.951356</ele>
        <time>2022-08-07T06:40:27.258Z</time>
      </trkpt>
      <trkpt lat="47.51032" lon="16.60752">
        <ele>258.995254</ele>
        <time>2022-08-07T06:42:02.031Z</time>
      </trkpt>
      <trkpt lat="47.51253" lon="16.60625">
        <ele>265.764838</ele>
        <time>2022-08-07T06:43:37.143Z</time>
      </trkpt>
      <trkpt lat="47.51329" lon="16.60575">
        <ele>268.385454</ele>
        <time>2022-08-07T06:44:11.304Z</time>
      </trkpt>
      <trkpt lat="47.51776" lon="16.6022">
        <ele>286.299684</ele>
        <time>2022-08-07T06:47:55.113Z</time>
      </trkpt>
      <trkpt lat="47.51846" lon="16.60169">
        <ele>288.954408</ele>
        <time>2022-08-07T06:48:28.760Z</time>
      </trkpt>
      <trkpt lat="47.51963" lon="16.60128">
        <ele>291.567615</ele>
        <time>2022-08-07T06:49:15.569Z</time>
      </trkpt>
      <trkpt lat="47.52038" lon="16.60104">
        <ele>293.036629</ele>
        <time>2022-08-07T06:49:40.874Z</time>
      </trkpt>
      <trkpt lat="47.52231" lon="16.60014">
        <ele>293.723072</ele>
        <time>2022-08-07T06:50:37.765Z</time>
      </trkpt>
      <trkpt lat="47.52352" lon="16.59946">
        <ele>293.55226</ele>
        <time>2022-08-07T06:51:11.102Z</time>
      </trkpt>
      <trkpt lat="47.52478" lon="16.59889">
        <ele>293.231159</ele>
        <time>2022-08-07T06:51:44.390Z</time>
      </trkpt>
      <trkpt lat="47.52555" lon="16.59857">
        <ele>293.006641</ele>
        <time>2022-08-07T06:52:04.914Z</time>
      </trkpt>
      <trkpt lat="47.52623" lon="16.59828">
        <ele>292.74175</ele>
        <time>2022-08-07T06:52:23.115Z</time>
      </trkpt>
      <trkpt lat="47.52889" lon="16.59699">
        <ele>291.016595</ele>
        <time>2022-08-07T06:53:32.090Z</time>
      </trkpt>
      <trkpt lat="47.53053" lon="16.59558">
        <ele>287.139218</ele>
        <time>2022-08-07T06:54:11.240Z</time>
      </trkpt>
      <trkpt lat="47.53149" lon="16.59473">
        <ele>284.49612</ele>
        <time>2022-08-07T06:54:34.127Z</time>
      </trkpt>
      <trkpt lat="47.53319" lon="16.59292">
        <ele>279.795053</ele>
        <time>2022-08-07T06:55:17.687Z</time>
      </trkpt>
      <trkpt lat="47.53419" lon="16.59191">
        <ele>277.04618</ele>
        <time>2022-08-07T06:55:42.949Z</time>
      </trkpt>
      <trkpt lat="47.53504" lon="16.59157">
        <ele>275.038021</ele>
        <time>2022-08-07T06:56:02.062Z</time>
      </trkpt>
      <trkpt lat="47.53531" lon="16.59154">
        <ele>274.416402</ele>
        <time>2022-08-07T06:56:07.632Z</time>
      </trkpt>
      <trkpt lat="47.53635" lon="16.59065">
        <ele>271.562435</ele>
        <time>2022-08-07T06:56:33.328Z</time>
      </trkpt>
      <trkpt lat="47.53696" lon="16.59016">
        <ele>270.02493</ele>
        <time>2022-08-07T06:56:48.472Z</time>
      </trkpt>
      <trkpt lat="47.53761" lon="16.58944">
        <ele>268.358207</ele>
        <time>2022-08-07T06:57:06.461Z</time>
      </trkpt>
      <trkpt lat="47.53824" lon="16.58872">
        <ele>266.916076</ele>
        <time>2022-08-07T06:57:23.997Z</time>
      </trkpt>
      <trkpt lat="47.53851" lon="16.58839">
        <ele>266.563611</ele>
        <time>2022-08-07T06:57:32.072Z</time>
      </trkpt>
      <trkpt lat="47.53886" lon="16.58901">
        <ele>266.013326</ele>
        <time>2022-08-07T06:57:45.086Z</time>
      </trkpt>
      <trkpt lat="47.53913" lon="16.58931">
        <ele>265.668794</ele>
        <time>2022-08-07T06:57:53.678Z</time>
      </trkpt>
      <trkpt lat="47.53923" lon="16.58886">
        <ele>265.346544</ele>
        <time>2022-08-07T06:58:01.757Z</time>
      </trkpt>
      <trkpt lat="47.53969" lon="16.58771">
        <ele>265.594699</ele>
        <time>2022-08-07T06:58:25.921Z</time>
      </trkpt>
      <trkpt lat="47.5404" lon="16.58628">
        <ele>266.228488</ele>
        <time>2022-08-07T06:59:02.252Z</time>
      </trkpt>
      <trkpt lat="47.54093" lon="16.58554">
        <ele>267.073149</ele>
        <time>2022-08-07T06:59:25.052Z</time>
      </trkpt>
      <trkpt lat="47.541" lon="16.58537">
        <ele>267.22967</ele>
        <time>2022-08-07T06:59:29.484Z</time>
      </trkpt>
      <trkpt lat="47.5415" lon="16.58506">
        <ele>267.867706</ele>
        <time>2022-08-07T06:59:48.462Z</time>
      </trkpt>
      <trkpt lat="47.54208" lon="16.58526">
        <ele>268.689847</ele>
        <time>2022-08-07T07:00:09.391Z</time>
      </trkpt>
      <trkpt lat="47.54265" lon="16.58559">
        <ele>269.579171</ele>
        <time>2022-08-07T07:00:31.104Z</time>
      </trkpt>
      <trkpt lat="47.54409" lon="16.58668">
        <ele>271.552501</ele>
        <time>2022-08-07T07:01:26.091Z</time>
      </trkpt>
      <trkpt lat="47.54449" lon="16.58708">
        <ele>272.044672</ele>
        <time>2022-08-07T07:01:41.265Z</time>
      </trkpt>
      <trkpt lat="47.54485" lon="16.58747">
        <ele>272.498956</ele>
        <time>2022-08-07T07:01:55.361Z</time>
      </trkpt>
      <trkpt lat="47.54508" lon="16.58769">
        <ele>272.738906</ele>
        <time>2022-08-07T07:02:03.742Z</time>
      </trkpt>
      <trkpt lat="47.54677" lon="16.58947">
        <ele>274.137254</ele>
        <time>2022-08-07T07:03:08.010Z</time>
      </trkpt>
      <trkpt lat="47.54735" lon="16.59027">
        <ele>274.230015</ele>
        <time>2022-08-07T07:03:30.475Z</time>
      </trkpt>
      <trkpt lat="47.54756" lon="16.59065">
        <ele>274.268427</ele>
        <time>2022-08-07T07:03:38.950Z</time>
      </trkpt>
      <trkpt lat="47.54922" lon="16.59405">
        <ele>269.449416</ele>
        <time>2022-08-07T07:04:40.044Z</time>
      </trkpt>
      <trkpt lat="47.55026" lon="16.5964">
        <ele>265.686226</ele>
        <time>2022-08-07T07:05:18.155Z</time>
      </trkpt>
      <trkpt lat="47.55045" lon="16.59684">
        <ele>265.071696</ele>
        <time>2022-08-07T07:05:25.805Z</time>
      </trkpt>
      <trkpt lat="47.5505" lon="16.59695">
        <ele>264.911413</ele>
        <time>2022-08-07T07:05:27.849Z</time>
      </trkpt>
      <trkpt lat="47.55084" lon="16.59746">
        <ele>264.550275</ele>
        <time>2022-08-07T07:05:39.814Z</time>
      </trkpt>
      <trkpt lat="47.55183" lon="16.59839">
        <ele>266.700978</ele>
        <time>2022-08-07T07:06:20.497Z</time>
      </trkpt>
      <trkpt lat="47.55244" lon="16.59879">
        <ele>268.268871</ele>
        <time>2022-08-07T07:06:49.784Z</time>
      </trkpt>
      <trkpt lat="47.55311" lon="16.5992">
        <ele>270.876906</ele>
        <time>2022-08-07T07:07:22.046Z</time>
      </trkpt>
      <trkpt lat="47.55406" lon="16.59976">
        <ele>274.53341</ele>
        <time>2022-08-07T07:08:08.657Z</time>
      </trkpt>
      <trkpt lat="47.55483" lon="16.60048">
        <ele>277.224535</ele>
        <time>2022-08-07T07:08:45.689Z</time>
      </trkpt>
      <trkpt lat="47.55557" lon="16.60129">
        <ele>279.857372</ele>
        <time>2022-08-07T07:09:21.604Z</time>
      </trkpt>
      <trkpt lat="47.5564" lon="16.60227">
        <ele>282.329893</ele>
        <time>2022-08-07T07:10:03.851Z</time>
      </trkpt>
      <trkpt lat="47.5568" lon="16.60275">
        <ele>283.511686</ele>
        <time>2022-08-07T07:10:22.527Z</time>
      </trkpt>
      <trkpt lat="47.55692" lon="16.60289">
        <ele>283.69055</ele>
        <time>2022-08-07T07:10:28.124Z</time>
      </trkpt>
      <trkpt lat="47.5572" lon="16.6032">
        <ele>283.756482</ele>
        <time>2022-08-07T07:10:39.966Z</time>
      </trkpt>
      <trkpt lat="47.55985" lon="16.6061">
        <ele>282.970101</ele>
        <time>2022-08-07T07:12:02.004Z</time>
      </trkpt>
      <trkpt lat="47.56157" lon="16.60766">
        <ele>280.445948</ele>
        <time>2022-08-07T07:12:47.436Z</time>
      </trkpt>
      <trkpt lat="47.56179" lon="16.60774">
        <ele>280.004216</ele>
        <time>2022-08-07T07:12:53.162Z</time>
      </trkpt>
      <trkpt lat="47.56219" lon="16.60746">
        <ele>279.137452</ele>
        <time>2022-08-07T07:13:03.885Z</time>
      </trkpt>
      <trkpt lat="47.56287" lon="16.6066">
        <ele>276.863821</ele>
        <time>2022-08-07T07:13:21.699Z</time>
      </trkpt>
      <trkpt lat="47.56339" lon="16.60611">
        <ele>272.795727</ele>
        <time>2022-08-07T07:13:32.736Z</time>
      </trkpt>
      <trkpt lat="47.56424" lon="16.60573">
        <ele>266.949321</ele>
        <time>2022-08-07T07:13:47.807Z</time>
      </trkpt>
      <trkpt lat="47.56466" lon="16.60547">
        <ele>263.243353</ele>
        <time>2022-08-07T07:13:55.397Z</time>
      </trkpt>
      <trkpt lat="47.56537" lon="16.60539">
        <ele>256.640691</ele>
        <time>2022-08-07T07:14:06.949Z</time>
      </trkpt>
      <trkpt lat="47.56555" lon="16.60531">
        <ele>254.828848</ele>
        <time>2022-08-07T07:14:10.110Z</time>
      </trkpt>
      <trkpt lat="47.56567" lon="16.60511">
        <ele>253.16334</ele>
        <time>2022-08-07T07:14:13.275Z</time>
      </trkpt>
      <trkpt lat="47.56565" lon="16.60496">
        <ele>252.208242</ele>
        <time>2022-08-07T07:14:14.948Z</time>
      </trkpt>
      <trkpt lat="47.56555" lon="16.60478">
        <ele>250.712422</ele>
        <time>2022-08-07T07:14:17.698Z</time>
      </trkpt>
      <trkpt lat="47.56554" lon="16.60458">
        <ele>249.477782</ele>
        <time>2022-08-07T07:14:19.984Z</time>
      </trkpt>
      <trkpt lat="47.56564" lon="16.60452">
        <ele>248.3612</ele>
        <time>2022-08-07T07:14:21.626Z</time>
      </trkpt>
      <trkpt lat="47.56612" lon="16.60515">
        <ele>240.903122</ele>
        <time>2022-08-07T07:14:32.101Z</time>
      </trkpt>
      <trkpt lat="47.56657" lon="16.60551">
        <ele>234.976131</ele>
        <time>2022-08-07T07:14:40.177Z</time>
      </trkpt>
      <trkpt lat="47.56719" lon="16.60563">
        <ele>227.867714</ele>
        <time>2022-08-07T07:14:49.948Z</time>
      </trkpt>
      <trkpt lat="47.56809" lon="16.60543">
        <ele>219.830334</ele>
        <time>2022-08-07T07:15:04.654Z</time>
      </trkpt>
      <trkpt lat="47.56817" lon="16.60539">
        <ele>219.035774</ele>
        <time>2022-08-07T07:15:06.096Z</time>
      </trkpt>
      <trkpt lat="47.56851" lon="16.60534">
        <ele>216.051254</ele>
        <time>2022-08-07T07:15:11.638Z</time>
      </trkpt>
      <trkpt lat="47.56881" lon="16.61101">
        <ele>203.980332</ele>
        <time>2022-08-07T07:16:29.765Z</time>
      </trkpt>
      <trkpt lat="47.569" lon="16.61174">
        <ele>203.601028</ele>
        <time>2022-08-07T07:16:42.674Z</time>
      </trkpt>
      <trkpt lat="47.56917" lon="16.61218">
        <ele>203.617788</ele>
        <time>2022-08-07T07:16:51.313Z</time>
      </trkpt>
      <trkpt lat="47.56933" lon="16.61237">
        <ele>203.628121</ele>
        <time>2022-08-07T07:16:56.719Z</time>
      </trkpt>
      <trkpt lat="47.57041" lon="16.61273">
        <ele>204.195483</ele>
        <time>2022-08-07T07:17:29.618Z</time>
      </trkpt>
      <trkpt lat="47.57117" lon="16.61282">
        <ele>206.20916</ele>
        <time>2022-08-07T07:17:57.454Z</time>
      </trkpt>
      <trkpt lat="47.57383" lon="16.61258">
        <ele>215.148721</ele>
        <time>2022-08-07T07:19:57.384Z</time>
      </trkpt>
      <trkpt lat="47.57418" lon="16.61254">
        <ele>215.896318</ele>
        <time>2022-08-07T07:20:12.251Z</time>
      </trkpt>
      <trkpt lat="47.57497" lon="16.61289">
        <ele>217.621297</ele>
        <time>2022-08-07T07:20:43.928Z</time>
      </trkpt>
      <trkpt lat="47.57616" lon="16.61292">
        <ele>218.498424</ele>
        <time>2022-08-07T07:21:19.773Z</time>
      </trkpt>
      <trkpt lat="47.57639" lon="16.61304">
        <ele>218.33705</ele>
        <time>2022-08-07T07:21:26.136Z</time>
      </trkpt>
      <trkpt lat="47.57651" lon="16.61319">
        <ele>218.236694</ele>
        <time>2022-08-07T07:21:29.943Z</time>
      </trkpt>
      <trkpt lat="47.57954" lon="16.61957">
        <ele>210.279045</ele>
        <time>2022-08-07T07:23:22.413Z</time>
      </trkpt>
      <trkpt lat="47.57956" lon="16.61961">
        <ele>210.246854</ele>
        <time>2022-08-07T07:23:23.196Z</time>
      </trkpt>
      <trkpt lat="47.58004" lon="16.61868">
        <ele>209.499544</ele>
        <time>2022-08-07T07:23:43.368Z</time>
      </trkpt>
      <trkpt lat="47.58243" lon="16.61663">
        <ele>210.216189</ele>
        <time>2022-08-07T07:25:03.199Z</time>
      </trkpt>
      <trkpt lat="47.58403" lon="16.61523">
        <ele>209.934776</ele>
        <time>2022-08-07T07:25:51.441Z</time>
      </trkpt>
      <trkpt lat="47.58482" lon="16.61506">
        <ele>209.574602</ele>
        <time>2022-08-07T07:26:10.515Z</time>
      </trkpt>
      <trkpt lat="47.58488" lon="16.61507">
        <ele>209.544196</ele>
        <time>2022-08-07T07:26:12.129Z</time>
      </trkpt>
      <trkpt lat="47.5881" lon="16.6163">
        <ele>206.572102</ele>
        <time>2022-08-07T07:27:29.451Z</time>
      </trkpt>
      <trkpt lat="47.5883" lon="16.6163">
        <ele>206.404915</ele>
        <time>2022-08-07T07:27:34.261Z</time>
      </trkpt>
      <trkpt lat="47.58886" lon="16.61592">
        <ele>206.229403</ele>
        <time>2022-08-07T07:27:49.156Z</time>
      </trkpt>
      <trkpt lat="47.59136" lon="16.61485">
        <ele>206.40984</ele>
        <time>2022-08-07T07:28:58.974Z</time>
      </trkpt>
      <trkpt lat="47.59264" lon="16.61435">
        <ele>206.978115</ele>
        <time>2022-08-07T07:29:40.666Z</time>
      </trkpt>
      <trkpt lat="47.59397" lon="16.6138">
        <ele>207.020313</ele>
        <time>2022-08-07T07:30:18.616Z</time>
      </trkpt>
      <trkpt lat="47.59415" lon="16.61435">
        <ele>206.608349</ele>
        <time>2022-08-07T07:30:28.312Z</time>
      </trkpt>
      <trkpt lat="47.59433" lon="16.61456">
        <ele>206.378048</ele>
        <time>2022-08-07T07:30:33.713Z</time>
      </trkpt>
      <trkpt lat="47.59537" lon="16.61441">
        <ele>205.000517</ele>
        <time>2022-08-07T07:30:58.038Z</time>
      </trkpt>
      <trkpt lat="47.59522" lon="16.61622">
        <ele>202.551603</ele>
        <time>2022-08-07T07:31:25.235Z</time>
      </trkpt>
      <trkpt lat="47.59586" lon="16.6181">
        <ele>198.937036</ele>
        <time>2022-08-07T07:31:55.556Z</time>
      </trkpt>
      <trkpt lat="47.59705" lon="16.62044">
        <ele>193.018918</ele>
        <time>2022-08-07T07:32:36.150Z</time>
      </trkpt>
      <trkpt lat="47.59746" lon="16.62094">
        <ele>191.448803</ele>
        <time>2022-08-07T07:32:47.136Z</time>
      </trkpt>
      <trkpt lat="47.59801" lon="16.62148">
        <ele>190.125452</ele>
        <time>2022-08-07T07:33:00.846Z</time>
      </trkpt>
      <trkpt lat="47.59913" lon="16.62098">
        <ele>187.957844</ele>
        <time>2022-08-07T07:33:27.399Z</time>
      </trkpt>
      <trkpt lat="47.5991" lon="16.62114">
        <ele>187.947525</ele>
        <time>2022-08-07T07:33:30.316Z</time>
      </trkpt>
      <trkpt lat="47.59942" lon="16.62249">
        <ele>187.8563</ele>
        <time>2022-08-07T07:33:56.831Z</time>
      </trkpt>
      <trkpt lat="47.60003" lon="16.62444">
        <ele>187.60017</ele>
        <time>2022-08-07T07:34:41.132Z</time>
      </trkpt>
      <trkpt lat="47.6001" lon="16.62506">
        <ele>187.497827</ele>
        <time>2022-08-07T07:34:52.608Z</time>
      </trkpt>
      <trkpt lat="47.6003" lon="16.62496">
        <ele>187.445738</ele>
        <time>2022-08-07T07:34:57.856Z</time>
      </trkpt>
      <trkpt lat="47.60073" lon="16.62469">
        <ele>187.060769</ele>
        <time>2022-08-07T07:35:08.319Z</time>
      </trkpt>
      <trkpt lat="47.60077" lon="16.62467">
        <ele>186.968193</ele>
        <time>2022-08-07T07:35:09.201Z</time>
      </trkpt>
      <trkpt lat="47.60172" lon="16.62456">
        <ele>184.886223</ele>
        <time>2022-08-07T07:35:28.633Z</time>
      </trkpt>
      <trkpt lat="47.60202" lon="16.62416">
        <ele>183.995854</ele>
        <time>2022-08-07T07:35:36.855Z</time>
      </trkpt>
      <trkpt lat="47.60234" lon="16.62373">
        <ele>183.173584</ele>
        <time>2022-08-07T07:35:45.678Z</time>
      </trkpt>
      <trkpt lat="47.60254" lon="16.62349">
        <ele>182.798279</ele>
        <time>2022-08-07T07:35:51.032Z</time>
      </trkpt>
      <trkpt lat="47.60282" lon="16.62323">
        <ele>182.302709</ele>
        <time>2022-08-07T07:35:58.198Z</time>
      </trkpt>
      <trkpt lat="47.60297" lon="16.62313">
        <ele>182.06228</ele>
        <time>2022-08-07T07:36:01.741Z</time>
      </trkpt>
      <trkpt lat="47.60323" lon="16.62305">
        <ele>181.679312</ele>
        <time>2022-08-07T07:36:07.427Z</time>
      </trkpt>
      <trkpt lat="47.60368" lon="16.62309">
        <ele>181.013124</ele>
        <time>2022-08-07T07:36:18.034Z</time>
      </trkpt>
      <trkpt lat="47.60373" lon="16.6232">
        <ele>180.884895</ele>
        <time>2022-08-07T07:36:20.181Z</time>
      </trkpt>
      <trkpt lat="47.60382" lon="16.62319">
        <ele>180.780904</ele>
        <time>2022-08-07T07:36:22.351Z</time>
      </trkpt>
      <trkpt lat="47.60385" lon="16.62307">
        <ele>180.784881</ele>
        <time>2022-08-07T07:36:24.537Z</time>
      </trkpt>
      <trkpt lat="47.60443" lon="16.6227">
        <ele>180.813792</ele>
        <time>2022-08-07T07:36:41.872Z</time>
      </trkpt>
      <trkpt lat="47.60447" lon="16.62257">
        <ele>180.81819</ele>
        <time>2022-08-07T07:36:44.554Z</time>
      </trkpt>
      <trkpt lat="47.60445" lon="16.62137">
        <ele>180.855058</ele>
        <time>2022-08-07T07:37:07.092Z</time>
      </trkpt>
      <trkpt lat="47.6045" lon="16.62106">
        <ele>180.843143</ele>
        <time>2022-08-07T07:37:12.924Z</time>
      </trkpt>
      <trkpt lat="47.6045" lon="16.62065">
        <ele>180.748121</ele>
        <time>2022-08-07T07:37:20.310Z</time>
      </trkpt>
      <trkpt lat="47.60442" lon="16.61975">
        <ele>180.534652</ele>
        <time>2022-08-07T07:37:36.588Z</time>
      </trkpt>
      <trkpt lat="47.60738" lon="16.61839">
        <ele>178.539871</ele>
        <time>2022-08-07T07:38:50.460Z</time>
      </trkpt>
      <trkpt lat="47.61038" lon="16.61702">
        <ele>176.508506</ele>
        <time>2022-08-07T07:40:05.996Z</time>
      </trkpt>
      <trkpt lat="47.61379" lon="16.61544">
        <ele>175.582058</ele>
        <time>2022-08-07T07:41:38.316Z</time>
      </trkpt>
      <trkpt lat="47.61507" lon="16.62114">
        <ele>173.412616</ele>
        <time>2022-08-07T07:43:15.502Z</time>
      </trkpt>
      <trkpt lat="47.61643" lon="16.62063">
        <ele>173.896513</ele>
        <time>2022-08-07T07:43:57.158Z</time>
      </trkpt>
      <trkpt lat="47.61691" lon="16.62052">
        <ele>174.400483</ele>
        <time>2022-08-07T07:44:12.627Z</time>
      </trkpt>
      <trkpt lat="47.61702" lon="16.62049">
        <ele>174.515364</ele>
        <time>2022-08-07T07:44:16.312Z</time>
      </trkpt>
      <trkpt lat="47.61737" lon="16.62034">
        <ele>174.897475</ele>
        <time>2022-08-07T07:44:28.427Z</time>
      </trkpt>
      <trkpt lat="47.61838" lon="16.61968">
        <ele>175.92401</ele>
        <time>2022-08-07T07:45:03.548Z</time>
      </trkpt>
      <trkpt lat="47.61862" lon="16.61959">
        <ele>176.074688</ele>
        <time>2022-08-07T07:45:10.968Z</time>
      </trkpt>
      <trkpt lat="47.61927" lon="16.61967">
        <ele>176.485039</ele>
        <time>2022-08-07T07:45:35.549Z</time>
      </trkpt>
      <trkpt lat="47.61932" lon="16.61985">
        <ele>176.568773</ele>
        <time>2022-08-07T07:45:39.105Z</time>
      </trkpt>
      <trkpt lat="47.61961" lon="16.6201">
        <ele>176.776757</ele>
        <time>2022-08-07T07:45:48.839Z</time>
      </trkpt>
      <trkpt lat="47.62006" lon="16.62055">
        <ele>177.234742</ele>
        <time>2022-08-07T07:46:05.024Z</time>
      </trkpt>
      <trkpt lat="47.62036" lon="16.62091">
        <ele>177.584432</ele>
        <time>2022-08-07T07:46:16.439Z</time>
      </trkpt>
      <trkpt lat="47.62054" lon="16.62118">
        <ele>177.822385</ele>
        <time>2022-08-07T07:46:24.213Z</time>
      </trkpt>
      <trkpt lat="47.62224" lon="16.62316">
        <ele>180.422489</ele>
        <time>2022-08-07T07:47:35.993Z</time>
      </trkpt>
      <trkpt lat="47.62231" lon="16.62336">
        <ele>180.627208</ele>
        <time>2022-08-07T07:47:40.735Z</time>
      </trkpt>
      <trkpt lat="47.62245" lon="16.62329">
        <ele>180.822458</ele>
        <time>2022-08-07T07:47:45.773Z</time>
      </trkpt>
      <trkpt lat="47.62296" lon="16.62331">
        <ele>181.381855</ele>
        <time>2022-08-07T07:48:02.910Z</time>
      </trkpt>
      <trkpt lat="47.62344" lon="16.62346">
        <ele>181.882011</ele>
        <time>2022-08-07T07:48:18.693Z</time>
      </trkpt>
      <trkpt lat="47.62368" lon="16.62362">
        <ele>182.153315</ele>
        <time>2022-08-07T07:48:26.609Z</time>
      </trkpt>
      <trkpt lat="47.62448" lon="16.62412">
        <ele>182.978164</ele>
        <time>2022-08-07T07:48:53.081Z</time>
      </trkpt>
      <trkpt lat="47.62478" lon="16.62431">
        <ele>183.218169</ele>
        <time>2022-08-07T07:49:02.979Z</time>
      </trkpt>
      <trkpt lat="47.6249" lon="16.62439">
        <ele>183.314911</ele>
        <time>2022-08-07T07:49:06.892Z</time>
      </trkpt>
      <trkpt lat="47.62569" lon="16.62479">
        <ele>183.929171</ele>
        <time>2022-08-07T07:49:31.669Z</time>
      </trkpt>
      <trkpt lat="47.62599" lon="16.62501">
        <ele>184.254865</ele>
        <time>2022-08-07T07:49:41.286Z</time>
      </trkpt>
      <trkpt lat="47.62676" lon="16.62594">
        <ele>186.073634</ele>
        <time>2022-08-07T07:50:14.217Z</time>
      </trkpt>
      <trkpt lat="47.62717" lon="16.6263">
        <ele>186.9427</ele>
        <time>2022-08-07T07:50:32.949Z</time>
      </trkpt>
      <trkpt lat="47.62726" lon="16.62635">
        <ele>187.121357</ele>
        <time>2022-08-07T07:50:36.658Z</time>
      </trkpt>
      <trkpt lat="47.62759" lon="16.62653">
        <ele>188.070361</ele>
        <time>2022-08-07T07:50:51.189Z</time>
      </trkpt>
      <trkpt lat="47.62789" lon="16.62673">
        <ele>189.178716</ele>
        <time>2022-08-07T07:51:04.931Z</time>
      </trkpt>
      <trkpt lat="47.62813" lon="16.62685">
        <ele>190.053772</ele>
        <time>2022-08-07T07:51:16.445Z</time>
      </trkpt>
      <trkpt lat="47.62827" lon="16.627">
        <ele>190.610827</ele>
        <time>2022-08-07T07:51:23.347Z</time>
      </trkpt>
      <trkpt lat="47.6286" lon="16.62756">
        <ele>192.312894</ele>
        <time>2022-08-07T07:51:46.307Z</time>
      </trkpt>
      <trkpt lat="47.62983" lon="16.62829">
        <ele>196.128975</ele>
        <time>2022-08-07T07:52:43.002Z</time>
      </trkpt>
      <trkpt lat="47.63012" lon="16.62835">
        <ele>196.893602</ele>
        <time>2022-08-07T07:52:54.051Z</time>
      </trkpt>
      <trkpt lat="47.63049" lon="16.62825">
        <ele>197.905731</ele>
        <time>2022-08-07T07:53:07.750Z</time>
      </trkpt>
      <trkpt lat="47.63134" lon="16.62873">
        <ele>198.19388</ele>
        <time>2022-08-07T07:53:37.253Z</time>
      </trkpt>
      <trkpt lat="47.63174" lon="16.6292">
        <ele>198.1031</ele>
        <time>2022-08-07T07:53:49.794Z</time>
      </trkpt>
      <trkpt lat="47.63231" lon="16.63017">
        <ele>197.000082</ele>
        <time>2022-08-07T07:54:08.546Z</time>
      </trkpt>
      <trkpt lat="47.63303" lon="16.63149">
        <ele>193.532123</ele>
        <time>2022-08-07T07:54:30.961Z</time>
      </trkpt>
      <trkpt lat="47.63312" lon="16.63164">
        <ele>193.134479</ele>
        <time>2022-08-07T07:54:33.424Z</time>
      </trkpt>
      <trkpt lat="47.63328" lon="16.6319">
        <ele>192.390139</ele>
        <time>2022-08-07T07:54:37.835Z</time>
      </trkpt>
      <trkpt lat="47.63344" lon="16.63214">
        <ele>191.532153</ele>
        <time>2022-08-07T07:54:42.147Z</time>
      </trkpt>
      <trkpt lat="47.63368" lon="16.63249">
        <ele>190.292165</ele>
        <time>2022-08-07T07:54:48.376Z</time>
      </trkpt>
      <trkpt lat="47.63391" lon="16.6328">
        <ele>189.122934</ele>
        <time>2022-08-07T07:54:54.298Z</time>
      </trkpt>
      <trkpt lat="47.63474" lon="16.63377">
        <ele>185.399526</ele>
        <time>2022-08-07T07:55:14.485Z</time>
      </trkpt>
      <trkpt lat="47.63812" lon="16.63676">
        <ele>175.915962</ele>
        <time>2022-08-07T07:56:34.842Z</time>
      </trkpt>
      <trkpt lat="47.63889" lon="16.63744">
        <ele>174.66371</ele>
        <time>2022-08-07T07:56:54.970Z</time>
      </trkpt>
      <trkpt lat="47.63824" lon="16.63926">
        <ele>174.287893</ele>
        <time>2022-08-07T07:57:32.789Z</time>
      </trkpt>
      <trkpt lat="47.6381" lon="16.63978">
        <ele>174.34515</ele>
        <time>2022-08-07T07:57:44.765Z</time>
      </trkpt>
      <trkpt lat="47.63807" lon="16.63996">
        <ele>174.36406</ele>
        <time>2022-08-07T07:57:48.457Z</time>
      </trkpt>
      <trkpt lat="47.63803" lon="16.64037">
        <ele>174.405926</ele>
        <time>2022-08-07T07:57:57.021Z</time>
      </trkpt>
      <trkpt lat="47.63787" lon="16.64102">
        <ele>174.552776</ele>
        <time>2022-08-07T07:58:10.923Z</time>
      </trkpt>
      <trkpt lat="47.63783" lon="16.64111">
        <ele>174.576893</ele>
        <time>2022-08-07T07:58:13.355Z</time>
      </trkpt>
      <trkpt lat="47.63762" lon="16.64095">
        <ele>174.649586</ele>
        <time>2022-08-07T07:58:19.895Z</time>
      </trkpt>
      <trkpt lat="47.63745" lon="16.64081">
        <ele>174.712649</ele>
        <time>2022-08-07T07:58:26.086Z</time>
      </trkpt>
      <trkpt lat="47.63762" lon="16.64095">
        <ele>174.775712</ele>
        <time>2022-08-07T07:58:31.510Z</time>
      </trkpt>
      <trkpt lat="47.63712" lon="16.64194">
        <ele>174.933636</ele>
        <time>2022-08-07T07:58:55.455Z</time>
      </trkpt>
      <trkpt lat="47.63711" lon="16.64205">
        <ele>174.913773</ele>
        <time>2022-08-07T07:58:57.667Z</time>
      </trkpt>
      <trkpt lat="47.6373" lon="16.64206">
        <ele>174.866929</ele>
        <time>2022-08-07T07:59:02.497Z</time>
      </trkpt>
      <trkpt lat="47.63802" lon="16.64278">
        <ele>174.643962</ele>
        <time>2022-08-07T07:59:25.698Z</time>
      </trkpt>
      <trkpt lat="47.63808" lon="16.64284">
        <ele>174.623687</ele>
        <time>2022-08-07T07:59:27.741Z</time>
      </trkpt>
      <trkpt lat="47.63816" lon="16.6429">
        <ele>174.601049</ele>
        <time>2022-08-07T07:59:29.990Z</time>
      </trkpt>
      <trkpt lat="47.63829" lon="16.64301">
        <ele>174.56389</ele>
        <time>2022-08-07T07:59:33.699Z</time>
      </trkpt>
      <trkpt lat="47.63861" lon="16.64327">
        <ele>174.38024</ele>
        <time>2022-08-07T07:59:43.161Z</time>
      </trkpt>
      <trkpt lat="47.6387" lon="16.64334">
        <ele>174.313774</ele>
        <time>2022-08-07T07:59:45.591Z</time>
      </trkpt>
      <trkpt lat="47.63887" lon="16.64344">
        <ele>174.184451</ele>
        <time>2022-08-07T07:59:50.401Z</time>
      </trkpt>
      <trkpt lat="47.63902" lon="16.64351">
        <ele>174.07895</ele>
        <time>2022-08-07T07:59:54.255Z</time>
      </trkpt>
      <trkpt lat="47.63915" lon="16.64357">
        <ele>173.983824</ele>
        <time>2022-08-07T07:59:57.717Z</time>
      </trkpt>
      <trkpt lat="47.63919" lon="16.64359">
        <ele>173.956187</ele>
        <time>2022-08-07T07:59:58.759Z</time>
      </trkpt>
      <trkpt lat="47.63969" lon="16.64392">
        <ele>173.575902</ele>
        <time>2022-08-07T08:00:12.451Z</time>
      </trkpt>
      <trkpt lat="47.63975" lon="16.64418">
        <ele>173.445385</ele>
        <time>2022-08-07T08:00:17.113Z</time>
      </trkpt>
      <trkpt lat="47.64017" lon="16.64466">
        <ele>173.051557</ele>
        <time>2022-08-07T08:00:29.992Z</time>
      </trkpt>
      <trkpt lat="47.64021" lon="16.6447">
        <ele>173.013663</ele>
        <time>2022-08-07T08:00:31.169Z</time>
      </trkpt>
      <trkpt lat="47.6403" lon="16.64469">
        <ele>172.939567</ele>
        <time>2022-08-07T08:00:33.473Z</time>
      </trkpt>
      <trkpt lat="47.64037" lon="16.6446">
        <ele>172.869223</ele>
        <time>2022-08-07T08:00:35.692Z</time>
      </trkpt>
      <trkpt lat="47.6418" lon="16.6462">
        <ele>171.612429</ele>
        <time>2022-08-07T08:01:20.385Z</time>
      </trkpt>
      <trkpt lat="47.6419" lon="16.64645">
        <ele>171.515834</ele>
        <time>2022-08-07T08:01:25.280Z</time>
      </trkpt>
      <trkpt lat="47.64193" lon="16.64679">
        <ele>171.4026</ele>
        <time>2022-08-07T08:01:31.123Z</time>
      </trkpt>
      <trkpt lat="47.64178" lon="16.64763">
        <ele>171.113272</ele>
        <time>2022-08-07T08:01:46.370Z</time>
      </trkpt>
      <trkpt lat="47.64163" lon="16.64856">
        <ele>171.135763</ele>
        <time>2022-08-07T08:02:03.992Z</time>
      </trkpt>
      <trkpt lat="47.64167" lon="16.64916">
        <ele>171.313976</ele>
        <time>2022-08-07T08:02:15.950Z</time>
      </trkpt>
      <trkpt lat="47.64182" lon="16.6496">
        <ele>171.458098</ele>
        <time>2022-08-07T08:02:25.881Z</time>
      </trkpt>
      <trkpt lat="47.64219" lon="16.65019">
        <ele>171.694811</ele>
        <time>2022-08-07T08:02:42.791Z</time>
      </trkpt>
      <trkpt lat="47.64228" lon="16.65034">
        <ele>171.756924</ele>
        <time>2022-08-07T08:02:47.285Z</time>
      </trkpt>
      <trkpt lat="47.64236" lon="16.65048">
        <ele>171.8393</ele>
        <time>2022-08-07T08:02:51.059Z</time>
      </trkpt>
      <trkpt lat="47.64251" lon="16.65054">
        <ele>171.948228</ele>
        <time>2022-08-07T08:02:56.259Z</time>
      </trkpt>
      <trkpt lat="47.64293" lon="16.65143">
        <ele>172.475753</ele>
        <time>2022-08-07T08:03:19.876Z</time>
      </trkpt>
      <trkpt lat="47.6432" lon="16.65238">
        <ele>172.976305</ele>
        <time>2022-08-07T08:03:41.738Z</time>
      </trkpt>
      <trkpt lat="47.64305" lon="16.65295">
        <ele>173.069689</ele>
        <time>2022-08-07T08:03:53.868Z</time>
      </trkpt>
      <trkpt lat="47.64167" lon="16.65677">
        <ele>172.957262</ele>
        <time>2022-08-07T08:05:13.576Z</time>
      </trkpt>
      <trkpt lat="47.64034" lon="16.66025">
        <ele>172.712114</ele>
        <time>2022-08-07T08:06:25.840Z</time>
      </trkpt>
      <trkpt lat="47.64006" lon="16.66099">
        <ele>172.893173</ele>
        <time>2022-08-07T08:06:43.300Z</time>
      </trkpt>
      <trkpt lat="47.64008" lon="16.66106">
        <ele>172.910739</ele>
        <time>2022-08-07T08:06:45.056Z</time>
      </trkpt>
      <trkpt lat="47.64014" lon="16.66109">
        <ele>172.930335</ele>
        <time>2022-08-07T08:06:46.899Z</time>
      </trkpt>
      <trkpt lat="47.64014" lon="16.66111">
        <ele>172.934623</ele>
        <time>2022-08-07T08:06:47.292Z</time>
      </trkpt>
      <trkpt lat="47.64027" lon="16.66137">
        <ele>173.004116</ele>
        <time>2022-08-07T08:06:53.847Z</time>
      </trkpt>
      <trkpt lat="47.64045" lon="16.66155">
        <ele>173.071151</ele>
        <time>2022-08-07T08:07:00.018Z</time>
      </trkpt>
      <trkpt lat="47.64061" lon="16.66173">
        <ele>173.100224</ele>
        <time>2022-08-07T08:07:06.183Z</time>
      </trkpt>
      <trkpt lat="47.64113" lon="16.66229">
        <ele>172.924415</ele>
        <time>2022-08-07T08:07:24.936Z</time>
      </trkpt>
      <trkpt lat="47.64133" lon="16.6625">
        <ele>172.858887</ele>
        <time>2022-08-07T08:07:31.720Z</time>
      </trkpt>
      <trkpt lat="47.64148" lon="16.66276">
        <ele>172.795975</ele>
        <time>2022-08-07T08:07:38.249Z</time>
      </trkpt>
      <trkpt lat="47.64163" lon="16.66314">
        <ele>172.714573</ele>
        <time>2022-08-07T08:07:45.728Z</time>
      </trkpt>
      <trkpt lat="47.64211" lon="16.66482">
        <ele>170.392321</ele>
        <time>2022-08-07T08:08:11.246Z</time>
      </trkpt>
      <trkpt lat="47.6424" lon="16.66567">
        <ele>168.802206</ele>
        <time>2022-08-07T08:08:24.131Z</time>
      </trkpt>
      <trkpt lat="47.64203" lon="16.6661">
        <ele>167.449031</ele>
        <time>2022-08-07T08:08:33.427Z</time>
      </trkpt>
      <trkpt lat="47.64164" lon="16.66672">
        <ele>165.536241</ele>
        <time>2022-08-07T08:08:44.423Z</time>
      </trkpt>
      <trkpt lat="47.64144" lon="16.6672">
        <ele>164.236758</ele>
        <time>2022-08-07T08:08:51.901Z</time>
      </trkpt>
      <trkpt lat="47.64131" lon="16.66771">
        <ele>163.004223</ele>
        <time>2022-08-07T08:08:59.103Z</time>
      </trkpt>
      <trkpt lat="47.64119" lon="16.66877">
        <ele>159.944727</ele>
        <time>2022-08-07T08:09:12.991Z</time>
      </trkpt>
      <trkpt lat="47.64093" lon="16.67342">
        <ele>144.315019</ele>
        <time>2022-08-07T08:10:09.665Z</time>
      </trkpt>
      <trkpt lat="47.64065" lon="16.67494">
        <ele>139.55706</ele>
        <time>2022-08-07T08:10:28.841Z</time>
      </trkpt>
      <trkpt lat="47.64098" lon="16.67494">
        <ele>138.084839</ele>
        <time>2022-08-07T08:10:35.118Z</time>
      </trkpt>
      <trkpt lat="47.64115" lon="16.67484">
        <ele>137.271996</ele>
        <time>2022-08-07T08:10:38.500Z</time>
      </trkpt>
      <trkpt lat="47.64062" lon="16.67557">
        <ele>135.166802</ele>
        <time>2022-08-07T08:10:52.649Z</time>
      </trkpt>
      <trkpt lat="47.64033" lon="16.6772">
        <ele>132.560636</ele>
        <time>2022-08-07T08:11:16.444Z</time>
      </trkpt>
      <trkpt lat="47.64011" lon="16.67819">
        <ele>131.576427</ele>
        <time>2022-08-07T08:11:32.624Z</time>
      </trkpt>
      <trkpt lat="47.63998" lon="16.67897">
        <ele>130.954168</ele>
        <time>2022-08-07T08:11:44.697Z</time>
      </trkpt>
      <trkpt lat="47.6399" lon="16.68004">
        <ele>130.129305</ele>
        <time>2022-08-07T08:12:01.206Z</time>
      </trkpt>
      <trkpt lat="47.63925" lon="16.68276">
        <ele>129.716202</ele>
        <time>2022-08-07T08:12:51.060Z</time>
      </trkpt>
      <trkpt lat="47.63906" lon="16.68377">
        <ele>130.369764</ele>
        <time>2022-08-07T08:13:12.012Z</time>
      </trkpt>
      <trkpt lat="47.63825" lon="16.68875">
        <ele>135.401504</ele>
        <time>2022-08-07T08:15:09.443Z</time>
      </trkpt>
      <trkpt lat="47.6381" lon="16.68967">
        <ele>136.649478</ele>
        <time>2022-08-07T08:15:31.492Z</time>
      </trkpt>
      <trkpt lat="47.63774" lon="16.69114">
        <ele>138.957556</ele>
        <time>2022-08-07T08:16:14.320Z</time>
      </trkpt>
      <trkpt lat="47.63748" lon="16.69285">
        <ele>141.733295</ele>
        <time>2022-08-07T08:16:59.994Z</time>
      </trkpt>
      <trkpt lat="47.63698" lon="16.69557">
        <ele>141.868967</ele>
        <time>2022-08-07T08:17:55.204Z</time>
      </trkpt>
      <trkpt lat="47.63657" lon="16.69841">
        <ele>135.450411</ele>
        <time>2022-08-07T08:18:31.728Z</time>
      </trkpt>
      <trkpt lat="47.63651" lon="16.69889">
        <ele>134.75052</ele>
        <time>2022-08-07T08:18:37.966Z</time>
      </trkpt>
      <trkpt lat="47.63618" lon="16.70055">
        <ele>132.282091</ele>
        <time>2022-08-07T08:19:03.544Z</time>
      </trkpt>
      <trkpt lat="47.636" lon="16.70096">
        <ele>132.703732</ele>
        <time>2022-08-07T08:19:12.236Z</time>
      </trkpt>
      <trkpt lat="47.63595" lon="16.70131">
        <ele>133.128461</ele>
        <time>2022-08-07T08:19:20.368Z</time>
      </trkpt>
      <trkpt lat="47.63596" lon="16.70173">
        <ele>133.636383</ele>
        <time>2022-08-07T08:19:30.558Z</time>
      </trkpt>
      <trkpt lat="47.63588" lon="16.70285">
        <ele>134.976944</ele>
        <time>2022-08-07T08:20:02.684Z</time>
      </trkpt>
      <trkpt lat="47.63577" lon="16.70347">
        <ele>135.535078</ele>
        <time>2022-08-07T08:20:19.411Z</time>
      </trkpt>
      <trkpt lat="47.6356" lon="16.70478">
        <ele>136.255281</ele>
        <time>2022-08-07T08:20:47.743Z</time>
      </trkpt>
      <trkpt lat="47.63554" lon="16.70558">
        <ele>136.691111</ele>
        <time>2022-08-07T08:21:02.654Z</time>
      </trkpt>
      <trkpt lat="47.6351" lon="16.70793">
        <ele>135.71444</ele>
        <time>2022-08-07T08:21:40.850Z</time>
      </trkpt>
      <trkpt lat="47.63473" lon="16.71209">
        <ele>133.942721</ele>
        <time>2022-08-07T08:22:50.499Z</time>
      </trkpt>
      <trkpt lat="47.63446" lon="16.71341">
        <ele>133.159098</ele>
        <time>2022-08-07T08:23:11.829Z</time>
      </trkpt>
      <trkpt lat="47.63427" lon="16.7148">
        <ele>133.01374</ele>
        <time>2022-08-07T08:23:34.194Z</time>
      </trkpt>
      <trkpt lat="47.63385" lon="16.71712">
        <ele>133.728777</ele>
        <time>2022-08-07T08:24:23.023Z</time>
      </trkpt>
      <trkpt lat="47.63322" lon="16.71969">
        <ele>135.529101</ele>
        <time>2022-08-07T08:25:25.119Z</time>
      </trkpt>
      <trkpt lat="47.63314" lon="16.72007">
        <ele>135.698562</ele>
        <time>2022-08-07T08:25:33.112Z</time>
      </trkpt>
      <trkpt lat="47.63303" lon="16.72056">
        <ele>135.919846</ele>
        <time>2022-08-07T08:25:42.947Z</time>
      </trkpt>
      <trkpt lat="47.63279" lon="16.72155">
        <ele>136.233085</ele>
        <time>2022-08-07T08:26:01.035Z</time>
      </trkpt>
      <trkpt lat="47.63252" lon="16.72361">
        <ele>136.170643</ele>
        <time>2022-08-07T08:26:37.203Z</time>
      </trkpt>
      <trkpt lat="47.63218" lon="16.72499">
        <ele>136.600594</ele>
        <time>2022-08-07T08:27:06.938Z</time>
      </trkpt>
      <trkpt lat="47.63213" lon="16.72527">
        <ele>136.710311</ele>
        <time>2022-08-07T08:27:13.528Z</time>
      </trkpt>
      <trkpt lat="47.63187" lon="16.7276">
        <ele>136.918477</ele>
        <time>2022-08-07T08:27:59.181Z</time>
      </trkpt>
      <trkpt lat="47.63168" lon="16.72843">
        <ele>136.752417</ele>
        <time>2022-08-07T08:28:13.135Z</time>
      </trkpt>
      <trkpt lat="47.6315" lon="16.72902">
        <ele>136.615295</ele>
        <time>2022-08-07T08:28:23.397Z</time>
      </trkpt>
      <trkpt lat="47.63091" lon="16.73058">
        <ele>135.563986</ele>
        <time>2022-08-07T08:28:51.751Z</time>
      </trkpt>
      <trkpt lat="47.63051" lon="16.73205">
        <ele>134.517842</ele>
        <time>2022-08-07T08:29:16.678Z</time>
      </trkpt>
      <trkpt lat="47.63042" lon="16.7324">
        <ele>134.240623</ele>
        <time>2022-08-07T08:29:22.493Z</time>
      </trkpt>
      <trkpt lat="47.63017" lon="16.73349">
        <ele>133.384987</ele>
        <time>2022-08-07T08:29:40.189Z</time>
      </trkpt>
      <trkpt lat="47.62991" lon="16.73438">
        <ele>132.507879</ele>
        <time>2022-08-07T08:29:54.782Z</time>
      </trkpt>
      <trkpt lat="47.6288" lon="16.73677">
        <ele>129.553889</ele>
        <time>2022-08-07T08:30:37.593Z</time>
      </trkpt>
      <trkpt lat="47.62856" lon="16.73746">
        <ele>128.782557</ele>
        <time>2022-08-07T08:30:48.950Z</time>
      </trkpt>
      <trkpt lat="47.62815" lon="16.73849">
        <ele>127.686874</ele>
        <time>2022-08-07T08:31:06.834Z</time>
      </trkpt>
      <trkpt lat="47.62768" lon="16.73952">
        <ele>127.521162</ele>
        <time>2022-08-07T08:31:33.464Z</time>
      </trkpt>
      <trkpt lat="47.62716" lon="16.74067">
        <ele>127.36871</ele>
        <time>2022-08-07T08:32:08.762Z</time>
      </trkpt>
      <trkpt lat="47.62708" lon="16.74103">
        <ele>127.50969</ele>
        <time>2022-08-07T08:32:18.707Z</time>
      </trkpt>
      <trkpt lat="47.62697" lon="16.74128">
        <ele>127.619622</ele>
        <time>2022-08-07T08:32:25.164Z</time>
      </trkpt>
      <trkpt lat="47.6269" lon="16.74139">
        <ele>127.674807</ele>
        <time>2022-08-07T08:32:28.345Z</time>
      </trkpt>
      <trkpt lat="47.62657" lon="16.74186">
        <ele>127.927428</ele>
        <time>2022-08-07T08:32:43.198Z</time>
      </trkpt>
      <trkpt lat="47.62565" lon="16.7438">
        <ele>127.751068</ele>
        <time>2022-08-07T08:33:29.205Z</time>
      </trkpt>
      <trkpt lat="47.62537" lon="16.7448">
        <ele>127.253432</ele>
        <time>2022-08-07T08:33:46.348Z</time>
      </trkpt>
      <trkpt lat="47.62537" lon="16.74496">
        <ele>127.180274</ele>
        <time>2022-08-07T08:33:48.560Z</time>
      </trkpt>
      <trkpt lat="47.62502" lon="16.74667">
        <ele>125.787849</ele>
        <time>2022-08-07T08:34:16.297Z</time>
      </trkpt>
      <trkpt lat="47.62496" lon="16.74705">
        <ele>125.467755</ele>
        <time>2022-08-07T08:34:22.050Z</time>
      </trkpt>
      <trkpt lat="47.62459" lon="16.74794">
        <ele>124.959918</ele>
        <time>2022-08-07T08:34:39.629Z</time>
      </trkpt>
      <trkpt lat="47.62403" lon="16.74869">
        <ele>125.001746</ele>
        <time>2022-08-07T08:35:00.065Z</time>
      </trkpt>
      <trkpt lat="47.6236" lon="16.74948">
        <ele>125.039185</ele>
        <time>2022-08-07T08:35:19.591Z</time>
      </trkpt>
      <trkpt lat="47.62318" lon="16.75135">
        <ele>125.413287</ele>
        <time>2022-08-07T08:35:57.776Z</time>
      </trkpt>
      <trkpt lat="47.62257" lon="16.75269">
        <ele>125.502798</ele>
        <time>2022-08-07T08:36:26.931Z</time>
      </trkpt>
      <trkpt lat="47.62216" lon="16.75497">
        <ele>125.13379</ele>
        <time>2022-08-07T08:37:07.935Z</time>
      </trkpt>
      <trkpt lat="47.62192" lon="16.75667">
        <ele>124.43823</ele>
        <time>2022-08-07T08:37:36.467Z</time>
      </trkpt>
      <trkpt lat="47.62135" lon="16.75858">
        <ele>123.583873</ele>
        <time>2022-08-07T08:38:09.216Z</time>
      </trkpt>
      <trkpt lat="47.62124" lon="16.75908">
        <ele>123.369359</ele>
        <time>2022-08-07T08:38:17.591Z</time>
      </trkpt>
      <trkpt lat="47.62109" lon="16.76087">
        <ele>123.655834</ele>
        <time>2022-08-07T08:38:51.575Z</time>
      </trkpt>
      <trkpt lat="47.62093" lon="16.76246">
        <ele>124.226811</ele>
        <time>2022-08-07T08:39:27.296Z</time>
      </trkpt>
      <trkpt lat="47.62078" lon="16.76432">
        <ele>124.602111</ele>
        <time>2022-08-07T08:40:15.301Z</time>
      </trkpt>
      <trkpt lat="47.62083" lon="16.76518">
        <ele>124.486502</ele>
        <time>2022-08-07T08:40:33.798Z</time>
      </trkpt>
      <trkpt lat="47.62076" lon="16.76559">
        <ele>124.172476</ele>
        <time>2022-08-07T08:40:42.636Z</time>
      </trkpt>
      <trkpt lat="47.62075" lon="16.76583">
        <ele>123.998413</ele>
        <time>2022-08-07T08:40:47.404Z</time>
      </trkpt>
      <trkpt lat="47.62084" lon="16.7665">
        <ele>123.489759</ele>
        <time>2022-08-07T08:41:01.617Z</time>
      </trkpt>
      <trkpt lat="47.62099" lon="16.76738">
        <ele>122.816994</ele>
        <time>2022-08-07T08:41:20.214Z</time>
      </trkpt>
      <trkpt lat="47.62109" lon="16.76845">
        <ele>122.469474</ele>
        <time>2022-08-07T08:41:43.006Z</time>
      </trkpt>
      <trkpt lat="47.62115" lon="16.77137">
        <ele>122.344179</ele>
        <time>2022-08-07T08:42:52.460Z</time>
      </trkpt>
      <trkpt lat="47.62118" lon="16.77244">
        <ele>122.642154</ele>
        <time>2022-08-07T08:43:20.033Z</time>
      </trkpt>
      <trkpt lat="47.62127" lon="16.77357">
        <ele>123.100287</ele>
        <time>2022-08-07T08:43:50.091Z</time>
      </trkpt>
      <trkpt lat="47.62143" lon="16.77456">
        <ele>123.569656</ele>
        <time>2022-08-07T08:44:17.032Z</time>
      </trkpt>
      <trkpt lat="47.62163" lon="16.77603">
        <ele>124.000733</ele>
        <time>2022-08-07T08:44:54.649Z</time>
      </trkpt>
      <trkpt lat="47.62159" lon="16.77609">
        <ele>124.004698</ele>
        <time>2022-08-07T08:44:57.061Z</time>
      </trkpt>
      <trkpt lat="47.62147" lon="16.77623">
        <ele>124.013699</ele>
        <time>2022-08-07T08:45:01.093Z</time>
      </trkpt>
      <trkpt lat="47.62154" lon="16.77651">
        <ele>124.026174</ele>
        <time>2022-08-07T08:45:06.602Z</time>
      </trkpt>
      <trkpt lat="47.62165" lon="16.77785">
        <ele>124.082229</ele>
        <time>2022-08-07T08:45:30.319Z</time>
      </trkpt>
      <trkpt lat="47.6215" lon="16.77982">
        <ele>123.512175</ele>
        <time>2022-08-07T08:46:03.271Z</time>
      </trkpt>
      <trkpt lat="47.62147" lon="16.78142">
        <ele>123.21135</ele>
        <time>2022-08-07T08:46:30.137Z</time>
      </trkpt>
      <trkpt lat="47.62152" lon="16.78348">
        <ele>123.120836</ele>
        <time>2022-08-07T08:47:07.018Z</time>
      </trkpt>
      <trkpt lat="47.62137" lon="16.78479">
        <ele>123.435072</ele>
        <time>2022-08-07T08:47:33.050Z</time>
      </trkpt>
      <trkpt lat="47.62136" lon="16.78489">
        <ele>123.459732</ele>
        <time>2022-08-07T08:47:35.099Z</time>
      </trkpt>
      <trkpt lat="47.62135" lon="16.78515">
        <ele>123.52112</ele>
        <time>2022-08-07T08:47:40.287Z</time>
      </trkpt>
      <trkpt lat="47.62135" lon="16.7854">
        <ele>123.580344</ele>
        <time>2022-08-07T08:47:45.178Z</time>
      </trkpt>
      <trkpt lat="47.62133" lon="16.78585">
        <ele>123.685349</ele>
        <time>2022-08-07T08:47:53.757Z</time>
      </trkpt>
      <trkpt lat="47.6213" lon="16.78605">
        <ele>123.697416</ele>
        <time>2022-08-07T08:47:57.640Z</time>
      </trkpt>
      <trkpt lat="47.6213" lon="16.78637">
        <ele>123.690334</ele>
        <time>2022-08-07T08:48:03.589Z</time>
      </trkpt>
      <trkpt lat="47.62131" lon="16.78647">
        <ele>123.688211</ele>
        <time>2022-08-07T08:48:05.333Z</time>
      </trkpt>
      <trkpt lat="47.62131" lon="16.78652">
        <ele>123.687029</ele>
        <time>2022-08-07T08:48:06.306Z</time>
      </trkpt>
      <trkpt lat="47.6213" lon="16.78664">
        <ele>123.684549</ele>
        <time>2022-08-07T08:48:08.327Z</time>
      </trkpt>
      <trkpt lat="47.62129" lon="16.78675">
        <ele>123.681993</ele>
        <time>2022-08-07T08:48:10.401Z</time>
      </trkpt>
      <trkpt lat="47.62125" lon="16.78762">
        <ele>123.663002</ele>
        <time>2022-08-07T08:48:25.274Z</time>
      </trkpt>
      <trkpt lat="47.62123" lon="16.78811">
        <ele>123.652213</ele>
        <time>2022-08-07T08:48:34.062Z</time>
      </trkpt>
      <trkpt lat="47.62119" lon="16.78843">
        <ele>123.645068</ele>
        <time>2022-08-07T08:48:39.992Z</time>
      </trkpt>
      <trkpt lat="47.62121" lon="16.78936">
        <ele>123.568965</ele>
        <time>2022-08-07T08:48:56.503Z</time>
      </trkpt>
      <trkpt lat="47.6213" lon="16.79001">
        <ele>123.508244</ele>
        <time>2022-08-07T08:49:07.903Z</time>
      </trkpt>
      <trkpt lat="47.62128" lon="16.79046">
        <ele>123.467319</ele>
        <time>2022-08-07T08:49:15.678Z</time>
      </trkpt>
      <trkpt lat="47.62149" lon="16.79123">
        <ele>123.391131</ele>
        <time>2022-08-07T08:49:35.093Z</time>
      </trkpt>
      <trkpt lat="47.62163" lon="16.79153">
        <ele>123.355668</ele>
        <time>2022-08-07T08:49:43.908Z</time>
      </trkpt>
      <trkpt lat="47.62202" lon="16.79335">
        <ele>123.172712</ele>
        <time>2022-08-07T08:50:28.318Z</time>
      </trkpt>
      <trkpt lat="47.6221" lon="16.79424">
        <ele>123.029538</ele>
        <time>2022-08-07T08:50:48.867Z</time>
      </trkpt>
      <trkpt lat="47.6221" lon="16.79486">
        <ele>122.909488</ele>
        <time>2022-08-07T08:51:03.105Z</time>
      </trkpt>
      <trkpt lat="47.62208" lon="16.79502">
        <ele>122.878429</ele>
        <time>2022-08-07T08:51:06.840Z</time>
      </trkpt>
      <trkpt lat="47.62205" lon="16.79513">
        <ele>122.855163</ele>
        <time>2022-08-07T08:51:09.620Z</time>
      </trkpt>
      <trkpt lat="47.62204" lon="16.79519">
        <ele>122.844153</ele>
        <time>2022-08-07T08:51:10.886Z</time>
      </trkpt>
      <trkpt lat="47.62199" lon="16.79559">
        <ele>122.765211</ele>
        <time>2022-08-07T08:51:20.314Z</time>
      </trkpt>
      <trkpt lat="47.62204" lon="16.79561">
        <ele>122.751516</ele>
        <time>2022-08-07T08:51:21.962Z</time>
      </trkpt>
      <trkpt lat="47.62209" lon="16.79564">
        <ele>122.735898</ele>
        <time>2022-08-07T08:51:23.746Z</time>
      </trkpt>
      <trkpt lat="47.6219" lon="16.79741">
        <ele>122.267805</ele>
        <time>2022-08-07T08:52:04.107Z</time>
      </trkpt>
      <trkpt lat="47.62186" lon="16.7977">
        <ele>122.183115</ele>
        <time>2022-08-07T08:52:10.507Z</time>
      </trkpt>
      <trkpt lat="47.62178" lon="16.79789">
        <ele>122.118047</ele>
        <time>2022-08-07T08:52:15.304Z</time>
      </trkpt>
      <trkpt lat="47.62157" lon="16.79849">
        <ele>121.917105</ele>
        <time>2022-08-07T08:52:30.425Z</time>
      </trkpt>
      <trkpt lat="47.62149" lon="16.79888">
        <ele>121.870956</ele>
        <time>2022-08-07T08:52:39.404Z</time>
      </trkpt>
      <trkpt lat="47.62128" lon="16.79997">
        <ele>122.064421</ele>
        <time>2022-08-07T08:53:06.165Z</time>
      </trkpt>
      <trkpt lat="47.6211" lon="16.80064">
        <ele>122.187353</ele>
        <time>2022-08-07T08:53:24.317Z</time>
      </trkpt>
      <trkpt lat="47.62065" lon="16.80145">
        <ele>122.620378</ele>
        <time>2022-08-07T08:53:51.633Z</time>
      </trkpt>
      <trkpt lat="47.61994" lon="16.80246">
        <ele>123.82953</ele>
        <time>2022-08-07T08:54:23.978Z</time>
      </trkpt>
      <trkpt lat="47.61979" lon="16.80282">
        <ele>124.171696</ele>
        <time>2022-08-07T08:54:33.303Z</time>
      </trkpt>
      <trkpt lat="47.61966" lon="16.80325">
        <ele>124.585487</ele>
        <time>2022-08-07T08:54:43.969Z</time>
      </trkpt>
      <trkpt lat="47.61885" lon="16.80728">
        <ele>129.628957</ele>
        <time>2022-08-07T08:56:21.961Z</time>
      </trkpt>
      <trkpt lat="47.61853" lon="16.8089">
        <ele>132.198659</ele>
        <time>2022-08-07T08:57:06.904Z</time>
      </trkpt>
      <trkpt lat="47.61774" lon="16.81112">
        <ele>136.425103</ele>
        <time>2022-08-07T08:58:13.488Z</time>
      </trkpt>
      <trkpt lat="47.6175" lon="16.81211">
        <ele>137.845551</ele>
        <time>2022-08-07T08:58:39.424Z</time>
      </trkpt>
      <trkpt lat="47.6172" lon="16.81473">
        <ele>140.996639</ele>
        <time>2022-08-07T08:59:41.752Z</time>
      </trkpt>
      <trkpt lat="47.61705" lon="16.81662">
        <ele>142.442623</ele>
        <time>2022-08-07T09:00:24.753Z</time>
      </trkpt>
      <trkpt lat="47.61688" lon="16.81778">
        <ele>142.811299</ele>
        <time>2022-08-07T09:00:48.441Z</time>
      </trkpt>
      <trkpt lat="47.61614" lon="16.82224">
        <ele>140.756318</ele>
        <time>2022-08-07T09:02:02.027Z</time>
      </trkpt>
      <trkpt lat="47.61582" lon="16.82377">
        <ele>139.518262</ele>
        <time>2022-08-07T09:02:26.162Z</time>
      </trkpt>
      <trkpt lat="47.6158" lon="16.82488">
        <ele>138.313559</ele>
        <time>2022-08-07T09:02:42.629Z</time>
      </trkpt>
      <trkpt lat="47.61589" lon="16.82751">
        <ele>135.435353</ele>
        <time>2022-08-07T09:03:20.901Z</time>
      </trkpt>
      <trkpt lat="47.61599" lon="16.82763">
        <ele>135.215142</ele>
        <time>2022-08-07T09:03:23.752Z</time>
      </trkpt>
      <trkpt lat="47.61703" lon="16.82895">
        <ele>133.361031</ele>
        <time>2022-08-07T09:03:53.565Z</time>
      </trkpt>
      <trkpt lat="47.61804" lon="16.83025">
        <ele>132.294947</ele>
        <time>2022-08-07T09:04:25.290Z</time>
      </trkpt>
      <trkpt lat="47.61656" lon="16.83243">
        <ele>133.639679</ele>
        <time>2022-08-07T09:05:29.696Z</time>
      </trkpt>
      <trkpt lat="47.61729" lon="16.83421">
        <ele>134.605114</ele>
        <time>2022-08-07T09:06:12.960Z</time>
      </trkpt>
      <trkpt lat="47.61774" lon="16.83537">
        <ele>133.520969</ele>
        <time>2022-08-07T09:06:35.482Z</time>
      </trkpt>
      <trkpt lat="47.61775" lon="16.83552">
        <ele>133.383617</ele>
        <time>2022-08-07T09:06:37.627Z</time>
      </trkpt>
      <trkpt lat="47.6174" lon="16.83651">
        <ele>132.37987</ele>
        <time>2022-08-07T09:06:53.031Z</time>
      </trkpt>
      <trkpt lat="47.61715" lon="16.83729">
        <ele>131.066653</ele>
        <time>2022-08-07T09:07:04.765Z</time>
      </trkpt>
      <trkpt lat="47.61705" lon="16.83786">
        <ele>130.092703</ele>
        <time>2022-08-07T09:07:12.690Z</time>
      </trkpt>
      <trkpt lat="47.61707" lon="16.83831">
        <ele>129.360153</ele>
        <time>2022-08-07T09:07:18.687Z</time>
      </trkpt>
      <trkpt lat="47.61728" lon="16.84088">
        <ele>126.404399</ele>
        <time>2022-08-07T09:07:55.783Z</time>
      </trkpt>
      <trkpt lat="47.61732" lon="16.84122">
        <ele>126.102296</ele>
        <time>2022-08-07T09:08:01.502Z</time>
      </trkpt>
      <trkpt lat="47.61739" lon="16.84182">
        <ele>125.583792</ele>
        <time>2022-08-07T09:08:11.741Z</time>
      </trkpt>
      <trkpt lat="47.6174" lon="16.84194">
        <ele>125.548302</ele>
        <time>2022-08-07T09:08:13.881Z</time>
      </trkpt>
      <trkpt lat="47.61807" lon="16.84867">
        <ele>126.09773</ele>
        <time>2022-08-07T09:10:20.988Z</time>
      </trkpt>
      <trkpt lat="47.61827" lon="16.85051">
        <ele>125.892381</ele>
        <time>2022-08-07T09:10:52.975Z</time>
      </trkpt>
      <trkpt lat="47.61832" lon="16.85097">
        <ele>125.759403</ele>
        <time>2022-08-07T09:11:00.862Z</time>
      </trkpt>
      <trkpt lat="47.6184" lon="16.85174">
        <ele>125.541315</ele>
        <time>2022-08-07T09:11:13.668Z</time>
      </trkpt>
      <trkpt lat="47.61875" lon="16.85536">
        <ele>124.446937</ele>
        <time>2022-08-07T09:12:14.347Z</time>
      </trkpt>
      <trkpt lat="47.61877" lon="16.85548">
        <ele>124.435574</ele>
        <time>2022-08-07T09:12:16.528Z</time>
      </trkpt>
      <trkpt lat="47.6191" lon="16.85889">
        <ele>124.316062</ele>
        <time>2022-08-07T09:13:18.158Z</time>
      </trkpt>
      <trkpt lat="47.61915" lon="16.8594">
        <ele>124.351239</ele>
        <time>2022-08-07T09:13:27.871Z</time>
      </trkpt>
      <trkpt lat="47.61955" lon="16.86342">
        <ele>124.761534</ele>
        <time>2022-08-07T09:14:43.098Z</time>
      </trkpt>
      <trkpt lat="47.61954" lon="16.86355">
        <ele>124.763168</ele>
        <time>2022-08-07T09:14:45.565Z</time>
      </trkpt>
      <trkpt lat="47.6195" lon="16.86372">
        <ele>124.765406</ele>
        <time>2022-08-07T09:14:49.171Z</time>
      </trkpt>
      <trkpt lat="47.61951" lon="16.8639">
        <ele>124.767599</ele>
        <time>2022-08-07T09:14:52.747Z</time>
      </trkpt>
      <trkpt lat="47.61964" lon="16.86468">
        <ele>124.777573</ele>
        <time>2022-08-07T09:15:07.830Z</time>
      </trkpt>
      <trkpt lat="47.61977" lon="16.86506">
        <ele>124.782806</ele>
        <time>2022-08-07T09:15:15.235Z</time>
      </trkpt>
      <trkpt lat="47.61991" lon="16.86542">
        <ele>124.787932</ele>
        <time>2022-08-07T09:15:22.348Z</time>
      </trkpt>
      <trkpt lat="47.62002" lon="16.86575">
        <ele>124.650785</ele>
        <time>2022-08-07T09:15:28.344Z</time>
      </trkpt>
      <trkpt lat="47.62007" lon="16.86588">
        <ele>124.57398</ele>
        <time>2022-08-07T09:15:31.048Z</time>
      </trkpt>
      <trkpt lat="47.62028" lon="16.8657">
        <ele>124.39642</ele>
        <time>2022-08-07T09:15:36.918Z</time>
      </trkpt>
      <trkpt lat="47.62037" lon="16.86567">
        <ele>124.333914</ele>
        <time>2022-08-07T09:15:39.057Z</time>
      </trkpt>
      <trkpt lat="47.62104" lon="16.86573">
        <ele>123.839326</ele>
        <time>2022-08-07T09:15:55.006Z</time>
      </trkpt>
      <trkpt lat="47.62256" lon="16.86583">
        <ele>123.068763</ele>
        <time>2022-08-07T09:16:30.844Z</time>
      </trkpt>
      <trkpt lat="47.6227" lon="16.86582">
        <ele>123.012213</ele>
        <time>2022-08-07T09:16:34.649Z</time>
      </trkpt>
      <trkpt lat="47.6231" lon="16.86554">
        <ele>122.83694</ele>
        <time>2022-08-07T09:16:46.630Z</time>
      </trkpt>
      <trkpt lat="47.6238" lon="16.8649">
        <ele>122.926126</ele>
        <time>2022-08-07T09:17:09.662Z</time>
      </trkpt>
      <trkpt lat="47.62468" lon="16.86411">
        <ele>123.199305</ele>
        <time>2022-08-07T09:17:38.986Z</time>
      </trkpt>
      <trkpt lat="47.6254" lon="16.86347">
        <ele>123.159725</ele>
        <time>2022-08-07T09:18:01.206Z</time>
      </trkpt>
      <trkpt lat="47.62866" lon="16.86055">
        <ele>122.298841</ele>
        <time>2022-08-07T09:19:40.212Z</time>
      </trkpt>
      <trkpt lat="47.62893" lon="16.86047">
        <ele>122.134451</ele>
        <time>2022-08-07T09:19:46.681Z</time>
      </trkpt>
      <trkpt lat="47.63097" lon="16.86048">
        <ele>120.196125</ele>
        <time>2022-08-07T09:20:33.026Z</time>
      </trkpt>
      <trkpt lat="47.63117" lon="16.86048">
        <ele>119.977938</ele>
        <time>2022-08-07T09:20:37.611Z</time>
      </trkpt>
      <trkpt lat="47.63196" lon="16.86047">
        <ele>119.497614</ele>
        <time>2022-08-07T09:20:56.275Z</time>
      </trkpt>
      <trkpt lat="47.63213" lon="16.86046">
        <ele>119.419937</ele>
        <time>2022-08-07T09:21:00.371Z</time>
      </trkpt>
      <trkpt lat="47.63246" lon="16.86043">
        <ele>119.269016</ele>
        <time>2022-08-07T09:21:08.615Z</time>
      </trkpt>
      <trkpt lat="47.6332" lon="16.86029">
        <ele>118.9605</ele>
        <time>2022-08-07T09:21:28.299Z</time>
      </trkpt>
      <trkpt lat="47.63345" lon="16.86026">
        <ele>118.991398</ele>
        <time>2022-08-07T09:21:35.034Z</time>
      </trkpt>
      <trkpt lat="47.63405" lon="16.86017">
        <ele>119.066497</ele>
        <time>2022-08-07T09:21:51.757Z</time>
      </trkpt>
      <trkpt lat="47.63422" lon="16.86031">
        <ele>119.090657</ele>
        <time>2022-08-07T09:21:57.228Z</time>
      </trkpt>
      <trkpt lat="47.63435" lon="16.86058">
        <ele>119.117927</ele>
        <time>2022-08-07T09:22:03.477Z</time>
      </trkpt>
      <trkpt lat="47.63542" lon="16.86376">
        <ele>118.988668</ele>
        <time>2022-08-07T09:23:07.669Z</time>
      </trkpt>
      <trkpt lat="47.63554" lon="16.86399">
        <ele>118.85613</ele>
        <time>2022-08-07T09:23:12.442Z</time>
      </trkpt>
      <trkpt lat="47.63561" lon="16.86402">
        <ele>118.807576</ele>
        <time>2022-08-07T09:23:14.111Z</time>
      </trkpt>
      <trkpt lat="47.63623" lon="16.86371">
        <ele>118.362007</ele>
        <time>2022-08-07T09:23:29.606Z</time>
      </trkpt>
      <trkpt lat="47.63667" lon="16.86348">
        <ele>118.046342</ele>
        <time>2022-08-07T09:23:40.371Z</time>
      </trkpt>
      <trkpt lat="47.63781" lon="16.8629">
        <ele>117.435986</ele>
        <time>2022-08-07T09:24:09.224Z</time>
      </trkpt>
      <trkpt lat="47.63843" lon="16.86262">
        <ele>117.140207</ele>
        <time>2022-08-07T09:24:25.918Z</time>
      </trkpt>
      <trkpt lat="47.63888" lon="16.86256">
        <ele>117.023293</ele>
        <time>2022-08-07T09:24:37.804Z</time>
      </trkpt>
      <trkpt lat="47.6397" lon="16.86261">
        <ele>116.965482</ele>
        <time>2022-08-07T09:24:59.815Z</time>
      </trkpt>
      <trkpt lat="47.64065" lon="16.8626">
        <ele>116.881662</ele>
        <time>2022-08-07T09:25:24.564Z</time>
      </trkpt>
      <trkpt lat="47.64427" lon="16.8619">
        <ele>116.249407</ele>
        <time>2022-08-07T09:26:59.027Z</time>
      </trkpt>
      <trkpt lat="47.64527" lon="16.8617">
        <ele>115.941321</ele>
        <time>2022-08-07T09:27:24.796Z</time>
      </trkpt>
      <trkpt lat="47.64697" lon="16.86132">
        <ele>115.328567</ele>
        <time>2022-08-07T09:28:08.043Z</time>
      </trkpt>
      <trkpt lat="47.64729" lon="16.86112">
        <ele>115.197413</ele>
        <time>2022-08-07T09:28:16.682Z</time>
      </trkpt>
      <trkpt lat="47.64774" lon="16.86072">
        <ele>115.025482</ele>
        <time>2022-08-07T09:28:29.789Z</time>
      </trkpt>
      <trkpt lat="47.64831" lon="16.86042">
        <ele>114.856525</ele>
        <time>2022-08-07T09:28:45.098Z</time>
      </trkpt>
      <trkpt lat="47.65061" lon="16.86019">
        <ele>114.487757</ele>
        <time>2022-08-07T09:29:44.464Z</time>
      </trkpt>
      <trkpt lat="47.65284" lon="16.85865">
        <ele>114.969871</ele>
        <time>2022-08-07T09:30:53.556Z</time>
      </trkpt>
      <trkpt lat="47.65532" lon="16.85717">
        <ele>115.404722</ele>
        <time>2022-08-07T09:32:07.135Z</time>
      </trkpt>
      <trkpt lat="47.65555" lon="16.8571">
        <ele>115.428968</ele>
        <time>2022-08-07T09:32:13.561Z</time>
      </trkpt>
      <trkpt lat="47.65618" lon="16.85713">
        <ele>115.45214</ele>
        <time>2022-08-07T09:32:30.112Z</time>
      </trkpt>
      <trkpt lat="47.65806" lon="16.85758">
        <ele>115.181724</ele>
        <time>2022-08-07T09:33:19.758Z</time>
      </trkpt>
      <trkpt lat="47.65862" lon="16.85747">
        <ele>115.059072</ele>
        <time>2022-08-07T09:33:34.475Z</time>
      </trkpt>
      <trkpt lat="47.65899" lon="16.85723">
        <ele>114.970617</ele>
        <time>2022-08-07T09:33:45.030Z</time>
      </trkpt>
      <trkpt lat="47.66292" lon="16.85411">
        <ele>113.555455</ele>
        <time>2022-08-07T09:35:36.220Z</time>
      </trkpt>
      <trkpt lat="47.66559" lon="16.85198">
        <ele>115.12701</ele>
        <time>2022-08-07T09:37:05.917Z</time>
      </trkpt>
      <trkpt lat="47.66615" lon="16.85182">
        <ele>115.513633</ele>
        <time>2022-08-07T09:37:23.469Z</time>
      </trkpt>
      <trkpt lat="47.66706" lon="16.85185">
        <ele>116.145957</ele>
        <time>2022-08-07T09:37:51.060Z</time>
      </trkpt>
      <trkpt lat="47.66763" lon="16.85187">
        <ele>116.537959</ele>
        <time>2022-08-07T09:38:08.039Z</time>
      </trkpt>
      <trkpt lat="47.66921" lon="16.85197">
        <ele>117.078712</ele>
        <time>2022-08-07T09:38:53.539Z</time>
      </trkpt>
      <trkpt lat="47.67327" lon="16.85405">
        <ele>116.231743</ele>
        <time>2022-08-07T09:40:43.300Z</time>
      </trkpt>
      <trkpt lat="47.67337" lon="16.85403">
        <ele>116.214103</ele>
        <time>2022-08-07T09:40:45.796Z</time>
      </trkpt>
      <trkpt lat="47.67351" lon="16.85392">
        <ele>116.184166</ele>
        <time>2022-08-07T09:40:50.011Z</time>
      </trkpt>
      <trkpt lat="47.6757" lon="16.85129">
        <ele>115.778805</ele>
        <time>2022-08-07T09:42:03.651Z</time>
      </trkpt>
      <trkpt lat="47.6765" lon="16.85032">
        <ele>115.41457</ele>
        <time>2022-08-07T09:42:30.017Z</time>
      </trkpt>
      <trkpt lat="47.67782" lon="16.84875">
        <ele>114.487689</ele>
        <time>2022-08-07T09:43:11.535Z</time>
      </trkpt>
      <trkpt lat="47.67833" lon="16.84833">
        <ele>114.068745</ele>
        <time>2022-08-07T09:43:25.279Z</time>
      </trkpt>
      <trkpt lat="47.67846" lon="16.84825">
        <ele>113.969634</ele>
        <time>2022-08-07T09:43:28.466Z</time>
      </trkpt>
      <trkpt lat="47.67863" lon="16.84812">
        <ele>113.831719</ele>
        <time>2022-08-07T09:43:33.039Z</time>
      </trkpt>
      <trkpt lat="47.67873" lon="16.84805">
        <ele>113.750957</ele>
        <time>2022-08-07T09:43:35.587Z</time>
      </trkpt>
      <trkpt lat="47.6789" lon="16.84794">
        <ele>113.607548</ele>
        <time>2022-08-07T09:43:40.054Z</time>
      </trkpt>
      <trkpt lat="47.67913" lon="16.84769">
        <ele>113.39758</ele>
        <time>2022-08-07T09:43:46.602Z</time>
      </trkpt>
      <trkpt lat="47.67955" lon="16.84678">
        <ele>112.837623</ele>
        <time>2022-08-07T09:44:04.135Z</time>
      </trkpt>
      <trkpt lat="47.67968" lon="16.84654">
        <ele>112.680426</ele>
        <time>2022-08-07T09:44:09.140Z</time>
      </trkpt>
      <trkpt lat="47.68226" lon="16.84333">
        <ele>111.211308</ele>
        <time>2022-08-07T09:45:32.183Z</time>
      </trkpt>
      <trkpt lat="47.68904" lon="16.83492">
        <ele>113.470412</ele>
        <time>2022-08-07T09:49:40.093Z</time>
      </trkpt>
      <trkpt lat="47.68934" lon="16.83471">
        <ele>113.584909</ele>
        <time>2022-08-07T09:49:49.412Z</time>
      </trkpt>
      <trkpt lat="47.68948" lon="16.83477">
        <ele>113.637006</ele>
        <time>2022-08-07T09:49:53.627Z</time>
      </trkpt>
      <trkpt lat="47.69235" lon="16.83937">
        <ele>115.609144</ele>
        <time>2022-08-07T09:51:56.389Z</time>
      </trkpt>
      <trkpt lat="47.69242" lon="16.83952">
        <ele>115.643397</ele>
        <time>2022-08-07T09:52:00.128Z</time>
      </trkpt>
      <trkpt lat="47.69284" lon="16.84062">
        <ele>115.881836</ele>
        <time>2022-08-07T09:52:24.359Z</time>
      </trkpt>
      <trkpt lat="47.69333" lon="16.84215">
        <ele>115.717383</ele>
        <time>2022-08-07T09:52:53.876Z</time>
      </trkpt>
      <trkpt lat="47.69355" lon="16.84284">
        <ele>115.528943</ele>
        <time>2022-08-07T09:53:06.494Z</time>
      </trkpt>
      <trkpt lat="47.69358" lon="16.84295">
        <ele>115.500448</ele>
        <time>2022-08-07T09:53:08.382Z</time>
      </trkpt>
      <trkpt lat="47.69371" lon="16.84332">
        <ele>115.39831</ele>
        <time>2022-08-07T09:53:15.210Z</time>
      </trkpt>
      <trkpt lat="47.69378" lon="16.84354">
        <ele>115.338216</ele>
        <time>2022-08-07T09:53:19.261Z</time>
      </trkpt>
      <trkpt lat="47.6939" lon="16.84391">
        <ele>115.254578</ele>
        <time>2022-08-07T09:53:26.136Z</time>
      </trkpt>
      <trkpt lat="47.69404" lon="16.84433">
        <ele>115.161834</ele>
        <time>2022-08-07T09:53:33.917Z</time>
      </trkpt>
      <trkpt lat="47.69407" lon="16.84441">
        <ele>115.144963</ele>
        <time>2022-08-07T09:53:35.338Z</time>
      </trkpt>
      <trkpt lat="47.6941" lon="16.84448">
        <ele>115.128093</ele>
        <time>2022-08-07T09:53:36.815Z</time>
      </trkpt>
      <trkpt lat="47.69532" lon="16.84825">
        <ele>114.459367</ele>
        <time>2022-08-07T09:54:49.810Z</time>
      </trkpt>
      <trkpt lat="47.69584" lon="16.84984">
        <ele>114.161986</ele>
        <time>2022-08-07T09:55:19.775Z</time>
      </trkpt>
      <trkpt lat="47.69593" lon="16.8501">
        <ele>114.113102</ele>
        <time>2022-08-07T09:55:24.661Z</time>
      </trkpt>
      <trkpt lat="47.69598" lon="16.85025">
        <ele>114.083201</ele>
        <time>2022-08-07T09:55:27.616Z</time>
      </trkpt>
      <trkpt lat="47.69861" lon="16.85044">
        <ele>113.787623</ele>
        <time>2022-08-07T09:56:36.744Z</time>
      </trkpt>
      <trkpt lat="47.69938" lon="16.85054">
        <ele>113.713379</ele>
        <time>2022-08-07T09:56:57.190Z</time>
      </trkpt>
      <trkpt lat="47.70331" lon="16.85066">
        <ele>113.343321</ele>
        <time>2022-08-07T09:58:40.365Z</time>
      </trkpt>
      <trkpt lat="47.70368" lon="16.85077">
        <ele>113.30008</ele>
        <time>2022-08-07T09:58:49.974Z</time>
      </trkpt>
      <trkpt lat="47.70389" lon="16.85111">
        <ele>113.261824</ele>
        <time>2022-08-07T09:58:58.007Z</time>
      </trkpt>
      <trkpt lat="47.70679" lon="16.8569">
        <ele>112.75455</ele>
        <time>2022-08-07T10:01:05.251Z</time>
      </trkpt>
      <trkpt lat="47.70683" lon="16.85697">
        <ele>112.750589</ele>
        <time>2022-08-07T10:01:06.788Z</time>
      </trkpt>
      <trkpt lat="47.70782" lon="16.85894">
        <ele>112.844861</ele>
        <time>2022-08-07T10:01:52.247Z</time>
      </trkpt>
      <trkpt lat="47.70921" lon="16.86179">
        <ele>112.792316</ele>
        <time>2022-08-07T10:02:54.269Z</time>
      </trkpt>
      <trkpt lat="47.71291" lon="16.86906">
        <ele>113.551814</ele>
        <time>2022-08-07T10:05:41.837Z</time>
      </trkpt>
      <trkpt lat="47.713" lon="16.86919">
        <ele>113.574403</ele>
        <time>2022-08-07T10:05:45.433Z</time>
      </trkpt>
      <trkpt lat="47.71325" lon="16.86928">
        <ele>113.620028</ele>
        <time>2022-08-07T10:05:52.690Z</time>
      </trkpt>
      <trkpt lat="47.7139" lon="16.86923">
        <ele>113.692349</ele>
        <time>2022-08-07T10:06:10.782Z</time>
      </trkpt>
      <trkpt lat="47.72122" lon="16.86855">
        <ele>114.092813</ele>
        <time>2022-08-07T10:09:28.316Z</time>
      </trkpt>
      <trkpt lat="47.72147" lon="16.86862">
        <ele>114.100409</ele>
        <time>2022-08-07T10:09:35.015Z</time>
      </trkpt>
      <trkpt lat="47.72146" lon="16.86865">
        <ele>114.101014</ele>
        <time>2022-08-07T10:09:35.546Z</time>
      </trkpt>
      <trkpt lat="47.72136" lon="16.86883">
        <ele>114.105768</ele>
        <time>2022-08-07T10:09:39.756Z</time>
      </trkpt>
      <trkpt lat="47.7213" lon="16.86893">
        <ele>114.10842</ele>
        <time>2022-08-07T10:09:42.084Z</time>
      </trkpt>
      <trkpt lat="47.71973" lon="16.87172">
        <ele>114.179084</ele>
        <time>2022-08-07T10:10:47.889Z</time>
      </trkpt>
      <trkpt lat="47.71104" lon="16.88729">
        <ele>113.781007</ele>
        <time>2022-08-07T10:16:48.770Z</time>
      </trkpt>
      <trkpt lat="47.71099" lon="16.88737">
        <ele>113.784944</ele>
        <time>2022-08-07T10:16:50.860Z</time>
      </trkpt>
      <trkpt lat="47.7073" lon="16.89396">
        <ele>114.684928</ele>
        <time>2022-08-07T10:19:29.035Z</time>
      </trkpt>
      <trkpt lat="47.70416" lon="16.89976">
        <ele>116.652159</ele>
        <time>2022-08-07T10:21:51.426Z</time>
      </trkpt>
      <trkpt lat="47.70375" lon="16.90053">
        <ele>117.010838</ele>
        <time>2022-08-07T10:22:11.226Z</time>
      </trkpt>
      <trkpt lat="47.70298" lon="16.90192">
        <ele>118.108248</ele>
        <time>2022-08-07T10:22:48.633Z</time>
      </trkpt>
      <trkpt lat="47.70276" lon="16.90237">
        <ele>118.476543</ele>
        <time>2022-08-07T10:23:00.889Z</time>
      </trkpt>
      <trkpt lat="47.70257" lon="16.90274">
        <ele>118.779837</ele>
        <time>2022-08-07T10:23:11.114Z</time>
      </trkpt>
      <trkpt lat="47.70221" lon="16.90354">
        <ele>119.328813</ele>
        <time>2022-08-07T10:23:31.661Z</time>
      </trkpt>
      <trkpt lat="47.7017" lon="16.90479">
        <ele>120.144883</ele>
        <time>2022-08-07T10:24:01.970Z</time>
      </trkpt>
      <trkpt lat="47.70173" lon="16.90484">
        <ele>120.185876</ele>
        <time>2022-08-07T10:24:03.457Z</time>
      </trkpt>
      <trkpt lat="47.70136" lon="16.90567">
        <ele>120.336228</ele>
        <time>2022-08-07T10:24:22.608Z</time>
      </trkpt>
      <trkpt lat="47.70106" lon="16.90606">
        <ele>120.324705</ele>
        <time>2022-08-07T10:24:32.938Z</time>
      </trkpt>
      <trkpt lat="47.70097" lon="16.90618">
        <ele>120.321333</ele>
        <time>2022-08-07T10:24:35.891Z</time>
      </trkpt>
      <trkpt lat="47.70089" lon="16.90612">
        <ele>120.318627</ele>
        <time>2022-08-07T10:24:38.275Z</time>
      </trkpt>
      <trkpt lat="47.7008" lon="16.90625">
        <ele>120.315119</ele>
        <time>2022-08-07T10:24:41.273Z</time>
      </trkpt>
      <trkpt lat="47.70088" lon="16.9064">
        <ele>120.31139</ele>
        <time>2022-08-07T10:24:44.427Z</time>
      </trkpt>
      <trkpt lat="47.70099" lon="16.90632">
        <ele>120.307999</ele>
        <time>2022-08-07T10:24:47.258Z</time>
      </trkpt>
      <trkpt lat="47.70106" lon="16.90636">
        <ele>120.305631</ele>
        <time>2022-08-07T10:24:49.302Z</time>
      </trkpt>
      <trkpt lat="47.70175" lon="16.90672">
        <ele>120.335893</ele>
        <time>2022-08-07T10:25:08.212Z</time>
      </trkpt>
      <trkpt lat="47.70234" lon="16.90703">
        <ele>120.388356</ele>
        <time>2022-08-07T10:25:25.191Z</time>
      </trkpt>
      <trkpt lat="47.70319" lon="16.90749">
        <ele>120.499911</ele>
        <time>2022-08-07T10:25:50.670Z</time>
      </trkpt>
      <trkpt lat="47.70318" lon="16.90757">
        <ele>120.515528</ele>
        <time>2022-08-07T10:25:52.318Z</time>
      </trkpt>
      <trkpt lat="47.70316" lon="16.90804">
        <ele>120.600127</ele>
        <time>2022-08-07T10:26:01.318Z</time>
      </trkpt>
      <trkpt lat="47.70316" lon="16.90813">
        <ele>120.616687</ele>
        <time>2022-08-07T10:26:03.083Z</time>
      </trkpt>
      <trkpt lat="47.70315" lon="16.90873">
        <ele>120.72656</ele>
        <time>2022-08-07T10:26:14.866Z</time>
      </trkpt>
      <trkpt lat="47.70315" lon="16.90887">
        <ele>120.752029</ele>
        <time>2022-08-07T10:26:17.465Z</time>
      </trkpt>
      <trkpt lat="47.70311" lon="16.9097">
        <ele>120.902685</ele>
        <time>2022-08-07T10:26:32.960Z</time>
      </trkpt>
      <trkpt lat="47.70309" lon="16.90983">
        <ele>120.927212</ele>
        <time>2022-08-07T10:26:35.478Z</time>
      </trkpt>
      <trkpt lat="47.70296" lon="16.91084">
        <ele>120.739269</ele>
        <time>2022-08-07T10:26:53.430Z</time>
      </trkpt>
      <trkpt lat="47.70294" lon="16.91093">
        <ele>120.721755</ele>
        <time>2022-08-07T10:26:54.897Z</time>
      </trkpt>
      <trkpt lat="47.70395" lon="16.91155">
        <ele>120.400122</ele>
        <time>2022-08-07T10:27:22.177Z</time>
      </trkpt>
      <trkpt lat="47.70598" lon="16.91279">
        <ele>119.242744</ele>
        <time>2022-08-07T10:28:16.478Z</time>
      </trkpt>
      <trkpt lat="47.70633" lon="16.91301">
        <ele>118.962945</ele>
        <time>2022-08-07T10:28:25.306Z</time>
      </trkpt>
      <trkpt lat="47.70645" lon="16.91308">
        <ele>118.868773</ele>
        <time>2022-08-07T10:28:28.302Z</time>
      </trkpt>
      <trkpt lat="47.70696" lon="16.91338">
        <ele>118.464661</ele>
        <time>2022-08-07T10:28:41.116Z</time>
      </trkpt>
      <trkpt lat="47.70772" lon="16.91385">
        <ele>117.991229</ele>
        <time>2022-08-07T10:29:00.850Z</time>
      </trkpt>
      <trkpt lat="47.70776" lon="16.91373">
        <ele>117.950933</ele>
        <time>2022-08-07T10:29:03.058Z</time>
      </trkpt>
      <trkpt lat="47.70811" lon="16.91392">
        <ele>117.778091</ele>
        <time>2022-08-07T10:29:12.191Z</time>
      </trkpt>
      <trkpt lat="47.70874" lon="16.91443">
        <ele>117.444729</ele>
        <time>2022-08-07T10:29:30.175Z</time>
      </trkpt>
      <trkpt lat="47.70891" lon="16.91464">
        <ele>117.395721</ele>
        <time>2022-08-07T10:29:35.875Z</time>
      </trkpt>
      <trkpt lat="47.71964" lon="16.92895">
        <ele>118.671061</ele>
        <time>2022-08-07T10:36:07.188Z</time>
      </trkpt>
      <trkpt lat="47.721" lon="16.93072">
        <ele>118.654871</ele>
        <time>2022-08-07T10:36:55.343Z</time>
      </trkpt>
      <trkpt lat="47.72094" lon="16.93078">
        <ele>118.652588</ele>
        <time>2022-08-07T10:36:58.339Z</time>
      </trkpt>
      <trkpt lat="47.72114" lon="16.93105">
        <ele>118.643653</ele>
        <time>2022-08-07T10:37:05.606Z</time>
      </trkpt>
      <trkpt lat="47.72339" lon="16.93439">
        <ele>118.780257</ele>
        <time>2022-08-07T10:38:30.269Z</time>
      </trkpt>
      <trkpt lat="47.72358" lon="16.93469">
        <ele>118.992066</ele>
        <time>2022-08-07T10:38:38.259Z</time>
      </trkpt>
      <trkpt lat="47.72412" lon="16.93541">
        <ele>119.553064</ele>
        <time>2022-08-07T10:39:00.506Z</time>
      </trkpt>
      <trkpt lat="47.72483" lon="16.93633">
        <ele>120.210242</ele>
        <time>2022-08-07T10:39:30.663Z</time>
      </trkpt>
      <trkpt lat="47.72485" lon="16.93635">
        <ele>120.219662</ele>
        <time>2022-08-07T10:39:31.349Z</time>
      </trkpt>
      <trkpt lat="47.72492" lon="16.93642">
        <ele>120.257748</ele>
        <time>2022-08-07T10:39:34.187Z</time>
      </trkpt>
      <trkpt lat="47.72504" lon="16.93649">
        <ele>120.311713</ele>
        <time>2022-08-07T10:39:38.233Z</time>
      </trkpt>
      <trkpt lat="47.72506" lon="16.93654">
        <ele>120.326457</ele>
        <time>2022-08-07T10:39:39.311Z</time>
      </trkpt>
      <trkpt lat="47.72514" lon="16.93658">
        <ele>120.361245</ele>
        <time>2022-08-07T10:39:41.809Z</time>
      </trkpt>
      <trkpt lat="47.72522" lon="16.93665">
        <ele>120.399699</ele>
        <time>2022-08-07T10:39:44.605Z</time>
      </trkpt>
      <trkpt lat="47.72534" lon="16.93676">
        <ele>120.459045</ele>
        <time>2022-08-07T10:39:48.949Z</time>
      </trkpt>
      <trkpt lat="47.72561" lon="16.93715">
        <ele>120.616058</ele>
        <time>2022-08-07T10:40:00.053Z</time>
      </trkpt>
      <trkpt lat="47.72581" lon="16.93758">
        <ele>120.764219</ele>
        <time>2022-08-07T10:40:09.749Z</time>
      </trkpt>
      <trkpt lat="47.72628" lon="16.93906">
        <ele>120.057939</ele>
        <time>2022-08-07T10:40:36.087Z</time>
      </trkpt>
      <trkpt lat="47.72662" lon="16.93982">
        <ele>119.439499</ele>
        <time>2022-08-07T10:40:49.582Z</time>
      </trkpt>
      <trkpt lat="47.72673" lon="16.93995">
        <ele>119.299288</ele>
        <time>2022-08-07T10:40:52.671Z</time>
      </trkpt>
      <trkpt lat="47.72772" lon="16.94115">
        <ele>118.242304</ele>
        <time>2022-08-07T10:41:21.980Z</time>
      </trkpt>
      <trkpt lat="47.72809" lon="16.94167">
        <ele>117.844629</ele>
        <time>2022-08-07T10:41:34.457Z</time>
      </trkpt>
      <trkpt lat="47.72846" lon="16.94219">
        <ele>117.719715</ele>
        <time>2022-08-07T10:41:48.160Z</time>
      </trkpt>
      <trkpt lat="47.72852" lon="16.94228">
        <ele>117.737019</ele>
        <time>2022-08-07T10:41:50.467Z</time>
      </trkpt>
      <trkpt lat="47.72919" lon="16.94325">
        <ele>117.937317</ele>
        <time>2022-08-07T10:42:17.305Z</time>
      </trkpt>
      <trkpt lat="47.72954" lon="16.94375">
        <ele>118.042995</ele>
        <time>2022-08-07T10:42:31.128Z</time>
      </trkpt>
      <trkpt lat="47.72959" lon="16.94381">
        <ele>118.042401</ele>
        <time>2022-08-07T10:42:32.719Z</time>
      </trkpt>
      <trkpt lat="47.72978" lon="16.94409">
        <ele>118.017072</ele>
        <time>2022-08-07T10:42:39.738Z</time>
      </trkpt>
      <trkpt lat="47.73026" lon="16.94477">
        <ele>117.953625</ele>
        <time>2022-08-07T10:42:57.206Z</time>
      </trkpt>
      <trkpt lat="47.73055" lon="16.9452">
        <ele>117.914765</ele>
        <time>2022-08-07T10:43:07.786Z</time>
      </trkpt>
      <trkpt lat="47.7306" lon="16.94527">
        <ele>117.908166</ele>
        <time>2022-08-07T10:43:09.501Z</time>
      </trkpt>
      <trkpt lat="47.73085" lon="16.94563">
        <ele>117.874928</ele>
        <time>2022-08-07T10:43:18.072Z</time>
      </trkpt>
      <trkpt lat="47.73468" lon="16.9511">
        <ele>117.437462</ele>
        <time>2022-08-07T10:45:37.517Z</time>
      </trkpt>
      <trkpt lat="47.73515" lon="16.95177">
        <ele>117.537201</ele>
        <time>2022-08-07T10:45:56.265Z</time>
      </trkpt>
      <trkpt lat="47.73587" lon="16.95279">
        <ele>117.714266</ele>
        <time>2022-08-07T10:46:24.325Z</time>
      </trkpt>
      <trkpt lat="47.74209" lon="16.96164">
        <ele>115.426947</ele>
        <time>2022-08-07T10:50:02.744Z</time>
      </trkpt>
      <trkpt lat="47.74308" lon="16.96317">
        <ele>115.289687</ele>
        <time>2022-08-07T10:50:40.929Z</time>
      </trkpt>
      <trkpt lat="47.74296" lon="16.96329">
        <ele>115.286531</ele>
        <time>2022-08-07T10:50:44.966Z</time>
      </trkpt>
      <trkpt lat="47.743" lon="16.96336">
        <ele>115.285204</ele>
        <time>2022-08-07T10:50:46.673Z</time>
      </trkpt>
      <trkpt lat="47.74308" lon="16.96348">
        <ele>115.282823</ele>
        <time>2022-08-07T10:50:49.725Z</time>
      </trkpt>
      <trkpt lat="47.74321" lon="16.96353">
        <ele>115.279993</ele>
        <time>2022-08-07T10:50:53.296Z</time>
      </trkpt>
      <trkpt lat="47.74445" lon="16.96552">
        <ele>115.361003</ele>
        <time>2022-08-07T10:51:41.291Z</time>
      </trkpt>
      <trkpt lat="47.74792" lon="16.96979">
        <ele>116.984286</ele>
        <time>2022-08-07T10:53:49.276Z</time>
      </trkpt>
      <trkpt lat="47.74952" lon="16.97173">
        <ele>118.033252</ele>
        <time>2022-08-07T10:54:53.116Z</time>
      </trkpt>
      <trkpt lat="47.75144" lon="16.97401">
        <ele>117.575773</ele>
        <time>2022-08-07T10:55:54.314Z</time>
      </trkpt>
      <trkpt lat="47.7542" lon="16.97742">
        <ele>116.4546</ele>
        <time>2022-08-07T10:57:25.879Z</time>
      </trkpt>
      <trkpt lat="47.75559" lon="16.979">
        <ele>115.529387</ele>
        <time>2022-08-07T10:58:08.447Z</time>
      </trkpt>
      <trkpt lat="47.75617" lon="16.97946">
        <ele>115.197934</ele>
        <time>2022-08-07T10:58:24.261Z</time>
      </trkpt>
      <trkpt lat="47.75696" lon="16.9799">
        <ele>115.033959</ele>
        <time>2022-08-07T10:58:45.730Z</time>
      </trkpt>
      <trkpt lat="47.75785" lon="16.98017">
        <ele>114.903515</ele>
        <time>2022-08-07T10:59:09.820Z</time>
      </trkpt>
      <trkpt lat="47.76131" lon="16.98052">
        <ele>116.196548</ele>
        <time>2022-08-07T11:00:48.939Z</time>
      </trkpt>
      <trkpt lat="47.76177" lon="16.98069">
        <ele>116.386192</ele>
        <time>2022-08-07T11:01:02.512Z</time>
      </trkpt>
      <trkpt lat="47.76244" lon="16.98106">
        <ele>116.671105</ele>
        <time>2022-08-07T11:01:22.705Z</time>
      </trkpt>
      <trkpt lat="47.76262" lon="16.98106">
        <ele>116.744263</ele>
        <time>2022-08-07T11:01:27.961Z</time>
      </trkpt>
      <trkpt lat="47.76303" lon="16.9813">
        <ele>116.921166</ele>
        <time>2022-08-07T11:01:40.682Z</time>
      </trkpt>
      <trkpt lat="47.76306" lon="16.98117">
        <ele>116.966837</ele>
        <time>2022-08-07T11:01:43.191Z</time>
      </trkpt>
      <trkpt lat="47.76316" lon="16.98122">
        <ele>117.023326</ele>
        <time>2022-08-07T11:01:46.021Z</time>
      </trkpt>
      <trkpt lat="47.76349" lon="16.98148">
        <ele>117.246823</ele>
        <time>2022-08-07T11:01:57.167Z</time>
      </trkpt>
      <trkpt lat="47.76371" lon="16.98184">
        <ele>117.438782</ele>
        <time>2022-08-07T11:02:06.793Z</time>
      </trkpt>
      <trkpt lat="47.76391" lon="16.98229">
        <ele>117.651742</ele>
        <time>2022-08-07T11:02:17.565Z</time>
      </trkpt>
      <trkpt lat="47.76441" lon="16.98333">
        <ele>118.134925</ele>
        <time>2022-08-07T11:02:43.143Z</time>
      </trkpt>
      <trkpt lat="47.76471" lon="16.984">
        <ele>118.408571</ele>
        <time>2022-08-07T11:02:58.879Z</time>
      </trkpt>
      <trkpt lat="47.76495" lon="16.98454">
        <ele>118.629969</ele>
        <time>2022-08-07T11:03:11.355Z</time>
      </trkpt>
      <trkpt lat="47.76498" lon="16.98461">
        <ele>118.655999</ele>
        <time>2022-08-07T11:03:12.816Z</time>
      </trkpt>
      <trkpt lat="47.76489" lon="16.98476">
        <ele>118.725768</ele>
        <time>2022-08-07T11:03:18.008Z</time>
      </trkpt>
      <trkpt lat="47.76483" lon="16.98486">
        <ele>118.767584</ele>
        <time>2022-08-07T11:03:21.148Z</time>
      </trkpt>
      <trkpt lat="47.76472" lon="16.98504">
        <ele>118.851389</ele>
        <time>2022-08-07T11:03:25.858Z</time>
      </trkpt>
      <trkpt lat="47.76459" lon="16.98525">
        <ele>118.92554</ele>
        <time>2022-08-07T11:03:31.685Z</time>
      </trkpt>
      <trkpt lat="47.76426" lon="16.98585">
        <ele>119.04238</ele>
        <time>2022-08-07T11:03:46.448Z</time>
      </trkpt>
      <trkpt lat="47.76375" lon="16.98708">
        <ele>119.261526</ele>
        <time>2022-08-07T11:04:13.650Z</time>
      </trkpt>
      <trkpt lat="47.76342" lon="16.98784">
        <ele>119.023665</ele>
        <time>2022-08-07T11:04:29.425Z</time>
      </trkpt>
      <trkpt lat="47.76349" lon="16.98795">
        <ele>118.947</ele>
        <time>2022-08-07T11:04:32.113Z</time>
      </trkpt>
      <trkpt lat="47.76342" lon="16.98806">
        <ele>118.872076</ele>
        <time>2022-08-07T11:04:34.594Z</time>
      </trkpt>
      <trkpt lat="47.76323" lon="16.98841">
        <ele>118.649745</ele>
        <time>2022-08-07T11:04:41.902Z</time>
      </trkpt>
      <trkpt lat="47.76319" lon="16.98868">
        <ele>118.513551</ele>
        <time>2022-08-07T11:04:46.193Z</time>
      </trkpt>
      <trkpt lat="47.76323" lon="16.98879">
        <ele>118.450613</ele>
        <time>2022-08-07T11:04:48.158Z</time>
      </trkpt>
      <trkpt lat="47.764" lon="16.9895">
        <ele>117.747971</ele>
        <time>2022-08-07T11:05:08.406Z</time>
      </trkpt>
      <trkpt lat="47.76479" lon="16.99019">
        <ele>116.957287</ele>
        <time>2022-08-07T11:05:29.650Z</time>
      </trkpt>
      <trkpt lat="47.76494" lon="16.99033">
        <ele>116.806732</ele>
        <time>2022-08-07T11:05:33.898Z</time>
      </trkpt>
      <trkpt lat="47.76546" lon="16.99086">
        <ele>116.426956</ele>
        <time>2022-08-07T11:05:49.652Z</time>
      </trkpt>
      <trkpt lat="47.76579" lon="16.99136">
        <ele>116.408456</ele>
        <time>2022-08-07T11:06:02.280Z</time>
      </trkpt>
      <trkpt lat="47.76647" lon="16.99248">
        <ele>116.369575</ele>
        <time>2022-08-07T11:06:29.888Z</time>
      </trkpt>
      <trkpt lat="47.76659" lon="16.99255">
        <ele>116.364947</ele>
        <time>2022-08-07T11:06:33.330Z</time>
      </trkpt>
      <trkpt lat="47.76739" lon="16.99386">
        <ele>116.362472</ele>
        <time>2022-08-07T11:07:04.599Z</time>
      </trkpt>
      <trkpt lat="47.76949" lon="16.99734">
        <ele>116.486512</ele>
        <time>2022-08-07T11:08:29.768Z</time>
      </trkpt>
      <trkpt lat="47.77071" lon="16.99944">
        <ele>116.066781</ele>
        <time>2022-08-07T11:09:18.122Z</time>
      </trkpt>
      <trkpt lat="47.77094" lon="17.00002">
        <ele>115.866216</ele>
        <time>2022-08-07T11:09:29.020Z</time>
      </trkpt>
      <trkpt lat="47.77116" lon="17.00082">
        <ele>115.610513</ele>
        <time>2022-08-07T11:09:43.015Z</time>
      </trkpt>
      <trkpt lat="47.77128" lon="17.00133">
        <ele>115.4763</ele>
        <time>2022-08-07T11:09:51.776Z</time>
      </trkpt>
      <trkpt lat="47.77135" lon="17.00195">
        <ele>115.319907</ele>
        <time>2022-08-07T11:10:01.997Z</time>
      </trkpt>
      <trkpt lat="47.77139" lon="17.00612">
        <ele>114.762798</ele>
        <time>2022-08-07T11:11:15.220Z</time>
      </trkpt>
      <trkpt lat="47.77152" lon="17.00762">
        <ele>114.932822</ele>
        <time>2022-08-07T11:11:42.925Z</time>
      </trkpt>
      <trkpt lat="47.77164" lon="17.00833">
        <ele>115.01519</ele>
        <time>2022-08-07T11:11:56.652Z</time>
      </trkpt>
      <trkpt lat="47.77291" lon="17.01407">
        <ele>116.730937</ele>
        <time>2022-08-07T11:13:54.302Z</time>
      </trkpt>
      <trkpt lat="47.77326" lon="17.0157">
        <ele>116.796935</ele>
        <time>2022-08-07T11:14:24.317Z</time>
      </trkpt>
      <trkpt lat="47.77338" lon="17.01686">
        <ele>116.901434</ele>
        <time>2022-08-07T11:14:45.487Z</time>
      </trkpt>
      <trkpt lat="47.77337" lon="17.01759">
        <ele>117.009757</ele>
        <time>2022-08-07T11:14:59.320Z</time>
      </trkpt>
      <trkpt lat="47.77319" lon="17.01973">
        <ele>117.25691</ele>
        <time>2022-08-07T11:15:40.205Z</time>
      </trkpt>
      <trkpt lat="47.77314" lon="17.02059">
        <ele>117.299152</ele>
        <time>2022-08-07T11:15:56.007Z</time>
      </trkpt>
      <trkpt lat="47.77319" lon="17.02122">
        <ele>117.330249</ele>
        <time>2022-08-07T11:16:07.180Z</time>
      </trkpt>
      <trkpt lat="47.77343" lon="17.02291">
        <ele>117.469269</ele>
        <time>2022-08-07T11:16:37.318Z</time>
      </trkpt>
      <trkpt lat="47.77344" lon="17.02298">
        <ele>117.476454</ele>
        <time>2022-08-07T11:16:38.725Z</time>
      </trkpt>
      <trkpt lat="47.7738" lon="17.02558">
        <ele>117.847905</ele>
        <time>2022-08-07T11:17:29.982Z</time>
      </trkpt>
      <trkpt lat="47.774" lon="17.02686">
        <ele>118.096638</ele>
        <time>2022-08-07T11:17:54.519Z</time>
      </trkpt>
      <trkpt lat="47.77428" lon="17.02886">
        <ele>117.813018</ele>
        <time>2022-08-07T11:18:29.888Z</time>
      </trkpt>
      <trkpt lat="47.77433" lon="17.02946">
        <ele>117.727338</ele>
        <time>2022-08-07T11:18:39.832Z</time>
      </trkpt>
      <trkpt lat="47.7743" lon="17.02949">
        <ele>117.72013</ele>
        <time>2022-08-07T11:18:40.661Z</time>
      </trkpt>
      <trkpt lat="47.77431" lon="17.02951">
        <ele>117.720313</ele>
        <time>2022-08-07T11:18:41.102Z</time>
      </trkpt>
      <trkpt lat="47.77432" lon="17.02968">
        <ele>117.722089</ele>
        <time>2022-08-07T11:18:43.954Z</time>
      </trkpt>
      <trkpt lat="47.77434" lon="17.02985">
        <ele>117.723959</ele>
        <time>2022-08-07T11:18:46.984Z</time>
      </trkpt>
      <trkpt lat="47.77463" lon="17.03053">
        <ele>117.732402</ele>
        <time>2022-08-07T11:19:01.072Z</time>
      </trkpt>
      <trkpt lat="47.77494" lon="17.03109">
        <ele>117.740032</ele>
        <time>2022-08-07T11:19:14.207Z</time>
      </trkpt>
      <trkpt lat="47.775" lon="17.0312">
        <ele>117.741539</ele>
        <time>2022-08-07T11:19:16.832Z</time>
      </trkpt>
      <trkpt lat="47.77551" lon="17.03214">
        <ele>117.888811</ele>
        <time>2022-08-07T11:19:39.864Z</time>
      </trkpt>
      <trkpt lat="47.77556" lon="17.03223">
        <ele>117.917307</ele>
        <time>2022-08-07T11:19:42.019Z</time>
      </trkpt>
      <trkpt lat="47.77581" lon="17.03251">
        <ele>118.031291</ele>
        <time>2022-08-07T11:19:50.687Z</time>
      </trkpt>
      <trkpt lat="47.77619" lon="17.03272">
        <ele>118.179097</ele>
        <time>2022-08-07T11:20:02.345Z</time>
      </trkpt>
      <trkpt lat="47.77678" lon="17.03327">
        <ele>118.426761</ele>
        <time>2022-08-07T11:20:22.810Z</time>
      </trkpt>
      <trkpt lat="47.77683" lon="17.03332">
        <ele>118.445449</ele>
        <time>2022-08-07T11:20:24.718Z</time>
      </trkpt>
      <trkpt lat="47.77661" lon="17.03369">
        <ele>118.536843</ele>
        <time>2022-08-07T11:20:34.519Z</time>
      </trkpt>
      <trkpt lat="47.77625" lon="17.03402">
        <ele>118.651371</ele>
        <time>2022-08-07T11:20:46.717Z</time>
      </trkpt>
      <trkpt lat="47.77596" lon="17.0344">
        <ele>118.757374</ele>
        <time>2022-08-07T11:20:57.993Z</time>
      </trkpt>
      <trkpt lat="47.77586" lon="17.03471">
        <ele>118.819651</ele>
        <time>2022-08-07T11:21:04.627Z</time>
      </trkpt>
      <trkpt lat="47.77591" lon="17.03514">
        <ele>118.893737</ele>
        <time>2022-08-07T11:21:13.006Z</time>
      </trkpt>
      <trkpt lat="47.7761" lon="17.03596">
        <ele>118.748458</ele>
        <time>2022-08-07T11:21:29.297Z</time>
      </trkpt>
      <trkpt lat="47.77627" lon="17.03686">
        <ele>118.592923</ele>
        <time>2022-08-07T11:21:46.142Z</time>
      </trkpt>
      <trkpt lat="47.77711" lon="17.04145">
        <ele>116.58921</ele>
        <time>2022-08-07T11:23:07.415Z</time>
      </trkpt>
      <trkpt lat="47.77722" lon="17.04208">
        <ele>116.163036</ele>
        <time>2022-08-07T11:23:17.691Z</time>
      </trkpt>
      <trkpt lat="47.77727" lon="17.04239">
        <ele>115.957764</ele>
        <time>2022-08-07T11:23:22.540Z</time>
      </trkpt>
      <trkpt lat="47.77735" lon="17.04286">
        <ele>115.640174</ele>
        <time>2022-08-07T11:23:30.143Z</time>
      </trkpt>
      <trkpt lat="47.77772" lon="17.04487">
        <ele>114.739603</ele>
        <time>2022-08-07T11:24:03.112Z</time>
      </trkpt>
      <trkpt lat="47.77794" lon="17.04608">
        <ele>114.650185</ele>
        <time>2022-08-07T11:24:26.192Z</time>
      </trkpt>
      <trkpt lat="47.77838" lon="17.04847">
        <ele>115.270249</ele>
        <time>2022-08-07T11:25:15.037Z</time>
      </trkpt>
      <trkpt lat="47.77842" lon="17.04895">
        <ele>115.390094</ele>
        <time>2022-08-07T11:25:24.228Z</time>
      </trkpt>
      <trkpt lat="47.77841" lon="17.04915">
        <ele>115.441139</ele>
        <time>2022-08-07T11:25:28.155Z</time>
      </trkpt>
      <trkpt lat="47.77837" lon="17.04998">
        <ele>115.651887</ele>
        <time>2022-08-07T11:25:44.188Z</time>
      </trkpt>
      <trkpt lat="47.77832" lon="17.05076">
        <ele>115.826002</ele>
        <time>2022-08-07T11:25:58.949Z</time>
      </trkpt>
      <trkpt lat="47.77819" lon="17.05207">
        <ele>115.830628</ele>
        <time>2022-08-07T11:26:23.044Z</time>
      </trkpt>
      <trkpt lat="47.77762" lon="17.05502">
        <ele>115.680069</ele>
        <time>2022-08-07T11:27:16.238Z</time>
      </trkpt>
      <trkpt lat="47.77759" lon="17.05524">
        <ele>115.660776</ele>
        <time>2022-08-07T11:27:20.182Z</time>
      </trkpt>
      <trkpt lat="47.77908" lon="17.05479">
        <ele>115.53078</ele>
        <time>2022-08-07T11:28:01.014Z</time>
      </trkpt>
      <trkpt lat="47.77905" lon="17.05462">
        <ele>115.522718</ele>
        <time>2022-08-07T11:28:06.402Z</time>
      </trkpt>
      <trkpt lat="47.77908" lon="17.05479">
        <ele>115.514657</ele>
        <time>2022-08-07T11:28:11.607Z</time>
      </trkpt>
      <trkpt lat="47.78429" lon="17.05316">
        <ele>114.634287</ele>
        <time>2022-08-07T11:30:28.388Z</time>
      </trkpt>
      <trkpt lat="47.78733" lon="17.05224">
        <ele>115.5541</ele>
        <time>2022-08-07T11:31:56.422Z</time>
      </trkpt>
      <trkpt lat="47.78747" lon="17.05215">
        <ele>115.62102</ele>
        <time>2022-08-07T11:32:00.978Z</time>
      </trkpt>
      <trkpt lat="47.78791" lon="17.05164">
        <ele>115.855568</ele>
        <time>2022-08-07T11:32:17.081Z</time>
      </trkpt>
      <trkpt lat="47.78905" lon="17.0503">
        <ele>116.28931</ele>
        <time>2022-08-07T11:32:58.467Z</time>
      </trkpt>
      <trkpt lat="47.79057" lon="17.04851">
        <ele>116.587552</ele>
        <time>2022-08-07T11:33:51.108Z</time>
      </trkpt>
      <trkpt lat="47.79663" lon="17.0528">
        <ele>117.13481</ele>
        <time>2022-08-07T11:36:52.818Z</time>
      </trkpt>
      <trkpt lat="47.79755" lon="17.05349">
        <ele>117.255387</ele>
        <time>2022-08-07T11:37:21.170Z</time>
      </trkpt>
      <trkpt lat="47.79767" lon="17.05364">
        <ele>117.259287</ele>
        <time>2022-08-07T11:37:25.448Z</time>
      </trkpt>
      <trkpt lat="47.79954" lon="17.05697">
        <ele>117.337337</ele>
        <time>2022-08-07T11:38:43.167Z</time>
      </trkpt>
      <trkpt lat="47.79957" lon="17.05694">
        <ele>117.338384</ele>
        <time>2022-08-07T11:38:44.847Z</time>
      </trkpt>
      <trkpt lat="47.79954" lon="17.05697">
        <ele>117.33943</ele>
        <time>2022-08-07T11:38:46.373Z</time>
      </trkpt>
      <trkpt lat="47.80198" lon="17.06133">
        <ele>117.657472</ele>
        <time>2022-08-07T11:40:29.881Z</time>
      </trkpt>
      <trkpt lat="47.80429" lon="17.0586">
        <ele>117.684981</ele>
        <time>2022-08-07T11:41:48.117Z</time>
      </trkpt>
      <trkpt lat="47.8049" lon="17.05788">
        <ele>117.730124</ele>
        <time>2022-08-07T11:42:09.492Z</time>
      </trkpt>
      <trkpt lat="47.80673" lon="17.05572">
        <ele>118.169654</ele>
        <time>2022-08-07T11:43:14.501Z</time>
      </trkpt>
      <trkpt lat="47.80684" lon="17.05559">
        <ele>118.187008</ele>
        <time>2022-08-07T11:43:18.422Z</time>
      </trkpt>
      <trkpt lat="47.80943" lon="17.05254">
        <ele>118.470814</ele>
        <time>2022-08-07T11:44:46.990Z</time>
      </trkpt>
      <trkpt lat="47.81232" lon="17.04915">
        <ele>119.172472</ele>
        <time>2022-08-07T11:46:29.513Z</time>
      </trkpt>
      <trkpt lat="47.81508" lon="17.04591">
        <ele>118.969008</ele>
        <time>2022-08-07T11:48:01.574Z</time>
      </trkpt>
      <trkpt lat="47.81519" lon="17.04579">
        <ele>118.97688</ele>
        <time>2022-08-07T11:48:05.017Z</time>
      </trkpt>
      <trkpt lat="47.81724" lon="17.04338">
        <ele>119.297446</ele>
        <time>2022-08-07T11:49:16.131Z</time>
      </trkpt>
      <trkpt lat="47.81797" lon="17.04271">
        <ele>119.511821</ele>
        <time>2022-08-07T11:49:40.711Z</time>
      </trkpt>
      <trkpt lat="47.81991" lon="17.04126">
        <ele>120.23401</ele>
        <time>2022-08-07T11:50:42.589Z</time>
      </trkpt>
      <trkpt lat="47.82024" lon="17.04102">
        <ele>120.334154</ele>
        <time>2022-08-07T11:50:52.820Z</time>
      </trkpt>
      <trkpt lat="47.82362" lon="17.03852">
        <ele>121.182521</ele>
        <time>2022-08-07T11:52:36.611Z</time>
      </trkpt>
      <trkpt lat="47.82395" lon="17.03826">
        <ele>121.277696</ele>
        <time>2022-08-07T11:52:47.270Z</time>
      </trkpt>
      <trkpt lat="47.82638" lon="17.03645">
        <ele>122.182882</ele>
        <time>2022-08-07T11:54:06.032Z</time>
      </trkpt>
      <trkpt lat="47.82726" lon="17.03587">
        <ele>122.219523</ele>
        <time>2022-08-07T11:54:31.042Z</time>
      </trkpt>
      <trkpt lat="47.83051" lon="17.03392">
        <ele>120.436222</ele>
        <time>2022-08-07T11:55:55.698Z</time>
      </trkpt>
      <trkpt lat="47.83496" lon="17.0312">
        <ele>122.030906</ele>
        <time>2022-08-07T11:58:13.942Z</time>
      </trkpt>
      <trkpt lat="47.83591" lon="17.03336">
        <ele>122.398652</ele>
        <time>2022-08-07T11:59:00.938Z</time>
      </trkpt>
      <trkpt lat="47.839" lon="17.03702">
        <ele>123.26875</ele>
        <time>2022-08-07T12:00:51.701Z</time>
      </trkpt>
      <trkpt lat="47.84948" lon="17.01606">
        <ele>122.612473</ele>
        <time>2022-08-07T12:08:35.703Z</time>
      </trkpt>
      <trkpt lat="47.85142" lon="17.00685">
        <ele>123.145466</ele>
        <time>2022-08-07T12:11:31.773Z</time>
      </trkpt>
      <trkpt lat="47.85273" lon="17.00472">
        <ele>123.092684</ele>
        <time>2022-08-07T12:12:22.420Z</time>
      </trkpt>
      <trkpt lat="47.85386" lon="17.00287">
        <ele>123.336181</ele>
        <time>2022-08-07T12:13:08.672Z</time>
      </trkpt>
      <trkpt lat="47.85513" lon="17.00083">
        <ele>123.776437</ele>
        <time>2022-08-07T12:14:01.529Z</time>
      </trkpt>
      <trkpt lat="47.85522" lon="17.00069">
        <ele>123.768405</ele>
        <time>2022-08-07T12:14:05.098Z</time>
      </trkpt>
      <trkpt lat="47.85549" lon="17.00023">
        <ele>123.743507</ele>
        <time>2022-08-07T12:14:15.881Z</time>
      </trkpt>
      <trkpt lat="47.8562" lon="16.99905">
        <ele>123.679816</ele>
        <time>2022-08-07T12:14:43.092Z</time>
      </trkpt>
      <trkpt lat="47.85623" lon="16.99897">
        <ele>123.683356</ele>
        <time>2022-08-07T12:14:44.703Z</time>
      </trkpt>
      <trkpt lat="47.85896" lon="16.99243">
        <ele>124.036071</ele>
        <time>2022-08-07T12:17:04.314Z</time>
      </trkpt>
      <trkpt lat="47.86472" lon="16.97889">
        <ele>126.109331</ele>
        <time>2022-08-07T12:22:01.937Z</time>
      </trkpt>
      <trkpt lat="47.86492" lon="16.97838">
        <ele>126.108792</ele>
        <time>2022-08-07T12:22:12.920Z</time>
      </trkpt>
      <trkpt lat="47.86517" lon="16.97847">
        <ele>126.073002</ele>
        <time>2022-08-07T12:22:19.461Z</time>
      </trkpt>
      <trkpt lat="47.86533" lon="16.97846">
        <ele>126.050196</ele>
        <time>2022-08-07T12:22:23.728Z</time>
      </trkpt>
      <trkpt lat="47.86544" lon="16.97837">
        <ele>126.032983</ele>
        <time>2022-08-07T12:22:26.804Z</time>
      </trkpt>
      <trkpt lat="47.86577" lon="16.9776">
        <ele>125.945903</ele>
        <time>2022-08-07T12:22:42.625Z</time>
      </trkpt>
      <trkpt lat="47.86649" lon="16.97579">
        <ele>126.066676</ele>
        <time>2022-08-07T12:23:19.952Z</time>
      </trkpt>
      <trkpt lat="47.86664" lon="16.97547">
        <ele>126.115497</ele>
        <time>2022-08-07T12:23:27.211Z</time>
      </trkpt>
      <trkpt lat="47.8672" lon="16.97428">
        <ele>126.501037</ele>
        <time>2022-08-07T12:23:55.748Z</time>
      </trkpt>
      <trkpt lat="47.86723" lon="16.97429">
        <ele>126.523921</ele>
        <time>2022-08-07T12:23:56.752Z</time>
      </trkpt>
      <trkpt lat="47.86728" lon="16.9743">
        <ele>126.556911</ele>
        <time>2022-08-07T12:23:58.221Z</time>
      </trkpt>
      <trkpt lat="47.86775" lon="16.97267">
        <ele>127.371122</ele>
        <time>2022-08-07T12:24:34.264Z</time>
      </trkpt>
      <trkpt lat="47.86789" lon="16.97223">
        <ele>127.518235</ele>
        <time>2022-08-07T12:24:44.011Z</time>
      </trkpt>
      <trkpt lat="47.86801" lon="16.97231">
        <ele>127.564053</ele>
        <time>2022-08-07T12:24:48.365Z</time>
      </trkpt>
      <trkpt lat="47.86828" lon="16.97245">
        <ele>127.657755</ele>
        <time>2022-08-07T12:24:57.019Z</time>
      </trkpt>
      <trkpt lat="47.86942" lon="16.97304">
        <ele>128.036644</ele>
        <time>2022-08-07T12:25:31.606Z</time>
      </trkpt>
      <trkpt lat="47.86985" lon="16.97324">
        <ele>127.947348</ele>
        <time>2022-08-07T12:25:43.829Z</time>
      </trkpt>
      <trkpt lat="47.87104" lon="16.9738">
        <ele>127.697281</ele>
        <time>2022-08-07T12:26:17.076Z</time>
      </trkpt>
      <trkpt lat="47.87108" lon="16.97383">
        <ele>127.688082</ele>
        <time>2022-08-07T12:26:18.293Z</time>
      </trkpt>
      <trkpt lat="47.8714" lon="16.9741">
        <ele>127.581104</ele>
        <time>2022-08-07T12:26:27.995Z</time>
      </trkpt>
      <trkpt lat="47.87131" lon="16.97432">
        <ele>127.530437</ele>
        <time>2022-08-07T12:26:32.253Z</time>
      </trkpt>
      <trkpt lat="47.87069" lon="16.97623">
        <ele>127.126333</ele>
        <time>2022-08-07T12:27:08.582Z</time>
      </trkpt>
      <trkpt lat="47.87048" lon="16.97686">
        <ele>127.036016</ele>
        <time>2022-08-07T12:27:20.876Z</time>
      </trkpt>
      <trkpt lat="47.87047" lon="16.97692">
        <ele>127.027728</ele>
        <time>2022-08-07T12:27:21.997Z</time>
      </trkpt>
      <trkpt lat="47.86949" lon="16.9802">
        <ele>126.377453</ele>
        <time>2022-08-07T12:28:24.110Z</time>
      </trkpt>
      <trkpt lat="47.86946" lon="16.98035">
        <ele>126.342123</ele>
        <time>2022-08-07T12:28:26.646Z</time>
      </trkpt>
      <trkpt lat="47.86944" lon="16.98044">
        <ele>126.319746</ele>
        <time>2022-08-07T12:28:28.251Z</time>
      </trkpt>
      <trkpt lat="47.86932" lon="16.98119">
        <ele>126.082662</ele>
        <time>2022-08-07T12:28:40.705Z</time>
      </trkpt>
      <trkpt lat="47.86931" lon="16.98125">
        <ele>126.049315</ele>
        <time>2022-08-07T12:28:41.805Z</time>
      </trkpt>
      <trkpt lat="47.86924" lon="16.98178">
        <ele>125.783169</ele>
        <time>2022-08-07T12:28:50.448Z</time>
      </trkpt>
      <trkpt lat="47.86885" lon="16.98445">
        <ele>124.69506</ele>
        <time>2022-08-07T12:29:34.152Z</time>
      </trkpt>
      <trkpt lat="47.86883" lon="16.9846">
        <ele>124.664955</ele>
        <time>2022-08-07T12:29:36.625Z</time>
      </trkpt>
      <trkpt lat="47.86808" lon="16.98938">
        <ele>124.360824</ele>
        <time>2022-08-07T12:31:03.428Z</time>
      </trkpt>
      <trkpt lat="47.86699" lon="16.9969">
        <ele>125.76089</ele>
        <time>2022-08-07T12:33:29.446Z</time>
      </trkpt>
      <trkpt lat="47.86688" lon="16.99805">
        <ele>125.683317</ele>
        <time>2022-08-07T12:33:49.900Z</time>
      </trkpt>
      <trkpt lat="47.86688" lon="16.99941">
        <ele>125.584459</ele>
        <time>2022-08-07T12:34:13.185Z</time>
      </trkpt>
      <trkpt lat="47.86688" lon="16.99956">
        <ele>125.558976</ele>
        <time>2022-08-07T12:34:15.860Z</time>
      </trkpt>
      <trkpt lat="47.86687" lon="17.00154">
        <ele>125.230554</ele>
        <time>2022-08-07T12:34:49.367Z</time>
      </trkpt>
      <trkpt lat="47.86677" lon="17.0027">
        <ele>125.2827</ele>
        <time>2022-08-07T12:35:10.098Z</time>
      </trkpt>
      <trkpt lat="47.86533" lon="17.01041">
        <ele>126.911226</ele>
        <time>2022-08-07T12:37:42.072Z</time>
      </trkpt>
      <trkpt lat="47.86458" lon="17.01433">
        <ele>127.711432</ele>
        <time>2022-08-07T12:38:59.981Z</time>
      </trkpt>
      <trkpt lat="47.86449" lon="17.01477">
        <ele>127.781331</ele>
        <time>2022-08-07T12:39:08.162Z</time>
      </trkpt>
      <trkpt lat="47.86441" lon="17.01561">
        <ele>127.623535</ele>
        <time>2022-08-07T12:39:23.018Z</time>
      </trkpt>
      <trkpt lat="47.86419" lon="17.01866">
        <ele>126.933795</ele>
        <time>2022-08-07T12:40:13.265Z</time>
      </trkpt>
      <trkpt lat="47.86418" lon="17.01872">
        <ele>126.924511</ele>
        <time>2022-08-07T12:40:14.346Z</time>
      </trkpt>
      <trkpt lat="47.86395" lon="17.0222">
        <ele>126.683845</ele>
        <time>2022-08-07T12:41:17.024Z</time>
      </trkpt>
      <trkpt lat="47.86394" lon="17.02238">
        <ele>126.682341</ele>
        <time>2022-08-07T12:41:20.198Z</time>
      </trkpt>
      <trkpt lat="47.86351" lon="17.02837">
        <ele>126.590627</ele>
        <time>2022-08-07T12:43:07.333Z</time>
      </trkpt>
      <trkpt lat="47.86334" lon="17.03068">
        <ele>126.963749</ele>
        <time>2022-08-07T12:43:51.404Z</time>
      </trkpt>
      <trkpt lat="47.86327" lon="17.03099">
        <ele>126.994107</ele>
        <time>2022-08-07T12:43:57.585Z</time>
      </trkpt>
      <trkpt lat="47.86293" lon="17.03181">
        <ele>126.870765</ele>
        <time>2022-08-07T12:44:15.017Z</time>
      </trkpt>
      <trkpt lat="47.86283" lon="17.03268">
        <ele>126.757282</ele>
        <time>2022-08-07T12:44:30.179Z</time>
      </trkpt>
      <trkpt lat="47.86278" lon="17.03347">
        <ele>126.642035</ele>
        <time>2022-08-07T12:44:43.283Z</time>
      </trkpt>
      <trkpt lat="47.86273" lon="17.0347">
        <ele>125.94279</ele>
        <time>2022-08-07T12:45:02.803Z</time>
      </trkpt>
      <trkpt lat="47.86288" lon="17.03595">
        <ele>125.220085</ele>
        <time>2022-08-07T12:45:22.494Z</time>
      </trkpt>
      <trkpt lat="47.86295" lon="17.03627">
        <ele>125.026636</ele>
        <time>2022-08-07T12:45:27.714Z</time>
      </trkpt>
      <trkpt lat="47.86326" lon="17.03765">
        <ele>124.175163</ele>
        <time>2022-08-07T12:45:50.615Z</time>
      </trkpt>
      <trkpt lat="47.86346" lon="17.03814">
        <ele>123.835857</ele>
        <time>2022-08-07T12:45:59.771Z</time>
      </trkpt>
      <trkpt lat="47.86369" lon="17.03857">
        <ele>123.538988</ele>
        <time>2022-08-07T12:46:08.485Z</time>
      </trkpt>
      <trkpt lat="47.86409" lon="17.0391">
        <ele>123.286876</ele>
        <time>2022-08-07T12:46:21.411Z</time>
      </trkpt>
      <trkpt lat="47.86487" lon="17.03988">
        <ele>122.84628</ele>
        <time>2022-08-07T12:46:44.581Z</time>
      </trkpt>
      <trkpt lat="47.86517" lon="17.04029">
        <ele>122.726045</ele>
        <time>2022-08-07T12:46:55.155Z</time>
      </trkpt>
      <trkpt lat="47.86553" lon="17.04106">
        <ele>122.763589</ele>
        <time>2022-08-07T12:47:12.122Z</time>
      </trkpt>
      <trkpt lat="47.86579" lon="17.04197">
        <ele>122.803039</ele>
        <time>2022-08-07T12:47:30.190Z</time>
      </trkpt>
      <trkpt lat="47.86615" lon="17.04116">
        <ele>122.914841</ele>
        <time>2022-08-07T12:47:59.601Z</time>
      </trkpt>
      <trkpt lat="47.86616" lon="17.04086">
        <ele>122.979647</ele>
        <time>2022-08-07T12:48:08.844Z</time>
      </trkpt>
      <trkpt lat="47.86621" lon="17.04055">
        <ele>123.048582</ele>
        <time>2022-08-07T12:48:18.646Z</time>
      </trkpt>
      <trkpt lat="47.86645" lon="17.04008">
        <ele>123.175995</ele>
        <time>2022-08-07T12:48:36.920Z</time>
      </trkpt>
      <trkpt lat="47.8677" lon="17.03754">
        <ele>123.937849</ele>
        <time>2022-08-07T12:50:15.125Z</time>
      </trkpt>
      <trkpt lat="47.86797" lon="17.0373">
        <ele>124.059428</ele>
        <time>2022-08-07T12:50:29.881Z</time>
      </trkpt>
      <trkpt lat="47.86804" lon="17.03709">
        <ele>124.093624</ele>
        <time>2022-08-07T12:50:37.024Z</time>
      </trkpt>
      <trkpt lat="47.86852" lon="17.03774">
        <ele>124.147315</ele>
        <time>2022-08-07T12:50:55.348Z</time>
      </trkpt>
      <trkpt lat="47.87512" lon="17.04597">
        <ele>124.643747</ele>
        <time>2022-08-07T12:54:47.277Z</time>
      </trkpt>
      <trkpt lat="47.8761" lon="17.0499">
        <ele>123.776969</ele>
        <time>2022-08-07T12:55:57.819Z</time>
      </trkpt>
      <trkpt lat="47.87811" lon="17.05825">
        <ele>122.712011</ele>
        <time>2022-08-07T12:58:31.610Z</time>
      </trkpt>
      <trkpt lat="47.8802" lon="17.06671">
        <ele>123.938776</ele>
        <time>2022-08-07T13:01:19.192Z</time>
      </trkpt>
      <trkpt lat="47.88045" lon="17.06774">
        <ele>124.133617</ele>
        <time>2022-08-07T13:01:40.301Z</time>
      </trkpt>
      <trkpt lat="47.88434" lon="17.06442">
        <ele>124.990948</ele>
        <time>2022-08-07T13:03:42.885Z</time>
      </trkpt>
      <trkpt lat="47.88811" lon="17.06116">
        <ele>126.730517</ele>
        <time>2022-08-07T13:05:49.593Z</time>
      </trkpt>
      <trkpt lat="47.88915" lon="17.06524">
        <ele>126.419245</ele>
        <time>2022-08-07T13:07:04.875Z</time>
      </trkpt>
      <trkpt lat="47.88925" lon="17.06527">
        <ele>126.39945</ele>
        <time>2022-08-07T13:07:07.712Z</time>
      </trkpt>
      <trkpt lat="47.88983" lon="17.06449">
        <ele>126.259572</ele>
        <time>2022-08-07T13:07:27.796Z</time>
      </trkpt>
      <trkpt lat="47.89168" lon="17.06699">
        <ele>126.301895</ele>
        <time>2022-08-07T13:08:33.724Z</time>
      </trkpt>
      <trkpt lat="47.89218" lon="17.06763">
        <ele>126.524646</ele>
        <time>2022-08-07T13:08:52.661Z</time>
      </trkpt>
      <trkpt lat="47.89255" lon="17.06786">
        <ele>126.661858</ele>
        <time>2022-08-07T13:09:04.446Z</time>
      </trkpt>
      <trkpt lat="47.89263" lon="17.06778">
        <ele>126.69439</ele>
        <time>2022-08-07T13:09:07.514Z</time>
      </trkpt>
      <trkpt lat="47.89277" lon="17.06783">
        <ele>126.744033</ele>
        <time>2022-08-07T13:09:11.832Z</time>
      </trkpt>
      <trkpt lat="47.89323" lon="17.06828">
        <ele>127.095868</ele>
        <time>2022-08-07T13:09:28.403Z</time>
      </trkpt>
      <trkpt lat="47.89385" lon="17.06902">
        <ele>127.619368</ele>
        <time>2022-08-07T13:09:54.051Z</time>
      </trkpt>
      <trkpt lat="47.89432" lon="17.06947">
        <ele>127.956194</ele>
        <time>2022-08-07T13:10:10.757Z</time>
      </trkpt>
      <trkpt lat="47.89478" lon="17.06851">
        <ele>128.129669</ele>
        <time>2022-08-07T13:10:33.825Z</time>
      </trkpt>
      <trkpt lat="47.895" lon="17.06875">
        <ele>128.190751</ele>
        <time>2022-08-07T13:10:41.589Z</time>
      </trkpt>
      <trkpt lat="47.89814" lon="17.07216">
        <ele>127.75408</ele>
        <time>2022-08-07T13:12:21.303Z</time>
      </trkpt>
      <trkpt lat="47.89836" lon="17.0724">
        <ele>127.720699</ele>
        <time>2022-08-07T13:12:28.534Z</time>
      </trkpt>
      <trkpt lat="47.90195" lon="17.07623">
        <ele>128.922206</ele>
        <time>2022-08-07T13:14:38.072Z</time>
      </trkpt>
      <trkpt lat="47.90235" lon="17.07661">
        <ele>129.022029</ele>
        <time>2022-08-07T13:14:51.518Z</time>
      </trkpt>
      <trkpt lat="47.90265" lon="17.0768">
        <ele>129.090663</ele>
        <time>2022-08-07T13:15:00.769Z</time>
      </trkpt>
      <trkpt lat="47.90341" lon="17.07703">
        <ele>129.267603</ele>
        <time>2022-08-07T13:15:22.647Z</time>
      </trkpt>
      <trkpt lat="47.90386" lon="17.07702">
        <ele>129.37673</ele>
        <time>2022-08-07T13:15:35.650Z</time>
      </trkpt>
      <trkpt lat="47.90594" lon="17.07643">
        <ele>129.756323</ele>
        <time>2022-08-07T13:16:38.188Z</time>
      </trkpt>
      <trkpt lat="47.90643" lon="17.0764">
        <ele>129.823388</ele>
        <time>2022-08-07T13:16:51.464Z</time>
      </trkpt>
      <trkpt lat="47.90707" lon="17.07655">
        <ele>129.381104</ele>
        <time>2022-08-07T13:17:08.082Z</time>
      </trkpt>
      <trkpt lat="47.90745" lon="17.07681">
        <ele>129.06139</ele>
        <time>2022-08-07T13:17:18.474Z</time>
      </trkpt>
      <trkpt lat="47.91092" lon="17.07968">
        <ele>125.307695</ele>
        <time>2022-08-07T13:18:53.904Z</time>
      </trkpt>
      <trkpt lat="47.91155" lon="17.08021">
        <ele>124.823724</ele>
        <time>2022-08-07T13:19:12.468Z</time>
      </trkpt>
      <trkpt lat="47.91186" lon="17.08047">
        <ele>124.698768</ele>
        <time>2022-08-07T13:19:21.904Z</time>
      </trkpt>
      <trkpt lat="47.91223" lon="17.08077">
        <ele>124.553717</ele>
        <time>2022-08-07T13:19:33.092Z</time>
      </trkpt>
      <trkpt lat="47.91276" lon="17.08121">
        <ele>124.342293</ele>
        <time>2022-08-07T13:19:49.405Z</time>
      </trkpt>
      <trkpt lat="47.91328" lon="17.08164">
        <ele>124.215028</ele>
        <time>2022-08-07T13:20:04.887Z</time>
      </trkpt>
      <trkpt lat="47.91689" lon="17.08464">
        <ele>123.71194</ele>
        <time>2022-08-07T13:21:56.915Z</time>
      </trkpt>
      <trkpt lat="47.91686" lon="17.08472">
        <ele>123.715772</ele>
        <time>2022-08-07T13:21:59.796Z</time>
      </trkpt>
      <trkpt lat="47.91677" lon="17.08472">
        <ele>123.721244</ele>
        <time>2022-08-07T13:22:03.921Z</time>
      </trkpt>
      <trkpt lat="47.91686" lon="17.08472">
        <ele>123.726716</ele>
        <time>2022-08-07T13:22:07.956Z</time>
      </trkpt>
      <trkpt lat="47.91689" lon="17.08464">
        <ele>123.730548</ele>
        <time>2022-08-07T13:22:10.748Z</time>
      </trkpt>
      <trkpt lat="47.91731" lon="17.08477">
        <ele>123.756707</ele>
        <time>2022-08-07T13:22:23.449Z</time>
      </trkpt>
      <trkpt lat="47.91753" lon="17.0847">
        <ele>123.826001</ele>
        <time>2022-08-07T13:22:30.416Z</time>
      </trkpt>
      <trkpt lat="47.91782" lon="17.08449">
        <ele>123.941273</ele>
        <time>2022-08-07T13:22:40.042Z</time>
      </trkpt>
      <trkpt lat="47.91809" lon="17.08405">
        <ele>124.08632</ele>
        <time>2022-08-07T13:22:52.053Z</time>
      </trkpt>
      <trkpt lat="47.91844" lon="17.08326">
        <ele>124.316505</ele>
        <time>2022-08-07T13:23:11.062Z</time>
      </trkpt>
      <trkpt lat="47.92023" lon="17.07919">
        <ele>124.319337</ele>
        <time>2022-08-07T13:24:40.414Z</time>
      </trkpt>
      <trkpt lat="47.92052" lon="17.07876">
        <ele>124.32243</ele>
        <time>2022-08-07T13:24:51.901Z</time>
      </trkpt>
      <trkpt lat="47.92095" lon="17.07852">
        <ele>124.478074</ele>
        <time>2022-08-07T13:25:05.013Z</time>
      </trkpt>
      <trkpt lat="47.92238" lon="17.07792">
        <ele>125.330104</ele>
        <time>2022-08-07T13:25:51.037Z</time>
      </trkpt>
      <trkpt lat="47.92282" lon="17.07773">
        <ele>125.584166</ele>
        <time>2022-08-07T13:26:05.863Z</time>
      </trkpt>
      <trkpt lat="47.92455" lon="17.07702">
        <ele>126.32833</ele>
        <time>2022-08-07T13:26:57.866Z</time>
      </trkpt>
      <trkpt lat="47.9246" lon="17.077">
        <ele>126.325381</ele>
        <time>2022-08-07T13:26:59.196Z</time>
      </trkpt>
      <trkpt lat="47.92989" lon="17.07481">
        <ele>126.022032</ele>
        <time>2022-08-07T13:29:22.223Z</time>
      </trkpt>
      <trkpt lat="47.93043" lon="17.07459">
        <ele>126.152251</ele>
        <time>2022-08-07T13:29:37.868Z</time>
      </trkpt>
      <trkpt lat="47.93052" lon="17.07456">
        <ele>126.173792</ele>
        <time>2022-08-07T13:29:40.435Z</time>
      </trkpt>
      <trkpt lat="47.93218" lon="17.07407">
        <ele>126.888095</ele>
        <time>2022-08-07T13:30:29.796Z</time>
      </trkpt>
      <trkpt lat="47.93313" lon="17.07381">
        <ele>127.383547</ele>
        <time>2022-08-07T13:30:58.260Z</time>
      </trkpt>
      <trkpt lat="47.9329" lon="17.07435">
        <ele>127.58616</ele>
        <time>2022-08-07T13:31:11.279Z</time>
      </trkpt>
      <trkpt lat="47.93722" lon="17.07705">
        <ele>129.768295</ele>
        <time>2022-08-07T13:33:31.747Z</time>
      </trkpt>
      <trkpt lat="47.93755" lon="17.07726">
        <ele>129.795976</ele>
        <time>2022-08-07T13:33:42.464Z</time>
      </trkpt>
      <trkpt lat="47.93768" lon="17.07734">
        <ele>129.804481</ele>
        <time>2022-08-07T13:33:46.515Z</time>
      </trkpt>
      <trkpt lat="47.93753" lon="17.07808">
        <ele>129.836485</ele>
        <time>2022-08-07T13:34:00.999Z</time>
      </trkpt>
      <trkpt lat="47.93741" lon="17.07868">
        <ele>129.86252</ele>
        <time>2022-08-07T13:34:12.169Z</time>
      </trkpt>
      <trkpt lat="47.93732" lon="17.07908">
        <ele>129.879981</ele>
        <time>2022-08-07T13:34:19.257Z</time>
      </trkpt>
      <trkpt lat="47.93725" lon="17.07945">
        <ele>129.810048</ele>
        <time>2022-08-07T13:34:25.472Z</time>
      </trkpt>
      <trkpt lat="47.93721" lon="17.07957">
        <ele>129.768835</ele>
        <time>2022-08-07T13:34:27.624Z</time>
      </trkpt>
      <trkpt lat="47.93714" lon="17.07983">
        <ele>129.682306</ele>
        <time>2022-08-07T13:34:32.242Z</time>
      </trkpt>
      <trkpt lat="47.93713" lon="17.0799">
        <ele>129.657893</ele>
        <time>2022-08-07T13:34:33.537Z</time>
      </trkpt>
      <trkpt lat="47.93711" lon="17.07997">
        <ele>129.636736</ele>
        <time>2022-08-07T13:34:34.692Z</time>
      </trkpt>
      <trkpt lat="47.93703" lon="17.08039">
        <ele>129.497532</ele>
        <time>2022-08-07T13:34:42.180Z</time>
      </trkpt>
      <trkpt lat="47.93707" lon="17.08044">
        <ele>129.474772</ele>
        <time>2022-08-07T13:34:43.500Z</time>
      </trkpt>
      <trkpt lat="47.93712" lon="17.08049">
        <ele>129.445296</ele>
        <time>2022-08-07T13:34:45.121Z</time>
      </trkpt>
      <trkpt lat="47.93768" lon="17.08115">
        <ele>129.111315</ele>
        <time>2022-08-07T13:35:03.618Z</time>
      </trkpt>
      <trkpt lat="47.93869" lon="17.08227">
        <ele>128.755412</ele>
        <time>2022-08-07T13:35:35.823Z</time>
      </trkpt>
      <trkpt lat="47.93882" lon="17.08241">
        <ele>128.71583</ele>
        <time>2022-08-07T13:35:39.942Z</time>
      </trkpt>
      <trkpt lat="47.93893" lon="17.08254">
        <ele>128.677081</ele>
        <time>2022-08-07T13:35:44.200Z</time>
      </trkpt>
      <trkpt lat="47.93905" lon="17.08268">
        <ele>128.638959</ele>
        <time>2022-08-07T13:35:48.413Z</time>
      </trkpt>
      <trkpt lat="47.93912" lon="17.08276">
        <ele>128.614728</ele>
        <time>2022-08-07T13:35:51.104Z</time>
      </trkpt>
      <trkpt lat="47.93932" lon="17.08299">
        <ele>128.608081</ele>
        <time>2022-08-07T13:35:58.434Z</time>
      </trkpt>
      <trkpt lat="47.93935" lon="17.08302">
        <ele>128.617388</ele>
        <time>2022-08-07T13:35:59.549Z</time>
      </trkpt>
      <trkpt lat="47.93967" lon="17.08338">
        <ele>128.713386</ele>
        <time>2022-08-07T13:36:10.893Z</time>
      </trkpt>
      <trkpt lat="47.93975" lon="17.08347">
        <ele>128.738953</ele>
        <time>2022-08-07T13:36:13.909Z</time>
      </trkpt>
      <trkpt lat="47.9399" lon="17.08364">
        <ele>128.784207</ele>
        <time>2022-08-07T13:36:19.191Z</time>
      </trkpt>
      <trkpt lat="47.94035" lon="17.08415">
        <ele>128.923004</ele>
        <time>2022-08-07T13:36:35.554Z</time>
      </trkpt>
      <trkpt lat="47.94056" lon="17.08439">
        <ele>128.987662</ele>
        <time>2022-08-07T13:36:43.391Z</time>
      </trkpt>
      <trkpt lat="47.94058" lon="17.08441">
        <ele>128.992953</ele>
        <time>2022-08-07T13:36:44.042Z</time>
      </trkpt>
      <trkpt lat="47.94109" lon="17.08501">
        <ele>129.03928</ele>
        <time>2022-08-07T13:37:03.703Z</time>
      </trkpt>
      <trkpt lat="47.94205" lon="17.08609">
        <ele>129.083731</ele>
        <time>2022-08-07T13:37:35.427Z</time>
      </trkpt>
      <trkpt lat="47.9423" lon="17.08656">
        <ele>128.889549</ele>
        <time>2022-08-07T13:37:45.363Z</time>
      </trkpt>
      <trkpt lat="47.94233" lon="17.0866">
        <ele>128.867073</ele>
        <time>2022-08-07T13:37:46.315Z</time>
      </trkpt>
      <trkpt lat="47.94239" lon="17.08672">
        <ele>128.809104</ele>
        <time>2022-08-07T13:37:48.829Z</time>
      </trkpt>
      <trkpt lat="47.94246" lon="17.08683">
        <ele>128.751601</ele>
        <time>2022-08-07T13:37:51.310Z</time>
      </trkpt>
      <trkpt lat="47.94256" lon="17.08697">
        <ele>128.677386</ele>
        <time>2022-08-07T13:37:54.485Z</time>
      </trkpt>
      <trkpt lat="47.94262" lon="17.08704">
        <ele>128.632637</ele>
        <time>2022-08-07T13:37:56.356Z</time>
      </trkpt>
      <trkpt lat="47.94404" lon="17.08895">
        <ele>127.881297</ele>
        <time>2022-08-07T13:38:42.526Z</time>
      </trkpt>
      <trkpt lat="47.94506" lon="17.09039">
        <ele>127.800921</ele>
        <time>2022-08-07T13:39:21.326Z</time>
      </trkpt>
      <trkpt lat="47.94526" lon="17.09072">
        <ele>127.863551</ele>
        <time>2022-08-07T13:39:30.006Z</time>
      </trkpt>
      <trkpt lat="47.94553" lon="17.09098">
        <ele>127.93014</ele>
        <time>2022-08-07T13:39:39.112Z</time>
      </trkpt>
      <trkpt lat="47.94559" lon="17.091">
        <ele>127.941688</ele>
        <time>2022-08-07T13:39:40.662Z</time>
      </trkpt>
      <trkpt lat="47.9459" lon="17.09118">
        <ele>128.01163</ele>
        <time>2022-08-07T13:39:50.028Z</time>
      </trkpt>
      <trkpt lat="47.94595" lon="17.0912">
        <ele>128.022739</ele>
        <time>2022-08-07T13:39:51.500Z</time>
      </trkpt>
      <trkpt lat="47.94665" lon="17.09183">
        <ele>128.024255</ele>
        <time>2022-08-07T13:40:13.275Z</time>
      </trkpt>
      <trkpt lat="47.94736" lon="17.09226">
        <ele>127.971612</ele>
        <time>2022-08-07T13:40:33.231Z</time>
      </trkpt>
      <trkpt lat="47.94805" lon="17.09277">
        <ele>127.902617</ele>
        <time>2022-08-07T13:40:53.316Z</time>
      </trkpt>
      <trkpt lat="47.94921" lon="17.09352">
        <ele>127.75724</ele>
        <time>2022-08-07T13:41:26.293Z</time>
      </trkpt>
      <trkpt lat="47.95154" lon="17.09485">
        <ele>127.912219</ele>
        <time>2022-08-07T13:42:33.202Z</time>
      </trkpt>
      <trkpt lat="47.95156" lon="17.09487">
        <ele>127.917919</ele>
        <time>2022-08-07T13:42:33.895Z</time>
      </trkpt>
      <trkpt lat="47.95181" lon="17.095">
        <ele>127.980103</ele>
        <time>2022-08-07T13:42:41.748Z</time>
      </trkpt>
      <trkpt lat="47.95188" lon="17.09503">
        <ele>127.998608</ele>
        <time>2022-08-07T13:42:43.936Z</time>
      </trkpt>
      <trkpt lat="47.95317" lon="17.09556">
        <ele>128.248059</ele>
        <time>2022-08-07T13:43:21.906Z</time>
      </trkpt>
      <trkpt lat="47.95561" lon="17.0965">
        <ele>128.373974</ele>
        <time>2022-08-07T13:44:28.587Z</time>
      </trkpt>
      <trkpt lat="47.95785" lon="17.09705">
        <ele>128.631595</ele>
        <time>2022-08-07T13:45:30.544Z</time>
      </trkpt>
      <trkpt lat="47.95841" lon="17.09702">
        <ele>128.793365</ele>
        <time>2022-08-07T13:45:46.181Z</time>
      </trkpt>
      <trkpt lat="47.96156" lon="17.0957">
        <ele>130.278988</ele>
        <time>2022-08-07T13:47:20.091Z</time>
      </trkpt>
      <trkpt lat="47.96209" lon="17.09541">
        <ele>130.727578</ele>
        <time>2022-08-07T13:47:38.373Z</time>
      </trkpt>
      <trkpt lat="47.96294" lon="17.09473">
        <ele>131.493493</ele>
        <time>2022-08-07T13:48:09.507Z</time>
      </trkpt>
      <trkpt lat="47.96319" lon="17.0946">
        <ele>131.657848</ele>
        <time>2022-08-07T13:48:17.155Z</time>
      </trkpt>
      <trkpt lat="47.96428" lon="17.09457">
        <ele>130.739584</ele>
        <time>2022-08-07T13:48:43.480Z</time>
      </trkpt>
      <trkpt lat="47.96468" lon="17.09441">
        <ele>130.397445</ele>
        <time>2022-08-07T13:48:52.402Z</time>
      </trkpt>
      <trkpt lat="47.9657" lon="17.09369">
        <ele>129.251411</ele>
        <time>2022-08-07T13:49:17.013Z</time>
      </trkpt>
      <trkpt lat="47.96598" lon="17.09351">
        <ele>128.921697</ele>
        <time>2022-08-07T13:49:23.850Z</time>
      </trkpt>
      <trkpt lat="47.96634" lon="17.0934">
        <ele>128.533976</ele>
        <time>2022-08-07T13:49:32.666Z</time>
      </trkpt>
      <trkpt lat="47.96705" lon="17.09339">
        <ele>128.363624</ele>
        <time>2022-08-07T13:49:51.222Z</time>
      </trkpt>
      <trkpt lat="47.96765" lon="17.09329">
        <ele>128.515911</ele>
        <time>2022-08-07T13:50:08.359Z</time>
      </trkpt>
      <trkpt lat="47.96816" lon="17.0931">
        <ele>128.646659</ele>
        <time>2022-08-07T13:50:23.221Z</time>
      </trkpt>
      <trkpt lat="47.96956" lon="17.09217">
        <ele>129.759362</ele>
        <time>2022-08-07T13:51:09.697Z</time>
      </trkpt>
      <trkpt lat="47.9705" lon="17.09106">
        <ele>130.920049</ele>
        <time>2022-08-07T13:51:47.809Z</time>
      </trkpt>
      <trkpt lat="47.97111" lon="17.09062">
        <ele>131.661926</ele>
        <time>2022-08-07T13:52:10.466Z</time>
      </trkpt>
      <trkpt lat="47.97177" lon="17.08967">
        <ele>132.192532</ele>
        <time>2022-08-07T13:52:38.733Z</time>
      </trkpt>
      <trkpt lat="47.97221" lon="17.0894">
        <ele>132.270361</ele>
        <time>2022-08-07T13:52:52.249Z</time>
      </trkpt>
      <trkpt lat="47.97408" lon="17.08915">
        <ele>131.714327</ele>
        <time>2022-08-07T13:53:38.639Z</time>
      </trkpt>
      <trkpt lat="47.97453" lon="17.08902">
        <ele>131.415184</ele>
        <time>2022-08-07T13:53:49.284Z</time>
      </trkpt>
      <trkpt lat="47.97473" lon="17.08886">
        <ele>131.2618</ele>
        <time>2022-08-07T13:53:54.733Z</time>
      </trkpt>
      <trkpt lat="47.97547" lon="17.08799">
        <ele>130.511863</ele>
        <time>2022-08-07T13:54:16.420Z</time>
      </trkpt>
      <trkpt lat="47.97599" lon="17.08713">
        <ele>129.878954</ele>
        <time>2022-08-07T13:54:35.030Z</time>
      </trkpt>
      <trkpt lat="47.97678" lon="17.08633">
        <ele>129.56749</ele>
        <time>2022-08-07T13:54:58.474Z</time>
      </trkpt>
      <trkpt lat="47.97771" lon="17.08516">
        <ele>129.328918</ele>
        <time>2022-08-07T13:55:31.230Z</time>
      </trkpt>
      <trkpt lat="47.97802" lon="17.08469">
        <ele>129.337281</ele>
        <time>2022-08-07T13:55:43.477Z</time>
      </trkpt>
      <trkpt lat="47.97845" lon="17.08384">
        <ele>129.350615</ele>
        <time>2022-08-07T13:56:02.548Z</time>
      </trkpt>
      <trkpt lat="47.97958" lon="17.0843">
        <ele>129.22248</ele>
        <time>2022-08-07T13:56:33.136Z</time>
      </trkpt>
      <trkpt lat="47.98097" lon="17.08522">
        <ele>128.996284</ele>
        <time>2022-08-07T13:57:11.776Z</time>
      </trkpt>
      <trkpt lat="47.9864" lon="17.08763">
        <ele>128.670565</ele>
        <time>2022-08-07T13:59:41.692Z</time>
      </trkpt>
      <trkpt lat="47.98736" lon="17.088">
        <ele>128.709783</ele>
        <time>2022-08-07T14:00:08.553Z</time>
      </trkpt>
      <trkpt lat="47.98969" lon="17.08864">
        <ele>129.039244</ele>
        <time>2022-08-07T14:01:13.398Z</time>
      </trkpt>
      <trkpt lat="47.99191" lon="17.08876">
        <ele>129.268392</ele>
        <time>2022-08-07T14:02:14.695Z</time>
      </trkpt>
      <trkpt lat="47.99538" lon="17.09299">
        <ele>128.213189</ele>
        <time>2022-08-07T14:04:08.668Z</time>
      </trkpt>
      <trkpt lat="47.99548" lon="17.09309">
        <ele>128.201148</ele>
        <time>2022-08-07T14:04:11.634Z</time>
      </trkpt>
      <trkpt lat="47.99736" lon="17.09501">
        <ele>127.996842</ele>
        <time>2022-08-07T14:05:11.685Z</time>
      </trkpt>
      <trkpt lat="47.9991" lon="17.09628">
        <ele>127.902711</ele>
        <time>2022-08-07T14:06:03.280Z</time>
      </trkpt>
      <trkpt lat="47.9996" lon="17.09656">
        <ele>127.877235</ele>
        <time>2022-08-07T14:06:17.141Z</time>
      </trkpt>
      <trkpt lat="47.99967" lon="17.09664">
        <ele>127.872619</ele>
        <time>2022-08-07T14:06:19.642Z</time>
      </trkpt>
      <trkpt lat="47.99977" lon="17.09677">
        <ele>127.866123</ele>
        <time>2022-08-07T14:06:23.150Z</time>
      </trkpt>
      <trkpt lat="47.99982" lon="17.09683">
        <ele>127.863137</ele>
        <time>2022-08-07T14:06:24.757Z</time>
      </trkpt>
      <trkpt lat="48.00211" lon="17.0996">
        <ele>127.602632</ele>
        <time>2022-08-07T14:07:41.411Z</time>
      </trkpt>
      <trkpt lat="48.00268" lon="17.10031">
        <ele>127.584513</ele>
        <time>2022-08-07T14:08:01.765Z</time>
      </trkpt>
      <trkpt lat="48.00465" lon="17.10274">
        <ele>128.299264</ele>
        <time>2022-08-07T14:09:12.869Z</time>
      </trkpt>
      <trkpt lat="48.00577" lon="17.1041">
        <ele>128.917951</ele>
        <time>2022-08-07T14:09:55.001Z</time>
      </trkpt>
      <trkpt lat="48.00594" lon="17.1043">
        <ele>129.016138</ele>
        <time>2022-08-07T14:10:01.496Z</time>
      </trkpt>
      <trkpt lat="48.00661" lon="17.10504">
        <ele>129.391536</ele>
        <time>2022-08-07T14:10:25.858Z</time>
      </trkpt>
      <trkpt lat="48.00784" lon="17.10655">
        <ele>129.906479</ele>
        <time>2022-08-07T14:11:10.327Z</time>
      </trkpt>
      <trkpt lat="48.00876" lon="17.10771">
        <ele>130.346358</ele>
        <time>2022-08-07T14:11:43.705Z</time>
      </trkpt>
      <trkpt lat="48.0093" lon="17.10839">
        <ele>130.695374</ele>
        <time>2022-08-07T14:12:04.793Z</time>
      </trkpt>
      <trkpt lat="48.00992" lon="17.10901">
        <ele>131.048232</ele>
        <time>2022-08-07T14:12:26.934Z</time>
      </trkpt>
      <trkpt lat="48.00998" lon="17.10906">
        <ele>131.073156</ele>
        <time>2022-08-07T14:12:28.823Z</time>
      </trkpt>
      <trkpt lat="48.01021" lon="17.10915">
        <ele>131.164426</ele>
        <time>2022-08-07T14:12:35.633Z</time>
      </trkpt>
      <trkpt lat="48.01028" lon="17.10891">
        <ele>131.231543</ele>
        <time>2022-08-07T14:12:40.760Z</time>
      </trkpt>
      <trkpt lat="48.01036" lon="17.10862">
        <ele>131.310494</ele>
        <time>2022-08-07T14:12:46.715Z</time>
      </trkpt>
      <trkpt lat="48.01081" lon="17.10724">
        <ele>131.657687</ele>
        <time>2022-08-07T14:13:16.113Z</time>
      </trkpt>
      <trkpt lat="48.01128" lon="17.10625">
        <ele>131.514843</ele>
        <time>2022-08-07T14:13:37.183Z</time>
      </trkpt>
      <trkpt lat="48.01167" lon="17.10548">
        <ele>131.40116</ele>
        <time>2022-08-07T14:13:53.582Z</time>
      </trkpt>
      <trkpt lat="48.01175" lon="17.10534">
        <ele>131.380892</ele>
        <time>2022-08-07T14:13:56.588Z</time>
      </trkpt>
      <trkpt lat="48.01287" lon="17.10318">
        <ele>130.471084</ele>
        <time>2022-08-07T14:14:41.405Z</time>
      </trkpt>
      <trkpt lat="48.01311" lon="17.10273">
        <ele>130.330544</ele>
        <time>2022-08-07T14:14:50.851Z</time>
      </trkpt>
      <trkpt lat="48.01356" lon="17.10185">
        <ele>130.095075</ele>
        <time>2022-08-07T14:15:09.776Z</time>
      </trkpt>
      <trkpt lat="48.01388" lon="17.10118">
        <ele>129.921102</ele>
        <time>2022-08-07T14:15:24.075Z</time>
      </trkpt>
      <trkpt lat="48.01529" lon="17.09826">
        <ele>129.532873</ele>
        <time>2022-08-07T14:16:25.922Z</time>
      </trkpt>
      <trkpt lat="48.01529" lon="17.09807">
        <ele>129.550054</ele>
        <time>2022-08-07T14:16:28.919Z</time>
      </trkpt>
      <trkpt lat="48.01893" lon="17.09048">
        <ele>130.427504</ele>
        <time>2022-08-07T14:19:21.078Z</time>
      </trkpt>
      <trkpt lat="48.01906" lon="17.09022">
        <ele>130.458078</ele>
        <time>2022-08-07T14:19:27.001Z</time>
      </trkpt>
      <trkpt lat="48.01931" lon="17.0899">
        <ele>130.486128</ele>
        <time>2022-08-07T14:19:35.849Z</time>
      </trkpt>
      <trkpt lat="48.01971" lon="17.0897">
        <ele>130.475352</ele>
        <time>2022-08-07T14:19:47.047Z</time>
      </trkpt>
      <trkpt lat="48.02035" lon="17.08946">
        <ele>130.458392</ele>
        <time>2022-08-07T14:20:04.565Z</time>
      </trkpt>
      <trkpt lat="48.02062" lon="17.08925">
        <ele>130.450625</ele>
        <time>2022-08-07T14:20:12.630Z</time>
      </trkpt>
      <trkpt lat="48.02235" lon="17.08718">
        <ele>130.518892</ele>
        <time>2022-08-07T14:21:11.608Z</time>
      </trkpt>
      <trkpt lat="48.02354" lon="17.08511">
        <ele>130.750283</ele>
        <time>2022-08-07T14:22:01.718Z</time>
      </trkpt>
      <trkpt lat="48.02471" lon="17.08268">
        <ele>131.196079</ele>
        <time>2022-08-07T14:22:58.066Z</time>
      </trkpt>
      <trkpt lat="48.02543" lon="17.08107">
        <ele>131.28753</ele>
        <time>2022-08-07T14:23:32.606Z</time>
      </trkpt>
      <trkpt lat="48.02567" lon="17.08052">
        <ele>131.29313</ele>
        <time>2022-08-07T14:23:44.358Z</time>
      </trkpt>
      <trkpt lat="48.02586" lon="17.07999">
        <ele>131.284688</ele>
        <time>2022-08-07T14:23:55.078Z</time>
      </trkpt>
      <trkpt lat="48.02626" lon="17.07815">
        <ele>131.278654</ele>
        <time>2022-08-07T14:24:29.251Z</time>
      </trkpt>
      <trkpt lat="48.0264" lon="17.07772">
        <ele>131.3102</ele>
        <time>2022-08-07T14:24:38.149Z</time>
      </trkpt>
      <trkpt lat="48.0274" lon="17.07564">
        <ele>131.419457</ele>
        <time>2022-08-07T14:25:24.643Z</time>
      </trkpt>
      <trkpt lat="48.02976" lon="17.07096">
        <ele>131.184206</ele>
        <time>2022-08-07T14:27:07.496Z</time>
      </trkpt>
      <trkpt lat="48.03057" lon="17.06933">
        <ele>131.263384</ele>
        <time>2022-08-07T14:27:44.231Z</time>
      </trkpt>
      <trkpt lat="48.03138" lon="17.06724">
        <ele>131.639028</ele>
        <time>2022-08-07T14:28:29.457Z</time>
      </trkpt>
      <trkpt lat="48.03144" lon="17.06723">
        <ele>131.655881</ele>
        <time>2022-08-07T14:28:31.112Z</time>
      </trkpt>
      <trkpt lat="48.0315" lon="17.06724">
        <ele>131.674786</ele>
        <time>2022-08-07T14:28:33.001Z</time>
      </trkpt>
      <trkpt lat="48.0327" lon="17.06393">
        <ele>132.261887</ele>
        <time>2022-08-07T14:29:43.628Z</time>
      </trkpt>
      <trkpt lat="48.03425" lon="17.05945">
        <ele>132.174432</ele>
        <time>2022-08-07T14:31:13.011Z</time>
      </trkpt>
      <trkpt lat="48.03467" lon="17.05822">
        <ele>131.990352</ele>
        <time>2022-08-07T14:31:36.220Z</time>
      </trkpt>
      <trkpt lat="48.03536" lon="17.05648">
        <ele>131.846032</ele>
        <time>2022-08-07T14:32:10.737Z</time>
      </trkpt>
      <trkpt lat="48.03738" lon="17.05177">
        <ele>132.588225</ele>
        <time>2022-08-07T14:33:55.850Z</time>
      </trkpt>
      <trkpt lat="48.03839" lon="17.04946">
        <ele>132.764031</ele>
        <time>2022-08-07T14:34:45.365Z</time>
      </trkpt>
      <trkpt lat="48.04112" lon="17.04444">
        <ele>133.436958</ele>
        <time>2022-08-07T14:36:44.300Z</time>
      </trkpt>
      <trkpt lat="48.04112" lon="17.04431">
        <ele>133.440616</ele>
        <time>2022-08-07T14:36:46.603Z</time>
      </trkpt>
      <trkpt lat="48.04185" lon="17.04297">
        <ele>133.489944</ele>
        <time>2022-08-07T14:37:17.393Z</time>
      </trkpt>
      <trkpt lat="48.04238" lon="17.04201">
        <ele>133.538824</ele>
        <time>2022-08-07T14:37:39.678Z</time>
      </trkpt>
      <trkpt lat="48.04256" lon="17.04167">
        <ele>133.557252</ele>
        <time>2022-08-07T14:37:47.360Z</time>
      </trkpt>
      <trkpt lat="48.04271" lon="17.04139">
        <ele>133.572985</ele>
        <time>2022-08-07T14:37:53.901Z</time>
      </trkpt>
      <trkpt lat="48.04278" lon="17.04127">
        <ele>133.579696</ele>
        <time>2022-08-07T14:37:56.662Z</time>
      </trkpt>
      <trkpt lat="48.04374" lon="17.03947">
        <ele>133.914574</ele>
        <time>2022-08-07T14:38:39.415Z</time>
      </trkpt>
      <trkpt lat="48.04417" lon="17.03878">
        <ele>134.107867</ele>
        <time>2022-08-07T14:38:57.801Z</time>
      </trkpt>
      <trkpt lat="48.04462" lon="17.03837">
        <ele>134.201909</ele>
        <time>2022-08-07T14:39:12.652Z</time>
      </trkpt>
      <trkpt lat="48.04561" lon="17.03775">
        <ele>134.312746</ele>
        <time>2022-08-07T14:39:41.573Z</time>
      </trkpt>
      <trkpt lat="48.04563" lon="17.03774">
        <ele>134.315213</ele>
        <time>2022-08-07T14:39:42.191Z</time>
      </trkpt>
      <trkpt lat="48.04597" lon="17.03749">
        <ele>134.351731</ele>
        <time>2022-08-07T14:39:52.179Z</time>
      </trkpt>
      <trkpt lat="48.04601" lon="17.03745">
        <ele>134.342491</ele>
        <time>2022-08-07T14:39:53.398Z</time>
      </trkpt>
      <trkpt lat="48.04637" lon="17.03695">
        <ele>134.247832</ele>
        <time>2022-08-07T14:40:06.427Z</time>
      </trkpt>
      <trkpt lat="48.04665" lon="17.03638">
        <ele>134.158005</ele>
        <time>2022-08-07T14:40:18.588Z</time>
      </trkpt>
      <trkpt lat="48.04705" lon="17.03558">
        <ele>134.03139</ele>
        <time>2022-08-07T14:40:35.552Z</time>
      </trkpt>
      <trkpt lat="48.04724" lon="17.0352">
        <ele>133.952354</ele>
        <time>2022-08-07T14:40:43.962Z</time>
      </trkpt>
      <trkpt lat="48.0477" lon="17.03455">
        <ele>133.778738</ele>
        <time>2022-08-07T14:41:00.088Z</time>
      </trkpt>
      <trkpt lat="48.04778" lon="17.03465">
        <ele>133.750984</ele>
        <time>2022-08-07T14:41:02.611Z</time>
      </trkpt>
      <trkpt lat="48.04806" lon="17.03505">
        <ele>133.645286</ele>
        <time>2022-08-07T14:41:12.290Z</time>
      </trkpt>
      <trkpt lat="48.04832" lon="17.03542">
        <ele>133.545831</ele>
        <time>2022-08-07T14:41:21.427Z</time>
      </trkpt>
      <trkpt lat="48.04863" lon="17.03586">
        <ele>133.543218</ele>
        <time>2022-08-07T14:41:32.371Z</time>
      </trkpt>
      <trkpt lat="48.04897" lon="17.03631">
        <ele>133.581256</ele>
        <time>2022-08-07T14:41:44.241Z</time>
      </trkpt>
      <trkpt lat="48.04899" lon="17.03638">
        <ele>133.585267</ele>
        <time>2022-08-07T14:41:45.524Z</time>
      </trkpt>
      <trkpt lat="48.04895" lon="17.0364">
        <ele>133.588746</ele>
        <time>2022-08-07T14:41:46.626Z</time>
      </trkpt>
      <trkpt lat="48.04848" lon="17.03714">
        <ele>133.645471</ele>
        <time>2022-08-07T14:42:05.169Z</time>
      </trkpt>
      <trkpt lat="48.047" lon="17.0392">
        <ele>134.354046</ele>
        <time>2022-08-07T14:43:03.878Z</time>
      </trkpt>
      <trkpt lat="48.04601" lon="17.04115">
        <ele>134.166045</ele>
        <time>2022-08-07T14:43:46.864Z</time>
      </trkpt>
      <trkpt lat="48.0459" lon="17.04173">
        <ele>134.056768</ele>
        <time>2022-08-07T14:43:57.159Z</time>
      </trkpt>
      <trkpt lat="48.04589" lon="17.04219">
        <ele>133.931475</ele>
        <time>2022-08-07T14:44:04.703Z</time>
      </trkpt>
      <trkpt lat="48.04585" lon="17.04405">
        <ele>133.424674</ele>
        <time>2022-08-07T14:44:35.689Z</time>
      </trkpt>
      <trkpt lat="48.04578" lon="17.04487">
        <ele>133.346072</ele>
        <time>2022-08-07T14:44:49.893Z</time>
      </trkpt>
      <trkpt lat="48.04664" lon="17.04506">
        <ele>133.23895</ele>
        <time>2022-08-07T14:45:12.795Z</time>
      </trkpt>
      <trkpt lat="48.05031" lon="17.04763">
        <ele>133.173619</ele>
        <time>2022-08-07T14:47:00.697Z</time>
      </trkpt>
      <trkpt lat="48.05057" lon="17.04781">
        <ele>133.233932</ele>
        <time>2022-08-07T14:47:08.482Z</time>
      </trkpt>
      <trkpt lat="48.05592" lon="17.05167">
        <ele>134.501682</ele>
        <time>2022-08-07T14:49:53.740Z</time>
      </trkpt>
      <trkpt lat="48.05798" lon="17.05304">
        <ele>134.851911</ele>
        <time>2022-08-07T14:50:55.903Z</time>
      </trkpt>
      <trkpt lat="48.06416" lon="17.05748">
        <ele>134.005891</ele>
        <time>2022-08-07T14:53:53.989Z</time>
      </trkpt>
      <trkpt lat="48.06427" lon="17.0575">
        <ele>133.999895</ele>
        <time>2022-08-07T14:53:57.044Z</time>
      </trkpt>
      <trkpt lat="48.06533" lon="17.05823">
        <ele>134.015307</ele>
        <time>2022-08-07T14:54:28.295Z</time>
      </trkpt>
      <trkpt lat="48.07319" lon="17.06383">
        <ele>135.073764</ele>
        <time>2022-08-07T14:58:25.698Z</time>
      </trkpt>
      <trkpt lat="48.07329" lon="17.06351">
        <ele>135.131839</ele>
        <time>2022-08-07T14:58:32.523Z</time>
      </trkpt>
      <trkpt lat="48.07334" lon="17.06338">
        <ele>135.156214</ele>
        <time>2022-08-07T14:58:35.416Z</time>
      </trkpt>
      <trkpt lat="48.07414" lon="17.06112">
        <ele>135.437267</ele>
        <time>2022-08-07T14:59:22.889Z</time>
      </trkpt>
      <trkpt lat="48.07454" lon="17.05995">
        <ele>135.365505</ele>
        <time>2022-08-07T14:59:45.497Z</time>
      </trkpt>
      <trkpt lat="48.07455" lon="17.05975">
        <ele>135.354401</ele>
        <time>2022-08-07T14:59:48.987Z</time>
      </trkpt>
      <trkpt lat="48.0745" lon="17.0596">
        <ele>135.34497</ele>
        <time>2022-08-07T14:59:52.032Z</time>
      </trkpt>
      <trkpt lat="48.0742" lon="17.05936">
        <ele>135.320325</ele>
        <time>2022-08-07T15:00:00.852Z</time>
      </trkpt>
      <trkpt lat="48.07419" lon="17.05925">
        <ele>135.316934</ele>
        <time>2022-08-07T15:00:02.762Z</time>
      </trkpt>
      <trkpt lat="48.07426" lon="17.05905">
        <ele>135.310054</ele>
        <time>2022-08-07T15:00:06.554Z</time>
      </trkpt>
      <trkpt lat="48.07572" lon="17.06048">
        <ele>135.179002</ele>
        <time>2022-08-07T15:00:53.247Z</time>
      </trkpt>
      <trkpt lat="48.07779" lon="17.06254">
        <ele>134.601852</ele>
        <time>2022-08-07T15:01:56.392Z</time>
      </trkpt>
      <trkpt lat="48.08047" lon="17.06514">
        <ele>134.489273</ele>
        <time>2022-08-07T15:03:20.370Z</time>
      </trkpt>
      <trkpt lat="48.08114" lon="17.06579">
        <ele>134.791669</ele>
        <time>2022-08-07T15:03:44.214Z</time>
      </trkpt>
      <trkpt lat="48.0818" lon="17.06643">
        <ele>134.968385</ele>
        <time>2022-08-07T15:04:07.264Z</time>
      </trkpt>
      <trkpt lat="48.08279" lon="17.06741">
        <ele>134.98008</ele>
        <time>2022-08-07T15:04:38.330Z</time>
      </trkpt>
      <trkpt lat="48.08318" lon="17.06798">
        <ele>134.988364</ele>
        <time>2022-08-07T15:04:51.966Z</time>
      </trkpt>
      <trkpt lat="48.0834" lon="17.06839">
        <ele>134.995666</ele>
        <time>2022-08-07T15:05:00.984Z</time>
      </trkpt>
      <trkpt lat="48.08384" lon="17.06821">
        <ele>135.005197</ele>
        <time>2022-08-07T15:05:13.198Z</time>
      </trkpt>
      <trkpt lat="48.08431" lon="17.06806">
        <ele>135.015026</ele>
        <time>2022-08-07T15:05:26.172Z</time>
      </trkpt>
      <trkpt lat="48.08498" lon="17.06785">
        <ele>135.323064</ele>
        <time>2022-08-07T15:05:46.386Z</time>
      </trkpt>
      <trkpt lat="48.08593" lon="17.06783">
        <ele>135.964301</ele>
        <time>2022-08-07T15:06:14.806Z</time>
      </trkpt>
      <trkpt lat="48.08676" lon="17.0677">
        <ele>136.548904</ele>
        <time>2022-08-07T15:06:40.615Z</time>
      </trkpt>
      <trkpt lat="48.08728" lon="17.06753">
        <ele>136.923843</ele>
        <time>2022-08-07T15:06:56.711Z</time>
      </trkpt>
      <trkpt lat="48.08779" lon="17.0674">
        <ele>137.289692</ele>
        <time>2022-08-07T15:07:12.370Z</time>
      </trkpt>
      <trkpt lat="48.08792" lon="17.06719">
        <ele>137.429894</ele>
        <time>2022-08-07T15:07:18.269Z</time>
      </trkpt>
      <trkpt lat="48.08923" lon="17.06663">
        <ele>137.927054</ele>
        <time>2022-08-07T15:07:57.579Z</time>
      </trkpt>
      <trkpt lat="48.08935" lon="17.06658">
        <ele>137.96583</ele>
        <time>2022-08-07T15:08:00.717Z</time>
      </trkpt>
      <trkpt lat="48.09114" lon="17.06574">
        <ele>138.024684</ele>
        <time>2022-08-07T15:08:51.329Z</time>
      </trkpt>
      <trkpt lat="48.09123" lon="17.06569">
        <ele>138.018744</ele>
        <time>2022-08-07T15:08:53.834Z</time>
      </trkpt>
      <trkpt lat="48.09133" lon="17.06599">
        <ele>138.005338</ele>
        <time>2022-08-07T15:08:59.469Z</time>
      </trkpt>
      <trkpt lat="48.09144" lon="17.06626">
        <ele>137.848903</ele>
        <time>2022-08-07T15:09:04.680Z</time>
      </trkpt>
      <trkpt lat="48.0916" lon="17.06664">
        <ele>137.55921</ele>
        <time>2022-08-07T15:09:11.845Z</time>
      </trkpt>
      <trkpt lat="48.09182" lon="17.06738">
        <ele>137.043051</ele>
        <time>2022-08-07T15:09:24.318Z</time>
      </trkpt>
      <trkpt lat="48.09183" lon="17.06744">
        <ele>137.003582</ele>
        <time>2022-08-07T15:09:25.272Z</time>
      </trkpt>
      <trkpt lat="48.09198" lon="17.06842">
        <ele>136.363918</ele>
        <time>2022-08-07T15:09:40.687Z</time>
      </trkpt>
      <trkpt lat="48.09201" lon="17.06858">
        <ele>136.253146</ele>
        <time>2022-08-07T15:09:43.112Z</time>
      </trkpt>
      <trkpt lat="48.09207" lon="17.06888">
        <ele>135.998876</ele>
        <time>2022-08-07T15:09:47.800Z</time>
      </trkpt>
      <trkpt lat="48.09217" lon="17.06936">
        <ele>135.593738</ele>
        <time>2022-08-07T15:09:55.137Z</time>
      </trkpt>
      <trkpt lat="48.09234" lon="17.06988">
        <ele>135.134435</ele>
        <time>2022-08-07T15:10:03.373Z</time>
      </trkpt>
      <trkpt lat="48.09255" lon="17.07045">
        <ele>134.606778</ele>
        <time>2022-08-07T15:10:13.195Z</time>
      </trkpt>
      <trkpt lat="48.09283" lon="17.07111">
        <ele>134.142433</ele>
        <time>2022-08-07T15:10:25.849Z</time>
      </trkpt>
      <trkpt lat="48.09313" lon="17.07187">
        <ele>134.227416</ele>
        <time>2022-08-07T15:10:41.634Z</time>
      </trkpt>
      <trkpt lat="48.0937" lon="17.0732">
        <ele>134.379996</ele>
        <time>2022-08-07T15:11:11.695Z</time>
      </trkpt>
      <trkpt lat="48.09419" lon="17.07429">
        <ele>134.708845</ele>
        <time>2022-08-07T15:11:38.107Z</time>
      </trkpt>
      <trkpt lat="48.09506" lon="17.07587">
        <ele>135.031115</ele>
        <time>2022-08-07T15:12:15.859Z</time>
      </trkpt>
      <trkpt lat="48.09528" lon="17.07618">
        <ele>135.000006</ele>
        <time>2022-08-07T15:12:23.370Z</time>
      </trkpt>
      <trkpt lat="48.09654" lon="17.07744">
        <ele>134.839794</ele>
        <time>2022-08-07T15:13:02.551Z</time>
      </trkpt>
      <trkpt lat="48.09703" lon="17.07792">
        <ele>134.776255</ele>
        <time>2022-08-07T15:13:17.728Z</time>
      </trkpt>
      <trkpt lat="48.09717" lon="17.07807">
        <ele>134.756774</ele>
        <time>2022-08-07T15:13:22.404Z</time>
      </trkpt>
      <trkpt lat="48.09746" lon="17.07835">
        <ele>134.719265</ele>
        <time>2022-08-07T15:13:31.568Z</time>
      </trkpt>
      <trkpt lat="48.10054" lon="17.0814">
        <ele>134.667044</ele>
        <time>2022-08-07T15:15:09.662Z</time>
      </trkpt>
      <trkpt lat="48.10172" lon="17.08267">
        <ele>134.905932</ele>
        <time>2022-08-07T15:15:49.833Z</time>
      </trkpt>
      <trkpt lat="48.10246" lon="17.0833">
        <ele>134.981882</ele>
        <time>2022-08-07T15:16:13.647Z</time>
      </trkpt>
      <trkpt lat="48.10298" lon="17.08372">
        <ele>134.948304</ele>
        <time>2022-08-07T15:16:29.412Z</time>
      </trkpt>
      <trkpt lat="48.103" lon="17.08373">
        <ele>134.94761</ele>
        <time>2022-08-07T15:16:29.721Z</time>
      </trkpt>
      <trkpt lat="48.10324" lon="17.08394">
        <ele>134.931435</ele>
        <time>2022-08-07T15:16:37.080Z</time>
      </trkpt>
      <trkpt lat="48.10426" lon="17.08479">
        <ele>134.798988</ele>
        <time>2022-08-07T15:17:07.101Z</time>
      </trkpt>
      <trkpt lat="48.10434" lon="17.08495">
        <ele>134.777192</ele>
        <time>2022-08-07T15:17:10.341Z</time>
      </trkpt>
      <trkpt lat="48.10447" lon="17.08507">
        <ele>134.750373</ele>
        <time>2022-08-07T15:17:14.341Z</time>
      </trkpt>
      <trkpt lat="48.10471" lon="17.08529">
        <ele>134.703064</ele>
        <time>2022-08-07T15:17:21.514Z</time>
      </trkpt>
      <trkpt lat="48.10489" lon="17.08552">
        <ele>134.664383</ele>
        <time>2022-08-07T15:17:27.469Z</time>
      </trkpt>
      <trkpt lat="48.10506" lon="17.08566">
        <ele>134.632231</ele>
        <time>2022-08-07T15:17:32.495Z</time>
      </trkpt>
      <trkpt lat="48.10526" lon="17.08572">
        <ele>134.598094</ele>
        <time>2022-08-07T15:17:38.024Z</time>
      </trkpt>
      <trkpt lat="48.10663" lon="17.08686">
        <ele>134.884739</ele>
        <time>2022-08-07T15:18:21.385Z</time>
      </trkpt>
      <trkpt lat="48.10689" lon="17.08709">
        <ele>134.926232</ele>
        <time>2022-08-07T15:18:29.891Z</time>
      </trkpt>
      <trkpt lat="48.10735" lon="17.08746">
        <ele>134.91706</ele>
        <time>2022-08-07T15:18:44.366Z</time>
      </trkpt>
      <trkpt lat="48.10855" lon="17.08844">
        <ele>134.841474</ele>
        <time>2022-08-07T15:19:20.261Z</time>
      </trkpt>
      <trkpt lat="48.10859" lon="17.08847">
        <ele>134.82557</ele>
        <time>2022-08-07T15:19:21.435Z</time>
      </trkpt>
      <trkpt lat="48.10861" lon="17.08841">
        <ele>134.810377</ele>
        <time>2022-08-07T15:19:22.629Z</time>
      </trkpt>
      <trkpt lat="48.10863" lon="17.08836">
        <ele>134.795596</ele>
        <time>2022-08-07T15:19:23.749Z</time>
      </trkpt>
      <trkpt lat="48.109" lon="17.08865">
        <ele>134.6548</ele>
        <time>2022-08-07T15:19:33.984Z</time>
      </trkpt>
      <trkpt lat="48.10949" lon="17.08906">
        <ele>134.461581</ele>
        <time>2022-08-07T15:19:47.948Z</time>
      </trkpt>
      <trkpt lat="48.10981" lon="17.08931">
        <ele>134.337937</ele>
        <time>2022-08-07T15:19:56.781Z</time>
      </trkpt>
      <trkpt lat="48.11128" lon="17.09053">
        <ele>134.321831</ele>
        <time>2022-08-07T15:20:41.357Z</time>
      </trkpt>
      <trkpt lat="48.11162" lon="17.09081">
        <ele>134.393212</ele>
        <time>2022-08-07T15:20:51.906Z</time>
      </trkpt>
      <trkpt lat="48.11175" lon="17.09091">
        <ele>134.486058</ele>
        <time>2022-08-07T15:20:56.008Z</time>
      </trkpt>
      <trkpt lat="48.11232" lon="17.09133">
        <ele>134.889548</ele>
        <time>2022-08-07T15:21:14.884Z</time>
      </trkpt>
      <trkpt lat="48.11238" lon="17.09138">
        <ele>134.931821</ele>
        <time>2022-08-07T15:21:17.053Z</time>
      </trkpt>
      <trkpt lat="48.11254" lon="17.09158">
        <ele>135.065774</ele>
        <time>2022-08-07T15:21:23.636Z</time>
      </trkpt>
      <trkpt lat="48.11282" lon="17.09179">
        <ele>135.263736</ele>
        <time>2022-08-07T15:21:33.627Z</time>
      </trkpt>
      <trkpt lat="48.11312" lon="17.09206">
        <ele>135.474567</ele>
        <time>2022-08-07T15:21:44.070Z</time>
      </trkpt>
      <trkpt lat="48.11351" lon="17.09238">
        <ele>135.596277</ele>
        <time>2022-08-07T15:21:57.174Z</time>
      </trkpt>
      <trkpt lat="48.11371" lon="17.09252">
        <ele>135.65448</ele>
        <time>2022-08-07T15:22:03.346Z</time>
      </trkpt>
      <trkpt lat="48.11369" lon="17.09259">
        <ele>135.668348</ele>
        <time>2022-08-07T15:22:05.084Z</time>
      </trkpt>
      <trkpt lat="48.11394" lon="17.09281">
        <ele>135.747611</ele>
        <time>2022-08-07T15:22:13.272Z</time>
      </trkpt>
      <trkpt lat="48.11398" lon="17.09272">
        <ele>135.76557</ele>
        <time>2022-08-07T15:22:15.568Z</time>
      </trkpt>
      <trkpt lat="48.11437" lon="17.09305">
        <ele>135.886864</ele>
        <time>2022-08-07T15:22:28.157Z</time>
      </trkpt>
      <trkpt lat="48.11443" lon="17.0931">
        <ele>135.904136</ele>
        <time>2022-08-07T15:22:29.865Z</time>
      </trkpt>
      <trkpt lat="48.1144" lon="17.09319">
        <ele>135.922318</ele>
        <time>2022-08-07T15:22:31.920Z</time>
      </trkpt>
      <trkpt lat="48.11438" lon="17.09326">
        <ele>135.936348</ele>
        <time>2022-08-07T15:22:33.530Z</time>
      </trkpt>
      <trkpt lat="48.1149" lon="17.0937">
        <ele>135.971727</ele>
        <time>2022-08-07T15:22:53.885Z</time>
      </trkpt>
      <trkpt lat="48.11539" lon="17.09416">
        <ele>135.991939</ele>
        <time>2022-08-07T15:23:13.415Z</time>
      </trkpt>
      <trkpt lat="48.11605" lon="17.09452">
        <ele>136.023975</ele>
        <time>2022-08-07T15:23:38.596Z</time>
      </trkpt>
      <trkpt lat="48.11688" lon="17.09498">
        <ele>136.412178</ele>
        <time>2022-08-07T15:24:13.095Z</time>
      </trkpt>
      <trkpt lat="48.1175" lon="17.09532">
        <ele>136.700237</ele>
        <time>2022-08-07T15:24:37.557Z</time>
      </trkpt>
      <trkpt lat="48.11772" lon="17.09544">
        <ele>136.799272</ele>
        <time>2022-08-07T15:24:46.013Z</time>
      </trkpt>
      <trkpt lat="48.11821" lon="17.09571">
        <ele>136.805132</ele>
        <time>2022-08-07T15:25:04.283Z</time>
      </trkpt>
      <trkpt lat="48.11827" lon="17.09575">
        <ele>136.805828</ele>
        <time>2022-08-07T15:25:06.489Z</time>
      </trkpt>
      <trkpt lat="48.11851" lon="17.0959">
        <ele>136.808738</ele>
        <time>2022-08-07T15:25:15.681Z</time>
      </trkpt>
      <trkpt lat="48.11862" lon="17.09596">
        <ele>136.810119</ele>
        <time>2022-08-07T15:25:20.044Z</time>
      </trkpt>
      <trkpt lat="48.11889" lon="17.09609">
        <ele>136.813313</ele>
        <time>2022-08-07T15:25:29.947Z</time>
      </trkpt>
      <trkpt lat="48.1194" lon="17.09645">
        <ele>136.821751</ele>
        <time>2022-08-07T15:25:48.948Z</time>
      </trkpt>
      <trkpt lat="48.12095" lon="17.09775">
        <ele>137.105687</ele>
        <time>2022-08-07T15:26:53.197Z</time>
      </trkpt>
      <trkpt lat="48.12111" lon="17.09796">
        <ele>137.135608</ele>
        <time>2022-08-07T15:27:00.770Z</time>
      </trkpt>
      <trkpt lat="48.12118" lon="17.09804">
        <ele>137.148163</ele>
        <time>2022-08-07T15:27:03.823Z</time>
      </trkpt>
      <trkpt lat="48.12126" lon="17.09811">
        <ele>137.162106</ele>
        <time>2022-08-07T15:27:07.329Z</time>
      </trkpt>
      <trkpt lat="48.12131" lon="17.09805">
        <ele>137.171016</ele>
        <time>2022-08-07T15:27:09.539Z</time>
      </trkpt>
      <trkpt lat="48.12173" lon="17.09839">
        <ele>137.239385</ele>
        <time>2022-08-07T15:27:26.463Z</time>
      </trkpt>
      <trkpt lat="48.12175" lon="17.09841">
        <ele>137.243828</ele>
        <time>2022-08-07T15:27:27.438Z</time>
      </trkpt>
      <trkpt lat="48.12179" lon="17.09844">
        <ele>137.250083</ele>
        <time>2022-08-07T15:27:29.056Z</time>
      </trkpt>
      <trkpt lat="48.1222" lon="17.09875">
        <ele>137.315788</ele>
        <time>2022-08-07T15:27:45.548Z</time>
      </trkpt>
      <trkpt lat="48.1224" lon="17.09891">
        <ele>137.349076</ele>
        <time>2022-08-07T15:27:53.729Z</time>
      </trkpt>
      <trkpt lat="48.12263" lon="17.0991">
        <ele>137.361191</ele>
        <time>2022-08-07T15:28:03.042Z</time>
      </trkpt>
      <trkpt lat="48.12272" lon="17.09912">
        <ele>137.358009</ele>
        <time>2022-08-07T15:28:09.447Z</time>
      </trkpt>
      <trkpt lat="48.12362" lon="17.09922">
        <ele>137.326657</ele>
        <time>2022-08-07T15:28:33.715Z</time>
      </trkpt>
      <trkpt lat="48.12378" lon="17.09923">
        <ele>137.321009</ele>
        <time>2022-08-07T15:28:37.869Z</time>
      </trkpt>
      <trkpt lat="48.12403" lon="17.09924">
        <ele>137.312555</ele>
        <time>2022-08-07T15:28:43.988Z</time>
      </trkpt>
      <trkpt lat="48.1243" lon="17.09927">
        <ele>137.318602</ele>
        <time>2022-08-07T15:28:50.966Z</time>
      </trkpt>
      <trkpt lat="48.12442" lon="17.09928">
        <ele>137.425786</ele>
        <time>2022-08-07T15:28:54.227Z</time>
      </trkpt>
      <trkpt lat="48.12455" lon="17.0993">
        <ele>137.536785</ele>
        <time>2022-08-07T15:28:57.607Z</time>
      </trkpt>
      <trkpt lat="48.12461" lon="17.09931">
        <ele>137.590785</ele>
        <time>2022-08-07T15:28:59.190Z</time>
      </trkpt>
      <trkpt lat="48.12468" lon="17.09931">
        <ele>137.644725</ele>
        <time>2022-08-07T15:29:00.879Z</time>
      </trkpt>
      <trkpt lat="48.12488" lon="17.09933">
        <ele>137.817732</ele>
        <time>2022-08-07T15:29:06.451Z</time>
      </trkpt>
      <trkpt lat="48.12525" lon="17.09935">
        <ele>138.13197</ele>
        <time>2022-08-07T15:29:17.723Z</time>
      </trkpt>
      <trkpt lat="48.12537" lon="17.09936">
        <ele>138.236487</ele>
        <time>2022-08-07T15:29:21.763Z</time>
      </trkpt>
      <trkpt lat="48.12547" lon="17.09937">
        <ele>138.323005</ele>
        <time>2022-08-07T15:29:25.436Z</time>
      </trkpt>
      <trkpt lat="48.12564" lon="17.09939">
        <ele>138.469604</ele>
        <time>2022-08-07T15:29:31.692Z</time>
      </trkpt>
      <trkpt lat="48.12601" lon="17.09942">
        <ele>138.784215</ele>
        <time>2022-08-07T15:29:44.899Z</time>
      </trkpt>
      <trkpt lat="48.12604" lon="17.09943">
        <ele>138.814242</ele>
        <time>2022-08-07T15:29:46.140Z</time>
      </trkpt>
      <trkpt lat="48.12638" lon="17.09946">
        <ele>139.169183</ele>
        <time>2022-08-07T15:29:57.864Z</time>
      </trkpt>
      <trkpt lat="48.12642" lon="17.09946">
        <ele>139.206203</ele>
        <time>2022-08-07T15:29:58.985Z</time>
      </trkpt>
      <trkpt lat="48.12648" lon="17.09947">
        <ele>139.266336</ele>
        <time>2022-08-07T15:30:00.795Z</time>
      </trkpt>
      <trkpt lat="48.12657" lon="17.09948">
        <ele>139.362745</ele>
        <time>2022-08-07T15:30:03.725Z</time>
      </trkpt>
      <trkpt lat="48.12687" lon="17.0995">
        <ele>139.67858</ele>
        <time>2022-08-07T15:30:13.081Z</time>
      </trkpt>
      <trkpt lat="48.12711" lon="17.09952">
        <ele>139.931078</ele>
        <time>2022-08-07T15:30:20.280Z</time>
      </trkpt>
      <trkpt lat="48.12715" lon="17.09953">
        <ele>139.978621</ele>
        <time>2022-08-07T15:30:21.491Z</time>
      </trkpt>
      <trkpt lat="48.12728" lon="17.09954">
        <ele>140.116999</ele>
        <time>2022-08-07T15:30:25.409Z</time>
      </trkpt>
      <trkpt lat="48.12749" lon="17.09956">
        <ele>140.338841</ele>
        <time>2022-08-07T15:30:32.696Z</time>
      </trkpt>
      <trkpt lat="48.12774" lon="17.09959">
        <ele>140.604294</ele>
        <time>2022-08-07T15:30:41.449Z</time>
      </trkpt>
      <trkpt lat="48.12785" lon="17.0996">
        <ele>140.715304</ele>
        <time>2022-08-07T15:30:45.276Z</time>
      </trkpt>
      <trkpt lat="48.128" lon="17.09963">
        <ele>140.764231</ele>
        <time>2022-08-07T15:30:50.646Z</time>
      </trkpt>
      <trkpt lat="48.12809" lon="17.09963">
        <ele>140.780786</ele>
        <time>2022-08-07T15:30:54.356Z</time>
      </trkpt>
      <trkpt lat="48.12833" lon="17.09964">
        <ele>140.823611</ele>
        <time>2022-08-07T15:31:01.730Z</time>
      </trkpt>
      <trkpt lat="48.1284" lon="17.09964">
        <ele>140.837219</ele>
        <time>2022-08-07T15:31:04.098Z</time>
      </trkpt>
      <trkpt lat="48.12862" lon="17.09966">
        <ele>140.876798</ele>
        <time>2022-08-07T15:31:10.130Z</time>
      </trkpt>
      <trkpt lat="48.12867" lon="17.09975">
        <ele>140.891447</ele>
        <time>2022-08-07T15:31:11.912Z</time>
      </trkpt>
      <trkpt lat="48.1288" lon="17.09993">
        <ele>140.923563</ele>
        <time>2022-08-07T15:31:16.805Z</time>
      </trkpt>
      <trkpt lat="48.12928" lon="17.10017">
        <ele>141.017236</ele>
        <time>2022-08-07T15:31:29.573Z</time>
      </trkpt>
      <trkpt lat="48.12951" lon="17.10023">
        <ele>141.059278</ele>
        <time>2022-08-07T15:31:35.822Z</time>
      </trkpt>
      <trkpt lat="48.12959" lon="17.10022">
        <ele>141.058774</ele>
        <time>2022-08-07T15:31:38.475Z</time>
      </trkpt>
      <trkpt lat="48.12963" lon="17.1001">
        <ele>141.018799</ele>
        <time>2022-08-07T15:31:41.181Z</time>
      </trkpt>
      <trkpt lat="48.12962" lon="17.0999">
        <ele>140.955165</ele>
        <time>2022-08-07T15:31:46.541Z</time>
      </trkpt>
      <trkpt lat="48.12962" lon="17.09968">
        <ele>140.886594</ele>
        <time>2022-08-07T15:31:51.857Z</time>
      </trkpt>
      <trkpt lat="48.12962" lon="17.09952">
        <ele>140.838358</ele>
        <time>2022-08-07T15:31:54.857Z</time>
      </trkpt>
      <trkpt lat="48.1299" lon="17.09914">
        <ele>140.664913</ele>
        <time>2022-08-07T15:32:06.154Z</time>
      </trkpt>
      <trkpt lat="48.13014" lon="17.09916">
        <ele>140.554628</ele>
        <time>2022-08-07T15:32:12.337Z</time>
      </trkpt>
      <trkpt lat="48.13031" lon="17.09918">
        <ele>140.474243</ele>
        <time>2022-08-07T15:32:16.323Z</time>
      </trkpt>
      <trkpt lat="48.13057" lon="17.09923">
        <ele>140.353155</ele>
        <time>2022-08-07T15:32:24.379Z</time>
      </trkpt>
      <trkpt lat="48.13065" lon="17.09924">
        <ele>140.313799</ele>
        <time>2022-08-07T15:32:26.816Z</time>
      </trkpt>
      <trkpt lat="48.13074" lon="17.09924">
        <ele>140.272117</ele>
        <time>2022-08-07T15:32:29.420Z</time>
      </trkpt>
      <trkpt lat="48.1308" lon="17.09925">
        <ele>140.248511</ele>
        <time>2022-08-07T15:32:30.900Z</time>
      </trkpt>
      <trkpt lat="48.13084" lon="17.09925">
        <ele>140.217441</ele>
        <time>2022-08-07T15:32:32.173Z</time>
      </trkpt>
      <trkpt lat="48.13094" lon="17.09941">
        <ele>140.066098</ele>
        <time>2022-08-07T15:32:35.604Z</time>
      </trkpt>
      <trkpt lat="48.13094" lon="17.09947">
        <ele>140.029608</ele>
        <time>2022-08-07T15:32:36.354Z</time>
      </trkpt>
      <trkpt lat="48.13094" lon="17.09956">
        <ele>139.963289</ele>
        <time>2022-08-07T15:32:37.797Z</time>
      </trkpt>
      <trkpt lat="48.131" lon="17.09959">
        <ele>139.902738</ele>
        <time>2022-08-07T15:32:39.120Z</time>
      </trkpt>
      <trkpt lat="48.1315" lon="17.09961">
        <ele>139.391377</ele>
        <time>2022-08-07T15:32:50.484Z</time>
      </trkpt>
      <trkpt lat="48.13159" lon="17.09969">
        <ele>139.284489</ele>
        <time>2022-08-07T15:32:53.847Z</time>
      </trkpt>
      <trkpt lat="48.13158" lon="17.09988">
        <ele>139.1547</ele>
        <time>2022-08-07T15:32:58.099Z</time>
      </trkpt>
      <trkpt lat="48.13157" lon="17.09987">
        <ele>139.143486</ele>
        <time>2022-08-07T15:32:58.477Z</time>
      </trkpt>
      <trkpt lat="48.13155" lon="17.09981">
        <ele>139.097955</ele>
        <time>2022-08-07T15:33:00.014Z</time>
      </trkpt>
      <trkpt lat="48.13229" lon="17.09988">
        <ele>138.369036</ele>
        <time>2022-08-07T15:33:18.973Z</time>
      </trkpt>
      <trkpt lat="48.13235" lon="17.0999">
        <ele>138.327537</ele>
        <time>2022-08-07T15:33:20.346Z</time>
      </trkpt>
      <trkpt lat="48.13227" lon="17.1002">
        <ele>138.173189</ele>
        <time>2022-08-07T15:33:25.341Z</time>
      </trkpt>
      <trkpt lat="48.13226" lon="17.10052">
        <ele>138.022604</ele>
        <time>2022-08-07T15:33:30.089Z</time>
      </trkpt>
      <trkpt lat="48.13224" lon="17.10089">
        <ele>137.842459</ele>
        <time>2022-08-07T15:33:35.875Z</time>
      </trkpt>
      <trkpt lat="48.13221" lon="17.10099">
        <ele>137.78757</ele>
        <time>2022-08-07T15:33:37.724Z</time>
      </trkpt>
      <trkpt lat="48.1322" lon="17.10113">
        <ele>137.723113</ele>
        <time>2022-08-07T15:33:39.983Z</time>
      </trkpt>
      <trkpt lat="48.13216" lon="17.10242">
        <ele>137.114677</ele>
        <time>2022-08-07T15:34:02.211Z</time>
      </trkpt>
      <trkpt lat="48.13225" lon="17.10281">
        <ele>136.983704</ele>
        <time>2022-08-07T15:34:09.188Z</time>
      </trkpt>
      <trkpt lat="48.13253" lon="17.10329">
        <ele>136.779161</ele>
        <time>2022-08-07T15:34:19.886Z</time>
      </trkpt>
      <trkpt lat="48.1332" lon="17.10391">
        <ele>136.399892</ele>
        <time>2022-08-07T15:34:39.891Z</time>
      </trkpt>
      <trkpt lat="48.13353" lon="17.10413">
        <ele>136.312584</ele>
        <time>2022-08-07T15:34:49.606Z</time>
      </trkpt>
      <trkpt lat="48.1342" lon="17.10439">
        <ele>136.676779</ele>
        <time>2022-08-07T15:35:09.707Z</time>
      </trkpt>
      <trkpt lat="48.13476" lon="17.10442">
        <ele>136.974907</ele>
        <time>2022-08-07T15:35:27.319Z</time>
      </trkpt>
      <trkpt lat="48.13521" lon="17.10434">
        <ele>137.212188</ele>
        <time>2022-08-07T15:35:42.403Z</time>
      </trkpt>
      <trkpt lat="48.13549" lon="17.10448">
        <ele>137.440581</ele>
        <time>2022-08-07T15:35:52.042Z</time>
      </trkpt>
      <trkpt lat="48.13622" lon="17.10445">
        <ele>138.020791</ele>
        <time>2022-08-07T15:36:15.991Z</time>
      </trkpt>
      <trkpt lat="48.13648" lon="17.10441">
        <ele>138.219104</ele>
        <time>2022-08-07T15:36:24.347Z</time>
      </trkpt>
      <trkpt lat="48.13648" lon="17.10448">
        <ele>138.25286</ele>
        <time>2022-08-07T15:36:26.048Z</time>
      </trkpt>
      <trkpt lat="48.13649" lon="17.1046">
        <ele>138.315145</ele>
        <time>2022-08-07T15:36:28.404Z</time>
      </trkpt>
      <trkpt lat="48.13641" lon="17.1046">
        <ele>138.375756</ele>
        <time>2022-08-07T15:36:30.739Z</time>
      </trkpt>
      <trkpt lat="48.13641" lon="17.1045">
        <ele>138.426169</ele>
        <time>2022-08-07T15:36:32.828Z</time>
      </trkpt>
      <trkpt lat="48.13928" lon="17.10433">
        <ele>138.629191</ele>
        <time>2022-08-07T15:37:47.725Z</time>
      </trkpt>
    </trkseg>
  </trk>
  <trk>
    <name><![CDATA[6_Bratislava à Munich_571km]]></name>
    <extensions>
      <line xmlns="http://www.topografix.com/GPX/gpx_style/0/2">
        <color>00FF00</color>
        <width>4</width>
      </line>
    </extensions>
    <trkseg>
      <trkpt lat="48.13928" lon="17.10433">
        <ele>138.744896</ele>
        <time>2022-09-11T12:39:10.811Z</time>
      </trkpt>
      <trkpt lat="48.13641" lon="17.1045">
        <ele>139.198536</ele>
        <time>2022-09-11T12:40:32.722Z</time>
      </trkpt>
      <trkpt lat="48.13641" lon="17.1046">
        <ele>139.158866</ele>
        <time>2022-09-11T12:40:34.246Z</time>
      </trkpt>
      <trkpt lat="48.13649" lon="17.1046">
        <ele>139.11117</ele>
        <time>2022-09-11T12:40:36.114Z</time>
      </trkpt>
      <trkpt lat="48.13648" lon="17.10448">
        <ele>139.062158</ele>
        <time>2022-09-11T12:40:37.958Z</time>
      </trkpt>
      <trkpt lat="48.13648" lon="17.10441">
        <ele>139.035595</ele>
        <time>2022-09-11T12:40:39.341Z</time>
      </trkpt>
      <trkpt lat="48.13652" lon="17.10441">
        <ele>139.005074</ele>
        <time>2022-09-11T12:40:40.774Z</time>
      </trkpt>
      <trkpt lat="48.13654" lon="17.1044">
        <ele>138.994475</ele>
        <time>2022-09-11T12:40:41.296Z</time>
      </trkpt>
      <trkpt lat="48.13634" lon="17.10243">
        <ele>138.163102</ele>
        <time>2022-09-11T12:41:12.914Z</time>
      </trkpt>
      <trkpt lat="48.13618" lon="17.10199">
        <ele>137.874379</ele>
        <time>2022-09-11T12:41:20.240Z</time>
      </trkpt>
      <trkpt lat="48.13611" lon="17.10173">
        <ele>137.719103</ele>
        <time>2022-09-11T12:41:24.240Z</time>
      </trkpt>
      <trkpt lat="48.13604" lon="17.10115">
        <ele>137.3829</ele>
        <time>2022-09-11T12:41:33.084Z</time>
      </trkpt>
      <trkpt lat="48.13608" lon="17.09994">
        <ele>136.692346</ele>
        <time>2022-09-11T12:41:53.086Z</time>
      </trkpt>
      <trkpt lat="48.13608" lon="17.09974">
        <ele>136.695998</ele>
        <time>2022-09-11T12:41:56.464Z</time>
      </trkpt>
      <trkpt lat="48.13612" lon="17.09805">
        <ele>137.127562</ele>
        <time>2022-09-11T12:42:27.312Z</time>
      </trkpt>
      <trkpt lat="48.13604" lon="17.09749">
        <ele>137.272822</ele>
        <time>2022-09-11T12:42:39.297Z</time>
      </trkpt>
      <trkpt lat="48.13576" lon="17.09636">
        <ele>137.812559</ele>
        <time>2022-09-11T12:43:05.698Z</time>
      </trkpt>
      <trkpt lat="48.13571" lon="17.09592">
        <ele>138.038576</ele>
        <time>2022-09-11T12:43:14.976Z</time>
      </trkpt>
      <trkpt lat="48.13567" lon="17.09516">
        <ele>138.425649</ele>
        <time>2022-09-11T12:43:30.378Z</time>
      </trkpt>
      <trkpt lat="48.13572" lon="17.09439">
        <ele>138.688613</ele>
        <time>2022-09-11T12:43:45.172Z</time>
      </trkpt>
      <trkpt lat="48.13739" lon="17.08482">
        <ele>137.43441</ele>
        <time>2022-09-11T12:46:33.987Z</time>
      </trkpt>
      <trkpt lat="48.13822" lon="17.0809">
        <ele>137.431549</ele>
        <time>2022-09-11T12:47:48.777Z</time>
      </trkpt>
      <trkpt lat="48.13853" lon="17.07936">
        <ele>137.226356</ele>
        <time>2022-09-11T12:48:15.829Z</time>
      </trkpt>
      <trkpt lat="48.1386" lon="17.0781">
        <ele>137.48748</ele>
        <time>2022-09-11T12:48:37.256Z</time>
      </trkpt>
      <trkpt lat="48.1385" lon="17.07691">
        <ele>137.900439</ele>
        <time>2022-09-11T12:49:01.034Z</time>
      </trkpt>
      <trkpt lat="48.13821" lon="17.07536">
        <ele>138.810688</ele>
        <time>2022-09-11T12:49:37.024Z</time>
      </trkpt>
      <trkpt lat="48.13811" lon="17.07487">
        <ele>139.167789</ele>
        <time>2022-09-11T12:49:48.180Z</time>
      </trkpt>
      <trkpt lat="48.13809" lon="17.0748">
        <ele>139.217945</ele>
        <time>2022-09-11T12:49:49.883Z</time>
      </trkpt>
      <trkpt lat="48.13793" lon="17.07436">
        <ele>139.569567</ele>
        <time>2022-09-11T12:50:01.040Z</time>
      </trkpt>
      <trkpt lat="48.13792" lon="17.07433">
        <ele>139.596203</ele>
        <time>2022-09-11T12:50:01.940Z</time>
      </trkpt>
      <trkpt lat="48.13787" lon="17.07427">
        <ele>139.658216</ele>
        <time>2022-09-11T12:50:03.810Z</time>
      </trkpt>
      <trkpt lat="48.13768" lon="17.07409">
        <ele>139.893041</ele>
        <time>2022-09-11T12:50:10.795Z</time>
      </trkpt>
      <trkpt lat="48.13747" lon="17.074">
        <ele>139.940418</ele>
        <time>2022-09-11T12:50:17.281Z</time>
      </trkpt>
      <trkpt lat="48.12792" lon="17.07377">
        <ele>137.254065</ele>
        <time>2022-09-11T12:54:18.956Z</time>
      </trkpt>
      <trkpt lat="48.12739" lon="17.07373">
        <ele>137.121474</ele>
        <time>2022-09-11T12:54:32.572Z</time>
      </trkpt>
      <trkpt lat="48.12672" lon="17.07358">
        <ele>136.968276</ele>
        <time>2022-09-11T12:54:49.853Z</time>
      </trkpt>
      <trkpt lat="48.12604" lon="17.07326">
        <ele>136.892672</ele>
        <time>2022-09-11T12:55:08.536Z</time>
      </trkpt>
      <trkpt lat="48.12551" lon="17.07288">
        <ele>136.83013</ele>
        <time>2022-09-11T12:55:24.119Z</time>
      </trkpt>
      <trkpt lat="48.12493" lon="17.07234">
        <ele>136.746264</ele>
        <time>2022-09-11T12:55:42.051Z</time>
      </trkpt>
      <trkpt lat="48.12461" lon="17.07195">
        <ele>136.686267</ele>
        <time>2022-09-11T12:55:52.848Z</time>
      </trkpt>
      <trkpt lat="48.12401" lon="17.07101">
        <ele>136.559261</ele>
        <time>2022-09-11T12:56:15.631Z</time>
      </trkpt>
      <trkpt lat="48.12337" lon="17.06949">
        <ele>136.432609</ele>
        <time>2022-09-11T12:56:46.413Z</time>
      </trkpt>
      <trkpt lat="48.12323" lon="17.06896">
        <ele>136.395934</ele>
        <time>2022-09-11T12:56:56.357Z</time>
      </trkpt>
      <trkpt lat="48.12306" lon="17.06804">
        <ele>136.413162</ele>
        <time>2022-09-11T12:57:13.404Z</time>
      </trkpt>
      <trkpt lat="48.12246" lon="17.0634">
        <ele>137.441906</ele>
        <time>2022-09-11T12:58:43.096Z</time>
      </trkpt>
      <trkpt lat="48.12243" lon="17.06247">
        <ele>137.56424</ele>
        <time>2022-09-11T12:59:00.577Z</time>
      </trkpt>
      <trkpt lat="48.12242" lon="17.06231">
        <ele>137.574423</ele>
        <time>2022-09-11T12:59:03.583Z</time>
      </trkpt>
      <trkpt lat="48.12242" lon="17.06217">
        <ele>137.582807</ele>
        <time>2022-09-11T12:59:06.136Z</time>
      </trkpt>
      <trkpt lat="48.12224" lon="17.05696">
        <ele>137.6265</ele>
        <time>2022-09-11T13:00:39.485Z</time>
      </trkpt>
      <trkpt lat="48.12195" lon="17.05635">
        <ele>137.558405</ele>
        <time>2022-09-11T13:00:52.230Z</time>
      </trkpt>
      <trkpt lat="48.12194" lon="17.05622">
        <ele>137.546151</ele>
        <time>2022-09-11T13:00:54.442Z</time>
      </trkpt>
      <trkpt lat="48.12187" lon="17.05548">
        <ele>137.47793</ele>
        <time>2022-09-11T13:01:07.100Z</time>
      </trkpt>
      <trkpt lat="48.12162" lon="17.04916">
        <ele>136.708412</ele>
        <time>2022-09-11T13:02:56.244Z</time>
      </trkpt>
      <trkpt lat="48.1216" lon="17.0484">
        <ele>136.70543</ele>
        <time>2022-09-11T13:03:09.877Z</time>
      </trkpt>
      <trkpt lat="48.12169" lon="17.04707">
        <ele>136.700172</ele>
        <time>2022-09-11T13:03:34.011Z</time>
      </trkpt>
      <trkpt lat="48.122" lon="17.04562">
        <ele>136.702194</ele>
        <time>2022-09-11T13:04:01.336Z</time>
      </trkpt>
      <trkpt lat="48.12224" lon="17.04478">
        <ele>136.703557</ele>
        <time>2022-09-11T13:04:17.566Z</time>
      </trkpt>
      <trkpt lat="48.12251" lon="17.04407">
        <ele>136.716668</ele>
        <time>2022-09-11T13:04:31.876Z</time>
      </trkpt>
      <trkpt lat="48.12343" lon="17.04117">
        <ele>136.810161</ele>
        <time>2022-09-11T13:05:29.668Z</time>
      </trkpt>
      <trkpt lat="48.12364" lon="17.04062">
        <ele>136.834777</ele>
        <time>2022-09-11T13:05:41.123Z</time>
      </trkpt>
      <trkpt lat="48.12498" lon="17.03639">
        <ele>136.875965</ele>
        <time>2022-09-11T13:07:04.272Z</time>
      </trkpt>
      <trkpt lat="48.12525" lon="17.03569">
        <ele>136.92272</ele>
        <time>2022-09-11T13:07:18.879Z</time>
      </trkpt>
      <trkpt lat="48.12542" lon="17.03505">
        <ele>136.962439</ele>
        <time>2022-09-11T13:07:31.418Z</time>
      </trkpt>
      <trkpt lat="48.12699" lon="17.03026">
        <ele>138.269847</ele>
        <time>2022-09-11T13:09:12.323Z</time>
      </trkpt>
      <trkpt lat="48.12916" lon="17.0236">
        <ele>142.568396</ele>
        <time>2022-09-11T13:11:45.649Z</time>
      </trkpt>
      <trkpt lat="48.12968" lon="17.02248">
        <ele>143.246603</ele>
        <time>2022-09-11T13:12:13.823Z</time>
      </trkpt>
      <trkpt lat="48.13034" lon="17.02143">
        <ele>143.641419</ele>
        <time>2022-09-11T13:12:42.485Z</time>
      </trkpt>
      <trkpt lat="48.13044" lon="17.02138">
        <ele>143.687056</ele>
        <time>2022-09-11T13:12:45.227Z</time>
      </trkpt>
      <trkpt lat="48.13072" lon="17.02146">
        <ele>143.802102</ele>
        <time>2022-09-11T13:12:53.560Z</time>
      </trkpt>
      <trkpt lat="48.1314" lon="17.02033">
        <ele>143.734247</ele>
        <time>2022-09-11T13:13:20.546Z</time>
      </trkpt>
      <trkpt lat="48.13264" lon="17.01749">
        <ele>143.794073</ele>
        <time>2022-09-11T13:14:22.395Z</time>
      </trkpt>
      <trkpt lat="48.1331" lon="17.01682">
        <ele>144.084486</ele>
        <time>2022-09-11T13:14:42.234Z</time>
      </trkpt>
      <trkpt lat="48.13345" lon="17.016">
        <ele>144.996367</ele>
        <time>2022-09-11T13:15:03.838Z</time>
      </trkpt>
      <trkpt lat="48.13339" lon="17.0159">
        <ele>145.125551</ele>
        <time>2022-09-11T13:15:07.140Z</time>
      </trkpt>
      <trkpt lat="48.13336" lon="17.01586">
        <ele>145.184994</ele>
        <time>2022-09-11T13:15:08.782Z</time>
      </trkpt>
      <trkpt lat="48.13379" lon="17.01502">
        <ele>146.177463</ele>
        <time>2022-09-11T13:15:33.329Z</time>
      </trkpt>
      <trkpt lat="48.13392" lon="17.01456">
        <ele>146.593412</ele>
        <time>2022-09-11T13:15:45.226Z</time>
      </trkpt>
      <trkpt lat="48.134" lon="17.01412">
        <ele>146.927073</ele>
        <time>2022-09-11T13:15:56.169Z</time>
      </trkpt>
      <trkpt lat="48.13404" lon="17.01386">
        <ele>147.119089</ele>
        <time>2022-09-11T13:16:02.485Z</time>
      </trkpt>
      <trkpt lat="48.13435" lon="17.01249">
        <ele>148.179</ele>
        <time>2022-09-11T13:16:32.518Z</time>
      </trkpt>
      <trkpt lat="48.13461" lon="17.01181">
        <ele>148.269704</ele>
        <time>2022-09-11T13:16:47.042Z</time>
      </trkpt>
      <trkpt lat="48.13479" lon="17.01147">
        <ele>148.181427</ele>
        <time>2022-09-11T13:16:54.080Z</time>
      </trkpt>
      <trkpt lat="48.1357" lon="17.0098">
        <ele>147.846257</ele>
        <time>2022-09-11T13:17:29.100Z</time>
      </trkpt>
      <trkpt lat="48.13593" lon="17.00927">
        <ele>147.889676</ele>
        <time>2022-09-11T13:17:40.080Z</time>
      </trkpt>
      <trkpt lat="48.13647" lon="17.00799">
        <ele>147.992882</ele>
        <time>2022-09-11T13:18:08.779Z</time>
      </trkpt>
      <trkpt lat="48.13663" lon="17.00763">
        <ele>148.025479</ele>
        <time>2022-09-11T13:18:17.340Z</time>
      </trkpt>
      <trkpt lat="48.13678" lon="17.00713">
        <ele>148.069109</ele>
        <time>2022-09-11T13:18:28.290Z</time>
      </trkpt>
      <trkpt lat="48.13688" lon="17.00669">
        <ele>148.106049</ele>
        <time>2022-09-11T13:18:37.312Z</time>
      </trkpt>
      <trkpt lat="48.13703" lon="17.00602">
        <ele>148.162074</ele>
        <time>2022-09-11T13:18:50.173Z</time>
      </trkpt>
      <trkpt lat="48.13719" lon="17.00536">
        <ele>148.210648</ele>
        <time>2022-09-11T13:19:01.827Z</time>
      </trkpt>
      <trkpt lat="48.13761" lon="17.00408">
        <ele>147.62036</ele>
        <time>2022-09-11T13:19:24.278Z</time>
      </trkpt>
      <trkpt lat="48.13768" lon="17.00378">
        <ele>147.491841</ele>
        <time>2022-09-11T13:19:29.190Z</time>
      </trkpt>
      <trkpt lat="48.13776" lon="17.00316">
        <ele>147.229662</ele>
        <time>2022-09-11T13:19:39.543Z</time>
      </trkpt>
      <trkpt lat="48.13782" lon="17.00269">
        <ele>147.101544</ele>
        <time>2022-09-11T13:19:47.448Z</time>
      </trkpt>
      <trkpt lat="48.13792" lon="17.00109">
        <ele>147.064122</ele>
        <time>2022-09-11T13:20:15.739Z</time>
      </trkpt>
      <trkpt lat="48.13798" lon="17.00065">
        <ele>147.053475</ele>
        <time>2022-09-11T13:20:24.392Z</time>
      </trkpt>
      <trkpt lat="48.13805" lon="17.00027">
        <ele>147.044409</ele>
        <time>2022-09-11T13:20:31.937Z</time>
      </trkpt>
      <trkpt lat="48.13811" lon="16.99997">
        <ele>147.016452</ele>
        <time>2022-09-11T13:20:37.868Z</time>
      </trkpt>
      <trkpt lat="48.13931" lon="16.99601">
        <ele>146.337257</ele>
        <time>2022-09-11T13:21:51.846Z</time>
      </trkpt>
      <trkpt lat="48.1396" lon="16.99493">
        <ele>146.074223</ele>
        <time>2022-09-11T13:22:11.170Z</time>
      </trkpt>
      <trkpt lat="48.13983" lon="16.99496">
        <ele>145.98973</ele>
        <time>2022-09-11T13:22:16.834Z</time>
      </trkpt>
      <trkpt lat="48.13994" lon="16.9948">
        <ele>145.934626</ele>
        <time>2022-09-11T13:22:20.640Z</time>
      </trkpt>
      <trkpt lat="48.14003" lon="16.99413">
        <ele>145.7683</ele>
        <time>2022-09-11T13:22:31.841Z</time>
      </trkpt>
      <trkpt lat="48.14025" lon="16.99354">
        <ele>145.605017</ele>
        <time>2022-09-11T13:22:43.134Z</time>
      </trkpt>
      <trkpt lat="48.14061" lon="16.99171">
        <ele>145.759046</ele>
        <time>2022-09-11T13:23:17.891Z</time>
      </trkpt>
      <trkpt lat="48.14073" lon="16.99132">
        <ele>145.830043</ele>
        <time>2022-09-11T13:23:26.363Z</time>
      </trkpt>
      <trkpt lat="48.14182" lon="16.98805">
        <ele>146.947804</ele>
        <time>2022-09-11T13:24:37.083Z</time>
      </trkpt>
      <trkpt lat="48.14207" lon="16.98639">
        <ele>147.836074</ele>
        <time>2022-09-11T13:25:10.224Z</time>
      </trkpt>
      <trkpt lat="48.14319" lon="16.98151">
        <ele>152.277114</ele>
        <time>2022-09-11T13:27:04.716Z</time>
      </trkpt>
      <trkpt lat="48.14336" lon="16.98119">
        <ele>152.672921</ele>
        <time>2022-09-11T13:27:14.019Z</time>
      </trkpt>
      <trkpt lat="48.14335" lon="16.98077">
        <ele>153.070056</ele>
        <time>2022-09-11T13:27:23.395Z</time>
      </trkpt>
      <trkpt lat="48.1439" lon="16.97702">
        <ele>157.517168</ele>
        <time>2022-09-11T13:28:52.398Z</time>
      </trkpt>
      <trkpt lat="48.14429" lon="16.97498">
        <ele>160.322612</ele>
        <time>2022-09-11T13:29:44.951Z</time>
      </trkpt>
      <trkpt lat="48.14437" lon="16.97425">
        <ele>161.248908</ele>
        <time>2022-09-11T13:30:03.231Z</time>
      </trkpt>
      <trkpt lat="48.14443" lon="16.97229">
        <ele>163.55136</ele>
        <time>2022-09-11T13:30:48.822Z</time>
      </trkpt>
      <trkpt lat="48.14455" lon="16.97117">
        <ele>164.512049</ele>
        <time>2022-09-11T13:31:13.625Z</time>
      </trkpt>
      <trkpt lat="48.1449" lon="16.96952">
        <ele>165.868357</ele>
        <time>2022-09-11T13:31:50.480Z</time>
      </trkpt>
      <trkpt lat="48.14572" lon="16.96645">
        <ele>168.150476</ele>
        <time>2022-09-11T13:32:59.363Z</time>
      </trkpt>
      <trkpt lat="48.14578" lon="16.96638">
        <ele>168.236342</ele>
        <time>2022-09-11T13:33:01.766Z</time>
      </trkpt>
      <trkpt lat="48.14885" lon="16.96714">
        <ele>171.92787</ele>
        <time>2022-09-11T13:34:43.815Z</time>
      </trkpt>
      <trkpt lat="48.14863" lon="16.96592">
        <ele>172.678969</ele>
        <time>2022-09-11T13:35:10.507Z</time>
      </trkpt>
      <trkpt lat="48.14788" lon="16.96275">
        <ele>173.776913</ele>
        <time>2022-09-11T13:36:16.132Z</time>
      </trkpt>
      <trkpt lat="48.14681" lon="16.95848">
        <ele>172.015994</ele>
        <time>2022-09-11T13:37:29.872Z</time>
      </trkpt>
      <trkpt lat="48.14669" lon="16.95786">
        <ele>171.674924</ele>
        <time>2022-09-11T13:37:39.916Z</time>
      </trkpt>
      <trkpt lat="48.14664" lon="16.95719">
        <ele>171.186011</ele>
        <time>2022-09-11T13:37:50.266Z</time>
      </trkpt>
      <trkpt lat="48.14657" lon="16.95702">
        <ele>170.979467</ele>
        <time>2022-09-11T13:37:53.380Z</time>
      </trkpt>
      <trkpt lat="48.1468" lon="16.95535">
        <ele>169.265416</ele>
        <time>2022-09-11T13:38:18.511Z</time>
      </trkpt>
      <trkpt lat="48.14709" lon="16.95306">
        <ele>166.132268</ele>
        <time>2022-09-11T13:38:51.201Z</time>
      </trkpt>
      <trkpt lat="48.14726" lon="16.95163">
        <ele>163.973903</ele>
        <time>2022-09-11T13:39:10.994Z</time>
      </trkpt>
      <trkpt lat="48.14736" lon="16.95129">
        <ele>163.38676</ele>
        <time>2022-09-11T13:39:16.024Z</time>
      </trkpt>
      <trkpt lat="48.14777" lon="16.94992">
        <ele>161.009836</ele>
        <time>2022-09-11T13:39:36.594Z</time>
      </trkpt>
      <trkpt lat="48.14797" lon="16.94925">
        <ele>160.073102</ele>
        <time>2022-09-11T13:39:46.779Z</time>
      </trkpt>
      <trkpt lat="48.14867" lon="16.94789">
        <ele>158.130829</ele>
        <time>2022-09-11T13:40:11.979Z</time>
      </trkpt>
      <trkpt lat="48.14916" lon="16.94834">
        <ele>157.172912</ele>
        <time>2022-09-11T13:40:24.724Z</time>
      </trkpt>
      <trkpt lat="48.14995" lon="16.94632">
        <ele>154.62105</ele>
        <time>2022-09-11T13:40:58.766Z</time>
      </trkpt>
      <trkpt lat="48.15014" lon="16.94583">
        <ele>153.85829</ele>
        <time>2022-09-11T13:41:06.937Z</time>
      </trkpt>
      <trkpt lat="48.15028" lon="16.94546">
        <ele>153.274793</ele>
        <time>2022-09-11T13:41:12.782Z</time>
      </trkpt>
      <trkpt lat="48.15031" lon="16.94517">
        <ele>152.880631</ele>
        <time>2022-09-11T13:41:16.623Z</time>
      </trkpt>
      <trkpt lat="48.15025" lon="16.94504">
        <ele>152.658798</ele>
        <time>2022-09-11T13:41:18.822Z</time>
      </trkpt>
      <trkpt lat="48.14986" lon="16.94491">
        <ele>151.858399</ele>
        <time>2022-09-11T13:41:27.420Z</time>
      </trkpt>
      <trkpt lat="48.14988" lon="16.94468">
        <ele>151.549336</ele>
        <time>2022-09-11T13:41:30.779Z</time>
      </trkpt>
      <trkpt lat="48.14994" lon="16.94437">
        <ele>151.109219</ele>
        <time>2022-09-11T13:41:35.604Z</time>
      </trkpt>
      <trkpt lat="48.14998" lon="16.94432">
        <ele>151.003886</ele>
        <time>2022-09-11T13:41:36.769Z</time>
      </trkpt>
      <trkpt lat="48.15012" lon="16.94422">
        <ele>150.827918</ele>
        <time>2022-09-11T13:41:40.361Z</time>
      </trkpt>
      <trkpt lat="48.15038" lon="16.94404">
        <ele>150.521327</ele>
        <time>2022-09-11T13:41:46.907Z</time>
      </trkpt>
      <trkpt lat="48.15039" lon="16.94389">
        <ele>150.416297</ele>
        <time>2022-09-11T13:41:49.148Z</time>
      </trkpt>
      <trkpt lat="48.15039" lon="16.94387">
        <ele>150.400475</ele>
        <time>2022-09-11T13:41:49.472Z</time>
      </trkpt>
      <trkpt lat="48.15037" lon="16.94377">
        <ele>150.328779</ele>
        <time>2022-09-11T13:41:51.023Z</time>
      </trkpt>
      <trkpt lat="48.15003" lon="16.94301">
        <ele>149.671611</ele>
        <time>2022-09-11T13:42:05.038Z</time>
      </trkpt>
      <trkpt lat="48.14998" lon="16.94267">
        <ele>149.421092</ele>
        <time>2022-09-11T13:42:10.216Z</time>
      </trkpt>
      <trkpt lat="48.14992" lon="16.9424">
        <ele>149.217155</ele>
        <time>2022-09-11T13:42:14.590Z</time>
      </trkpt>
      <trkpt lat="48.14983" lon="16.94208">
        <ele>149.12029</ele>
        <time>2022-09-11T13:42:20.385Z</time>
      </trkpt>
      <trkpt lat="48.14968" lon="16.94167">
        <ele>149.339452</ele>
        <time>2022-09-11T13:42:29.562Z</time>
      </trkpt>
      <trkpt lat="48.14938" lon="16.94086">
        <ele>149.774266</ele>
        <time>2022-09-11T13:42:48.377Z</time>
      </trkpt>
      <trkpt lat="48.14915" lon="16.94024">
        <ele>150.1038</ele>
        <time>2022-09-11T13:43:03.330Z</time>
      </trkpt>
      <trkpt lat="48.14879" lon="16.93925">
        <ele>150.50779</ele>
        <time>2022-09-11T13:43:28.839Z</time>
      </trkpt>
      <trkpt lat="48.14812" lon="16.93758">
        <ele>151.05443</ele>
        <time>2022-09-11T13:44:04.854Z</time>
      </trkpt>
      <trkpt lat="48.14809" lon="16.9375">
        <ele>151.071402</ele>
        <time>2022-09-11T13:44:06.432Z</time>
      </trkpt>
      <trkpt lat="48.14796" lon="16.93729">
        <ele>150.852006</ele>
        <time>2022-09-11T13:44:11.201Z</time>
      </trkpt>
      <trkpt lat="48.14769" lon="16.93684">
        <ele>150.367324</ele>
        <time>2022-09-11T13:44:20.970Z</time>
      </trkpt>
      <trkpt lat="48.14651" lon="16.93487">
        <ele>148.200597</ele>
        <time>2022-09-11T13:44:59.513Z</time>
      </trkpt>
      <trkpt lat="48.14637" lon="16.93442">
        <ele>147.770369</ele>
        <time>2022-09-11T13:45:06.951Z</time>
      </trkpt>
      <trkpt lat="48.14545" lon="16.93246">
        <ele>145.862433</ele>
        <time>2022-09-11T13:45:43.561Z</time>
      </trkpt>
      <trkpt lat="48.1453" lon="16.93189">
        <ele>145.441483</ele>
        <time>2022-09-11T13:45:52.971Z</time>
      </trkpt>
      <trkpt lat="48.14524" lon="16.93144">
        <ele>145.120213</ele>
        <time>2022-09-11T13:46:00.074Z</time>
      </trkpt>
      <trkpt lat="48.14524" lon="16.93109">
        <ele>144.877643</ele>
        <time>2022-09-11T13:46:05.408Z</time>
      </trkpt>
      <trkpt lat="48.14522" lon="16.92879">
        <ele>143.470555</ele>
        <time>2022-09-11T13:46:40.634Z</time>
      </trkpt>
      <trkpt lat="48.1453" lon="16.92745">
        <ele>143.147666</ele>
        <time>2022-09-11T13:47:03.056Z</time>
      </trkpt>
      <trkpt lat="48.14537" lon="16.92512">
        <ele>143.247302</ele>
        <time>2022-09-11T13:47:47.422Z</time>
      </trkpt>
      <trkpt lat="48.14519" lon="16.92416">
        <ele>143.162961</ele>
        <time>2022-09-11T13:48:05.542Z</time>
      </trkpt>
      <trkpt lat="48.1452" lon="16.92329">
        <ele>143.088995</ele>
        <time>2022-09-11T13:48:20.257Z</time>
      </trkpt>
      <trkpt lat="48.14527" lon="16.92179">
        <ele>142.632804</ele>
        <time>2022-09-11T13:48:44.310Z</time>
      </trkpt>
      <trkpt lat="48.14518" lon="16.91894">
        <ele>141.785538</ele>
        <time>2022-09-11T13:49:30.487Z</time>
      </trkpt>
      <trkpt lat="48.14515" lon="16.91425">
        <ele>142.084898</ele>
        <time>2022-09-11T13:50:55.221Z</time>
      </trkpt>
      <trkpt lat="48.14509" lon="16.91372">
        <ele>142.4511</ele>
        <time>2022-09-11T13:51:05.907Z</time>
      </trkpt>
      <trkpt lat="48.14496" lon="16.91301">
        <ele>142.959691</ele>
        <time>2022-09-11T13:51:21.614Z</time>
      </trkpt>
      <trkpt lat="48.14484" lon="16.91266">
        <ele>143.226644</ele>
        <time>2022-09-11T13:51:30.201Z</time>
      </trkpt>
      <trkpt lat="48.14371" lon="16.90976">
        <ele>147.186604</ele>
        <time>2022-09-11T13:52:51.453Z</time>
      </trkpt>
      <trkpt lat="48.14363" lon="16.90957">
        <ele>147.414402</ele>
        <time>2022-09-11T13:52:57.014Z</time>
      </trkpt>
      <trkpt lat="48.14349" lon="16.90958">
        <ele>147.630242</ele>
        <time>2022-09-11T13:53:01.674Z</time>
      </trkpt>
      <trkpt lat="48.14279" lon="16.90993">
        <ele>148.739151</ele>
        <time>2022-09-11T13:53:27.088Z</time>
      </trkpt>
      <trkpt lat="48.14256" lon="16.90998">
        <ele>149.078166</ele>
        <time>2022-09-11T13:53:35.110Z</time>
      </trkpt>
      <trkpt lat="48.14206" lon="16.9101">
        <ele>149.816226</ele>
        <time>2022-09-11T13:53:51.046Z</time>
      </trkpt>
      <trkpt lat="48.14178" lon="16.91025">
        <ele>150.16757</ele>
        <time>2022-09-11T13:54:00.251Z</time>
      </trkpt>
      <trkpt lat="48.14166" lon="16.91034">
        <ele>150.318794</ele>
        <time>2022-09-11T13:54:04.369Z</time>
      </trkpt>
      <trkpt lat="48.1417" lon="16.91071">
        <ele>150.605885</ele>
        <time>2022-09-11T13:54:12.315Z</time>
      </trkpt>
      <trkpt lat="48.14157" lon="16.9108">
        <ele>150.77306</ele>
        <time>2022-09-11T13:54:17.190Z</time>
      </trkpt>
      <trkpt lat="48.14153" lon="16.91168">
        <ele>151.454712</ele>
        <time>2022-09-11T13:54:36.891Z</time>
      </trkpt>
      <trkpt lat="48.14152" lon="16.9118">
        <ele>151.549727</ele>
        <time>2022-09-11T13:54:39.551Z</time>
      </trkpt>
      <trkpt lat="48.14053" lon="16.91236">
        <ele>152.277538</ele>
        <time>2022-09-11T13:55:12.491Z</time>
      </trkpt>
      <trkpt lat="48.14134" lon="16.9116">
        <ele>152.794666</ele>
        <time>2022-09-11T13:55:39.950Z</time>
      </trkpt>
      <trkpt lat="48.14785" lon="16.90709">
        <ele>150.004158</ele>
        <time>2022-09-11T13:58:38.731Z</time>
      </trkpt>
      <trkpt lat="48.15689" lon="16.90083">
        <ele>145.938182</ele>
        <time>2022-09-11T14:02:47.632Z</time>
      </trkpt>
      <trkpt lat="48.15743" lon="16.90044">
        <ele>145.656434</ele>
        <time>2022-09-11T14:03:02.197Z</time>
      </trkpt>
      <trkpt lat="48.15745" lon="16.90048">
        <ele>145.641994</ele>
        <time>2022-09-11T14:03:03.188Z</time>
      </trkpt>
      <trkpt lat="48.15705" lon="16.90094">
        <ele>145.467696</ele>
        <time>2022-09-11T14:03:15.537Z</time>
      </trkpt>
      <trkpt lat="48.15674" lon="16.90116">
        <ele>145.394711</ele>
        <time>2022-09-11T14:03:24.150Z</time>
      </trkpt>
      <trkpt lat="48.15657" lon="16.90085">
        <ele>145.33885</ele>
        <time>2022-09-11T14:03:30.882Z</time>
      </trkpt>
      <trkpt lat="48.15653" lon="16.90084">
        <ele>145.329855</ele>
        <time>2022-09-11T14:03:31.908Z</time>
      </trkpt>
      <trkpt lat="48.15632" lon="16.90073">
        <ele>145.283273</ele>
        <time>2022-09-11T14:03:37.236Z</time>
      </trkpt>
      <trkpt lat="48.15169" lon="16.89242">
        <ele>146.283346</ele>
        <time>2022-09-11T14:06:56.987Z</time>
      </trkpt>
      <trkpt lat="48.14929" lon="16.88806">
        <ele>146.117466</ele>
        <time>2022-09-11T14:08:35.970Z</time>
      </trkpt>
      <trkpt lat="48.14749" lon="16.88466">
        <ele>146.049884</ele>
        <time>2022-09-11T14:09:52.892Z</time>
      </trkpt>
      <trkpt lat="48.14664" lon="16.883">
        <ele>146.293688</ele>
        <time>2022-09-11T14:10:30.121Z</time>
      </trkpt>
      <trkpt lat="48.14615" lon="16.88215">
        <ele>146.939477</ele>
        <time>2022-09-11T14:10:53.256Z</time>
      </trkpt>
      <trkpt lat="48.14603" lon="16.88206">
        <ele>147.058338</ele>
        <time>2022-09-11T14:10:57.953Z</time>
      </trkpt>
      <trkpt lat="48.14601" lon="16.88305">
        <ele>147.631854</ele>
        <time>2022-09-11T14:11:20.335Z</time>
      </trkpt>
      <trkpt lat="48.14592" lon="16.88304">
        <ele>147.706074</ele>
        <time>2022-09-11T14:11:23.464Z</time>
      </trkpt>
      <trkpt lat="48.14577" lon="16.8828">
        <ele>147.885325</ele>
        <time>2022-09-11T14:11:30.663Z</time>
      </trkpt>
      <trkpt lat="48.14444" lon="16.87987">
        <ele>148.818076</ele>
        <time>2022-09-11T14:12:41.650Z</time>
      </trkpt>
      <trkpt lat="48.14252" lon="16.87536">
        <ele>145.771153</ele>
        <time>2022-09-11T14:14:11.735Z</time>
      </trkpt>
      <trkpt lat="48.14139" lon="16.87227">
        <ele>145.731653</ele>
        <time>2022-09-11T14:15:23.900Z</time>
      </trkpt>
      <trkpt lat="48.14017" lon="16.86845">
        <ele>146.36445</ele>
        <time>2022-09-11T14:16:55.703Z</time>
      </trkpt>
      <trkpt lat="48.13935" lon="16.86569">
        <ele>144.773868</ele>
        <time>2022-09-11T14:17:45.994Z</time>
      </trkpt>
      <trkpt lat="48.13886" lon="16.864">
        <ele>143.982588</ele>
        <time>2022-09-11T14:18:19.735Z</time>
      </trkpt>
      <trkpt lat="48.13837" lon="16.86169">
        <ele>144.315077</ele>
        <time>2022-09-11T14:19:11.208Z</time>
      </trkpt>
      <trkpt lat="48.1375" lon="16.85709">
        <ele>144.764263</ele>
        <time>2022-09-11T14:20:47.073Z</time>
      </trkpt>
      <trkpt lat="48.13668" lon="16.85078">
        <ele>145.847867</ele>
        <time>2022-09-11T14:23:00.207Z</time>
      </trkpt>
      <trkpt lat="48.13663" lon="16.85038">
        <ele>145.882473</ele>
        <time>2022-09-11T14:23:07.730Z</time>
      </trkpt>
      <trkpt lat="48.13574" lon="16.84201">
        <ele>146.259162</ele>
        <time>2022-09-11T14:25:41.263Z</time>
      </trkpt>
      <trkpt lat="48.13533" lon="16.8377">
        <ele>145.67998</ele>
        <time>2022-09-11T14:26:53.254Z</time>
      </trkpt>
      <trkpt lat="48.13487" lon="16.83186">
        <ele>148.898464</ele>
        <time>2022-09-11T14:29:00.198Z</time>
      </trkpt>
      <trkpt lat="48.13434" lon="16.82376">
        <ele>147.183289</ele>
        <time>2022-09-11T14:31:10.509Z</time>
      </trkpt>
      <trkpt lat="48.13414" lon="16.81977">
        <ele>151.033393</ele>
        <time>2022-09-11T14:32:50.255Z</time>
      </trkpt>
      <trkpt lat="48.13385" lon="16.81148">
        <ele>150.728273</ele>
        <time>2022-09-11T14:35:12.293Z</time>
      </trkpt>
      <trkpt lat="48.13372" lon="16.80494">
        <ele>151.260798</ele>
        <time>2022-09-11T14:37:12.646Z</time>
      </trkpt>
      <trkpt lat="48.13372" lon="16.79414">
        <ele>151.053533</ele>
        <time>2022-09-11T14:40:22.145Z</time>
      </trkpt>
      <trkpt lat="48.13376" lon="16.78075">
        <ele>153.699942</ele>
        <time>2022-09-11T14:44:36.910Z</time>
      </trkpt>
      <trkpt lat="48.1338" lon="16.75821">
        <ele>146.049437</ele>
        <time>2022-09-11T14:50:44.302Z</time>
      </trkpt>
      <trkpt lat="48.13386" lon="16.73289">
        <ele>153.601984</ele>
        <time>2022-09-11T14:58:54.425Z</time>
      </trkpt>
      <trkpt lat="48.13389" lon="16.70657">
        <ele>149.267669</ele>
        <time>2022-09-11T15:06:22.117Z</time>
      </trkpt>
      <trkpt lat="48.13389" lon="16.7065">
        <ele>149.266436</ele>
        <time>2022-09-11T15:06:23.511Z</time>
      </trkpt>
      <trkpt lat="48.13388" lon="16.7064">
        <ele>149.264885</ele>
        <time>2022-09-11T15:06:25.248Z</time>
      </trkpt>
      <trkpt lat="48.1339" lon="16.70458">
        <ele>149.809681</ele>
        <time>2022-09-11T15:07:02.276Z</time>
      </trkpt>
      <trkpt lat="48.13393" lon="16.69769">
        <ele>152.083858</ele>
        <time>2022-09-11T15:09:15.017Z</time>
      </trkpt>
      <trkpt lat="48.13403" lon="16.68991">
        <ele>155.435692</ele>
        <time>2022-09-11T15:11:51.880Z</time>
      </trkpt>
      <trkpt lat="48.13427" lon="16.67975">
        <ele>150.508842</ele>
        <time>2022-09-11T15:14:32.217Z</time>
      </trkpt>
      <trkpt lat="48.13469" lon="16.66593">
        <ele>150.0705</ele>
        <time>2022-09-11T15:18:38.648Z</time>
      </trkpt>
      <trkpt lat="48.13469" lon="16.6657">
        <ele>150.057984</ele>
        <time>2022-09-11T15:18:42.554Z</time>
      </trkpt>
      <trkpt lat="48.13494" lon="16.6581">
        <ele>147.749794</ele>
        <time>2022-09-11T15:20:46.345Z</time>
      </trkpt>
      <trkpt lat="48.13534" lon="16.6454">
        <ele>154.73238</ele>
        <time>2022-09-11T15:25:12.084Z</time>
      </trkpt>
      <trkpt lat="48.13554" lon="16.63907">
        <ele>152.994478</ele>
        <time>2022-09-11T15:26:56.217Z</time>
      </trkpt>
      <trkpt lat="48.13566" lon="16.63489">
        <ele>150.70679</ele>
        <time>2022-09-11T15:27:59.462Z</time>
      </trkpt>
      <trkpt lat="48.13572" lon="16.63449">
        <ele>150.671625</ele>
        <time>2022-09-11T15:28:06.809Z</time>
      </trkpt>
      <trkpt lat="48.13575" lon="16.63441">
        <ele>150.663934</ele>
        <time>2022-09-11T15:28:08.452Z</time>
      </trkpt>
      <trkpt lat="48.13585" lon="16.6342">
        <ele>150.641389</ele>
        <time>2022-09-11T15:28:13.292Z</time>
      </trkpt>
      <trkpt lat="48.13715" lon="16.63238">
        <ele>151.911212</ele>
        <time>2022-09-11T15:29:10.665Z</time>
      </trkpt>
      <trkpt lat="48.13731" lon="16.63207">
        <ele>152.191945</ele>
        <time>2022-09-11T15:29:19.419Z</time>
      </trkpt>
      <trkpt lat="48.1374" lon="16.63173">
        <ele>152.458623</ele>
        <time>2022-09-11T15:29:27.497Z</time>
      </trkpt>
      <trkpt lat="48.13829" lon="16.62586">
        <ele>153.546093</ele>
        <time>2022-09-11T15:31:20.738Z</time>
      </trkpt>
      <trkpt lat="48.13899" lon="16.62055">
        <ele>151.725061</ele>
        <time>2022-09-11T15:32:47.455Z</time>
      </trkpt>
      <trkpt lat="48.13986" lon="16.61564">
        <ele>151.982098</ele>
        <time>2022-09-11T15:34:21.278Z</time>
      </trkpt>
      <trkpt lat="48.14003" lon="16.61471">
        <ele>151.723588</ele>
        <time>2022-09-11T15:34:38.615Z</time>
      </trkpt>
      <trkpt lat="48.13997" lon="16.61473">
        <ele>151.700455</ele>
        <time>2022-09-11T15:34:40.248Z</time>
      </trkpt>
      <trkpt lat="48.13974" lon="16.61557">
        <ele>151.455802</ele>
        <time>2022-09-11T15:34:55.124Z</time>
      </trkpt>
      <trkpt lat="48.13952" lon="16.61564">
        <ele>151.364249</ele>
        <time>2022-09-11T15:35:00.230Z</time>
      </trkpt>
      <trkpt lat="48.13883" lon="16.61549">
        <ele>150.540613</ele>
        <time>2022-09-11T15:35:15.720Z</time>
      </trkpt>
      <trkpt lat="48.13867" lon="16.61528">
        <ele>150.262642</ele>
        <time>2022-09-11T15:35:20.463Z</time>
      </trkpt>
      <trkpt lat="48.1385" lon="16.61478">
        <ele>149.773228</ele>
        <time>2022-09-11T15:35:28.557Z</time>
      </trkpt>
      <trkpt lat="48.13834" lon="16.61416">
        <ele>149.204319</ele>
        <time>2022-09-11T15:35:38.043Z</time>
      </trkpt>
      <trkpt lat="48.13816" lon="16.61395">
        <ele>149.019568</ele>
        <time>2022-09-11T15:35:43.597Z</time>
      </trkpt>
      <trkpt lat="48.1379" lon="16.61392">
        <ele>149.062974</ele>
        <time>2022-09-11T15:35:50.211Z</time>
      </trkpt>
      <trkpt lat="48.1378" lon="16.61391">
        <ele>149.078678</ele>
        <time>2022-09-11T15:35:52.587Z</time>
      </trkpt>
      <trkpt lat="48.13698" lon="16.61384">
        <ele>149.216152</ele>
        <time>2022-09-11T15:36:15.573Z</time>
      </trkpt>
      <trkpt lat="48.13693" lon="16.61383">
        <ele>149.224492</ele>
        <time>2022-09-11T15:36:17.222Z</time>
      </trkpt>
      <trkpt lat="48.13644" lon="16.61379">
        <ele>149.308751</ele>
        <time>2022-09-11T15:36:32.940Z</time>
      </trkpt>
      <trkpt lat="48.13644" lon="16.61348">
        <ele>149.455528</ele>
        <time>2022-09-11T15:36:39.424Z</time>
      </trkpt>
      <trkpt lat="48.13666" lon="16.60629">
        <ele>152.92141</ele>
        <time>2022-09-11T15:39:17.460Z</time>
      </trkpt>
      <trkpt lat="48.13687" lon="16.60001">
        <ele>156.943499</ele>
        <time>2022-09-11T15:41:42.599Z</time>
      </trkpt>
      <trkpt lat="48.13693" lon="16.59814">
        <ele>157.671506</ele>
        <time>2022-09-11T15:42:23.109Z</time>
      </trkpt>
      <trkpt lat="48.13709" lon="16.59486">
        <ele>158.373447</ele>
        <time>2022-09-11T15:43:24.208Z</time>
      </trkpt>
      <trkpt lat="48.13744" lon="16.5904">
        <ele>158.860437</ele>
        <time>2022-09-11T15:44:46.911Z</time>
      </trkpt>
      <trkpt lat="48.13767" lon="16.58822">
        <ele>158.867099</ele>
        <time>2022-09-11T15:45:26.571Z</time>
      </trkpt>
      <trkpt lat="48.13809" lon="16.58494">
        <ele>158.382074</ele>
        <time>2022-09-11T15:46:23.872Z</time>
      </trkpt>
      <trkpt lat="48.13859" lon="16.58141">
        <ele>157.573431</ele>
        <time>2022-09-11T15:47:23.074Z</time>
      </trkpt>
      <trkpt lat="48.13967" lon="16.57554">
        <ele>159.649758</ele>
        <time>2022-09-11T15:49:25.520Z</time>
      </trkpt>
      <trkpt lat="48.14055" lon="16.57143">
        <ele>158.686451</ele>
        <time>2022-09-11T15:50:36.102Z</time>
      </trkpt>
      <trkpt lat="48.14058" lon="16.57131">
        <ele>158.649479</ele>
        <time>2022-09-11T15:50:38.147Z</time>
      </trkpt>
      <trkpt lat="48.14247" lon="16.56338">
        <ele>158.415169</ele>
        <time>2022-09-11T15:53:07.599Z</time>
      </trkpt>
      <trkpt lat="48.14372" lon="16.55889">
        <ele>158.470467</ele>
        <time>2022-09-11T15:54:34.541Z</time>
      </trkpt>
      <trkpt lat="48.1453" lon="16.55379">
        <ele>158.146417</ele>
        <time>2022-09-11T15:56:13.252Z</time>
      </trkpt>
      <trkpt lat="48.14592" lon="16.55204">
        <ele>157.764963</ele>
        <time>2022-09-11T15:56:46.910Z</time>
      </trkpt>
      <trkpt lat="48.14598" lon="16.55187">
        <ele>157.725952</ele>
        <time>2022-09-11T15:56:50.215Z</time>
      </trkpt>
      <trkpt lat="48.14634" lon="16.55085">
        <ele>157.611646</ele>
        <time>2022-09-11T15:57:09.112Z</time>
      </trkpt>
      <trkpt lat="48.1472" lon="16.5485">
        <ele>157.909659</ele>
        <time>2022-09-11T15:57:57.454Z</time>
      </trkpt>
      <trkpt lat="48.1485" lon="16.54535">
        <ele>159.26803</ele>
        <time>2022-09-11T15:59:16.562Z</time>
      </trkpt>
      <trkpt lat="48.15049" lon="16.54107">
        <ele>156.844429</ele>
        <time>2022-09-11T16:00:35.092Z</time>
      </trkpt>
      <trkpt lat="48.15057" lon="16.5409">
        <ele>156.800041</ele>
        <time>2022-09-11T16:00:38.612Z</time>
      </trkpt>
      <trkpt lat="48.15295" lon="16.53619">
        <ele>160.017212</ele>
        <time>2022-09-11T16:02:42.855Z</time>
      </trkpt>
      <trkpt lat="48.15328" lon="16.53543">
        <ele>160.679231</ele>
        <time>2022-09-11T16:03:03.491Z</time>
      </trkpt>
      <trkpt lat="48.15477" lon="16.53244">
        <ele>161.576764</ele>
        <time>2022-09-11T16:04:22.003Z</time>
      </trkpt>
      <trkpt lat="48.1555" lon="16.53099">
        <ele>159.889303</ele>
        <time>2022-09-11T16:04:46.341Z</time>
      </trkpt>
      <trkpt lat="48.15609" lon="16.52977">
        <ele>157.192078</ele>
        <time>2022-09-11T16:05:05.658Z</time>
      </trkpt>
      <trkpt lat="48.15628" lon="16.52953">
        <ele>156.533267</ele>
        <time>2022-09-11T16:05:10.588Z</time>
      </trkpt>
      <trkpt lat="48.1617" lon="16.52506">
        <ele>154.768677</ele>
        <time>2022-09-11T16:07:50.911Z</time>
      </trkpt>
      <trkpt lat="48.16223" lon="16.52464">
        <ele>154.812435</ele>
        <time>2022-09-11T16:08:07.098Z</time>
      </trkpt>
      <trkpt lat="48.16361" lon="16.52384">
        <ele>155.353077</ele>
        <time>2022-09-11T16:08:48.378Z</time>
      </trkpt>
      <trkpt lat="48.16524" lon="16.5232">
        <ele>156.650398</ele>
        <time>2022-09-11T16:09:40.021Z</time>
      </trkpt>
      <trkpt lat="48.16547" lon="16.52278">
        <ele>157.018616</ele>
        <time>2022-09-11T16:09:51.993Z</time>
      </trkpt>
      <trkpt lat="48.16559" lon="16.52248">
        <ele>157.257622</ele>
        <time>2022-09-11T16:09:59.507Z</time>
      </trkpt>
      <trkpt lat="48.16607" lon="16.52151">
        <ele>158.014786</ele>
        <time>2022-09-11T16:10:25.594Z</time>
      </trkpt>
      <trkpt lat="48.16815" lon="16.51727">
        <ele>160.693708</ele>
        <time>2022-09-11T16:12:12.171Z</time>
      </trkpt>
      <trkpt lat="48.16818" lon="16.51721">
        <ele>160.717552</ele>
        <time>2022-09-11T16:12:13.848Z</time>
      </trkpt>
      <trkpt lat="48.17034" lon="16.51278">
        <ele>161.130535</ele>
        <time>2022-09-11T16:13:57.359Z</time>
      </trkpt>
      <trkpt lat="48.17054" lon="16.51238">
        <ele>160.600198</ele>
        <time>2022-09-11T16:14:04.652Z</time>
      </trkpt>
      <trkpt lat="48.1706" lon="16.51216">
        <ele>160.351757</ele>
        <time>2022-09-11T16:14:07.774Z</time>
      </trkpt>
      <trkpt lat="48.17048" lon="16.512">
        <ele>160.088282</ele>
        <time>2022-09-11T16:14:11.388Z</time>
      </trkpt>
      <trkpt lat="48.16985" lon="16.51185">
        <ele>159.072137</ele>
        <time>2022-09-11T16:14:24.262Z</time>
      </trkpt>
      <trkpt lat="48.16975" lon="16.51177">
        <ele>158.854242</ele>
        <time>2022-09-11T16:14:26.551Z</time>
      </trkpt>
      <trkpt lat="48.16976" lon="16.51155">
        <ele>158.510197</ele>
        <time>2022-09-11T16:14:29.374Z</time>
      </trkpt>
      <trkpt lat="48.16994" lon="16.51117">
        <ele>157.793562</ele>
        <time>2022-09-11T16:14:35.413Z</time>
      </trkpt>
      <trkpt lat="48.17073" lon="16.50954">
        <ele>154.756501</ele>
        <time>2022-09-11T16:15:03.107Z</time>
      </trkpt>
      <trkpt lat="48.17094" lon="16.5089">
        <ele>154.470819</ele>
        <time>2022-09-11T16:15:14.187Z</time>
      </trkpt>
      <trkpt lat="48.17106" lon="16.50882">
        <ele>154.396478</ele>
        <time>2022-09-11T16:15:17.241Z</time>
      </trkpt>
      <trkpt lat="48.17126" lon="16.50863">
        <ele>154.251717</ele>
        <time>2022-09-11T16:15:23.278Z</time>
      </trkpt>
      <trkpt lat="48.17156" lon="16.50813">
        <ele>153.985569</ele>
        <time>2022-09-11T16:15:34.812Z</time>
      </trkpt>
      <trkpt lat="48.17293" lon="16.50592">
        <ele>153.999299</ele>
        <time>2022-09-11T16:16:30.158Z</time>
      </trkpt>
      <trkpt lat="48.17297" lon="16.50596">
        <ele>154.009788</ele>
        <time>2022-09-11T16:16:31.617Z</time>
      </trkpt>
      <trkpt lat="48.17303" lon="16.50601">
        <ele>154.021782</ele>
        <time>2022-09-11T16:16:33.556Z</time>
      </trkpt>
      <trkpt lat="48.17392" lon="16.50463">
        <ele>154.191371</ele>
        <time>2022-09-11T16:17:09.161Z</time>
      </trkpt>
      <trkpt lat="48.17406" lon="16.50442">
        <ele>154.215906</ele>
        <time>2022-09-11T16:17:14.475Z</time>
      </trkpt>
      <trkpt lat="48.17859" lon="16.49727">
        <ele>153.894047</ele>
        <time>2022-09-11T16:20:08.333Z</time>
      </trkpt>
      <trkpt lat="48.17945" lon="16.49586">
        <ele>153.678956</ele>
        <time>2022-09-11T16:20:40.606Z</time>
      </trkpt>
      <trkpt lat="48.17947" lon="16.49538">
        <ele>153.652572</ele>
        <time>2022-09-11T16:20:49.183Z</time>
      </trkpt>
      <trkpt lat="48.17931" lon="16.49499">
        <ele>153.628007</ele>
        <time>2022-09-11T16:20:57.186Z</time>
      </trkpt>
      <trkpt lat="48.17905" lon="16.49463">
        <ele>153.599242</ele>
        <time>2022-09-11T16:21:06.746Z</time>
      </trkpt>
      <trkpt lat="48.17896" lon="16.4946">
        <ele>153.591442</ele>
        <time>2022-09-11T16:21:09.621Z</time>
      </trkpt>
      <trkpt lat="48.17845" lon="16.49391">
        <ele>153.55036</ele>
        <time>2022-09-11T16:21:27.634Z</time>
      </trkpt>
      <trkpt lat="48.17775" lon="16.49292">
        <ele>153.549686</ele>
        <time>2022-09-11T16:21:52.605Z</time>
      </trkpt>
      <trkpt lat="48.17755" lon="16.49265">
        <ele>153.549502</ele>
        <time>2022-09-11T16:21:59.761Z</time>
      </trkpt>
      <trkpt lat="48.17737" lon="16.4921">
        <ele>153.554711</ele>
        <time>2022-09-11T16:22:11.228Z</time>
      </trkpt>
      <trkpt lat="48.17717" lon="16.49197">
        <ele>153.622394</ele>
        <time>2022-09-11T16:22:17.281Z</time>
      </trkpt>
      <trkpt lat="48.17707" lon="16.49179">
        <ele>153.672182</ele>
        <time>2022-09-11T16:22:21.733Z</time>
      </trkpt>
      <trkpt lat="48.17711" lon="16.49162">
        <ele>153.710206</ele>
        <time>2022-09-11T16:22:25.253Z</time>
      </trkpt>
      <trkpt lat="48.17717" lon="16.49126">
        <ele>153.788109</ele>
        <time>2022-09-11T16:22:32.299Z</time>
      </trkpt>
      <trkpt lat="48.17733" lon="16.491">
        <ele>153.862375</ele>
        <time>2022-09-11T16:22:39.096Z</time>
      </trkpt>
      <trkpt lat="48.17757" lon="16.49099">
        <ele>153.939892</ele>
        <time>2022-09-11T16:22:46.095Z</time>
      </trkpt>
      <trkpt lat="48.17768" lon="16.49091">
        <ele>153.977622</ele>
        <time>2022-09-11T16:22:49.325Z</time>
      </trkpt>
      <trkpt lat="48.17838" lon="16.48984">
        <ele>153.953675</ele>
        <time>2022-09-11T16:23:17.169Z</time>
      </trkpt>
      <trkpt lat="48.17862" lon="16.48947">
        <ele>153.852927</ele>
        <time>2022-09-11T16:23:26.067Z</time>
      </trkpt>
      <trkpt lat="48.1787" lon="16.48915">
        <ele>153.785196</ele>
        <time>2022-09-11T16:23:31.640Z</time>
      </trkpt>
      <trkpt lat="48.17875" lon="16.48882">
        <ele>153.71962</ele>
        <time>2022-09-11T16:23:36.743Z</time>
      </trkpt>
      <trkpt lat="48.17902" lon="16.48859">
        <ele>153.62544</ele>
        <time>2022-09-11T16:23:44.325Z</time>
      </trkpt>
      <trkpt lat="48.18001" lon="16.48703">
        <ele>153.197917</ele>
        <time>2022-09-11T16:24:19.856Z</time>
      </trkpt>
      <trkpt lat="48.18265" lon="16.48296">
        <ele>153.506862</ele>
        <time>2022-09-11T16:26:04.910Z</time>
      </trkpt>
      <trkpt lat="48.18288" lon="16.48259">
        <ele>153.514089</ele>
        <time>2022-09-11T16:26:13.499Z</time>
      </trkpt>
      <trkpt lat="48.18307" lon="16.48209">
        <ele>153.446498</ele>
        <time>2022-09-11T16:26:23.278Z</time>
      </trkpt>
      <trkpt lat="48.18352" lon="16.48133">
        <ele>153.327082</ele>
        <time>2022-09-11T16:26:40.025Z</time>
      </trkpt>
      <trkpt lat="48.18409" lon="16.48068">
        <ele>153.209459</ele>
        <time>2022-09-11T16:26:58.743Z</time>
      </trkpt>
      <trkpt lat="48.18491" lon="16.47946">
        <ele>154.396206</ele>
        <time>2022-09-11T16:27:36.272Z</time>
      </trkpt>
      <trkpt lat="48.18563" lon="16.47829">
        <ele>155.214459</ele>
        <time>2022-09-11T16:28:10.688Z</time>
      </trkpt>
      <trkpt lat="48.18596" lon="16.47787">
        <ele>155.388979</ele>
        <time>2022-09-11T16:28:23.606Z</time>
      </trkpt>
      <trkpt lat="48.18622" lon="16.47739">
        <ele>155.554292</ele>
        <time>2022-09-11T16:28:35.122Z</time>
      </trkpt>
      <trkpt lat="48.18762" lon="16.47523">
        <ele>155.342961</ele>
        <time>2022-09-11T16:29:25.530Z</time>
      </trkpt>
      <trkpt lat="48.18793" lon="16.47478">
        <ele>155.291452</ele>
        <time>2022-09-11T16:29:36.906Z</time>
      </trkpt>
      <trkpt lat="48.18811" lon="16.47434">
        <ele>155.403689</ele>
        <time>2022-09-11T16:29:46.231Z</time>
      </trkpt>
      <trkpt lat="48.18835" lon="16.47395">
        <ele>155.519951</ele>
        <time>2022-09-11T16:29:56.207Z</time>
      </trkpt>
      <trkpt lat="48.18874" lon="16.47333">
        <ele>155.705908</ele>
        <time>2022-09-11T16:30:12.834Z</time>
      </trkpt>
      <trkpt lat="48.1889" lon="16.4732">
        <ele>155.766853</ele>
        <time>2022-09-11T16:30:18.356Z</time>
      </trkpt>
      <trkpt lat="48.18911" lon="16.47306">
        <ele>155.840687</ele>
        <time>2022-09-11T16:30:24.812Z</time>
      </trkpt>
      <trkpt lat="48.19157" lon="16.46927">
        <ele>157.244005</ele>
        <time>2022-09-11T16:32:05.299Z</time>
      </trkpt>
      <trkpt lat="48.19169" lon="16.46893">
        <ele>157.258914</ele>
        <time>2022-09-11T16:32:12.907Z</time>
      </trkpt>
      <trkpt lat="48.1919" lon="16.46869">
        <ele>157.236118</ele>
        <time>2022-09-11T16:32:21.000Z</time>
      </trkpt>
      <trkpt lat="48.19218" lon="16.46856">
        <ele>157.211274</ele>
        <time>2022-09-11T16:32:29.346Z</time>
      </trkpt>
      <trkpt lat="48.19307" lon="16.4672">
        <ele>156.834322</ele>
        <time>2022-09-11T16:33:01.293Z</time>
      </trkpt>
      <trkpt lat="48.19323" lon="16.46679">
        <ele>156.416338</ele>
        <time>2022-09-11T16:33:08.251Z</time>
      </trkpt>
      <trkpt lat="48.19325" lon="16.4666">
        <ele>156.251097</ele>
        <time>2022-09-11T16:33:10.904Z</time>
      </trkpt>
      <trkpt lat="48.19341" lon="16.46641">
        <ele>155.980083</ele>
        <time>2022-09-11T16:33:15.269Z</time>
      </trkpt>
      <trkpt lat="48.19419" lon="16.46522">
        <ele>154.747585</ele>
        <time>2022-09-11T16:33:39.244Z</time>
      </trkpt>
      <trkpt lat="48.19469" lon="16.46437">
        <ele>154.870881</ele>
        <time>2022-09-11T16:33:58.784Z</time>
      </trkpt>
      <trkpt lat="48.19485" lon="16.4641">
        <ele>154.909352</ele>
        <time>2022-09-11T16:34:05.906Z</time>
      </trkpt>
      <trkpt lat="48.19557" lon="16.46303">
        <ele>155.453868</ele>
        <time>2022-09-11T16:34:38.854Z</time>
      </trkpt>
      <trkpt lat="48.19608" lon="16.46227">
        <ele>156.290771</ele>
        <time>2022-09-11T16:35:04.336Z</time>
      </trkpt>
      <trkpt lat="48.19765" lon="16.45999">
        <ele>157.797178</ele>
        <time>2022-09-11T16:36:08.774Z</time>
      </trkpt>
      <trkpt lat="48.19788" lon="16.45965">
        <ele>157.9426</ele>
        <time>2022-09-11T16:36:17.412Z</time>
      </trkpt>
      <trkpt lat="48.19809" lon="16.45935">
        <ele>157.936687</ele>
        <time>2022-09-11T16:36:25.002Z</time>
      </trkpt>
      <trkpt lat="48.1992" lon="16.45771">
        <ele>157.885427</ele>
        <time>2022-09-11T16:37:06.373Z</time>
      </trkpt>
      <trkpt lat="48.19963" lon="16.45707">
        <ele>157.664213</ele>
        <time>2022-09-11T16:37:21.583Z</time>
      </trkpt>
      <trkpt lat="48.2001" lon="16.45638">
        <ele>157.427305</ele>
        <time>2022-09-11T16:37:38.005Z</time>
      </trkpt>
      <trkpt lat="48.20022" lon="16.4562">
        <ele>157.366137</ele>
        <time>2022-09-11T16:37:42.329Z</time>
      </trkpt>
      <trkpt lat="48.20048" lon="16.4558">
        <ele>157.225251</ele>
        <time>2022-09-11T16:37:51.660Z</time>
      </trkpt>
      <trkpt lat="48.2013" lon="16.45456">
        <ele>156.717124</ele>
        <time>2022-09-11T16:38:19.976Z</time>
      </trkpt>
      <trkpt lat="48.20134" lon="16.4545">
        <ele>156.693192</ele>
        <time>2022-09-11T16:38:21.283Z</time>
      </trkpt>
      <trkpt lat="48.20155" lon="16.45419">
        <ele>156.564287</ele>
        <time>2022-09-11T16:38:28.646Z</time>
      </trkpt>
      <trkpt lat="48.20171" lon="16.45396">
        <ele>156.471094</ele>
        <time>2022-09-11T16:38:34.555Z</time>
      </trkpt>
      <trkpt lat="48.20253" lon="16.45278">
        <ele>156.631772</ele>
        <time>2022-09-11T16:39:05.462Z</time>
      </trkpt>
      <trkpt lat="48.20358" lon="16.45119">
        <ele>157.175413</ele>
        <time>2022-09-11T16:39:47.598Z</time>
      </trkpt>
      <trkpt lat="48.20445" lon="16.44989">
        <ele>157.714611</ele>
        <time>2022-09-11T16:40:25.141Z</time>
      </trkpt>
      <trkpt lat="48.20461" lon="16.44966">
        <ele>157.732534</ele>
        <time>2022-09-11T16:40:31.283Z</time>
      </trkpt>
      <trkpt lat="48.2048" lon="16.44954">
        <ele>157.748345</ele>
        <time>2022-09-11T16:40:36.478Z</time>
      </trkpt>
      <trkpt lat="48.20505" lon="16.44913">
        <ele>157.77824</ele>
        <time>2022-09-11T16:40:46.314Z</time>
      </trkpt>
      <trkpt lat="48.20527" lon="16.44879">
        <ele>157.803321</ele>
        <time>2022-09-11T16:40:54.647Z</time>
      </trkpt>
      <trkpt lat="48.20549" lon="16.44857">
        <ele>157.824737</ele>
        <time>2022-09-11T16:41:01.776Z</time>
      </trkpt>
      <trkpt lat="48.20559" lon="16.44838">
        <ele>157.832653</ele>
        <time>2022-09-11T16:41:06.014Z</time>
      </trkpt>
      <trkpt lat="48.20561" lon="16.44818">
        <ele>157.761726</ele>
        <time>2022-09-11T16:41:09.578Z</time>
      </trkpt>
      <trkpt lat="48.20575" lon="16.44795">
        <ele>157.652895</ele>
        <time>2022-09-11T16:41:14.873Z</time>
      </trkpt>
      <trkpt lat="48.20634" lon="16.44708">
        <ele>157.223746</ele>
        <time>2022-09-11T16:41:34.529Z</time>
      </trkpt>
      <trkpt lat="48.20878" lon="16.44341">
        <ele>156.051853</ele>
        <time>2022-09-11T16:42:59.631Z</time>
      </trkpt>
      <trkpt lat="48.20899" lon="16.44295">
        <ele>156.067874</ele>
        <time>2022-09-11T16:43:11.020Z</time>
      </trkpt>
      <trkpt lat="48.20937" lon="16.44237">
        <ele>156.182312</ele>
        <time>2022-09-11T16:43:27.471Z</time>
      </trkpt>
      <trkpt lat="48.20958" lon="16.44197">
        <ele>156.402187</ele>
        <time>2022-09-11T16:43:37.580Z</time>
      </trkpt>
      <trkpt lat="48.21008" lon="16.44138">
        <ele>156.815571</ele>
        <time>2022-09-11T16:43:57.337Z</time>
      </trkpt>
      <trkpt lat="48.21051" lon="16.44073">
        <ele>157.208491</ele>
        <time>2022-09-11T16:44:15.157Z</time>
      </trkpt>
      <trkpt lat="48.21121" lon="16.43973">
        <ele>156.956775</ele>
        <time>2022-09-11T16:44:41.857Z</time>
      </trkpt>
      <trkpt lat="48.21137" lon="16.43947">
        <ele>156.879033</ele>
        <time>2022-09-11T16:44:47.220Z</time>
      </trkpt>
      <trkpt lat="48.21143" lon="16.43939">
        <ele>156.854171</ele>
        <time>2022-09-11T16:44:48.855Z</time>
      </trkpt>
      <trkpt lat="48.21157" lon="16.43936">
        <ele>156.804962</ele>
        <time>2022-09-11T16:44:52.258Z</time>
      </trkpt>
      <trkpt lat="48.21201" lon="16.43874">
        <ele>156.641898</ele>
        <time>2022-09-11T16:45:06.683Z</time>
      </trkpt>
      <trkpt lat="48.21211" lon="16.43865">
        <ele>156.626663</ele>
        <time>2022-09-11T16:45:09.558Z</time>
      </trkpt>
      <trkpt lat="48.21245" lon="16.43832">
        <ele>156.574353</ele>
        <time>2022-09-11T16:45:19.360Z</time>
      </trkpt>
      <trkpt lat="48.2127" lon="16.43789">
        <ele>156.525245</ele>
        <time>2022-09-11T16:45:29.108Z</time>
      </trkpt>
      <trkpt lat="48.21303" lon="16.43734">
        <ele>156.462164</ele>
        <time>2022-09-11T16:45:43.256Z</time>
      </trkpt>
      <trkpt lat="48.21322" lon="16.43715">
        <ele>156.431707</ele>
        <time>2022-09-11T16:45:49.645Z</time>
      </trkpt>
      <trkpt lat="48.21365" lon="16.43655">
        <ele>156.764686</ele>
        <time>2022-09-11T16:46:07.146Z</time>
      </trkpt>
      <trkpt lat="48.21379" lon="16.43619">
        <ele>156.921003</ele>
        <time>2022-09-11T16:46:16.138Z</time>
      </trkpt>
      <trkpt lat="48.21531" lon="16.434">
        <ele>157.652768</ele>
        <time>2022-09-11T16:47:16.463Z</time>
      </trkpt>
      <trkpt lat="48.21571" lon="16.4334">
        <ele>157.749007</ele>
        <time>2022-09-11T16:47:31.198Z</time>
      </trkpt>
      <trkpt lat="48.21624" lon="16.43267">
        <ele>157.773617</ele>
        <time>2022-09-11T16:47:49.527Z</time>
      </trkpt>
      <trkpt lat="48.21791" lon="16.4303">
        <ele>158.340096</ele>
        <time>2022-09-11T16:48:52.571Z</time>
      </trkpt>
      <trkpt lat="48.21857" lon="16.42894">
        <ele>158.870598</ele>
        <time>2022-09-11T16:49:27.839Z</time>
      </trkpt>
      <trkpt lat="48.21887" lon="16.42842">
        <ele>159.09028</ele>
        <time>2022-09-11T16:49:41.751Z</time>
      </trkpt>
      <trkpt lat="48.21942" lon="16.42756">
        <ele>159.472098</ele>
        <time>2022-09-11T16:50:03.888Z</time>
      </trkpt>
      <trkpt lat="48.22058" lon="16.42585">
        <ele>158.956341</ele>
        <time>2022-09-11T16:50:43.796Z</time>
      </trkpt>
      <trkpt lat="48.22061" lon="16.4258">
        <ele>158.940683</ele>
        <time>2022-09-11T16:50:44.882Z</time>
      </trkpt>
      <trkpt lat="48.22172" lon="16.4243">
        <ele>159.180401</ele>
        <time>2022-09-11T16:51:26.292Z</time>
      </trkpt>
      <trkpt lat="48.2218" lon="16.42419">
        <ele>159.205695</ele>
        <time>2022-09-11T16:51:29.570Z</time>
      </trkpt>
      <trkpt lat="48.22268" lon="16.423">
        <ele>159.276237</ele>
        <time>2022-09-11T16:52:04.033Z</time>
      </trkpt>
      <trkpt lat="48.22276" lon="16.4229">
        <ele>159.2733</ele>
        <time>2022-09-11T16:52:06.733Z</time>
      </trkpt>
      <trkpt lat="48.22301" lon="16.42256">
        <ele>159.263773</ele>
        <time>2022-09-11T16:52:15.530Z</time>
      </trkpt>
      <trkpt lat="48.22327" lon="16.42221">
        <ele>159.253775</ele>
        <time>2022-09-11T16:52:23.999Z</time>
      </trkpt>
      <trkpt lat="48.22368" lon="16.42165">
        <ele>159.148483</ele>
        <time>2022-09-11T16:52:36.868Z</time>
      </trkpt>
      <trkpt lat="48.2246" lon="16.4204">
        <ele>158.78354</ele>
        <time>2022-09-11T16:53:08.204Z</time>
      </trkpt>
      <trkpt lat="48.22468" lon="16.42028">
        <ele>158.751023</ele>
        <time>2022-09-11T16:53:11.431Z</time>
      </trkpt>
      <trkpt lat="48.22554" lon="16.41903">
        <ele>159.260849</ele>
        <time>2022-09-11T16:53:46.087Z</time>
      </trkpt>
      <trkpt lat="48.22561" lon="16.41892">
        <ele>159.31427</ele>
        <time>2022-09-11T16:53:49.305Z</time>
      </trkpt>
      <trkpt lat="48.22572" lon="16.41876">
        <ele>159.387999</ele>
        <time>2022-09-11T16:53:54.190Z</time>
      </trkpt>
      <trkpt lat="48.22608" lon="16.4182">
        <ele>159.632528</ele>
        <time>2022-09-11T16:54:10.122Z</time>
      </trkpt>
      <trkpt lat="48.22623" lon="16.41798">
        <ele>159.689394</ele>
        <time>2022-09-11T16:54:15.963Z</time>
      </trkpt>
      <trkpt lat="48.22635" lon="16.41779">
        <ele>159.737069</ele>
        <time>2022-09-11T16:54:20.750Z</time>
      </trkpt>
      <trkpt lat="48.22673" lon="16.4172">
        <ele>159.885759</ele>
        <time>2022-09-11T16:54:34.842Z</time>
      </trkpt>
      <trkpt lat="48.22676" lon="16.41715">
        <ele>159.898953</ele>
        <time>2022-09-11T16:54:36.073Z</time>
      </trkpt>
      <trkpt lat="48.2268" lon="16.41709">
        <ele>159.913491</ele>
        <time>2022-09-11T16:54:37.423Z</time>
      </trkpt>
      <trkpt lat="48.22684" lon="16.41702">
        <ele>159.930924</ele>
        <time>2022-09-11T16:54:38.917Z</time>
      </trkpt>
      <trkpt lat="48.22711" lon="16.41663">
        <ele>160.033266</ele>
        <time>2022-09-11T16:54:48.478Z</time>
      </trkpt>
      <trkpt lat="48.22714" lon="16.41658">
        <ele>160.046067</ele>
        <time>2022-09-11T16:54:49.754Z</time>
      </trkpt>
      <trkpt lat="48.22758" lon="16.41591">
        <ele>160.659883</ele>
        <time>2022-09-11T16:55:09.947Z</time>
      </trkpt>
      <trkpt lat="48.22803" lon="16.41526">
        <ele>161.52302</ele>
        <time>2022-09-11T16:55:31.638Z</time>
      </trkpt>
      <trkpt lat="48.22852" lon="16.41456">
        <ele>162.448671</ele>
        <time>2022-09-11T16:55:55.323Z</time>
      </trkpt>
      <trkpt lat="48.22877" lon="16.41422">
        <ele>162.736723</ele>
        <time>2022-09-11T16:56:06.484Z</time>
      </trkpt>
      <trkpt lat="48.2291" lon="16.4138">
        <ele>163.016779</ele>
        <time>2022-09-11T16:56:19.816Z</time>
      </trkpt>
      <trkpt lat="48.22914" lon="16.41375">
        <ele>163.053988</ele>
        <time>2022-09-11T16:56:21.755Z</time>
      </trkpt>
      <trkpt lat="48.22924" lon="16.41361">
        <ele>163.13845</ele>
        <time>2022-09-11T16:56:25.925Z</time>
      </trkpt>
      <trkpt lat="48.22949" lon="16.41326">
        <ele>163.363563</ele>
        <time>2022-09-11T16:56:36.739Z</time>
      </trkpt>
      <trkpt lat="48.22973" lon="16.41294">
        <ele>163.573075</ele>
        <time>2022-09-11T16:56:46.444Z</time>
      </trkpt>
      <trkpt lat="48.22992" lon="16.4127">
        <ele>163.733279</ele>
        <time>2022-09-11T16:56:52.985Z</time>
      </trkpt>
      <trkpt lat="48.23043" lon="16.41206">
        <ele>162.58512</ele>
        <time>2022-09-11T16:57:07.622Z</time>
      </trkpt>
      <trkpt lat="48.23045" lon="16.41222">
        <ele>162.388428</ele>
        <time>2022-09-11T16:57:09.832Z</time>
      </trkpt>
      <trkpt lat="48.23047" lon="16.4126">
        <ele>161.934881</ele>
        <time>2022-09-11T16:57:14.828Z</time>
      </trkpt>
      <trkpt lat="48.23023" lon="16.41295">
        <ele>161.317426</ele>
        <time>2022-09-11T16:57:21.450Z</time>
      </trkpt>
      <trkpt lat="48.2302" lon="16.41298">
        <ele>161.259231</ele>
        <time>2022-09-11T16:57:22.101Z</time>
      </trkpt>
      <trkpt lat="48.22937" lon="16.41144">
        <ele>159.78898</ele>
        <time>2022-09-11T16:57:50.683Z</time>
      </trkpt>
      <trkpt lat="48.22914" lon="16.41102">
        <ele>159.507999</ele>
        <time>2022-09-11T16:57:58.985Z</time>
      </trkpt>
      <trkpt lat="48.22814" lon="16.40916">
        <ele>159.613663</ele>
        <time>2022-09-11T16:58:48.597Z</time>
      </trkpt>
      <trkpt lat="48.22617" lon="16.40547">
        <ele>160.6407</ele>
        <time>2022-09-11T17:00:12.789Z</time>
      </trkpt>
      <trkpt lat="48.22615" lon="16.40543">
        <ele>160.676914</ele>
        <time>2022-09-11T17:00:13.849Z</time>
      </trkpt>
      <trkpt lat="48.22614" lon="16.40541">
        <ele>160.694116</ele>
        <time>2022-09-11T17:00:14.360Z</time>
      </trkpt>
      <trkpt lat="48.22564" lon="16.40448">
        <ele>161.512114</ele>
        <time>2022-09-11T17:00:40.449Z</time>
      </trkpt>
      <trkpt lat="48.22563" lon="16.40446">
        <ele>161.530491</ele>
        <time>2022-09-11T17:00:41.033Z</time>
      </trkpt>
      <trkpt lat="48.22561" lon="16.40443">
        <ele>161.555207</ele>
        <time>2022-09-11T17:00:41.844Z</time>
      </trkpt>
      <trkpt lat="48.22492" lon="16.40294">
        <ele>163.628639</ele>
        <time>2022-09-11T17:01:26.921Z</time>
      </trkpt>
      <trkpt lat="48.22478" lon="16.40272">
        <ele>164.027755</ele>
        <time>2022-09-11T17:01:34.597Z</time>
      </trkpt>
      <trkpt lat="48.22442" lon="16.40204">
        <ele>165.16133</ele>
        <time>2022-09-11T17:01:55.619Z</time>
      </trkpt>
      <trkpt lat="48.22427" lon="16.40187">
        <ele>165.435756</ele>
        <time>2022-09-11T17:02:02.439Z</time>
      </trkpt>
      <trkpt lat="48.2242" lon="16.40171">
        <ele>165.505525</ele>
        <time>2022-09-11T17:02:06.638Z</time>
      </trkpt>
      <trkpt lat="48.22411" lon="16.4016">
        <ele>165.572475</ele>
        <time>2022-09-11T17:02:10.549Z</time>
      </trkpt>
      <trkpt lat="48.22336" lon="16.40026">
        <ele>166.226018</ele>
        <time>2022-09-11T17:02:43.039Z</time>
      </trkpt>
      <trkpt lat="48.22331" lon="16.40014">
        <ele>166.278513</ele>
        <time>2022-09-11T17:02:45.585Z</time>
      </trkpt>
      <trkpt lat="48.22257" lon="16.39874">
        <ele>166.539149</ele>
        <time>2022-09-11T17:03:17.809Z</time>
      </trkpt>
      <trkpt lat="48.22252" lon="16.39864">
        <ele>166.550292</ele>
        <time>2022-09-11T17:03:20.201Z</time>
      </trkpt>
      <trkpt lat="48.22167" lon="16.39708">
        <ele>166.239365</ele>
        <time>2022-09-11T17:03:57.475Z</time>
      </trkpt>
      <trkpt lat="48.22149" lon="16.39674">
        <ele>166.038352</ele>
        <time>2022-09-11T17:04:04.582Z</time>
      </trkpt>
      <trkpt lat="48.22138" lon="16.39653">
        <ele>165.912106</ele>
        <time>2022-09-11T17:04:08.936Z</time>
      </trkpt>
      <trkpt lat="48.22113" lon="16.39607">
        <ele>165.631586</ele>
        <time>2022-09-11T17:04:17.969Z</time>
      </trkpt>
      <trkpt lat="48.22086" lon="16.39552">
        <ele>165.138407</ele>
        <time>2022-09-11T17:04:27.848Z</time>
      </trkpt>
      <trkpt lat="48.22075" lon="16.39538">
        <ele>164.80668</ele>
        <time>2022-09-11T17:04:30.889Z</time>
      </trkpt>
      <trkpt lat="48.2203" lon="16.39458">
        <ele>163.194552</ele>
        <time>2022-09-11T17:04:45.044Z</time>
      </trkpt>
      <trkpt lat="48.22012" lon="16.39424">
        <ele>162.533601</ele>
        <time>2022-09-11T17:04:50.665Z</time>
      </trkpt>
      <trkpt lat="48.22007" lon="16.39398">
        <ele>162.130292</ele>
        <time>2022-09-11T17:04:54.114Z</time>
      </trkpt>
      <trkpt lat="48.21978" lon="16.39344">
        <ele>161.254807</ele>
        <time>2022-09-11T17:05:03.858Z</time>
      </trkpt>
      <trkpt lat="48.21966" lon="16.39336">
        <ele>161.251743</ele>
        <time>2022-09-11T17:05:06.724Z</time>
      </trkpt>
      <trkpt lat="48.21952" lon="16.39299">
        <ele>161.245336</ele>
        <time>2022-09-11T17:05:13.339Z</time>
      </trkpt>
      <trkpt lat="48.21954" lon="16.39261">
        <ele>161.23947</ele>
        <time>2022-09-11T17:05:19.729Z</time>
      </trkpt>
      <trkpt lat="48.2195" lon="16.39204">
        <ele>161.230803</ele>
        <time>2022-09-11T17:05:30.786Z</time>
      </trkpt>
      <trkpt lat="48.21921" lon="16.39107">
        <ele>161.333235</ele>
        <time>2022-09-11T17:05:52.179Z</time>
      </trkpt>
      <trkpt lat="48.21917" lon="16.39097">
        <ele>161.527879</ele>
        <time>2022-09-11T17:05:55.008Z</time>
      </trkpt>
      <trkpt lat="48.21913" lon="16.39093">
        <ele>161.64715</ele>
        <time>2022-09-11T17:05:56.723Z</time>
      </trkpt>
      <trkpt lat="48.21899" lon="16.3909">
        <ele>162.013546</ele>
        <time>2022-09-11T17:06:02.180Z</time>
      </trkpt>
      <trkpt lat="48.21893" lon="16.39084">
        <ele>162.177677</ele>
        <time>2022-09-11T17:06:04.591Z</time>
      </trkpt>
      <trkpt lat="48.21891" lon="16.39081">
        <ele>162.260734</ele>
        <time>2022-09-11T17:06:05.878Z</time>
      </trkpt>
      <trkpt lat="48.21889" lon="16.39077">
        <ele>162.337737</ele>
        <time>2022-09-11T17:06:07.192Z</time>
      </trkpt>
      <trkpt lat="48.21887" lon="16.39072">
        <ele>162.427364</ele>
        <time>2022-09-11T17:06:08.797Z</time>
      </trkpt>
      <trkpt lat="48.21884" lon="16.39065">
        <ele>162.577193</ele>
        <time>2022-09-11T17:06:11.328Z</time>
      </trkpt>
      <trkpt lat="48.2188" lon="16.39056">
        <ele>162.760602</ele>
        <time>2022-09-11T17:06:14.202Z</time>
      </trkpt>
      <trkpt lat="48.21874" lon="16.39059">
        <ele>162.93386</ele>
        <time>2022-09-11T17:06:17.001Z</time>
      </trkpt>
      <trkpt lat="48.2183" lon="16.39026">
        <ele>164.160034</ele>
        <time>2022-09-11T17:06:37.728Z</time>
      </trkpt>
      <trkpt lat="48.218" lon="16.39022">
        <ele>164.934027</ele>
        <time>2022-09-11T17:06:50.854Z</time>
      </trkpt>
      <trkpt lat="48.21786" lon="16.39011">
        <ele>165.320968</ele>
        <time>2022-09-11T17:06:57.798Z</time>
      </trkpt>
      <trkpt lat="48.21781" lon="16.39009">
        <ele>165.449637</ele>
        <time>2022-09-11T17:06:59.894Z</time>
      </trkpt>
      <trkpt lat="48.21762" lon="16.38972">
        <ele>166.091864</ele>
        <time>2022-09-11T17:07:13.094Z</time>
      </trkpt>
      <trkpt lat="48.21717" lon="16.38882">
        <ele>167.382998</ele>
        <time>2022-09-11T17:07:39.658Z</time>
      </trkpt>
      <trkpt lat="48.21649" lon="16.38755">
        <ele>169.143953</ele>
        <time>2022-09-11T17:08:14.107Z</time>
      </trkpt>
      <trkpt lat="48.21638" lon="16.38732">
        <ele>169.38823</ele>
        <time>2022-09-11T17:08:20.477Z</time>
      </trkpt>
      <trkpt lat="48.21622" lon="16.387">
        <ele>169.720743</ele>
        <time>2022-09-11T17:08:29.215Z</time>
      </trkpt>
      <trkpt lat="48.21617" lon="16.38685">
        <ele>169.861484</ele>
        <time>2022-09-11T17:08:32.982Z</time>
      </trkpt>
      <trkpt lat="48.21611" lon="16.38672">
        <ele>169.989996</ele>
        <time>2022-09-11T17:08:36.481Z</time>
      </trkpt>
      <trkpt lat="48.21588" lon="16.38631">
        <ele>170.441189</ele>
        <time>2022-09-11T17:08:48.287Z</time>
      </trkpt>
      <trkpt lat="48.21539" lon="16.38544">
        <ele>171.309383</ele>
        <time>2022-09-11T17:09:14.865Z</time>
      </trkpt>
      <trkpt lat="48.21486" lon="16.38455">
        <ele>172.006403</ele>
        <time>2022-09-11T17:09:43.162Z</time>
      </trkpt>
      <trkpt lat="48.21482" lon="16.38448">
        <ele>172.054201</ele>
        <time>2022-09-11T17:09:45.100Z</time>
      </trkpt>
      <trkpt lat="48.21471" lon="16.38428">
        <ele>172.20588</ele>
        <time>2022-09-11T17:09:51.206Z</time>
      </trkpt>
      <trkpt lat="48.2147" lon="16.38426">
        <ele>172.225921</ele>
        <time>2022-09-11T17:09:51.924Z</time>
      </trkpt>
      <trkpt lat="48.21466" lon="16.38417">
        <ele>172.287029</ele>
        <time>2022-09-11T17:09:53.982Z</time>
      </trkpt>
      <trkpt lat="48.21464" lon="16.38414">
        <ele>172.309828</ele>
        <time>2022-09-11T17:09:54.686Z</time>
      </trkpt>
      <trkpt lat="48.21458" lon="16.38395">
        <ele>172.431545</ele>
        <time>2022-09-11T17:09:58.957Z</time>
      </trkpt>
      <trkpt lat="48.21386" lon="16.38282">
        <ele>171.629258</ele>
        <time>2022-09-11T17:10:23.930Z</time>
      </trkpt>
      <trkpt lat="48.21374" lon="16.38274">
        <ele>171.436279</ele>
        <time>2022-09-11T17:10:27.194Z</time>
      </trkpt>
      <trkpt lat="48.21371" lon="16.38266">
        <ele>171.350443</ele>
        <time>2022-09-11T17:10:28.546Z</time>
      </trkpt>
      <trkpt lat="48.21367" lon="16.38258">
        <ele>171.2522</ele>
        <time>2022-09-11T17:10:29.970Z</time>
      </trkpt>
      <trkpt lat="48.21352" lon="16.38221">
        <ele>170.842355</ele>
        <time>2022-09-11T17:10:36.058Z</time>
      </trkpt>
      <trkpt lat="48.21301" lon="16.38114">
        <ele>169.859187</ele>
        <time>2022-09-11T17:10:54.636Z</time>
      </trkpt>
      <trkpt lat="48.21267" lon="16.38028">
        <ele>169.392866</ele>
        <time>2022-09-11T17:11:09.490Z</time>
      </trkpt>
      <trkpt lat="48.21246" lon="16.38017">
        <ele>169.240362</ele>
        <time>2022-09-11T17:11:15.044Z</time>
      </trkpt>
      <trkpt lat="48.21255" lon="16.37934">
        <ele>168.87093</ele>
        <time>2022-09-11T17:11:32.306Z</time>
      </trkpt>
      <trkpt lat="48.21257" lon="16.37923">
        <ele>168.907316</ele>
        <time>2022-09-11T17:11:34.834Z</time>
      </trkpt>
      <trkpt lat="48.21259" lon="16.37912">
        <ele>168.945116</ele>
        <time>2022-09-11T17:11:37.284Z</time>
      </trkpt>
      <trkpt lat="48.21264" lon="16.37903">
        <ele>168.980772</ele>
        <time>2022-09-11T17:11:39.730Z</time>
      </trkpt>
      <trkpt lat="48.21276" lon="16.37854">
        <ele>169.151436</ele>
        <time>2022-09-11T17:11:51.534Z</time>
      </trkpt>
      <trkpt lat="48.21293" lon="16.37774">
        <ele>169.423054</ele>
        <time>2022-09-11T17:12:09.928Z</time>
      </trkpt>
      <trkpt lat="48.21303" lon="16.37744">
        <ele>169.530132</ele>
        <time>2022-09-11T17:12:16.204Z</time>
      </trkpt>
      <trkpt lat="48.21304" lon="16.37741">
        <ele>169.540368</ele>
        <time>2022-09-11T17:12:16.836Z</time>
      </trkpt>
      <trkpt lat="48.21307" lon="16.37732">
        <ele>169.572867</ele>
        <time>2022-09-11T17:12:18.748Z</time>
      </trkpt>
      <trkpt lat="48.21309" lon="16.37728">
        <ele>169.590334</ele>
        <time>2022-09-11T17:12:19.710Z</time>
      </trkpt>
      <trkpt lat="48.21303" lon="16.37724">
        <ele>169.621125</ele>
        <time>2022-09-11T17:12:21.386Z</time>
      </trkpt>
      <trkpt lat="48.21297" lon="16.37719">
        <ele>169.654156</ele>
        <time>2022-09-11T17:12:23.098Z</time>
      </trkpt>
      <trkpt lat="48.21296" lon="16.37719">
        <ele>169.660214</ele>
        <time>2022-09-11T17:12:23.460Z</time>
      </trkpt>
      <trkpt lat="48.21237" lon="16.37664">
        <ele>169.600943</ele>
        <time>2022-09-11T17:12:39.968Z</time>
      </trkpt>
      <trkpt lat="48.21235" lon="16.37663">
        <ele>169.594998</ele>
        <time>2022-09-11T17:12:40.594Z</time>
      </trkpt>
      <trkpt lat="48.21239" lon="16.37653">
        <ele>169.576382</ele>
        <time>2022-09-11T17:12:42.221Z</time>
      </trkpt>
      <trkpt lat="48.21287" lon="16.37564">
        <ele>169.39269</ele>
        <time>2022-09-11T17:12:59.909Z</time>
      </trkpt>
      <trkpt lat="48.21335" lon="16.37503">
        <ele>170.177849</ele>
        <time>2022-09-11T17:13:19.014Z</time>
      </trkpt>
      <trkpt lat="48.214" lon="16.37443">
        <ele>172.947183</ele>
        <time>2022-09-11T17:13:53.711Z</time>
      </trkpt>
      <trkpt lat="48.21396" lon="16.37429">
        <ele>173.317138</ele>
        <time>2022-09-11T17:13:58.403Z</time>
      </trkpt>
      <trkpt lat="48.21392" lon="16.37412">
        <ele>173.748245</ele>
        <time>2022-09-11T17:14:04.664Z</time>
      </trkpt>
      <trkpt lat="48.21397" lon="16.37405">
        <ele>174.011059</ele>
        <time>2022-09-11T17:14:08.338Z</time>
      </trkpt>
      <trkpt lat="48.21394" lon="16.374">
        <ele>174.183197</ele>
        <time>2022-09-11T17:14:10.961Z</time>
      </trkpt>
      <trkpt lat="48.21388" lon="16.37391">
        <ele>174.462712</ele>
        <time>2022-09-11T17:14:14.722Z</time>
      </trkpt>
      <trkpt lat="48.21386" lon="16.37387">
        <ele>174.614624</ele>
        <time>2022-09-11T17:14:16.811Z</time>
      </trkpt>
      <trkpt lat="48.21345" lon="16.37321">
        <ele>176.734784</ele>
        <time>2022-09-11T17:14:47.603Z</time>
      </trkpt>
      <trkpt lat="48.21381" lon="16.37259">
        <ele>178.617052</ele>
        <time>2022-09-11T17:15:12.646Z</time>
      </trkpt>
      <trkpt lat="48.21354" lon="16.37226">
        <ele>179.80258</ele>
        <time>2022-09-11T17:15:27.989Z</time>
      </trkpt>
      <trkpt lat="48.21402" lon="16.37131">
        <ele>182.240598</ele>
        <time>2022-09-11T17:15:57.981Z</time>
      </trkpt>
      <trkpt lat="48.21423" lon="16.37081">
        <ele>182.772986</ele>
        <time>2022-09-11T17:16:10.325Z</time>
      </trkpt>
      <trkpt lat="48.21374" lon="16.37008">
        <ele>183.704285</ele>
        <time>2022-09-11T17:16:32.035Z</time>
      </trkpt>
      <trkpt lat="48.21356" lon="16.36976">
        <ele>184.080699</ele>
        <time>2022-09-11T17:16:40.748Z</time>
      </trkpt>
      <trkpt lat="48.21355" lon="16.36973">
        <ele>184.112276</ele>
        <time>2022-09-11T17:16:41.541Z</time>
      </trkpt>
      <trkpt lat="48.21343" lon="16.36941">
        <ele>184.43887</ele>
        <time>2022-09-11T17:16:49.349Z</time>
      </trkpt>
      <trkpt lat="48.2133" lon="16.36928">
        <ele>184.670933</ele>
        <time>2022-09-11T17:16:54.873Z</time>
      </trkpt>
      <trkpt lat="48.21269" lon="16.36853">
        <ele>185.842492</ele>
        <time>2022-09-11T17:17:22.430Z</time>
      </trkpt>
      <trkpt lat="48.21204" lon="16.36762">
        <ele>187.1553</ele>
        <time>2022-09-11T17:17:52.156Z</time>
      </trkpt>
      <trkpt lat="48.21174" lon="16.36717">
        <ele>187.702572</ele>
        <time>2022-09-11T17:18:06.123Z</time>
      </trkpt>
      <trkpt lat="48.21127" lon="16.36634">
        <ele>188.639766</ele>
        <time>2022-09-11T17:18:30.515Z</time>
      </trkpt>
      <trkpt lat="48.21041" lon="16.36563">
        <ele>189.335887</ele>
        <time>2022-09-11T17:19:02.371Z</time>
      </trkpt>
      <trkpt lat="48.21015" lon="16.36539">
        <ele>189.219749</ele>
        <time>2022-09-11T17:19:10.550Z</time>
      </trkpt>
      <trkpt lat="48.20996" lon="16.36554">
        <ele>189.136161</ele>
        <time>2022-09-11T17:19:15.885Z</time>
      </trkpt>
      <trkpt lat="48.2095" lon="16.36588">
        <ele>188.941008</ele>
        <time>2022-09-11T17:19:27.833Z</time>
      </trkpt>
      <trkpt lat="48.2082" lon="16.3665">
        <ele>188.111727</ele>
        <time>2022-09-11T17:19:58.190Z</time>
      </trkpt>
      <trkpt lat="48.20815" lon="16.36675">
        <ele>187.989383</ele>
        <time>2022-09-11T17:20:02.524Z</time>
      </trkpt>
      <trkpt lat="48.20801" lon="16.36686">
        <ele>187.878434</ele>
        <time>2022-09-11T17:20:06.266Z</time>
      </trkpt>
      <trkpt lat="48.20786" lon="16.3668">
        <ele>187.771163</ele>
        <time>2022-09-11T17:20:10.216Z</time>
      </trkpt>
      <trkpt lat="48.20781" lon="16.36673">
        <ele>187.721529</ele>
        <time>2022-09-11T17:20:12.323Z</time>
      </trkpt>
      <trkpt lat="48.2078" lon="16.36669">
        <ele>187.701994</ele>
        <time>2022-09-11T17:20:12.996Z</time>
      </trkpt>
      <trkpt lat="48.20781" lon="16.36673">
        <ele>187.682459</ele>
        <time>2022-09-11T17:20:13.879Z</time>
      </trkpt>
      <trkpt lat="48.20786" lon="16.3668">
        <ele>187.632825</ele>
        <time>2022-09-11T17:20:15.700Z</time>
      </trkpt>
      <trkpt lat="48.20801" lon="16.36686">
        <ele>187.525554</ele>
        <time>2022-09-11T17:20:20.183Z</time>
      </trkpt>
      <trkpt lat="48.20815" lon="16.36675">
        <ele>187.616103</ele>
        <time>2022-09-11T17:20:25.367Z</time>
      </trkpt>
      <trkpt lat="48.2082" lon="16.3665">
        <ele>187.780236</ele>
        <time>2022-09-11T17:20:30.768Z</time>
      </trkpt>
      <trkpt lat="48.2095" lon="16.36588">
        <ele>189.081561</ele>
        <time>2022-09-11T17:21:16.596Z</time>
      </trkpt>
      <trkpt lat="48.20996" lon="16.36554">
        <ele>188.875511</ele>
        <time>2022-09-11T17:21:31.047Z</time>
      </trkpt>
      <trkpt lat="48.21015" lon="16.36539">
        <ele>188.679411</ele>
        <time>2022-09-11T17:21:36.602Z</time>
      </trkpt>
      <trkpt lat="48.21041" lon="16.36521">
        <ele>188.423818</ele>
        <time>2022-09-11T17:21:43.165Z</time>
      </trkpt>
      <trkpt lat="48.21074" lon="16.36498">
        <ele>188.095312</ele>
        <time>2022-09-11T17:21:51.184Z</time>
      </trkpt>
      <trkpt lat="48.21092" lon="16.36486">
        <ele>187.919381</ele>
        <time>2022-09-11T17:21:55.321Z</time>
      </trkpt>
      <trkpt lat="48.21134" lon="16.36459">
        <ele>187.527782</ele>
        <time>2022-09-11T17:22:08.309Z</time>
      </trkpt>
      <trkpt lat="48.21161" lon="16.36448">
        <ele>187.319223</ele>
        <time>2022-09-11T17:22:16.429Z</time>
      </trkpt>
      <trkpt lat="48.21179" lon="16.36445">
        <ele>187.185088</ele>
        <time>2022-09-11T17:22:21.817Z</time>
      </trkpt>
      <trkpt lat="48.21193" lon="16.36427">
        <ele>187.043779</ele>
        <time>2022-09-11T17:22:27.710Z</time>
      </trkpt>
      <trkpt lat="48.21199" lon="16.36411">
        <ele>186.956816</ele>
        <time>2022-09-11T17:22:31.510Z</time>
      </trkpt>
      <trkpt lat="48.21205" lon="16.36416">
        <ele>186.90111</ele>
        <time>2022-09-11T17:22:33.238Z</time>
      </trkpt>
      <trkpt lat="48.21287" lon="16.36358">
        <ele>186.268654</ele>
        <time>2022-09-11T17:22:57.198Z</time>
      </trkpt>
      <trkpt lat="48.21294" lon="16.36354">
        <ele>186.280564</ele>
        <time>2022-09-11T17:22:59.305Z</time>
      </trkpt>
      <trkpt lat="48.21325" lon="16.36323">
        <ele>186.348097</ele>
        <time>2022-09-11T17:23:11.074Z</time>
      </trkpt>
      <trkpt lat="48.2138" lon="16.36266">
        <ele>186.465046</ele>
        <time>2022-09-11T17:23:30.720Z</time>
      </trkpt>
      <trkpt lat="48.21387" lon="16.36281">
        <ele>186.487288</ele>
        <time>2022-09-11T17:23:34.869Z</time>
      </trkpt>
      <trkpt lat="48.21389" lon="16.36284">
        <ele>186.491607</ele>
        <time>2022-09-11T17:23:35.632Z</time>
      </trkpt>
      <trkpt lat="48.21403" lon="16.36293">
        <ele>186.518914</ele>
        <time>2022-09-11T17:23:39.635Z</time>
      </trkpt>
      <trkpt lat="48.21444" lon="16.36382">
        <ele>185.968082</ele>
        <time>2022-09-11T17:23:56.718Z</time>
      </trkpt>
      <trkpt lat="48.21491" lon="16.36485">
        <ele>184.624877</ele>
        <time>2022-09-11T17:24:14.324Z</time>
      </trkpt>
      <trkpt lat="48.21515" lon="16.3654">
        <ele>183.922098</ele>
        <time>2022-09-11T17:24:23.460Z</time>
      </trkpt>
      <trkpt lat="48.21521" lon="16.36551">
        <ele>183.772965</ele>
        <time>2022-09-11T17:24:25.432Z</time>
      </trkpt>
      <trkpt lat="48.21526" lon="16.36563">
        <ele>183.597533</ele>
        <time>2022-09-11T17:24:27.580Z</time>
      </trkpt>
      <trkpt lat="48.21584" lon="16.36691">
        <ele>181.48449</ele>
        <time>2022-09-11T17:24:49.675Z</time>
      </trkpt>
      <trkpt lat="48.2159" lon="16.36704">
        <ele>181.268042</ele>
        <time>2022-09-11T17:24:51.909Z</time>
      </trkpt>
      <trkpt lat="48.21616" lon="16.3676">
        <ele>180.326007</ele>
        <time>2022-09-11T17:25:01.594Z</time>
      </trkpt>
      <trkpt lat="48.21678" lon="16.36893">
        <ele>176.470111</ele>
        <time>2022-09-11T17:25:23.043Z</time>
      </trkpt>
      <trkpt lat="48.21735" lon="16.37017">
        <ele>172.577098</ele>
        <time>2022-09-11T17:25:41.203Z</time>
      </trkpt>
      <trkpt lat="48.21731" lon="16.37036">
        <ele>172.00834</ele>
        <time>2022-09-11T17:25:43.679Z</time>
      </trkpt>
      <trkpt lat="48.21747" lon="16.37019">
        <ele>171.20538</ele>
        <time>2022-09-11T17:25:47.142Z</time>
      </trkpt>
      <trkpt lat="48.21757" lon="16.37006">
        <ele>170.650728</ele>
        <time>2022-09-11T17:25:49.601Z</time>
      </trkpt>
      <trkpt lat="48.21805" lon="16.36963">
        <ele>168.33877</ele>
        <time>2022-09-11T17:25:59.894Z</time>
      </trkpt>
      <trkpt lat="48.21809" lon="16.3696">
        <ele>168.145021</ele>
        <time>2022-09-11T17:26:00.759Z</time>
      </trkpt>
      <trkpt lat="48.21814" lon="16.36956">
        <ele>167.915457</ele>
        <time>2022-09-11T17:26:01.831Z</time>
      </trkpt>
      <trkpt lat="48.21822" lon="16.3695">
        <ele>167.545243</ele>
        <time>2022-09-11T17:26:03.538Z</time>
      </trkpt>
      <trkpt lat="48.21829" lon="16.36948">
        <ele>167.26705</ele>
        <time>2022-09-11T17:26:04.810Z</time>
      </trkpt>
      <trkpt lat="48.21833" lon="16.36945">
        <ele>167.073143</ele>
        <time>2022-09-11T17:26:05.742Z</time>
      </trkpt>
      <trkpt lat="48.21842" lon="16.36954">
        <ele>166.604024</ele>
        <time>2022-09-11T17:26:07.928Z</time>
      </trkpt>
      <trkpt lat="48.21856" lon="16.36967">
        <ele>165.96085</ele>
        <time>2022-09-11T17:26:11.022Z</time>
      </trkpt>
      <trkpt lat="48.21863" lon="16.36964">
        <ele>165.636234</ele>
        <time>2022-09-11T17:26:12.615Z</time>
      </trkpt>
      <trkpt lat="48.21929" lon="16.36877">
        <ele>163.95249</ele>
        <time>2022-09-11T17:26:30.873Z</time>
      </trkpt>
      <trkpt lat="48.21935" lon="16.3688">
        <ele>163.842759</ele>
        <time>2022-09-11T17:26:32.099Z</time>
      </trkpt>
      <trkpt lat="48.2198" lon="16.36838">
        <ele>162.824421</ele>
        <time>2022-09-11T17:26:43.807Z</time>
      </trkpt>
      <trkpt lat="48.22051" lon="16.36803">
        <ele>161.636212</ele>
        <time>2022-09-11T17:27:00.981Z</time>
      </trkpt>
      <trkpt lat="48.22151" lon="16.36783">
        <ele>160.324168</ele>
        <time>2022-09-11T17:27:23.314Z</time>
      </trkpt>
      <trkpt lat="48.22256" lon="16.36774">
        <ele>159.610057</ele>
        <time>2022-09-11T17:27:46.587Z</time>
      </trkpt>
      <trkpt lat="48.22317" lon="16.36772">
        <ele>159.417837</ele>
        <time>2022-09-11T17:28:02.538Z</time>
      </trkpt>
      <trkpt lat="48.22338" lon="16.36771">
        <ele>159.350531</ele>
        <time>2022-09-11T17:28:08.304Z</time>
      </trkpt>
      <trkpt lat="48.22365" lon="16.36771">
        <ele>159.264666</ele>
        <time>2022-09-11T17:28:16.010Z</time>
      </trkpt>
      <trkpt lat="48.22421" lon="16.36766">
        <ele>160.39626</ele>
        <time>2022-09-11T17:28:36.202Z</time>
      </trkpt>
      <trkpt lat="48.22463" lon="16.36753">
        <ele>161.324441</ele>
        <time>2022-09-11T17:28:52.153Z</time>
      </trkpt>
      <trkpt lat="48.22511" lon="16.36733">
        <ele>162.412126</ele>
        <time>2022-09-11T17:29:11.373Z</time>
      </trkpt>
      <trkpt lat="48.2254" lon="16.36713">
        <ele>163.100181</ele>
        <time>2022-09-11T17:29:24.883Z</time>
      </trkpt>
      <trkpt lat="48.22567" lon="16.36693">
        <ele>163.695742</ele>
        <time>2022-09-11T17:29:36.759Z</time>
      </trkpt>
      <trkpt lat="48.22605" lon="16.3666">
        <ele>164.574846</ele>
        <time>2022-09-11T17:29:53.928Z</time>
      </trkpt>
      <trkpt lat="48.22624" lon="16.36634">
        <ele>165.076904</ele>
        <time>2022-09-11T17:30:03.840Z</time>
      </trkpt>
      <trkpt lat="48.22742" lon="16.36471">
        <ele>167.227495</ele>
        <time>2022-09-11T17:30:55.988Z</time>
      </trkpt>
      <trkpt lat="48.22781" lon="16.3642">
        <ele>167.557565</ele>
        <time>2022-09-11T17:31:10.913Z</time>
      </trkpt>
      <trkpt lat="48.22873" lon="16.3633">
        <ele>167.211137</ele>
        <time>2022-09-11T17:31:40.453Z</time>
      </trkpt>
      <trkpt lat="48.22974" lon="16.36266">
        <ele>165.954325</ele>
        <time>2022-09-11T17:32:04.204Z</time>
      </trkpt>
      <trkpt lat="48.23122" lon="16.36186">
        <ele>163.68671</ele>
        <time>2022-09-11T17:32:38.050Z</time>
      </trkpt>
      <trkpt lat="48.23159" lon="16.36181">
        <ele>163.174129</ele>
        <time>2022-09-11T17:32:46.707Z</time>
      </trkpt>
      <trkpt lat="48.23315" lon="16.361">
        <ele>162.343148</ele>
        <time>2022-09-11T17:33:29.443Z</time>
      </trkpt>
      <trkpt lat="48.23382" lon="16.3609">
        <ele>161.420356</ele>
        <time>2022-09-11T17:33:44.389Z</time>
      </trkpt>
      <trkpt lat="48.23532" lon="16.36114">
        <ele>159.402294</ele>
        <time>2022-09-11T17:34:16.550Z</time>
      </trkpt>
      <trkpt lat="48.2355" lon="16.36121">
        <ele>159.329682</ele>
        <time>2022-09-11T17:34:20.778Z</time>
      </trkpt>
      <trkpt lat="48.23559" lon="16.36125">
        <ele>159.290225</ele>
        <time>2022-09-11T17:34:23.072Z</time>
      </trkpt>
      <trkpt lat="48.23605" lon="16.36143">
        <ele>159.102029</ele>
        <time>2022-09-11T17:34:34.782Z</time>
      </trkpt>
      <trkpt lat="48.23624" lon="16.36157">
        <ele>159.018702</ele>
        <time>2022-09-11T17:34:40.408Z</time>
      </trkpt>
      <trkpt lat="48.23769" lon="16.36214">
        <ele>159.415223</ele>
        <time>2022-09-11T17:35:25.341Z</time>
      </trkpt>
      <trkpt lat="48.23962" lon="16.36325">
        <ele>160.853993</ele>
        <time>2022-09-11T17:36:27.283Z</time>
      </trkpt>
      <trkpt lat="48.24199" lon="16.36487">
        <ele>162.597044</ele>
        <time>2022-09-11T17:37:46.571Z</time>
      </trkpt>
      <trkpt lat="48.24378" lon="16.36634">
        <ele>162.510491</ele>
        <time>2022-09-11T17:38:39.432Z</time>
      </trkpt>
      <trkpt lat="48.24456" lon="16.36707">
        <ele>162.354764</ele>
        <time>2022-09-11T17:39:02.882Z</time>
      </trkpt>
      <trkpt lat="48.24583" lon="16.3684">
        <ele>162.008872</ele>
        <time>2022-09-11T17:39:43.690Z</time>
      </trkpt>
      <trkpt lat="48.24747" lon="16.36994">
        <ele>161.213103</ele>
        <time>2022-09-11T17:40:31.345Z</time>
      </trkpt>
      <trkpt lat="48.24879" lon="16.37089">
        <ele>160.920136</ele>
        <time>2022-09-11T17:41:07.603Z</time>
      </trkpt>
      <trkpt lat="48.25047" lon="16.37169">
        <ele>161.816689</ele>
        <time>2022-09-11T17:41:58.605Z</time>
      </trkpt>
      <trkpt lat="48.25075" lon="16.37176">
        <ele>162.110384</ele>
        <time>2022-09-11T17:42:08.111Z</time>
      </trkpt>
      <trkpt lat="48.25119" lon="16.37175">
        <ele>162.573282</ele>
        <time>2022-09-11T17:42:23.469Z</time>
      </trkpt>
      <trkpt lat="48.25166" lon="16.37174">
        <ele>163.048565</ele>
        <time>2022-09-11T17:42:39.688Z</time>
      </trkpt>
      <trkpt lat="48.25237" lon="16.37158">
        <ele>163.764458</ele>
        <time>2022-09-11T17:43:04.143Z</time>
      </trkpt>
      <trkpt lat="48.25326" lon="16.37109">
        <ele>164.478316</ele>
        <time>2022-09-11T17:43:33.809Z</time>
      </trkpt>
      <trkpt lat="48.25426" lon="16.37055">
        <ele>163.802598</ele>
        <time>2022-09-11T17:44:00.988Z</time>
      </trkpt>
      <trkpt lat="48.25465" lon="16.37031">
        <ele>163.537088</ele>
        <time>2022-09-11T17:44:10.730Z</time>
      </trkpt>
      <trkpt lat="48.25563" lon="16.36975">
        <ele>162.965027</ele>
        <time>2022-09-11T17:44:35.565Z</time>
      </trkpt>
      <trkpt lat="48.25583" lon="16.36964">
        <ele>162.851839</ele>
        <time>2022-09-11T17:44:41.201Z</time>
      </trkpt>
      <trkpt lat="48.25624" lon="16.36946">
        <ele>162.625679</ele>
        <time>2022-09-11T17:44:53.263Z</time>
      </trkpt>
      <trkpt lat="48.25642" lon="16.36925">
        <ele>162.501968</ele>
        <time>2022-09-11T17:45:00.148Z</time>
      </trkpt>
      <trkpt lat="48.25776" lon="16.36888">
        <ele>162.526716</ele>
        <time>2022-09-11T17:45:38.295Z</time>
      </trkpt>
      <trkpt lat="48.25787" lon="16.3688">
        <ele>162.531312</ele>
        <time>2022-09-11T17:45:41.434Z</time>
      </trkpt>
      <trkpt lat="48.25809" lon="16.36888">
        <ele>162.540018</ele>
        <time>2022-09-11T17:45:47.554Z</time>
      </trkpt>
      <trkpt lat="48.25828" lon="16.36891">
        <ele>162.581638</ele>
        <time>2022-09-11T17:45:52.592Z</time>
      </trkpt>
      <trkpt lat="48.25852" lon="16.3687">
        <ele>162.746675</ele>
        <time>2022-09-11T17:45:59.976Z</time>
      </trkpt>
      <trkpt lat="48.25894" lon="16.36855">
        <ele>163.000923</ele>
        <time>2022-09-11T17:46:12.002Z</time>
      </trkpt>
      <trkpt lat="48.25912" lon="16.36858">
        <ele>163.11311</ele>
        <time>2022-09-11T17:46:17.485Z</time>
      </trkpt>
      <trkpt lat="48.25918" lon="16.36867">
        <ele>163.158339</ele>
        <time>2022-09-11T17:46:19.422Z</time>
      </trkpt>
      <trkpt lat="48.26036" lon="16.36839">
        <ele>164.120347</ele>
        <time>2022-09-11T17:46:57.706Z</time>
      </trkpt>
      <trkpt lat="48.2604" lon="16.36839">
        <ele>164.168341</ele>
        <time>2022-09-11T17:46:59.249Z</time>
      </trkpt>
      <trkpt lat="48.26044" lon="16.36838">
        <ele>164.216334</ele>
        <time>2022-09-11T17:47:00.736Z</time>
      </trkpt>
      <trkpt lat="48.26089" lon="16.36827">
        <ele>164.759984</ele>
        <time>2022-09-11T17:47:17.874Z</time>
      </trkpt>
      <trkpt lat="48.2625" lon="16.36771">
        <ele>165.254627</ele>
        <time>2022-09-11T17:48:07.323Z</time>
      </trkpt>
      <trkpt lat="48.26254" lon="16.36773">
        <ele>165.231332</ele>
        <time>2022-09-11T17:48:08.548Z</time>
      </trkpt>
      <trkpt lat="48.26333" lon="16.36737">
        <ele>164.731119</ele>
        <time>2022-09-11T17:48:26.338Z</time>
      </trkpt>
      <trkpt lat="48.26421" lon="16.36686">
        <ele>164.199659</ele>
        <time>2022-09-11T17:48:47.060Z</time>
      </trkpt>
      <trkpt lat="48.26608" lon="16.36537">
        <ele>163.763693</ele>
        <time>2022-09-11T17:49:47.417Z</time>
      </trkpt>
      <trkpt lat="48.26794" lon="16.36367">
        <ele>163.466633</ele>
        <time>2022-09-11T17:50:41.911Z</time>
      </trkpt>
      <trkpt lat="48.27154" lon="16.36028">
        <ele>164.557968</ele>
        <time>2022-09-11T17:52:43.244Z</time>
      </trkpt>
      <trkpt lat="48.27375" lon="16.35791">
        <ele>162.962848</ele>
        <time>2022-09-11T17:53:47.586Z</time>
      </trkpt>
      <trkpt lat="48.27394" lon="16.35771">
        <ele>162.799604</ele>
        <time>2022-09-11T17:53:53.540Z</time>
      </trkpt>
      <trkpt lat="48.27411" lon="16.35763">
        <ele>162.679021</ele>
        <time>2022-09-11T17:53:57.743Z</time>
      </trkpt>
      <trkpt lat="48.27419" lon="16.35757">
        <ele>162.619881</ele>
        <time>2022-09-11T17:54:00.072Z</time>
      </trkpt>
      <trkpt lat="48.27445" lon="16.35733">
        <ele>162.766736</ele>
        <time>2022-09-11T17:54:07.936Z</time>
      </trkpt>
      <trkpt lat="48.27499" lon="16.35682">
        <ele>163.072205</ele>
        <time>2022-09-11T17:54:25.024Z</time>
      </trkpt>
      <trkpt lat="48.27547" lon="16.35631">
        <ele>163.358492</ele>
        <time>2022-09-11T17:54:43.167Z</time>
      </trkpt>
      <trkpt lat="48.2759" lon="16.35575">
        <ele>163.878971</ele>
        <time>2022-09-11T17:55:02.873Z</time>
      </trkpt>
      <trkpt lat="48.27717" lon="16.35426">
        <ele>165.788235</ele>
        <time>2022-09-11T17:55:56.865Z</time>
      </trkpt>
      <trkpt lat="48.27805" lon="16.35357">
        <ele>165.754973</ele>
        <time>2022-09-11T17:56:23.298Z</time>
      </trkpt>
      <trkpt lat="48.27825" lon="16.3534">
        <ele>165.747325</ele>
        <time>2022-09-11T17:56:28.948Z</time>
      </trkpt>
      <trkpt lat="48.27884" lon="16.35309">
        <ele>165.711677</ele>
        <time>2022-09-11T17:56:43.580Z</time>
      </trkpt>
      <trkpt lat="48.27945" lon="16.35278">
        <ele>165.629067</ele>
        <time>2022-09-11T17:56:59.509Z</time>
      </trkpt>
      <trkpt lat="48.27975" lon="16.35256">
        <ele>165.586049</ele>
        <time>2022-09-11T17:57:08.489Z</time>
      </trkpt>
      <trkpt lat="48.28036" lon="16.35198">
        <ele>165.544083</ele>
        <time>2022-09-11T17:57:28.453Z</time>
      </trkpt>
      <trkpt lat="48.28073" lon="16.35157">
        <ele>165.844339</ele>
        <time>2022-09-11T17:57:42.555Z</time>
      </trkpt>
      <trkpt lat="48.28146" lon="16.35077">
        <ele>166.431785</ele>
        <time>2022-09-11T17:58:10.865Z</time>
      </trkpt>
      <trkpt lat="48.28175" lon="16.35047">
        <ele>166.660622</ele>
        <time>2022-09-11T17:58:21.647Z</time>
      </trkpt>
      <trkpt lat="48.28278" lon="16.34966">
        <ele>166.550185</ele>
        <time>2022-09-11T17:58:51.750Z</time>
      </trkpt>
      <trkpt lat="48.28389" lon="16.34875">
        <ele>166.031294</ele>
        <time>2022-09-11T17:59:23.713Z</time>
      </trkpt>
      <trkpt lat="48.28411" lon="16.34855">
        <ele>165.847652</ele>
        <time>2022-09-11T17:59:29.659Z</time>
      </trkpt>
      <trkpt lat="48.28415" lon="16.34838">
        <ele>165.756624</ele>
        <time>2022-09-11T17:59:32.546Z</time>
      </trkpt>
      <trkpt lat="48.28415" lon="16.34805">
        <ele>165.598637</ele>
        <time>2022-09-11T17:59:37.443Z</time>
      </trkpt>
      <trkpt lat="48.28416" lon="16.34753">
        <ele>165.345025</ele>
        <time>2022-09-11T17:59:45.309Z</time>
      </trkpt>
      <trkpt lat="48.2842" lon="16.34743">
        <ele>165.288024</ele>
        <time>2022-09-11T17:59:47.374Z</time>
      </trkpt>
      <trkpt lat="48.28427" lon="16.34732">
        <ele>165.211531</ele>
        <time>2022-09-11T17:59:49.588Z</time>
      </trkpt>
      <trkpt lat="48.28483" lon="16.34686">
        <ele>164.600744</ele>
        <time>2022-09-11T18:00:05.072Z</time>
      </trkpt>
      <trkpt lat="48.28508" lon="16.34666">
        <ele>164.327539</ele>
        <time>2022-09-11T18:00:11.788Z</time>
      </trkpt>
      <trkpt lat="48.28522" lon="16.34654">
        <ele>164.172955</ele>
        <time>2022-09-11T18:00:15.502Z</time>
      </trkpt>
      <trkpt lat="48.28571" lon="16.34608">
        <ele>163.605791</ele>
        <time>2022-09-11T18:00:28.540Z</time>
      </trkpt>
      <trkpt lat="48.28581" lon="16.34599">
        <ele>163.488538</ele>
        <time>2022-09-11T18:00:31.169Z</time>
      </trkpt>
      <trkpt lat="48.28594" lon="16.34588">
        <ele>163.387799</ele>
        <time>2022-09-11T18:00:34.490Z</time>
      </trkpt>
      <trkpt lat="48.28624" lon="16.34569">
        <ele>163.294673</ele>
        <time>2022-09-11T18:00:41.941Z</time>
      </trkpt>
      <trkpt lat="48.2868" lon="16.34551">
        <ele>163.127971</ele>
        <time>2022-09-11T18:00:56.216Z</time>
      </trkpt>
      <trkpt lat="48.28716" lon="16.34538">
        <ele>163.023685</ele>
        <time>2022-09-11T18:01:06.087Z</time>
      </trkpt>
      <trkpt lat="48.28731" lon="16.34532">
        <ele>162.978048</ele>
        <time>2022-09-11T18:01:10.726Z</time>
      </trkpt>
      <trkpt lat="48.2885" lon="16.34486">
        <ele>163.546708</ele>
        <time>2022-09-11T18:01:46.135Z</time>
      </trkpt>
      <trkpt lat="48.2886" lon="16.34481">
        <ele>163.623314</ele>
        <time>2022-09-11T18:01:49.582Z</time>
      </trkpt>
      <trkpt lat="48.28954" lon="16.34428">
        <ele>164.264771</ele>
        <time>2022-09-11T18:02:21.685Z</time>
      </trkpt>
      <trkpt lat="48.28976" lon="16.34454">
        <ele>164.366657</ele>
        <time>2022-09-11T18:02:30.095Z</time>
      </trkpt>
      <trkpt lat="48.29084" lon="16.34422">
        <ele>164.769107</ele>
        <time>2022-09-11T18:03:00.124Z</time>
      </trkpt>
      <trkpt lat="48.29172" lon="16.3438">
        <ele>164.768914</ele>
        <time>2022-09-11T18:03:24.501Z</time>
      </trkpt>
      <trkpt lat="48.2921" lon="16.34362">
        <ele>164.729536</ele>
        <time>2022-09-11T18:03:35.381Z</time>
      </trkpt>
      <trkpt lat="48.29256" lon="16.34351">
        <ele>164.683921</ele>
        <time>2022-09-11T18:03:47.294Z</time>
      </trkpt>
      <trkpt lat="48.29365" lon="16.34334">
        <ele>164.533096</ele>
        <time>2022-09-11T18:04:15.364Z</time>
      </trkpt>
      <trkpt lat="48.29399" lon="16.34326">
        <ele>164.482435</ele>
        <time>2022-09-11T18:04:24.467Z</time>
      </trkpt>
      <trkpt lat="48.29482" lon="16.34263">
        <ele>164.46694</ele>
        <time>2022-09-11T18:04:49.042Z</time>
      </trkpt>
      <trkpt lat="48.29488" lon="16.3426">
        <ele>164.477051</ele>
        <time>2022-09-11T18:04:50.544Z</time>
      </trkpt>
      <trkpt lat="48.29552" lon="16.34222">
        <ele>164.601687</ele>
        <time>2022-09-11T18:05:08.655Z</time>
      </trkpt>
      <trkpt lat="48.29579" lon="16.34192">
        <ele>164.663241</ele>
        <time>2022-09-11T18:05:18.328Z</time>
      </trkpt>
      <trkpt lat="48.29609" lon="16.34163">
        <ele>164.72662</ele>
        <time>2022-09-11T18:05:28.851Z</time>
      </trkpt>
      <trkpt lat="48.29699" lon="16.34078">
        <ele>164.986696</ele>
        <time>2022-09-11T18:06:01.157Z</time>
      </trkpt>
      <trkpt lat="48.29746" lon="16.34048">
        <ele>165.110835</ele>
        <time>2022-09-11T18:06:14.176Z</time>
      </trkpt>
      <trkpt lat="48.29785" lon="16.34026">
        <ele>165.024539</ele>
        <time>2022-09-11T18:06:24.319Z</time>
      </trkpt>
      <trkpt lat="48.29798" lon="16.3402">
        <ele>164.924917</ele>
        <time>2022-09-11T18:06:27.647Z</time>
      </trkpt>
      <trkpt lat="48.29892" lon="16.33951">
        <ele>164.190389</ele>
        <time>2022-09-11T18:06:52.533Z</time>
      </trkpt>
      <trkpt lat="48.29976" lon="16.33869">
        <ele>164.053048</ele>
        <time>2022-09-11T18:07:16.264Z</time>
      </trkpt>
      <trkpt lat="48.30016" lon="16.33823">
        <ele>164.188211</ele>
        <time>2022-09-11T18:07:30.717Z</time>
      </trkpt>
      <trkpt lat="48.30055" lon="16.33767">
        <ele>164.330805</ele>
        <time>2022-09-11T18:07:47.750Z</time>
      </trkpt>
      <trkpt lat="48.30081" lon="16.33719">
        <ele>164.537976</ele>
        <time>2022-09-11T18:08:01.438Z</time>
      </trkpt>
      <trkpt lat="48.30093" lon="16.33568">
        <ele>165.215655</ele>
        <time>2022-09-11T18:08:32.020Z</time>
      </trkpt>
      <trkpt lat="48.30094" lon="16.33557">
        <ele>165.264683</ele>
        <time>2022-09-11T18:08:34.282Z</time>
      </trkpt>
      <trkpt lat="48.30089" lon="16.33539">
        <ele>165.348029</ele>
        <time>2022-09-11T18:08:38.028Z</time>
      </trkpt>
      <trkpt lat="48.30088" lon="16.3344">
        <ele>165.449627</ele>
        <time>2022-09-11T18:08:56.267Z</time>
      </trkpt>
      <trkpt lat="48.30086" lon="16.3341">
        <ele>165.370582</ele>
        <time>2022-09-11T18:09:01.093Z</time>
      </trkpt>
      <trkpt lat="48.30113" lon="16.3341">
        <ele>165.261858</ele>
        <time>2022-09-11T18:09:07.911Z</time>
      </trkpt>
      <trkpt lat="48.30131" lon="16.33405">
        <ele>165.190817</ele>
        <time>2022-09-11T18:09:12.137Z</time>
      </trkpt>
      <trkpt lat="48.30134" lon="16.33404">
        <ele>165.179514</ele>
        <time>2022-09-11T18:09:12.865Z</time>
      </trkpt>
      <trkpt lat="48.3018" lon="16.33389">
        <ele>164.989783</ele>
        <time>2022-09-11T18:09:23.989Z</time>
      </trkpt>
      <trkpt lat="48.30203" lon="16.3338">
        <ele>164.89443</ele>
        <time>2022-09-11T18:09:29.715Z</time>
      </trkpt>
      <trkpt lat="48.30241" lon="16.33374">
        <ele>165.082642</ele>
        <time>2022-09-11T18:09:39.124Z</time>
      </trkpt>
      <trkpt lat="48.30263" lon="16.33385">
        <ele>165.263215</ele>
        <time>2022-09-11T18:09:45.570Z</time>
      </trkpt>
      <trkpt lat="48.30267" lon="16.33387">
        <ele>165.292831</ele>
        <time>2022-09-11T18:09:46.602Z</time>
      </trkpt>
      <trkpt lat="48.30274" lon="16.33391">
        <ele>165.354933</ele>
        <time>2022-09-11T18:09:48.776Z</time>
      </trkpt>
      <trkpt lat="48.3028" lon="16.33381">
        <ele>165.422799</ele>
        <time>2022-09-11T18:09:51.249Z</time>
      </trkpt>
      <trkpt lat="48.30311" lon="16.33399">
        <ele>165.680357</ele>
        <time>2022-09-11T18:10:01.209Z</time>
      </trkpt>
      <trkpt lat="48.30354" lon="16.33442">
        <ele>166.073075</ele>
        <time>2022-09-11T18:10:18.076Z</time>
      </trkpt>
      <trkpt lat="48.30408" lon="16.335">
        <ele>167.443606</ele>
        <time>2022-09-11T18:10:43.438Z</time>
      </trkpt>
      <trkpt lat="48.30438" lon="16.33502">
        <ele>168.244926</ele>
        <time>2022-09-11T18:10:55.986Z</time>
      </trkpt>
      <trkpt lat="48.30597" lon="16.33436">
        <ele>171.56162</ele>
        <time>2022-09-11T18:12:03.056Z</time>
      </trkpt>
      <trkpt lat="48.30685" lon="16.33409">
        <ele>172.268574</ele>
        <time>2022-09-11T18:12:27.682Z</time>
      </trkpt>
      <trkpt lat="48.30741" lon="16.33396">
        <ele>172.184339</ele>
        <time>2022-09-11T18:12:40.622Z</time>
      </trkpt>
      <trkpt lat="48.30767" lon="16.3339">
        <ele>171.861909</ele>
        <time>2022-09-11T18:12:46.335Z</time>
      </trkpt>
      <trkpt lat="48.30807" lon="16.33382">
        <ele>171.361141</ele>
        <time>2022-09-11T18:12:55.331Z</time>
      </trkpt>
      <trkpt lat="48.30845" lon="16.33371">
        <ele>170.895117</ele>
        <time>2022-09-11T18:13:03.775Z</time>
      </trkpt>
      <trkpt lat="48.30933" lon="16.33267">
        <ele>169.787478</ele>
        <time>2022-09-11T18:13:29.653Z</time>
      </trkpt>
      <trkpt lat="48.30979" lon="16.33211">
        <ele>169.30769</ele>
        <time>2022-09-11T18:13:44.159Z</time>
      </trkpt>
      <trkpt lat="48.31031" lon="16.3312">
        <ele>168.689285</ele>
        <time>2022-09-11T18:14:03.215Z</time>
      </trkpt>
      <trkpt lat="48.31049" lon="16.33081">
        <ele>168.47671</ele>
        <time>2022-09-11T18:14:10.520Z</time>
      </trkpt>
      <trkpt lat="48.31085" lon="16.33001">
        <ele>168.040025</ele>
        <time>2022-09-11T18:14:25.653Z</time>
      </trkpt>
      <trkpt lat="48.31087" lon="16.32973">
        <ele>167.913444</ele>
        <time>2022-09-11T18:14:30.244Z</time>
      </trkpt>
      <trkpt lat="48.31081" lon="16.32947">
        <ele>167.785403</ele>
        <time>2022-09-11T18:14:34.852Z</time>
      </trkpt>
      <trkpt lat="48.31041" lon="16.32897">
        <ele>167.457519</ele>
        <time>2022-09-11T18:14:47.715Z</time>
      </trkpt>
      <trkpt lat="48.31037" lon="16.32891">
        <ele>167.42177</ele>
        <time>2022-09-11T18:14:49.198Z</time>
      </trkpt>
      <trkpt lat="48.31008" lon="16.32854">
        <ele>167.19614</ele>
        <time>2022-09-11T18:14:58.375Z</time>
      </trkpt>
      <trkpt lat="48.31003" lon="16.32839">
        <ele>167.12619</ele>
        <time>2022-09-11T18:15:01.168Z</time>
      </trkpt>
      <trkpt lat="48.31005" lon="16.32808">
        <ele>167.000047</ele>
        <time>2022-09-11T18:15:06.362Z</time>
      </trkpt>
      <trkpt lat="48.31028" lon="16.32748">
        <ele>166.723215</ele>
        <time>2022-09-11T18:15:17.535Z</time>
      </trkpt>
      <trkpt lat="48.31042" lon="16.32705">
        <ele>166.530703</ele>
        <time>2022-09-11T18:15:25.206Z</time>
      </trkpt>
      <trkpt lat="48.31056" lon="16.32691">
        <ele>166.411026</ele>
        <time>2022-09-11T18:15:29.007Z</time>
      </trkpt>
      <trkpt lat="48.31165" lon="16.32539">
        <ele>165.305801</ele>
        <time>2022-09-11T18:16:04.385Z</time>
      </trkpt>
      <trkpt lat="48.31198" lon="16.32491">
        <ele>165.254245</ele>
        <time>2022-09-11T18:16:15.707Z</time>
      </trkpt>
      <trkpt lat="48.31237" lon="16.32431">
        <ele>165.322956</ele>
        <time>2022-09-11T18:16:29.565Z</time>
      </trkpt>
      <trkpt lat="48.3137" lon="16.32236">
        <ele>166.633461</ele>
        <time>2022-09-11T18:17:25.490Z</time>
      </trkpt>
      <trkpt lat="48.31402" lon="16.32186">
        <ele>167.208192</ele>
        <time>2022-09-11T18:17:42.199Z</time>
      </trkpt>
      <trkpt lat="48.31432" lon="16.32142">
        <ele>167.736338</ele>
        <time>2022-09-11T18:17:57.294Z</time>
      </trkpt>
      <trkpt lat="48.31505" lon="16.32005">
        <ele>169.249987</ele>
        <time>2022-09-11T18:18:38.139Z</time>
      </trkpt>
      <trkpt lat="48.31514" lon="16.31981">
        <ele>169.486788</ele>
        <time>2022-09-11T18:18:43.684Z</time>
      </trkpt>
      <trkpt lat="48.31529" lon="16.31963">
        <ele>169.726255</ele>
        <time>2022-09-11T18:18:49.454Z</time>
      </trkpt>
      <trkpt lat="48.31587" lon="16.31941">
        <ele>170.034704</ele>
        <time>2022-09-11T18:19:06.024Z</time>
      </trkpt>
      <trkpt lat="48.31607" lon="16.31915">
        <ele>170.04167</ele>
        <time>2022-09-11T18:19:12.767Z</time>
      </trkpt>
      <trkpt lat="48.31662" lon="16.31744">
        <ele>170.095304</ele>
        <time>2022-09-11T18:19:45.757Z</time>
      </trkpt>
      <trkpt lat="48.31675" lon="16.31705">
        <ele>170.160353</ele>
        <time>2022-09-11T18:19:53.777Z</time>
      </trkpt>
      <trkpt lat="48.31693" lon="16.31678">
        <ele>170.216358</ele>
        <time>2022-09-11T18:20:00.781Z</time>
      </trkpt>
      <trkpt lat="48.31691" lon="16.31673">
        <ele>170.224055</ele>
        <time>2022-09-11T18:20:01.693Z</time>
      </trkpt>
      <trkpt lat="48.31679" lon="16.3165">
        <ele>170.2683</ele>
        <time>2022-09-11T18:20:07.204Z</time>
      </trkpt>
      <trkpt lat="48.31673" lon="16.31638">
        <ele>170.290176</ele>
        <time>2022-09-11T18:20:10.110Z</time>
      </trkpt>
      <trkpt lat="48.32209" lon="16.31136">
        <ele>172.09845</ele>
        <time>2022-09-11T18:23:08.404Z</time>
      </trkpt>
      <trkpt lat="48.32423" lon="16.30953">
        <ele>171.112169</ele>
        <time>2022-09-11T18:24:09.653Z</time>
      </trkpt>
      <trkpt lat="48.32432" lon="16.30944">
        <ele>171.048922</ele>
        <time>2022-09-11T18:24:12.276Z</time>
      </trkpt>
      <trkpt lat="48.32438" lon="16.30939">
        <ele>171.011614</ele>
        <time>2022-09-11T18:24:13.841Z</time>
      </trkpt>
      <trkpt lat="48.32465" lon="16.30916">
        <ele>170.83563</ele>
        <time>2022-09-11T18:24:21.209Z</time>
      </trkpt>
      <trkpt lat="48.33097" lon="16.30371">
        <ele>167.230417</ele>
        <time>2022-09-11T18:27:20.268Z</time>
      </trkpt>
      <trkpt lat="48.33212" lon="16.30278">
        <ele>167.185138</ele>
        <time>2022-09-11T18:27:55.694Z</time>
      </trkpt>
      <trkpt lat="48.33482" lon="16.30065">
        <ele>167.644924</ele>
        <time>2022-09-11T18:29:20.215Z</time>
      </trkpt>
      <trkpt lat="48.33588" lon="16.29956">
        <ele>167.45981</ele>
        <time>2022-09-11T18:29:53.096Z</time>
      </trkpt>
      <trkpt lat="48.33651" lon="16.29907">
        <ele>167.352979</ele>
        <time>2022-09-11T18:30:11.034Z</time>
      </trkpt>
      <trkpt lat="48.33679" lon="16.29888">
        <ele>167.305686</ele>
        <time>2022-09-11T18:30:18.900Z</time>
      </trkpt>
      <trkpt lat="48.33701" lon="16.29873">
        <ele>167.267963</ele>
        <time>2022-09-11T18:30:25.016Z</time>
      </trkpt>
      <trkpt lat="48.33713" lon="16.29876">
        <ele>167.248126</ele>
        <time>2022-09-11T18:30:28.570Z</time>
      </trkpt>
      <trkpt lat="48.33736" lon="16.29863">
        <ele>167.211031</ele>
        <time>2022-09-11T18:30:34.637Z</time>
      </trkpt>
      <trkpt lat="48.33739" lon="16.29855">
        <ele>167.201051</ele>
        <time>2022-09-11T18:30:36.520Z</time>
      </trkpt>
      <trkpt lat="48.33748" lon="16.29853">
        <ele>167.188156</ele>
        <time>2022-09-11T18:30:38.725Z</time>
      </trkpt>
      <trkpt lat="48.33754" lon="16.29851">
        <ele>167.177947</ele>
        <time>2022-09-11T18:30:40.420Z</time>
      </trkpt>
      <trkpt lat="48.3376" lon="16.2985">
        <ele>167.167992</ele>
        <time>2022-09-11T18:30:42.068Z</time>
      </trkpt>
      <trkpt lat="48.33872" lon="16.29766">
        <ele>167.221194</ele>
        <time>2022-09-11T18:31:16.269Z</time>
      </trkpt>
      <trkpt lat="48.34062" lon="16.29637">
        <ele>167.201447</ele>
        <time>2022-09-11T18:32:11.683Z</time>
      </trkpt>
      <trkpt lat="48.34093" lon="16.29615">
        <ele>167.186389</ele>
        <time>2022-09-11T18:32:20.495Z</time>
      </trkpt>
      <trkpt lat="48.34315" lon="16.29415">
        <ele>167.057181</ele>
        <time>2022-09-11T18:33:29.014Z</time>
      </trkpt>
      <trkpt lat="48.34457" lon="16.29281">
        <ele>166.935546</ele>
        <time>2022-09-11T18:34:14.126Z</time>
      </trkpt>
      <trkpt lat="48.34552" lon="16.29193">
        <ele>166.719068</ele>
        <time>2022-09-11T18:34:42.618Z</time>
      </trkpt>
      <trkpt lat="48.34648" lon="16.29124">
        <ele>166.158834</ele>
        <time>2022-09-11T18:35:08.425Z</time>
      </trkpt>
      <trkpt lat="48.34673" lon="16.29119">
        <ele>166.02162</ele>
        <time>2022-09-11T18:35:14.630Z</time>
      </trkpt>
      <trkpt lat="48.34699" lon="16.29107">
        <ele>165.870858</ele>
        <time>2022-09-11T18:35:21.249Z</time>
      </trkpt>
      <trkpt lat="48.34728" lon="16.29081">
        <ele>165.697111</ele>
        <time>2022-09-11T18:35:29.318Z</time>
      </trkpt>
      <trkpt lat="48.34743" lon="16.29057">
        <ele>165.605838</ele>
        <time>2022-09-11T18:35:34.853Z</time>
      </trkpt>
      <trkpt lat="48.34775" lon="16.28985">
        <ele>165.373552</ele>
        <time>2022-09-11T18:35:48.945Z</time>
      </trkpt>
      <trkpt lat="48.34912" lon="16.2871">
        <ele>165.04094</ele>
        <time>2022-09-11T18:36:47.453Z</time>
      </trkpt>
      <trkpt lat="48.34962" lon="16.28595">
        <ele>165.418564</ele>
        <time>2022-09-11T18:37:14.746Z</time>
      </trkpt>
      <trkpt lat="48.35023" lon="16.28424">
        <ele>166.426446</ele>
        <time>2022-09-11T18:37:54.432Z</time>
      </trkpt>
      <trkpt lat="48.35039" lon="16.28365">
        <ele>166.672396</ele>
        <time>2022-09-11T18:38:07.639Z</time>
      </trkpt>
      <trkpt lat="48.35057" lon="16.2829">
        <ele>166.967228</ele>
        <time>2022-09-11T18:38:24.022Z</time>
      </trkpt>
      <trkpt lat="48.35059" lon="16.28283">
        <ele>166.994685</ele>
        <time>2022-09-11T18:38:25.517Z</time>
      </trkpt>
      <trkpt lat="48.35074" lon="16.28208">
        <ele>167.284526</ele>
        <time>2022-09-11T18:38:40.323Z</time>
      </trkpt>
      <trkpt lat="48.35077" lon="16.28191">
        <ele>167.350707</ele>
        <time>2022-09-11T18:38:43.579Z</time>
      </trkpt>
      <trkpt lat="48.35103" lon="16.28034">
        <ele>167.452068</ele>
        <time>2022-09-11T18:39:12.232Z</time>
      </trkpt>
      <trkpt lat="48.35119" lon="16.27903">
        <ele>167.43849</ele>
        <time>2022-09-11T18:39:36.084Z</time>
      </trkpt>
      <trkpt lat="48.3512" lon="16.279">
        <ele>167.438208</ele>
        <time>2022-09-11T18:39:36.558Z</time>
      </trkpt>
      <trkpt lat="48.35135" lon="16.27728">
        <ele>167.370561</ele>
        <time>2022-09-11T18:40:06.030Z</time>
      </trkpt>
      <trkpt lat="48.35145" lon="16.27484">
        <ele>167.76567</ele>
        <time>2022-09-11T18:40:50.896Z</time>
      </trkpt>
      <trkpt lat="48.35152" lon="16.27284">
        <ele>168.569696</ele>
        <time>2022-09-11T18:41:31.166Z</time>
      </trkpt>
      <trkpt lat="48.35156" lon="16.27201">
        <ele>169.042081</ele>
        <time>2022-09-11T18:41:48.632Z</time>
      </trkpt>
      <trkpt lat="48.3516" lon="16.27034">
        <ele>169.926124</ele>
        <time>2022-09-11T18:42:22.492Z</time>
      </trkpt>
      <trkpt lat="48.3515" lon="16.27008">
        <ele>170.059614</ele>
        <time>2022-09-11T18:42:28.614Z</time>
      </trkpt>
      <trkpt lat="48.3515" lon="16.2687">
        <ele>170.655618</ele>
        <time>2022-09-11T18:42:56.214Z</time>
      </trkpt>
      <trkpt lat="48.35155" lon="16.2669">
        <ele>171.163117</ele>
        <time>2022-09-11T18:43:30.386Z</time>
      </trkpt>
      <trkpt lat="48.3516" lon="16.26557">
        <ele>171.46045</ele>
        <time>2022-09-11T18:43:55.120Z</time>
      </trkpt>
      <trkpt lat="48.35162" lon="16.26507">
        <ele>171.634324</ele>
        <time>2022-09-11T18:44:04.358Z</time>
      </trkpt>
      <trkpt lat="48.35164" lon="16.26331">
        <ele>172.27751</ele>
        <time>2022-09-11T18:44:37.752Z</time>
      </trkpt>
      <trkpt lat="48.35164" lon="16.26325">
        <ele>172.302039</ele>
        <time>2022-09-11T18:44:39.141Z</time>
      </trkpt>
      <trkpt lat="48.35163" lon="16.26188">
        <ele>173.076207</ele>
        <time>2022-09-11T18:45:08.571Z</time>
      </trkpt>
      <trkpt lat="48.35153" lon="16.26115">
        <ele>173.565524</ele>
        <time>2022-09-11T18:45:24.150Z</time>
      </trkpt>
      <trkpt lat="48.35168" lon="16.26074">
        <ele>173.87372</ele>
        <time>2022-09-11T18:45:33.779Z</time>
      </trkpt>
      <trkpt lat="48.35172" lon="16.2603">
        <ele>174.170891</ele>
        <time>2022-09-11T18:45:43.005Z</time>
      </trkpt>
      <trkpt lat="48.35166" lon="16.26002">
        <ele>174.279341</ele>
        <time>2022-09-11T18:45:49.687Z</time>
      </trkpt>
      <trkpt lat="48.35174" lon="16.25927">
        <ele>174.395313</ele>
        <time>2022-09-11T18:46:04.601Z</time>
      </trkpt>
      <trkpt lat="48.35169" lon="16.25888">
        <ele>174.456622</ele>
        <time>2022-09-11T18:46:11.881Z</time>
      </trkpt>
      <trkpt lat="48.35158" lon="16.25871">
        <ele>174.494879</ele>
        <time>2022-09-11T18:46:16.389Z</time>
      </trkpt>
      <trkpt lat="48.35138" lon="16.25865">
        <ele>174.54102</ele>
        <time>2022-09-11T18:46:21.268Z</time>
      </trkpt>
      <trkpt lat="48.35107" lon="16.25858">
        <ele>174.613569</ele>
        <time>2022-09-11T18:46:29.335Z</time>
      </trkpt>
      <trkpt lat="48.35121" lon="16.25774">
        <ele>175.005552</ele>
        <time>2022-09-11T18:46:44.040Z</time>
      </trkpt>
      <trkpt lat="48.35131" lon="16.25668">
        <ele>175.71175</ele>
        <time>2022-09-11T18:47:04.694Z</time>
      </trkpt>
      <trkpt lat="48.35128" lon="16.25617">
        <ele>176.052201</ele>
        <time>2022-09-11T18:47:16.847Z</time>
      </trkpt>
      <trkpt lat="48.35118" lon="16.25516">
        <ele>177.054039</ele>
        <time>2022-09-11T18:47:42.014Z</time>
      </trkpt>
      <trkpt lat="48.35116" lon="16.25457">
        <ele>177.916484</ele>
        <time>2022-09-11T18:47:56.948Z</time>
      </trkpt>
      <trkpt lat="48.351" lon="16.25405">
        <ele>178.759563</ele>
        <time>2022-09-11T18:48:12.741Z</time>
      </trkpt>
      <trkpt lat="48.3509" lon="16.25372">
        <ele>179.284932</ele>
        <time>2022-09-11T18:48:22.812Z</time>
      </trkpt>
      <trkpt lat="48.35093" lon="16.25347">
        <ele>179.669234</ele>
        <time>2022-09-11T18:48:28.327Z</time>
      </trkpt>
      <trkpt lat="48.35083" lon="16.25261">
        <ele>180.264813</ele>
        <time>2022-09-11T18:48:48.437Z</time>
      </trkpt>
      <trkpt lat="48.35053" lon="16.25174">
        <ele>179.8412</ele>
        <time>2022-09-11T18:49:07.804Z</time>
      </trkpt>
      <trkpt lat="48.3505" lon="16.25149">
        <ele>179.73123</ele>
        <time>2022-09-11T18:49:11.237Z</time>
      </trkpt>
      <trkpt lat="48.35013" lon="16.25023">
        <ele>178.597091</ele>
        <time>2022-09-11T18:49:30.814Z</time>
      </trkpt>
      <trkpt lat="48.34997" lon="16.24944">
        <ele>176.610412</ele>
        <time>2022-09-11T18:49:41.184Z</time>
      </trkpt>
      <trkpt lat="48.34964" lon="16.24826">
        <ele>173.541488</ele>
        <time>2022-09-11T18:49:56.956Z</time>
      </trkpt>
      <trkpt lat="48.34958" lon="16.24806">
        <ele>172.994131</ele>
        <time>2022-09-11T18:49:59.760Z</time>
      </trkpt>
      <trkpt lat="48.34955" lon="16.24799">
        <ele>172.810061</ele>
        <time>2022-09-11T18:50:00.825Z</time>
      </trkpt>
      <trkpt lat="48.34963" lon="16.24763">
        <ele>172.179603</ele>
        <time>2022-09-11T18:50:05.423Z</time>
      </trkpt>
      <trkpt lat="48.34967" lon="16.24709">
        <ele>171.300228</ele>
        <time>2022-09-11T18:50:12.395Z</time>
      </trkpt>
      <trkpt lat="48.34968" lon="16.24704">
        <ele>171.20792</ele>
        <time>2022-09-11T18:50:15.052Z</time>
      </trkpt>
      <trkpt lat="48.34969" lon="16.24693">
        <ele>171.04091</ele>
        <time>2022-09-11T18:50:19.845Z</time>
      </trkpt>
      <trkpt lat="48.34971" lon="16.24683">
        <ele>170.871184</ele>
        <time>2022-09-11T18:50:24.714Z</time>
      </trkpt>
      <trkpt lat="48.34992" lon="16.2449">
        <ele>168.310027</ele>
        <time>2022-09-11T18:50:52.888Z</time>
      </trkpt>
      <trkpt lat="48.35005" lon="16.24434">
        <ele>168.229361</ele>
        <time>2022-09-11T18:51:03.611Z</time>
      </trkpt>
      <trkpt lat="48.34995" lon="16.24418">
        <ele>168.198311</ele>
        <time>2022-09-11T18:51:07.657Z</time>
      </trkpt>
      <trkpt lat="48.34992" lon="16.244">
        <ele>168.172113</ele>
        <time>2022-09-11T18:51:11.222Z</time>
      </trkpt>
      <trkpt lat="48.34998" lon="16.24356">
        <ele>168.110689</ele>
        <time>2022-09-11T18:51:19.389Z</time>
      </trkpt>
      <trkpt lat="48.34997" lon="16.2433">
        <ele>168.074546</ele>
        <time>2022-09-11T18:51:24.271Z</time>
      </trkpt>
      <trkpt lat="48.34946" lon="16.24207">
        <ele>168.809264</ele>
        <time>2022-09-11T18:51:50.483Z</time>
      </trkpt>
      <trkpt lat="48.3491" lon="16.24101">
        <ele>169.949245</ele>
        <time>2022-09-11T18:52:18.378Z</time>
      </trkpt>
      <trkpt lat="48.34903" lon="16.2408">
        <ele>170.17737</ele>
        <time>2022-09-11T18:52:24.380Z</time>
      </trkpt>
      <trkpt lat="48.3489" lon="16.24039">
        <ele>170.636187</ele>
        <time>2022-09-11T18:52:35.639Z</time>
      </trkpt>
      <trkpt lat="48.34919" lon="16.24005">
        <ele>171.679303</ele>
        <time>2022-09-11T18:52:49.669Z</time>
      </trkpt>
      <trkpt lat="48.34959" lon="16.23964">
        <ele>173.092684</ele>
        <time>2022-09-11T18:53:09.789Z</time>
      </trkpt>
      <trkpt lat="48.3498" lon="16.2395">
        <ele>173.76982</ele>
        <time>2022-09-11T18:53:19.172Z</time>
      </trkpt>
      <trkpt lat="48.35017" lon="16.23944">
        <ele>174.824228</ele>
        <time>2022-09-11T18:53:35.246Z</time>
      </trkpt>
      <trkpt lat="48.35047" lon="16.23955">
        <ele>175.726939</ele>
        <time>2022-09-11T18:53:49.079Z</time>
      </trkpt>
      <trkpt lat="48.35079" lon="16.23983">
        <ele>176.287444</ele>
        <time>2022-09-11T18:54:03.662Z</time>
      </trkpt>
      <trkpt lat="48.35098" lon="16.24015">
        <ele>176.702301</ele>
        <time>2022-09-11T18:54:13.572Z</time>
      </trkpt>
      <trkpt lat="48.35116" lon="16.24082">
        <ele>177.390668</ele>
        <time>2022-09-11T18:54:28.808Z</time>
      </trkpt>
      <trkpt lat="48.3513" lon="16.24077">
        <ele>177.603485</ele>
        <time>2022-09-11T18:54:33.670Z</time>
      </trkpt>
      <trkpt lat="48.35139" lon="16.2392">
        <ele>178.386624</ele>
        <time>2022-09-11T18:55:04.831Z</time>
      </trkpt>
      <trkpt lat="48.35132" lon="16.23796">
        <ele>178.416661</ele>
        <time>2022-09-11T18:55:26.137Z</time>
      </trkpt>
      <trkpt lat="48.35063" lon="16.23095">
        <ele>177.346754</ele>
        <time>2022-09-11T18:57:25.023Z</time>
      </trkpt>
      <trkpt lat="48.3503" lon="16.22814">
        <ele>177.677105</ele>
        <time>2022-09-11T18:58:19.908Z</time>
      </trkpt>
      <trkpt lat="48.34965" lon="16.22331">
        <ele>177.78999</ele>
        <time>2022-09-11T18:59:46.969Z</time>
      </trkpt>
      <trkpt lat="48.34884" lon="16.21821">
        <ele>177.530159</ele>
        <time>2022-09-11T19:01:19.186Z</time>
      </trkpt>
      <trkpt lat="48.3487" lon="16.21736">
        <ele>177.389982</ele>
        <time>2022-09-11T19:01:34.136Z</time>
      </trkpt>
      <trkpt lat="48.34836" lon="16.21549">
        <ele>176.957389</ele>
        <time>2022-09-11T19:02:06.637Z</time>
      </trkpt>
      <trkpt lat="48.34811" lon="16.21527">
        <ele>176.792504</ele>
        <time>2022-09-11T19:02:13.687Z</time>
      </trkpt>
      <trkpt lat="48.34785" lon="16.2151">
        <ele>176.634557</ele>
        <time>2022-09-11T19:02:20.308Z</time>
      </trkpt>
      <trkpt lat="48.34764" lon="16.21481">
        <ele>176.47827</ele>
        <time>2022-09-11T19:02:26.960Z</time>
      </trkpt>
      <trkpt lat="48.34715" lon="16.21213">
        <ele>175.635152</ele>
        <time>2022-09-11T19:03:13.324Z</time>
      </trkpt>
      <trkpt lat="48.34714" lon="16.21182">
        <ele>175.550876</ele>
        <time>2022-09-11T19:03:18.433Z</time>
      </trkpt>
      <trkpt lat="48.34734" lon="16.20997">
        <ele>175.107765</ele>
        <time>2022-09-11T19:03:49.543Z</time>
      </trkpt>
      <trkpt lat="48.34664" lon="16.20651">
        <ele>174.444489</ele>
        <time>2022-09-11T19:04:51.218Z</time>
      </trkpt>
      <trkpt lat="48.34549" lon="16.20093">
        <ele>173.209446</ele>
        <time>2022-09-11T19:06:28.616Z</time>
      </trkpt>
      <trkpt lat="48.34359" lon="16.19233">
        <ele>175.396094</ele>
        <time>2022-09-11T19:09:22.868Z</time>
      </trkpt>
      <trkpt lat="48.34124" lon="16.18418">
        <ele>175.052786</ele>
        <time>2022-09-11T19:11:55.170Z</time>
      </trkpt>
      <trkpt lat="48.34122" lon="16.18394">
        <ele>175.081635</ele>
        <time>2022-09-11T19:11:59.899Z</time>
      </trkpt>
      <trkpt lat="48.34127" lon="16.18378">
        <ele>175.103334</ele>
        <time>2022-09-11T19:12:03.531Z</time>
      </trkpt>
      <trkpt lat="48.34152" lon="16.18347">
        <ele>175.160467</ele>
        <time>2022-09-11T19:12:13.323Z</time>
      </trkpt>
      <trkpt lat="48.34154" lon="16.18319">
        <ele>175.369512</ele>
        <time>2022-09-11T19:12:19.066Z</time>
      </trkpt>
      <trkpt lat="48.34085" lon="16.18024">
        <ele>177.435707</ele>
        <time>2022-09-11T19:13:27.954Z</time>
      </trkpt>
      <trkpt lat="48.33936" lon="16.17509">
        <ele>177.314035</ele>
        <time>2022-09-11T19:15:05.515Z</time>
      </trkpt>
      <trkpt lat="48.33933" lon="16.17491">
        <ele>177.260147</ele>
        <time>2022-09-11T19:15:08.616Z</time>
      </trkpt>
      <trkpt lat="48.33936" lon="16.17475">
        <ele>177.212065</ele>
        <time>2022-09-11T19:15:11.284Z</time>
      </trkpt>
      <trkpt lat="48.33959" lon="16.17434">
        <ele>177.053167</ele>
        <time>2022-09-11T19:15:19.944Z</time>
      </trkpt>
      <trkpt lat="48.33962" lon="16.17418">
        <ele>177.00395</ele>
        <time>2022-09-11T19:15:22.530Z</time>
      </trkpt>
      <trkpt lat="48.3392" lon="16.1724">
        <ele>176.243216</ele>
        <time>2022-09-11T19:15:53.167Z</time>
      </trkpt>
      <trkpt lat="48.33912" lon="16.17223">
        <ele>176.145893</ele>
        <time>2022-09-11T19:15:56.326Z</time>
      </trkpt>
      <trkpt lat="48.33901" lon="16.17189">
        <ele>175.961523</ele>
        <time>2022-09-11T19:16:02.481Z</time>
      </trkpt>
      <trkpt lat="48.339" lon="16.17167">
        <ele>175.860766</ele>
        <time>2022-09-11T19:16:05.859Z</time>
      </trkpt>
      <trkpt lat="48.3385" lon="16.16911">
        <ele>174.37335</ele>
        <time>2022-09-11T19:16:47.928Z</time>
      </trkpt>
      <trkpt lat="48.33823" lon="16.16801">
        <ele>173.640928</ele>
        <time>2022-09-11T19:17:05.857Z</time>
      </trkpt>
      <trkpt lat="48.33806" lon="16.16687">
        <ele>172.840379</ele>
        <time>2022-09-11T19:17:23.196Z</time>
      </trkpt>
      <trkpt lat="48.33794" lon="16.16578">
        <ele>172.081077</ele>
        <time>2022-09-11T19:17:40.237Z</time>
      </trkpt>
      <trkpt lat="48.33796" lon="16.16455">
        <ele>171.91851</ele>
        <time>2022-09-11T19:18:01.067Z</time>
      </trkpt>
      <trkpt lat="48.33763" lon="16.16293">
        <ele>171.781029</ele>
        <time>2022-09-11T19:18:30.946Z</time>
      </trkpt>
      <trkpt lat="48.33743" lon="16.16213">
        <ele>171.89253</ele>
        <time>2022-09-11T19:18:47.247Z</time>
      </trkpt>
      <trkpt lat="48.33704" lon="16.16132">
        <ele>172.021891</ele>
        <time>2022-09-11T19:19:05.956Z</time>
      </trkpt>
      <trkpt lat="48.33682" lon="16.1609">
        <ele>172.091114</ele>
        <time>2022-09-11T19:19:15.400Z</time>
      </trkpt>
      <trkpt lat="48.3366" lon="16.16047">
        <ele>172.21073</ele>
        <time>2022-09-11T19:19:25.118Z</time>
      </trkpt>
      <trkpt lat="48.33638" lon="16.15991">
        <ele>172.380798</ele>
        <time>2022-09-11T19:19:37.334Z</time>
      </trkpt>
      <trkpt lat="48.3363" lon="16.15947">
        <ele>172.499103</ele>
        <time>2022-09-11T19:19:45.871Z</time>
      </trkpt>
      <trkpt lat="48.33636" lon="16.15894">
        <ele>172.640037</ele>
        <time>2022-09-11T19:19:56.329Z</time>
      </trkpt>
      <trkpt lat="48.33644" lon="16.15836">
        <ele>172.793935</ele>
        <time>2022-09-11T19:20:08.109Z</time>
      </trkpt>
      <trkpt lat="48.33637" lon="16.15736">
        <ele>173.097079</ele>
        <time>2022-09-11T19:20:27.884Z</time>
      </trkpt>
      <trkpt lat="48.33639" lon="16.15717">
        <ele>173.158124</ele>
        <time>2022-09-11T19:20:31.889Z</time>
      </trkpt>
      <trkpt lat="48.33679" lon="16.15655">
        <ele>173.423782</ele>
        <time>2022-09-11T19:20:48.580Z</time>
      </trkpt>
      <trkpt lat="48.33685" lon="16.15628">
        <ele>173.510195</ele>
        <time>2022-09-11T19:20:53.977Z</time>
      </trkpt>
      <trkpt lat="48.33657" lon="16.15357">
        <ele>173.57021</ele>
        <time>2022-09-11T19:21:42.461Z</time>
      </trkpt>
      <trkpt lat="48.33676" lon="16.15199">
        <ele>173.198254</ele>
        <time>2022-09-11T19:22:09.395Z</time>
      </trkpt>
      <trkpt lat="48.33676" lon="16.15159">
        <ele>173.079821</ele>
        <time>2022-09-11T19:22:15.981Z</time>
      </trkpt>
      <trkpt lat="48.33657" lon="16.14974">
        <ele>172.546349</ele>
        <time>2022-09-11T19:22:46.348Z</time>
      </trkpt>
      <trkpt lat="48.33627" lon="16.14702">
        <ele>171.982881</ele>
        <time>2022-09-11T19:23:32.398Z</time>
      </trkpt>
      <trkpt lat="48.33605" lon="16.14505">
        <ele>171.894779</ele>
        <time>2022-09-11T19:24:08.162Z</time>
      </trkpt>
      <trkpt lat="48.33574" lon="16.14208">
        <ele>172.086703</ele>
        <time>2022-09-11T19:25:02.224Z</time>
      </trkpt>
      <trkpt lat="48.33533" lon="16.13787">
        <ele>172.666604</ele>
        <time>2022-09-11T19:26:22.021Z</time>
      </trkpt>
      <trkpt lat="48.33484" lon="16.13251">
        <ele>171.845227</ele>
        <time>2022-09-11T19:27:53.839Z</time>
      </trkpt>
      <trkpt lat="48.33467" lon="16.13">
        <ele>171.376551</ele>
        <time>2022-09-11T19:28:35.705Z</time>
      </trkpt>
      <trkpt lat="48.33454" lon="16.12823">
        <ele>171.268032</ele>
        <time>2022-09-11T19:29:07.130Z</time>
      </trkpt>
      <trkpt lat="48.33441" lon="16.12636">
        <ele>171.386277</ele>
        <time>2022-09-11T19:29:41.299Z</time>
      </trkpt>
      <trkpt lat="48.33429" lon="16.12491">
        <ele>171.467451</ele>
        <time>2022-09-11T19:30:07.704Z</time>
      </trkpt>
      <trkpt lat="48.33416" lon="16.12324">
        <ele>171.622087</ele>
        <time>2022-09-11T19:30:37.579Z</time>
      </trkpt>
      <trkpt lat="48.33384" lon="16.11913">
        <ele>172.699237</ele>
        <time>2022-09-11T19:31:55.859Z</time>
      </trkpt>
      <trkpt lat="48.33364" lon="16.11752">
        <ele>173.404564</ele>
        <time>2022-09-11T19:32:29.482Z</time>
      </trkpt>
      <trkpt lat="48.33367" lon="16.11723">
        <ele>173.554987</ele>
        <time>2022-09-11T19:32:35.816Z</time>
      </trkpt>
      <trkpt lat="48.3336" lon="16.11633">
        <ele>174.014628</ele>
        <time>2022-09-11T19:32:54.529Z</time>
      </trkpt>
      <trkpt lat="48.3335" lon="16.11572">
        <ele>174.337536</ele>
        <time>2022-09-11T19:33:07.103Z</time>
      </trkpt>
      <trkpt lat="48.33335" lon="16.1151">
        <ele>174.292721</ele>
        <time>2022-09-11T19:33:19.187Z</time>
      </trkpt>
      <trkpt lat="48.33311" lon="16.11421">
        <ele>174.183099</ele>
        <time>2022-09-11T19:33:35.133Z</time>
      </trkpt>
      <trkpt lat="48.33296" lon="16.11271">
        <ele>173.975636</ele>
        <time>2022-09-11T19:34:00.303Z</time>
      </trkpt>
      <trkpt lat="48.33251" lon="16.10681">
        <ele>173.407302</ele>
        <time>2022-09-11T19:35:40.946Z</time>
      </trkpt>
      <trkpt lat="48.3324" lon="16.10506">
        <ele>174.040801</ele>
        <time>2022-09-11T19:36:17.086Z</time>
      </trkpt>
      <trkpt lat="48.33235" lon="16.10325">
        <ele>175.303482</ele>
        <time>2022-09-11T19:36:57.316Z</time>
      </trkpt>
      <trkpt lat="48.33237" lon="16.10077">
        <ele>176.013415</ele>
        <time>2022-09-11T19:37:46.350Z</time>
      </trkpt>
      <trkpt lat="48.33246" lon="16.09841">
        <ele>175.58857</ele>
        <time>2022-09-11T19:38:23.961Z</time>
      </trkpt>
      <trkpt lat="48.33253" lon="16.09666">
        <ele>175.014064</ele>
        <time>2022-09-11T19:38:52.389Z</time>
      </trkpt>
      <trkpt lat="48.333" lon="16.08973">
        <ele>175.235503</ele>
        <time>2022-09-11T19:40:57.994Z</time>
      </trkpt>
      <trkpt lat="48.33332" lon="16.08654">
        <ele>175.411541</ele>
        <time>2022-09-11T19:41:54.809Z</time>
      </trkpt>
      <trkpt lat="48.33318" lon="16.08583">
        <ele>175.585698</ele>
        <time>2022-09-11T19:42:09.336Z</time>
      </trkpt>
      <trkpt lat="48.33319" lon="16.08532">
        <ele>175.803939</ele>
        <time>2022-09-11T19:42:19.694Z</time>
      </trkpt>
      <trkpt lat="48.33334" lon="16.0841">
        <ele>176.325971</ele>
        <time>2022-09-11T19:42:45.125Z</time>
      </trkpt>
      <trkpt lat="48.33364" lon="16.0834">
        <ele>176.564178</ele>
        <time>2022-09-11T19:43:01.594Z</time>
      </trkpt>
      <trkpt lat="48.33366" lon="16.08314">
        <ele>176.551564</ele>
        <time>2022-09-11T19:43:06.463Z</time>
      </trkpt>
      <trkpt lat="48.3339" lon="16.08008">
        <ele>175.884125</ele>
        <time>2022-09-11T19:43:59.012Z</time>
      </trkpt>
      <trkpt lat="48.33404" lon="16.07672">
        <ele>174.165937</ele>
        <time>2022-09-11T19:44:49.085Z</time>
      </trkpt>
      <trkpt lat="48.33415" lon="16.07178">
        <ele>174.9911</ele>
        <time>2022-09-11T19:46:23.615Z</time>
      </trkpt>
      <trkpt lat="48.3341" lon="16.07171">
        <ele>175.037338</ele>
        <time>2022-09-11T19:46:25.644Z</time>
      </trkpt>
      <trkpt lat="48.33359" lon="16.07174">
        <ele>175.385185</ele>
        <time>2022-09-11T19:46:41.530Z</time>
      </trkpt>
      <trkpt lat="48.33345" lon="16.07168">
        <ele>175.483153</ele>
        <time>2022-09-11T19:46:46.156Z</time>
      </trkpt>
      <trkpt lat="48.33339" lon="16.07113">
        <ele>175.736585</ele>
        <time>2022-09-11T19:46:57.955Z</time>
      </trkpt>
      <trkpt lat="48.33335" lon="16.06893">
        <ele>176.240412</ele>
        <time>2022-09-11T19:47:38.857Z</time>
      </trkpt>
      <trkpt lat="48.33329" lon="16.06726">
        <ele>176.400202</ele>
        <time>2022-09-11T19:48:09.444Z</time>
      </trkpt>
      <trkpt lat="48.33325" lon="16.06719">
        <ele>176.404064</ele>
        <time>2022-09-11T19:48:11.748Z</time>
      </trkpt>
      <trkpt lat="48.3332" lon="16.06649">
        <ele>176.43055</ele>
        <time>2022-09-11T19:48:23.703Z</time>
      </trkpt>
      <trkpt lat="48.33395" lon="16.06623">
        <ele>176.377636</ele>
        <time>2022-09-11T19:48:43.850Z</time>
      </trkpt>
      <trkpt lat="48.33402" lon="16.06618">
        <ele>176.355371</ele>
        <time>2022-09-11T19:48:45.785Z</time>
      </trkpt>
      <trkpt lat="48.33404" lon="16.06603">
        <ele>176.326403</ele>
        <time>2022-09-11T19:48:48.675Z</time>
      </trkpt>
      <trkpt lat="48.33395" lon="16.06244">
        <ele>175.847979</ele>
        <time>2022-09-11T19:49:48.330Z</time>
      </trkpt>
      <trkpt lat="48.33394" lon="16.06206">
        <ele>175.826005</ele>
        <time>2022-09-11T19:49:55.375Z</time>
      </trkpt>
      <trkpt lat="48.33392" lon="16.06157">
        <ele>175.797849</ele>
        <time>2022-09-11T19:50:04.805Z</time>
      </trkpt>
      <trkpt lat="48.33388" lon="16.0589">
        <ele>176.370868</ele>
        <time>2022-09-11T19:50:56.070Z</time>
      </trkpt>
      <trkpt lat="48.33405" lon="16.05823">
        <ele>176.550828</ele>
        <time>2022-09-11T19:51:08.857Z</time>
      </trkpt>
      <trkpt lat="48.33408" lon="16.05766">
        <ele>176.6958</ele>
        <time>2022-09-11T19:51:18.926Z</time>
      </trkpt>
      <trkpt lat="48.33411" lon="16.05666">
        <ele>176.948991</ele>
        <time>2022-09-11T19:51:37.525Z</time>
      </trkpt>
      <trkpt lat="48.33411" lon="16.0565">
        <ele>176.991188</ele>
        <time>2022-09-11T19:51:40.631Z</time>
      </trkpt>
      <trkpt lat="48.33402" lon="16.05554">
        <ele>177.346529</ele>
        <time>2022-09-11T19:52:00.689Z</time>
      </trkpt>
      <trkpt lat="48.33401" lon="16.05542">
        <ele>177.408934</ele>
        <time>2022-09-11T19:52:03.254Z</time>
      </trkpt>
      <trkpt lat="48.33387" lon="16.05485">
        <ele>177.722385</ele>
        <time>2022-09-11T19:52:16.568Z</time>
      </trkpt>
      <trkpt lat="48.33376" lon="16.05413">
        <ele>178.101591</ele>
        <time>2022-09-11T19:52:31.953Z</time>
      </trkpt>
      <trkpt lat="48.33369" lon="16.05341">
        <ele>178.477018</ele>
        <time>2022-09-11T19:52:45.796Z</time>
      </trkpt>
      <trkpt lat="48.33368" lon="16.05323">
        <ele>178.494729</ele>
        <time>2022-09-11T19:52:49.220Z</time>
      </trkpt>
      <trkpt lat="48.33367" lon="16.05303">
        <ele>178.430734</ele>
        <time>2022-09-11T19:52:52.986Z</time>
      </trkpt>
      <trkpt lat="48.33365" lon="16.05284">
        <ele>178.370268</ele>
        <time>2022-09-11T19:52:56.380Z</time>
      </trkpt>
      <trkpt lat="48.33364" lon="16.05264">
        <ele>178.305896</ele>
        <time>2022-09-11T19:52:59.919Z</time>
      </trkpt>
      <trkpt lat="48.33364" lon="16.05258">
        <ele>178.287747</ele>
        <time>2022-09-11T19:53:00.925Z</time>
      </trkpt>
      <trkpt lat="48.33364" lon="16.05244">
        <ele>178.245044</ele>
        <time>2022-09-11T19:53:03.217Z</time>
      </trkpt>
      <trkpt lat="48.33363" lon="16.05225">
        <ele>178.183844</ele>
        <time>2022-09-11T19:53:06.484Z</time>
      </trkpt>
      <trkpt lat="48.33362" lon="16.05216">
        <ele>178.154811</ele>
        <time>2022-09-11T19:53:08.042Z</time>
      </trkpt>
      <trkpt lat="48.33361" lon="16.05191">
        <ele>178.073908</ele>
        <time>2022-09-11T19:53:12.290Z</time>
      </trkpt>
      <trkpt lat="48.3336" lon="16.05164">
        <ele>177.987925</ele>
        <time>2022-09-11T19:53:16.662Z</time>
      </trkpt>
      <trkpt lat="48.33359" lon="16.05132">
        <ele>177.886441</ele>
        <time>2022-09-11T19:53:21.657Z</time>
      </trkpt>
      <trkpt lat="48.33359" lon="16.05113">
        <ele>177.826952</ele>
        <time>2022-09-11T19:53:24.569Z</time>
      </trkpt>
      <trkpt lat="48.33348" lon="16.05024">
        <ele>177.488404</ele>
        <time>2022-09-11T19:53:38.047Z</time>
      </trkpt>
      <trkpt lat="48.33332" lon="16.0496">
        <ele>177.179605</ele>
        <time>2022-09-11T19:53:48.430Z</time>
      </trkpt>
      <trkpt lat="48.33327" lon="16.04932">
        <ele>177.047395</ele>
        <time>2022-09-11T19:53:53.034Z</time>
      </trkpt>
      <trkpt lat="48.33324" lon="16.04873">
        <ele>176.780953</ele>
        <time>2022-09-11T19:54:02.765Z</time>
      </trkpt>
      <trkpt lat="48.33324" lon="16.04843">
        <ele>176.648287</ele>
        <time>2022-09-11T19:54:07.742Z</time>
      </trkpt>
      <trkpt lat="48.33326" lon="16.04787">
        <ele>176.445247</ele>
        <time>2022-09-11T19:54:17.652Z</time>
      </trkpt>
      <trkpt lat="48.33327" lon="16.04754">
        <ele>176.439116</ele>
        <time>2022-09-11T19:54:23.559Z</time>
      </trkpt>
      <trkpt lat="48.33323" lon="16.04702">
        <ele>176.429215</ele>
        <time>2022-09-11T19:54:32.663Z</time>
      </trkpt>
      <trkpt lat="48.33312" lon="16.04635">
        <ele>176.416239</ele>
        <time>2022-09-11T19:54:44.660Z</time>
      </trkpt>
      <trkpt lat="48.33308" lon="16.04594">
        <ele>176.408572</ele>
        <time>2022-09-11T19:54:52.170Z</time>
      </trkpt>
      <trkpt lat="48.33311" lon="16.04574">
        <ele>176.40477</ele>
        <time>2022-09-11T19:54:55.723Z</time>
      </trkpt>
      <trkpt lat="48.33349" lon="16.04508">
        <ele>176.356594</ele>
        <time>2022-09-11T19:55:11.936Z</time>
      </trkpt>
      <trkpt lat="48.33353" lon="16.04488">
        <ele>176.337307</ele>
        <time>2022-09-11T19:55:15.675Z</time>
      </trkpt>
      <trkpt lat="48.33349" lon="16.0422">
        <ele>176.197972</ele>
        <time>2022-09-11T19:56:01.186Z</time>
      </trkpt>
      <trkpt lat="48.3334" lon="16.03747">
        <ele>176.886713</ele>
        <time>2022-09-11T19:57:28.790Z</time>
      </trkpt>
      <trkpt lat="48.33346" lon="16.03712">
        <ele>176.974324</ele>
        <time>2022-09-11T19:57:35.860Z</time>
      </trkpt>
      <trkpt lat="48.33339" lon="16.03682">
        <ele>177.053683</ele>
        <time>2022-09-11T19:57:42.258Z</time>
      </trkpt>
      <trkpt lat="48.33337" lon="16.03607">
        <ele>177.244309</ele>
        <time>2022-09-11T19:57:57.135Z</time>
      </trkpt>
      <trkpt lat="48.33327" lon="16.0316">
        <ele>178.172918</ele>
        <time>2022-09-11T19:59:19.338Z</time>
      </trkpt>
      <trkpt lat="48.33322" lon="16.03136">
        <ele>178.286825</ele>
        <time>2022-09-11T19:59:24.233Z</time>
      </trkpt>
      <trkpt lat="48.33298" lon="16.03106">
        <ele>178.488891</ele>
        <time>2022-09-11T19:59:33.366Z</time>
      </trkpt>
      <trkpt lat="48.33248" lon="16.0307">
        <ele>178.848873</ele>
        <time>2022-09-11T19:59:50.441Z</time>
      </trkpt>
      <trkpt lat="48.33197" lon="16.03043">
        <ele>179.202671</ele>
        <time>2022-09-11T20:00:06.984Z</time>
      </trkpt>
      <trkpt lat="48.33147" lon="16.03026">
        <ele>179.550397</ele>
        <time>2022-09-11T20:00:23.029Z</time>
      </trkpt>
      <trkpt lat="48.33072" lon="16.03015">
        <ele>180.064558</ele>
        <time>2022-09-11T20:00:46.301Z</time>
      </trkpt>
      <trkpt lat="48.32906" lon="16.03016">
        <ele>180.035273</ele>
        <time>2022-09-11T20:01:31.229Z</time>
      </trkpt>
      <trkpt lat="48.32822" lon="16.02997">
        <ele>179.533462</ele>
        <time>2022-09-11T20:01:50.994Z</time>
      </trkpt>
      <trkpt lat="48.3275" lon="16.02968">
        <ele>178.538152</ele>
        <time>2022-09-11T20:02:07.766Z</time>
      </trkpt>
      <trkpt lat="48.32695" lon="16.02943">
        <ele>177.77443</ele>
        <time>2022-09-11T20:02:20.301Z</time>
      </trkpt>
      <trkpt lat="48.32671" lon="16.02921">
        <ele>177.423471</ele>
        <time>2022-09-11T20:02:26.282Z</time>
      </trkpt>
      <trkpt lat="48.32669" lon="16.02919">
        <ele>177.396619</ele>
        <time>2022-09-11T20:02:26.953Z</time>
      </trkpt>
      <trkpt lat="48.32665" lon="16.02914">
        <ele>177.34807</ele>
        <time>2022-09-11T20:02:28.146Z</time>
      </trkpt>
      <trkpt lat="48.32644" lon="16.02889">
        <ele>177.098577</ele>
        <time>2022-09-11T20:02:34.098Z</time>
      </trkpt>
      <trkpt lat="48.32632" lon="16.02882">
        <ele>176.980524</ele>
        <time>2022-09-11T20:02:37.095Z</time>
      </trkpt>
      <trkpt lat="48.32639" lon="16.0287">
        <ele>176.886739</ele>
        <time>2022-09-11T20:02:39.340Z</time>
      </trkpt>
      <trkpt lat="48.32663" lon="16.02829">
        <ele>176.5428</ele>
        <time>2022-09-11T20:02:47.988Z</time>
      </trkpt>
      <trkpt lat="48.32672" lon="16.02815">
        <ele>176.424962</ele>
        <time>2022-09-11T20:02:50.964Z</time>
      </trkpt>
      <trkpt lat="48.32683" lon="16.02824">
        <ele>176.316045</ele>
        <time>2022-09-11T20:02:53.905Z</time>
      </trkpt>
      <trkpt lat="48.32693" lon="16.02832">
        <ele>176.204993</ele>
        <time>2022-09-11T20:02:56.674Z</time>
      </trkpt>
      <trkpt lat="48.32691" lon="16.0284">
        <ele>176.150242</ele>
        <time>2022-09-11T20:02:58.085Z</time>
      </trkpt>
      <trkpt lat="48.32664" lon="16.02833">
        <ele>175.898773</ele>
        <time>2022-09-11T20:03:04.815Z</time>
      </trkpt>
      <trkpt lat="48.32559" lon="16.02753">
        <ele>175.613605</ele>
        <time>2022-09-11T20:03:34.542Z</time>
      </trkpt>
      <trkpt lat="48.32511" lon="16.02709">
        <ele>175.51787</ele>
        <time>2022-09-11T20:03:49.644Z</time>
      </trkpt>
      <trkpt lat="48.32566" lon="16.02724">
        <ele>175.809205</ele>
        <time>2022-09-11T20:04:05.160Z</time>
      </trkpt>
      <trkpt lat="48.32583" lon="16.02731">
        <ele>175.953256</ele>
        <time>2022-09-11T20:04:10.267Z</time>
      </trkpt>
      <trkpt lat="48.32612" lon="16.02723">
        <ele>176.194143</ele>
        <time>2022-09-11T20:04:19.524Z</time>
      </trkpt>
      <trkpt lat="48.32672" lon="16.02718">
        <ele>176.678168</ele>
        <time>2022-09-11T20:04:38.405Z</time>
      </trkpt>
      <trkpt lat="48.32694" lon="16.02685">
        <ele>176.931431</ele>
        <time>2022-09-11T20:04:48.793Z</time>
      </trkpt>
      <trkpt lat="48.32707" lon="16.0268">
        <ele>177.035894</ele>
        <time>2022-09-11T20:04:53.241Z</time>
      </trkpt>
      <trkpt lat="48.32719" lon="16.0268">
        <ele>177.127681</ele>
        <time>2022-09-11T20:04:57.000Z</time>
      </trkpt>
      <trkpt lat="48.3273" lon="16.02676">
        <ele>177.220802</ele>
        <time>2022-09-11T20:05:01.321Z</time>
      </trkpt>
      <trkpt lat="48.32739" lon="16.0266">
        <ele>177.328424</ele>
        <time>2022-09-11T20:05:05.671Z</time>
      </trkpt>
      <trkpt lat="48.3274" lon="16.02645">
        <ele>177.409101</ele>
        <time>2022-09-11T20:05:08.822Z</time>
      </trkpt>
      <trkpt lat="48.32731" lon="16.02603">
        <ele>177.638011</ele>
        <time>2022-09-11T20:05:18.195Z</time>
      </trkpt>
      <trkpt lat="48.32748" lon="16.02476">
        <ele>178.318635</ele>
        <time>2022-09-11T20:05:43.780Z</time>
      </trkpt>
      <trkpt lat="48.32744" lon="16.02418">
        <ele>178.170347</ele>
        <time>2022-09-11T20:05:53.762Z</time>
      </trkpt>
      <trkpt lat="48.32717" lon="16.02322">
        <ele>177.744271</ele>
        <time>2022-09-11T20:06:10.571Z</time>
      </trkpt>
      <trkpt lat="48.3269" lon="16.02178">
        <ele>177.154677</ele>
        <time>2022-09-11T20:06:33.074Z</time>
      </trkpt>
      <trkpt lat="48.32599" lon="16.01829">
        <ele>176.210205</ele>
        <time>2022-09-11T20:07:35.931Z</time>
      </trkpt>
      <trkpt lat="48.32579" lon="16.01682">
        <ele>176.088529</ele>
        <time>2022-09-11T20:08:03.033Z</time>
      </trkpt>
      <trkpt lat="48.32567" lon="16.01571">
        <ele>176.046403</ele>
        <time>2022-09-11T20:08:23.345Z</time>
      </trkpt>
      <trkpt lat="48.32573" lon="16.01499">
        <ele>176.019406</ele>
        <time>2022-09-11T20:08:35.997Z</time>
      </trkpt>
      <trkpt lat="48.32582" lon="16.01465">
        <ele>176.005535</ele>
        <time>2022-09-11T20:08:42.264Z</time>
      </trkpt>
      <trkpt lat="48.3261" lon="16.01417">
        <ele>175.953265</ele>
        <time>2022-09-11T20:08:52.892Z</time>
      </trkpt>
      <trkpt lat="48.32615" lon="16.01401">
        <ele>175.930931</ele>
        <time>2022-09-11T20:08:55.891Z</time>
      </trkpt>
      <trkpt lat="48.32645" lon="16.01165">
        <ele>175.629459</ele>
        <time>2022-09-11T20:09:37.415Z</time>
      </trkpt>
      <trkpt lat="48.32648" lon="16.01113">
        <ele>175.581837</ele>
        <time>2022-09-11T20:09:46.324Z</time>
      </trkpt>
      <trkpt lat="48.32646" lon="16.00919">
        <ele>175.403473</ele>
        <time>2022-09-11T20:10:20.028Z</time>
      </trkpt>
      <trkpt lat="48.32658" lon="16.00811">
        <ele>175.279562</ele>
        <time>2022-09-11T20:10:38.995Z</time>
      </trkpt>
      <trkpt lat="48.32658" lon="16.00808">
        <ele>175.27547</ele>
        <time>2022-09-11T20:10:39.653Z</time>
      </trkpt>
      <trkpt lat="48.327" lon="16.00505">
        <ele>174.940283</ele>
        <time>2022-09-11T20:11:32.799Z</time>
      </trkpt>
      <trkpt lat="48.32708" lon="16.00466">
        <ele>174.898548</ele>
        <time>2022-09-11T20:11:39.690Z</time>
      </trkpt>
      <trkpt lat="48.32731" lon="16.00368">
        <ele>174.840062</ele>
        <time>2022-09-11T20:11:57.802Z</time>
      </trkpt>
      <trkpt lat="48.32748" lon="16.00321">
        <ele>174.910002</ele>
        <time>2022-09-11T20:12:07.456Z</time>
      </trkpt>
      <trkpt lat="48.3276" lon="16.0029">
        <ele>174.957111</ele>
        <time>2022-09-11T20:12:13.844Z</time>
      </trkpt>
      <trkpt lat="48.32817" lon="16.0018">
        <ele>175.140143</ele>
        <time>2022-09-11T20:12:39.700Z</time>
      </trkpt>
      <trkpt lat="48.32883" lon="16.00059">
        <ele>175.683542</ele>
        <time>2022-09-11T20:13:10.548Z</time>
      </trkpt>
      <trkpt lat="48.32912" lon="15.99991">
        <ele>175.989645</ele>
        <time>2022-09-11T20:13:26.485Z</time>
      </trkpt>
      <trkpt lat="48.3292" lon="15.9994">
        <ele>176.187037</ele>
        <time>2022-09-11T20:13:36.658Z</time>
      </trkpt>
      <trkpt lat="48.32923" lon="15.99795">
        <ele>176.542222</ele>
        <time>2022-09-11T20:14:04.798Z</time>
      </trkpt>
      <trkpt lat="48.32941" lon="15.99731">
        <ele>176.710515</ele>
        <time>2022-09-11T20:14:18.035Z</time>
      </trkpt>
      <trkpt lat="48.32971" lon="15.99678">
        <ele>176.847429</ele>
        <time>2022-09-11T20:14:30.592Z</time>
      </trkpt>
      <trkpt lat="48.33058" lon="15.99589">
        <ele>176.80798</ele>
        <time>2022-09-11T20:14:58.304Z</time>
      </trkpt>
      <trkpt lat="48.33071" lon="15.99566">
        <ele>176.80057</ele>
        <time>2022-09-11T20:15:03.363Z</time>
      </trkpt>
      <trkpt lat="48.33086" lon="15.99468">
        <ele>176.792808</ele>
        <time>2022-09-11T20:15:21.000Z</time>
      </trkpt>
      <trkpt lat="48.3309" lon="15.99434">
        <ele>176.804188</ele>
        <time>2022-09-11T20:15:27.375Z</time>
      </trkpt>
      <trkpt lat="48.33106" lon="15.99296">
        <ele>176.849904</ele>
        <time>2022-09-11T20:15:52.464Z</time>
      </trkpt>
      <trkpt lat="48.33103" lon="15.99249">
        <ele>176.865483</ele>
        <time>2022-09-11T20:16:01.047Z</time>
      </trkpt>
      <trkpt lat="48.33078" lon="15.99211">
        <ele>176.796506</ele>
        <time>2022-09-11T20:16:10.687Z</time>
      </trkpt>
      <trkpt lat="48.33028" lon="15.99168">
        <ele>176.608006</ele>
        <time>2022-09-11T20:16:25.594Z</time>
      </trkpt>
      <trkpt lat="48.32927" lon="15.99133">
        <ele>176.262225</ele>
        <time>2022-09-11T20:16:51.135Z</time>
      </trkpt>
      <trkpt lat="48.32884" lon="15.99098">
        <ele>175.955884</ele>
        <time>2022-09-11T20:17:03.069Z</time>
      </trkpt>
      <trkpt lat="48.32865" lon="15.99051">
        <ele>175.726621</ele>
        <time>2022-09-11T20:17:11.967Z</time>
      </trkpt>
      <trkpt lat="48.32848" lon="15.9893">
        <ele>175.217507</ele>
        <time>2022-09-11T20:17:31.708Z</time>
      </trkpt>
      <trkpt lat="48.32811" lon="15.98841">
        <ele>175.061927</ele>
        <time>2022-09-11T20:17:48.847Z</time>
      </trkpt>
      <trkpt lat="48.32811" lon="15.98771">
        <ele>174.980579</ele>
        <time>2022-09-11T20:18:00.504Z</time>
      </trkpt>
      <trkpt lat="48.32811" lon="15.98762">
        <ele>174.969775</ele>
        <time>2022-09-11T20:18:02.132Z</time>
      </trkpt>
      <trkpt lat="48.32812" lon="15.98731">
        <ele>174.933132</ele>
        <time>2022-09-11T20:18:07.619Z</time>
      </trkpt>
      <trkpt lat="48.32811" lon="15.98676">
        <ele>174.868558</ele>
        <time>2022-09-11T20:18:17.494Z</time>
      </trkpt>
      <trkpt lat="48.32793" lon="15.98621">
        <ele>175.082868</ele>
        <time>2022-09-11T20:18:29.008Z</time>
      </trkpt>
      <trkpt lat="48.32762" lon="15.98526">
        <ele>175.582644</ele>
        <time>2022-09-11T20:18:50.348Z</time>
      </trkpt>
      <trkpt lat="48.32748" lon="15.98486">
        <ele>175.796728</ele>
        <time>2022-09-11T20:18:59.742Z</time>
      </trkpt>
      <trkpt lat="48.32765" lon="15.98473">
        <ele>175.92794</ele>
        <time>2022-09-11T20:19:05.599Z</time>
      </trkpt>
      <trkpt lat="48.3281" lon="15.98429">
        <ele>176.333053</ele>
        <time>2022-09-11T20:19:22.517Z</time>
      </trkpt>
      <trkpt lat="48.32869" lon="15.9835">
        <ele>176.981711</ele>
        <time>2022-09-11T20:19:47.419Z</time>
      </trkpt>
      <trkpt lat="48.32891" lon="15.9831">
        <ele>177.256819</ele>
        <time>2022-09-11T20:19:57.570Z</time>
      </trkpt>
      <trkpt lat="48.32918" lon="15.98275">
        <ele>177.552485</ele>
        <time>2022-09-11T20:20:08.284Z</time>
      </trkpt>
      <trkpt lat="48.32939" lon="15.98229">
        <ele>177.708802</ele>
        <time>2022-09-11T20:20:18.974Z</time>
      </trkpt>
      <trkpt lat="48.32959" lon="15.98164">
        <ele>177.882964</ele>
        <time>2022-09-11T20:20:32.744Z</time>
      </trkpt>
      <trkpt lat="48.32974" lon="15.98138">
        <ele>177.968141</ele>
        <time>2022-09-11T20:20:39.161Z</time>
      </trkpt>
      <trkpt lat="48.33012" lon="15.98023">
        <ele>178.25649</ele>
        <time>2022-09-11T20:21:02.931Z</time>
      </trkpt>
      <trkpt lat="48.33024" lon="15.97846">
        <ele>178.314104</ele>
        <time>2022-09-11T20:21:34.888Z</time>
      </trkpt>
      <trkpt lat="48.33036" lon="15.97715">
        <ele>178.288508</ele>
        <time>2022-09-11T20:21:58.137Z</time>
      </trkpt>
      <trkpt lat="48.33045" lon="15.97659">
        <ele>178.230212</ele>
        <time>2022-09-11T20:22:08.173Z</time>
      </trkpt>
      <trkpt lat="48.33047" lon="15.97649">
        <ele>178.218855</ele>
        <time>2022-09-11T20:22:10.083Z</time>
      </trkpt>
      <trkpt lat="48.33051" lon="15.97612">
        <ele>178.181618</ele>
        <time>2022-09-11T20:22:16.383Z</time>
      </trkpt>
      <trkpt lat="48.33064" lon="15.97556">
        <ele>178.121466</ele>
        <time>2022-09-11T20:22:26.504Z</time>
      </trkpt>
      <trkpt lat="48.3309" lon="15.97482">
        <ele>178.056274</ele>
        <time>2022-09-11T20:22:40.965Z</time>
      </trkpt>
      <trkpt lat="48.33114" lon="15.97422">
        <ele>178.030889</ele>
        <time>2022-09-11T20:22:53.409Z</time>
      </trkpt>
      <trkpt lat="48.3313" lon="15.9739">
        <ele>178.016677</ele>
        <time>2022-09-11T20:23:00.346Z</time>
      </trkpt>
      <trkpt lat="48.33137" lon="15.97338">
        <ele>177.997424</ele>
        <time>2022-09-11T20:23:09.733Z</time>
      </trkpt>
      <trkpt lat="48.33141" lon="15.97307">
        <ele>177.98632</ele>
        <time>2022-09-11T20:23:15.246Z</time>
      </trkpt>
      <trkpt lat="48.33141" lon="15.97269">
        <ele>177.972523</ele>
        <time>2022-09-11T20:23:21.941Z</time>
      </trkpt>
      <trkpt lat="48.331" lon="15.97161">
        <ele>178.001798</ele>
        <time>2022-09-11T20:23:44.346Z</time>
      </trkpt>
      <trkpt lat="48.33075" lon="15.97047">
        <ele>178.034522</ele>
        <time>2022-09-11T20:24:05.758Z</time>
      </trkpt>
      <trkpt lat="48.33055" lon="15.96921">
        <ele>178.251361</ele>
        <time>2022-09-11T20:24:29.159Z</time>
      </trkpt>
      <trkpt lat="48.33053" lon="15.96866">
        <ele>178.369644</ele>
        <time>2022-09-11T20:24:39.439Z</time>
      </trkpt>
      <trkpt lat="48.33061" lon="15.96772">
        <ele>178.574276</ele>
        <time>2022-09-11T20:24:57.704Z</time>
      </trkpt>
      <trkpt lat="48.33088" lon="15.96586">
        <ele>179.149911</ele>
        <time>2022-09-11T20:25:35.260Z</time>
      </trkpt>
      <trkpt lat="48.33125" lon="15.96452">
        <ele>179.457527</ele>
        <time>2022-09-11T20:26:02.560Z</time>
      </trkpt>
      <trkpt lat="48.33155" lon="15.96386">
        <ele>179.415049</ele>
        <time>2022-09-11T20:26:16.842Z</time>
      </trkpt>
      <trkpt lat="48.3318" lon="15.96314">
        <ele>179.372866</ele>
        <time>2022-09-11T20:26:30.639Z</time>
      </trkpt>
      <trkpt lat="48.33196" lon="15.96247">
        <ele>179.332126</ele>
        <time>2022-09-11T20:26:42.603Z</time>
      </trkpt>
      <trkpt lat="48.33104" lon="15.96193">
        <ele>178.989066</ele>
        <time>2022-09-11T20:27:07.135Z</time>
      </trkpt>
      <trkpt lat="48.33081" lon="15.9617">
        <ele>178.891255</ele>
        <time>2022-09-11T20:27:14.139Z</time>
      </trkpt>
      <trkpt lat="48.33059" lon="15.96102">
        <ele>178.715172</ele>
        <time>2022-09-11T20:27:27.064Z</time>
      </trkpt>
      <trkpt lat="48.33048" lon="15.96043">
        <ele>178.71685</ele>
        <time>2022-09-11T20:27:37.670Z</time>
      </trkpt>
      <trkpt lat="48.33055" lon="15.95998">
        <ele>178.721957</ele>
        <time>2022-09-11T20:27:45.784Z</time>
      </trkpt>
      <trkpt lat="48.33066" lon="15.95974">
        <ele>178.72511</ele>
        <time>2022-09-11T20:27:50.829Z</time>
      </trkpt>
      <trkpt lat="48.33091" lon="15.9595">
        <ele>178.730033</ele>
        <time>2022-09-11T20:27:58.773Z</time>
      </trkpt>
      <trkpt lat="48.33132" lon="15.95924">
        <ele>178.73749</ele>
        <time>2022-09-11T20:28:11.092Z</time>
      </trkpt>
      <trkpt lat="48.33155" lon="15.959">
        <ele>178.763138</ele>
        <time>2022-09-11T20:28:18.783Z</time>
      </trkpt>
      <trkpt lat="48.33152" lon="15.95864">
        <ele>178.811373</ele>
        <time>2022-09-11T20:28:25.550Z</time>
      </trkpt>
      <trkpt lat="48.33103" lon="15.95838">
        <ele>178.916203</ele>
        <time>2022-09-11T20:28:40.376Z</time>
      </trkpt>
      <trkpt lat="48.33086" lon="15.95822">
        <ele>178.956941</ele>
        <time>2022-09-11T20:28:46.164Z</time>
      </trkpt>
      <trkpt lat="48.33054" lon="15.95737">
        <ele>179.085968</ele>
        <time>2022-09-11T20:29:03.490Z</time>
      </trkpt>
      <trkpt lat="48.33049" lon="15.95694">
        <ele>179.14155</ele>
        <time>2022-09-11T20:29:11.489Z</time>
      </trkpt>
      <trkpt lat="48.33049" lon="15.95677">
        <ele>179.162405</ele>
        <time>2022-09-11T20:29:14.321Z</time>
      </trkpt>
      <trkpt lat="48.33061" lon="15.95633">
        <ele>179.219944</ele>
        <time>2022-09-11T20:29:22.802Z</time>
      </trkpt>
      <trkpt lat="48.3309" lon="15.95622">
        <ele>179.273635</ele>
        <time>2022-09-11T20:29:31.030Z</time>
      </trkpt>
      <trkpt lat="48.33133" lon="15.95582">
        <ele>179.3675</ele>
        <time>2022-09-11T20:29:45.456Z</time>
      </trkpt>
      <trkpt lat="48.33154" lon="15.95582">
        <ele>179.404508</ele>
        <time>2022-09-11T20:29:51.567Z</time>
      </trkpt>
      <trkpt lat="48.33161" lon="15.95571">
        <ele>179.422662</ele>
        <time>2022-09-11T20:29:54.111Z</time>
      </trkpt>
      <trkpt lat="48.33159" lon="15.95544">
        <ele>179.465613</ele>
        <time>2022-09-11T20:29:58.944Z</time>
      </trkpt>
      <trkpt lat="48.33139" lon="15.95509">
        <ele>179.54677</ele>
        <time>2022-09-11T20:30:07.095Z</time>
      </trkpt>
      <trkpt lat="48.33115" lon="15.95497">
        <ele>179.613506</ele>
        <time>2022-09-11T20:30:13.912Z</time>
      </trkpt>
      <trkpt lat="48.33115" lon="15.95488">
        <ele>179.6284</ele>
        <time>2022-09-11T20:30:15.346Z</time>
      </trkpt>
      <trkpt lat="48.33116" lon="15.95471">
        <ele>179.658036</ele>
        <time>2022-09-11T20:30:18.543Z</time>
      </trkpt>
      <trkpt lat="48.33116" lon="15.95458">
        <ele>179.680674</ele>
        <time>2022-09-11T20:30:21.050Z</time>
      </trkpt>
      <trkpt lat="48.33013" lon="15.95397">
        <ele>179.880225</ele>
        <time>2022-09-11T20:30:52.952Z</time>
      </trkpt>
      <trkpt lat="48.33007" lon="15.95388">
        <ele>179.871245</ele>
        <time>2022-09-11T20:30:55.373Z</time>
      </trkpt>
      <trkpt lat="48.33005" lon="15.95374">
        <ele>179.862006</ele>
        <time>2022-09-11T20:30:57.942Z</time>
      </trkpt>
      <trkpt lat="48.33004" lon="15.95309">
        <ele>179.820104</ele>
        <time>2022-09-11T20:31:08.862Z</time>
      </trkpt>
      <trkpt lat="48.32995" lon="15.95291">
        <ele>179.80497</ele>
        <time>2022-09-11T20:31:12.666Z</time>
      </trkpt>
      <trkpt lat="48.32967" lon="15.95274">
        <ele>179.775236</ele>
        <time>2022-09-11T20:31:20.385Z</time>
      </trkpt>
      <trkpt lat="48.32998" lon="15.95101">
        <ele>179.72128</ele>
        <time>2022-09-11T20:31:51.407Z</time>
      </trkpt>
      <trkpt lat="48.33031" lon="15.95068">
        <ele>179.716802</ele>
        <time>2022-09-11T20:32:01.983Z</time>
      </trkpt>
      <trkpt lat="48.33042" lon="15.95048">
        <ele>179.714842</ele>
        <time>2022-09-11T20:32:06.497Z</time>
      </trkpt>
      <trkpt lat="48.33039" lon="15.94979">
        <ele>179.709652</ele>
        <time>2022-09-11T20:32:18.868Z</time>
      </trkpt>
      <trkpt lat="48.33073" lon="15.94851">
        <ele>179.890102</ele>
        <time>2022-09-11T20:32:44.946Z</time>
      </trkpt>
      <trkpt lat="48.33079" lon="15.94813">
        <ele>179.944654</ele>
        <time>2022-09-11T20:32:52.259Z</time>
      </trkpt>
      <trkpt lat="48.33074" lon="15.94707">
        <ele>180.087771</ele>
        <time>2022-09-11T20:33:11.384Z</time>
      </trkpt>
      <trkpt lat="48.33161" lon="15.94584">
        <ele>180.180595</ele>
        <time>2022-09-11T20:33:43.925Z</time>
      </trkpt>
      <trkpt lat="48.33186" lon="15.94582">
        <ele>180.19965</ele>
        <time>2022-09-11T20:33:50.498Z</time>
      </trkpt>
      <trkpt lat="48.33197" lon="15.94578">
        <ele>180.208483</ele>
        <time>2022-09-11T20:33:53.533Z</time>
      </trkpt>
      <trkpt lat="48.33207" lon="15.94543">
        <ele>180.229225</ele>
        <time>2022-09-11T20:34:00.263Z</time>
      </trkpt>
      <trkpt lat="48.33213" lon="15.94505">
        <ele>180.254023</ele>
        <time>2022-09-11T20:34:07.221Z</time>
      </trkpt>
      <trkpt lat="48.33234" lon="15.94466">
        <ele>180.286701</ele>
        <time>2022-09-11T20:34:16.368Z</time>
      </trkpt>
      <trkpt lat="48.33317" lon="15.94354">
        <ele>180.395057</ele>
        <time>2022-09-11T20:34:47.056Z</time>
      </trkpt>
      <trkpt lat="48.33425" lon="15.94189">
        <ele>180.05782</ele>
        <time>2022-09-11T20:35:26.642Z</time>
      </trkpt>
      <trkpt lat="48.33468" lon="15.94133">
        <ele>179.92324</ele>
        <time>2022-09-11T20:35:40.926Z</time>
      </trkpt>
      <trkpt lat="48.33575" lon="15.9403">
        <ele>179.61314</ele>
        <time>2022-09-11T20:36:13.121Z</time>
      </trkpt>
      <trkpt lat="48.33581" lon="15.94023">
        <ele>179.59453</ele>
        <time>2022-09-11T20:36:15.108Z</time>
      </trkpt>
      <trkpt lat="48.33632" lon="15.93974">
        <ele>179.629374</ele>
        <time>2022-09-11T20:36:31.296Z</time>
      </trkpt>
      <trkpt lat="48.33674" lon="15.93936">
        <ele>179.725466</ele>
        <time>2022-09-11T20:36:44.816Z</time>
      </trkpt>
      <trkpt lat="48.33727" lon="15.93993">
        <ele>179.8514</ele>
        <time>2022-09-11T20:37:02.966Z</time>
      </trkpt>
      <trkpt lat="48.33749" lon="15.94008">
        <ele>179.8993</ele>
        <time>2022-09-11T20:37:09.861Z</time>
      </trkpt>
      <trkpt lat="48.33832" lon="15.94043">
        <ele>180.244946</ele>
        <time>2022-09-11T20:37:34.409Z</time>
      </trkpt>
      <trkpt lat="48.33838" lon="15.94039">
        <ele>180.273342</ele>
        <time>2022-09-11T20:37:36.464Z</time>
      </trkpt>
      <trkpt lat="48.33909" lon="15.93825">
        <ele>180.750071</ele>
        <time>2022-09-11T20:38:21.818Z</time>
      </trkpt>
      <trkpt lat="48.33916" lon="15.93804">
        <ele>180.777262</ele>
        <time>2022-09-11T20:38:25.949Z</time>
      </trkpt>
      <trkpt lat="48.33955" lon="15.93679">
        <ele>180.937501</ele>
        <time>2022-09-11T20:38:50.372Z</time>
      </trkpt>
      <trkpt lat="48.33977" lon="15.93593">
        <ele>181.196803</ele>
        <time>2022-09-11T20:39:08.236Z</time>
      </trkpt>
      <trkpt lat="48.33983" lon="15.93545">
        <ele>181.333084</ele>
        <time>2022-09-11T20:39:17.557Z</time>
      </trkpt>
      <trkpt lat="48.33992" lon="15.93487">
        <ele>181.500888</ele>
        <time>2022-09-11T20:39:28.950Z</time>
      </trkpt>
      <trkpt lat="48.34011" lon="15.93414">
        <ele>181.71783</ele>
        <time>2022-09-11T20:39:44.068Z</time>
      </trkpt>
      <trkpt lat="48.34023" lon="15.93374">
        <ele>181.809888</ele>
        <time>2022-09-11T20:39:52.682Z</time>
      </trkpt>
      <trkpt lat="48.34084" lon="15.93136">
        <ele>182.277297</ele>
        <time>2022-09-11T20:40:40.440Z</time>
      </trkpt>
      <trkpt lat="48.34111" lon="15.93055">
        <ele>182.287074</ele>
        <time>2022-09-11T20:40:55.942Z</time>
      </trkpt>
      <trkpt lat="48.34159" lon="15.92907">
        <ele>182.336806</ele>
        <time>2022-09-11T20:41:24.923Z</time>
      </trkpt>
      <trkpt lat="48.34194" lon="15.92755">
        <ele>182.595471</ele>
        <time>2022-09-11T20:41:55.488Z</time>
      </trkpt>
      <trkpt lat="48.342" lon="15.92741">
        <ele>182.622775</ele>
        <time>2022-09-11T20:41:58.604Z</time>
      </trkpt>
      <trkpt lat="48.34274" lon="15.92661">
        <ele>182.691961</ele>
        <time>2022-09-11T20:42:23.511Z</time>
      </trkpt>
      <trkpt lat="48.34323" lon="15.92605">
        <ele>182.623615</ele>
        <time>2022-09-11T20:42:39.777Z</time>
      </trkpt>
      <trkpt lat="48.34332" lon="15.92587">
        <ele>182.606435</ele>
        <time>2022-09-11T20:42:43.830Z</time>
      </trkpt>
      <trkpt lat="48.34394" lon="15.92351">
        <ele>182.290046</ele>
        <time>2022-09-11T20:43:25.863Z</time>
      </trkpt>
      <trkpt lat="48.34402" lon="15.92343">
        <ele>182.268084</ele>
        <time>2022-09-11T20:43:28.326Z</time>
      </trkpt>
      <trkpt lat="48.34462" lon="15.92377">
        <ele>182.144165</ele>
        <time>2022-09-11T20:43:45.280Z</time>
      </trkpt>
      <trkpt lat="48.34517" lon="15.92412">
        <ele>182.603477</ele>
        <time>2022-09-11T20:44:01.982Z</time>
      </trkpt>
      <trkpt lat="48.34592" lon="15.92107">
        <ele>184.67836</ele>
        <time>2022-09-11T20:45:11.194Z</time>
      </trkpt>
      <trkpt lat="48.34612" lon="15.92027">
        <ele>185.356977</ele>
        <time>2022-09-11T20:45:31.126Z</time>
      </trkpt>
      <trkpt lat="48.34618" lon="15.9199">
        <ele>185.651856</ele>
        <time>2022-09-11T20:45:39.826Z</time>
      </trkpt>
      <trkpt lat="48.34653" lon="15.91779">
        <ele>185.497367</ele>
        <time>2022-09-11T20:46:19.411Z</time>
      </trkpt>
      <trkpt lat="48.34677" lon="15.91549">
        <ele>183.604127</ele>
        <time>2022-09-11T20:46:53.039Z</time>
      </trkpt>
      <trkpt lat="48.34695" lon="15.91372">
        <ele>182.282995</ele>
        <time>2022-09-11T20:47:18.871Z</time>
      </trkpt>
      <trkpt lat="48.34701" lon="15.9127">
        <ele>181.832087</ele>
        <time>2022-09-11T20:47:35.805Z</time>
      </trkpt>
      <trkpt lat="48.34692" lon="15.91185">
        <ele>181.495643</ele>
        <time>2022-09-11T20:47:51.229Z</time>
      </trkpt>
      <trkpt lat="48.34712" lon="15.91157">
        <ele>181.586001</ele>
        <time>2022-09-11T20:47:58.842Z</time>
      </trkpt>
      <trkpt lat="48.34748" lon="15.91054">
        <ele>181.839938</ele>
        <time>2022-09-11T20:48:20.565Z</time>
      </trkpt>
      <trkpt lat="48.34814" lon="15.90902">
        <ele>181.975119</ele>
        <time>2022-09-11T20:48:56.120Z</time>
      </trkpt>
      <trkpt lat="48.3487" lon="15.90754">
        <ele>181.754746</ele>
        <time>2022-09-11T20:49:24.573Z</time>
      </trkpt>
      <trkpt lat="48.34956" lon="15.9045">
        <ele>180.071369</ele>
        <time>2022-09-11T20:50:15.130Z</time>
      </trkpt>
      <trkpt lat="48.34968" lon="15.90408">
        <ele>180.084383</ele>
        <time>2022-09-11T20:50:23.206Z</time>
      </trkpt>
      <trkpt lat="48.34973" lon="15.9038">
        <ele>180.092725</ele>
        <time>2022-09-11T20:50:28.355Z</time>
      </trkpt>
      <trkpt lat="48.34977" lon="15.90357">
        <ele>180.099386</ele>
        <time>2022-09-11T20:50:32.778Z</time>
      </trkpt>
      <trkpt lat="48.35006" lon="15.90197">
        <ele>180.170938</ele>
        <time>2022-09-11T20:51:04.917Z</time>
      </trkpt>
      <trkpt lat="48.35069" lon="15.89987">
        <ele>180.435221</ele>
        <time>2022-09-11T20:51:46.876Z</time>
      </trkpt>
      <trkpt lat="48.35096" lon="15.89881">
        <ele>180.611055</ele>
        <time>2022-09-11T20:52:06.593Z</time>
      </trkpt>
      <trkpt lat="48.35164" lon="15.89546">
        <ele>181.476094</ele>
        <time>2022-09-11T20:53:13.473Z</time>
      </trkpt>
      <trkpt lat="48.35206" lon="15.89334">
        <ele>182.147903</ele>
        <time>2022-09-11T20:53:56.690Z</time>
      </trkpt>
      <trkpt lat="48.35248" lon="15.89181">
        <ele>182.602012</ele>
        <time>2022-09-11T20:54:27.713Z</time>
      </trkpt>
      <trkpt lat="48.35318" lon="15.89039">
        <ele>182.94534</ele>
        <time>2022-09-11T20:55:00.479Z</time>
      </trkpt>
      <trkpt lat="48.35403" lon="15.88889">
        <ele>182.880246</ele>
        <time>2022-09-11T20:55:38.047Z</time>
      </trkpt>
      <trkpt lat="48.354" lon="15.8886">
        <ele>182.837128</ele>
        <time>2022-09-11T20:55:42.863Z</time>
      </trkpt>
      <trkpt lat="48.35378" lon="15.88811">
        <ele>182.747412</ele>
        <time>2022-09-11T20:55:52.396Z</time>
      </trkpt>
      <trkpt lat="48.35385" lon="15.88799">
        <ele>182.723686</ele>
        <time>2022-09-11T20:55:54.768Z</time>
      </trkpt>
      <trkpt lat="48.35398" lon="15.88777">
        <ele>182.679911</ele>
        <time>2022-09-11T20:55:59.306Z</time>
      </trkpt>
      <trkpt lat="48.354" lon="15.88773">
        <ele>182.671758</ele>
        <time>2022-09-11T20:56:00.158Z</time>
      </trkpt>
      <trkpt lat="48.35425" lon="15.8873">
        <ele>182.31391</ele>
        <time>2022-09-11T20:56:08.795Z</time>
      </trkpt>
      <trkpt lat="48.35437" lon="15.8871">
        <ele>182.132199</ele>
        <time>2022-09-11T20:56:12.954Z</time>
      </trkpt>
      <trkpt lat="48.35488" lon="15.88687">
        <ele>181.611059</ele>
        <time>2022-09-11T20:56:25.024Z</time>
      </trkpt>
      <trkpt lat="48.35511" lon="15.88672">
        <ele>181.370089</ele>
        <time>2022-09-11T20:56:30.278Z</time>
      </trkpt>
      <trkpt lat="48.35525" lon="15.88657">
        <ele>181.203155</ele>
        <time>2022-09-11T20:56:34.075Z</time>
      </trkpt>
      <trkpt lat="48.35611" lon="15.88517">
        <ele>181.410588</ele>
        <time>2022-09-11T20:57:08.082Z</time>
      </trkpt>
      <trkpt lat="48.35685" lon="15.88397">
        <ele>182.141184</ele>
        <time>2022-09-11T20:57:43.563Z</time>
      </trkpt>
      <trkpt lat="48.35727" lon="15.88324">
        <ele>182.912822</ele>
        <time>2022-09-11T20:58:05.334Z</time>
      </trkpt>
      <trkpt lat="48.35751" lon="15.88243">
        <ele>183.621804</ele>
        <time>2022-09-11T20:58:24.397Z</time>
      </trkpt>
      <trkpt lat="48.35755" lon="15.88211">
        <ele>183.875675</ele>
        <time>2022-09-11T20:58:31.143Z</time>
      </trkpt>
      <trkpt lat="48.35795" lon="15.88087">
        <ele>184.60634</ele>
        <time>2022-09-11T20:58:58.476Z</time>
      </trkpt>
      <trkpt lat="48.35813" lon="15.88048">
        <ele>184.845715</ele>
        <time>2022-09-11T20:59:08.170Z</time>
      </trkpt>
      <trkpt lat="48.3582" lon="15.88047">
        <ele>184.899491</ele>
        <time>2022-09-11T20:59:10.505Z</time>
      </trkpt>
      <trkpt lat="48.35854" lon="15.88028">
        <ele>185.176452</ele>
        <time>2022-09-11T20:59:21.711Z</time>
      </trkpt>
      <trkpt lat="48.35876" lon="15.87992">
        <ele>185.377834</ele>
        <time>2022-09-11T20:59:31.294Z</time>
      </trkpt>
      <trkpt lat="48.35885" lon="15.87981">
        <ele>185.415788</ele>
        <time>2022-09-11T20:59:35.036Z</time>
      </trkpt>
      <trkpt lat="48.35915" lon="15.87968">
        <ele>185.522771</ele>
        <time>2022-09-11T20:59:44.249Z</time>
      </trkpt>
      <trkpt lat="48.35928" lon="15.87967">
        <ele>185.567489</ele>
        <time>2022-09-11T20:59:48.079Z</time>
      </trkpt>
      <trkpt lat="48.35951" lon="15.87977">
        <ele>185.648147</ele>
        <time>2022-09-11T20:59:54.876Z</time>
      </trkpt>
      <trkpt lat="48.36004" lon="15.87967">
        <ele>185.830358</ele>
        <time>2022-09-11T21:00:09.391Z</time>
      </trkpt>
      <trkpt lat="48.36075" lon="15.87964">
        <ele>186.004638</ele>
        <time>2022-09-11T21:00:28.503Z</time>
      </trkpt>
      <trkpt lat="48.36084" lon="15.87959">
        <ele>186.020734</ele>
        <time>2022-09-11T21:00:31.228Z</time>
      </trkpt>
      <trkpt lat="48.36098" lon="15.87904">
        <ele>186.081694</ele>
        <time>2022-09-11T21:00:41.706Z</time>
      </trkpt>
      <trkpt lat="48.36138" lon="15.87666">
        <ele>186.131231</ele>
        <time>2022-09-11T21:01:27.175Z</time>
      </trkpt>
      <trkpt lat="48.36151" lon="15.87614">
        <ele>186.076862</ele>
        <time>2022-09-11T21:01:36.635Z</time>
      </trkpt>
      <trkpt lat="48.36173" lon="15.8756">
        <ele>186.013398</ele>
        <time>2022-09-11T21:01:47.361Z</time>
      </trkpt>
      <trkpt lat="48.36205" lon="15.87514">
        <ele>185.855679</ele>
        <time>2022-09-11T21:01:58.360Z</time>
      </trkpt>
      <trkpt lat="48.36221" lon="15.87478">
        <ele>185.570708</ele>
        <time>2022-09-11T21:02:05.181Z</time>
      </trkpt>
      <trkpt lat="48.36238" lon="15.87438">
        <ele>185.250849</ele>
        <time>2022-09-11T21:02:12.373Z</time>
      </trkpt>
      <trkpt lat="48.36286" lon="15.87359">
        <ele>184.538627</ele>
        <time>2022-09-11T21:02:28.285Z</time>
      </trkpt>
      <trkpt lat="48.36289" lon="15.8733">
        <ele>184.343654</ele>
        <time>2022-09-11T21:02:32.640Z</time>
      </trkpt>
      <trkpt lat="48.36278" lon="15.87301">
        <ele>184.170514</ele>
        <time>2022-09-11T21:02:37.875Z</time>
      </trkpt>
      <trkpt lat="48.36278" lon="15.87271">
        <ele>184.194989</ele>
        <time>2022-09-11T21:02:42.282Z</time>
      </trkpt>
      <trkpt lat="48.36282" lon="15.87256">
        <ele>184.208671</ele>
        <time>2022-09-11T21:02:45.162Z</time>
      </trkpt>
      <trkpt lat="48.36293" lon="15.87207">
        <ele>184.252098</ele>
        <time>2022-09-11T21:02:54.508Z</time>
      </trkpt>
      <trkpt lat="48.36301" lon="15.87178">
        <ele>184.278331</ele>
        <time>2022-09-11T21:03:00.292Z</time>
      </trkpt>
      <trkpt lat="48.36317" lon="15.87169">
        <ele>184.299552</ele>
        <time>2022-09-11T21:03:05.310Z</time>
      </trkpt>
      <trkpt lat="48.36332" lon="15.87183">
        <ele>184.321901</ele>
        <time>2022-09-11T21:03:10.265Z</time>
      </trkpt>
      <trkpt lat="48.3635" lon="15.87226">
        <ele>184.364974</ele>
        <time>2022-09-11T21:03:20.292Z</time>
      </trkpt>
      <trkpt lat="48.36399" lon="15.87321">
        <ele>184.805229</ele>
        <time>2022-09-11T21:03:45.241Z</time>
      </trkpt>
      <trkpt lat="48.36417" lon="15.87386">
        <ele>185.131559</ele>
        <time>2022-09-11T21:03:59.661Z</time>
      </trkpt>
      <trkpt lat="48.36424" lon="15.87443">
        <ele>185.40318</ele>
        <time>2022-09-11T21:04:11.642Z</time>
      </trkpt>
      <trkpt lat="48.36424" lon="15.87528">
        <ele>185.399155</ele>
        <time>2022-09-11T21:04:28.395Z</time>
      </trkpt>
      <trkpt lat="48.36431" lon="15.87554">
        <ele>185.163564</ele>
        <time>2022-09-11T21:04:33.067Z</time>
      </trkpt>
      <trkpt lat="48.36446" lon="15.87553">
        <ele>184.975077</ele>
        <time>2022-09-11T21:04:36.638Z</time>
      </trkpt>
      <trkpt lat="48.36524" lon="15.87461">
        <ele>183.721842</ele>
        <time>2022-09-11T21:04:57.733Z</time>
      </trkpt>
      <trkpt lat="48.36536" lon="15.87457">
        <ele>183.559413</ele>
        <time>2022-09-11T21:05:00.443Z</time>
      </trkpt>
      <trkpt lat="48.36554" lon="15.87482">
        <ele>183.190443</ele>
        <time>2022-09-11T21:05:05.559Z</time>
      </trkpt>
      <trkpt lat="48.36559" lon="15.87492">
        <ele>183.044058</ele>
        <time>2022-09-11T21:05:07.271Z</time>
      </trkpt>
      <trkpt lat="48.3659" lon="15.87564">
        <ele>182.028484</ele>
        <time>2022-09-11T21:05:19.127Z</time>
      </trkpt>
      <trkpt lat="48.36606" lon="15.87569">
        <ele>181.730828</ele>
        <time>2022-09-11T21:05:22.647Z</time>
      </trkpt>
      <trkpt lat="48.3664" lon="15.87537">
        <ele>181.015025</ele>
        <time>2022-09-11T21:05:31.114Z</time>
      </trkpt>
      <trkpt lat="48.36715" lon="15.87451">
        <ele>180.133571</ele>
        <time>2022-09-11T21:05:52.426Z</time>
      </trkpt>
      <trkpt lat="48.36811" lon="15.87327">
        <ele>180.031452</ele>
        <time>2022-09-11T21:06:28.637Z</time>
      </trkpt>
      <trkpt lat="48.369" lon="15.87198">
        <ele>180.398141</ele>
        <time>2022-09-11T21:07:04.026Z</time>
      </trkpt>
      <trkpt lat="48.36985" lon="15.87058">
        <ele>180.774852</ele>
        <time>2022-09-11T21:07:38.879Z</time>
      </trkpt>
      <trkpt lat="48.37057" lon="15.86925">
        <ele>181.094004</ele>
        <time>2022-09-11T21:08:10.211Z</time>
      </trkpt>
      <trkpt lat="48.37093" lon="15.86843">
        <ele>181.695578</ele>
        <time>2022-09-11T21:08:29.800Z</time>
      </trkpt>
      <trkpt lat="48.37126" lon="15.86753">
        <ele>182.339309</ele>
        <time>2022-09-11T21:08:51.780Z</time>
      </trkpt>
      <trkpt lat="48.37143" lon="15.86683">
        <ele>182.810009</ele>
        <time>2022-09-11T21:09:08.532Z</time>
      </trkpt>
      <trkpt lat="48.37157" lon="15.86608">
        <ele>183.047631</ele>
        <time>2022-09-11T21:09:24.879Z</time>
      </trkpt>
      <trkpt lat="48.37163" lon="15.86549">
        <ele>183.233633</ele>
        <time>2022-09-11T21:09:37.137Z</time>
      </trkpt>
      <trkpt lat="48.37158" lon="15.865">
        <ele>183.386696</ele>
        <time>2022-09-11T21:09:46.894Z</time>
      </trkpt>
      <trkpt lat="48.37148" lon="15.86458">
        <ele>183.524386</ele>
        <time>2022-09-11T21:09:55.137Z</time>
      </trkpt>
      <trkpt lat="48.37012" lon="15.86084">
        <ele>181.817469</ele>
        <time>2022-09-11T21:11:01.083Z</time>
      </trkpt>
      <trkpt lat="48.36982" lon="15.8597">
        <ele>181.500901</ele>
        <time>2022-09-11T21:11:21.928Z</time>
      </trkpt>
      <trkpt lat="48.36953" lon="15.85841">
        <ele>181.904879</ele>
        <time>2022-09-11T21:11:48.466Z</time>
      </trkpt>
      <trkpt lat="48.36932" lon="15.85711">
        <ele>182.514984</ele>
        <time>2022-09-11T21:12:16.463Z</time>
      </trkpt>
      <trkpt lat="48.36912" lon="15.85528">
        <ele>183.056223</ele>
        <time>2022-09-11T21:12:53.660Z</time>
      </trkpt>
      <trkpt lat="48.36862" lon="15.85516">
        <ele>183.25667</ele>
        <time>2022-09-11T21:13:07.491Z</time>
      </trkpt>
      <trkpt lat="48.36858" lon="15.85492">
        <ele>183.321368</ele>
        <time>2022-09-11T21:13:11.745Z</time>
      </trkpt>
      <trkpt lat="48.37019" lon="15.85478">
        <ele>182.736987</ele>
        <time>2022-09-11T21:13:51.742Z</time>
      </trkpt>
      <trkpt lat="48.3704" lon="15.85476">
        <ele>182.648973</ele>
        <time>2022-09-11T21:13:57.010Z</time>
      </trkpt>
      <trkpt lat="48.37043" lon="15.85257">
        <ele>182.324615</ele>
        <time>2022-09-11T21:14:34.052Z</time>
      </trkpt>
      <trkpt lat="48.37083" lon="15.84855">
        <ele>182.700439</ele>
        <time>2022-09-11T21:15:46.671Z</time>
      </trkpt>
      <trkpt lat="48.37082" lon="15.84817">
        <ele>182.903438</ele>
        <time>2022-09-11T21:15:53.806Z</time>
      </trkpt>
      <trkpt lat="48.37068" lon="15.84737">
        <ele>183.355558</ele>
        <time>2022-09-11T21:16:11.298Z</time>
      </trkpt>
      <trkpt lat="48.37081" lon="15.84698">
        <ele>183.589598</ele>
        <time>2022-09-11T21:16:21.545Z</time>
      </trkpt>
      <trkpt lat="48.371" lon="15.84667">
        <ele>183.895866</ele>
        <time>2022-09-11T21:16:30.867Z</time>
      </trkpt>
      <trkpt lat="48.37162" lon="15.8462">
        <ele>185.167511</ele>
        <time>2022-09-11T21:16:54.474Z</time>
      </trkpt>
      <trkpt lat="48.37168" lon="15.84621">
        <ele>185.278122</ele>
        <time>2022-09-11T21:16:57.864Z</time>
      </trkpt>
      <trkpt lat="48.37375" lon="15.84853">
        <ele>190.271772</ele>
        <time>2022-09-11T21:18:29.363Z</time>
      </trkpt>
      <trkpt lat="48.37438" lon="15.84967">
        <ele>192.231655</ele>
        <time>2022-09-11T21:19:08.732Z</time>
      </trkpt>
      <trkpt lat="48.37549" lon="15.8505">
        <ele>194.181342</ele>
        <time>2022-09-11T21:19:52.842Z</time>
      </trkpt>
      <trkpt lat="48.37684" lon="15.84817">
        <ele>193.403194</ele>
        <time>2022-09-11T21:20:41.619Z</time>
      </trkpt>
      <trkpt lat="48.37769" lon="15.84621">
        <ele>192.357375</ele>
        <time>2022-09-11T21:21:18.315Z</time>
      </trkpt>
      <trkpt lat="48.37787" lon="15.84576">
        <ele>192.292546</ele>
        <time>2022-09-11T21:21:27.483Z</time>
      </trkpt>
      <trkpt lat="48.37835" lon="15.84407">
        <ele>192.070109</ele>
        <time>2022-09-11T21:21:59.941Z</time>
      </trkpt>
      <trkpt lat="48.3787" lon="15.84222">
        <ele>192.09655</ele>
        <time>2022-09-11T21:22:35.141Z</time>
      </trkpt>
      <trkpt lat="48.37894" lon="15.84039">
        <ele>191.476737</ele>
        <time>2022-09-11T21:23:06.526Z</time>
      </trkpt>
      <trkpt lat="48.3791" lon="15.83856">
        <ele>190.350636</ele>
        <time>2022-09-11T21:23:34.168Z</time>
      </trkpt>
      <trkpt lat="48.37924" lon="15.83552">
        <ele>187.994712</ele>
        <time>2022-09-11T21:24:19.094Z</time>
      </trkpt>
      <trkpt lat="48.37922" lon="15.83087">
        <ele>187.317407</ele>
        <time>2022-09-11T21:25:40.928Z</time>
      </trkpt>
      <trkpt lat="48.37915" lon="15.82926">
        <ele>187.168987</ele>
        <time>2022-09-11T21:26:09.239Z</time>
      </trkpt>
      <trkpt lat="48.37892" lon="15.82631">
        <ele>186.902248</ele>
        <time>2022-09-11T21:26:59.632Z</time>
      </trkpt>
      <trkpt lat="48.37874" lon="15.8245">
        <ele>186.901139</ele>
        <time>2022-09-11T21:27:32.516Z</time>
      </trkpt>
      <trkpt lat="48.37843" lon="15.82238">
        <ele>187.048537</ele>
        <time>2022-09-11T21:28:12.550Z</time>
      </trkpt>
      <trkpt lat="48.37814" lon="15.82029">
        <ele>186.716794</ele>
        <time>2022-09-11T21:28:48.956Z</time>
      </trkpt>
      <trkpt lat="48.37782" lon="15.81704">
        <ele>185.968509</ele>
        <time>2022-09-11T21:29:42.560Z</time>
      </trkpt>
      <trkpt lat="48.37763" lon="15.81462">
        <ele>186.328412</ele>
        <time>2022-09-11T21:30:28.805Z</time>
      </trkpt>
      <trkpt lat="48.37756" lon="15.81215">
        <ele>186.392307</ele>
        <time>2022-09-11T21:31:13.664Z</time>
      </trkpt>
      <trkpt lat="48.37784" lon="15.80993">
        <ele>185.986208</ele>
        <time>2022-09-11T21:31:50.239Z</time>
      </trkpt>
      <trkpt lat="48.37875" lon="15.80491">
        <ele>186.404356</ele>
        <time>2022-09-11T21:33:26.347Z</time>
      </trkpt>
      <trkpt lat="48.37935" lon="15.80108">
        <ele>186.389411</ele>
        <time>2022-09-11T21:34:36.225Z</time>
      </trkpt>
      <trkpt lat="48.37946" lon="15.79987">
        <ele>186.162062</ele>
        <time>2022-09-11T21:34:56.595Z</time>
      </trkpt>
      <trkpt lat="48.37957" lon="15.79765">
        <ele>185.958717</ele>
        <time>2022-09-11T21:35:33.831Z</time>
      </trkpt>
      <trkpt lat="48.37956" lon="15.79542">
        <ele>186.289403</ele>
        <time>2022-09-11T21:36:14.727Z</time>
      </trkpt>
      <trkpt lat="48.3793" lon="15.79152">
        <ele>188.3026</ele>
        <time>2022-09-11T21:37:36.959Z</time>
      </trkpt>
      <trkpt lat="48.37916" lon="15.79045">
        <ele>188.732556</ele>
        <time>2022-09-11T21:37:57.665Z</time>
      </trkpt>
      <trkpt lat="48.37887" lon="15.78902">
        <ele>188.644678</ele>
        <time>2022-09-11T21:38:23.491Z</time>
      </trkpt>
      <trkpt lat="48.3784" lon="15.78743">
        <ele>188.601636</ele>
        <time>2022-09-11T21:38:52.702Z</time>
      </trkpt>
      <trkpt lat="48.3763" lon="15.78224">
        <ele>188.75345</ele>
        <time>2022-09-11T21:40:42.108Z</time>
      </trkpt>
      <trkpt lat="48.3756" lon="15.78027">
        <ele>188.732844</ele>
        <time>2022-09-11T21:41:21.722Z</time>
      </trkpt>
      <trkpt lat="48.37482" lon="15.77786">
        <ele>188.652699</ele>
        <time>2022-09-11T21:42:07.974Z</time>
      </trkpt>
      <trkpt lat="48.37405" lon="15.77507">
        <ele>189.026176</ele>
        <time>2022-09-11T21:43:03.554Z</time>
      </trkpt>
      <trkpt lat="48.3731" lon="15.77127">
        <ele>190.02357</ele>
        <time>2022-09-11T21:44:21.724Z</time>
      </trkpt>
      <trkpt lat="48.37207" lon="15.76671">
        <ele>189.667851</ele>
        <time>2022-09-11T21:45:44.404Z</time>
      </trkpt>
      <trkpt lat="48.37188" lon="15.76627">
        <ele>189.62019</ele>
        <time>2022-09-11T21:45:54.135Z</time>
      </trkpt>
      <trkpt lat="48.37183" lon="15.76569">
        <ele>189.577774</ele>
        <time>2022-09-11T21:46:04.196Z</time>
      </trkpt>
      <trkpt lat="48.37155" lon="15.76448">
        <ele>189.497089</ele>
        <time>2022-09-11T21:46:25.895Z</time>
      </trkpt>
      <trkpt lat="48.37136" lon="15.76351">
        <ele>189.4333</ele>
        <time>2022-09-11T21:46:43.934Z</time>
      </trkpt>
      <trkpt lat="48.3713" lon="15.7629">
        <ele>189.374171</ele>
        <time>2022-09-11T21:46:55.228Z</time>
      </trkpt>
      <trkpt lat="48.37122" lon="15.76111">
        <ele>189.195418</ele>
        <time>2022-09-11T21:47:26.158Z</time>
      </trkpt>
      <trkpt lat="48.37116" lon="15.76061">
        <ele>189.08453</ele>
        <time>2022-09-11T21:47:34.613Z</time>
      </trkpt>
      <trkpt lat="48.3711" lon="15.76041">
        <ele>188.974699</ele>
        <time>2022-09-11T21:47:38.912Z</time>
      </trkpt>
      <trkpt lat="48.37098" lon="15.76025">
        <ele>188.864822</ele>
        <time>2022-09-11T21:47:42.366Z</time>
      </trkpt>
      <trkpt lat="48.37074" lon="15.76008">
        <ele>188.667592</ele>
        <time>2022-09-11T21:47:48.993Z</time>
      </trkpt>
      <trkpt lat="48.37057" lon="15.75975">
        <ele>188.463596</ele>
        <time>2022-09-11T21:47:55.734Z</time>
      </trkpt>
      <trkpt lat="48.37052" lon="15.75941">
        <ele>188.29816</ele>
        <time>2022-09-11T21:48:00.893Z</time>
      </trkpt>
      <trkpt lat="48.37049" lon="15.75908">
        <ele>188.135568</ele>
        <time>2022-09-11T21:48:06.330Z</time>
      </trkpt>
      <trkpt lat="48.37045" lon="15.75874">
        <ele>187.965695</ele>
        <time>2022-09-11T21:48:11.794Z</time>
      </trkpt>
      <trkpt lat="48.37041" lon="15.75839">
        <ele>187.813547</ele>
        <time>2022-09-11T21:48:17.027Z</time>
      </trkpt>
      <trkpt lat="48.37037" lon="15.75804">
        <ele>187.699164</ele>
        <time>2022-09-11T21:48:22.236Z</time>
      </trkpt>
      <trkpt lat="48.37033" lon="15.7577">
        <ele>187.584312</ele>
        <time>2022-09-11T21:48:27.656Z</time>
      </trkpt>
      <trkpt lat="48.37029" lon="15.75735">
        <ele>187.46978</ele>
        <time>2022-09-11T21:48:33.311Z</time>
      </trkpt>
      <trkpt lat="48.37029" lon="15.75687">
        <ele>187.312919</ele>
        <time>2022-09-11T21:48:41.236Z</time>
      </trkpt>
      <trkpt lat="48.37056" lon="15.75583">
        <ele>186.972522</ele>
        <time>2022-09-11T21:49:01.002Z</time>
      </trkpt>
      <trkpt lat="48.37059" lon="15.75552">
        <ele>187.004219</ele>
        <time>2022-09-11T21:49:06.866Z</time>
      </trkpt>
      <trkpt lat="48.36992" lon="15.74975">
        <ele>187.555028</ele>
        <time>2022-09-11T21:50:53.418Z</time>
      </trkpt>
      <trkpt lat="48.36978" lon="15.74769">
        <ele>187.704849</ele>
        <time>2022-09-11T21:51:29.959Z</time>
      </trkpt>
      <trkpt lat="48.3698" lon="15.74633">
        <ele>188.089484</ele>
        <time>2022-09-11T21:51:55.608Z</time>
      </trkpt>
      <trkpt lat="48.36989" lon="15.74498">
        <ele>188.486666</ele>
        <time>2022-09-11T21:52:22.755Z</time>
      </trkpt>
      <trkpt lat="48.37006" lon="15.74367">
        <ele>188.953417</ele>
        <time>2022-09-11T21:52:49.364Z</time>
      </trkpt>
      <trkpt lat="48.37033" lon="15.74231">
        <ele>189.360909</ele>
        <time>2022-09-11T21:53:16.148Z</time>
      </trkpt>
      <trkpt lat="48.37078" lon="15.74073">
        <ele>189.304894</ele>
        <time>2022-09-11T21:53:46.722Z</time>
      </trkpt>
      <trkpt lat="48.37129" lon="15.73946">
        <ele>189.100567</ele>
        <time>2022-09-11T21:54:11.622Z</time>
      </trkpt>
      <trkpt lat="48.37263" lon="15.73692">
        <ele>188.479872</ele>
        <time>2022-09-11T21:55:05.775Z</time>
      </trkpt>
      <trkpt lat="48.37331" lon="15.73585">
        <ele>188.331447</ele>
        <time>2022-09-11T21:55:31.938Z</time>
      </trkpt>
      <trkpt lat="48.37655" lon="15.73128">
        <ele>188.860446</ele>
        <time>2022-09-11T21:57:32.879Z</time>
      </trkpt>
      <trkpt lat="48.3781" lon="15.7291">
        <ele>189.030796</ele>
        <time>2022-09-11T21:58:30.326Z</time>
      </trkpt>
      <trkpt lat="48.37875" lon="15.72806">
        <ele>189.143948</ele>
        <time>2022-09-11T21:58:56.246Z</time>
      </trkpt>
      <trkpt lat="48.38137" lon="15.72319">
        <ele>190.046969</ele>
        <time>2022-09-11T22:00:51.675Z</time>
      </trkpt>
      <trkpt lat="48.38223" lon="15.72185">
        <ele>190.380549</ele>
        <time>2022-09-11T22:01:26.617Z</time>
      </trkpt>
      <trkpt lat="48.38333" lon="15.71993">
        <ele>190.781415</ele>
        <time>2022-09-11T22:02:13.556Z</time>
      </trkpt>
      <trkpt lat="48.3838" lon="15.71907">
        <ele>190.791781</ele>
        <time>2022-09-11T22:02:33.174Z</time>
      </trkpt>
      <trkpt lat="48.38441" lon="15.71794">
        <ele>190.843513</ele>
        <time>2022-09-11T22:02:58.808Z</time>
      </trkpt>
      <trkpt lat="48.38475" lon="15.7172">
        <ele>191.009777</ele>
        <time>2022-09-11T22:03:14.882Z</time>
      </trkpt>
      <trkpt lat="48.38535" lon="15.71561">
        <ele>191.419083</ele>
        <time>2022-09-11T22:03:49.657Z</time>
      </trkpt>
      <trkpt lat="48.38576" lon="15.71417">
        <ele>192.19611</ele>
        <time>2022-09-11T22:04:21.529Z</time>
      </trkpt>
      <trkpt lat="48.38612" lon="15.71244">
        <ele>193.008574</ele>
        <time>2022-09-11T22:04:58.238Z</time>
      </trkpt>
      <trkpt lat="48.3864" lon="15.71055">
        <ele>193.728759</ele>
        <time>2022-09-11T22:05:36.356Z</time>
      </trkpt>
      <trkpt lat="48.38656" lon="15.70871">
        <ele>193.673966</ele>
        <time>2022-09-11T22:06:09.219Z</time>
      </trkpt>
      <trkpt lat="48.38667" lon="15.70483">
        <ele>192.975828</ele>
        <time>2022-09-11T22:07:13.032Z</time>
      </trkpt>
      <trkpt lat="48.38665" lon="15.70259">
        <ele>193.29264</ele>
        <time>2022-09-11T22:07:54.642Z</time>
      </trkpt>
      <trkpt lat="48.38654" lon="15.70095">
        <ele>194.287344</ele>
        <time>2022-09-11T22:08:29.527Z</time>
      </trkpt>
      <trkpt lat="48.38645" lon="15.70008">
        <ele>194.824681</ele>
        <time>2022-09-11T22:08:48.229Z</time>
      </trkpt>
      <trkpt lat="48.38626" lon="15.69892">
        <ele>195.051429</ele>
        <time>2022-09-11T22:09:12.080Z</time>
      </trkpt>
      <trkpt lat="48.38603" lon="15.69793">
        <ele>195.163371</ele>
        <time>2022-09-11T22:09:31.214Z</time>
      </trkpt>
      <trkpt lat="48.38535" lon="15.69563">
        <ele>194.481574</ele>
        <time>2022-09-11T22:10:11.383Z</time>
      </trkpt>
      <trkpt lat="48.38477" lon="15.69403">
        <ele>193.991689</ele>
        <time>2022-09-11T22:10:41.318Z</time>
      </trkpt>
      <trkpt lat="48.38393" lon="15.69211">
        <ele>193.806208</ele>
        <time>2022-09-11T22:11:21.488Z</time>
      </trkpt>
      <trkpt lat="48.38361" lon="15.69094">
        <ele>193.959055</ele>
        <time>2022-09-11T22:11:44.579Z</time>
      </trkpt>
      <trkpt lat="48.38339" lon="15.69032">
        <ele>194.043084</ele>
        <time>2022-09-11T22:11:57.634Z</time>
      </trkpt>
      <trkpt lat="48.38219" lon="15.68789">
        <ele>195.083509</ele>
        <time>2022-09-11T22:12:56.045Z</time>
      </trkpt>
      <trkpt lat="48.38193" lon="15.68736">
        <ele>195.599752</ele>
        <time>2022-09-11T22:13:09.716Z</time>
      </trkpt>
      <trkpt lat="48.38165" lon="15.6868">
        <ele>196.135349</ele>
        <time>2022-09-11T22:13:24.119Z</time>
      </trkpt>
      <trkpt lat="48.38128" lon="15.68599">
        <ele>196.907951</ele>
        <time>2022-09-11T22:13:45.846Z</time>
      </trkpt>
      <trkpt lat="48.38089" lon="15.6849">
        <ele>198.337183</ele>
        <time>2022-09-11T22:14:15.397Z</time>
      </trkpt>
      <trkpt lat="48.38039" lon="15.68102">
        <ele>202.255364</ele>
        <time>2022-09-11T22:15:49.412Z</time>
      </trkpt>
      <trkpt lat="48.37954" lon="15.67593">
        <ele>198.672011</ele>
        <time>2022-09-11T22:17:08.249Z</time>
      </trkpt>
      <trkpt lat="48.37926" lon="15.67348">
        <ele>195.594182</ele>
        <time>2022-09-11T22:17:42.770Z</time>
      </trkpt>
      <trkpt lat="48.37934" lon="15.67137">
        <ele>193.319759</ele>
        <time>2022-09-11T22:18:12.746Z</time>
      </trkpt>
      <trkpt lat="48.37955" lon="15.66961">
        <ele>192.016883</ele>
        <time>2022-09-11T22:18:39.936Z</time>
      </trkpt>
      <trkpt lat="48.37993" lon="15.66771">
        <ele>192.00647</ele>
        <time>2022-09-11T22:19:16.397Z</time>
      </trkpt>
      <trkpt lat="48.38047" lon="15.66577">
        <ele>192.293914</ele>
        <time>2022-09-11T22:19:55.968Z</time>
      </trkpt>
      <trkpt lat="48.38083" lon="15.66472">
        <ele>192.474751</ele>
        <time>2022-09-11T22:20:17.863Z</time>
      </trkpt>
      <trkpt lat="48.38124" lon="15.66375">
        <ele>192.568726</ele>
        <time>2022-09-11T22:20:38.332Z</time>
      </trkpt>
      <trkpt lat="48.38218" lon="15.66193">
        <ele>192.845754</ele>
        <time>2022-09-11T22:21:20.300Z</time>
      </trkpt>
      <trkpt lat="48.38327" lon="15.66023">
        <ele>193.202197</ele>
        <time>2022-09-11T22:22:04.523Z</time>
      </trkpt>
      <trkpt lat="48.38455" lon="15.65856">
        <ele>193.352216</ele>
        <time>2022-09-11T22:22:50.498Z</time>
      </trkpt>
      <trkpt lat="48.39465" lon="15.64755">
        <ele>192.829013</ele>
        <time>2022-09-11T22:28:19.092Z</time>
      </trkpt>
      <trkpt lat="48.39513" lon="15.64697">
        <ele>193.392068</ele>
        <time>2022-09-11T22:28:36.810Z</time>
      </trkpt>
      <trkpt lat="48.39606" lon="15.64568">
        <ele>194.488763</ele>
        <time>2022-09-11T22:29:20.043Z</time>
      </trkpt>
      <trkpt lat="48.3969" lon="15.64422">
        <ele>195.375211</ele>
        <time>2022-09-11T22:29:59.414Z</time>
      </trkpt>
      <trkpt lat="48.39729" lon="15.64383">
        <ele>195.402633</ele>
        <time>2022-09-11T22:30:11.039Z</time>
      </trkpt>
      <trkpt lat="48.39785" lon="15.6426">
        <ele>194.690741</ele>
        <time>2022-09-11T22:30:33.899Z</time>
      </trkpt>
      <trkpt lat="48.39834" lon="15.64133">
        <ele>194.29357</ele>
        <time>2022-09-11T22:30:57.018Z</time>
      </trkpt>
      <trkpt lat="48.39885" lon="15.63989">
        <ele>194.380207</ele>
        <time>2022-09-11T22:31:28.253Z</time>
      </trkpt>
      <trkpt lat="48.39973" lon="15.63697">
        <ele>194.851773</ele>
        <time>2022-09-11T22:32:28.312Z</time>
      </trkpt>
      <trkpt lat="48.40018" lon="15.63522">
        <ele>194.710008</ele>
        <time>2022-09-11T22:32:59.706Z</time>
      </trkpt>
      <trkpt lat="48.40071" lon="15.63276">
        <ele>194.966744</ele>
        <time>2022-09-11T22:33:45.966Z</time>
      </trkpt>
      <trkpt lat="48.40075" lon="15.63173">
        <ele>195.169385</ele>
        <time>2022-09-11T22:34:06.535Z</time>
      </trkpt>
      <trkpt lat="48.40086" lon="15.63089">
        <ele>195.481553</ele>
        <time>2022-09-11T22:34:24.019Z</time>
      </trkpt>
      <trkpt lat="48.40062" lon="15.63017">
        <ele>195.773197</ele>
        <time>2022-09-11T22:34:40.387Z</time>
      </trkpt>
      <trkpt lat="48.4006" lon="15.62988">
        <ele>195.879274</ele>
        <time>2022-09-11T22:34:46.361Z</time>
      </trkpt>
      <trkpt lat="48.40089" lon="15.62764">
        <ele>195.62435</ele>
        <time>2022-09-11T22:35:25.909Z</time>
      </trkpt>
      <trkpt lat="48.40097" lon="15.62738">
        <ele>195.531035</ele>
        <time>2022-09-11T22:35:30.414Z</time>
      </trkpt>
      <trkpt lat="48.40125" lon="15.6268">
        <ele>195.30087</ele>
        <time>2022-09-11T22:35:41.345Z</time>
      </trkpt>
      <trkpt lat="48.40131" lon="15.62671">
        <ele>195.260782</ele>
        <time>2022-09-11T22:35:43.125Z</time>
      </trkpt>
      <trkpt lat="48.40144" lon="15.6259">
        <ele>194.92639</ele>
        <time>2022-09-11T22:35:56.059Z</time>
      </trkpt>
      <trkpt lat="48.40146" lon="15.62511">
        <ele>194.609939</ele>
        <time>2022-09-11T22:36:08.175Z</time>
      </trkpt>
      <trkpt lat="48.40145" lon="15.62203">
        <ele>194.464231</ele>
        <time>2022-09-11T22:37:03.542Z</time>
      </trkpt>
      <trkpt lat="48.40127" lon="15.61476">
        <ele>196.626844</ele>
        <time>2022-09-11T22:39:24.545Z</time>
      </trkpt>
      <trkpt lat="48.40117" lon="15.61454">
        <ele>196.67642</ele>
        <time>2022-09-11T22:39:29.401Z</time>
      </trkpt>
      <trkpt lat="48.40102" lon="15.61441">
        <ele>196.72788</ele>
        <time>2022-09-11T22:39:34.279Z</time>
      </trkpt>
      <trkpt lat="48.39877" lon="15.61261">
        <ele>196.935878</ele>
        <time>2022-09-11T22:40:42.899Z</time>
      </trkpt>
      <trkpt lat="48.39849" lon="15.61233">
        <ele>196.833376</ele>
        <time>2022-09-11T22:40:51.586Z</time>
      </trkpt>
      <trkpt lat="48.39893" lon="15.61298">
        <ele>196.644327</ele>
        <time>2022-09-11T22:41:07.033Z</time>
      </trkpt>
      <trkpt lat="48.39849" lon="15.61267">
        <ele>196.497345</ele>
        <time>2022-09-11T22:41:18.942Z</time>
      </trkpt>
      <trkpt lat="48.39842" lon="15.61246">
        <ele>196.448361</ele>
        <time>2022-09-11T22:41:22.832Z</time>
      </trkpt>
      <trkpt lat="48.39844" lon="15.61171">
        <ele>196.345249</ele>
        <time>2022-09-11T22:41:35.681Z</time>
      </trkpt>
      <trkpt lat="48.39857" lon="15.61163">
        <ele>196.320717</ele>
        <time>2022-09-11T22:41:39.182Z</time>
      </trkpt>
      <trkpt lat="48.3986" lon="15.61164">
        <ele>196.31571</ele>
        <time>2022-09-11T22:41:39.870Z</time>
      </trkpt>
      <trkpt lat="48.39853" lon="15.61197">
        <ele>196.276239</ele>
        <time>2022-09-11T22:41:50.026Z</time>
      </trkpt>
      <trkpt lat="48.39867" lon="15.61201">
        <ele>196.25135</ele>
        <time>2022-09-11T22:41:53.479Z</time>
      </trkpt>
      <trkpt lat="48.39898" lon="15.61208">
        <ele>196.19751</ele>
        <time>2022-09-11T22:42:01.457Z</time>
      </trkpt>
      <trkpt lat="48.39958" lon="15.61254">
        <ele>196.142433</ele>
        <time>2022-09-11T22:42:19.348Z</time>
      </trkpt>
      <trkpt lat="48.40089" lon="15.61339">
        <ele>196.815696</ele>
        <time>2022-09-11T22:43:00.936Z</time>
      </trkpt>
      <trkpt lat="48.40115" lon="15.61354">
        <ele>196.947154</ele>
        <time>2022-09-11T22:43:09.217Z</time>
      </trkpt>
      <trkpt lat="48.40123" lon="15.61347">
        <ele>197.017547</ele>
        <time>2022-09-11T22:43:11.813Z</time>
      </trkpt>
      <trkpt lat="48.40121" lon="15.61264">
        <ele>197.472787</ele>
        <time>2022-09-11T22:43:28.551Z</time>
      </trkpt>
      <trkpt lat="48.40114" lon="15.60994">
        <ele>198.891195</ele>
        <time>2022-09-11T22:44:24.006Z</time>
      </trkpt>
      <trkpt lat="48.40103" lon="15.60519">
        <ele>200.985261</ele>
        <time>2022-09-11T22:45:57.654Z</time>
      </trkpt>
      <trkpt lat="48.40089" lon="15.60161">
        <ele>201.619026</ele>
        <time>2022-09-11T22:47:08.093Z</time>
      </trkpt>
      <trkpt lat="48.40073" lon="15.59902">
        <ele>199.752662</ele>
        <time>2022-09-11T22:47:47.342Z</time>
      </trkpt>
      <trkpt lat="48.40048" lon="15.59697">
        <ele>197.136664</ele>
        <time>2022-09-11T22:48:15.249Z</time>
      </trkpt>
      <trkpt lat="48.40043" lon="15.59617">
        <ele>196.468992</ele>
        <time>2022-09-11T22:48:26.343Z</time>
      </trkpt>
      <trkpt lat="48.40041" lon="15.59574">
        <ele>196.117231</ele>
        <time>2022-09-11T22:48:32.646Z</time>
      </trkpt>
      <trkpt lat="48.40021" lon="15.59445">
        <ele>195.458595</ele>
        <time>2022-09-11T22:48:56.276Z</time>
      </trkpt>
      <trkpt lat="48.4001" lon="15.59114">
        <ele>198.172148</ele>
        <time>2022-09-11T22:50:08.685Z</time>
      </trkpt>
      <trkpt lat="48.39992" lon="15.5899">
        <ele>199.615579</ele>
        <time>2022-09-11T22:50:38.811Z</time>
      </trkpt>
      <trkpt lat="48.39979" lon="15.58897">
        <ele>200.545225</ele>
        <time>2022-09-11T22:51:01.620Z</time>
      </trkpt>
      <trkpt lat="48.39955" lon="15.58785">
        <ele>201.461713</ele>
        <time>2022-09-11T22:51:29.349Z</time>
      </trkpt>
      <trkpt lat="48.39917" lon="15.58631">
        <ele>202.015947</ele>
        <time>2022-09-11T22:52:00.528Z</time>
      </trkpt>
      <trkpt lat="48.39881" lon="15.58516">
        <ele>201.197858</ele>
        <time>2022-09-11T22:52:19.809Z</time>
      </trkpt>
      <trkpt lat="48.39827" lon="15.58395">
        <ele>200.211103</ele>
        <time>2022-09-11T22:52:40.531Z</time>
      </trkpt>
      <trkpt lat="48.39793" lon="15.5825">
        <ele>199.071909</ele>
        <time>2022-09-11T22:53:04.094Z</time>
      </trkpt>
      <trkpt lat="48.39761" lon="15.58165">
        <ele>198.473936</ele>
        <time>2022-09-11T22:53:19.881Z</time>
      </trkpt>
      <trkpt lat="48.39766" lon="15.5815">
        <ele>198.41055</ele>
        <time>2022-09-11T22:53:22.618Z</time>
      </trkpt>
      <trkpt lat="48.39778" lon="15.5814">
        <ele>198.334657</ele>
        <time>2022-09-11T22:53:25.927Z</time>
      </trkpt>
      <trkpt lat="48.39779" lon="15.58122">
        <ele>198.267467</ele>
        <time>2022-09-11T22:53:28.846Z</time>
      </trkpt>
      <trkpt lat="48.39696" lon="15.57818">
        <ele>197.051903</ele>
        <time>2022-09-11T22:54:22.220Z</time>
      </trkpt>
      <trkpt lat="48.39677" lon="15.57771">
        <ele>196.854464</ele>
        <time>2022-09-11T22:54:31.015Z</time>
      </trkpt>
      <trkpt lat="48.39669" lon="15.57737">
        <ele>196.722086</ele>
        <time>2022-09-11T22:54:36.903Z</time>
      </trkpt>
      <trkpt lat="48.39662" lon="15.57693">
        <ele>196.608069</ele>
        <time>2022-09-11T22:54:44.277Z</time>
      </trkpt>
      <trkpt lat="48.39645" lon="15.57629">
        <ele>196.621585</ele>
        <time>2022-09-11T22:54:56.063Z</time>
      </trkpt>
      <trkpt lat="48.39626" lon="15.57579">
        <ele>196.632781</ele>
        <time>2022-09-11T22:55:06.096Z</time>
      </trkpt>
      <trkpt lat="48.39552" lon="15.57404">
        <ele>196.81635</ele>
        <time>2022-09-11T22:55:44.973Z</time>
      </trkpt>
      <trkpt lat="48.39503" lon="15.57313">
        <ele>197.059995</ele>
        <time>2022-09-11T22:56:07.224Z</time>
      </trkpt>
      <trkpt lat="48.39494" lon="15.57322">
        <ele>197.096503</ele>
        <time>2022-09-11T22:56:10.559Z</time>
      </trkpt>
      <trkpt lat="48.39484" lon="15.57334">
        <ele>197.136891</ele>
        <time>2022-09-11T22:56:14.254Z</time>
      </trkpt>
      <trkpt lat="48.39473" lon="15.57345">
        <ele>197.17616</ele>
        <time>2022-09-11T22:56:17.877Z</time>
      </trkpt>
      <trkpt lat="48.39468" lon="15.5735">
        <ele>197.195229</ele>
        <time>2022-09-11T22:56:19.692Z</time>
      </trkpt>
      <trkpt lat="48.39421" lon="15.57244">
        <ele>197.331678</ele>
        <time>2022-09-11T22:56:42.951Z</time>
      </trkpt>
      <trkpt lat="48.39401" lon="15.57244">
        <ele>197.36056</ele>
        <time>2022-09-11T22:56:48.431Z</time>
      </trkpt>
      <trkpt lat="48.39397" lon="15.57191">
        <ele>197.411613</ele>
        <time>2022-09-11T22:56:57.997Z</time>
      </trkpt>
      <trkpt lat="48.39348" lon="15.57071">
        <ele>197.690192</ele>
        <time>2022-09-11T22:57:23.409Z</time>
      </trkpt>
      <trkpt lat="48.3929" lon="15.56965">
        <ele>198.112391</ele>
        <time>2022-09-11T22:57:50.338Z</time>
      </trkpt>
      <trkpt lat="48.39235" lon="15.56894">
        <ele>198.413339</ele>
        <time>2022-09-11T22:58:11.935Z</time>
      </trkpt>
      <trkpt lat="48.39236" lon="15.56879">
        <ele>198.448788</ele>
        <time>2022-09-11T22:58:15.026Z</time>
      </trkpt>
      <trkpt lat="48.39256" lon="15.5685">
        <ele>198.544707</ele>
        <time>2022-09-11T22:58:23.205Z</time>
      </trkpt>
      <trkpt lat="48.39094" lon="15.56447">
        <ele>198.932874</ele>
        <time>2022-09-11T22:59:48.569Z</time>
      </trkpt>
      <trkpt lat="48.39082" lon="15.56436">
        <ele>198.84071</ele>
        <time>2022-09-11T22:59:51.868Z</time>
      </trkpt>
      <trkpt lat="48.39063" lon="15.56452">
        <ele>198.691161</ele>
        <time>2022-09-11T22:59:57.182Z</time>
      </trkpt>
      <trkpt lat="48.39022" lon="15.56493">
        <ele>198.354824</ele>
        <time>2022-09-11T23:00:08.869Z</time>
      </trkpt>
      <trkpt lat="48.39008" lon="15.56491">
        <ele>198.260897</ele>
        <time>2022-09-11T23:00:12.062Z</time>
      </trkpt>
      <trkpt lat="48.3898" lon="15.56436">
        <ele>197.947971</ele>
        <time>2022-09-11T23:00:22.745Z</time>
      </trkpt>
      <trkpt lat="48.38964" lon="15.56432">
        <ele>197.844869</ele>
        <time>2022-09-11T23:00:26.346Z</time>
      </trkpt>
      <trkpt lat="48.38952" lon="15.56403">
        <ele>197.826763</ele>
        <time>2022-09-11T23:00:31.706Z</time>
      </trkpt>
      <trkpt lat="48.38933" lon="15.56328">
        <ele>197.784673</ele>
        <time>2022-09-11T23:00:45.386Z</time>
      </trkpt>
      <trkpt lat="48.38933" lon="15.56326">
        <ele>197.783528</ele>
        <time>2022-09-11T23:00:45.744Z</time>
      </trkpt>
      <trkpt lat="48.38919" lon="15.56258">
        <ele>197.74641</ele>
        <time>2022-09-11T23:00:58.843Z</time>
      </trkpt>
      <trkpt lat="48.38903" lon="15.5622">
        <ele>197.722756</ele>
        <time>2022-09-11T23:01:07.182Z</time>
      </trkpt>
      <trkpt lat="48.38891" lon="15.56195">
        <ele>197.706403</ele>
        <time>2022-09-11T23:01:12.940Z</time>
      </trkpt>
      <trkpt lat="48.38856" lon="15.56129">
        <ele>198.011738</ele>
        <time>2022-09-11T23:01:29.189Z</time>
      </trkpt>
      <trkpt lat="48.38835" lon="15.56031">
        <ele>198.414725</ele>
        <time>2022-09-11T23:01:49.886Z</time>
      </trkpt>
      <trkpt lat="48.38802" lon="15.55953">
        <ele>198.774097</ele>
        <time>2022-09-11T23:02:08.609Z</time>
      </trkpt>
      <trkpt lat="48.38775" lon="15.55899">
        <ele>198.906016</ele>
        <time>2022-09-11T23:02:21.307Z</time>
      </trkpt>
      <trkpt lat="48.38757" lon="15.55863">
        <ele>198.995615</ele>
        <time>2022-09-11T23:02:29.770Z</time>
      </trkpt>
      <trkpt lat="48.38751" lon="15.55851">
        <ele>199.024823</ele>
        <time>2022-09-11T23:02:32.523Z</time>
      </trkpt>
      <trkpt lat="48.38748" lon="15.5584">
        <ele>199.04754</ele>
        <time>2022-09-11T23:02:34.637Z</time>
      </trkpt>
      <trkpt lat="48.38692" lon="15.556">
        <ele>199.710386</ele>
        <time>2022-09-11T23:03:20.852Z</time>
      </trkpt>
      <trkpt lat="48.38687" lon="15.55578">
        <ele>199.782508</ele>
        <time>2022-09-11T23:03:24.950Z</time>
      </trkpt>
      <trkpt lat="48.38677" lon="15.55533">
        <ele>199.937035</ele>
        <time>2022-09-11T23:03:34.154Z</time>
      </trkpt>
      <trkpt lat="48.38673" lon="15.55496">
        <ele>200.058015</ele>
        <time>2022-09-11T23:03:41.765Z</time>
      </trkpt>
      <trkpt lat="48.38677" lon="15.55472">
        <ele>200.139237</ele>
        <time>2022-09-11T23:03:46.995Z</time>
      </trkpt>
      <trkpt lat="48.38678" lon="15.55457">
        <ele>200.242587</ele>
        <time>2022-09-11T23:03:50.263Z</time>
      </trkpt>
      <trkpt lat="48.38677" lon="15.55446">
        <ele>200.44847</ele>
        <time>2022-09-11T23:03:52.759Z</time>
      </trkpt>
      <trkpt lat="48.38663" lon="15.5538">
        <ele>201.684303</ele>
        <time>2022-09-11T23:04:08.284Z</time>
      </trkpt>
      <trkpt lat="48.38668" lon="15.55376">
        <ele>201.833722</ele>
        <time>2022-09-11T23:04:10.206Z</time>
      </trkpt>
      <trkpt lat="48.38673" lon="15.55373">
        <ele>201.975983</ele>
        <time>2022-09-11T23:04:12.183Z</time>
      </trkpt>
      <trkpt lat="48.38559" lon="15.55">
        <ele>211.409655</ele>
        <time>2022-09-11T23:06:11.216Z</time>
      </trkpt>
      <trkpt lat="48.38532" lon="15.54928">
        <ele>214.024979</ele>
        <time>2022-09-11T23:06:41.820Z</time>
      </trkpt>
      <trkpt lat="48.38474" lon="15.54797">
        <ele>219.479503</ele>
        <time>2022-09-11T23:07:38.094Z</time>
      </trkpt>
      <trkpt lat="48.38452" lon="15.54738">
        <ele>221.757502</ele>
        <time>2022-09-11T23:08:00.659Z</time>
      </trkpt>
      <trkpt lat="48.38436" lon="15.54677">
        <ele>223.181327</ele>
        <time>2022-09-11T23:08:21.096Z</time>
      </trkpt>
      <trkpt lat="48.38401" lon="15.54501">
        <ele>227.132891</ele>
        <time>2022-09-11T23:09:09.318Z</time>
      </trkpt>
      <trkpt lat="48.38355" lon="15.54252">
        <ele>232.050436</ele>
        <time>2022-09-11T23:10:17.402Z</time>
      </trkpt>
      <trkpt lat="48.38321" lon="15.53932">
        <ele>239.318115</ele>
        <time>2022-09-11T23:11:51.312Z</time>
      </trkpt>
      <trkpt lat="48.38282" lon="15.53716">
        <ele>243.975076</ele>
        <time>2022-09-11T23:12:55.325Z</time>
      </trkpt>
      <trkpt lat="48.38254" lon="15.53518">
        <ele>247.147913</ele>
        <time>2022-09-11T23:13:41.320Z</time>
      </trkpt>
      <trkpt lat="48.38245" lon="15.5342">
        <ele>248.789449</ele>
        <time>2022-09-11T23:14:05.738Z</time>
      </trkpt>
      <trkpt lat="48.38238" lon="15.5298">
        <ele>260.298623</ele>
        <time>2022-09-11T23:16:37.707Z</time>
      </trkpt>
      <trkpt lat="48.3824" lon="15.52861">
        <ele>260.820733</ele>
        <time>2022-09-11T23:16:56.653Z</time>
      </trkpt>
      <trkpt lat="48.38264" lon="15.52629">
        <ele>251.393338</ele>
        <time>2022-09-11T23:17:23.401Z</time>
      </trkpt>
      <trkpt lat="48.38298" lon="15.524">
        <ele>236.879709</ele>
        <time>2022-09-11T23:17:49.051Z</time>
      </trkpt>
      <trkpt lat="48.38326" lon="15.52229">
        <ele>226.281532</ele>
        <time>2022-09-11T23:18:08.036Z</time>
      </trkpt>
      <trkpt lat="48.38356" lon="15.52135">
        <ele>220.128623</ele>
        <time>2022-09-11T23:18:19.624Z</time>
      </trkpt>
      <trkpt lat="48.38408" lon="15.5205">
        <ele>215.656875</ele>
        <time>2022-09-11T23:18:33.133Z</time>
      </trkpt>
      <trkpt lat="48.38471" lon="15.51986">
        <ele>212.248397</ele>
        <time>2022-09-11T23:18:47.436Z</time>
      </trkpt>
      <trkpt lat="48.38544" lon="15.51888">
        <ele>208.459555</ele>
        <time>2022-09-11T23:19:06.796Z</time>
      </trkpt>
      <trkpt lat="48.38555" lon="15.51886">
        <ele>208.092173</ele>
        <time>2022-09-11T23:19:09.249Z</time>
      </trkpt>
      <trkpt lat="48.38569" lon="15.51903">
        <ele>207.518011</ele>
        <time>2022-09-11T23:19:12.510Z</time>
      </trkpt>
      <trkpt lat="48.38585" lon="15.5193">
        <ele>206.711453</ele>
        <time>2022-09-11T23:19:17.402Z</time>
      </trkpt>
      <trkpt lat="48.38596" lon="15.51932">
        <ele>206.365197</ele>
        <time>2022-09-11T23:19:19.412Z</time>
      </trkpt>
      <trkpt lat="48.38761" lon="15.51821">
        <ele>201.415597</ele>
        <time>2022-09-11T23:19:54.449Z</time>
      </trkpt>
      <trkpt lat="48.38803" lon="15.51805">
        <ele>200.355575</ele>
        <time>2022-09-11T23:20:04.360Z</time>
      </trkpt>
      <trkpt lat="48.38903" lon="15.51743">
        <ele>199.249708</ele>
        <time>2022-09-11T23:20:29.940Z</time>
      </trkpt>
      <trkpt lat="48.3891" lon="15.51739">
        <ele>199.202823</ele>
        <time>2022-09-11T23:20:31.811Z</time>
      </trkpt>
      <trkpt lat="48.38957" lon="15.51708">
        <ele>198.886963</ele>
        <time>2022-09-11T23:20:44.534Z</time>
      </trkpt>
      <trkpt lat="48.3896" lon="15.51706">
        <ele>198.870267</ele>
        <time>2022-09-11T23:20:45.203Z</time>
      </trkpt>
      <trkpt lat="48.38998" lon="15.5168">
        <ele>198.650009</ele>
        <time>2022-09-11T23:20:55.804Z</time>
      </trkpt>
      <trkpt lat="48.39116" lon="15.51593">
        <ele>198.49203</ele>
        <time>2022-09-11T23:21:30.157Z</time>
      </trkpt>
      <trkpt lat="48.39173" lon="15.5155">
        <ele>198.497792</ele>
        <time>2022-09-11T23:21:47.262Z</time>
      </trkpt>
      <trkpt lat="48.39166" lon="15.51528">
        <ele>198.536484</ele>
        <time>2022-09-11T23:21:52.047Z</time>
      </trkpt>
      <trkpt lat="48.39213" lon="15.51485">
        <ele>198.666709</ele>
        <time>2022-09-11T23:22:06.649Z</time>
      </trkpt>
      <trkpt lat="48.3924" lon="15.51452">
        <ele>198.748053</ele>
        <time>2022-09-11T23:22:16.054Z</time>
      </trkpt>
      <trkpt lat="48.39439" lon="15.51297">
        <ele>200.04413</ele>
        <time>2022-09-11T23:23:22.997Z</time>
      </trkpt>
      <trkpt lat="48.39495" lon="15.51235">
        <ele>200.437451</ele>
        <time>2022-09-11T23:23:44.272Z</time>
      </trkpt>
      <trkpt lat="48.39568" lon="15.51131">
        <ele>200.99348</ele>
        <time>2022-09-11T23:24:14.090Z</time>
      </trkpt>
      <trkpt lat="48.39737" lon="15.50868">
        <ele>200.714429</ele>
        <time>2022-09-11T23:25:18.169Z</time>
      </trkpt>
      <trkpt lat="48.3979" lon="15.50814">
        <ele>200.327864</ele>
        <time>2022-09-11T23:25:33.244Z</time>
      </trkpt>
      <trkpt lat="48.39899" lon="15.50773">
        <ele>199.68597</ele>
        <time>2022-09-11T23:25:59.665Z</time>
      </trkpt>
      <trkpt lat="48.39914" lon="15.50759">
        <ele>199.595565</ele>
        <time>2022-09-11T23:26:03.962Z</time>
      </trkpt>
      <trkpt lat="48.39927" lon="15.5073">
        <ele>199.475986</ele>
        <time>2022-09-11T23:26:09.531Z</time>
      </trkpt>
      <trkpt lat="48.39979" lon="15.50619">
        <ele>199.014522</ele>
        <time>2022-09-11T23:26:32.060Z</time>
      </trkpt>
      <trkpt lat="48.40041" lon="15.5051">
        <ele>199.248157</ele>
        <time>2022-09-11T23:26:57.220Z</time>
      </trkpt>
      <trkpt lat="48.40064" lon="15.50447">
        <ele>199.387886</ele>
        <time>2022-09-11T23:27:10.879Z</time>
      </trkpt>
      <trkpt lat="48.40107" lon="15.50354">
        <ele>200.099575</ele>
        <time>2022-09-11T23:27:33.639Z</time>
      </trkpt>
      <trkpt lat="48.40151" lon="15.50201">
        <ele>202.057463</ele>
        <time>2022-09-11T23:28:15.679Z</time>
      </trkpt>
      <trkpt lat="48.40158" lon="15.50143">
        <ele>202.704697</ele>
        <time>2022-09-11T23:28:29.228Z</time>
      </trkpt>
      <trkpt lat="48.40166" lon="15.50121">
        <ele>202.807787</ele>
        <time>2022-09-11T23:28:35.463Z</time>
      </trkpt>
      <trkpt lat="48.40178" lon="15.50012">
        <ele>203.254517</ele>
        <time>2022-09-11T23:28:58.966Z</time>
      </trkpt>
      <trkpt lat="48.40188" lon="15.49997">
        <ele>203.343246</ele>
        <time>2022-09-11T23:29:02.800Z</time>
      </trkpt>
      <trkpt lat="48.40235" lon="15.49975">
        <ele>203.642964</ele>
        <time>2022-09-11T23:29:17.249Z</time>
      </trkpt>
      <trkpt lat="48.40225" lon="15.49818">
        <ele>202.841886</ele>
        <time>2022-09-11T23:29:40.834Z</time>
      </trkpt>
      <trkpt lat="48.40235" lon="15.49712">
        <ele>202.019799</ele>
        <time>2022-09-11T23:29:56.375Z</time>
      </trkpt>
      <trkpt lat="48.40233" lon="15.49676">
        <ele>201.744184</ele>
        <time>2022-09-11T23:30:01.803Z</time>
      </trkpt>
      <trkpt lat="48.4018" lon="15.49481">
        <ele>200.685124</ele>
        <time>2022-09-11T23:30:34.796Z</time>
      </trkpt>
      <trkpt lat="48.4015" lon="15.49348">
        <ele>200.402431</ele>
        <time>2022-09-11T23:30:58.149Z</time>
      </trkpt>
      <trkpt lat="48.40114" lon="15.49239">
        <ele>200.474661</ele>
        <time>2022-09-11T23:31:20.274Z</time>
      </trkpt>
      <trkpt lat="48.40087" lon="15.49134">
        <ele>200.705975</ele>
        <time>2022-09-11T23:31:42.378Z</time>
      </trkpt>
      <trkpt lat="48.40082" lon="15.48956">
        <ele>201.577411</ele>
        <time>2022-09-11T23:32:18.782Z</time>
      </trkpt>
      <trkpt lat="48.40089" lon="15.48939">
        <ele>201.6699</ele>
        <time>2022-09-11T23:32:22.739Z</time>
      </trkpt>
      <trkpt lat="48.4009" lon="15.48905">
        <ele>201.836623</ele>
        <time>2022-09-11T23:32:29.345Z</time>
      </trkpt>
      <trkpt lat="48.40078" lon="15.48855">
        <ele>201.964046</ele>
        <time>2022-09-11T23:32:39.785Z</time>
      </trkpt>
      <trkpt lat="48.40071" lon="15.48841">
        <ele>202.005549</ele>
        <time>2022-09-11T23:32:43.324Z</time>
      </trkpt>
      <trkpt lat="48.40068" lon="15.48838">
        <ele>202.017202</ele>
        <time>2022-09-11T23:32:44.310Z</time>
      </trkpt>
      <trkpt lat="48.4001" lon="15.48696">
        <ele>202.405457</ele>
        <time>2022-09-11T23:33:15.048Z</time>
      </trkpt>
      <trkpt lat="48.40042" lon="15.4866">
        <ele>202.480297</ele>
        <time>2022-09-11T23:33:25.789Z</time>
      </trkpt>
      <trkpt lat="48.40049" lon="15.48647">
        <ele>202.483436</ele>
        <time>2022-09-11T23:33:28.885Z</time>
      </trkpt>
      <trkpt lat="48.4005" lon="15.48636">
        <ele>202.485628</ele>
        <time>2022-09-11T23:33:30.913Z</time>
      </trkpt>
      <trkpt lat="48.4" lon="15.48585">
        <ele>202.502618</ele>
        <time>2022-09-11T23:33:47.429Z</time>
      </trkpt>
      <trkpt lat="48.39949" lon="15.48506">
        <ele>202.522992</ele>
        <time>2022-09-11T23:34:06.748Z</time>
      </trkpt>
      <trkpt lat="48.39946" lon="15.48501">
        <ele>202.524151</ele>
        <time>2022-09-11T23:34:07.806Z</time>
      </trkpt>
      <trkpt lat="48.39934" lon="15.48483">
        <ele>202.543156</ele>
        <time>2022-09-11T23:34:12.328Z</time>
      </trkpt>
      <trkpt lat="48.39901" lon="15.48447">
        <ele>202.593977</ele>
        <time>2022-09-11T23:34:22.943Z</time>
      </trkpt>
      <trkpt lat="48.39895" lon="15.4844">
        <ele>202.603997</ele>
        <time>2022-09-11T23:34:25.048Z</time>
      </trkpt>
      <trkpt lat="48.39863" lon="15.48416">
        <ele>202.648608</ele>
        <time>2022-09-11T23:34:34.756Z</time>
      </trkpt>
      <trkpt lat="48.39862" lon="15.48389">
        <ele>202.671946</ele>
        <time>2022-09-11T23:34:39.841Z</time>
      </trkpt>
      <trkpt lat="48.39808" lon="15.4834">
        <ele>202.750664</ele>
        <time>2022-09-11T23:34:57.281Z</time>
      </trkpt>
      <trkpt lat="48.39707" lon="15.48232">
        <ele>203.302289</ele>
        <time>2022-09-11T23:35:32.829Z</time>
      </trkpt>
      <trkpt lat="48.39652" lon="15.48205">
        <ele>203.563522</ele>
        <time>2022-09-11T23:35:50.175Z</time>
      </trkpt>
      <trkpt lat="48.39627" lon="15.48186">
        <ele>203.676067</ele>
        <time>2022-09-11T23:35:58.349Z</time>
      </trkpt>
      <trkpt lat="48.39532" lon="15.48067">
        <ele>204.179334</ele>
        <time>2022-09-11T23:36:33.130Z</time>
      </trkpt>
      <trkpt lat="48.39503" lon="15.48023">
        <ele>204.467519</ele>
        <time>2022-09-11T23:36:44.823Z</time>
      </trkpt>
      <trkpt lat="48.39466" lon="15.47928">
        <ele>205.391173</ele>
        <time>2022-09-11T23:37:06.757Z</time>
      </trkpt>
      <trkpt lat="48.39453" lon="15.47862">
        <ele>205.966251</ele>
        <time>2022-09-11T23:37:21.595Z</time>
      </trkpt>
      <trkpt lat="48.39451" lon="15.47831">
        <ele>206.230591</ele>
        <time>2022-09-11T23:37:28.753Z</time>
      </trkpt>
      <trkpt lat="48.39383" lon="15.47702">
        <ele>210.246122</ele>
        <time>2022-09-11T23:38:12.244Z</time>
      </trkpt>
      <trkpt lat="48.39369" lon="15.47655">
        <ele>211.769867</ele>
        <time>2022-09-11T23:38:30.055Z</time>
      </trkpt>
      <trkpt lat="48.39304" lon="15.47556">
        <ele>216.672262</ele>
        <time>2022-09-11T23:39:21.992Z</time>
      </trkpt>
      <trkpt lat="48.39301" lon="15.47539">
        <ele>217.485294</ele>
        <time>2022-09-11T23:39:29.891Z</time>
      </trkpt>
      <trkpt lat="48.39298" lon="15.47527">
        <ele>218.061505</ele>
        <time>2022-09-11T23:39:36.393Z</time>
      </trkpt>
      <trkpt lat="48.39229" lon="15.47452">
        <ele>224.039948</ele>
        <time>2022-09-11T23:40:29.758Z</time>
      </trkpt>
      <trkpt lat="48.39149" lon="15.47339">
        <ele>229.200299</ele>
        <time>2022-09-11T23:41:33.747Z</time>
      </trkpt>
      <trkpt lat="48.38908" lon="15.47076">
        <ele>234.168703</ele>
        <time>2022-09-11T23:43:07.305Z</time>
      </trkpt>
      <trkpt lat="48.38856" lon="15.47006">
        <ele>234.154216</ele>
        <time>2022-09-11T23:43:23.874Z</time>
      </trkpt>
      <trkpt lat="48.38841" lon="15.46987">
        <ele>234.150322</ele>
        <time>2022-09-11T23:43:27.893Z</time>
      </trkpt>
      <trkpt lat="48.38828" lon="15.46997">
        <ele>234.147372</ele>
        <time>2022-09-11T23:43:32.833Z</time>
      </trkpt>
      <trkpt lat="48.386" lon="15.46805">
        <ele>234.464198</ele>
        <time>2022-09-11T23:44:48.352Z</time>
      </trkpt>
      <trkpt lat="48.38563" lon="15.46773">
        <ele>233.792774</ele>
        <time>2022-09-11T23:44:57.823Z</time>
      </trkpt>
      <trkpt lat="48.3849" lon="15.46694">
        <ele>232.383955</ele>
        <time>2022-09-11T23:45:16.805Z</time>
      </trkpt>
      <trkpt lat="48.38416" lon="15.46608">
        <ele>231.989809</ele>
        <time>2022-09-11T23:45:36.000Z</time>
      </trkpt>
      <trkpt lat="48.38353" lon="15.46515">
        <ele>232.350129</ele>
        <time>2022-09-11T23:46:03.543Z</time>
      </trkpt>
      <trkpt lat="48.38347" lon="15.46506">
        <ele>232.38587</ele>
        <time>2022-09-11T23:46:07.315Z</time>
      </trkpt>
      <trkpt lat="48.38276" lon="15.46392">
        <ele>234.512423</ele>
        <time>2022-09-11T23:46:49.835Z</time>
      </trkpt>
      <trkpt lat="48.38149" lon="15.46191">
        <ele>235.800727</ele>
        <time>2022-09-11T23:48:01.838Z</time>
      </trkpt>
      <trkpt lat="48.38006" lon="15.46007">
        <ele>231.049443</ele>
        <time>2022-09-11T23:48:35.472Z</time>
      </trkpt>
      <trkpt lat="48.37963" lon="15.45953">
        <ele>229.223061</ele>
        <time>2022-09-11T23:48:46.120Z</time>
      </trkpt>
      <trkpt lat="48.37944" lon="15.45929">
        <ele>228.434409</ele>
        <time>2022-09-11T23:48:52.143Z</time>
      </trkpt>
      <trkpt lat="48.37867" lon="15.45827">
        <ele>232.94836</ele>
        <time>2022-09-11T23:49:34.937Z</time>
      </trkpt>
      <trkpt lat="48.37703" lon="15.45596">
        <ele>248.442917</ele>
        <time>2022-09-11T23:52:08.497Z</time>
      </trkpt>
      <trkpt lat="48.37471" lon="15.45388">
        <ele>260.815671</ele>
        <time>2022-09-11T23:54:37.472Z</time>
      </trkpt>
      <trkpt lat="48.37346" lon="15.4523">
        <ele>253.6813</ele>
        <time>2022-09-11T23:55:06.350Z</time>
      </trkpt>
      <trkpt lat="48.37341" lon="15.45223">
        <ele>252.981481</ele>
        <time>2022-09-11T23:55:07.327Z</time>
      </trkpt>
      <trkpt lat="48.37233" lon="15.4505">
        <ele>235.758072</ele>
        <time>2022-09-11T23:55:32.317Z</time>
      </trkpt>
      <trkpt lat="48.3723" lon="15.45044">
        <ele>235.304979</ele>
        <time>2022-09-11T23:55:33.176Z</time>
      </trkpt>
      <trkpt lat="48.3718" lon="15.44957">
        <ele>228.818948</ele>
        <time>2022-09-11T23:55:45.605Z</time>
      </trkpt>
      <trkpt lat="48.37132" lon="15.44886">
        <ele>223.094903</ele>
        <time>2022-09-11T23:55:57.303Z</time>
      </trkpt>
      <trkpt lat="48.37079" lon="15.44778">
        <ele>218.021659</ele>
        <time>2022-09-11T23:56:13.836Z</time>
      </trkpt>
      <trkpt lat="48.37047" lon="15.4468">
        <ele>214.405267</ele>
        <time>2022-09-11T23:56:26.816Z</time>
      </trkpt>
      <trkpt lat="48.37001" lon="15.44455">
        <ele>207.633752</ele>
        <time>2022-09-11T23:56:55.313Z</time>
      </trkpt>
      <trkpt lat="48.36993" lon="15.44412">
        <ele>206.398156</ele>
        <time>2022-09-11T23:57:01.056Z</time>
      </trkpt>
      <trkpt lat="48.36972" lon="15.44372">
        <ele>205.148378</ele>
        <time>2022-09-11T23:57:07.817Z</time>
      </trkpt>
      <trkpt lat="48.36949" lon="15.44302">
        <ele>204.679951</ele>
        <time>2022-09-11T23:57:18.823Z</time>
      </trkpt>
      <trkpt lat="48.36905" lon="15.44218">
        <ele>204.03607</ele>
        <time>2022-09-11T23:57:35.957Z</time>
      </trkpt>
      <trkpt lat="48.36844" lon="15.44088">
        <ele>204.101406</ele>
        <time>2022-09-11T23:58:06.654Z</time>
      </trkpt>
      <trkpt lat="48.36761" lon="15.43838">
        <ele>205.809944</ele>
        <time>2022-09-11T23:59:07.460Z</time>
      </trkpt>
      <trkpt lat="48.36699" lon="15.43644">
        <ele>206.684972</ele>
        <time>2022-09-11T23:59:49.777Z</time>
      </trkpt>
      <trkpt lat="48.36677" lon="15.43524">
        <ele>206.458148</ele>
        <time>2022-09-12T00:00:11.117Z</time>
      </trkpt>
      <trkpt lat="48.36667" lon="15.43479">
        <ele>206.371244</ele>
        <time>2022-09-12T00:00:18.857Z</time>
      </trkpt>
      <trkpt lat="48.36662" lon="15.43446">
        <ele>206.310035</ele>
        <time>2022-09-12T00:00:24.184Z</time>
      </trkpt>
      <trkpt lat="48.36637" lon="15.43383">
        <ele>206.069145</ele>
        <time>2022-09-12T00:00:35.630Z</time>
      </trkpt>
      <trkpt lat="48.36634" lon="15.43375">
        <ele>206.028682</ele>
        <time>2022-09-12T00:00:37.107Z</time>
      </trkpt>
      <trkpt lat="48.36596" lon="15.43271">
        <ele>205.512612</ele>
        <time>2022-09-12T00:00:55.626Z</time>
      </trkpt>
      <trkpt lat="48.36567" lon="15.43152">
        <ele>205.154549</ele>
        <time>2022-09-12T00:01:16.058Z</time>
      </trkpt>
      <trkpt lat="48.36489" lon="15.42888">
        <ele>206.332416</ele>
        <time>2022-09-12T00:02:12.612Z</time>
      </trkpt>
      <trkpt lat="48.36491" lon="15.42857">
        <ele>206.661049</ele>
        <time>2022-09-12T00:02:19.918Z</time>
      </trkpt>
      <trkpt lat="48.36486" lon="15.42812">
        <ele>207.139184</ele>
        <time>2022-09-12T00:02:30.512Z</time>
      </trkpt>
      <trkpt lat="48.36453" lon="15.42743">
        <ele>208.044487</ele>
        <time>2022-09-12T00:02:51.435Z</time>
      </trkpt>
      <trkpt lat="48.36405" lon="15.42657">
        <ele>208.901596</ele>
        <time>2022-09-12T00:03:17.848Z</time>
      </trkpt>
      <trkpt lat="48.36351" lon="15.42599">
        <ele>209.272504</ele>
        <time>2022-09-12T00:03:39.521Z</time>
      </trkpt>
      <trkpt lat="48.36181" lon="15.42266">
        <ele>208.594944</ele>
        <time>2022-09-12T00:04:47.713Z</time>
      </trkpt>
      <trkpt lat="48.3612" lon="15.42161">
        <ele>208.096856</ele>
        <time>2022-09-12T00:05:10.069Z</time>
      </trkpt>
      <trkpt lat="48.36065" lon="15.4205">
        <ele>207.655715</ele>
        <time>2022-09-12T00:05:33.009Z</time>
      </trkpt>
      <trkpt lat="48.35908" lon="15.41797">
        <ele>206.999103</ele>
        <time>2022-09-12T00:06:31.764Z</time>
      </trkpt>
      <trkpt lat="48.35836" lon="15.41691">
        <ele>206.734157</ele>
        <time>2022-09-12T00:06:57.555Z</time>
      </trkpt>
      <trkpt lat="48.35718" lon="15.41505">
        <ele>206.019779</ele>
        <time>2022-09-12T00:07:39.837Z</time>
      </trkpt>
      <trkpt lat="48.3564" lon="15.41401">
        <ele>205.7607</ele>
        <time>2022-09-12T00:08:05.982Z</time>
      </trkpt>
      <trkpt lat="48.35562" lon="15.41315">
        <ele>205.556937</ele>
        <time>2022-09-12T00:08:31.615Z</time>
      </trkpt>
      <trkpt lat="48.35473" lon="15.41222">
        <ele>205.420097</ele>
        <time>2022-09-12T00:09:00.243Z</time>
      </trkpt>
      <trkpt lat="48.35433" lon="15.4118">
        <ele>205.359849</ele>
        <time>2022-09-12T00:09:12.917Z</time>
      </trkpt>
      <trkpt lat="48.35427" lon="15.41176">
        <ele>205.351155</ele>
        <time>2022-09-12T00:09:14.749Z</time>
      </trkpt>
      <trkpt lat="48.35421" lon="15.41167">
        <ele>205.34032</ele>
        <time>2022-09-12T00:09:16.943Z</time>
      </trkpt>
      <trkpt lat="48.35386" lon="15.41133">
        <ele>205.181915</ele>
        <time>2022-09-12T00:09:27.849Z</time>
      </trkpt>
      <trkpt lat="48.35357" lon="15.41115">
        <ele>205.061305</ele>
        <time>2022-09-12T00:09:35.491Z</time>
      </trkpt>
      <trkpt lat="48.35307" lon="15.41103">
        <ele>204.8629</ele>
        <time>2022-09-12T00:09:47.764Z</time>
      </trkpt>
      <trkpt lat="48.35258" lon="15.411">
        <ele>204.670246</ele>
        <time>2022-09-12T00:09:59.615Z</time>
      </trkpt>
      <trkpt lat="48.35187" lon="15.41083">
        <ele>204.428424</ele>
        <time>2022-09-12T00:10:18.162Z</time>
      </trkpt>
      <trkpt lat="48.35121" lon="15.41064">
        <ele>204.20909</ele>
        <time>2022-09-12T00:10:35.235Z</time>
      </trkpt>
      <trkpt lat="48.35058" lon="15.41053">
        <ele>204.05682</ele>
        <time>2022-09-12T00:10:51.174Z</time>
      </trkpt>
      <trkpt lat="48.34939" lon="15.41024">
        <ele>204.151342</ele>
        <time>2022-09-12T00:11:23.583Z</time>
      </trkpt>
      <trkpt lat="48.34752" lon="15.40992">
        <ele>204.597083</ele>
        <time>2022-09-12T00:12:17.049Z</time>
      </trkpt>
      <trkpt lat="48.34488" lon="15.40969">
        <ele>204.893476</ele>
        <time>2022-09-12T00:13:28.506Z</time>
      </trkpt>
      <trkpt lat="48.34437" lon="15.40973">
        <ele>204.929525</ele>
        <time>2022-09-12T00:13:42.175Z</time>
      </trkpt>
      <trkpt lat="48.34393" lon="15.40963">
        <ele>204.961239</ele>
        <time>2022-09-12T00:13:54.483Z</time>
      </trkpt>
      <trkpt lat="48.34366" lon="15.40964">
        <ele>204.979732</ele>
        <time>2022-09-12T00:14:01.550Z</time>
      </trkpt>
      <trkpt lat="48.34295" lon="15.40972">
        <ele>205.08816</ele>
        <time>2022-09-12T00:14:20.965Z</time>
      </trkpt>
      <trkpt lat="48.34238" lon="15.40963">
        <ele>205.184239</ele>
        <time>2022-09-12T00:14:36.645Z</time>
      </trkpt>
      <trkpt lat="48.341" lon="15.40956">
        <ele>205.890679</ele>
        <time>2022-09-12T00:15:15.117Z</time>
      </trkpt>
      <trkpt lat="48.33752" lon="15.40902">
        <ele>211.568133</ele>
        <time>2022-09-12T00:17:08.330Z</time>
      </trkpt>
      <trkpt lat="48.33748" lon="15.40902">
        <ele>211.746997</ele>
        <time>2022-09-12T00:17:10.492Z</time>
      </trkpt>
      <trkpt lat="48.33624" lon="15.40949">
        <ele>216.831781</ele>
        <time>2022-09-12T00:18:20.910Z</time>
      </trkpt>
      <trkpt lat="48.33528" lon="15.40965">
        <ele>220.204581</ele>
        <time>2022-09-12T00:19:10.404Z</time>
      </trkpt>
      <trkpt lat="48.33337" lon="15.40972">
        <ele>222.507674</ele>
        <time>2022-09-12T00:20:05.246Z</time>
      </trkpt>
      <trkpt lat="48.33291" lon="15.40992">
        <ele>222.513066</ele>
        <time>2022-09-12T00:20:15.751Z</time>
      </trkpt>
      <trkpt lat="48.33196" lon="15.41021">
        <ele>222.533456</ele>
        <time>2022-09-12T00:20:40.057Z</time>
      </trkpt>
      <trkpt lat="48.33136" lon="15.41028">
        <ele>222.546301</ele>
        <time>2022-09-12T00:20:57.196Z</time>
      </trkpt>
      <trkpt lat="48.33096" lon="15.41042">
        <ele>222.627556</ele>
        <time>2022-09-12T00:21:10.295Z</time>
      </trkpt>
      <trkpt lat="48.32908" lon="15.41078">
        <ele>223.696376</ele>
        <time>2022-09-12T00:22:05.742Z</time>
      </trkpt>
      <trkpt lat="48.32827" lon="15.41109">
        <ele>224.096651</ele>
        <time>2022-09-12T00:22:30.400Z</time>
      </trkpt>
      <trkpt lat="48.32653" lon="15.41159">
        <ele>223.929389</ele>
        <time>2022-09-12T00:23:20.454Z</time>
      </trkpt>
      <trkpt lat="48.32615" lon="15.41178">
        <ele>223.729694</ele>
        <time>2022-09-12T00:23:29.126Z</time>
      </trkpt>
      <trkpt lat="48.32508" lon="15.41213">
        <ele>223.045248</ele>
        <time>2022-09-12T00:23:53.190Z</time>
      </trkpt>
      <trkpt lat="48.3248" lon="15.41204">
        <ele>222.852027</ele>
        <time>2022-09-12T00:23:59.773Z</time>
      </trkpt>
      <trkpt lat="48.32445" lon="15.41211">
        <ele>222.610916</ele>
        <time>2022-09-12T00:24:08.569Z</time>
      </trkpt>
      <trkpt lat="48.32356" lon="15.41243">
        <ele>222.91826</ele>
        <time>2022-09-12T00:24:35.005Z</time>
      </trkpt>
      <trkpt lat="48.32299" lon="15.41252">
        <ele>223.633146</ele>
        <time>2022-09-12T00:24:54.661Z</time>
      </trkpt>
      <trkpt lat="48.32248" lon="15.41268">
        <ele>224.282811</ele>
        <time>2022-09-12T00:25:14.482Z</time>
      </trkpt>
      <trkpt lat="48.32155" lon="15.41281">
        <ele>224.730683</ele>
        <time>2022-09-12T00:25:42.587Z</time>
      </trkpt>
      <trkpt lat="48.31883" lon="15.41357">
        <ele>224.13049</ele>
        <time>2022-09-12T00:26:53.351Z</time>
      </trkpt>
      <trkpt lat="48.31781" lon="15.41364">
        <ele>221.930324</ele>
        <time>2022-09-12T00:27:15.474Z</time>
      </trkpt>
      <trkpt lat="48.31664" lon="15.4136">
        <ele>218.908462</ele>
        <time>2022-09-12T00:27:38.185Z</time>
      </trkpt>
      <trkpt lat="48.31573" lon="15.41357">
        <ele>215.871954</ele>
        <time>2022-09-12T00:27:55.403Z</time>
      </trkpt>
      <trkpt lat="48.31255" lon="15.41273">
        <ele>208.203527</ele>
        <time>2022-09-12T00:29:00.888Z</time>
      </trkpt>
      <trkpt lat="48.31235" lon="15.41273">
        <ele>207.973543</ele>
        <time>2022-09-12T00:29:05.595Z</time>
      </trkpt>
      <trkpt lat="48.31215" lon="15.41269">
        <ele>207.747118</ele>
        <time>2022-09-12T00:29:11.304Z</time>
      </trkpt>
      <trkpt lat="48.31205" lon="15.41291">
        <ele>207.549498</ele>
        <time>2022-09-12T00:29:15.651Z</time>
      </trkpt>
      <trkpt lat="48.31195" lon="15.41307">
        <ele>207.380093</ele>
        <time>2022-09-12T00:29:20.544Z</time>
      </trkpt>
      <trkpt lat="48.31151" lon="15.4133">
        <ele>207.158717</ele>
        <time>2022-09-12T00:29:33.505Z</time>
      </trkpt>
      <trkpt lat="48.31093" lon="15.41341">
        <ele>207.343828</ele>
        <time>2022-09-12T00:29:51.001Z</time>
      </trkpt>
      <trkpt lat="48.31055" lon="15.41332">
        <ele>207.463872</ele>
        <time>2022-09-12T00:30:02.606Z</time>
      </trkpt>
      <trkpt lat="48.30995" lon="15.41286">
        <ele>207.647825</ele>
        <time>2022-09-12T00:30:20.205Z</time>
      </trkpt>
      <trkpt lat="48.30965" lon="15.41252">
        <ele>207.571039</ele>
        <time>2022-09-12T00:30:29.793Z</time>
      </trkpt>
      <trkpt lat="48.30915" lon="15.4121">
        <ele>207.453675</ele>
        <time>2022-09-12T00:30:44.183Z</time>
      </trkpt>
      <trkpt lat="48.30865" lon="15.41195">
        <ele>207.347689</ele>
        <time>2022-09-12T00:30:57.202Z</time>
      </trkpt>
      <trkpt lat="48.30616" lon="15.4117">
        <ele>207.172805</ele>
        <time>2022-09-12T00:32:03.246Z</time>
      </trkpt>
      <trkpt lat="48.30496" lon="15.41158">
        <ele>207.301854</ele>
        <time>2022-09-12T00:32:34.168Z</time>
      </trkpt>
      <trkpt lat="48.30164" lon="15.41073">
        <ele>212.362652</ele>
        <time>2022-09-12T00:34:23.967Z</time>
      </trkpt>
      <trkpt lat="48.30084" lon="15.41042">
        <ele>215.693007</ele>
        <time>2022-09-12T00:35:04.487Z</time>
      </trkpt>
      <trkpt lat="48.29992" lon="15.40995">
        <ele>221.360591</ele>
        <time>2022-09-12T00:35:58.841Z</time>
      </trkpt>
      <trkpt lat="48.29863" lon="15.40957">
        <ele>228.922069</ele>
        <time>2022-09-12T00:37:18.340Z</time>
      </trkpt>
      <trkpt lat="48.29803" lon="15.40931">
        <ele>232.45586</ele>
        <time>2022-09-12T00:37:52.291Z</time>
      </trkpt>
      <trkpt lat="48.29709" lon="15.4087">
        <ele>234.090822</ele>
        <time>2022-09-12T00:38:32.151Z</time>
      </trkpt>
      <trkpt lat="48.29601" lon="15.40811">
        <ele>233.62141</ele>
        <time>2022-09-12T00:38:57.602Z</time>
      </trkpt>
      <trkpt lat="48.29546" lon="15.40797">
        <ele>230.561097</ele>
        <time>2022-09-12T00:39:07.897Z</time>
      </trkpt>
      <trkpt lat="48.29446" lon="15.40784">
        <ele>225.045614</ele>
        <time>2022-09-12T00:39:25.278Z</time>
      </trkpt>
      <trkpt lat="48.29377" lon="15.40752">
        <ele>221.033724</ele>
        <time>2022-09-12T00:39:37.661Z</time>
      </trkpt>
      <trkpt lat="48.29346" lon="15.40743">
        <ele>219.286346</ele>
        <time>2022-09-12T00:39:43.070Z</time>
      </trkpt>
      <trkpt lat="48.29317" lon="15.4074">
        <ele>217.697743</ele>
        <time>2022-09-12T00:39:48.103Z</time>
      </trkpt>
      <trkpt lat="48.2928" lon="15.40747">
        <ele>215.601876</ele>
        <time>2022-09-12T00:39:54.867Z</time>
      </trkpt>
      <trkpt lat="48.29231" lon="15.40748">
        <ele>214.998362</ele>
        <time>2022-09-12T00:40:04.620Z</time>
      </trkpt>
      <trkpt lat="48.29201" lon="15.40737">
        <ele>215.810765</ele>
        <time>2022-09-12T00:40:12.433Z</time>
      </trkpt>
      <trkpt lat="48.29181" lon="15.40723">
        <ele>216.383111</ele>
        <time>2022-09-12T00:40:21.355Z</time>
      </trkpt>
      <trkpt lat="48.29137" lon="15.40696">
        <ele>217.645467</ele>
        <time>2022-09-12T00:40:45.031Z</time>
      </trkpt>
      <trkpt lat="48.29093" lon="15.4067">
        <ele>218.89113</ele>
        <time>2022-09-12T00:41:11.645Z</time>
      </trkpt>
      <trkpt lat="48.29014" lon="15.4066">
        <ele>222.205542</ele>
        <time>2022-09-12T00:41:57.092Z</time>
      </trkpt>
      <trkpt lat="48.28856" lon="15.40644">
        <ele>225.824807</ele>
        <time>2022-09-12T00:43:03.636Z</time>
      </trkpt>
      <trkpt lat="48.28838" lon="15.40637">
        <ele>225.462356</ele>
        <time>2022-09-12T00:43:08.299Z</time>
      </trkpt>
      <trkpt lat="48.2883" lon="15.4063">
        <ele>225.288105</ele>
        <time>2022-09-12T00:43:10.019Z</time>
      </trkpt>
      <trkpt lat="48.28785" lon="15.40622">
        <ele>224.383029</ele>
        <time>2022-09-12T00:43:18.427Z</time>
      </trkpt>
      <trkpt lat="48.287" lon="15.40588">
        <ele>221.659135</ele>
        <time>2022-09-12T00:43:34.245Z</time>
      </trkpt>
      <trkpt lat="48.28689" lon="15.40576">
        <ele>220.987078</ele>
        <time>2022-09-12T00:43:36.648Z</time>
      </trkpt>
      <trkpt lat="48.2867" lon="15.40547">
        <ele>219.648228</ele>
        <time>2022-09-12T00:43:41.512Z</time>
      </trkpt>
      <trkpt lat="48.28652" lon="15.40523">
        <ele>218.422295</ele>
        <time>2022-09-12T00:43:46.071Z</time>
      </trkpt>
      <trkpt lat="48.28568" lon="15.40441">
        <ele>213.880537</ele>
        <time>2022-09-12T00:44:03.805Z</time>
      </trkpt>
      <trkpt lat="48.28445" lon="15.40359">
        <ele>210.279474</ele>
        <time>2022-09-12T00:44:31.848Z</time>
      </trkpt>
      <trkpt lat="48.28284" lon="15.40238">
        <ele>207.384887</ele>
        <time>2022-09-12T00:45:11.240Z</time>
      </trkpt>
      <trkpt lat="48.28239" lon="15.40212">
        <ele>206.956433</ele>
        <time>2022-09-12T00:45:22.612Z</time>
      </trkpt>
      <trkpt lat="48.28186" lon="15.40168">
        <ele>206.838418</ele>
        <time>2022-09-12T00:45:37.603Z</time>
      </trkpt>
      <trkpt lat="48.28129" lon="15.40102">
        <ele>206.6987</ele>
        <time>2022-09-12T00:45:56.966Z</time>
      </trkpt>
      <trkpt lat="48.27953" lon="15.39866">
        <ele>207.726489</ele>
        <time>2022-09-12T00:47:05.052Z</time>
      </trkpt>
      <trkpt lat="48.27793" lon="15.39624">
        <ele>211.385319</ele>
        <time>2022-09-12T00:48:17.560Z</time>
      </trkpt>
      <trkpt lat="48.27756" lon="15.39586">
        <ele>212.667994</ele>
        <time>2022-09-12T00:48:35.556Z</time>
      </trkpt>
      <trkpt lat="48.27689" lon="15.39495">
        <ele>216.618116</ele>
        <time>2022-09-12T00:49:19.987Z</time>
      </trkpt>
      <trkpt lat="48.27505" lon="15.39275">
        <ele>233.74435</ele>
        <time>2022-09-12T00:51:51.011Z</time>
      </trkpt>
      <trkpt lat="48.27472" lon="15.39222">
        <ele>237.390709</ele>
        <time>2022-09-12T00:52:22.784Z</time>
      </trkpt>
      <trkpt lat="48.27418" lon="15.39151">
        <ele>242.275661</ele>
        <time>2022-09-12T00:53:06.980Z</time>
      </trkpt>
      <trkpt lat="48.2741" lon="15.39149">
        <ele>242.691742</ele>
        <time>2022-09-12T00:53:10.101Z</time>
      </trkpt>
      <trkpt lat="48.274" lon="15.3916">
        <ele>243.344662</ele>
        <time>2022-09-12T00:53:20.522Z</time>
      </trkpt>
      <trkpt lat="48.27393" lon="15.39159">
        <ele>243.700736</ele>
        <time>2022-09-12T00:53:23.025Z</time>
      </trkpt>
      <trkpt lat="48.27375" lon="15.39131">
        <ele>245.047086</ele>
        <time>2022-09-12T00:53:35.509Z</time>
      </trkpt>
      <trkpt lat="48.27318" lon="15.39005">
        <ele>250.300237</ele>
        <time>2022-09-12T00:54:23.943Z</time>
      </trkpt>
      <trkpt lat="48.27282" lon="15.38941">
        <ele>252.700738</ele>
        <time>2022-09-12T00:54:49.070Z</time>
      </trkpt>
      <trkpt lat="48.27103" lon="15.38694">
        <ele>262.414107</ele>
        <time>2022-09-12T00:56:46.099Z</time>
      </trkpt>
      <trkpt lat="48.27024" lon="15.38576">
        <ele>265.073091</ele>
        <time>2022-09-12T00:57:27.149Z</time>
      </trkpt>
      <trkpt lat="48.26994" lon="15.38506">
        <ele>265.621732</ele>
        <time>2022-09-12T00:57:44.966Z</time>
      </trkpt>
      <trkpt lat="48.2698" lon="15.3848">
        <ele>265.839816</ele>
        <time>2022-09-12T00:57:50.172Z</time>
      </trkpt>
      <trkpt lat="48.26976" lon="15.38474">
        <ele>265.895457</ele>
        <time>2022-09-12T00:57:51.776Z</time>
      </trkpt>
      <trkpt lat="48.26973" lon="15.38479">
        <ele>265.941941</ele>
        <time>2022-09-12T00:57:53.666Z</time>
      </trkpt>
      <trkpt lat="48.2697" lon="15.38483">
        <ele>265.98445</ele>
        <time>2022-09-12T00:57:55.517Z</time>
      </trkpt>
      <trkpt lat="48.26892" lon="15.38357">
        <ele>266.274331</ele>
        <time>2022-09-12T00:58:24.984Z</time>
      </trkpt>
      <trkpt lat="48.26817" lon="15.38231">
        <ele>266.191569</ele>
        <time>2022-09-12T00:58:55.586Z</time>
      </trkpt>
      <trkpt lat="48.26794" lon="15.38203">
        <ele>266.145899</ele>
        <time>2022-09-12T00:59:02.958Z</time>
      </trkpt>
      <trkpt lat="48.2669" lon="15.38131">
        <ele>265.967646</ele>
        <time>2022-09-12T00:59:31.624Z</time>
      </trkpt>
      <trkpt lat="48.26627" lon="15.38055">
        <ele>265.836114</ele>
        <time>2022-09-12T00:59:54.751Z</time>
      </trkpt>
      <trkpt lat="48.26544" lon="15.38017">
        <ele>265.690313</ele>
        <time>2022-09-12T01:00:20.178Z</time>
      </trkpt>
      <trkpt lat="48.26488" lon="15.37963">
        <ele>264.214733</ele>
        <time>2022-09-12T01:00:34.985Z</time>
      </trkpt>
      <trkpt lat="48.26392" lon="15.37881">
        <ele>259.262744</ele>
        <time>2022-09-12T01:00:55.505Z</time>
      </trkpt>
      <trkpt lat="48.26356" lon="15.37843">
        <ele>257.147752</ele>
        <time>2022-09-12T01:01:02.935Z</time>
      </trkpt>
      <trkpt lat="48.26319" lon="15.3782">
        <ele>254.54267</ele>
        <time>2022-09-12T01:01:09.657Z</time>
      </trkpt>
      <trkpt lat="48.26266" lon="15.37805">
        <ele>250.967728</ele>
        <time>2022-09-12T01:01:18.960Z</time>
      </trkpt>
      <trkpt lat="48.26253" lon="15.37816">
        <ele>250.00036</ele>
        <time>2022-09-12T01:01:21.330Z</time>
      </trkpt>
      <trkpt lat="48.26236" lon="15.37817">
        <ele>248.863135</ele>
        <time>2022-09-12T01:01:24.416Z</time>
      </trkpt>
      <trkpt lat="48.26158" lon="15.37823">
        <ele>245.135658</ele>
        <time>2022-09-12T01:01:38.581Z</time>
      </trkpt>
      <trkpt lat="48.26149" lon="15.37818">
        <ele>244.922337</ele>
        <time>2022-09-12T01:01:40.408Z</time>
      </trkpt>
      <trkpt lat="48.26133" lon="15.37813">
        <ele>244.598734</ele>
        <time>2022-09-12T01:01:43.680Z</time>
      </trkpt>
      <trkpt lat="48.26112" lon="15.37819">
        <ele>244.146671</ele>
        <time>2022-09-12T01:01:48.211Z</time>
      </trkpt>
      <trkpt lat="48.26028" lon="15.37868">
        <ele>242.28047</ele>
        <time>2022-09-12T01:02:10.002Z</time>
      </trkpt>
      <trkpt lat="48.25975" lon="15.37896">
        <ele>241.152712</ele>
        <time>2022-09-12T01:02:24.222Z</time>
      </trkpt>
      <trkpt lat="48.2592" lon="15.37902">
        <ele>240.059131</ele>
        <time>2022-09-12T01:02:36.514Z</time>
      </trkpt>
      <trkpt lat="48.25866" lon="15.37889">
        <ele>238.958639</ele>
        <time>2022-09-12T01:02:48.101Z</time>
      </trkpt>
      <trkpt lat="48.2582" lon="15.37859">
        <ele>237.007307</ele>
        <time>2022-09-12T01:02:57.276Z</time>
      </trkpt>
      <trkpt lat="48.25776" lon="15.37809">
        <ele>233.684799</ele>
        <time>2022-09-12T01:03:07.058Z</time>
      </trkpt>
      <trkpt lat="48.25738" lon="15.37733">
        <ele>229.908614</ele>
        <time>2022-09-12T01:03:17.953Z</time>
      </trkpt>
      <trkpt lat="48.25665" lon="15.37487">
        <ele>218.539402</ele>
        <time>2022-09-12T01:03:48.754Z</time>
      </trkpt>
      <trkpt lat="48.25639" lon="15.37417">
        <ele>215.611262</ele>
        <time>2022-09-12T01:03:58.482Z</time>
      </trkpt>
      <trkpt lat="48.2561" lon="15.37358">
        <ele>214.150479</ele>
        <time>2022-09-12T01:04:07.448Z</time>
      </trkpt>
      <trkpt lat="48.25615" lon="15.37352">
        <ele>213.942612</ele>
        <time>2022-09-12T01:04:08.787Z</time>
      </trkpt>
      <trkpt lat="48.2562" lon="15.37342">
        <ele>213.685718</ele>
        <time>2022-09-12T01:04:10.510Z</time>
      </trkpt>
      <trkpt lat="48.25618" lon="15.37318">
        <ele>213.200991</ele>
        <time>2022-09-12T01:04:13.657Z</time>
      </trkpt>
      <trkpt lat="48.25617" lon="15.37312">
        <ele>213.079203</ele>
        <time>2022-09-12T01:04:14.428Z</time>
      </trkpt>
      <trkpt lat="48.25597" lon="15.3731">
        <ele>212.456975</ele>
        <time>2022-09-12T01:04:18.796Z</time>
      </trkpt>
      <trkpt lat="48.25559" lon="15.37269">
        <ele>211.064638</ele>
        <time>2022-09-12T01:04:28.640Z</time>
      </trkpt>
      <trkpt lat="48.25516" lon="15.37246">
        <ele>210.721937</ele>
        <time>2022-09-12T01:04:39.452Z</time>
      </trkpt>
      <trkpt lat="48.25499" lon="15.37234">
        <ele>210.753749</ele>
        <time>2022-09-12T01:04:45.125Z</time>
      </trkpt>
      <trkpt lat="48.25442" lon="15.37183">
        <ele>210.863247</ele>
        <time>2022-09-12T01:05:04.748Z</time>
      </trkpt>
      <trkpt lat="48.25416" lon="15.37143">
        <ele>210.924587</ele>
        <time>2022-09-12T01:05:15.601Z</time>
      </trkpt>
      <trkpt lat="48.25395" lon="15.37106">
        <ele>211.028154</ele>
        <time>2022-09-12T01:05:25.084Z</time>
      </trkpt>
      <trkpt lat="48.25379" lon="15.37073">
        <ele>211.249393</ele>
        <time>2022-09-12T01:05:32.984Z</time>
      </trkpt>
      <trkpt lat="48.25318" lon="15.36968">
        <ele>212.015716</ele>
        <time>2022-09-12T01:06:02.127Z</time>
      </trkpt>
      <trkpt lat="48.25251" lon="15.36889">
        <ele>213.21981</ele>
        <time>2022-09-12T01:06:27.574Z</time>
      </trkpt>
      <trkpt lat="48.25247" lon="15.36885">
        <ele>213.327652</ele>
        <time>2022-09-12T01:06:28.646Z</time>
      </trkpt>
      <trkpt lat="48.2524" lon="15.36878">
        <ele>213.531056</ele>
        <time>2022-09-12T01:06:32.233Z</time>
      </trkpt>
      <trkpt lat="48.25193" lon="15.36821">
        <ele>214.964399</ele>
        <time>2022-09-12T01:06:53.726Z</time>
      </trkpt>
      <trkpt lat="48.25218" lon="15.36776">
        <ele>215.887835</ele>
        <time>2022-09-12T01:07:08.656Z</time>
      </trkpt>
      <trkpt lat="48.25216" lon="15.36767">
        <ele>216.034429</ele>
        <time>2022-09-12T01:07:12.071Z</time>
      </trkpt>
      <trkpt lat="48.25105" lon="15.36576">
        <ele>223.536653</ele>
        <time>2022-09-12T01:08:34.696Z</time>
      </trkpt>
      <trkpt lat="48.25045" lon="15.36496">
        <ele>227.600594</ele>
        <time>2022-09-12T01:09:19.143Z</time>
      </trkpt>
      <trkpt lat="48.24938" lon="15.36327">
        <ele>235.123595</ele>
        <time>2022-09-12T01:10:40.098Z</time>
      </trkpt>
      <trkpt lat="48.24899" lon="15.36253">
        <ele>236.241613</ele>
        <time>2022-09-12T01:11:05.591Z</time>
      </trkpt>
      <trkpt lat="48.24753" lon="15.35881">
        <ele>237.636188</ele>
        <time>2022-09-12T01:12:23.697Z</time>
      </trkpt>
      <trkpt lat="48.24673" lon="15.35693">
        <ele>235.202795</ele>
        <time>2022-09-12T01:12:54.688Z</time>
      </trkpt>
      <trkpt lat="48.24581" lon="15.35511">
        <ele>234.157414</ele>
        <time>2022-09-12T01:13:30.022Z</time>
      </trkpt>
      <trkpt lat="48.24571" lon="15.35488">
        <ele>234.062397</ele>
        <time>2022-09-12T01:13:35.617Z</time>
      </trkpt>
      <trkpt lat="48.24511" lon="15.35399">
        <ele>234.273988</ele>
        <time>2022-09-12T01:14:01.173Z</time>
      </trkpt>
      <trkpt lat="48.24339" lon="15.35188">
        <ele>234.867515</ele>
        <time>2022-09-12T01:15:08.841Z</time>
      </trkpt>
      <trkpt lat="48.24256" lon="15.35063">
        <ele>233.068394</ele>
        <time>2022-09-12T01:15:35.274Z</time>
      </trkpt>
      <trkpt lat="48.24235" lon="15.35048">
        <ele>232.012666</ele>
        <time>2022-09-12T01:15:39.516Z</time>
      </trkpt>
      <trkpt lat="48.24211" lon="15.35036">
        <ele>230.863694</ele>
        <time>2022-09-12T01:15:44.049Z</time>
      </trkpt>
      <trkpt lat="48.24179" lon="15.35009">
        <ele>229.172078</ele>
        <time>2022-09-12T01:15:50.473Z</time>
      </trkpt>
      <trkpt lat="48.24135" lon="15.34982">
        <ele>226.943168</ele>
        <time>2022-09-12T01:15:58.976Z</time>
      </trkpt>
      <trkpt lat="48.24085" lon="15.34931">
        <ele>224.737553</ele>
        <time>2022-09-12T01:16:09.680Z</time>
      </trkpt>
      <trkpt lat="48.24069" lon="15.34911">
        <ele>224.076591</ele>
        <time>2022-09-12T01:16:13.164Z</time>
      </trkpt>
      <trkpt lat="48.24056" lon="15.34901">
        <ele>223.585666</ele>
        <time>2022-09-12T01:16:15.914Z</time>
      </trkpt>
      <trkpt lat="48.24037" lon="15.34923">
        <ele>222.789309</ele>
        <time>2022-09-12T01:16:20.434Z</time>
      </trkpt>
      <trkpt lat="48.24033" lon="15.34933">
        <ele>222.530611</ele>
        <time>2022-09-12T01:16:21.936Z</time>
      </trkpt>
      <trkpt lat="48.24036" lon="15.34945">
        <ele>222.242759</ele>
        <time>2022-09-12T01:16:23.694Z</time>
      </trkpt>
      <trkpt lat="48.24053" lon="15.34937">
        <ele>221.63583</ele>
        <time>2022-09-12T01:16:27.491Z</time>
      </trkpt>
      <trkpt lat="48.24053" lon="15.34923">
        <ele>221.344055</ele>
        <time>2022-09-12T01:16:29.372Z</time>
      </trkpt>
      <trkpt lat="48.24008" lon="15.34866">
        <ele>221.22948</ele>
        <time>2022-09-12T01:16:46.679Z</time>
      </trkpt>
      <trkpt lat="48.23973" lon="15.34825">
        <ele>222.797236</ele>
        <time>2022-09-12T01:17:08.061Z</time>
      </trkpt>
      <trkpt lat="48.23904" lon="15.34946">
        <ele>226.535451</ele>
        <time>2022-09-12T01:17:59.498Z</time>
      </trkpt>
      <trkpt lat="48.23899" lon="15.34954">
        <ele>226.696847</ele>
        <time>2022-09-12T01:18:03.579Z</time>
      </trkpt>
      <trkpt lat="48.23889" lon="15.34954">
        <ele>226.81138</ele>
        <time>2022-09-12T01:18:09.786Z</time>
      </trkpt>
      <trkpt lat="48.23854" lon="15.34992">
        <ele>227.3136</ele>
        <time>2022-09-12T01:18:28.880Z</time>
      </trkpt>
      <trkpt lat="48.23848" lon="15.34993">
        <ele>227.388175</ele>
        <time>2022-09-12T01:18:30.930Z</time>
      </trkpt>
      <trkpt lat="48.23849" lon="15.34982">
        <ele>227.475397</ele>
        <time>2022-09-12T01:18:33.019Z</time>
      </trkpt>
      <trkpt lat="48.23885" lon="15.34908">
        <ele>228.180603</ele>
        <time>2022-09-12T01:18:51.063Z</time>
      </trkpt>
      <trkpt lat="48.23884" lon="15.34853">
        <ele>228.603954</ele>
        <time>2022-09-12T01:18:59.413Z</time>
      </trkpt>
      <trkpt lat="48.23927" lon="15.34821">
        <ele>228.079473</ele>
        <time>2022-09-12T01:19:09.169Z</time>
      </trkpt>
      <trkpt lat="48.23933" lon="15.34817">
        <ele>227.974682</ele>
        <time>2022-09-12T01:19:10.348Z</time>
      </trkpt>
      <trkpt lat="48.24469" lon="15.3438">
        <ele>217.732972</ele>
        <time>2022-09-12T01:21:22.352Z</time>
      </trkpt>
      <trkpt lat="48.24529" lon="15.34317">
        <ele>216.679249</ele>
        <time>2022-09-12T01:21:39.170Z</time>
      </trkpt>
      <trkpt lat="48.24567" lon="15.34257">
        <ele>216.123039</ele>
        <time>2022-09-12T01:21:51.461Z</time>
      </trkpt>
      <trkpt lat="48.24582" lon="15.34206">
        <ele>215.743374</ele>
        <time>2022-09-12T01:21:59.946Z</time>
      </trkpt>
      <trkpt lat="48.24585" lon="15.34173">
        <ele>215.520504</ele>
        <time>2022-09-12T01:22:05.155Z</time>
      </trkpt>
      <trkpt lat="48.24581" lon="15.3414">
        <ele>215.293095</ele>
        <time>2022-09-12T01:22:10.734Z</time>
      </trkpt>
      <trkpt lat="48.24571" lon="15.34113">
        <ele>215.08382</ele>
        <time>2022-09-12T01:22:15.958Z</time>
      </trkpt>
      <trkpt lat="48.24556" lon="15.34096">
        <ele>214.872951</ele>
        <time>2022-09-12T01:22:20.519Z</time>
      </trkpt>
      <trkpt lat="48.24532" lon="15.34083">
        <ele>214.543788</ele>
        <time>2022-09-12T01:22:26.313Z</time>
      </trkpt>
      <trkpt lat="48.24511" lon="15.34085">
        <ele>214.255933</ele>
        <time>2022-09-12T01:22:31.135Z</time>
      </trkpt>
      <trkpt lat="48.24492" lon="15.34097">
        <ele>213.981145</ele>
        <time>2022-09-12T01:22:35.778Z</time>
      </trkpt>
      <trkpt lat="48.24465" lon="15.34131">
        <ele>213.502516</ele>
        <time>2022-09-12T01:22:43.622Z</time>
      </trkpt>
      <trkpt lat="48.24449" lon="15.34129">
        <ele>213.284478</ele>
        <time>2022-09-12T01:22:47.153Z</time>
      </trkpt>
      <trkpt lat="48.24444" lon="15.34136">
        <ele>213.194261</ele>
        <time>2022-09-12T01:22:48.655Z</time>
      </trkpt>
      <trkpt lat="48.24439" lon="15.34145">
        <ele>213.090555</ele>
        <time>2022-09-12T01:22:50.306Z</time>
      </trkpt>
      <trkpt lat="48.2443" lon="15.34163">
        <ele>212.896448</ele>
        <time>2022-09-12T01:22:53.406Z</time>
      </trkpt>
      <trkpt lat="48.24416" lon="15.34146">
        <ele>212.65479</ele>
        <time>2022-09-12T01:22:57.382Z</time>
      </trkpt>
      <trkpt lat="48.24406" lon="15.34116">
        <ele>212.297603</ele>
        <time>2022-09-12T01:23:02.304Z</time>
      </trkpt>
      <trkpt lat="48.24305" lon="15.34007">
        <ele>210.054624</ele>
        <time>2022-09-12T01:23:28.424Z</time>
      </trkpt>
      <trkpt lat="48.24215" lon="15.33912">
        <ele>208.624307</ele>
        <time>2022-09-12T01:23:52.578Z</time>
      </trkpt>
      <trkpt lat="48.24177" lon="15.33865">
        <ele>208.142642</ele>
        <time>2022-09-12T01:24:04.207Z</time>
      </trkpt>
      <trkpt lat="48.24175" lon="15.33868">
        <ele>208.11409</ele>
        <time>2022-09-12T01:24:04.907Z</time>
      </trkpt>
      <trkpt lat="48.2417" lon="15.33865">
        <ele>208.061837</ele>
        <time>2022-09-12T01:24:06.195Z</time>
      </trkpt>
      <trkpt lat="48.24125" lon="15.33806">
        <ele>207.52661</ele>
        <time>2022-09-12T01:24:20.676Z</time>
      </trkpt>
      <trkpt lat="48.24094" lon="15.33756">
        <ele>207.534546</ele>
        <time>2022-09-12T01:24:33.155Z</time>
      </trkpt>
      <trkpt lat="48.24079" lon="15.33744">
        <ele>207.537479</ele>
        <time>2022-09-12T01:24:37.926Z</time>
      </trkpt>
      <trkpt lat="48.24067" lon="15.33714">
        <ele>207.541487</ele>
        <time>2022-09-12T01:24:44.438Z</time>
      </trkpt>
      <trkpt lat="48.24039" lon="15.3364">
        <ele>207.551315</ele>
        <time>2022-09-12T01:24:59.555Z</time>
      </trkpt>
      <trkpt lat="48.24012" lon="15.33586">
        <ele>207.565856</ele>
        <time>2022-09-12T01:25:11.688Z</time>
      </trkpt>
      <trkpt lat="48.23996" lon="15.3355">
        <ele>207.588664</ele>
        <time>2022-09-12T01:25:19.680Z</time>
      </trkpt>
      <trkpt lat="48.23975" lon="15.33502">
        <ele>207.617977</ele>
        <time>2022-09-12T01:25:30.077Z</time>
      </trkpt>
      <trkpt lat="48.2396" lon="15.33458">
        <ele>207.64354</ele>
        <time>2022-09-12T01:25:39.118Z</time>
      </trkpt>
      <trkpt lat="48.23834" lon="15.33158">
        <ele>207.729642</ele>
        <time>2022-09-12T01:26:42.325Z</time>
      </trkpt>
      <trkpt lat="48.23793" lon="15.33045">
        <ele>207.608027</ele>
        <time>2022-09-12T01:27:05.623Z</time>
      </trkpt>
      <trkpt lat="48.23752" lon="15.32911">
        <ele>207.442638</ele>
        <time>2022-09-12T01:27:31.158Z</time>
      </trkpt>
      <trkpt lat="48.23685" lon="15.32656">
        <ele>205.95253</ele>
        <time>2022-09-12T01:28:13.169Z</time>
      </trkpt>
      <trkpt lat="48.23679" lon="15.32645">
        <ele>205.911776</ele>
        <time>2022-09-12T01:28:15.891Z</time>
      </trkpt>
      <trkpt lat="48.23655" lon="15.32635">
        <ele>205.91216</ele>
        <time>2022-09-12T01:28:21.934Z</time>
      </trkpt>
      <trkpt lat="48.23615" lon="15.32664">
        <ele>205.912824</ele>
        <time>2022-09-12T01:28:33.862Z</time>
      </trkpt>
      <trkpt lat="48.23558" lon="15.32533">
        <ele>205.914415</ele>
        <time>2022-09-12T01:29:02.552Z</time>
      </trkpt>
      <trkpt lat="48.23393" lon="15.32162">
        <ele>207.28478</ele>
        <time>2022-09-12T01:30:29.887Z</time>
      </trkpt>
      <trkpt lat="48.23337" lon="15.32033">
        <ele>207.51894</ele>
        <time>2022-09-12T01:30:57.557Z</time>
      </trkpt>
      <trkpt lat="48.23297" lon="15.31869">
        <ele>207.470763</ele>
        <time>2022-09-12T01:31:27.789Z</time>
      </trkpt>
      <trkpt lat="48.23297" lon="15.3174">
        <ele>207.487638</ele>
        <time>2022-09-12T01:31:51.224Z</time>
      </trkpt>
      <trkpt lat="48.23286" lon="15.31666">
        <ele>207.510649</ele>
        <time>2022-09-12T01:32:04.673Z</time>
      </trkpt>
      <trkpt lat="48.23262" lon="15.31564">
        <ele>207.549689</ele>
        <time>2022-09-12T01:32:23.720Z</time>
      </trkpt>
      <trkpt lat="48.23227" lon="15.31424">
        <ele>207.854087</ele>
        <time>2022-09-12T01:32:51.226Z</time>
      </trkpt>
      <trkpt lat="48.23204" lon="15.31354">
        <ele>208.012093</ele>
        <time>2022-09-12T01:33:06.332Z</time>
      </trkpt>
      <trkpt lat="48.23184" lon="15.31321">
        <ele>208.113788</ele>
        <time>2022-09-12T01:33:14.852Z</time>
      </trkpt>
      <trkpt lat="48.2317" lon="15.31296">
        <ele>208.26068</ele>
        <time>2022-09-12T01:33:21.375Z</time>
      </trkpt>
      <trkpt lat="48.23159" lon="15.31233">
        <ele>208.548321</ele>
        <time>2022-09-12T01:33:34.355Z</time>
      </trkpt>
      <trkpt lat="48.23158" lon="15.3121">
        <ele>208.649613</ele>
        <time>2022-09-12T01:33:38.986Z</time>
      </trkpt>
      <trkpt lat="48.23131" lon="15.30899">
        <ele>209.650247</ele>
        <time>2022-09-12T01:34:41.948Z</time>
      </trkpt>
      <trkpt lat="48.23104" lon="15.30712">
        <ele>209.534074</ele>
        <time>2022-09-12T01:35:14.056Z</time>
      </trkpt>
      <trkpt lat="48.23091" lon="15.30639">
        <ele>209.258682</ele>
        <time>2022-09-12T01:35:26.074Z</time>
      </trkpt>
      <trkpt lat="48.23047" lon="15.30512">
        <ele>208.809491</ele>
        <time>2022-09-12T01:35:49.117Z</time>
      </trkpt>
      <trkpt lat="48.23044" lon="15.30421">
        <ele>208.63503</ele>
        <time>2022-09-12T01:36:04.519Z</time>
      </trkpt>
      <trkpt lat="48.23038" lon="15.30368">
        <ele>208.533194</ele>
        <time>2022-09-12T01:36:13.823Z</time>
      </trkpt>
      <trkpt lat="48.22988" lon="15.3026">
        <ele>208.344112</ele>
        <time>2022-09-12T01:36:36.940Z</time>
      </trkpt>
      <trkpt lat="48.22974" lon="15.30219">
        <ele>208.316461</ele>
        <time>2022-09-12T01:36:45.034Z</time>
      </trkpt>
      <trkpt lat="48.22955" lon="15.30034">
        <ele>208.232566</ele>
        <time>2022-09-12T01:37:17.432Z</time>
      </trkpt>
      <trkpt lat="48.2295" lon="15.29865">
        <ele>208.607556</ele>
        <time>2022-09-12T01:37:49.278Z</time>
      </trkpt>
      <trkpt lat="48.22967" lon="15.29832">
        <ele>208.700258</ele>
        <time>2022-09-12T01:37:57.296Z</time>
      </trkpt>
      <trkpt lat="48.2298" lon="15.29781">
        <ele>208.827699</ele>
        <time>2022-09-12T01:38:07.805Z</time>
      </trkpt>
      <trkpt lat="48.22978" lon="15.29761">
        <ele>208.892727</ele>
        <time>2022-09-12T01:38:11.944Z</time>
      </trkpt>
      <trkpt lat="48.22971" lon="15.29705">
        <ele>209.071438</ele>
        <time>2022-09-12T01:38:23.029Z</time>
      </trkpt>
      <trkpt lat="48.22965" lon="15.29661">
        <ele>209.215091</ele>
        <time>2022-09-12T01:38:32.001Z</time>
      </trkpt>
      <trkpt lat="48.22959" lon="15.29609">
        <ele>209.382308</ele>
        <time>2022-09-12T01:38:42.426Z</time>
      </trkpt>
      <trkpt lat="48.22955" lon="15.2961">
        <ele>209.402035</ele>
        <time>2022-09-12T01:38:43.683Z</time>
      </trkpt>
      <trkpt lat="48.22951" lon="15.29572">
        <ele>209.525999</ele>
        <time>2022-09-12T01:38:51.222Z</time>
      </trkpt>
      <trkpt lat="48.22945" lon="15.29532">
        <ele>209.654003</ele>
        <time>2022-09-12T01:38:58.789Z</time>
      </trkpt>
      <trkpt lat="48.22947" lon="15.29518">
        <ele>209.681015</ele>
        <time>2022-09-12T01:39:01.424Z</time>
      </trkpt>
      <trkpt lat="48.22934" lon="15.29472">
        <ele>209.759414</ele>
        <time>2022-09-12T01:39:10.160Z</time>
      </trkpt>
      <trkpt lat="48.22932" lon="15.29444">
        <ele>209.803693</ele>
        <time>2022-09-12T01:39:15.104Z</time>
      </trkpt>
      <trkpt lat="48.22924" lon="15.29314">
        <ele>210.009141</ele>
        <time>2022-09-12T01:39:39.139Z</time>
      </trkpt>
      <trkpt lat="48.22915" lon="15.29184">
        <ele>210.419553</ele>
        <time>2022-09-12T01:40:04.456Z</time>
      </trkpt>
      <trkpt lat="48.229" lon="15.29058">
        <ele>210.948927</ele>
        <time>2022-09-12T01:40:30.387Z</time>
      </trkpt>
      <trkpt lat="48.22833" lon="15.28655">
        <ele>212.438744</ele>
        <time>2022-09-12T01:41:51.373Z</time>
      </trkpt>
      <trkpt lat="48.22798" lon="15.28353">
        <ele>213.314474</ele>
        <time>2022-09-12T01:42:49.548Z</time>
      </trkpt>
      <trkpt lat="48.22797" lon="15.28335">
        <ele>213.363851</ele>
        <time>2022-09-12T01:42:52.881Z</time>
      </trkpt>
      <trkpt lat="48.22778" lon="15.28058">
        <ele>214.178222</ele>
        <time>2022-09-12T01:43:46.853Z</time>
      </trkpt>
      <trkpt lat="48.22763" lon="15.27902">
        <ele>214.612954</ele>
        <time>2022-09-12T01:44:17.241Z</time>
      </trkpt>
      <trkpt lat="48.22726" lon="15.27615">
        <ele>214.923386</ele>
        <time>2022-09-12T01:45:11.111Z</time>
      </trkpt>
      <trkpt lat="48.22717" lon="15.27512">
        <ele>214.788462</ele>
        <time>2022-09-12T01:45:29.095Z</time>
      </trkpt>
      <trkpt lat="48.2267" lon="15.2686">
        <ele>213.131183</ele>
        <time>2022-09-12T01:47:17.174Z</time>
      </trkpt>
      <trkpt lat="48.22646" lon="15.26391">
        <ele>214.142124</ele>
        <time>2022-09-12T01:48:47.693Z</time>
      </trkpt>
      <trkpt lat="48.22641" lon="15.26357">
        <ele>214.210011</ele>
        <time>2022-09-12T01:48:53.655Z</time>
      </trkpt>
      <trkpt lat="48.22625" lon="15.26306">
        <ele>214.230744</ele>
        <time>2022-09-12T01:49:03.407Z</time>
      </trkpt>
      <trkpt lat="48.22628" lon="15.2628">
        <ele>214.197534</ele>
        <time>2022-09-12T01:49:08.138Z</time>
      </trkpt>
      <trkpt lat="48.22643" lon="15.26242">
        <ele>214.141185</ele>
        <time>2022-09-12T01:49:15.883Z</time>
      </trkpt>
      <trkpt lat="48.22641" lon="15.26229">
        <ele>214.12469</ele>
        <time>2022-09-12T01:49:18.257Z</time>
      </trkpt>
      <trkpt lat="48.22639" lon="15.26211">
        <ele>214.101569</ele>
        <time>2022-09-12T01:49:21.363Z</time>
      </trkpt>
      <trkpt lat="48.22595" lon="15.25999">
        <ele>213.429034</ele>
        <time>2022-09-12T01:49:59.117Z</time>
      </trkpt>
      <trkpt lat="48.2256" lon="15.25881">
        <ele>212.64701</ele>
        <time>2022-09-12T01:50:19.184Z</time>
      </trkpt>
      <trkpt lat="48.22546" lon="15.25856">
        <ele>212.453184</ele>
        <time>2022-09-12T01:50:23.849Z</time>
      </trkpt>
      <trkpt lat="48.22483" lon="15.25885">
        <ele>211.713509</ele>
        <time>2022-09-12T01:50:38.232Z</time>
      </trkpt>
      <trkpt lat="48.22473" lon="15.25889">
        <ele>211.589265</ele>
        <time>2022-09-12T01:50:42.157Z</time>
      </trkpt>
      <trkpt lat="48.2247" lon="15.25889">
        <ele>211.55696</ele>
        <time>2022-09-12T01:50:42.732Z</time>
      </trkpt>
      <trkpt lat="48.22436" lon="15.25809">
        <ele>210.803154</ele>
        <time>2022-09-12T01:50:56.213Z</time>
      </trkpt>
      <trkpt lat="48.2235" lon="15.25379">
        <ele>209.764441</ele>
        <time>2022-09-12T01:52:13.426Z</time>
      </trkpt>
      <trkpt lat="48.22315" lon="15.25229">
        <ele>209.813442</ele>
        <time>2022-09-12T01:52:42.816Z</time>
      </trkpt>
      <trkpt lat="48.22263" lon="15.24999">
        <ele>210.121673</ele>
        <time>2022-09-12T01:53:27.237Z</time>
      </trkpt>
      <trkpt lat="48.22254" lon="15.24919">
        <ele>210.270987</ele>
        <time>2022-09-12T01:53:42.199Z</time>
      </trkpt>
      <trkpt lat="48.22252" lon="15.24738">
        <ele>210.701383</ele>
        <time>2022-09-12T01:54:16.886Z</time>
      </trkpt>
      <trkpt lat="48.22239" lon="15.24628">
        <ele>210.793724</ele>
        <time>2022-09-12T01:54:38.067Z</time>
      </trkpt>
      <trkpt lat="48.22227" lon="15.24562">
        <ele>210.763109</ele>
        <time>2022-09-12T01:54:50.699Z</time>
      </trkpt>
      <trkpt lat="48.22175" lon="15.2436">
        <ele>210.458206</ele>
        <time>2022-09-12T01:55:26.619Z</time>
      </trkpt>
      <trkpt lat="48.22157" lon="15.24327">
        <ele>210.320791</ele>
        <time>2022-09-12T01:55:33.748Z</time>
      </trkpt>
      <trkpt lat="48.22116" lon="15.24278">
        <ele>210.070539</ele>
        <time>2022-09-12T01:55:46.371Z</time>
      </trkpt>
      <trkpt lat="48.22104" lon="15.24256">
        <ele>209.981885</ele>
        <time>2022-09-12T01:55:51.071Z</time>
      </trkpt>
      <trkpt lat="48.2201" lon="15.2392">
        <ele>209.365215</ele>
        <time>2022-09-12T01:56:52.732Z</time>
      </trkpt>
      <trkpt lat="48.21867" lon="15.23497">
        <ele>209.793241</ele>
        <time>2022-09-12T01:58:19.968Z</time>
      </trkpt>
      <trkpt lat="48.21818" lon="15.23329">
        <ele>210.032168</ele>
        <time>2022-09-12T01:58:53.412Z</time>
      </trkpt>
      <trkpt lat="48.21805" lon="15.23279">
        <ele>210.103742</ele>
        <time>2022-09-12T01:59:03.698Z</time>
      </trkpt>
      <trkpt lat="48.21798" lon="15.23256">
        <ele>210.136186</ele>
        <time>2022-09-12T01:59:08.223Z</time>
      </trkpt>
      <trkpt lat="48.21765" lon="15.23112">
        <ele>210.261542</ele>
        <time>2022-09-12T01:59:36.406Z</time>
      </trkpt>
      <trkpt lat="48.21737" lon="15.2292">
        <ele>210.238293</ele>
        <time>2022-09-12T02:00:11.677Z</time>
      </trkpt>
      <trkpt lat="48.21714" lon="15.2273">
        <ele>209.810697</ele>
        <time>2022-09-12T02:00:43.437Z</time>
      </trkpt>
      <trkpt lat="48.21694" lon="15.22489">
        <ele>209.281544</ele>
        <time>2022-09-12T02:01:23.963Z</time>
      </trkpt>
      <trkpt lat="48.21684" lon="15.22271">
        <ele>209.066863</ele>
        <time>2022-09-12T02:02:02.069Z</time>
      </trkpt>
      <trkpt lat="48.21682" lon="15.22101">
        <ele>209.001626</ele>
        <time>2022-09-12T02:02:32.321Z</time>
      </trkpt>
      <trkpt lat="48.21684" lon="15.21909">
        <ele>209.000046</ele>
        <time>2022-09-12T02:03:06.513Z</time>
      </trkpt>
      <trkpt lat="48.21685" lon="15.21761">
        <ele>209.002333</ele>
        <time>2022-09-12T02:03:32.785Z</time>
      </trkpt>
      <trkpt lat="48.21703" lon="15.21643">
        <ele>209.004339</ele>
        <time>2022-09-12T02:03:54.339Z</time>
      </trkpt>
      <trkpt lat="48.21706" lon="15.21556">
        <ele>209.055798</ele>
        <time>2022-09-12T02:04:10.086Z</time>
      </trkpt>
      <trkpt lat="48.21702" lon="15.2143">
        <ele>209.136622</ele>
        <time>2022-09-12T02:04:32.518Z</time>
      </trkpt>
      <trkpt lat="48.21716" lon="15.21409">
        <ele>209.155496</ele>
        <time>2022-09-12T02:04:37.878Z</time>
      </trkpt>
      <trkpt lat="48.21702" lon="15.21339">
        <ele>209.25885</ele>
        <time>2022-09-12T02:04:51.617Z</time>
      </trkpt>
      <trkpt lat="48.21707" lon="15.21322">
        <ele>209.298166</ele>
        <time>2022-09-12T02:04:55.249Z</time>
      </trkpt>
      <trkpt lat="48.21704" lon="15.21261">
        <ele>209.430442</ele>
        <time>2022-09-12T02:05:07.410Z</time>
      </trkpt>
      <trkpt lat="48.21695" lon="15.21229">
        <ele>209.505205</ele>
        <time>2022-09-12T02:05:14.177Z</time>
      </trkpt>
      <trkpt lat="48.21669" lon="15.21177">
        <ele>209.645254</ele>
        <time>2022-09-12T02:05:27.131Z</time>
      </trkpt>
      <trkpt lat="48.21662" lon="15.21119">
        <ele>209.769949</ele>
        <time>2022-09-12T02:05:38.750Z</time>
      </trkpt>
      <trkpt lat="48.2164" lon="15.20883">
        <ele>210.258141</ele>
        <time>2022-09-12T02:06:25.640Z</time>
      </trkpt>
      <trkpt lat="48.21628" lon="15.206">
        <ele>210.210945</ele>
        <time>2022-09-12T02:07:17.346Z</time>
      </trkpt>
      <trkpt lat="48.21629" lon="15.20302">
        <ele>210.12068</ele>
        <time>2022-09-12T02:08:11.897Z</time>
      </trkpt>
      <trkpt lat="48.21638" lon="15.20189">
        <ele>210.168238</ele>
        <time>2022-09-12T02:08:33.196Z</time>
      </trkpt>
      <trkpt lat="48.21711" lon="15.1976">
        <ele>210.452446</ele>
        <time>2022-09-12T02:09:57.265Z</time>
      </trkpt>
      <trkpt lat="48.21721" lon="15.19683">
        <ele>210.451659</ele>
        <time>2022-09-12T02:10:11.043Z</time>
      </trkpt>
      <trkpt lat="48.21721" lon="15.19661">
        <ele>210.451434</ele>
        <time>2022-09-12T02:10:14.985Z</time>
      </trkpt>
      <trkpt lat="48.21716" lon="15.19648">
        <ele>210.451284</ele>
        <time>2022-09-12T02:10:17.677Z</time>
      </trkpt>
      <trkpt lat="48.21703" lon="15.19627">
        <ele>210.450991</ele>
        <time>2022-09-12T02:10:22.610Z</time>
      </trkpt>
      <trkpt lat="48.217" lon="15.18903">
        <ele>211.178749</ele>
        <time>2022-09-12T02:12:32.455Z</time>
      </trkpt>
      <trkpt lat="48.21713" lon="15.18711">
        <ele>212.318476</ele>
        <time>2022-09-12T02:13:13.876Z</time>
      </trkpt>
      <trkpt lat="48.21749" lon="15.18398">
        <ele>215.3701</ele>
        <time>2022-09-12T02:14:29.570Z</time>
      </trkpt>
      <trkpt lat="48.21756" lon="15.18203">
        <ele>215.688482</ele>
        <time>2022-09-12T02:15:04.765Z</time>
      </trkpt>
      <trkpt lat="48.21768" lon="15.17951">
        <ele>213.185772</ele>
        <time>2022-09-12T02:15:40.604Z</time>
      </trkpt>
      <trkpt lat="48.21767" lon="15.17871">
        <ele>212.612632</ele>
        <time>2022-09-12T02:15:52.123Z</time>
      </trkpt>
      <trkpt lat="48.21744" lon="15.17703">
        <ele>211.715793</ele>
        <time>2022-09-12T02:16:19.705Z</time>
      </trkpt>
      <trkpt lat="48.21743" lon="15.17645">
        <ele>211.462235</ele>
        <time>2022-09-12T02:16:29.885Z</time>
      </trkpt>
      <trkpt lat="48.21735" lon="15.17627">
        <ele>211.456002</ele>
        <time>2022-09-12T02:16:33.941Z</time>
      </trkpt>
      <trkpt lat="48.2173" lon="15.1761">
        <ele>211.450614</ele>
        <time>2022-09-12T02:16:37.091Z</time>
      </trkpt>
      <trkpt lat="48.21724" lon="15.17515">
        <ele>211.422852</ele>
        <time>2022-09-12T02:16:54.137Z</time>
      </trkpt>
      <trkpt lat="48.21712" lon="15.17439">
        <ele>211.400105</ele>
        <time>2022-09-12T02:17:07.949Z</time>
      </trkpt>
      <trkpt lat="48.21692" lon="15.17341">
        <ele>211.368652</ele>
        <time>2022-09-12T02:17:26.029Z</time>
      </trkpt>
      <trkpt lat="48.21683" lon="15.17322">
        <ele>211.361276</ele>
        <time>2022-09-12T02:17:30.053Z</time>
      </trkpt>
      <trkpt lat="48.2167" lon="15.17288">
        <ele>211.348505</ele>
        <time>2022-09-12T02:17:37.034Z</time>
      </trkpt>
      <trkpt lat="48.21651" lon="15.17188">
        <ele>211.315242</ele>
        <time>2022-09-12T02:17:55.146Z</time>
      </trkpt>
      <trkpt lat="48.21639" lon="15.17092">
        <ele>211.313929</ele>
        <time>2022-09-12T02:18:12.402Z</time>
      </trkpt>
      <trkpt lat="48.21622" lon="15.17012">
        <ele>211.337528</ele>
        <time>2022-09-12T02:18:27.517Z</time>
      </trkpt>
      <trkpt lat="48.21622" lon="15.1701">
        <ele>211.338047</ele>
        <time>2022-09-12T02:18:27.841Z</time>
      </trkpt>
      <trkpt lat="48.21594" lon="15.16887">
        <ele>211.374435</ele>
        <time>2022-09-12T02:18:51.541Z</time>
      </trkpt>
      <trkpt lat="48.21561" lon="15.1671">
        <ele>211.337699</ele>
        <time>2022-09-12T02:19:24.019Z</time>
      </trkpt>
      <trkpt lat="48.21552" lon="15.16658">
        <ele>211.326528</ele>
        <time>2022-09-12T02:19:33.485Z</time>
      </trkpt>
      <trkpt lat="48.21543" lon="15.16593">
        <ele>211.299528</ele>
        <time>2022-09-12T02:19:45.313Z</time>
      </trkpt>
      <trkpt lat="48.21524" lon="15.16461">
        <ele>211.215209</ele>
        <time>2022-09-12T02:20:08.197Z</time>
      </trkpt>
      <trkpt lat="48.21511" lon="15.16333">
        <ele>211.204311</ele>
        <time>2022-09-12T02:20:31.185Z</time>
      </trkpt>
      <trkpt lat="48.21509" lon="15.16189">
        <ele>211.520595</ele>
        <time>2022-09-12T02:20:58.237Z</time>
      </trkpt>
      <trkpt lat="48.21509" lon="15.16099">
        <ele>211.717853</ele>
        <time>2022-09-12T02:21:15.790Z</time>
      </trkpt>
      <trkpt lat="48.21478" lon="15.15809">
        <ele>212.557384</ele>
        <time>2022-09-12T02:22:13.013Z</time>
      </trkpt>
      <trkpt lat="48.21429" lon="15.15487">
        <ele>212.630818</ele>
        <time>2022-09-12T02:23:11.018Z</time>
      </trkpt>
      <trkpt lat="48.21425" lon="15.15424">
        <ele>212.636518</ele>
        <time>2022-09-12T02:23:22.460Z</time>
      </trkpt>
      <trkpt lat="48.21415" lon="15.15395">
        <ele>212.639431</ele>
        <time>2022-09-12T02:23:28.318Z</time>
      </trkpt>
      <trkpt lat="48.21389" lon="15.15211">
        <ele>212.615377</ele>
        <time>2022-09-12T02:24:02.196Z</time>
      </trkpt>
      <trkpt lat="48.21373" lon="15.15003">
        <ele>212.544548</ele>
        <time>2022-09-12T02:24:39.960Z</time>
      </trkpt>
      <trkpt lat="48.21375" lon="15.14854">
        <ele>212.53553</ele>
        <time>2022-09-12T02:25:07.352Z</time>
      </trkpt>
      <trkpt lat="48.21382" lon="15.14764">
        <ele>212.530049</ele>
        <time>2022-09-12T02:25:24.089Z</time>
      </trkpt>
      <trkpt lat="48.21382" lon="15.14755">
        <ele>212.538379</ele>
        <time>2022-09-12T02:25:26.872Z</time>
      </trkpt>
      <trkpt lat="48.21387" lon="15.14694">
        <ele>212.627381</ele>
        <time>2022-09-12T02:25:38.269Z</time>
      </trkpt>
      <trkpt lat="48.21384" lon="15.14659">
        <ele>212.678592</ele>
        <time>2022-09-12T02:25:45.104Z</time>
      </trkpt>
      <trkpt lat="48.21378" lon="15.14629">
        <ele>212.723855</ele>
        <time>2022-09-12T02:25:51.123Z</time>
      </trkpt>
      <trkpt lat="48.21373" lon="15.14554">
        <ele>212.833405</ele>
        <time>2022-09-12T02:26:05.531Z</time>
      </trkpt>
      <trkpt lat="48.21378" lon="15.14522">
        <ele>212.881255</ele>
        <time>2022-09-12T02:26:11.289Z</time>
      </trkpt>
      <trkpt lat="48.21396" lon="15.14478">
        <ele>212.940312</ele>
        <time>2022-09-12T02:26:20.278Z</time>
      </trkpt>
      <trkpt lat="48.21404" lon="15.14437">
        <ele>212.972693</ele>
        <time>2022-09-12T02:26:27.642Z</time>
      </trkpt>
      <trkpt lat="48.21404" lon="15.14408">
        <ele>212.994763</ele>
        <time>2022-09-12T02:26:32.752Z</time>
      </trkpt>
      <trkpt lat="48.214" lon="15.14373">
        <ele>213.022037</ele>
        <time>2022-09-12T02:26:39.416Z</time>
      </trkpt>
      <trkpt lat="48.21395" lon="15.14339">
        <ele>213.048887</ele>
        <time>2022-09-12T02:26:46.163Z</time>
      </trkpt>
      <trkpt lat="48.2139" lon="15.14303">
        <ele>213.076905</ele>
        <time>2022-09-12T02:26:53.055Z</time>
      </trkpt>
      <trkpt lat="48.21386" lon="15.1427">
        <ele>213.102811</ele>
        <time>2022-09-12T02:26:59.570Z</time>
      </trkpt>
      <trkpt lat="48.21381" lon="15.14235">
        <ele>213.128755</ele>
        <time>2022-09-12T02:27:05.954Z</time>
      </trkpt>
      <trkpt lat="48.21376" lon="15.14201">
        <ele>213.135886</ele>
        <time>2022-09-12T02:27:12.105Z</time>
      </trkpt>
      <trkpt lat="48.21371" lon="15.14167">
        <ele>213.142716</ele>
        <time>2022-09-12T02:27:18.016Z</time>
      </trkpt>
      <trkpt lat="48.21365" lon="15.14133">
        <ele>213.149892</ele>
        <time>2022-09-12T02:27:24.195Z</time>
      </trkpt>
      <trkpt lat="48.21357" lon="15.14091">
        <ele>213.158635</ele>
        <time>2022-09-12T02:27:31.770Z</time>
      </trkpt>
      <trkpt lat="48.2136" lon="15.14071">
        <ele>213.162791</ele>
        <time>2022-09-12T02:27:35.609Z</time>
      </trkpt>
      <trkpt lat="48.21359" lon="15.14049">
        <ele>213.167142</ele>
        <time>2022-09-12T02:27:39.514Z</time>
      </trkpt>
      <trkpt lat="48.21302" lon="15.13772">
        <ele>213.319317</ele>
        <time>2022-09-12T02:28:31.509Z</time>
      </trkpt>
      <trkpt lat="48.21274" lon="15.13677">
        <ele>213.512007</ele>
        <time>2022-09-12T02:28:50.750Z</time>
      </trkpt>
      <trkpt lat="48.21262" lon="15.1366">
        <ele>213.595007</ele>
        <time>2022-09-12T02:28:55.554Z</time>
      </trkpt>
      <trkpt lat="48.21249" lon="15.136">
        <ele>213.805034</ele>
        <time>2022-09-12T02:29:07.793Z</time>
      </trkpt>
      <trkpt lat="48.21247" lon="15.13593">
        <ele>213.831428</ele>
        <time>2022-09-12T02:29:09.389Z</time>
      </trkpt>
      <trkpt lat="48.2123" lon="15.13486">
        <ele>214.199957</ele>
        <time>2022-09-12T02:29:31.200Z</time>
      </trkpt>
      <trkpt lat="48.21221" lon="15.13368">
        <ele>214.463768</ele>
        <time>2022-09-12T02:29:54.428Z</time>
      </trkpt>
      <trkpt lat="48.21173" lon="15.1306">
        <ele>214.779399</ele>
        <time>2022-09-12T02:30:52.075Z</time>
      </trkpt>
      <trkpt lat="48.21166" lon="15.13047">
        <ele>214.776464</ele>
        <time>2022-09-12T02:30:55.174Z</time>
      </trkpt>
      <trkpt lat="48.21141" lon="15.12911">
        <ele>214.689521</ele>
        <time>2022-09-12T02:31:18.906Z</time>
      </trkpt>
      <trkpt lat="48.21128" lon="15.12748">
        <ele>214.368521</ele>
        <time>2022-09-12T02:31:46.518Z</time>
      </trkpt>
      <trkpt lat="48.21091" lon="15.12592">
        <ele>214.244209</ele>
        <time>2022-09-12T02:32:15.242Z</time>
      </trkpt>
      <trkpt lat="48.21032" lon="15.12414">
        <ele>214.283267</ele>
        <time>2022-09-12T02:32:51.248Z</time>
      </trkpt>
      <trkpt lat="48.20981" lon="15.12299">
        <ele>214.361274</ele>
        <time>2022-09-12T02:33:16.246Z</time>
      </trkpt>
      <trkpt lat="48.2093" lon="15.12193">
        <ele>214.450579</ele>
        <time>2022-09-12T02:33:39.583Z</time>
      </trkpt>
      <trkpt lat="48.20846" lon="15.12045">
        <ele>214.687018</ele>
        <time>2022-09-12T02:34:15.258Z</time>
      </trkpt>
      <trkpt lat="48.2084" lon="15.12033">
        <ele>214.706289</ele>
        <time>2022-09-12T02:34:18.324Z</time>
      </trkpt>
      <trkpt lat="48.20827" lon="15.12015">
        <ele>214.73798</ele>
        <time>2022-09-12T02:34:23.224Z</time>
      </trkpt>
      <trkpt lat="48.20733" lon="15.11816">
        <ele>215.210359</ele>
        <time>2022-09-12T02:35:09.407Z</time>
      </trkpt>
      <trkpt lat="48.20648" lon="15.1167">
        <ele>215.261521</ele>
        <time>2022-09-12T02:35:44.349Z</time>
      </trkpt>
      <trkpt lat="48.20506" lon="15.11467">
        <ele>215.023295</ele>
        <time>2022-09-12T02:36:34.606Z</time>
      </trkpt>
      <trkpt lat="48.20349" lon="15.11274">
        <ele>214.779762</ele>
        <time>2022-09-12T02:37:27.737Z</time>
      </trkpt>
      <trkpt lat="48.20328" lon="15.11241">
        <ele>214.752037</ele>
        <time>2022-09-12T02:37:35.744Z</time>
      </trkpt>
      <trkpt lat="48.2031" lon="15.11213">
        <ele>214.777104</ele>
        <time>2022-09-12T02:37:42.791Z</time>
      </trkpt>
      <trkpt lat="48.20233" lon="15.11077">
        <ele>214.962502</ele>
        <time>2022-09-12T02:38:16.033Z</time>
      </trkpt>
      <trkpt lat="48.2018" lon="15.11006">
        <ele>215.044226</ele>
        <time>2022-09-12T02:38:35.272Z</time>
      </trkpt>
      <trkpt lat="48.20097" lon="15.10927">
        <ele>215.102975</ele>
        <time>2022-09-12T02:39:01.256Z</time>
      </trkpt>
      <trkpt lat="48.20051" lon="15.10898">
        <ele>215.133242</ele>
        <time>2022-09-12T02:39:14.930Z</time>
      </trkpt>
      <trkpt lat="48.20021" lon="15.10902">
        <ele>215.286619</ele>
        <time>2022-09-12T02:39:23.172Z</time>
      </trkpt>
      <trkpt lat="48.1987" lon="15.10822">
        <ele>216.142268</ele>
        <time>2022-09-12T02:40:10.492Z</time>
      </trkpt>
      <trkpt lat="48.19854" lon="15.10783">
        <ele>216.325062</ele>
        <time>2022-09-12T02:40:19.912Z</time>
      </trkpt>
      <trkpt lat="48.19817" lon="15.10752">
        <ele>216.574417</ele>
        <time>2022-09-12T02:40:32.936Z</time>
      </trkpt>
      <trkpt lat="48.19804" lon="15.10778">
        <ele>216.700442</ele>
        <time>2022-09-12T02:40:39.092Z</time>
      </trkpt>
      <trkpt lat="48.19782" lon="15.10776">
        <ele>216.831199</ele>
        <time>2022-09-12T02:40:45.677Z</time>
      </trkpt>
      <trkpt lat="48.19757" lon="15.10766">
        <ele>216.986494</ele>
        <time>2022-09-12T02:40:53.529Z</time>
      </trkpt>
      <trkpt lat="48.19706" lon="15.10724">
        <ele>217.227697</ele>
        <time>2022-09-12T02:41:10.626Z</time>
      </trkpt>
      <trkpt lat="48.197" lon="15.10721">
        <ele>217.242415</ele>
        <time>2022-09-12T02:41:12.509Z</time>
      </trkpt>
      <trkpt lat="48.19641" lon="15.10691">
        <ele>217.393554</ele>
        <time>2022-09-12T02:41:29.478Z</time>
      </trkpt>
      <trkpt lat="48.19596" lon="15.10682">
        <ele>217.502866</ele>
        <time>2022-09-12T02:41:41.960Z</time>
      </trkpt>
      <trkpt lat="48.19591" lon="15.1067">
        <ele>217.524284</ele>
        <time>2022-09-12T02:41:44.458Z</time>
      </trkpt>
      <trkpt lat="48.19588" lon="15.10623">
        <ele>217.610437</ele>
        <time>2022-09-12T02:41:53.241Z</time>
      </trkpt>
      <trkpt lat="48.1957" lon="15.10643">
        <ele>217.722206</ele>
        <time>2022-09-12T02:41:59.635Z</time>
      </trkpt>
      <trkpt lat="48.19548" lon="15.10655">
        <ele>217.834967</ele>
        <time>2022-09-12T02:42:06.230Z</time>
      </trkpt>
      <trkpt lat="48.19474" lon="15.10684">
        <ele>218.209815</ele>
        <time>2022-09-12T02:42:28.707Z</time>
      </trkpt>
      <trkpt lat="48.19369" lon="15.10702">
        <ele>218.915128</ele>
        <time>2022-09-12T02:43:00.245Z</time>
      </trkpt>
      <trkpt lat="48.19338" lon="15.10716">
        <ele>219.189037</ele>
        <time>2022-09-12T02:43:10.139Z</time>
      </trkpt>
      <trkpt lat="48.19258" lon="15.10745">
        <ele>219.889812</ele>
        <time>2022-09-12T02:43:35.621Z</time>
      </trkpt>
      <trkpt lat="48.19213" lon="15.10758">
        <ele>220.318474</ele>
        <time>2022-09-12T02:43:50.090Z</time>
      </trkpt>
      <trkpt lat="48.1919" lon="15.10765">
        <ele>220.541565</ele>
        <time>2022-09-12T02:43:57.500Z</time>
      </trkpt>
      <trkpt lat="48.19107" lon="15.10821">
        <ele>221.410629</ele>
        <time>2022-09-12T02:44:26.491Z</time>
      </trkpt>
      <trkpt lat="48.19075" lon="15.10703">
        <ele>221.87147</ele>
        <time>2022-09-12T02:44:52.355Z</time>
      </trkpt>
      <trkpt lat="48.19063" lon="15.10646">
        <ele>221.987714</ele>
        <time>2022-09-12T02:45:03.541Z</time>
      </trkpt>
      <trkpt lat="48.19053" lon="15.10587">
        <ele>222.105145</ele>
        <time>2022-09-12T02:45:14.310Z</time>
      </trkpt>
      <trkpt lat="48.19049" lon="15.10563">
        <ele>222.154225</ele>
        <time>2022-09-12T02:45:18.764Z</time>
      </trkpt>
      <trkpt lat="48.19042" lon="15.10524">
        <ele>222.231777</ele>
        <time>2022-09-12T02:45:25.790Z</time>
      </trkpt>
      <trkpt lat="48.19036" lon="15.10507">
        <ele>222.26942</ele>
        <time>2022-09-12T02:45:29.186Z</time>
      </trkpt>
      <trkpt lat="48.19038" lon="15.10477">
        <ele>222.327839</ele>
        <time>2022-09-12T02:45:34.460Z</time>
      </trkpt>
      <trkpt lat="48.19039" lon="15.10459">
        <ele>222.362394</ele>
        <time>2022-09-12T02:45:37.555Z</time>
      </trkpt>
      <trkpt lat="48.19045" lon="15.10407">
        <ele>222.463927</ele>
        <time>2022-09-12T02:45:46.776Z</time>
      </trkpt>
      <trkpt lat="48.1905" lon="15.10383">
        <ele>222.512662</ele>
        <time>2022-09-12T02:45:51.198Z</time>
      </trkpt>
      <trkpt lat="48.1906" lon="15.10341">
        <ele>222.599432</ele>
        <time>2022-09-12T02:45:59.249Z</time>
      </trkpt>
      <trkpt lat="48.19104" lon="15.10176">
        <ele>223.688102</ele>
        <time>2022-09-12T02:46:36.200Z</time>
      </trkpt>
      <trkpt lat="48.19099" lon="15.10155">
        <ele>223.909714</ele>
        <time>2022-09-12T02:46:41.208Z</time>
      </trkpt>
      <trkpt lat="48.1909" lon="15.10112">
        <ele>224.363392</ele>
        <time>2022-09-12T02:46:51.783Z</time>
      </trkpt>
      <trkpt lat="48.19079" lon="15.10021">
        <ele>225.276625</ele>
        <time>2022-09-12T02:47:13.792Z</time>
      </trkpt>
      <trkpt lat="48.19063" lon="15.09883">
        <ele>226.648343</ele>
        <time>2022-09-12T02:47:47.789Z</time>
      </trkpt>
      <trkpt lat="48.19085" lon="15.09859">
        <ele>227.042361</ele>
        <time>2022-09-12T02:47:57.214Z</time>
      </trkpt>
      <trkpt lat="48.19105" lon="15.09851">
        <ele>227.351415</ele>
        <time>2022-09-12T02:48:04.347Z</time>
      </trkpt>
      <trkpt lat="48.19142" lon="15.09858">
        <ele>227.896219</ele>
        <time>2022-09-12T02:48:16.060Z</time>
      </trkpt>
      <trkpt lat="48.19113" lon="15.09583">
        <ele>228.170838</ele>
        <time>2022-09-12T02:49:08.864Z</time>
      </trkpt>
      <trkpt lat="48.19101" lon="15.09524">
        <ele>227.90892</ele>
        <time>2022-09-12T02:49:18.639Z</time>
      </trkpt>
      <trkpt lat="48.19047" lon="15.09325">
        <ele>226.809301</ele>
        <time>2022-09-12T02:49:53.463Z</time>
      </trkpt>
      <trkpt lat="48.19028" lon="15.09256">
        <ele>226.940553</ele>
        <time>2022-09-12T02:50:06.672Z</time>
      </trkpt>
      <trkpt lat="48.19019" lon="15.09217">
        <ele>227.025467</ele>
        <time>2022-09-12T02:50:14.613Z</time>
      </trkpt>
      <trkpt lat="48.18967" lon="15.09021">
        <ele>227.529321</ele>
        <time>2022-09-12T02:50:58.867Z</time>
      </trkpt>
      <trkpt lat="48.18964" lon="15.09009">
        <ele>227.573074</ele>
        <time>2022-09-12T02:51:01.611Z</time>
      </trkpt>
      <trkpt lat="48.18934" lon="15.08877">
        <ele>228.030876</ele>
        <time>2022-09-12T02:51:30.612Z</time>
      </trkpt>
      <trkpt lat="48.18919" lon="15.08809">
        <ele>228.218735</ele>
        <time>2022-09-12T02:51:44.170Z</time>
      </trkpt>
      <trkpt lat="48.189" lon="15.08733">
        <ele>227.970141</ele>
        <time>2022-09-12T02:51:58.317Z</time>
      </trkpt>
      <trkpt lat="48.18893" lon="15.08706">
        <ele>227.882701</ele>
        <time>2022-09-12T02:52:03.146Z</time>
      </trkpt>
      <trkpt lat="48.18874" lon="15.0863">
        <ele>227.631745</ele>
        <time>2022-09-12T02:52:16.894Z</time>
      </trkpt>
      <trkpt lat="48.18861" lon="15.08586">
        <ele>227.483936</ele>
        <time>2022-09-12T02:52:24.934Z</time>
      </trkpt>
      <trkpt lat="48.18821" lon="15.08452">
        <ele>226.862299</ele>
        <time>2022-09-12T02:52:49.783Z</time>
      </trkpt>
      <trkpt lat="48.18802" lon="15.08392">
        <ele>226.571804</ele>
        <time>2022-09-12T02:53:00.741Z</time>
      </trkpt>
      <trkpt lat="48.18789" lon="15.08311">
        <ele>226.200038</ele>
        <time>2022-09-12T02:53:14.830Z</time>
      </trkpt>
      <trkpt lat="48.18777" lon="15.08314">
        <ele>226.119122</ele>
        <time>2022-09-12T02:53:17.766Z</time>
      </trkpt>
      <trkpt lat="48.1876" lon="15.08288">
        <ele>225.962963</ele>
        <time>2022-09-12T02:53:24.208Z</time>
      </trkpt>
      <trkpt lat="48.18752" lon="15.08285">
        <ele>225.912577</ele>
        <time>2022-09-12T02:53:26.042Z</time>
      </trkpt>
      <trkpt lat="48.18745" lon="15.0827">
        <ele>225.833332</ele>
        <time>2022-09-12T02:53:30.288Z</time>
      </trkpt>
      <trkpt lat="48.18733" lon="15.08243">
        <ele>225.692194</ele>
        <time>2022-09-12T02:53:37.579Z</time>
      </trkpt>
      <trkpt lat="48.18726" lon="15.08203">
        <ele>225.518067</ele>
        <time>2022-09-12T02:53:46.947Z</time>
      </trkpt>
      <trkpt lat="48.18722" lon="15.08184">
        <ele>225.428665</ele>
        <time>2022-09-12T02:53:51.318Z</time>
      </trkpt>
      <trkpt lat="48.18723" lon="15.0814">
        <ele>225.24393</ele>
        <time>2022-09-12T02:54:00.823Z</time>
      </trkpt>
      <trkpt lat="48.18744" lon="15.08074">
        <ele>224.95551</ele>
        <time>2022-09-12T02:54:16.241Z</time>
      </trkpt>
      <trkpt lat="48.18775" lon="15.07989">
        <ele>224.623991</ele>
        <time>2022-09-12T02:54:36.147Z</time>
      </trkpt>
      <trkpt lat="48.18791" lon="15.07946">
        <ele>224.454949</ele>
        <time>2022-09-12T02:54:46.827Z</time>
      </trkpt>
      <trkpt lat="48.18802" lon="15.0791">
        <ele>224.317719</ele>
        <time>2022-09-12T02:54:56.160Z</time>
      </trkpt>
      <trkpt lat="48.18813" lon="15.07845">
        <ele>224.382688</ele>
        <time>2022-09-12T02:55:11.927Z</time>
      </trkpt>
      <trkpt lat="48.18823" lon="15.07812">
        <ele>224.987366</ele>
        <time>2022-09-12T02:55:20.522Z</time>
      </trkpt>
      <trkpt lat="48.18866" lon="15.07726">
        <ele>226.811216</ele>
        <time>2022-09-12T02:55:50.564Z</time>
      </trkpt>
      <trkpt lat="48.18883" lon="15.07695">
        <ele>227.496636</ele>
        <time>2022-09-12T02:56:04.046Z</time>
      </trkpt>
      <trkpt lat="48.18953" lon="15.07639">
        <ele>229.41715</ele>
        <time>2022-09-12T02:56:44.577Z</time>
      </trkpt>
      <trkpt lat="48.18962" lon="15.07634">
        <ele>229.627793</ele>
        <time>2022-09-12T02:56:49.073Z</time>
      </trkpt>
      <trkpt lat="48.19001" lon="15.07638">
        <ele>230.515762</ele>
        <time>2022-09-12T02:57:06.369Z</time>
      </trkpt>
      <trkpt lat="48.19006" lon="15.07639">
        <ele>230.631465</ele>
        <time>2022-09-12T02:57:09.153Z</time>
      </trkpt>
      <trkpt lat="48.19029" lon="15.07622">
        <ele>231.206249</ele>
        <time>2022-09-12T02:57:17.609Z</time>
      </trkpt>
      <trkpt lat="48.19058" lon="15.07552">
        <ele>232.440789</ele>
        <time>2022-09-12T02:57:36.875Z</time>
      </trkpt>
      <trkpt lat="48.19059" lon="15.07543">
        <ele>232.576228</ele>
        <time>2022-09-12T02:57:37.935Z</time>
      </trkpt>
      <trkpt lat="48.19145" lon="15.07362">
        <ele>229.917662</ele>
        <time>2022-09-12T02:58:09.066Z</time>
      </trkpt>
      <trkpt lat="48.19189" lon="15.07288">
        <ele>228.741525</ele>
        <time>2022-09-12T02:58:21.869Z</time>
      </trkpt>
      <trkpt lat="48.1921" lon="15.07257">
        <ele>228.314609</ele>
        <time>2022-09-12T02:58:28.313Z</time>
      </trkpt>
      <trkpt lat="48.19257" lon="15.07165">
        <ele>227.190499</ele>
        <time>2022-09-12T02:58:59.517Z</time>
      </trkpt>
      <trkpt lat="48.1931" lon="15.07064">
        <ele>226.613327</ele>
        <time>2022-09-12T02:59:35.421Z</time>
      </trkpt>
      <trkpt lat="48.19398" lon="15.06921">
        <ele>226.913323</ele>
        <time>2022-09-12T03:00:35.037Z</time>
      </trkpt>
      <trkpt lat="48.19436" lon="15.0685">
        <ele>227.692179</ele>
        <time>2022-09-12T03:01:05.825Z</time>
      </trkpt>
      <trkpt lat="48.19551" lon="15.06605">
        <ele>229.863408</ele>
        <time>2022-09-12T03:02:51.431Z</time>
      </trkpt>
      <trkpt lat="48.19591" lon="15.06507">
        <ele>230.085325</ele>
        <time>2022-09-12T03:03:25.396Z</time>
      </trkpt>
      <trkpt lat="48.19602" lon="15.06475">
        <ele>230.155032</ele>
        <time>2022-09-12T03:03:35.115Z</time>
      </trkpt>
      <trkpt lat="48.19648" lon="15.06275">
        <ele>227.96265</ele>
        <time>2022-09-12T03:04:28.663Z</time>
      </trkpt>
      <trkpt lat="48.19661" lon="15.06187">
        <ele>227.143591</ele>
        <time>2022-09-12T03:04:51.411Z</time>
      </trkpt>
      <trkpt lat="48.19679" lon="15.06106">
        <ele>227.164018</ele>
        <time>2022-09-12T03:05:14.509Z</time>
      </trkpt>
      <trkpt lat="48.19757" lon="15.05812">
        <ele>228.234887</ele>
        <time>2022-09-12T03:06:57.498Z</time>
      </trkpt>
      <trkpt lat="48.19777" lon="15.0569">
        <ele>229.086225</ele>
        <time>2022-09-12T03:07:40.089Z</time>
      </trkpt>
      <trkpt lat="48.1978" lon="15.05669">
        <ele>229.165699</ele>
        <time>2022-09-12T03:07:47.912Z</time>
      </trkpt>
      <trkpt lat="48.19821" lon="15.05339">
        <ele>230.222093</ele>
        <time>2022-09-12T03:09:31.339Z</time>
      </trkpt>
      <trkpt lat="48.19834" lon="15.05183">
        <ele>230.474396</ele>
        <time>2022-09-12T03:10:18.433Z</time>
      </trkpt>
      <trkpt lat="48.19838" lon="15.04928">
        <ele>230.89656</ele>
        <time>2022-09-12T03:11:37.289Z</time>
      </trkpt>
      <trkpt lat="48.1983" lon="15.04646">
        <ele>230.491094</ele>
        <time>2022-09-12T03:12:58.906Z</time>
      </trkpt>
      <trkpt lat="48.19838" lon="15.0448">
        <ele>230.573453</ele>
        <time>2022-09-12T03:13:45.273Z</time>
      </trkpt>
      <trkpt lat="48.19843" lon="15.04472">
        <ele>230.582604</ele>
        <time>2022-09-12T03:13:48.506Z</time>
      </trkpt>
      <trkpt lat="48.19849" lon="15.04417">
        <ele>230.631425</ele>
        <time>2022-09-12T03:14:07.294Z</time>
      </trkpt>
      <trkpt lat="48.19857" lon="15.04286">
        <ele>230.922263</ele>
        <time>2022-09-12T03:14:50.401Z</time>
      </trkpt>
      <trkpt lat="48.19861" lon="15.04282">
        <ele>230.948257</ele>
        <time>2022-09-12T03:14:53.073Z</time>
      </trkpt>
      <trkpt lat="48.19877" lon="15.04268">
        <ele>231.041868</ele>
        <time>2022-09-12T03:14:58.307Z</time>
      </trkpt>
      <trkpt lat="48.1988" lon="15.04262">
        <ele>231.065849</ele>
        <time>2022-09-12T03:14:59.765Z</time>
      </trkpt>
      <trkpt lat="48.19886" lon="15.0425">
        <ele>231.116104</ele>
        <time>2022-09-12T03:15:03.163Z</time>
      </trkpt>
      <trkpt lat="48.19897" lon="15.04118">
        <ele>231.556645</ele>
        <time>2022-09-12T03:15:28.739Z</time>
      </trkpt>
      <trkpt lat="48.19917" lon="15.04003">
        <ele>231.119575</ele>
        <time>2022-09-12T03:15:51.345Z</time>
      </trkpt>
      <trkpt lat="48.19917" lon="15.03946">
        <ele>230.891479</ele>
        <time>2022-09-12T03:16:00.185Z</time>
      </trkpt>
      <trkpt lat="48.19901" lon="15.03873">
        <ele>230.582345</ele>
        <time>2022-09-12T03:16:12.256Z</time>
      </trkpt>
      <trkpt lat="48.19901" lon="15.03837">
        <ele>230.470517</ele>
        <time>2022-09-12T03:16:17.994Z</time>
      </trkpt>
      <trkpt lat="48.19909" lon="15.0379">
        <ele>230.396543</ele>
        <time>2022-09-12T03:16:25.764Z</time>
      </trkpt>
      <trkpt lat="48.19902" lon="15.03655">
        <ele>230.188214</ele>
        <time>2022-09-12T03:16:49.170Z</time>
      </trkpt>
      <trkpt lat="48.19887" lon="15.03526">
        <ele>230.508837</ele>
        <time>2022-09-12T03:17:16.929Z</time>
      </trkpt>
      <trkpt lat="48.19879" lon="15.03474">
        <ele>230.908667</ele>
        <time>2022-09-12T03:17:29.002Z</time>
      </trkpt>
      <trkpt lat="48.19882" lon="15.03448">
        <ele>231.101802</ele>
        <time>2022-09-12T03:17:34.849Z</time>
      </trkpt>
      <trkpt lat="48.19891" lon="15.03421">
        <ele>231.330184</ele>
        <time>2022-09-12T03:17:41.812Z</time>
      </trkpt>
      <trkpt lat="48.19896" lon="15.03412">
        <ele>231.422089</ele>
        <time>2022-09-12T03:17:44.708Z</time>
      </trkpt>
      <trkpt lat="48.19926" lon="15.03345">
        <ele>232.023998</ele>
        <time>2022-09-12T03:18:03.365Z</time>
      </trkpt>
      <trkpt lat="48.19932" lon="15.03313">
        <ele>232.1536</ele>
        <time>2022-09-12T03:18:10.952Z</time>
      </trkpt>
      <trkpt lat="48.19899" lon="15.0316">
        <ele>232.579138</ele>
        <time>2022-09-12T03:18:44.553Z</time>
      </trkpt>
      <trkpt lat="48.19887" lon="15.03113">
        <ele>232.710852</ele>
        <time>2022-09-12T03:18:53.050Z</time>
      </trkpt>
      <trkpt lat="48.19888" lon="15.0304">
        <ele>232.650164</ele>
        <time>2022-09-12T03:19:05.382Z</time>
      </trkpt>
      <trkpt lat="48.19879" lon="15.02997">
        <ele>232.468481</ele>
        <time>2022-09-12T03:19:12.934Z</time>
      </trkpt>
      <trkpt lat="48.19856" lon="15.02914">
        <ele>232.110688</ele>
        <time>2022-09-12T03:19:27.846Z</time>
      </trkpt>
      <trkpt lat="48.19813" lon="15.02776">
        <ele>231.6233</ele>
        <time>2022-09-12T03:19:53.647Z</time>
      </trkpt>
      <trkpt lat="48.19791" lon="15.02702">
        <ele>231.469622</ele>
        <time>2022-09-12T03:20:08.812Z</time>
      </trkpt>
      <trkpt lat="48.19772" lon="15.02641">
        <ele>231.340284</ele>
        <time>2022-09-12T03:20:21.693Z</time>
      </trkpt>
      <trkpt lat="48.19732" lon="15.02542">
        <ele>230.925482</ele>
        <time>2022-09-12T03:20:41.359Z</time>
      </trkpt>
      <trkpt lat="48.19721" lon="15.02487">
        <ele>230.598744</ele>
        <time>2022-09-12T03:20:50.665Z</time>
      </trkpt>
      <trkpt lat="48.19686" lon="15.02414">
        <ele>230.079401</ele>
        <time>2022-09-12T03:21:05.207Z</time>
      </trkpt>
      <trkpt lat="48.19679" lon="15.02399">
        <ele>229.970774</ele>
        <time>2022-09-12T03:21:08.121Z</time>
      </trkpt>
      <trkpt lat="48.1965" lon="15.02339">
        <ele>229.575739</ele>
        <time>2022-09-12T03:21:19.878Z</time>
      </trkpt>
      <trkpt lat="48.19638" lon="15.02233">
        <ele>229.130239</ele>
        <time>2022-09-12T03:21:37.185Z</time>
      </trkpt>
      <trkpt lat="48.19632" lon="15.022">
        <ele>228.986712</ele>
        <time>2022-09-12T03:21:42.957Z</time>
      </trkpt>
      <trkpt lat="48.19602" lon="15.0212">
        <ele>228.600847</ele>
        <time>2022-09-12T03:21:59.887Z</time>
      </trkpt>
      <trkpt lat="48.19574" lon="15.01982">
        <ele>228.595712</ele>
        <time>2022-09-12T03:22:26.373Z</time>
      </trkpt>
      <trkpt lat="48.19557" lon="15.01905">
        <ele>228.634707</ele>
        <time>2022-09-12T03:22:42.365Z</time>
      </trkpt>
      <trkpt lat="48.19549" lon="15.01866">
        <ele>228.654112</ele>
        <time>2022-09-12T03:22:50.318Z</time>
      </trkpt>
      <trkpt lat="48.19516" lon="15.01698">
        <ele>228.133348</ele>
        <time>2022-09-12T03:23:21.622Z</time>
      </trkpt>
      <trkpt lat="48.19502" lon="15.0158">
        <ele>227.719965</ele>
        <time>2022-09-12T03:23:40.835Z</time>
      </trkpt>
      <trkpt lat="48.19496" lon="15.0156">
        <ele>227.627582</ele>
        <time>2022-09-12T03:23:44.468Z</time>
      </trkpt>
      <trkpt lat="48.19483" lon="15.01545">
        <ele>227.524773</ele>
        <time>2022-09-12T03:23:48.422Z</time>
      </trkpt>
      <trkpt lat="48.19456" lon="15.01544">
        <ele>227.352496</ele>
        <time>2022-09-12T03:23:54.907Z</time>
      </trkpt>
      <trkpt lat="48.19449" lon="15.01536">
        <ele>227.301112</ele>
        <time>2022-09-12T03:23:58.657Z</time>
      </trkpt>
      <trkpt lat="48.19449" lon="15.01498">
        <ele>227.144877</ele>
        <time>2022-09-12T03:24:08.688Z</time>
      </trkpt>
      <trkpt lat="48.19463" lon="15.01283">
        <ele>227.073691</ele>
        <time>2022-09-12T03:25:10.908Z</time>
      </trkpt>
      <trkpt lat="48.19462" lon="15.01144">
        <ele>227.792486</ele>
        <time>2022-09-12T03:25:58.839Z</time>
      </trkpt>
      <trkpt lat="48.19496" lon="15.00773">
        <ele>229.556679</ele>
        <time>2022-09-12T03:28:01.645Z</time>
      </trkpt>
      <trkpt lat="48.19523" lon="15.00605">
        <ele>229.202223</ele>
        <time>2022-09-12T03:28:49.029Z</time>
      </trkpt>
      <trkpt lat="48.19588" lon="15.00321">
        <ele>228.024292</ele>
        <time>2022-09-12T03:30:11.840Z</time>
      </trkpt>
      <trkpt lat="48.19591" lon="15.00309">
        <ele>228.016381</ele>
        <time>2022-09-12T03:30:15.580Z</time>
      </trkpt>
      <trkpt lat="48.19604" lon="15.00246">
        <ele>228.091182</ele>
        <time>2022-09-12T03:30:35.499Z</time>
      </trkpt>
      <trkpt lat="48.19651" lon="14.99873">
        <ele>228.533435</ele>
        <time>2022-09-12T03:32:31.999Z</time>
      </trkpt>
      <trkpt lat="48.19657" lon="14.99847">
        <ele>228.566945</ele>
        <time>2022-09-12T03:32:40.295Z</time>
      </trkpt>
      <trkpt lat="48.1967" lon="14.99594">
        <ele>228.496808</ele>
        <time>2022-09-12T03:33:54.597Z</time>
      </trkpt>
      <trkpt lat="48.19725" lon="14.99072">
        <ele>228.018012</ele>
        <time>2022-09-12T03:36:29.266Z</time>
      </trkpt>
      <trkpt lat="48.19763" lon="14.98646">
        <ele>227.377945</ele>
        <time>2022-09-12T03:38:32.912Z</time>
      </trkpt>
      <trkpt lat="48.19795" lon="14.98324">
        <ele>227.5836</ele>
        <time>2022-09-12T03:40:10.295Z</time>
      </trkpt>
      <trkpt lat="48.19798" lon="14.98254">
        <ele>227.693241</ele>
        <time>2022-09-12T03:40:31.907Z</time>
      </trkpt>
      <trkpt lat="48.19837" lon="14.98083">
        <ele>228.137431</ele>
        <time>2022-09-12T03:41:27.685Z</time>
      </trkpt>
      <trkpt lat="48.19837" lon="14.9804">
        <ele>228.267591</ele>
        <time>2022-09-12T03:41:41.162Z</time>
      </trkpt>
      <trkpt lat="48.19851" lon="14.97965">
        <ele>228.498904</ele>
        <time>2022-09-12T03:42:05.306Z</time>
      </trkpt>
      <trkpt lat="48.19875" lon="14.97875">
        <ele>228.731522</ele>
        <time>2022-09-12T03:42:35.929Z</time>
      </trkpt>
      <trkpt lat="48.19909" lon="14.97789">
        <ele>228.931259</ele>
        <time>2022-09-12T03:43:07.453Z</time>
      </trkpt>
      <trkpt lat="48.19966" lon="14.97677">
        <ele>229.078016</ele>
        <time>2022-09-12T03:43:49.018Z</time>
      </trkpt>
      <trkpt lat="48.19988" lon="14.97647">
        <ele>228.971665</ele>
        <time>2022-09-12T03:44:01.879Z</time>
      </trkpt>
      <trkpt lat="48.20016" lon="14.97571">
        <ele>228.764338</ele>
        <time>2022-09-12T03:44:26.884Z</time>
      </trkpt>
      <trkpt lat="48.20032" lon="14.97489">
        <ele>228.563077</ele>
        <time>2022-09-12T03:44:50.757Z</time>
      </trkpt>
      <trkpt lat="48.20081" lon="14.97346">
        <ele>228.142289</ele>
        <time>2022-09-12T03:45:18.059Z</time>
      </trkpt>
      <trkpt lat="48.20117" lon="14.97226">
        <ele>227.792475</ele>
        <time>2022-09-12T03:45:41.578Z</time>
      </trkpt>
      <trkpt lat="48.20163" lon="14.97007">
        <ele>227.439246</ele>
        <time>2022-09-12T03:46:22.468Z</time>
      </trkpt>
      <trkpt lat="48.20223" lon="14.96806">
        <ele>227.287146</ele>
        <time>2022-09-12T03:47:02.333Z</time>
      </trkpt>
      <trkpt lat="48.20272" lon="14.96576">
        <ele>227.355348</ele>
        <time>2022-09-12T03:47:47.290Z</time>
      </trkpt>
      <trkpt lat="48.20284" lon="14.96528">
        <ele>227.39428</ele>
        <time>2022-09-12T03:47:57.072Z</time>
      </trkpt>
      <trkpt lat="48.20342" lon="14.96392">
        <ele>227.699893</ele>
        <time>2022-09-12T03:48:28.378Z</time>
      </trkpt>
      <trkpt lat="48.20393" lon="14.96296">
        <ele>228.029406</ele>
        <time>2022-09-12T03:48:58.908Z</time>
      </trkpt>
      <trkpt lat="48.20497" lon="14.96149">
        <ele>228.886099</ele>
        <time>2022-09-12T03:49:52.416Z</time>
      </trkpt>
      <trkpt lat="48.20595" lon="14.96052">
        <ele>229.739716</ele>
        <time>2022-09-12T03:50:38.875Z</time>
      </trkpt>
      <trkpt lat="48.20638" lon="14.9602">
        <ele>230.139305</ele>
        <time>2022-09-12T03:50:57.296Z</time>
      </trkpt>
      <trkpt lat="48.20649" lon="14.9602">
        <ele>230.236216</ele>
        <time>2022-09-12T03:51:01.589Z</time>
      </trkpt>
      <trkpt lat="48.20653" lon="14.96026">
        <ele>230.279519</ele>
        <time>2022-09-12T03:51:04.281Z</time>
      </trkpt>
      <trkpt lat="48.20691" lon="14.9599">
        <ele>230.653166</ele>
        <time>2022-09-12T03:51:17.827Z</time>
      </trkpt>
      <trkpt lat="48.20767" lon="14.95922">
        <ele>231.538463</ele>
        <time>2022-09-12T03:51:44.450Z</time>
      </trkpt>
      <trkpt lat="48.20867" lon="14.95824">
        <ele>232.841439</ele>
        <time>2022-09-12T03:52:22.380Z</time>
      </trkpt>
      <trkpt lat="48.20918" lon="14.95786">
        <ele>233.939942</ele>
        <time>2022-09-12T03:52:43.551Z</time>
      </trkpt>
      <trkpt lat="48.20984" lon="14.95753">
        <ele>235.28369</ele>
        <time>2022-09-12T03:53:09.704Z</time>
      </trkpt>
      <trkpt lat="48.21037" lon="14.95737">
        <ele>236.280182</ele>
        <time>2022-09-12T03:53:29.546Z</time>
      </trkpt>
      <trkpt lat="48.21114" lon="14.95712">
        <ele>236.762875</ele>
        <time>2022-09-12T03:53:55.139Z</time>
      </trkpt>
      <trkpt lat="48.21198" lon="14.95652">
        <ele>237.340256</ele>
        <time>2022-09-12T03:54:21.230Z</time>
      </trkpt>
      <trkpt lat="48.21229" lon="14.95636">
        <ele>236.962396</ele>
        <time>2022-09-12T03:54:28.700Z</time>
      </trkpt>
      <trkpt lat="48.21321" lon="14.95608">
        <ele>235.597662</ele>
        <time>2022-09-12T03:54:49.500Z</time>
      </trkpt>
      <trkpt lat="48.21386" lon="14.95566">
        <ele>234.441794</ele>
        <time>2022-09-12T03:55:04.614Z</time>
      </trkpt>
      <trkpt lat="48.21497" lon="14.9552">
        <ele>231.648077</ele>
        <time>2022-09-12T03:55:27.562Z</time>
      </trkpt>
      <trkpt lat="48.21555" lon="14.95473">
        <ele>230.268878</ele>
        <time>2022-09-12T03:55:41.308Z</time>
      </trkpt>
      <trkpt lat="48.21618" lon="14.95424">
        <ele>229.694273</ele>
        <time>2022-09-12T03:55:56.863Z</time>
      </trkpt>
      <trkpt lat="48.21768" lon="14.95328">
        <ele>229.772015</ele>
        <time>2022-09-12T03:56:40.274Z</time>
      </trkpt>
      <trkpt lat="48.21884" lon="14.95223">
        <ele>231.944038</ele>
        <time>2022-09-12T03:57:28.430Z</time>
      </trkpt>
      <trkpt lat="48.21926" lon="14.95201">
        <ele>233.471486</ele>
        <time>2022-09-12T03:57:47.818Z</time>
      </trkpt>
      <trkpt lat="48.22032" lon="14.95173">
        <ele>237.109326</ele>
        <time>2022-09-12T03:58:36.718Z</time>
      </trkpt>
      <trkpt lat="48.22089" lon="14.95143">
        <ele>238.884244</ele>
        <time>2022-09-12T03:59:04.198Z</time>
      </trkpt>
      <trkpt lat="48.22164" lon="14.95082">
        <ele>241.402165</ele>
        <time>2022-09-12T03:59:38.579Z</time>
      </trkpt>
      <trkpt lat="48.22309" lon="14.94952">
        <ele>244.96606</ele>
        <time>2022-09-12T04:00:38.413Z</time>
      </trkpt>
      <trkpt lat="48.22373" lon="14.94902">
        <ele>246.251422</ele>
        <time>2022-09-12T04:01:03.936Z</time>
      </trkpt>
      <trkpt lat="48.2254" lon="14.94782">
        <ele>248.111683</ele>
        <time>2022-09-12T04:02:09.880Z</time>
      </trkpt>
      <trkpt lat="48.2269" lon="14.94739">
        <ele>244.965703</ele>
        <time>2022-09-12T04:02:40.507Z</time>
      </trkpt>
      <trkpt lat="48.22703" lon="14.9471">
        <ele>243.853528</ele>
        <time>2022-09-12T04:02:44.784Z</time>
      </trkpt>
      <trkpt lat="48.22868" lon="14.94515">
        <ele>234.831292</ele>
        <time>2022-09-12T04:03:24.644Z</time>
      </trkpt>
      <trkpt lat="48.22887" lon="14.94501">
        <ele>234.204372</ele>
        <time>2022-09-12T04:03:29.189Z</time>
      </trkpt>
      <trkpt lat="48.2297" lon="14.94322">
        <ele>230.670674</ele>
        <time>2022-09-12T04:04:00.378Z</time>
      </trkpt>
      <trkpt lat="48.22995" lon="14.94277">
        <ele>230.260922</ele>
        <time>2022-09-12T04:04:08.674Z</time>
      </trkpt>
      <trkpt lat="48.23028" lon="14.94223">
        <ele>229.74963</ele>
        <time>2022-09-12T04:04:19.960Z</time>
      </trkpt>
      <trkpt lat="48.23046" lon="14.94195">
        <ele>229.473977</ele>
        <time>2022-09-12T04:04:27.201Z</time>
      </trkpt>
      <trkpt lat="48.23075" lon="14.94154">
        <ele>229.156864</ele>
        <time>2022-09-12T04:04:38.255Z</time>
      </trkpt>
      <trkpt lat="48.23084" lon="14.9414">
        <ele>229.104101</ele>
        <time>2022-09-12T04:04:42.111Z</time>
      </trkpt>
      <trkpt lat="48.23087" lon="14.94136">
        <ele>229.087226</ele>
        <time>2022-09-12T04:04:43.229Z</time>
      </trkpt>
      <trkpt lat="48.23093" lon="14.94129">
        <ele>229.057898</ele>
        <time>2022-09-12T04:04:44.765Z</time>
      </trkpt>
      <trkpt lat="48.23126" lon="14.94087">
        <ele>228.885492</ele>
        <time>2022-09-12T04:04:54.649Z</time>
      </trkpt>
      <trkpt lat="48.23143" lon="14.9406">
        <ele>228.784507</ele>
        <time>2022-09-12T04:05:01.659Z</time>
      </trkpt>
      <trkpt lat="48.23161" lon="14.94021">
        <ele>228.659497</ele>
        <time>2022-09-12T04:05:09.778Z</time>
      </trkpt>
      <trkpt lat="48.23176" lon="14.93963">
        <ele>228.493374</ele>
        <time>2022-09-12T04:05:20.113Z</time>
      </trkpt>
      <trkpt lat="48.23203" lon="14.93765">
        <ele>228.106059</ele>
        <time>2022-09-12T04:05:51.768Z</time>
      </trkpt>
      <trkpt lat="48.23203" lon="14.93537">
        <ele>229.438032</ele>
        <time>2022-09-12T04:06:39.748Z</time>
      </trkpt>
      <trkpt lat="48.23227" lon="14.93395">
        <ele>230.885825</ele>
        <time>2022-09-12T04:07:14.947Z</time>
      </trkpt>
      <trkpt lat="48.23236" lon="14.93165">
        <ele>233.733875</ele>
        <time>2022-09-12T04:08:10.179Z</time>
      </trkpt>
      <trkpt lat="48.23231" lon="14.93069">
        <ele>234.242964</ele>
        <time>2022-09-12T04:08:31.305Z</time>
      </trkpt>
      <trkpt lat="48.23233" lon="14.9298">
        <ele>234.696714</ele>
        <time>2022-09-12T04:08:50.383Z</time>
      </trkpt>
      <trkpt lat="48.23259" lon="14.92801">
        <ele>234.261108</ele>
        <time>2022-09-12T04:09:21.217Z</time>
      </trkpt>
      <trkpt lat="48.23256" lon="14.92595">
        <ele>232.47773</ele>
        <time>2022-09-12T04:09:50.284Z</time>
      </trkpt>
      <trkpt lat="48.2326" lon="14.92523">
        <ele>232.013982</ele>
        <time>2022-09-12T04:10:00.210Z</time>
      </trkpt>
      <trkpt lat="48.23282" lon="14.92288">
        <ele>231.267559</ele>
        <time>2022-09-12T04:10:41.027Z</time>
      </trkpt>
      <trkpt lat="48.23301" lon="14.92156">
        <ele>231.832287</ele>
        <time>2022-09-12T04:11:10.650Z</time>
      </trkpt>
      <trkpt lat="48.23317" lon="14.91957">
        <ele>231.559445</ele>
        <time>2022-09-12T04:11:48.799Z</time>
      </trkpt>
      <trkpt lat="48.23335" lon="14.91825">
        <ele>231.019188</ele>
        <time>2022-09-12T04:12:08.498Z</time>
      </trkpt>
      <trkpt lat="48.23344" lon="14.91678">
        <ele>229.506862</ele>
        <time>2022-09-12T04:12:29.245Z</time>
      </trkpt>
      <trkpt lat="48.23369" lon="14.9155">
        <ele>228.285584</ele>
        <time>2022-09-12T04:12:48.955Z</time>
      </trkpt>
      <trkpt lat="48.23365" lon="14.91423">
        <ele>228.357023</ele>
        <time>2022-09-12T04:13:11.385Z</time>
      </trkpt>
      <trkpt lat="48.23342" lon="14.91292">
        <ele>228.437573</ele>
        <time>2022-09-12T04:13:38.498Z</time>
      </trkpt>
      <trkpt lat="48.23335" lon="14.91198">
        <ele>228.561811</ele>
        <time>2022-09-12T04:13:57.340Z</time>
      </trkpt>
      <trkpt lat="48.23324" lon="14.9107">
        <ele>228.731524</ele>
        <time>2022-09-12T04:14:20.573Z</time>
      </trkpt>
      <trkpt lat="48.23304" lon="14.90961">
        <ele>228.652495</ele>
        <time>2022-09-12T04:14:39.383Z</time>
      </trkpt>
      <trkpt lat="48.23294" lon="14.90914">
        <ele>228.563565</ele>
        <time>2022-09-12T04:14:47.319Z</time>
      </trkpt>
      <trkpt lat="48.23284" lon="14.90873">
        <ele>228.484795</ele>
        <time>2022-09-12T04:14:54.659Z</time>
      </trkpt>
      <trkpt lat="48.23261" lon="14.90811">
        <ele>228.356633</ele>
        <time>2022-09-12T04:15:07.067Z</time>
      </trkpt>
      <trkpt lat="48.23252" lon="14.90787">
        <ele>228.307595</ele>
        <time>2022-09-12T04:15:11.810Z</time>
      </trkpt>
      <trkpt lat="48.23242" lon="14.90752">
        <ele>228.391725</ele>
        <time>2022-09-12T04:15:18.359Z</time>
      </trkpt>
      <trkpt lat="48.23237" lon="14.90698">
        <ele>228.55471</ele>
        <time>2022-09-12T04:15:27.825Z</time>
      </trkpt>
      <trkpt lat="48.23237" lon="14.9057">
        <ele>228.932807</ele>
        <time>2022-09-12T04:15:52.824Z</time>
      </trkpt>
      <trkpt lat="48.23235" lon="14.90557">
        <ele>228.972932</ele>
        <time>2022-09-12T04:15:55.680Z</time>
      </trkpt>
      <trkpt lat="48.23225" lon="14.90524">
        <ele>229.08029</ele>
        <time>2022-09-12T04:16:03.935Z</time>
      </trkpt>
      <trkpt lat="48.2322" lon="14.90512">
        <ele>229.123936</ele>
        <time>2022-09-12T04:16:06.875Z</time>
      </trkpt>
      <trkpt lat="48.23198" lon="14.90447">
        <ele>229.357658</ele>
        <time>2022-09-12T04:16:22.298Z</time>
      </trkpt>
      <trkpt lat="48.23193" lon="14.90414">
        <ele>229.46752</ele>
        <time>2022-09-12T04:16:28.727Z</time>
      </trkpt>
      <trkpt lat="48.23188" lon="14.90302">
        <ele>229.831173</ele>
        <time>2022-09-12T04:16:49.745Z</time>
      </trkpt>
      <trkpt lat="48.23188" lon="14.90286">
        <ele>229.881196</ele>
        <time>2022-09-12T04:16:52.951Z</time>
      </trkpt>
      <trkpt lat="48.23183" lon="14.90234">
        <ele>229.831566</ele>
        <time>2022-09-12T04:17:02.514Z</time>
      </trkpt>
      <trkpt lat="48.23176" lon="14.90208">
        <ele>229.683661</ele>
        <time>2022-09-12T04:17:07.355Z</time>
      </trkpt>
      <trkpt lat="48.23101" lon="14.89977">
        <ele>228.41027</ele>
        <time>2022-09-12T04:17:46.601Z</time>
      </trkpt>
      <trkpt lat="48.23078" lon="14.89925">
        <ele>228.152537</ele>
        <time>2022-09-12T04:17:56.149Z</time>
      </trkpt>
      <trkpt lat="48.2305" lon="14.89875">
        <ele>227.884525</ele>
        <time>2022-09-12T04:18:06.470Z</time>
      </trkpt>
      <trkpt lat="48.2296" lon="14.89771">
        <ele>227.630044</ele>
        <time>2022-09-12T04:18:36.371Z</time>
      </trkpt>
      <trkpt lat="48.22935" lon="14.89728">
        <ele>227.765673</ele>
        <time>2022-09-12T04:18:46.828Z</time>
      </trkpt>
      <trkpt lat="48.22917" lon="14.89669">
        <ele>227.918404</ele>
        <time>2022-09-12T04:18:59.307Z</time>
      </trkpt>
      <trkpt lat="48.22899" lon="14.89576">
        <ele>228.242564</ele>
        <time>2022-09-12T04:19:19.248Z</time>
      </trkpt>
      <trkpt lat="48.22894" lon="14.89511">
        <ele>228.74461</ele>
        <time>2022-09-12T04:19:32.921Z</time>
      </trkpt>
      <trkpt lat="48.22897" lon="14.89442">
        <ele>229.265486</ele>
        <time>2022-09-12T04:19:46.247Z</time>
      </trkpt>
      <trkpt lat="48.229" lon="14.89414">
        <ele>229.484878</ele>
        <time>2022-09-12T04:19:51.643Z</time>
      </trkpt>
      <trkpt lat="48.22907" lon="14.89352">
        <ele>229.962999</ele>
        <time>2022-09-12T04:20:05.856Z</time>
      </trkpt>
      <trkpt lat="48.22923" lon="14.89275">
        <ele>231.32269</ele>
        <time>2022-09-12T04:20:25.984Z</time>
      </trkpt>
      <trkpt lat="48.2295" lon="14.89219">
        <ele>232.80744</ele>
        <time>2022-09-12T04:20:44.518Z</time>
      </trkpt>
      <trkpt lat="48.2298" lon="14.89184">
        <ele>234.030828</ele>
        <time>2022-09-12T04:21:00.842Z</time>
      </trkpt>
      <trkpt lat="48.23115" lon="14.89085">
        <ele>238.636201</ele>
        <time>2022-09-12T04:22:12.190Z</time>
      </trkpt>
      <trkpt lat="48.23132" lon="14.89071">
        <ele>239.207284</ele>
        <time>2022-09-12T04:22:20.119Z</time>
      </trkpt>
      <trkpt lat="48.23174" lon="14.89045">
        <ele>240.542805</ele>
        <time>2022-09-12T04:22:36.815Z</time>
      </trkpt>
      <trkpt lat="48.2325" lon="14.88999">
        <ele>239.939272</ele>
        <time>2022-09-12T04:23:01.127Z</time>
      </trkpt>
      <trkpt lat="48.23303" lon="14.88941">
        <ele>238.464404</ele>
        <time>2022-09-12T04:23:14.220Z</time>
      </trkpt>
      <trkpt lat="48.23318" lon="14.88918">
        <ele>237.987782</ele>
        <time>2022-09-12T04:23:18.193Z</time>
      </trkpt>
      <trkpt lat="48.23332" lon="14.88889">
        <ele>237.456784</ele>
        <time>2022-09-12T04:23:22.509Z</time>
      </trkpt>
      <trkpt lat="48.23341" lon="14.88866">
        <ele>236.930728</ele>
        <time>2022-09-12T04:23:25.688Z</time>
      </trkpt>
      <trkpt lat="48.23368" lon="14.88779">
        <ele>234.195291</ele>
        <time>2022-09-12T04:23:37.130Z</time>
      </trkpt>
      <trkpt lat="48.23372" lon="14.88759">
        <ele>233.582557</ele>
        <time>2022-09-12T04:23:39.725Z</time>
      </trkpt>
      <trkpt lat="48.23376" lon="14.88736">
        <ele>232.918004</ele>
        <time>2022-09-12T04:23:42.635Z</time>
      </trkpt>
      <trkpt lat="48.23378" lon="14.8872">
        <ele>232.434596</ele>
        <time>2022-09-12T04:23:44.766Z</time>
      </trkpt>
      <trkpt lat="48.2338" lon="14.88671">
        <ele>231.03378</ele>
        <time>2022-09-12T04:23:50.833Z</time>
      </trkpt>
      <trkpt lat="48.23379" lon="14.88662">
        <ele>230.797103</ele>
        <time>2022-09-12T04:23:51.882Z</time>
      </trkpt>
      <trkpt lat="48.23366" lon="14.88554">
        <ele>229.322082</ele>
        <time>2022-09-12T04:24:06.314Z</time>
      </trkpt>
      <trkpt lat="48.23359" lon="14.88492">
        <ele>229.147794</ele>
        <time>2022-09-12T04:24:16.302Z</time>
      </trkpt>
      <trkpt lat="48.23357" lon="14.88477">
        <ele>229.105923</ele>
        <time>2022-09-12T04:24:19.148Z</time>
      </trkpt>
      <trkpt lat="48.23349" lon="14.88404">
        <ele>228.898718</ele>
        <time>2022-09-12T04:24:34.248Z</time>
      </trkpt>
      <trkpt lat="48.23346" lon="14.88328">
        <ele>228.998267</ele>
        <time>2022-09-12T04:24:52.140Z</time>
      </trkpt>
      <trkpt lat="48.23352" lon="14.88162">
        <ele>230.753247</ele>
        <time>2022-09-12T04:25:32.675Z</time>
      </trkpt>
      <trkpt lat="48.23346" lon="14.88091">
        <ele>231.511945</ele>
        <time>2022-09-12T04:25:47.119Z</time>
      </trkpt>
      <trkpt lat="48.23339" lon="14.88046">
        <ele>231.632192</ele>
        <time>2022-09-12T04:25:56.728Z</time>
      </trkpt>
      <trkpt lat="48.23331" lon="14.88011">
        <ele>231.65877</ele>
        <time>2022-09-12T04:26:04.225Z</time>
      </trkpt>
      <trkpt lat="48.2332" lon="14.87974">
        <ele>231.689191</ele>
        <time>2022-09-12T04:26:13.838Z</time>
      </trkpt>
      <trkpt lat="48.23297" lon="14.87916">
        <ele>231.738258</ele>
        <time>2022-09-12T04:26:25.326Z</time>
      </trkpt>
      <trkpt lat="48.23263" lon="14.87835">
        <ele>231.7769</ele>
        <time>2022-09-12T04:26:40.452Z</time>
      </trkpt>
      <trkpt lat="48.23243" lon="14.87791">
        <ele>231.601302</ele>
        <time>2022-09-12T04:26:48.363Z</time>
      </trkpt>
      <trkpt lat="48.23219" lon="14.87739">
        <ele>231.394241</ele>
        <time>2022-09-12T04:26:57.700Z</time>
      </trkpt>
      <trkpt lat="48.23157" lon="14.87643">
        <ele>230.953491</ele>
        <time>2022-09-12T04:27:23.009Z</time>
      </trkpt>
      <trkpt lat="48.2314" lon="14.87618">
        <ele>230.959558</ele>
        <time>2022-09-12T04:27:28.740Z</time>
      </trkpt>
      <trkpt lat="48.23108" lon="14.87553">
        <ele>231.106423</ele>
        <time>2022-09-12T04:27:42.036Z</time>
      </trkpt>
      <trkpt lat="48.23092" lon="14.87489">
        <ele>231.230238</ele>
        <time>2022-09-12T04:27:54.741Z</time>
      </trkpt>
      <trkpt lat="48.23084" lon="14.87447">
        <ele>231.310709</ele>
        <time>2022-09-12T04:28:04.035Z</time>
      </trkpt>
      <trkpt lat="48.23074" lon="14.87413">
        <ele>231.379163</ele>
        <time>2022-09-12T04:28:11.862Z</time>
      </trkpt>
      <trkpt lat="48.23061" lon="14.87384">
        <ele>231.427681</ele>
        <time>2022-09-12T04:28:19.033Z</time>
      </trkpt>
      <trkpt lat="48.22977" lon="14.87266">
        <ele>231.607704</ele>
        <time>2022-09-12T04:28:51.564Z</time>
      </trkpt>
      <trkpt lat="48.2292" lon="14.87189">
        <ele>231.451906</ele>
        <time>2022-09-12T04:29:10.706Z</time>
      </trkpt>
      <trkpt lat="48.22902" lon="14.87157">
        <ele>231.181763</ele>
        <time>2022-09-12T04:29:17.329Z</time>
      </trkpt>
      <trkpt lat="48.22891" lon="14.87126">
        <ele>230.957056</ele>
        <time>2022-09-12T04:29:22.521Z</time>
      </trkpt>
      <trkpt lat="48.22879" lon="14.87067">
        <ele>230.554203</ele>
        <time>2022-09-12T04:29:31.551Z</time>
      </trkpt>
      <trkpt lat="48.22858" lon="14.86802">
        <ele>229.664949</ele>
        <time>2022-09-12T04:30:13.362Z</time>
      </trkpt>
      <trkpt lat="48.22832" lon="14.86312">
        <ele>231.006631</ele>
        <time>2022-09-12T04:31:54.202Z</time>
      </trkpt>
      <trkpt lat="48.22821" lon="14.8616">
        <ele>230.867657</ele>
        <time>2022-09-12T04:32:18.861Z</time>
      </trkpt>
      <trkpt lat="48.2282" lon="14.86144">
        <ele>230.724408</ele>
        <time>2022-09-12T04:32:21.184Z</time>
      </trkpt>
      <trkpt lat="48.22818" lon="14.86122">
        <ele>230.518685</ele>
        <time>2022-09-12T04:32:24.376Z</time>
      </trkpt>
      <trkpt lat="48.22815" lon="14.8607">
        <ele>230.026882</ele>
        <time>2022-09-12T04:32:31.992Z</time>
      </trkpt>
      <trkpt lat="48.22814" lon="14.86026">
        <ele>229.621608</ele>
        <time>2022-09-12T04:32:38.291Z</time>
      </trkpt>
      <trkpt lat="48.22811" lon="14.85973">
        <ele>229.127277</ele>
        <time>2022-09-12T04:32:46.027Z</time>
      </trkpt>
      <trkpt lat="48.2281" lon="14.85968">
        <ele>229.07376</ele>
        <time>2022-09-12T04:32:46.869Z</time>
      </trkpt>
      <trkpt lat="48.22807" lon="14.85937">
        <ele>228.786426</ele>
        <time>2022-09-12T04:32:51.360Z</time>
      </trkpt>
      <trkpt lat="48.22805" lon="14.85916">
        <ele>228.585564</ele>
        <time>2022-09-12T04:32:54.658Z</time>
      </trkpt>
      <trkpt lat="48.22792" lon="14.85919">
        <ele>228.410547</ele>
        <time>2022-09-12T04:32:57.587Z</time>
      </trkpt>
      <trkpt lat="48.22773" lon="14.85825">
        <ele>228.015831</ele>
        <time>2022-09-12T04:33:12.638Z</time>
      </trkpt>
      <trkpt lat="48.22755" lon="14.85756">
        <ele>227.714116</ele>
        <time>2022-09-12T04:33:24.763Z</time>
      </trkpt>
      <trkpt lat="48.22711" lon="14.85646">
        <ele>227.336376</ele>
        <time>2022-09-12T04:33:47.389Z</time>
      </trkpt>
      <trkpt lat="48.22704" lon="14.85614">
        <ele>227.34327</ele>
        <time>2022-09-12T04:33:53.592Z</time>
      </trkpt>
      <trkpt lat="48.22685" lon="14.85585">
        <ele>227.351406</ele>
        <time>2022-09-12T04:34:00.901Z</time>
      </trkpt>
      <trkpt lat="48.22564" lon="14.85424">
        <ele>227.419396</ele>
        <time>2022-09-12T04:34:43.923Z</time>
      </trkpt>
      <trkpt lat="48.22548" lon="14.85411">
        <ele>227.431397</ele>
        <time>2022-09-12T04:34:48.663Z</time>
      </trkpt>
      <trkpt lat="48.22518" lon="14.85393">
        <ele>227.45255</ele>
        <time>2022-09-12T04:34:57.142Z</time>
      </trkpt>
      <trkpt lat="48.22516" lon="14.85384">
        <ele>227.456497</ele>
        <time>2022-09-12T04:34:58.757Z</time>
      </trkpt>
      <trkpt lat="48.22505" lon="14.85379">
        <ele>227.464046</ele>
        <time>2022-09-12T04:35:01.995Z</time>
      </trkpt>
      <trkpt lat="48.2249" lon="14.85375">
        <ele>227.47409</ele>
        <time>2022-09-12T04:35:06.238Z</time>
      </trkpt>
      <trkpt lat="48.22404" lon="14.85341">
        <ele>228.022689</ele>
        <time>2022-09-12T04:35:31.202Z</time>
      </trkpt>
      <trkpt lat="48.22395" lon="14.85324">
        <ele>228.192709</ele>
        <time>2022-09-12T04:35:35.847Z</time>
      </trkpt>
      <trkpt lat="48.22378" lon="14.85327">
        <ele>228.390368</ele>
        <time>2022-09-12T04:35:41.302Z</time>
      </trkpt>
      <trkpt lat="48.22368" lon="14.85329">
        <ele>228.507384</ele>
        <time>2022-09-12T04:35:44.730Z</time>
      </trkpt>
      <trkpt lat="48.22319" lon="14.85333">
        <ele>229.073833</ele>
        <time>2022-09-12T04:36:01.861Z</time>
      </trkpt>
      <trkpt lat="48.22277" lon="14.85333">
        <ele>229.556095</ele>
        <time>2022-09-12T04:36:16.870Z</time>
      </trkpt>
      <trkpt lat="48.22255" lon="14.85332">
        <ele>229.663542</ele>
        <time>2022-09-12T04:36:24.415Z</time>
      </trkpt>
      <trkpt lat="48.22218" lon="14.85331">
        <ele>229.819111</ele>
        <time>2022-09-12T04:36:36.233Z</time>
      </trkpt>
      <trkpt lat="48.22209" lon="14.85331">
        <ele>229.856752</ele>
        <time>2022-09-12T04:36:39.036Z</time>
      </trkpt>
      <trkpt lat="48.22167" lon="14.8534">
        <ele>230.034784</ele>
        <time>2022-09-12T04:36:51.769Z</time>
      </trkpt>
      <trkpt lat="48.22135" lon="14.85374">
        <ele>230.199541</ele>
        <time>2022-09-12T04:37:02.032Z</time>
      </trkpt>
      <trkpt lat="48.22126" lon="14.85414">
        <ele>230.317023</ele>
        <time>2022-09-12T04:37:08.790Z</time>
      </trkpt>
      <trkpt lat="48.2212" lon="14.85418">
        <ele>230.289719</ele>
        <time>2022-09-12T04:37:10.405Z</time>
      </trkpt>
      <trkpt lat="48.22077" lon="14.8543">
        <ele>229.830422</ele>
        <time>2022-09-12T04:37:20.228Z</time>
      </trkpt>
      <trkpt lat="48.22044" lon="14.85451">
        <ele>229.446586</ele>
        <time>2022-09-12T04:37:28.136Z</time>
      </trkpt>
      <trkpt lat="48.22003" lon="14.85464">
        <ele>229.004156</ele>
        <time>2022-09-12T04:37:36.952Z</time>
      </trkpt>
      <trkpt lat="48.21769" lon="14.85543">
        <ele>227.425054</ele>
        <time>2022-09-12T04:38:35.540Z</time>
      </trkpt>
      <trkpt lat="48.21476" lon="14.8559">
        <ele>227.160129</ele>
        <time>2022-09-12T04:39:53.187Z</time>
      </trkpt>
      <trkpt lat="48.21341" lon="14.85585">
        <ele>227.335645</ele>
        <time>2022-09-12T04:40:29.702Z</time>
      </trkpt>
      <trkpt lat="48.21306" lon="14.85571">
        <ele>227.426014</ele>
        <time>2022-09-12T04:40:39.941Z</time>
      </trkpt>
      <trkpt lat="48.21294" lon="14.85557">
        <ele>227.464523</ele>
        <time>2022-09-12T04:40:44.326Z</time>
      </trkpt>
      <trkpt lat="48.21212" lon="14.85523">
        <ele>227.698463</ele>
        <time>2022-09-12T04:41:09.021Z</time>
      </trkpt>
      <trkpt lat="48.21156" lon="14.85508">
        <ele>227.876997</ele>
        <time>2022-09-12T04:41:25.330Z</time>
      </trkpt>
      <trkpt lat="48.21091" lon="14.85472">
        <ele>228.092975</ele>
        <time>2022-09-12T04:41:44.708Z</time>
      </trkpt>
      <trkpt lat="48.20959" lon="14.85377">
        <ele>228.214274</ele>
        <time>2022-09-12T04:42:24.034Z</time>
      </trkpt>
      <trkpt lat="48.20823" lon="14.85255">
        <ele>228.407977</ele>
        <time>2022-09-12T04:43:06.768Z</time>
      </trkpt>
      <trkpt lat="48.20722" lon="14.85136">
        <ele>228.62937</ele>
        <time>2022-09-12T04:43:42.668Z</time>
      </trkpt>
      <trkpt lat="48.20673" lon="14.85088">
        <ele>228.737565</ele>
        <time>2022-09-12T04:43:59.006Z</time>
      </trkpt>
      <trkpt lat="48.20616" lon="14.85013">
        <ele>228.867086</ele>
        <time>2022-09-12T04:44:19.445Z</time>
      </trkpt>
      <trkpt lat="48.20488" lon="14.84895">
        <ele>228.895496</ele>
        <time>2022-09-12T04:44:59.685Z</time>
      </trkpt>
      <trkpt lat="48.20366" lon="14.84757">
        <ele>228.886499</ele>
        <time>2022-09-12T04:45:40.547Z</time>
      </trkpt>
      <trkpt lat="48.20297" lon="14.84697">
        <ele>228.858573</ele>
        <time>2022-09-12T04:46:01.736Z</time>
      </trkpt>
      <trkpt lat="48.20248" lon="14.84662">
        <ele>228.815989</ele>
        <time>2022-09-12T04:46:16.040Z</time>
      </trkpt>
      <trkpt lat="48.20117" lon="14.84602">
        <ele>228.762793</ele>
        <time>2022-09-12T04:46:51.775Z</time>
      </trkpt>
      <trkpt lat="48.20017" lon="14.8454">
        <ele>228.821441</ele>
        <time>2022-09-12T04:47:21.215Z</time>
      </trkpt>
      <trkpt lat="48.19845" lon="14.84508">
        <ele>228.794079</ele>
        <time>2022-09-12T04:48:08.191Z</time>
      </trkpt>
      <trkpt lat="48.198" lon="14.84491">
        <ele>228.742101</ele>
        <time>2022-09-12T04:48:20.031Z</time>
      </trkpt>
      <trkpt lat="48.19709" lon="14.8443">
        <ele>228.279194</ele>
        <time>2022-09-12T04:48:44.357Z</time>
      </trkpt>
      <trkpt lat="48.19668" lon="14.84394">
        <ele>228.054555</ele>
        <time>2022-09-12T04:48:56.089Z</time>
      </trkpt>
      <trkpt lat="48.19629" lon="14.8435">
        <ele>227.943575</ele>
        <time>2022-09-12T04:49:08.049Z</time>
      </trkpt>
      <trkpt lat="48.19608" lon="14.84315">
        <ele>227.944949</ele>
        <time>2022-09-12T04:49:15.957Z</time>
      </trkpt>
      <trkpt lat="48.19562" lon="14.84216">
        <ele>227.948486</ele>
        <time>2022-09-12T04:49:37.116Z</time>
      </trkpt>
      <trkpt lat="48.19529" lon="14.84093">
        <ele>228.560613</ele>
        <time>2022-09-12T04:50:03.221Z</time>
      </trkpt>
      <trkpt lat="48.19511" lon="14.83944">
        <ele>229.937446</ele>
        <time>2022-09-12T04:50:38.196Z</time>
      </trkpt>
      <trkpt lat="48.19506" lon="14.83923">
        <ele>230.141034</ele>
        <time>2022-09-12T04:50:43.600Z</time>
      </trkpt>
      <trkpt lat="48.19493" lon="14.83853">
        <ele>230.785469</ele>
        <time>2022-09-12T04:51:00.688Z</time>
      </trkpt>
      <trkpt lat="48.19504" lon="14.83835">
        <ele>231.005475</ele>
        <time>2022-09-12T04:51:06.503Z</time>
      </trkpt>
      <trkpt lat="48.19508" lon="14.83817">
        <ele>231.167776</ele>
        <time>2022-09-12T04:51:10.945Z</time>
      </trkpt>
      <trkpt lat="48.19489" lon="14.83774">
        <ele>231.620847</ele>
        <time>2022-09-12T04:51:23.006Z</time>
      </trkpt>
      <trkpt lat="48.19474" lon="14.83682">
        <ele>232.452915</ele>
        <time>2022-09-12T04:51:44.470Z</time>
      </trkpt>
      <trkpt lat="48.1946" lon="14.83629">
        <ele>232.679889</ele>
        <time>2022-09-12T04:51:55.287Z</time>
      </trkpt>
      <trkpt lat="48.19364" lon="14.83422">
        <ele>231.839092</ele>
        <time>2022-09-12T04:52:35.637Z</time>
      </trkpt>
      <trkpt lat="48.19287" lon="14.83289">
        <ele>230.541049</ele>
        <time>2022-09-12T04:53:01.913Z</time>
      </trkpt>
      <trkpt lat="48.19272" lon="14.83264">
        <ele>230.295194</ele>
        <time>2022-09-12T04:53:07.061Z</time>
      </trkpt>
      <trkpt lat="48.19232" lon="14.83217">
        <ele>229.817821</ele>
        <time>2022-09-12T04:53:19.053Z</time>
      </trkpt>
      <trkpt lat="48.1921" lon="14.83178">
        <ele>229.665442</ele>
        <time>2022-09-12T04:53:27.019Z</time>
      </trkpt>
      <trkpt lat="48.19146" lon="14.83089">
        <ele>229.265724</ele>
        <time>2022-09-12T04:53:48.879Z</time>
      </trkpt>
      <trkpt lat="48.19109" lon="14.83021">
        <ele>229.075839</ele>
        <time>2022-09-12T04:54:04.202Z</time>
      </trkpt>
      <trkpt lat="48.19075" lon="14.82921">
        <ele>229.160643</ele>
        <time>2022-09-12T04:54:24.035Z</time>
      </trkpt>
      <trkpt lat="48.1906" lon="14.82788">
        <ele>229.262253</ele>
        <time>2022-09-12T04:54:48.780Z</time>
      </trkpt>
      <trkpt lat="48.19067" lon="14.82585">
        <ele>230.053965</ele>
        <time>2022-09-12T04:55:30.004Z</time>
      </trkpt>
      <trkpt lat="48.1909" lon="14.82357">
        <ele>230.086806</ele>
        <time>2022-09-12T04:56:13.202Z</time>
      </trkpt>
      <trkpt lat="48.19149" lon="14.82086">
        <ele>228.754349</ele>
        <time>2022-09-12T04:56:57.160Z</time>
      </trkpt>
      <trkpt lat="48.19172" lon="14.82011">
        <ele>228.20427</ele>
        <time>2022-09-12T04:57:09.773Z</time>
      </trkpt>
      <trkpt lat="48.19232" lon="14.81907">
        <ele>227.820693</ele>
        <time>2022-09-12T04:57:31.835Z</time>
      </trkpt>
      <trkpt lat="48.19228" lon="14.819">
        <ele>227.798274</ele>
        <time>2022-09-12T04:57:33.286Z</time>
      </trkpt>
      <trkpt lat="48.19202" lon="14.81856">
        <ele>227.652406</ele>
        <time>2022-09-12T04:57:43.338Z</time>
      </trkpt>
      <trkpt lat="48.19192" lon="14.81835">
        <ele>227.585724</ele>
        <time>2022-09-12T04:57:48.170Z</time>
      </trkpt>
      <trkpt lat="48.19185" lon="14.81818">
        <ele>227.537094</ele>
        <time>2022-09-12T04:57:51.607Z</time>
      </trkpt>
      <trkpt lat="48.19142" lon="14.81633">
        <ele>227.760928</ele>
        <time>2022-09-12T04:58:27.194Z</time>
      </trkpt>
      <trkpt lat="48.1914" lon="14.81624">
        <ele>227.777006</ele>
        <time>2022-09-12T04:58:28.904Z</time>
      </trkpt>
      <trkpt lat="48.19117" lon="14.81504">
        <ele>228.00415</ele>
        <time>2022-09-12T04:58:53.549Z</time>
      </trkpt>
      <trkpt lat="48.19095" lon="14.81298">
        <ele>228.403037</ele>
        <time>2022-09-12T04:59:32.863Z</time>
      </trkpt>
      <trkpt lat="48.1908" lon="14.81106">
        <ele>228.423101</ele>
        <time>2022-09-12T05:00:07.181Z</time>
      </trkpt>
      <trkpt lat="48.19079" lon="14.81096">
        <ele>228.420656</ele>
        <time>2022-09-12T05:00:09.018Z</time>
      </trkpt>
      <trkpt lat="48.19038" lon="14.8081">
        <ele>228.35551</ele>
        <time>2022-09-12T05:00:59.745Z</time>
      </trkpt>
      <trkpt lat="48.19022" lon="14.80744">
        <ele>228.340184</ele>
        <time>2022-09-12T05:01:12.493Z</time>
      </trkpt>
      <trkpt lat="48.18988" lon="14.80645">
        <ele>228.752319</ele>
        <time>2022-09-12T05:01:33.422Z</time>
      </trkpt>
      <trkpt lat="48.18956" lon="14.80535">
        <ele>229.209368</ele>
        <time>2022-09-12T05:01:57.540Z</time>
      </trkpt>
      <trkpt lat="48.18875" lon="14.80319">
        <ele>230.469785</ele>
        <time>2022-09-12T05:02:49.048Z</time>
      </trkpt>
      <trkpt lat="48.18803" lon="14.80126">
        <ele>231.342226</ele>
        <time>2022-09-12T05:03:32.017Z</time>
      </trkpt>
      <trkpt lat="48.18749" lon="14.79931">
        <ele>232.166737</ele>
        <time>2022-09-12T05:04:12.473Z</time>
      </trkpt>
      <trkpt lat="48.18655" lon="14.79632">
        <ele>233.517648</ele>
        <time>2022-09-12T05:05:20.133Z</time>
      </trkpt>
      <trkpt lat="48.18497" lon="14.79076">
        <ele>234.461161</ele>
        <time>2022-09-12T05:07:10.673Z</time>
      </trkpt>
      <trkpt lat="48.18484" lon="14.79023">
        <ele>234.47044</ele>
        <time>2022-09-12T05:07:20.987Z</time>
      </trkpt>
      <trkpt lat="48.18458" lon="14.78919">
        <ele>234.098001</ele>
        <time>2022-09-12T05:07:41.061Z</time>
      </trkpt>
      <trkpt lat="48.18415" lon="14.78718">
        <ele>233.117159</ele>
        <time>2022-09-12T05:08:13.751Z</time>
      </trkpt>
      <trkpt lat="48.18391" lon="14.78628">
        <ele>232.367098</ele>
        <time>2022-09-12T05:08:28.377Z</time>
      </trkpt>
      <trkpt lat="48.18349" lon="14.78493">
        <ele>231.371421</ele>
        <time>2022-09-12T05:08:50.565Z</time>
      </trkpt>
      <trkpt lat="48.18325" lon="14.78367">
        <ele>230.849525</ele>
        <time>2022-09-12T05:09:11.748Z</time>
      </trkpt>
      <trkpt lat="48.18318" lon="14.78262">
        <ele>230.458176</ele>
        <time>2022-09-12T05:09:29.828Z</time>
      </trkpt>
      <trkpt lat="48.18323" lon="14.7811">
        <ele>230.559184</ele>
        <time>2022-09-12T05:09:56.587Z</time>
      </trkpt>
      <trkpt lat="48.18318" lon="14.77968">
        <ele>230.747195</ele>
        <time>2022-09-12T05:10:23.395Z</time>
      </trkpt>
      <trkpt lat="48.18308" lon="14.77885">
        <ele>231.06194</ele>
        <time>2022-09-12T05:10:40.192Z</time>
      </trkpt>
      <trkpt lat="48.18265" lon="14.77663">
        <ele>231.232834</ele>
        <time>2022-09-12T05:11:25.799Z</time>
      </trkpt>
      <trkpt lat="48.18301" lon="14.77657">
        <ele>230.941658</ele>
        <time>2022-09-12T05:11:35.634Z</time>
      </trkpt>
      <trkpt lat="48.18762" lon="14.77719">
        <ele>226.720935</ele>
        <time>2022-09-12T05:13:20.822Z</time>
      </trkpt>
      <trkpt lat="48.18772" lon="14.77709">
        <ele>226.666779</ele>
        <time>2022-09-12T05:13:23.797Z</time>
      </trkpt>
      <trkpt lat="48.18759" lon="14.776">
        <ele>226.343738</ele>
        <time>2022-09-12T05:13:41.850Z</time>
      </trkpt>
      <trkpt lat="48.18751" lon="14.77481">
        <ele>225.995336</ele>
        <time>2022-09-12T05:14:02.083Z</time>
      </trkpt>
      <trkpt lat="48.18709" lon="14.77204">
        <ele>226.906303</ele>
        <time>2022-09-12T05:14:56.536Z</time>
      </trkpt>
      <trkpt lat="48.18687" lon="14.77129">
        <ele>227.683061</ele>
        <time>2022-09-12T05:15:15.261Z</time>
      </trkpt>
      <trkpt lat="48.18714" lon="14.77119">
        <ele>228.087405</ele>
        <time>2022-09-12T05:15:25.111Z</time>
      </trkpt>
      <trkpt lat="48.18739" lon="14.77114">
        <ele>228.438358</ele>
        <time>2022-09-12T05:15:33.783Z</time>
      </trkpt>
      <trkpt lat="48.18839" lon="14.77092">
        <ele>229.524413</ele>
        <time>2022-09-12T05:16:08.316Z</time>
      </trkpt>
      <trkpt lat="48.18897" lon="14.77063">
        <ele>229.778066</ele>
        <time>2022-09-12T05:16:27.046Z</time>
      </trkpt>
      <trkpt lat="48.18922" lon="14.77037">
        <ele>229.906425</ele>
        <time>2022-09-12T05:16:34.983Z</time>
      </trkpt>
      <trkpt lat="48.18942" lon="14.76999">
        <ele>230.040713</ele>
        <time>2022-09-12T05:16:42.846Z</time>
      </trkpt>
      <trkpt lat="48.18974" lon="14.76943">
        <ele>230.037461</ele>
        <time>2022-09-12T05:16:54.831Z</time>
      </trkpt>
      <trkpt lat="48.19007" lon="14.76921">
        <ele>229.923049</ele>
        <time>2022-09-12T05:17:04.077Z</time>
      </trkpt>
      <trkpt lat="48.19017" lon="14.76905">
        <ele>229.878308</ele>
        <time>2022-09-12T05:17:07.778Z</time>
      </trkpt>
      <trkpt lat="48.19023" lon="14.76885">
        <ele>229.833246</ele>
        <time>2022-09-12T05:17:11.558Z</time>
      </trkpt>
      <trkpt lat="48.19029" lon="14.76853">
        <ele>229.762829</ele>
        <time>2022-09-12T05:17:17.580Z</time>
      </trkpt>
      <trkpt lat="48.19024" lon="14.76825">
        <ele>229.702434</ele>
        <time>2022-09-12T05:17:22.640Z</time>
      </trkpt>
      <trkpt lat="48.19009" lon="14.76787">
        <ele>229.609509</ele>
        <time>2022-09-12T05:17:30.189Z</time>
      </trkpt>
      <trkpt lat="48.19011" lon="14.76732">
        <ele>229.456146</ele>
        <time>2022-09-12T05:17:39.199Z</time>
      </trkpt>
      <trkpt lat="48.19017" lon="14.76708">
        <ele>229.3751</ele>
        <time>2022-09-12T05:17:43.303Z</time>
      </trkpt>
      <trkpt lat="48.1902" lon="14.76699">
        <ele>229.341131</ele>
        <time>2022-09-12T05:17:45.050Z</time>
      </trkpt>
      <trkpt lat="48.19031" lon="14.76647">
        <ele>229.16616</ele>
        <time>2022-09-12T05:17:54.070Z</time>
      </trkpt>
      <trkpt lat="48.19029" lon="14.76453">
        <ele>228.496013</ele>
        <time>2022-09-12T05:18:26.129Z</time>
      </trkpt>
      <trkpt lat="48.19035" lon="14.76336">
        <ele>228.008143</ele>
        <time>2022-09-12T05:18:44.261Z</time>
      </trkpt>
      <trkpt lat="48.19039" lon="14.76068">
        <ele>227.60601</ele>
        <time>2022-09-12T05:19:29.212Z</time>
      </trkpt>
      <trkpt lat="48.19042" lon="14.75997">
        <ele>227.619778</ele>
        <time>2022-09-12T05:19:42.946Z</time>
      </trkpt>
      <trkpt lat="48.19055" lon="14.75873">
        <ele>228.229536</ele>
        <time>2022-09-12T05:20:08.417Z</time>
      </trkpt>
      <trkpt lat="48.19063" lon="14.75844">
        <ele>228.440168</ele>
        <time>2022-09-12T05:20:15.291Z</time>
      </trkpt>
      <trkpt lat="48.19132" lon="14.7573">
        <ele>229.449937</ele>
        <time>2022-09-12T05:20:48.610Z</time>
      </trkpt>
      <trkpt lat="48.19163" lon="14.75662">
        <ele>229.835752</ele>
        <time>2022-09-12T05:21:06.055Z</time>
      </trkpt>
      <trkpt lat="48.192" lon="14.75506">
        <ele>230.615028</ele>
        <time>2022-09-12T05:21:38.455Z</time>
      </trkpt>
      <trkpt lat="48.19211" lon="14.75429">
        <ele>230.748092</ele>
        <time>2022-09-12T05:21:53.148Z</time>
      </trkpt>
      <trkpt lat="48.19204" lon="14.75377">
        <ele>230.79939</ele>
        <time>2022-09-12T05:22:02.875Z</time>
      </trkpt>
      <trkpt lat="48.19183" lon="14.75322">
        <ele>230.859927</ele>
        <time>2022-09-12T05:22:14.257Z</time>
      </trkpt>
      <trkpt lat="48.19174" lon="14.75255">
        <ele>230.925758</ele>
        <time>2022-09-12T05:22:26.587Z</time>
      </trkpt>
      <trkpt lat="48.19178" lon="14.752">
        <ele>230.940536</ele>
        <time>2022-09-12T05:22:36.160Z</time>
      </trkpt>
      <trkpt lat="48.19217" lon="14.7505">
        <ele>230.91305</ele>
        <time>2022-09-12T05:23:04.557Z</time>
      </trkpt>
      <trkpt lat="48.19235" lon="14.75025">
        <ele>230.906808</ele>
        <time>2022-09-12T05:23:11.039Z</time>
      </trkpt>
      <trkpt lat="48.19298" lon="14.74983">
        <ele>231.002212</ele>
        <time>2022-09-12T05:23:29.491Z</time>
      </trkpt>
      <trkpt lat="48.19331" lon="14.74944">
        <ele>231.099431</ele>
        <time>2022-09-12T05:23:40.877Z</time>
      </trkpt>
      <trkpt lat="48.19343" lon="14.74914">
        <ele>231.153369</ele>
        <time>2022-09-12T05:23:47.331Z</time>
      </trkpt>
      <trkpt lat="48.19369" lon="14.74798">
        <ele>231.391471</ele>
        <time>2022-09-12T05:24:10.408Z</time>
      </trkpt>
      <trkpt lat="48.19407" lon="14.7473">
        <ele>231.810423</ele>
        <time>2022-09-12T05:24:28.402Z</time>
      </trkpt>
      <trkpt lat="48.19388" lon="14.74715">
        <ele>231.961689</ele>
        <time>2022-09-12T05:24:34.971Z</time>
      </trkpt>
      <trkpt lat="48.19379" lon="14.74709">
        <ele>232.031446</ele>
        <time>2022-09-12T05:24:38.122Z</time>
      </trkpt>
      <trkpt lat="48.19372" lon="14.74705">
        <ele>232.08344</ele>
        <time>2022-09-12T05:24:40.461Z</time>
      </trkpt>
      <trkpt lat="48.19361" lon="14.74698">
        <ele>232.167006</ele>
        <time>2022-09-12T05:24:44.001Z</time>
      </trkpt>
      <trkpt lat="48.1935" lon="14.74695">
        <ele>232.248636</ele>
        <time>2022-09-12T05:24:47.579Z</time>
      </trkpt>
      <trkpt lat="48.1934" lon="14.74682">
        <ele>232.342238</ele>
        <time>2022-09-12T05:24:51.784Z</time>
      </trkpt>
      <trkpt lat="48.19336" lon="14.74644">
        <ele>232.520157</ele>
        <time>2022-09-12T05:24:59.307Z</time>
      </trkpt>
      <trkpt lat="48.19317" lon="14.7462">
        <ele>232.632419</ele>
        <time>2022-09-12T05:25:06.635Z</time>
      </trkpt>
      <trkpt lat="48.19293" lon="14.74609">
        <ele>232.700099</ele>
        <time>2022-09-12T05:25:13.975Z</time>
      </trkpt>
      <trkpt lat="48.19226" lon="14.74569">
        <ele>232.895325</ele>
        <time>2022-09-12T05:25:34.081Z</time>
      </trkpt>
      <trkpt lat="48.19243" lon="14.74448">
        <ele>233.064618</ele>
        <time>2022-09-12T05:25:56.541Z</time>
      </trkpt>
      <trkpt lat="48.19245" lon="14.74436">
        <ele>233.055624</ele>
        <time>2022-09-12T05:25:58.595Z</time>
      </trkpt>
      <trkpt lat="48.19283" lon="14.742">
        <ele>232.86658</ele>
        <time>2022-09-12T05:26:40.638Z</time>
      </trkpt>
      <trkpt lat="48.19302" lon="14.74024">
        <ele>232.521249</ele>
        <time>2022-09-12T05:27:11.355Z</time>
      </trkpt>
      <trkpt lat="48.19321" lon="14.73846">
        <ele>232.070294</ele>
        <time>2022-09-12T05:27:41.135Z</time>
      </trkpt>
      <trkpt lat="48.19347" lon="14.73665">
        <ele>231.540829</ele>
        <time>2022-09-12T05:28:11.332Z</time>
      </trkpt>
      <trkpt lat="48.19355" lon="14.73529">
        <ele>231.438062</ele>
        <time>2022-09-12T05:28:35.451Z</time>
      </trkpt>
      <trkpt lat="48.19359" lon="14.73367">
        <ele>231.320999</ele>
        <time>2022-09-12T05:29:04.075Z</time>
      </trkpt>
      <trkpt lat="48.19355" lon="14.7321">
        <ele>231.224433</ele>
        <time>2022-09-12T05:29:32.141Z</time>
      </trkpt>
      <trkpt lat="48.19344" lon="14.73098">
        <ele>231.11096</ele>
        <time>2022-09-12T05:29:51.133Z</time>
      </trkpt>
      <trkpt lat="48.1932" lon="14.72963">
        <ele>230.874579</ele>
        <time>2022-09-12T05:30:14.406Z</time>
      </trkpt>
      <trkpt lat="48.19287" lon="14.72812">
        <ele>230.832107</ele>
        <time>2022-09-12T05:30:42.481Z</time>
      </trkpt>
      <trkpt lat="48.19265" lon="14.7274">
        <ele>230.961934</ele>
        <time>2022-09-12T05:30:57.173Z</time>
      </trkpt>
      <trkpt lat="48.19263" lon="14.72731">
        <ele>230.977177</ele>
        <time>2022-09-12T05:30:58.913Z</time>
      </trkpt>
      <trkpt lat="48.1925" lon="14.72678">
        <ele>231.069125</ele>
        <time>2022-09-12T05:31:09.596Z</time>
      </trkpt>
      <trkpt lat="48.19138" lon="14.72443">
        <ele>232.02443</ele>
        <time>2022-09-12T05:32:06.517Z</time>
      </trkpt>
      <trkpt lat="48.19063" lon="14.72225">
        <ele>232.65637</ele>
        <time>2022-09-12T05:32:53.437Z</time>
      </trkpt>
      <trkpt lat="48.19048" lon="14.72178">
        <ele>232.778653</ele>
        <time>2022-09-12T05:33:03.083Z</time>
      </trkpt>
      <trkpt lat="48.1901" lon="14.7203">
        <ele>232.627819</ele>
        <time>2022-09-12T05:33:31.296Z</time>
      </trkpt>
      <trkpt lat="48.18981" lon="14.71959">
        <ele>232.531024</ele>
        <time>2022-09-12T05:33:45.075Z</time>
      </trkpt>
      <trkpt lat="48.18922" lon="14.7183">
        <ele>232.162488</ele>
        <time>2022-09-12T05:34:11.206Z</time>
      </trkpt>
      <trkpt lat="48.18908" lon="14.71801">
        <ele>232.066661</ele>
        <time>2022-09-12T05:34:17.066Z</time>
      </trkpt>
      <trkpt lat="48.18902" lon="14.7179">
        <ele>232.028547</ele>
        <time>2022-09-12T05:34:19.395Z</time>
      </trkpt>
      <trkpt lat="48.189" lon="14.71785">
        <ele>232.01277</ele>
        <time>2022-09-12T05:34:20.399Z</time>
      </trkpt>
      <trkpt lat="48.18893" lon="14.7177">
        <ele>231.962501</ele>
        <time>2022-09-12T05:34:23.448Z</time>
      </trkpt>
      <trkpt lat="48.18886" lon="14.71754">
        <ele>231.909988</ele>
        <time>2022-09-12T05:34:26.618Z</time>
      </trkpt>
      <trkpt lat="48.18884" lon="14.71749">
        <ele>231.893756</ele>
        <time>2022-09-12T05:34:27.594Z</time>
      </trkpt>
      <trkpt lat="48.18805" lon="14.71583">
        <ele>231.575893</ele>
        <time>2022-09-12T05:35:02.501Z</time>
      </trkpt>
      <trkpt lat="48.18752" lon="14.71498">
        <ele>231.438601</ele>
        <time>2022-09-12T05:35:22.885Z</time>
      </trkpt>
      <trkpt lat="48.187" lon="14.71433">
        <ele>231.328329</ele>
        <time>2022-09-12T05:35:40.266Z</time>
      </trkpt>
      <trkpt lat="48.18675" lon="14.71408">
        <ele>231.278145</ele>
        <time>2022-09-12T05:35:48.119Z</time>
      </trkpt>
      <trkpt lat="48.18614" lon="14.71367">
        <ele>231.169934</ele>
        <time>2022-09-12T05:36:05.424Z</time>
      </trkpt>
      <trkpt lat="48.18505" lon="14.71299">
        <ele>230.891374</ele>
        <time>2022-09-12T05:36:35.745Z</time>
      </trkpt>
      <trkpt lat="48.18486" lon="14.71272">
        <ele>230.828009</ele>
        <time>2022-09-12T05:36:42.339Z</time>
      </trkpt>
      <trkpt lat="48.18463" lon="14.71288">
        <ele>230.764735</ele>
        <time>2022-09-12T05:36:48.886Z</time>
      </trkpt>
      <trkpt lat="48.18446" lon="14.71293">
        <ele>230.721752</ele>
        <time>2022-09-12T05:36:53.357Z</time>
      </trkpt>
      <trkpt lat="48.18388" lon="14.71316">
        <ele>230.662394</ele>
        <time>2022-09-12T05:37:08.613Z</time>
      </trkpt>
      <trkpt lat="48.18339" lon="14.71323">
        <ele>230.624556</ele>
        <time>2022-09-12T05:37:21.346Z</time>
      </trkpt>
      <trkpt lat="48.18282" lon="14.71311">
        <ele>230.58129</ele>
        <time>2022-09-12T05:37:36.351Z</time>
      </trkpt>
      <trkpt lat="48.1821" lon="14.71278">
        <ele>230.989996</ele>
        <time>2022-09-12T05:37:58.305Z</time>
      </trkpt>
      <trkpt lat="48.18207" lon="14.71277">
        <ele>231.013882</ele>
        <time>2022-09-12T05:37:59.217Z</time>
      </trkpt>
      <trkpt lat="48.18181" lon="14.71263">
        <ele>231.229209</ele>
        <time>2022-09-12T05:38:07.725Z</time>
      </trkpt>
      <trkpt lat="48.18163" lon="14.71252">
        <ele>231.382861</ele>
        <time>2022-09-12T05:38:13.852Z</time>
      </trkpt>
      <trkpt lat="48.1806" lon="14.71178">
        <ele>232.185022</ele>
        <time>2022-09-12T05:38:50.015Z</time>
      </trkpt>
      <trkpt lat="48.18004" lon="14.71133">
        <ele>232.527925</ele>
        <time>2022-09-12T05:39:09.133Z</time>
      </trkpt>
      <trkpt lat="48.17969" lon="14.71075">
        <ele>232.809793</ele>
        <time>2022-09-12T05:39:23.678Z</time>
      </trkpt>
      <trkpt lat="48.17883" lon="14.70879">
        <ele>233.225346</ele>
        <time>2022-09-12T05:40:05.267Z</time>
      </trkpt>
      <trkpt lat="48.17681" lon="14.70565">
        <ele>235.170462</ele>
        <time>2022-09-12T05:41:33.670Z</time>
      </trkpt>
      <trkpt lat="48.17658" lon="14.70521">
        <ele>235.441723</ele>
        <time>2022-09-12T05:41:45.489Z</time>
      </trkpt>
      <trkpt lat="48.17629" lon="14.70442">
        <ele>235.883763</ele>
        <time>2022-09-12T05:42:03.357Z</time>
      </trkpt>
      <trkpt lat="48.17615" lon="14.70404">
        <ele>236.070344</ele>
        <time>2022-09-12T05:42:11.748Z</time>
      </trkpt>
      <trkpt lat="48.17611" lon="14.70395">
        <ele>236.099084</ele>
        <time>2022-09-12T05:42:13.891Z</time>
      </trkpt>
      <trkpt lat="48.17584" lon="14.70341">
        <ele>236.274182</ele>
        <time>2022-09-12T05:42:26.700Z</time>
      </trkpt>
      <trkpt lat="48.17559" lon="14.70309">
        <ele>236.402695</ele>
        <time>2022-09-12T05:42:36.205Z</time>
      </trkpt>
      <trkpt lat="48.17529" lon="14.7029">
        <ele>236.531723</ele>
        <time>2022-09-12T05:42:46.130Z</time>
      </trkpt>
      <trkpt lat="48.17522" lon="14.70288">
        <ele>236.560213</ele>
        <time>2022-09-12T05:42:48.411Z</time>
      </trkpt>
      <trkpt lat="48.17422" lon="14.70299">
        <ele>236.593957</ele>
        <time>2022-09-12T05:43:15.008Z</time>
      </trkpt>
      <trkpt lat="48.17365" lon="14.7029">
        <ele>236.436585</ele>
        <time>2022-09-12T05:43:29.448Z</time>
      </trkpt>
      <trkpt lat="48.17333" lon="14.70264">
        <ele>236.333848</ele>
        <time>2022-09-12T05:43:38.634Z</time>
      </trkpt>
      <trkpt lat="48.17308" lon="14.70223">
        <ele>236.229031</ele>
        <time>2022-09-12T05:43:47.782Z</time>
      </trkpt>
      <trkpt lat="48.17296" lon="14.70186">
        <ele>236.137081</ele>
        <time>2022-09-12T05:43:54.668Z</time>
      </trkpt>
      <trkpt lat="48.17288" lon="14.70081">
        <ele>235.904013</ele>
        <time>2022-09-12T05:44:11.548Z</time>
      </trkpt>
      <trkpt lat="48.17279" lon="14.69818">
        <ele>235.818148</ele>
        <time>2022-09-12T05:44:58.784Z</time>
      </trkpt>
      <trkpt lat="48.17271" lon="14.69765">
        <ele>235.881283</ele>
        <time>2022-09-12T05:45:09.183Z</time>
      </trkpt>
      <trkpt lat="48.17264" lon="14.69741">
        <ele>235.91257</ele>
        <time>2022-09-12T05:45:14.243Z</time>
      </trkpt>
      <trkpt lat="48.17242" lon="14.69695">
        <ele>235.982715</ele>
        <time>2022-09-12T05:45:24.647Z</time>
      </trkpt>
      <trkpt lat="48.17164" lon="14.69595">
        <ele>236.215175</ele>
        <time>2022-09-12T05:45:52.945Z</time>
      </trkpt>
      <trkpt lat="48.17152" lon="14.69579">
        <ele>236.253054</ele>
        <time>2022-09-12T05:45:57.636Z</time>
      </trkpt>
      <trkpt lat="48.17138" lon="14.69558">
        <ele>236.297518</ele>
        <time>2022-09-12T05:46:02.901Z</time>
      </trkpt>
      <trkpt lat="48.17135" lon="14.69555">
        <ele>236.305816</ele>
        <time>2022-09-12T05:46:03.893Z</time>
      </trkpt>
      <trkpt lat="48.17139" lon="14.6954">
        <ele>236.329751</ele>
        <time>2022-09-12T05:46:07.008Z</time>
      </trkpt>
      <trkpt lat="48.17095" lon="14.69369">
        <ele>236.188967</ele>
        <time>2022-09-12T05:46:40.580Z</time>
      </trkpt>
      <trkpt lat="48.17046" lon="14.69284">
        <ele>236.06065</ele>
        <time>2022-09-12T05:46:58.945Z</time>
      </trkpt>
      <trkpt lat="48.16984" lon="14.69188">
        <ele>235.252487</ele>
        <time>2022-09-12T05:47:19.813Z</time>
      </trkpt>
      <trkpt lat="48.16965" lon="14.69142">
        <ele>234.928265</ele>
        <time>2022-09-12T05:47:28.126Z</time>
      </trkpt>
      <trkpt lat="48.1694" lon="14.69067">
        <ele>234.429408</ele>
        <time>2022-09-12T05:47:40.804Z</time>
      </trkpt>
      <trkpt lat="48.16902" lon="14.68915">
        <ele>234.010861</ele>
        <time>2022-09-12T05:48:07.174Z</time>
      </trkpt>
      <trkpt lat="48.16852" lon="14.6877">
        <ele>233.819853</ele>
        <time>2022-09-12T05:48:36.840Z</time>
      </trkpt>
      <trkpt lat="48.16813" lon="14.68575">
        <ele>234.100855</ele>
        <time>2022-09-12T05:49:14.855Z</time>
      </trkpt>
      <trkpt lat="48.16814" lon="14.68528">
        <ele>234.145433</ele>
        <time>2022-09-12T05:49:23.574Z</time>
      </trkpt>
      <trkpt lat="48.1676" lon="14.68234">
        <ele>234.360939</ele>
        <time>2022-09-12T05:50:18.961Z</time>
      </trkpt>
      <trkpt lat="48.16724" lon="14.67945">
        <ele>234.349018</ele>
        <time>2022-09-12T05:51:11.251Z</time>
      </trkpt>
      <trkpt lat="48.16706" lon="14.677">
        <ele>234.229384</ele>
        <time>2022-09-12T05:51:54.128Z</time>
      </trkpt>
      <trkpt lat="48.16701" lon="14.67384">
        <ele>234.151785</ele>
        <time>2022-09-12T05:52:49.964Z</time>
      </trkpt>
      <trkpt lat="48.16712" lon="14.67162">
        <ele>234.194329</ele>
        <time>2022-09-12T05:53:30.092Z</time>
      </trkpt>
      <trkpt lat="48.16725" lon="14.66995">
        <ele>234.255073</ele>
        <time>2022-09-12T05:54:00.313Z</time>
      </trkpt>
      <trkpt lat="48.16752" lon="14.66781">
        <ele>234.292612</ele>
        <time>2022-09-12T05:54:38.653Z</time>
      </trkpt>
      <trkpt lat="48.16778" lon="14.66617">
        <ele>234.41452</ele>
        <time>2022-09-12T05:55:09.431Z</time>
      </trkpt>
      <trkpt lat="48.16805" lon="14.66482">
        <ele>234.58754</ele>
        <time>2022-09-12T05:55:35.542Z</time>
      </trkpt>
      <trkpt lat="48.16846" lon="14.66306">
        <ele>234.682052</ele>
        <time>2022-09-12T05:56:09.908Z</time>
      </trkpt>
      <trkpt lat="48.16887" lon="14.66156">
        <ele>234.696404</ele>
        <time>2022-09-12T05:56:38.113Z</time>
      </trkpt>
      <trkpt lat="48.16954" lon="14.65949">
        <ele>234.560926</ele>
        <time>2022-09-12T05:57:18.392Z</time>
      </trkpt>
      <trkpt lat="48.17058" lon="14.65667">
        <ele>234.73169</ele>
        <time>2022-09-12T05:58:16.979Z</time>
      </trkpt>
      <trkpt lat="48.17152" lon="14.65432">
        <ele>234.692972</ele>
        <time>2022-09-12T05:59:05.078Z</time>
      </trkpt>
      <trkpt lat="48.173" lon="14.65095">
        <ele>234.62828</ele>
        <time>2022-09-12T06:00:16.102Z</time>
      </trkpt>
      <trkpt lat="48.1742" lon="14.6485">
        <ele>235.029264</ele>
        <time>2022-09-12T06:01:12.863Z</time>
      </trkpt>
      <trkpt lat="48.17591" lon="14.64529">
        <ele>235.84066</ele>
        <time>2022-09-12T06:02:29.895Z</time>
      </trkpt>
      <trkpt lat="48.17731" lon="14.6429">
        <ele>236.386433</ele>
        <time>2022-09-12T06:03:28.640Z</time>
      </trkpt>
      <trkpt lat="48.17815" lon="14.64159">
        <ele>236.655636</ele>
        <time>2022-09-12T06:04:03.141Z</time>
      </trkpt>
      <trkpt lat="48.17906" lon="14.64029">
        <ele>236.776587</ele>
        <time>2022-09-12T06:04:37.123Z</time>
      </trkpt>
      <trkpt lat="48.18009" lon="14.63908">
        <ele>236.506921</ele>
        <time>2022-09-12T06:05:10.470Z</time>
      </trkpt>
      <trkpt lat="48.18231" lon="14.63621">
        <ele>236.147489</ele>
        <time>2022-09-12T06:06:25.764Z</time>
      </trkpt>
      <trkpt lat="48.18317" lon="14.63519">
        <ele>236.58938</ele>
        <time>2022-09-12T06:06:57.870Z</time>
      </trkpt>
      <trkpt lat="48.18441" lon="14.63391">
        <ele>237.580892</ele>
        <time>2022-09-12T06:07:45.119Z</time>
      </trkpt>
      <trkpt lat="48.18445" lon="14.63387">
        <ele>237.614835</ele>
        <time>2022-09-12T06:07:46.630Z</time>
      </trkpt>
      <trkpt lat="48.1846" lon="14.63371">
        <ele>237.748782</ele>
        <time>2022-09-12T06:07:52.409Z</time>
      </trkpt>
      <trkpt lat="48.18561" lon="14.63262">
        <ele>237.428808</ele>
        <time>2022-09-12T06:08:24.434Z</time>
      </trkpt>
      <trkpt lat="48.18689" lon="14.6311">
        <ele>236.398857</ele>
        <time>2022-09-12T06:09:01.872Z</time>
      </trkpt>
      <trkpt lat="48.18803" lon="14.62961">
        <ele>235.720062</ele>
        <time>2022-09-12T06:09:39.554Z</time>
      </trkpt>
      <trkpt lat="48.18967" lon="14.62718">
        <ele>236.286919</ele>
        <time>2022-09-12T06:10:45.059Z</time>
      </trkpt>
      <trkpt lat="48.19065" lon="14.62556">
        <ele>236.84923</ele>
        <time>2022-09-12T06:11:27.409Z</time>
      </trkpt>
      <trkpt lat="48.19294" lon="14.6215">
        <ele>237.590027</ele>
        <time>2022-09-12T06:13:05.596Z</time>
      </trkpt>
      <trkpt lat="48.19387" lon="14.61952">
        <ele>237.587809</ele>
        <time>2022-09-12T06:13:48.200Z</time>
      </trkpt>
      <trkpt lat="48.19556" lon="14.61546">
        <ele>237.354866</ele>
        <time>2022-09-12T06:15:12.099Z</time>
      </trkpt>
      <trkpt lat="48.19647" lon="14.6137">
        <ele>237.530191</ele>
        <time>2022-09-12T06:15:52.320Z</time>
      </trkpt>
      <trkpt lat="48.19718" lon="14.61263">
        <ele>237.74168</ele>
        <time>2022-09-12T06:16:20.571Z</time>
      </trkpt>
      <trkpt lat="48.19813" lon="14.6115">
        <ele>238.015311</ele>
        <time>2022-09-12T06:16:54.494Z</time>
      </trkpt>
      <trkpt lat="48.19855" lon="14.61114">
        <ele>238.056045</ele>
        <time>2022-09-12T06:17:07.662Z</time>
      </trkpt>
      <trkpt lat="48.19925" lon="14.61067">
        <ele>238.121184</ele>
        <time>2022-09-12T06:17:28.503Z</time>
      </trkpt>
      <trkpt lat="48.19952" lon="14.61049">
        <ele>238.14603</ele>
        <time>2022-09-12T06:17:36.383Z</time>
      </trkpt>
      <trkpt lat="48.20016" lon="14.60993">
        <ele>238.208527</ele>
        <time>2022-09-12T06:17:55.756Z</time>
      </trkpt>
      <trkpt lat="48.20071" lon="14.6093">
        <ele>238.267742</ele>
        <time>2022-09-12T06:18:14.227Z</time>
      </trkpt>
      <trkpt lat="48.20325" lon="14.60616">
        <ele>239.543307</ele>
        <time>2022-09-12T06:19:48.037Z</time>
      </trkpt>
      <trkpt lat="48.20369" lon="14.60618">
        <ele>239.780996</ele>
        <time>2022-09-12T06:20:01.694Z</time>
      </trkpt>
      <trkpt lat="48.20383" lon="14.60612">
        <ele>239.862855</ele>
        <time>2022-09-12T06:20:06.371Z</time>
      </trkpt>
      <trkpt lat="48.20489" lon="14.60495">
        <ele>239.952744</ele>
        <time>2022-09-12T06:20:44.636Z</time>
      </trkpt>
      <trkpt lat="48.20637" lon="14.60368">
        <ele>239.058765</ele>
        <time>2022-09-12T06:21:24.656Z</time>
      </trkpt>
      <trkpt lat="48.20645" lon="14.60356">
        <ele>238.970674</ele>
        <time>2022-09-12T06:21:26.956Z</time>
      </trkpt>
      <trkpt lat="48.20638" lon="14.60317">
        <ele>238.736052</ele>
        <time>2022-09-12T06:21:33.231Z</time>
      </trkpt>
      <trkpt lat="48.20918" lon="14.60092">
        <ele>237.094228</ele>
        <time>2022-09-12T06:22:50.558Z</time>
      </trkpt>
      <trkpt lat="48.21015" lon="14.6001">
        <ele>237.02473</ele>
        <time>2022-09-12T06:23:21.331Z</time>
      </trkpt>
      <trkpt lat="48.21122" lon="14.59898">
        <ele>237.429713</ele>
        <time>2022-09-12T06:23:59.022Z</time>
      </trkpt>
      <trkpt lat="48.21261" lon="14.59792">
        <ele>237.554667</ele>
        <time>2022-09-12T06:24:41.337Z</time>
      </trkpt>
      <trkpt lat="48.21362" lon="14.59676">
        <ele>237.504803</ele>
        <time>2022-09-12T06:25:14.209Z</time>
      </trkpt>
      <trkpt lat="48.21396" lon="14.59645">
        <ele>237.471112</ele>
        <time>2022-09-12T06:25:24.446Z</time>
      </trkpt>
      <trkpt lat="48.21846" lon="14.59304">
        <ele>237.744006</ele>
        <time>2022-09-12T06:27:40.223Z</time>
      </trkpt>
      <trkpt lat="48.21909" lon="14.59263">
        <ele>237.883789</ele>
        <time>2022-09-12T06:27:59.589Z</time>
      </trkpt>
      <trkpt lat="48.21939" lon="14.5924">
        <ele>237.938831</ele>
        <time>2022-09-12T06:28:09.151Z</time>
      </trkpt>
      <trkpt lat="48.21988" lon="14.59203">
        <ele>237.975371</ele>
        <time>2022-09-12T06:28:24.508Z</time>
      </trkpt>
      <trkpt lat="48.22042" lon="14.59157">
        <ele>238.017142</ele>
        <time>2022-09-12T06:28:41.657Z</time>
      </trkpt>
      <trkpt lat="48.22144" lon="14.59052">
        <ele>237.717544</ele>
        <time>2022-09-12T06:29:13.118Z</time>
      </trkpt>
      <trkpt lat="48.22214" lon="14.5896">
        <ele>237.276614</ele>
        <time>2022-09-12T06:29:35.576Z</time>
      </trkpt>
      <trkpt lat="48.22268" lon="14.58871">
        <ele>237.050031</ele>
        <time>2022-09-12T06:29:55.246Z</time>
      </trkpt>
      <trkpt lat="48.2237" lon="14.58675">
        <ele>236.808697</ele>
        <time>2022-09-12T06:30:38.940Z</time>
      </trkpt>
      <trkpt lat="48.22492" lon="14.58456">
        <ele>236.954488</ele>
        <time>2022-09-12T06:31:30.830Z</time>
      </trkpt>
      <trkpt lat="48.22631" lon="14.58228">
        <ele>237.175529</ele>
        <time>2022-09-12T06:32:26.395Z</time>
      </trkpt>
      <trkpt lat="48.22706" lon="14.58128">
        <ele>237.323108</ele>
        <time>2022-09-12T06:32:54.235Z</time>
      </trkpt>
      <trkpt lat="48.22814" lon="14.57997">
        <ele>237.714625</ele>
        <time>2022-09-12T06:33:33.386Z</time>
      </trkpt>
      <trkpt lat="48.22811" lon="14.57977">
        <ele>237.753191</ele>
        <time>2022-09-12T06:33:37.232Z</time>
      </trkpt>
      <trkpt lat="48.22775" lon="14.57906">
        <ele>237.933858</ele>
        <time>2022-09-12T06:33:53.637Z</time>
      </trkpt>
      <trkpt lat="48.2274" lon="14.57841">
        <ele>238.109602</ele>
        <time>2022-09-12T06:34:09.516Z</time>
      </trkpt>
      <trkpt lat="48.22735" lon="14.57821">
        <ele>238.153512</ele>
        <time>2022-09-12T06:34:13.394Z</time>
      </trkpt>
      <trkpt lat="48.22776" lon="14.57701">
        <ele>238.393565</ele>
        <time>2022-09-12T06:34:39.889Z</time>
      </trkpt>
      <trkpt lat="48.22844" lon="14.57499">
        <ele>238.538215</ele>
        <time>2022-09-12T06:35:22.838Z</time>
      </trkpt>
      <trkpt lat="48.22933" lon="14.57204">
        <ele>237.827116</ele>
        <time>2022-09-12T06:36:16.322Z</time>
      </trkpt>
      <trkpt lat="48.23043" lon="14.56774">
        <ele>237.733509</ele>
        <time>2022-09-12T06:37:37.298Z</time>
      </trkpt>
      <trkpt lat="48.23067" lon="14.56679">
        <ele>238.118204</ele>
        <time>2022-09-12T06:37:57.497Z</time>
      </trkpt>
      <trkpt lat="48.23104" lon="14.56605">
        <ele>238.658247</ele>
        <time>2022-09-12T06:38:16.756Z</time>
      </trkpt>
      <trkpt lat="48.23128" lon="14.56575">
        <ele>238.937208</ele>
        <time>2022-09-12T06:38:26.947Z</time>
      </trkpt>
      <trkpt lat="48.23167" lon="14.5654">
        <ele>239.339951</ele>
        <time>2022-09-12T06:38:41.748Z</time>
      </trkpt>
      <trkpt lat="48.23242" lon="14.56497">
        <ele>239.680568</ele>
        <time>2022-09-12T06:39:06.149Z</time>
      </trkpt>
      <trkpt lat="48.23308" lon="14.56482">
        <ele>239.961299</ele>
        <time>2022-09-12T06:39:24.885Z</time>
      </trkpt>
      <trkpt lat="48.23379" lon="14.56486">
        <ele>239.8906</ele>
        <time>2022-09-12T06:39:43.302Z</time>
      </trkpt>
      <trkpt lat="48.2344" lon="14.56501">
        <ele>239.544818</ele>
        <time>2022-09-12T06:39:58.554Z</time>
      </trkpt>
      <trkpt lat="48.23488" lon="14.56521">
        <ele>239.270471</ele>
        <time>2022-09-12T06:40:10.084Z</time>
      </trkpt>
      <trkpt lat="48.23531" lon="14.56543">
        <ele>239.00808</ele>
        <time>2022-09-12T06:40:20.839Z</time>
      </trkpt>
      <trkpt lat="48.23592" lon="14.56584">
        <ele>238.612888</ele>
        <time>2022-09-12T06:40:36.447Z</time>
      </trkpt>
      <trkpt lat="48.23641" lon="14.56622">
        <ele>238.288641</ele>
        <time>2022-09-12T06:40:49.761Z</time>
      </trkpt>
      <trkpt lat="48.23699" lon="14.56684">
        <ele>238.082367</ele>
        <time>2022-09-12T06:41:08.544Z</time>
      </trkpt>
      <trkpt lat="48.23701" lon="14.56679">
        <ele>238.089595</ele>
        <time>2022-09-12T06:41:09.649Z</time>
      </trkpt>
      <trkpt lat="48.23733" lon="14.56617">
        <ele>238.18143</ele>
        <time>2022-09-12T06:41:23.980Z</time>
      </trkpt>
      <trkpt lat="48.23736" lon="14.56612">
        <ele>238.189956</ele>
        <time>2022-09-12T06:41:25.289Z</time>
      </trkpt>
      <trkpt lat="48.23753" lon="14.56596">
        <ele>238.226637</ele>
        <time>2022-09-12T06:41:31.161Z</time>
      </trkpt>
      <trkpt lat="48.23795" lon="14.56524">
        <ele>238.340355</ele>
        <time>2022-09-12T06:41:49.135Z</time>
      </trkpt>
      <trkpt lat="48.23855" lon="14.56418">
        <ele>238.482281</ele>
        <time>2022-09-12T06:42:15.983Z</time>
      </trkpt>
      <trkpt lat="48.23859" lon="14.56378">
        <ele>238.523591</ele>
        <time>2022-09-12T06:42:23.325Z</time>
      </trkpt>
      <trkpt lat="48.23875" lon="14.56253">
        <ele>238.573375</ele>
        <time>2022-09-12T06:42:44.929Z</time>
      </trkpt>
      <trkpt lat="48.23876" lon="14.56137">
        <ele>238.315675</ele>
        <time>2022-09-12T06:43:04.957Z</time>
      </trkpt>
      <trkpt lat="48.23843" lon="14.55862">
        <ele>237.618602</ele>
        <time>2022-09-12T06:43:51.407Z</time>
      </trkpt>
      <trkpt lat="48.23827" lon="14.55799">
        <ele>237.436558</ele>
        <time>2022-09-12T06:44:02.381Z</time>
      </trkpt>
      <trkpt lat="48.23791" lon="14.55701">
        <ele>237.386367</ele>
        <time>2022-09-12T06:44:21.019Z</time>
      </trkpt>
      <trkpt lat="48.23743" lon="14.55644">
        <ele>237.531011</ele>
        <time>2022-09-12T06:44:37.387Z</time>
      </trkpt>
      <trkpt lat="48.23732" lon="14.55624">
        <ele>237.573072</ele>
        <time>2022-09-12T06:44:42.720Z</time>
      </trkpt>
      <trkpt lat="48.23714" lon="14.55545">
        <ele>237.706371</ele>
        <time>2022-09-12T06:44:59.528Z</time>
      </trkpt>
      <trkpt lat="48.2371" lon="14.55506">
        <ele>237.876066</ele>
        <time>2022-09-12T06:45:07.660Z</time>
      </trkpt>
      <trkpt lat="48.23703" lon="14.5542">
        <ele>238.32108</ele>
        <time>2022-09-12T06:45:24.995Z</time>
      </trkpt>
      <trkpt lat="48.237" lon="14.5536">
        <ele>238.633694</ele>
        <time>2022-09-12T06:45:37.330Z</time>
      </trkpt>
      <trkpt lat="48.237" lon="14.55307">
        <ele>238.905299</ele>
        <time>2022-09-12T06:45:48.499Z</time>
      </trkpt>
      <trkpt lat="48.237" lon="14.55293">
        <ele>238.978617</ele>
        <time>2022-09-12T06:45:51.511Z</time>
      </trkpt>
      <trkpt lat="48.237" lon="14.55269">
        <ele>239.102021</ele>
        <time>2022-09-12T06:45:56.564Z</time>
      </trkpt>
      <trkpt lat="48.237" lon="14.55248">
        <ele>239.071617</ele>
        <time>2022-09-12T06:46:00.819Z</time>
      </trkpt>
      <trkpt lat="48.237" lon="14.55243">
        <ele>239.059829</ele>
        <time>2022-09-12T06:46:01.779Z</time>
      </trkpt>
      <trkpt lat="48.237" lon="14.55223">
        <ele>239.012223</ele>
        <time>2022-09-12T06:46:05.615Z</time>
      </trkpt>
      <trkpt lat="48.237" lon="14.55197">
        <ele>238.950479</ele>
        <time>2022-09-12T06:46:10.397Z</time>
      </trkpt>
      <trkpt lat="48.23701" lon="14.55163">
        <ele>238.8712</ele>
        <time>2022-09-12T06:46:16.130Z</time>
      </trkpt>
      <trkpt lat="48.23706" lon="14.55093">
        <ele>238.705561</ele>
        <time>2022-09-12T06:46:27.433Z</time>
      </trkpt>
      <trkpt lat="48.23708" lon="14.55066">
        <ele>238.641071</ele>
        <time>2022-09-12T06:46:31.694Z</time>
      </trkpt>
      <trkpt lat="48.23709" lon="14.55051">
        <ele>238.605779</ele>
        <time>2022-09-12T06:46:34.027Z</time>
      </trkpt>
      <trkpt lat="48.23711" lon="14.55015">
        <ele>238.520715</ele>
        <time>2022-09-12T06:46:39.525Z</time>
      </trkpt>
      <trkpt lat="48.23712" lon="14.55001">
        <ele>238.487533</ele>
        <time>2022-09-12T06:46:41.689Z</time>
      </trkpt>
      <trkpt lat="48.23714" lon="14.54973">
        <ele>238.377793</ele>
        <time>2022-09-12T06:46:46.012Z</time>
      </trkpt>
      <trkpt lat="48.23716" lon="14.54946">
        <ele>238.26334</ele>
        <time>2022-09-12T06:46:50.291Z</time>
      </trkpt>
      <trkpt lat="48.23718" lon="14.54921">
        <ele>238.160912</ele>
        <time>2022-09-12T06:46:54.138Z</time>
      </trkpt>
      <trkpt lat="48.23719" lon="14.54902">
        <ele>238.083419</ele>
        <time>2022-09-12T06:46:57.066Z</time>
      </trkpt>
      <trkpt lat="48.23719" lon="14.54846">
        <ele>237.853209</ele>
        <time>2022-09-12T06:47:05.908Z</time>
      </trkpt>
      <trkpt lat="48.23718" lon="14.5484">
        <ele>237.826049</ele>
        <time>2022-09-12T06:47:06.918Z</time>
      </trkpt>
      <trkpt lat="48.23712" lon="14.54785">
        <ele>237.598895</ele>
        <time>2022-09-12T06:47:15.771Z</time>
      </trkpt>
      <trkpt lat="48.23704" lon="14.54721">
        <ele>237.398459</ele>
        <time>2022-09-12T06:47:27.110Z</time>
      </trkpt>
      <trkpt lat="48.23685" lon="14.54682">
        <ele>237.568658</ele>
        <time>2022-09-12T06:47:36.025Z</time>
      </trkpt>
      <trkpt lat="48.23683" lon="14.54645">
        <ele>237.699576</ele>
        <time>2022-09-12T06:47:43.186Z</time>
      </trkpt>
      <trkpt lat="48.23708" lon="14.54486">
        <ele>238.280757</ele>
        <time>2022-09-12T06:48:16.475Z</time>
      </trkpt>
      <trkpt lat="48.23709" lon="14.54474">
        <ele>238.323519</ele>
        <time>2022-09-12T06:48:18.966Z</time>
      </trkpt>
      <trkpt lat="48.23712" lon="14.54456">
        <ele>238.357148</ele>
        <time>2022-09-12T06:48:22.865Z</time>
      </trkpt>
      <trkpt lat="48.23716" lon="14.54413">
        <ele>238.431516</ele>
        <time>2022-09-12T06:48:31.428Z</time>
      </trkpt>
      <trkpt lat="48.23716" lon="14.54398">
        <ele>238.455756</ele>
        <time>2022-09-12T06:48:34.148Z</time>
      </trkpt>
      <trkpt lat="48.23711" lon="14.54326">
        <ele>238.580374</ele>
        <time>2022-09-12T06:48:47.468Z</time>
      </trkpt>
      <trkpt lat="48.23724" lon="14.54236">
        <ele>238.737268</ele>
        <time>2022-09-12T06:49:04.137Z</time>
      </trkpt>
      <trkpt lat="48.23735" lon="14.54171">
        <ele>238.765638</ele>
        <time>2022-09-12T06:49:16.047Z</time>
      </trkpt>
      <trkpt lat="48.23743" lon="14.54144">
        <ele>238.748709</ele>
        <time>2022-09-12T06:49:21.049Z</time>
      </trkpt>
      <trkpt lat="48.23779" lon="14.54013">
        <ele>238.667007</ele>
        <time>2022-09-12T06:49:45.656Z</time>
      </trkpt>
      <trkpt lat="48.238" lon="14.53937">
        <ele>238.63988</ele>
        <time>2022-09-12T06:50:00.124Z</time>
      </trkpt>
      <trkpt lat="48.23831" lon="14.53809">
        <ele>238.690975</ele>
        <time>2022-09-12T06:50:24.925Z</time>
      </trkpt>
      <trkpt lat="48.23837" lon="14.53787">
        <ele>238.699765</ele>
        <time>2022-09-12T06:50:29.085Z</time>
      </trkpt>
      <trkpt lat="48.23845" lon="14.53779">
        <ele>238.705249</ele>
        <time>2022-09-12T06:50:31.661Z</time>
      </trkpt>
      <trkpt lat="48.23853" lon="14.53692">
        <ele>238.744657</ele>
        <time>2022-09-12T06:50:47.354Z</time>
      </trkpt>
      <trkpt lat="48.23891" lon="14.53456">
        <ele>238.954562</ele>
        <time>2022-09-12T06:51:31.803Z</time>
      </trkpt>
      <trkpt lat="48.23903" lon="14.53353">
        <ele>238.980319</ele>
        <time>2022-09-12T06:51:50.579Z</time>
      </trkpt>
      <trkpt lat="48.23912" lon="14.53139">
        <ele>239.027684</ele>
        <time>2022-09-12T06:52:28.653Z</time>
      </trkpt>
      <trkpt lat="48.23915" lon="14.52906">
        <ele>239.159576</ele>
        <time>2022-09-12T06:53:10.551Z</time>
      </trkpt>
      <trkpt lat="48.23916" lon="14.52766">
        <ele>239.44462</ele>
        <time>2022-09-12T06:53:36.607Z</time>
      </trkpt>
      <trkpt lat="48.23915" lon="14.5256">
        <ele>239.881364</ele>
        <time>2022-09-12T06:54:15.898Z</time>
      </trkpt>
      <trkpt lat="48.23918" lon="14.52083">
        <ele>240.892696</ele>
        <time>2022-09-12T06:55:45.020Z</time>
      </trkpt>
      <trkpt lat="48.23925" lon="14.51981">
        <ele>241.083944</ele>
        <time>2022-09-12T06:56:04.606Z</time>
      </trkpt>
      <trkpt lat="48.23942" lon="14.51876">
        <ele>241.284018</ele>
        <time>2022-09-12T06:56:24.678Z</time>
      </trkpt>
      <trkpt lat="48.23948" lon="14.51878">
        <ele>241.301207</ele>
        <time>2022-09-12T06:56:26.449Z</time>
      </trkpt>
      <trkpt lat="48.23955" lon="14.51881">
        <ele>241.322714</ele>
        <time>2022-09-12T06:56:28.453Z</time>
      </trkpt>
      <trkpt lat="48.23961" lon="14.51863">
        <ele>241.359442</ele>
        <time>2022-09-12T06:56:32.013Z</time>
      </trkpt>
      <trkpt lat="48.23975" lon="14.51859">
        <ele>241.392141</ele>
        <time>2022-09-12T06:56:36.388Z</time>
      </trkpt>
      <trkpt lat="48.23975" lon="14.51813">
        <ele>241.451226</ele>
        <time>2022-09-12T06:56:45.073Z</time>
      </trkpt>
      <trkpt lat="48.24012" lon="14.51677">
        <ele>241.641558</ele>
        <time>2022-09-12T06:57:11.850Z</time>
      </trkpt>
      <trkpt lat="48.24029" lon="14.51613">
        <ele>241.723079</ele>
        <time>2022-09-12T06:57:25.132Z</time>
      </trkpt>
      <trkpt lat="48.24056" lon="14.51574">
        <ele>241.708826</ele>
        <time>2022-09-12T06:57:35.417Z</time>
      </trkpt>
      <trkpt lat="48.24066" lon="14.51561">
        <ele>241.703879</ele>
        <time>2022-09-12T06:57:38.629Z</time>
      </trkpt>
      <trkpt lat="48.24082" lon="14.51516">
        <ele>241.691058</ele>
        <time>2022-09-12T06:57:47.572Z</time>
      </trkpt>
      <trkpt lat="48.24111" lon="14.5147">
        <ele>241.67491</ele>
        <time>2022-09-12T06:57:58.911Z</time>
      </trkpt>
      <trkpt lat="48.24119" lon="14.5146">
        <ele>241.671178</ele>
        <time>2022-09-12T06:58:01.674Z</time>
      </trkpt>
      <trkpt lat="48.24146" lon="14.51417">
        <ele>241.656169</ele>
        <time>2022-09-12T06:58:11.922Z</time>
      </trkpt>
      <trkpt lat="48.24154" lon="14.51386">
        <ele>241.648584</ele>
        <time>2022-09-12T06:58:17.687Z</time>
      </trkpt>
      <trkpt lat="48.24156" lon="14.51379">
        <ele>241.646881</ele>
        <time>2022-09-12T06:58:19.066Z</time>
      </trkpt>
      <trkpt lat="48.24199" lon="14.51246">
        <ele>241.613712</ele>
        <time>2022-09-12T06:58:45.195Z</time>
      </trkpt>
      <trkpt lat="48.24217" lon="14.51204">
        <ele>241.602519</ele>
        <time>2022-09-12T06:58:53.945Z</time>
      </trkpt>
      <trkpt lat="48.24238" lon="14.51153">
        <ele>241.590322</ele>
        <time>2022-09-12T06:59:04.604Z</time>
      </trkpt>
      <trkpt lat="48.24418" lon="14.50784">
        <ele>241.511571</ele>
        <time>2022-09-12T07:00:25.517Z</time>
      </trkpt>
      <trkpt lat="48.24434" lon="14.50761">
        <ele>241.50603</ele>
        <time>2022-09-12T07:00:31.492Z</time>
      </trkpt>
      <trkpt lat="48.24462" lon="14.5069">
        <ele>241.483201</ele>
        <time>2022-09-12T07:00:46.342Z</time>
      </trkpt>
      <trkpt lat="48.2447" lon="14.50683">
        <ele>241.478737</ele>
        <time>2022-09-12T07:00:48.872Z</time>
      </trkpt>
      <trkpt lat="48.24475" lon="14.50673">
        <ele>241.475108</ele>
        <time>2022-09-12T07:00:50.853Z</time>
      </trkpt>
      <trkpt lat="48.24483" lon="14.50653">
        <ele>241.467798</ele>
        <time>2022-09-12T07:00:54.955Z</time>
      </trkpt>
      <trkpt lat="48.2449" lon="14.50631">
        <ele>241.460083</ele>
        <time>2022-09-12T07:00:59.232Z</time>
      </trkpt>
      <trkpt lat="48.24496" lon="14.50612">
        <ele>241.453404</ele>
        <time>2022-09-12T07:01:02.812Z</time>
      </trkpt>
      <trkpt lat="48.24502" lon="14.50592">
        <ele>241.446487</ele>
        <time>2022-09-12T07:01:06.607Z</time>
      </trkpt>
      <trkpt lat="48.24507" lon="14.50571">
        <ele>241.439637</ele>
        <time>2022-09-12T07:01:10.194Z</time>
      </trkpt>
      <trkpt lat="48.24513" lon="14.50548">
        <ele>241.432016</ele>
        <time>2022-09-12T07:01:14.612Z</time>
      </trkpt>
      <trkpt lat="48.24516" lon="14.50527">
        <ele>241.425197</ele>
        <time>2022-09-12T07:01:18.574Z</time>
      </trkpt>
      <trkpt lat="48.24547" lon="14.50546">
        <ele>241.480065</ele>
        <time>2022-09-12T07:01:27.835Z</time>
      </trkpt>
      <trkpt lat="48.24552" lon="14.50549">
        <ele>241.499642</ele>
        <time>2022-09-12T07:01:29.229Z</time>
      </trkpt>
      <trkpt lat="48.24626" lon="14.50597">
        <ele>241.782975</ele>
        <time>2022-09-12T07:01:51.447Z</time>
      </trkpt>
      <trkpt lat="48.24638" lon="14.50606">
        <ele>241.831478</ele>
        <time>2022-09-12T07:01:55.441Z</time>
      </trkpt>
      <trkpt lat="48.24665" lon="14.50623">
        <ele>241.934041</ele>
        <time>2022-09-12T07:02:03.902Z</time>
      </trkpt>
      <trkpt lat="48.24666" lon="14.5062">
        <ele>241.943414</ele>
        <time>2022-09-12T07:02:04.646Z</time>
      </trkpt>
      <trkpt lat="48.2468" lon="14.5057">
        <ele>242.101884</ele>
        <time>2022-09-12T07:02:15.055Z</time>
      </trkpt>
      <trkpt lat="48.24707" lon="14.50456">
        <ele>242.862793</ele>
        <time>2022-09-12T07:02:39.789Z</time>
      </trkpt>
      <trkpt lat="48.2471" lon="14.50443">
        <ele>242.954391</ele>
        <time>2022-09-12T07:02:42.996Z</time>
      </trkpt>
      <trkpt lat="48.24715" lon="14.50412">
        <ele>243.154136</ele>
        <time>2022-09-12T07:02:49.801Z</time>
      </trkpt>
      <trkpt lat="48.24716" lon="14.5035">
        <ele>243.547922</ele>
        <time>2022-09-12T07:03:02.704Z</time>
      </trkpt>
      <trkpt lat="48.24706" lon="14.50257">
        <ele>244.269787</ele>
        <time>2022-09-12T07:03:23.559Z</time>
      </trkpt>
      <trkpt lat="48.24706" lon="14.50253">
        <ele>244.304046</ele>
        <time>2022-09-12T07:03:24.489Z</time>
      </trkpt>
      <trkpt lat="48.24701" lon="14.5023">
        <ele>244.508848</ele>
        <time>2022-09-12T07:03:29.816Z</time>
      </trkpt>
      <trkpt lat="48.24682" lon="14.50149">
        <ele>245.240812</ele>
        <time>2022-09-12T07:03:48.411Z</time>
      </trkpt>
      <trkpt lat="48.24676" lon="14.50104">
        <ele>245.630696</ele>
        <time>2022-09-12T07:03:58.199Z</time>
      </trkpt>
      <trkpt lat="48.24676" lon="14.50054">
        <ele>246.050793</ele>
        <time>2022-09-12T07:04:09.153Z</time>
      </trkpt>
      <trkpt lat="48.24676" lon="14.50039">
        <ele>246.155145</ele>
        <time>2022-09-12T07:04:12.454Z</time>
      </trkpt>
      <trkpt lat="48.24678" lon="14.49965">
        <ele>246.689486</ele>
        <time>2022-09-12T07:04:29.141Z</time>
      </trkpt>
      <trkpt lat="48.24692" lon="14.49913">
        <ele>247.089714</ele>
        <time>2022-09-12T07:04:40.842Z</time>
      </trkpt>
      <trkpt lat="48.24702" lon="14.49894">
        <ele>247.263272</ele>
        <time>2022-09-12T07:04:45.735Z</time>
      </trkpt>
      <trkpt lat="48.24737" lon="14.49835">
        <ele>247.823578</ele>
        <time>2022-09-12T07:05:01.771Z</time>
      </trkpt>
      <trkpt lat="48.24753" lon="14.49806">
        <ele>248.026961</ele>
        <time>2022-09-12T07:05:09.932Z</time>
      </trkpt>
      <trkpt lat="48.24757" lon="14.49799">
        <ele>248.051768</ele>
        <time>2022-09-12T07:05:11.706Z</time>
      </trkpt>
      <trkpt lat="48.24764" lon="14.49783">
        <ele>248.109512</ele>
        <time>2022-09-12T07:05:15.964Z</time>
      </trkpt>
      <trkpt lat="48.24777" lon="14.49749">
        <ele>248.225242</ele>
        <time>2022-09-12T07:05:24.422Z</time>
      </trkpt>
      <trkpt lat="48.24785" lon="14.49725">
        <ele>248.301799</ele>
        <time>2022-09-12T07:05:29.981Z</time>
      </trkpt>
      <trkpt lat="48.24792" lon="14.49698">
        <ele>248.387103</ele>
        <time>2022-09-12T07:05:35.903Z</time>
      </trkpt>
      <trkpt lat="48.24793" lon="14.4969">
        <ele>248.411199</ele>
        <time>2022-09-12T07:05:37.581Z</time>
      </trkpt>
      <trkpt lat="48.24796" lon="14.49675">
        <ele>248.455506</ele>
        <time>2022-09-12T07:05:40.492Z</time>
      </trkpt>
      <trkpt lat="48.248" lon="14.49641">
        <ele>248.555463</ele>
        <time>2022-09-12T07:05:46.712Z</time>
      </trkpt>
      <trkpt lat="48.24809" lon="14.49543">
        <ele>248.552752</ele>
        <time>2022-09-12T07:06:03.243Z</time>
      </trkpt>
      <trkpt lat="48.24808" lon="14.4953">
        <ele>248.447871</ele>
        <time>2022-09-12T07:06:05.468Z</time>
      </trkpt>
      <trkpt lat="48.24807" lon="14.49517">
        <ele>248.345476</ele>
        <time>2022-09-12T07:06:07.625Z</time>
      </trkpt>
      <trkpt lat="48.24805" lon="14.49499">
        <ele>248.201559</ele>
        <time>2022-09-12T07:06:10.621Z</time>
      </trkpt>
      <trkpt lat="48.24797" lon="14.49403">
        <ele>247.435923</ele>
        <time>2022-09-12T07:06:25.641Z</time>
      </trkpt>
      <trkpt lat="48.24799" lon="14.49352">
        <ele>247.033619</ele>
        <time>2022-09-12T07:06:32.869Z</time>
      </trkpt>
      <trkpt lat="48.24814" lon="14.49309">
        <ele>246.661184</ele>
        <time>2022-09-12T07:06:39.473Z</time>
      </trkpt>
      <trkpt lat="48.24841" lon="14.49254">
        <ele>246.065468</ele>
        <time>2022-09-12T07:06:49.150Z</time>
      </trkpt>
      <trkpt lat="48.24875" lon="14.49199">
        <ele>245.419132</ele>
        <time>2022-09-12T07:06:59.808Z</time>
      </trkpt>
      <trkpt lat="48.24893" lon="14.49174">
        <ele>245.098767</ele>
        <time>2022-09-12T07:07:05.382Z</time>
      </trkpt>
      <trkpt lat="48.24902" lon="14.49162">
        <ele>244.947441</ele>
        <time>2022-09-12T07:07:08.043Z</time>
      </trkpt>
      <trkpt lat="48.24949" lon="14.49095">
        <ele>244.484654</ele>
        <time>2022-09-12T07:07:23.697Z</time>
      </trkpt>
      <trkpt lat="48.24955" lon="14.49075">
        <ele>244.653962</ele>
        <time>2022-09-12T07:07:27.788Z</time>
      </trkpt>
      <trkpt lat="48.24956" lon="14.49056">
        <ele>244.804122</ele>
        <time>2022-09-12T07:07:31.496Z</time>
      </trkpt>
      <trkpt lat="48.24945" lon="14.49023">
        <ele>245.089345</ele>
        <time>2022-09-12T07:07:39.550Z</time>
      </trkpt>
      <trkpt lat="48.249" lon="14.48972">
        <ele>245.742781</ele>
        <time>2022-09-12T07:07:58.642Z</time>
      </trkpt>
      <trkpt lat="48.24876" lon="14.4894">
        <ele>246.112184</ele>
        <time>2022-09-12T07:08:09.911Z</time>
      </trkpt>
      <trkpt lat="48.24864" lon="14.48908">
        <ele>246.392875</ele>
        <time>2022-09-12T07:08:19.072Z</time>
      </trkpt>
      <trkpt lat="48.24861" lon="14.48857">
        <ele>246.714004</ele>
        <time>2022-09-12T07:08:32.088Z</time>
      </trkpt>
      <trkpt lat="48.24868" lon="14.48821">
        <ele>246.943701</ele>
        <time>2022-09-12T07:08:41.157Z</time>
      </trkpt>
      <trkpt lat="48.24898" lon="14.48771">
        <ele>247.360642</ele>
        <time>2022-09-12T07:08:56.329Z</time>
      </trkpt>
      <trkpt lat="48.24934" lon="14.48735">
        <ele>247.768117</ele>
        <time>2022-09-12T07:09:09.036Z</time>
      </trkpt>
      <trkpt lat="48.24975" lon="14.48691">
        <ele>247.803461</ele>
        <time>2022-09-12T07:09:20.973Z</time>
      </trkpt>
      <trkpt lat="48.2499" lon="14.48669">
        <ele>247.488792</ele>
        <time>2022-09-12T07:09:25.697Z</time>
      </trkpt>
      <trkpt lat="48.25016" lon="14.48609">
        <ele>246.766836</ele>
        <time>2022-09-12T07:09:36.108Z</time>
      </trkpt>
      <trkpt lat="48.25061" lon="14.48463">
        <ele>245.282728</ele>
        <time>2022-09-12T07:09:58.754Z</time>
      </trkpt>
      <trkpt lat="48.25063" lon="14.48458">
        <ele>245.265069</ele>
        <time>2022-09-12T07:09:59.432Z</time>
      </trkpt>
      <trkpt lat="48.25071" lon="14.48433">
        <ele>245.1614</ele>
        <time>2022-09-12T07:10:03.576Z</time>
      </trkpt>
      <trkpt lat="48.25081" lon="14.48412">
        <ele>245.068688</ele>
        <time>2022-09-12T07:10:07.305Z</time>
      </trkpt>
      <trkpt lat="48.25086" lon="14.4838">
        <ele>244.948112</ele>
        <time>2022-09-12T07:10:12.581Z</time>
      </trkpt>
      <trkpt lat="48.25088" lon="14.48374">
        <ele>244.924641</ele>
        <time>2022-09-12T07:10:13.611Z</time>
      </trkpt>
      <trkpt lat="48.25104" lon="14.48309">
        <ele>244.67395</ele>
        <time>2022-09-12T07:10:25.195Z</time>
      </trkpt>
      <trkpt lat="48.25122" lon="14.48198">
        <ele>244.54292</ele>
        <time>2022-09-12T07:10:47.233Z</time>
      </trkpt>
      <trkpt lat="48.25124" lon="14.48188">
        <ele>244.597778</ele>
        <time>2022-09-12T07:10:49.400Z</time>
      </trkpt>
      <trkpt lat="48.25129" lon="14.48151">
        <ele>244.797704</ele>
        <time>2022-09-12T07:10:57.252Z</time>
      </trkpt>
      <trkpt lat="48.25163" lon="14.47939">
        <ele>245.880367</ele>
        <time>2022-09-12T07:11:42.300Z</time>
      </trkpt>
      <trkpt lat="48.25173" lon="14.47894">
        <ele>246.029071</ele>
        <time>2022-09-12T07:11:51.528Z</time>
      </trkpt>
      <trkpt lat="48.25179" lon="14.47867">
        <ele>246.122394</ele>
        <time>2022-09-12T07:11:57.204Z</time>
      </trkpt>
      <trkpt lat="48.25193" lon="14.47819">
        <ele>246.288111</ele>
        <time>2022-09-12T07:12:07.328Z</time>
      </trkpt>
      <trkpt lat="48.25199" lon="14.47787">
        <ele>246.394282</ele>
        <time>2022-09-12T07:12:13.848Z</time>
      </trkpt>
      <trkpt lat="48.25199" lon="14.4778">
        <ele>246.418199</ele>
        <time>2022-09-12T07:12:15.254Z</time>
      </trkpt>
      <trkpt lat="48.25225" lon="14.4763">
        <ele>246.833787</ele>
        <time>2022-09-12T07:12:43.356Z</time>
      </trkpt>
      <trkpt lat="48.25241" lon="14.47552">
        <ele>247.016255</ele>
        <time>2022-09-12T07:12:59.149Z</time>
      </trkpt>
      <trkpt lat="48.25253" lon="14.47503">
        <ele>247.132936</ele>
        <time>2022-09-12T07:13:09.444Z</time>
      </trkpt>
      <trkpt lat="48.25256" lon="14.4749">
        <ele>247.1639</ele>
        <time>2022-09-12T07:13:12.043Z</time>
      </trkpt>
      <trkpt lat="48.25267" lon="14.47448">
        <ele>247.248322</ele>
        <time>2022-09-12T07:13:20.691Z</time>
      </trkpt>
      <trkpt lat="48.25272" lon="14.47427">
        <ele>247.214719</ele>
        <time>2022-09-12T07:13:24.835Z</time>
      </trkpt>
      <trkpt lat="48.25279" lon="14.47397">
        <ele>247.165714</ele>
        <time>2022-09-12T07:13:30.512Z</time>
      </trkpt>
      <trkpt lat="48.25284" lon="14.47379">
        <ele>247.13618</ele>
        <time>2022-09-12T07:13:33.839Z</time>
      </trkpt>
      <trkpt lat="48.25295" lon="14.4733">
        <ele>247.057518</ele>
        <time>2022-09-12T07:13:42.255Z</time>
      </trkpt>
      <trkpt lat="48.25301" lon="14.47302">
        <ele>247.012499</ele>
        <time>2022-09-12T07:13:46.964Z</time>
      </trkpt>
      <trkpt lat="48.25313" lon="14.47204">
        <ele>246.860946</ele>
        <time>2022-09-12T07:14:03.966Z</time>
      </trkpt>
      <trkpt lat="48.25325" lon="14.4715">
        <ele>246.631083</ele>
        <time>2022-09-12T07:14:13.695Z</time>
      </trkpt>
      <trkpt lat="48.25328" lon="14.47136">
        <ele>246.563532</ele>
        <time>2022-09-12T07:14:15.967Z</time>
      </trkpt>
      <trkpt lat="48.2532" lon="14.47104">
        <ele>246.405458</ele>
        <time>2022-09-12T07:14:21.566Z</time>
      </trkpt>
      <trkpt lat="48.25324" lon="14.47089">
        <ele>246.331851</ele>
        <time>2022-09-12T07:14:23.974Z</time>
      </trkpt>
      <trkpt lat="48.25327" lon="14.47079">
        <ele>246.27913</ele>
        <time>2022-09-12T07:14:25.695Z</time>
      </trkpt>
      <trkpt lat="48.25339" lon="14.4708">
        <ele>246.195913</ele>
        <time>2022-09-12T07:14:28.595Z</time>
      </trkpt>
      <trkpt lat="48.25348" lon="14.47072">
        <ele>246.122169</ele>
        <time>2022-09-12T07:14:30.966Z</time>
      </trkpt>
      <trkpt lat="48.25399" lon="14.46975">
        <ele>245.543419</ele>
        <time>2022-09-12T07:14:50.133Z</time>
      </trkpt>
      <trkpt lat="48.25441" lon="14.46904">
        <ele>245.066695</ele>
        <time>2022-09-12T07:15:06.240Z</time>
      </trkpt>
      <trkpt lat="48.25472" lon="14.46835">
        <ele>244.651693</ele>
        <time>2022-09-12T07:15:19.665Z</time>
      </trkpt>
      <trkpt lat="48.25504" lon="14.46738">
        <ele>244.118839</ele>
        <time>2022-09-12T07:15:36.110Z</time>
      </trkpt>
      <trkpt lat="48.25537" lon="14.46599">
        <ele>243.443707</ele>
        <time>2022-09-12T07:15:58.959Z</time>
      </trkpt>
      <trkpt lat="48.25551" lon="14.46532">
        <ele>243.119387</ele>
        <time>2022-09-12T07:16:10.816Z</time>
      </trkpt>
      <trkpt lat="48.25571" lon="14.46475">
        <ele>243.008796</ele>
        <time>2022-09-12T07:16:21.992Z</time>
      </trkpt>
      <trkpt lat="48.25584" lon="14.46421">
        <ele>243.029814</ele>
        <time>2022-09-12T07:16:32.070Z</time>
      </trkpt>
      <trkpt lat="48.25591" lon="14.46367">
        <ele>243.049962</ele>
        <time>2022-09-12T07:16:41.842Z</time>
      </trkpt>
      <trkpt lat="48.25605" lon="14.46328">
        <ele>243.0665</ele>
        <time>2022-09-12T07:16:50.004Z</time>
      </trkpt>
      <trkpt lat="48.25632" lon="14.46293">
        <ele>243.086358</ele>
        <time>2022-09-12T07:17:00.243Z</time>
      </trkpt>
      <trkpt lat="48.25691" lon="14.46252">
        <ele>243.047499</ele>
        <time>2022-09-12T07:17:18.381Z</time>
      </trkpt>
      <trkpt lat="48.25729" lon="14.46228">
        <ele>243.010102</ele>
        <time>2022-09-12T07:17:28.850Z</time>
      </trkpt>
      <trkpt lat="48.25796" lon="14.46147">
        <ele>242.930205</ele>
        <time>2022-09-12T07:17:50.835Z</time>
      </trkpt>
      <trkpt lat="48.25805" lon="14.46145">
        <ele>242.923802</ele>
        <time>2022-09-12T07:17:52.968Z</time>
      </trkpt>
      <trkpt lat="48.2581" lon="14.46136">
        <ele>242.918687</ele>
        <time>2022-09-12T07:17:55.146Z</time>
      </trkpt>
      <trkpt lat="48.25851" lon="14.46055">
        <ele>242.875445</ele>
        <time>2022-09-12T07:18:12.731Z</time>
      </trkpt>
      <trkpt lat="48.25885" lon="14.4599">
        <ele>242.840597</ele>
        <time>2022-09-12T07:18:27.384Z</time>
      </trkpt>
      <trkpt lat="48.25921" lon="14.45859">
        <ele>243.194642</ele>
        <time>2022-09-12T07:18:53.099Z</time>
      </trkpt>
      <trkpt lat="48.25935" lon="14.4583">
        <ele>243.370932</ele>
        <time>2022-09-12T07:19:00.206Z</time>
      </trkpt>
      <trkpt lat="48.25958" lon="14.45815">
        <ele>243.553388</ele>
        <time>2022-09-12T07:19:07.747Z</time>
      </trkpt>
      <trkpt lat="48.25969" lon="14.45801">
        <ele>243.656359</ele>
        <time>2022-09-12T07:19:12.167Z</time>
      </trkpt>
      <trkpt lat="48.26004" lon="14.45687">
        <ele>244.451731</ele>
        <time>2022-09-12T07:19:39.020Z</time>
      </trkpt>
      <trkpt lat="48.26009" lon="14.45676">
        <ele>244.606205</ele>
        <time>2022-09-12T07:19:42.039Z</time>
      </trkpt>
      <trkpt lat="48.26028" lon="14.45647">
        <ele>245.049855</ele>
        <time>2022-09-12T07:19:51.197Z</time>
      </trkpt>
      <trkpt lat="48.26045" lon="14.45635">
        <ele>245.371147</ele>
        <time>2022-09-12T07:19:57.938Z</time>
      </trkpt>
      <trkpt lat="48.26098" lon="14.45632">
        <ele>246.278751</ele>
        <time>2022-09-12T07:20:17.298Z</time>
      </trkpt>
      <trkpt lat="48.26186" lon="14.45587">
        <ele>247.566091</ele>
        <time>2022-09-12T07:20:50.506Z</time>
      </trkpt>
      <trkpt lat="48.2626" lon="14.45535">
        <ele>248.366228</ele>
        <time>2022-09-12T07:21:16.610Z</time>
      </trkpt>
      <trkpt lat="48.26398" lon="14.45429">
        <ele>248.865692</ele>
        <time>2022-09-12T07:21:58.810Z</time>
      </trkpt>
      <trkpt lat="48.26474" lon="14.45366">
        <ele>248.770008</ele>
        <time>2022-09-12T07:22:20.775Z</time>
      </trkpt>
      <trkpt lat="48.265" lon="14.45352">
        <ele>248.587192</ele>
        <time>2022-09-12T07:22:27.764Z</time>
      </trkpt>
      <trkpt lat="48.26525" lon="14.45346">
        <ele>248.415512</ele>
        <time>2022-09-12T07:22:34.139Z</time>
      </trkpt>
      <trkpt lat="48.26588" lon="14.45356">
        <ele>247.993405</ele>
        <time>2022-09-12T07:22:49.293Z</time>
      </trkpt>
      <trkpt lat="48.26603" lon="14.45331">
        <ele>247.843536</ele>
        <time>2022-09-12T07:22:54.605Z</time>
      </trkpt>
      <trkpt lat="48.26604" lon="14.45303">
        <ele>247.721073</ele>
        <time>2022-09-12T07:22:58.962Z</time>
      </trkpt>
      <trkpt lat="48.26599" lon="14.45249">
        <ele>247.441821</ele>
        <time>2022-09-12T07:23:07.456Z</time>
      </trkpt>
      <trkpt lat="48.26587" lon="14.45194">
        <ele>247.095388</ele>
        <time>2022-09-12T07:23:16.464Z</time>
      </trkpt>
      <trkpt lat="48.26571" lon="14.45074">
        <ele>246.373724</ele>
        <time>2022-09-12T07:23:34.990Z</time>
      </trkpt>
      <trkpt lat="48.26569" lon="14.45062">
        <ele>246.296362</ele>
        <time>2022-09-12T07:23:36.996Z</time>
      </trkpt>
      <trkpt lat="48.26576" lon="14.45055">
        <ele>246.226737</ele>
        <time>2022-09-12T07:23:38.869Z</time>
      </trkpt>
      <trkpt lat="48.26584" lon="14.45035">
        <ele>246.087364</ele>
        <time>2022-09-12T07:23:42.533Z</time>
      </trkpt>
      <trkpt lat="48.26605" lon="14.44975">
        <ele>246.082369</ele>
        <time>2022-09-12T07:23:53.776Z</time>
      </trkpt>
      <trkpt lat="48.26617" lon="14.44932">
        <ele>246.162797</ele>
        <time>2022-09-12T07:24:02.251Z</time>
      </trkpt>
      <trkpt lat="48.26625" lon="14.44884">
        <ele>246.246539</ele>
        <time>2022-09-12T07:24:11.847Z</time>
      </trkpt>
      <trkpt lat="48.26626" lon="14.44835">
        <ele>246.329351</ele>
        <time>2022-09-12T07:24:21.516Z</time>
      </trkpt>
      <trkpt lat="48.26612" lon="14.4469">
        <ele>246.552187</ele>
        <time>2022-09-12T07:24:51.138Z</time>
      </trkpt>
      <trkpt lat="48.26612" lon="14.44673">
        <ele>246.574227</ele>
        <time>2022-09-12T07:24:54.453Z</time>
      </trkpt>
      <trkpt lat="48.26615" lon="14.44663">
        <ele>246.58896</ele>
        <time>2022-09-12T07:24:56.740Z</time>
      </trkpt>
      <trkpt lat="48.26594" lon="14.44641">
        <ele>246.639907</ele>
        <time>2022-09-12T07:25:03.780Z</time>
      </trkpt>
      <trkpt lat="48.26584" lon="14.44618">
        <ele>246.676939</ele>
        <time>2022-09-12T07:25:08.962Z</time>
      </trkpt>
      <trkpt lat="48.26581" lon="14.44592">
        <ele>246.712997</ele>
        <time>2022-09-12T07:25:13.635Z</time>
      </trkpt>
      <trkpt lat="48.26581" lon="14.4458">
        <ele>246.728741</ele>
        <time>2022-09-12T07:25:15.736Z</time>
      </trkpt>
      <trkpt lat="48.26579" lon="14.44544">
        <ele>246.777459</ele>
        <time>2022-09-12T07:25:21.739Z</time>
      </trkpt>
      <trkpt lat="48.26577" lon="14.44514">
        <ele>246.809616</ele>
        <time>2022-09-12T07:25:26.805Z</time>
      </trkpt>
      <trkpt lat="48.26553" lon="14.44412">
        <ele>246.29341</ele>
        <time>2022-09-12T07:25:43.950Z</time>
      </trkpt>
      <trkpt lat="48.26536" lon="14.44351">
        <ele>245.974723</ele>
        <time>2022-09-12T07:25:54.255Z</time>
      </trkpt>
      <trkpt lat="48.26526" lon="14.44301">
        <ele>245.724695</ele>
        <time>2022-09-12T07:26:02.421Z</time>
      </trkpt>
      <trkpt lat="48.26514" lon="14.44236">
        <ele>245.442542</ele>
        <time>2022-09-12T07:26:13.217Z</time>
      </trkpt>
      <trkpt lat="48.265" lon="14.44202">
        <ele>245.316314</ele>
        <time>2022-09-12T07:26:19.728Z</time>
      </trkpt>
      <trkpt lat="48.2649" lon="14.44149">
        <ele>245.138493</ele>
        <time>2022-09-12T07:26:29.507Z</time>
      </trkpt>
      <trkpt lat="48.26453" lon="14.43929">
        <ele>244.275639</ele>
        <time>2022-09-12T07:27:06.700Z</time>
      </trkpt>
      <trkpt lat="48.26385" lon="14.43881">
        <ele>243.715626</ele>
        <time>2022-09-12T07:27:24.221Z</time>
      </trkpt>
      <trkpt lat="48.26359" lon="14.4386">
        <ele>243.493104</ele>
        <time>2022-09-12T07:27:31.173Z</time>
      </trkpt>
      <trkpt lat="48.26339" lon="14.4384">
        <ele>243.312424</ele>
        <time>2022-09-12T07:27:36.807Z</time>
      </trkpt>
      <trkpt lat="48.26313" lon="14.43789">
        <ele>243.20165</ele>
        <time>2022-09-12T07:27:46.867Z</time>
      </trkpt>
      <trkpt lat="48.26307" lon="14.43744">
        <ele>243.123039</ele>
        <time>2022-09-12T07:27:54.330Z</time>
      </trkpt>
      <trkpt lat="48.26299" lon="14.43681">
        <ele>243.014342</ele>
        <time>2022-09-12T07:28:05.263Z</time>
      </trkpt>
      <trkpt lat="48.26276" lon="14.43622">
        <ele>242.897878</ele>
        <time>2022-09-12T07:28:17.934Z</time>
      </trkpt>
      <trkpt lat="48.26238" lon="14.43542">
        <ele>242.938998</ele>
        <time>2022-09-12T07:28:36.940Z</time>
      </trkpt>
      <trkpt lat="48.26165" lon="14.43425">
        <ele>243.140622</ele>
        <time>2022-09-12T07:29:06.376Z</time>
      </trkpt>
      <trkpt lat="48.26154" lon="14.43402">
        <ele>243.176033</ele>
        <time>2022-09-12T07:29:11.381Z</time>
      </trkpt>
      <trkpt lat="48.26139" lon="14.4337">
        <ele>243.12172</ele>
        <time>2022-09-12T07:29:18.336Z</time>
      </trkpt>
      <trkpt lat="48.261" lon="14.433">
        <ele>242.902751</ele>
        <time>2022-09-12T07:29:34.483Z</time>
      </trkpt>
      <trkpt lat="48.26092" lon="14.43285">
        <ele>242.857693</ele>
        <time>2022-09-12T07:29:37.703Z</time>
      </trkpt>
      <trkpt lat="48.26045" lon="14.43187">
        <ele>242.569728</ele>
        <time>2022-09-12T07:29:57.108Z</time>
      </trkpt>
      <trkpt lat="48.26016" lon="14.43098">
        <ele>242.26851</ele>
        <time>2022-09-12T07:30:12.640Z</time>
      </trkpt>
      <trkpt lat="48.2601" lon="14.43082">
        <ele>242.211408</ele>
        <time>2022-09-12T07:30:15.538Z</time>
      </trkpt>
      <trkpt lat="48.25986" lon="14.43028">
        <ele>242.006884</ele>
        <time>2022-09-12T07:30:26.219Z</time>
      </trkpt>
      <trkpt lat="48.2596" lon="14.4299">
        <ele>241.837989</ele>
        <time>2022-09-12T07:30:35.199Z</time>
      </trkpt>
      <trkpt lat="48.25952" lon="14.42979">
        <ele>241.786361</ele>
        <time>2022-09-12T07:30:38.047Z</time>
      </trkpt>
      <trkpt lat="48.25889" lon="14.42862">
        <ele>242.360399</ele>
        <time>2022-09-12T07:31:06.063Z</time>
      </trkpt>
      <trkpt lat="48.25866" lon="14.42794">
        <ele>242.763986</ele>
        <time>2022-09-12T07:31:22.294Z</time>
      </trkpt>
      <trkpt lat="48.25853" lon="14.42738">
        <ele>243.082751</ele>
        <time>2022-09-12T07:31:35.810Z</time>
      </trkpt>
      <trkpt lat="48.25836" lon="14.42647">
        <ele>243.798591</ele>
        <time>2022-09-12T07:31:57.206Z</time>
      </trkpt>
      <trkpt lat="48.25831" lon="14.42561">
        <ele>244.470154</ele>
        <time>2022-09-12T07:32:16.549Z</time>
      </trkpt>
      <trkpt lat="48.25831" lon="14.42543">
        <ele>244.611918</ele>
        <time>2022-09-12T07:32:20.533Z</time>
      </trkpt>
      <trkpt lat="48.25817" lon="14.42414">
        <ele>245.602357</ele>
        <time>2022-09-12T07:32:45.959Z</time>
      </trkpt>
      <trkpt lat="48.25825" lon="14.4237">
        <ele>245.922715</ele>
        <time>2022-09-12T07:32:54.905Z</time>
      </trkpt>
      <trkpt lat="48.25839" lon="14.42345">
        <ele>246.154038</ele>
        <time>2022-09-12T07:33:02.366Z</time>
      </trkpt>
      <trkpt lat="48.25842" lon="14.42305">
        <ele>246.441834</ele>
        <time>2022-09-12T07:33:11.281Z</time>
      </trkpt>
      <trkpt lat="48.25833" lon="14.42292">
        <ele>246.578447</ele>
        <time>2022-09-12T07:33:15.718Z</time>
      </trkpt>
      <trkpt lat="48.25822" lon="14.42288">
        <ele>246.695122</ele>
        <time>2022-09-12T07:33:19.098Z</time>
      </trkpt>
      <trkpt lat="48.25822" lon="14.42277">
        <ele>246.769762</ele>
        <time>2022-09-12T07:33:21.594Z</time>
      </trkpt>
      <trkpt lat="48.25835" lon="14.4226">
        <ele>246.955037</ele>
        <time>2022-09-12T07:33:27.616Z</time>
      </trkpt>
      <trkpt lat="48.25827" lon="14.42254">
        <ele>247.049188</ele>
        <time>2022-09-12T07:33:30.190Z</time>
      </trkpt>
      <trkpt lat="48.25732" lon="14.42182">
        <ele>247.823021</ele>
        <time>2022-09-12T07:34:04.003Z</time>
      </trkpt>
      <trkpt lat="48.25681" lon="14.42149">
        <ele>248.194865</ele>
        <time>2022-09-12T07:34:20.123Z</time>
      </trkpt>
      <trkpt lat="48.25639" lon="14.42138">
        <ele>248.333231</ele>
        <time>2022-09-12T07:34:31.849Z</time>
      </trkpt>
      <trkpt lat="48.25585" lon="14.42145">
        <ele>248.02499</ele>
        <time>2022-09-12T07:34:45.277Z</time>
      </trkpt>
      <trkpt lat="48.25545" lon="14.42168">
        <ele>247.785543</ele>
        <time>2022-09-12T07:34:54.968Z</time>
      </trkpt>
      <trkpt lat="48.25531" lon="14.42147">
        <ele>247.670247</ele>
        <time>2022-09-12T07:34:59.732Z</time>
      </trkpt>
      <trkpt lat="48.25571" lon="14.42035">
        <ele>247.406683</ele>
        <time>2022-09-12T07:35:19.925Z</time>
      </trkpt>
      <trkpt lat="48.25631" lon="14.41837">
        <ele>247.494359</ele>
        <time>2022-09-12T07:36:00.674Z</time>
      </trkpt>
      <trkpt lat="48.25676" lon="14.41654">
        <ele>248.197059</ele>
        <time>2022-09-12T07:36:39.348Z</time>
      </trkpt>
      <trkpt lat="48.25703" lon="14.41521">
        <ele>248.486415</ele>
        <time>2022-09-12T07:37:05.975Z</time>
      </trkpt>
      <trkpt lat="48.25738" lon="14.4128">
        <ele>248.509253</ele>
        <time>2022-09-12T07:37:49.144Z</time>
      </trkpt>
      <trkpt lat="48.25783" lon="14.40801">
        <ele>248.369057</ele>
        <time>2022-09-12T07:39:13.864Z</time>
      </trkpt>
      <trkpt lat="48.25809" lon="14.40612">
        <ele>248.998534</ele>
        <time>2022-09-12T07:39:51.270Z</time>
      </trkpt>
      <trkpt lat="48.25859" lon="14.40383">
        <ele>249.641053</ele>
        <time>2022-09-12T07:40:39.419Z</time>
      </trkpt>
      <trkpt lat="48.25896" lon="14.40255">
        <ele>249.845774</ele>
        <time>2022-09-12T07:41:04.019Z</time>
      </trkpt>
      <trkpt lat="48.25946" lon="14.40113">
        <ele>249.314646</ele>
        <time>2022-09-12T07:41:29.996Z</time>
      </trkpt>
      <trkpt lat="48.26012" lon="14.3996">
        <ele>248.836994</ele>
        <time>2022-09-12T07:41:59.505Z</time>
      </trkpt>
      <trkpt lat="48.2623" lon="14.39528">
        <ele>248.375761</ele>
        <time>2022-09-12T07:43:34.665Z</time>
      </trkpt>
      <trkpt lat="48.26315" lon="14.39372">
        <ele>248.450046</ele>
        <time>2022-09-12T07:44:10.760Z</time>
      </trkpt>
      <trkpt lat="48.26449" lon="14.39158">
        <ele>248.885465</ele>
        <time>2022-09-12T07:45:05.335Z</time>
      </trkpt>
      <trkpt lat="48.26583" lon="14.38971">
        <ele>249.248708</ele>
        <time>2022-09-12T07:45:56.030Z</time>
      </trkpt>
      <trkpt lat="48.26805" lon="14.387">
        <ele>249.471805</ele>
        <time>2022-09-12T07:47:13.257Z</time>
      </trkpt>
      <trkpt lat="48.26876" lon="14.38591">
        <ele>249.524359</ele>
        <time>2022-09-12T07:47:40.265Z</time>
      </trkpt>
      <trkpt lat="48.26917" lon="14.38515">
        <ele>249.558854</ele>
        <time>2022-09-12T07:47:57.459Z</time>
      </trkpt>
      <trkpt lat="48.2693" lon="14.38528">
        <ele>249.567343</ele>
        <time>2022-09-12T07:48:01.849Z</time>
      </trkpt>
      <trkpt lat="48.26942" lon="14.38534">
        <ele>249.574046</ele>
        <time>2022-09-12T07:48:05.295Z</time>
      </trkpt>
      <trkpt lat="48.26991" lon="14.38513">
        <ele>249.644362</ele>
        <time>2022-09-12T07:48:19.772Z</time>
      </trkpt>
      <trkpt lat="48.27018" lon="14.38495">
        <ele>249.706325</ele>
        <time>2022-09-12T07:48:28.270Z</time>
      </trkpt>
      <trkpt lat="48.27038" lon="14.38464">
        <ele>249.76759</ele>
        <time>2022-09-12T07:48:36.587Z</time>
      </trkpt>
      <trkpt lat="48.27091" lon="14.38307">
        <ele>249.966899</ele>
        <time>2022-09-12T07:49:08.373Z</time>
      </trkpt>
      <trkpt lat="48.27093" lon="14.38301">
        <ele>249.966211</ele>
        <time>2022-09-12T07:49:09.570Z</time>
      </trkpt>
      <trkpt lat="48.27098" lon="14.38277">
        <ele>249.963648</ele>
        <time>2022-09-12T07:49:14.100Z</time>
      </trkpt>
      <trkpt lat="48.2709" lon="14.38233">
        <ele>249.959156</ele>
        <time>2022-09-12T07:49:22.088Z</time>
      </trkpt>
      <trkpt lat="48.27078" lon="14.38198">
        <ele>249.955127</ele>
        <time>2022-09-12T07:49:29.152Z</time>
      </trkpt>
      <trkpt lat="48.27051" lon="14.38132">
        <ele>249.947428</ele>
        <time>2022-09-12T07:49:42.356Z</time>
      </trkpt>
      <trkpt lat="48.27162" lon="14.37654">
        <ele>250.076403</ele>
        <time>2022-09-12T07:51:13.086Z</time>
      </trkpt>
      <trkpt lat="48.2717" lon="14.37572">
        <ele>250.097639</ele>
        <time>2022-09-12T07:51:28.149Z</time>
      </trkpt>
      <trkpt lat="48.27211" lon="14.37338">
        <ele>250.099791</ele>
        <time>2022-09-12T07:52:10.981Z</time>
      </trkpt>
      <trkpt lat="48.2725" lon="14.36988">
        <ele>250.089619</ele>
        <time>2022-09-12T07:53:13.676Z</time>
      </trkpt>
      <trkpt lat="48.27273" lon="14.36854">
        <ele>250.066128</ele>
        <time>2022-09-12T07:53:38.252Z</time>
      </trkpt>
      <trkpt lat="48.27303" lon="14.36719">
        <ele>250.062334</ele>
        <time>2022-09-12T07:54:03.478Z</time>
      </trkpt>
      <trkpt lat="48.27352" lon="14.36544">
        <ele>250.083372</ele>
        <time>2022-09-12T07:54:37.219Z</time>
      </trkpt>
      <trkpt lat="48.27413" lon="14.36364">
        <ele>250.095562</ele>
        <time>2022-09-12T07:55:13.326Z</time>
      </trkpt>
      <trkpt lat="48.27545" lon="14.36027">
        <ele>250.153789</ele>
        <time>2022-09-12T07:56:22.871Z</time>
      </trkpt>
      <trkpt lat="48.27563" lon="14.35936">
        <ele>250.235453</ele>
        <time>2022-09-12T07:56:40.048Z</time>
      </trkpt>
      <trkpt lat="48.27633" lon="14.35772">
        <ele>250.472625</ele>
        <time>2022-09-12T07:57:15.470Z</time>
      </trkpt>
      <trkpt lat="48.27698" lon="14.35637">
        <ele>250.800783</ele>
        <time>2022-09-12T07:57:47.189Z</time>
      </trkpt>
      <trkpt lat="48.27817" lon="14.35415">
        <ele>251.185213</ele>
        <time>2022-09-12T07:58:40.351Z</time>
      </trkpt>
      <trkpt lat="48.27928" lon="14.35236">
        <ele>250.679949</ele>
        <time>2022-09-12T07:59:21.320Z</time>
      </trkpt>
      <trkpt lat="48.28032" lon="14.35093">
        <ele>250.25681</ele>
        <time>2022-09-12T07:59:56.463Z</time>
      </trkpt>
      <trkpt lat="48.28145" lon="14.34962">
        <ele>250.032238</ele>
        <time>2022-09-12T08:00:34.034Z</time>
      </trkpt>
      <trkpt lat="48.282" lon="14.34897">
        <ele>250.011811</ele>
        <time>2022-09-12T08:00:52.486Z</time>
      </trkpt>
      <trkpt lat="48.28281" lon="14.34811">
        <ele>249.999994</ele>
        <time>2022-09-12T08:01:18.994Z</time>
      </trkpt>
      <trkpt lat="48.28405" lon="14.34706">
        <ele>250.000903</ele>
        <time>2022-09-12T08:01:56.915Z</time>
      </trkpt>
      <trkpt lat="48.28489" lon="14.34648">
        <ele>250.004843</ele>
        <time>2022-09-12T08:02:21.632Z</time>
      </trkpt>
      <trkpt lat="48.28588" lon="14.34594">
        <ele>250.056401</ele>
        <time>2022-09-12T08:02:49.689Z</time>
      </trkpt>
      <trkpt lat="48.28677" lon="14.34556">
        <ele>250.171276</ele>
        <time>2022-09-12T08:03:14.796Z</time>
      </trkpt>
      <trkpt lat="48.29129" lon="14.3439">
        <ele>251.376539</ele>
        <time>2022-09-12T08:05:25.012Z</time>
      </trkpt>
      <trkpt lat="48.2947" lon="14.3421">
        <ele>252.839592</ele>
        <time>2022-09-12T08:07:08.797Z</time>
      </trkpt>
      <trkpt lat="48.29558" lon="14.34181">
        <ele>253.143353</ele>
        <time>2022-09-12T08:07:35.380Z</time>
      </trkpt>
      <trkpt lat="48.29717" lon="14.34151">
        <ele>252.823673</ele>
        <time>2022-09-12T08:08:16.645Z</time>
      </trkpt>
      <trkpt lat="48.29807" lon="14.34124">
        <ele>252.57231</ele>
        <time>2022-09-12T08:08:38.629Z</time>
      </trkpt>
      <trkpt lat="48.2986" lon="14.34103">
        <ele>252.450991</ele>
        <time>2022-09-12T08:08:52.264Z</time>
      </trkpt>
      <trkpt lat="48.29868" lon="14.34099">
        <ele>252.433337</ele>
        <time>2022-09-12T08:08:54.179Z</time>
      </trkpt>
      <trkpt lat="48.30207" lon="14.33933">
        <ele>253.237646</ele>
        <time>2022-09-12T08:10:33.292Z</time>
      </trkpt>
      <trkpt lat="48.30295" lon="14.33867">
        <ele>254.068423</ele>
        <time>2022-09-12T08:11:03.699Z</time>
      </trkpt>
      <trkpt lat="48.30316" lon="14.33864">
        <ele>254.451838</ele>
        <time>2022-09-12T08:11:10.297Z</time>
      </trkpt>
      <trkpt lat="48.30524" lon="14.33703">
        <ele>258.70192</ele>
        <time>2022-09-12T08:12:37.557Z</time>
      </trkpt>
      <trkpt lat="48.30588" lon="14.33677">
        <ele>259.841173</ele>
        <time>2022-09-12T08:13:01.159Z</time>
      </trkpt>
      <trkpt lat="48.30738" lon="14.33642">
        <ele>259.603184</ele>
        <time>2022-09-12T08:13:41.914Z</time>
      </trkpt>
      <trkpt lat="48.30827" lon="14.33604">
        <ele>258.707885</ele>
        <time>2022-09-12T08:14:01.527Z</time>
      </trkpt>
      <trkpt lat="48.30858" lon="14.33572">
        <ele>258.132908</ele>
        <time>2022-09-12T08:14:09.757Z</time>
      </trkpt>
      <trkpt lat="48.30874" lon="14.3356">
        <ele>257.860116</ele>
        <time>2022-09-12T08:14:13.602Z</time>
      </trkpt>
      <trkpt lat="48.30885" lon="14.33554">
        <ele>257.680953</ele>
        <time>2022-09-12T08:14:16.225Z</time>
      </trkpt>
      <trkpt lat="48.30998" lon="14.3351">
        <ele>256.475264</ele>
        <time>2022-09-12T08:14:42.289Z</time>
      </trkpt>
      <trkpt lat="48.31082" lon="14.33476">
        <ele>256.134635</ele>
        <time>2022-09-12T08:15:06.689Z</time>
      </trkpt>
      <trkpt lat="48.31349" lon="14.33347">
        <ele>255.47651</ele>
        <time>2022-09-12T08:16:16.428Z</time>
      </trkpt>
      <trkpt lat="48.31415" lon="14.33306">
        <ele>255.728948</ele>
        <time>2022-09-12T08:16:37.110Z</time>
      </trkpt>
      <trkpt lat="48.31661" lon="14.33108">
        <ele>257.937069</ele>
        <time>2022-09-12T08:18:06.785Z</time>
      </trkpt>
      <trkpt lat="48.3166" lon="14.33103">
        <ele>257.940329</ele>
        <time>2022-09-12T08:18:08.217Z</time>
      </trkpt>
      <trkpt lat="48.31693" lon="14.33065">
        <ele>257.980562</ele>
        <time>2022-09-12T08:18:19.665Z</time>
      </trkpt>
      <trkpt lat="48.31861" lon="14.32932">
        <ele>257.520854</ele>
        <time>2022-09-12T08:19:39.350Z</time>
      </trkpt>
      <trkpt lat="48.31901" lon="14.32901">
        <ele>257.291284</ele>
        <time>2022-09-12T08:19:58.289Z</time>
      </trkpt>
      <trkpt lat="48.31937" lon="14.32872">
        <ele>257.127769</ele>
        <time>2022-09-12T08:20:08.313Z</time>
      </trkpt>
      <trkpt lat="48.31954" lon="14.32845">
        <ele>257.111821</ele>
        <time>2022-09-12T08:20:19.221Z</time>
      </trkpt>
      <trkpt lat="48.31996" lon="14.32806">
        <ele>257.080146</ele>
        <time>2022-09-12T08:20:41.164Z</time>
      </trkpt>
      <trkpt lat="48.31954" lon="14.32845">
        <ele>257.048472</ele>
        <time>2022-09-12T08:21:04.077Z</time>
      </trkpt>
      <trkpt lat="48.31937" lon="14.32872">
        <ele>257.032523</ele>
        <time>2022-09-12T08:21:15.182Z</time>
      </trkpt>
      <trkpt lat="48.32024" lon="14.32802">
        <ele>256.681887</ele>
        <time>2022-09-12T08:21:40.544Z</time>
      </trkpt>
      <trkpt lat="48.32149" lon="14.3268">
        <ele>255.750012</ele>
        <time>2022-09-12T08:22:16.649Z</time>
      </trkpt>
      <trkpt lat="48.32243" lon="14.32561">
        <ele>254.467845</ele>
        <time>2022-09-12T08:22:44.058Z</time>
      </trkpt>
      <trkpt lat="48.32316" lon="14.32445">
        <ele>253.972361</ele>
        <time>2022-09-12T08:23:09.442Z</time>
      </trkpt>
      <trkpt lat="48.32325" lon="14.32427">
        <ele>253.908745</ele>
        <time>2022-09-12T08:23:13.529Z</time>
      </trkpt>
      <trkpt lat="48.32357" lon="14.32381">
        <ele>253.727764</ele>
        <time>2022-09-12T08:23:25.128Z</time>
      </trkpt>
      <trkpt lat="48.32375" lon="14.32355">
        <ele>253.634233</ele>
        <time>2022-09-12T08:23:31.980Z</time>
      </trkpt>
      <trkpt lat="48.32377" lon="14.32345">
        <ele>253.648719</ele>
        <time>2022-09-12T08:23:34.011Z</time>
      </trkpt>
      <trkpt lat="48.32392" lon="14.32297">
        <ele>253.722611</ele>
        <time>2022-09-12T08:23:43.847Z</time>
      </trkpt>
      <trkpt lat="48.32457" lon="14.32127">
        <ele>253.997514</ele>
        <time>2022-09-12T08:24:21.246Z</time>
      </trkpt>
      <trkpt lat="48.32458" lon="14.32106">
        <ele>253.966006</ele>
        <time>2022-09-12T08:24:24.737Z</time>
      </trkpt>
      <trkpt lat="48.32473" lon="14.32082">
        <ele>253.858279</ele>
        <time>2022-09-12T08:24:30.137Z</time>
      </trkpt>
      <trkpt lat="48.32505" lon="14.31978">
        <ele>253.468527</ele>
        <time>2022-09-12T08:24:48.577Z</time>
      </trkpt>
      <trkpt lat="48.32538" lon="14.31843">
        <ele>253.003798</ele>
        <time>2022-09-12T08:25:11.372Z</time>
      </trkpt>
      <trkpt lat="48.32575" lon="14.31657">
        <ele>252.467515</ele>
        <time>2022-09-12T08:25:43.614Z</time>
      </trkpt>
      <trkpt lat="48.32595" lon="14.31503">
        <ele>252.299804</ele>
        <time>2022-09-12T08:26:11.193Z</time>
      </trkpt>
      <trkpt lat="48.32596" lon="14.31473">
        <ele>252.28705</ele>
        <time>2022-09-12T08:26:16.410Z</time>
      </trkpt>
      <trkpt lat="48.32597" lon="14.31447">
        <ele>252.275523</ele>
        <time>2022-09-12T08:26:21.177Z</time>
      </trkpt>
      <trkpt lat="48.32604" lon="14.3134">
        <ele>252.234246</ele>
        <time>2022-09-12T08:26:39.848Z</time>
      </trkpt>
      <trkpt lat="48.32608" lon="14.31132">
        <ele>252.293209</ele>
        <time>2022-09-12T08:27:16.737Z</time>
      </trkpt>
      <trkpt lat="48.32598" lon="14.30947">
        <ele>252.751538</ele>
        <time>2022-09-12T08:27:51.399Z</time>
      </trkpt>
      <trkpt lat="48.32583" lon="14.30822">
        <ele>253.183149</ele>
        <time>2022-09-12T08:28:16.828Z</time>
      </trkpt>
      <trkpt lat="48.32556" lon="14.30653">
        <ele>254.290884</ele>
        <time>2022-09-12T08:28:52.600Z</time>
      </trkpt>
      <trkpt lat="48.32508" lon="14.30469">
        <ele>255.355549</ele>
        <time>2022-09-12T08:29:35.051Z</time>
      </trkpt>
      <trkpt lat="48.3246" lon="14.30321">
        <ele>255.992434</ele>
        <time>2022-09-12T08:30:06.533Z</time>
      </trkpt>
      <trkpt lat="48.32411" lon="14.30194">
        <ele>255.76675</ele>
        <time>2022-09-12T08:30:31.817Z</time>
      </trkpt>
      <trkpt lat="48.32336" lon="14.30038">
        <ele>255.244281</ele>
        <time>2022-09-12T08:31:02.854Z</time>
      </trkpt>
      <trkpt lat="48.32274" lon="14.29929">
        <ele>254.702367</ele>
        <time>2022-09-12T08:31:26.773Z</time>
      </trkpt>
      <trkpt lat="48.32234" lon="14.2985">
        <ele>254.286746</ele>
        <time>2022-09-12T08:31:42.222Z</time>
      </trkpt>
      <trkpt lat="48.32226" lon="14.29839">
        <ele>254.198273</ele>
        <time>2022-09-12T08:31:44.707Z</time>
      </trkpt>
      <trkpt lat="48.3217" lon="14.29786">
        <ele>253.650314</ele>
        <time>2022-09-12T08:32:00.238Z</time>
      </trkpt>
      <trkpt lat="48.32158" lon="14.29774">
        <ele>253.527936</ele>
        <time>2022-09-12T08:32:03.684Z</time>
      </trkpt>
      <trkpt lat="48.32127" lon="14.29719">
        <ele>253.132816</ele>
        <time>2022-09-12T08:32:14.839Z</time>
      </trkpt>
      <trkpt lat="48.32033" lon="14.29596">
        <ele>252.927079</ele>
        <time>2022-09-12T08:32:45.705Z</time>
      </trkpt>
      <trkpt lat="48.31978" lon="14.29525">
        <ele>252.930435</ele>
        <time>2022-09-12T08:33:06.636Z</time>
      </trkpt>
      <trkpt lat="48.31952" lon="14.29493">
        <ele>253.09475</ele>
        <time>2022-09-12T08:33:17.020Z</time>
      </trkpt>
      <trkpt lat="48.31944" lon="14.29484">
        <ele>253.162753</ele>
        <time>2022-09-12T08:33:20.470Z</time>
      </trkpt>
      <trkpt lat="48.31934" lon="14.29474">
        <ele>253.240472</ele>
        <time>2022-09-12T08:33:24.667Z</time>
      </trkpt>
      <trkpt lat="48.31875" lon="14.29396">
        <ele>253.747869</ele>
        <time>2022-09-12T08:33:49.356Z</time>
      </trkpt>
      <trkpt lat="48.31868" lon="14.29388">
        <ele>253.805363</ele>
        <time>2022-09-12T08:33:51.719Z</time>
      </trkpt>
      <trkpt lat="48.3183" lon="14.29348">
        <ele>254.092589</ele>
        <time>2022-09-12T08:34:04.292Z</time>
      </trkpt>
      <trkpt lat="48.31802" lon="14.29318">
        <ele>253.986525</ele>
        <time>2022-09-12T08:34:13.186Z</time>
      </trkpt>
      <trkpt lat="48.31761" lon="14.29402">
        <ele>253.773461</ele>
        <time>2022-09-12T08:34:31.253Z</time>
      </trkpt>
      <trkpt lat="48.31746" lon="14.29402">
        <ele>253.727324</ele>
        <time>2022-09-12T08:34:35.292Z</time>
      </trkpt>
      <trkpt lat="48.31649" lon="14.29293">
        <ele>253.35869</ele>
        <time>2022-09-12T08:35:04.045Z</time>
      </trkpt>
      <trkpt lat="48.31636" lon="14.29278">
        <ele>253.309617</ele>
        <time>2022-09-12T08:35:08.132Z</time>
      </trkpt>
      <trkpt lat="48.31591" lon="14.29234">
        <ele>253.14682</ele>
        <time>2022-09-12T08:35:22.402Z</time>
      </trkpt>
      <trkpt lat="48.31492" lon="14.29134">
        <ele>252.995213</ele>
        <time>2022-09-12T08:35:54.248Z</time>
      </trkpt>
      <trkpt lat="48.31422" lon="14.29063">
        <ele>252.989502</ele>
        <time>2022-09-12T08:36:16.907Z</time>
      </trkpt>
      <trkpt lat="48.31176" lon="14.28809">
        <ele>252.92987</ele>
        <time>2022-09-12T08:37:35.892Z</time>
      </trkpt>
      <trkpt lat="48.31121" lon="14.28738">
        <ele>252.92858</ele>
        <time>2022-09-12T08:37:55.157Z</time>
      </trkpt>
      <trkpt lat="48.31116" lon="14.28723">
        <ele>252.928376</ele>
        <time>2022-09-12T08:37:58.063Z</time>
      </trkpt>
      <trkpt lat="48.31107" lon="14.28697">
        <ele>252.972935</ele>
        <time>2022-09-12T08:38:03.522Z</time>
      </trkpt>
      <trkpt lat="48.31073" lon="14.28657">
        <ele>253.081884</ele>
        <time>2022-09-12T08:38:15.287Z</time>
      </trkpt>
      <trkpt lat="48.31033" lon="14.28596">
        <ele>253.227131</ele>
        <time>2022-09-12T08:38:30.891Z</time>
      </trkpt>
      <trkpt lat="48.31011" lon="14.28579">
        <ele>253.291147</ele>
        <time>2022-09-12T08:38:37.826Z</time>
      </trkpt>
      <trkpt lat="48.30991" lon="14.2854">
        <ele>253.374041</ele>
        <time>2022-09-12T08:38:47.645Z</time>
      </trkpt>
      <trkpt lat="48.30981" lon="14.28513">
        <ele>253.686218</ele>
        <time>2022-09-12T08:38:54.113Z</time>
      </trkpt>
      <trkpt lat="48.30953" lon="14.28464">
        <ele>254.476643</ele>
        <time>2022-09-12T08:39:06.244Z</time>
      </trkpt>
      <trkpt lat="48.30931" lon="14.2843">
        <ele>255.05138</ele>
        <time>2022-09-12T08:39:16.562Z</time>
      </trkpt>
      <trkpt lat="48.30919" lon="14.28393">
        <ele>255.563263</ele>
        <time>2022-09-12T08:39:26.333Z</time>
      </trkpt>
      <trkpt lat="48.30906" lon="14.28351">
        <ele>256.13086</ele>
        <time>2022-09-12T08:39:38.477Z</time>
      </trkpt>
      <trkpt lat="48.30901" lon="14.28341">
        <ele>256.271455</ele>
        <time>2022-09-12T08:39:41.794Z</time>
      </trkpt>
      <trkpt lat="48.30899" lon="14.28336">
        <ele>256.353141</ele>
        <time>2022-09-12T08:39:43.668Z</time>
      </trkpt>
      <trkpt lat="48.30887" lon="14.28313">
        <ele>256.712335</ele>
        <time>2022-09-12T08:39:51.705Z</time>
      </trkpt>
      <trkpt lat="48.30877" lon="14.28273">
        <ele>257.789587</ele>
        <time>2022-09-12T08:40:04.443Z</time>
      </trkpt>
      <trkpt lat="48.30878" lon="14.28269">
        <ele>257.905503</ele>
        <time>2022-09-12T08:40:05.980Z</time>
      </trkpt>
      <trkpt lat="48.30891" lon="14.2828">
        <ele>258.469164</ele>
        <time>2022-09-12T08:40:13.516Z</time>
      </trkpt>
      <trkpt lat="48.30899" lon="14.28278">
        <ele>258.790763</ele>
        <time>2022-09-12T08:40:17.591Z</time>
      </trkpt>
      <trkpt lat="48.30899" lon="14.2825">
        <ele>259.495638</ele>
        <time>2022-09-12T08:40:26.766Z</time>
      </trkpt>
      <trkpt lat="48.30917" lon="14.28227">
        <ele>260.394019</ele>
        <time>2022-09-12T08:40:38.375Z</time>
      </trkpt>
      <trkpt lat="48.30926" lon="14.28219">
        <ele>260.791457</ele>
        <time>2022-09-12T08:40:43.726Z</time>
      </trkpt>
      <trkpt lat="48.30999" lon="14.28155">
        <ele>263.477598</ele>
        <time>2022-09-12T08:41:22.043Z</time>
      </trkpt>
      <trkpt lat="48.31005" lon="14.28149">
        <ele>263.411547</ele>
        <time>2022-09-12T08:41:24.860Z</time>
      </trkpt>
      <trkpt lat="48.31018" lon="14.28184">
        <ele>263.187808</ele>
        <time>2022-09-12T08:41:33.100Z</time>
      </trkpt>
      <trkpt lat="48.3102" lon="14.2819">
        <ele>263.151188</ele>
        <time>2022-09-12T08:41:34.352Z</time>
      </trkpt>
      <trkpt lat="48.31038" lon="14.28242">
        <ele>262.814163</ele>
        <time>2022-09-12T08:41:43.540Z</time>
      </trkpt>
      <trkpt lat="48.31048" lon="14.28293">
        <ele>262.514216</ele>
        <time>2022-09-12T08:41:50.633Z</time>
      </trkpt>
      <trkpt lat="48.31047" lon="14.28297">
        <ele>262.492205</ele>
        <time>2022-09-12T08:41:51.130Z</time>
      </trkpt>
      <trkpt lat="48.3098" lon="14.28351">
        <ele>262.004281</ele>
        <time>2022-09-12T08:42:06.217Z</time>
      </trkpt>
      <trkpt lat="48.30931" lon="14.28386">
        <ele>261.924819</ele>
        <time>2022-09-12T08:42:17.506Z</time>
      </trkpt>
      <trkpt lat="48.30921" lon="14.28394">
        <ele>261.908611</ele>
        <time>2022-09-12T08:42:20.704Z</time>
      </trkpt>
      <trkpt lat="48.30718" lon="14.28544">
        <ele>265.540296</ele>
        <time>2022-09-12T08:44:06.476Z</time>
      </trkpt>
      <trkpt lat="48.30691" lon="14.28563">
        <ele>266.362862</ele>
        <time>2022-09-12T08:44:23.223Z</time>
      </trkpt>
      <trkpt lat="48.30689" lon="14.28565">
        <ele>266.437389</ele>
        <time>2022-09-12T08:44:24.426Z</time>
      </trkpt>
      <trkpt lat="48.30683" lon="14.28569">
        <ele>266.6146</ele>
        <time>2022-09-12T08:44:27.162Z</time>
      </trkpt>
      <trkpt lat="48.30677" lon="14.28573">
        <ele>266.781418</ele>
        <time>2022-09-12T08:44:29.897Z</time>
      </trkpt>
      <trkpt lat="48.30676" lon="14.28577">
        <ele>266.843571</ele>
        <time>2022-09-12T08:44:31.335Z</time>
      </trkpt>
      <trkpt lat="48.30658" lon="14.28591">
        <ele>267.21823</ele>
        <time>2022-09-12T08:44:40.813Z</time>
      </trkpt>
      <trkpt lat="48.30656" lon="14.28596">
        <ele>267.293101</ele>
        <time>2022-09-12T08:44:42.468Z</time>
      </trkpt>
      <trkpt lat="48.30642" lon="14.28604">
        <ele>267.574189</ele>
        <time>2022-09-12T08:44:48.724Z</time>
      </trkpt>
      <trkpt lat="48.30611" lon="14.28619">
        <ele>268.187492</ele>
        <time>2022-09-12T08:45:01.902Z</time>
      </trkpt>
      <trkpt lat="48.30601" lon="14.28602">
        <ele>268.477232</ele>
        <time>2022-09-12T08:45:07.924Z</time>
      </trkpt>
      <trkpt lat="48.30564" lon="14.2862">
        <ele>269.194206</ele>
        <time>2022-09-12T08:45:20.488Z</time>
      </trkpt>
      <trkpt lat="48.30527" lon="14.28643">
        <ele>269.951102</ele>
        <time>2022-09-12T08:45:33.020Z</time>
      </trkpt>
      <trkpt lat="48.30564" lon="14.2862">
        <ele>269.739469</ele>
        <time>2022-09-12T08:45:45.260Z</time>
      </trkpt>
      <trkpt lat="48.30601" lon="14.28602">
        <ele>269.251065</ele>
        <time>2022-09-12T08:45:55.423Z</time>
      </trkpt>
      <trkpt lat="48.30611" lon="14.28619">
        <ele>269.053693</ele>
        <time>2022-09-12T08:45:58.879Z</time>
      </trkpt>
      <trkpt lat="48.30602" lon="14.28629">
        <ele>268.915827</ele>
        <time>2022-09-12T08:46:01.780Z</time>
      </trkpt>
      <trkpt lat="48.30604" lon="14.28644">
        <ele>268.792151</ele>
        <time>2022-09-12T08:46:03.833Z</time>
      </trkpt>
      <trkpt lat="48.30613" lon="14.2865">
        <ele>268.660134</ele>
        <time>2022-09-12T08:46:05.887Z</time>
      </trkpt>
      <trkpt lat="48.30611" lon="14.28656">
        <ele>268.606457</ele>
        <time>2022-09-12T08:46:06.784Z</time>
      </trkpt>
      <trkpt lat="48.30612" lon="14.28668">
        <ele>268.500879</ele>
        <time>2022-09-12T08:46:08.685Z</time>
      </trkpt>
      <trkpt lat="48.30637" lon="14.28747">
        <ele>267.740052</ele>
        <time>2022-09-12T08:46:20.844Z</time>
      </trkpt>
      <trkpt lat="48.30648" lon="14.288">
        <ele>267.139777</ele>
        <time>2022-09-12T08:46:28.945Z</time>
      </trkpt>
      <trkpt lat="48.30648" lon="14.28803">
        <ele>267.103142</ele>
        <time>2022-09-12T08:46:29.425Z</time>
      </trkpt>
      <trkpt lat="48.30644" lon="14.28805">
        <ele>267.032725</ele>
        <time>2022-09-12T08:46:30.495Z</time>
      </trkpt>
      <trkpt lat="48.30638" lon="14.28814">
        <ele>266.893101</ele>
        <time>2022-09-12T08:46:32.732Z</time>
      </trkpt>
      <trkpt lat="48.30647" lon="14.28878">
        <ele>266.17854</ele>
        <time>2022-09-12T08:46:42.868Z</time>
      </trkpt>
      <trkpt lat="48.30651" lon="14.289">
        <ele>265.926081</ele>
        <time>2022-09-12T08:46:46.519Z</time>
      </trkpt>
      <trkpt lat="48.30652" lon="14.28908">
        <ele>265.845359</ele>
        <time>2022-09-12T08:46:47.701Z</time>
      </trkpt>
      <trkpt lat="48.30662" lon="14.28952">
        <ele>265.336088</ele>
        <time>2022-09-12T08:46:54.689Z</time>
      </trkpt>
      <trkpt lat="48.30664" lon="14.28957">
        <ele>265.272636</ele>
        <time>2022-09-12T08:46:55.608Z</time>
      </trkpt>
      <trkpt lat="48.30665" lon="14.28963">
        <ele>265.20401</ele>
        <time>2022-09-12T08:46:56.508Z</time>
      </trkpt>
      <trkpt lat="48.30675" lon="14.29031">
        <ele>264.916154</ele>
        <time>2022-09-12T08:47:06.600Z</time>
      </trkpt>
      <trkpt lat="48.30664" lon="14.29122">
        <ele>264.946812</ele>
        <time>2022-09-12T08:47:22.573Z</time>
      </trkpt>
      <trkpt lat="48.30656" lon="14.29181">
        <ele>264.966654</ele>
        <time>2022-09-12T08:47:34.456Z</time>
      </trkpt>
      <trkpt lat="48.30655" lon="14.29194">
        <ele>264.971225</ele>
        <time>2022-09-12T08:47:37.257Z</time>
      </trkpt>
      <trkpt lat="48.3065" lon="14.29194">
        <ele>264.97358</ele>
        <time>2022-09-12T08:47:38.824Z</time>
      </trkpt>
      <trkpt lat="48.30594" lon="14.29215">
        <ele>265.113989</ele>
        <time>2022-09-12T08:47:57.416Z</time>
      </trkpt>
      <trkpt lat="48.30591" lon="14.29216">
        <ele>265.131363</ele>
        <time>2022-09-12T08:47:58.249Z</time>
      </trkpt>
      <trkpt lat="48.30588" lon="14.2922">
        <ele>265.156782</ele>
        <time>2022-09-12T08:47:59.601Z</time>
      </trkpt>
      <trkpt lat="48.30588" lon="14.29223">
        <ele>265.169186</ele>
        <time>2022-09-12T08:48:00.288Z</time>
      </trkpt>
      <trkpt lat="48.30592" lon="14.29242">
        <ele>265.245582</ele>
        <time>2022-09-12T08:48:04.532Z</time>
      </trkpt>
      <trkpt lat="48.30594" lon="14.29253">
        <ele>265.288445</ele>
        <time>2022-09-12T08:48:06.968Z</time>
      </trkpt>
      <trkpt lat="48.30599" lon="14.29283">
        <ele>265.406227</ele>
        <time>2022-09-12T08:48:12.997Z</time>
      </trkpt>
      <trkpt lat="48.30599" lon="14.29287">
        <ele>265.42249</ele>
        <time>2022-09-12T08:48:13.825Z</time>
      </trkpt>
      <trkpt lat="48.30596" lon="14.29288">
        <ele>265.440597</ele>
        <time>2022-09-12T08:48:14.766Z</time>
      </trkpt>
      <trkpt lat="48.30582" lon="14.29291">
        <ele>265.521881</ele>
        <time>2022-09-12T08:48:19.075Z</time>
      </trkpt>
      <trkpt lat="48.30576" lon="14.29293">
        <ele>265.558725</ele>
        <time>2022-09-12T08:48:20.886Z</time>
      </trkpt>
      <trkpt lat="48.30548" lon="14.29299">
        <ele>265.721294</ele>
        <time>2022-09-12T08:48:29.633Z</time>
      </trkpt>
      <trkpt lat="48.30498" lon="14.29312">
        <ele>266.015781</ele>
        <time>2022-09-12T08:48:44.629Z</time>
      </trkpt>
      <trkpt lat="48.30497" lon="14.29312">
        <ele>266.024012</ele>
        <time>2022-09-12T08:48:45.056Z</time>
      </trkpt>
      <trkpt lat="48.30493" lon="14.29313">
        <ele>266.024188</ele>
        <time>2022-09-12T08:48:46.109Z</time>
      </trkpt>
      <trkpt lat="48.30489" lon="14.29314">
        <ele>266.012329</ele>
        <time>2022-09-12T08:48:47.335Z</time>
      </trkpt>
      <trkpt lat="48.30488" lon="14.29314">
        <ele>266.008574</ele>
        <time>2022-09-12T08:48:47.741Z</time>
      </trkpt>
      <trkpt lat="48.30412" lon="14.29332">
        <ele>265.791099</ele>
        <time>2022-09-12T08:49:09.487Z</time>
      </trkpt>
      <trkpt lat="48.30406" lon="14.29335">
        <ele>265.771192</ele>
        <time>2022-09-12T08:49:11.389Z</time>
      </trkpt>
      <trkpt lat="48.30402" lon="14.29337">
        <ele>265.7608</ele>
        <time>2022-09-12T08:49:12.300Z</time>
      </trkpt>
      <trkpt lat="48.30398" lon="14.29339">
        <ele>265.748932</ele>
        <time>2022-09-12T08:49:13.274Z</time>
      </trkpt>
      <trkpt lat="48.30375" lon="14.29347">
        <ele>265.680939</ele>
        <time>2022-09-12T08:49:18.747Z</time>
      </trkpt>
      <trkpt lat="48.30362" lon="14.29352">
        <ele>265.642949</ele>
        <time>2022-09-12T08:49:21.940Z</time>
      </trkpt>
      <trkpt lat="48.30358" lon="14.29354">
        <ele>265.63037</ele>
        <time>2022-09-12T08:49:22.986Z</time>
      </trkpt>
      <trkpt lat="48.30283" lon="14.29389">
        <ele>265.351059</ele>
        <time>2022-09-12T08:49:41.805Z</time>
      </trkpt>
      <trkpt lat="48.30281" lon="14.2939">
        <ele>265.341723</ele>
        <time>2022-09-12T08:49:42.360Z</time>
      </trkpt>
      <trkpt lat="48.30278" lon="14.29391">
        <ele>265.329706</ele>
        <time>2022-09-12T08:49:43.079Z</time>
      </trkpt>
      <trkpt lat="48.30189" lon="14.29436">
        <ele>264.930949</ele>
        <time>2022-09-12T08:50:06.998Z</time>
      </trkpt>
      <trkpt lat="48.30184" lon="14.29439">
        <ele>264.908924</ele>
        <time>2022-09-12T08:50:08.307Z</time>
      </trkpt>
      <trkpt lat="48.3018" lon="14.29441">
        <ele>264.891764</ele>
        <time>2022-09-12T08:50:09.324Z</time>
      </trkpt>
      <trkpt lat="48.30177" lon="14.29443">
        <ele>264.87996</ele>
        <time>2022-09-12T08:50:09.980Z</time>
      </trkpt>
      <trkpt lat="48.30164" lon="14.2945">
        <ele>264.819752</ele>
        <time>2022-09-12T08:50:13.564Z</time>
      </trkpt>
      <trkpt lat="48.30128" lon="14.2947">
        <ele>264.81097</ele>
        <time>2022-09-12T08:50:23.468Z</time>
      </trkpt>
      <trkpt lat="48.30124" lon="14.29472">
        <ele>264.819515</ele>
        <time>2022-09-12T08:50:24.425Z</time>
      </trkpt>
      <trkpt lat="48.30121" lon="14.29473">
        <ele>264.827832</ele>
        <time>2022-09-12T08:50:25.328Z</time>
      </trkpt>
      <trkpt lat="48.30118" lon="14.29474">
        <ele>264.834942</ele>
        <time>2022-09-12T08:50:26.088Z</time>
      </trkpt>
      <trkpt lat="48.30115" lon="14.29474">
        <ele>264.842071</ele>
        <time>2022-09-12T08:50:26.859Z</time>
      </trkpt>
      <trkpt lat="48.30108" lon="14.29475">
        <ele>264.856696</ele>
        <time>2022-09-12T08:50:28.458Z</time>
      </trkpt>
      <trkpt lat="48.30091" lon="14.29483">
        <ele>264.900737</ele>
        <time>2022-09-12T08:50:33.803Z</time>
      </trkpt>
      <trkpt lat="48.30076" lon="14.29492">
        <ele>264.938276</ele>
        <time>2022-09-12T08:50:38.196Z</time>
      </trkpt>
      <trkpt lat="48.30057" lon="14.29502">
        <ele>264.984748</ele>
        <time>2022-09-12T08:50:43.978Z</time>
      </trkpt>
      <trkpt lat="48.30042" lon="14.29513">
        <ele>265.023894</ele>
        <time>2022-09-12T08:50:48.655Z</time>
      </trkpt>
      <trkpt lat="48.30037" lon="14.29518">
        <ele>265.038867</ele>
        <time>2022-09-12T08:50:50.562Z</time>
      </trkpt>
      <trkpt lat="48.30034" lon="14.29522">
        <ele>265.047812</ele>
        <time>2022-09-12T08:50:51.681Z</time>
      </trkpt>
      <trkpt lat="48.30031" lon="14.29526">
        <ele>265.057615</ele>
        <time>2022-09-12T08:50:52.924Z</time>
      </trkpt>
      <trkpt lat="48.30028" lon="14.29529">
        <ele>265.065451</ele>
        <time>2022-09-12T08:50:53.939Z</time>
      </trkpt>
      <trkpt lat="48.30027" lon="14.2953">
        <ele>265.069037</ele>
        <time>2022-09-12T08:50:54.385Z</time>
      </trkpt>
      <trkpt lat="48.30011" lon="14.29539">
        <ele>265.109502</ele>
        <time>2022-09-12T08:50:59.337Z</time>
      </trkpt>
      <trkpt lat="48.2999" lon="14.29551">
        <ele>265.160826</ele>
        <time>2022-09-12T08:51:05.907Z</time>
      </trkpt>
      <trkpt lat="48.29947" lon="14.29577">
        <ele>265.21445</ele>
        <time>2022-09-12T08:51:19.228Z</time>
      </trkpt>
      <trkpt lat="48.29943" lon="14.29579">
        <ele>265.218369</ele>
        <time>2022-09-12T08:51:20.468Z</time>
      </trkpt>
      <trkpt lat="48.29937" lon="14.29582">
        <ele>265.223727</ele>
        <time>2022-09-12T08:51:22.268Z</time>
      </trkpt>
      <trkpt lat="48.29849" lon="14.29633">
        <ele>265.308745</ele>
        <time>2022-09-12T08:51:49.859Z</time>
      </trkpt>
      <trkpt lat="48.29844" lon="14.29636">
        <ele>265.3137</ele>
        <time>2022-09-12T08:51:51.297Z</time>
      </trkpt>
      <trkpt lat="48.29841" lon="14.29638">
        <ele>265.316813</ele>
        <time>2022-09-12T08:51:52.186Z</time>
      </trkpt>
      <trkpt lat="48.29812" lon="14.29655">
        <ele>265.290409</ele>
        <time>2022-09-12T08:52:00.346Z</time>
      </trkpt>
      <trkpt lat="48.29752" lon="14.2969">
        <ele>264.551776</ele>
        <time>2022-09-12T08:52:15.859Z</time>
      </trkpt>
      <trkpt lat="48.29746" lon="14.29693">
        <ele>264.488876</ele>
        <time>2022-09-12T08:52:17.117Z</time>
      </trkpt>
      <trkpt lat="48.29742" lon="14.29696">
        <ele>264.434576</ele>
        <time>2022-09-12T08:52:18.182Z</time>
      </trkpt>
      <trkpt lat="48.29676" lon="14.29734">
        <ele>263.625512</ele>
        <time>2022-09-12T08:52:34.486Z</time>
      </trkpt>
      <trkpt lat="48.29672" lon="14.29737">
        <ele>263.568513</ele>
        <time>2022-09-12T08:52:35.694Z</time>
      </trkpt>
      <trkpt lat="48.29667" lon="14.29739">
        <ele>263.514213</ele>
        <time>2022-09-12T08:52:36.841Z</time>
      </trkpt>
      <trkpt lat="48.29619" lon="14.29767">
        <ele>263.034804</ele>
        <time>2022-09-12T08:52:48.918Z</time>
      </trkpt>
      <trkpt lat="48.29607" lon="14.29734">
        <ele>262.839222</ele>
        <time>2022-09-12T08:52:54.779Z</time>
      </trkpt>
      <trkpt lat="48.2958" lon="14.29658">
        <ele>262.389301</ele>
        <time>2022-09-12T08:53:08.798Z</time>
      </trkpt>
      <trkpt lat="48.29576" lon="14.29648">
        <ele>262.327407</ele>
        <time>2022-09-12T08:53:10.930Z</time>
      </trkpt>
      <trkpt lat="48.29574" lon="14.29642">
        <ele>262.293652</ele>
        <time>2022-09-12T08:53:12.017Z</time>
      </trkpt>
      <trkpt lat="48.29573" lon="14.29637">
        <ele>262.268287</ele>
        <time>2022-09-12T08:53:12.863Z</time>
      </trkpt>
      <trkpt lat="48.29564" lon="14.29643">
        <ele>262.195629</ele>
        <time>2022-09-12T08:53:15.394Z</time>
      </trkpt>
      <trkpt lat="48.29554" lon="14.29648">
        <ele>262.112941</ele>
        <time>2022-09-12T08:53:18.122Z</time>
      </trkpt>
      <trkpt lat="48.29551" lon="14.29648">
        <ele>262.088686</ele>
        <time>2022-09-12T08:53:19.004Z</time>
      </trkpt>
      <trkpt lat="48.29548" lon="14.29648">
        <ele>262.061321</ele>
        <time>2022-09-12T08:53:19.983Z</time>
      </trkpt>
      <trkpt lat="48.29541" lon="14.29659">
        <ele>261.982948</ele>
        <time>2022-09-12T08:53:22.525Z</time>
      </trkpt>
      <trkpt lat="48.2951" lon="14.29696">
        <ele>261.802469</ele>
        <time>2022-09-12T08:53:33.036Z</time>
      </trkpt>
      <trkpt lat="48.29509" lon="14.29697">
        <ele>261.799928</ele>
        <time>2022-09-12T08:53:33.319Z</time>
      </trkpt>
      <trkpt lat="48.29506" lon="14.297">
        <ele>261.789186</ele>
        <time>2022-09-12T08:53:34.413Z</time>
      </trkpt>
      <trkpt lat="48.29509" lon="14.29707">
        <ele>261.77274</ele>
        <time>2022-09-12T08:53:35.961Z</time>
      </trkpt>
      <trkpt lat="48.29506" lon="14.29712">
        <ele>261.76048</ele>
        <time>2022-09-12T08:53:37.212Z</time>
      </trkpt>
      <trkpt lat="48.29497" lon="14.29722">
        <ele>261.730754</ele>
        <time>2022-09-12T08:53:40.238Z</time>
      </trkpt>
      <trkpt lat="48.29475" lon="14.29756">
        <ele>261.648254</ele>
        <time>2022-09-12T08:53:48.395Z</time>
      </trkpt>
      <trkpt lat="48.29471" lon="14.29747">
        <ele>261.628605</ele>
        <time>2022-09-12T08:53:50.216Z</time>
      </trkpt>
      <trkpt lat="48.29464" lon="14.29759">
        <ele>261.600221</ele>
        <time>2022-09-12T08:53:53.135Z</time>
      </trkpt>
      <trkpt lat="48.29444" lon="14.29795">
        <ele>261.518247</ele>
        <time>2022-09-12T08:54:01.112Z</time>
      </trkpt>
      <trkpt lat="48.29393" lon="14.29843">
        <ele>261.357889</ele>
        <time>2022-09-12T08:54:16.935Z</time>
      </trkpt>
      <trkpt lat="48.29389" lon="14.29846">
        <ele>261.347089</ele>
        <time>2022-09-12T08:54:17.973Z</time>
      </trkpt>
      <trkpt lat="48.29385" lon="14.29851">
        <ele>261.333152</ele>
        <time>2022-09-12T08:54:19.388Z</time>
      </trkpt>
      <trkpt lat="48.29382" lon="14.29853">
        <ele>261.323645</ele>
        <time>2022-09-12T08:54:20.378Z</time>
      </trkpt>
      <trkpt lat="48.29293" lon="14.29936">
        <ele>261.042312</ele>
        <time>2022-09-12T08:54:47.848Z</time>
      </trkpt>
      <trkpt lat="48.29292" lon="14.29937">
        <ele>261.039174</ele>
        <time>2022-09-12T08:54:48.133Z</time>
      </trkpt>
      <trkpt lat="48.29291" lon="14.29938">
        <ele>261.036682</ele>
        <time>2022-09-12T08:54:48.364Z</time>
      </trkpt>
      <trkpt lat="48.29288" lon="14.29941">
        <ele>261.025882</ele>
        <time>2022-09-12T08:54:49.403Z</time>
      </trkpt>
      <trkpt lat="48.29283" lon="14.29945">
        <ele>261.010652</ele>
        <time>2022-09-12T08:54:50.894Z</time>
      </trkpt>
      <trkpt lat="48.2928" lon="14.29948">
        <ele>261.000269</ele>
        <time>2022-09-12T08:54:51.893Z</time>
      </trkpt>
      <trkpt lat="48.29229" lon="14.29996">
        <ele>261.084563</ele>
        <time>2022-09-12T08:55:08.344Z</time>
      </trkpt>
      <trkpt lat="48.29223" lon="14.3">
        <ele>261.125472</ele>
        <time>2022-09-12T08:55:10.149Z</time>
      </trkpt>
      <trkpt lat="48.29211" lon="14.30012">
        <ele>261.217223</ele>
        <time>2022-09-12T08:55:14.345Z</time>
      </trkpt>
      <trkpt lat="48.2918" lon="14.3004">
        <ele>261.461084</ele>
        <time>2022-09-12T08:55:25.401Z</time>
      </trkpt>
      <trkpt lat="48.29177" lon="14.30043">
        <ele>261.480918</ele>
        <time>2022-09-12T08:55:26.309Z</time>
      </trkpt>
      <trkpt lat="48.29169" lon="14.30055">
        <ele>261.5591</ele>
        <time>2022-09-12T08:55:29.808Z</time>
      </trkpt>
      <trkpt lat="48.29162" lon="14.30065">
        <ele>261.618402</ele>
        <time>2022-09-12T08:55:32.622Z</time>
      </trkpt>
      <trkpt lat="48.29089" lon="14.30136">
        <ele>262.221942</ele>
        <time>2022-09-12T08:56:01.602Z</time>
      </trkpt>
      <trkpt lat="48.29063" lon="14.30158">
        <ele>262.467996</ele>
        <time>2022-09-12T08:56:11.116Z</time>
      </trkpt>
      <trkpt lat="48.2905" lon="14.30167">
        <ele>262.584682</ele>
        <time>2022-09-12T08:56:15.649Z</time>
      </trkpt>
      <trkpt lat="48.29041" lon="14.30171">
        <ele>262.661761</ele>
        <time>2022-09-12T08:56:18.554Z</time>
      </trkpt>
      <trkpt lat="48.29036" lon="14.30173">
        <ele>262.708867</ele>
        <time>2022-09-12T08:56:20.485Z</time>
      </trkpt>
      <trkpt lat="48.29029" lon="14.30174">
        <ele>262.771271</ele>
        <time>2022-09-12T08:56:22.960Z</time>
      </trkpt>
      <trkpt lat="48.28962" lon="14.30173">
        <ele>263.32471</ele>
        <time>2022-09-12T08:56:43.653Z</time>
      </trkpt>
      <trkpt lat="48.28951" lon="14.30173">
        <ele>263.419881</ele>
        <time>2022-09-12T08:56:47.050Z</time>
      </trkpt>
      <trkpt lat="48.28933" lon="14.30173">
        <ele>263.56931</ele>
        <time>2022-09-12T08:56:52.100Z</time>
      </trkpt>
      <trkpt lat="48.28915" lon="14.30172">
        <ele>263.637566</ele>
        <time>2022-09-12T08:56:57.431Z</time>
      </trkpt>
      <trkpt lat="48.28885" lon="14.30172">
        <ele>263.724377</ele>
        <time>2022-09-12T08:57:06.626Z</time>
      </trkpt>
      <trkpt lat="48.28855" lon="14.3018">
        <ele>263.813137</ele>
        <time>2022-09-12T08:57:16.248Z</time>
      </trkpt>
      <trkpt lat="48.2885" lon="14.30184">
        <ele>263.82702</ele>
        <time>2022-09-12T08:57:17.716Z</time>
      </trkpt>
      <trkpt lat="48.28834" lon="14.30198">
        <ele>263.881879</ele>
        <time>2022-09-12T08:57:23.396Z</time>
      </trkpt>
      <trkpt lat="48.28829" lon="14.30202">
        <ele>263.899561</ele>
        <time>2022-09-12T08:57:25.264Z</time>
      </trkpt>
      <trkpt lat="48.28822" lon="14.30207">
        <ele>263.920776</ele>
        <time>2022-09-12T08:57:27.434Z</time>
      </trkpt>
      <trkpt lat="48.28821" lon="14.30208">
        <ele>263.92484</ele>
        <time>2022-09-12T08:57:27.836Z</time>
      </trkpt>
      <trkpt lat="48.28806" lon="14.30215">
        <ele>263.970618</ele>
        <time>2022-09-12T08:57:32.272Z</time>
      </trkpt>
      <trkpt lat="48.28775" lon="14.30215">
        <ele>264.058</ele>
        <time>2022-09-12T08:57:40.757Z</time>
      </trkpt>
      <trkpt lat="48.28758" lon="14.30215">
        <ele>264.108932</ele>
        <time>2022-09-12T08:57:45.611Z</time>
      </trkpt>
      <trkpt lat="48.2874" lon="14.30214">
        <ele>264.018461</ele>
        <time>2022-09-12T08:57:50.407Z</time>
      </trkpt>
      <trkpt lat="48.28721" lon="14.30214">
        <ele>263.907157</ele>
        <time>2022-09-12T08:57:55.340Z</time>
      </trkpt>
      <trkpt lat="48.28709" lon="14.30213">
        <ele>263.833745</ele>
        <time>2022-09-12T08:57:58.574Z</time>
      </trkpt>
      <trkpt lat="48.28701" lon="14.3021">
        <ele>263.784362</ele>
        <time>2022-09-12T08:58:00.626Z</time>
      </trkpt>
      <trkpt lat="48.28692" lon="14.30207">
        <ele>263.734404</ele>
        <time>2022-09-12T08:58:02.742Z</time>
      </trkpt>
      <trkpt lat="48.28687" lon="14.30206">
        <ele>263.703394</ele>
        <time>2022-09-12T08:58:04.049Z</time>
      </trkpt>
      <trkpt lat="48.28655" lon="14.30207">
        <ele>263.509131</ele>
        <time>2022-09-12T08:58:12.177Z</time>
      </trkpt>
      <trkpt lat="48.28636" lon="14.30207">
        <ele>263.401981</ele>
        <time>2022-09-12T08:58:16.734Z</time>
      </trkpt>
      <trkpt lat="48.28595" lon="14.30205">
        <ele>263.159208</ele>
        <time>2022-09-12T08:58:26.848Z</time>
      </trkpt>
      <trkpt lat="48.28587" lon="14.30205">
        <ele>263.110628</ele>
        <time>2022-09-12T08:58:28.901Z</time>
      </trkpt>
      <trkpt lat="48.28566" lon="14.30204">
        <ele>263.020313</ele>
        <time>2022-09-12T08:58:34.274Z</time>
      </trkpt>
      <trkpt lat="48.28557" lon="14.30203">
        <ele>262.997959</ele>
        <time>2022-09-12T08:58:36.374Z</time>
      </trkpt>
      <trkpt lat="48.28554" lon="14.30203">
        <ele>262.989356</ele>
        <time>2022-09-12T08:58:37.174Z</time>
      </trkpt>
      <trkpt lat="48.28549" lon="14.30202">
        <ele>262.977044</ele>
        <time>2022-09-12T08:58:38.305Z</time>
      </trkpt>
      <trkpt lat="48.28542" lon="14.302">
        <ele>262.957729</ele>
        <time>2022-09-12T08:58:40.050Z</time>
      </trkpt>
      <trkpt lat="48.28535" lon="14.30196">
        <ele>262.938689</ele>
        <time>2022-09-12T08:58:41.820Z</time>
      </trkpt>
      <trkpt lat="48.28534" lon="14.30193">
        <ele>262.932614</ele>
        <time>2022-09-12T08:58:42.394Z</time>
      </trkpt>
      <trkpt lat="48.28533" lon="14.30187">
        <ele>262.922847</ele>
        <time>2022-09-12T08:58:43.331Z</time>
      </trkpt>
      <trkpt lat="48.28531" lon="14.3018">
        <ele>262.909614</ele>
        <time>2022-09-12T08:58:44.605Z</time>
      </trkpt>
      <trkpt lat="48.2853" lon="14.3018">
        <ele>262.906491</ele>
        <time>2022-09-12T08:58:44.914Z</time>
      </trkpt>
      <trkpt lat="48.2852" lon="14.30183">
        <ele>262.880569</ele>
        <time>2022-09-12T08:58:47.304Z</time>
      </trkpt>
      <trkpt lat="48.28516" lon="14.30184">
        <ele>262.870694</ele>
        <time>2022-09-12T08:58:48.204Z</time>
      </trkpt>
      <trkpt lat="48.28512" lon="14.30187">
        <ele>262.859743</ele>
        <time>2022-09-12T08:58:49.221Z</time>
      </trkpt>
      <trkpt lat="48.28508" lon="14.30189">
        <ele>262.849637</ele>
        <time>2022-09-12T08:58:50.170Z</time>
      </trkpt>
      <trkpt lat="48.28466" lon="14.30214">
        <ele>262.730058</ele>
        <time>2022-09-12T08:59:01.454Z</time>
      </trkpt>
      <trkpt lat="48.28424" lon="14.30235">
        <ele>262.614732</ele>
        <time>2022-09-12T08:59:13.106Z</time>
      </trkpt>
      <trkpt lat="48.28406" lon="14.30241">
        <ele>262.62361</ele>
        <time>2022-09-12T08:59:18.436Z</time>
      </trkpt>
      <trkpt lat="48.28394" lon="14.3025">
        <ele>262.724883</ele>
        <time>2022-09-12T08:59:22.766Z</time>
      </trkpt>
      <trkpt lat="48.28364" lon="14.3026">
        <ele>262.95596</ele>
        <time>2022-09-12T08:59:32.986Z</time>
      </trkpt>
      <trkpt lat="48.28354" lon="14.30263">
        <ele>263.028133</ele>
        <time>2022-09-12T08:59:36.410Z</time>
      </trkpt>
      <trkpt lat="48.28328" lon="14.30272">
        <ele>263.232504</ele>
        <time>2022-09-12T08:59:45.493Z</time>
      </trkpt>
      <trkpt lat="48.28322" lon="14.30274">
        <ele>263.277022</ele>
        <time>2022-09-12T08:59:47.487Z</time>
      </trkpt>
      <trkpt lat="48.2828" lon="14.30288">
        <ele>263.596728</ele>
        <time>2022-09-12T09:00:00.791Z</time>
      </trkpt>
      <trkpt lat="48.28278" lon="14.30289">
        <ele>263.616631</ele>
        <time>2022-09-12T09:00:01.578Z</time>
      </trkpt>
      <trkpt lat="48.28274" lon="14.3029">
        <ele>263.645858</ele>
        <time>2022-09-12T09:00:02.695Z</time>
      </trkpt>
      <trkpt lat="48.2827" lon="14.30291">
        <ele>263.678122</ele>
        <time>2022-09-12T09:00:03.895Z</time>
      </trkpt>
      <trkpt lat="48.28267" lon="14.30292">
        <ele>263.695097</ele>
        <time>2022-09-12T09:00:04.527Z</time>
      </trkpt>
      <trkpt lat="48.28238" lon="14.30302">
        <ele>263.921781</ele>
        <time>2022-09-12T09:00:12.629Z</time>
      </trkpt>
      <trkpt lat="48.28212" lon="14.30311">
        <ele>264.079293</ele>
        <time>2022-09-12T09:00:19.605Z</time>
      </trkpt>
      <trkpt lat="48.28209" lon="14.30312">
        <ele>264.098353</ele>
        <time>2022-09-12T09:00:20.503Z</time>
      </trkpt>
      <trkpt lat="48.28206" lon="14.30313">
        <ele>264.115137</ele>
        <time>2022-09-12T09:00:21.258Z</time>
      </trkpt>
      <trkpt lat="48.28195" lon="14.30317">
        <ele>264.177942</ele>
        <time>2022-09-12T09:00:24.072Z</time>
      </trkpt>
      <trkpt lat="48.28188" lon="14.30319">
        <ele>264.219812</ele>
        <time>2022-09-12T09:00:25.951Z</time>
      </trkpt>
      <trkpt lat="48.28147" lon="14.30343">
        <ele>264.476128</ele>
        <time>2022-09-12T09:00:38.223Z</time>
      </trkpt>
      <trkpt lat="48.28107" lon="14.30387">
        <ele>264.769197</ele>
        <time>2022-09-12T09:00:53.968Z</time>
      </trkpt>
      <trkpt lat="48.28051" lon="14.30453">
        <ele>265.371097</ele>
        <time>2022-09-12T09:01:16.368Z</time>
      </trkpt>
      <trkpt lat="48.28014" lon="14.30498">
        <ele>265.907153</ele>
        <time>2022-09-12T09:01:31.795Z</time>
      </trkpt>
      <trkpt lat="48.28006" lon="14.30507">
        <ele>266.019553</ele>
        <time>2022-09-12T09:01:34.983Z</time>
      </trkpt>
      <trkpt lat="48.28004" lon="14.3051">
        <ele>266.057971</ele>
        <time>2022-09-12T09:01:36.058Z</time>
      </trkpt>
      <trkpt lat="48.27997" lon="14.30518">
        <ele>266.150598</ele>
        <time>2022-09-12T09:01:38.627Z</time>
      </trkpt>
      <trkpt lat="48.27993" lon="14.30523">
        <ele>266.211163</ele>
        <time>2022-09-12T09:01:40.441Z</time>
      </trkpt>
      <trkpt lat="48.27984" lon="14.30535">
        <ele>266.349429</ele>
        <time>2022-09-12T09:01:44.604Z</time>
      </trkpt>
      <trkpt lat="48.27966" lon="14.30558">
        <ele>266.615082</ele>
        <time>2022-09-12T09:01:52.079Z</time>
      </trkpt>
      <trkpt lat="48.27963" lon="14.30562">
        <ele>266.663901</ele>
        <time>2022-09-12T09:01:53.579Z</time>
      </trkpt>
      <trkpt lat="48.27959" lon="14.30566">
        <ele>266.71535</ele>
        <time>2022-09-12T09:01:55.155Z</time>
      </trkpt>
      <trkpt lat="48.27916" lon="14.30618">
        <ele>267.164833</ele>
        <time>2022-09-12T09:02:12.507Z</time>
      </trkpt>
      <trkpt lat="48.27901" lon="14.30632">
        <ele>267.260648</ele>
        <time>2022-09-12T09:02:18.607Z</time>
      </trkpt>
      <trkpt lat="48.2788" lon="14.30654">
        <ele>267.401203</ele>
        <time>2022-09-12T09:02:26.953Z</time>
      </trkpt>
      <trkpt lat="48.2787" lon="14.30664">
        <ele>267.463066</ele>
        <time>2022-09-12T09:02:30.736Z</time>
      </trkpt>
      <trkpt lat="48.27874" lon="14.30671">
        <ele>267.493605</ele>
        <time>2022-09-12T09:02:32.361Z</time>
      </trkpt>
      <trkpt lat="48.27875" lon="14.30676">
        <ele>267.513914</ele>
        <time>2022-09-12T09:02:33.478Z</time>
      </trkpt>
      <trkpt lat="48.27828" lon="14.30757">
        <ele>267.898291</ele>
        <time>2022-09-12T09:02:53.322Z</time>
      </trkpt>
      <trkpt lat="48.27785" lon="14.30828">
        <ele>267.317624</ele>
        <time>2022-09-12T09:03:08.385Z</time>
      </trkpt>
      <trkpt lat="48.27779" lon="14.30832">
        <ele>267.224415</ele>
        <time>2022-09-12T09:03:09.869Z</time>
      </trkpt>
      <trkpt lat="48.27776" lon="14.3083">
        <ele>267.1712</ele>
        <time>2022-09-12T09:03:10.732Z</time>
      </trkpt>
      <trkpt lat="48.27759" lon="14.30867">
        <ele>266.768089</ele>
        <time>2022-09-12T09:03:17.426Z</time>
      </trkpt>
      <trkpt lat="48.27695" lon="14.31003">
        <ele>265.119445</ele>
        <time>2022-09-12T09:03:41.436Z</time>
      </trkpt>
      <trkpt lat="48.27655" lon="14.31075">
        <ele>263.89557</ele>
        <time>2022-09-12T09:03:53.828Z</time>
      </trkpt>
      <trkpt lat="48.27619" lon="14.31114">
        <ele>263.036828</ele>
        <time>2022-09-12T09:04:02.883Z</time>
      </trkpt>
      <trkpt lat="48.27601" lon="14.31126">
        <ele>262.639977</ele>
        <time>2022-09-12T09:04:07.142Z</time>
      </trkpt>
      <trkpt lat="48.27595" lon="14.31126">
        <ele>262.522376</ele>
        <time>2022-09-12T09:04:08.580Z</time>
      </trkpt>
      <trkpt lat="48.27592" lon="14.31128">
        <ele>262.456278</ele>
        <time>2022-09-12T09:04:09.381Z</time>
      </trkpt>
      <trkpt lat="48.27586" lon="14.31131">
        <ele>262.341148</ele>
        <time>2022-09-12T09:04:10.760Z</time>
      </trkpt>
      <trkpt lat="48.27576" lon="14.31137">
        <ele>262.13289</ele>
        <time>2022-09-12T09:04:13.168Z</time>
      </trkpt>
      <trkpt lat="48.27571" lon="14.31144">
        <ele>261.994867</ele>
        <time>2022-09-12T09:04:14.711Z</time>
      </trkpt>
      <trkpt lat="48.27557" lon="14.3115">
        <ele>261.911347</ele>
        <time>2022-09-12T09:04:18.542Z</time>
      </trkpt>
      <trkpt lat="48.27499" lon="14.31167">
        <ele>261.622982</ele>
        <time>2022-09-12T09:04:33.275Z</time>
      </trkpt>
      <trkpt lat="48.27486" lon="14.31172">
        <ele>261.559056</ele>
        <time>2022-09-12T09:04:37.043Z</time>
      </trkpt>
      <trkpt lat="48.27482" lon="14.31173">
        <ele>261.537042</ele>
        <time>2022-09-12T09:04:38.229Z</time>
      </trkpt>
      <trkpt lat="48.27475" lon="14.31176">
        <ele>261.506136</ele>
        <time>2022-09-12T09:04:39.791Z</time>
      </trkpt>
      <trkpt lat="48.27466" lon="14.31181">
        <ele>261.45945</ele>
        <time>2022-09-12T09:04:42.051Z</time>
      </trkpt>
      <trkpt lat="48.274" lon="14.3122">
        <ele>261.115563</ele>
        <time>2022-09-12T09:05:00.237Z</time>
      </trkpt>
      <trkpt lat="48.27343" lon="14.31261">
        <ele>260.475368</ele>
        <time>2022-09-12T09:05:15.583Z</time>
      </trkpt>
      <trkpt lat="48.27344" lon="14.3127">
        <ele>260.410545</ele>
        <time>2022-09-12T09:05:17.094Z</time>
      </trkpt>
      <trkpt lat="48.2735" lon="14.31286">
        <ele>260.285001</ele>
        <time>2022-09-12T09:05:19.863Z</time>
      </trkpt>
      <trkpt lat="48.27349" lon="14.31289">
        <ele>260.266744</ele>
        <time>2022-09-12T09:05:20.289Z</time>
      </trkpt>
      <trkpt lat="48.27345" lon="14.31299">
        <ele>260.190512</ele>
        <time>2022-09-12T09:05:22.045Z</time>
      </trkpt>
      <trkpt lat="48.27341" lon="14.31312">
        <ele>260.08734</ele>
        <time>2022-09-12T09:05:24.396Z</time>
      </trkpt>
      <trkpt lat="48.27334" lon="14.31338">
        <ele>259.896298</ele>
        <time>2022-09-12T09:05:28.554Z</time>
      </trkpt>
      <trkpt lat="48.27332" lon="14.31343">
        <ele>259.853894</ele>
        <time>2022-09-12T09:05:29.490Z</time>
      </trkpt>
      <trkpt lat="48.2732" lon="14.31383">
        <ele>259.561164</ele>
        <time>2022-09-12T09:05:35.765Z</time>
      </trkpt>
      <trkpt lat="48.27318" lon="14.31387">
        <ele>259.522339</ele>
        <time>2022-09-12T09:05:36.585Z</time>
      </trkpt>
      <trkpt lat="48.27311" lon="14.31395">
        <ele>259.432329</ele>
        <time>2022-09-12T09:05:38.523Z</time>
      </trkpt>
      <trkpt lat="48.27295" lon="14.31403">
        <ele>259.260017</ele>
        <time>2022-09-12T09:05:42.133Z</time>
      </trkpt>
      <trkpt lat="48.27242" lon="14.3143">
        <ele>258.651171</ele>
        <time>2022-09-12T09:05:54.346Z</time>
      </trkpt>
      <trkpt lat="48.27157" lon="14.31473">
        <ele>257.665097</ele>
        <time>2022-09-12T09:06:15.108Z</time>
      </trkpt>
      <trkpt lat="48.27059" lon="14.31517">
        <ele>257.217202</ele>
        <time>2022-09-12T09:06:40.281Z</time>
      </trkpt>
      <trkpt lat="48.27054" lon="14.31519">
        <ele>257.21195</ele>
        <time>2022-09-12T09:06:42.300Z</time>
      </trkpt>
      <trkpt lat="48.27051" lon="14.31521">
        <ele>257.207727</ele>
        <time>2022-09-12T09:06:43.943Z</time>
      </trkpt>
      <trkpt lat="48.27026" lon="14.31532">
        <ele>257.178809</ele>
        <time>2022-09-12T09:06:50.773Z</time>
      </trkpt>
      <trkpt lat="48.26938" lon="14.3157">
        <ele>257.153096</ele>
        <time>2022-09-12T09:07:16.190Z</time>
      </trkpt>
      <trkpt lat="48.26901" lon="14.31587">
        <ele>257.323005</ele>
        <time>2022-09-12T09:07:27.223Z</time>
      </trkpt>
      <trkpt lat="48.26887" lon="14.31593">
        <ele>257.385837</ele>
        <time>2022-09-12T09:07:31.317Z</time>
      </trkpt>
      <trkpt lat="48.26819" lon="14.31625">
        <ele>257.699075</ele>
        <time>2022-09-12T09:07:52.449Z</time>
      </trkpt>
      <trkpt lat="48.26811" lon="14.31629">
        <ele>257.737684</ele>
        <time>2022-09-12T09:07:55.038Z</time>
      </trkpt>
      <trkpt lat="48.26783" lon="14.31644">
        <ele>257.867085</ele>
        <time>2022-09-12T09:08:03.331Z</time>
      </trkpt>
      <trkpt lat="48.2678" lon="14.31645">
        <ele>257.882185</ele>
        <time>2022-09-12T09:08:05.043Z</time>
      </trkpt>
      <trkpt lat="48.26777" lon="14.31646">
        <ele>257.885855</ele>
        <time>2022-09-12T09:08:06.261Z</time>
      </trkpt>
      <trkpt lat="48.26711" lon="14.31678">
        <ele>257.982876</ele>
        <time>2022-09-12T09:08:26.137Z</time>
      </trkpt>
      <trkpt lat="48.26699" lon="14.31684">
        <ele>258.000341</ele>
        <time>2022-09-12T09:08:29.653Z</time>
      </trkpt>
      <trkpt lat="48.26661" lon="14.31702">
        <ele>258.055683</ele>
        <time>2022-09-12T09:08:40.524Z</time>
      </trkpt>
      <trkpt lat="48.26598" lon="14.31732">
        <ele>258.059695</ele>
        <time>2022-09-12T09:08:58.041Z</time>
      </trkpt>
      <trkpt lat="48.26594" lon="14.31734">
        <ele>258.036866</ele>
        <time>2022-09-12T09:08:58.943Z</time>
      </trkpt>
      <trkpt lat="48.26571" lon="14.31745">
        <ele>257.881594</ele>
        <time>2022-09-12T09:09:04.898Z</time>
      </trkpt>
      <trkpt lat="48.26558" lon="14.31751">
        <ele>257.792109</ele>
        <time>2022-09-12T09:09:08.232Z</time>
      </trkpt>
      <trkpt lat="48.2651" lon="14.31775">
        <ele>257.467932</ele>
        <time>2022-09-12T09:09:20.150Z</time>
      </trkpt>
      <trkpt lat="48.26503" lon="14.31778">
        <ele>257.420183</ele>
        <time>2022-09-12T09:09:21.904Z</time>
      </trkpt>
      <trkpt lat="48.26496" lon="14.31781">
        <ele>257.379314</ele>
        <time>2022-09-12T09:09:23.388Z</time>
      </trkpt>
      <trkpt lat="48.26356" lon="14.31847">
        <ele>256.533251</ele>
        <time>2022-09-12T09:09:58.669Z</time>
      </trkpt>
      <trkpt lat="48.26338" lon="14.31855">
        <ele>256.432921</ele>
        <time>2022-09-12T09:10:03.288Z</time>
      </trkpt>
      <trkpt lat="48.26309" lon="14.31869">
        <ele>256.27158</ele>
        <time>2022-09-12T09:10:10.820Z</time>
      </trkpt>
      <trkpt lat="48.26299" lon="14.31873">
        <ele>256.21665</ele>
        <time>2022-09-12T09:10:13.451Z</time>
      </trkpt>
      <trkpt lat="48.26258" lon="14.31893">
        <ele>256.038891</ele>
        <time>2022-09-12T09:10:24.316Z</time>
      </trkpt>
      <trkpt lat="48.26218" lon="14.3191">
        <ele>256.091419</ele>
        <time>2022-09-12T09:10:35.294Z</time>
      </trkpt>
      <trkpt lat="48.26174" lon="14.31931">
        <ele>256.149287</ele>
        <time>2022-09-12T09:10:48.166Z</time>
      </trkpt>
      <trkpt lat="48.26117" lon="14.31959">
        <ele>256.224298</ele>
        <time>2022-09-12T09:11:05.158Z</time>
      </trkpt>
      <trkpt lat="48.26114" lon="14.3196">
        <ele>256.227542</ele>
        <time>2022-09-12T09:11:05.881Z</time>
      </trkpt>
      <trkpt lat="48.2611" lon="14.31961">
        <ele>256.232658</ele>
        <time>2022-09-12T09:11:07.018Z</time>
      </trkpt>
      <trkpt lat="48.26107" lon="14.31963">
        <ele>256.23698</ele>
        <time>2022-09-12T09:11:07.941Z</time>
      </trkpt>
      <trkpt lat="48.26032" lon="14.31999">
        <ele>256.259786</ele>
        <time>2022-09-12T09:11:29.570Z</time>
      </trkpt>
      <trkpt lat="48.25988" lon="14.3202">
        <ele>256.263371</ele>
        <time>2022-09-12T09:11:42.125Z</time>
      </trkpt>
      <trkpt lat="48.25944" lon="14.32041">
        <ele>256.266964</ele>
        <time>2022-09-12T09:11:54.417Z</time>
      </trkpt>
      <trkpt lat="48.25869" lon="14.32077">
        <ele>256.232059</ele>
        <time>2022-09-12T09:12:14.156Z</time>
      </trkpt>
      <trkpt lat="48.25796" lon="14.32112">
        <ele>256.181107</ele>
        <time>2022-09-12T09:12:33.815Z</time>
      </trkpt>
      <trkpt lat="48.2579" lon="14.32115">
        <ele>256.176957</ele>
        <time>2022-09-12T09:12:35.465Z</time>
      </trkpt>
      <trkpt lat="48.25784" lon="14.32119">
        <ele>256.172783</ele>
        <time>2022-09-12T09:12:37.206Z</time>
      </trkpt>
      <trkpt lat="48.25779" lon="14.32122">
        <ele>256.16881</ele>
        <time>2022-09-12T09:12:38.836Z</time>
      </trkpt>
      <trkpt lat="48.25777" lon="14.32123">
        <ele>256.167759</ele>
        <time>2022-09-12T09:12:39.292Z</time>
      </trkpt>
      <trkpt lat="48.25655" lon="14.32182">
        <ele>256.566958</ele>
        <time>2022-09-12T09:13:17.162Z</time>
      </trkpt>
      <trkpt lat="48.25649" lon="14.32184">
        <ele>256.590769</ele>
        <time>2022-09-12T09:13:18.971Z</time>
      </trkpt>
      <trkpt lat="48.2564" lon="14.32188">
        <ele>256.628835</ele>
        <time>2022-09-12T09:13:21.755Z</time>
      </trkpt>
      <trkpt lat="48.25607" lon="14.32204">
        <ele>256.77517</ele>
        <time>2022-09-12T09:13:32.162Z</time>
      </trkpt>
      <trkpt lat="48.25568" lon="14.32217">
        <ele>256.817737</ele>
        <time>2022-09-12T09:13:42.975Z</time>
      </trkpt>
      <trkpt lat="48.25548" lon="14.32226">
        <ele>256.69151</ele>
        <time>2022-09-12T09:13:48.286Z</time>
      </trkpt>
      <trkpt lat="48.25541" lon="14.32225">
        <ele>256.649641</ele>
        <time>2022-09-12T09:13:50.153Z</time>
      </trkpt>
      <trkpt lat="48.25534" lon="14.32226">
        <ele>256.607704</ele>
        <time>2022-09-12T09:13:51.831Z</time>
      </trkpt>
      <trkpt lat="48.25531" lon="14.32227">
        <ele>256.585468</ele>
        <time>2022-09-12T09:13:52.712Z</time>
      </trkpt>
      <trkpt lat="48.25522" lon="14.32234">
        <ele>256.525727</ele>
        <time>2022-09-12T09:13:55.082Z</time>
      </trkpt>
      <trkpt lat="48.25517" lon="14.32235">
        <ele>256.496701</ele>
        <time>2022-09-12T09:13:56.257Z</time>
      </trkpt>
      <trkpt lat="48.2546" lon="14.32252">
        <ele>256.145092</ele>
        <time>2022-09-12T09:14:10.117Z</time>
      </trkpt>
      <trkpt lat="48.25443" lon="14.32254">
        <ele>256.03907</ele>
        <time>2022-09-12T09:14:14.175Z</time>
      </trkpt>
      <trkpt lat="48.25429" lon="14.32255">
        <ele>255.955763</ele>
        <time>2022-09-12T09:14:17.353Z</time>
      </trkpt>
      <trkpt lat="48.25416" lon="14.32256">
        <ele>255.874312</ele>
        <time>2022-09-12T09:14:20.379Z</time>
      </trkpt>
      <trkpt lat="48.2538" lon="14.32258">
        <ele>255.64043</ele>
        <time>2022-09-12T09:14:28.596Z</time>
      </trkpt>
      <trkpt lat="48.25359" lon="14.32258">
        <ele>255.503775</ele>
        <time>2022-09-12T09:14:33.294Z</time>
      </trkpt>
      <trkpt lat="48.25348" lon="14.32259">
        <ele>255.4321</ele>
        <time>2022-09-12T09:14:35.792Z</time>
      </trkpt>
      <trkpt lat="48.25338" lon="14.3226">
        <ele>255.366249</ele>
        <time>2022-09-12T09:14:38.127Z</time>
      </trkpt>
      <trkpt lat="48.25327" lon="14.32261">
        <ele>255.289811</ele>
        <time>2022-09-12T09:14:40.835Z</time>
      </trkpt>
      <trkpt lat="48.2521" lon="14.32258">
        <ele>254.586198</ele>
        <time>2022-09-12T09:15:10.166Z</time>
      </trkpt>
      <trkpt lat="48.25183" lon="14.32255">
        <ele>254.551953</ele>
        <time>2022-09-12T09:15:16.960Z</time>
      </trkpt>
      <trkpt lat="48.25165" lon="14.32254">
        <ele>254.527828</ele>
        <time>2022-09-12T09:15:21.770Z</time>
      </trkpt>
      <trkpt lat="48.25156" lon="14.32254">
        <ele>254.516877</ele>
        <time>2022-09-12T09:15:23.926Z</time>
      </trkpt>
      <trkpt lat="48.25151" lon="14.32255">
        <ele>254.509572</ele>
        <time>2022-09-12T09:15:25.352Z</time>
      </trkpt>
      <trkpt lat="48.25145" lon="14.32255">
        <ele>254.50214</ele>
        <time>2022-09-12T09:15:26.811Z</time>
      </trkpt>
      <trkpt lat="48.25068" lon="14.32249">
        <ele>254.40142</ele>
        <time>2022-09-12T09:15:46.501Z</time>
      </trkpt>
      <trkpt lat="48.25039" lon="14.32248">
        <ele>254.404298</ele>
        <time>2022-09-12T09:15:54.540Z</time>
      </trkpt>
      <trkpt lat="48.25031" lon="14.32252">
        <ele>254.465442</ele>
        <time>2022-09-12T09:15:56.890Z</time>
      </trkpt>
      <trkpt lat="48.25024" lon="14.32256">
        <ele>254.527103</ele>
        <time>2022-09-12T09:15:59.241Z</time>
      </trkpt>
      <trkpt lat="48.24987" lon="14.32263">
        <ele>254.80014</ele>
        <time>2022-09-12T09:16:10.225Z</time>
      </trkpt>
      <trkpt lat="48.24951" lon="14.32277">
        <ele>255.079007</ele>
        <time>2022-09-12T09:16:22.501Z</time>
      </trkpt>
      <trkpt lat="48.24886" lon="14.32316">
        <ele>255.595333</ele>
        <time>2022-09-12T09:16:44.484Z</time>
      </trkpt>
      <trkpt lat="48.24882" lon="14.32308">
        <ele>255.640606</ele>
        <time>2022-09-12T09:16:46.417Z</time>
      </trkpt>
      <trkpt lat="48.24875" lon="14.32257">
        <ele>255.734396</ele>
        <time>2022-09-12T09:16:56.487Z</time>
      </trkpt>
      <trkpt lat="48.24862" lon="14.32208">
        <ele>255.774906</ele>
        <time>2022-09-12T09:17:06.833Z</time>
      </trkpt>
      <trkpt lat="48.24854" lon="14.32178">
        <ele>255.799701</ele>
        <time>2022-09-12T09:17:13.032Z</time>
      </trkpt>
      <trkpt lat="48.24843" lon="14.32146">
        <ele>255.827261</ele>
        <time>2022-09-12T09:17:19.935Z</time>
      </trkpt>
      <trkpt lat="48.24829" lon="14.32104">
        <ele>255.862898</ele>
        <time>2022-09-12T09:17:28.237Z</time>
      </trkpt>
      <trkpt lat="48.24825" lon="14.32089">
        <ele>255.875073</ele>
        <time>2022-09-12T09:17:30.661Z</time>
      </trkpt>
      <trkpt lat="48.24822" lon="14.3208">
        <ele>255.883099</ele>
        <time>2022-09-12T09:17:32.387Z</time>
      </trkpt>
      <trkpt lat="48.2481" lon="14.3205">
        <ele>255.909551</ele>
        <time>2022-09-12T09:17:38.036Z</time>
      </trkpt>
      <trkpt lat="48.24759" lon="14.31988">
        <ele>255.74158</ele>
        <time>2022-09-12T09:17:53.323Z</time>
      </trkpt>
      <trkpt lat="48.24748" lon="14.31962">
        <ele>255.689039</ele>
        <time>2022-09-12T09:17:58.047Z</time>
      </trkpt>
      <trkpt lat="48.24748" lon="14.3196">
        <ele>255.68511</ele>
        <time>2022-09-12T09:17:58.417Z</time>
      </trkpt>
      <trkpt lat="48.24738" lon="14.31964">
        <ele>255.659724</ele>
        <time>2022-09-12T09:18:01.673Z</time>
      </trkpt>
      <trkpt lat="48.24689" lon="14.31949">
        <ele>255.529377</ele>
        <time>2022-09-12T09:18:18.909Z</time>
      </trkpt>
      <trkpt lat="48.24633" lon="14.31935">
        <ele>255.650499</ele>
        <time>2022-09-12T09:18:36.310Z</time>
      </trkpt>
      <trkpt lat="48.24623" lon="14.31939">
        <ele>255.741561</ele>
        <time>2022-09-12T09:18:39.304Z</time>
      </trkpt>
      <trkpt lat="48.24616" lon="14.31953">
        <ele>255.846466</ele>
        <time>2022-09-12T09:18:43.162Z</time>
      </trkpt>
      <trkpt lat="48.24602" lon="14.31926">
        <ele>256.053686</ele>
        <time>2022-09-12T09:18:49.988Z</time>
      </trkpt>
      <trkpt lat="48.24533" lon="14.31731">
        <ele>257.27506</ele>
        <time>2022-09-12T09:19:37.423Z</time>
      </trkpt>
      <trkpt lat="48.24502" lon="14.31623">
        <ele>257.755884</ele>
        <time>2022-09-12T09:20:01.368Z</time>
      </trkpt>
      <trkpt lat="48.24472" lon="14.31492">
        <ele>258.078864</ele>
        <time>2022-09-12T09:20:26.909Z</time>
      </trkpt>
      <trkpt lat="48.2437" lon="14.31053">
        <ele>257.202941</ele>
        <time>2022-09-12T09:21:43.791Z</time>
      </trkpt>
      <trkpt lat="48.24342" lon="14.30884">
        <ele>257.721947</ele>
        <time>2022-09-12T09:22:17.722Z</time>
      </trkpt>
      <trkpt lat="48.24336" lon="14.30795">
        <ele>258.096806</ele>
        <time>2022-09-12T09:22:36.071Z</time>
      </trkpt>
      <trkpt lat="48.24337" lon="14.30709">
        <ele>258.481407</ele>
        <time>2022-09-12T09:22:53.858Z</time>
      </trkpt>
      <trkpt lat="48.24335" lon="14.30672">
        <ele>258.659809</ele>
        <time>2022-09-12T09:23:01.413Z</time>
      </trkpt>
      <trkpt lat="48.24334" lon="14.30653">
        <ele>258.747308</ele>
        <time>2022-09-12T09:23:05.144Z</time>
      </trkpt>
      <trkpt lat="48.24354" lon="14.30623">
        <ele>258.948672</ele>
        <time>2022-09-12T09:23:18.427Z</time>
      </trkpt>
      <trkpt lat="48.24328" lon="14.30557">
        <ele>259.311191</ele>
        <time>2022-09-12T09:23:33.364Z</time>
      </trkpt>
      <trkpt lat="48.24289" lon="14.30401">
        <ele>260.068746</ele>
        <time>2022-09-12T09:24:06.748Z</time>
      </trkpt>
      <trkpt lat="48.24287" lon="14.30395">
        <ele>260.099791</ele>
        <time>2022-09-12T09:24:08.045Z</time>
      </trkpt>
      <trkpt lat="48.24199" lon="14.30036">
        <ele>261.581643</ele>
        <time>2022-09-12T09:25:24.467Z</time>
      </trkpt>
      <trkpt lat="48.24171" lon="14.29959">
        <ele>261.628052</ele>
        <time>2022-09-12T09:25:40.101Z</time>
      </trkpt>
      <trkpt lat="48.24124" lon="14.29873">
        <ele>261.456152</ele>
        <time>2022-09-12T09:25:59.421Z</time>
      </trkpt>
      <trkpt lat="48.24101" lon="14.29802">
        <ele>261.335801</ele>
        <time>2022-09-12T09:26:12.071Z</time>
      </trkpt>
      <trkpt lat="48.24094" lon="14.29797">
        <ele>261.317904</ele>
        <time>2022-09-12T09:26:14.016Z</time>
      </trkpt>
      <trkpt lat="48.24078" lon="14.29754">
        <ele>261.198891</ele>
        <time>2022-09-12T09:26:21.961Z</time>
      </trkpt>
      <trkpt lat="48.24074" lon="14.29716">
        <ele>261.08597</ele>
        <time>2022-09-12T09:26:28.346Z</time>
      </trkpt>
      <trkpt lat="48.24044" lon="14.2965">
        <ele>260.854628</ele>
        <time>2022-09-12T09:26:41.301Z</time>
      </trkpt>
      <trkpt lat="48.23919" lon="14.29486">
        <ele>260.500796</ele>
        <time>2022-09-12T09:27:23.746Z</time>
      </trkpt>
      <trkpt lat="48.23864" lon="14.29384">
        <ele>260.491013</ele>
        <time>2022-09-12T09:27:47.662Z</time>
      </trkpt>
      <trkpt lat="48.23807" lon="14.29238">
        <ele>260.926909</ele>
        <time>2022-09-12T09:28:19.968Z</time>
      </trkpt>
      <trkpt lat="48.23701" lon="14.28794">
        <ele>262.352359</ele>
        <time>2022-09-12T09:29:50.349Z</time>
      </trkpt>
      <trkpt lat="48.23685" lon="14.28765">
        <ele>262.484789</ele>
        <time>2022-09-12T09:29:57.547Z</time>
      </trkpt>
      <trkpt lat="48.23691" lon="14.28699">
        <ele>262.723157</ele>
        <time>2022-09-12T09:30:10.987Z</time>
      </trkpt>
      <trkpt lat="48.23686" lon="14.28666">
        <ele>262.841652</ele>
        <time>2022-09-12T09:30:17.378Z</time>
      </trkpt>
      <trkpt lat="48.23671" lon="14.28673">
        <ele>262.925704</ele>
        <time>2022-09-12T09:30:22.302Z</time>
      </trkpt>
      <trkpt lat="48.23647" lon="14.28696">
        <ele>263.084619</ele>
        <time>2022-09-12T09:30:30.534Z</time>
      </trkpt>
      <trkpt lat="48.23636" lon="14.28734">
        <ele>263.248098</ele>
        <time>2022-09-12T09:30:38.550Z</time>
      </trkpt>
      <trkpt lat="48.23632" lon="14.28736">
        <ele>263.274838</ele>
        <time>2022-09-12T09:30:39.998Z</time>
      </trkpt>
      <trkpt lat="48.23621" lon="14.28724">
        <ele>263.352537</ele>
        <time>2022-09-12T09:30:43.988Z</time>
      </trkpt>
      <trkpt lat="48.23607" lon="14.28678">
        <ele>263.550486</ele>
        <time>2022-09-12T09:30:53.944Z</time>
      </trkpt>
      <trkpt lat="48.23583" lon="14.28529">
        <ele>264.142652</ele>
        <time>2022-09-12T09:31:23.999Z</time>
      </trkpt>
      <trkpt lat="48.23564" lon="14.28455">
        <ele>264.441677</ele>
        <time>2022-09-12T09:31:39.084Z</time>
      </trkpt>
      <trkpt lat="48.23491" lon="14.2826">
        <ele>265.426889</ele>
        <time>2022-09-12T09:32:23.450Z</time>
      </trkpt>
      <trkpt lat="48.23389" lon="14.28013">
        <ele>266.921874</ele>
        <time>2022-09-12T09:33:24.630Z</time>
      </trkpt>
      <trkpt lat="48.23299" lon="14.27873">
        <ele>267.390389</ele>
        <time>2022-09-12T09:34:00.767Z</time>
      </trkpt>
      <trkpt lat="48.23023" lon="14.27494">
        <ele>265.307937</ele>
        <time>2022-09-12T09:35:31.074Z</time>
      </trkpt>
      <trkpt lat="48.22873" lon="14.27267">
        <ele>264.900192</ele>
        <time>2022-09-12T09:36:25.429Z</time>
      </trkpt>
      <trkpt lat="48.22868" lon="14.27263">
        <ele>264.913411</ele>
        <time>2022-09-12T09:36:26.944Z</time>
      </trkpt>
      <trkpt lat="48.22811" lon="14.27155">
        <ele>265.146501</ele>
        <time>2022-09-12T09:36:53.310Z</time>
      </trkpt>
      <trkpt lat="48.22784" lon="14.27096">
        <ele>265.310654</ele>
        <time>2022-09-12T09:37:07.455Z</time>
      </trkpt>
      <trkpt lat="48.2273" lon="14.26971">
        <ele>265.821419</ele>
        <time>2022-09-12T09:37:37.306Z</time>
      </trkpt>
      <trkpt lat="48.22676" lon="14.26829">
        <ele>266.166603</ele>
        <time>2022-09-12T09:38:07.948Z</time>
      </trkpt>
      <trkpt lat="48.22542" lon="14.26365">
        <ele>266.283021</ele>
        <time>2022-09-12T09:39:37.035Z</time>
      </trkpt>
      <trkpt lat="48.22472" lon="14.2617">
        <ele>266.952069</ele>
        <time>2022-09-12T09:40:19.693Z</time>
      </trkpt>
      <trkpt lat="48.22391" lon="14.25967">
        <ele>268.27709</ele>
        <time>2022-09-12T09:41:09.209Z</time>
      </trkpt>
      <trkpt lat="48.22341" lon="14.25861">
        <ele>268.556098</ele>
        <time>2022-09-12T09:41:35.456Z</time>
      </trkpt>
      <trkpt lat="48.22287" lon="14.25724">
        <ele>268.556602</ele>
        <time>2022-09-12T09:42:01.867Z</time>
      </trkpt>
      <trkpt lat="48.2227" lon="14.25698">
        <ele>268.556204</ele>
        <time>2022-09-12T09:42:08.003Z</time>
      </trkpt>
      <trkpt lat="48.22249" lon="14.25679">
        <ele>268.553594</ele>
        <time>2022-09-12T09:42:14.216Z</time>
      </trkpt>
      <trkpt lat="48.22243" lon="14.25676">
        <ele>268.552913</ele>
        <time>2022-09-12T09:42:15.924Z</time>
      </trkpt>
      <trkpt lat="48.22224" lon="14.25671">
        <ele>268.550835</ele>
        <time>2022-09-12T09:42:20.999Z</time>
      </trkpt>
      <trkpt lat="48.22198" lon="14.2565">
        <ele>268.547674</ele>
        <time>2022-09-12T09:42:28.737Z</time>
      </trkpt>
      <trkpt lat="48.22171" lon="14.25618">
        <ele>268.543968</ele>
        <time>2022-09-12T09:42:37.774Z</time>
      </trkpt>
      <trkpt lat="48.22049" lon="14.25396">
        <ele>269.133474</ele>
        <time>2022-09-12T09:43:32.277Z</time>
      </trkpt>
      <trkpt lat="48.2204" lon="14.25387">
        <ele>269.182514</ele>
        <time>2022-09-12T09:43:35.440Z</time>
      </trkpt>
      <trkpt lat="48.22026" lon="14.25396">
        <ele>269.254244</ele>
        <time>2022-09-12T09:43:40.416Z</time>
      </trkpt>
      <trkpt lat="48.21949" lon="14.25505">
        <ele>269.224949</ele>
        <time>2022-09-12T09:44:11.041Z</time>
      </trkpt>
      <trkpt lat="48.21939" lon="14.255">
        <ele>269.20896</ele>
        <time>2022-09-12T09:44:13.914Z</time>
      </trkpt>
      <trkpt lat="48.21932" lon="14.25488">
        <ele>269.191499</ele>
        <time>2022-09-12T09:44:16.669Z</time>
      </trkpt>
      <trkpt lat="48.21926" lon="14.25479">
        <ele>269.178235</ele>
        <time>2022-09-12T09:44:18.723Z</time>
      </trkpt>
      <trkpt lat="48.21911" lon="14.2547">
        <ele>269.15183</ele>
        <time>2022-09-12T09:44:22.969Z</time>
      </trkpt>
      <trkpt lat="48.21905" lon="14.25466">
        <ele>269.14254</ele>
        <time>2022-09-12T09:44:24.375Z</time>
      </trkpt>
      <trkpt lat="48.21898" lon="14.25461">
        <ele>269.129536</ele>
        <time>2022-09-12T09:44:26.314Z</time>
      </trkpt>
      <trkpt lat="48.21876" lon="14.25531">
        <ele>268.844178</ele>
        <time>2022-09-12T09:44:38.068Z</time>
      </trkpt>
      <trkpt lat="48.21827" lon="14.2562">
        <ele>267.642055</ele>
        <time>2022-09-12T09:44:55.109Z</time>
      </trkpt>
      <trkpt lat="48.21802" lon="14.2565">
        <ele>267.134161</ele>
        <time>2022-09-12T09:45:01.968Z</time>
      </trkpt>
      <trkpt lat="48.21788" lon="14.25659">
        <ele>266.904798</ele>
        <time>2022-09-12T09:45:05.012Z</time>
      </trkpt>
      <trkpt lat="48.21722" lon="14.25539">
        <ele>265.609849</ele>
        <time>2022-09-12T09:45:27.425Z</time>
      </trkpt>
      <trkpt lat="48.21698" lon="14.25486">
        <ele>265.156986</ele>
        <time>2022-09-12T09:45:37.242Z</time>
      </trkpt>
      <trkpt lat="48.21634" lon="14.25333">
        <ele>264.385072</ele>
        <time>2022-09-12T09:46:06.784Z</time>
      </trkpt>
      <trkpt lat="48.21577" lon="14.2517">
        <ele>264.417265</ele>
        <time>2022-09-12T09:46:40.977Z</time>
      </trkpt>
      <trkpt lat="48.21538" lon="14.25045">
        <ele>264.630303</ele>
        <time>2022-09-12T09:47:06.995Z</time>
      </trkpt>
      <trkpt lat="48.21481" lon="14.24807">
        <ele>264.87216</ele>
        <time>2022-09-12T09:47:54.160Z</time>
      </trkpt>
      <trkpt lat="48.2146" lon="14.2468">
        <ele>264.852351</ele>
        <time>2022-09-12T09:48:16.584Z</time>
      </trkpt>
      <trkpt lat="48.21466" lon="14.24605">
        <ele>264.843474</ele>
        <time>2022-09-12T09:48:29.287Z</time>
      </trkpt>
      <trkpt lat="48.21468" lon="14.2459">
        <ele>264.842051</ele>
        <time>2022-09-12T09:48:31.880Z</time>
      </trkpt>
      <trkpt lat="48.21453" lon="14.24528">
        <ele>264.836007</ele>
        <time>2022-09-12T09:48:43.375Z</time>
      </trkpt>
      <trkpt lat="48.2145" lon="14.2452">
        <ele>264.835201</ele>
        <time>2022-09-12T09:48:45.018Z</time>
      </trkpt>
      <trkpt lat="48.21441" lon="14.24502">
        <ele>264.833131</ele>
        <time>2022-09-12T09:48:49.154Z</time>
      </trkpt>
      <trkpt lat="48.21387" lon="14.24444">
        <ele>264.824186</ele>
        <time>2022-09-12T09:49:06.588Z</time>
      </trkpt>
      <trkpt lat="48.21286" lon="14.24166">
        <ele>265.527086</ele>
        <time>2022-09-12T09:50:07.358Z</time>
      </trkpt>
      <trkpt lat="48.21232" lon="14.24041">
        <ele>265.668088</ele>
        <time>2022-09-12T09:50:35.609Z</time>
      </trkpt>
      <trkpt lat="48.21215" lon="14.24003">
        <ele>265.710946</ele>
        <time>2022-09-12T09:50:43.611Z</time>
      </trkpt>
      <trkpt lat="48.21195" lon="14.23962">
        <ele>265.740705</ele>
        <time>2022-09-12T09:50:52.386Z</time>
      </trkpt>
      <trkpt lat="48.20959" lon="14.23511">
        <ele>264.774767</ele>
        <time>2022-09-12T09:52:27.673Z</time>
      </trkpt>
      <trkpt lat="48.20875" lon="14.23316">
        <ele>266.006331</ele>
        <time>2022-09-12T09:53:17.488Z</time>
      </trkpt>
      <trkpt lat="48.20834" lon="14.232">
        <ele>266.456092</ele>
        <time>2022-09-12T09:53:45.466Z</time>
      </trkpt>
      <trkpt lat="48.20798" lon="14.23077">
        <ele>266.91596</ele>
        <time>2022-09-12T09:54:10.011Z</time>
      </trkpt>
      <trkpt lat="48.20739" lon="14.22824">
        <ele>265.737835</ele>
        <time>2022-09-12T09:54:51.561Z</time>
      </trkpt>
      <trkpt lat="48.20713" lon="14.22596">
        <ele>266.905426</ele>
        <time>2022-09-12T09:55:33.486Z</time>
      </trkpt>
      <trkpt lat="48.20722" lon="14.22438">
        <ele>270.46605</ele>
        <time>2022-09-12T09:56:21.354Z</time>
      </trkpt>
      <trkpt lat="48.20719" lon="14.22418">
        <ele>271.07766</ele>
        <time>2022-09-12T09:56:28.651Z</time>
      </trkpt>
      <trkpt lat="48.20716" lon="14.22403">
        <ele>271.52468</ele>
        <time>2022-09-12T09:56:33.296Z</time>
      </trkpt>
      <trkpt lat="48.20714" lon="14.22397">
        <ele>271.720771</ele>
        <time>2022-09-12T09:56:35.594Z</time>
      </trkpt>
      <trkpt lat="48.20714" lon="14.22346">
        <ele>273.207032</ele>
        <time>2022-09-12T09:56:55.938Z</time>
      </trkpt>
      <trkpt lat="48.20728" lon="14.22266">
        <ele>275.582218</ele>
        <time>2022-09-12T09:57:29.998Z</time>
      </trkpt>
      <trkpt lat="48.20743" lon="14.22259">
        <ele>276.242349</ele>
        <time>2022-09-12T09:57:37.232Z</time>
      </trkpt>
      <trkpt lat="48.20745" lon="14.22241">
        <ele>276.753166</ele>
        <time>2022-09-12T09:57:44.592Z</time>
      </trkpt>
      <trkpt lat="48.20738" lon="14.22184">
        <ele>278.329494</ele>
        <time>2022-09-12T09:58:04.429Z</time>
      </trkpt>
      <trkpt lat="48.20738" lon="14.22121">
        <ele>280.056944</ele>
        <time>2022-09-12T09:58:24.951Z</time>
      </trkpt>
      <trkpt lat="48.20733" lon="14.22082">
        <ele>281.144213</ele>
        <time>2022-09-12T09:58:36.350Z</time>
      </trkpt>
      <trkpt lat="48.20657" lon="14.21921">
        <ele>283.562782</ele>
        <time>2022-09-12T09:59:21.679Z</time>
      </trkpt>
      <trkpt lat="48.20573" lon="14.21666">
        <ele>284.639357</ele>
        <time>2022-09-12T10:00:15.602Z</time>
      </trkpt>
      <trkpt lat="48.20549" lon="14.21606">
        <ele>284.704568</ele>
        <time>2022-09-12T10:00:27.443Z</time>
      </trkpt>
      <trkpt lat="48.20525" lon="14.21551">
        <ele>284.678443</ele>
        <time>2022-09-12T10:00:38.742Z</time>
      </trkpt>
      <trkpt lat="48.20412" lon="14.21342">
        <ele>284.252324</ele>
        <time>2022-09-12T10:01:24.512Z</time>
      </trkpt>
      <trkpt lat="48.20323" lon="14.21161">
        <ele>284.065711</ele>
        <time>2022-09-12T10:02:03.462Z</time>
      </trkpt>
      <trkpt lat="48.20236" lon="14.20932">
        <ele>284.172378</ele>
        <time>2022-09-12T10:02:51.262Z</time>
      </trkpt>
      <trkpt lat="48.20187" lon="14.20797">
        <ele>284.165643</ele>
        <time>2022-09-12T10:03:18.828Z</time>
      </trkpt>
      <trkpt lat="48.20104" lon="14.20556">
        <ele>284.124851</ele>
        <time>2022-09-12T10:04:08.458Z</time>
      </trkpt>
      <trkpt lat="48.20073" lon="14.20408">
        <ele>284.107423</ele>
        <time>2022-09-12T10:04:37.378Z</time>
      </trkpt>
      <trkpt lat="48.20064" lon="14.20354">
        <ele>284.125838</ele>
        <time>2022-09-12T10:04:47.678Z</time>
      </trkpt>
      <trkpt lat="48.20058" lon="14.20285">
        <ele>284.148882</ele>
        <time>2022-09-12T10:05:00.554Z</time>
      </trkpt>
      <trkpt lat="48.20053" lon="14.20132">
        <ele>284.221398</ele>
        <time>2022-09-12T10:05:29.507Z</time>
      </trkpt>
      <trkpt lat="48.20053" lon="14.19509">
        <ele>284.636009</ele>
        <time>2022-09-12T10:07:28.065Z</time>
      </trkpt>
      <trkpt lat="48.20047" lon="14.1936">
        <ele>284.461874</ele>
        <time>2022-09-12T10:07:54.561Z</time>
      </trkpt>
      <trkpt lat="48.20033" lon="14.19235">
        <ele>283.687583</ele>
        <time>2022-09-12T10:08:15.348Z</time>
      </trkpt>
      <trkpt lat="48.19993" lon="14.19115">
        <ele>282.825219</ele>
        <time>2022-09-12T10:08:36.388Z</time>
      </trkpt>
      <trkpt lat="48.19975" lon="14.19079">
        <ele>282.732256</ele>
        <time>2022-09-12T10:08:43.527Z</time>
      </trkpt>
      <trkpt lat="48.19904" lon="14.18968">
        <ele>282.763622</ele>
        <time>2022-09-12T10:09:09.855Z</time>
      </trkpt>
      <trkpt lat="48.19657" lon="14.18595">
        <ele>286.415692</ele>
        <time>2022-09-12T10:11:11.547Z</time>
      </trkpt>
      <trkpt lat="48.19606" lon="14.18504">
        <ele>287.040699</ele>
        <time>2022-09-12T10:11:35.270Z</time>
      </trkpt>
      <trkpt lat="48.19569" lon="14.18385">
        <ele>286.751349</ele>
        <time>2022-09-12T10:11:58.238Z</time>
      </trkpt>
      <trkpt lat="48.19548" lon="14.18282">
        <ele>286.51121</ele>
        <time>2022-09-12T10:12:16.494Z</time>
      </trkpt>
      <trkpt lat="48.1954" lon="14.18198">
        <ele>286.214327</ele>
        <time>2022-09-12T10:12:30.779Z</time>
      </trkpt>
      <trkpt lat="48.19529" lon="14.17844">
        <ele>284.951714</ele>
        <time>2022-09-12T10:13:31.301Z</time>
      </trkpt>
      <trkpt lat="48.19522" lon="14.17644">
        <ele>284.591647</ele>
        <time>2022-09-12T10:14:06.036Z</time>
      </trkpt>
      <trkpt lat="48.19515" lon="14.17543">
        <ele>284.611862</ele>
        <time>2022-09-12T10:14:24.875Z</time>
      </trkpt>
      <trkpt lat="48.19504" lon="14.17228">
        <ele>285.581326</ele>
        <time>2022-09-12T10:15:29.013Z</time>
      </trkpt>
      <trkpt lat="48.19492" lon="14.17046">
        <ele>286.671315</ele>
        <time>2022-09-12T10:16:07.765Z</time>
      </trkpt>
      <trkpt lat="48.19459" lon="14.16823">
        <ele>288.057339</ele>
        <time>2022-09-12T10:16:58.879Z</time>
      </trkpt>
      <trkpt lat="48.19429" lon="14.16677">
        <ele>288.904088</ele>
        <time>2022-09-12T10:17:31.637Z</time>
      </trkpt>
      <trkpt lat="48.1937" lon="14.16447">
        <ele>288.15937</ele>
        <time>2022-09-12T10:18:13.705Z</time>
      </trkpt>
      <trkpt lat="48.19311" lon="14.16269">
        <ele>286.908636</ele>
        <time>2022-09-12T10:18:45.112Z</time>
      </trkpt>
      <trkpt lat="48.19286" lon="14.16196">
        <ele>286.341866</ele>
        <time>2022-09-12T10:18:58.222Z</time>
      </trkpt>
      <trkpt lat="48.19261" lon="14.16145">
        <ele>286.205345</ele>
        <time>2022-09-12T10:19:08.617Z</time>
      </trkpt>
      <trkpt lat="48.19173" lon="14.15955">
        <ele>286.324535</ele>
        <time>2022-09-12T10:19:53.352Z</time>
      </trkpt>
      <trkpt lat="48.19097" lon="14.15808">
        <ele>287.167442</ele>
        <time>2022-09-12T10:20:32.721Z</time>
      </trkpt>
      <trkpt lat="48.19004" lon="14.15648">
        <ele>287.593979</ele>
        <time>2022-09-12T10:21:16.309Z</time>
      </trkpt>
      <trkpt lat="48.18932" lon="14.15538">
        <ele>287.637878</ele>
        <time>2022-09-12T10:21:43.013Z</time>
      </trkpt>
      <trkpt lat="48.1887" lon="14.15456">
        <ele>287.555665</ele>
        <time>2022-09-12T10:22:04.277Z</time>
      </trkpt>
      <trkpt lat="48.18716" lon="14.15275">
        <ele>287.836478</ele>
        <time>2022-09-12T10:23:01.159Z</time>
      </trkpt>
      <trkpt lat="48.18665" lon="14.15207">
        <ele>288.069582</ele>
        <time>2022-09-12T10:23:22.008Z</time>
      </trkpt>
      <trkpt lat="48.18621" lon="14.15134">
        <ele>288.227803</ele>
        <time>2022-09-12T10:23:41.304Z</time>
      </trkpt>
      <trkpt lat="48.1856" lon="14.15009">
        <ele>288.470596</ele>
        <time>2022-09-12T10:24:10.561Z</time>
      </trkpt>
      <trkpt lat="48.18435" lon="14.14668">
        <ele>288.93632</ele>
        <time>2022-09-12T10:25:24.271Z</time>
      </trkpt>
      <trkpt lat="48.18263" lon="14.14184">
        <ele>290.327575</ele>
        <time>2022-09-12T10:27:13.907Z</time>
      </trkpt>
      <trkpt lat="48.18202" lon="14.1401">
        <ele>290.703358</ele>
        <time>2022-09-12T10:27:51.869Z</time>
      </trkpt>
      <trkpt lat="48.18156" lon="14.1388">
        <ele>290.749417</ele>
        <time>2022-09-12T10:28:19.532Z</time>
      </trkpt>
      <trkpt lat="48.18133" lon="14.13798">
        <ele>290.77708</ele>
        <time>2022-09-12T10:28:35.902Z</time>
      </trkpt>
      <trkpt lat="48.18105" lon="14.13656">
        <ele>290.704351</ele>
        <time>2022-09-12T10:29:02.997Z</time>
      </trkpt>
      <trkpt lat="48.18088" lon="14.13506">
        <ele>290.661013</ele>
        <time>2022-09-12T10:29:30.723Z</time>
      </trkpt>
      <trkpt lat="48.18062" lon="14.13329">
        <ele>290.760155</ele>
        <time>2022-09-12T10:30:04.566Z</time>
      </trkpt>
      <trkpt lat="48.18048" lon="14.13252">
        <ele>290.827614</ele>
        <time>2022-09-12T10:30:19.197Z</time>
      </trkpt>
      <trkpt lat="48.17948" lon="14.12757">
        <ele>291.70588</ele>
        <time>2022-09-12T10:31:59.157Z</time>
      </trkpt>
      <trkpt lat="48.17944" lon="14.12734">
        <ele>291.768989</ele>
        <time>2022-09-12T10:32:04.006Z</time>
      </trkpt>
      <trkpt lat="48.17904" lon="14.12529">
        <ele>292.343447</ele>
        <time>2022-09-12T10:32:46.259Z</time>
      </trkpt>
      <trkpt lat="48.17882" lon="14.1243">
        <ele>292.641335</ele>
        <time>2022-09-12T10:33:07.358Z</time>
      </trkpt>
      <trkpt lat="48.17855" lon="14.12342">
        <ele>292.919891</ele>
        <time>2022-09-12T10:33:26.533Z</time>
      </trkpt>
      <trkpt lat="48.17819" lon="14.12242">
        <ele>293.239747</ele>
        <time>2022-09-12T10:33:49.280Z</time>
      </trkpt>
      <trkpt lat="48.17726" lon="14.12023">
        <ele>293.732566</ele>
        <time>2022-09-12T10:34:39.943Z</time>
      </trkpt>
      <trkpt lat="48.17685" lon="14.11957">
        <ele>293.724858</ele>
        <time>2022-09-12T10:34:56.632Z</time>
      </trkpt>
      <trkpt lat="48.17683" lon="14.11934">
        <ele>293.722785</ele>
        <time>2022-09-12T10:35:01.168Z</time>
      </trkpt>
      <trkpt lat="48.17614" lon="14.11786">
        <ele>293.679408</ele>
        <time>2022-09-12T10:35:34.160Z</time>
      </trkpt>
      <trkpt lat="48.17616" lon="14.1176">
        <ele>293.649548</ele>
        <time>2022-09-12T10:35:38.968Z</time>
      </trkpt>
      <trkpt lat="48.17504" lon="14.11522">
        <ele>293.304256</ele>
        <time>2022-09-12T10:36:45.391Z</time>
      </trkpt>
      <trkpt lat="48.17485" lon="14.11449">
        <ele>293.201357</ele>
        <time>2022-09-12T10:37:03.153Z</time>
      </trkpt>
      <trkpt lat="48.17483" lon="14.11422">
        <ele>293.16486</ele>
        <time>2022-09-12T10:37:09.415Z</time>
      </trkpt>
      <trkpt lat="48.17481" lon="14.11353">
        <ele>293.07356</ele>
        <time>2022-09-12T10:37:25.170Z</time>
      </trkpt>
      <trkpt lat="48.17475" lon="14.1132">
        <ele>293.027879</ele>
        <time>2022-09-12T10:37:33.110Z</time>
      </trkpt>
      <trkpt lat="48.17377" lon="14.1076">
        <ele>292.295253</ele>
        <time>2022-09-12T10:39:45.161Z</time>
      </trkpt>
      <trkpt lat="48.17347" lon="14.10522">
        <ele>291.988655</ele>
        <time>2022-09-12T10:40:40.274Z</time>
      </trkpt>
      <trkpt lat="48.17304" lon="14.10272">
        <ele>291.849482</ele>
        <time>2022-09-12T10:41:38.886Z</time>
      </trkpt>
      <trkpt lat="48.17302" lon="14.10232">
        <ele>292.213359</ele>
        <time>2022-09-12T10:41:49.010Z</time>
      </trkpt>
      <trkpt lat="48.17301" lon="14.10218">
        <ele>292.342236</ele>
        <time>2022-09-12T10:41:52.537Z</time>
      </trkpt>
      <trkpt lat="48.17301" lon="14.10191">
        <ele>292.580101</ele>
        <time>2022-09-12T10:41:59.626Z</time>
      </trkpt>
      <trkpt lat="48.17302" lon="14.1007">
        <ele>293.679855</ele>
        <time>2022-09-12T10:42:34.231Z</time>
      </trkpt>
      <trkpt lat="48.17302" lon="14.10049">
        <ele>293.869777</ele>
        <time>2022-09-12T10:42:40.471Z</time>
      </trkpt>
      <trkpt lat="48.17346" lon="14.09951">
        <ele>295.728144</ele>
        <time>2022-09-12T10:43:18.362Z</time>
      </trkpt>
      <trkpt lat="48.17352" lon="14.09923">
        <ele>296.265795</ele>
        <time>2022-09-12T10:43:27.897Z</time>
      </trkpt>
      <trkpt lat="48.17349" lon="14.09896">
        <ele>296.764205</ele>
        <time>2022-09-12T10:43:37.096Z</time>
      </trkpt>
      <trkpt lat="48.1729" lon="14.09662">
        <ele>301.156258</ele>
        <time>2022-09-12T10:44:58.233Z</time>
      </trkpt>
      <trkpt lat="48.17283" lon="14.09648">
        <ele>301.44754</ele>
        <time>2022-09-12T10:45:03.456Z</time>
      </trkpt>
      <trkpt lat="48.17275" lon="14.09645">
        <ele>301.651827</ele>
        <time>2022-09-12T10:45:07.632Z</time>
      </trkpt>
      <trkpt lat="48.17251" lon="14.09606">
        <ele>302.540939</ele>
        <time>2022-09-12T10:45:23.972Z</time>
      </trkpt>
      <trkpt lat="48.17235" lon="14.09359">
        <ele>305.934684</ele>
        <time>2022-09-12T10:46:27.053Z</time>
      </trkpt>
      <trkpt lat="48.17234" lon="14.09263">
        <ele>307.021748</ele>
        <time>2022-09-12T10:46:49.380Z</time>
      </trkpt>
      <trkpt lat="48.17237" lon="14.09136">
        <ele>307.147572</ele>
        <time>2022-09-12T10:47:16.000Z</time>
      </trkpt>
      <trkpt lat="48.17257" lon="14.08819">
        <ele>306.33064</ele>
        <time>2022-09-12T10:48:09.465Z</time>
      </trkpt>
      <trkpt lat="48.17256" lon="14.08735">
        <ele>305.9072</ele>
        <time>2022-09-12T10:48:22.839Z</time>
      </trkpt>
      <trkpt lat="48.17249" lon="14.08655">
        <ele>305.68455</ele>
        <time>2022-09-12T10:48:36.375Z</time>
      </trkpt>
      <trkpt lat="48.17239" lon="14.08597">
        <ele>305.516774</ele>
        <time>2022-09-12T10:48:46.864Z</time>
      </trkpt>
      <trkpt lat="48.17234" lon="14.08567">
        <ele>305.432737</ele>
        <time>2022-09-12T10:48:52.193Z</time>
      </trkpt>
      <trkpt lat="48.17192" lon="14.08439">
        <ele>305.195881</ele>
        <time>2022-09-12T10:49:18.054Z</time>
      </trkpt>
      <trkpt lat="48.17148" lon="14.08343">
        <ele>305.285972</ele>
        <time>2022-09-12T10:49:40.357Z</time>
      </trkpt>
      <trkpt lat="48.17116" lon="14.08296">
        <ele>305.337307</ele>
        <time>2022-09-12T10:49:53.115Z</time>
      </trkpt>
      <trkpt lat="48.16991" lon="14.08133">
        <ele>305.91105</ele>
        <time>2022-09-12T10:50:41.172Z</time>
      </trkpt>
      <trkpt lat="48.16989" lon="14.0813">
        <ele>305.923831</ele>
        <time>2022-09-12T10:50:42.128Z</time>
      </trkpt>
      <trkpt lat="48.16905" lon="14.08006">
        <ele>306.709841</ele>
        <time>2022-09-12T10:51:19.586Z</time>
      </trkpt>
      <trkpt lat="48.16715" lon="14.07693">
        <ele>308.674993</ele>
        <time>2022-09-12T10:52:48.975Z</time>
      </trkpt>
      <trkpt lat="48.16713" lon="14.07678">
        <ele>308.620413</ele>
        <time>2022-09-12T10:52:51.634Z</time>
      </trkpt>
      <trkpt lat="48.16715" lon="14.07638">
        <ele>308.480285</ele>
        <time>2022-09-12T10:52:58.491Z</time>
      </trkpt>
      <trkpt lat="48.16695" lon="14.07631">
        <ele>308.371873</ele>
        <time>2022-09-12T10:53:05.173Z</time>
      </trkpt>
      <trkpt lat="48.1665" lon="14.07576">
        <ele>308.06619</ele>
        <time>2022-09-12T10:53:23.675Z</time>
      </trkpt>
      <trkpt lat="48.16555" lon="14.07406">
        <ele>307.300661</ele>
        <time>2022-09-12T10:54:11.436Z</time>
      </trkpt>
      <trkpt lat="48.16483" lon="14.07253">
        <ele>306.867056</ele>
        <time>2022-09-12T10:54:53.363Z</time>
      </trkpt>
      <trkpt lat="48.1644" lon="14.07144">
        <ele>307.006752</ele>
        <time>2022-09-12T10:55:22.361Z</time>
      </trkpt>
      <trkpt lat="48.16428" lon="14.07129">
        <ele>307.032203</ele>
        <time>2022-09-12T10:55:26.765Z</time>
      </trkpt>
      <trkpt lat="48.16368" lon="14.06973">
        <ele>308.350221</ele>
        <time>2022-09-12T10:56:05.297Z</time>
      </trkpt>
      <trkpt lat="48.16289" lon="14.06742">
        <ele>311.194261</ele>
        <time>2022-09-12T10:57:12.973Z</time>
      </trkpt>
      <trkpt lat="48.16082" lon="14.06158">
        <ele>317.272262</ele>
        <time>2022-09-12T10:59:42.338Z</time>
      </trkpt>
      <trkpt lat="48.16078" lon="14.06158">
        <ele>317.317674</ele>
        <time>2022-09-12T10:59:43.477Z</time>
      </trkpt>
      <trkpt lat="48.16044" lon="14.06099">
        <ele>317.830018</ele>
        <time>2022-09-12T11:00:01.221Z</time>
      </trkpt>
      <trkpt lat="48.16026" lon="14.06053">
        <ele>318.053728</ele>
        <time>2022-09-12T11:00:12.990Z</time>
      </trkpt>
      <trkpt lat="48.15963" lon="14.05893">
        <ele>318.826831</ele>
        <time>2022-09-12T11:01:00.577Z</time>
      </trkpt>
      <trkpt lat="48.15828" lon="14.05523">
        <ele>315.865627</ele>
        <time>2022-09-12T11:02:28.585Z</time>
      </trkpt>
      <trkpt lat="48.15798" lon="14.0543">
        <ele>314.817526</ele>
        <time>2022-09-12T11:02:48.322Z</time>
      </trkpt>
      <trkpt lat="48.15771" lon="14.05317">
        <ele>313.219602</ele>
        <time>2022-09-12T11:03:11.181Z</time>
      </trkpt>
      <trkpt lat="48.15761" lon="14.0524">
        <ele>312.141192</ele>
        <time>2022-09-12T11:03:26.114Z</time>
      </trkpt>
      <trkpt lat="48.15749" lon="14.0511">
        <ele>310.822722</ele>
        <time>2022-09-12T11:03:51.608Z</time>
      </trkpt>
      <trkpt lat="48.15745" lon="14.0501">
        <ele>310.461898</ele>
        <time>2022-09-12T11:04:12.994Z</time>
      </trkpt>
      <trkpt lat="48.15746" lon="14.04617">
        <ele>310.56649</ele>
        <time>2022-09-12T11:05:48.446Z</time>
      </trkpt>
      <trkpt lat="48.15747" lon="14.04513">
        <ele>310.808434</ele>
        <time>2022-09-12T11:06:14.390Z</time>
      </trkpt>
      <trkpt lat="48.1574" lon="14.04458">
        <ele>310.9393</ele>
        <time>2022-09-12T11:06:28.045Z</time>
      </trkpt>
      <trkpt lat="48.15745" lon="14.04394">
        <ele>311.090494</ele>
        <time>2022-09-12T11:06:43.682Z</time>
      </trkpt>
      <trkpt lat="48.15752" lon="14.04337">
        <ele>311.211006</ele>
        <time>2022-09-12T11:06:57.818Z</time>
      </trkpt>
      <trkpt lat="48.15753" lon="14.04207">
        <ele>311.364537</ele>
        <time>2022-09-12T11:07:23.208Z</time>
      </trkpt>
      <trkpt lat="48.1575" lon="14.0406">
        <ele>311.500791</ele>
        <time>2022-09-12T11:07:50.517Z</time>
      </trkpt>
      <trkpt lat="48.15729" lon="14.03889">
        <ele>311.394452</ele>
        <time>2022-09-12T11:08:23.356Z</time>
      </trkpt>
      <trkpt lat="48.15674" lon="14.03639">
        <ele>310.949774</ele>
        <time>2022-09-12T11:09:09.061Z</time>
      </trkpt>
      <trkpt lat="48.1567" lon="14.03621">
        <ele>310.910308</ele>
        <time>2022-09-12T11:09:12.301Z</time>
      </trkpt>
      <trkpt lat="48.15653" lon="14.03556">
        <ele>310.793256</ele>
        <time>2022-09-12T11:09:24.522Z</time>
      </trkpt>
      <trkpt lat="48.15551" lon="14.03185">
        <ele>311.738916</ele>
        <time>2022-09-12T11:10:44.044Z</time>
      </trkpt>
      <trkpt lat="48.15489" lon="14.02967">
        <ele>312.159388</ele>
        <time>2022-09-12T11:11:32.046Z</time>
      </trkpt>
      <trkpt lat="48.154" lon="14.02668">
        <ele>312.130147</ele>
        <time>2022-09-12T11:12:29.931Z</time>
      </trkpt>
      <trkpt lat="48.1534" lon="14.02502">
        <ele>312.279194</ele>
        <time>2022-09-12T11:13:04.978Z</time>
      </trkpt>
      <trkpt lat="48.15334" lon="14.02498">
        <ele>312.303921</ele>
        <time>2022-09-12T11:13:07.398Z</time>
      </trkpt>
      <trkpt lat="48.15323" lon="14.02477">
        <ele>312.366715</ele>
        <time>2022-09-12T11:13:12.355Z</time>
      </trkpt>
      <trkpt lat="48.15307" lon="14.0245">
        <ele>312.450902</ele>
        <time>2022-09-12T11:13:19.913Z</time>
      </trkpt>
      <trkpt lat="48.15194" lon="14.02189">
        <ele>313.229396</ele>
        <time>2022-09-12T11:14:20.676Z</time>
      </trkpt>
      <trkpt lat="48.15163" lon="14.02133">
        <ele>313.419677</ele>
        <time>2022-09-12T11:14:35.574Z</time>
      </trkpt>
      <trkpt lat="48.15143" lon="14.02097">
        <ele>313.57099</ele>
        <time>2022-09-12T11:14:45.012Z</time>
      </trkpt>
      <trkpt lat="48.15127" lon="14.02066">
        <ele>313.696702</ele>
        <time>2022-09-12T11:14:53.041Z</time>
      </trkpt>
      <trkpt lat="48.15086" lon="14.02001">
        <ele>313.985478</ele>
        <time>2022-09-12T11:15:10.955Z</time>
      </trkpt>
      <trkpt lat="48.15038" lon="14.01931">
        <ele>314.306642</ele>
        <time>2022-09-12T11:15:31.143Z</time>
      </trkpt>
      <trkpt lat="48.15018" lon="14.01887">
        <ele>314.460871</ele>
        <time>2022-09-12T11:15:41.530Z</time>
      </trkpt>
      <trkpt lat="48.14938" lon="14.01784">
        <ele>314.928015</ele>
        <time>2022-09-12T11:16:12.527Z</time>
      </trkpt>
      <trkpt lat="48.14943" lon="14.01779">
        <ele>314.957576</ele>
        <time>2022-09-12T11:16:14.570Z</time>
      </trkpt>
      <trkpt lat="48.14943" lon="14.01768">
        <ele>314.987462</ele>
        <time>2022-09-12T11:16:16.729Z</time>
      </trkpt>
      <trkpt lat="48.14936" lon="14.01766">
        <ele>315.016961</ele>
        <time>2022-09-12T11:16:18.965Z</time>
      </trkpt>
      <trkpt lat="48.14917" lon="14.0176">
        <ele>315.108992</ele>
        <time>2022-09-12T11:16:25.282Z</time>
      </trkpt>
      <trkpt lat="48.14897" lon="14.01732">
        <ele>315.249489</ele>
        <time>2022-09-12T11:16:33.639Z</time>
      </trkpt>
      <trkpt lat="48.14829" lon="14.01634">
        <ele>315.730048</ele>
        <time>2022-09-12T11:17:01.568Z</time>
      </trkpt>
      <trkpt lat="48.14742" lon="14.01497">
        <ele>315.709941</ele>
        <time>2022-09-12T11:17:36.642Z</time>
      </trkpt>
      <trkpt lat="48.14706" lon="14.01428">
        <ele>315.483371</ele>
        <time>2022-09-12T11:17:50.134Z</time>
      </trkpt>
      <trkpt lat="48.14663" lon="14.01317">
        <ele>315.157673</ele>
        <time>2022-09-12T11:18:10.766Z</time>
      </trkpt>
      <trkpt lat="48.1471" lon="14.0127">
        <ele>314.953764</ele>
        <time>2022-09-12T11:18:25.120Z</time>
      </trkpt>
      <trkpt lat="48.14698" lon="14.01226">
        <ele>314.837885</ele>
        <time>2022-09-12T11:18:33.691Z</time>
      </trkpt>
      <trkpt lat="48.14705" lon="14.01212">
        <ele>314.798586</ele>
        <time>2022-09-12T11:18:36.685Z</time>
      </trkpt>
      <trkpt lat="48.14744" lon="14.01176">
        <ele>314.649156</ele>
        <time>2022-09-12T11:18:48.849Z</time>
      </trkpt>
      <trkpt lat="48.14777" lon="14.01146">
        <ele>314.688171</ele>
        <time>2022-09-12T11:18:59.154Z</time>
      </trkpt>
      <trkpt lat="48.14775" lon="14.01141">
        <ele>314.692107</ele>
        <time>2022-09-12T11:19:00.260Z</time>
      </trkpt>
      <trkpt lat="48.1475" lon="14.01081">
        <ele>314.740323</ele>
        <time>2022-09-12T11:19:14.709Z</time>
      </trkpt>
      <trkpt lat="48.14679" lon="14.009">
        <ele>314.809898</ele>
        <time>2022-09-12T11:19:53.269Z</time>
      </trkpt>
      <trkpt lat="48.14686" lon="14.00885">
        <ele>314.806067</ele>
        <time>2022-09-12T11:19:56.304Z</time>
      </trkpt>
      <trkpt lat="48.14736" lon="14.00854">
        <ele>314.788607</ele>
        <time>2022-09-12T11:20:11.823Z</time>
      </trkpt>
      <trkpt lat="48.14737" lon="14.00848">
        <ele>314.787379</ele>
        <time>2022-09-12T11:20:12.970Z</time>
      </trkpt>
      <trkpt lat="48.14711" lon="14.00739">
        <ele>314.851952</ele>
        <time>2022-09-12T11:20:34.272Z</time>
      </trkpt>
      <trkpt lat="48.14707" lon="14.0072">
        <ele>314.902052</ele>
        <time>2022-09-12T11:20:37.865Z</time>
      </trkpt>
      <trkpt lat="48.1469" lon="14.00651">
        <ele>315.08306</ele>
        <time>2022-09-12T11:20:52.116Z</time>
      </trkpt>
      <trkpt lat="48.1465" lon="14.00551">
        <ele>315.372431</ele>
        <time>2022-09-12T11:21:15.712Z</time>
      </trkpt>
      <trkpt lat="48.14605" lon="14.00432">
        <ele>316.046753</ele>
        <time>2022-09-12T11:21:44.205Z</time>
      </trkpt>
      <trkpt lat="48.14563" lon="14.00346">
        <ele>316.62849</ele>
        <time>2022-09-12T11:22:06.623Z</time>
      </trkpt>
      <trkpt lat="48.14556" lon="14.00331">
        <ele>316.730182</ele>
        <time>2022-09-12T11:22:10.807Z</time>
      </trkpt>
      <trkpt lat="48.14532" lon="14.00274">
        <ele>317.139005</ele>
        <time>2022-09-12T11:22:25.233Z</time>
      </trkpt>
      <trkpt lat="48.14528" lon="14.00266">
        <ele>317.201456</ele>
        <time>2022-09-12T11:22:27.145Z</time>
      </trkpt>
      <trkpt lat="48.14499" lon="14.00202">
        <ele>317.710968</ele>
        <time>2022-09-12T11:22:43.799Z</time>
      </trkpt>
      <trkpt lat="48.14486" lon="14.00172">
        <ele>317.94708</ele>
        <time>2022-09-12T11:22:51.306Z</time>
      </trkpt>
      <trkpt lat="48.1448" lon="14.00159">
        <ele>318.049011</ele>
        <time>2022-09-12T11:22:54.710Z</time>
      </trkpt>
      <trkpt lat="48.14436" lon="14.00063">
        <ele>318.758603</ele>
        <time>2022-09-12T11:23:18.755Z</time>
      </trkpt>
      <trkpt lat="48.1443" lon="14.0005">
        <ele>318.809426</ele>
        <time>2022-09-12T11:23:21.775Z</time>
      </trkpt>
      <trkpt lat="48.14407" lon="14.00004">
        <ele>318.996687</ele>
        <time>2022-09-12T11:23:33.349Z</time>
      </trkpt>
      <trkpt lat="48.14377" lon="13.99919">
        <ele>319.313211</ele>
        <time>2022-09-12T11:23:52.570Z</time>
      </trkpt>
      <trkpt lat="48.14341" lon="13.99805">
        <ele>319.534965</ele>
        <time>2022-09-12T11:24:15.034Z</time>
      </trkpt>
      <trkpt lat="48.14337" lon="13.99775">
        <ele>319.505638</ele>
        <time>2022-09-12T11:24:20.642Z</time>
      </trkpt>
      <trkpt lat="48.14332" lon="13.99721">
        <ele>319.452203</ele>
        <time>2022-09-12T11:24:30.295Z</time>
      </trkpt>
      <trkpt lat="48.1432" lon="13.99557">
        <ele>319.283333</ele>
        <time>2022-09-12T11:24:58.144Z</time>
      </trkpt>
      <trkpt lat="48.14325" lon="13.99537">
        <ele>319.252873</ele>
        <time>2022-09-12T11:25:01.731Z</time>
      </trkpt>
      <trkpt lat="48.14321" lon="13.99494">
        <ele>319.193404</ele>
        <time>2022-09-12T11:25:09.133Z</time>
      </trkpt>
      <trkpt lat="48.14316" lon="13.99496">
        <ele>319.18378</ele>
        <time>2022-09-12T11:25:10.376Z</time>
      </trkpt>
      <trkpt lat="48.1429" lon="13.99506">
        <ele>319.128132</ele>
        <time>2022-09-12T11:25:17.470Z</time>
      </trkpt>
      <trkpt lat="48.14279" lon="13.99485">
        <ele>319.090572</ele>
        <time>2022-09-12T11:25:22.369Z</time>
      </trkpt>
      <trkpt lat="48.14247" lon="13.99449">
        <ele>319.005951</ele>
        <time>2022-09-12T11:25:33.302Z</time>
      </trkpt>
      <trkpt lat="48.14223" lon="13.99405">
        <ele>318.965714</ele>
        <time>2022-09-12T11:25:43.667Z</time>
      </trkpt>
      <trkpt lat="48.14191" lon="13.9934">
        <ele>319.130303</ele>
        <time>2022-09-12T11:25:59.472Z</time>
      </trkpt>
      <trkpt lat="48.14124" lon="13.99221">
        <ele>319.448866</ele>
        <time>2022-09-12T11:26:39.395Z</time>
      </trkpt>
      <trkpt lat="48.14119" lon="13.99205">
        <ele>319.483604</ele>
        <time>2022-09-12T11:26:43.413Z</time>
      </trkpt>
      <trkpt lat="48.14114" lon="13.99189">
        <ele>319.470688</ele>
        <time>2022-09-12T11:26:47.420Z</time>
      </trkpt>
      <trkpt lat="48.14093" lon="13.99125">
        <ele>319.352851</ele>
        <time>2022-09-12T11:27:03.032Z</time>
      </trkpt>
      <trkpt lat="48.14095" lon="13.99112">
        <ele>319.330775</ele>
        <time>2022-09-12T11:27:06.126Z</time>
      </trkpt>
      <trkpt lat="48.1412" lon="13.99079">
        <ele>319.248331</ele>
        <time>2022-09-12T11:27:14.814Z</time>
      </trkpt>
      <trkpt lat="48.14151" lon="13.99034">
        <ele>319.140972</ele>
        <time>2022-09-12T11:27:26.380Z</time>
      </trkpt>
      <trkpt lat="48.14181" lon="13.98994">
        <ele>319.045322</ele>
        <time>2022-09-12T11:27:37.045Z</time>
      </trkpt>
      <trkpt lat="48.1421" lon="13.98954">
        <ele>319.004894</ele>
        <time>2022-09-12T11:27:47.327Z</time>
      </trkpt>
      <trkpt lat="48.14237" lon="13.98917">
        <ele>318.967184</ele>
        <time>2022-09-12T11:27:56.616Z</time>
      </trkpt>
      <trkpt lat="48.14266" lon="13.98877">
        <ele>318.927196</ele>
        <time>2022-09-12T11:28:07.117Z</time>
      </trkpt>
      <trkpt lat="48.14296" lon="13.98835">
        <ele>318.884821</ele>
        <time>2022-09-12T11:28:19.232Z</time>
      </trkpt>
      <trkpt lat="48.14324" lon="13.98807">
        <ele>318.907636</ele>
        <time>2022-09-12T11:28:29.481Z</time>
      </trkpt>
      <trkpt lat="48.14331" lon="13.98805">
        <ele>318.932902</ele>
        <time>2022-09-12T11:28:31.713Z</time>
      </trkpt>
      <trkpt lat="48.14353" lon="13.98806">
        <ele>319.010497</ele>
        <time>2022-09-12T11:28:38.332Z</time>
      </trkpt>
      <trkpt lat="48.14368" lon="13.988">
        <ele>319.064833</ele>
        <time>2022-09-12T11:28:42.947Z</time>
      </trkpt>
      <trkpt lat="48.1436" lon="13.98782">
        <ele>319.115133</ele>
        <time>2022-09-12T11:28:47.097Z</time>
      </trkpt>
      <trkpt lat="48.14362" lon="13.98752">
        <ele>319.185702</ele>
        <time>2022-09-12T11:28:53.000Z</time>
      </trkpt>
      <trkpt lat="48.14431" lon="13.98646">
        <ele>319.53241</ele>
        <time>2022-09-12T11:29:22.258Z</time>
      </trkpt>
      <trkpt lat="48.14445" lon="13.98608">
        <ele>319.623495</ele>
        <time>2022-09-12T11:29:30.520Z</time>
      </trkpt>
      <trkpt lat="48.14457" lon="13.98518">
        <ele>319.816295</ele>
        <time>2022-09-12T11:29:47.818Z</time>
      </trkpt>
      <trkpt lat="48.14456" lon="13.98429">
        <ele>320.004136</ele>
        <time>2022-09-12T11:30:05.735Z</time>
      </trkpt>
      <trkpt lat="48.1443" lon="13.98364">
        <ele>320.213032</ele>
        <time>2022-09-12T11:30:20.889Z</time>
      </trkpt>
      <trkpt lat="48.14415" lon="13.98333">
        <ele>320.332887</ele>
        <time>2022-09-12T11:30:28.692Z</time>
      </trkpt>
      <trkpt lat="48.14392" lon="13.98216">
        <ele>320.718512</ele>
        <time>2022-09-12T11:30:53.241Z</time>
      </trkpt>
      <trkpt lat="48.14351" lon="13.98143">
        <ele>320.936807</ele>
        <time>2022-09-12T11:31:12.653Z</time>
      </trkpt>
      <trkpt lat="48.14303" lon="13.98005">
        <ele>321.039692</ele>
        <time>2022-09-12T11:31:42.374Z</time>
      </trkpt>
      <trkpt lat="48.14292" lon="13.97976">
        <ele>321.061522</ele>
        <time>2022-09-12T11:31:48.373Z</time>
      </trkpt>
      <trkpt lat="48.14263" lon="13.97997">
        <ele>321.091325</ele>
        <time>2022-09-12T11:31:56.990Z</time>
      </trkpt>
      <trkpt lat="48.14241" lon="13.97969">
        <ele>320.948475</ele>
        <time>2022-09-12T11:32:04.526Z</time>
      </trkpt>
      <trkpt lat="48.14232" lon="13.97956">
        <ele>320.886113</ele>
        <time>2022-09-12T11:32:07.825Z</time>
      </trkpt>
      <trkpt lat="48.14219" lon="13.97938">
        <ele>320.798765</ele>
        <time>2022-09-12T11:32:12.268Z</time>
      </trkpt>
      <trkpt lat="48.14175" lon="13.97801">
        <ele>320.297344</ele>
        <time>2022-09-12T11:32:37.516Z</time>
      </trkpt>
      <trkpt lat="48.14132" lon="13.97736">
        <ele>320.370889</ele>
        <time>2022-09-12T11:32:54.012Z</time>
      </trkpt>
      <trkpt lat="48.14047" lon="13.97638">
        <ele>320.796352</ele>
        <time>2022-09-12T11:33:26.556Z</time>
      </trkpt>
      <trkpt lat="48.14034" lon="13.97628">
        <ele>320.855695</ele>
        <time>2022-09-12T11:33:31.315Z</time>
      </trkpt>
      <trkpt lat="48.13984" lon="13.97613">
        <ele>321.153817</ele>
        <time>2022-09-12T11:33:48.030Z</time>
      </trkpt>
      <trkpt lat="48.13927" lon="13.97612">
        <ele>321.537049</ele>
        <time>2022-09-12T11:34:06.527Z</time>
      </trkpt>
      <trkpt lat="48.13921" lon="13.9761">
        <ele>321.572737</ele>
        <time>2022-09-12T11:34:08.274Z</time>
      </trkpt>
      <trkpt lat="48.1382" lon="13.9757">
        <ele>322.074118</ele>
        <time>2022-09-12T11:34:40.277Z</time>
      </trkpt>
      <trkpt lat="48.13754" lon="13.97569">
        <ele>321.937743</ele>
        <time>2022-09-12T11:34:56.979Z</time>
      </trkpt>
      <trkpt lat="48.13728" lon="13.97541">
        <ele>321.870026</ele>
        <time>2022-09-12T11:35:05.051Z</time>
      </trkpt>
      <trkpt lat="48.13712" lon="13.97506">
        <ele>321.811251</ele>
        <time>2022-09-12T11:35:12.326Z</time>
      </trkpt>
      <trkpt lat="48.13701" lon="13.97483">
        <ele>321.771086</ele>
        <time>2022-09-12T11:35:17.230Z</time>
      </trkpt>
      <trkpt lat="48.13658" lon="13.97436">
        <ele>321.994472</ele>
        <time>2022-09-12T11:35:32.489Z</time>
      </trkpt>
      <trkpt lat="48.13623" lon="13.97379">
        <ele>322.304769</ele>
        <time>2022-09-12T11:35:47.920Z</time>
      </trkpt>
      <trkpt lat="48.13533" lon="13.97344">
        <ele>322.863916</ele>
        <time>2022-09-12T11:36:18.473Z</time>
      </trkpt>
      <trkpt lat="48.13456" lon="13.97256">
        <ele>323.444987</ele>
        <time>2022-09-12T11:36:50.220Z</time>
      </trkpt>
      <trkpt lat="48.13399" lon="13.97186">
        <ele>323.892818</ele>
        <time>2022-09-12T11:37:12.033Z</time>
      </trkpt>
      <trkpt lat="48.13317" lon="13.97118">
        <ele>323.418494</ele>
        <time>2022-09-12T11:37:36.026Z</time>
      </trkpt>
      <trkpt lat="48.13308" lon="13.97097">
        <ele>323.328488</ele>
        <time>2022-09-12T11:37:39.927Z</time>
      </trkpt>
      <trkpt lat="48.13304" lon="13.97055">
        <ele>323.174027</ele>
        <time>2022-09-12T11:37:46.828Z</time>
      </trkpt>
      <trkpt lat="48.13302" lon="13.9704">
        <ele>323.120046</ele>
        <time>2022-09-12T11:37:49.233Z</time>
      </trkpt>
      <trkpt lat="48.13304" lon="13.97027">
        <ele>323.070466</ele>
        <time>2022-09-12T11:37:51.591Z</time>
      </trkpt>
      <trkpt lat="48.13309" lon="13.97011">
        <ele>323.007359</ele>
        <time>2022-09-12T11:37:54.599Z</time>
      </trkpt>
      <trkpt lat="48.13326" lon="13.96969">
        <ele>322.909465</ele>
        <time>2022-09-12T11:38:03.012Z</time>
      </trkpt>
      <trkpt lat="48.13327" lon="13.96943">
        <ele>322.886956</ele>
        <time>2022-09-12T11:38:07.517Z</time>
      </trkpt>
      <trkpt lat="48.13319" lon="13.96927">
        <ele>322.869495</ele>
        <time>2022-09-12T11:38:11.204Z</time>
      </trkpt>
      <trkpt lat="48.13289" lon="13.96907">
        <ele>322.826784</ele>
        <time>2022-09-12T11:38:20.076Z</time>
      </trkpt>
      <trkpt lat="48.1328" lon="13.96899">
        <ele>322.812892</ele>
        <time>2022-09-12T11:38:23.106Z</time>
      </trkpt>
      <trkpt lat="48.13269" lon="13.96879">
        <ele>322.790856</ele>
        <time>2022-09-12T11:38:27.756Z</time>
      </trkpt>
      <trkpt lat="48.13249" lon="13.96847">
        <ele>322.753508</ele>
        <time>2022-09-12T11:38:35.595Z</time>
      </trkpt>
      <trkpt lat="48.13215" lon="13.96793">
        <ele>322.758134</ele>
        <time>2022-09-12T11:38:49.703Z</time>
      </trkpt>
      <trkpt lat="48.13171" lon="13.96739">
        <ele>323.093313</ele>
        <time>2022-09-12T11:39:06.672Z</time>
      </trkpt>
      <trkpt lat="48.13122" lon="13.96675">
        <ele>323.479769</ele>
        <time>2022-09-12T11:39:27.662Z</time>
      </trkpt>
      <trkpt lat="48.13102" lon="13.96617">
        <ele>323.738029</ele>
        <time>2022-09-12T11:39:41.095Z</time>
      </trkpt>
      <trkpt lat="48.13096" lon="13.9655">
        <ele>323.94248</ele>
        <time>2022-09-12T11:39:54.719Z</time>
      </trkpt>
      <trkpt lat="48.1309" lon="13.96527">
        <ele>324.012682</ele>
        <time>2022-09-12T11:39:59.709Z</time>
      </trkpt>
      <trkpt lat="48.13025" lon="13.96476">
        <ele>324.335186</ele>
        <time>2022-09-12T11:40:21.685Z</time>
      </trkpt>
      <trkpt lat="48.12983" lon="13.96449">
        <ele>324.535631</ele>
        <time>2022-09-12T11:40:35.421Z</time>
      </trkpt>
      <trkpt lat="48.12866" lon="13.96411">
        <ele>324.83743</ele>
        <time>2022-09-12T11:41:09.663Z</time>
      </trkpt>
      <trkpt lat="48.12854" lon="13.96413">
        <ele>324.867945</ele>
        <time>2022-09-12T11:41:13.514Z</time>
      </trkpt>
      <trkpt lat="48.12796" lon="13.96424">
        <ele>325.020747</ele>
        <time>2022-09-12T11:41:29.885Z</time>
      </trkpt>
      <trkpt lat="48.12756" lon="13.9642">
        <ele>325.181604</ele>
        <time>2022-09-12T11:41:41.626Z</time>
      </trkpt>
      <trkpt lat="48.12678" lon="13.96386">
        <ele>325.506738</ele>
        <time>2022-09-12T11:42:05.812Z</time>
      </trkpt>
      <trkpt lat="48.12649" lon="13.96366">
        <ele>325.633231</ele>
        <time>2022-09-12T11:42:15.490Z</time>
      </trkpt>
      <trkpt lat="48.12616" lon="13.96332">
        <ele>325.823446</ele>
        <time>2022-09-12T11:42:27.937Z</time>
      </trkpt>
      <trkpt lat="48.12565" lon="13.96279">
        <ele>326.166975</ele>
        <time>2022-09-12T11:42:47.100Z</time>
      </trkpt>
      <trkpt lat="48.12541" lon="13.96258">
        <ele>326.318094</ele>
        <time>2022-09-12T11:42:55.428Z</time>
      </trkpt>
      <trkpt lat="48.12525" lon="13.96252">
        <ele>326.41291</ele>
        <time>2022-09-12T11:43:00.745Z</time>
      </trkpt>
      <trkpt lat="48.125" lon="13.96245">
        <ele>326.552399</ele>
        <time>2022-09-12T11:43:08.366Z</time>
      </trkpt>
      <trkpt lat="48.12406" lon="13.96249">
        <ele>326.738877</ele>
        <time>2022-09-12T11:43:36.097Z</time>
      </trkpt>
      <trkpt lat="48.12363" lon="13.96243">
        <ele>326.758695</ele>
        <time>2022-09-12T11:43:48.006Z</time>
      </trkpt>
      <trkpt lat="48.12343" lon="13.9623">
        <ele>326.768863</ele>
        <time>2022-09-12T11:43:53.846Z</time>
      </trkpt>
      <trkpt lat="48.12323" lon="13.96213">
        <ele>326.779491</ele>
        <time>2022-09-12T11:43:59.934Z</time>
      </trkpt>
      <trkpt lat="48.12283" lon="13.96194">
        <ele>326.789275</ele>
        <time>2022-09-12T11:44:11.094Z</time>
      </trkpt>
      <trkpt lat="48.1227" lon="13.9618">
        <ele>326.786499</ele>
        <time>2022-09-12T11:44:15.562Z</time>
      </trkpt>
      <trkpt lat="48.12253" lon="13.9616">
        <ele>326.783016</ele>
        <time>2022-09-12T11:44:21.238Z</time>
      </trkpt>
      <trkpt lat="48.12213" lon="13.96099">
        <ele>326.773456</ele>
        <time>2022-09-12T11:44:37.201Z</time>
      </trkpt>
      <trkpt lat="48.12194" lon="13.96075">
        <ele>326.769295</ele>
        <time>2022-09-12T11:44:44.266Z</time>
      </trkpt>
      <trkpt lat="48.12142" lon="13.96028">
        <ele>326.866731</ele>
        <time>2022-09-12T11:45:01.301Z</time>
      </trkpt>
      <trkpt lat="48.12077" lon="13.95977">
        <ele>327.351296</ele>
        <time>2022-09-12T11:45:23.017Z</time>
      </trkpt>
      <trkpt lat="48.12071" lon="13.95971">
        <ele>327.395063</ele>
        <time>2022-09-12T11:45:25.032Z</time>
      </trkpt>
      <trkpt lat="48.11971" lon="13.95888">
        <ele>328.4036</ele>
        <time>2022-09-12T11:46:02.356Z</time>
      </trkpt>
      <trkpt lat="48.11877" lon="13.95825">
        <ele>329.918665</ele>
        <time>2022-09-12T11:46:39.720Z</time>
      </trkpt>
      <trkpt lat="48.11826" lon="13.95773">
        <ele>330.605426</ele>
        <time>2022-09-12T11:47:01.432Z</time>
      </trkpt>
      <trkpt lat="48.11818" lon="13.95765">
        <ele>330.606831</ele>
        <time>2022-09-12T11:47:04.654Z</time>
      </trkpt>
      <trkpt lat="48.11793" lon="13.95739">
        <ele>330.611321</ele>
        <time>2022-09-12T11:47:14.530Z</time>
      </trkpt>
      <trkpt lat="48.11771" lon="13.95706">
        <ele>330.615976</ele>
        <time>2022-09-12T11:47:23.954Z</time>
      </trkpt>
      <trkpt lat="48.11657" lon="13.956">
        <ele>330.283777</ele>
        <time>2022-09-12T11:47:56.781Z</time>
      </trkpt>
      <trkpt lat="48.11624" lon="13.95549">
        <ele>329.885239</ele>
        <time>2022-09-12T11:48:07.768Z</time>
      </trkpt>
      <trkpt lat="48.11596" lon="13.95512">
        <ele>329.576654</ele>
        <time>2022-09-12T11:48:16.706Z</time>
      </trkpt>
      <trkpt lat="48.11506" lon="13.95431">
        <ele>329.336617</ele>
        <time>2022-09-12T11:48:44.560Z</time>
      </trkpt>
      <trkpt lat="48.11412" lon="13.95326">
        <ele>329.833953</ele>
        <time>2022-09-12T11:49:21.910Z</time>
      </trkpt>
      <trkpt lat="48.11289" lon="13.95181">
        <ele>330.628959</ele>
        <time>2022-09-12T11:50:08.945Z</time>
      </trkpt>
      <trkpt lat="48.11268" lon="13.95137">
        <ele>330.809287</ele>
        <time>2022-09-12T11:50:20.147Z</time>
      </trkpt>
      <trkpt lat="48.11249" lon="13.95124">
        <ele>330.812002</ele>
        <time>2022-09-12T11:50:26.393Z</time>
      </trkpt>
      <trkpt lat="48.11236" lon="13.95106">
        <ele>330.814344</ele>
        <time>2022-09-12T11:50:31.649Z</time>
      </trkpt>
      <trkpt lat="48.11229" lon="13.95074">
        <ele>330.817362</ele>
        <time>2022-09-12T11:50:38.549Z</time>
      </trkpt>
      <trkpt lat="48.11236" lon="13.94965">
        <ele>330.82716</ele>
        <time>2022-09-12T11:50:58.626Z</time>
      </trkpt>
      <trkpt lat="48.11233" lon="13.94927">
        <ele>330.83058</ele>
        <time>2022-09-12T11:51:05.482Z</time>
      </trkpt>
      <trkpt lat="48.11213" lon="13.94857">
        <ele>330.491012</ele>
        <time>2022-09-12T11:51:18.588Z</time>
      </trkpt>
      <trkpt lat="48.11198" lon="13.94823">
        <ele>330.19914</ele>
        <time>2022-09-12T11:51:24.899Z</time>
      </trkpt>
      <trkpt lat="48.11134" lon="13.94722">
        <ele>329.191385</ele>
        <time>2022-09-12T11:51:46.823Z</time>
      </trkpt>
      <trkpt lat="48.11127" lon="13.94704">
        <ele>329.039711</ele>
        <time>2022-09-12T11:51:49.861Z</time>
      </trkpt>
      <trkpt lat="48.1112" lon="13.94673">
        <ele>328.856054</ele>
        <time>2022-09-12T11:51:55.153Z</time>
      </trkpt>
      <trkpt lat="48.11101" lon="13.94613">
        <ele>328.662527</ele>
        <time>2022-09-12T11:52:05.866Z</time>
      </trkpt>
      <trkpt lat="48.11072" lon="13.94558">
        <ele>328.458291</ele>
        <time>2022-09-12T11:52:17.767Z</time>
      </trkpt>
      <trkpt lat="48.11002" lon="13.94447">
        <ele>328.251007</ele>
        <time>2022-09-12T11:52:46.289Z</time>
      </trkpt>
      <trkpt lat="48.10912" lon="13.94337">
        <ele>329.078207</ele>
        <time>2022-09-12T11:53:22.613Z</time>
      </trkpt>
      <trkpt lat="48.10897" lon="13.94301">
        <ele>329.276667</ele>
        <time>2022-09-12T11:53:31.943Z</time>
      </trkpt>
      <trkpt lat="48.10892" lon="13.94222">
        <ele>329.652353</ele>
        <time>2022-09-12T11:53:49.667Z</time>
      </trkpt>
      <trkpt lat="48.10901" lon="13.94163">
        <ele>329.934476</ele>
        <time>2022-09-12T11:54:02.701Z</time>
      </trkpt>
      <trkpt lat="48.10896" lon="13.94123">
        <ele>330.121734</ele>
        <time>2022-09-12T11:54:11.318Z</time>
      </trkpt>
      <trkpt lat="48.10874" lon="13.94037">
        <ele>330.556052</ele>
        <time>2022-09-12T11:54:30.042Z</time>
      </trkpt>
      <trkpt lat="48.10867" lon="13.9404">
        <ele>330.605088</ele>
        <time>2022-09-12T11:54:32.110Z</time>
      </trkpt>
      <trkpt lat="48.10844" lon="13.9404">
        <ele>330.653399</ele>
        <time>2022-09-12T11:54:38.612Z</time>
      </trkpt>
      <trkpt lat="48.10786" lon="13.94021">
        <ele>330.700497</ele>
        <time>2022-09-12T11:54:54.988Z</time>
      </trkpt>
      <trkpt lat="48.1075" lon="13.93974">
        <ele>330.738434</ele>
        <time>2022-09-12T11:55:07.947Z</time>
      </trkpt>
      <trkpt lat="48.10726" lon="13.93932">
        <ele>330.767622</ele>
        <time>2022-09-12T11:55:18.077Z</time>
      </trkpt>
      <trkpt lat="48.10723" lon="13.93926">
        <ele>330.772329</ele>
        <time>2022-09-12T11:55:19.810Z</time>
      </trkpt>
      <trkpt lat="48.10693" lon="13.93861">
        <ele>330.941273</ele>
        <time>2022-09-12T11:55:35.195Z</time>
      </trkpt>
      <trkpt lat="48.10655" lon="13.93808">
        <ele>331.146628</ele>
        <time>2022-09-12T11:55:50.646Z</time>
      </trkpt>
      <trkpt lat="48.10596" lon="13.93757">
        <ele>331.415167</ele>
        <time>2022-09-12T11:56:11.229Z</time>
      </trkpt>
      <trkpt lat="48.1058" lon="13.93728">
        <ele>331.499507</ele>
        <time>2022-09-12T11:56:18.910Z</time>
      </trkpt>
      <trkpt lat="48.10574" lon="13.937">
        <ele>331.515188</ele>
        <time>2022-09-12T11:56:24.971Z</time>
      </trkpt>
      <trkpt lat="48.10572" lon="13.93602">
        <ele>331.568016</ele>
        <time>2022-09-12T11:56:43.924Z</time>
      </trkpt>
      <trkpt lat="48.10564" lon="13.93528">
        <ele>331.60878</ele>
        <time>2022-09-12T11:56:57.545Z</time>
      </trkpt>
      <trkpt lat="48.10535" lon="13.93413">
        <ele>331.5123</ele>
        <time>2022-09-12T11:57:19.359Z</time>
      </trkpt>
      <trkpt lat="48.10517" lon="13.9334">
        <ele>331.354017</ele>
        <time>2022-09-12T11:57:33.343Z</time>
      </trkpt>
      <trkpt lat="48.10509" lon="13.9331">
        <ele>331.288306</ele>
        <time>2022-09-12T11:57:39.114Z</time>
      </trkpt>
      <trkpt lat="48.10456" lon="13.9318">
        <ele>331.003371</ele>
        <time>2022-09-12T11:58:05.354Z</time>
      </trkpt>
      <trkpt lat="48.10367" lon="13.92978">
        <ele>330.744855</ele>
        <time>2022-09-12T11:58:48.704Z</time>
      </trkpt>
      <trkpt lat="48.10286" lon="13.92794">
        <ele>331.385906</ele>
        <time>2022-09-12T11:59:33.547Z</time>
      </trkpt>
      <trkpt lat="48.10222" lon="13.92653">
        <ele>332.097123</ele>
        <time>2022-09-12T12:00:09.162Z</time>
      </trkpt>
      <trkpt lat="48.1018" lon="13.9258">
        <ele>332.512717</ele>
        <time>2022-09-12T12:00:28.548Z</time>
      </trkpt>
      <trkpt lat="48.10054" lon="13.92417">
        <ele>333.49674</ele>
        <time>2022-09-12T12:01:19.785Z</time>
      </trkpt>
      <trkpt lat="48.10035" lon="13.92391">
        <ele>333.647514</ele>
        <time>2022-09-12T12:01:27.824Z</time>
      </trkpt>
      <trkpt lat="48.10011" lon="13.92356">
        <ele>333.738793</ele>
        <time>2022-09-12T12:01:38.119Z</time>
      </trkpt>
      <trkpt lat="48.09927" lon="13.9223">
        <ele>334.03299</ele>
        <time>2022-09-12T12:02:12.273Z</time>
      </trkpt>
      <trkpt lat="48.09891" lon="13.92186">
        <ele>334.097555</ele>
        <time>2022-09-12T12:02:24.995Z</time>
      </trkpt>
      <trkpt lat="48.09799" lon="13.92099">
        <ele>334.034649</ele>
        <time>2022-09-12T12:02:54.744Z</time>
      </trkpt>
      <trkpt lat="48.09776" lon="13.92094">
        <ele>334.021301</ele>
        <time>2022-09-12T12:03:01.051Z</time>
      </trkpt>
      <trkpt lat="48.09617" lon="13.92113">
        <ele>334.064356</ele>
        <time>2022-09-12T12:03:45.596Z</time>
      </trkpt>
      <trkpt lat="48.09593" lon="13.92106">
        <ele>334.075699</ele>
        <time>2022-09-12T12:03:52.395Z</time>
      </trkpt>
      <trkpt lat="48.09571" lon="13.92084">
        <ele>334.08844</ele>
        <time>2022-09-12T12:04:00.159Z</time>
      </trkpt>
      <trkpt lat="48.09556" lon="13.92055">
        <ele>334.134754</ele>
        <time>2022-09-12T12:04:07.272Z</time>
      </trkpt>
      <trkpt lat="48.09545" lon="13.92007">
        <ele>334.198543</ele>
        <time>2022-09-12T12:04:17.078Z</time>
      </trkpt>
      <trkpt lat="48.09536" lon="13.91901">
        <ele>334.333586</ele>
        <time>2022-09-12T12:04:37.426Z</time>
      </trkpt>
      <trkpt lat="48.09521" lon="13.91862">
        <ele>334.390147</ele>
        <time>2022-09-12T12:04:45.902Z</time>
      </trkpt>
      <trkpt lat="48.09493" lon="13.91842">
        <ele>334.471823</ele>
        <time>2022-09-12T12:04:54.630Z</time>
      </trkpt>
      <trkpt lat="48.09362" lon="13.91791">
        <ele>335.050272</ele>
        <time>2022-09-12T12:05:34.819Z</time>
      </trkpt>
      <trkpt lat="48.09349" lon="13.91779">
        <ele>335.114636</ele>
        <time>2022-09-12T12:05:39.295Z</time>
      </trkpt>
      <trkpt lat="48.09338" lon="13.91755">
        <ele>335.202399</ele>
        <time>2022-09-12T12:05:45.223Z</time>
      </trkpt>
      <trkpt lat="48.09333" lon="13.91717">
        <ele>335.458489</ele>
        <time>2022-09-12T12:05:53.429Z</time>
      </trkpt>
      <trkpt lat="48.09343" lon="13.91569">
        <ele>336.427232</ele>
        <time>2022-09-12T12:06:26.587Z</time>
      </trkpt>
      <trkpt lat="48.09343" lon="13.91492">
        <ele>336.934121</ele>
        <time>2022-09-12T12:06:44.039Z</time>
      </trkpt>
      <trkpt lat="48.09316" lon="13.91342">
        <ele>337.29151</ele>
        <time>2022-09-12T12:07:15.817Z</time>
      </trkpt>
      <trkpt lat="48.09256" lon="13.91128">
        <ele>337.896896</ele>
        <time>2022-09-12T12:07:57.871Z</time>
      </trkpt>
      <trkpt lat="48.09195" lon="13.90972">
        <ele>338.789901</ele>
        <time>2022-09-12T12:08:35.393Z</time>
      </trkpt>
      <trkpt lat="48.0918" lon="13.90952">
        <ele>339.281118</ele>
        <time>2022-09-12T12:08:42.620Z</time>
      </trkpt>
      <trkpt lat="48.09187" lon="13.90865">
        <ele>340.732914</ele>
        <time>2022-09-12T12:09:05.786Z</time>
      </trkpt>
      <trkpt lat="48.09192" lon="13.90791">
        <ele>341.954048</ele>
        <time>2022-09-12T12:09:26.434Z</time>
      </trkpt>
      <trkpt lat="48.0919" lon="13.9073">
        <ele>342.972153</ele>
        <time>2022-09-12T12:09:44.795Z</time>
      </trkpt>
      <trkpt lat="48.09195" lon="13.90651">
        <ele>344.449201</ele>
        <time>2022-09-12T12:10:09.032Z</time>
      </trkpt>
      <trkpt lat="48.09206" lon="13.90538">
        <ele>346.561903</ele>
        <time>2022-09-12T12:10:40.717Z</time>
      </trkpt>
      <trkpt lat="48.09202" lon="13.90534">
        <ele>346.699172</ele>
        <time>2022-09-12T12:10:43.031Z</time>
      </trkpt>
      <trkpt lat="48.09199" lon="13.90492">
        <ele>347.490811</ele>
        <time>2022-09-12T12:10:53.731Z</time>
      </trkpt>
      <trkpt lat="48.09124" lon="13.90362">
        <ele>348.316066</ele>
        <time>2022-09-12T12:11:31.728Z</time>
      </trkpt>
      <trkpt lat="48.09056" lon="13.90269">
        <ele>348.595623</ele>
        <time>2022-09-12T12:11:55.268Z</time>
      </trkpt>
      <trkpt lat="48.08934" lon="13.90278">
        <ele>347.71066</ele>
        <time>2022-09-12T12:12:25.182Z</time>
      </trkpt>
      <trkpt lat="48.08931" lon="13.90207">
        <ele>347.413832</ele>
        <time>2022-09-12T12:12:37.371Z</time>
      </trkpt>
      <trkpt lat="48.08947" lon="13.90137">
        <ele>347.417056</ele>
        <time>2022-09-12T12:12:50.698Z</time>
      </trkpt>
      <trkpt lat="48.08955" lon="13.90106">
        <ele>347.418536</ele>
        <time>2022-09-12T12:12:56.956Z</time>
      </trkpt>
      <trkpt lat="48.08998" lon="13.89908">
        <ele>347.137238</ele>
        <time>2022-09-12T12:13:37.464Z</time>
      </trkpt>
      <trkpt lat="48.09023" lon="13.89841">
        <ele>346.745864</ele>
        <time>2022-09-12T12:13:50.697Z</time>
      </trkpt>
      <trkpt lat="48.0908" lon="13.89641">
        <ele>345.657174</ele>
        <time>2022-09-12T12:14:24.422Z</time>
      </trkpt>
      <trkpt lat="48.09083" lon="13.89629">
        <ele>345.596395</ele>
        <time>2022-09-12T12:14:26.328Z</time>
      </trkpt>
      <trkpt lat="48.09086" lon="13.89599">
        <ele>345.451915</ele>
        <time>2022-09-12T12:14:31.367Z</time>
      </trkpt>
      <trkpt lat="48.09081" lon="13.89574">
        <ele>345.325318</ele>
        <time>2022-09-12T12:14:35.545Z</time>
      </trkpt>
      <trkpt lat="48.09084" lon="13.89559">
        <ele>345.249394</ele>
        <time>2022-09-12T12:14:38.523Z</time>
      </trkpt>
      <trkpt lat="48.09109" lon="13.89554">
        <ele>345.074344</ele>
        <time>2022-09-12T12:14:44.871Z</time>
      </trkpt>
      <trkpt lat="48.09129" lon="13.89533">
        <ele>344.89325</ele>
        <time>2022-09-12T12:14:52.354Z</time>
      </trkpt>
      <trkpt lat="48.09236" lon="13.89437">
        <ele>344.463668</ele>
        <time>2022-09-12T12:15:27.603Z</time>
      </trkpt>
      <trkpt lat="48.09273" lon="13.8943">
        <ele>344.36122</ele>
        <time>2022-09-12T12:15:37.090Z</time>
      </trkpt>
      <trkpt lat="48.09301" lon="13.89406">
        <ele>344.270296</ele>
        <time>2022-09-12T12:15:45.377Z</time>
      </trkpt>
      <trkpt lat="48.093" lon="13.89396">
        <ele>344.230525</ele>
        <time>2022-09-12T12:15:46.913Z</time>
      </trkpt>
      <trkpt lat="48.09297" lon="13.89352">
        <ele>343.791455</ele>
        <time>2022-09-12T12:15:54.061Z</time>
      </trkpt>
      <trkpt lat="48.09295" lon="13.89285">
        <ele>343.112542</ele>
        <time>2022-09-12T12:16:04.239Z</time>
      </trkpt>
      <trkpt lat="48.09304" lon="13.89249">
        <ele>342.722861</ele>
        <time>2022-09-12T12:16:10.173Z</time>
      </trkpt>
      <trkpt lat="48.09303" lon="13.89222">
        <ele>342.45006</ele>
        <time>2022-09-12T12:16:14.052Z</time>
      </trkpt>
      <trkpt lat="48.09271" lon="13.89094">
        <ele>341.357606</ele>
        <time>2022-09-12T12:16:34.354Z</time>
      </trkpt>
      <trkpt lat="48.09231" lon="13.88977">
        <ele>340.837647</ele>
        <time>2022-09-12T12:16:57.961Z</time>
      </trkpt>
      <trkpt lat="48.09203" lon="13.88914">
        <ele>340.539488</ele>
        <time>2022-09-12T12:17:11.540Z</time>
      </trkpt>
      <trkpt lat="48.09154" lon="13.88826">
        <ele>340.726156</ele>
        <time>2022-09-12T12:17:32.101Z</time>
      </trkpt>
      <trkpt lat="48.09056" lon="13.88724">
        <ele>341.269563</ele>
        <time>2022-09-12T12:18:08.410Z</time>
      </trkpt>
      <trkpt lat="48.09044" lon="13.88704">
        <ele>341.683584</ele>
        <time>2022-09-12T12:18:14.417Z</time>
      </trkpt>
      <trkpt lat="48.09041" lon="13.88675">
        <ele>342.132472</ele>
        <time>2022-09-12T12:18:21.335Z</time>
      </trkpt>
      <trkpt lat="48.09058" lon="13.88532">
        <ele>344.34401</ele>
        <time>2022-09-12T12:18:57.943Z</time>
      </trkpt>
      <trkpt lat="48.09047" lon="13.88529">
        <ele>344.612674</ele>
        <time>2022-09-12T12:19:02.398Z</time>
      </trkpt>
      <trkpt lat="48.09031" lon="13.88526">
        <ele>344.972172</ele>
        <time>2022-09-12T12:19:09.106Z</time>
      </trkpt>
      <trkpt lat="48.09018" lon="13.88519">
        <ele>345.317859</ele>
        <time>2022-09-12T12:19:16.446Z</time>
      </trkpt>
      <trkpt lat="48.08962" lon="13.88438">
        <ele>348.974741</ele>
        <time>2022-09-12T12:19:55.369Z</time>
      </trkpt>
      <trkpt lat="48.08945" lon="13.88422">
        <ele>349.924444</ele>
        <time>2022-09-12T12:20:06.143Z</time>
      </trkpt>
      <trkpt lat="48.08926" lon="13.88388">
        <ele>351.297049</ele>
        <time>2022-09-12T12:20:21.241Z</time>
      </trkpt>
      <trkpt lat="48.0892" lon="13.88352">
        <ele>352.477121</ele>
        <time>2022-09-12T12:20:35.204Z</time>
      </trkpt>
      <trkpt lat="48.08924" lon="13.88305">
        <ele>353.871324</ele>
        <time>2022-09-12T12:20:51.352Z</time>
      </trkpt>
      <trkpt lat="48.08963" lon="13.88249">
        <ele>355.45005</ele>
        <time>2022-09-12T12:21:18.301Z</time>
      </trkpt>
      <trkpt lat="48.08977" lon="13.88221">
        <ele>356.136356</ele>
        <time>2022-09-12T12:21:29.328Z</time>
      </trkpt>
      <trkpt lat="48.0898" lon="13.88152">
        <ele>357.484875</ele>
        <time>2022-09-12T12:21:49.824Z</time>
      </trkpt>
      <trkpt lat="48.08977" lon="13.88094">
        <ele>358.60693</ele>
        <time>2022-09-12T12:22:02.232Z</time>
      </trkpt>
      <trkpt lat="48.08981" lon="13.88056">
        <ele>358.688631</ele>
        <time>2022-09-12T12:22:10.218Z</time>
      </trkpt>
      <trkpt lat="48.09032" lon="13.8793">
        <ele>356.512715</ele>
        <time>2022-09-12T12:22:32.333Z</time>
      </trkpt>
      <trkpt lat="48.09027" lon="13.8791">
        <ele>356.201579</ele>
        <time>2022-09-12T12:22:35.037Z</time>
      </trkpt>
      <trkpt lat="48.09022" lon="13.87908">
        <ele>356.087449</ele>
        <time>2022-09-12T12:22:36.741Z</time>
      </trkpt>
      <trkpt lat="48.0902" lon="13.87896">
        <ele>355.905016</ele>
        <time>2022-09-12T12:22:39.922Z</time>
      </trkpt>
      <trkpt lat="48.09025" lon="13.87794">
        <ele>354.136355</ele>
        <time>2022-09-12T12:23:03.037Z</time>
      </trkpt>
      <trkpt lat="48.09022" lon="13.87785">
        <ele>353.915656</ele>
        <time>2022-09-12T12:23:05.691Z</time>
      </trkpt>
      <trkpt lat="48.09008" lon="13.87774">
        <ele>353.417761</ele>
        <time>2022-09-12T12:23:10.836Z</time>
      </trkpt>
      <trkpt lat="48.09009" lon="13.87764">
        <ele>353.198855</ele>
        <time>2022-09-12T12:23:12.147Z</time>
      </trkpt>
      <trkpt lat="48.0901" lon="13.87756">
        <ele>353.036359</ele>
        <time>2022-09-12T12:23:13.168Z</time>
      </trkpt>
      <trkpt lat="48.09011" lon="13.87733">
        <ele>352.536121</ele>
        <time>2022-09-12T12:23:16.438Z</time>
      </trkpt>
      <trkpt lat="48.09012" lon="13.87714">
        <ele>352.13012</ele>
        <time>2022-09-12T12:23:18.836Z</time>
      </trkpt>
      <trkpt lat="48.09009" lon="13.87655">
        <ele>350.881145</ele>
        <time>2022-09-12T12:23:26.882Z</time>
      </trkpt>
      <trkpt lat="48.09011" lon="13.87607">
        <ele>349.849656</ele>
        <time>2022-09-12T12:23:33.743Z</time>
      </trkpt>
      <trkpt lat="48.09002" lon="13.87603">
        <ele>349.573782</ele>
        <time>2022-09-12T12:23:35.590Z</time>
      </trkpt>
      <trkpt lat="48.09" lon="13.87595">
        <ele>349.378917</ele>
        <time>2022-09-12T12:23:37.009Z</time>
      </trkpt>
      <trkpt lat="48.08999" lon="13.87518">
        <ele>349.336889</ele>
        <time>2022-09-12T12:23:48.196Z</time>
      </trkpt>
      <trkpt lat="48.0901" lon="13.87507">
        <ele>349.354718</ele>
        <time>2022-09-12T12:23:51.438Z</time>
      </trkpt>
      <trkpt lat="48.09" lon="13.87424">
        <ele>349.430271</ele>
        <time>2022-09-12T12:24:09.044Z</time>
      </trkpt>
      <trkpt lat="48.08971" lon="13.87295">
        <ele>349.908682</ele>
        <time>2022-09-12T12:24:40.710Z</time>
      </trkpt>
      <trkpt lat="48.08916" lon="13.87121">
        <ele>351.707615</ele>
        <time>2022-09-12T12:25:25.401Z</time>
      </trkpt>
      <trkpt lat="48.08865" lon="13.86987">
        <ele>352.53432</ele>
        <time>2022-09-12T12:25:59.903Z</time>
      </trkpt>
      <trkpt lat="48.08834" lon="13.86913">
        <ele>352.904905</ele>
        <time>2022-09-12T12:26:18.004Z</time>
      </trkpt>
      <trkpt lat="48.08789" lon="13.86804">
        <ele>353.020199</ele>
        <time>2022-09-12T12:26:40.319Z</time>
      </trkpt>
      <trkpt lat="48.08765" lon="13.86751">
        <ele>352.877247</ele>
        <time>2022-09-12T12:26:51.448Z</time>
      </trkpt>
      <trkpt lat="48.08751" lon="13.867">
        <ele>352.755841</ele>
        <time>2022-09-12T12:27:00.382Z</time>
      </trkpt>
      <trkpt lat="48.08748" lon="13.86587">
        <ele>352.882353</ele>
        <time>2022-09-12T12:27:21.130Z</time>
      </trkpt>
      <trkpt lat="48.08746" lon="13.86587">
        <ele>352.908948</ele>
        <time>2022-09-12T12:27:21.788Z</time>
      </trkpt>
      <trkpt lat="48.0872" lon="13.86584">
        <ele>353.321507</ele>
        <time>2022-09-12T12:27:29.941Z</time>
      </trkpt>
      <trkpt lat="48.08697" lon="13.86556">
        <ele>353.774167</ele>
        <time>2022-09-12T12:27:40.990Z</time>
      </trkpt>
      <trkpt lat="48.0869" lon="13.86554">
        <ele>353.890267</ele>
        <time>2022-09-12T12:27:44.415Z</time>
      </trkpt>
      <trkpt lat="48.08631" lon="13.8654">
        <ele>354.832367</ele>
        <time>2022-09-12T12:28:07.943Z</time>
      </trkpt>
      <trkpt lat="48.08621" lon="13.86538">
        <ele>354.978119</ele>
        <time>2022-09-12T12:28:12.066Z</time>
      </trkpt>
      <trkpt lat="48.08579" lon="13.86473">
        <ele>355.816351</ele>
        <time>2022-09-12T12:28:41.307Z</time>
      </trkpt>
      <trkpt lat="48.08554" lon="13.86482">
        <ele>356.133136</ele>
        <time>2022-09-12T12:28:51.344Z</time>
      </trkpt>
      <trkpt lat="48.08541" lon="13.86487">
        <ele>356.294826</ele>
        <time>2022-09-12T12:28:56.196Z</time>
      </trkpt>
      <trkpt lat="48.08536" lon="13.86463">
        <ele>356.500776</ele>
        <time>2022-09-12T12:29:02.450Z</time>
      </trkpt>
      <trkpt lat="48.08531" lon="13.86437">
        <ele>356.724777</ele>
        <time>2022-09-12T12:29:08.508Z</time>
      </trkpt>
      <trkpt lat="48.08511" lon="13.86313">
        <ele>357.400275</ele>
        <time>2022-09-12T12:29:33.066Z</time>
      </trkpt>
      <trkpt lat="48.08504" lon="13.86089">
        <ele>355.143877</ele>
        <time>2022-09-12T12:30:06.313Z</time>
      </trkpt>
      <trkpt lat="48.08502" lon="13.86029">
        <ele>354.621254</ele>
        <time>2022-09-12T12:30:15.515Z</time>
      </trkpt>
      <trkpt lat="48.08483" lon="13.85943">
        <ele>353.929591</ele>
        <time>2022-09-12T12:30:29.583Z</time>
      </trkpt>
      <trkpt lat="48.08359" lon="13.85992">
        <ele>352.644011</ele>
        <time>2022-09-12T12:31:00.952Z</time>
      </trkpt>
      <trkpt lat="48.08329" lon="13.86034">
        <ele>352.400641</ele>
        <time>2022-09-12T12:31:11.860Z</time>
      </trkpt>
      <trkpt lat="48.083" lon="13.86055">
        <ele>352.208954</ele>
        <time>2022-09-12T12:31:20.448Z</time>
      </trkpt>
      <trkpt lat="48.08288" lon="13.86071">
        <ele>352.114466</ele>
        <time>2022-09-12T12:31:24.455Z</time>
      </trkpt>
      <trkpt lat="48.08259" lon="13.8605">
        <ele>351.922778</ele>
        <time>2022-09-12T12:31:32.235Z</time>
      </trkpt>
      <trkpt lat="48.08229" lon="13.86027">
        <ele>351.752832</ele>
        <time>2022-09-12T12:31:40.434Z</time>
      </trkpt>
      <trkpt lat="48.08208" lon="13.86002">
        <ele>351.687792</ele>
        <time>2022-09-12T12:31:47.083Z</time>
      </trkpt>
      <trkpt lat="48.082" lon="13.85955">
        <ele>351.611023</ele>
        <time>2022-09-12T12:31:55.048Z</time>
      </trkpt>
      <trkpt lat="48.08192" lon="13.85893">
        <ele>351.509338</ele>
        <time>2022-09-12T12:32:06.027Z</time>
      </trkpt>
      <trkpt lat="48.08202" lon="13.85885">
        <ele>351.482046</ele>
        <time>2022-09-12T12:32:09.117Z</time>
      </trkpt>
      <trkpt lat="48.08257" lon="13.85847">
        <ele>351.331449</ele>
        <time>2022-09-12T12:32:25.686Z</time>
      </trkpt>
      <trkpt lat="48.0826" lon="13.85846">
        <ele>351.318964</ele>
        <time>2022-09-12T12:32:26.416Z</time>
      </trkpt>
      <trkpt lat="48.08245" lon="13.85773">
        <ele>351.095793</ele>
        <time>2022-09-12T12:32:43.732Z</time>
      </trkpt>
      <trkpt lat="48.08231" lon="13.85747">
        <ele>350.996839</ele>
        <time>2022-09-12T12:32:51.328Z</time>
      </trkpt>
      <trkpt lat="48.08219" lon="13.85711">
        <ele>350.880271</ele>
        <time>2022-09-12T12:33:00.028Z</time>
      </trkpt>
      <trkpt lat="48.08202" lon="13.85691">
        <ele>350.781755</ele>
        <time>2022-09-12T12:33:07.234Z</time>
      </trkpt>
      <trkpt lat="48.08185" lon="13.85599">
        <ele>350.457281</ele>
        <time>2022-09-12T12:33:28.012Z</time>
      </trkpt>
      <trkpt lat="48.08175" lon="13.85593">
        <ele>350.370267</ele>
        <time>2022-09-12T12:33:30.331Z</time>
      </trkpt>
      <trkpt lat="48.08133" lon="13.85531">
        <ele>349.860122</ele>
        <time>2022-09-12T12:33:44.742Z</time>
      </trkpt>
      <trkpt lat="48.08058" lon="13.85423">
        <ele>348.999363</ele>
        <time>2022-09-12T12:34:09.855Z</time>
      </trkpt>
      <trkpt lat="48.08022" lon="13.85356">
        <ele>349.090362</ele>
        <time>2022-09-12T12:34:25.648Z</time>
      </trkpt>
      <trkpt lat="48.07991" lon="13.8529">
        <ele>349.17588</ele>
        <time>2022-09-12T12:34:41.607Z</time>
      </trkpt>
      <trkpt lat="48.07904" lon="13.85197">
        <ele>349.5429</ele>
        <time>2022-09-12T12:35:14.237Z</time>
      </trkpt>
      <trkpt lat="48.07888" lon="13.8517">
        <ele>349.692162</ele>
        <time>2022-09-12T12:35:21.776Z</time>
      </trkpt>
      <trkpt lat="48.07822" lon="13.85055">
        <ele>350.32016</ele>
        <time>2022-09-12T12:35:53.338Z</time>
      </trkpt>
      <trkpt lat="48.07767" lon="13.84967">
        <ele>350.780923</ele>
        <time>2022-09-12T12:36:30.741Z</time>
      </trkpt>
      <trkpt lat="48.07671" lon="13.84878">
        <ele>351.425767</ele>
        <time>2022-09-12T12:37:05.131Z</time>
      </trkpt>
      <trkpt lat="48.07627" lon="13.84823">
        <ele>352.184512</ele>
        <time>2022-09-12T12:37:23.361Z</time>
      </trkpt>
      <trkpt lat="48.07637" lon="13.848">
        <ele>352.429562</ele>
        <time>2022-09-12T12:37:29.125Z</time>
      </trkpt>
      <trkpt lat="48.07657" lon="13.84769">
        <ele>352.810101</ele>
        <time>2022-09-12T12:37:38.950Z</time>
      </trkpt>
      <trkpt lat="48.07612" lon="13.84712">
        <ele>353.585285</ele>
        <time>2022-09-12T12:38:00.177Z</time>
      </trkpt>
      <trkpt lat="48.07566" lon="13.84649">
        <ele>354.773313</ele>
        <time>2022-09-12T12:38:23.450Z</time>
      </trkpt>
      <trkpt lat="48.07498" lon="13.84541">
        <ele>356.852195</ele>
        <time>2022-09-12T12:38:59.619Z</time>
      </trkpt>
      <trkpt lat="48.07476" lon="13.84491">
        <ele>357.714509</ele>
        <time>2022-09-12T12:39:13.879Z</time>
      </trkpt>
      <trkpt lat="48.07466" lon="13.84468">
        <ele>358.185868</ele>
        <time>2022-09-12T12:39:20.601Z</time>
      </trkpt>
      <trkpt lat="48.07387" lon="13.84261">
        <ele>362.313195</ele>
        <time>2022-09-12T12:40:22.758Z</time>
      </trkpt>
      <trkpt lat="48.07383" lon="13.8425">
        <ele>362.621322</ele>
        <time>2022-09-12T12:40:26.230Z</time>
      </trkpt>
      <trkpt lat="48.07373" lon="13.84228">
        <ele>363.271624</ele>
        <time>2022-09-12T12:40:33.666Z</time>
      </trkpt>
      <trkpt lat="48.07358" lon="13.84195">
        <ele>364.270645</ele>
        <time>2022-09-12T12:40:45.414Z</time>
      </trkpt>
      <trkpt lat="48.07354" lon="13.84188">
        <ele>364.506113</ele>
        <time>2022-09-12T12:40:48.307Z</time>
      </trkpt>
      <trkpt lat="48.07285" lon="13.84053">
        <ele>368.699013</ele>
        <time>2022-09-12T12:41:40.019Z</time>
      </trkpt>
      <trkpt lat="48.07252" lon="13.83968">
        <ele>371.779051</ele>
        <time>2022-09-12T12:42:11.893Z</time>
      </trkpt>
      <trkpt lat="48.07234" lon="13.83888">
        <ele>374.399934</ele>
        <time>2022-09-12T12:42:38.600Z</time>
      </trkpt>
      <trkpt lat="48.07149" lon="13.83441">
        <ele>388.933753</ele>
        <time>2022-09-12T12:45:21.100Z</time>
      </trkpt>
      <trkpt lat="48.07126" lon="13.83317">
        <ele>391.643682</ele>
        <time>2022-09-12T12:45:55.587Z</time>
      </trkpt>
      <trkpt lat="48.07104" lon="13.83232">
        <ele>390.951655</ele>
        <time>2022-09-12T12:46:11.373Z</time>
      </trkpt>
      <trkpt lat="48.0709" lon="13.83198">
        <ele>389.980481</ele>
        <time>2022-09-12T12:46:17.061Z</time>
      </trkpt>
      <trkpt lat="48.07102" lon="13.83167">
        <ele>389.092943</ele>
        <time>2022-09-12T12:46:21.917Z</time>
      </trkpt>
      <trkpt lat="48.07142" lon="13.83">
        <ele>384.201881</ele>
        <time>2022-09-12T12:46:43.718Z</time>
      </trkpt>
      <trkpt lat="48.07184" lon="13.82926">
        <ele>380.548273</ele>
        <time>2022-09-12T12:46:55.498Z</time>
      </trkpt>
      <trkpt lat="48.07187" lon="13.82896">
        <ele>379.41211</ele>
        <time>2022-09-12T12:46:59.220Z</time>
      </trkpt>
      <trkpt lat="48.07184" lon="13.82862">
        <ele>378.120014</ele>
        <time>2022-09-12T12:47:03.619Z</time>
      </trkpt>
      <trkpt lat="48.07192" lon="13.82817">
        <ele>376.364286</ele>
        <time>2022-09-12T12:47:09.608Z</time>
      </trkpt>
      <trkpt lat="48.07192" lon="13.82794">
        <ele>375.640669</ele>
        <time>2022-09-12T12:47:12.595Z</time>
      </trkpt>
      <trkpt lat="48.07183" lon="13.8275">
        <ele>375.265875</ele>
        <time>2022-09-12T12:47:18.756Z</time>
      </trkpt>
      <trkpt lat="48.07161" lon="13.82734">
        <ele>374.963793</ele>
        <time>2022-09-12T12:47:23.984Z</time>
      </trkpt>
      <trkpt lat="48.07137" lon="13.82684">
        <ele>374.456454</ele>
        <time>2022-09-12T12:47:34.537Z</time>
      </trkpt>
      <trkpt lat="48.07098" lon="13.82628">
        <ele>373.787141</ele>
        <time>2022-09-12T12:47:50.236Z</time>
      </trkpt>
      <trkpt lat="48.0707" lon="13.82566">
        <ele>373.488048</ele>
        <time>2022-09-12T12:48:04.150Z</time>
      </trkpt>
      <trkpt lat="48.07059" lon="13.82552">
        <ele>373.511146</ele>
        <time>2022-09-12T12:48:08.470Z</time>
      </trkpt>
      <trkpt lat="48.07018" lon="13.82529">
        <ele>373.583872</ele>
        <time>2022-09-12T12:48:21.748Z</time>
      </trkpt>
      <trkpt lat="48.07003" lon="13.82513">
        <ele>373.615089</ele>
        <time>2022-09-12T12:48:27.209Z</time>
      </trkpt>
      <trkpt lat="48.06964" lon="13.82456">
        <ele>373.704563</ele>
        <time>2022-09-12T12:48:42.667Z</time>
      </trkpt>
      <trkpt lat="48.06925" lon="13.82421">
        <ele>373.693675</ele>
        <time>2022-09-12T12:48:55.299Z</time>
      </trkpt>
      <trkpt lat="48.06854" lon="13.82251">
        <ele>373.330105</ele>
        <time>2022-09-12T12:49:30.175Z</time>
      </trkpt>
      <trkpt lat="48.06841" lon="13.82117">
        <ele>373.118415</ele>
        <time>2022-09-12T12:49:54.400Z</time>
      </trkpt>
      <trkpt lat="48.06787" lon="13.81934">
        <ele>372.808309</ele>
        <time>2022-09-12T12:50:30.492Z</time>
      </trkpt>
      <trkpt lat="48.06763" lon="13.81887">
        <ele>372.689795</ele>
        <time>2022-09-12T12:50:41.009Z</time>
      </trkpt>
      <trkpt lat="48.06662" lon="13.81781">
        <ele>372.311339</ele>
        <time>2022-09-12T12:51:13.976Z</time>
      </trkpt>
      <trkpt lat="48.06602" lon="13.81693">
        <ele>371.81953</ele>
        <time>2022-09-12T12:51:35.041Z</time>
      </trkpt>
      <trkpt lat="48.06593" lon="13.81666">
        <ele>371.702103</ele>
        <time>2022-09-12T12:51:39.980Z</time>
      </trkpt>
      <trkpt lat="48.06589" lon="13.81603">
        <ele>371.455567</ele>
        <time>2022-09-12T12:51:50.578Z</time>
      </trkpt>
      <trkpt lat="48.0658" lon="13.81573">
        <ele>371.328249</ele>
        <time>2022-09-12T12:51:56.165Z</time>
      </trkpt>
      <trkpt lat="48.06537" lon="13.81471">
        <ele>371.156336</ele>
        <time>2022-09-12T12:52:17.082Z</time>
      </trkpt>
      <trkpt lat="48.06505" lon="13.81418">
        <ele>371.08174</ele>
        <time>2022-09-12T12:52:30.013Z</time>
      </trkpt>
      <trkpt lat="48.06423" lon="13.81314">
        <ele>371.01939</ele>
        <time>2022-09-12T12:53:01.135Z</time>
      </trkpt>
      <trkpt lat="48.06419" lon="13.8127">
        <ele>371.041973</ele>
        <time>2022-09-12T12:53:10.064Z</time>
      </trkpt>
      <trkpt lat="48.06406" lon="13.8123">
        <ele>371.064559</ele>
        <time>2022-09-12T12:53:18.547Z</time>
      </trkpt>
      <trkpt lat="48.06425" lon="13.8116">
        <ele>371.102641</ele>
        <time>2022-09-12T12:53:32.389Z</time>
      </trkpt>
      <trkpt lat="48.06397" lon="13.81137">
        <ele>371.098094</ele>
        <time>2022-09-12T12:53:40.997Z</time>
      </trkpt>
      <trkpt lat="48.06332" lon="13.81089">
        <ele>370.86497</ele>
        <time>2022-09-12T12:54:00.107Z</time>
      </trkpt>
      <trkpt lat="48.06231" lon="13.81047">
        <ele>370.543193</ele>
        <time>2022-09-12T12:54:27.434Z</time>
      </trkpt>
      <trkpt lat="48.06203" lon="13.8102">
        <ele>370.551922</ele>
        <time>2022-09-12T12:54:36.251Z</time>
      </trkpt>
      <trkpt lat="48.06165" lon="13.80966">
        <ele>370.565582</ele>
        <time>2022-09-12T12:54:50.477Z</time>
      </trkpt>
      <trkpt lat="48.0608" lon="13.80928">
        <ele>370.58882</ele>
        <time>2022-09-12T12:55:15.915Z</time>
      </trkpt>
      <trkpt lat="48.0606" lon="13.80931">
        <ele>370.777944</ele>
        <time>2022-09-12T12:55:21.960Z</time>
      </trkpt>
      <trkpt lat="48.06018" lon="13.80968">
        <ele>371.265713</ele>
        <time>2022-09-12T12:55:37.275Z</time>
      </trkpt>
      <trkpt lat="48.05994" lon="13.80978">
        <ele>371.518362</ele>
        <time>2022-09-12T12:55:45.459Z</time>
      </trkpt>
      <trkpt lat="48.05792" lon="13.80918">
        <ele>374.037802</ele>
        <time>2022-09-12T12:56:56.045Z</time>
      </trkpt>
      <trkpt lat="48.05784" lon="13.80916">
        <ele>374.149625</ele>
        <time>2022-09-12T12:56:58.920Z</time>
      </trkpt>
      <trkpt lat="48.0576" lon="13.8091">
        <ele>374.491978</ele>
        <time>2022-09-12T12:57:07.636Z</time>
      </trkpt>
      <trkpt lat="48.05684" lon="13.80893">
        <ele>375.436968</ele>
        <time>2022-09-12T12:57:34.253Z</time>
      </trkpt>
      <trkpt lat="48.05676" lon="13.80887">
        <ele>375.543856</ele>
        <time>2022-09-12T12:57:37.399Z</time>
      </trkpt>
      <trkpt lat="48.05654" lon="13.8088">
        <ele>375.792706</ele>
        <time>2022-09-12T12:57:44.671Z</time>
      </trkpt>
      <trkpt lat="48.05625" lon="13.80876">
        <ele>376.126587</ele>
        <time>2022-09-12T12:57:54.296Z</time>
      </trkpt>
      <trkpt lat="48.05597" lon="13.80857">
        <ele>376.469697</ele>
        <time>2022-09-12T12:58:04.146Z</time>
      </trkpt>
      <trkpt lat="48.05575" lon="13.8085">
        <ele>376.724628</ele>
        <time>2022-09-12T12:58:11.431Z</time>
      </trkpt>
      <trkpt lat="48.05528" lon="13.80816">
        <ele>377.02068</ele>
        <time>2022-09-12T12:58:28.316Z</time>
      </trkpt>
      <trkpt lat="48.05494" lon="13.80778">
        <ele>377.131696</ele>
        <time>2022-09-12T12:58:41.397Z</time>
      </trkpt>
      <trkpt lat="48.05444" lon="13.80738">
        <ele>377.278612</ele>
        <time>2022-09-12T12:58:57.145Z</time>
      </trkpt>
      <trkpt lat="48.05471" lon="13.80694">
        <ele>377.381503</ele>
        <time>2022-09-12T12:59:07.490Z</time>
      </trkpt>
      <trkpt lat="48.05461" lon="13.80646">
        <ele>377.230232</ele>
        <time>2022-09-12T12:59:16.120Z</time>
      </trkpt>
      <trkpt lat="48.05442" lon="13.80564">
        <ele>376.865045</ele>
        <time>2022-09-12T12:59:30.365Z</time>
      </trkpt>
      <trkpt lat="48.05424" lon="13.8049">
        <ele>376.539659</ele>
        <time>2022-09-12T12:59:42.728Z</time>
      </trkpt>
      <trkpt lat="48.05419" lon="13.80402">
        <ele>375.989471</ele>
        <time>2022-09-12T12:59:56.974Z</time>
      </trkpt>
      <trkpt lat="48.0542" lon="13.80385">
        <ele>375.79374</ele>
        <time>2022-09-12T12:59:59.567Z</time>
      </trkpt>
      <trkpt lat="48.05421" lon="13.80344">
        <ele>375.325074</ele>
        <time>2022-09-12T13:00:05.767Z</time>
      </trkpt>
      <trkpt lat="48.05442" lon="13.80275">
        <ele>374.458822</ele>
        <time>2022-09-12T13:00:16.666Z</time>
      </trkpt>
      <trkpt lat="48.0545" lon="13.80208">
        <ele>373.680639</ele>
        <time>2022-09-12T13:00:26.104Z</time>
      </trkpt>
      <trkpt lat="48.0547" lon="13.80175">
        <ele>373.150596</ele>
        <time>2022-09-12T13:00:32.226Z</time>
      </trkpt>
      <trkpt lat="48.05493" lon="13.80122">
        <ele>372.035635</ele>
        <time>2022-09-12T13:00:40.895Z</time>
      </trkpt>
      <trkpt lat="48.05536" lon="13.80074">
        <ele>370.595217</ele>
        <time>2022-09-12T13:00:51.807Z</time>
      </trkpt>
      <trkpt lat="48.05553" lon="13.80056">
        <ele>370.033408</ele>
        <time>2022-09-12T13:00:55.986Z</time>
      </trkpt>
      <trkpt lat="48.05565" lon="13.80045">
        <ele>369.664738</ele>
        <time>2022-09-12T13:00:58.595Z</time>
      </trkpt>
      <trkpt lat="48.05579" lon="13.80032">
        <ele>369.215031</ele>
        <time>2022-09-12T13:01:01.836Z</time>
      </trkpt>
      <trkpt lat="48.05592" lon="13.80019">
        <ele>368.799428</ele>
        <time>2022-09-12T13:01:04.894Z</time>
      </trkpt>
      <trkpt lat="48.05599" lon="13.80012">
        <ele>368.583097</ele>
        <time>2022-09-12T13:01:06.491Z</time>
      </trkpt>
      <trkpt lat="48.05617" lon="13.7998">
        <ele>368.071495</ele>
        <time>2022-09-12T13:01:12.169Z</time>
      </trkpt>
      <trkpt lat="48.05626" lon="13.79948">
        <ele>367.723344</ele>
        <time>2022-09-12T13:01:16.894Z</time>
      </trkpt>
      <trkpt lat="48.05627" lon="13.79945">
        <ele>367.683505</ele>
        <time>2022-09-12T13:01:17.445Z</time>
      </trkpt>
      <trkpt lat="48.05637" lon="13.79904">
        <ele>367.249591</ele>
        <time>2022-09-12T13:01:23.523Z</time>
      </trkpt>
      <trkpt lat="48.05643" lon="13.79848">
        <ele>366.670977</ele>
        <time>2022-09-12T13:01:31.992Z</time>
      </trkpt>
      <trkpt lat="48.0564" lon="13.79717">
        <ele>365.807691</ele>
        <time>2022-09-12T13:01:53.284Z</time>
      </trkpt>
      <trkpt lat="48.0565" lon="13.79661">
        <ele>366.074477</ele>
        <time>2022-09-12T13:02:03.817Z</time>
      </trkpt>
      <trkpt lat="48.05658" lon="13.79631">
        <ele>366.222165</ele>
        <time>2022-09-12T13:02:10.693Z</time>
      </trkpt>
      <trkpt lat="48.05663" lon="13.79615">
        <ele>366.301735</ele>
        <time>2022-09-12T13:02:14.601Z</time>
      </trkpt>
      <trkpt lat="48.05674" lon="13.7958">
        <ele>366.481467</ele>
        <time>2022-09-12T13:02:23.003Z</time>
      </trkpt>
      <trkpt lat="48.05711" lon="13.79456">
        <ele>367.170004</ele>
        <time>2022-09-12T13:02:52.215Z</time>
      </trkpt>
      <trkpt lat="48.05714" lon="13.79445">
        <ele>367.240221</ele>
        <time>2022-09-12T13:02:54.790Z</time>
      </trkpt>
      <trkpt lat="48.05721" lon="13.79406">
        <ele>367.478026</ele>
        <time>2022-09-12T13:03:03.842Z</time>
      </trkpt>
      <trkpt lat="48.05703" lon="13.79443">
        <ele>367.747124</ele>
        <time>2022-09-12T13:03:13.813Z</time>
      </trkpt>
      <trkpt lat="48.05698" lon="13.79481">
        <ele>367.977758</ele>
        <time>2022-09-12T13:03:22.221Z</time>
      </trkpt>
      <trkpt lat="48.05693" lon="13.79477">
        <ele>368.027237</ele>
        <time>2022-09-12T13:03:24.087Z</time>
      </trkpt>
      <trkpt lat="48.0568" lon="13.79465">
        <ele>368.15974</ele>
        <time>2022-09-12T13:03:29.205Z</time>
      </trkpt>
      <trkpt lat="48.05554" lon="13.79348">
        <ele>368.374043</ele>
        <time>2022-09-12T13:04:10.418Z</time>
      </trkpt>
      <trkpt lat="48.05585" lon="13.79289">
        <ele>368.309611</ele>
        <time>2022-09-12T13:04:23.574Z</time>
      </trkpt>
      <trkpt lat="48.05516" lon="13.79212">
        <ele>368.11551</ele>
        <time>2022-09-12T13:04:45.799Z</time>
      </trkpt>
      <trkpt lat="48.05511" lon="13.792">
        <ele>368.090308</ele>
        <time>2022-09-12T13:04:48.354Z</time>
      </trkpt>
      <trkpt lat="48.05512" lon="13.7918">
        <ele>368.056133</ele>
        <time>2022-09-12T13:04:51.637Z</time>
      </trkpt>
      <trkpt lat="48.0555" lon="13.79104">
        <ele>367.8937</ele>
        <time>2022-09-12T13:05:08.707Z</time>
      </trkpt>
      <trkpt lat="48.05514" lon="13.79076">
        <ele>367.853689</ele>
        <time>2022-09-12T13:05:20.391Z</time>
      </trkpt>
      <trkpt lat="48.05479" lon="13.79049">
        <ele>367.953732</ele>
        <time>2022-09-12T13:05:32.086Z</time>
      </trkpt>
      <trkpt lat="48.05446" lon="13.79011">
        <ele>368.056544</ele>
        <time>2022-09-12T13:05:44.253Z</time>
      </trkpt>
      <trkpt lat="48.05349" lon="13.78849">
        <ele>368.444729</ele>
        <time>2022-09-12T13:06:26.423Z</time>
      </trkpt>
      <trkpt lat="48.05338" lon="13.78822">
        <ele>368.506557</ele>
        <time>2022-09-12T13:06:32.330Z</time>
      </trkpt>
      <trkpt lat="48.05283" lon="13.78626">
        <ele>369.10477</ele>
        <time>2022-09-12T13:07:14.202Z</time>
      </trkpt>
      <trkpt lat="48.05206" lon="13.78574">
        <ele>369.724173</ele>
        <time>2022-09-12T13:07:41.980Z</time>
      </trkpt>
      <trkpt lat="48.05162" lon="13.78535">
        <ele>370.097697</ele>
        <time>2022-09-12T13:07:57.576Z</time>
      </trkpt>
      <trkpt lat="48.05136" lon="13.78502">
        <ele>370.198456</ele>
        <time>2022-09-12T13:08:08.214Z</time>
      </trkpt>
      <trkpt lat="48.05133" lon="13.78491">
        <ele>370.22048</ele>
        <time>2022-09-12T13:08:10.588Z</time>
      </trkpt>
      <trkpt lat="48.05148" lon="13.78451">
        <ele>370.304535</ele>
        <time>2022-09-12T13:08:19.613Z</time>
      </trkpt>
      <trkpt lat="48.05138" lon="13.78418">
        <ele>370.371653</ele>
        <time>2022-09-12T13:08:26.788Z</time>
      </trkpt>
      <trkpt lat="48.05144" lon="13.78379">
        <ele>370.444754</ele>
        <time>2022-09-12T13:08:34.119Z</time>
      </trkpt>
      <trkpt lat="48.05087" lon="13.78372">
        <ele>370.603099</ele>
        <time>2022-09-12T13:08:50.160Z</time>
      </trkpt>
      <trkpt lat="48.05049" lon="13.78355">
        <ele>370.44678</ele>
        <time>2022-09-12T13:08:59.865Z</time>
      </trkpt>
      <trkpt lat="48.05001" lon="13.78311">
        <ele>370.210757</ele>
        <time>2022-09-12T13:09:14.046Z</time>
      </trkpt>
      <trkpt lat="48.04941" lon="13.78216">
        <ele>369.874953</ele>
        <time>2022-09-12T13:09:36.339Z</time>
      </trkpt>
      <trkpt lat="48.04924" lon="13.7818">
        <ele>370.01606</ele>
        <time>2022-09-12T13:09:44.008Z</time>
      </trkpt>
      <trkpt lat="48.04897" lon="13.78133">
        <ele>370.209523</ele>
        <time>2022-09-12T13:09:55.575Z</time>
      </trkpt>
      <trkpt lat="48.04866" lon="13.78091">
        <ele>370.408181</ele>
        <time>2022-09-12T13:10:08.180Z</time>
      </trkpt>
      <trkpt lat="48.04847" lon="13.78081">
        <ele>370.503226</ele>
        <time>2022-09-12T13:10:13.844Z</time>
      </trkpt>
      <trkpt lat="48.04828" lon="13.78079">
        <ele>370.59254</ele>
        <time>2022-09-12T13:10:20.052Z</time>
      </trkpt>
      <trkpt lat="48.04829" lon="13.78069">
        <ele>370.624329</ele>
        <time>2022-09-12T13:10:22.020Z</time>
      </trkpt>
      <trkpt lat="48.04829" lon="13.78059">
        <ele>370.655763</ele>
        <time>2022-09-12T13:10:23.903Z</time>
      </trkpt>
      <trkpt lat="48.04819" lon="13.78032">
        <ele>370.792786</ele>
        <time>2022-09-12T13:10:30.993Z</time>
      </trkpt>
      <trkpt lat="48.0481" lon="13.78031">
        <ele>370.879603</ele>
        <time>2022-09-12T13:10:33.913Z</time>
      </trkpt>
      <trkpt lat="48.04803" lon="13.7803">
        <ele>370.946828</ele>
        <time>2022-09-12T13:10:36.070Z</time>
      </trkpt>
      <trkpt lat="48.04806" lon="13.78003">
        <ele>371.112315</ele>
        <time>2022-09-12T13:10:42.059Z</time>
      </trkpt>
      <trkpt lat="48.04802" lon="13.77988">
        <ele>371.213887</ele>
        <time>2022-09-12T13:10:45.340Z</time>
      </trkpt>
      <trkpt lat="48.0478" lon="13.77975">
        <ele>371.439118</ele>
        <time>2022-09-12T13:10:53.101Z</time>
      </trkpt>
      <trkpt lat="48.04779" lon="13.77967">
        <ele>371.489002</ele>
        <time>2022-09-12T13:10:54.898Z</time>
      </trkpt>
      <trkpt lat="48.04751" lon="13.7797">
        <ele>371.750427</ele>
        <time>2022-09-12T13:11:03.967Z</time>
      </trkpt>
      <trkpt lat="48.04726" lon="13.77972">
        <ele>371.98082</ele>
        <time>2022-09-12T13:11:11.825Z</time>
      </trkpt>
      <trkpt lat="48.04666" lon="13.77975">
        <ele>372.489254</ele>
        <time>2022-09-12T13:11:31.346Z</time>
      </trkpt>
      <trkpt lat="48.04654" lon="13.77943">
        <ele>372.63625</ele>
        <time>2022-09-12T13:11:38.695Z</time>
      </trkpt>
      <trkpt lat="48.04607" lon="13.77915">
        <ele>372.942515</ele>
        <time>2022-09-12T13:11:53.550Z</time>
      </trkpt>
      <trkpt lat="48.04583" lon="13.77872">
        <ele>373.17017</ele>
        <time>2022-09-12T13:12:04.401Z</time>
      </trkpt>
      <trkpt lat="48.04536" lon="13.77782">
        <ele>373.599557</ele>
        <time>2022-09-12T13:12:26.788Z</time>
      </trkpt>
      <trkpt lat="48.04506" lon="13.77726">
        <ele>373.821424</ele>
        <time>2022-09-12T13:12:40.609Z</time>
      </trkpt>
      <trkpt lat="48.04472" lon="13.77661">
        <ele>374.081363</ele>
        <time>2022-09-12T13:12:57.661Z</time>
      </trkpt>
      <trkpt lat="48.04443" lon="13.77601">
        <ele>374.313497</ele>
        <time>2022-09-12T13:13:11.392Z</time>
      </trkpt>
      <trkpt lat="48.04419" lon="13.77546">
        <ele>374.252328</ele>
        <time>2022-09-12T13:13:22.727Z</time>
      </trkpt>
      <trkpt lat="48.04393" lon="13.77487">
        <ele>374.17527</ele>
        <time>2022-09-12T13:13:35.151Z</time>
      </trkpt>
      <trkpt lat="48.04378" lon="13.77449">
        <ele>374.126984</ele>
        <time>2022-09-12T13:13:42.732Z</time>
      </trkpt>
      <trkpt lat="48.04348" lon="13.7734">
        <ele>374.056909</ele>
        <time>2022-09-12T13:14:02.770Z</time>
      </trkpt>
      <trkpt lat="48.04341" lon="13.77268">
        <ele>374.132197</ele>
        <time>2022-09-12T13:14:14.775Z</time>
      </trkpt>
      <trkpt lat="48.0435" lon="13.77184">
        <ele>374.221406</ele>
        <time>2022-09-12T13:14:29.722Z</time>
      </trkpt>
      <trkpt lat="48.0437" lon="13.77108">
        <ele>374.306455</ele>
        <time>2022-09-12T13:14:46.101Z</time>
      </trkpt>
      <trkpt lat="48.04383" lon="13.77058">
        <ele>374.765235</ele>
        <time>2022-09-12T13:14:58.062Z</time>
      </trkpt>
      <trkpt lat="48.04389" lon="13.77033">
        <ele>375.001939</ele>
        <time>2022-09-12T13:15:03.942Z</time>
      </trkpt>
      <trkpt lat="48.04396" lon="13.77008">
        <ele>375.239953</ele>
        <time>2022-09-12T13:15:10.314Z</time>
      </trkpt>
      <trkpt lat="48.04413" lon="13.76935">
        <ele>375.934395</ele>
        <time>2022-09-12T13:15:27.996Z</time>
      </trkpt>
      <trkpt lat="48.04421" lon="13.76879">
        <ele>376.440649</ele>
        <time>2022-09-12T13:15:40.657Z</time>
      </trkpt>
      <trkpt lat="48.04429" lon="13.76854">
        <ele>376.685987</ele>
        <time>2022-09-12T13:15:46.901Z</time>
      </trkpt>
      <trkpt lat="48.04393" lon="13.76815">
        <ele>376.955255</ele>
        <time>2022-09-12T13:16:01.388Z</time>
      </trkpt>
      <trkpt lat="48.04304" lon="13.76794">
        <ele>377.464167</ele>
        <time>2022-09-12T13:16:28.626Z</time>
      </trkpt>
      <trkpt lat="48.04287" lon="13.76782">
        <ele>377.572135</ele>
        <time>2022-09-12T13:16:34.186Z</time>
      </trkpt>
      <trkpt lat="48.04276" lon="13.76754">
        <ele>377.694306</ele>
        <time>2022-09-12T13:16:40.055Z</time>
      </trkpt>
      <trkpt lat="48.04264" lon="13.76692">
        <ele>377.705232</ele>
        <time>2022-09-12T13:16:51.688Z</time>
      </trkpt>
      <trkpt lat="48.04223" lon="13.76644">
        <ele>377.670894</ele>
        <time>2022-09-12T13:17:05.676Z</time>
      </trkpt>
      <trkpt lat="48.04201" lon="13.76596">
        <ele>377.644798</ele>
        <time>2022-09-12T13:17:16.411Z</time>
      </trkpt>
      <trkpt lat="48.04185" lon="13.76593">
        <ele>377.634153</ele>
        <time>2022-09-12T13:17:20.813Z</time>
      </trkpt>
      <trkpt lat="48.04164" lon="13.76591">
        <ele>377.619901</ele>
        <time>2022-09-12T13:17:26.608Z</time>
      </trkpt>
      <trkpt lat="48.04155" lon="13.76588">
        <ele>377.613706</ele>
        <time>2022-09-12T13:17:29.357Z</time>
      </trkpt>
      <trkpt lat="48.04149" lon="13.76575">
        <ele>377.615407</ele>
        <time>2022-09-12T13:17:32.497Z</time>
      </trkpt>
      <trkpt lat="48.0403" lon="13.7653">
        <ele>377.74532</ele>
        <time>2022-09-12T13:18:08.613Z</time>
      </trkpt>
      <trkpt lat="48.03857" lon="13.76392">
        <ele>378.501173</ele>
        <time>2022-09-12T13:19:10.602Z</time>
      </trkpt>
      <trkpt lat="48.03824" lon="13.76325">
        <ele>378.941609</ele>
        <time>2022-09-12T13:19:29.551Z</time>
      </trkpt>
      <trkpt lat="48.0388" lon="13.76215">
        <ele>380.170544</ele>
        <time>2022-09-12T13:19:58.527Z</time>
      </trkpt>
      <trkpt lat="48.03908" lon="13.76138">
        <ele>380.950675</ele>
        <time>2022-09-12T13:20:18.497Z</time>
      </trkpt>
      <trkpt lat="48.03952" lon="13.75988">
        <ele>383.958015</ele>
        <time>2022-09-12T13:21:02.089Z</time>
      </trkpt>
      <trkpt lat="48.0396" lon="13.7594">
        <ele>384.906524</ele>
        <time>2022-09-12T13:21:16.105Z</time>
      </trkpt>
      <trkpt lat="48.03957" lon="13.75923">
        <ele>385.23266</ele>
        <time>2022-09-12T13:21:21.491Z</time>
      </trkpt>
      <trkpt lat="48.03869" lon="13.75672">
        <ele>390.76678</ele>
        <time>2022-09-12T13:22:41.817Z</time>
      </trkpt>
      <trkpt lat="48.03856" lon="13.75642">
        <ele>391.471237</ele>
        <time>2022-09-12T13:22:50.116Z</time>
      </trkpt>
      <trkpt lat="48.0385" lon="13.75651">
        <ele>391.56765</ele>
        <time>2022-09-12T13:22:53.324Z</time>
      </trkpt>
      <trkpt lat="48.0379" lon="13.75616">
        <ele>392.2046</ele>
        <time>2022-09-12T13:23:14.595Z</time>
      </trkpt>
      <trkpt lat="48.03769" lon="13.75556">
        <ele>392.646498</ele>
        <time>2022-09-12T13:23:28.410Z</time>
      </trkpt>
      <trkpt lat="48.03761" lon="13.75514">
        <ele>392.930365</ele>
        <time>2022-09-12T13:23:36.341Z</time>
      </trkpt>
      <trkpt lat="48.03786" lon="13.75247">
        <ele>393.675989</ele>
        <time>2022-09-12T13:24:26.650Z</time>
      </trkpt>
      <trkpt lat="48.03785" lon="13.75213">
        <ele>393.740572</ele>
        <time>2022-09-12T13:24:32.941Z</time>
      </trkpt>
      <trkpt lat="48.03766" lon="13.7517">
        <ele>393.981554</ele>
        <time>2022-09-12T13:24:42.860Z</time>
      </trkpt>
      <trkpt lat="48.03757" lon="13.75124">
        <ele>394.25533</ele>
        <time>2022-09-12T13:24:52.212Z</time>
      </trkpt>
      <trkpt lat="48.03751" lon="13.75053">
        <ele>394.675367</ele>
        <time>2022-09-12T13:25:06.928Z</time>
      </trkpt>
      <trkpt lat="48.03755" lon="13.74966">
        <ele>395.180903</ele>
        <time>2022-09-12T13:25:25.926Z</time>
      </trkpt>
      <trkpt lat="48.0375" lon="13.74926">
        <ele>395.422275</ele>
        <time>2022-09-12T13:25:34.865Z</time>
      </trkpt>
      <trkpt lat="48.03714" lon="13.74832">
        <ele>396.089735</ele>
        <time>2022-09-12T13:25:58.436Z</time>
      </trkpt>
      <trkpt lat="48.0368" lon="13.74793">
        <ele>396.489249</ele>
        <time>2022-09-12T13:26:12.168Z</time>
      </trkpt>
      <trkpt lat="48.03691" lon="13.74756">
        <ele>396.743748</ele>
        <time>2022-09-12T13:26:20.313Z</time>
      </trkpt>
      <trkpt lat="48.03722" lon="13.74737">
        <ele>396.992046</ele>
        <time>2022-09-12T13:26:29.765Z</time>
      </trkpt>
      <trkpt lat="48.03727" lon="13.74728">
        <ele>396.993965</ele>
        <time>2022-09-12T13:26:31.963Z</time>
      </trkpt>
      <trkpt lat="48.03734" lon="13.74669">
        <ele>397.003632</ele>
        <time>2022-09-12T13:26:42.957Z</time>
      </trkpt>
      <trkpt lat="48.03736" lon="13.74655">
        <ele>397.005883</ele>
        <time>2022-09-12T13:26:45.550Z</time>
      </trkpt>
      <trkpt lat="48.03754" lon="13.74608">
        <ele>397.014565</ele>
        <time>2022-09-12T13:26:55.002Z</time>
      </trkpt>
      <trkpt lat="48.0377" lon="13.74579">
        <ele>397.020756</ele>
        <time>2022-09-12T13:27:01.425Z</time>
      </trkpt>
      <trkpt lat="48.03791" lon="13.74527">
        <ele>397.030534</ele>
        <time>2022-09-12T13:27:11.682Z</time>
      </trkpt>
      <trkpt lat="48.03617" lon="13.74373">
        <ele>397.414895</ele>
        <time>2022-09-12T13:28:07.326Z</time>
      </trkpt>
      <trkpt lat="48.03613" lon="13.74355">
        <ele>397.490411</ele>
        <time>2022-09-12T13:28:11.056Z</time>
      </trkpt>
      <trkpt lat="48.03617" lon="13.74321">
        <ele>397.629179</ele>
        <time>2022-09-12T13:28:17.964Z</time>
      </trkpt>
      <trkpt lat="48.03647" lon="13.74252">
        <ele>397.962374</ele>
        <time>2022-09-12T13:28:34.384Z</time>
      </trkpt>
      <trkpt lat="48.03663" lon="13.74223">
        <ele>398.116107</ele>
        <time>2022-09-12T13:28:42.228Z</time>
      </trkpt>
      <trkpt lat="48.03631" lon="13.74171">
        <ele>398.403714</ele>
        <time>2022-09-12T13:28:56.130Z</time>
      </trkpt>
      <trkpt lat="48.03616" lon="13.74158">
        <ele>398.49623</ele>
        <time>2022-09-12T13:29:01.246Z</time>
      </trkpt>
      <trkpt lat="48.03613" lon="13.74157">
        <ele>398.515511</ele>
        <time>2022-09-12T13:29:02.502Z</time>
      </trkpt>
      <trkpt lat="48.03592" lon="13.7415">
        <ele>398.621299</ele>
        <time>2022-09-12T13:29:08.781Z</time>
      </trkpt>
      <trkpt lat="48.03571" lon="13.74141">
        <ele>398.72665</ele>
        <time>2022-09-12T13:29:15.301Z</time>
      </trkpt>
      <trkpt lat="48.03538" lon="13.74115">
        <ele>398.909138</ele>
        <time>2022-09-12T13:29:26.397Z</time>
      </trkpt>
      <trkpt lat="48.03536" lon="13.74112">
        <ele>398.9267</ele>
        <time>2022-09-12T13:29:27.378Z</time>
      </trkpt>
      <trkpt lat="48.03531" lon="13.74106">
        <ele>398.955922</ele>
        <time>2022-09-12T13:29:29.007Z</time>
      </trkpt>
      <trkpt lat="48.03513" lon="13.74083">
        <ele>399.071137</ele>
        <time>2022-09-12T13:29:35.443Z</time>
      </trkpt>
      <trkpt lat="48.03498" lon="13.74057">
        <ele>399.183921</ele>
        <time>2022-09-12T13:29:41.818Z</time>
      </trkpt>
      <trkpt lat="48.03496" lon="13.74053">
        <ele>399.201463</ele>
        <time>2022-09-12T13:29:42.802Z</time>
      </trkpt>
      <trkpt lat="48.03449" lon="13.73931">
        <ele>399.662196</ele>
        <time>2022-09-12T13:30:09.916Z</time>
      </trkpt>
      <trkpt lat="48.03436" lon="13.73909">
        <ele>399.75712</ele>
        <time>2022-09-12T13:30:15.602Z</time>
      </trkpt>
      <trkpt lat="48.0341" lon="13.73886">
        <ele>399.906273</ele>
        <time>2022-09-12T13:30:24.435Z</time>
      </trkpt>
      <trkpt lat="48.03378" lon="13.73858">
        <ele>400.085083</ele>
        <time>2022-09-12T13:30:35.233Z</time>
      </trkpt>
      <trkpt lat="48.03352" lon="13.73822">
        <ele>400.25573</ele>
        <time>2022-09-12T13:30:45.711Z</time>
      </trkpt>
      <trkpt lat="48.033" lon="13.73732">
        <ele>400.604554</ele>
        <time>2022-09-12T13:31:08.742Z</time>
      </trkpt>
      <trkpt lat="48.03268" lon="13.73709">
        <ele>400.758857</ele>
        <time>2022-09-12T13:31:18.853Z</time>
      </trkpt>
      <trkpt lat="48.03208" lon="13.73695">
        <ele>401.031909</ele>
        <time>2022-09-12T13:31:36.037Z</time>
      </trkpt>
      <trkpt lat="48.03144" lon="13.73682">
        <ele>401.418817</ele>
        <time>2022-09-12T13:31:54.727Z</time>
      </trkpt>
      <trkpt lat="48.03089" lon="13.73652">
        <ele>401.767525</ele>
        <time>2022-09-12T13:32:11.740Z</time>
      </trkpt>
      <trkpt lat="48.02958" lon="13.73493">
        <ele>403.087817</ele>
        <time>2022-09-12T13:33:04.005Z</time>
      </trkpt>
      <trkpt lat="48.02884" lon="13.73388">
        <ele>403.829616</ele>
        <time>2022-09-12T13:33:35.408Z</time>
      </trkpt>
      <trkpt lat="48.02831" lon="13.73281">
        <ele>404.279114</ele>
        <time>2022-09-12T13:34:01.875Z</time>
      </trkpt>
      <trkpt lat="48.02799" lon="13.73222">
        <ele>404.536865</ele>
        <time>2022-09-12T13:34:15.985Z</time>
      </trkpt>
      <trkpt lat="48.02792" lon="13.73208">
        <ele>404.546052</ele>
        <time>2022-09-12T13:34:19.155Z</time>
      </trkpt>
      <trkpt lat="48.02771" lon="13.73171">
        <ele>404.556687</ele>
        <time>2022-09-12T13:34:27.593Z</time>
      </trkpt>
      <trkpt lat="48.02727" lon="13.73091">
        <ele>404.579217</ele>
        <time>2022-09-12T13:34:45.785Z</time>
      </trkpt>
      <trkpt lat="48.0268" lon="13.73002">
        <ele>404.615995</ele>
        <time>2022-09-12T13:35:06.264Z</time>
      </trkpt>
      <trkpt lat="48.02677" lon="13.72996">
        <ele>404.624801</ele>
        <time>2022-09-12T13:35:07.581Z</time>
      </trkpt>
      <trkpt lat="48.02663" lon="13.72972">
        <ele>404.662158</ele>
        <time>2022-09-12T13:35:13.148Z</time>
      </trkpt>
      <trkpt lat="48.02645" lon="13.72939">
        <ele>404.714181</ele>
        <time>2022-09-12T13:35:20.985Z</time>
      </trkpt>
      <trkpt lat="48.02641" lon="13.72933">
        <ele>404.724022</ele>
        <time>2022-09-12T13:35:22.486Z</time>
      </trkpt>
      <trkpt lat="48.02637" lon="13.72925">
        <ele>404.736188</ele>
        <time>2022-09-12T13:35:24.329Z</time>
      </trkpt>
      <trkpt lat="48.02607" lon="13.72886">
        <ele>404.807263</ele>
        <time>2022-09-12T13:35:35.246Z</time>
      </trkpt>
      <trkpt lat="48.02537" lon="13.72814">
        <ele>405.07845</ele>
        <time>2022-09-12T13:35:58.975Z</time>
      </trkpt>
      <trkpt lat="48.02492" lon="13.72715">
        <ele>405.720857</ele>
        <time>2022-09-12T13:36:23.022Z</time>
      </trkpt>
      <trkpt lat="48.02451" lon="13.72658">
        <ele>406.167588</ele>
        <time>2022-09-12T13:36:40.619Z</time>
      </trkpt>
      <trkpt lat="48.02402" lon="13.72594">
        <ele>406.910609</ele>
        <time>2022-09-12T13:37:02.008Z</time>
      </trkpt>
      <trkpt lat="48.0231" lon="13.72531">
        <ele>408.265324</ele>
        <time>2022-09-12T13:37:36.447Z</time>
      </trkpt>
      <trkpt lat="48.0207" lon="13.72353">
        <ele>410.932621</ele>
        <time>2022-09-12T13:39:01.985Z</time>
      </trkpt>
      <trkpt lat="48.02062" lon="13.72347">
        <ele>410.968803</ele>
        <time>2022-09-12T13:39:04.620Z</time>
      </trkpt>
      <trkpt lat="48.02008" lon="13.72293">
        <ele>411.23033</ele>
        <time>2022-09-12T13:39:22.399Z</time>
      </trkpt>
      <trkpt lat="48.01985" lon="13.72242">
        <ele>411.393524</ele>
        <time>2022-09-12T13:39:33.406Z</time>
      </trkpt>
      <trkpt lat="48.01949" lon="13.72179">
        <ele>411.503337</ele>
        <time>2022-09-12T13:39:47.886Z</time>
      </trkpt>
      <trkpt lat="48.01941" lon="13.72167">
        <ele>411.517391</ele>
        <time>2022-09-12T13:39:50.910Z</time>
      </trkpt>
      <trkpt lat="48.01911" lon="13.72131">
        <ele>411.564848</ele>
        <time>2022-09-12T13:40:01.174Z</time>
      </trkpt>
      <trkpt lat="48.01902" lon="13.72127">
        <ele>411.576207</ele>
        <time>2022-09-12T13:40:03.674Z</time>
      </trkpt>
      <trkpt lat="48.01889" lon="13.72124">
        <ele>411.593159</ele>
        <time>2022-09-12T13:40:07.335Z</time>
      </trkpt>
      <trkpt lat="48.01884" lon="13.72123">
        <ele>411.598965</ele>
        <time>2022-09-12T13:40:08.668Z</time>
      </trkpt>
      <trkpt lat="48.01853" lon="13.72111">
        <ele>411.639039</ele>
        <time>2022-09-12T13:40:17.315Z</time>
      </trkpt>
      <trkpt lat="48.01827" lon="13.72092">
        <ele>411.675153</ele>
        <time>2022-09-12T13:40:25.431Z</time>
      </trkpt>
      <trkpt lat="48.01825" lon="13.7209">
        <ele>411.690504</ele>
        <time>2022-09-12T13:40:26.119Z</time>
      </trkpt>
      <trkpt lat="48.01809" lon="13.72078">
        <ele>411.803084</ele>
        <time>2022-09-12T13:40:31.258Z</time>
      </trkpt>
      <trkpt lat="48.01773" lon="13.7205">
        <ele>412.069219</ele>
        <time>2022-09-12T13:40:43.660Z</time>
      </trkpt>
      <trkpt lat="48.01763" lon="13.72042">
        <ele>412.147535</ele>
        <time>2022-09-12T13:40:47.363Z</time>
      </trkpt>
      <trkpt lat="48.01758" lon="13.72039">
        <ele>412.17847</ele>
        <time>2022-09-12T13:40:48.826Z</time>
      </trkpt>
      <trkpt lat="48.01714" lon="13.72004">
        <ele>412.50671</ele>
        <time>2022-09-12T13:41:04.175Z</time>
      </trkpt>
      <trkpt lat="48.01612" lon="13.71948">
        <ele>412.809186</ele>
        <time>2022-09-12T13:41:36.373Z</time>
      </trkpt>
      <trkpt lat="48.0161" lon="13.71916">
        <ele>412.7915</ele>
        <time>2022-09-12T13:41:41.856Z</time>
      </trkpt>
      <trkpt lat="48.01589" lon="13.71807">
        <ele>412.728135</ele>
        <time>2022-09-12T13:42:00.565Z</time>
      </trkpt>
      <trkpt lat="48.01576" lon="13.7177">
        <ele>412.711454</ele>
        <time>2022-09-12T13:42:07.332Z</time>
      </trkpt>
      <trkpt lat="48.01564" lon="13.71713">
        <ele>412.890531</ele>
        <time>2022-09-12T13:42:17.604Z</time>
      </trkpt>
      <trkpt lat="48.01541" lon="13.71628">
        <ele>413.164609</ele>
        <time>2022-09-12T13:42:34.151Z</time>
      </trkpt>
      <trkpt lat="48.0152" lon="13.71574">
        <ele>413.35305</ele>
        <time>2022-09-12T13:42:45.895Z</time>
      </trkpt>
      <trkpt lat="48.01506" lon="13.71534">
        <ele>413.488666</ele>
        <time>2022-09-12T13:42:55.303Z</time>
      </trkpt>
      <trkpt lat="48.01492" lon="13.71511">
        <ele>413.90365</ele>
        <time>2022-09-12T13:43:02.279Z</time>
      </trkpt>
      <trkpt lat="48.0145" lon="13.71372">
        <ele>416.46314</ele>
        <time>2022-09-12T13:43:48.281Z</time>
      </trkpt>
      <trkpt lat="48.01439" lon="13.7132">
        <ele>417.37476</ele>
        <time>2022-09-12T13:44:03.301Z</time>
      </trkpt>
      <trkpt lat="48.01424" lon="13.71303">
        <ele>417.844969</ele>
        <time>2022-09-12T13:44:07.506Z</time>
      </trkpt>
      <trkpt lat="48.01405" lon="13.713">
        <ele>418.039388</ele>
        <time>2022-09-12T13:44:15.404Z</time>
      </trkpt>
      <trkpt lat="48.01401" lon="13.713">
        <ele>418.04809</ele>
        <time>2022-09-12T13:44:16.088Z</time>
      </trkpt>
      <trkpt lat="48.0137" lon="13.71392">
        <ele>418.194927</ele>
        <time>2022-09-12T13:44:37.724Z</time>
      </trkpt>
      <trkpt lat="48.01353" lon="13.71427">
        <ele>418.25739</ele>
        <time>2022-09-12T13:44:46.430Z</time>
      </trkpt>
      <trkpt lat="48.01317" lon="13.71472">
        <ele>418.35533</ele>
        <time>2022-09-12T13:44:57.520Z</time>
      </trkpt>
      <trkpt lat="48.01288" lon="13.71475">
        <ele>418.355406</ele>
        <time>2022-09-12T13:45:04.036Z</time>
      </trkpt>
      <trkpt lat="48.01275" lon="13.7147">
        <ele>418.29938</ele>
        <time>2022-09-12T13:45:06.994Z</time>
      </trkpt>
      <trkpt lat="48.01226" lon="13.71414">
        <ele>418.048245</ele>
        <time>2022-09-12T13:45:20.876Z</time>
      </trkpt>
      <trkpt lat="48.01201" lon="13.71401">
        <ele>417.940245</ele>
        <time>2022-09-12T13:45:27.056Z</time>
      </trkpt>
      <trkpt lat="48.01155" lon="13.71348">
        <ele>417.702436</ele>
        <time>2022-09-12T13:45:45.068Z</time>
      </trkpt>
      <trkpt lat="48.01057" lon="13.7124">
        <ele>417.992237</ele>
        <time>2022-09-12T13:46:20.406Z</time>
      </trkpt>
      <trkpt lat="48.01033" lon="13.71221">
        <ele>418.072857</ele>
        <time>2022-09-12T13:46:27.516Z</time>
      </trkpt>
      <trkpt lat="48.00992" lon="13.71203">
        <ele>418.200429</ele>
        <time>2022-09-12T13:46:38.677Z</time>
      </trkpt>
      <trkpt lat="48.00932" lon="13.71219">
        <ele>418.429823</ele>
        <time>2022-09-12T13:46:55.169Z</time>
      </trkpt>
      <trkpt lat="48.00913" lon="13.71216">
        <ele>418.498974</ele>
        <time>2022-09-12T13:47:00.183Z</time>
      </trkpt>
      <trkpt lat="48.00905" lon="13.71208">
        <ele>418.534639</ele>
        <time>2022-09-12T13:47:02.786Z</time>
      </trkpt>
      <trkpt lat="48.00892" lon="13.71182">
        <ele>418.618275</ele>
        <time>2022-09-12T13:47:08.808Z</time>
      </trkpt>
      <trkpt lat="48.00878" lon="13.71126">
        <ele>418.76682</ele>
        <time>2022-09-12T13:47:20.169Z</time>
      </trkpt>
      <trkpt lat="48.00885" lon="13.71117">
        <ele>418.800655</ele>
        <time>2022-09-12T13:47:22.965Z</time>
      </trkpt>
      <trkpt lat="48.00886" lon="13.71078">
        <ele>418.987187</ele>
        <time>2022-09-12T13:47:31.182Z</time>
      </trkpt>
      <trkpt lat="48.00881" lon="13.71001">
        <ele>419.74116</ele>
        <time>2022-09-12T13:47:49.812Z</time>
      </trkpt>
      <trkpt lat="48.0085" lon="13.70795">
        <ele>421.606079</ele>
        <time>2022-09-12T13:48:37.726Z</time>
      </trkpt>
      <trkpt lat="48.00834" lon="13.70716">
        <ele>421.939278</ele>
        <time>2022-09-12T13:48:54.985Z</time>
      </trkpt>
      <trkpt lat="48.00805" lon="13.70672">
        <ele>422.186669</ele>
        <time>2022-09-12T13:49:06.852Z</time>
      </trkpt>
      <trkpt lat="48.00781" lon="13.70614">
        <ele>422.460897</ele>
        <time>2022-09-12T13:49:19.315Z</time>
      </trkpt>
      <trkpt lat="48.00776" lon="13.70502">
        <ele>422.946543</ele>
        <time>2022-09-12T13:49:38.959Z</time>
      </trkpt>
      <trkpt lat="48.00779" lon="13.70443">
        <ele>423.205756</ele>
        <time>2022-09-12T13:49:49.635Z</time>
      </trkpt>
      <trkpt lat="48.00827" lon="13.70208">
        <ele>425.086166</ele>
        <time>2022-09-12T13:50:44.628Z</time>
      </trkpt>
      <trkpt lat="48.00855" lon="13.70194">
        <ele>425.562176</ele>
        <time>2022-09-12T13:50:55.499Z</time>
      </trkpt>
      <trkpt lat="48.00866" lon="13.70181">
        <ele>425.793638</ele>
        <time>2022-09-12T13:51:00.299Z</time>
      </trkpt>
      <trkpt lat="48.00881" lon="13.7015">
        <ele>426.207661</ele>
        <time>2022-09-12T13:51:09.671Z</time>
      </trkpt>
      <trkpt lat="48.00911" lon="13.70069">
        <ele>426.926898</ele>
        <time>2022-09-12T13:51:31.557Z</time>
      </trkpt>
      <trkpt lat="48.00918" lon="13.69917">
        <ele>427.740855</ele>
        <time>2022-09-12T13:52:03.505Z</time>
      </trkpt>
      <trkpt lat="48.00954" lon="13.69739">
        <ele>428.02039</ele>
        <time>2022-09-12T13:52:34.934Z</time>
      </trkpt>
      <trkpt lat="48.00956" lon="13.69688">
        <ele>427.99236</ele>
        <time>2022-09-12T13:52:42.974Z</time>
      </trkpt>
      <trkpt lat="48.0095" lon="13.69583">
        <ele>428.033065</ele>
        <time>2022-09-12T13:53:01.705Z</time>
      </trkpt>
      <trkpt lat="48.00965" lon="13.69439">
        <ele>429.597993</ele>
        <time>2022-09-12T13:53:35.387Z</time>
      </trkpt>
      <trkpt lat="48.00974" lon="13.69385">
        <ele>430.195347</ele>
        <time>2022-09-12T13:53:51.432Z</time>
      </trkpt>
      <trkpt lat="48.00996" lon="13.69303">
        <ele>430.9238</ele>
        <time>2022-09-12T13:54:10.941Z</time>
      </trkpt>
      <trkpt lat="48.01026" lon="13.69265">
        <ele>431.101445</ele>
        <time>2022-09-12T13:54:23.178Z</time>
      </trkpt>
      <trkpt lat="48.01064" lon="13.69202">
        <ele>431.356882</ele>
        <time>2022-09-12T13:54:42.536Z</time>
      </trkpt>
      <trkpt lat="48.0106" lon="13.69191">
        <ele>431.394452</ele>
        <time>2022-09-12T13:54:43.986Z</time>
      </trkpt>
      <trkpt lat="48.01037" lon="13.69179">
        <ele>431.504999</ele>
        <time>2022-09-12T13:54:52.363Z</time>
      </trkpt>
      <trkpt lat="48.00987" lon="13.69126">
        <ele>431.248108</ele>
        <time>2022-09-12T13:55:05.917Z</time>
      </trkpt>
      <trkpt lat="48.00984" lon="13.69109">
        <ele>431.096729</ele>
        <time>2022-09-12T13:55:09.695Z</time>
      </trkpt>
      <trkpt lat="48.00999" lon="13.69046">
        <ele>430.509658</ele>
        <time>2022-09-12T13:55:18.500Z</time>
      </trkpt>
      <trkpt lat="48.00986" lon="13.68874">
        <ele>429.211566</ele>
        <time>2022-09-12T13:55:45.492Z</time>
      </trkpt>
      <trkpt lat="48.00973" lon="13.68746">
        <ele>428.908399</ele>
        <time>2022-09-12T13:56:07.118Z</time>
      </trkpt>
      <trkpt lat="48.00962" lon="13.68699">
        <ele>428.790021</ele>
        <time>2022-09-12T13:56:15.672Z</time>
      </trkpt>
      <trkpt lat="48.00947" lon="13.6866">
        <ele>428.684637</ele>
        <time>2022-09-12T13:56:23.452Z</time>
      </trkpt>
      <trkpt lat="48.00932" lon="13.68612">
        <ele>428.782783</ele>
        <time>2022-09-12T13:56:32.936Z</time>
      </trkpt>
      <trkpt lat="48.00925" lon="13.68558">
        <ele>428.948776</ele>
        <time>2022-09-12T13:56:43.227Z</time>
      </trkpt>
      <trkpt lat="48.00903" lon="13.68441">
        <ele>429.313222</ele>
        <time>2022-09-12T13:57:07.369Z</time>
      </trkpt>
      <trkpt lat="48.00894" lon="13.68296">
        <ele>430.195012</ele>
        <time>2022-09-12T13:57:37.047Z</time>
      </trkpt>
      <trkpt lat="48.00893" lon="13.68211">
        <ele>430.846831</ele>
        <time>2022-09-12T13:57:56.082Z</time>
      </trkpt>
      <trkpt lat="48.00885" lon="13.68196">
        <ele>430.985964</ele>
        <time>2022-09-12T13:57:59.878Z</time>
      </trkpt>
      <trkpt lat="48.0085" lon="13.68201">
        <ele>431.394392</ele>
        <time>2022-09-12T13:58:11.744Z</time>
      </trkpt>
      <trkpt lat="48.00837" lon="13.68206">
        <ele>431.562163</ele>
        <time>2022-09-12T13:58:16.256Z</time>
      </trkpt>
      <trkpt lat="48.00781" lon="13.68222">
        <ele>432.578667</ele>
        <time>2022-09-12T13:58:35.697Z</time>
      </trkpt>
      <trkpt lat="48.00769" lon="13.68219">
        <ele>432.787971</ele>
        <time>2022-09-12T13:58:39.662Z</time>
      </trkpt>
      <trkpt lat="48.00732" lon="13.67994">
        <ele>435.424043</ele>
        <time>2022-09-12T13:59:36.089Z</time>
      </trkpt>
      <trkpt lat="48.00694" lon="13.67844">
        <ele>437.008584</ele>
        <time>2022-09-12T14:00:11.268Z</time>
      </trkpt>
      <trkpt lat="48.00683" lon="13.67767">
        <ele>437.671069</ele>
        <time>2022-09-12T14:00:28.169Z</time>
      </trkpt>
      <trkpt lat="48.00683" lon="13.67685">
        <ele>438.252782</ele>
        <time>2022-09-12T14:00:46.149Z</time>
      </trkpt>
      <trkpt lat="48.00696" lon="13.67634">
        <ele>438.635258</ele>
        <time>2022-09-12T14:00:57.835Z</time>
      </trkpt>
      <trkpt lat="48.00746" lon="13.67498">
        <ele>439.504049</ele>
        <time>2022-09-12T14:01:29.624Z</time>
      </trkpt>
      <trkpt lat="48.00752" lon="13.67477">
        <ele>439.584281</ele>
        <time>2022-09-12T14:01:34.616Z</time>
      </trkpt>
      <trkpt lat="48.00773" lon="13.67361">
        <ele>439.999273</ele>
        <time>2022-09-12T14:01:58.839Z</time>
      </trkpt>
      <trkpt lat="48.00777" lon="13.67341">
        <ele>440.070378</ele>
        <time>2022-09-12T14:02:02.526Z</time>
      </trkpt>
      <trkpt lat="48.00825" lon="13.67093">
        <ele>439.606949</ele>
        <time>2022-09-12T14:02:48.043Z</time>
      </trkpt>
      <trkpt lat="48.00899" lon="13.66893">
        <ele>438.639005</ele>
        <time>2022-09-12T14:03:25.857Z</time>
      </trkpt>
      <trkpt lat="48.00993" lon="13.6669">
        <ele>437.793091</ele>
        <time>2022-09-12T14:04:08.393Z</time>
      </trkpt>
      <trkpt lat="48.01073" lon="13.66517">
        <ele>437.214163</ele>
        <time>2022-09-12T14:04:45.648Z</time>
      </trkpt>
      <trkpt lat="48.01076" lon="13.6651">
        <ele>437.190595</ele>
        <time>2022-09-12T14:04:47.202Z</time>
      </trkpt>
      <trkpt lat="48.01093" lon="13.66427">
        <ele>436.944463</ele>
        <time>2022-09-12T14:05:02.560Z</time>
      </trkpt>
      <trkpt lat="48.01105" lon="13.66358">
        <ele>436.743034</ele>
        <time>2022-09-12T14:05:14.821Z</time>
      </trkpt>
      <trkpt lat="48.0111" lon="13.66244">
        <ele>436.129493</ele>
        <time>2022-09-12T14:05:33.302Z</time>
      </trkpt>
      <trkpt lat="48.0111" lon="13.66141">
        <ele>435.558633</ele>
        <time>2022-09-12T14:05:50.794Z</time>
      </trkpt>
      <trkpt lat="48.01127" lon="13.66068">
        <ele>435.129534</ele>
        <time>2022-09-12T14:06:02.821Z</time>
      </trkpt>
      <trkpt lat="48.01143" lon="13.6602">
        <ele>434.827532</ele>
        <time>2022-09-12T14:06:11.058Z</time>
      </trkpt>
      <trkpt lat="48.01165" lon="13.65996">
        <ele>434.595268</ele>
        <time>2022-09-12T14:06:17.417Z</time>
      </trkpt>
      <trkpt lat="48.01171" lon="13.65992">
        <ele>434.536839</ele>
        <time>2022-09-12T14:06:19.416Z</time>
      </trkpt>
      <trkpt lat="48.01172" lon="13.65956">
        <ele>434.337028</ele>
        <time>2022-09-12T14:06:27.032Z</time>
      </trkpt>
      <trkpt lat="48.01178" lon="13.65931">
        <ele>434.186971</ele>
        <time>2022-09-12T14:06:32.409Z</time>
      </trkpt>
      <trkpt lat="48.01186" lon="13.65896">
        <ele>433.971812</ele>
        <time>2022-09-12T14:06:40.574Z</time>
      </trkpt>
      <trkpt lat="48.01213" lon="13.65786">
        <ele>433.874621</ele>
        <time>2022-09-12T14:07:05.999Z</time>
      </trkpt>
      <trkpt lat="48.01219" lon="13.65769">
        <ele>433.922633</ele>
        <time>2022-09-12T14:07:10.723Z</time>
      </trkpt>
      <trkpt lat="48.01231" lon="13.65697">
        <ele>434.104517</ele>
        <time>2022-09-12T14:07:28.822Z</time>
      </trkpt>
      <trkpt lat="48.0125" lon="13.6558">
        <ele>434.370077</ele>
        <time>2022-09-12T14:08:02.517Z</time>
      </trkpt>
      <trkpt lat="48.01313" lon="13.65434">
        <ele>434.463032</ele>
        <time>2022-09-12T14:08:45.436Z</time>
      </trkpt>
      <trkpt lat="48.01275" lon="13.65387">
        <ele>434.502289</ele>
        <time>2022-09-12T14:08:57.480Z</time>
      </trkpt>
      <trkpt lat="48.01272" lon="13.65327">
        <ele>433.823357</ele>
        <time>2022-09-12T14:09:07.402Z</time>
      </trkpt>
      <trkpt lat="48.01271" lon="13.65304">
        <ele>433.534235</ele>
        <time>2022-09-12T14:09:11.120Z</time>
      </trkpt>
      <trkpt lat="48.0127" lon="13.65263">
        <ele>433.013699</ele>
        <time>2022-09-12T14:09:17.342Z</time>
      </trkpt>
      <trkpt lat="48.01247" lon="13.65264">
        <ele>432.575818</ele>
        <time>2022-09-12T14:09:22.012Z</time>
      </trkpt>
      <trkpt lat="48.01249" lon="13.65161">
        <ele>431.278689</ele>
        <time>2022-09-12T14:09:41.270Z</time>
      </trkpt>
      <trkpt lat="48.01243" lon="13.651">
        <ele>430.408077</ele>
        <time>2022-09-12T14:09:52.896Z</time>
      </trkpt>
      <trkpt lat="48.01242" lon="13.6502">
        <ele>429.257409</ele>
        <time>2022-09-12T14:10:07.989Z</time>
      </trkpt>
      <trkpt lat="48.01225" lon="13.64974">
        <ele>428.498172</ele>
        <time>2022-09-12T14:10:15.525Z</time>
      </trkpt>
      <trkpt lat="48.01202" lon="13.64943">
        <ele>427.818237</ele>
        <time>2022-09-12T14:10:22.120Z</time>
      </trkpt>
      <trkpt lat="48.01192" lon="13.64936">
        <ele>427.572098</ele>
        <time>2022-09-12T14:10:24.525Z</time>
      </trkpt>
      <trkpt lat="48.01175" lon="13.64922">
        <ele>427.198987</ele>
        <time>2022-09-12T14:10:28.451Z</time>
      </trkpt>
      <trkpt lat="48.01161" lon="13.64907">
        <ele>427.059965</ele>
        <time>2022-09-12T14:10:32.110Z</time>
      </trkpt>
      <trkpt lat="48.01145" lon="13.6489">
        <ele>426.899861</ele>
        <time>2022-09-12T14:10:36.257Z</time>
      </trkpt>
      <trkpt lat="48.01142" lon="13.64886">
        <ele>426.867104</ele>
        <time>2022-09-12T14:10:37.138Z</time>
      </trkpt>
      <trkpt lat="48.01128" lon="13.64905">
        <ele>426.718634</ele>
        <time>2022-09-12T14:10:41.151Z</time>
      </trkpt>
      <trkpt lat="48.01119" lon="13.6494">
        <ele>426.5119</ele>
        <time>2022-09-12T14:10:46.836Z</time>
      </trkpt>
      <trkpt lat="48.01115" lon="13.64939">
        <ele>426.485642</ele>
        <time>2022-09-12T14:10:47.586Z</time>
      </trkpt>
      <trkpt lat="48.01097" lon="13.64893">
        <ele>426.200199</ele>
        <time>2022-09-12T14:10:59.053Z</time>
      </trkpt>
      <trkpt lat="48.01089" lon="13.64873">
        <ele>426.071318</ele>
        <time>2022-09-12T14:11:04.543Z</time>
      </trkpt>
      <trkpt lat="48.01095" lon="13.64867">
        <ele>426.01916</ele>
        <time>2022-09-12T14:11:06.488Z</time>
      </trkpt>
      <trkpt lat="48.01112" lon="13.64857">
        <ele>425.872524</ele>
        <time>2022-09-12T14:11:12.348Z</time>
      </trkpt>
      <trkpt lat="48.01119" lon="13.64852">
        <ele>425.806448</ele>
        <time>2022-09-12T14:11:14.815Z</time>
      </trkpt>
      <trkpt lat="48.01131" lon="13.64839">
        <ele>425.86511</ele>
        <time>2022-09-12T14:11:19.374Z</time>
      </trkpt>
      <trkpt lat="48.01137" lon="13.64821">
        <ele>425.988183</ele>
        <time>2022-09-12T14:11:23.864Z</time>
      </trkpt>
      <trkpt lat="48.01134" lon="13.64806">
        <ele>426.081393</ele>
        <time>2022-09-12T14:11:26.997Z</time>
      </trkpt>
      <trkpt lat="48.01117" lon="13.64741">
        <ele>426.516926</ele>
        <time>2022-09-12T14:11:41.746Z</time>
      </trkpt>
      <trkpt lat="48.01096" lon="13.64662">
        <ele>427.044816</ele>
        <time>2022-09-12T14:11:59.500Z</time>
      </trkpt>
      <trkpt lat="48.01094" lon="13.64654">
        <ele>427.096183</ele>
        <time>2022-09-12T14:12:01.199Z</time>
      </trkpt>
      <trkpt lat="48.01083" lon="13.64608">
        <ele>427.399945</ele>
        <time>2022-09-12T14:12:11.876Z</time>
      </trkpt>
      <trkpt lat="48.01054" lon="13.64488">
        <ele>428.123151</ele>
        <time>2022-09-12T14:12:38.634Z</time>
      </trkpt>
      <trkpt lat="48.01052" lon="13.64484">
        <ele>428.152524</ele>
        <time>2022-09-12T14:12:39.655Z</time>
      </trkpt>
      <trkpt lat="48.01035" lon="13.64414">
        <ele>428.575564</ele>
        <time>2022-09-12T14:12:54.230Z</time>
      </trkpt>
      <trkpt lat="48.01026" lon="13.64374">
        <ele>428.816021</ele>
        <time>2022-09-12T14:13:02.339Z</time>
      </trkpt>
      <trkpt lat="48.00916" lon="13.6391">
        <ele>432.642927</ele>
        <time>2022-09-12T14:14:47.626Z</time>
      </trkpt>
      <trkpt lat="48.00906" lon="13.63914">
        <ele>432.778808</ele>
        <time>2022-09-12T14:14:51.359Z</time>
      </trkpt>
      <trkpt lat="48.0089" lon="13.63922">
        <ele>433.014897</ele>
        <time>2022-09-12T14:14:57.767Z</time>
      </trkpt>
      <trkpt lat="48.00881" lon="13.63927">
        <ele>433.136639</ele>
        <time>2022-09-12T14:15:00.760Z</time>
      </trkpt>
      <trkpt lat="48.0086" lon="13.6392">
        <ele>433.471626</ele>
        <time>2022-09-12T14:15:08.890Z</time>
      </trkpt>
      <trkpt lat="48.00827" lon="13.63894">
        <ele>434.106245</ele>
        <time>2022-09-12T14:15:22.073Z</time>
      </trkpt>
      <trkpt lat="48.00816" lon="13.63783">
        <ele>435.389727</ele>
        <time>2022-09-12T14:15:48.626Z</time>
      </trkpt>
      <trkpt lat="48.00815" lon="13.63655">
        <ele>436.721177</ele>
        <time>2022-09-12T14:16:18.172Z</time>
      </trkpt>
      <trkpt lat="48.0076" lon="13.63437">
        <ele>438.732354</ele>
        <time>2022-09-12T14:17:07.508Z</time>
      </trkpt>
      <trkpt lat="48.00748" lon="13.63429">
        <ele>439.090449</ele>
        <time>2022-09-12T14:17:12.301Z</time>
      </trkpt>
      <trkpt lat="48.00733" lon="13.63434">
        <ele>439.487358</ele>
        <time>2022-09-12T14:17:17.189Z</time>
      </trkpt>
      <trkpt lat="48.00719" lon="13.63424">
        <ele>439.889989</ele>
        <time>2022-09-12T14:17:22.641Z</time>
      </trkpt>
      <trkpt lat="48.00708" lon="13.63403">
        <ele>440.371331</ele>
        <time>2022-09-12T14:17:29.221Z</time>
      </trkpt>
      <trkpt lat="48.00699" lon="13.63365">
        <ele>441.095721</ele>
        <time>2022-09-12T14:17:39.969Z</time>
      </trkpt>
      <trkpt lat="48.00699" lon="13.63322">
        <ele>441.851616</ele>
        <time>2022-09-12T14:17:52.034Z</time>
      </trkpt>
      <trkpt lat="48.00695" lon="13.63304">
        <ele>442.186453</ele>
        <time>2022-09-12T14:17:57.551Z</time>
      </trkpt>
      <trkpt lat="48.00674" lon="13.63223">
        <ele>443.840678</ele>
        <time>2022-09-12T14:18:24.454Z</time>
      </trkpt>
      <trkpt lat="48.00635" lon="13.63147">
        <ele>446.070284</ele>
        <time>2022-09-12T14:18:54.860Z</time>
      </trkpt>
      <trkpt lat="48.00624" lon="13.63128">
        <ele>446.664143</ele>
        <time>2022-09-12T14:19:02.637Z</time>
      </trkpt>
      <trkpt lat="48.00572" lon="13.63097">
        <ele>448.60581</ele>
        <time>2022-09-12T14:19:27.581Z</time>
      </trkpt>
      <trkpt lat="48.0055" lon="13.6308">
        <ele>449.464103</ele>
        <time>2022-09-12T14:19:37.995Z</time>
      </trkpt>
      <trkpt lat="48.00559" lon="13.63053">
        <ele>449.76969</ele>
        <time>2022-09-12T14:19:46.036Z</time>
      </trkpt>
      <trkpt lat="48.0054" lon="13.6303">
        <ele>449.987166</ele>
        <time>2022-09-12T14:19:55.197Z</time>
      </trkpt>
      <trkpt lat="48.00546" lon="13.63009">
        <ele>450.121661</ele>
        <time>2022-09-12T14:20:00.416Z</time>
      </trkpt>
      <trkpt lat="48.00527" lon="13.62974">
        <ele>450.396156</ele>
        <time>2022-09-12T14:20:10.510Z</time>
      </trkpt>
      <trkpt lat="48.00505" lon="13.62937">
        <ele>450.693369</ele>
        <time>2022-09-12T14:20:20.453Z</time>
      </trkpt>
      <trkpt lat="48.0048" lon="13.62889">
        <ele>451.0629</ele>
        <time>2022-09-12T14:20:31.452Z</time>
      </trkpt>
      <trkpt lat="48.00386" lon="13.62717">
        <ele>450.206876</ele>
        <time>2022-09-12T14:21:08.576Z</time>
      </trkpt>
      <trkpt lat="48.00365" lon="13.62678">
        <ele>449.934912</ele>
        <time>2022-09-12T14:21:16.478Z</time>
      </trkpt>
      <trkpt lat="48.00356" lon="13.62659">
        <ele>449.801714</ele>
        <time>2022-09-12T14:21:20.111Z</time>
      </trkpt>
      <trkpt lat="48.00316" lon="13.62581">
        <ele>449.344376</ele>
        <time>2022-09-12T14:21:35.109Z</time>
      </trkpt>
      <trkpt lat="48.003" lon="13.62555">
        <ele>449.179908</ele>
        <time>2022-09-12T14:21:40.612Z</time>
      </trkpt>
      <trkpt lat="48.00275" lon="13.62537">
        <ele>448.986931</ele>
        <time>2022-09-12T14:21:47.153Z</time>
      </trkpt>
      <trkpt lat="48.00277" lon="13.62556">
        <ele>448.896362</ele>
        <time>2022-09-12T14:21:52.684Z</time>
      </trkpt>
      <trkpt lat="48.00273" lon="13.62558">
        <ele>448.866834</ele>
        <time>2022-09-12T14:21:54.444Z</time>
      </trkpt>
      <trkpt lat="48.00267" lon="13.6256">
        <ele>448.825704</ele>
        <time>2022-09-12T14:21:56.857Z</time>
      </trkpt>
      <trkpt lat="48.00254" lon="13.62516">
        <ele>448.601771</ele>
        <time>2022-09-12T14:22:05.065Z</time>
      </trkpt>
      <trkpt lat="48.00204" lon="13.62422">
        <ele>449.251028</ele>
        <time>2022-09-12T14:22:28.121Z</time>
      </trkpt>
      <trkpt lat="48.00199" lon="13.62413">
        <ele>449.330409</ele>
        <time>2022-09-12T14:22:30.681Z</time>
      </trkpt>
      <trkpt lat="48.00203" lon="13.62402">
        <ele>449.415547</ele>
        <time>2022-09-12T14:22:33.326Z</time>
      </trkpt>
      <trkpt lat="48.002" lon="13.62392">
        <ele>449.48872</ele>
        <time>2022-09-12T14:22:35.682Z</time>
      </trkpt>
      <trkpt lat="48.00191" lon="13.62363">
        <ele>449.711202</ele>
        <time>2022-09-12T14:22:42.834Z</time>
      </trkpt>
      <trkpt lat="48.00181" lon="13.62311">
        <ele>450.078645</ele>
        <time>2022-09-12T14:22:55.212Z</time>
      </trkpt>
      <trkpt lat="48.00146" lon="13.62254">
        <ele>450.755131</ele>
        <time>2022-09-12T14:23:14.364Z</time>
      </trkpt>
      <trkpt lat="48.00116" lon="13.62186">
        <ele>451.639103</ele>
        <time>2022-09-12T14:23:34.458Z</time>
      </trkpt>
      <trkpt lat="48.00108" lon="13.62157">
        <ele>451.974501</ele>
        <time>2022-09-12T14:23:42.062Z</time>
      </trkpt>
      <trkpt lat="48.0003" lon="13.61986">
        <ele>453.854332</ele>
        <time>2022-09-12T14:24:29.719Z</time>
      </trkpt>
      <trkpt lat="47.99955" lon="13.61816">
        <ele>455.115245</ele>
        <time>2022-09-12T14:25:13.055Z</time>
      </trkpt>
      <trkpt lat="47.99923" lon="13.61746">
        <ele>455.405185</ele>
        <time>2022-09-12T14:25:30.195Z</time>
      </trkpt>
      <trkpt lat="47.99899" lon="13.61697">
        <ele>455.613225</ele>
        <time>2022-09-12T14:25:42.358Z</time>
      </trkpt>
      <trkpt lat="47.99862" lon="13.61616">
        <ele>455.947871</ele>
        <time>2022-09-12T14:26:01.740Z</time>
      </trkpt>
      <trkpt lat="47.99798" lon="13.61471">
        <ele>456.292839</ele>
        <time>2022-09-12T14:26:35.736Z</time>
      </trkpt>
      <trkpt lat="47.99786" lon="13.61435">
        <ele>456.3711</ele>
        <time>2022-09-12T14:26:43.492Z</time>
      </trkpt>
      <trkpt lat="47.99779" lon="13.61398">
        <ele>456.444018</ele>
        <time>2022-09-12T14:26:50.814Z</time>
      </trkpt>
      <trkpt lat="47.9974" lon="13.61324">
        <ele>456.759418</ele>
        <time>2022-09-12T14:27:08.622Z</time>
      </trkpt>
      <trkpt lat="47.99712" lon="13.61263">
        <ele>457.039289</ele>
        <time>2022-09-12T14:27:23.118Z</time>
      </trkpt>
      <trkpt lat="47.99684" lon="13.61202">
        <ele>457.320987</ele>
        <time>2022-09-12T14:27:38.211Z</time>
      </trkpt>
      <trkpt lat="47.99673" lon="13.61178">
        <ele>457.432091</ele>
        <time>2022-09-12T14:27:44.054Z</time>
      </trkpt>
      <trkpt lat="47.99613" lon="13.61041">
        <ele>458.052237</ele>
        <time>2022-09-12T14:28:17.126Z</time>
      </trkpt>
      <trkpt lat="47.99551" lon="13.60905">
        <ele>458.571668</ele>
        <time>2022-09-12T14:28:48.827Z</time>
      </trkpt>
      <trkpt lat="47.99547" lon="13.60895">
        <ele>458.584059</ele>
        <time>2022-09-12T14:28:50.942Z</time>
      </trkpt>
      <trkpt lat="47.99496" lon="13.6079">
        <ele>458.72458</ele>
        <time>2022-09-12T14:29:14.362Z</time>
      </trkpt>
      <trkpt lat="47.99459" lon="13.60809">
        <ele>458.786405</ele>
        <time>2022-09-12T14:29:24.827Z</time>
      </trkpt>
      <trkpt lat="47.99423" lon="13.60818">
        <ele>458.897983</ele>
        <time>2022-09-12T14:29:34.899Z</time>
      </trkpt>
      <trkpt lat="47.9939" lon="13.6082">
        <ele>459.053864</ele>
        <time>2022-09-12T14:29:43.875Z</time>
      </trkpt>
      <trkpt lat="47.99384" lon="13.6082">
        <ele>459.080874</ele>
        <time>2022-09-12T14:29:45.459Z</time>
      </trkpt>
      <trkpt lat="47.99342" lon="13.60811">
        <ele>459.283436</ele>
        <time>2022-09-12T14:29:57.826Z</time>
      </trkpt>
      <trkpt lat="47.99294" lon="13.60777">
        <ele>459.534716</ele>
        <time>2022-09-12T14:30:13.785Z</time>
      </trkpt>
      <trkpt lat="47.99267" lon="13.60739">
        <ele>459.697684</ele>
        <time>2022-09-12T14:30:25.212Z</time>
      </trkpt>
      <trkpt lat="47.99253" lon="13.60691">
        <ele>459.806922</ele>
        <time>2022-09-12T14:30:35.802Z</time>
      </trkpt>
      <trkpt lat="47.99257" lon="13.60664">
        <ele>459.864597</ele>
        <time>2022-09-12T14:30:41.295Z</time>
      </trkpt>
      <trkpt lat="47.99253" lon="13.60641">
        <ele>459.912483</ele>
        <time>2022-09-12T14:30:45.789Z</time>
      </trkpt>
      <trkpt lat="47.99246" lon="13.60629">
        <ele>459.945319</ele>
        <time>2022-09-12T14:30:48.672Z</time>
      </trkpt>
      <trkpt lat="47.99195" lon="13.60571">
        <ele>460.14421</ele>
        <time>2022-09-12T14:31:06.402Z</time>
      </trkpt>
      <trkpt lat="47.99166" lon="13.60523">
        <ele>460.229108</ele>
        <time>2022-09-12T14:31:17.947Z</time>
      </trkpt>
      <trkpt lat="47.99142" lon="13.605">
        <ele>460.229883</ele>
        <time>2022-09-12T14:31:25.290Z</time>
      </trkpt>
      <trkpt lat="47.99126" lon="13.60493">
        <ele>460.230351</ele>
        <time>2022-09-12T14:31:29.301Z</time>
      </trkpt>
      <trkpt lat="47.9908" lon="13.60466">
        <ele>460.231689</ele>
        <time>2022-09-12T14:31:41.248Z</time>
      </trkpt>
      <trkpt lat="47.98991" lon="13.60375">
        <ele>461.148784</ele>
        <time>2022-09-12T14:32:12.054Z</time>
      </trkpt>
      <trkpt lat="47.98953" lon="13.60341">
        <ele>462.211656</ele>
        <time>2022-09-12T14:32:28.046Z</time>
      </trkpt>
      <trkpt lat="47.98916" lon="13.60316">
        <ele>463.19032</ele>
        <time>2022-09-12T14:32:44.247Z</time>
      </trkpt>
      <trkpt lat="47.98821" lon="13.6023">
        <ele>466.717091</ele>
        <time>2022-09-12T14:33:35.479Z</time>
      </trkpt>
      <trkpt lat="47.98783" lon="13.60142">
        <ele>469.507006</ele>
        <time>2022-09-12T14:34:08.862Z</time>
      </trkpt>
      <trkpt lat="47.9877" lon="13.60084">
        <ele>471.122721</ele>
        <time>2022-09-12T14:34:27.296Z</time>
      </trkpt>
      <trkpt lat="47.98749" lon="13.5997">
        <ele>473.324129</ele>
        <time>2022-09-12T14:35:00.616Z</time>
      </trkpt>
      <trkpt lat="47.98731" lon="13.59684">
        <ele>477.493999</ele>
        <time>2022-09-12T14:36:10.993Z</time>
      </trkpt>
      <trkpt lat="47.9868" lon="13.59545">
        <ele>479.199681</ele>
        <time>2022-09-12T14:36:46.420Z</time>
      </trkpt>
      <trkpt lat="47.9863" lon="13.59437">
        <ele>479.989187</ele>
        <time>2022-09-12T14:37:13.817Z</time>
      </trkpt>
      <trkpt lat="47.9861" lon="13.59382">
        <ele>480.367316</ele>
        <time>2022-09-12T14:37:26.592Z</time>
      </trkpt>
      <trkpt lat="47.98593" lon="13.59271">
        <ele>480.94838</ele>
        <time>2022-09-12T14:37:49.375Z</time>
      </trkpt>
      <trkpt lat="47.98569" lon="13.59088">
        <ele>481.633056</ele>
        <time>2022-09-12T14:38:25.743Z</time>
      </trkpt>
      <trkpt lat="47.98564" lon="13.58945">
        <ele>482.049144</ele>
        <time>2022-09-12T14:38:53.828Z</time>
      </trkpt>
      <trkpt lat="47.98565" lon="13.58906">
        <ele>482.151189</ele>
        <time>2022-09-12T14:39:01.240Z</time>
      </trkpt>
      <trkpt lat="47.98585" lon="13.58768">
        <ele>482.498091</ele>
        <time>2022-09-12T14:39:27.745Z</time>
      </trkpt>
      <trkpt lat="47.98587" lon="13.5871">
        <ele>482.569151</ele>
        <time>2022-09-12T14:39:38.460Z</time>
      </trkpt>
      <trkpt lat="47.98553" lon="13.58602">
        <ele>482.71252</ele>
        <time>2022-09-12T14:40:00.231Z</time>
      </trkpt>
      <trkpt lat="47.98546" lon="13.58566">
        <ele>482.758353</ele>
        <time>2022-09-12T14:40:07.229Z</time>
      </trkpt>
      <trkpt lat="47.98554" lon="13.58533">
        <ele>482.800742</ele>
        <time>2022-09-12T14:40:13.623Z</time>
      </trkpt>
      <trkpt lat="47.98583" lon="13.58483">
        <ele>483.016965</ele>
        <time>2022-09-12T14:40:25.869Z</time>
      </trkpt>
      <trkpt lat="47.98597" lon="13.5846">
        <ele>483.120181</ele>
        <time>2022-09-12T14:40:31.808Z</time>
      </trkpt>
      <trkpt lat="47.98731" lon="13.58231">
        <ele>484.099055</ele>
        <time>2022-09-12T14:41:32.753Z</time>
      </trkpt>
      <trkpt lat="47.98738" lon="13.58219">
        <ele>484.146484</ele>
        <time>2022-09-12T14:41:35.982Z</time>
      </trkpt>
      <trkpt lat="47.98752" lon="13.58187">
        <ele>484.262556</ele>
        <time>2022-09-12T14:41:44.035Z</time>
      </trkpt>
      <trkpt lat="47.98754" lon="13.58153">
        <ele>484.369003</ele>
        <time>2022-09-12T14:41:51.012Z</time>
      </trkpt>
      <trkpt lat="47.9875" lon="13.58082">
        <ele>484.137579</ele>
        <time>2022-09-12T14:42:03.061Z</time>
      </trkpt>
      <trkpt lat="47.98747" lon="13.58052">
        <ele>483.629633</ele>
        <time>2022-09-12T14:42:07.857Z</time>
      </trkpt>
      <trkpt lat="47.98746" lon="13.58032">
        <ele>483.290062</ele>
        <time>2022-09-12T14:42:11.061Z</time>
      </trkpt>
      <trkpt lat="47.98747" lon="13.57977">
        <ele>482.35744</ele>
        <time>2022-09-12T14:42:19.280Z</time>
      </trkpt>
      <trkpt lat="47.98749" lon="13.57952">
        <ele>481.936201</ele>
        <time>2022-09-12T14:42:22.755Z</time>
      </trkpt>
      <trkpt lat="47.9876" lon="13.5795">
        <ele>481.65515</ele>
        <time>2022-09-12T14:42:24.937Z</time>
      </trkpt>
      <trkpt lat="47.9879" lon="13.57928">
        <ele>480.808198</ele>
        <time>2022-09-12T14:42:31.233Z</time>
      </trkpt>
      <trkpt lat="47.98826" lon="13.57917">
        <ele>479.778915</ele>
        <time>2022-09-12T14:42:37.990Z</time>
      </trkpt>
      <trkpt lat="47.9886" lon="13.57912">
        <ele>478.144094</ele>
        <time>2022-09-12T14:42:43.993Z</time>
      </trkpt>
      <trkpt lat="47.98932" lon="13.57914">
        <ele>474.624696</ele>
        <time>2022-09-12T14:42:56.779Z</time>
      </trkpt>
      <trkpt lat="47.98994" lon="13.57916">
        <ele>471.605957</ele>
        <time>2022-09-12T14:43:08.028Z</time>
      </trkpt>
      <trkpt lat="47.99204" lon="13.57922">
        <ele>466.939041</ele>
        <time>2022-09-12T14:43:51.223Z</time>
      </trkpt>
      <trkpt lat="47.99318" lon="13.57784">
        <ele>467.179721</ele>
        <time>2022-09-12T14:44:35.409Z</time>
      </trkpt>
      <trkpt lat="47.99365" lon="13.57689">
        <ele>467.613331</ele>
        <time>2022-09-12T14:45:00.694Z</time>
      </trkpt>
      <trkpt lat="47.99375" lon="13.57697">
        <ele>467.680103</ele>
        <time>2022-09-12T14:45:03.968Z</time>
      </trkpt>
      <trkpt lat="47.99391" lon="13.57713">
        <ele>467.798239</ele>
        <time>2022-09-12T14:45:13.340Z</time>
      </trkpt>
      <trkpt lat="47.99395" lon="13.57718">
        <ele>467.830607</ele>
        <time>2022-09-12T14:45:14.929Z</time>
      </trkpt>
      <trkpt lat="47.9943" lon="13.57638">
        <ele>468.21747</ele>
        <time>2022-09-12T14:45:32.815Z</time>
      </trkpt>
      <trkpt lat="47.99442" lon="13.57564">
        <ele>468.392001</ele>
        <time>2022-09-12T14:45:46.933Z</time>
      </trkpt>
      <trkpt lat="47.9943" lon="13.5748">
        <ele>468.541293</ele>
        <time>2022-09-12T14:46:02.253Z</time>
      </trkpt>
      <trkpt lat="47.99412" lon="13.57439">
        <ele>468.627294</ele>
        <time>2022-09-12T14:46:11.251Z</time>
      </trkpt>
      <trkpt lat="47.99411" lon="13.57324">
        <ele>468.967122</ele>
        <time>2022-09-12T14:46:33.574Z</time>
      </trkpt>
      <trkpt lat="47.99415" lon="13.57275">
        <ele>469.229497</ele>
        <time>2022-09-12T14:46:43.518Z</time>
      </trkpt>
      <trkpt lat="47.99494" lon="13.56842">
        <ele>471.616426</ele>
        <time>2022-09-12T14:48:16.688Z</time>
      </trkpt>
      <trkpt lat="47.99518" lon="13.5668">
        <ele>471.757702</ele>
        <time>2022-09-12T14:48:46.909Z</time>
      </trkpt>
      <trkpt lat="47.99526" lon="13.56643">
        <ele>471.791052</ele>
        <time>2022-09-12T14:48:53.815Z</time>
      </trkpt>
      <trkpt lat="47.99559" lon="13.56552">
        <ele>471.902001</ele>
        <time>2022-09-12T14:49:11.890Z</time>
      </trkpt>
      <trkpt lat="47.99564" lon="13.56526">
        <ele>471.939827</ele>
        <time>2022-09-12T14:49:16.472Z</time>
      </trkpt>
      <trkpt lat="47.99558" lon="13.56451">
        <ele>472.0474</ele>
        <time>2022-09-12T14:49:30.294Z</time>
      </trkpt>
      <trkpt lat="47.99591" lon="13.56244">
        <ele>472.617342</ele>
        <time>2022-09-12T14:50:11.642Z</time>
      </trkpt>
      <trkpt lat="47.99599" lon="13.56196">
        <ele>472.838731</ele>
        <time>2022-09-12T14:50:21.606Z</time>
      </trkpt>
      <trkpt lat="47.99609" lon="13.56139">
        <ele>473.103255</ele>
        <time>2022-09-12T14:50:33.532Z</time>
      </trkpt>
      <trkpt lat="47.99624" lon="13.56053">
        <ele>473.509504</ele>
        <time>2022-09-12T14:50:51.439Z</time>
      </trkpt>
      <trkpt lat="47.99637" lon="13.55974">
        <ele>473.910018</ele>
        <time>2022-09-12T14:51:07.828Z</time>
      </trkpt>
      <trkpt lat="47.99638" lon="13.55915">
        <ele>474.201555</ele>
        <time>2022-09-12T14:51:19.702Z</time>
      </trkpt>
      <trkpt lat="47.9964" lon="13.55878">
        <ele>474.385983</ele>
        <time>2022-09-12T14:51:27.181Z</time>
      </trkpt>
      <trkpt lat="47.99639" lon="13.55838">
        <ele>474.582868</ele>
        <time>2022-09-12T14:51:35.300Z</time>
      </trkpt>
      <trkpt lat="47.99639" lon="13.55832">
        <ele>474.610486</ele>
        <time>2022-09-12T14:51:36.464Z</time>
      </trkpt>
      <trkpt lat="47.99638" lon="13.5578">
        <ele>474.887182</ele>
        <time>2022-09-12T14:51:47.364Z</time>
      </trkpt>
      <trkpt lat="47.99638" lon="13.55758">
        <ele>475.016892</ele>
        <time>2022-09-12T14:51:52.065Z</time>
      </trkpt>
      <trkpt lat="47.99638" lon="13.55736">
        <ele>475.144285</ele>
        <time>2022-09-12T14:51:56.653Z</time>
      </trkpt>
      <trkpt lat="47.99638" lon="13.55593">
        <ele>475.972345</ele>
        <time>2022-09-12T14:52:26.442Z</time>
      </trkpt>
      <trkpt lat="47.99638" lon="13.55588">
        <ele>476.001889</ele>
        <time>2022-09-12T14:52:27.488Z</time>
      </trkpt>
      <trkpt lat="47.99638" lon="13.55502">
        <ele>476.459622</ele>
        <time>2022-09-12T14:52:44.982Z</time>
      </trkpt>
      <trkpt lat="47.99639" lon="13.55432">
        <ele>476.77773</ele>
        <time>2022-09-12T14:52:58.817Z</time>
      </trkpt>
      <trkpt lat="47.99639" lon="13.55415">
        <ele>476.854971</ele>
        <time>2022-09-12T14:53:02.113Z</time>
      </trkpt>
      <trkpt lat="47.99636" lon="13.55061">
        <ele>478.684842</ele>
        <time>2022-09-12T14:54:12.881Z</time>
      </trkpt>
      <trkpt lat="47.99635" lon="13.55051">
        <ele>478.744755</ele>
        <time>2022-09-12T14:54:15.170Z</time>
      </trkpt>
      <trkpt lat="47.99638" lon="13.54988">
        <ele>479.126161</ele>
        <time>2022-09-12T14:54:29.183Z</time>
      </trkpt>
      <trkpt lat="47.99683" lon="13.54837">
        <ele>480.54836</ele>
        <time>2022-09-12T14:55:05.793Z</time>
      </trkpt>
      <trkpt lat="47.99691" lon="13.54806">
        <ele>480.827249</ele>
        <time>2022-09-12T14:55:13.012Z</time>
      </trkpt>
      <trkpt lat="47.99724" lon="13.54675">
        <ele>481.85633</ele>
        <time>2022-09-12T14:55:43.726Z</time>
      </trkpt>
      <trkpt lat="47.99752" lon="13.54577">
        <ele>482.524266</ele>
        <time>2022-09-12T14:56:05.223Z</time>
      </trkpt>
      <trkpt lat="47.99751" lon="13.54563">
        <ele>482.613244</ele>
        <time>2022-09-12T14:56:08.008Z</time>
      </trkpt>
      <trkpt lat="47.99768" lon="13.5454">
        <ele>482.834315</ele>
        <time>2022-09-12T14:56:15.292Z</time>
      </trkpt>
      <trkpt lat="47.99765" lon="13.54536">
        <ele>482.874013</ele>
        <time>2022-09-12T14:56:16.501Z</time>
      </trkpt>
      <trkpt lat="47.99763" lon="13.54533">
        <ele>482.90145</ele>
        <time>2022-09-12T14:56:17.404Z</time>
      </trkpt>
      <trkpt lat="47.99755" lon="13.54528">
        <ele>482.977315</ele>
        <time>2022-09-12T14:56:19.730Z</time>
      </trkpt>
      <trkpt lat="47.9972" lon="13.54518">
        <ele>483.19852</ele>
        <time>2022-09-12T14:56:30.859Z</time>
      </trkpt>
      <trkpt lat="47.99708" lon="13.54495">
        <ele>483.29824</ele>
        <time>2022-09-12T14:56:37.231Z</time>
      </trkpt>
      <trkpt lat="47.99705" lon="13.54375">
        <ele>483.707533</ele>
        <time>2022-09-12T14:57:01.827Z</time>
      </trkpt>
      <trkpt lat="47.99669" lon="13.5425">
        <ele>483.874226</ele>
        <time>2022-09-12T14:57:25.056Z</time>
      </trkpt>
      <trkpt lat="47.99661" lon="13.5416">
        <ele>483.704475</ele>
        <time>2022-09-12T14:57:40.405Z</time>
      </trkpt>
      <trkpt lat="47.99626" lon="13.54104">
        <ele>483.560997</ele>
        <time>2022-09-12T14:57:52.990Z</time>
      </trkpt>
      <trkpt lat="47.99553" lon="13.53837">
        <ele>483.422565</ele>
        <time>2022-09-12T14:58:43.524Z</time>
      </trkpt>
      <trkpt lat="47.99538" lon="13.53742">
        <ele>483.672432</ele>
        <time>2022-09-12T14:59:02.685Z</time>
      </trkpt>
      <trkpt lat="47.99511" lon="13.5365">
        <ele>484.026139</ele>
        <time>2022-09-12T14:59:22.326Z</time>
      </trkpt>
      <trkpt lat="47.99487" lon="13.53614">
        <ele>484.207883</ele>
        <time>2022-09-12T14:59:32.529Z</time>
      </trkpt>
      <trkpt lat="47.9944" lon="13.53589">
        <ele>484.485656</ele>
        <time>2022-09-12T14:59:47.258Z</time>
      </trkpt>
      <trkpt lat="47.99412" lon="13.5354">
        <ele>484.749497</ele>
        <time>2022-09-12T15:00:00.034Z</time>
      </trkpt>
      <trkpt lat="47.99377" lon="13.53493">
        <ele>485.029656</ele>
        <time>2022-09-12T15:00:13.637Z</time>
      </trkpt>
      <trkpt lat="47.99363" lon="13.53454">
        <ele>485.209982</ele>
        <time>2022-09-12T15:00:22.398Z</time>
      </trkpt>
      <trkpt lat="47.99332" lon="13.53316">
        <ele>485.808432</ele>
        <time>2022-09-12T15:00:51.988Z</time>
      </trkpt>
      <trkpt lat="47.99299" lon="13.53228">
        <ele>486.228289</ele>
        <time>2022-09-12T15:01:12.046Z</time>
      </trkpt>
      <trkpt lat="47.99257" lon="13.53168">
        <ele>486.611753</ele>
        <time>2022-09-12T15:01:29.229Z</time>
      </trkpt>
      <trkpt lat="47.99222" lon="13.53079">
        <ele>487.497763</ele>
        <time>2022-09-12T15:01:48.847Z</time>
      </trkpt>
      <trkpt lat="47.99181" lon="13.53021">
        <ele>488.210287</ele>
        <time>2022-09-12T15:02:06.917Z</time>
      </trkpt>
      <trkpt lat="47.99154" lon="13.52974">
        <ele>488.740445</ele>
        <time>2022-09-12T15:02:21.898Z</time>
      </trkpt>
      <trkpt lat="47.99145" lon="13.52946">
        <ele>489.274946</ele>
        <time>2022-09-12T15:02:30.018Z</time>
      </trkpt>
      <trkpt lat="47.99146" lon="13.52922">
        <ele>489.90576</ele>
        <time>2022-09-12T15:02:36.899Z</time>
      </trkpt>
      <trkpt lat="47.99153" lon="13.52902">
        <ele>490.463829</ele>
        <time>2022-09-12T15:02:42.793Z</time>
      </trkpt>
      <trkpt lat="47.99221" lon="13.52829">
        <ele>493.657209</ele>
        <time>2022-09-12T15:03:20.063Z</time>
      </trkpt>
      <trkpt lat="47.99236" lon="13.52805">
        <ele>494.49293</ele>
        <time>2022-09-12T15:03:30.266Z</time>
      </trkpt>
      <trkpt lat="47.99246" lon="13.52776">
        <ele>495.33544</ele>
        <time>2022-09-12T15:03:41.510Z</time>
      </trkpt>
      <trkpt lat="47.9927" lon="13.52657">
        <ele>499.437079</ele>
        <time>2022-09-12T15:04:26.183Z</time>
      </trkpt>
      <trkpt lat="47.99269" lon="13.52623">
        <ele>500.586108</ele>
        <time>2022-09-12T15:04:38.150Z</time>
      </trkpt>
      <trkpt lat="47.99263" lon="13.526">
        <ele>501.422691</ele>
        <time>2022-09-12T15:04:46.570Z</time>
      </trkpt>
      <trkpt lat="47.99211" lon="13.5251">
        <ele>505.308438</ele>
        <time>2022-09-12T15:05:26.529Z</time>
      </trkpt>
      <trkpt lat="47.99196" lon="13.5248">
        <ele>506.21745</ele>
        <time>2022-09-12T15:05:38.255Z</time>
      </trkpt>
      <trkpt lat="47.99182" lon="13.5245">
        <ele>507.06624</ele>
        <time>2022-09-12T15:05:49.544Z</time>
      </trkpt>
      <trkpt lat="47.99183" lon="13.52426">
        <ele>507.652285</ele>
        <time>2022-09-12T15:05:56.379Z</time>
      </trkpt>
      <trkpt lat="47.99193" lon="13.52404">
        <ele>508.298738</ele>
        <time>2022-09-12T15:06:05.047Z</time>
      </trkpt>
      <trkpt lat="47.99249" lon="13.52334">
        <ele>510.909029</ele>
        <time>2022-09-12T15:06:35.662Z</time>
      </trkpt>
      <trkpt lat="47.99266" lon="13.52302">
        <ele>511.547106</ele>
        <time>2022-09-12T15:06:45.550Z</time>
      </trkpt>
      <trkpt lat="47.99276" lon="13.52248">
        <ele>512.065881</ele>
        <time>2022-09-12T15:06:58.974Z</time>
      </trkpt>
      <trkpt lat="47.99278" lon="13.52175">
        <ele>512.744369</ele>
        <time>2022-09-12T15:07:15.230Z</time>
      </trkpt>
      <trkpt lat="47.99279" lon="13.52027">
        <ele>513.800541</ele>
        <time>2022-09-12T15:07:45.562Z</time>
      </trkpt>
      <trkpt lat="47.99295" lon="13.51975">
        <ele>513.725706</ele>
        <time>2022-09-12T15:07:56.383Z</time>
      </trkpt>
      <trkpt lat="47.99353" lon="13.51865">
        <ele>513.542315</ele>
        <time>2022-09-12T15:08:19.562Z</time>
      </trkpt>
      <trkpt lat="47.99463" lon="13.5169">
        <ele>512.604744</ele>
        <time>2022-09-12T15:08:57.264Z</time>
      </trkpt>
      <trkpt lat="47.99482" lon="13.51641">
        <ele>512.353727</ele>
        <time>2022-09-12T15:09:06.806Z</time>
      </trkpt>
      <trkpt lat="47.995" lon="13.51567">
        <ele>512.518544</ele>
        <time>2022-09-12T15:09:20.859Z</time>
      </trkpt>
      <trkpt lat="47.9951" lon="13.51505">
        <ele>512.73395</ele>
        <time>2022-09-12T15:09:32.904Z</time>
      </trkpt>
      <trkpt lat="47.99511" lon="13.51446">
        <ele>512.933617</ele>
        <time>2022-09-12T15:09:44.784Z</time>
      </trkpt>
      <trkpt lat="47.99503" lon="13.51411">
        <ele>513.054433</ele>
        <time>2022-09-12T15:09:52.269Z</time>
      </trkpt>
      <trkpt lat="47.99473" lon="13.51333">
        <ele>513.695032</ele>
        <time>2022-09-12T15:10:11.895Z</time>
      </trkpt>
      <trkpt lat="47.99463" lon="13.51293">
        <ele>514.154447</ele>
        <time>2022-09-12T15:10:21.522Z</time>
      </trkpt>
      <trkpt lat="47.99454" lon="13.51189">
        <ele>515.265983</ele>
        <time>2022-09-12T15:10:45.340Z</time>
      </trkpt>
      <trkpt lat="47.99458" lon="13.51145">
        <ele>515.735797</ele>
        <time>2022-09-12T15:10:55.876Z</time>
      </trkpt>
      <trkpt lat="47.99464" lon="13.511">
        <ele>516.369977</ele>
        <time>2022-09-12T15:11:07.123Z</time>
      </trkpt>
      <trkpt lat="47.9948" lon="13.51012">
        <ele>518.17247</ele>
        <time>2022-09-12T15:11:31.083Z</time>
      </trkpt>
      <trkpt lat="47.99521" lon="13.50874">
        <ele>521.140838</ele>
        <time>2022-09-12T15:12:13.977Z</time>
      </trkpt>
      <trkpt lat="47.99566" lon="13.50782">
        <ele>523.462202</ele>
        <time>2022-09-12T15:12:47.159Z</time>
      </trkpt>
      <trkpt lat="47.99605" lon="13.50725">
        <ele>525.14515</ele>
        <time>2022-09-12T15:13:10.397Z</time>
      </trkpt>
      <trkpt lat="47.99643" lon="13.50678">
        <ele>526.64522</ele>
        <time>2022-09-12T15:13:30.196Z</time>
      </trkpt>
      <trkpt lat="47.99685" lon="13.50641">
        <ele>527.290718</ele>
        <time>2022-09-12T15:13:48.056Z</time>
      </trkpt>
      <trkpt lat="47.99646" lon="13.50522">
        <ele>528.214684</ele>
        <time>2022-09-12T15:14:16.474Z</time>
      </trkpt>
      <trkpt lat="47.99587" lon="13.5035">
        <ele>528.048552</ele>
        <time>2022-09-12T15:14:49.110Z</time>
      </trkpt>
      <trkpt lat="47.99585" lon="13.50344">
        <ele>528.004162</ele>
        <time>2022-09-12T15:14:50.289Z</time>
      </trkpt>
      <trkpt lat="47.99509" lon="13.50171">
        <ele>526.640057</ele>
        <time>2022-09-12T15:15:21.103Z</time>
      </trkpt>
      <trkpt lat="47.99488" lon="13.50126">
        <ele>526.183744</ele>
        <time>2022-09-12T15:15:29.007Z</time>
      </trkpt>
      <trkpt lat="47.99458" lon="13.50046">
        <ele>525.418092</ele>
        <time>2022-09-12T15:15:42.752Z</time>
      </trkpt>
      <trkpt lat="47.99433" lon="13.49949">
        <ele>524.687353</ele>
        <time>2022-09-12T15:15:59.438Z</time>
      </trkpt>
      <trkpt lat="47.99431" lon="13.49938">
        <ele>524.631096</ele>
        <time>2022-09-12T15:16:01.235Z</time>
      </trkpt>
      <trkpt lat="47.99438" lon="13.49933">
        <ele>524.568054</ele>
        <time>2022-09-12T15:16:03.365Z</time>
      </trkpt>
      <trkpt lat="47.99438" lon="13.49867">
        <ele>524.216307</ele>
        <time>2022-09-12T15:16:15.085Z</time>
      </trkpt>
      <trkpt lat="47.99442" lon="13.49854">
        <ele>524.141246</ele>
        <time>2022-09-12T15:16:17.462Z</time>
      </trkpt>
      <trkpt lat="47.99551" lon="13.4976">
        <ele>522.520871</ele>
        <time>2022-09-12T15:16:47.807Z</time>
      </trkpt>
      <trkpt lat="47.99548" lon="13.49694">
        <ele>521.556828</ele>
        <time>2022-09-12T15:16:57.607Z</time>
      </trkpt>
      <trkpt lat="47.99553" lon="13.49659">
        <ele>521.050342</ele>
        <time>2022-09-12T15:17:02.994Z</time>
      </trkpt>
      <trkpt lat="47.99561" lon="13.4964">
        <ele>520.715863</ele>
        <time>2022-09-12T15:17:06.128Z</time>
      </trkpt>
      <trkpt lat="47.99617" lon="13.49502">
        <ele>517.32207</ele>
        <time>2022-09-12T15:17:28.364Z</time>
      </trkpt>
      <trkpt lat="47.99635" lon="13.49474">
        <ele>516.290641</ele>
        <time>2022-09-12T15:17:33.563Z</time>
      </trkpt>
      <trkpt lat="47.99663" lon="13.49467">
        <ele>515.166434</ele>
        <time>2022-09-12T15:17:39.046Z</time>
      </trkpt>
      <trkpt lat="47.9973" lon="13.49481">
        <ele>512.463468</ele>
        <time>2022-09-12T15:17:51.957Z</time>
      </trkpt>
      <trkpt lat="47.99804" lon="13.49458">
        <ele>509.493599</ele>
        <time>2022-09-12T15:18:06.545Z</time>
      </trkpt>
      <trkpt lat="47.99831" lon="13.49463">
        <ele>508.388582</ele>
        <time>2022-09-12T15:18:11.885Z</time>
      </trkpt>
      <trkpt lat="47.99859" lon="13.49463">
        <ele>507.299676</ele>
        <time>2022-09-12T15:18:17.287Z</time>
      </trkpt>
      <trkpt lat="47.9989" lon="13.49433">
        <ele>505.843573</ele>
        <time>2022-09-12T15:18:24.733Z</time>
      </trkpt>
      <trkpt lat="47.99947" lon="13.49336">
        <ele>503.638436</ele>
        <time>2022-09-12T15:18:44.472Z</time>
      </trkpt>
      <trkpt lat="47.99952" lon="13.49326">
        <ele>503.4379</ele>
        <time>2022-09-12T15:18:46.703Z</time>
      </trkpt>
      <trkpt lat="47.99897" lon="13.49243">
        <ele>501.632768</ele>
        <time>2022-09-12T15:19:02.978Z</time>
      </trkpt>
      <trkpt lat="47.99861" lon="13.49168">
        <ele>499.347898</ele>
        <time>2022-09-12T15:19:15.025Z</time>
      </trkpt>
      <trkpt lat="47.99875" lon="13.49152">
        <ele>498.576118</ele>
        <time>2022-09-12T15:19:18.442Z</time>
      </trkpt>
      <trkpt lat="47.99899" lon="13.49127">
        <ele>497.316923</ele>
        <time>2022-09-12T15:19:23.962Z</time>
      </trkpt>
      <trkpt lat="47.9991" lon="13.49106">
        <ele>496.561845</ele>
        <time>2022-09-12T15:19:27.156Z</time>
      </trkpt>
      <trkpt lat="47.99912" lon="13.49065">
        <ele>495.35426</ele>
        <time>2022-09-12T15:19:32.179Z</time>
      </trkpt>
      <trkpt lat="47.99902" lon="13.49042">
        <ele>494.573051</ele>
        <time>2022-09-12T15:19:35.458Z</time>
      </trkpt>
      <trkpt lat="47.99876" lon="13.49">
        <ele>493.016685</ele>
        <time>2022-09-12T15:19:42.260Z</time>
      </trkpt>
      <trkpt lat="47.9987" lon="13.48964">
        <ele>492.182405</ele>
        <time>2022-09-12T15:19:46.583Z</time>
      </trkpt>
      <trkpt lat="47.99879" lon="13.48933">
        <ele>491.418875</ele>
        <time>2022-09-12T15:19:50.682Z</time>
      </trkpt>
      <trkpt lat="47.99906" lon="13.48912">
        <ele>490.401514</ele>
        <time>2022-09-12T15:19:56.479Z</time>
      </trkpt>
      <trkpt lat="47.99904" lon="13.48888">
        <ele>489.845591</ele>
        <time>2022-09-12T15:19:59.820Z</time>
      </trkpt>
      <trkpt lat="47.99911" lon="13.48886">
        <ele>489.599377</ele>
        <time>2022-09-12T15:20:01.882Z</time>
      </trkpt>
      <trkpt lat="47.99891" lon="13.48586">
        <ele>486.179767</ele>
        <time>2022-09-12T15:20:47.125Z</time>
      </trkpt>
      <trkpt lat="47.99903" lon="13.48523">
        <ele>485.794852</ele>
        <time>2022-09-12T15:20:59.067Z</time>
      </trkpt>
      <trkpt lat="47.99926" lon="13.48466">
        <ele>485.884959</ele>
        <time>2022-09-12T15:21:11.975Z</time>
      </trkpt>
      <trkpt lat="47.99954" lon="13.48411">
        <ele>485.98885</ele>
        <time>2022-09-12T15:21:25.486Z</time>
      </trkpt>
      <trkpt lat="47.99969" lon="13.4838">
        <ele>486.045061</ele>
        <time>2022-09-12T15:21:32.643Z</time>
      </trkpt>
      <trkpt lat="47.99965" lon="13.48378">
        <ele>486.054639</ele>
        <time>2022-09-12T15:21:33.760Z</time>
      </trkpt>
      <trkpt lat="47.99967" lon="13.48375">
        <ele>486.058976</ele>
        <time>2022-09-12T15:21:34.324Z</time>
      </trkpt>
      <trkpt lat="47.99994" lon="13.48325">
        <ele>486.156135</ele>
        <time>2022-09-12T15:21:46.341Z</time>
      </trkpt>
      <trkpt lat="48.00013" lon="13.483">
        <ele>486.199892</ele>
        <time>2022-09-12T15:21:53.038Z</time>
      </trkpt>
      <trkpt lat="48.0003" lon="13.48286">
        <ele>486.220688</ele>
        <time>2022-09-12T15:21:58.329Z</time>
      </trkpt>
      <trkpt lat="48.00071" lon="13.48255">
        <ele>486.270162</ele>
        <time>2022-09-12T15:22:10.461Z</time>
      </trkpt>
      <trkpt lat="48.00106" lon="13.48245">
        <ele>486.30812</ele>
        <time>2022-09-12T15:22:19.991Z</time>
      </trkpt>
      <trkpt lat="48.00138" lon="13.4824">
        <ele>486.342985</ele>
        <time>2022-09-12T15:22:28.929Z</time>
      </trkpt>
      <trkpt lat="48.00148" lon="13.48231">
        <ele>486.35572</ele>
        <time>2022-09-12T15:22:32.125Z</time>
      </trkpt>
      <trkpt lat="48.00144" lon="13.48179">
        <ele>486.417191</ele>
        <time>2022-09-12T15:22:41.645Z</time>
      </trkpt>
      <trkpt lat="48.00141" lon="13.48073">
        <ele>486.660471</ele>
        <time>2022-09-12T15:23:01.553Z</time>
      </trkpt>
      <trkpt lat="48.00141" lon="13.48055">
        <ele>486.700108</ele>
        <time>2022-09-12T15:23:04.922Z</time>
      </trkpt>
      <trkpt lat="48.00145" lon="13.48031">
        <ele>486.757739</ele>
        <time>2022-09-12T15:23:09.785Z</time>
      </trkpt>
      <trkpt lat="48.00146" lon="13.48028">
        <ele>486.764677</ele>
        <time>2022-09-12T15:23:10.362Z</time>
      </trkpt>
      <trkpt lat="48.00155" lon="13.47996">
        <ele>486.843176</ele>
        <time>2022-09-12T15:23:16.947Z</time>
      </trkpt>
      <trkpt lat="48.00166" lon="13.47964">
        <ele>486.926016</ele>
        <time>2022-09-12T15:23:24.055Z</time>
      </trkpt>
      <trkpt lat="48.00169" lon="13.47966">
        <ele>486.938454</ele>
        <time>2022-09-12T15:23:25.107Z</time>
      </trkpt>
      <trkpt lat="48.00225" lon="13.47799">
        <ele>487.389089</ele>
        <time>2022-09-12T15:24:01.118Z</time>
      </trkpt>
      <trkpt lat="48.00235" lon="13.47714">
        <ele>487.60277</ele>
        <time>2022-09-12T15:24:16.975Z</time>
      </trkpt>
      <trkpt lat="48.00229" lon="13.47649">
        <ele>487.752196</ele>
        <time>2022-09-12T15:24:29.075Z</time>
      </trkpt>
      <trkpt lat="48.0022" lon="13.47603">
        <ele>487.861945</ele>
        <time>2022-09-12T15:24:38.419Z</time>
      </trkpt>
      <trkpt lat="48.00205" lon="13.47562">
        <ele>487.96577</ele>
        <time>2022-09-12T15:24:47.423Z</time>
      </trkpt>
      <trkpt lat="48.00138" lon="13.47433">
        <ele>488.361862</ele>
        <time>2022-09-12T15:25:18.066Z</time>
      </trkpt>
      <trkpt lat="48.00124" lon="13.47395">
        <ele>488.500255</ele>
        <time>2022-09-12T15:25:26.322Z</time>
      </trkpt>
      <trkpt lat="48.00105" lon="13.47319">
        <ele>488.761477</ele>
        <time>2022-09-12T15:25:42.419Z</time>
      </trkpt>
      <trkpt lat="48.00095" lon="13.47242">
        <ele>489.01255</ele>
        <time>2022-09-12T15:25:58.186Z</time>
      </trkpt>
      <trkpt lat="48.00094" lon="13.47141">
        <ele>489.34637</ele>
        <time>2022-09-12T15:26:17.259Z</time>
      </trkpt>
      <trkpt lat="48.00096" lon="13.47016">
        <ele>489.772711</ele>
        <time>2022-09-12T15:26:41.650Z</time>
      </trkpt>
      <trkpt lat="48.00097" lon="13.46991">
        <ele>489.858302</ele>
        <time>2022-09-12T15:26:46.556Z</time>
      </trkpt>
      <trkpt lat="48.00097" lon="13.46948">
        <ele>490.002654</ele>
        <time>2022-09-12T15:26:54.893Z</time>
      </trkpt>
      <trkpt lat="48.00098" lon="13.46927">
        <ele>490.094721</ele>
        <time>2022-09-12T15:26:59.078Z</time>
      </trkpt>
      <trkpt lat="48.00102" lon="13.46851">
        <ele>490.478149</ele>
        <time>2022-09-12T15:27:14.118Z</time>
      </trkpt>
      <trkpt lat="48.00112" lon="13.46797">
        <ele>490.75702</ele>
        <time>2022-09-12T15:27:25.192Z</time>
      </trkpt>
      <trkpt lat="48.00116" lon="13.4678">
        <ele>490.846021</ele>
        <time>2022-09-12T15:27:28.715Z</time>
      </trkpt>
      <trkpt lat="48.00174" lon="13.46591">
        <ele>492.194309</ele>
        <time>2022-09-12T15:28:24.826Z</time>
      </trkpt>
      <trkpt lat="48.00185" lon="13.46468">
        <ele>493.181975</ele>
        <time>2022-09-12T15:28:58.929Z</time>
      </trkpt>
      <trkpt lat="48.00205" lon="13.46357">
        <ele>494.095081</ele>
        <time>2022-09-12T15:29:30.634Z</time>
      </trkpt>
      <trkpt lat="48.0021" lon="13.46279">
        <ele>494.709272</ele>
        <time>2022-09-12T15:29:52.224Z</time>
      </trkpt>
      <trkpt lat="48.00218" lon="13.46105">
        <ele>495.904565</ele>
        <time>2022-09-12T15:30:38.756Z</time>
      </trkpt>
      <trkpt lat="48.00213" lon="13.46101">
        <ele>495.947987</ele>
        <time>2022-09-12T15:30:41.419Z</time>
      </trkpt>
      <trkpt lat="48.00163" lon="13.46091">
        <ele>496.313175</ele>
        <time>2022-09-12T15:30:57.915Z</time>
      </trkpt>
      <trkpt lat="48.001" lon="13.46063">
        <ele>496.793721</ele>
        <time>2022-09-12T15:31:17.997Z</time>
      </trkpt>
      <trkpt lat="48.00078" lon="13.46054">
        <ele>496.926427</ele>
        <time>2022-09-12T15:31:24.502Z</time>
      </trkpt>
      <trkpt lat="48.00057" lon="13.46051">
        <ele>496.804488</ele>
        <time>2022-09-12T15:31:30.386Z</time>
      </trkpt>
      <trkpt lat="48.00033" lon="13.46061">
        <ele>496.660124</ele>
        <time>2022-09-12T15:31:37.332Z</time>
      </trkpt>
      <trkpt lat="47.99991" lon="13.46089">
        <ele>496.39817</ele>
        <time>2022-09-12T15:31:48.277Z</time>
      </trkpt>
      <trkpt lat="47.9995" lon="13.46108">
        <ele>496.148763</ele>
        <time>2022-09-12T15:31:59.195Z</time>
      </trkpt>
      <trkpt lat="47.99911" lon="13.46142">
        <ele>495.887424</ele>
        <time>2022-09-12T15:32:10.466Z</time>
      </trkpt>
      <trkpt lat="47.99874" lon="13.46163">
        <ele>495.586519</ele>
        <time>2022-09-12T15:32:19.743Z</time>
      </trkpt>
      <trkpt lat="47.99818" lon="13.46163">
        <ele>495.159736</ele>
        <time>2022-09-12T15:32:33.414Z</time>
      </trkpt>
      <trkpt lat="47.99779" lon="13.46144">
        <ele>494.854125</ele>
        <time>2022-09-12T15:32:43.291Z</time>
      </trkpt>
      <trkpt lat="47.99773" lon="13.46141">
        <ele>494.802895</ele>
        <time>2022-09-12T15:32:44.952Z</time>
      </trkpt>
      <trkpt lat="47.99696" lon="13.46091">
        <ele>494.835861</ele>
        <time>2022-09-12T15:33:07.887Z</time>
      </trkpt>
      <trkpt lat="47.99633" lon="13.46039">
        <ele>495.256337</ele>
        <time>2022-09-12T15:33:30.089Z</time>
      </trkpt>
      <trkpt lat="47.99358" lon="13.45859">
        <ele>498.5618</ele>
        <time>2022-09-12T15:35:12.453Z</time>
      </trkpt>
      <trkpt lat="47.99312" lon="13.45806">
        <ele>499.119958</ele>
        <time>2022-09-12T15:35:31.083Z</time>
      </trkpt>
      <trkpt lat="47.99256" lon="13.45722">
        <ele>499.796193</ele>
        <time>2022-09-12T15:35:56.101Z</time>
      </trkpt>
      <trkpt lat="47.99134" lon="13.45587">
        <ele>500.537761</ele>
        <time>2022-09-12T15:36:41.441Z</time>
      </trkpt>
      <trkpt lat="47.9911" lon="13.45585">
        <ele>500.671419</ele>
        <time>2022-09-12T15:36:48.892Z</time>
      </trkpt>
      <trkpt lat="47.9911" lon="13.4557">
        <ele>500.731335</ele>
        <time>2022-09-12T15:36:53.384Z</time>
      </trkpt>
      <trkpt lat="47.99116" lon="13.45548">
        <ele>500.826852</ele>
        <time>2022-09-12T15:37:01.081Z</time>
      </trkpt>
      <trkpt lat="47.99145" lon="13.45483">
        <ele>501.133141</ele>
        <time>2022-09-12T15:37:25.429Z</time>
      </trkpt>
      <trkpt lat="47.99144" lon="13.45469">
        <ele>501.190881</ele>
        <time>2022-09-12T15:37:30.037Z</time>
      </trkpt>
      <trkpt lat="47.99099" lon="13.45462">
        <ele>501.458836</ele>
        <time>2022-09-12T15:37:51.730Z</time>
      </trkpt>
      <trkpt lat="47.99048" lon="13.45433">
        <ele>501.875802</ele>
        <time>2022-09-12T15:38:17.584Z</time>
      </trkpt>
      <trkpt lat="47.99014" lon="13.45404">
        <ele>502.266812</ele>
        <time>2022-09-12T15:38:36.930Z</time>
      </trkpt>
      <trkpt lat="47.98998" lon="13.4537">
        <ele>502.53988</ele>
        <time>2022-09-12T15:38:50.635Z</time>
      </trkpt>
      <trkpt lat="47.98977" lon="13.45297">
        <ele>503.061859</ele>
        <time>2022-09-12T15:39:16.898Z</time>
      </trkpt>
      <trkpt lat="47.98968" lon="13.45207">
        <ele>503.677319</ele>
        <time>2022-09-12T15:39:47.597Z</time>
      </trkpt>
      <trkpt lat="47.9895" lon="13.45124">
        <ele>504.282675</ele>
        <time>2022-09-12T15:40:16.662Z</time>
      </trkpt>
      <trkpt lat="47.98947" lon="13.45057">
        <ele>504.746942</ele>
        <time>2022-09-12T15:40:38.274Z</time>
      </trkpt>
      <trkpt lat="47.98936" lon="13.44977">
        <ele>505.357059</ele>
        <time>2022-09-12T15:41:04.207Z</time>
      </trkpt>
      <trkpt lat="47.98935" lon="13.44929">
        <ele>506.107953</ele>
        <time>2022-09-12T15:41:20.884Z</time>
      </trkpt>
      <trkpt lat="47.98942" lon="13.44822">
        <ele>507.773747</ele>
        <time>2022-09-12T15:42:00.832Z</time>
      </trkpt>
      <trkpt lat="47.98942" lon="13.44767">
        <ele>508.633169</ele>
        <time>2022-09-12T15:42:15.470Z</time>
      </trkpt>
      <trkpt lat="47.98987" lon="13.447">
        <ele>510.411666</ele>
        <time>2022-09-12T15:42:43.288Z</time>
      </trkpt>
      <trkpt lat="47.9902" lon="13.44628">
        <ele>512.411102</ele>
        <time>2022-09-12T15:43:09.473Z</time>
      </trkpt>
      <trkpt lat="47.99029" lon="13.44618">
        <ele>512.789254</ele>
        <time>2022-09-12T15:43:14.521Z</time>
      </trkpt>
      <trkpt lat="47.99029" lon="13.44611">
        <ele>512.952073</ele>
        <time>2022-09-12T15:43:16.802Z</time>
      </trkpt>
      <trkpt lat="47.99031" lon="13.44596">
        <ele>513.314707</ele>
        <time>2022-09-12T15:43:21.493Z</time>
      </trkpt>
      <trkpt lat="47.99041" lon="13.44562">
        <ele>514.14936</ele>
        <time>2022-09-12T15:43:32.969Z</time>
      </trkpt>
      <trkpt lat="47.99083" lon="13.44486">
        <ele>516.274522</ele>
        <time>2022-09-12T15:44:01.060Z</time>
      </trkpt>
      <trkpt lat="47.99112" lon="13.44409">
        <ele>517.971767</ele>
        <time>2022-09-12T15:44:26.437Z</time>
      </trkpt>
      <trkpt lat="47.9912" lon="13.44382">
        <ele>518.549141</ele>
        <time>2022-09-12T15:44:35.072Z</time>
      </trkpt>
      <trkpt lat="47.99127" lon="13.4432">
        <ele>519.748777</ele>
        <time>2022-09-12T15:44:51.463Z</time>
      </trkpt>
      <trkpt lat="47.99138" lon="13.44291">
        <ele>520.38763</ele>
        <time>2022-09-12T15:45:00.610Z</time>
      </trkpt>
      <trkpt lat="47.99153" lon="13.44269">
        <ele>520.943687</ele>
        <time>2022-09-12T15:45:08.915Z</time>
      </trkpt>
      <trkpt lat="47.99174" lon="13.44222">
        <ele>521.762778</ele>
        <time>2022-09-12T15:45:23.736Z</time>
      </trkpt>
      <trkpt lat="47.99239" lon="13.43958">
        <ele>526.236207</ele>
        <time>2022-09-12T15:46:34.926Z</time>
      </trkpt>
      <trkpt lat="47.99259" lon="13.43928">
        <ele>527.046424</ele>
        <time>2022-09-12T15:46:45.919Z</time>
      </trkpt>
      <trkpt lat="47.99315" lon="13.43887">
        <ele>528.806917</ele>
        <time>2022-09-12T15:47:12.280Z</time>
      </trkpt>
      <trkpt lat="47.99339" lon="13.43862">
        <ele>529.636552</ele>
        <time>2022-09-12T15:47:25.372Z</time>
      </trkpt>
      <trkpt lat="47.99357" lon="13.43806">
        <ele>531.57248</ele>
        <time>2022-09-12T15:47:44.590Z</time>
      </trkpt>
      <trkpt lat="47.99361" lon="13.43791">
        <ele>532.107935</ele>
        <time>2022-09-12T15:47:49.649Z</time>
      </trkpt>
      <trkpt lat="47.99382" lon="13.43737">
        <ele>534.162252</ele>
        <time>2022-09-12T15:48:11.767Z</time>
      </trkpt>
      <trkpt lat="47.99409" lon="13.43705">
        <ele>535.876049</ele>
        <time>2022-09-12T15:48:30.435Z</time>
      </trkpt>
      <trkpt lat="47.9947" lon="13.43652">
        <ele>539.453838</ele>
        <time>2022-09-12T15:49:08.536Z</time>
      </trkpt>
      <trkpt lat="47.99479" lon="13.43635">
        <ele>540.370981</ele>
        <time>2022-09-12T15:49:17.427Z</time>
      </trkpt>
      <trkpt lat="47.99482" lon="13.43609">
        <ele>541.400464</ele>
        <time>2022-09-12T15:49:26.524Z</time>
      </trkpt>
      <trkpt lat="47.9947" lon="13.4351">
        <ele>545.440945</ele>
        <time>2022-09-12T15:50:03.748Z</time>
      </trkpt>
      <trkpt lat="47.99476" lon="13.43474">
        <ele>546.899373</ele>
        <time>2022-09-12T15:50:18.254Z</time>
      </trkpt>
      <trkpt lat="47.99525" lon="13.43353">
        <ele>551.893901</ele>
        <time>2022-09-12T15:51:15.257Z</time>
      </trkpt>
      <trkpt lat="47.99576" lon="13.43204">
        <ele>557.146438</ele>
        <time>2022-09-12T15:52:10.743Z</time>
      </trkpt>
      <trkpt lat="47.99544" lon="13.43189">
        <ele>557.867209</ele>
        <time>2022-09-12T15:52:24.272Z</time>
      </trkpt>
      <trkpt lat="47.9945" lon="13.43142">
        <ele>557.941606</ele>
        <time>2022-09-12T15:52:54.052Z</time>
      </trkpt>
      <trkpt lat="47.99376" lon="13.4309">
        <ele>557.680292</ele>
        <time>2022-09-12T15:53:11.713Z</time>
      </trkpt>
      <trkpt lat="47.99261" lon="13.43043">
        <ele>555.779645</ele>
        <time>2022-09-12T15:53:38.136Z</time>
      </trkpt>
      <trkpt lat="47.9925" lon="13.43036">
        <ele>555.600738</ele>
        <time>2022-09-12T15:53:40.910Z</time>
      </trkpt>
      <trkpt lat="47.99217" lon="13.42996">
        <ele>555.197697</ele>
        <time>2022-09-12T15:53:51.895Z</time>
      </trkpt>
      <trkpt lat="47.99183" lon="13.4291">
        <ele>555.500641</ele>
        <time>2022-09-12T15:54:11.984Z</time>
      </trkpt>
      <trkpt lat="47.99163" lon="13.42864">
        <ele>555.667129</ele>
        <time>2022-09-12T15:54:24.135Z</time>
      </trkpt>
      <trkpt lat="47.99119" lon="13.42799">
        <ele>555.945227</ele>
        <time>2022-09-12T15:54:44.438Z</time>
      </trkpt>
      <trkpt lat="47.99045" lon="13.4269">
        <ele>555.200368</ele>
        <time>2022-09-12T15:55:14.270Z</time>
      </trkpt>
      <trkpt lat="47.99043" lon="13.42678">
        <ele>555.138647</ele>
        <time>2022-09-12T15:55:16.225Z</time>
      </trkpt>
      <trkpt lat="47.98987" lon="13.42664">
        <ele>554.727334</ele>
        <time>2022-09-12T15:55:29.291Z</time>
      </trkpt>
      <trkpt lat="47.98913" lon="13.42663">
        <ele>551.127645</ele>
        <time>2022-09-12T15:55:44.503Z</time>
      </trkpt>
      <trkpt lat="47.98903" lon="13.42641">
        <ele>550.129164</ele>
        <time>2022-09-12T15:55:47.740Z</time>
      </trkpt>
      <trkpt lat="47.98889" lon="13.42492">
        <ele>544.432763</ele>
        <time>2022-09-12T15:56:05.816Z</time>
      </trkpt>
      <trkpt lat="47.98869" lon="13.42445">
        <ele>541.739585</ele>
        <time>2022-09-12T15:56:12.343Z</time>
      </trkpt>
      <trkpt lat="47.98831" lon="13.42409">
        <ele>538.475414</ele>
        <time>2022-09-12T15:56:20.221Z</time>
      </trkpt>
      <trkpt lat="47.9882" lon="13.42398">
        <ele>537.512499</ele>
        <time>2022-09-12T15:56:22.596Z</time>
      </trkpt>
      <trkpt lat="47.98802" lon="13.42377">
        <ele>535.885994</ele>
        <time>2022-09-12T15:56:26.579Z</time>
      </trkpt>
      <trkpt lat="47.98781" lon="13.42332">
        <ele>533.216943</ele>
        <time>2022-09-12T15:56:33.173Z</time>
      </trkpt>
      <trkpt lat="47.98744" lon="13.42303">
        <ele>531.154676</ele>
        <time>2022-09-12T15:56:40.784Z</time>
      </trkpt>
      <trkpt lat="47.98726" lon="13.42295">
        <ele>530.805208</ele>
        <time>2022-09-12T15:56:44.564Z</time>
      </trkpt>
      <trkpt lat="47.98705" lon="13.42291">
        <ele>530.399276</ele>
        <time>2022-09-12T15:56:48.982Z</time>
      </trkpt>
      <trkpt lat="47.98699" lon="13.42289">
        <ele>530.300253</ele>
        <time>2022-09-12T15:56:50.177Z</time>
      </trkpt>
      <trkpt lat="47.98694" lon="13.42287">
        <ele>530.201229</ele>
        <time>2022-09-12T15:56:51.321Z</time>
      </trkpt>
      <trkpt lat="47.9868" lon="13.42279">
        <ele>529.92707</ele>
        <time>2022-09-12T15:56:54.444Z</time>
      </trkpt>
      <trkpt lat="47.98691" lon="13.42222">
        <ele>529.17975</ele>
        <time>2022-09-12T15:57:04.310Z</time>
      </trkpt>
      <trkpt lat="47.98676" lon="13.42217">
        <ele>528.895676</ele>
        <time>2022-09-12T15:57:08.305Z</time>
      </trkpt>
      <trkpt lat="47.98579" lon="13.42224">
        <ele>529.280637</ele>
        <time>2022-09-12T15:57:42.147Z</time>
      </trkpt>
      <trkpt lat="47.98564" lon="13.42116">
        <ele>530.756514</ele>
        <time>2022-09-12T15:58:09.843Z</time>
      </trkpt>
      <trkpt lat="47.98548" lon="13.41939">
        <ele>533.789762</ele>
        <time>2022-09-12T15:58:56.878Z</time>
      </trkpt>
      <trkpt lat="47.98542" lon="13.4187">
        <ele>535.156014</ele>
        <time>2022-09-12T15:59:16.821Z</time>
      </trkpt>
      <trkpt lat="47.98541" lon="13.4186">
        <ele>535.347398</ele>
        <time>2022-09-12T15:59:19.489Z</time>
      </trkpt>
      <trkpt lat="47.98533" lon="13.41805">
        <ele>536.443872</ele>
        <time>2022-09-12T15:59:35.454Z</time>
      </trkpt>
      <trkpt lat="47.98528" lon="13.4177">
        <ele>537.109386</ele>
        <time>2022-09-12T15:59:45.337Z</time>
      </trkpt>
      <trkpt lat="47.98518" lon="13.41702">
        <ele>538.173241</ele>
        <time>2022-09-12T16:00:03.359Z</time>
      </trkpt>
      <trkpt lat="47.98508" lon="13.41673">
        <ele>538.670178</ele>
        <time>2022-09-12T16:00:11.903Z</time>
      </trkpt>
      <trkpt lat="47.9846" lon="13.41616">
        <ele>540.082967</ele>
        <time>2022-09-12T16:00:34.937Z</time>
      </trkpt>
      <trkpt lat="47.98444" lon="13.41584">
        <ele>540.703019</ele>
        <time>2022-09-12T16:00:44.989Z</time>
      </trkpt>
      <trkpt lat="47.98438" lon="13.41553">
        <ele>541.125912</ele>
        <time>2022-09-12T16:00:52.799Z</time>
      </trkpt>
      <trkpt lat="47.98437" lon="13.41505">
        <ele>541.138414</ele>
        <time>2022-09-12T16:01:03.481Z</time>
      </trkpt>
      <trkpt lat="47.98437" lon="13.41472">
        <ele>541.147126</ele>
        <time>2022-09-12T16:01:10.162Z</time>
      </trkpt>
      <trkpt lat="47.98438" lon="13.41415">
        <ele>541.161943</ele>
        <time>2022-09-12T16:01:20.512Z</time>
      </trkpt>
      <trkpt lat="47.98438" lon="13.41385">
        <ele>541.169797</ele>
        <time>2022-09-12T16:01:25.537Z</time>
      </trkpt>
      <trkpt lat="47.98438" lon="13.41374">
        <ele>541.172485</ele>
        <time>2022-09-12T16:01:27.238Z</time>
      </trkpt>
      <trkpt lat="47.98439" lon="13.41346">
        <ele>541.180035</ele>
        <time>2022-09-12T16:01:31.867Z</time>
      </trkpt>
      <trkpt lat="47.98443" lon="13.41295">
        <ele>541.193163</ele>
        <time>2022-09-12T16:01:39.669Z</time>
      </trkpt>
      <trkpt lat="47.98437" lon="13.41294">
        <ele>541.159564</ele>
        <time>2022-09-12T16:01:41.079Z</time>
      </trkpt>
      <trkpt lat="47.98472" lon="13.41035">
        <ele>538.050001</ele>
        <time>2022-09-12T16:02:20.180Z</time>
      </trkpt>
      <trkpt lat="47.98513" lon="13.40529">
        <ele>533.052751</ele>
        <time>2022-09-12T16:03:40.325Z</time>
      </trkpt>
      <trkpt lat="47.98526" lon="13.40468">
        <ele>532.276533</ele>
        <time>2022-09-12T16:03:49.487Z</time>
      </trkpt>
      <trkpt lat="47.98537" lon="13.40437">
        <ele>531.78705</ele>
        <time>2022-09-12T16:03:54.378Z</time>
      </trkpt>
      <trkpt lat="47.98561" lon="13.40377">
        <ele>530.800345</ele>
        <time>2022-09-12T16:04:04.663Z</time>
      </trkpt>
      <trkpt lat="47.98584" lon="13.40335">
        <ele>530.058299</ele>
        <time>2022-09-12T16:04:12.322Z</time>
      </trkpt>
      <trkpt lat="47.9859" lon="13.40324">
        <ele>529.843182</ele>
        <time>2022-09-12T16:04:14.511Z</time>
      </trkpt>
      <trkpt lat="47.98615" lon="13.40289">
        <ele>529.135267</ele>
        <time>2022-09-12T16:04:21.954Z</time>
      </trkpt>
      <trkpt lat="47.98621" lon="13.40278">
        <ele>529.00171</ele>
        <time>2022-09-12T16:04:24.026Z</time>
      </trkpt>
      <trkpt lat="47.98694" lon="13.40174">
        <ele>528.867963</ele>
        <time>2022-09-12T16:04:49.893Z</time>
      </trkpt>
      <trkpt lat="47.98748" lon="13.40099">
        <ele>528.770117</ele>
        <time>2022-09-12T16:05:12.763Z</time>
      </trkpt>
      <trkpt lat="47.9879" lon="13.40036">
        <ele>529.906378</ele>
        <time>2022-09-12T16:05:34.215Z</time>
      </trkpt>
      <trkpt lat="47.98821" lon="13.39975">
        <ele>530.90948</ele>
        <time>2022-09-12T16:05:53.455Z</time>
      </trkpt>
      <trkpt lat="47.9884" lon="13.39923">
        <ele>531.688731</ele>
        <time>2022-09-12T16:06:08.943Z</time>
      </trkpt>
      <trkpt lat="47.98857" lon="13.39855">
        <ele>532.657206</ele>
        <time>2022-09-12T16:06:28.473Z</time>
      </trkpt>
      <trkpt lat="47.98892" lon="13.39614">
        <ele>535.967574</ele>
        <time>2022-09-12T16:07:31.936Z</time>
      </trkpt>
      <trkpt lat="47.98889" lon="13.39562">
        <ele>535.918541</ele>
        <time>2022-09-12T16:07:42.980Z</time>
      </trkpt>
      <trkpt lat="47.98862" lon="13.39429">
        <ele>535.787158</ele>
        <time>2022-09-12T16:08:07.380Z</time>
      </trkpt>
      <trkpt lat="47.98853" lon="13.39385">
        <ele>535.743233</ele>
        <time>2022-09-12T16:08:14.921Z</time>
      </trkpt>
      <trkpt lat="47.98844" lon="13.39341">
        <ele>535.552363</ele>
        <time>2022-09-12T16:08:22.067Z</time>
      </trkpt>
      <trkpt lat="47.98818" lon="13.39281">
        <ele>534.904502</ele>
        <time>2022-09-12T16:08:32.902Z</time>
      </trkpt>
      <trkpt lat="47.98801" lon="13.39152">
        <ele>533.70764</ele>
        <time>2022-09-12T16:08:52.815Z</time>
      </trkpt>
      <trkpt lat="47.98793" lon="13.39112">
        <ele>533.324686</ele>
        <time>2022-09-12T16:08:59.529Z</time>
      </trkpt>
      <trkpt lat="47.98784" lon="13.39097">
        <ele>533.270949</ele>
        <time>2022-09-12T16:09:02.854Z</time>
      </trkpt>
      <trkpt lat="47.98737" lon="13.39128">
        <ele>533.288412</ele>
        <time>2022-09-12T16:09:15.997Z</time>
      </trkpt>
      <trkpt lat="47.98731" lon="13.39132">
        <ele>533.29035</ele>
        <time>2022-09-12T16:09:17.485Z</time>
      </trkpt>
      <trkpt lat="47.98673" lon="13.39169">
        <ele>533.311619</ele>
        <time>2022-09-12T16:09:34.787Z</time>
      </trkpt>
      <trkpt lat="47.98552" lon="13.39203">
        <ele>534.25699</ele>
        <time>2022-09-12T16:10:13.235Z</time>
      </trkpt>
      <trkpt lat="47.98524" lon="13.392">
        <ele>534.605884</ele>
        <time>2022-09-12T16:10:22.457Z</time>
      </trkpt>
      <trkpt lat="47.98504" lon="13.39188">
        <ele>534.876366</ele>
        <time>2022-09-12T16:10:29.370Z</time>
      </trkpt>
      <trkpt lat="47.98483" lon="13.39163">
        <ele>535.216954</ele>
        <time>2022-09-12T16:10:38.431Z</time>
      </trkpt>
      <trkpt lat="47.98437" lon="13.39053">
        <ele>536.494884</ele>
        <time>2022-09-12T16:11:09.020Z</time>
      </trkpt>
      <trkpt lat="47.98365" lon="13.38924">
        <ele>538.273696</ele>
        <time>2022-09-12T16:11:47.710Z</time>
      </trkpt>
      <trkpt lat="47.98258" lon="13.38732">
        <ele>540.269391</ele>
        <time>2022-09-12T16:12:41.707Z</time>
      </trkpt>
      <trkpt lat="47.98232" lon="13.38704">
        <ele>540.666404</ele>
        <time>2022-09-12T16:12:51.682Z</time>
      </trkpt>
      <trkpt lat="47.98167" lon="13.38686">
        <ele>541.620098</ele>
        <time>2022-09-12T16:13:12.942Z</time>
      </trkpt>
      <trkpt lat="47.98155" lon="13.38684">
        <ele>541.785099</ele>
        <time>2022-09-12T16:13:16.712Z</time>
      </trkpt>
      <trkpt lat="47.97979" lon="13.38652">
        <ele>545.017453</ele>
        <time>2022-09-12T16:14:18.919Z</time>
      </trkpt>
      <trkpt lat="47.9789" lon="13.38628">
        <ele>547.035967</ele>
        <time>2022-09-12T16:14:55.544Z</time>
      </trkpt>
      <trkpt lat="47.97879" lon="13.38628">
        <ele>547.229102</ele>
        <time>2022-09-12T16:14:59.915Z</time>
      </trkpt>
      <trkpt lat="47.97801" lon="13.38631">
        <ele>548.338154</ele>
        <time>2022-09-12T16:15:28.272Z</time>
      </trkpt>
      <trkpt lat="47.97765" lon="13.38624">
        <ele>548.853536</ele>
        <time>2022-09-12T16:15:39.891Z</time>
      </trkpt>
      <trkpt lat="47.97726" lon="13.386">
        <ele>549.445277</ele>
        <time>2022-09-12T16:15:52.408Z</time>
      </trkpt>
      <trkpt lat="47.97694" lon="13.3856">
        <ele>549.721413</ele>
        <time>2022-09-12T16:16:04.516Z</time>
      </trkpt>
      <trkpt lat="47.97659" lon="13.38514">
        <ele>549.772846</ele>
        <time>2022-09-12T16:16:16.579Z</time>
      </trkpt>
      <trkpt lat="47.97653" lon="13.38506">
        <ele>549.782232</ele>
        <time>2022-09-12T16:16:18.763Z</time>
      </trkpt>
      <trkpt lat="47.97608" lon="13.3845">
        <ele>549.846912</ele>
        <time>2022-09-12T16:16:34.049Z</time>
      </trkpt>
      <trkpt lat="47.97573" lon="13.38424">
        <ele>549.889928</ele>
        <time>2022-09-12T16:16:44.370Z</time>
      </trkpt>
      <trkpt lat="47.97554" lon="13.38418">
        <ele>549.996361</ele>
        <time>2022-09-12T16:16:49.643Z</time>
      </trkpt>
      <trkpt lat="47.97473" lon="13.38422">
        <ele>550.512923</ele>
        <time>2022-09-12T16:17:13.562Z</time>
      </trkpt>
      <trkpt lat="47.97368" lon="13.38437">
        <ele>551.239736</ele>
        <time>2022-09-12T16:17:46.605Z</time>
      </trkpt>
      <trkpt lat="47.9727" lon="13.38448">
        <ele>552.083107</ele>
        <time>2022-09-12T16:18:15.638Z</time>
      </trkpt>
      <trkpt lat="47.97246" lon="13.38448">
        <ele>552.289906</ele>
        <time>2022-09-12T16:18:23.156Z</time>
      </trkpt>
      <trkpt lat="47.97153" lon="13.38422">
        <ele>553.371795</ele>
        <time>2022-09-12T16:18:54.213Z</time>
      </trkpt>
      <trkpt lat="47.97122" lon="13.38408">
        <ele>553.792024</ele>
        <time>2022-09-12T16:19:05.309Z</time>
      </trkpt>
      <trkpt lat="47.96984" lon="13.38334">
        <ele>555.677886</ele>
        <time>2022-09-12T16:19:53.635Z</time>
      </trkpt>
      <trkpt lat="47.96894" lon="13.38265">
        <ele>556.956896</ele>
        <time>2022-09-12T16:20:26.017Z</time>
      </trkpt>
      <trkpt lat="47.96676" lon="13.38061">
        <ele>560.647827</ele>
        <time>2022-09-12T16:21:51.950Z</time>
      </trkpt>
      <trkpt lat="47.96635" lon="13.38022">
        <ele>561.444444</ele>
        <time>2022-09-12T16:22:09.337Z</time>
      </trkpt>
      <trkpt lat="47.96567" lon="13.37959">
        <ele>562.730471</ele>
        <time>2022-09-12T16:22:37.432Z</time>
      </trkpt>
      <trkpt lat="47.96499" lon="13.3787">
        <ele>563.90394</ele>
        <time>2022-09-12T16:23:08.366Z</time>
      </trkpt>
      <trkpt lat="47.96439" lon="13.37755">
        <ele>565.145263</ele>
        <time>2022-09-12T16:23:38.956Z</time>
      </trkpt>
      <trkpt lat="47.96405" lon="13.37648">
        <ele>566.052032</ele>
        <time>2022-09-12T16:24:03.615Z</time>
      </trkpt>
      <trkpt lat="47.9639" lon="13.37587">
        <ele>566.546632</ele>
        <time>2022-09-12T16:24:17.496Z</time>
      </trkpt>
      <trkpt lat="47.96386" lon="13.37573">
        <ele>566.665381</ele>
        <time>2022-09-12T16:24:21.096Z</time>
      </trkpt>
      <trkpt lat="47.96362" lon="13.37479">
        <ele>567.846771</ele>
        <time>2022-09-12T16:24:43.883Z</time>
      </trkpt>
      <trkpt lat="47.96331" lon="13.37396">
        <ele>569.308072</ele>
        <time>2022-09-12T16:25:06.209Z</time>
      </trkpt>
      <trkpt lat="47.96338" lon="13.37372">
        <ele>569.720244</ele>
        <time>2022-09-12T16:25:13.964Z</time>
      </trkpt>
      <trkpt lat="47.96336" lon="13.37287">
        <ele>571.024709</ele>
        <time>2022-09-12T16:25:37.869Z</time>
      </trkpt>
      <trkpt lat="47.96341" lon="13.37219">
        <ele>572.422654</ele>
        <time>2022-09-12T16:25:57.626Z</time>
      </trkpt>
      <trkpt lat="47.96363" lon="13.37153">
        <ele>573.998436</ele>
        <time>2022-09-12T16:26:19.540Z</time>
      </trkpt>
      <trkpt lat="47.96345" lon="13.37086">
        <ele>575.542475</ele>
        <time>2022-09-12T16:26:39.762Z</time>
      </trkpt>
      <trkpt lat="47.96339" lon="13.37044">
        <ele>576.452946</ele>
        <time>2022-09-12T16:26:52.322Z</time>
      </trkpt>
      <trkpt lat="47.96331" lon="13.37021">
        <ele>576.997171</ele>
        <time>2022-09-12T16:26:59.879Z</time>
      </trkpt>
      <trkpt lat="47.96305" lon="13.36929">
        <ele>578.804197</ele>
        <time>2022-09-12T16:27:29.121Z</time>
      </trkpt>
      <trkpt lat="47.96273" lon="13.36863">
        <ele>580.26057</ele>
        <time>2022-09-12T16:27:50.286Z</time>
      </trkpt>
      <trkpt lat="47.96236" lon="13.36786">
        <ele>581.888946</ele>
        <time>2022-09-12T16:28:15.237Z</time>
      </trkpt>
      <trkpt lat="47.96192" lon="13.36718">
        <ele>582.967251</ele>
        <time>2022-09-12T16:28:39.090Z</time>
      </trkpt>
      <trkpt lat="47.96159" lon="13.36645">
        <ele>583.98349</ele>
        <time>2022-09-12T16:29:01.142Z</time>
      </trkpt>
      <trkpt lat="47.96101" lon="13.36568">
        <ele>585.069658</ele>
        <time>2022-09-12T16:29:25.528Z</time>
      </trkpt>
      <trkpt lat="47.96058" lon="13.36528">
        <ele>585.508261</ele>
        <time>2022-09-12T16:29:41.619Z</time>
      </trkpt>
      <trkpt lat="47.96029" lon="13.36508">
        <ele>585.788984</ele>
        <time>2022-09-12T16:29:51.951Z</time>
      </trkpt>
      <trkpt lat="47.95971" lon="13.36485">
        <ele>586.306284</ele>
        <time>2022-09-12T16:30:11.483Z</time>
      </trkpt>
      <trkpt lat="47.95955" lon="13.36469">
        <ele>586.511173</ele>
        <time>2022-09-12T16:30:16.935Z</time>
      </trkpt>
      <trkpt lat="47.95953" lon="13.36446">
        <ele>586.693907</ele>
        <time>2022-09-12T16:30:22.787Z</time>
      </trkpt>
      <trkpt lat="47.95964" lon="13.36368">
        <ele>587.323027</ele>
        <time>2022-09-12T16:30:38.345Z</time>
      </trkpt>
      <trkpt lat="47.95969" lon="13.36223">
        <ele>588.479013</ele>
        <time>2022-09-12T16:31:13.691Z</time>
      </trkpt>
      <trkpt lat="47.9597" lon="13.36095">
        <ele>589.506192</ele>
        <time>2022-09-12T16:31:42.630Z</time>
      </trkpt>
      <trkpt lat="47.95966" lon="13.36079">
        <ele>589.642459</ele>
        <time>2022-09-12T16:31:46.781Z</time>
      </trkpt>
      <trkpt lat="47.95724" lon="13.36009">
        <ele>592.28927</ele>
        <time>2022-09-12T16:33:07.153Z</time>
      </trkpt>
      <trkpt lat="47.9571" lon="13.35991">
        <ele>592.482464</ele>
        <time>2022-09-12T16:33:13.381Z</time>
      </trkpt>
      <trkpt lat="47.95695" lon="13.35939">
        <ele>592.60048</ele>
        <time>2022-09-12T16:33:25.559Z</time>
      </trkpt>
      <trkpt lat="47.95685" lon="13.35925">
        <ele>592.643981</ele>
        <time>2022-09-12T16:33:29.952Z</time>
      </trkpt>
      <trkpt lat="47.9563" lon="13.35911">
        <ele>592.819763</ele>
        <time>2022-09-12T16:33:47.274Z</time>
      </trkpt>
      <trkpt lat="47.95595" lon="13.3591">
        <ele>592.926976</ele>
        <time>2022-09-12T16:33:56.825Z</time>
      </trkpt>
      <trkpt lat="47.95591" lon="13.35852">
        <ele>593.045557</ele>
        <time>2022-09-12T16:34:06.320Z</time>
      </trkpt>
      <trkpt lat="47.95594" lon="13.35794">
        <ele>592.837587</ele>
        <time>2022-09-12T16:34:15.452Z</time>
      </trkpt>
      <trkpt lat="47.95612" lon="13.35723">
        <ele>592.564995</ele>
        <time>2022-09-12T16:34:27.293Z</time>
      </trkpt>
      <trkpt lat="47.95648" lon="13.35631">
        <ele>592.185184</ele>
        <time>2022-09-12T16:34:44.697Z</time>
      </trkpt>
      <trkpt lat="47.95667" lon="13.3557">
        <ele>592.394246</ele>
        <time>2022-09-12T16:34:56.724Z</time>
      </trkpt>
      <trkpt lat="47.95676" lon="13.35517">
        <ele>592.816245</ele>
        <time>2022-09-12T16:35:07.919Z</time>
      </trkpt>
      <trkpt lat="47.95692" lon="13.35344">
        <ele>594.147674</ele>
        <time>2022-09-12T16:35:48.776Z</time>
      </trkpt>
      <trkpt lat="47.957" lon="13.35274">
        <ele>594.224796</ele>
        <time>2022-09-12T16:36:05.320Z</time>
      </trkpt>
      <trkpt lat="47.95713" lon="13.3524">
        <ele>594.267595</ele>
        <time>2022-09-12T16:36:13.882Z</time>
      </trkpt>
      <trkpt lat="47.95928" lon="13.34968">
        <ele>593.239401</ele>
        <time>2022-09-12T16:37:20.503Z</time>
      </trkpt>
      <trkpt lat="47.95957" lon="13.34918">
        <ele>594.031554</ele>
        <time>2022-09-12T16:37:32.015Z</time>
      </trkpt>
      <trkpt lat="47.9597" lon="13.34869">
        <ele>594.741465</ele>
        <time>2022-09-12T16:37:42.997Z</time>
      </trkpt>
      <trkpt lat="47.95988" lon="13.34702">
        <ele>597.232162</ele>
        <time>2022-09-12T16:38:30.179Z</time>
      </trkpt>
      <trkpt lat="47.96025" lon="13.34482">
        <ele>603.865769</ele>
        <time>2022-09-12T16:39:45.593Z</time>
      </trkpt>
      <trkpt lat="47.96036" lon="13.34421">
        <ele>605.370568</ele>
        <time>2022-09-12T16:40:06.076Z</time>
      </trkpt>
      <trkpt lat="47.96073" lon="13.34306">
        <ele>607.836575</ele>
        <time>2022-09-12T16:40:40.731Z</time>
      </trkpt>
      <trkpt lat="47.96078" lon="13.34212">
        <ele>609.663049</ele>
        <time>2022-09-12T16:41:02.648Z</time>
      </trkpt>
      <trkpt lat="47.96084" lon="13.34172">
        <ele>610.714</ele>
        <time>2022-09-12T16:41:12.424Z</time>
      </trkpt>
      <trkpt lat="47.96095" lon="13.34144">
        <ele>611.661118</ele>
        <time>2022-09-12T16:41:21.411Z</time>
      </trkpt>
      <trkpt lat="47.96159" lon="13.3405">
        <ele>615.502341</ele>
        <time>2022-09-12T16:42:03.881Z</time>
      </trkpt>
      <trkpt lat="47.96218" lon="13.33928">
        <ele>621.535896</ele>
        <time>2022-09-12T16:43:00.329Z</time>
      </trkpt>
      <trkpt lat="47.96284" lon="13.33867">
        <ele>627.311873</ele>
        <time>2022-09-12T16:43:50.542Z</time>
      </trkpt>
      <trkpt lat="47.96315" lon="13.33814">
        <ele>630.846097</ele>
        <time>2022-09-12T16:44:22.635Z</time>
      </trkpt>
      <trkpt lat="47.96334" lon="13.33707">
        <ele>636.860667</ele>
        <time>2022-09-12T16:45:12.178Z</time>
      </trkpt>
      <trkpt lat="47.96374" lon="13.33585">
        <ele>644.252623</ele>
        <time>2022-09-12T16:46:12.335Z</time>
      </trkpt>
      <trkpt lat="47.96392" lon="13.3347">
        <ele>649.482933</ele>
        <time>2022-09-12T16:47:01.738Z</time>
      </trkpt>
      <trkpt lat="47.9641" lon="13.33405">
        <ele>652.379612</ele>
        <time>2022-09-12T16:47:30.172Z</time>
      </trkpt>
      <trkpt lat="47.96431" lon="13.33276">
        <ele>656.907925</ele>
        <time>2022-09-12T16:48:13.575Z</time>
      </trkpt>
      <trkpt lat="47.96439" lon="13.33248">
        <ele>657.091184</ele>
        <time>2022-09-12T16:48:23.299Z</time>
      </trkpt>
      <trkpt lat="47.96474" lon="13.332">
        <ele>657.519293</ele>
        <time>2022-09-12T16:48:41.077Z</time>
      </trkpt>
      <trkpt lat="47.9655" lon="13.33115">
        <ele>658.356317</ele>
        <time>2022-09-12T16:49:03.496Z</time>
      </trkpt>
      <trkpt lat="47.96599" lon="13.33072">
        <ele>656.310735</ele>
        <time>2022-09-12T16:49:14.617Z</time>
      </trkpt>
      <trkpt lat="47.96657" lon="13.33032">
        <ele>654.05976</ele>
        <time>2022-09-12T16:49:26.363Z</time>
      </trkpt>
      <trkpt lat="47.9681" lon="13.3292">
        <ele>648.27791</ele>
        <time>2022-09-12T16:49:58.771Z</time>
      </trkpt>
      <trkpt lat="47.96843" lon="13.3288">
        <ele>646.866834</ele>
        <time>2022-09-12T16:50:07.586Z</time>
      </trkpt>
      <trkpt lat="47.96878" lon="13.32813">
        <ele>645.145284</ele>
        <time>2022-09-12T16:50:19.210Z</time>
      </trkpt>
      <trkpt lat="47.96955" lon="13.3263">
        <ele>641.10737</ele>
        <time>2022-09-12T16:50:47.656Z</time>
      </trkpt>
      <trkpt lat="47.96976" lon="13.32553">
        <ele>640.106833</ele>
        <time>2022-09-12T16:50:59.178Z</time>
      </trkpt>
      <trkpt lat="47.96996" lon="13.32445">
        <ele>638.803897</ele>
        <time>2022-09-12T16:51:16.122Z</time>
      </trkpt>
      <trkpt lat="47.9698" lon="13.32379">
        <ele>637.99409</ele>
        <time>2022-09-12T16:51:26.527Z</time>
      </trkpt>
      <trkpt lat="47.96975" lon="13.32336">
        <ele>637.251468</ele>
        <time>2022-09-12T16:51:32.937Z</time>
      </trkpt>
      <trkpt lat="47.96977" lon="13.32306">
        <ele>636.69253</ele>
        <time>2022-09-12T16:51:37.367Z</time>
      </trkpt>
      <trkpt lat="47.96978" lon="13.32291">
        <ele>636.421409</ele>
        <time>2022-09-12T16:51:39.479Z</time>
      </trkpt>
      <trkpt lat="47.96975" lon="13.32221">
        <ele>635.123523</ele>
        <time>2022-09-12T16:51:49.600Z</time>
      </trkpt>
      <trkpt lat="47.96958" lon="13.32153">
        <ele>633.790179</ele>
        <time>2022-09-12T16:51:59.374Z</time>
      </trkpt>
      <trkpt lat="47.96949" lon="13.32129">
        <ele>633.293984</ele>
        <time>2022-09-12T16:52:02.736Z</time>
      </trkpt>
      <trkpt lat="47.96935" lon="13.3207">
        <ele>630.867813</ele>
        <time>2022-09-12T16:52:10.244Z</time>
      </trkpt>
      <trkpt lat="47.96924" lon="13.31991">
        <ele>627.084657</ele>
        <time>2022-09-12T16:52:19.596Z</time>
      </trkpt>
      <trkpt lat="47.96925" lon="13.31731">
        <ele>613.865317</ele>
        <time>2022-09-12T16:52:48.761Z</time>
      </trkpt>
      <trkpt lat="47.96928" lon="13.31507">
        <ele>602.197217</ele>
        <time>2022-09-12T16:53:13.795Z</time>
      </trkpt>
      <trkpt lat="47.96926" lon="13.31296">
        <ele>593.220684</ele>
        <time>2022-09-12T16:53:38.604Z</time>
      </trkpt>
      <trkpt lat="47.96916" lon="13.31211">
        <ele>591.18989</ele>
        <time>2022-09-12T16:53:49.742Z</time>
      </trkpt>
      <trkpt lat="47.96901" lon="13.31133">
        <ele>589.273532</ele>
        <time>2022-09-12T16:54:00.453Z</time>
      </trkpt>
      <trkpt lat="47.96892" lon="13.31084">
        <ele>588.071061</ele>
        <time>2022-09-12T16:54:07.308Z</time>
      </trkpt>
      <trkpt lat="47.96894" lon="13.31028">
        <ele>586.667723</ele>
        <time>2022-09-12T16:54:14.935Z</time>
      </trkpt>
      <trkpt lat="47.96899" lon="13.31003">
        <ele>585.965867</ele>
        <time>2022-09-12T16:54:18.390Z</time>
      </trkpt>
      <trkpt lat="47.96919" lon="13.30919">
        <ele>583.476253</ele>
        <time>2022-09-12T16:54:30.099Z</time>
      </trkpt>
      <trkpt lat="47.96923" lon="13.30906">
        <ele>583.091754</ele>
        <time>2022-09-12T16:54:31.878Z</time>
      </trkpt>
      <trkpt lat="47.96945" lon="13.30783">
        <ele>579.432539</ele>
        <time>2022-09-12T16:54:47.362Z</time>
      </trkpt>
      <trkpt lat="47.97008" lon="13.30431">
        <ele>563.396615</ele>
        <time>2022-09-12T16:55:29.171Z</time>
      </trkpt>
      <trkpt lat="47.97014" lon="13.30399">
        <ele>562.066432</ele>
        <time>2022-09-12T16:55:33.034Z</time>
      </trkpt>
      <trkpt lat="47.97014" lon="13.30395">
        <ele>561.921556</ele>
        <time>2022-09-12T16:55:33.449Z</time>
      </trkpt>
      <trkpt lat="47.97019" lon="13.30367">
        <ele>560.737748</ele>
        <time>2022-09-12T16:55:36.909Z</time>
      </trkpt>
      <trkpt lat="47.97046" lon="13.30214">
        <ele>555.693573</ele>
        <time>2022-09-12T16:55:56.284Z</time>
      </trkpt>
      <trkpt lat="47.97055" lon="13.30168">
        <ele>554.810996</ele>
        <time>2022-09-12T16:56:02.552Z</time>
      </trkpt>
      <trkpt lat="47.97096" lon="13.29935">
        <ele>551.191655</ele>
        <time>2022-09-12T16:56:37.057Z</time>
      </trkpt>
      <trkpt lat="47.97124" lon="13.29766">
        <ele>549.807803</ele>
        <time>2022-09-12T16:57:04.266Z</time>
      </trkpt>
      <trkpt lat="47.97129" lon="13.29679">
        <ele>549.468719</ele>
        <time>2022-09-12T16:57:18.312Z</time>
      </trkpt>
      <trkpt lat="47.9712" lon="13.29581">
        <ele>549.168458</ele>
        <time>2022-09-12T16:57:34.587Z</time>
      </trkpt>
      <trkpt lat="47.9703" lon="13.29156">
        <ele>548.606764</ele>
        <time>2022-09-12T16:58:51.672Z</time>
      </trkpt>
      <trkpt lat="47.96951" lon="13.28794">
        <ele>549.13282</ele>
        <time>2022-09-12T17:00:03.551Z</time>
      </trkpt>
      <trkpt lat="47.96933" lon="13.28742">
        <ele>549.23562</ele>
        <time>2022-09-12T17:00:14.715Z</time>
      </trkpt>
      <trkpt lat="47.96812" lon="13.28391">
        <ele>548.360873</ele>
        <time>2022-09-12T17:01:23.133Z</time>
      </trkpt>
      <trkpt lat="47.96785" lon="13.28328">
        <ele>547.900546</ele>
        <time>2022-09-12T17:01:34.471Z</time>
      </trkpt>
      <trkpt lat="47.9682" lon="13.28232">
        <ele>547.055785</ele>
        <time>2022-09-12T17:01:50.575Z</time>
      </trkpt>
      <trkpt lat="47.96824" lon="13.28203">
        <ele>546.661355</ele>
        <time>2022-09-12T17:01:55.068Z</time>
      </trkpt>
      <trkpt lat="47.96876" lon="13.27978">
        <ele>543.516867</ele>
        <time>2022-09-12T17:02:30.061Z</time>
      </trkpt>
      <trkpt lat="47.96892" lon="13.27954">
        <ele>543.127204</ele>
        <time>2022-09-12T17:02:35.103Z</time>
      </trkpt>
      <trkpt lat="47.96891" lon="13.27943">
        <ele>543.000081</ele>
        <time>2022-09-12T17:02:36.680Z</time>
      </trkpt>
      <trkpt lat="47.96894" lon="13.2791">
        <ele>542.616454</ele>
        <time>2022-09-12T17:02:41.683Z</time>
      </trkpt>
      <trkpt lat="47.96913" lon="13.27835">
        <ele>541.692344</ele>
        <time>2022-09-12T17:02:53.774Z</time>
      </trkpt>
      <trkpt lat="47.9694" lon="13.27738">
        <ele>540.587158</ele>
        <time>2022-09-12T17:03:09.982Z</time>
      </trkpt>
      <trkpt lat="47.97019" lon="13.27517">
        <ele>539.11329</ele>
        <time>2022-09-12T17:03:51.660Z</time>
      </trkpt>
      <trkpt lat="47.97035" lon="13.27499">
        <ele>538.984541</ele>
        <time>2022-09-12T17:03:56.726Z</time>
      </trkpt>
      <trkpt lat="47.97055" lon="13.27436">
        <ele>538.691458</ele>
        <time>2022-09-12T17:04:08.170Z</time>
      </trkpt>
      <trkpt lat="47.97081" lon="13.27386">
        <ele>538.423647</ele>
        <time>2022-09-12T17:04:18.675Z</time>
      </trkpt>
      <trkpt lat="47.97057" lon="13.27372">
        <ele>538.264128</ele>
        <time>2022-09-12T17:04:25.224Z</time>
      </trkpt>
      <trkpt lat="47.97077" lon="13.27284">
        <ele>537.986326</ele>
        <time>2022-09-12T17:04:40.709Z</time>
      </trkpt>
      <trkpt lat="47.97082" lon="13.27262">
        <ele>537.996332</ele>
        <time>2022-09-12T17:04:44.794Z</time>
      </trkpt>
      <trkpt lat="47.97069" lon="13.27257">
        <ele>538.004911</ele>
        <time>2022-09-12T17:04:50.573Z</time>
      </trkpt>
      <trkpt lat="47.97052" lon="13.27227">
        <ele>538.022083</ele>
        <time>2022-09-12T17:05:02.400Z</time>
      </trkpt>
      <trkpt lat="47.97112" lon="13.271">
        <ele>538.089036</ele>
        <time>2022-09-12T17:05:31.368Z</time>
      </trkpt>
      <trkpt lat="47.97183" lon="13.26999">
        <ele>537.96899</ele>
        <time>2022-09-12T17:05:58.648Z</time>
      </trkpt>
      <trkpt lat="47.97214" lon="13.26953">
        <ele>537.911031</ele>
        <time>2022-09-12T17:06:10.440Z</time>
      </trkpt>
      <trkpt lat="47.97263" lon="13.26851">
        <ele>537.507892</ele>
        <time>2022-09-12T17:06:31.490Z</time>
      </trkpt>
      <trkpt lat="47.97272" lon="13.26767">
        <ele>537.034508</ele>
        <time>2022-09-12T17:06:45.335Z</time>
      </trkpt>
      <trkpt lat="47.97287" lon="13.26727">
        <ele>536.776578</ele>
        <time>2022-09-12T17:06:52.933Z</time>
      </trkpt>
      <trkpt lat="47.97291" lon="13.26716">
        <ele>536.704257</ele>
        <time>2022-09-12T17:06:54.967Z</time>
      </trkpt>
      <trkpt lat="47.97335" lon="13.26612">
        <ele>536.007747</ele>
        <time>2022-09-12T17:07:15.219Z</time>
      </trkpt>
      <trkpt lat="47.97409" lon="13.26477">
        <ele>535.00971</ele>
        <time>2022-09-12T17:07:43.838Z</time>
      </trkpt>
      <trkpt lat="47.97465" lon="13.2634">
        <ele>534.339781</ele>
        <time>2022-09-12T17:08:10.578Z</time>
      </trkpt>
      <trkpt lat="47.9748" lon="13.26293">
        <ele>534.146246</ele>
        <time>2022-09-12T17:08:19.613Z</time>
      </trkpt>
      <trkpt lat="47.975" lon="13.26198">
        <ele>533.805227</ele>
        <time>2022-09-12T17:08:37.184Z</time>
      </trkpt>
      <trkpt lat="47.97511" lon="13.26165">
        <ele>533.780256</ele>
        <time>2022-09-12T17:08:43.830Z</time>
      </trkpt>
      <trkpt lat="47.9755" lon="13.26105">
        <ele>533.72362</ele>
        <time>2022-09-12T17:08:59.038Z</time>
      </trkpt>
      <trkpt lat="47.97568" lon="13.26073">
        <ele>533.69474</ele>
        <time>2022-09-12T17:09:06.729Z</time>
      </trkpt>
      <trkpt lat="47.97583" lon="13.26041">
        <ele>533.668284</ele>
        <time>2022-09-12T17:09:13.868Z</time>
      </trkpt>
      <trkpt lat="47.97635" lon="13.25937">
        <ele>534.060273</ele>
        <time>2022-09-12T17:09:38.133Z</time>
      </trkpt>
      <trkpt lat="47.97651" lon="13.2593">
        <ele>534.204459</ele>
        <time>2022-09-12T17:09:42.764Z</time>
      </trkpt>
      <trkpt lat="47.9766" lon="13.25934">
        <ele>534.294627</ele>
        <time>2022-09-12T17:09:45.829Z</time>
      </trkpt>
      <trkpt lat="47.97654" lon="13.25757">
        <ele>535.38372</ele>
        <time>2022-09-12T17:10:26.820Z</time>
      </trkpt>
      <trkpt lat="47.97647" lon="13.25637">
        <ele>536.243829</ele>
        <time>2022-09-12T17:10:55.568Z</time>
      </trkpt>
      <trkpt lat="47.97645" lon="13.25594">
        <ele>536.551779</ele>
        <time>2022-09-12T17:11:04.503Z</time>
      </trkpt>
      <trkpt lat="47.97645" lon="13.25488">
        <ele>537.115733</ele>
        <time>2022-09-12T17:11:27.398Z</time>
      </trkpt>
      <trkpt lat="47.97652" lon="13.25439">
        <ele>536.975644</ele>
        <time>2022-09-12T17:11:35.766Z</time>
      </trkpt>
      <trkpt lat="47.97665" lon="13.25394">
        <ele>536.8408</ele>
        <time>2022-09-12T17:11:43.592Z</time>
      </trkpt>
      <trkpt lat="47.97612" lon="13.25349">
        <ele>536.588153</ele>
        <time>2022-09-12T17:11:58.977Z</time>
      </trkpt>
      <trkpt lat="47.97634" lon="13.2529">
        <ele>536.460457</ele>
        <time>2022-09-12T17:12:09.742Z</time>
      </trkpt>
      <trkpt lat="47.97615" lon="13.25284">
        <ele>536.626258</ele>
        <time>2022-09-12T17:12:15.299Z</time>
      </trkpt>
      <trkpt lat="47.97617" lon="13.25274">
        <ele>536.681873</ele>
        <time>2022-09-12T17:12:17.362Z</time>
      </trkpt>
      <trkpt lat="47.97595" lon="13.25266">
        <ele>536.877265</ele>
        <time>2022-09-12T17:12:27.628Z</time>
      </trkpt>
      <trkpt lat="47.97579" lon="13.25257">
        <ele>537.026679</ele>
        <time>2022-09-12T17:12:36.139Z</time>
      </trkpt>
      <trkpt lat="47.97557" lon="13.25243">
        <ele>537.229444</ele>
        <time>2022-09-12T17:12:47.810Z</time>
      </trkpt>
      <trkpt lat="47.97523" lon="13.25213">
        <ele>537.573785</ele>
        <time>2022-09-12T17:13:06.912Z</time>
      </trkpt>
      <trkpt lat="47.97449" lon="13.2515">
        <ele>538.629043</ele>
        <time>2022-09-12T17:13:53.592Z</time>
      </trkpt>
      <trkpt lat="47.97392" lon="13.2512">
        <ele>539.665352</ele>
        <time>2022-09-12T17:14:25.374Z</time>
      </trkpt>
      <trkpt lat="47.97341" lon="13.25101">
        <ele>540.562107</ele>
        <time>2022-09-12T17:14:52.505Z</time>
      </trkpt>
      <trkpt lat="47.97299" lon="13.25073">
        <ele>541.293073</ele>
        <time>2022-09-12T17:15:16.388Z</time>
      </trkpt>
      <trkpt lat="47.97266" lon="13.25046">
        <ele>541.833329</ele>
        <time>2022-09-12T17:15:36.293Z</time>
      </trkpt>
      <trkpt lat="47.97266" lon="13.25035">
        <ele>541.93142</ele>
        <time>2022-09-12T17:15:39.780Z</time>
      </trkpt>
      <trkpt lat="47.97261" lon="13.25031">
        <ele>542.017988</ele>
        <time>2022-09-12T17:15:42.884Z</time>
      </trkpt>
      <trkpt lat="47.97252" lon="13.25034">
        <ele>542.139774</ele>
        <time>2022-09-12T17:15:47.531Z</time>
      </trkpt>
      <trkpt lat="47.97221" lon="13.25014">
        <ele>542.624034</ele>
        <time>2022-09-12T17:16:05.156Z</time>
      </trkpt>
      <trkpt lat="47.96993" lon="13.24838">
        <ele>545.517298</ele>
        <time>2022-09-12T17:18:13.725Z</time>
      </trkpt>
      <trkpt lat="47.96896" lon="13.24762">
        <ele>545.64843</ele>
        <time>2022-09-12T17:19:03.018Z</time>
      </trkpt>
      <trkpt lat="47.96867" lon="13.24708">
        <ele>545.703128</ele>
        <time>2022-09-12T17:19:22.752Z</time>
      </trkpt>
      <trkpt lat="47.96849" lon="13.24689">
        <ele>545.740479</ele>
        <time>2022-09-12T17:19:28.610Z</time>
      </trkpt>
      <trkpt lat="47.968" lon="13.24674">
        <ele>545.887703</ele>
        <time>2022-09-12T17:19:42.019Z</time>
      </trkpt>
      <trkpt lat="47.96775" lon="13.24657">
        <ele>545.968948</ele>
        <time>2022-09-12T17:19:49.900Z</time>
      </trkpt>
      <trkpt lat="47.96682" lon="13.2458">
        <ele>546.333838</ele>
        <time>2022-09-12T17:20:22.963Z</time>
      </trkpt>
      <trkpt lat="47.96531" lon="13.24434">
        <ele>547.71241</ele>
        <time>2022-09-12T17:21:19.525Z</time>
      </trkpt>
      <trkpt lat="47.96519" lon="13.24421">
        <ele>547.815266</ele>
        <time>2022-09-12T17:21:24.388Z</time>
      </trkpt>
      <trkpt lat="47.96358" lon="13.24251">
        <ele>548.920395</ele>
        <time>2022-09-12T17:22:25.584Z</time>
      </trkpt>
      <trkpt lat="47.96352" lon="13.24212">
        <ele>548.932315</ele>
        <time>2022-09-12T17:22:33.498Z</time>
      </trkpt>
      <trkpt lat="47.96347" lon="13.24206">
        <ele>548.935071</ele>
        <time>2022-09-12T17:22:35.276Z</time>
      </trkpt>
      <trkpt lat="47.96318" lon="13.24206">
        <ele>548.947589</ele>
        <time>2022-09-12T17:22:43.155Z</time>
      </trkpt>
      <trkpt lat="47.96213" lon="13.2409">
        <ele>548.683689</ele>
        <time>2022-09-12T17:23:17.514Z</time>
      </trkpt>
      <trkpt lat="47.96209" lon="13.24095">
        <ele>548.653745</ele>
        <time>2022-09-12T17:23:18.762Z</time>
      </trkpt>
      <trkpt lat="47.96176" lon="13.24059">
        <ele>548.428399</ele>
        <time>2022-09-12T17:23:28.447Z</time>
      </trkpt>
      <trkpt lat="47.96118" lon="13.23995">
        <ele>548.0329</ele>
        <time>2022-09-12T17:23:45.945Z</time>
      </trkpt>
      <trkpt lat="47.96096" lon="13.23967">
        <ele>548.040436</ele>
        <time>2022-09-12T17:23:53.217Z</time>
      </trkpt>
      <trkpt lat="47.9607" lon="13.23931">
        <ele>548.112586</ele>
        <time>2022-09-12T17:24:02.262Z</time>
      </trkpt>
      <trkpt lat="47.96013" lon="13.23851">
        <ele>548.274123</ele>
        <time>2022-09-12T17:24:24.104Z</time>
      </trkpt>
      <trkpt lat="47.95909" lon="13.2373">
        <ele>549.098702</ele>
        <time>2022-09-12T17:25:04.528Z</time>
      </trkpt>
      <trkpt lat="47.95912" lon="13.23725">
        <ele>549.140446</ele>
        <time>2022-09-12T17:25:06.492Z</time>
      </trkpt>
      <trkpt lat="47.95851" lon="13.23652">
        <ele>549.797051</ele>
        <time>2022-09-12T17:25:31.083Z</time>
      </trkpt>
      <trkpt lat="47.9585" lon="13.2364">
        <ele>549.861333</ele>
        <time>2022-09-12T17:25:33.372Z</time>
      </trkpt>
      <trkpt lat="47.95843" lon="13.23631">
        <ele>549.91351</ele>
        <time>2022-09-12T17:25:36.226Z</time>
      </trkpt>
      <trkpt lat="47.95824" lon="13.23604">
        <ele>550.056239</ele>
        <time>2022-09-12T17:25:44.139Z</time>
      </trkpt>
      <trkpt lat="47.95805" lon="13.23576">
        <ele>550.195955</ele>
        <time>2022-09-12T17:25:51.839Z</time>
      </trkpt>
      <trkpt lat="47.95802" lon="13.23579">
        <ele>550.217632</ele>
        <time>2022-09-12T17:25:53.333Z</time>
      </trkpt>
      <trkpt lat="47.95791" lon="13.23558">
        <ele>550.310073</ele>
        <time>2022-09-12T17:25:59.858Z</time>
      </trkpt>
      <trkpt lat="47.95771" lon="13.23551">
        <ele>550.42232</ele>
        <time>2022-09-12T17:26:07.706Z</time>
      </trkpt>
      <trkpt lat="47.95765" lon="13.23532">
        <ele>550.49674</ele>
        <time>2022-09-12T17:26:11.794Z</time>
      </trkpt>
      <trkpt lat="47.95744" lon="13.23495">
        <ele>550.671927</ele>
        <time>2022-09-12T17:26:21.302Z</time>
      </trkpt>
      <trkpt lat="47.9571" lon="13.23441">
        <ele>550.920305</ele>
        <time>2022-09-12T17:26:35.495Z</time>
      </trkpt>
      <trkpt lat="47.95652" lon="13.23345">
        <ele>551.307929</ele>
        <time>2022-09-12T17:27:00.015Z</time>
      </trkpt>
      <trkpt lat="47.9562" lon="13.23288">
        <ele>551.534446</ele>
        <time>2022-09-12T17:27:14.912Z</time>
      </trkpt>
      <trkpt lat="47.9551" lon="13.23118">
        <ele>551.825506</ele>
        <time>2022-09-12T17:27:59.669Z</time>
      </trkpt>
      <trkpt lat="47.95447" lon="13.23034">
        <ele>551.732861</ele>
        <time>2022-09-12T17:28:20.851Z</time>
      </trkpt>
      <trkpt lat="47.95388" lon="13.22967">
        <ele>551.433867</ele>
        <time>2022-09-12T17:28:39.151Z</time>
      </trkpt>
      <trkpt lat="47.95392" lon="13.22959">
        <ele>551.4086</ele>
        <time>2022-09-12T17:28:40.696Z</time>
      </trkpt>
      <trkpt lat="47.95123" lon="13.22724">
        <ele>549.343864</ele>
        <time>2022-09-12T17:30:53.744Z</time>
      </trkpt>
      <trkpt lat="47.95121" lon="13.22731">
        <ele>549.258395</ele>
        <time>2022-09-12T17:30:55.348Z</time>
      </trkpt>
      <trkpt lat="47.95106" lon="13.2272">
        <ele>549.00379</ele>
        <time>2022-09-12T17:30:58.812Z</time>
      </trkpt>
      <trkpt lat="47.95021" lon="13.2266">
        <ele>547.516174</ele>
        <time>2022-09-12T17:31:18.070Z</time>
      </trkpt>
      <trkpt lat="47.94959" lon="13.22597">
        <ele>546.334603</ele>
        <time>2022-09-12T17:31:33.296Z</time>
      </trkpt>
      <trkpt lat="47.94919" lon="13.2258">
        <ele>545.689649</ele>
        <time>2022-09-12T17:31:42.423Z</time>
      </trkpt>
      <trkpt lat="47.9489" lon="13.2257">
        <ele>545.221095</ele>
        <time>2022-09-12T17:31:49.395Z</time>
      </trkpt>
      <trkpt lat="47.9487" lon="13.22564">
        <ele>544.888708</ele>
        <time>2022-09-12T17:31:54.666Z</time>
      </trkpt>
      <trkpt lat="47.94862" lon="13.22556">
        <ele>544.830657</ele>
        <time>2022-09-12T17:31:57.110Z</time>
      </trkpt>
      <trkpt lat="47.94837" lon="13.22565">
        <ele>545.114918</ele>
        <time>2022-09-12T17:32:04.020Z</time>
      </trkpt>
      <trkpt lat="47.94828" lon="13.22566">
        <ele>545.212352</ele>
        <time>2022-09-12T17:32:06.464Z</time>
      </trkpt>
      <trkpt lat="47.94825" lon="13.22567">
        <ele>545.243305</ele>
        <time>2022-09-12T17:32:07.301Z</time>
      </trkpt>
      <trkpt lat="47.94776" lon="13.22568">
        <ele>545.787057</ele>
        <time>2022-09-12T17:32:22.462Z</time>
      </trkpt>
      <trkpt lat="47.94753" lon="13.2256">
        <ele>546.046534</ele>
        <time>2022-09-12T17:32:30.442Z</time>
      </trkpt>
      <trkpt lat="47.94732" lon="13.22538">
        <ele>546.324999</ele>
        <time>2022-09-12T17:32:39.481Z</time>
      </trkpt>
      <trkpt lat="47.9472" lon="13.22517">
        <ele>546.531934</ele>
        <time>2022-09-12T17:32:46.576Z</time>
      </trkpt>
      <trkpt lat="47.94715" lon="13.22509">
        <ele>546.616214</ele>
        <time>2022-09-12T17:32:49.486Z</time>
      </trkpt>
      <trkpt lat="47.94711" lon="13.22505">
        <ele>546.66271</ele>
        <time>2022-09-12T17:32:50.999Z</time>
      </trkpt>
      <trkpt lat="47.94706" lon="13.22499">
        <ele>546.740937</ele>
        <time>2022-09-12T17:32:53.669Z</time>
      </trkpt>
      <trkpt lat="47.94663" lon="13.22483">
        <ele>547.522194</ele>
        <time>2022-09-12T17:33:10.285Z</time>
      </trkpt>
      <trkpt lat="47.94559" lon="13.22469">
        <ele>549.438762</ele>
        <time>2022-09-12T17:33:47.263Z</time>
      </trkpt>
      <trkpt lat="47.94548" lon="13.22462">
        <ele>549.655793</ele>
        <time>2022-09-12T17:33:51.825Z</time>
      </trkpt>
      <trkpt lat="47.94505" lon="13.22457">
        <ele>550.252662</ele>
        <time>2022-09-12T17:34:06.222Z</time>
      </trkpt>
      <trkpt lat="47.94479" lon="13.22458">
        <ele>550.476517</ele>
        <time>2022-09-12T17:34:14.558Z</time>
      </trkpt>
      <trkpt lat="47.94389" lon="13.2245">
        <ele>551.250563</ele>
        <time>2022-09-12T17:34:41.795Z</time>
      </trkpt>
      <trkpt lat="47.9433" lon="13.22423">
        <ele>551.801183</ele>
        <time>2022-09-12T17:34:59.467Z</time>
      </trkpt>
      <trkpt lat="47.94308" lon="13.22412">
        <ele>552.021779</ele>
        <time>2022-09-12T17:35:06.150Z</time>
      </trkpt>
      <trkpt lat="47.94301" lon="13.22409">
        <ele>552.094559</ele>
        <time>2022-09-12T17:35:08.345Z</time>
      </trkpt>
      <trkpt lat="47.94258" lon="13.22391">
        <ele>552.528381</ele>
        <time>2022-09-12T17:35:21.729Z</time>
      </trkpt>
      <trkpt lat="47.94251" lon="13.22389">
        <ele>552.600334</ele>
        <time>2022-09-12T17:35:23.986Z</time>
      </trkpt>
      <trkpt lat="47.94212" lon="13.22376">
        <ele>552.986735</ele>
        <time>2022-09-12T17:35:36.675Z</time>
      </trkpt>
      <trkpt lat="47.94212" lon="13.22375">
        <ele>552.994764</ele>
        <time>2022-09-12T17:35:36.956Z</time>
      </trkpt>
      <trkpt lat="47.94146" lon="13.22365">
        <ele>553.955781</ele>
        <time>2022-09-12T17:35:59.678Z</time>
      </trkpt>
      <trkpt lat="47.94107" lon="13.22357">
        <ele>554.790989</ele>
        <time>2022-09-12T17:36:13.965Z</time>
      </trkpt>
      <trkpt lat="47.94095" lon="13.22354">
        <ele>555.045906</ele>
        <time>2022-09-12T17:36:18.400Z</time>
      </trkpt>
      <trkpt lat="47.94085" lon="13.22352">
        <ele>555.260855</ele>
        <time>2022-09-12T17:36:22.178Z</time>
      </trkpt>
      <trkpt lat="47.94086" lon="13.22345">
        <ele>555.369534</ele>
        <time>2022-09-12T17:36:24.543Z</time>
      </trkpt>
      <trkpt lat="47.94011" lon="13.22342">
        <ele>556.950388</ele>
        <time>2022-09-12T17:37:06.197Z</time>
      </trkpt>
      <trkpt lat="47.93911" lon="13.22357">
        <ele>558.900688</ele>
        <time>2022-09-12T17:38:02.865Z</time>
      </trkpt>
      <trkpt lat="47.93833" lon="13.22359">
        <ele>560.389461</ele>
        <time>2022-09-12T17:38:44.527Z</time>
      </trkpt>
      <trkpt lat="47.93833" lon="13.22364">
        <ele>560.458507</ele>
        <time>2022-09-12T17:38:45.694Z</time>
      </trkpt>
      <trkpt lat="47.93819" lon="13.22362">
        <ele>560.613463</ele>
        <time>2022-09-12T17:38:50.283Z</time>
      </trkpt>
      <trkpt lat="47.93712" lon="13.22328">
        <ele>560.393637</ele>
        <time>2022-09-12T17:39:19.777Z</time>
      </trkpt>
      <trkpt lat="47.93612" lon="13.22268">
        <ele>559.676005</ele>
        <time>2022-09-12T17:39:44.051Z</time>
      </trkpt>
      <trkpt lat="47.93594" lon="13.22257">
        <ele>559.401471</ele>
        <time>2022-09-12T17:39:48.323Z</time>
      </trkpt>
      <trkpt lat="47.93533" lon="13.22231">
        <ele>558.519789</ele>
        <time>2022-09-12T17:40:02.164Z</time>
      </trkpt>
      <trkpt lat="47.9345" lon="13.22205">
        <ele>557.479154</ele>
        <time>2022-09-12T17:40:21.216Z</time>
      </trkpt>
      <trkpt lat="47.93357" lon="13.22152">
        <ele>556.580074</ele>
        <time>2022-09-12T17:40:44.775Z</time>
      </trkpt>
      <trkpt lat="47.93316" lon="13.22119">
        <ele>556.159142</ele>
        <time>2022-09-12T17:40:55.856Z</time>
      </trkpt>
      <trkpt lat="47.93287" lon="13.22075">
        <ele>555.899597</ele>
        <time>2022-09-12T17:41:05.682Z</time>
      </trkpt>
      <trkpt lat="47.93223" lon="13.21991">
        <ele>555.386922</ele>
        <time>2022-09-12T17:41:26.246Z</time>
      </trkpt>
      <trkpt lat="47.93198" lon="13.21973">
        <ele>555.224248</ele>
        <time>2022-09-12T17:41:32.949Z</time>
      </trkpt>
      <trkpt lat="47.93165" lon="13.21961">
        <ele>555.040939</ele>
        <time>2022-09-12T17:41:41.516Z</time>
      </trkpt>
      <trkpt lat="47.93147" lon="13.21953">
        <ele>555.007853</ele>
        <time>2022-09-12T17:41:46.429Z</time>
      </trkpt>
      <trkpt lat="47.92994" lon="13.21889">
        <ele>554.726266</ele>
        <time>2022-09-12T17:42:28.473Z</time>
      </trkpt>
      <trkpt lat="47.92943" lon="13.21864">
        <ele>554.446322</ele>
        <time>2022-09-12T17:42:41.191Z</time>
      </trkpt>
      <trkpt lat="47.92923" lon="13.21847">
        <ele>554.32418</ele>
        <time>2022-09-12T17:42:46.754Z</time>
      </trkpt>
      <trkpt lat="47.92861" lon="13.21757">
        <ele>553.872389</ele>
        <time>2022-09-12T17:43:08.607Z</time>
      </trkpt>
      <trkpt lat="47.92856" lon="13.21749">
        <ele>553.833585</ele>
        <time>2022-09-12T17:43:10.526Z</time>
      </trkpt>
      <trkpt lat="47.92809" lon="13.21702">
        <ele>553.005731</ele>
        <time>2022-09-12T17:43:23.807Z</time>
      </trkpt>
      <trkpt lat="47.92752" lon="13.21672">
        <ele>552.03774</ele>
        <time>2022-09-12T17:43:37.142Z</time>
      </trkpt>
      <trkpt lat="47.92728" lon="13.21646">
        <ele>551.568617</ele>
        <time>2022-09-12T17:43:43.396Z</time>
      </trkpt>
      <trkpt lat="47.9271" lon="13.21604">
        <ele>551.039466</ele>
        <time>2022-09-12T17:43:50.240Z</time>
      </trkpt>
      <trkpt lat="47.92704" lon="13.21576">
        <ele>550.611461</ele>
        <time>2022-09-12T17:43:54.156Z</time>
      </trkpt>
      <trkpt lat="47.92702" lon="13.21567">
        <ele>550.449843</ele>
        <time>2022-09-12T17:43:55.527Z</time>
      </trkpt>
      <trkpt lat="47.927" lon="13.21554">
        <ele>550.242994</ele>
        <time>2022-09-12T17:43:57.255Z</time>
      </trkpt>
      <trkpt lat="47.92691" lon="13.2151">
        <ele>549.487188</ele>
        <time>2022-09-12T17:44:03.373Z</time>
      </trkpt>
      <trkpt lat="47.92687" lon="13.21492">
        <ele>549.17519</ele>
        <time>2022-09-12T17:44:05.877Z</time>
      </trkpt>
      <trkpt lat="47.9268" lon="13.21468">
        <ele>548.748849</ele>
        <time>2022-09-12T17:44:09.221Z</time>
      </trkpt>
      <trkpt lat="47.9265" lon="13.2138">
        <ele>547.122703</ele>
        <time>2022-09-12T17:44:22.292Z</time>
      </trkpt>
      <trkpt lat="47.92597" lon="13.21301">
        <ele>547.317783</ele>
        <time>2022-09-12T17:44:40.268Z</time>
      </trkpt>
      <trkpt lat="47.92567" lon="13.21224">
        <ele>548.255561</ele>
        <time>2022-09-12T17:45:01.513Z</time>
      </trkpt>
      <trkpt lat="47.92558" lon="13.21181">
        <ele>548.721802</ele>
        <time>2022-09-12T17:45:14.450Z</time>
      </trkpt>
      <trkpt lat="47.92539" lon="13.21119">
        <ele>549.526829</ele>
        <time>2022-09-12T17:45:35.901Z</time>
      </trkpt>
      <trkpt lat="47.92489" lon="13.21004">
        <ele>552.345744</ele>
        <time>2022-09-12T17:46:18.925Z</time>
      </trkpt>
      <trkpt lat="47.92466" lon="13.20933">
        <ele>553.974008</ele>
        <time>2022-09-12T17:46:41.280Z</time>
      </trkpt>
      <trkpt lat="47.92436" lon="13.20885">
        <ele>554.864997</ele>
        <time>2022-09-12T17:46:56.533Z</time>
      </trkpt>
      <trkpt lat="47.92405" lon="13.20807">
        <ele>554.905306</ele>
        <time>2022-09-12T17:47:15.201Z</time>
      </trkpt>
      <trkpt lat="47.92385" lon="13.20785">
        <ele>554.921503</ele>
        <time>2022-09-12T17:47:21.833Z</time>
      </trkpt>
      <trkpt lat="47.923" lon="13.20594">
        <ele>554.492459</ele>
        <time>2022-09-12T17:47:59.455Z</time>
      </trkpt>
      <trkpt lat="47.92305" lon="13.20547">
        <ele>554.284142</ele>
        <time>2022-09-12T17:48:07.382Z</time>
      </trkpt>
      <trkpt lat="47.92299" lon="13.20508">
        <ele>554.11212</ele>
        <time>2022-09-12T17:48:14.099Z</time>
      </trkpt>
      <trkpt lat="47.9229" lon="13.20489">
        <ele>554.008609</ele>
        <time>2022-09-12T17:48:18.283Z</time>
      </trkpt>
      <trkpt lat="47.92269" lon="13.20461">
        <ele>553.827794</ele>
        <time>2022-09-12T17:48:25.634Z</time>
      </trkpt>
      <trkpt lat="47.92244" lon="13.20399">
        <ele>554.010094</ele>
        <time>2022-09-12T17:48:39.102Z</time>
      </trkpt>
      <trkpt lat="47.92219" lon="13.20359">
        <ele>554.170322</ele>
        <time>2022-09-12T17:48:49.914Z</time>
      </trkpt>
      <trkpt lat="47.92142" lon="13.20271">
        <ele>554.598981</ele>
        <time>2022-09-12T17:49:20.298Z</time>
      </trkpt>
      <trkpt lat="47.92098" lon="13.20235">
        <ele>554.760334</ele>
        <time>2022-09-12T17:49:36.538Z</time>
      </trkpt>
      <trkpt lat="47.92079" lon="13.20191">
        <ele>554.871838</ele>
        <time>2022-09-12T17:49:47.562Z</time>
      </trkpt>
      <trkpt lat="47.92054" lon="13.20169">
        <ele>554.963987</ele>
        <time>2022-09-12T17:49:56.499Z</time>
      </trkpt>
      <trkpt lat="47.92011" lon="13.20091">
        <ele>555.188082</ele>
        <time>2022-09-12T17:50:15.135Z</time>
      </trkpt>
      <trkpt lat="47.91967" lon="13.19976">
        <ele>556.147825</ele>
        <time>2022-09-12T17:50:36.369Z</time>
      </trkpt>
      <trkpt lat="47.91947" lon="13.19901">
        <ele>556.728072</ele>
        <time>2022-09-12T17:50:57.507Z</time>
      </trkpt>
      <trkpt lat="47.91943" lon="13.19854">
        <ele>557.069966</ele>
        <time>2022-09-12T17:51:10.872Z</time>
      </trkpt>
      <trkpt lat="47.91928" lon="13.19772">
        <ele>561.285682</ele>
        <time>2022-09-12T17:51:37.290Z</time>
      </trkpt>
      <trkpt lat="47.91909" lon="13.19742">
        <ele>563.442832</ele>
        <time>2022-09-12T17:51:54.118Z</time>
      </trkpt>
      <trkpt lat="47.91895" lon="13.1972">
        <ele>565.03788</ele>
        <time>2022-09-12T17:52:07.113Z</time>
      </trkpt>
      <trkpt lat="47.91891" lon="13.19705">
        <ele>565.893424</ele>
        <time>2022-09-12T17:52:17.051Z</time>
      </trkpt>
      <trkpt lat="47.91893" lon="13.1967">
        <ele>567.711312</ele>
        <time>2022-09-12T17:52:34.355Z</time>
      </trkpt>
      <trkpt lat="47.91889" lon="13.19636">
        <ele>569.547754</ele>
        <time>2022-09-12T17:52:55.621Z</time>
      </trkpt>
      <trkpt lat="47.91881" lon="13.1962">
        <ele>570.615272</ele>
        <time>2022-09-12T17:53:07.809Z</time>
      </trkpt>
      <trkpt lat="47.91866" lon="13.19606">
        <ele>571.606441</ele>
        <time>2022-09-12T17:53:22.324Z</time>
      </trkpt>
      <trkpt lat="47.91848" lon="13.196">
        <ele>572.370469</ele>
        <time>2022-09-12T17:53:37.688Z</time>
      </trkpt>
      <trkpt lat="47.91821" lon="13.19614">
        <ele>573.491126</ele>
        <time>2022-09-12T17:53:58.702Z</time>
      </trkpt>
      <trkpt lat="47.91787" lon="13.19636">
        <ele>574.976153</ele>
        <time>2022-09-12T17:54:18.671Z</time>
      </trkpt>
      <trkpt lat="47.91769" lon="13.19641">
        <ele>575.740181</ele>
        <time>2022-09-12T17:54:24.148Z</time>
      </trkpt>
      <trkpt lat="47.91747" lon="13.19629">
        <ele>576.662865</ele>
        <time>2022-09-12T17:54:32.075Z</time>
      </trkpt>
      <trkpt lat="47.91687" lon="13.19592">
        <ele>577.03178</ele>
        <time>2022-09-12T17:54:46.501Z</time>
      </trkpt>
      <trkpt lat="47.91651" lon="13.196">
        <ele>574.439956</ele>
        <time>2022-09-12T17:54:53.379Z</time>
      </trkpt>
      <trkpt lat="47.91603" lon="13.19569">
        <ele>570.682764</ele>
        <time>2022-09-12T17:55:02.643Z</time>
      </trkpt>
      <trkpt lat="47.91586" lon="13.19563">
        <ele>569.436279</ele>
        <time>2022-09-12T17:55:05.597Z</time>
      </trkpt>
      <trkpt lat="47.91523" lon="13.19595">
        <ele>564.799513</ele>
        <time>2022-09-12T17:55:17.102Z</time>
      </trkpt>
      <trkpt lat="47.91486" lon="13.19637">
        <ele>561.88257</ele>
        <time>2022-09-12T17:55:25.258Z</time>
      </trkpt>
      <trkpt lat="47.91455" lon="13.19639">
        <ele>559.92277</ele>
        <time>2022-09-12T17:55:30.850Z</time>
      </trkpt>
      <trkpt lat="47.91459" lon="13.19617">
        <ele>558.937591</ele>
        <time>2022-09-12T17:55:33.865Z</time>
      </trkpt>
      <trkpt lat="47.91452" lon="13.1959">
        <ele>557.721991</ele>
        <time>2022-09-12T17:55:37.627Z</time>
      </trkpt>
      <trkpt lat="47.91452" lon="13.19586">
        <ele>557.562872</ele>
        <time>2022-09-12T17:55:38.122Z</time>
      </trkpt>
      <trkpt lat="47.91451" lon="13.19557">
        <ele>556.30152</ele>
        <time>2022-09-12T17:55:41.915Z</time>
      </trkpt>
      <trkpt lat="47.91451" lon="13.1949">
        <ele>553.871676</ele>
        <time>2022-09-12T17:55:50.510Z</time>
      </trkpt>
      <trkpt lat="47.91446" lon="13.19446">
        <ele>552.884991</ele>
        <time>2022-09-12T17:55:56.226Z</time>
      </trkpt>
      <trkpt lat="47.91432" lon="13.19407">
        <ele>551.90497</ele>
        <time>2022-09-12T17:56:02.081Z</time>
      </trkpt>
      <trkpt lat="47.91375" lon="13.19368">
        <ele>549.848428</ele>
        <time>2022-09-12T17:56:14.932Z</time>
      </trkpt>
      <trkpt lat="47.91338" lon="13.19227">
        <ele>547.780115</ele>
        <time>2022-09-12T17:56:37.617Z</time>
      </trkpt>
      <trkpt lat="47.91301" lon="13.19148">
        <ele>547.109981</ele>
        <time>2022-09-12T17:56:54.188Z</time>
      </trkpt>
      <trkpt lat="47.91294" lon="13.19123">
        <ele>546.918501</ele>
        <time>2022-09-12T17:56:59.070Z</time>
      </trkpt>
      <trkpt lat="47.9129" lon="13.19041">
        <ele>545.834952</ele>
        <time>2022-09-12T17:57:13.473Z</time>
      </trkpt>
      <trkpt lat="47.91298" lon="13.18947">
        <ele>542.90668</ele>
        <time>2022-09-12T17:57:28.430Z</time>
      </trkpt>
      <trkpt lat="47.91287" lon="13.18861">
        <ele>540.1996</ele>
        <time>2022-09-12T17:57:39.004Z</time>
      </trkpt>
      <trkpt lat="47.91269" lon="13.18786">
        <ele>537.350172</ele>
        <time>2022-09-12T17:57:48.524Z</time>
      </trkpt>
      <trkpt lat="47.91253" lon="13.18744">
        <ele>534.533984</ele>
        <time>2022-09-12T17:57:54.166Z</time>
      </trkpt>
      <trkpt lat="47.91241" lon="13.1871">
        <ele>532.297683</ele>
        <time>2022-09-12T17:57:58.512Z</time>
      </trkpt>
      <trkpt lat="47.91211" lon="13.18506">
        <ele>522.411968</ele>
        <time>2022-09-12T17:58:22.673Z</time>
      </trkpt>
      <trkpt lat="47.91178" lon="13.1847">
        <ele>522.200052</ele>
        <time>2022-09-12T17:58:31.263Z</time>
      </trkpt>
      <trkpt lat="47.91139" lon="13.18468">
        <ele>521.999816</ele>
        <time>2022-09-12T17:58:44.314Z</time>
      </trkpt>
      <trkpt lat="47.91095" lon="13.18458">
        <ele>521.77311</ele>
        <time>2022-09-12T17:59:04.562Z</time>
      </trkpt>
      <trkpt lat="47.91089" lon="13.18456">
        <ele>521.744365</ele>
        <time>2022-09-12T17:59:07.403Z</time>
      </trkpt>
      <trkpt lat="47.91057" lon="13.18438">
        <ele>522.436578</ele>
        <time>2022-09-12T17:59:24.389Z</time>
      </trkpt>
      <trkpt lat="47.91049" lon="13.18433">
        <ele>522.944754</ele>
        <time>2022-09-12T17:59:28.691Z</time>
      </trkpt>
      <trkpt lat="47.90979" lon="13.18405">
        <ele>527.276369</ele>
        <time>2022-09-12T18:00:09.406Z</time>
      </trkpt>
      <trkpt lat="47.90961" lon="13.18343">
        <ele>530.015177</ele>
        <time>2022-09-12T18:00:37.979Z</time>
      </trkpt>
      <trkpt lat="47.90948" lon="13.1827">
        <ele>532.883884</ele>
        <time>2022-09-12T18:01:08.029Z</time>
      </trkpt>
      <trkpt lat="47.90946" lon="13.18263">
        <ele>533.102698</ele>
        <time>2022-09-12T18:01:10.353Z</time>
      </trkpt>
      <trkpt lat="47.90924" lon="13.18282">
        <ele>534.17536</ele>
        <time>2022-09-12T18:01:25.270Z</time>
      </trkpt>
      <trkpt lat="47.90896" lon="13.18323">
        <ele>535.826265</ele>
        <time>2022-09-12T18:01:42.399Z</time>
      </trkpt>
      <trkpt lat="47.90883" lon="13.18334">
        <ele>536.48517</ele>
        <time>2022-09-12T18:01:48.086Z</time>
      </trkpt>
      <trkpt lat="47.90864" lon="13.18345">
        <ele>537.354</ele>
        <time>2022-09-12T18:01:56.875Z</time>
      </trkpt>
      <trkpt lat="47.90827" lon="13.18354">
        <ele>538.950184</ele>
        <time>2022-09-12T18:02:12.751Z</time>
      </trkpt>
      <trkpt lat="47.90808" lon="13.18351">
        <ele>539.770011</ele>
        <time>2022-09-12T18:02:21.833Z</time>
      </trkpt>
      <trkpt lat="47.90769" lon="13.18318">
        <ele>541.191093</ele>
        <time>2022-09-12T18:02:41.807Z</time>
      </trkpt>
      <trkpt lat="47.90721" lon="13.18259">
        <ele>542.998943</ele>
        <time>2022-09-12T18:03:07.639Z</time>
      </trkpt>
      <trkpt lat="47.90663" lon="13.18197">
        <ele>545.097256</ele>
        <time>2022-09-12T18:03:35.256Z</time>
      </trkpt>
      <trkpt lat="47.90626" lon="13.18163">
        <ele>546.043904</ele>
        <time>2022-09-12T18:03:50.884Z</time>
      </trkpt>
      <trkpt lat="47.90585" lon="13.18155">
        <ele>546.863938</ele>
        <time>2022-09-12T18:04:06.244Z</time>
      </trkpt>
      <trkpt lat="47.90524" lon="13.1819">
        <ele>548.141484</ele>
        <time>2022-09-12T18:04:30.076Z</time>
      </trkpt>
      <trkpt lat="47.90416" lon="13.18312">
        <ele>550.53475</ele>
        <time>2022-09-12T18:05:16.521Z</time>
      </trkpt>
      <trkpt lat="47.90335" lon="13.18389">
        <ele>552.055458</ele>
        <time>2022-09-12T18:05:50.551Z</time>
      </trkpt>
      <trkpt lat="47.90249" lon="13.18456">
        <ele>552.912184</ele>
        <time>2022-09-12T18:06:22.280Z</time>
      </trkpt>
      <trkpt lat="47.90217" lon="13.18496">
        <ele>553.274299</ele>
        <time>2022-09-12T18:06:34.572Z</time>
      </trkpt>
      <trkpt lat="47.90215" lon="13.18491">
        <ele>553.304063</ele>
        <time>2022-09-12T18:06:35.788Z</time>
      </trkpt>
      <trkpt lat="47.90187" lon="13.18517">
        <ele>553.51042</ele>
        <time>2022-09-12T18:06:44.819Z</time>
      </trkpt>
      <trkpt lat="47.90083" lon="13.18554">
        <ele>553.1581</ele>
        <time>2022-09-12T18:07:12.389Z</time>
      </trkpt>
      <trkpt lat="47.9004" lon="13.18565">
        <ele>553.016116</ele>
        <time>2022-09-12T18:07:23.378Z</time>
      </trkpt>
      <trkpt lat="47.89998" lon="13.18565">
        <ele>552.942366</ele>
        <time>2022-09-12T18:07:34.810Z</time>
      </trkpt>
      <trkpt lat="47.89983" lon="13.18559">
        <ele>552.943635</ele>
        <time>2022-09-12T18:07:39.001Z</time>
      </trkpt>
      <trkpt lat="47.89891" lon="13.18304">
        <ele>553.04354</ele>
        <time>2022-09-12T18:08:33.999Z</time>
      </trkpt>
      <trkpt lat="47.89855" lon="13.18335">
        <ele>553.117919</ele>
        <time>2022-09-12T18:08:45.759Z</time>
      </trkpt>
      <trkpt lat="47.89823" lon="13.18364">
        <ele>553.184446</ele>
        <time>2022-09-12T18:08:56.247Z</time>
      </trkpt>
      <trkpt lat="47.89786" lon="13.18401">
        <ele>553.264919</ele>
        <time>2022-09-12T18:09:09.171Z</time>
      </trkpt>
      <trkpt lat="47.89772" lon="13.18408">
        <ele>553.349306</ele>
        <time>2022-09-12T18:09:13.126Z</time>
      </trkpt>
      <trkpt lat="47.89754" lon="13.18381">
        <ele>553.590598</ele>
        <time>2022-09-12T18:09:21.064Z</time>
      </trkpt>
      <trkpt lat="47.89679" lon="13.18317">
        <ele>554.397125</ele>
        <time>2022-09-12T18:09:47.915Z</time>
      </trkpt>
      <trkpt lat="47.89633" lon="13.18279">
        <ele>554.891158</ele>
        <time>2022-09-12T18:10:07.093Z</time>
      </trkpt>
      <trkpt lat="47.89604" lon="13.18304">
        <ele>555.189464</ele>
        <time>2022-09-12T18:10:18.931Z</time>
      </trkpt>
      <trkpt lat="47.89579" lon="13.1831">
        <ele>555.407131</ele>
        <time>2022-09-12T18:10:27.289Z</time>
      </trkpt>
      <trkpt lat="47.8956" lon="13.18292">
        <ele>555.603197</ele>
        <time>2022-09-12T18:10:34.831Z</time>
      </trkpt>
      <trkpt lat="47.89547" lon="13.1826">
        <ele>555.821642</ele>
        <time>2022-09-12T18:10:43.038Z</time>
      </trkpt>
      <trkpt lat="47.89536" lon="13.1828">
        <ele>555.971085</ele>
        <time>2022-09-12T18:10:48.427Z</time>
      </trkpt>
      <trkpt lat="47.89511" lon="13.18249">
        <ele>556.24907</ele>
        <time>2022-09-12T18:10:58.048Z</time>
      </trkpt>
      <trkpt lat="47.89474" lon="13.182">
        <ele>556.56588</ele>
        <time>2022-09-12T18:11:12.248Z</time>
      </trkpt>
      <trkpt lat="47.89409" lon="13.18137">
        <ele>556.72962</ele>
        <time>2022-09-12T18:11:34.232Z</time>
      </trkpt>
      <trkpt lat="47.89369" lon="13.18109">
        <ele>556.822531</ele>
        <time>2022-09-12T18:11:46.844Z</time>
      </trkpt>
      <trkpt lat="47.8933" lon="13.18086">
        <ele>556.914235</ele>
        <time>2022-09-12T18:11:58.935Z</time>
      </trkpt>
      <trkpt lat="47.89257" lon="13.18046">
        <ele>557.41549</ele>
        <time>2022-09-12T18:12:22.099Z</time>
      </trkpt>
      <trkpt lat="47.89229" lon="13.18022">
        <ele>557.629519</ele>
        <time>2022-09-12T18:12:32.385Z</time>
      </trkpt>
      <trkpt lat="47.89164" lon="13.17961">
        <ele>558.178893</ele>
        <time>2022-09-12T18:12:56.668Z</time>
      </trkpt>
      <trkpt lat="47.89092" lon="13.17883">
        <ele>559.436317</ele>
        <time>2022-09-12T18:13:26.447Z</time>
      </trkpt>
      <trkpt lat="47.89055" lon="13.17846">
        <ele>560.055616</ele>
        <time>2022-09-12T18:13:41.851Z</time>
      </trkpt>
      <trkpt lat="47.89001" lon="13.1781">
        <ele>561.165484</ele>
        <time>2022-09-12T18:14:03.588Z</time>
      </trkpt>
      <trkpt lat="47.88847" lon="13.17744">
        <ele>565.551305</ele>
        <time>2022-09-12T18:15:09.076Z</time>
      </trkpt>
      <trkpt lat="47.88843" lon="13.1776">
        <ele>566.104456</ele>
        <time>2022-09-12T18:15:14.809Z</time>
      </trkpt>
      <trkpt lat="47.8883" lon="13.17771">
        <ele>566.774849</ele>
        <time>2022-09-12T18:15:21.271Z</time>
      </trkpt>
      <trkpt lat="47.88814" lon="13.17754">
        <ele>567.705048</ele>
        <time>2022-09-12T18:15:30.892Z</time>
      </trkpt>
      <trkpt lat="47.88789" lon="13.17722">
        <ele>569.271372</ele>
        <time>2022-09-12T18:15:47.267Z</time>
      </trkpt>
      <trkpt lat="47.8878" lon="13.17724">
        <ele>569.715436</ele>
        <time>2022-09-12T18:15:52.215Z</time>
      </trkpt>
      <trkpt lat="47.88757" lon="13.17741">
        <ele>570.934134</ele>
        <time>2022-09-12T18:16:05.500Z</time>
      </trkpt>
      <trkpt lat="47.88753" lon="13.17744">
        <ele>571.13337</ele>
        <time>2022-09-12T18:16:07.856Z</time>
      </trkpt>
      <trkpt lat="47.88712" lon="13.17723">
        <ele>573.186248</ele>
        <time>2022-09-12T18:16:32.048Z</time>
      </trkpt>
      <trkpt lat="47.88591" lon="13.17696">
        <ele>578.907493</ele>
        <time>2022-09-12T18:17:37.670Z</time>
      </trkpt>
      <trkpt lat="47.88576" lon="13.17692">
        <ele>579.648804</ele>
        <time>2022-09-12T18:17:46.178Z</time>
      </trkpt>
      <trkpt lat="47.88555" lon="13.17699">
        <ele>580.653399</ele>
        <time>2022-09-12T18:17:56.181Z</time>
      </trkpt>
      <trkpt lat="47.88541" lon="13.17733">
        <ele>581.924071</ele>
        <time>2022-09-12T18:18:08.873Z</time>
      </trkpt>
      <trkpt lat="47.88478" lon="13.17671">
        <ele>583.074921</ele>
        <time>2022-09-12T18:18:39.017Z</time>
      </trkpt>
      <trkpt lat="47.88281" lon="13.17418">
        <ele>583.743478</ele>
        <time>2022-09-12T18:19:49.130Z</time>
      </trkpt>
      <trkpt lat="47.88205" lon="13.1736">
        <ele>583.200876</ele>
        <time>2022-09-12T18:20:09.983Z</time>
      </trkpt>
      <trkpt lat="47.88198" lon="13.17349">
        <ele>583.11655</ele>
        <time>2022-09-12T18:20:12.712Z</time>
      </trkpt>
      <trkpt lat="47.88177" lon="13.17256">
        <ele>582.553392</ele>
        <time>2022-09-12T18:20:29.324Z</time>
      </trkpt>
      <trkpt lat="47.88133" lon="13.17204">
        <ele>582.046653</ele>
        <time>2022-09-12T18:20:42.404Z</time>
      </trkpt>
      <trkpt lat="47.88102" lon="13.17146">
        <ele>581.076598</ele>
        <time>2022-09-12T18:20:53.554Z</time>
      </trkpt>
      <trkpt lat="47.88078" lon="13.17086">
        <ele>580.162709</ele>
        <time>2022-09-12T18:21:03.646Z</time>
      </trkpt>
      <trkpt lat="47.8806" lon="13.16945">
        <ele>578.123597</ele>
        <time>2022-09-12T18:21:23.386Z</time>
      </trkpt>
      <trkpt lat="47.88042" lon="13.16839">
        <ele>575.943454</ele>
        <time>2022-09-12T18:21:37.769Z</time>
      </trkpt>
      <trkpt lat="47.8802" lon="13.16742">
        <ele>573.920352</ele>
        <time>2022-09-12T18:21:51.156Z</time>
      </trkpt>
      <trkpt lat="47.87986" lon="13.16639">
        <ele>571.697277</ele>
        <time>2022-09-12T18:22:06.466Z</time>
      </trkpt>
      <trkpt lat="47.87907" lon="13.16457">
        <ele>567.568535</ele>
        <time>2022-09-12T18:22:35.683Z</time>
      </trkpt>
      <trkpt lat="47.87892" lon="13.16432">
        <ele>566.940396</ele>
        <time>2022-09-12T18:22:40.084Z</time>
      </trkpt>
      <trkpt lat="47.87844" lon="13.16341">
        <ele>564.752063</ele>
        <time>2022-09-12T18:22:55.420Z</time>
      </trkpt>
      <trkpt lat="47.87835" lon="13.16333">
        <ele>564.461413</ele>
        <time>2022-09-12T18:22:57.416Z</time>
      </trkpt>
      <trkpt lat="47.87777" lon="13.16189">
        <ele>562.153846</ele>
        <time>2022-09-12T18:23:20.299Z</time>
      </trkpt>
      <trkpt lat="47.87755" lon="13.16133">
        <ele>561.520309</ele>
        <time>2022-09-12T18:23:29.924Z</time>
      </trkpt>
      <trkpt lat="47.87762" lon="13.16128">
        <ele>561.399204</ele>
        <time>2022-09-12T18:23:31.885Z</time>
      </trkpt>
      <trkpt lat="47.87758" lon="13.16115">
        <ele>561.261712</ele>
        <time>2022-09-12T18:23:34.138Z</time>
      </trkpt>
      <trkpt lat="47.87766" lon="13.16108">
        <ele>561.121598</ele>
        <time>2022-09-12T18:23:36.445Z</time>
      </trkpt>
      <trkpt lat="47.87694" lon="13.15915">
        <ele>560.595071</ele>
        <time>2022-09-12T18:24:14.743Z</time>
      </trkpt>
      <trkpt lat="47.87651" lon="13.15816">
        <ele>560.710131</ele>
        <time>2022-09-12T18:24:38.069Z</time>
      </trkpt>
      <trkpt lat="47.87556" lon="13.15641">
        <ele>561.595688</ele>
        <time>2022-09-12T18:25:23.240Z</time>
      </trkpt>
      <trkpt lat="47.87509" lon="13.1554">
        <ele>561.850094</ele>
        <time>2022-09-12T18:25:46.994Z</time>
      </trkpt>
      <trkpt lat="47.87452" lon="13.15367">
        <ele>562.057264</ele>
        <time>2022-09-12T18:26:21.569Z</time>
      </trkpt>
      <trkpt lat="47.87409" lon="13.15252">
        <ele>562.045877</ele>
        <time>2022-09-12T18:26:44.643Z</time>
      </trkpt>
      <trkpt lat="47.87353" lon="13.15137">
        <ele>562.030727</ele>
        <time>2022-09-12T18:27:10.379Z</time>
      </trkpt>
      <trkpt lat="47.87333" lon="13.15089">
        <ele>562.01316</ele>
        <time>2022-09-12T18:27:20.754Z</time>
      </trkpt>
      <trkpt lat="47.87324" lon="13.15079">
        <ele>562.007938</ele>
        <time>2022-09-12T18:27:23.750Z</time>
      </trkpt>
      <trkpt lat="47.87301" lon="13.15029">
        <ele>561.988999</ele>
        <time>2022-09-12T18:27:34.901Z</time>
      </trkpt>
      <trkpt lat="47.87266" lon="13.14961">
        <ele>561.962205</ele>
        <time>2022-09-12T18:27:50.309Z</time>
      </trkpt>
      <trkpt lat="47.87222" lon="13.1483">
        <ele>560.862002</ele>
        <time>2022-09-12T18:28:14.294Z</time>
      </trkpt>
      <trkpt lat="47.87211" lon="13.14777">
        <ele>560.305411</ele>
        <time>2022-09-12T18:28:22.451Z</time>
      </trkpt>
      <trkpt lat="47.87206" lon="13.14669">
        <ele>559.191313</ele>
        <time>2022-09-12T18:28:37.360Z</time>
      </trkpt>
      <trkpt lat="47.87199" lon="13.14632">
        <ele>558.52727</ele>
        <time>2022-09-12T18:28:42.449Z</time>
      </trkpt>
      <trkpt lat="47.87183" lon="13.14567">
        <ele>557.313387</ele>
        <time>2022-09-12T18:28:51.843Z</time>
      </trkpt>
      <trkpt lat="47.87181" lon="13.1456">
        <ele>557.178446</ele>
        <time>2022-09-12T18:28:52.855Z</time>
      </trkpt>
      <trkpt lat="47.87154" lon="13.14471">
        <ele>555.48279</ele>
        <time>2022-09-12T18:29:05.818Z</time>
      </trkpt>
      <trkpt lat="47.87134" lon="13.14397">
        <ele>554.385498</ele>
        <time>2022-09-12T18:29:16.812Z</time>
      </trkpt>
      <trkpt lat="47.87128" lon="13.14377">
        <ele>554.217867</ele>
        <time>2022-09-12T18:29:20.010Z</time>
      </trkpt>
      <trkpt lat="47.87102" lon="13.14286">
        <ele>553.454827</ele>
        <time>2022-09-12T18:29:35.592Z</time>
      </trkpt>
      <trkpt lat="47.87056" lon="13.14116">
        <ele>551.612847</ele>
        <time>2022-09-12T18:30:05.410Z</time>
      </trkpt>
      <trkpt lat="47.87049" lon="13.14091">
        <ele>551.244138</ele>
        <time>2022-09-12T18:30:09.307Z</time>
      </trkpt>
      <trkpt lat="47.87047" lon="13.14083">
        <ele>551.120974</ele>
        <time>2022-09-12T18:30:10.618Z</time>
      </trkpt>
      <trkpt lat="47.87044" lon="13.14069">
        <ele>550.904495</ele>
        <time>2022-09-12T18:30:12.869Z</time>
      </trkpt>
      <trkpt lat="47.87041" lon="13.1406">
        <ele>550.762964</ele>
        <time>2022-09-12T18:30:14.310Z</time>
      </trkpt>
      <trkpt lat="47.8704" lon="13.14053">
        <ele>550.659932</ele>
        <time>2022-09-12T18:30:15.363Z</time>
      </trkpt>
      <trkpt lat="47.87023" lon="13.13983">
        <ele>549.615634</ele>
        <time>2022-09-12T18:30:25.666Z</time>
      </trkpt>
      <trkpt lat="47.86991" lon="13.13829">
        <ele>546.346528</ele>
        <time>2022-09-12T18:30:45.955Z</time>
      </trkpt>
      <trkpt lat="47.86994" lon="13.13775">
        <ele>545.039398</ele>
        <time>2022-09-12T18:30:52.647Z</time>
      </trkpt>
      <trkpt lat="47.87011" lon="13.1371">
        <ele>543.35762</ele>
        <time>2022-09-12T18:31:01.470Z</time>
      </trkpt>
      <trkpt lat="47.87015" lon="13.13669">
        <ele>542.344558</ele>
        <time>2022-09-12T18:31:07.095Z</time>
      </trkpt>
      <trkpt lat="47.87013" lon="13.13637">
        <ele>542.37134</ele>
        <time>2022-09-12T18:31:11.725Z</time>
      </trkpt>
      <trkpt lat="47.87002" lon="13.136">
        <ele>542.427598</ele>
        <time>2022-09-12T18:31:17.798Z</time>
      </trkpt>
      <trkpt lat="47.86987" lon="13.13577">
        <ele>542.473064</ele>
        <time>2022-09-12T18:31:22.884Z</time>
      </trkpt>
      <trkpt lat="47.86963" lon="13.13559">
        <ele>542.529973</ele>
        <time>2022-09-12T18:31:30.494Z</time>
      </trkpt>
      <trkpt lat="47.86945" lon="13.13546">
        <ele>542.571552</ele>
        <time>2022-09-12T18:31:36.711Z</time>
      </trkpt>
      <trkpt lat="47.86916" lon="13.13523">
        <ele>542.640278</ele>
        <time>2022-09-12T18:31:48.039Z</time>
      </trkpt>
      <trkpt lat="47.86844" lon="13.13435">
        <ele>544.331125</ele>
        <time>2022-09-12T18:32:25.211Z</time>
      </trkpt>
      <trkpt lat="47.86816" lon="13.13398">
        <ele>545.321673</ele>
        <time>2022-09-12T18:32:41.206Z</time>
      </trkpt>
      <trkpt lat="47.868" lon="13.13376">
        <ele>545.893433</ele>
        <time>2022-09-12T18:32:50.039Z</time>
      </trkpt>
      <trkpt lat="47.86826" lon="13.1332">
        <ele>547.079904</ele>
        <time>2022-09-12T18:33:07.495Z</time>
      </trkpt>
      <trkpt lat="47.86834" lon="13.13287">
        <ele>547.576315</ele>
        <time>2022-09-12T18:33:16.440Z</time>
      </trkpt>
      <trkpt lat="47.86846" lon="13.1326">
        <ele>547.905912</ele>
        <time>2022-09-12T18:33:24.470Z</time>
      </trkpt>
      <trkpt lat="47.86851" lon="13.13231">
        <ele>548.209486</ele>
        <time>2022-09-12T18:33:31.776Z</time>
      </trkpt>
      <trkpt lat="47.86846" lon="13.13207">
        <ele>548.455288</ele>
        <time>2022-09-12T18:33:37.504Z</time>
      </trkpt>
      <trkpt lat="47.86814" lon="13.13144">
        <ele>549.26169</ele>
        <time>2022-09-12T18:33:56.083Z</time>
      </trkpt>
      <trkpt lat="47.86797" lon="13.13098">
        <ele>549.783969</ele>
        <time>2022-09-12T18:34:07.348Z</time>
      </trkpt>
      <trkpt lat="47.8678" lon="13.13046">
        <ele>550.177418</ele>
        <time>2022-09-12T18:34:19.429Z</time>
      </trkpt>
      <trkpt lat="47.86802" lon="13.13014">
        <ele>550.287991</ele>
        <time>2022-09-12T18:34:28.643Z</time>
      </trkpt>
      <trkpt lat="47.86825" lon="13.12979">
        <ele>550.40461</ele>
        <time>2022-09-12T18:34:38.160Z</time>
      </trkpt>
      <trkpt lat="47.86846" lon="13.12948">
        <ele>550.510446</ele>
        <time>2022-09-12T18:34:46.536Z</time>
      </trkpt>
      <trkpt lat="47.86858" lon="13.12932">
        <ele>550.566299</ele>
        <time>2022-09-12T18:34:50.882Z</time>
      </trkpt>
      <trkpt lat="47.86864" lon="13.1292">
        <ele>550.6028</ele>
        <time>2022-09-12T18:34:53.598Z</time>
      </trkpt>
      <trkpt lat="47.86862" lon="13.12916">
        <ele>550.613783</ele>
        <time>2022-09-12T18:34:55.731Z</time>
      </trkpt>
      <trkpt lat="47.86846" lon="13.12889">
        <ele>550.700021</ele>
        <time>2022-09-12T18:35:02.260Z</time>
      </trkpt>
      <trkpt lat="47.86843" lon="13.12886">
        <ele>550.712145</ele>
        <time>2022-09-12T18:35:04.607Z</time>
      </trkpt>
      <trkpt lat="47.86856" lon="13.12867">
        <ele>550.782375</ele>
        <time>2022-09-12T18:35:09.126Z</time>
      </trkpt>
      <trkpt lat="47.86857" lon="13.1284">
        <ele>550.87839</ele>
        <time>2022-09-12T18:35:13.793Z</time>
      </trkpt>
      <trkpt lat="47.86843" lon="13.12836">
        <ele>550.952935</ele>
        <time>2022-09-12T18:35:17.379Z</time>
      </trkpt>
      <trkpt lat="47.86809" lon="13.12703">
        <ele>551.455124</ele>
        <time>2022-09-12T18:35:44.012Z</time>
      </trkpt>
      <trkpt lat="47.86801" lon="13.12617">
        <ele>551.970859</ele>
        <time>2022-09-12T18:36:02.980Z</time>
      </trkpt>
      <trkpt lat="47.86801" lon="13.12585">
        <ele>552.474452</ele>
        <time>2022-09-12T18:36:10.865Z</time>
      </trkpt>
      <trkpt lat="47.86812" lon="13.12576">
        <ele>552.766636</ele>
        <time>2022-09-12T18:36:15.368Z</time>
      </trkpt>
      <trkpt lat="47.86786" lon="13.12476">
        <ele>554.469668</ele>
        <time>2022-09-12T18:36:44.046Z</time>
      </trkpt>
      <trkpt lat="47.86784" lon="13.12466">
        <ele>554.633883</ele>
        <time>2022-09-12T18:36:46.893Z</time>
      </trkpt>
      <trkpt lat="47.86769" lon="13.12408">
        <ele>555.618505</ele>
        <time>2022-09-12T18:37:03.909Z</time>
      </trkpt>
      <trkpt lat="47.86768" lon="13.12405">
        <ele>555.672747</ele>
        <time>2022-09-12T18:37:04.888Z</time>
      </trkpt>
      <trkpt lat="47.86765" lon="13.12392">
        <ele>555.904113</ele>
        <time>2022-09-12T18:37:08.907Z</time>
      </trkpt>
      <trkpt lat="47.86756" lon="13.12356">
        <ele>556.137082</ele>
        <time>2022-09-12T18:37:18.970Z</time>
      </trkpt>
      <trkpt lat="47.86754" lon="13.12348">
        <ele>556.178917</ele>
        <time>2022-09-12T18:37:21.101Z</time>
      </trkpt>
      <trkpt lat="47.86753" lon="13.12342">
        <ele>556.208534</ele>
        <time>2022-09-12T18:37:22.512Z</time>
      </trkpt>
      <trkpt lat="47.86752" lon="13.12331">
        <ele>556.264098</ele>
        <time>2022-09-12T18:37:25.112Z</time>
      </trkpt>
      <trkpt lat="47.86751" lon="13.12325">
        <ele>556.299099</ele>
        <time>2022-09-12T18:37:26.679Z</time>
      </trkpt>
      <trkpt lat="47.86751" lon="13.12319">
        <ele>556.327758</ele>
        <time>2022-09-12T18:37:27.964Z</time>
      </trkpt>
      <trkpt lat="47.86748" lon="13.12297">
        <ele>556.443534</ele>
        <time>2022-09-12T18:37:33.283Z</time>
      </trkpt>
      <trkpt lat="47.86736" lon="13.12216">
        <ele>556.871677</ele>
        <time>2022-09-12T18:37:50.110Z</time>
      </trkpt>
      <trkpt lat="47.8673" lon="13.12219">
        <ele>556.923942</ele>
        <time>2022-09-12T18:37:51.819Z</time>
      </trkpt>
      <trkpt lat="47.86715" lon="13.12227">
        <ele>557.043786</ele>
        <time>2022-09-12T18:37:55.898Z</time>
      </trkpt>
      <trkpt lat="47.86707" lon="13.12231">
        <ele>557.10809</ele>
        <time>2022-09-12T18:37:57.983Z</time>
      </trkpt>
      <trkpt lat="47.86677" lon="13.12246">
        <ele>557.316641</ele>
        <time>2022-09-12T18:38:05.355Z</time>
      </trkpt>
      <trkpt lat="47.86657" lon="13.12255">
        <ele>557.119558</ele>
        <time>2022-09-12T18:38:10.086Z</time>
      </trkpt>
      <trkpt lat="47.86654" lon="13.12256">
        <ele>557.094544</ele>
        <time>2022-09-12T18:38:10.705Z</time>
      </trkpt>
      <trkpt lat="47.86601" lon="13.12292">
        <ele>556.55625</ele>
        <time>2022-09-12T18:38:23.363Z</time>
      </trkpt>
      <trkpt lat="47.8659" lon="13.12289">
        <ele>556.449603</ele>
        <time>2022-09-12T18:38:25.783Z</time>
      </trkpt>
      <trkpt lat="47.86414" lon="13.12332">
        <ele>555.994262</ele>
        <time>2022-09-12T18:39:10.264Z</time>
      </trkpt>
      <trkpt lat="47.86409" lon="13.12333">
        <ele>556.012157</ele>
        <time>2022-09-12T18:39:11.973Z</time>
      </trkpt>
      <trkpt lat="47.86351" lon="13.12346">
        <ele>556.215779</ele>
        <time>2022-09-12T18:39:31.401Z</time>
      </trkpt>
      <trkpt lat="47.86324" lon="13.12352">
        <ele>556.293755</ele>
        <time>2022-09-12T18:39:40.466Z</time>
      </trkpt>
      <trkpt lat="47.86228" lon="13.12376">
        <ele>556.295359</ele>
        <time>2022-09-12T18:40:08.873Z</time>
      </trkpt>
      <trkpt lat="47.86218" lon="13.1238">
        <ele>556.295525</ele>
        <time>2022-09-12T18:40:11.495Z</time>
      </trkpt>
      <trkpt lat="47.86153" lon="13.12398">
        <ele>556.296608</ele>
        <time>2022-09-12T18:40:26.968Z</time>
      </trkpt>
      <trkpt lat="47.86142" lon="13.124">
        <ele>556.192469</ele>
        <time>2022-09-12T18:40:29.605Z</time>
      </trkpt>
      <trkpt lat="47.86132" lon="13.12402">
        <ele>556.086887</ele>
        <time>2022-09-12T18:40:31.948Z</time>
      </trkpt>
      <trkpt lat="47.86125" lon="13.12357">
        <ele>555.771409</ele>
        <time>2022-09-12T18:40:38.783Z</time>
      </trkpt>
      <trkpt lat="47.86116" lon="13.12312">
        <ele>555.443171</ele>
        <time>2022-09-12T18:40:45.776Z</time>
      </trkpt>
      <trkpt lat="47.86107" lon="13.12274">
        <ele>555.171747</ele>
        <time>2022-09-12T18:40:51.473Z</time>
      </trkpt>
      <trkpt lat="47.85936" lon="13.11652">
        <ele>552.501689</ele>
        <time>2022-09-12T18:42:42.896Z</time>
      </trkpt>
      <trkpt lat="47.8592" lon="13.11605">
        <ele>552.28785</ele>
        <time>2022-09-12T18:42:51.702Z</time>
      </trkpt>
      <trkpt lat="47.85896" lon="13.11555">
        <ele>552.036186</ele>
        <time>2022-09-12T18:43:01.869Z</time>
      </trkpt>
      <trkpt lat="47.85841" lon="13.11478">
        <ele>551.577787</ele>
        <time>2022-09-12T18:43:19.876Z</time>
      </trkpt>
      <trkpt lat="47.85787" lon="13.11403">
        <ele>550.883568</ele>
        <time>2022-09-12T18:43:37.121Z</time>
      </trkpt>
      <trkpt lat="47.85756" lon="13.11346">
        <ele>550.401073</ele>
        <time>2022-09-12T18:43:48.519Z</time>
      </trkpt>
      <trkpt lat="47.85648" lon="13.11104">
        <ele>548.609414</ele>
        <time>2022-09-12T18:44:33.710Z</time>
      </trkpt>
      <trkpt lat="47.85596" lon="13.10994">
        <ele>547.751877</ele>
        <time>2022-09-12T18:44:55.186Z</time>
      </trkpt>
      <trkpt lat="47.85517" lon="13.10913">
        <ele>546.78306</ele>
        <time>2022-09-12T18:45:17.646Z</time>
      </trkpt>
      <trkpt lat="47.85508" lon="13.10904">
        <ele>546.670021</ele>
        <time>2022-09-12T18:45:20.243Z</time>
      </trkpt>
      <trkpt lat="47.85495" lon="13.10893">
        <ele>546.519315</ele>
        <time>2022-09-12T18:45:23.633Z</time>
      </trkpt>
      <trkpt lat="47.85466" lon="13.10856">
        <ele>545.874223</ele>
        <time>2022-09-12T18:45:32.109Z</time>
      </trkpt>
      <trkpt lat="47.85458" lon="13.10854">
        <ele>545.705818</ele>
        <time>2022-09-12T18:45:33.762Z</time>
      </trkpt>
      <trkpt lat="47.85439" lon="13.10852">
        <ele>545.291663</ele>
        <time>2022-09-12T18:45:37.853Z</time>
      </trkpt>
      <trkpt lat="47.8542" lon="13.10835">
        <ele>544.815081</ele>
        <time>2022-09-12T18:45:42.618Z</time>
      </trkpt>
      <trkpt lat="47.85385" lon="13.10812">
        <ele>543.99941</ele>
        <time>2022-09-12T18:45:50.535Z</time>
      </trkpt>
      <trkpt lat="47.85329" lon="13.10785">
        <ele>542.71916</ele>
        <time>2022-09-12T18:46:02.576Z</time>
      </trkpt>
      <trkpt lat="47.85326" lon="13.10779">
        <ele>542.612091</ele>
        <time>2022-09-12T18:46:03.544Z</time>
      </trkpt>
      <trkpt lat="47.85316" lon="13.10754">
        <ele>542.075346</ele>
        <time>2022-09-12T18:46:07.363Z</time>
      </trkpt>
      <trkpt lat="47.8528" lon="13.10711">
        <ele>540.68589</ele>
        <time>2022-09-12T18:46:16.496Z</time>
      </trkpt>
      <trkpt lat="47.85267" lon="13.10684">
        <ele>540.014485</ele>
        <time>2022-09-12T18:46:20.768Z</time>
      </trkpt>
      <trkpt lat="47.85239" lon="13.10678">
        <ele>539.170965</ele>
        <time>2022-09-12T18:46:26.295Z</time>
      </trkpt>
      <trkpt lat="47.85202" lon="13.10637">
        <ele>537.765425</ele>
        <time>2022-09-12T18:46:35.419Z</time>
      </trkpt>
      <trkpt lat="47.851" lon="13.10555">
        <ele>534.863827</ele>
        <time>2022-09-12T18:46:58.653Z</time>
      </trkpt>
      <trkpt lat="47.85018" lon="13.10492">
        <ele>532.726159</ele>
        <time>2022-09-12T18:47:18.089Z</time>
      </trkpt>
      <trkpt lat="47.84988" lon="13.10452">
        <ele>532.154464</ele>
        <time>2022-09-12T18:47:27.118Z</time>
      </trkpt>
      <trkpt lat="47.84982" lon="13.10442">
        <ele>532.018448</ele>
        <time>2022-09-12T18:47:29.246Z</time>
      </trkpt>
      <trkpt lat="47.84974" lon="13.10428">
        <ele>531.850268</ele>
        <time>2022-09-12T18:47:31.888Z</time>
      </trkpt>
      <trkpt lat="47.84971" lon="13.10425">
        <ele>531.796084</ele>
        <time>2022-09-12T18:47:32.733Z</time>
      </trkpt>
      <trkpt lat="47.84899" lon="13.10339">
        <ele>530.469023</ele>
        <time>2022-09-12T18:47:53.267Z</time>
      </trkpt>
      <trkpt lat="47.8488" lon="13.10302">
        <ele>529.998279</ele>
        <time>2022-09-12T18:48:00.211Z</time>
      </trkpt>
      <trkpt lat="47.84804" lon="13.10133">
        <ele>527.890567</ele>
        <time>2022-09-12T18:48:30.361Z</time>
      </trkpt>
      <trkpt lat="47.84777" lon="13.10085">
        <ele>527.177469</ele>
        <time>2022-09-12T18:48:39.250Z</time>
      </trkpt>
      <trkpt lat="47.84748" lon="13.10064">
        <ele>526.498924</ele>
        <time>2022-09-12T18:48:46.214Z</time>
      </trkpt>
      <trkpt lat="47.84669" lon="13.10049">
        <ele>524.823841</ele>
        <time>2022-09-12T18:49:03.344Z</time>
      </trkpt>
      <trkpt lat="47.84627" lon="13.10035">
        <ele>523.924716</ele>
        <time>2022-09-12T18:49:12.155Z</time>
      </trkpt>
      <trkpt lat="47.84605" lon="13.10018">
        <ele>523.359756</ele>
        <time>2022-09-12T18:49:16.961Z</time>
      </trkpt>
      <trkpt lat="47.8457" lon="13.09966">
        <ele>522.062573</ele>
        <time>2022-09-12T18:49:26.666Z</time>
      </trkpt>
      <trkpt lat="47.84524" lon="13.0979">
        <ele>518.864835</ele>
        <time>2022-09-12T18:49:52.129Z</time>
      </trkpt>
      <trkpt lat="47.84457" lon="13.09548">
        <ele>516.822907</ele>
        <time>2022-09-12T18:50:33.085Z</time>
      </trkpt>
      <trkpt lat="47.84432" lon="13.09489">
        <ele>516.224253</ele>
        <time>2022-09-12T18:50:45.098Z</time>
      </trkpt>
      <trkpt lat="47.844" lon="13.09434">
        <ele>515.590519</ele>
        <time>2022-09-12T18:50:56.860Z</time>
      </trkpt>
      <trkpt lat="47.84371" lon="13.09367">
        <ele>514.90316</ele>
        <time>2022-09-12T18:51:08.582Z</time>
      </trkpt>
      <trkpt lat="47.84362" lon="13.09325">
        <ele>514.463762</ele>
        <time>2022-09-12T18:51:14.578Z</time>
      </trkpt>
      <trkpt lat="47.8436" lon="13.0926">
        <ele>512.978066</ele>
        <time>2022-09-12T18:51:23.168Z</time>
      </trkpt>
      <trkpt lat="47.84368" lon="13.09214">
        <ele>511.884453</ele>
        <time>2022-09-12T18:51:29.469Z</time>
      </trkpt>
      <trkpt lat="47.84395" lon="13.09121">
        <ele>509.582516</ele>
        <time>2022-09-12T18:51:42.240Z</time>
      </trkpt>
      <trkpt lat="47.84397" lon="13.09112">
        <ele>509.37297</ele>
        <time>2022-09-12T18:51:43.355Z</time>
      </trkpt>
      <trkpt lat="47.84437" lon="13.0897">
        <ele>506.256219</ele>
        <time>2022-09-12T18:52:03.194Z</time>
      </trkpt>
      <trkpt lat="47.84466" lon="13.08905">
        <ele>504.738212</ele>
        <time>2022-09-12T18:52:13.854Z</time>
      </trkpt>
      <trkpt lat="47.84488" lon="13.08882">
        <ele>503.966117</ele>
        <time>2022-09-12T18:52:19.805Z</time>
      </trkpt>
      <trkpt lat="47.84599" lon="13.08807">
        <ele>500.229149</ele>
        <time>2022-09-12T18:52:44.823Z</time>
      </trkpt>
      <trkpt lat="47.8464" lon="13.08752">
        <ele>498.525392</ele>
        <time>2022-09-12T18:52:55.390Z</time>
      </trkpt>
      <trkpt lat="47.84717" lon="13.0863">
        <ele>494.27109</ele>
        <time>2022-09-12T18:53:16.019Z</time>
      </trkpt>
      <trkpt lat="47.84754" lon="13.08562">
        <ele>491.935129</ele>
        <time>2022-09-12T18:53:26.924Z</time>
      </trkpt>
      <trkpt lat="47.84761" lon="13.08535">
        <ele>491.16785</ele>
        <time>2022-09-12T18:53:30.655Z</time>
      </trkpt>
      <trkpt lat="47.84768" lon="13.08448">
        <ele>489.374347</ele>
        <time>2022-09-12T18:53:42.641Z</time>
      </trkpt>
      <trkpt lat="47.84762" lon="13.084">
        <ele>488.486514</ele>
        <time>2022-09-12T18:53:49.746Z</time>
      </trkpt>
      <trkpt lat="47.84741" lon="13.08342">
        <ele>487.29874</ele>
        <time>2022-09-12T18:53:59.062Z</time>
      </trkpt>
      <trkpt lat="47.84719" lon="13.08317">
        <ele>486.561439</ele>
        <time>2022-09-12T18:54:04.790Z</time>
      </trkpt>
      <trkpt lat="47.84583" lon="13.08219">
        <ele>480.778259</ele>
        <time>2022-09-12T18:54:33.484Z</time>
      </trkpt>
      <trkpt lat="47.84565" lon="13.08209">
        <ele>479.992278</ele>
        <time>2022-09-12T18:54:36.897Z</time>
      </trkpt>
      <trkpt lat="47.84509" lon="13.082">
        <ele>477.686853</ele>
        <time>2022-09-12T18:54:47.027Z</time>
      </trkpt>
      <trkpt lat="47.84477" lon="13.08206">
        <ele>476.424124</ele>
        <time>2022-09-12T18:54:52.926Z</time>
      </trkpt>
      <trkpt lat="47.84404" lon="13.08241">
        <ele>473.397271</ele>
        <time>2022-09-12T18:55:07.411Z</time>
      </trkpt>
      <trkpt lat="47.84373" lon="13.08246">
        <ele>472.17014</ele>
        <time>2022-09-12T18:55:13.436Z</time>
      </trkpt>
      <trkpt lat="47.84338" lon="13.08242">
        <ele>470.918828</ele>
        <time>2022-09-12T18:55:20.338Z</time>
      </trkpt>
      <trkpt lat="47.84309" lon="13.08231">
        <ele>470.191088</ele>
        <time>2022-09-12T18:55:26.239Z</time>
      </trkpt>
      <trkpt lat="47.84272" lon="13.08205">
        <ele>469.177778</ele>
        <time>2022-09-12T18:55:34.516Z</time>
      </trkpt>
      <trkpt lat="47.84172" lon="13.08116">
        <ele>466.424159</ele>
        <time>2022-09-12T18:55:58.824Z</time>
      </trkpt>
      <trkpt lat="47.84122" lon="13.08075">
        <ele>465.42654</ele>
        <time>2022-09-12T18:56:11.030Z</time>
      </trkpt>
      <trkpt lat="47.83957" lon="13.07917">
        <ele>461.981199</ele>
        <time>2022-09-12T18:56:53.811Z</time>
      </trkpt>
      <trkpt lat="47.83945" lon="13.07908">
        <ele>461.739947</ele>
        <time>2022-09-12T18:56:56.762Z</time>
      </trkpt>
      <trkpt lat="47.8375" lon="13.07715">
        <ele>457.218573</ele>
        <time>2022-09-12T18:57:46.159Z</time>
      </trkpt>
      <trkpt lat="47.83715" lon="13.07688">
        <ele>456.269634</ele>
        <time>2022-09-12T18:57:54.449Z</time>
      </trkpt>
      <trkpt lat="47.83696" lon="13.07679">
        <ele>455.693249</ele>
        <time>2022-09-12T18:57:58.573Z</time>
      </trkpt>
      <trkpt lat="47.83653" lon="13.07672">
        <ele>454.429047</ele>
        <time>2022-09-12T18:58:07.556Z</time>
      </trkpt>
      <trkpt lat="47.83496" lon="13.07671">
        <ele>449.177455</ele>
        <time>2022-09-12T18:58:37.901Z</time>
      </trkpt>
      <trkpt lat="47.8335" lon="13.07671">
        <ele>443.306449</ele>
        <time>2022-09-12T18:59:04.831Z</time>
      </trkpt>
      <trkpt lat="47.83309" lon="13.0766">
        <ele>441.881924</ele>
        <time>2022-09-12T18:59:12.557Z</time>
      </trkpt>
      <trkpt lat="47.83267" lon="13.07631">
        <ele>440.265219</ele>
        <time>2022-09-12T18:59:21.545Z</time>
      </trkpt>
      <trkpt lat="47.83167" lon="13.07504">
        <ele>436.813403</ele>
        <time>2022-09-12T18:59:48.208Z</time>
      </trkpt>
      <trkpt lat="47.83143" lon="13.07462">
        <ele>436.175222</ele>
        <time>2022-09-12T18:59:56.112Z</time>
      </trkpt>
      <trkpt lat="47.8293" lon="13.06978">
        <ele>431.966304</ele>
        <time>2022-09-12T19:01:25.817Z</time>
      </trkpt>
      <trkpt lat="47.82909" lon="13.06922">
        <ele>431.642646</ele>
        <time>2022-09-12T19:01:36.688Z</time>
      </trkpt>
      <trkpt lat="47.82864" lon="13.06775">
        <ele>431.894239</ele>
        <time>2022-09-12T19:02:06.659Z</time>
      </trkpt>
      <trkpt lat="47.82804" lon="13.06521">
        <ele>432.454155</ele>
        <time>2022-09-12T19:02:59.915Z</time>
      </trkpt>
      <trkpt lat="47.82761" lon="13.0633">
        <ele>432.675143</ele>
        <time>2022-09-12T19:03:36.105Z</time>
      </trkpt>
      <trkpt lat="47.82756" lon="13.06293">
        <ele>432.664753</ele>
        <time>2022-09-12T19:03:42.765Z</time>
      </trkpt>
      <trkpt lat="47.82757" lon="13.06229">
        <ele>432.647271</ele>
        <time>2022-09-12T19:03:54.023Z</time>
      </trkpt>
      <trkpt lat="47.82764" lon="13.06156">
        <ele>432.627112</ele>
        <time>2022-09-12T19:04:07.374Z</time>
      </trkpt>
      <trkpt lat="47.82768" lon="13.06122">
        <ele>432.488226</ele>
        <time>2022-09-12T19:04:13.450Z</time>
      </trkpt>
      <trkpt lat="47.82769" lon="13.06112">
        <ele>432.437432</ele>
        <time>2022-09-12T19:04:15.143Z</time>
      </trkpt>
      <trkpt lat="47.82775" lon="13.06059">
        <ele>432.153685</ele>
        <time>2022-09-12T19:04:24.210Z</time>
      </trkpt>
      <trkpt lat="47.82776" lon="13.06042">
        <ele>432.066992</ele>
        <time>2022-09-12T19:04:26.919Z</time>
      </trkpt>
      <trkpt lat="47.82786" lon="13.05935">
        <ele>431.501232</ele>
        <time>2022-09-12T19:04:43.807Z</time>
      </trkpt>
      <trkpt lat="47.82792" lon="13.05845">
        <ele>430.807983</ele>
        <time>2022-09-12T19:04:57.560Z</time>
      </trkpt>
      <trkpt lat="47.82786" lon="13.05787">
        <ele>430.149141</ele>
        <time>2022-09-12T19:05:06.110Z</time>
      </trkpt>
      <trkpt lat="47.82773" lon="13.05733">
        <ele>429.502581</ele>
        <time>2022-09-12T19:05:14.368Z</time>
      </trkpt>
      <trkpt lat="47.82769" lon="13.05722">
        <ele>429.362387</ele>
        <time>2022-09-12T19:05:16.142Z</time>
      </trkpt>
      <trkpt lat="47.82764" lon="13.05716">
        <ele>429.256047</ele>
        <time>2022-09-12T19:05:17.443Z</time>
      </trkpt>
      <trkpt lat="47.82769" lon="13.05703">
        <ele>429.090159</ele>
        <time>2022-09-12T19:05:19.574Z</time>
      </trkpt>
      <trkpt lat="47.82757" lon="13.05691">
        <ele>428.849837</ele>
        <time>2022-09-12T19:05:22.557Z</time>
      </trkpt>
      <trkpt lat="47.82731" lon="13.0566">
        <ele>428.287099</ele>
        <time>2022-09-12T19:05:29.710Z</time>
      </trkpt>
      <trkpt lat="47.82621" lon="13.0553">
        <ele>426.131289</ele>
        <time>2022-09-12T19:06:00.530Z</time>
      </trkpt>
      <trkpt lat="47.8258" lon="13.05489">
        <ele>425.432063</ele>
        <time>2022-09-12T19:06:11.504Z</time>
      </trkpt>
      <trkpt lat="47.82563" lon="13.05465">
        <ele>425.303938</ele>
        <time>2022-09-12T19:06:16.730Z</time>
      </trkpt>
      <trkpt lat="47.82562" lon="13.05462">
        <ele>425.291657</ele>
        <time>2022-09-12T19:06:17.220Z</time>
      </trkpt>
      <trkpt lat="47.82553" lon="13.05465">
        <ele>425.241648</ele>
        <time>2022-09-12T19:06:19.240Z</time>
      </trkpt>
      <trkpt lat="47.82551" lon="13.05451">
        <ele>425.19076</ele>
        <time>2022-09-12T19:06:21.371Z</time>
      </trkpt>
      <trkpt lat="47.82599" lon="13.0543">
        <ele>424.916191</ele>
        <time>2022-09-12T19:06:33.394Z</time>
      </trkpt>
      <trkpt lat="47.82606" lon="13.05405">
        <ele>424.81869</ele>
        <time>2022-09-12T19:06:38.001Z</time>
      </trkpt>
      <trkpt lat="47.82599" lon="13.05389">
        <ele>424.749441</ele>
        <time>2022-09-12T19:06:41.482Z</time>
      </trkpt>
      <trkpt lat="47.82579" lon="13.05376">
        <ele>424.628114</ele>
        <time>2022-09-12T19:06:47.529Z</time>
      </trkpt>
      <trkpt lat="47.82578" lon="13.05375">
        <ele>424.619797</ele>
        <time>2022-09-12T19:06:47.957Z</time>
      </trkpt>
      <trkpt lat="47.82552" lon="13.05358">
        <ele>424.490839</ele>
        <time>2022-09-12T19:06:55.809Z</time>
      </trkpt>
      <trkpt lat="47.8255" lon="13.05356">
        <ele>424.496577</ele>
        <time>2022-09-12T19:06:56.372Z</time>
      </trkpt>
      <trkpt lat="47.8253" lon="13.05344">
        <ele>424.55412</ele>
        <time>2022-09-12T19:07:02.495Z</time>
      </trkpt>
      <trkpt lat="47.82516" lon="13.05335">
        <ele>424.593859</ele>
        <time>2022-09-12T19:07:06.635Z</time>
      </trkpt>
      <trkpt lat="47.82487" lon="13.05317">
        <ele>424.679145</ele>
        <time>2022-09-12T19:07:15.564Z</time>
      </trkpt>
      <trkpt lat="47.82458" lon="13.05298">
        <ele>424.762121</ele>
        <time>2022-09-12T19:07:24.151Z</time>
      </trkpt>
      <trkpt lat="47.82418" lon="13.05272">
        <ele>424.878993</ele>
        <time>2022-09-12T19:07:36.340Z</time>
      </trkpt>
      <trkpt lat="47.82403" lon="13.05262">
        <ele>424.9228</ele>
        <time>2022-09-12T19:07:41.192Z</time>
      </trkpt>
      <trkpt lat="47.82397" lon="13.05251">
        <ele>424.946983</ele>
        <time>2022-09-12T19:07:43.925Z</time>
      </trkpt>
      <trkpt lat="47.82396" lon="13.05235">
        <ele>424.965564</ele>
        <time>2022-09-12T19:07:47.202Z</time>
      </trkpt>
      <trkpt lat="47.82398" lon="13.0523">
        <ele>424.968377</ele>
        <time>2022-09-12T19:07:48.332Z</time>
      </trkpt>
      <trkpt lat="47.82386" lon="13.05227">
        <ele>424.977407</ele>
        <time>2022-09-12T19:07:52.169Z</time>
      </trkpt>
      <trkpt lat="47.82364" lon="13.0521">
        <ele>424.99548</ele>
        <time>2022-09-12T19:07:59.538Z</time>
      </trkpt>
      <trkpt lat="47.8236" lon="13.05207">
        <ele>424.99832</ele>
        <time>2022-09-12T19:08:00.681Z</time>
      </trkpt>
      <trkpt lat="47.82333" lon="13.05185">
        <ele>425.020773</ele>
        <time>2022-09-12T19:08:09.372Z</time>
      </trkpt>
      <trkpt lat="47.82275" lon="13.05135">
        <ele>425.068949</ele>
        <time>2022-09-12T19:08:27.489Z</time>
      </trkpt>
      <trkpt lat="47.82271" lon="13.05129">
        <ele>425.072958</ele>
        <time>2022-09-12T19:08:29.004Z</time>
      </trkpt>
      <trkpt lat="47.82261" lon="13.05106">
        <ele>425.086335</ele>
        <time>2022-09-12T19:08:34.054Z</time>
      </trkpt>
      <trkpt lat="47.82257" lon="13.05094">
        <ele>425.086621</ele>
        <time>2022-09-12T19:08:36.395Z</time>
      </trkpt>
      <trkpt lat="47.82255" lon="13.05084">
        <ele>425.071106</ele>
        <time>2022-09-12T19:08:38.404Z</time>
      </trkpt>
      <trkpt lat="47.82223" lon="13.04982">
        <ele>424.916634</ele>
        <time>2022-09-12T19:08:58.190Z</time>
      </trkpt>
      <trkpt lat="47.82194" lon="13.0493">
        <ele>424.823696</ele>
        <time>2022-09-12T19:09:09.867Z</time>
      </trkpt>
      <trkpt lat="47.82188" lon="13.04935">
        <ele>424.809455</ele>
        <time>2022-09-12T19:09:11.635Z</time>
      </trkpt>
      <trkpt lat="47.82171" lon="13.04917">
        <ele>424.766418</ele>
        <time>2022-09-12T19:09:17.011Z</time>
      </trkpt>
      <trkpt lat="47.82133" lon="13.04899">
        <ele>424.659545</ele>
        <time>2022-09-12T19:09:26.885Z</time>
      </trkpt>
      <trkpt lat="47.82065" lon="13.04869">
        <ele>424.409618</ele>
        <time>2022-09-12T19:09:44.652Z</time>
      </trkpt>
      <trkpt lat="47.81965" lon="13.04802">
        <ele>424.022986</ele>
        <time>2022-09-12T19:10:12.390Z</time>
      </trkpt>
      <trkpt lat="47.81882" lon="13.04746">
        <ele>423.704118</ele>
        <time>2022-09-12T19:10:35.649Z</time>
      </trkpt>
      <trkpt lat="47.8186" lon="13.04725">
        <ele>423.614331</ele>
        <time>2022-09-12T19:10:42.175Z</time>
      </trkpt>
      <trkpt lat="47.81848" lon="13.04709">
        <ele>423.555473</ele>
        <time>2022-09-12T19:10:46.446Z</time>
      </trkpt>
      <trkpt lat="47.8183" lon="13.04682">
        <ele>423.467971</ele>
        <time>2022-09-12T19:10:52.668Z</time>
      </trkpt>
      <trkpt lat="47.8178" lon="13.04573">
        <ele>422.969022</ele>
        <time>2022-09-12T19:11:14.287Z</time>
      </trkpt>
      <trkpt lat="47.81753" lon="13.04544">
        <ele>422.781429</ele>
        <time>2022-09-12T19:11:22.243Z</time>
      </trkpt>
      <trkpt lat="47.81722" lon="13.04523">
        <ele>422.592399</ele>
        <time>2022-09-12T19:11:30.319Z</time>
      </trkpt>
      <trkpt lat="47.81699" lon="13.04509">
        <ele>422.45099</ele>
        <time>2022-09-12T19:11:36.422Z</time>
      </trkpt>
      <trkpt lat="47.81695" lon="13.04506">
        <ele>422.442804</ele>
        <time>2022-09-12T19:11:37.581Z</time>
      </trkpt>
      <trkpt lat="47.81683" lon="13.04498">
        <ele>422.444998</ele>
        <time>2022-09-12T19:11:40.922Z</time>
      </trkpt>
      <trkpt lat="47.81716" lon="13.04436">
        <ele>422.453855</ele>
        <time>2022-09-12T19:11:54.309Z</time>
      </trkpt>
      <trkpt lat="47.81588" lon="13.04308">
        <ele>422.544171</ele>
        <time>2022-09-12T19:12:37.720Z</time>
      </trkpt>
      <trkpt lat="47.81527" lon="13.04256">
        <ele>422.66154</ele>
        <time>2022-09-12T19:12:58.404Z</time>
      </trkpt>
      <trkpt lat="47.81472" lon="13.04227">
        <ele>422.757768</ele>
        <time>2022-09-12T19:13:13.524Z</time>
      </trkpt>
      <trkpt lat="47.81463" lon="13.04223">
        <ele>422.747922</ele>
        <time>2022-09-12T19:13:15.788Z</time>
      </trkpt>
      <trkpt lat="47.81415" lon="13.04205">
        <ele>422.253658</ele>
        <time>2022-09-12T19:13:27.776Z</time>
      </trkpt>
      <trkpt lat="47.81416" lon="13.04202">
        <ele>422.227362</ele>
        <time>2022-09-12T19:13:28.382Z</time>
      </trkpt>
      <trkpt lat="47.8142" lon="13.04173">
        <ele>422.033141</ele>
        <time>2022-09-12T19:13:32.975Z</time>
      </trkpt>
      <trkpt lat="47.8142" lon="13.04152">
        <ele>421.888252</ele>
        <time>2022-09-12T19:13:36.333Z</time>
      </trkpt>
      <trkpt lat="47.81421" lon="13.04109">
        <ele>421.601195</ele>
        <time>2022-09-12T19:13:42.893Z</time>
      </trkpt>
      <trkpt lat="47.81421" lon="13.04066">
        <ele>421.307403</ele>
        <time>2022-09-12T19:13:49.432Z</time>
      </trkpt>
      <trkpt lat="47.81422" lon="13.03997">
        <ele>420.853582</ele>
        <time>2022-09-12T19:13:59.342Z</time>
      </trkpt>
      <trkpt lat="47.81423" lon="13.03908">
        <ele>420.280353</ele>
        <time>2022-09-12T19:14:12.587Z</time>
      </trkpt>
      <trkpt lat="47.81423" lon="13.03899">
        <ele>420.220719</ele>
        <time>2022-09-12T19:14:14.021Z</time>
      </trkpt>
      <trkpt lat="47.81423" lon="13.03847">
        <ele>419.891139</ele>
        <time>2022-09-12T19:14:22.154Z</time>
      </trkpt>
      <trkpt lat="47.81424" lon="13.03786">
        <ele>419.50004</ele>
        <time>2022-09-12T19:14:32.333Z</time>
      </trkpt>
      <trkpt lat="47.81423" lon="13.03741">
        <ele>419.239462</ele>
        <time>2022-09-12T19:14:39.990Z</time>
      </trkpt>
      <trkpt lat="47.81313" lon="13.03745">
        <ele>419.005467</ele>
        <time>2022-09-12T19:15:08.145Z</time>
      </trkpt>
      <trkpt lat="47.81213" lon="13.03746">
        <ele>418.852652</ele>
        <time>2022-09-12T19:15:33.943Z</time>
      </trkpt>
      <trkpt lat="47.81178" lon="13.03745">
        <ele>418.839644</ele>
        <time>2022-09-12T19:15:43.673Z</time>
      </trkpt>
      <trkpt lat="47.81165" lon="13.03746">
        <ele>418.834844</ele>
        <time>2022-09-12T19:15:47.333Z</time>
      </trkpt>
      <trkpt lat="47.81156" lon="13.03736">
        <ele>418.830714</ele>
        <time>2022-09-12T19:15:50.090Z</time>
      </trkpt>
      <trkpt lat="47.81122" lon="13.03735">
        <ele>418.818003</ele>
        <time>2022-09-12T19:15:59.260Z</time>
      </trkpt>
      <trkpt lat="47.8111" lon="13.03734">
        <ele>418.813354</ele>
        <time>2022-09-12T19:16:02.763Z</time>
      </trkpt>
      <trkpt lat="47.81088" lon="13.03732">
        <ele>418.805421</ele>
        <time>2022-09-12T19:16:08.229Z</time>
      </trkpt>
      <trkpt lat="47.81077" lon="13.0373">
        <ele>418.801045</ele>
        <time>2022-09-12T19:16:11.367Z</time>
      </trkpt>
      <trkpt lat="47.8103" lon="13.03736">
        <ele>418.88346</ele>
        <time>2022-09-12T19:16:23.598Z</time>
      </trkpt>
      <trkpt lat="47.81012" lon="13.03737">
        <ele>418.921416</ele>
        <time>2022-09-12T19:16:27.979Z</time>
      </trkpt>
      <trkpt lat="47.80887" lon="13.03745">
        <ele>419.196606</ele>
        <time>2022-09-12T19:17:04.079Z</time>
      </trkpt>
      <trkpt lat="47.80878" lon="13.03742">
        <ele>419.242946</ele>
        <time>2022-09-12T19:17:06.573Z</time>
      </trkpt>
      <trkpt lat="47.80857" lon="13.03746">
        <ele>419.343216</ele>
        <time>2022-09-12T19:17:12.327Z</time>
      </trkpt>
      <trkpt lat="47.80688" lon="13.03789">
        <ele>420.261868</ele>
        <time>2022-09-12T19:18:02.398Z</time>
      </trkpt>
      <trkpt lat="47.80583" lon="13.03828">
        <ele>421.177645</ele>
        <time>2022-09-12T19:18:36.046Z</time>
      </trkpt>
      <trkpt lat="47.8053" lon="13.03855">
        <ele>421.641542</ele>
        <time>2022-09-12T19:18:53.433Z</time>
      </trkpt>
      <trkpt lat="47.80524" lon="13.03858">
        <ele>421.687937</ele>
        <time>2022-09-12T19:18:55.592Z</time>
      </trkpt>
      <trkpt lat="47.80515" lon="13.03812">
        <ele>421.910224</ele>
        <time>2022-09-12T19:19:05.394Z</time>
      </trkpt>
      <trkpt lat="47.80498" lon="13.03724">
        <ele>422.332177</ele>
        <time>2022-09-12T19:19:23.745Z</time>
      </trkpt>
      <trkpt lat="47.80495" lon="13.03715">
        <ele>422.37856</ele>
        <time>2022-09-12T19:19:26.652Z</time>
      </trkpt>
      <trkpt lat="47.80494" lon="13.03709">
        <ele>422.405038</ele>
        <time>2022-09-12T19:19:28.094Z</time>
      </trkpt>
      <trkpt lat="47.80524" lon="13.03692">
        <ele>422.626109</ele>
        <time>2022-09-12T19:19:37.574Z</time>
      </trkpt>
      <trkpt lat="47.80615" lon="13.03635">
        <ele>422.454659</ele>
        <time>2022-09-12T19:20:05.166Z</time>
      </trkpt>
      <trkpt lat="47.80715" lon="13.03587">
        <ele>421.923753</ele>
        <time>2022-09-12T19:20:28.997Z</time>
      </trkpt>
      <trkpt lat="47.80757" lon="13.03572">
        <ele>421.978164</ele>
        <time>2022-09-12T19:20:38.810Z</time>
      </trkpt>
      <trkpt lat="47.80834" lon="13.03541">
        <ele>422.129605</ele>
        <time>2022-09-12T19:21:00.975Z</time>
      </trkpt>
      <trkpt lat="47.8084" lon="13.03538">
        <ele>422.139816</ele>
        <time>2022-09-12T19:21:02.715Z</time>
      </trkpt>
      <trkpt lat="47.80841" lon="13.03538">
        <ele>422.1419</ele>
        <time>2022-09-12T19:21:03.063Z</time>
      </trkpt>
      <trkpt lat="47.80847" lon="13.03537">
        <ele>422.154705</ele>
        <time>2022-09-12T19:21:05.176Z</time>
      </trkpt>
      <trkpt lat="47.8085" lon="13.03537">
        <ele>422.159878</ele>
        <time>2022-09-12T19:21:06.035Z</time>
      </trkpt>
      <trkpt lat="47.80861" lon="13.03534">
        <ele>422.180758</ele>
        <time>2022-09-12T19:21:09.046Z</time>
      </trkpt>
      <trkpt lat="47.80863" lon="13.03534">
        <ele>422.18399</ele>
        <time>2022-09-12T19:21:09.540Z</time>
      </trkpt>
      <trkpt lat="47.80857" lon="13.03416">
        <ele>423.094979</ele>
        <time>2022-09-12T19:21:36.822Z</time>
      </trkpt>
      <trkpt lat="47.80851" lon="13.03339">
        <ele>424.025444</ele>
        <time>2022-09-12T19:21:55.723Z</time>
      </trkpt>
      <trkpt lat="47.8085" lon="13.03332">
        <ele>424.113509</ele>
        <time>2022-09-12T19:21:57.448Z</time>
      </trkpt>
      <trkpt lat="47.80855" lon="13.03328">
        <ele>424.219303</ele>
        <time>2022-09-12T19:21:59.271Z</time>
      </trkpt>
      <trkpt lat="47.80845" lon="13.03306">
        <ele>424.532719</ele>
        <time>2022-09-12T19:22:06.726Z</time>
      </trkpt>
      <trkpt lat="47.80842" lon="13.03254">
        <ele>425.151929</ele>
        <time>2022-09-12T19:22:20.074Z</time>
      </trkpt>
      <trkpt lat="47.80839" lon="13.03218">
        <ele>425.467211</ele>
        <time>2022-09-12T19:22:28.527Z</time>
      </trkpt>
      <trkpt lat="47.80835" lon="13.03156">
        <ele>425.537727</ele>
        <time>2022-09-12T19:22:41.330Z</time>
      </trkpt>
      <trkpt lat="47.80834" lon="13.03115">
        <ele>425.583845</ele>
        <time>2022-09-12T19:22:48.670Z</time>
      </trkpt>
      <trkpt lat="47.80835" lon="13.03102">
        <ele>425.599337</ele>
        <time>2022-09-12T19:22:51.087Z</time>
      </trkpt>
      <trkpt lat="47.80828" lon="13.03091">
        <ele>425.616301</ele>
        <time>2022-09-12T19:22:53.739Z</time>
      </trkpt>
      <trkpt lat="47.80821" lon="13.03017">
        <ele>425.701403</ele>
        <time>2022-09-12T19:23:05.804Z</time>
      </trkpt>
      <trkpt lat="47.80827" lon="13.02991">
        <ele>425.732575</ele>
        <time>2022-09-12T19:23:10.244Z</time>
      </trkpt>
      <trkpt lat="47.80821" lon="13.02919">
        <ele>425.76091</ele>
        <time>2022-09-12T19:23:22.103Z</time>
      </trkpt>
      <trkpt lat="47.80819" lon="13.02886">
        <ele>425.762976</ele>
        <time>2022-09-12T19:23:28.046Z</time>
      </trkpt>
      <trkpt lat="47.80818" lon="13.02867">
        <ele>425.764143</ele>
        <time>2022-09-12T19:23:31.470Z</time>
      </trkpt>
      <trkpt lat="47.80801" lon="13.02698">
        <ele>425.765794</ele>
        <time>2022-09-12T19:24:03.835Z</time>
      </trkpt>
      <trkpt lat="47.808" lon="13.02644">
        <ele>425.680092</ele>
        <time>2022-09-12T19:24:13.857Z</time>
      </trkpt>
      <trkpt lat="47.80804" lon="13.02499">
        <ele>425.446882</ele>
        <time>2022-09-12T19:24:40.076Z</time>
      </trkpt>
      <trkpt lat="47.80805" lon="13.02476">
        <ele>425.411338</ele>
        <time>2022-09-12T19:24:43.594Z</time>
      </trkpt>
      <trkpt lat="47.80828" lon="13.02327">
        <ele>424.168865</ele>
        <time>2022-09-12T19:25:06.744Z</time>
      </trkpt>
      <trkpt lat="47.80827" lon="13.02301">
        <ele>423.89929</ele>
        <time>2022-09-12T19:25:10.471Z</time>
      </trkpt>
      <trkpt lat="47.80842" lon="13.02239">
        <ele>423.208038</ele>
        <time>2022-09-12T19:25:19.766Z</time>
      </trkpt>
      <trkpt lat="47.80844" lon="13.02232">
        <ele>423.134698</ele>
        <time>2022-09-12T19:25:20.757Z</time>
      </trkpt>
      <trkpt lat="47.80853" lon="13.02198">
        <ele>422.749967</ele>
        <time>2022-09-12T19:25:26.067Z</time>
      </trkpt>
      <trkpt lat="47.80867" lon="13.02158">
        <ele>422.350882</ele>
        <time>2022-09-12T19:25:32.628Z</time>
      </trkpt>
      <trkpt lat="47.80886" lon="13.02119">
        <ele>421.971753</ele>
        <time>2022-09-12T19:25:39.846Z</time>
      </trkpt>
      <trkpt lat="47.80895" lon="13.02102">
        <ele>421.812418</ele>
        <time>2022-09-12T19:25:42.884Z</time>
      </trkpt>
      <trkpt lat="47.80902" lon="13.02101">
        <ele>421.729864</ele>
        <time>2022-09-12T19:25:44.462Z</time>
      </trkpt>
      <trkpt lat="47.80905" lon="13.02095">
        <ele>421.669901</ele>
        <time>2022-09-12T19:25:45.634Z</time>
      </trkpt>
      <trkpt lat="47.80906" lon="13.02091">
        <ele>421.635077</ele>
        <time>2022-09-12T19:25:46.323Z</time>
      </trkpt>
      <trkpt lat="47.80914" lon="13.02075">
        <ele>421.480992</ele>
        <time>2022-09-12T19:25:49.309Z</time>
      </trkpt>
      <trkpt lat="47.80918" lon="13.02069">
        <ele>421.415395</ele>
        <time>2022-09-12T19:25:50.645Z</time>
      </trkpt>
      <trkpt lat="47.80933" lon="13.0207">
        <ele>421.248914</ele>
        <time>2022-09-12T19:25:54.133Z</time>
      </trkpt>
      <trkpt lat="47.80936" lon="13.02071">
        <ele>421.203291</ele>
        <time>2022-09-12T19:25:55.104Z</time>
      </trkpt>
      <trkpt lat="47.80936" lon="13.02079">
        <ele>421.144994</ele>
        <time>2022-09-12T19:25:56.345Z</time>
      </trkpt>
      <trkpt lat="47.80937" lon="13.02081">
        <ele>421.127583</ele>
        <time>2022-09-12T19:25:56.701Z</time>
      </trkpt>
      <trkpt lat="47.80938" lon="13.02079">
        <ele>421.111828</ele>
        <time>2022-09-12T19:25:57.009Z</time>
      </trkpt>
      <trkpt lat="47.80942" lon="13.02075">
        <ele>421.055298</ele>
        <time>2022-09-12T19:25:58.202Z</time>
      </trkpt>
      <trkpt lat="47.80949" lon="13.02071">
        <ele>420.967515</ele>
        <time>2022-09-12T19:26:00.084Z</time>
      </trkpt>
      <trkpt lat="47.8095" lon="13.02065">
        <ele>420.920604</ele>
        <time>2022-09-12T19:26:01.098Z</time>
      </trkpt>
      <trkpt lat="47.80947" lon="13.0206">
        <ele>420.873573</ele>
        <time>2022-09-12T19:26:02.124Z</time>
      </trkpt>
      <trkpt lat="47.8095" lon="13.02042">
        <ele>420.73221</ele>
        <time>2022-09-12T19:26:05.215Z</time>
      </trkpt>
      <trkpt lat="47.80963" lon="13.0202">
        <ele>420.511293</ele>
        <time>2022-09-12T19:26:09.795Z</time>
      </trkpt>
      <trkpt lat="47.80982" lon="13.02001">
        <ele>420.537247</ele>
        <time>2022-09-12T19:26:15.505Z</time>
      </trkpt>
      <trkpt lat="47.80999" lon="13.01991">
        <ele>420.596764</ele>
        <time>2022-09-12T19:26:20.289Z</time>
      </trkpt>
      <trkpt lat="47.81022" lon="13.0199">
        <ele>420.667337</ele>
        <time>2022-09-12T19:26:26.041Z</time>
      </trkpt>
      <trkpt lat="47.81033" lon="13.01937">
        <ele>420.784778</ele>
        <time>2022-09-12T19:26:36.195Z</time>
      </trkpt>
      <trkpt lat="47.81046" lon="13.01887">
        <ele>420.898141</ele>
        <time>2022-09-12T19:26:46.961Z</time>
      </trkpt>
      <trkpt lat="47.81079" lon="13.01841">
        <ele>421.040694</ele>
        <time>2022-09-12T19:27:01.344Z</time>
      </trkpt>
      <trkpt lat="47.81101" lon="13.01812">
        <ele>421.375962</ele>
        <time>2022-09-12T19:27:11.154Z</time>
      </trkpt>
      <trkpt lat="47.81105" lon="13.0178">
        <ele>421.623015</ele>
        <time>2022-09-12T19:27:18.190Z</time>
      </trkpt>
      <trkpt lat="47.81117" lon="13.01749">
        <ele>421.894205</ele>
        <time>2022-09-12T19:27:26.199Z</time>
      </trkpt>
      <trkpt lat="47.81135" lon="13.01721">
        <ele>422.194034</ele>
        <time>2022-09-12T19:27:35.152Z</time>
      </trkpt>
      <trkpt lat="47.81183" lon="13.01646">
        <ele>422.991684</ele>
        <time>2022-09-12T19:27:58.481Z</time>
      </trkpt>
      <trkpt lat="47.81388" lon="13.0138">
        <ele>423.528982</ele>
        <time>2022-09-12T19:29:12.222Z</time>
      </trkpt>
      <trkpt lat="47.81544" lon="13.01177">
        <ele>423.485015</ele>
        <time>2022-09-12T19:30:06.866Z</time>
      </trkpt>
      <trkpt lat="47.81591" lon="13.01121">
        <ele>423.447927</ele>
        <time>2022-09-12T19:30:22.549Z</time>
      </trkpt>
      <trkpt lat="47.81643" lon="13.01051">
        <ele>423.579621</ele>
        <time>2022-09-12T19:30:41.413Z</time>
      </trkpt>
      <trkpt lat="47.81654" lon="13.01038">
        <ele>423.611398</ele>
        <time>2022-09-12T19:30:45.365Z</time>
      </trkpt>
      <trkpt lat="47.8171" lon="13.0097">
        <ele>423.776396</ele>
        <time>2022-09-12T19:31:05.447Z</time>
      </trkpt>
      <trkpt lat="47.81716" lon="13.00962">
        <ele>423.795473</ele>
        <time>2022-09-12T19:31:07.904Z</time>
      </trkpt>
      <trkpt lat="47.81746" lon="13.00924">
        <ele>423.839914</ele>
        <time>2022-09-12T19:31:19.481Z</time>
      </trkpt>
      <trkpt lat="47.81769" lon="13.00917">
        <ele>423.819792</ele>
        <time>2022-09-12T19:31:26.569Z</time>
      </trkpt>
      <trkpt lat="47.81838" lon="13.00908">
        <ele>423.761454</ele>
        <time>2022-09-12T19:31:45.996Z</time>
      </trkpt>
      <trkpt lat="47.81846" lon="13.00907">
        <ele>423.754635</ele>
        <time>2022-09-12T19:31:48.082Z</time>
      </trkpt>
      <trkpt lat="47.81885" lon="13.00896">
        <ele>423.72094</ele>
        <time>2022-09-12T19:31:57.840Z</time>
      </trkpt>
      <trkpt lat="47.81906" lon="13.00888">
        <ele>423.702138</ele>
        <time>2022-09-12T19:32:03.083Z</time>
      </trkpt>
      <trkpt lat="47.81911" lon="13.00886">
        <ele>423.680202</ele>
        <time>2022-09-12T19:32:04.104Z</time>
      </trkpt>
      <trkpt lat="47.81912" lon="13.00886">
        <ele>423.666711</ele>
        <time>2022-09-12T19:32:04.383Z</time>
      </trkpt>
      <trkpt lat="47.81945" lon="13.00878">
        <ele>423.270812</ele>
        <time>2022-09-12T19:32:11.946Z</time>
      </trkpt>
      <trkpt lat="47.81965" lon="13.00876">
        <ele>423.036887</ele>
        <time>2022-09-12T19:32:16.459Z</time>
      </trkpt>
      <trkpt lat="47.81974" lon="13.00876">
        <ele>422.937161</ele>
        <time>2022-09-12T19:32:18.371Z</time>
      </trkpt>
      <trkpt lat="47.8199" lon="13.00877">
        <ele>422.744642</ele>
        <time>2022-09-12T19:32:22.075Z</time>
      </trkpt>
      <trkpt lat="47.82002" lon="13.00873">
        <ele>422.596247</ele>
        <time>2022-09-12T19:32:24.998Z</time>
      </trkpt>
      <trkpt lat="47.82013" lon="13.00885">
        <ele>422.439116</ele>
        <time>2022-09-12T19:32:27.992Z</time>
      </trkpt>
      <trkpt lat="47.82022" lon="13.00895">
        <ele>422.303622</ele>
        <time>2022-09-12T19:32:30.638Z</time>
      </trkpt>
      <trkpt lat="47.82034" lon="13.00909">
        <ele>422.128136</ele>
        <time>2022-09-12T19:32:34.086Z</time>
      </trkpt>
      <trkpt lat="47.82043" lon="13.00919">
        <ele>421.994052</ele>
        <time>2022-09-12T19:32:36.640Z</time>
      </trkpt>
      <trkpt lat="47.82055" lon="13.00932">
        <ele>421.821387</ele>
        <time>2022-09-12T19:32:40.046Z</time>
      </trkpt>
      <trkpt lat="47.82063" lon="13.00941">
        <ele>421.709416</ele>
        <time>2022-09-12T19:32:42.227Z</time>
      </trkpt>
      <trkpt lat="47.82073" lon="13.00952">
        <ele>421.54885</ele>
        <time>2022-09-12T19:32:45.049Z</time>
      </trkpt>
      <trkpt lat="47.82074" lon="13.00954">
        <ele>421.514147</ele>
        <time>2022-09-12T19:32:45.526Z</time>
      </trkpt>
      <trkpt lat="47.82107" lon="13.0089">
        <ele>420.643802</ele>
        <time>2022-09-12T19:32:57.530Z</time>
      </trkpt>
      <trkpt lat="47.82123" lon="13.00851">
        <ele>420.163552</ele>
        <time>2022-09-12T19:33:03.922Z</time>
      </trkpt>
      <trkpt lat="47.82145" lon="13.00795">
        <ele>419.458659</ele>
        <time>2022-09-12T19:33:13.062Z</time>
      </trkpt>
      <trkpt lat="47.82161" lon="13.00796">
        <ele>419.206942</ele>
        <time>2022-09-12T19:33:16.446Z</time>
      </trkpt>
      <trkpt lat="47.82208" lon="13.00865">
        <ele>418.569715</ele>
        <time>2022-09-12T19:33:31.326Z</time>
      </trkpt>
      <trkpt lat="47.82236" lon="13.00905">
        <ele>418.417575</ele>
        <time>2022-09-12T19:33:40.268Z</time>
      </trkpt>
      <trkpt lat="47.82246" lon="13.00929">
        <ele>418.338674</ele>
        <time>2022-09-12T19:33:44.662Z</time>
      </trkpt>
      <trkpt lat="47.82285" lon="13.00925">
        <ele>418.187153</ele>
        <time>2022-09-12T19:33:54.350Z</time>
      </trkpt>
      <trkpt lat="47.8233" lon="13.00922">
        <ele>418.005787</ele>
        <time>2022-09-12T19:34:08.463Z</time>
      </trkpt>
      <trkpt lat="47.82368" lon="13.00925">
        <ele>418.61531</ele>
        <time>2022-09-12T19:34:20.680Z</time>
      </trkpt>
      <trkpt lat="47.82386" lon="13.00947">
        <ele>419.040011</ele>
        <time>2022-09-12T19:34:28.775Z</time>
      </trkpt>
      <trkpt lat="47.82419" lon="13.00947">
        <ele>419.617059</ele>
        <time>2022-09-12T19:34:41.531Z</time>
      </trkpt>
      <trkpt lat="47.82453" lon="13.00919">
        <ele>420.31908</ele>
        <time>2022-09-12T19:34:56.418Z</time>
      </trkpt>
      <trkpt lat="47.8246" lon="13.00915">
        <ele>420.44221</ele>
        <time>2022-09-12T19:34:59.215Z</time>
      </trkpt>
      <trkpt lat="47.82474" lon="13.00911">
        <ele>420.707174</ele>
        <time>2022-09-12T19:35:04.585Z</time>
      </trkpt>
      <trkpt lat="47.82503" lon="13.00914">
        <ele>421.200141</ele>
        <time>2022-09-12T19:35:14.689Z</time>
      </trkpt>
      <trkpt lat="47.82537" lon="13.00892">
        <ele>421.503469</ele>
        <time>2022-09-12T19:35:27.302Z</time>
      </trkpt>
      <trkpt lat="47.82568" lon="13.00895">
        <ele>421.755493</ele>
        <time>2022-09-12T19:35:37.537Z</time>
      </trkpt>
      <trkpt lat="47.82631" lon="13.00838">
        <ele>422.362098</ele>
        <time>2022-09-12T19:35:58.985Z</time>
      </trkpt>
      <trkpt lat="47.82734" lon="13.00742">
        <ele>422.676678</ele>
        <time>2022-09-12T19:36:31.447Z</time>
      </trkpt>
      <trkpt lat="47.82774" lon="13.00694">
        <ele>422.688713</ele>
        <time>2022-09-12T19:36:44.938Z</time>
      </trkpt>
      <trkpt lat="47.82818" lon="13.00629">
        <ele>422.690087</ele>
        <time>2022-09-12T19:37:01.762Z</time>
      </trkpt>
      <trkpt lat="47.8283" lon="13.00612">
        <ele>422.682428</ele>
        <time>2022-09-12T19:37:06.040Z</time>
      </trkpt>
      <trkpt lat="47.82842" lon="13.00608">
        <ele>422.676414</ele>
        <time>2022-09-12T19:37:09.418Z</time>
      </trkpt>
      <trkpt lat="47.82845" lon="13.00597">
        <ele>422.67267</ele>
        <time>2022-09-12T19:37:12.980Z</time>
      </trkpt>
      <trkpt lat="47.82855" lon="13.00603">
        <ele>422.667595</ele>
        <time>2022-09-12T19:37:17.639Z</time>
      </trkpt>
      <trkpt lat="47.82861" lon="13.00606">
        <ele>422.664652</ele>
        <time>2022-09-12T19:37:20.338Z</time>
      </trkpt>
      <trkpt lat="47.82895" lon="13.00492">
        <ele>422.624906</ele>
        <time>2022-09-12T19:37:42.525Z</time>
      </trkpt>
      <trkpt lat="47.82907" lon="13.00458">
        <ele>422.606878</ele>
        <time>2022-09-12T19:37:49.428Z</time>
      </trkpt>
      <trkpt lat="47.82915" lon="13.00435">
        <ele>422.552062</ele>
        <time>2022-09-12T19:37:54.280Z</time>
      </trkpt>
      <trkpt lat="47.82919" lon="13.00428">
        <ele>422.53488</ele>
        <time>2022-09-12T19:37:55.737Z</time>
      </trkpt>
      <trkpt lat="47.82922" lon="13.00419">
        <ele>422.513914</ele>
        <time>2022-09-12T19:37:57.508Z</time>
      </trkpt>
      <trkpt lat="47.82925" lon="13.00412">
        <ele>422.496727</ele>
        <time>2022-09-12T19:37:58.998Z</time>
      </trkpt>
      <trkpt lat="47.82947" lon="13.0036">
        <ele>422.368749</ele>
        <time>2022-09-12T19:38:09.922Z</time>
      </trkpt>
      <trkpt lat="47.82968" lon="13.00318">
        <ele>422.259912</ele>
        <time>2022-09-12T19:38:18.766Z</time>
      </trkpt>
      <trkpt lat="47.83016" lon="13.00258">
        <ele>422.068089</ele>
        <time>2022-09-12T19:38:33.863Z</time>
      </trkpt>
      <trkpt lat="47.83041" lon="13.0026">
        <ele>421.82984</ele>
        <time>2022-09-12T19:38:40.075Z</time>
      </trkpt>
      <trkpt lat="47.83043" lon="13.00253">
        <ele>421.774924</ele>
        <time>2022-09-12T19:38:41.367Z</time>
      </trkpt>
      <trkpt lat="47.83048" lon="13.00245">
        <ele>421.701663</ele>
        <time>2022-09-12T19:38:43.024Z</time>
      </trkpt>
      <trkpt lat="47.83048" lon="13.00228">
        <ele>421.582014</ele>
        <time>2022-09-12T19:38:45.894Z</time>
      </trkpt>
      <trkpt lat="47.83065" lon="13.00206">
        <ele>421.356828</ele>
        <time>2022-09-12T19:38:51.137Z</time>
      </trkpt>
      <trkpt lat="47.83081" lon="13.00189">
        <ele>421.146459</ele>
        <time>2022-09-12T19:38:56.017Z</time>
      </trkpt>
      <trkpt lat="47.83139" lon="13.00115">
        <ele>420.372398</ele>
        <time>2022-09-12T19:39:13.109Z</time>
      </trkpt>
      <trkpt lat="47.83198" lon="13.00035">
        <ele>419.247259</ele>
        <time>2022-09-12T19:39:30.757Z</time>
      </trkpt>
      <trkpt lat="47.83205" lon="13.00033">
        <ele>419.138271</ele>
        <time>2022-09-12T19:39:32.254Z</time>
      </trkpt>
      <trkpt lat="47.83211" lon="13.00027">
        <ele>419.036026</ele>
        <time>2022-09-12T19:39:33.767Z</time>
      </trkpt>
      <trkpt lat="47.83221" lon="13.0002">
        <ele>418.875792</ele>
        <time>2022-09-12T19:39:36.202Z</time>
      </trkpt>
      <trkpt lat="47.83221" lon="13.00012">
        <ele>418.801203</ele>
        <time>2022-09-12T19:39:37.322Z</time>
      </trkpt>
      <trkpt lat="47.83243" lon="12.9998">
        <ele>418.340386</ele>
        <time>2022-09-12T19:39:44.083Z</time>
      </trkpt>
      <trkpt lat="47.83257" lon="12.99961">
        <ele>418.060678</ele>
        <time>2022-09-12T19:39:48.155Z</time>
      </trkpt>
      <trkpt lat="47.83288" lon="12.99918">
        <ele>417.440903</ele>
        <time>2022-09-12T19:39:57.469Z</time>
      </trkpt>
      <trkpt lat="47.83283" lon="12.99911">
        <ele>417.356088</ele>
        <time>2022-09-12T19:39:58.895Z</time>
      </trkpt>
      <trkpt lat="47.83278" lon="12.99902">
        <ele>417.247947</ele>
        <time>2022-09-12T19:40:00.705Z</time>
      </trkpt>
      <trkpt lat="47.83275" lon="12.99898">
        <ele>417.1994</ele>
        <time>2022-09-12T19:40:01.530Z</time>
      </trkpt>
      <trkpt lat="47.83286" lon="12.99882">
        <ele>416.987685</ele>
        <time>2022-09-12T19:40:04.888Z</time>
      </trkpt>
      <trkpt lat="47.83336" lon="12.9981">
        <ele>416.060483</ele>
        <time>2022-09-12T19:40:20.264Z</time>
      </trkpt>
      <trkpt lat="47.83368" lon="12.99764">
        <ele>415.459817</ele>
        <time>2022-09-12T19:40:30.225Z</time>
      </trkpt>
      <trkpt lat="47.83377" lon="12.99713">
        <ele>414.988443</ele>
        <time>2022-09-12T19:40:38.349Z</time>
      </trkpt>
      <trkpt lat="47.83384" lon="12.99689">
        <ele>414.762231</ele>
        <time>2022-09-12T19:40:42.331Z</time>
      </trkpt>
      <trkpt lat="47.83393" lon="12.99691">
        <ele>414.638999</ele>
        <time>2022-09-12T19:40:44.487Z</time>
      </trkpt>
      <trkpt lat="47.83412" lon="12.99692">
        <ele>414.39077</ele>
        <time>2022-09-12T19:40:48.843Z</time>
      </trkpt>
      <trkpt lat="47.83431" lon="12.99667">
        <ele>414.070405</ele>
        <time>2022-09-12T19:40:54.404Z</time>
      </trkpt>
      <trkpt lat="47.8348" lon="12.99588">
        <ele>413.134826</ele>
        <time>2022-09-12T19:41:10.295Z</time>
      </trkpt>
      <trkpt lat="47.83504" lon="12.99563">
        <ele>412.790366</ele>
        <time>2022-09-12T19:41:16.926Z</time>
      </trkpt>
      <trkpt lat="47.83512" lon="12.99553">
        <ele>412.756455</ele>
        <time>2022-09-12T19:41:19.446Z</time>
      </trkpt>
      <trkpt lat="47.83516" lon="12.99549">
        <ele>412.744238</ele>
        <time>2022-09-12T19:41:21.073Z</time>
      </trkpt>
      <trkpt lat="47.83588" lon="12.99446">
        <ele>412.433734</ele>
        <time>2022-09-12T19:41:45.623Z</time>
      </trkpt>
      <trkpt lat="47.83601" lon="12.99423">
        <ele>412.369038</ele>
        <time>2022-09-12T19:41:51.030Z</time>
      </trkpt>
      <trkpt lat="47.83602" lon="12.99411">
        <ele>412.343058</ele>
        <time>2022-09-12T19:41:53.328Z</time>
      </trkpt>
      <trkpt lat="47.83799" lon="12.99127">
        <ele>413.557412</ele>
        <time>2022-09-12T19:43:15.589Z</time>
      </trkpt>
      <trkpt lat="47.83872" lon="12.98983">
        <ele>413.789991</ele>
        <time>2022-09-12T19:43:47.858Z</time>
      </trkpt>
      <trkpt lat="47.83873" lon="12.98973">
        <ele>413.797175</ele>
        <time>2022-09-12T19:43:49.293Z</time>
      </trkpt>
      <trkpt lat="47.83859" lon="12.98941">
        <ele>413.823725</ele>
        <time>2022-09-12T19:43:56.191Z</time>
      </trkpt>
      <trkpt lat="47.83825" lon="12.98894">
        <ele>413.872262</ele>
        <time>2022-09-12T19:44:07.996Z</time>
      </trkpt>
      <trkpt lat="47.8381" lon="12.98797">
        <ele>413.941902</ele>
        <time>2022-09-12T19:44:26.998Z</time>
      </trkpt>
      <trkpt lat="47.83791" lon="12.98768">
        <ele>413.969336</ele>
        <time>2022-09-12T19:44:34.747Z</time>
      </trkpt>
      <trkpt lat="47.83813" lon="12.98731">
        <ele>414.043697</ele>
        <time>2022-09-12T19:44:44.476Z</time>
      </trkpt>
      <trkpt lat="47.83845" lon="12.98752">
        <ele>414.132008</ele>
        <time>2022-09-12T19:44:54.591Z</time>
      </trkpt>
      <trkpt lat="47.83886" lon="12.98738">
        <ele>414.235721</ele>
        <time>2022-09-12T19:45:06.113Z</time>
      </trkpt>
      <trkpt lat="47.83917" lon="12.98752">
        <ele>414.317639</ele>
        <time>2022-09-12T19:45:14.980Z</time>
      </trkpt>
      <trkpt lat="47.83942" lon="12.98774">
        <ele>414.391065</ele>
        <time>2022-09-12T19:45:22.990Z</time>
      </trkpt>
      <trkpt lat="47.83951" lon="12.98777">
        <ele>414.41341</ele>
        <time>2022-09-12T19:45:25.449Z</time>
      </trkpt>
      <trkpt lat="47.83964" lon="12.98768">
        <ele>414.490414</ele>
        <time>2022-09-12T19:45:29.008Z</time>
      </trkpt>
      <trkpt lat="47.83975" lon="12.98742">
        <ele>414.629896</ele>
        <time>2022-09-12T19:45:34.419Z</time>
      </trkpt>
      <trkpt lat="47.83978" lon="12.98732">
        <ele>414.681327</ele>
        <time>2022-09-12T19:45:36.376Z</time>
      </trkpt>
      <trkpt lat="47.84009" lon="12.98628">
        <ele>415.204405</ele>
        <time>2022-09-12T19:46:11.377Z</time>
      </trkpt>
      <trkpt lat="47.84024" lon="12.98607">
        <ele>415.344048</ele>
        <time>2022-09-12T19:46:18.090Z</time>
      </trkpt>
      <trkpt lat="47.84032" lon="12.98576">
        <ele>415.49653</ele>
        <time>2022-09-12T19:46:25.227Z</time>
      </trkpt>
      <trkpt lat="47.84039" lon="12.98552">
        <ele>415.617586</ele>
        <time>2022-09-12T19:46:31.404Z</time>
      </trkpt>
      <trkpt lat="47.84055" lon="12.98479">
        <ele>416.66456</ele>
        <time>2022-09-12T19:46:49.754Z</time>
      </trkpt>
      <trkpt lat="47.84061" lon="12.98449">
        <ele>417.128658</ele>
        <time>2022-09-12T19:46:57.634Z</time>
      </trkpt>
      <trkpt lat="47.84069" lon="12.98399">
        <ele>417.897875</ele>
        <time>2022-09-12T19:47:10.862Z</time>
      </trkpt>
      <trkpt lat="47.84075" lon="12.98401">
        <ele>418.028167</ele>
        <time>2022-09-12T19:47:14.115Z</time>
      </trkpt>
      <trkpt lat="47.84088" lon="12.9833">
        <ele>419.117277</ele>
        <time>2022-09-12T19:47:33.448Z</time>
      </trkpt>
      <trkpt lat="47.84093" lon="12.98294">
        <ele>419.649597</ele>
        <time>2022-09-12T19:47:43.085Z</time>
      </trkpt>
      <trkpt lat="47.8411" lon="12.98239">
        <ele>420.277937</ele>
        <time>2022-09-12T19:47:58.708Z</time>
      </trkpt>
      <trkpt lat="47.84112" lon="12.98232">
        <ele>420.354718</ele>
        <time>2022-09-12T19:48:00.569Z</time>
      </trkpt>
      <trkpt lat="47.84119" lon="12.98217">
        <ele>420.547644</ele>
        <time>2022-09-12T19:48:05.196Z</time>
      </trkpt>
      <trkpt lat="47.84131" lon="12.9819">
        <ele>420.885966</ele>
        <time>2022-09-12T19:48:12.841Z</time>
      </trkpt>
      <trkpt lat="47.8416" lon="12.981">
        <ele>421.91932</ele>
        <time>2022-09-12T19:48:34.243Z</time>
      </trkpt>
      <trkpt lat="47.84182" lon="12.97973">
        <ele>422.668198</ele>
        <time>2022-09-12T19:49:00.256Z</time>
      </trkpt>
      <trkpt lat="47.84183" lon="12.97973">
        <ele>422.670432</ele>
        <time>2022-09-12T19:49:00.403Z</time>
      </trkpt>
      <trkpt lat="47.84204" lon="12.97846">
        <ele>423.058809</ele>
        <time>2022-09-12T19:49:25.796Z</time>
      </trkpt>
      <trkpt lat="47.84206" lon="12.97836">
        <ele>423.091498</ele>
        <time>2022-09-12T19:49:27.843Z</time>
      </trkpt>
      <trkpt lat="47.84214" lon="12.97827">
        <ele>423.136278</ele>
        <time>2022-09-12T19:49:30.636Z</time>
      </trkpt>
      <trkpt lat="47.84215" lon="12.97818">
        <ele>423.164279</ele>
        <time>2022-09-12T19:49:32.400Z</time>
      </trkpt>
      <trkpt lat="47.84209" lon="12.97806">
        <ele>423.20797</ele>
        <time>2022-09-12T19:49:35.209Z</time>
      </trkpt>
      <trkpt lat="47.8421" lon="12.97797">
        <ele>423.221561</ele>
        <time>2022-09-12T19:49:36.733Z</time>
      </trkpt>
      <trkpt lat="47.84212" lon="12.97778">
        <ele>423.240075</ele>
        <time>2022-09-12T19:49:40.322Z</time>
      </trkpt>
      <trkpt lat="47.84218" lon="12.97764">
        <ele>423.256095</ele>
        <time>2022-09-12T19:49:43.565Z</time>
      </trkpt>
      <trkpt lat="47.8422" lon="12.97751">
        <ele>423.268465</ele>
        <time>2022-09-12T19:49:46.739Z</time>
      </trkpt>
      <trkpt lat="47.8423" lon="12.97685">
        <ele>423.331922</ele>
        <time>2022-09-12T19:49:59.015Z</time>
      </trkpt>
      <trkpt lat="47.84232" lon="12.97672">
        <ele>423.344015</ele>
        <time>2022-09-12T19:50:01.324Z</time>
      </trkpt>
      <trkpt lat="47.84227" lon="12.97672">
        <ele>423.350648</ele>
        <time>2022-09-12T19:50:03.036Z</time>
      </trkpt>
      <trkpt lat="47.84217" lon="12.97668">
        <ele>423.364869</ele>
        <time>2022-09-12T19:50:06.744Z</time>
      </trkpt>
      <trkpt lat="47.84232" lon="12.97559">
        <ele>423.468562</ele>
        <time>2022-09-12T19:50:27.176Z</time>
      </trkpt>
      <trkpt lat="47.84279" lon="12.97248">
        <ele>423.521929</ele>
        <time>2022-09-12T19:51:24.573Z</time>
      </trkpt>
      <trkpt lat="47.84282" lon="12.9723">
        <ele>423.522725</ele>
        <time>2022-09-12T19:51:28.009Z</time>
      </trkpt>
      <trkpt lat="47.84297" lon="12.97131">
        <ele>423.527085</ele>
        <time>2022-09-12T19:51:45.892Z</time>
      </trkpt>
      <trkpt lat="47.84315" lon="12.97014">
        <ele>423.535108</ele>
        <time>2022-09-12T19:52:07.276Z</time>
      </trkpt>
      <trkpt lat="47.84324" lon="12.96948">
        <ele>423.546516</ele>
        <time>2022-09-12T19:52:19.701Z</time>
      </trkpt>
      <trkpt lat="47.84328" lon="12.96904">
        <ele>423.553915</ele>
        <time>2022-09-12T19:52:27.709Z</time>
      </trkpt>
      <trkpt lat="47.84323" lon="12.96781">
        <ele>423.574408</ele>
        <time>2022-09-12T19:52:49.814Z</time>
      </trkpt>
      <trkpt lat="47.84321" lon="12.96755">
        <ele>423.567405</ele>
        <time>2022-09-12T19:52:54.374Z</time>
      </trkpt>
      <trkpt lat="47.84322" lon="12.96731">
        <ele>423.555839</ele>
        <time>2022-09-12T19:52:58.479Z</time>
      </trkpt>
      <trkpt lat="47.84322" lon="12.96667">
        <ele>423.523553</ele>
        <time>2022-09-12T19:53:10.004Z</time>
      </trkpt>
      <trkpt lat="47.84334" lon="12.96518">
        <ele>423.448219</ele>
        <time>2022-09-12T19:53:36.368Z</time>
      </trkpt>
      <trkpt lat="47.84364" lon="12.96353">
        <ele>423.475625</ele>
        <time>2022-09-12T19:54:07.016Z</time>
      </trkpt>
      <trkpt lat="47.84373" lon="12.96298">
        <ele>423.487844</ele>
        <time>2022-09-12T19:54:17.415Z</time>
      </trkpt>
      <trkpt lat="47.84376" lon="12.96189">
        <ele>423.499522</ele>
        <time>2022-09-12T19:54:37.021Z</time>
      </trkpt>
      <trkpt lat="47.84382" lon="12.96129">
        <ele>423.499657</ele>
        <time>2022-09-12T19:54:47.836Z</time>
      </trkpt>
      <trkpt lat="47.84395" lon="12.96061">
        <ele>423.499813</ele>
        <time>2022-09-12T19:55:00.435Z</time>
      </trkpt>
      <trkpt lat="47.84398" lon="12.96005">
        <ele>423.499938</ele>
        <time>2022-09-12T19:55:10.331Z</time>
      </trkpt>
      <trkpt lat="47.84396" lon="12.95935">
        <ele>423.49706</ele>
        <time>2022-09-12T19:55:22.930Z</time>
      </trkpt>
      <trkpt lat="47.84389" lon="12.95856">
        <ele>423.49191</ele>
        <time>2022-09-12T19:55:37.220Z</time>
      </trkpt>
      <trkpt lat="47.84373" lon="12.95806">
        <ele>423.488309</ele>
        <time>2022-09-12T19:55:47.045Z</time>
      </trkpt>
      <trkpt lat="47.84363" lon="12.9573">
        <ele>423.483271</ele>
        <time>2022-09-12T19:56:00.843Z</time>
      </trkpt>
      <trkpt lat="47.84362" lon="12.95713">
        <ele>423.489391</ele>
        <time>2022-09-12T19:56:04.035Z</time>
      </trkpt>
      <trkpt lat="47.84341" lon="12.95597">
        <ele>423.609618</ele>
        <time>2022-09-12T19:56:25.595Z</time>
      </trkpt>
      <trkpt lat="47.84344" lon="12.95519">
        <ele>423.688531</ele>
        <time>2022-09-12T19:56:40.532Z</time>
      </trkpt>
      <trkpt lat="47.84349" lon="12.95434">
        <ele>423.732566</ele>
        <time>2022-09-12T19:56:56.461Z</time>
      </trkpt>
      <trkpt lat="47.84354" lon="12.95367">
        <ele>423.672043</ele>
        <time>2022-09-12T19:57:08.732Z</time>
      </trkpt>
      <trkpt lat="47.84355" lon="12.95337">
        <ele>423.644721</ele>
        <time>2022-09-12T19:57:13.892Z</time>
      </trkpt>
      <trkpt lat="47.84362" lon="12.95338">
        <ele>423.635115</ele>
        <time>2022-09-12T19:57:15.876Z</time>
      </trkpt>
      <trkpt lat="47.84368" lon="12.95337">
        <ele>423.627673</ele>
        <time>2022-09-12T19:57:17.481Z</time>
      </trkpt>
      <trkpt lat="47.8437" lon="12.95231">
        <ele>423.531174</ele>
        <time>2022-09-12T19:57:35.972Z</time>
      </trkpt>
      <trkpt lat="47.84377" lon="12.95051">
        <ele>422.889422</ele>
        <time>2022-09-12T19:58:04.634Z</time>
      </trkpt>
      <trkpt lat="47.84398" lon="12.95003">
        <ele>422.660469</ele>
        <time>2022-09-12T19:58:13.795Z</time>
      </trkpt>
      <trkpt lat="47.84448" lon="12.94931">
        <ele>422.514073</ele>
        <time>2022-09-12T19:58:31.275Z</time>
      </trkpt>
      <trkpt lat="47.84574" lon="12.94751">
        <ele>422.985066</ele>
        <time>2022-09-12T19:59:21.142Z</time>
      </trkpt>
      <trkpt lat="47.84656" lon="12.94542">
        <ele>423.912233</ele>
        <time>2022-09-12T20:00:09.621Z</time>
      </trkpt>
      <trkpt lat="47.84686" lon="12.94503">
        <ele>423.947496</ele>
        <time>2022-09-12T20:00:21.587Z</time>
      </trkpt>
      <trkpt lat="47.84713" lon="12.94476">
        <ele>423.975874</ele>
        <time>2022-09-12T20:00:31.131Z</time>
      </trkpt>
      <trkpt lat="47.8475" lon="12.94449">
        <ele>424.011394</ele>
        <time>2022-09-12T20:00:42.125Z</time>
      </trkpt>
      <trkpt lat="47.84748" lon="12.94444">
        <ele>424.014931</ele>
        <time>2022-09-12T20:00:43.114Z</time>
      </trkpt>
      <trkpt lat="47.84745" lon="12.94421">
        <ele>424.028335</ele>
        <time>2022-09-12T20:00:46.910Z</time>
      </trkpt>
      <trkpt lat="47.84748" lon="12.94392">
        <ele>424.045517</ele>
        <time>2022-09-12T20:00:51.846Z</time>
      </trkpt>
      <trkpt lat="47.8475" lon="12.94378">
        <ele>424.053876</ele>
        <time>2022-09-12T20:00:54.114Z</time>
      </trkpt>
      <trkpt lat="47.84748" lon="12.94296">
        <ele>423.631688</ele>
        <time>2022-09-12T20:01:07.249Z</time>
      </trkpt>
      <trkpt lat="47.84736" lon="12.9421">
        <ele>423.092639</ele>
        <time>2022-09-12T20:01:21.065Z</time>
      </trkpt>
      <trkpt lat="47.84735" lon="12.94114">
        <ele>422.509832</ele>
        <time>2022-09-12T20:01:35.758Z</time>
      </trkpt>
      <trkpt lat="47.84729" lon="12.93997">
        <ele>422.149615</ele>
        <time>2022-09-12T20:01:53.928Z</time>
      </trkpt>
      <trkpt lat="47.84735" lon="12.93962">
        <ele>422.052639</ele>
        <time>2022-09-12T20:01:59.886Z</time>
      </trkpt>
      <trkpt lat="47.84765" lon="12.93886">
        <ele>421.816943</ele>
        <time>2022-09-12T20:02:15.817Z</time>
      </trkpt>
      <trkpt lat="47.84768" lon="12.93851">
        <ele>421.72021</ele>
        <time>2022-09-12T20:02:22.671Z</time>
      </trkpt>
      <trkpt lat="47.8476" lon="12.93817">
        <ele>421.780992</ele>
        <time>2022-09-12T20:02:29.169Z</time>
      </trkpt>
      <trkpt lat="47.8468" lon="12.93452">
        <ele>422.835329</ele>
        <time>2022-09-12T20:03:42.514Z</time>
      </trkpt>
      <trkpt lat="47.8468" lon="12.93433">
        <ele>422.903449</ele>
        <time>2022-09-12T20:03:46.604Z</time>
      </trkpt>
      <trkpt lat="47.84692" lon="12.93379">
        <ele>423.102843</ele>
        <time>2022-09-12T20:03:57.964Z</time>
      </trkpt>
      <trkpt lat="47.84717" lon="12.93303">
        <ele>423.432515</ele>
        <time>2022-09-12T20:04:14.943Z</time>
      </trkpt>
      <trkpt lat="47.84752" lon="12.93222">
        <ele>423.855192</ele>
        <time>2022-09-12T20:04:34.711Z</time>
      </trkpt>
      <trkpt lat="47.84782" lon="12.93119">
        <ele>424.341521</ele>
        <time>2022-09-12T20:04:56.605Z</time>
      </trkpt>
      <trkpt lat="47.84793" lon="12.93086">
        <ele>424.523234</ele>
        <time>2022-09-12T20:05:03.839Z</time>
      </trkpt>
      <trkpt lat="47.84852" lon="12.92928">
        <ele>425.530919</ele>
        <time>2022-09-12T20:05:40.284Z</time>
      </trkpt>
      <trkpt lat="47.84882" lon="12.92744">
        <ele>427.011599</ele>
        <time>2022-09-12T20:06:21.751Z</time>
      </trkpt>
      <trkpt lat="47.8489" lon="12.92726">
        <ele>427.212378</ele>
        <time>2022-09-12T20:06:26.816Z</time>
      </trkpt>
      <trkpt lat="47.8495" lon="12.92657">
        <ele>428.236716</ele>
        <time>2022-09-12T20:06:52.441Z</time>
      </trkpt>
      <trkpt lat="47.84966" lon="12.92626">
        <ele>428.511849</ele>
        <time>2022-09-12T20:07:01.642Z</time>
      </trkpt>
      <trkpt lat="47.85034" lon="12.92462">
        <ele>429.630372</ele>
        <time>2022-09-12T20:07:43.046Z</time>
      </trkpt>
      <trkpt lat="47.85078" lon="12.92387">
        <ele>429.613653</ele>
        <time>2022-09-12T20:08:00.665Z</time>
      </trkpt>
      <trkpt lat="47.85097" lon="12.92343">
        <ele>429.291603</ele>
        <time>2022-09-12T20:08:08.846Z</time>
      </trkpt>
      <trkpt lat="47.85123" lon="12.92264">
        <ele>428.752459</ele>
        <time>2022-09-12T20:08:21.915Z</time>
      </trkpt>
      <trkpt lat="47.85136" lon="12.92222">
        <ele>428.46577</ele>
        <time>2022-09-12T20:08:28.899Z</time>
      </trkpt>
      <trkpt lat="47.85114" lon="12.92212">
        <ele>428.26649</ele>
        <time>2022-09-12T20:08:33.930Z</time>
      </trkpt>
      <trkpt lat="47.85098" lon="12.92188">
        <ele>428.204955</ele>
        <time>2022-09-12T20:08:39.272Z</time>
      </trkpt>
      <trkpt lat="47.85087" lon="12.92144">
        <ele>428.121311</ele>
        <time>2022-09-12T20:08:46.538Z</time>
      </trkpt>
      <trkpt lat="47.85095" lon="12.9209">
        <ele>428.0201</ele>
        <time>2022-09-12T20:08:55.718Z</time>
      </trkpt>
      <trkpt lat="47.85114" lon="12.92028">
        <ele>427.897795</ele>
        <time>2022-09-12T20:09:07.337Z</time>
      </trkpt>
      <trkpt lat="47.85129" lon="12.9195">
        <ele>427.908479</ele>
        <time>2022-09-12T20:09:23.982Z</time>
      </trkpt>
      <trkpt lat="47.85195" lon="12.91798">
        <ele>429.008782</ele>
        <time>2022-09-12T20:10:04.679Z</time>
      </trkpt>
      <trkpt lat="47.85254" lon="12.91737">
        <ele>429.257244</ele>
        <time>2022-09-12T20:10:24.537Z</time>
      </trkpt>
      <trkpt lat="47.85255" lon="12.91712">
        <ele>429.161164</ele>
        <time>2022-09-12T20:10:28.915Z</time>
      </trkpt>
      <trkpt lat="47.85252" lon="12.91692">
        <ele>429.081772</ele>
        <time>2022-09-12T20:10:32.128Z</time>
      </trkpt>
      <trkpt lat="47.85264" lon="12.91658">
        <ele>428.934986</ele>
        <time>2022-09-12T20:10:38.415Z</time>
      </trkpt>
      <trkpt lat="47.85263" lon="12.91619">
        <ele>428.782413</ele>
        <time>2022-09-12T20:10:44.500Z</time>
      </trkpt>
      <trkpt lat="47.85263" lon="12.91614">
        <ele>428.763711</ele>
        <time>2022-09-12T20:10:45.280Z</time>
      </trkpt>
      <trkpt lat="47.85264" lon="12.91583">
        <ele>428.639819</ele>
        <time>2022-09-12T20:10:50.067Z</time>
      </trkpt>
      <trkpt lat="47.85272" lon="12.91559">
        <ele>428.536277</ele>
        <time>2022-09-12T20:10:54.228Z</time>
      </trkpt>
      <trkpt lat="47.85367" lon="12.91369">
        <ele>427.485574</ele>
        <time>2022-09-12T20:11:31.567Z</time>
      </trkpt>
      <trkpt lat="47.85438" lon="12.91232">
        <ele>427.082573</ele>
        <time>2022-09-12T20:12:01.513Z</time>
      </trkpt>
      <trkpt lat="47.85515" lon="12.91109">
        <ele>426.972432</ele>
        <time>2022-09-12T20:12:31.216Z</time>
      </trkpt>
      <trkpt lat="47.85558" lon="12.90995">
        <ele>427.40703</ele>
        <time>2022-09-12T20:12:55.611Z</time>
      </trkpt>
      <trkpt lat="47.85648" lon="12.90681">
        <ele>428.933631</ele>
        <time>2022-09-12T20:14:05.916Z</time>
      </trkpt>
      <trkpt lat="47.85727" lon="12.90409">
        <ele>430.764702</ele>
        <time>2022-09-12T20:15:05.085Z</time>
      </trkpt>
      <trkpt lat="47.85757" lon="12.90288">
        <ele>432.685952</ele>
        <time>2022-09-12T20:15:36.848Z</time>
      </trkpt>
      <trkpt lat="47.85772" lon="12.90071">
        <ele>436.56541</ele>
        <time>2022-09-12T20:16:38.644Z</time>
      </trkpt>
      <trkpt lat="47.85779" lon="12.90006">
        <ele>437.657363</ele>
        <time>2022-09-12T20:16:57.118Z</time>
      </trkpt>
      <trkpt lat="47.85791" lon="12.89992">
        <ele>438.013735</ele>
        <time>2022-09-12T20:17:03.099Z</time>
      </trkpt>
      <trkpt lat="47.85751" lon="12.89901">
        <ele>439.802275</ele>
        <time>2022-09-12T20:17:31.161Z</time>
      </trkpt>
      <trkpt lat="47.85729" lon="12.89823">
        <ele>440.5188</ele>
        <time>2022-09-12T20:17:50.289Z</time>
      </trkpt>
      <trkpt lat="47.85719" lon="12.89762">
        <ele>440.811927</ele>
        <time>2022-09-12T20:18:03.391Z</time>
      </trkpt>
      <trkpt lat="47.85716" lon="12.8966">
        <ele>441.28655</ele>
        <time>2022-09-12T20:18:23.873Z</time>
      </trkpt>
      <trkpt lat="47.85726" lon="12.89551">
        <ele>441.580037</ele>
        <time>2022-09-12T20:18:44.973Z</time>
      </trkpt>
      <trkpt lat="47.85742" lon="12.89479">
        <ele>441.669556</ele>
        <time>2022-09-12T20:18:58.996Z</time>
      </trkpt>
      <trkpt lat="47.85759" lon="12.89425">
        <ele>441.739606</ele>
        <time>2022-09-12T20:19:10.137Z</time>
      </trkpt>
      <trkpt lat="47.85784" lon="12.89363">
        <ele>441.840254</ele>
        <time>2022-09-12T20:19:23.249Z</time>
      </trkpt>
      <trkpt lat="47.85947" lon="12.89022">
        <ele>446.811109</ele>
        <time>2022-09-12T20:20:52.079Z</time>
      </trkpt>
      <trkpt lat="47.85983" lon="12.88934">
        <ele>449.069749</ele>
        <time>2022-09-12T20:21:27.441Z</time>
      </trkpt>
      <trkpt lat="47.86063" lon="12.88704">
        <ele>462.617415</ele>
        <time>2022-09-12T20:23:25.226Z</time>
      </trkpt>
      <trkpt lat="47.86096" lon="12.88519">
        <ele>469.876081</ele>
        <time>2022-09-12T20:24:44.619Z</time>
      </trkpt>
      <trkpt lat="47.86104" lon="12.88404">
        <ele>473.424393</ele>
        <time>2022-09-12T20:25:14.800Z</time>
      </trkpt>
      <trkpt lat="47.86075" lon="12.88128">
        <ele>474.318374</ele>
        <time>2022-09-12T20:26:01.690Z</time>
      </trkpt>
      <trkpt lat="47.86068" lon="12.88055">
        <ele>475.531252</ele>
        <time>2022-09-12T20:26:18.049Z</time>
      </trkpt>
      <trkpt lat="47.86042" lon="12.87765">
        <ele>481.210228</ele>
        <time>2022-09-12T20:27:45.005Z</time>
      </trkpt>
      <trkpt lat="47.86049" lon="12.87673">
        <ele>483.387289</ele>
        <time>2022-09-12T20:28:11.536Z</time>
      </trkpt>
      <trkpt lat="47.86072" lon="12.87587">
        <ele>485.532708</ele>
        <time>2022-09-12T20:28:38.285Z</time>
      </trkpt>
      <trkpt lat="47.86097" lon="12.87489">
        <ele>487.906497</ele>
        <time>2022-09-12T20:29:08.846Z</time>
      </trkpt>
      <trkpt lat="47.86109" lon="12.87407">
        <ele>489.805063</ele>
        <time>2022-09-12T20:29:33.224Z</time>
      </trkpt>
      <trkpt lat="47.86108" lon="12.87343">
        <ele>491.026768</ele>
        <time>2022-09-12T20:29:51.248Z</time>
      </trkpt>
      <trkpt lat="47.86101" lon="12.87272">
        <ele>492.144103</ele>
        <time>2022-09-12T20:30:11.094Z</time>
      </trkpt>
      <trkpt lat="47.86075" lon="12.87157">
        <ele>494.012163</ele>
        <time>2022-09-12T20:30:41.357Z</time>
      </trkpt>
      <trkpt lat="47.86059" lon="12.87075">
        <ele>494.839976</ele>
        <time>2022-09-12T20:30:59.878Z</time>
      </trkpt>
      <trkpt lat="47.86057" lon="12.8703">
        <ele>494.9992</ele>
        <time>2022-09-12T20:31:08.724Z</time>
      </trkpt>
      <trkpt lat="47.86061" lon="12.86994">
        <ele>495.126513</ele>
        <time>2022-09-12T20:31:15.671Z</time>
      </trkpt>
      <trkpt lat="47.86077" lon="12.86948">
        <ele>495.310746</ele>
        <time>2022-09-12T20:31:25.692Z</time>
      </trkpt>
      <trkpt lat="47.86081" lon="12.86943">
        <ele>495.338562</ele>
        <time>2022-09-12T20:31:27.209Z</time>
      </trkpt>
      <trkpt lat="47.86158" lon="12.86852">
        <ele>495.396115</ele>
        <time>2022-09-12T20:31:54.000Z</time>
      </trkpt>
      <trkpt lat="47.86177" lon="12.8682">
        <ele>495.221312</ele>
        <time>2022-09-12T20:32:01.395Z</time>
      </trkpt>
      <trkpt lat="47.86195" lon="12.86774">
        <ele>495.007343</ele>
        <time>2022-09-12T20:32:10.016Z</time>
      </trkpt>
      <trkpt lat="47.8621" lon="12.86701">
        <ele>494.69986</ele>
        <time>2022-09-12T20:32:21.732Z</time>
      </trkpt>
      <trkpt lat="47.86236" lon="12.86505">
        <ele>493.21165</ele>
        <time>2022-09-12T20:32:51.628Z</time>
      </trkpt>
      <trkpt lat="47.86245" lon="12.86439">
        <ele>492.657109</ele>
        <time>2022-09-12T20:33:01.866Z</time>
      </trkpt>
      <trkpt lat="47.86254" lon="12.863">
        <ele>492.293773</ele>
        <time>2022-09-12T20:33:23.874Z</time>
      </trkpt>
      <trkpt lat="47.86254" lon="12.86117">
        <ele>492.308432</ele>
        <time>2022-09-12T20:33:58.247Z</time>
      </trkpt>
      <trkpt lat="47.86243" lon="12.86019">
        <ele>493.008278</ele>
        <time>2022-09-12T20:34:19.480Z</time>
      </trkpt>
      <trkpt lat="47.86213" lon="12.85876">
        <ele>494.053606</ele>
        <time>2022-09-12T20:34:52.910Z</time>
      </trkpt>
      <trkpt lat="47.86167" lon="12.85732">
        <ele>494.438138</ele>
        <time>2022-09-12T20:35:25.650Z</time>
      </trkpt>
      <trkpt lat="47.86163" lon="12.85737">
        <ele>494.455266</ele>
        <time>2022-09-12T20:35:27.366Z</time>
      </trkpt>
      <trkpt lat="47.86152" lon="12.85738">
        <ele>494.494811</ele>
        <time>2022-09-12T20:35:30.377Z</time>
      </trkpt>
      <trkpt lat="47.86084" lon="12.85706">
        <ele>494.60447</ele>
        <time>2022-09-12T20:35:49.249Z</time>
      </trkpt>
      <trkpt lat="47.85758" lon="12.85549">
        <ele>492.504662</ele>
        <time>2022-09-12T20:37:14.808Z</time>
      </trkpt>
      <trkpt lat="47.85735" lon="12.85512">
        <ele>492.63614</ele>
        <time>2022-09-12T20:37:24.607Z</time>
      </trkpt>
      <trkpt lat="47.85693" lon="12.85477">
        <ele>492.867579</ele>
        <time>2022-09-12T20:37:38.808Z</time>
      </trkpt>
      <trkpt lat="47.85691" lon="12.85445">
        <ele>492.968897</ele>
        <time>2022-09-12T20:37:45.106Z</time>
      </trkpt>
      <trkpt lat="47.85732" lon="12.85269">
        <ele>493.717717</ele>
        <time>2022-09-12T20:38:24.133Z</time>
      </trkpt>
      <trkpt lat="47.85854" lon="12.84978">
        <ele>494.999451</ele>
        <time>2022-09-12T20:39:33.786Z</time>
      </trkpt>
      <trkpt lat="47.85888" lon="12.84893">
        <ele>495.145348</ele>
        <time>2022-09-12T20:39:51.092Z</time>
      </trkpt>
      <trkpt lat="47.8589" lon="12.84851">
        <ele>495.089556</ele>
        <time>2022-09-12T20:39:58.090Z</time>
      </trkpt>
      <trkpt lat="47.85801" lon="12.84643">
        <ele>493.720713</ele>
        <time>2022-09-12T20:40:37.321Z</time>
      </trkpt>
      <trkpt lat="47.85775" lon="12.84594">
        <ele>492.911097</ele>
        <time>2022-09-12T20:40:46.993Z</time>
      </trkpt>
      <trkpt lat="47.85745" lon="12.84557">
        <ele>492.115354</ele>
        <time>2022-09-12T20:40:55.855Z</time>
      </trkpt>
      <trkpt lat="47.85718" lon="12.84538">
        <ele>491.529261</ele>
        <time>2022-09-12T20:41:02.265Z</time>
      </trkpt>
      <trkpt lat="47.85707" lon="12.84517">
        <ele>491.160324</ele>
        <time>2022-09-12T20:41:06.174Z</time>
      </trkpt>
      <trkpt lat="47.85666" lon="12.84485">
        <ele>490.241199</ele>
        <time>2022-09-12T20:41:15.978Z</time>
      </trkpt>
      <trkpt lat="47.85563" lon="12.84429">
        <ele>487.785753</ele>
        <time>2022-09-12T20:41:38.997Z</time>
      </trkpt>
      <trkpt lat="47.85543" lon="12.844">
        <ele>487.160959</ele>
        <time>2022-09-12T20:41:44.813Z</time>
      </trkpt>
      <trkpt lat="47.85536" lon="12.84369">
        <ele>486.665408</ele>
        <time>2022-09-12T20:41:49.503Z</time>
      </trkpt>
      <trkpt lat="47.85543" lon="12.84329">
        <ele>486.043861</ele>
        <time>2022-09-12T20:41:55.438Z</time>
      </trkpt>
      <trkpt lat="47.8562" lon="12.84127">
        <ele>488.401141</ele>
        <time>2022-09-12T20:42:47.979Z</time>
      </trkpt>
      <trkpt lat="47.85599" lon="12.84087">
        <ele>489.371607</ele>
        <time>2022-09-12T20:43:03.794Z</time>
      </trkpt>
      <trkpt lat="47.85532" lon="12.83932">
        <ele>496.351686</ele>
        <time>2022-09-12T20:44:12.821Z</time>
      </trkpt>
      <trkpt lat="47.85498" lon="12.83879">
        <ele>499.144707</ele>
        <time>2022-09-12T20:44:42.282Z</time>
      </trkpt>
      <trkpt lat="47.85406" lon="12.83767">
        <ele>505.652724</ele>
        <time>2022-09-12T20:45:47.713Z</time>
      </trkpt>
      <trkpt lat="47.85372" lon="12.83729">
        <ele>508.004411</ele>
        <time>2022-09-12T20:46:09.095Z</time>
      </trkpt>
      <trkpt lat="47.85329" lon="12.83694">
        <ele>509.530176</ele>
        <time>2022-09-12T20:46:31.603Z</time>
      </trkpt>
      <trkpt lat="47.85307" lon="12.83663">
        <ele>510.176391</ele>
        <time>2022-09-12T20:46:44.573Z</time>
      </trkpt>
      <trkpt lat="47.85237" lon="12.83518">
        <ele>512.528172</ele>
        <time>2022-09-12T20:47:26.771Z</time>
      </trkpt>
      <trkpt lat="47.85223" lon="12.83466">
        <ele>511.37967</ele>
        <time>2022-09-12T20:47:34.665Z</time>
      </trkpt>
      <trkpt lat="47.85206" lon="12.83363">
        <ele>509.195858</ele>
        <time>2022-09-12T20:47:48.616Z</time>
      </trkpt>
      <trkpt lat="47.85196" lon="12.83259">
        <ele>506.921716</ele>
        <time>2022-09-12T20:48:01.623Z</time>
      </trkpt>
      <trkpt lat="47.85195" lon="12.83241">
        <ele>506.298642</ele>
        <time>2022-09-12T20:48:03.645Z</time>
      </trkpt>
      <trkpt lat="47.85189" lon="12.83183">
        <ele>504.190768</ele>
        <time>2022-09-12T20:48:10.561Z</time>
      </trkpt>
      <trkpt lat="47.85181" lon="12.83163">
        <ele>503.351932</ele>
        <time>2022-09-12T20:48:13.318Z</time>
      </trkpt>
      <trkpt lat="47.85166" lon="12.83146">
        <ele>502.355264</ele>
        <time>2022-09-12T20:48:16.608Z</time>
      </trkpt>
      <trkpt lat="47.85157" lon="12.83141">
        <ele>501.850358</ele>
        <time>2022-09-12T20:48:18.221Z</time>
      </trkpt>
      <trkpt lat="47.85149" lon="12.8314">
        <ele>501.408575</ele>
        <time>2022-09-12T20:48:19.704Z</time>
      </trkpt>
      <trkpt lat="47.85149" lon="12.83126">
        <ele>500.918207</ele>
        <time>2022-09-12T20:48:21.647Z</time>
      </trkpt>
      <trkpt lat="47.85145" lon="12.83096">
        <ele>499.812874</ele>
        <time>2022-09-12T20:48:25.779Z</time>
      </trkpt>
      <trkpt lat="47.85137" lon="12.83074">
        <ele>498.912662</ele>
        <time>2022-09-12T20:48:29.496Z</time>
      </trkpt>
      <trkpt lat="47.85092" lon="12.83015">
        <ele>496.100116</ele>
        <time>2022-09-12T20:48:41.670Z</time>
      </trkpt>
      <trkpt lat="47.85059" lon="12.83007">
        <ele>494.735374</ele>
        <time>2022-09-12T20:48:48.416Z</time>
      </trkpt>
      <trkpt lat="47.84999" lon="12.83004">
        <ele>492.218555</ele>
        <time>2022-09-12T20:49:01.066Z</time>
      </trkpt>
      <trkpt lat="47.84982" lon="12.82987">
        <ele>491.356374</ele>
        <time>2022-09-12T20:49:05.367Z</time>
      </trkpt>
      <trkpt lat="47.84978" lon="12.82984">
        <ele>491.189851</ele>
        <time>2022-09-12T20:49:06.212Z</time>
      </trkpt>
      <trkpt lat="47.84991" lon="12.82903">
        <ele>489.86095</ele>
        <time>2022-09-12T20:49:17.416Z</time>
      </trkpt>
      <trkpt lat="47.84996" lon="12.82801">
        <ele>489.516703</ele>
        <time>2022-09-12T20:49:31.906Z</time>
      </trkpt>
      <trkpt lat="47.85012" lon="12.82668">
        <ele>489.382148</ele>
        <time>2022-09-12T20:50:00.690Z</time>
      </trkpt>
      <trkpt lat="47.8502" lon="12.82585">
        <ele>491.777303</ele>
        <time>2022-09-12T20:50:26.522Z</time>
      </trkpt>
      <trkpt lat="47.85019" lon="12.82557">
        <ele>492.55338</ele>
        <time>2022-09-12T20:50:36.580Z</time>
      </trkpt>
      <trkpt lat="47.85017" lon="12.82527">
        <ele>493.404002</ele>
        <time>2022-09-12T20:50:46.934Z</time>
      </trkpt>
      <trkpt lat="47.85015" lon="12.82488">
        <ele>494.509507</ele>
        <time>2022-09-12T20:51:01.018Z</time>
      </trkpt>
      <trkpt lat="47.85009" lon="12.82472">
        <ele>495.037444</ele>
        <time>2022-09-12T20:51:07.449Z</time>
      </trkpt>
      <trkpt lat="47.84985" lon="12.82349">
        <ele>497.722603</ele>
        <time>2022-09-12T20:51:49.450Z</time>
      </trkpt>
      <trkpt lat="47.84979" lon="12.82323">
        <ele>498.136158</ele>
        <time>2022-09-12T20:51:57.002Z</time>
      </trkpt>
      <trkpt lat="47.84977" lon="12.82311">
        <ele>498.316467</ele>
        <time>2022-09-12T20:52:00.303Z</time>
      </trkpt>
      <trkpt lat="47.84973" lon="12.82282">
        <ele>498.764792</ele>
        <time>2022-09-12T20:52:08.069Z</time>
      </trkpt>
      <trkpt lat="47.8497" lon="12.82253">
        <ele>499.202489</ele>
        <time>2022-09-12T20:52:15.306Z</time>
      </trkpt>
      <trkpt lat="47.84969" lon="12.8222">
        <ele>499.693972</ele>
        <time>2022-09-12T20:52:22.807Z</time>
      </trkpt>
      <trkpt lat="47.84971" lon="12.82203">
        <ele>499.960314</ele>
        <time>2022-09-12T20:52:26.583Z</time>
      </trkpt>
      <trkpt lat="47.84974" lon="12.82171">
        <ele>500.435387</ele>
        <time>2022-09-12T20:52:32.564Z</time>
      </trkpt>
      <trkpt lat="47.8498" lon="12.8209">
        <ele>499.998705</ele>
        <time>2022-09-12T20:52:45.212Z</time>
      </trkpt>
      <trkpt lat="47.84982" lon="12.82048">
        <ele>499.548511</ele>
        <time>2022-09-12T20:52:51.210Z</time>
      </trkpt>
      <trkpt lat="47.84978" lon="12.81908">
        <ele>498.055121</ele>
        <time>2022-09-12T20:53:10.842Z</time>
      </trkpt>
      <trkpt lat="47.84976" lon="12.81847">
        <ele>497.292991</ele>
        <time>2022-09-12T20:53:19.648Z</time>
      </trkpt>
      <trkpt lat="47.84974" lon="12.81709">
        <ele>495.455331</ele>
        <time>2022-09-12T20:53:38.901Z</time>
      </trkpt>
      <trkpt lat="47.84973" lon="12.8167">
        <ele>494.933144</ele>
        <time>2022-09-12T20:53:44.272Z</time>
      </trkpt>
      <trkpt lat="47.8497" lon="12.8167">
        <ele>494.875073</ele>
        <time>2022-09-12T20:53:44.890Z</time>
      </trkpt>
      <trkpt lat="47.84967" lon="12.81457">
        <ele>493.073322</ele>
        <time>2022-09-12T20:54:16.442Z</time>
      </trkpt>
      <trkpt lat="47.84966" lon="12.81278">
        <ele>492.250284</ele>
        <time>2022-09-12T20:54:46.350Z</time>
      </trkpt>
      <trkpt lat="47.84953" lon="12.81241">
        <ele>492.200061</ele>
        <time>2022-09-12T20:54:53.942Z</time>
      </trkpt>
      <trkpt lat="47.84955" lon="12.81232">
        <ele>492.188448</ele>
        <time>2022-09-12T20:54:55.880Z</time>
      </trkpt>
      <trkpt lat="47.84972" lon="12.81214">
        <ele>492.149804</ele>
        <time>2022-09-12T20:55:01.951Z</time>
      </trkpt>
      <trkpt lat="47.84973" lon="12.81198">
        <ele>492.130554</ele>
        <time>2022-09-12T20:55:05.010Z</time>
      </trkpt>
      <trkpt lat="47.8498" lon="12.81194">
        <ele>492.117373</ele>
        <time>2022-09-12T20:55:07.021Z</time>
      </trkpt>
      <trkpt lat="47.8499" lon="12.80835">
        <ele>491.318667</ele>
        <time>2022-09-12T20:56:07.015Z</time>
      </trkpt>
      <trkpt lat="47.84968" lon="12.80788">
        <ele>491.374741</ele>
        <time>2022-09-12T20:56:16.981Z</time>
      </trkpt>
      <trkpt lat="47.84954" lon="12.80777">
        <ele>491.397923</ele>
        <time>2022-09-12T20:56:21.035Z</time>
      </trkpt>
      <trkpt lat="47.84941" lon="12.80766">
        <ele>491.420262</ele>
        <time>2022-09-12T20:56:25.237Z</time>
      </trkpt>
      <trkpt lat="47.84937" lon="12.80753">
        <ele>491.434517</ele>
        <time>2022-09-12T20:56:27.893Z</time>
      </trkpt>
      <trkpt lat="47.84951" lon="12.80734">
        <ele>491.461256</ele>
        <time>2022-09-12T20:56:32.708Z</time>
      </trkpt>
      <trkpt lat="47.84972" lon="12.80686">
        <ele>491.517398</ele>
        <time>2022-09-12T20:56:43.428Z</time>
      </trkpt>
      <trkpt lat="47.85009" lon="12.80578">
        <ele>491.930999</ele>
        <time>2022-09-12T20:57:08.122Z</time>
      </trkpt>
      <trkpt lat="47.85018" lon="12.8053">
        <ele>492.203078</ele>
        <time>2022-09-12T20:57:18.378Z</time>
      </trkpt>
      <trkpt lat="47.85029" lon="12.8051">
        <ele>492.340838</ele>
        <time>2022-09-12T20:57:23.557Z</time>
      </trkpt>
      <trkpt lat="47.85053" lon="12.80425">
        <ele>492.839461</ele>
        <time>2022-09-12T20:57:42.480Z</time>
      </trkpt>
      <trkpt lat="47.85088" lon="12.80297">
        <ele>493.755949</ele>
        <time>2022-09-12T20:58:11.490Z</time>
      </trkpt>
      <trkpt lat="47.85159" lon="12.79905">
        <ele>496.561866</ele>
        <time>2022-09-12T20:59:38.946Z</time>
      </trkpt>
      <trkpt lat="47.85178" lon="12.79767">
        <ele>497.190407</ele>
        <time>2022-09-12T21:00:06.803Z</time>
      </trkpt>
      <trkpt lat="47.85185" lon="12.79774">
        <ele>497.24048</ele>
        <time>2022-09-12T21:00:09.893Z</time>
      </trkpt>
      <trkpt lat="47.85232" lon="12.79792">
        <ele>497.526404</ele>
        <time>2022-09-12T21:00:25.015Z</time>
      </trkpt>
      <trkpt lat="47.85293" lon="12.7982">
        <ele>497.904076</ele>
        <time>2022-09-12T21:00:44.054Z</time>
      </trkpt>
      <trkpt lat="47.85324" lon="12.79815">
        <ele>498.098662</ele>
        <time>2022-09-12T21:00:53.144Z</time>
      </trkpt>
      <trkpt lat="47.85365" lon="12.79791">
        <ele>498.377676</ele>
        <time>2022-09-12T21:01:06.742Z</time>
      </trkpt>
      <trkpt lat="47.85419" lon="12.7978">
        <ele>498.71664</ele>
        <time>2022-09-12T21:01:23.860Z</time>
      </trkpt>
      <trkpt lat="47.85465" lon="12.79784">
        <ele>499.02113</ele>
        <time>2022-09-12T21:01:38.279Z</time>
      </trkpt>
      <trkpt lat="47.85484" lon="12.79787">
        <ele>499.169276</ele>
        <time>2022-09-12T21:01:44.465Z</time>
      </trkpt>
      <trkpt lat="47.85513" lon="12.79792">
        <ele>499.395869</ele>
        <time>2022-09-12T21:01:53.718Z</time>
      </trkpt>
      <trkpt lat="47.85643" lon="12.79781">
        <ele>500.365495</ele>
        <time>2022-09-12T21:02:34.770Z</time>
      </trkpt>
      <trkpt lat="47.85694" lon="12.79776">
        <ele>500.638234</ele>
        <time>2022-09-12T21:02:50.523Z</time>
      </trkpt>
      <trkpt lat="47.85713" lon="12.79754">
        <ele>500.769156</ele>
        <time>2022-09-12T21:02:58.033Z</time>
      </trkpt>
      <trkpt lat="47.85737" lon="12.79708">
        <ele>500.975455</ele>
        <time>2022-09-12T21:03:09.713Z</time>
      </trkpt>
      <trkpt lat="47.85758" lon="12.79604">
        <ele>501.328326</ele>
        <time>2022-09-12T21:03:31.483Z</time>
      </trkpt>
      <trkpt lat="47.85784" lon="12.79439">
        <ele>501.730724</ele>
        <time>2022-09-12T21:04:03.352Z</time>
      </trkpt>
      <trkpt lat="47.85795" lon="12.79304">
        <ele>503.566657</ele>
        <time>2022-09-12T21:04:31.706Z</time>
      </trkpt>
      <trkpt lat="47.8579" lon="12.79252">
        <ele>504.86318</ele>
        <time>2022-09-12T21:04:45.692Z</time>
      </trkpt>
      <trkpt lat="47.85795" lon="12.79254">
        <ele>505.058105</ele>
        <time>2022-09-12T21:04:47.887Z</time>
      </trkpt>
      <trkpt lat="47.85817" lon="12.79266">
        <ele>505.937003</ele>
        <time>2022-09-12T21:04:59.080Z</time>
      </trkpt>
      <trkpt lat="47.859" lon="12.79311">
        <ele>509.637032</ele>
        <time>2022-09-12T21:05:48.189Z</time>
      </trkpt>
      <trkpt lat="47.85991" lon="12.79355">
        <ele>515.647379</ele>
        <time>2022-09-12T21:06:45.427Z</time>
      </trkpt>
      <trkpt lat="47.86045" lon="12.79369">
        <ele>519.064466</ele>
        <time>2022-09-12T21:07:16.134Z</time>
      </trkpt>
      <trkpt lat="47.86107" lon="12.79371">
        <ele>522.136679</ele>
        <time>2022-09-12T21:07:48.532Z</time>
      </trkpt>
      <trkpt lat="47.86159" lon="12.79348">
        <ele>524.624905</ele>
        <time>2022-09-12T21:08:14.189Z</time>
      </trkpt>
      <trkpt lat="47.86192" lon="12.79319">
        <ele>526.379637</ele>
        <time>2022-09-12T21:08:30.899Z</time>
      </trkpt>
      <trkpt lat="47.86219" lon="12.79281">
        <ele>528.065892</ele>
        <time>2022-09-12T21:08:47.501Z</time>
      </trkpt>
      <trkpt lat="47.86243" lon="12.7923">
        <ele>530.322877</ele>
        <time>2022-09-12T21:09:08.502Z</time>
      </trkpt>
      <trkpt lat="47.86262" lon="12.7917">
        <ele>532.722002</ele>
        <time>2022-09-12T21:09:32.018Z</time>
      </trkpt>
      <trkpt lat="47.863" lon="12.78929">
        <ele>541.340594</ele>
        <time>2022-09-12T21:11:03.575Z</time>
      </trkpt>
      <trkpt lat="47.8633" lon="12.78805">
        <ele>545.713273</ele>
        <time>2022-09-12T21:11:47.559Z</time>
      </trkpt>
      <trkpt lat="47.864" lon="12.78665">
        <ele>548.36063</ele>
        <time>2022-09-12T21:12:36.272Z</time>
      </trkpt>
      <trkpt lat="47.86442" lon="12.78599">
        <ele>549.41791</ele>
        <time>2022-09-12T21:12:54.167Z</time>
      </trkpt>
      <trkpt lat="47.86473" lon="12.78525">
        <ele>549.276598</ele>
        <time>2022-09-12T21:13:07.526Z</time>
      </trkpt>
      <trkpt lat="47.8649" lon="12.78459">
        <ele>548.647489</ele>
        <time>2022-09-12T21:13:17.957Z</time>
      </trkpt>
      <trkpt lat="47.86496" lon="12.78418">
        <ele>548.268218</ele>
        <time>2022-09-12T21:13:23.847Z</time>
      </trkpt>
      <trkpt lat="47.86495" lon="12.78338">
        <ele>547.557384</ele>
        <time>2022-09-12T21:13:35.390Z</time>
      </trkpt>
      <trkpt lat="47.86483" lon="12.7822">
        <ele>548.264691</ele>
        <time>2022-09-12T21:13:54.088Z</time>
      </trkpt>
      <trkpt lat="47.86475" lon="12.78139">
        <ele>548.974791</ele>
        <time>2022-09-12T21:14:12.185Z</time>
      </trkpt>
      <trkpt lat="47.86474" lon="12.7807">
        <ele>549.574906</ele>
        <time>2022-09-12T21:14:31.569Z</time>
      </trkpt>
      <trkpt lat="47.8649" lon="12.77916">
        <ele>554.405657</ele>
        <time>2022-09-12T21:15:24.433Z</time>
      </trkpt>
      <trkpt lat="47.86489" lon="12.7781">
        <ele>557.966701</ele>
        <time>2022-09-12T21:16:02.817Z</time>
      </trkpt>
      <trkpt lat="47.86485" lon="12.77677">
        <ele>561.827711</ele>
        <time>2022-09-12T21:16:49.094Z</time>
      </trkpt>
      <trkpt lat="47.86494" lon="12.77559">
        <ele>565.139084</ele>
        <time>2022-09-12T21:17:24.573Z</time>
      </trkpt>
      <trkpt lat="47.86502" lon="12.77505">
        <ele>566.472433</ele>
        <time>2022-09-12T21:17:39.866Z</time>
      </trkpt>
      <trkpt lat="47.86512" lon="12.77471">
        <ele>567.028685</ele>
        <time>2022-09-12T21:17:49.796Z</time>
      </trkpt>
      <trkpt lat="47.86575" lon="12.77375">
        <ele>569.009204</ele>
        <time>2022-09-12T21:18:22.624Z</time>
      </trkpt>
      <trkpt lat="47.86588" lon="12.77336">
        <ele>569.656678</ele>
        <time>2022-09-12T21:18:33.019Z</time>
      </trkpt>
      <trkpt lat="47.86596" lon="12.77285">
        <ele>570.363842</ele>
        <time>2022-09-12T21:18:45.266Z</time>
      </trkpt>
      <trkpt lat="47.8659" lon="12.77091">
        <ele>572.356671</ele>
        <time>2022-09-12T21:19:30.365Z</time>
      </trkpt>
      <trkpt lat="47.86595" lon="12.76977">
        <ele>573.230612</ele>
        <time>2022-09-12T21:19:55.233Z</time>
      </trkpt>
      <trkpt lat="47.86607" lon="12.76931">
        <ele>573.461806</ele>
        <time>2022-09-12T21:20:04.628Z</time>
      </trkpt>
      <trkpt lat="47.86627" lon="12.76879">
        <ele>573.755646</ele>
        <time>2022-09-12T21:20:16.176Z</time>
      </trkpt>
      <trkpt lat="47.86693" lon="12.76733">
        <ele>575.291089</ele>
        <time>2022-09-12T21:20:51.060Z</time>
      </trkpt>
      <trkpt lat="47.86707" lon="12.76684">
        <ele>576.045744</ele>
        <time>2022-09-12T21:21:03.351Z</time>
      </trkpt>
      <trkpt lat="47.86716" lon="12.76631">
        <ele>576.821969</ele>
        <time>2022-09-12T21:21:16.206Z</time>
      </trkpt>
      <trkpt lat="47.86715" lon="12.76548">
        <ele>578.012983</ele>
        <time>2022-09-12T21:21:39.141Z</time>
      </trkpt>
      <trkpt lat="47.86698" lon="12.7631">
        <ele>586.325754</ele>
        <time>2022-09-12T21:23:03.395Z</time>
      </trkpt>
      <trkpt lat="47.86698" lon="12.76218">
        <ele>589.6202</ele>
        <time>2022-09-12T21:23:38.605Z</time>
      </trkpt>
      <trkpt lat="47.86708" lon="12.76102">
        <ele>593.833339</ele>
        <time>2022-09-12T21:24:21.260Z</time>
      </trkpt>
      <trkpt lat="47.86712" lon="12.76065">
        <ele>595.183313</ele>
        <time>2022-09-12T21:24:34.168Z</time>
      </trkpt>
      <trkpt lat="47.86704" lon="12.75953">
        <ele>598.197569</ele>
        <time>2022-09-12T21:25:10.601Z</time>
      </trkpt>
      <trkpt lat="47.86695" lon="12.75869">
        <ele>599.674413</ele>
        <time>2022-09-12T21:25:33.760Z</time>
      </trkpt>
      <trkpt lat="47.86678" lon="12.75781">
        <ele>601.279918</ele>
        <time>2022-09-12T21:25:55.218Z</time>
      </trkpt>
      <trkpt lat="47.86661" lon="12.75652">
        <ele>602.556224</ele>
        <time>2022-09-12T21:26:22.112Z</time>
      </trkpt>
      <trkpt lat="47.86659" lon="12.75632">
        <ele>602.699501</ele>
        <time>2022-09-12T21:26:26.286Z</time>
      </trkpt>
      <trkpt lat="47.86658" lon="12.75622">
        <ele>602.76675</ele>
        <time>2022-09-12T21:26:28.227Z</time>
      </trkpt>
      <trkpt lat="47.86645" lon="12.75445">
        <ele>604.284862</ele>
        <time>2022-09-12T21:27:06.212Z</time>
      </trkpt>
      <trkpt lat="47.86644" lon="12.75316">
        <ele>606.098611</ele>
        <time>2022-09-12T21:27:38.415Z</time>
      </trkpt>
      <trkpt lat="47.86651" lon="12.7505">
        <ele>609.77255</ele>
        <time>2022-09-12T21:28:47.404Z</time>
      </trkpt>
      <trkpt lat="47.8666" lon="12.74907">
        <ele>611.297612</ele>
        <time>2022-09-12T21:29:19.906Z</time>
      </trkpt>
      <trkpt lat="47.86678" lon="12.74773">
        <ele>611.634138</ele>
        <time>2022-09-12T21:29:46.722Z</time>
      </trkpt>
      <trkpt lat="47.8671" lon="12.74573">
        <ele>610.838031</ele>
        <time>2022-09-12T21:30:20.669Z</time>
      </trkpt>
      <trkpt lat="47.86731" lon="12.74417">
        <ele>609.307952</ele>
        <time>2022-09-12T21:30:43.907Z</time>
      </trkpt>
      <trkpt lat="47.86737" lon="12.74314">
        <ele>606.29482</ele>
        <time>2022-09-12T21:30:57.584Z</time>
      </trkpt>
      <trkpt lat="47.86737" lon="12.74183">
        <ele>602.446926</ele>
        <time>2022-09-12T21:31:13.414Z</time>
      </trkpt>
      <trkpt lat="47.86746" lon="12.74115">
        <ele>600.00856</ele>
        <time>2022-09-12T21:31:21.555Z</time>
      </trkpt>
      <trkpt lat="47.86761" lon="12.74046">
        <ele>597.160347</ele>
        <time>2022-09-12T21:31:30.125Z</time>
      </trkpt>
      <trkpt lat="47.86768" lon="12.73992">
        <ele>594.995472</ele>
        <time>2022-09-12T21:31:36.644Z</time>
      </trkpt>
      <trkpt lat="47.86766" lon="12.73936">
        <ele>592.820096</ele>
        <time>2022-09-12T21:31:43.176Z</time>
      </trkpt>
      <trkpt lat="47.86756" lon="12.73899">
        <ele>591.252336</ele>
        <time>2022-09-12T21:31:47.937Z</time>
      </trkpt>
      <trkpt lat="47.86722" lon="12.73818">
        <ele>589.128845</ele>
        <time>2022-09-12T21:31:59.522Z</time>
      </trkpt>
      <trkpt lat="47.86711" lon="12.73769">
        <ele>588.012343</ele>
        <time>2022-09-12T21:32:06.150Z</time>
      </trkpt>
      <trkpt lat="47.8671" lon="12.73731">
        <ele>587.202416</ele>
        <time>2022-09-12T21:32:11.086Z</time>
      </trkpt>
      <trkpt lat="47.86729" lon="12.73498">
        <ele>586.2499</ele>
        <time>2022-09-12T21:32:48.369Z</time>
      </trkpt>
      <trkpt lat="47.86753" lon="12.73351">
        <ele>588.007594</ele>
        <time>2022-09-12T21:33:28.511Z</time>
      </trkpt>
      <trkpt lat="47.86786" lon="12.73229">
        <ele>592.217736</ele>
        <time>2022-09-12T21:34:14.688Z</time>
      </trkpt>
      <trkpt lat="47.86821" lon="12.73131">
        <ele>595.741463</ele>
        <time>2022-09-12T21:34:54.507Z</time>
      </trkpt>
      <trkpt lat="47.86877" lon="12.73014">
        <ele>599.340345</ele>
        <time>2022-09-12T21:35:41.092Z</time>
      </trkpt>
      <trkpt lat="47.87069" lon="12.72705">
        <ele>606.807282</ele>
        <time>2022-09-12T21:37:29.457Z</time>
      </trkpt>
      <trkpt lat="47.87118" lon="12.72619">
        <ele>607.880688</ele>
        <time>2022-09-12T21:37:53.538Z</time>
      </trkpt>
      <trkpt lat="47.87186" lon="12.7248">
        <ele>609.069137</ele>
        <time>2022-09-12T21:38:32.155Z</time>
      </trkpt>
      <trkpt lat="47.87223" lon="12.72395">
        <ele>609.118631</ele>
        <time>2022-09-12T21:38:51.285Z</time>
      </trkpt>
      <trkpt lat="47.87241" lon="12.72312">
        <ele>609.161562</ele>
        <time>2022-09-12T21:39:06.105Z</time>
      </trkpt>
      <trkpt lat="47.87262" lon="12.72107">
        <ele>606.712017</ele>
        <time>2022-09-12T21:39:36.091Z</time>
      </trkpt>
      <trkpt lat="47.87263" lon="12.72095">
        <ele>606.541642</ele>
        <time>2022-09-12T21:39:37.717Z</time>
      </trkpt>
      <trkpt lat="47.87284" lon="12.7182">
        <ele>602.230307</ele>
        <time>2022-09-12T21:40:14.633Z</time>
      </trkpt>
      <trkpt lat="47.87294" lon="12.71743">
        <ele>601.173552</ele>
        <time>2022-09-12T21:40:25.947Z</time>
      </trkpt>
      <trkpt lat="47.87303" lon="12.71737">
        <ele>601.250776</ele>
        <time>2022-09-12T21:40:28.051Z</time>
      </trkpt>
      <trkpt lat="47.87311" lon="12.71705">
        <ele>601.434104</ele>
        <time>2022-09-12T21:40:33.498Z</time>
      </trkpt>
      <trkpt lat="47.87316" lon="12.71618">
        <ele>601.911513</ele>
        <time>2022-09-12T21:40:50.139Z</time>
      </trkpt>
      <trkpt lat="47.87316" lon="12.71557">
        <ele>602.240133</ele>
        <time>2022-09-12T21:41:04.489Z</time>
      </trkpt>
      <trkpt lat="47.87309" lon="12.71471">
        <ele>603.125631</ele>
        <time>2022-09-12T21:41:26.835Z</time>
      </trkpt>
      <trkpt lat="47.87301" lon="12.71441">
        <ele>603.843568</ele>
        <time>2022-09-12T21:41:36.121Z</time>
      </trkpt>
      <trkpt lat="47.87274" lon="12.71396">
        <ele>605.210461</ele>
        <time>2022-09-12T21:41:54.648Z</time>
      </trkpt>
      <trkpt lat="47.8727" lon="12.71369">
        <ele>605.81965</ele>
        <time>2022-09-12T21:42:03.171Z</time>
      </trkpt>
      <trkpt lat="47.87275" lon="12.71356">
        <ele>606.156169</ele>
        <time>2022-09-12T21:42:08.139Z</time>
      </trkpt>
      <trkpt lat="47.87285" lon="12.71352">
        <ele>606.489527</ele>
        <time>2022-09-12T21:42:12.645Z</time>
      </trkpt>
      <trkpt lat="47.87315" lon="12.71344">
        <ele>607.492264</ele>
        <time>2022-09-12T21:42:26.304Z</time>
      </trkpt>
      <trkpt lat="47.87367" lon="12.71329">
        <ele>608.820411</ele>
        <time>2022-09-12T21:42:47.686Z</time>
      </trkpt>
      <trkpt lat="47.87363" lon="12.71256">
        <ele>609.461338</ele>
        <time>2022-09-12T21:43:05.245Z</time>
      </trkpt>
      <trkpt lat="47.87367" lon="12.71181">
        <ele>610.122427</ele>
        <time>2022-09-12T21:43:21.066Z</time>
      </trkpt>
      <trkpt lat="47.87384" lon="12.71118">
        <ele>610.719397</ele>
        <time>2022-09-12T21:43:34.028Z</time>
      </trkpt>
      <trkpt lat="47.87406" lon="12.71072">
        <ele>610.921161</ele>
        <time>2022-09-12T21:43:44.567Z</time>
      </trkpt>
      <trkpt lat="47.87432" lon="12.71014">
        <ele>610.980099</ele>
        <time>2022-09-12T21:43:56.960Z</time>
      </trkpt>
      <trkpt lat="47.87438" lon="12.70992">
        <ele>611.000382</ele>
        <time>2022-09-12T21:44:01.192Z</time>
      </trkpt>
      <trkpt lat="47.87442" lon="12.70946">
        <ele>611.039599</ele>
        <time>2022-09-12T21:44:09.318Z</time>
      </trkpt>
      <trkpt lat="47.87441" lon="12.70924">
        <ele>611.05771</ele>
        <time>2022-09-12T21:44:13.042Z</time>
      </trkpt>
      <trkpt lat="47.87423" lon="12.70704">
        <ele>611.563276</ele>
        <time>2022-09-12T21:44:55.743Z</time>
      </trkpt>
      <trkpt lat="47.87423" lon="12.70632">
        <ele>611.774303</ele>
        <time>2022-09-12T21:45:09.908Z</time>
      </trkpt>
      <trkpt lat="47.87433" lon="12.70543">
        <ele>611.938241</ele>
        <time>2022-09-12T21:45:27.239Z</time>
      </trkpt>
      <trkpt lat="47.87462" lon="12.7037">
        <ele>612.077591</ele>
        <time>2022-09-12T21:46:00.124Z</time>
      </trkpt>
      <trkpt lat="47.87504" lon="12.70295">
        <ele>612.053835</ele>
        <time>2022-09-12T21:46:16.665Z</time>
      </trkpt>
      <trkpt lat="47.8752" lon="12.70255">
        <ele>612.004815</ele>
        <time>2022-09-12T21:46:24.326Z</time>
      </trkpt>
      <trkpt lat="47.87543" lon="12.7013">
        <ele>611.867248</ele>
        <time>2022-09-12T21:46:46.143Z</time>
      </trkpt>
      <trkpt lat="47.8752" lon="12.70105">
        <ele>611.90311</ele>
        <time>2022-09-12T21:46:54.101Z</time>
      </trkpt>
      <trkpt lat="47.87508" lon="12.70098">
        <ele>612.182695</ele>
        <time>2022-09-12T21:47:00.258Z</time>
      </trkpt>
      <trkpt lat="47.87505" lon="12.70093">
        <ele>612.28102</ele>
        <time>2022-09-12T21:47:02.394Z</time>
      </trkpt>
      <trkpt lat="47.87526" lon="12.70007">
        <ele>613.615552</ele>
        <time>2022-09-12T21:47:33.586Z</time>
      </trkpt>
      <trkpt lat="47.87515" lon="12.69926">
        <ele>614.809572</ele>
        <time>2022-09-12T21:48:04.596Z</time>
      </trkpt>
      <trkpt lat="47.87495" lon="12.69806">
        <ele>617.544128</ele>
        <time>2022-09-12T21:48:43.859Z</time>
      </trkpt>
      <trkpt lat="47.87477" lon="12.69742">
        <ele>619.640323</ele>
        <time>2022-09-12T21:49:08.685Z</time>
      </trkpt>
      <trkpt lat="47.87469" lon="12.69568">
        <ele>624.459724</ele>
        <time>2022-09-12T21:50:06.678Z</time>
      </trkpt>
      <trkpt lat="47.87482" lon="12.69526">
        <ele>625.340153</ele>
        <time>2022-09-12T21:50:20.544Z</time>
      </trkpt>
      <trkpt lat="47.87483" lon="12.69481">
        <ele>626.193824</ele>
        <time>2022-09-12T21:50:33.571Z</time>
      </trkpt>
      <trkpt lat="47.8747" lon="12.69323">
        <ele>628.998795</ele>
        <time>2022-09-12T21:51:13.916Z</time>
      </trkpt>
      <trkpt lat="47.87455" lon="12.69232">
        <ele>629.575944</ele>
        <time>2022-09-12T21:51:34.733Z</time>
      </trkpt>
      <trkpt lat="47.87448" lon="12.69056">
        <ele>630.399791</ele>
        <time>2022-09-12T21:52:11.011Z</time>
      </trkpt>
      <trkpt lat="47.87424" lon="12.69056">
        <ele>630.145568</ele>
        <time>2022-09-12T21:52:18.175Z</time>
      </trkpt>
      <trkpt lat="47.87402" lon="12.69041">
        <ele>629.903328</ele>
        <time>2022-09-12T21:52:24.672Z</time>
      </trkpt>
      <trkpt lat="47.87382" lon="12.68994">
        <ele>629.514786</ele>
        <time>2022-09-12T21:52:33.960Z</time>
      </trkpt>
      <trkpt lat="47.8738" lon="12.68962">
        <ele>629.296558</ele>
        <time>2022-09-12T21:52:38.595Z</time>
      </trkpt>
      <trkpt lat="47.87386" lon="12.68924">
        <ele>629.022822</ele>
        <time>2022-09-12T21:52:44.306Z</time>
      </trkpt>
      <trkpt lat="47.87421" lon="12.68805">
        <ele>627.968276</ele>
        <time>2022-09-12T21:53:03.361Z</time>
      </trkpt>
      <trkpt lat="47.87423" lon="12.68782">
        <ele>627.767888</ele>
        <time>2022-09-12T21:53:06.566Z</time>
      </trkpt>
      <trkpt lat="47.87421" lon="12.68745">
        <ele>627.439399</ele>
        <time>2022-09-12T21:53:12.317Z</time>
      </trkpt>
      <trkpt lat="47.87409" lon="12.68708">
        <ele>627.080824</ele>
        <time>2022-09-12T21:53:18.923Z</time>
      </trkpt>
      <trkpt lat="47.87393" lon="12.68685">
        <ele>626.783944</ele>
        <time>2022-09-12T21:53:24.277Z</time>
      </trkpt>
      <trkpt lat="47.87372" lon="12.68669">
        <ele>626.475895</ele>
        <time>2022-09-12T21:53:30.436Z</time>
      </trkpt>
      <trkpt lat="47.87372" lon="12.68642">
        <ele>626.341061</ele>
        <time>2022-09-12T21:53:35.041Z</time>
      </trkpt>
      <trkpt lat="47.87329" lon="12.68399">
        <ele>627.147253</ele>
        <time>2022-09-12T21:54:28.977Z</time>
      </trkpt>
      <trkpt lat="47.87313" lon="12.68292">
        <ele>626.034106</ele>
        <time>2022-09-12T21:54:48.745Z</time>
      </trkpt>
      <trkpt lat="47.87309" lon="12.68259">
        <ele>625.66574</ele>
        <time>2022-09-12T21:54:53.546Z</time>
      </trkpt>
      <trkpt lat="47.87327" lon="12.68216">
        <ele>625.09853</ele>
        <time>2022-09-12T21:55:00.857Z</time>
      </trkpt>
      <trkpt lat="47.87356" lon="12.68078">
        <ele>622.835586</ele>
        <time>2022-09-12T21:55:21.000Z</time>
      </trkpt>
      <trkpt lat="47.87367" lon="12.68055">
        <ele>622.242226</ele>
        <time>2022-09-12T21:55:24.405Z</time>
      </trkpt>
      <trkpt lat="47.87382" lon="12.68039">
        <ele>621.647231</ele>
        <time>2022-09-12T21:55:28.074Z</time>
      </trkpt>
      <trkpt lat="47.87438" lon="12.68001">
        <ele>619.674767</ele>
        <time>2022-09-12T21:55:39.921Z</time>
      </trkpt>
      <trkpt lat="47.87496" lon="12.67927">
        <ele>617.677023</ele>
        <time>2022-09-12T21:55:54.962Z</time>
      </trkpt>
      <trkpt lat="47.87509" lon="12.67917">
        <ele>617.374756</ele>
        <time>2022-09-12T21:55:57.985Z</time>
      </trkpt>
      <trkpt lat="47.87554" lon="12.67894">
        <ele>616.404708</ele>
        <time>2022-09-12T21:56:08.417Z</time>
      </trkpt>
      <trkpt lat="47.87589" lon="12.67833">
        <ele>615.302229</ele>
        <time>2022-09-12T21:56:20.029Z</time>
      </trkpt>
      <trkpt lat="47.87598" lon="12.67807">
        <ele>614.913118</ele>
        <time>2022-09-12T21:56:24.167Z</time>
      </trkpt>
      <trkpt lat="47.87594" lon="12.67516">
        <ele>612.673927</ele>
        <time>2022-09-12T21:57:07.662Z</time>
      </trkpt>
      <trkpt lat="47.87587" lon="12.67339">
        <ele>614.203055</ele>
        <time>2022-09-12T21:57:42.656Z</time>
      </trkpt>
      <trkpt lat="47.87596" lon="12.67332">
        <ele>614.326266</ele>
        <time>2022-09-12T21:57:46.521Z</time>
      </trkpt>
      <trkpt lat="47.8761" lon="12.67332">
        <ele>614.504577</ele>
        <time>2022-09-12T21:57:51.728Z</time>
      </trkpt>
      <trkpt lat="47.8767" lon="12.67312">
        <ele>616.418156</ele>
        <time>2022-09-12T21:58:20.574Z</time>
      </trkpt>
      <trkpt lat="47.87678" lon="12.67308">
        <ele>616.776416</ele>
        <time>2022-09-12T21:58:23.987Z</time>
      </trkpt>
      <trkpt lat="47.87678" lon="12.67301">
        <ele>617.008152</ele>
        <time>2022-09-12T21:58:26.285Z</time>
      </trkpt>
      <trkpt lat="47.87689" lon="12.6716">
        <ele>621.477914</ele>
        <time>2022-09-12T21:59:15.383Z</time>
      </trkpt>
      <trkpt lat="47.87693" lon="12.67034">
        <ele>624.337046</ele>
        <time>2022-09-12T22:00:00.137Z</time>
      </trkpt>
      <trkpt lat="47.877" lon="12.66818">
        <ele>626.803253</ele>
        <time>2022-09-12T22:00:50.461Z</time>
      </trkpt>
      <trkpt lat="47.87705" lon="12.66745">
        <ele>624.616024</ele>
        <time>2022-09-12T22:00:59.935Z</time>
      </trkpt>
      <trkpt lat="47.87709" lon="12.66676">
        <ele>622.555031</ele>
        <time>2022-09-12T22:01:08.315Z</time>
      </trkpt>
      <trkpt lat="47.87712" lon="12.66638">
        <ele>621.440021</ele>
        <time>2022-09-12T22:01:12.708Z</time>
      </trkpt>
      <trkpt lat="47.87654" lon="12.66564">
        <ele>618.029091</ele>
        <time>2022-09-12T22:01:26.073Z</time>
      </trkpt>
      <trkpt lat="47.87641" lon="12.66519">
        <ele>616.595909</ele>
        <time>2022-09-12T22:01:31.656Z</time>
      </trkpt>
      <trkpt lat="47.87644" lon="12.66481">
        <ele>615.470905</ele>
        <time>2022-09-12T22:01:36.135Z</time>
      </trkpt>
      <trkpt lat="47.87647" lon="12.66471">
        <ele>615.162509</ele>
        <time>2022-09-12T22:01:37.378Z</time>
      </trkpt>
      <trkpt lat="47.87653" lon="12.66476">
        <ele>614.881499</ele>
        <time>2022-09-12T22:01:38.527Z</time>
      </trkpt>
      <trkpt lat="47.87677" lon="12.66455">
        <ele>613.647443</ele>
        <time>2022-09-12T22:01:43.795Z</time>
      </trkpt>
      <trkpt lat="47.87678" lon="12.66434">
        <ele>613.04253</ele>
        <time>2022-09-12T22:01:46.482Z</time>
      </trkpt>
      <trkpt lat="47.87668" lon="12.6639">
        <ele>611.654995</ele>
        <time>2022-09-12T22:01:53.215Z</time>
      </trkpt>
      <trkpt lat="47.87682" lon="12.6624">
        <ele>612.765528</ele>
        <time>2022-09-12T22:02:25.656Z</time>
      </trkpt>
      <trkpt lat="47.87692" lon="12.66189">
        <ele>613.28514</ele>
        <time>2022-09-12T22:02:39.948Z</time>
      </trkpt>
      <trkpt lat="47.87695" lon="12.66144">
        <ele>613.728724</ele>
        <time>2022-09-12T22:02:52.890Z</time>
      </trkpt>
      <trkpt lat="47.87684" lon="12.6605">
        <ele>614.191718</ele>
        <time>2022-09-12T22:03:17.453Z</time>
      </trkpt>
      <trkpt lat="47.87678" lon="12.65978">
        <ele>614.40481</ele>
        <time>2022-09-12T22:03:33.072Z</time>
      </trkpt>
      <trkpt lat="47.87677" lon="12.65951">
        <ele>614.481112</ele>
        <time>2022-09-12T22:03:37.592Z</time>
      </trkpt>
      <trkpt lat="47.87675" lon="12.65931">
        <ele>614.540279</ele>
        <time>2022-09-12T22:03:41.020Z</time>
      </trkpt>
      <trkpt lat="47.87678" lon="12.65814">
        <ele>614.052096</ele>
        <time>2022-09-12T22:03:58.754Z</time>
      </trkpt>
      <trkpt lat="47.87689" lon="12.6574">
        <ele>612.527911</ele>
        <time>2022-09-12T22:04:08.918Z</time>
      </trkpt>
      <trkpt lat="47.87739" lon="12.656">
        <ele>609.357093</ele>
        <time>2022-09-12T22:04:29.182Z</time>
      </trkpt>
      <trkpt lat="47.87741" lon="12.65571">
        <ele>608.563965</ele>
        <time>2022-09-12T22:04:32.927Z</time>
      </trkpt>
      <trkpt lat="47.87721" lon="12.65534">
        <ele>607.25077</ele>
        <time>2022-09-12T22:04:39.061Z</time>
      </trkpt>
      <trkpt lat="47.8769" lon="12.65501">
        <ele>605.698726</ele>
        <time>2022-09-12T22:04:46.181Z</time>
      </trkpt>
      <trkpt lat="47.87607" lon="12.65493">
        <ele>602.31735</ele>
        <time>2022-09-12T22:05:01.783Z</time>
      </trkpt>
      <trkpt lat="47.876" lon="12.65492">
        <ele>602.035636</ele>
        <time>2022-09-12T22:05:03.007Z</time>
      </trkpt>
      <trkpt lat="47.87536" lon="12.6547">
        <ele>598.25082</ele>
        <time>2022-09-12T22:05:15.006Z</time>
      </trkpt>
      <trkpt lat="47.875" lon="12.6549">
        <ele>596.066789</ele>
        <time>2022-09-12T22:05:21.701Z</time>
      </trkpt>
      <trkpt lat="47.87498" lon="12.6549">
        <ele>595.964211</ele>
        <time>2022-09-12T22:05:22.023Z</time>
      </trkpt>
      <trkpt lat="47.87483" lon="12.65489">
        <ele>595.108848</ele>
        <time>2022-09-12T22:05:24.690Z</time>
      </trkpt>
      <trkpt lat="47.87479" lon="12.65489">
        <ele>594.880769</ele>
        <time>2022-09-12T22:05:25.385Z</time>
      </trkpt>
      <trkpt lat="47.87477" lon="12.65486">
        <ele>594.723128</ele>
        <time>2022-09-12T22:05:25.867Z</time>
      </trkpt>
      <trkpt lat="47.87474" lon="12.65471">
        <ele>594.124811</ele>
        <time>2022-09-12T22:05:27.630Z</time>
      </trkpt>
      <trkpt lat="47.87473" lon="12.65429">
        <ele>592.518148</ele>
        <time>2022-09-12T22:05:32.501Z</time>
      </trkpt>
      <trkpt lat="47.87453" lon="12.65393">
        <ele>590.874226</ele>
        <time>2022-09-12T22:05:38.022Z</time>
      </trkpt>
      <trkpt lat="47.87432" lon="12.65373">
        <ele>589.685387</ele>
        <time>2022-09-12T22:05:42.309Z</time>
      </trkpt>
      <trkpt lat="47.87409" lon="12.65357">
        <ele>588.387346</ele>
        <time>2022-09-12T22:05:47.016Z</time>
      </trkpt>
      <trkpt lat="47.87403" lon="12.6534">
        <ele>587.763188</ele>
        <time>2022-09-12T22:05:49.336Z</time>
      </trkpt>
      <trkpt lat="47.87408" lon="12.65261">
        <ele>585.149372</ele>
        <time>2022-09-12T22:05:58.728Z</time>
      </trkpt>
      <trkpt lat="47.87414" lon="12.64986">
        <ele>579.173638</ele>
        <time>2022-09-12T22:06:35.392Z</time>
      </trkpt>
      <trkpt lat="47.87407" lon="12.64915">
        <ele>578.036755</ele>
        <time>2022-09-12T22:06:45.703Z</time>
      </trkpt>
      <trkpt lat="47.87397" lon="12.64865">
        <ele>577.773183</ele>
        <time>2022-09-12T22:06:53.348Z</time>
      </trkpt>
      <trkpt lat="47.87386" lon="12.64814">
        <ele>577.499759</ele>
        <time>2022-09-12T22:07:01.633Z</time>
      </trkpt>
      <trkpt lat="47.87383" lon="12.64802">
        <ele>577.435724</ele>
        <time>2022-09-12T22:07:03.656Z</time>
      </trkpt>
      <trkpt lat="47.87381" lon="12.64786">
        <ele>577.353296</ele>
        <time>2022-09-12T22:07:06.243Z</time>
      </trkpt>
      <trkpt lat="47.87377" lon="12.64763">
        <ele>577.235732</ele>
        <time>2022-09-12T22:07:09.945Z</time>
      </trkpt>
      <trkpt lat="47.87408" lon="12.64689">
        <ele>576.791225</ele>
        <time>2022-09-12T22:07:24.913Z</time>
      </trkpt>
      <trkpt lat="47.87423" lon="12.64646">
        <ele>577.068631</ele>
        <time>2022-09-12T22:07:34.657Z</time>
      </trkpt>
      <trkpt lat="47.87424" lon="12.64546">
        <ele>577.904875</ele>
        <time>2022-09-12T22:07:57.953Z</time>
      </trkpt>
      <trkpt lat="47.87431" lon="12.64514">
        <ele>578.181188</ele>
        <time>2022-09-12T22:08:06.551Z</time>
      </trkpt>
      <trkpt lat="47.87443" lon="12.64487">
        <ele>578.450802</ele>
        <time>2022-09-12T22:08:14.179Z</time>
      </trkpt>
      <trkpt lat="47.87463" lon="12.64472">
        <ele>578.730159</ele>
        <time>2022-09-12T22:08:22.466Z</time>
      </trkpt>
      <trkpt lat="47.87461" lon="12.64464">
        <ele>578.809034</ele>
        <time>2022-09-12T22:08:24.861Z</time>
      </trkpt>
      <trkpt lat="47.8744" lon="12.64395">
        <ele>579.162942</ele>
        <time>2022-09-12T22:08:40.046Z</time>
      </trkpt>
      <trkpt lat="47.87455" lon="12.64386">
        <ele>579.244297</ele>
        <time>2022-09-12T22:08:44.833Z</time>
      </trkpt>
      <trkpt lat="47.87462" lon="12.6437">
        <ele>579.311944</ele>
        <time>2022-09-12T22:08:49.130Z</time>
      </trkpt>
      <trkpt lat="47.8746" lon="12.64351">
        <ele>579.377128</ele>
        <time>2022-09-12T22:08:53.916Z</time>
      </trkpt>
      <trkpt lat="47.87534" lon="12.64277">
        <ele>579.835409</ele>
        <time>2022-09-12T22:09:20.753Z</time>
      </trkpt>
      <trkpt lat="47.87583" lon="12.64217">
        <ele>580.712769</ele>
        <time>2022-09-12T22:09:42.663Z</time>
      </trkpt>
      <trkpt lat="47.87665" lon="12.641">
        <ele>582.50523</ele>
        <time>2022-09-12T22:10:27.458Z</time>
      </trkpt>
      <trkpt lat="47.87685" lon="12.6407">
        <ele>582.733955</ele>
        <time>2022-09-12T22:10:38.943Z</time>
      </trkpt>
      <trkpt lat="47.87698" lon="12.64061">
        <ele>582.732159</ele>
        <time>2022-09-12T22:10:44.814Z</time>
      </trkpt>
      <trkpt lat="47.8771" lon="12.64057">
        <ele>582.730673</ele>
        <time>2022-09-12T22:10:49.592Z</time>
      </trkpt>
      <trkpt lat="47.87832" lon="12.64007">
        <ele>582.715212</ele>
        <time>2022-09-12T22:11:26.832Z</time>
      </trkpt>
      <trkpt lat="47.87967" lon="12.64001">
        <ele>580.908629</ele>
        <time>2022-09-12T22:11:56.461Z</time>
      </trkpt>
      <trkpt lat="47.88066" lon="12.63997">
        <ele>581.961533</ele>
        <time>2022-09-12T22:12:35.708Z</time>
      </trkpt>
      <trkpt lat="47.88085" lon="12.64005">
        <ele>582.872723</ele>
        <time>2022-09-12T22:12:46.974Z</time>
      </trkpt>
      <trkpt lat="47.88086" lon="12.63907">
        <ele>585.925192</ele>
        <time>2022-09-12T22:13:21.365Z</time>
      </trkpt>
      <trkpt lat="47.88098" lon="12.6379">
        <ele>589.84278</ele>
        <time>2022-09-12T22:14:10.359Z</time>
      </trkpt>
      <trkpt lat="47.8809" lon="12.63712">
        <ele>592.807077</ele>
        <time>2022-09-12T22:14:43.689Z</time>
      </trkpt>
      <trkpt lat="47.88071" lon="12.63616">
        <ele>596.534228</ele>
        <time>2022-09-12T22:15:19.210Z</time>
      </trkpt>
      <trkpt lat="47.88104" lon="12.6359">
        <ele>598.469087</ele>
        <time>2022-09-12T22:15:34.322Z</time>
      </trkpt>
      <trkpt lat="47.88184" lon="12.63537">
        <ele>599.887169</ele>
        <time>2022-09-12T22:16:04.821Z</time>
      </trkpt>
      <trkpt lat="47.88222" lon="12.63509">
        <ele>600.574399</ele>
        <time>2022-09-12T22:16:18.232Z</time>
      </trkpt>
      <trkpt lat="47.88329" lon="12.63401">
        <ele>602.153374</ele>
        <time>2022-09-12T22:16:58.439Z</time>
      </trkpt>
      <trkpt lat="47.88327" lon="12.63388">
        <ele>602.246534</ele>
        <time>2022-09-12T22:17:01.237Z</time>
      </trkpt>
      <trkpt lat="47.88369" lon="12.63344">
        <ele>602.758911</ele>
        <time>2022-09-12T22:17:17.807Z</time>
      </trkpt>
      <trkpt lat="47.88357" lon="12.63296">
        <ele>603.1011</ele>
        <time>2022-09-12T22:17:29.158Z</time>
      </trkpt>
      <trkpt lat="47.88356" lon="12.63287">
        <ele>603.17071</ele>
        <time>2022-09-12T22:17:31.077Z</time>
      </trkpt>
      <trkpt lat="47.88354" lon="12.63254">
        <ele>603.47049</ele>
        <time>2022-09-12T22:17:38.630Z</time>
      </trkpt>
      <trkpt lat="47.88353" lon="12.63223">
        <ele>603.760026</ele>
        <time>2022-09-12T22:17:46.089Z</time>
      </trkpt>
      <trkpt lat="47.88349" lon="12.63164">
        <ele>604.29741</ele>
        <time>2022-09-12T22:18:00.153Z</time>
      </trkpt>
      <trkpt lat="47.88345" lon="12.63107">
        <ele>604.813908</ele>
        <time>2022-09-12T22:18:13.291Z</time>
      </trkpt>
      <trkpt lat="47.88342" lon="12.63059">
        <ele>605.249577</ele>
        <time>2022-09-12T22:18:24.180Z</time>
      </trkpt>
      <trkpt lat="47.88348" lon="12.63016">
        <ele>605.685466</ele>
        <time>2022-09-12T22:18:34.369Z</time>
      </trkpt>
      <trkpt lat="47.88371" lon="12.62942">
        <ele>606.727397</ele>
        <time>2022-09-12T22:18:53.247Z</time>
      </trkpt>
      <trkpt lat="47.8839" lon="12.62881">
        <ele>607.595279</ele>
        <time>2022-09-12T22:19:08.193Z</time>
      </trkpt>
      <trkpt lat="47.88429" lon="12.62763">
        <ele>609.501809</ele>
        <time>2022-09-12T22:19:42.086Z</time>
      </trkpt>
      <trkpt lat="47.88435" lon="12.62745">
        <ele>609.991094</ele>
        <time>2022-09-12T22:19:49.290Z</time>
      </trkpt>
      <trkpt lat="47.8844" lon="12.62728">
        <ele>610.436739</ele>
        <time>2022-09-12T22:19:55.860Z</time>
      </trkpt>
      <trkpt lat="47.88449" lon="12.62702">
        <ele>611.115201</ele>
        <time>2022-09-12T22:20:05.496Z</time>
      </trkpt>
      <trkpt lat="47.88462" lon="12.62662">
        <ele>612.16048</ele>
        <time>2022-09-12T22:20:21.509Z</time>
      </trkpt>
      <trkpt lat="47.88479" lon="12.62611">
        <ele>613.493751</ele>
        <time>2022-09-12T22:20:40.148Z</time>
      </trkpt>
      <trkpt lat="47.88501" lon="12.62543">
        <ele>615.289179</ele>
        <time>2022-09-12T22:21:01.523Z</time>
      </trkpt>
      <trkpt lat="47.88522" lon="12.62479">
        <ele>614.747269</ele>
        <time>2022-09-12T22:21:16.650Z</time>
      </trkpt>
      <trkpt lat="47.88527" lon="12.62463">
        <ele>614.605663</ele>
        <time>2022-09-12T22:21:20.660Z</time>
      </trkpt>
      <trkpt lat="47.88568" lon="12.62291">
        <ele>613.154221</ele>
        <time>2022-09-12T22:21:47.463Z</time>
      </trkpt>
      <trkpt lat="47.88576" lon="12.62267">
        <ele>612.57331</ele>
        <time>2022-09-12T22:21:50.945Z</time>
      </trkpt>
      <trkpt lat="47.88593" lon="12.6223">
        <ele>611.610173</ele>
        <time>2022-09-12T22:21:56.517Z</time>
      </trkpt>
      <trkpt lat="47.886" lon="12.62216">
        <ele>611.22155</ele>
        <time>2022-09-12T22:21:58.794Z</time>
      </trkpt>
      <trkpt lat="47.88628" lon="12.62168">
        <ele>609.848258</ele>
        <time>2022-09-12T22:22:07.124Z</time>
      </trkpt>
      <trkpt lat="47.88633" lon="12.62159">
        <ele>609.601632</ele>
        <time>2022-09-12T22:22:08.672Z</time>
      </trkpt>
      <trkpt lat="47.88636" lon="12.62151">
        <ele>609.411527</ele>
        <time>2022-09-12T22:22:09.912Z</time>
      </trkpt>
      <trkpt lat="47.88634" lon="12.62148">
        <ele>609.290486</ele>
        <time>2022-09-12T22:22:10.651Z</time>
      </trkpt>
      <trkpt lat="47.88664" lon="12.62067">
        <ele>607.383375</ele>
        <time>2022-09-12T22:22:23.805Z</time>
      </trkpt>
      <trkpt lat="47.88695" lon="12.61961">
        <ele>606.526506</ele>
        <time>2022-09-12T22:22:41.795Z</time>
      </trkpt>
      <trkpt lat="47.88709" lon="12.6188">
        <ele>605.902973</ele>
        <time>2022-09-12T22:22:55.085Z</time>
      </trkpt>
      <trkpt lat="47.88729" lon="12.61729">
        <ele>604.630657</ele>
        <time>2022-09-12T22:23:18.990Z</time>
      </trkpt>
      <trkpt lat="47.88743" lon="12.61658">
        <ele>603.980932</ele>
        <time>2022-09-12T22:23:30.135Z</time>
      </trkpt>
      <trkpt lat="47.88763" lon="12.61601">
        <ele>603.412431</ele>
        <time>2022-09-12T22:23:39.652Z</time>
      </trkpt>
      <trkpt lat="47.8878" lon="12.61557">
        <ele>602.916018</ele>
        <time>2022-09-12T22:23:47.112Z</time>
      </trkpt>
      <trkpt lat="47.88803" lon="12.6152">
        <ele>602.26221</ele>
        <time>2022-09-12T22:23:54.409Z</time>
      </trkpt>
      <trkpt lat="47.8889" lon="12.61416">
        <ele>600.144351</ele>
        <time>2022-09-12T22:24:17.601Z</time>
      </trkpt>
      <trkpt lat="47.88861" lon="12.61339">
        <ele>599.451919</ele>
        <time>2022-09-12T22:24:30.543Z</time>
      </trkpt>
      <trkpt lat="47.8882" lon="12.61198">
        <ele>598.844005</ele>
        <time>2022-09-12T22:24:56.518Z</time>
      </trkpt>
      <trkpt lat="47.88798" lon="12.61127">
        <ele>598.578732</ele>
        <time>2022-09-12T22:25:09.982Z</time>
      </trkpt>
      <trkpt lat="47.88795" lon="12.61116">
        <ele>598.570015</ele>
        <time>2022-09-12T22:25:12.401Z</time>
      </trkpt>
      <trkpt lat="47.88789" lon="12.61064">
        <ele>598.530645</ele>
        <time>2022-09-12T22:25:22.466Z</time>
      </trkpt>
      <trkpt lat="47.88798" lon="12.61008">
        <ele>598.488356</ele>
        <time>2022-09-12T22:25:33.302Z</time>
      </trkpt>
      <trkpt lat="47.88804" lon="12.60969">
        <ele>598.458026</ele>
        <time>2022-09-12T22:25:40.772Z</time>
      </trkpt>
      <trkpt lat="47.88815" lon="12.60955">
        <ele>598.442629</ele>
        <time>2022-09-12T22:25:44.796Z</time>
      </trkpt>
      <trkpt lat="47.88852" lon="12.60906">
        <ele>598.382247</ele>
        <time>2022-09-12T22:25:58.201Z</time>
      </trkpt>
      <trkpt lat="47.88888" lon="12.60859">
        <ele>598.214723</ele>
        <time>2022-09-12T22:26:10.105Z</time>
      </trkpt>
      <trkpt lat="47.88929" lon="12.60805">
        <ele>598.023423</ele>
        <time>2022-09-12T22:26:23.645Z</time>
      </trkpt>
      <trkpt lat="47.88943" lon="12.60787">
        <ele>597.958976</ele>
        <time>2022-09-12T22:26:28.562Z</time>
      </trkpt>
      <trkpt lat="47.88961" lon="12.60761">
        <ele>597.872345</ele>
        <time>2022-09-12T22:26:35.368Z</time>
      </trkpt>
      <trkpt lat="47.88983" lon="12.60693">
        <ele>597.840578</ele>
        <time>2022-09-12T22:26:49.422Z</time>
      </trkpt>
      <trkpt lat="47.88987" lon="12.60648">
        <ele>597.976477</ele>
        <time>2022-09-12T22:26:58.285Z</time>
      </trkpt>
      <trkpt lat="47.88977" lon="12.60519">
        <ele>598.369151</ele>
        <time>2022-09-12T22:27:24.764Z</time>
      </trkpt>
      <trkpt lat="47.88989" lon="12.60423">
        <ele>598.619008</ele>
        <time>2022-09-12T22:27:45.529Z</time>
      </trkpt>
      <trkpt lat="47.89026" lon="12.60279">
        <ele>598.870321</ele>
        <time>2022-09-12T22:28:18.455Z</time>
      </trkpt>
      <trkpt lat="47.89057" lon="12.60189">
        <ele>598.399415</ele>
        <time>2022-09-12T22:28:35.922Z</time>
      </trkpt>
      <trkpt lat="47.89023" lon="12.60172">
        <ele>596.733881</ele>
        <time>2022-09-12T22:28:44.089Z</time>
      </trkpt>
      <trkpt lat="47.88987" lon="12.6017">
        <ele>595.087445</ele>
        <time>2022-09-12T22:28:51.400Z</time>
      </trkpt>
      <trkpt lat="47.88979" lon="12.60165">
        <ele>594.677082</ele>
        <time>2022-09-12T22:28:53.090Z</time>
      </trkpt>
      <trkpt lat="47.88947" lon="12.59985">
        <ele>587.71469</ele>
        <time>2022-09-12T22:29:15.407Z</time>
      </trkpt>
      <trkpt lat="47.88936" lon="12.59942">
        <ele>585.282902</ele>
        <time>2022-09-12T22:29:20.832Z</time>
      </trkpt>
      <trkpt lat="47.88914" lon="12.599">
        <ele>582.536144</ele>
        <time>2022-09-12T22:29:26.945Z</time>
      </trkpt>
      <trkpt lat="47.88905" lon="12.59848">
        <ele>579.726355</ele>
        <time>2022-09-12T22:29:33.239Z</time>
      </trkpt>
      <trkpt lat="47.88938" lon="12.59688">
        <ele>573.3249</ele>
        <time>2022-09-12T22:29:53.590Z</time>
      </trkpt>
      <trkpt lat="47.8894" lon="12.59627">
        <ele>571.412888</ele>
        <time>2022-09-12T22:30:01.607Z</time>
      </trkpt>
      <trkpt lat="47.88936" lon="12.596">
        <ele>570.56297</ele>
        <time>2022-09-12T22:30:05.422Z</time>
      </trkpt>
      <trkpt lat="47.88923" lon="12.59551">
        <ele>568.949236</ele>
        <time>2022-09-12T22:30:12.854Z</time>
      </trkpt>
      <trkpt lat="47.88912" lon="12.59531">
        <ele>568.415001</ele>
        <time>2022-09-12T22:30:16.808Z</time>
      </trkpt>
      <trkpt lat="47.88848" lon="12.59444">
        <ele>568.500358</ele>
        <time>2022-09-12T22:30:37.782Z</time>
      </trkpt>
      <trkpt lat="47.88796" lon="12.59394">
        <ele>568.561461</ele>
        <time>2022-09-12T22:30:56.585Z</time>
      </trkpt>
      <trkpt lat="47.88786" lon="12.59385">
        <ele>568.572955</ele>
        <time>2022-09-12T22:31:00.547Z</time>
      </trkpt>
      <trkpt lat="47.88781" lon="12.59376">
        <ele>568.580489</ele>
        <time>2022-09-12T22:31:03.476Z</time>
      </trkpt>
      <trkpt lat="47.88776" lon="12.59326">
        <ele>569.315282</ele>
        <time>2022-09-12T22:31:19.528Z</time>
      </trkpt>
      <trkpt lat="47.88774" lon="12.59242">
        <ele>570.780944</ele>
        <time>2022-09-12T22:31:46.851Z</time>
      </trkpt>
      <trkpt lat="47.88767" lon="12.59229">
        <ele>571.059332</ele>
        <time>2022-09-12T22:31:52.596Z</time>
      </trkpt>
      <trkpt lat="47.88742" lon="12.59216">
        <ele>571.768527</ele>
        <time>2022-09-12T22:32:04.017Z</time>
      </trkpt>
      <trkpt lat="47.88723" lon="12.59192">
        <ele>572.413604</ele>
        <time>2022-09-12T22:32:12.837Z</time>
      </trkpt>
      <trkpt lat="47.88705" lon="12.59184">
        <ele>572.901386</ele>
        <time>2022-09-12T22:32:21.321Z</time>
      </trkpt>
      <trkpt lat="47.88713" lon="12.59131">
        <ele>572.605111</ele>
        <time>2022-09-12T22:32:32.582Z</time>
      </trkpt>
      <trkpt lat="47.88717" lon="12.58898">
        <ele>568.150813</ele>
        <time>2022-09-12T22:33:02.705Z</time>
      </trkpt>
      <trkpt lat="47.8873" lon="12.58737">
        <ele>563.007184</ele>
        <time>2022-09-12T22:33:21.685Z</time>
      </trkpt>
      <trkpt lat="47.88728" lon="12.58668">
        <ele>560.841659</ele>
        <time>2022-09-12T22:33:30.268Z</time>
      </trkpt>
      <trkpt lat="47.88718" lon="12.58614">
        <ele>559.4391</ele>
        <time>2022-09-12T22:33:37.691Z</time>
      </trkpt>
      <trkpt lat="47.88698" lon="12.58558">
        <ele>558.809</ele>
        <time>2022-09-12T22:33:46.914Z</time>
      </trkpt>
      <trkpt lat="47.88679" lon="12.58524">
        <ele>558.37567</ele>
        <time>2022-09-12T22:33:53.688Z</time>
      </trkpt>
      <trkpt lat="47.88595" lon="12.58421">
        <ele>556.677253</ele>
        <time>2022-09-12T22:34:20.304Z</time>
      </trkpt>
      <trkpt lat="47.88402" lon="12.58207">
        <ele>551.777258</ele>
        <time>2022-09-12T22:35:09.432Z</time>
      </trkpt>
      <trkpt lat="47.88431" lon="12.58154">
        <ele>550.959483</ele>
        <time>2022-09-12T22:35:18.998Z</time>
      </trkpt>
      <trkpt lat="47.88483" lon="12.58061">
        <ele>549.820934</ele>
        <time>2022-09-12T22:35:37.469Z</time>
      </trkpt>
      <trkpt lat="47.88627" lon="12.57773">
        <ele>549.729652</ele>
        <time>2022-09-12T22:36:42.988Z</time>
      </trkpt>
      <trkpt lat="47.88641" lon="12.57745">
        <ele>549.767146</ele>
        <time>2022-09-12T22:36:50.058Z</time>
      </trkpt>
      <trkpt lat="47.88659" lon="12.57706">
        <ele>549.817327</ele>
        <time>2022-09-12T22:36:59.111Z</time>
      </trkpt>
      <trkpt lat="47.88686" lon="12.57648">
        <ele>549.860894</ele>
        <time>2022-09-12T22:37:11.919Z</time>
      </trkpt>
      <trkpt lat="47.88703" lon="12.57612">
        <ele>549.681039</ele>
        <time>2022-09-12T22:37:19.398Z</time>
      </trkpt>
      <trkpt lat="47.88707" lon="12.57604">
        <ele>549.639318</ele>
        <time>2022-09-12T22:37:21.064Z</time>
      </trkpt>
      <trkpt lat="47.88722" lon="12.57571">
        <ele>549.473811</ele>
        <time>2022-09-12T22:37:27.736Z</time>
      </trkpt>
      <trkpt lat="47.88725" lon="12.57565">
        <ele>549.44303</ele>
        <time>2022-09-12T22:37:28.959Z</time>
      </trkpt>
      <trkpt lat="47.88744" lon="12.57525">
        <ele>549.242801</ele>
        <time>2022-09-12T22:37:36.805Z</time>
      </trkpt>
      <trkpt lat="47.88773" lon="12.57469">
        <ele>548.952</ele>
        <time>2022-09-12T22:37:47.952Z</time>
      </trkpt>
      <trkpt lat="47.88807" lon="12.57401">
        <ele>548.531863</ele>
        <time>2022-09-12T22:38:01.199Z</time>
      </trkpt>
      <trkpt lat="47.88853" lon="12.57316">
        <ele>547.91352</ele>
        <time>2022-09-12T22:38:17.786Z</time>
      </trkpt>
      <trkpt lat="47.8888" lon="12.57268">
        <ele>547.557658</ele>
        <time>2022-09-12T22:38:27.838Z</time>
      </trkpt>
      <trkpt lat="47.89046" lon="12.5697">
        <ele>546.301809</ele>
        <time>2022-09-12T22:39:32.416Z</time>
      </trkpt>
      <trkpt lat="47.89013" lon="12.56917">
        <ele>546.184918</ele>
        <time>2022-09-12T22:39:44.590Z</time>
      </trkpt>
      <trkpt lat="47.88961" lon="12.56815">
        <ele>545.976514</ele>
        <time>2022-09-12T22:40:06.886Z</time>
      </trkpt>
      <trkpt lat="47.88906" lon="12.56708">
        <ele>546.35068</ele>
        <time>2022-09-12T22:40:32.035Z</time>
      </trkpt>
      <trkpt lat="47.88903" lon="12.56702">
        <ele>546.373014</ele>
        <time>2022-09-12T22:40:33.562Z</time>
      </trkpt>
      <trkpt lat="47.88887" lon="12.56673">
        <ele>546.478871</ele>
        <time>2022-09-12T22:40:40.946Z</time>
      </trkpt>
      <trkpt lat="47.88876" lon="12.56653">
        <ele>546.549271</ele>
        <time>2022-09-12T22:40:45.832Z</time>
      </trkpt>
      <trkpt lat="47.88869" lon="12.5664">
        <ele>546.596131</ele>
        <time>2022-09-12T22:40:49.105Z</time>
      </trkpt>
      <trkpt lat="47.88856" lon="12.56608">
        <ele>546.701233</ele>
        <time>2022-09-12T22:40:56.498Z</time>
      </trkpt>
      <trkpt lat="47.88851" lon="12.56557">
        <ele>547.278708</ele>
        <time>2022-09-12T22:41:07.256Z</time>
      </trkpt>
      <trkpt lat="47.88861" lon="12.56525">
        <ele>547.735019</ele>
        <time>2022-09-12T22:41:15.238Z</time>
      </trkpt>
      <trkpt lat="47.88924" lon="12.56402">
        <ele>549.741084</ele>
        <time>2022-09-12T22:41:53.457Z</time>
      </trkpt>
      <trkpt lat="47.88946" lon="12.56354">
        <ele>550.511924</ele>
        <time>2022-09-12T22:42:09.608Z</time>
      </trkpt>
      <trkpt lat="47.89024" lon="12.56236">
        <ele>552.713514</ele>
        <time>2022-09-12T22:42:54.194Z</time>
      </trkpt>
      <trkpt lat="47.89053" lon="12.56173">
        <ele>553.727044</ele>
        <time>2022-09-12T22:43:09.598Z</time>
      </trkpt>
      <trkpt lat="47.89055" lon="12.5615">
        <ele>553.691069</ele>
        <time>2022-09-12T22:43:14.560Z</time>
      </trkpt>
      <trkpt lat="47.89066" lon="12.55971">
        <ele>552.77307</ele>
        <time>2022-09-12T22:43:43.202Z</time>
      </trkpt>
      <trkpt lat="47.89074" lon="12.55813">
        <ele>552.13355</ele>
        <time>2022-09-12T22:44:05.859Z</time>
      </trkpt>
      <trkpt lat="47.89074" lon="12.55633">
        <ele>551.560887</ele>
        <time>2022-09-12T22:44:39.309Z</time>
      </trkpt>
      <trkpt lat="47.89081" lon="12.55559">
        <ele>551.306285</ele>
        <time>2022-09-12T22:44:53.630Z</time>
      </trkpt>
      <trkpt lat="47.89093" lon="12.55448">
        <ele>550.927287</ele>
        <time>2022-09-12T22:45:12.123Z</time>
      </trkpt>
      <trkpt lat="47.89095" lon="12.55401">
        <ele>550.76654</ele>
        <time>2022-09-12T22:45:19.558Z</time>
      </trkpt>
      <trkpt lat="47.89095" lon="12.55263">
        <ele>548.98091</ele>
        <time>2022-09-12T22:45:39.928Z</time>
      </trkpt>
      <trkpt lat="47.89111" lon="12.55109">
        <ele>546.503654</ele>
        <time>2022-09-12T22:46:00.420Z</time>
      </trkpt>
      <trkpt lat="47.89112" lon="12.55041">
        <ele>545.33558</ele>
        <time>2022-09-12T22:46:09.467Z</time>
      </trkpt>
      <trkpt lat="47.89102" lon="12.54859">
        <ele>542.181513</ele>
        <time>2022-09-12T22:46:34.501Z</time>
      </trkpt>
      <trkpt lat="47.891" lon="12.54813">
        <ele>541.426072</ele>
        <time>2022-09-12T22:46:40.927Z</time>
      </trkpt>
      <trkpt lat="47.89097" lon="12.54791">
        <ele>541.07411</ele>
        <time>2022-09-12T22:46:44.111Z</time>
      </trkpt>
      <trkpt lat="47.8907" lon="12.5471">
        <ele>539.671365</ele>
        <time>2022-09-12T22:46:56.895Z</time>
      </trkpt>
      <trkpt lat="47.89062" lon="12.54702">
        <ele>539.442217</ele>
        <time>2022-09-12T22:46:58.941Z</time>
      </trkpt>
      <trkpt lat="47.89046" lon="12.54666">
        <ele>538.766934</ele>
        <time>2022-09-12T22:47:04.967Z</time>
      </trkpt>
      <trkpt lat="47.8905" lon="12.54577">
        <ele>537.287953</ele>
        <time>2022-09-12T22:47:17.193Z</time>
      </trkpt>
      <trkpt lat="47.89054" lon="12.54538">
        <ele>536.357982</ele>
        <time>2022-09-12T22:47:22.311Z</time>
      </trkpt>
      <trkpt lat="47.89089" lon="12.54455">
        <ele>534.096776</ele>
        <time>2022-09-12T22:47:34.872Z</time>
      </trkpt>
      <trkpt lat="47.89123" lon="12.54388">
        <ele>532.163672</ele>
        <time>2022-09-12T22:47:45.650Z</time>
      </trkpt>
      <trkpt lat="47.89125" lon="12.54363">
        <ele>531.578823</ele>
        <time>2022-09-12T22:47:48.745Z</time>
      </trkpt>
      <trkpt lat="47.89116" lon="12.54307">
        <ele>530.480893</ele>
        <time>2022-09-12T22:47:56.141Z</time>
      </trkpt>
      <trkpt lat="47.89112" lon="12.54172">
        <ele>528.045199</ele>
        <time>2022-09-12T22:48:14.182Z</time>
      </trkpt>
      <trkpt lat="47.89109" lon="12.5416">
        <ele>527.814721</ele>
        <time>2022-09-12T22:48:15.866Z</time>
      </trkpt>
      <trkpt lat="47.89119" lon="12.54128">
        <ele>527.181289</ele>
        <time>2022-09-12T22:48:20.821Z</time>
      </trkpt>
      <trkpt lat="47.89125" lon="12.54079">
        <ele>526.436681</ele>
        <time>2022-09-12T22:48:28.257Z</time>
      </trkpt>
      <trkpt lat="47.89128" lon="12.5398">
        <ele>525.941642</ele>
        <time>2022-09-12T22:48:43.313Z</time>
      </trkpt>
      <trkpt lat="47.89138" lon="12.53925">
        <ele>525.655593</ele>
        <time>2022-09-12T22:48:52.803Z</time>
      </trkpt>
      <trkpt lat="47.89154" lon="12.53898">
        <ele>525.473593</ele>
        <time>2022-09-12T22:48:58.968Z</time>
      </trkpt>
      <trkpt lat="47.89151" lon="12.53889">
        <ele>525.41674</ele>
        <time>2022-09-12T22:49:00.997Z</time>
      </trkpt>
      <trkpt lat="47.89137" lon="12.53848">
        <ele>525.18885</ele>
        <time>2022-09-12T22:49:09.006Z</time>
      </trkpt>
      <trkpt lat="47.89207" lon="12.5384">
        <ele>525.008023</ele>
        <time>2022-09-12T22:49:26.883Z</time>
      </trkpt>
      <trkpt lat="47.89216" lon="12.53833">
        <ele>524.986089</ele>
        <time>2022-09-12T22:49:29.367Z</time>
      </trkpt>
      <trkpt lat="47.89259" lon="12.53736">
        <ele>524.811715</ele>
        <time>2022-09-12T22:49:48.940Z</time>
      </trkpt>
      <trkpt lat="47.89293" lon="12.53639">
        <ele>524.985154</ele>
        <time>2022-09-12T22:50:08.829Z</time>
      </trkpt>
      <trkpt lat="47.89293" lon="12.53635">
        <ele>525.00103</ele>
        <time>2022-09-12T22:50:09.585Z</time>
      </trkpt>
      <trkpt lat="47.89297" lon="12.53627">
        <ele>525.035927</ele>
        <time>2022-09-12T22:50:11.329Z</time>
      </trkpt>
      <trkpt lat="47.89332" lon="12.53611">
        <ele>525.217318</ele>
        <time>2022-09-12T22:50:21.439Z</time>
      </trkpt>
      <trkpt lat="47.89412" lon="12.53556">
        <ele>525.668019</ele>
        <time>2022-09-12T22:50:48.909Z</time>
      </trkpt>
      <trkpt lat="47.89472" lon="12.53516">
        <ele>526.247767</ele>
        <time>2022-09-12T22:51:10.230Z</time>
      </trkpt>
      <trkpt lat="47.89513" lon="12.53496">
        <ele>526.632646</ele>
        <time>2022-09-12T22:51:24.337Z</time>
      </trkpt>
      <trkpt lat="47.89567" lon="12.53392">
        <ele>527.216122</ele>
        <time>2022-09-12T22:51:50.596Z</time>
      </trkpt>
      <trkpt lat="47.89607" lon="12.53322">
        <ele>527.111437</ele>
        <time>2022-09-12T22:52:06.460Z</time>
      </trkpt>
      <trkpt lat="47.89648" lon="12.53226">
        <ele>526.98257</ele>
        <time>2022-09-12T22:52:24.942Z</time>
      </trkpt>
      <trkpt lat="47.89715" lon="12.53134">
        <ele>526.8224</ele>
        <time>2022-09-12T22:52:48.787Z</time>
      </trkpt>
      <trkpt lat="47.89749" lon="12.53091">
        <ele>526.742194</ele>
        <time>2022-09-12T22:53:00.642Z</time>
      </trkpt>
      <trkpt lat="47.89786" lon="12.53056">
        <ele>526.664017</ele>
        <time>2022-09-12T22:53:12.104Z</time>
      </trkpt>
      <trkpt lat="47.89912" lon="12.52966">
        <ele>526.447928</ele>
        <time>2022-09-12T22:53:47.352Z</time>
      </trkpt>
      <trkpt lat="47.89928" lon="12.52942">
        <ele>526.413599</ele>
        <time>2022-09-12T22:53:53.432Z</time>
      </trkpt>
      <trkpt lat="47.89956" lon="12.52875">
        <ele>526.439262</ele>
        <time>2022-09-12T22:54:07.339Z</time>
      </trkpt>
      <trkpt lat="47.89987" lon="12.52814">
        <ele>526.839201</ele>
        <time>2022-09-12T22:54:22.348Z</time>
      </trkpt>
      <trkpt lat="47.90027" lon="12.52776">
        <ele>527.204593</ele>
        <time>2022-09-12T22:54:36.749Z</time>
      </trkpt>
      <trkpt lat="47.90203" lon="12.52665">
        <ele>528.753505</ele>
        <time>2022-09-12T22:55:39.014Z</time>
      </trkpt>
      <trkpt lat="47.90231" lon="12.52641">
        <ele>529.02435</ele>
        <time>2022-09-12T22:55:47.989Z</time>
      </trkpt>
      <trkpt lat="47.90244" lon="12.52626">
        <ele>529.163142</ele>
        <time>2022-09-12T22:55:52.709Z</time>
      </trkpt>
      <trkpt lat="47.90264" lon="12.52596">
        <ele>529.218984</ele>
        <time>2022-09-12T22:56:00.398Z</time>
      </trkpt>
      <trkpt lat="47.90311" lon="12.52486">
        <ele>529.124122</ele>
        <time>2022-09-12T22:56:23.200Z</time>
      </trkpt>
      <trkpt lat="47.90344" lon="12.52398">
        <ele>529.050458</ele>
        <time>2022-09-12T22:56:40.150Z</time>
      </trkpt>
      <trkpt lat="47.9037" lon="12.52318">
        <ele>528.757669</ele>
        <time>2022-09-12T22:56:55.852Z</time>
      </trkpt>
      <trkpt lat="47.90378" lon="12.52291">
        <ele>528.652141</ele>
        <time>2022-09-12T22:57:00.985Z</time>
      </trkpt>
      <trkpt lat="47.90417" lon="12.52168">
        <ele>528.170505</ele>
        <time>2022-09-12T22:57:23.539Z</time>
      </trkpt>
      <trkpt lat="47.90439" lon="12.52162">
        <ele>527.95571</ele>
        <time>2022-09-12T22:57:28.621Z</time>
      </trkpt>
      <trkpt lat="47.9045" lon="12.52165">
        <ele>527.769542</ele>
        <time>2022-09-12T22:57:31.067Z</time>
      </trkpt>
      <trkpt lat="47.90532" lon="12.52189">
        <ele>526.331076</ele>
        <time>2022-09-12T22:57:49.079Z</time>
      </trkpt>
      <trkpt lat="47.90551" lon="12.52115">
        <ele>525.416192</ele>
        <time>2022-09-12T22:58:00.116Z</time>
      </trkpt>
      <trkpt lat="47.90567" lon="12.52032">
        <ele>524.601555</ele>
        <time>2022-09-12T22:58:12.413Z</time>
      </trkpt>
      <trkpt lat="47.90569" lon="12.51997">
        <ele>524.320217</ele>
        <time>2022-09-12T22:58:17.446Z</time>
      </trkpt>
      <trkpt lat="47.90572" lon="12.51959">
        <ele>524.016052</ele>
        <time>2022-09-12T22:58:22.989Z</time>
      </trkpt>
      <trkpt lat="47.90589" lon="12.51872">
        <ele>523.291239</ele>
        <time>2022-09-12T22:58:37.034Z</time>
      </trkpt>
      <trkpt lat="47.90585" lon="12.51721">
        <ele>522.90603</ele>
        <time>2022-09-12T22:59:03.807Z</time>
      </trkpt>
      <trkpt lat="47.90607" lon="12.51628">
        <ele>522.959295</ele>
        <time>2022-09-12T22:59:21.954Z</time>
      </trkpt>
      <trkpt lat="47.9061" lon="12.51558">
        <ele>522.99745</ele>
        <time>2022-09-12T22:59:34.852Z</time>
      </trkpt>
      <trkpt lat="47.9061" lon="12.51556">
        <ele>522.99843</ele>
        <time>2022-09-12T22:59:35.504Z</time>
      </trkpt>
      <trkpt lat="47.90611" lon="12.51497">
        <ele>523.148186</ele>
        <time>2022-09-12T22:59:46.593Z</time>
      </trkpt>
      <trkpt lat="47.90635" lon="12.51411">
        <ele>523.385683</ele>
        <time>2022-09-12T23:00:04.186Z</time>
      </trkpt>
      <trkpt lat="47.90642" lon="12.51355">
        <ele>523.531942</ele>
        <time>2022-09-12T23:00:15.454Z</time>
      </trkpt>
      <trkpt lat="47.90599" lon="12.51217">
        <ele>523.773319</ele>
        <time>2022-09-12T23:00:44.598Z</time>
      </trkpt>
      <trkpt lat="47.90593" lon="12.51163">
        <ele>523.825751</ele>
        <time>2022-09-12T23:00:54.644Z</time>
      </trkpt>
      <trkpt lat="47.90602" lon="12.51102">
        <ele>523.886083</ele>
        <time>2022-09-12T23:01:06.228Z</time>
      </trkpt>
      <trkpt lat="47.90626" lon="12.51022">
        <ele>523.843395</ele>
        <time>2022-09-12T23:01:21.320Z</time>
      </trkpt>
      <trkpt lat="47.90689" lon="12.50942">
        <ele>523.408323</ele>
        <time>2022-09-12T23:01:41.569Z</time>
      </trkpt>
      <trkpt lat="47.90702" lon="12.50899">
        <ele>523.240935</ele>
        <time>2022-09-12T23:01:48.875Z</time>
      </trkpt>
      <trkpt lat="47.90701" lon="12.50837">
        <ele>523.023363</ele>
        <time>2022-09-12T23:01:58.849Z</time>
      </trkpt>
      <trkpt lat="47.907" lon="12.5083">
        <ele>522.996647</ele>
        <time>2022-09-12T23:02:00.132Z</time>
      </trkpt>
      <trkpt lat="47.90696" lon="12.5081">
        <ele>523.002614</ele>
        <time>2022-09-12T23:02:03.571Z</time>
      </trkpt>
      <trkpt lat="47.9069" lon="12.50786">
        <ele>523.014516</ele>
        <time>2022-09-12T23:02:08.039Z</time>
      </trkpt>
      <trkpt lat="47.90673" lon="12.50733">
        <ele>523.041093</ele>
        <time>2022-09-12T23:02:18.083Z</time>
      </trkpt>
      <trkpt lat="47.90674" lon="12.50712">
        <ele>523.050604</ele>
        <time>2022-09-12T23:02:21.719Z</time>
      </trkpt>
      <trkpt lat="47.90689" lon="12.50658">
        <ele>523.077128</ele>
        <time>2022-09-12T23:02:38.943Z</time>
      </trkpt>
      <trkpt lat="47.90772" lon="12.50368">
        <ele>524.769287</ele>
        <time>2022-09-12T23:04:21.696Z</time>
      </trkpt>
      <trkpt lat="47.90785" lon="12.50326">
        <ele>525.174596</ele>
        <time>2022-09-12T23:04:38.324Z</time>
      </trkpt>
      <trkpt lat="47.90808" lon="12.50296">
        <ele>525.878745</ele>
        <time>2022-09-12T23:04:54.430Z</time>
      </trkpt>
      <trkpt lat="47.90875" lon="12.50273">
        <ele>527.473016</ele>
        <time>2022-09-12T23:05:32.508Z</time>
      </trkpt>
      <trkpt lat="47.90883" lon="12.50263">
        <ele>527.73638</ele>
        <time>2022-09-12T23:05:39.502Z</time>
      </trkpt>
      <trkpt lat="47.90907" lon="12.50206">
        <ele>528.774777</ele>
        <time>2022-09-12T23:06:04.934Z</time>
      </trkpt>
      <trkpt lat="47.90935" lon="12.50173">
        <ele>529.625703</ele>
        <time>2022-09-12T23:06:25.240Z</time>
      </trkpt>
      <trkpt lat="47.90991" lon="12.50157">
        <ele>531.014357</ele>
        <time>2022-09-12T23:06:58.367Z</time>
      </trkpt>
      <trkpt lat="47.91046" lon="12.50154">
        <ele>532.3827</ele>
        <time>2022-09-12T23:07:30.100Z</time>
      </trkpt>
      <trkpt lat="47.91137" lon="12.50115">
        <ele>533.727837</ele>
        <time>2022-09-12T23:08:21.326Z</time>
      </trkpt>
      <trkpt lat="47.91194" lon="12.50066">
        <ele>533.891445</ele>
        <time>2022-09-12T23:08:52.851Z</time>
      </trkpt>
      <trkpt lat="47.91245" lon="12.50036">
        <ele>534.028678</ele>
        <time>2022-09-12T23:09:16.102Z</time>
      </trkpt>
      <trkpt lat="47.91357" lon="12.49928">
        <ele>530.781372</ele>
        <time>2022-09-12T23:10:04.747Z</time>
      </trkpt>
      <trkpt lat="47.91457" lon="12.49876">
        <ele>528.052892</ele>
        <time>2022-09-12T23:10:41.457Z</time>
      </trkpt>
      <trkpt lat="47.91534" lon="12.49829">
        <ele>526.144533</ele>
        <time>2022-09-12T23:11:11.655Z</time>
      </trkpt>
      <trkpt lat="47.9153" lon="12.49735">
        <ele>524.977504</ele>
        <time>2022-09-12T23:11:27.685Z</time>
      </trkpt>
      <trkpt lat="47.91577" lon="12.49698">
        <ele>525.239097</ele>
        <time>2022-09-12T23:11:43.400Z</time>
      </trkpt>
      <trkpt lat="47.91657" lon="12.4968">
        <ele>525.644169</ele>
        <time>2022-09-12T23:12:11.980Z</time>
      </trkpt>
      <trkpt lat="47.9176" lon="12.49623">
        <ele>526.12292</ele>
        <time>2022-09-12T23:12:50.357Z</time>
      </trkpt>
      <trkpt lat="47.91791" lon="12.4959">
        <ele>526.280616</ele>
        <time>2022-09-12T23:13:02.329Z</time>
      </trkpt>
      <trkpt lat="47.9196" lon="12.49541">
        <ele>526.375614</ele>
        <time>2022-09-12T23:13:50.619Z</time>
      </trkpt>
      <trkpt lat="47.9212" lon="12.49434">
        <ele>526.282035</ele>
        <time>2022-09-12T23:14:43.301Z</time>
      </trkpt>
      <trkpt lat="47.9222" lon="12.4939">
        <ele>526.330704</ele>
        <time>2022-09-12T23:15:14.185Z</time>
      </trkpt>
      <trkpt lat="47.92236" lon="12.49381">
        <ele>526.344604</ele>
        <time>2022-09-12T23:15:19.258Z</time>
      </trkpt>
      <trkpt lat="47.92344" lon="12.49338">
        <ele>526.432556</ele>
        <time>2022-09-12T23:15:53.294Z</time>
      </trkpt>
      <trkpt lat="47.92487" lon="12.49306">
        <ele>526.082049</ele>
        <time>2022-09-12T23:16:35.835Z</time>
      </trkpt>
      <trkpt lat="47.92624" lon="12.49293">
        <ele>525.138295</ele>
        <time>2022-09-12T23:17:12.353Z</time>
      </trkpt>
      <trkpt lat="47.9287" lon="12.49201">
        <ele>522.823202</ele>
        <time>2022-09-12T23:18:17.223Z</time>
      </trkpt>
      <trkpt lat="47.92924" lon="12.49167">
        <ele>522.600002</ele>
        <time>2022-09-12T23:18:34.900Z</time>
      </trkpt>
      <trkpt lat="47.92926" lon="12.49175">
        <ele>522.609358</ele>
        <time>2022-09-12T23:18:36.765Z</time>
      </trkpt>
      <trkpt lat="47.92931" lon="12.49193">
        <ele>522.628838</ele>
        <time>2022-09-12T23:18:40.583Z</time>
      </trkpt>
      <trkpt lat="47.9294" lon="12.49206">
        <ele>522.64719</ele>
        <time>2022-09-12T23:18:43.965Z</time>
      </trkpt>
      <trkpt lat="47.92951" lon="12.49205">
        <ele>522.664696</ele>
        <time>2022-09-12T23:18:47.400Z</time>
      </trkpt>
      <trkpt lat="47.92957" lon="12.49199">
        <ele>522.675189</ele>
        <time>2022-09-12T23:18:49.421Z</time>
      </trkpt>
      <trkpt lat="47.9296" lon="12.49195">
        <ele>522.681171</ele>
        <time>2022-09-12T23:18:50.660Z</time>
      </trkpt>
      <trkpt lat="47.9296" lon="12.49171">
        <ele>522.705218</ele>
        <time>2022-09-12T23:18:55.092Z</time>
      </trkpt>
      <trkpt lat="47.93054" lon="12.49059">
        <ele>522.613094</ele>
        <time>2022-09-12T23:19:28.866Z</time>
      </trkpt>
      <trkpt lat="47.93154" lon="12.48916">
        <ele>521.851366</ele>
        <time>2022-09-12T23:20:01.585Z</time>
      </trkpt>
      <trkpt lat="47.93178" lon="12.48869">
        <ele>521.693173</ele>
        <time>2022-09-12T23:20:10.628Z</time>
      </trkpt>
      <trkpt lat="47.93176" lon="12.48849">
        <ele>521.6404</ele>
        <time>2022-09-12T23:20:13.714Z</time>
      </trkpt>
      <trkpt lat="47.93229" lon="12.48732">
        <ele>521.270955</ele>
        <time>2022-09-12T23:20:37.250Z</time>
      </trkpt>
      <trkpt lat="47.93276" lon="12.48583">
        <ele>521.258546</ele>
        <time>2022-09-12T23:21:08.886Z</time>
      </trkpt>
      <trkpt lat="47.93294" lon="12.48528">
        <ele>521.32747</ele>
        <time>2022-09-12T23:21:20.674Z</time>
      </trkpt>
      <trkpt lat="47.93302" lon="12.48493">
        <ele>521.368354</ele>
        <time>2022-09-12T23:21:27.189Z</time>
      </trkpt>
      <trkpt lat="47.93324" lon="12.48356">
        <ele>521.032845</ele>
        <time>2022-09-12T23:21:51.465Z</time>
      </trkpt>
      <trkpt lat="47.93343" lon="12.48253">
        <ele>520.513632</ele>
        <time>2022-09-12T23:22:08.162Z</time>
      </trkpt>
      <trkpt lat="47.93354" lon="12.48195">
        <ele>520.21808</ele>
        <time>2022-09-12T23:22:17.458Z</time>
      </trkpt>
      <trkpt lat="47.93357" lon="12.48178">
        <ele>520.13385</ele>
        <time>2022-09-12T23:22:20.089Z</time>
      </trkpt>
      <trkpt lat="47.93366" lon="12.48124">
        <ele>520.038012</ele>
        <time>2022-09-12T23:22:28.811Z</time>
      </trkpt>
      <trkpt lat="47.93369" lon="12.481">
        <ele>519.999427</ele>
        <time>2022-09-12T23:22:32.535Z</time>
      </trkpt>
      <trkpt lat="47.93371" lon="12.48063">
        <ele>519.938722</ele>
        <time>2022-09-12T23:22:38.503Z</time>
      </trkpt>
      <trkpt lat="47.93372" lon="12.48021">
        <ele>519.868872</ele>
        <time>2022-09-12T23:22:45.595Z</time>
      </trkpt>
      <trkpt lat="47.93378" lon="12.48008">
        <ele>519.843939</ele>
        <time>2022-09-12T23:22:52.710Z</time>
      </trkpt>
      <trkpt lat="47.9338" lon="12.47865">
        <ele>519.923617</ele>
        <time>2022-09-12T23:23:59.377Z</time>
      </trkpt>
      <trkpt lat="47.93375" lon="12.47855">
        <ele>519.981936</ele>
        <time>2022-09-12T23:24:05.056Z</time>
      </trkpt>
      <trkpt lat="47.93375" lon="12.47853">
        <ele>519.994453</ele>
        <time>2022-09-12T23:24:05.604Z</time>
      </trkpt>
      <trkpt lat="47.93379" lon="12.47813">
        <ele>520.185517</ele>
        <time>2022-09-12T23:24:13.896Z</time>
      </trkpt>
      <trkpt lat="47.93382" lon="12.47807">
        <ele>520.22688</ele>
        <time>2022-09-12T23:24:15.793Z</time>
      </trkpt>
      <trkpt lat="47.93373" lon="12.47787">
        <ele>520.342378</ele>
        <time>2022-09-12T23:24:20.665Z</time>
      </trkpt>
      <trkpt lat="47.93365" lon="12.47748">
        <ele>520.539521</ele>
        <time>2022-09-12T23:24:29.345Z</time>
      </trkpt>
      <trkpt lat="47.93362" lon="12.47727">
        <ele>520.645353</ele>
        <time>2022-09-12T23:24:33.834Z</time>
      </trkpt>
      <trkpt lat="47.93355" lon="12.47703">
        <ele>520.770137</ele>
        <time>2022-09-12T23:24:39.221Z</time>
      </trkpt>
      <trkpt lat="47.93347" lon="12.47688">
        <ele>520.860268</ele>
        <time>2022-09-12T23:24:42.898Z</time>
      </trkpt>
      <trkpt lat="47.93318" lon="12.47645">
        <ele>520.929098</ele>
        <time>2022-09-12T23:24:55.253Z</time>
      </trkpt>
      <trkpt lat="47.93309" lon="12.47631">
        <ele>520.900571</ele>
        <time>2022-09-12T23:24:59.434Z</time>
      </trkpt>
      <trkpt lat="47.93298" lon="12.47594">
        <ele>520.843876</ele>
        <time>2022-09-12T23:25:06.840Z</time>
      </trkpt>
      <trkpt lat="47.93297" lon="12.47527">
        <ele>520.749019</ele>
        <time>2022-09-12T23:25:18.709Z</time>
      </trkpt>
      <trkpt lat="47.93302" lon="12.47506">
        <ele>520.71831</ele>
        <time>2022-09-12T23:25:22.147Z</time>
      </trkpt>
      <trkpt lat="47.93309" lon="12.4745">
        <ele>520.638016</ele>
        <time>2022-09-12T23:25:31.030Z</time>
      </trkpt>
      <trkpt lat="47.93311" lon="12.47378">
        <ele>520.388131</ele>
        <time>2022-09-12T23:25:42.323Z</time>
      </trkpt>
      <trkpt lat="47.93311" lon="12.47362">
        <ele>520.31319</ele>
        <time>2022-09-12T23:25:44.897Z</time>
      </trkpt>
      <trkpt lat="47.93313" lon="12.47331">
        <ele>520.172483</ele>
        <time>2022-09-12T23:25:49.684Z</time>
      </trkpt>
      <trkpt lat="47.93315" lon="12.47288">
        <ele>519.975483</ele>
        <time>2022-09-12T23:25:56.400Z</time>
      </trkpt>
      <trkpt lat="47.93319" lon="12.47224">
        <ele>519.678894</ele>
        <time>2022-09-12T23:26:06.690Z</time>
      </trkpt>
      <trkpt lat="47.93318" lon="12.47178">
        <ele>519.465563</ele>
        <time>2022-09-12T23:26:14.448Z</time>
      </trkpt>
      <trkpt lat="47.93318" lon="12.47168">
        <ele>519.419589</ele>
        <time>2022-09-12T23:26:16.119Z</time>
      </trkpt>
      <trkpt lat="47.93319" lon="12.47159">
        <ele>519.379444</ele>
        <time>2022-09-12T23:26:17.644Z</time>
      </trkpt>
      <trkpt lat="47.93321" lon="12.47126">
        <ele>519.325482</ele>
        <time>2022-09-12T23:26:23.453Z</time>
      </trkpt>
      <trkpt lat="47.93329" lon="12.47079">
        <ele>519.258286</ele>
        <time>2022-09-12T23:26:32.232Z</time>
      </trkpt>
      <trkpt lat="47.93332" lon="12.47063">
        <ele>519.236077</ele>
        <time>2022-09-12T23:26:35.000Z</time>
      </trkpt>
      <trkpt lat="47.93333" lon="12.47059">
        <ele>519.229456</ele>
        <time>2022-09-12T23:26:35.861Z</time>
      </trkpt>
      <trkpt lat="47.93342" lon="12.4702">
        <ele>519.174016</ele>
        <time>2022-09-12T23:26:42.900Z</time>
      </trkpt>
      <trkpt lat="47.93355" lon="12.46964">
        <ele>519.092156</ele>
        <time>2022-09-12T23:26:53.178Z</time>
      </trkpt>
      <trkpt lat="47.93363" lon="12.46928">
        <ele>519.041456</ele>
        <time>2022-09-12T23:26:59.682Z</time>
      </trkpt>
      <trkpt lat="47.93372" lon="12.46885">
        <ele>518.970683</ele>
        <time>2022-09-12T23:27:07.418Z</time>
      </trkpt>
      <trkpt lat="47.93381" lon="12.46834">
        <ele>518.866465</ele>
        <time>2022-09-12T23:27:16.401Z</time>
      </trkpt>
      <trkpt lat="47.93385" lon="12.4681">
        <ele>518.816766</ele>
        <time>2022-09-12T23:27:20.575Z</time>
      </trkpt>
      <trkpt lat="47.93391" lon="12.46759">
        <ele>518.714545</ele>
        <time>2022-09-12T23:27:29.352Z</time>
      </trkpt>
      <trkpt lat="47.93399" lon="12.46678">
        <ele>518.55347</ele>
        <time>2022-09-12T23:27:44.772Z</time>
      </trkpt>
      <trkpt lat="47.93428" lon="12.46515">
        <ele>518.459997</ele>
        <time>2022-09-12T23:28:17.546Z</time>
      </trkpt>
      <trkpt lat="47.93448" lon="12.46418">
        <ele>518.452542</ele>
        <time>2022-09-12T23:28:38.183Z</time>
      </trkpt>
      <trkpt lat="47.93456" lon="12.46399">
        <ele>518.450949</ele>
        <time>2022-09-12T23:28:42.225Z</time>
      </trkpt>
      <trkpt lat="47.93445" lon="12.46301">
        <ele>518.492111</ele>
        <time>2022-09-12T23:29:12.512Z</time>
      </trkpt>
      <trkpt lat="47.93412" lon="12.46192">
        <ele>518.55483</ele>
        <time>2022-09-12T23:29:48.472Z</time>
      </trkpt>
      <trkpt lat="47.93374" lon="12.46035">
        <ele>518.556838</ele>
        <time>2022-09-12T23:30:18.257Z</time>
      </trkpt>
      <trkpt lat="47.93345" lon="12.45959">
        <ele>518.527134</ele>
        <time>2022-09-12T23:30:33.524Z</time>
      </trkpt>
      <trkpt lat="47.93325" lon="12.45915">
        <ele>518.508851</ele>
        <time>2022-09-12T23:30:42.997Z</time>
      </trkpt>
      <trkpt lat="47.93312" lon="12.45888">
        <ele>518.498742</ele>
        <time>2022-09-12T23:30:49.045Z</time>
      </trkpt>
      <trkpt lat="47.93297" lon="12.45873">
        <ele>518.4957</ele>
        <time>2022-09-12T23:30:54.316Z</time>
      </trkpt>
      <trkpt lat="47.93291" lon="12.45837">
        <ele>518.491641</ele>
        <time>2022-09-12T23:31:01.697Z</time>
      </trkpt>
      <trkpt lat="47.93283" lon="12.45714">
        <ele>518.477949</ele>
        <time>2022-09-12T23:31:26.024Z</time>
      </trkpt>
      <trkpt lat="47.93261" lon="12.4563">
        <ele>518.494206</ele>
        <time>2022-09-12T23:31:44.077Z</time>
      </trkpt>
      <trkpt lat="47.93145" lon="12.45448">
        <ele>518.94121</ele>
        <time>2022-09-12T23:32:36.666Z</time>
      </trkpt>
      <trkpt lat="47.93067" lon="12.45354">
        <ele>518.871737</ele>
        <time>2022-09-12T23:33:06.702Z</time>
      </trkpt>
      <trkpt lat="47.92966" lon="12.45266">
        <ele>518.695849</ele>
        <time>2022-09-12T23:33:39.809Z</time>
      </trkpt>
      <trkpt lat="47.92942" lon="12.45255">
        <ele>518.61502</ele>
        <time>2022-09-12T23:33:46.743Z</time>
      </trkpt>
      <trkpt lat="47.92896" lon="12.45194">
        <ele>518.417757</ele>
        <time>2022-09-12T23:34:03.441Z</time>
      </trkpt>
      <trkpt lat="47.92883" lon="12.45151">
        <ele>518.316831</ele>
        <time>2022-09-12T23:34:12.613Z</time>
      </trkpt>
      <trkpt lat="47.92852" lon="12.45099">
        <ele>518.303606</ele>
        <time>2022-09-12T23:34:26.667Z</time>
      </trkpt>
      <trkpt lat="47.92822" lon="12.45064">
        <ele>518.436256</ele>
        <time>2022-09-12T23:34:38.125Z</time>
      </trkpt>
      <trkpt lat="47.92772" lon="12.45002">
        <ele>518.66672</ele>
        <time>2022-09-12T23:34:58.618Z</time>
      </trkpt>
      <trkpt lat="47.92756" lon="12.44995">
        <ele>518.725269</ele>
        <time>2022-09-12T23:35:03.793Z</time>
      </trkpt>
      <trkpt lat="47.92736" lon="12.44963">
        <ele>518.829391</ele>
        <time>2022-09-12T23:35:13.107Z</time>
      </trkpt>
      <trkpt lat="47.92682" lon="12.44904">
        <ele>519.286197</ele>
        <time>2022-09-12T23:35:36.194Z</time>
      </trkpt>
      <trkpt lat="47.92609" lon="12.44831">
        <ele>519.943901</ele>
        <time>2022-09-12T23:36:05.784Z</time>
      </trkpt>
      <trkpt lat="47.92605" lon="12.44827">
        <ele>519.978674</ele>
        <time>2022-09-12T23:36:07.150Z</time>
      </trkpt>
      <trkpt lat="47.92594" lon="12.44809">
        <ele>520.099051</ele>
        <time>2022-09-12T23:36:11.958Z</time>
      </trkpt>
      <trkpt lat="47.92594" lon="12.44804">
        <ele>520.127375</ele>
        <time>2022-09-12T23:36:13.119Z</time>
      </trkpt>
      <trkpt lat="47.92557" lon="12.44765">
        <ele>520.47073</ele>
        <time>2022-09-12T23:36:26.042Z</time>
      </trkpt>
      <trkpt lat="47.92508" lon="12.44738">
        <ele>520.870215</ele>
        <time>2022-09-12T23:36:40.618Z</time>
      </trkpt>
      <trkpt lat="47.9249" lon="12.44712">
        <ele>521.066125</ele>
        <time>2022-09-12T23:36:48.889Z</time>
      </trkpt>
      <trkpt lat="47.92472" lon="12.44663">
        <ele>521.357045</ele>
        <time>2022-09-12T23:37:01.215Z</time>
      </trkpt>
      <trkpt lat="47.92445" lon="12.44597">
        <ele>521.775132</ele>
        <time>2022-09-12T23:37:17.152Z</time>
      </trkpt>
      <trkpt lat="47.92442" lon="12.44592">
        <ele>521.812688</ele>
        <time>2022-09-12T23:37:18.481Z</time>
      </trkpt>
      <trkpt lat="47.92437" lon="12.4458">
        <ele>521.891703</ele>
        <time>2022-09-12T23:37:21.203Z</time>
      </trkpt>
      <trkpt lat="47.9243" lon="12.44555">
        <ele>522.048869</ele>
        <time>2022-09-12T23:37:26.739Z</time>
      </trkpt>
      <trkpt lat="47.92459" lon="12.44523">
        <ele>522.363927</ele>
        <time>2022-09-12T23:37:37.822Z</time>
      </trkpt>
      <trkpt lat="47.92426" lon="12.44456">
        <ele>522.842448</ele>
        <time>2022-09-12T23:37:54.746Z</time>
      </trkpt>
      <trkpt lat="47.92414" lon="12.44444">
        <ele>522.970185</ele>
        <time>2022-09-12T23:37:59.414Z</time>
      </trkpt>
      <trkpt lat="47.9242" lon="12.4443">
        <ele>523.066961</ele>
        <time>2022-09-12T23:38:02.963Z</time>
      </trkpt>
      <trkpt lat="47.92426" lon="12.44421">
        <ele>523.137278</ele>
        <time>2022-09-12T23:38:05.471Z</time>
      </trkpt>
      <trkpt lat="47.92423" lon="12.44385">
        <ele>523.317885</ele>
        <time>2022-09-12T23:38:13.273Z</time>
      </trkpt>
      <trkpt lat="47.92428" lon="12.44356">
        <ele>523.468025</ele>
        <time>2022-09-12T23:38:19.658Z</time>
      </trkpt>
      <trkpt lat="47.92425" lon="12.44319">
        <ele>523.65311</ele>
        <time>2022-09-12T23:38:26.961Z</time>
      </trkpt>
      <trkpt lat="47.92391" lon="12.44156">
        <ele>524.504921</ele>
        <time>2022-09-12T23:39:00.849Z</time>
      </trkpt>
      <trkpt lat="47.92377" lon="12.44067">
        <ele>525.032895</ele>
        <time>2022-09-12T23:39:19.620Z</time>
      </trkpt>
      <trkpt lat="47.92363" lon="12.44023">
        <ele>525.319494</ele>
        <time>2022-09-12T23:39:30.000Z</time>
      </trkpt>
      <trkpt lat="47.9236" lon="12.43943">
        <ele>525.78116</ele>
        <time>2022-09-12T23:39:46.629Z</time>
      </trkpt>
      <trkpt lat="47.92359" lon="12.4373">
        <ele>527.043685</ele>
        <time>2022-09-12T23:40:30.596Z</time>
      </trkpt>
      <trkpt lat="47.92349" lon="12.43416">
        <ele>529.831778</ele>
        <time>2022-09-12T23:41:36.214Z</time>
      </trkpt>
      <trkpt lat="47.92354" lon="12.43359">
        <ele>530.483874</ele>
        <time>2022-09-12T23:41:51.712Z</time>
      </trkpt>
      <trkpt lat="47.92345" lon="12.4331">
        <ele>531.980692</ele>
        <time>2022-09-12T23:42:06.531Z</time>
      </trkpt>
      <trkpt lat="47.92319" lon="12.42931">
        <ele>541.757999</ele>
        <time>2022-09-12T23:44:14.846Z</time>
      </trkpt>
      <trkpt lat="47.92302" lon="12.42816">
        <ele>543.7213</ele>
        <time>2022-09-12T23:44:38.923Z</time>
      </trkpt>
      <trkpt lat="47.92291" lon="12.42716">
        <ele>542.630122</ele>
        <time>2022-09-12T23:45:05.495Z</time>
      </trkpt>
      <trkpt lat="47.92295" lon="12.4269">
        <ele>542.339532</ele>
        <time>2022-09-12T23:45:11.788Z</time>
      </trkpt>
      <trkpt lat="47.92273" lon="12.42503">
        <ele>540.828916</ele>
        <time>2022-09-12T23:45:58.864Z</time>
      </trkpt>
      <trkpt lat="47.92258" lon="12.42441">
        <ele>540.668222</ele>
        <time>2022-09-12T23:46:17.372Z</time>
      </trkpt>
      <trkpt lat="47.9224" lon="12.42336">
        <ele>540.402962</ele>
        <time>2022-09-12T23:46:51.750Z</time>
      </trkpt>
      <trkpt lat="47.9221" lon="12.42236">
        <ele>541.097062</ele>
        <time>2022-09-12T23:47:15.443Z</time>
      </trkpt>
      <trkpt lat="47.92172" lon="12.42157">
        <ele>542.021536</ele>
        <time>2022-09-12T23:47:37.047Z</time>
      </trkpt>
      <trkpt lat="47.92035" lon="12.41944">
        <ele>546.006108</ele>
        <time>2022-09-12T23:48:47.932Z</time>
      </trkpt>
      <trkpt lat="47.91962" lon="12.41838">
        <ele>548.236876</ele>
        <time>2022-09-12T23:49:31.608Z</time>
      </trkpt>
      <trkpt lat="47.91886" lon="12.41713">
        <ele>550.632023</ele>
        <time>2022-09-12T23:50:12.997Z</time>
      </trkpt>
      <trkpt lat="47.91845" lon="12.41641">
        <ele>550.349506</ele>
        <time>2022-09-12T23:50:28.956Z</time>
      </trkpt>
      <trkpt lat="47.91816" lon="12.41565">
        <ele>549.877757</ele>
        <time>2022-09-12T23:50:42.531Z</time>
      </trkpt>
      <trkpt lat="47.91791" lon="12.41445">
        <ele>549.113779</ele>
        <time>2022-09-12T23:51:00.675Z</time>
      </trkpt>
      <trkpt lat="47.91782" lon="12.41361">
        <ele>548.386017</ele>
        <time>2022-09-12T23:51:13.153Z</time>
      </trkpt>
      <trkpt lat="47.91777" lon="12.41318">
        <ele>548.017486</ele>
        <time>2022-09-12T23:51:19.820Z</time>
      </trkpt>
      <trkpt lat="47.91719" lon="12.40885">
        <ele>545.341746</ele>
        <time>2022-09-12T23:52:28.435Z</time>
      </trkpt>
      <trkpt lat="47.91699" lon="12.40638">
        <ele>544.77916</ele>
        <time>2022-09-12T23:53:15.605Z</time>
      </trkpt>
      <trkpt lat="47.91697" lon="12.40498">
        <ele>543.361186</ele>
        <time>2022-09-12T23:53:37.671Z</time>
      </trkpt>
      <trkpt lat="47.91723" lon="12.4007">
        <ele>535.377785</ele>
        <time>2022-09-12T23:54:33.181Z</time>
      </trkpt>
      <trkpt lat="47.9172" lon="12.39941">
        <ele>533.742515</ele>
        <time>2022-09-12T23:54:51.499Z</time>
      </trkpt>
      <trkpt lat="47.91711" lon="12.39857">
        <ele>532.956545</ele>
        <time>2022-09-12T23:55:05.423Z</time>
      </trkpt>
      <trkpt lat="47.91681" lon="12.39708">
        <ele>533.295193</ele>
        <time>2022-09-12T23:55:35.822Z</time>
      </trkpt>
      <trkpt lat="47.9166" lon="12.3964">
        <ele>533.458813</ele>
        <time>2022-09-12T23:55:50.955Z</time>
      </trkpt>
      <trkpt lat="47.91655" lon="12.39643">
        <ele>533.476523</ele>
        <time>2022-09-12T23:55:52.554Z</time>
      </trkpt>
      <trkpt lat="47.91607" lon="12.39527">
        <ele>533.582588</ele>
        <time>2022-09-12T23:56:19.299Z</time>
      </trkpt>
      <trkpt lat="47.91368" lon="12.39056">
        <ele>533.629486</ele>
        <time>2022-09-12T23:58:04.064Z</time>
      </trkpt>
      <trkpt lat="47.91319" lon="12.38945">
        <ele>533.233147</ele>
        <time>2022-09-12T23:58:26.592Z</time>
      </trkpt>
      <trkpt lat="47.91327" lon="12.38928">
        <ele>533.105925</ele>
        <time>2022-09-12T23:58:29.768Z</time>
      </trkpt>
      <trkpt lat="47.91322" lon="12.38908">
        <ele>532.978077</ele>
        <time>2022-09-12T23:58:33.031Z</time>
      </trkpt>
      <trkpt lat="47.91339" lon="12.38878">
        <ele>532.7318</ele>
        <time>2022-09-12T23:58:39.040Z</time>
      </trkpt>
      <trkpt lat="47.91374" lon="12.38845">
        <ele>532.346512</ele>
        <time>2022-09-12T23:58:48.668Z</time>
      </trkpt>
      <trkpt lat="47.91399" lon="12.38824">
        <ele>532.086779</ele>
        <time>2022-09-12T23:58:54.986Z</time>
      </trkpt>
      <trkpt lat="47.91463" lon="12.38775">
        <ele>531.52686</ele>
        <time>2022-09-12T23:59:11.469Z</time>
      </trkpt>
      <trkpt lat="47.91472" lon="12.3877">
        <ele>531.460792</ele>
        <time>2022-09-12T23:59:13.770Z</time>
      </trkpt>
      <trkpt lat="47.91559" lon="12.38719">
        <ele>530.814807</ele>
        <time>2022-09-12T23:59:36.165Z</time>
      </trkpt>
      <trkpt lat="47.91771" lon="12.38576">
        <ele>530.627649</ele>
        <time>2022-09-13T00:00:39.119Z</time>
      </trkpt>
      <trkpt lat="47.91817" lon="12.3855">
        <ele>530.542046</ele>
        <time>2022-09-13T00:00:51.872Z</time>
      </trkpt>
      <trkpt lat="47.91963" lon="12.38485">
        <ele>530.381712</ele>
        <time>2022-09-13T00:01:30.466Z</time>
      </trkpt>
      <trkpt lat="47.92012" lon="12.38439">
        <ele>530.417817</ele>
        <time>2022-09-13T00:01:45.851Z</time>
      </trkpt>
      <trkpt lat="47.92064" lon="12.38377">
        <ele>530.459161</ele>
        <time>2022-09-13T00:02:04.844Z</time>
      </trkpt>
      <trkpt lat="47.92083" lon="12.38345">
        <ele>530.559495</ele>
        <time>2022-09-13T00:02:13.133Z</time>
      </trkpt>
      <trkpt lat="47.92121" lon="12.38275">
        <ele>530.880129</ele>
        <time>2022-09-13T00:02:30.884Z</time>
      </trkpt>
      <trkpt lat="47.92127" lon="12.38265">
        <ele>530.925537</ele>
        <time>2022-09-13T00:02:33.240Z</time>
      </trkpt>
      <trkpt lat="47.92147" lon="12.38235">
        <ele>531.079173</ele>
        <time>2022-09-13T00:02:41.655Z</time>
      </trkpt>
      <trkpt lat="47.92203" lon="12.38173">
        <ele>531.422158</ele>
        <time>2022-09-13T00:03:02.659Z</time>
      </trkpt>
      <trkpt lat="47.92223" lon="12.38141">
        <ele>531.435897</ele>
        <time>2022-09-13T00:03:11.239Z</time>
      </trkpt>
      <trkpt lat="47.92233" lon="12.38081">
        <ele>531.45503</ele>
        <time>2022-09-13T00:03:22.580Z</time>
      </trkpt>
      <trkpt lat="47.9228" lon="12.38092">
        <ele>531.477199</ele>
        <time>2022-09-13T00:03:34.659Z</time>
      </trkpt>
      <trkpt lat="47.92317" lon="12.38099">
        <ele>531.494627</ele>
        <time>2022-09-13T00:03:44.069Z</time>
      </trkpt>
      <trkpt lat="47.92386" lon="12.38094">
        <ele>531.768316</ele>
        <time>2022-09-13T00:04:02.031Z</time>
      </trkpt>
      <trkpt lat="47.92413" lon="12.3809">
        <ele>531.910718</ele>
        <time>2022-09-13T00:04:09.313Z</time>
      </trkpt>
      <trkpt lat="47.92529" lon="12.38081">
        <ele>532.726973</ele>
        <time>2022-09-13T00:04:44.739Z</time>
      </trkpt>
      <trkpt lat="47.92542" lon="12.38073">
        <ele>533.024052</ele>
        <time>2022-09-13T00:04:50.198Z</time>
      </trkpt>
      <trkpt lat="47.92597" lon="12.38031">
        <ele>534.271802</ele>
        <time>2022-09-13T00:05:12.667Z</time>
      </trkpt>
      <trkpt lat="47.92602" lon="12.38022">
        <ele>534.443435</ele>
        <time>2022-09-13T00:05:16.037Z</time>
      </trkpt>
      <trkpt lat="47.92643" lon="12.37964">
        <ele>535.587535</ele>
        <time>2022-09-13T00:05:37.092Z</time>
      </trkpt>
      <trkpt lat="47.92659" lon="12.37957">
        <ele>535.934331</ele>
        <time>2022-09-13T00:05:43.900Z</time>
      </trkpt>
      <trkpt lat="47.92695" lon="12.37934">
        <ele>536.541319</ele>
        <time>2022-09-13T00:05:59.019Z</time>
      </trkpt>
      <trkpt lat="47.92738" lon="12.37879">
        <ele>537.307882</ele>
        <time>2022-09-13T00:06:19.325Z</time>
      </trkpt>
      <trkpt lat="47.92761" lon="12.37855">
        <ele>537.68534</ele>
        <time>2022-09-13T00:06:28.478Z</time>
      </trkpt>
      <trkpt lat="47.92768" lon="12.3785">
        <ele>537.782649</ele>
        <time>2022-09-13T00:06:30.852Z</time>
      </trkpt>
      <trkpt lat="47.92799" lon="12.37822">
        <ele>538.273779</ele>
        <time>2022-09-13T00:06:41.746Z</time>
      </trkpt>
      <trkpt lat="47.92819" lon="12.37807">
        <ele>538.56401</ele>
        <time>2022-09-13T00:06:47.978Z</time>
      </trkpt>
      <trkpt lat="47.9285" lon="12.3777">
        <ele>538.38973</ele>
        <time>2022-09-13T00:06:58.682Z</time>
      </trkpt>
      <trkpt lat="47.9286" lon="12.37756">
        <ele>538.330386</ele>
        <time>2022-09-13T00:07:02.140Z</time>
      </trkpt>
      <trkpt lat="47.92904" lon="12.37681">
        <ele>538.035836</ele>
        <time>2022-09-13T00:07:18.608Z</time>
      </trkpt>
      <trkpt lat="47.9295" lon="12.37619">
        <ele>537.725008</ele>
        <time>2022-09-13T00:07:33.064Z</time>
      </trkpt>
      <trkpt lat="47.93004" lon="12.37585">
        <ele>536.656071</ele>
        <time>2022-09-13T00:07:46.564Z</time>
      </trkpt>
      <trkpt lat="47.93026" lon="12.37574">
        <ele>536.237238</ele>
        <time>2022-09-13T00:07:51.337Z</time>
      </trkpt>
      <trkpt lat="47.93077" lon="12.37553">
        <ele>535.27277</ele>
        <time>2022-09-13T00:08:02.630Z</time>
      </trkpt>
      <trkpt lat="47.93117" lon="12.37535">
        <ele>534.496628</ele>
        <time>2022-09-13T00:08:11.533Z</time>
      </trkpt>
      <trkpt lat="47.93119" lon="12.37534">
        <ele>534.461013</ele>
        <time>2022-09-13T00:08:11.897Z</time>
      </trkpt>
      <trkpt lat="47.93144" lon="12.37522">
        <ele>533.883156</ele>
        <time>2022-09-13T00:08:17.726Z</time>
      </trkpt>
      <trkpt lat="47.93152" lon="12.37527">
        <ele>533.704398</ele>
        <time>2022-09-13T00:08:19.225Z</time>
      </trkpt>
      <trkpt lat="47.93192" lon="12.3751">
        <ele>532.785652</ele>
        <time>2022-09-13T00:08:27.817Z</time>
      </trkpt>
      <trkpt lat="47.93263" lon="12.37456">
        <ele>531.038946</ele>
        <time>2022-09-13T00:08:44.275Z</time>
      </trkpt>
      <trkpt lat="47.93369" lon="12.37349">
        <ele>529.687539</ele>
        <time>2022-09-13T00:09:13.131Z</time>
      </trkpt>
      <trkpt lat="47.93406" lon="12.3732">
        <ele>529.348557</ele>
        <time>2022-09-13T00:09:23.848Z</time>
      </trkpt>
      <trkpt lat="47.93422" lon="12.37307">
        <ele>529.197209</ele>
        <time>2022-09-13T00:09:32.056Z</time>
      </trkpt>
      <trkpt lat="47.93519" lon="12.37217">
        <ele>529.332248</ele>
        <time>2022-09-13T00:10:03.544Z</time>
      </trkpt>
      <trkpt lat="47.9363" lon="12.37156">
        <ele>529.69585</ele>
        <time>2022-09-13T00:10:37.292Z</time>
      </trkpt>
      <trkpt lat="47.93677" lon="12.37103">
        <ele>529.945651</ele>
        <time>2022-09-13T00:10:53.888Z</time>
      </trkpt>
      <trkpt lat="47.93726" lon="12.37077">
        <ele>530.171106</ele>
        <time>2022-09-13T00:11:08.973Z</time>
      </trkpt>
      <trkpt lat="47.93767" lon="12.3707">
        <ele>530.394435</ele>
        <time>2022-09-13T00:11:20.935Z</time>
      </trkpt>
      <trkpt lat="47.93773" lon="12.37063">
        <ele>530.459593</ele>
        <time>2022-09-13T00:11:23.154Z</time>
      </trkpt>
      <trkpt lat="47.93796" lon="12.37042">
        <ele>530.701973</ele>
        <time>2022-09-13T00:11:31.389Z</time>
      </trkpt>
      <trkpt lat="47.93787" lon="12.36965">
        <ele>531.159558</ele>
        <time>2022-09-13T00:11:47.445Z</time>
      </trkpt>
      <trkpt lat="47.93723" lon="12.36766">
        <ele>532.419718</ele>
        <time>2022-09-13T00:12:34.808Z</time>
      </trkpt>
      <trkpt lat="47.93709" lon="12.36686">
        <ele>532.864487</ele>
        <time>2022-09-13T00:12:51.708Z</time>
      </trkpt>
      <trkpt lat="47.93696" lon="12.36614">
        <ele>533.271034</ele>
        <time>2022-09-13T00:13:06.344Z</time>
      </trkpt>
      <trkpt lat="47.93691" lon="12.36523">
        <ele>533.522995</ele>
        <time>2022-09-13T00:13:23.854Z</time>
      </trkpt>
      <trkpt lat="47.93694" lon="12.36481">
        <ele>533.62282</ele>
        <time>2022-09-13T00:13:31.835Z</time>
      </trkpt>
      <trkpt lat="47.93707" lon="12.36398">
        <ele>533.820808</ele>
        <time>2022-09-13T00:13:47.502Z</time>
      </trkpt>
      <trkpt lat="47.9372" lon="12.36356">
        <ele>533.9307</ele>
        <time>2022-09-13T00:13:56.564Z</time>
      </trkpt>
      <trkpt lat="47.93795" lon="12.36124">
        <ele>534.483035</ele>
        <time>2022-09-13T00:14:45.887Z</time>
      </trkpt>
      <trkpt lat="47.93835" lon="12.35988">
        <ele>534.530413</ele>
        <time>2022-09-13T00:15:12.191Z</time>
      </trkpt>
      <trkpt lat="47.93861" lon="12.35865">
        <ele>534.518746</ele>
        <time>2022-09-13T00:15:34.614Z</time>
      </trkpt>
      <trkpt lat="47.93881" lon="12.35812">
        <ele>534.706662</ele>
        <time>2022-09-13T00:15:45.873Z</time>
      </trkpt>
      <trkpt lat="47.93905" lon="12.35773">
        <ele>534.933758</ele>
        <time>2022-09-13T00:15:55.644Z</time>
      </trkpt>
      <trkpt lat="47.93941" lon="12.3574">
        <ele>535.209181</ele>
        <time>2022-09-13T00:16:08.184Z</time>
      </trkpt>
      <trkpt lat="47.93966" lon="12.35728">
        <ele>535.382405</ele>
        <time>2022-09-13T00:16:16.413Z</time>
      </trkpt>
      <trkpt lat="47.94039" lon="12.35724">
        <ele>535.947909</ele>
        <time>2022-09-13T00:16:40.240Z</time>
      </trkpt>
      <trkpt lat="47.94178" lon="12.3575">
        <ele>537.363453</ele>
        <time>2022-09-13T00:17:25.945Z</time>
      </trkpt>
      <trkpt lat="47.94236" lon="12.35751">
        <ele>537.149236</ele>
        <time>2022-09-13T00:17:41.649Z</time>
      </trkpt>
      <trkpt lat="47.94248" lon="12.35749">
        <ele>537.050568</ele>
        <time>2022-09-13T00:17:44.552Z</time>
      </trkpt>
      <trkpt lat="47.94275" lon="12.35746">
        <ele>536.829948</ele>
        <time>2022-09-13T00:17:51.164Z</time>
      </trkpt>
      <trkpt lat="47.9438" lon="12.35725">
        <ele>535.914724</ele>
        <time>2022-09-13T00:18:14.789Z</time>
      </trkpt>
      <trkpt lat="47.94379" lon="12.35716">
        <ele>535.822262</ele>
        <time>2022-09-13T00:18:16.176Z</time>
      </trkpt>
      <trkpt lat="47.94373" lon="12.35708">
        <ele>535.692687</ele>
        <time>2022-09-13T00:18:17.877Z</time>
      </trkpt>
      <trkpt lat="47.94369" lon="12.35659">
        <ele>535.207368</ele>
        <time>2022-09-13T00:18:24.907Z</time>
      </trkpt>
      <trkpt lat="47.94374" lon="12.35566">
        <ele>534.278466</ele>
        <time>2022-09-13T00:18:38.494Z</time>
      </trkpt>
      <trkpt lat="47.94386" lon="12.35493">
        <ele>533.523072</ele>
        <time>2022-09-13T00:18:49.581Z</time>
      </trkpt>
      <trkpt lat="47.94446" lon="12.35265">
        <ele>532.246372</ele>
        <time>2022-09-13T00:19:28.590Z</time>
      </trkpt>
      <trkpt lat="47.94458" lon="12.35179">
        <ele>532.008539</ele>
        <time>2022-09-13T00:19:43.499Z</time>
      </trkpt>
      <trkpt lat="47.94456" lon="12.35138">
        <ele>531.968977</ele>
        <time>2022-09-13T00:19:50.758Z</time>
      </trkpt>
      <trkpt lat="47.94449" lon="12.35098">
        <ele>531.929838</ele>
        <time>2022-09-13T00:19:57.715Z</time>
      </trkpt>
      <trkpt lat="47.94453" lon="12.35097">
        <ele>531.923117</ele>
        <time>2022-09-13T00:19:59.022Z</time>
      </trkpt>
      <trkpt lat="47.94452" lon="12.35091">
        <ele>531.916712</ele>
        <time>2022-09-13T00:20:00.269Z</time>
      </trkpt>
      <trkpt lat="47.94412" lon="12.3495">
        <ele>531.802146</ele>
        <time>2022-09-13T00:20:27.590Z</time>
      </trkpt>
      <trkpt lat="47.94402" lon="12.34855">
        <ele>531.811332</ele>
        <time>2022-09-13T00:20:44.764Z</time>
      </trkpt>
      <trkpt lat="47.94409" lon="12.34752">
        <ele>531.821215</ele>
        <time>2022-09-13T00:21:02.763Z</time>
      </trkpt>
      <trkpt lat="47.94441" lon="12.34552">
        <ele>532.673519</ele>
        <time>2022-09-13T00:21:41.416Z</time>
      </trkpt>
      <trkpt lat="47.94449" lon="12.34443">
        <ele>533.310954</ele>
        <time>2022-09-13T00:22:06.107Z</time>
      </trkpt>
      <trkpt lat="47.94456" lon="12.34358">
        <ele>534.554009</ele>
        <time>2022-09-13T00:22:27.037Z</time>
      </trkpt>
      <trkpt lat="47.94469" lon="12.34297">
        <ele>535.489753</ele>
        <time>2022-09-13T00:22:43.272Z</time>
      </trkpt>
      <trkpt lat="47.94481" lon="12.34255">
        <ele>536.144537</ele>
        <time>2022-09-13T00:22:54.856Z</time>
      </trkpt>
      <trkpt lat="47.94511" lon="12.34181">
        <ele>537.427871</ele>
        <time>2022-09-13T00:23:17.313Z</time>
      </trkpt>
      <trkpt lat="47.94518" lon="12.34031">
        <ele>539.739013</ele>
        <time>2022-09-13T00:23:55.476Z</time>
      </trkpt>
      <trkpt lat="47.94583" lon="12.33966">
        <ele>541.508562</ele>
        <time>2022-09-13T00:24:25.183Z</time>
      </trkpt>
      <trkpt lat="47.94642" lon="12.33911">
        <ele>542.968104</ele>
        <time>2022-09-13T00:24:49.743Z</time>
      </trkpt>
      <trkpt lat="47.94678" lon="12.33883">
        <ele>543.838687</ele>
        <time>2022-09-13T00:25:04.728Z</time>
      </trkpt>
      <trkpt lat="47.94731" lon="12.3384">
        <ele>545.116099</ele>
        <time>2022-09-13T00:25:27.172Z</time>
      </trkpt>
      <trkpt lat="47.94781" lon="12.33786">
        <ele>546.448836</ele>
        <time>2022-09-13T00:25:50.303Z</time>
      </trkpt>
      <trkpt lat="47.94869" lon="12.3365">
        <ele>549.194391</ele>
        <time>2022-09-13T00:26:36.733Z</time>
      </trkpt>
      <trkpt lat="47.94934" lon="12.33565">
        <ele>551.162905</ele>
        <time>2022-09-13T00:27:09.969Z</time>
      </trkpt>
      <trkpt lat="47.95132" lon="12.33396">
        <ele>556.233789</ele>
        <time>2022-09-13T00:28:34.908Z</time>
      </trkpt>
      <trkpt lat="47.95205" lon="12.33301">
        <ele>558.242565</ele>
        <time>2022-09-13T00:29:10.773Z</time>
      </trkpt>
      <trkpt lat="47.9527" lon="12.33202">
        <ele>560.100903</ele>
        <time>2022-09-13T00:29:44.083Z</time>
      </trkpt>
      <trkpt lat="47.95215" lon="12.33123">
        <ele>561.750974</ele>
        <time>2022-09-13T00:30:11.633Z</time>
      </trkpt>
      <trkpt lat="47.9519" lon="12.3306">
        <ele>562.841058</ele>
        <time>2022-09-13T00:30:29.513Z</time>
      </trkpt>
      <trkpt lat="47.95161" lon="12.32903">
        <ele>565.498675</ele>
        <time>2022-09-13T00:31:11.611Z</time>
      </trkpt>
      <trkpt lat="47.95161" lon="12.32819">
        <ele>567.155565</ele>
        <time>2022-09-13T00:31:34.679Z</time>
      </trkpt>
      <trkpt lat="47.95176" lon="12.32759">
        <ele>568.432274</ele>
        <time>2022-09-13T00:31:52.626Z</time>
      </trkpt>
      <trkpt lat="47.95209" lon="12.3269">
        <ele>570.158873</ele>
        <time>2022-09-13T00:32:16.452Z</time>
      </trkpt>
      <trkpt lat="47.95261" lon="12.32749">
        <ele>572.580686</ele>
        <time>2022-09-13T00:32:43.589Z</time>
      </trkpt>
      <trkpt lat="47.95291" lon="12.32801">
        <ele>574.314077</ele>
        <time>2022-09-13T00:33:02.527Z</time>
      </trkpt>
      <trkpt lat="47.95325" lon="12.32909">
        <ele>577.557939</ele>
        <time>2022-09-13T00:33:42.051Z</time>
      </trkpt>
      <trkpt lat="47.95345" lon="12.32975">
        <ele>580.046793</ele>
        <time>2022-09-13T00:34:08.204Z</time>
      </trkpt>
      <trkpt lat="47.95363" lon="12.32999">
        <ele>581.294374</ele>
        <time>2022-09-13T00:34:21.558Z</time>
      </trkpt>
      <trkpt lat="47.95377" lon="12.33004">
        <ele>582.008471</ele>
        <time>2022-09-13T00:34:28.802Z</time>
      </trkpt>
      <trkpt lat="47.95393" lon="12.33">
        <ele>582.844266</ele>
        <time>2022-09-13T00:34:37.413Z</time>
      </trkpt>
      <trkpt lat="47.95399" lon="12.32996">
        <ele>583.186311</ele>
        <time>2022-09-13T00:34:40.733Z</time>
      </trkpt>
      <trkpt lat="47.95411" lon="12.32987">
        <ele>583.868157</ele>
        <time>2022-09-13T00:34:47.315Z</time>
      </trkpt>
      <trkpt lat="47.9542" lon="12.3298">
        <ele>584.426014</ele>
        <time>2022-09-13T00:34:52.729Z</time>
      </trkpt>
      <trkpt lat="47.95427" lon="12.32974">
        <ele>584.809585</ele>
        <time>2022-09-13T00:34:56.518Z</time>
      </trkpt>
      <trkpt lat="47.95499" lon="12.32921">
        <ele>587.866004</ele>
        <time>2022-09-13T00:35:35.663Z</time>
      </trkpt>
      <trkpt lat="47.95559" lon="12.32884">
        <ele>590.050162</ele>
        <time>2022-09-13T00:36:04.485Z</time>
      </trkpt>
      <trkpt lat="47.95604" lon="12.32845">
        <ele>591.821089</ele>
        <time>2022-09-13T00:36:22.040Z</time>
      </trkpt>
      <trkpt lat="47.95611" lon="12.32826">
        <ele>592.133896</ele>
        <time>2022-09-13T00:36:27.708Z</time>
      </trkpt>
      <trkpt lat="47.95668" lon="12.32805">
        <ele>593.326145</ele>
        <time>2022-09-13T00:36:48.063Z</time>
      </trkpt>
      <trkpt lat="47.95714" lon="12.32798">
        <ele>594.253923</ele>
        <time>2022-09-13T00:37:06.253Z</time>
      </trkpt>
      <trkpt lat="47.95745" lon="12.32801">
        <ele>594.879955</ele>
        <time>2022-09-13T00:37:17.818Z</time>
      </trkpt>
      <trkpt lat="47.95836" lon="12.32834">
        <ele>595.880391</ele>
        <time>2022-09-13T00:37:50.689Z</time>
      </trkpt>
      <trkpt lat="47.95871" lon="12.32833">
        <ele>596.08415</ele>
        <time>2022-09-13T00:38:00.857Z</time>
      </trkpt>
      <trkpt lat="47.9591" lon="12.32819">
        <ele>596.320328</ele>
        <time>2022-09-13T00:38:11.705Z</time>
      </trkpt>
      <trkpt lat="47.9596" lon="12.32788">
        <ele>596.558564</ele>
        <time>2022-09-13T00:38:25.000Z</time>
      </trkpt>
      <trkpt lat="47.95991" lon="12.3276">
        <ele>596.516868</ele>
        <time>2022-09-13T00:38:33.466Z</time>
      </trkpt>
      <trkpt lat="47.96013" lon="12.32737">
        <ele>596.486478</ele>
        <time>2022-09-13T00:38:39.716Z</time>
      </trkpt>
      <trkpt lat="47.96062" lon="12.32682">
        <ele>596.415421</ele>
        <time>2022-09-13T00:38:55.017Z</time>
      </trkpt>
      <trkpt lat="47.96347" lon="12.32378">
        <ele>600.751733</ele>
        <time>2022-09-13T00:40:50.032Z</time>
      </trkpt>
      <trkpt lat="47.96371" lon="12.32338">
        <ele>601.374091</ele>
        <time>2022-09-13T00:41:04.082Z</time>
      </trkpt>
      <trkpt lat="47.96464" lon="12.32135">
        <ele>605.531823</ele>
        <time>2022-09-13T00:42:09.719Z</time>
      </trkpt>
      <trkpt lat="47.96507" lon="12.32043">
        <ele>606.838656</ele>
        <time>2022-09-13T00:42:38.347Z</time>
      </trkpt>
      <trkpt lat="47.96543" lon="12.31996">
        <ele>607.35128</ele>
        <time>2022-09-13T00:42:54.520Z</time>
      </trkpt>
      <trkpt lat="47.96567" lon="12.31963">
        <ele>607.695694</ele>
        <time>2022-09-13T00:43:04.341Z</time>
      </trkpt>
      <trkpt lat="47.96567" lon="12.31974">
        <ele>607.770953</ele>
        <time>2022-09-13T00:43:06.521Z</time>
      </trkpt>
      <trkpt lat="47.9661" lon="12.31937">
        <ele>608.295276</ele>
        <time>2022-09-13T00:43:19.981Z</time>
      </trkpt>
      <trkpt lat="47.96705" lon="12.31871">
        <ele>606.963732</ele>
        <time>2022-09-13T00:43:44.710Z</time>
      </trkpt>
      <trkpt lat="47.96748" lon="12.31822">
        <ele>606.266077</ele>
        <time>2022-09-13T00:43:56.218Z</time>
      </trkpt>
      <trkpt lat="47.96859" lon="12.31644">
        <ele>602.621595</ele>
        <time>2022-09-13T00:44:29.525Z</time>
      </trkpt>
      <trkpt lat="47.96892" lon="12.316">
        <ele>601.579918</ele>
        <time>2022-09-13T00:44:38.518Z</time>
      </trkpt>
      <trkpt lat="47.96888" lon="12.31598">
        <ele>601.469948</ele>
        <time>2022-09-13T00:44:39.435Z</time>
      </trkpt>
      <trkpt lat="47.97001" lon="12.31524">
        <ele>598.46406</ele>
        <time>2022-09-13T00:45:04.717Z</time>
      </trkpt>
      <trkpt lat="47.97049" lon="12.31484">
        <ele>597.16016</ele>
        <time>2022-09-13T00:45:15.883Z</time>
      </trkpt>
      <trkpt lat="47.97074" lon="12.31454">
        <ele>596.534489</ele>
        <time>2022-09-13T00:45:22.534Z</time>
      </trkpt>
      <trkpt lat="47.97081" lon="12.31455">
        <ele>596.404199</ele>
        <time>2022-09-13T00:45:23.737Z</time>
      </trkpt>
      <trkpt lat="47.97123" lon="12.31384">
        <ele>595.156498</ele>
        <time>2022-09-13T00:45:37.367Z</time>
      </trkpt>
      <trkpt lat="47.97139" lon="12.31344">
        <ele>594.544834</ele>
        <time>2022-09-13T00:45:44.030Z</time>
      </trkpt>
      <trkpt lat="47.97143" lon="12.3133">
        <ele>594.345173</ele>
        <time>2022-09-13T00:45:46.111Z</time>
      </trkpt>
      <trkpt lat="47.97156" lon="12.31275">
        <ele>593.867195</ele>
        <time>2022-09-13T00:45:54.621Z</time>
      </trkpt>
      <trkpt lat="47.97165" lon="12.31208">
        <ele>594.079326</ele>
        <time>2022-09-13T00:46:06.472Z</time>
      </trkpt>
      <trkpt lat="47.97172" lon="12.31075">
        <ele>594.491164</ele>
        <time>2022-09-13T00:46:34.654Z</time>
      </trkpt>
      <trkpt lat="47.97178" lon="12.3103">
        <ele>594.633002</ele>
        <time>2022-09-13T00:46:46.402Z</time>
      </trkpt>
      <trkpt lat="47.97194" lon="12.30979">
        <ele>595.096669</ele>
        <time>2022-09-13T00:47:00.729Z</time>
      </trkpt>
      <trkpt lat="47.97212" lon="12.30939">
        <ele>595.521678</ele>
        <time>2022-09-13T00:47:13.026Z</time>
      </trkpt>
      <trkpt lat="47.9724" lon="12.30903">
        <ele>596.00342</ele>
        <time>2022-09-13T00:47:25.985Z</time>
      </trkpt>
      <trkpt lat="47.97307" lon="12.30864">
        <ele>596.927838</ele>
        <time>2022-09-13T00:47:48.217Z</time>
      </trkpt>
      <trkpt lat="47.97347" lon="12.30863">
        <ele>597.078374</ele>
        <time>2022-09-13T00:48:00.604Z</time>
      </trkpt>
      <trkpt lat="47.97363" lon="12.3087">
        <ele>597.125912</ele>
        <time>2022-09-13T00:48:05.291Z</time>
      </trkpt>
      <trkpt lat="47.97442" lon="12.30909">
        <ele>597.36534</ele>
        <time>2022-09-13T00:48:28.278Z</time>
      </trkpt>
      <trkpt lat="47.9753" lon="12.30943">
        <ele>597.727772</ele>
        <time>2022-09-13T00:48:54.971Z</time>
      </trkpt>
      <trkpt lat="47.97614" lon="12.30958">
        <ele>598.156663</ele>
        <time>2022-09-13T00:49:21.687Z</time>
      </trkpt>
      <trkpt lat="47.97693" lon="12.30958">
        <ele>598.077729</ele>
        <time>2022-09-13T00:49:45.048Z</time>
      </trkpt>
      <trkpt lat="47.97767" lon="12.30967">
        <ele>597.320438</ele>
        <time>2022-09-13T00:50:02.483Z</time>
      </trkpt>
      <trkpt lat="47.97847" lon="12.30945">
        <ele>596.38911</ele>
        <time>2022-09-13T00:50:19.714Z</time>
      </trkpt>
      <trkpt lat="47.97921" lon="12.30952">
        <ele>594.745024</ele>
        <time>2022-09-13T00:50:35.316Z</time>
      </trkpt>
      <trkpt lat="47.98044" lon="12.30961">
        <ele>591.718613</ele>
        <time>2022-09-13T00:51:00.750Z</time>
      </trkpt>
      <trkpt lat="47.98153" lon="12.31001">
        <ele>587.873458</ele>
        <time>2022-09-13T00:51:22.804Z</time>
      </trkpt>
      <trkpt lat="47.98188" lon="12.31009">
        <ele>586.666173</ele>
        <time>2022-09-13T00:51:29.420Z</time>
      </trkpt>
      <trkpt lat="47.98235" lon="12.30996">
        <ele>583.678911</ele>
        <time>2022-09-13T00:51:38.072Z</time>
      </trkpt>
      <trkpt lat="47.9838" lon="12.309">
        <ele>572.381604</ele>
        <time>2022-09-13T00:52:05.003Z</time>
      </trkpt>
      <trkpt lat="47.98446" lon="12.30887">
        <ele>566.662258</ele>
        <time>2022-09-13T00:52:16.052Z</time>
      </trkpt>
      <trkpt lat="47.9845" lon="12.30885">
        <ele>566.258783</ele>
        <time>2022-09-13T00:52:16.831Z</time>
      </trkpt>
      <trkpt lat="47.98492" lon="12.30865">
        <ele>562.515642</ele>
        <time>2022-09-13T00:52:23.996Z</time>
      </trkpt>
      <trkpt lat="47.98514" lon="12.30835">
        <ele>559.905828</ele>
        <time>2022-09-13T00:52:29.035Z</time>
      </trkpt>
      <trkpt lat="47.98529" lon="12.30798">
        <ele>557.761771</ele>
        <time>2022-09-13T00:52:33.756Z</time>
      </trkpt>
      <trkpt lat="47.98563" lon="12.30665">
        <ele>551.902358</ele>
        <time>2022-09-13T00:52:50.148Z</time>
      </trkpt>
      <trkpt lat="47.98565" lon="12.30652">
        <ele>551.372407</ele>
        <time>2022-09-13T00:52:51.759Z</time>
      </trkpt>
      <trkpt lat="47.98564" lon="12.3061">
        <ele>549.650274</ele>
        <time>2022-09-13T00:52:56.938Z</time>
      </trkpt>
      <trkpt lat="47.98581" lon="12.30608">
        <ele>548.636798</ele>
        <time>2022-09-13T00:53:00.016Z</time>
      </trkpt>
      <trkpt lat="47.98604" lon="12.30617">
        <ele>547.390487</ele>
        <time>2022-09-13T00:53:04.448Z</time>
      </trkpt>
      <trkpt lat="47.98636" lon="12.30656">
        <ele>546.580627</ele>
        <time>2022-09-13T00:53:12.435Z</time>
      </trkpt>
      <trkpt lat="47.9871" lon="12.30738">
        <ele>544.771463</ele>
        <time>2022-09-13T00:53:32.298Z</time>
      </trkpt>
      <trkpt lat="47.98771" lon="12.30787">
        <ele>543.861968</ele>
        <time>2022-09-13T00:53:49.802Z</time>
      </trkpt>
      <trkpt lat="47.98781" lon="12.30792">
        <ele>543.828604</ele>
        <time>2022-09-13T00:53:52.593Z</time>
      </trkpt>
      <trkpt lat="47.98837" lon="12.30818">
        <ele>543.641528</ele>
        <time>2022-09-13T00:54:08.085Z</time>
      </trkpt>
      <trkpt lat="47.98876" lon="12.30836">
        <ele>543.51095</ele>
        <time>2022-09-13T00:54:19.065Z</time>
      </trkpt>
      <trkpt lat="47.98914" lon="12.3085">
        <ele>543.385694</ele>
        <time>2022-09-13T00:54:28.942Z</time>
      </trkpt>
      <trkpt lat="47.98964" lon="12.30838">
        <ele>542.722938</ele>
        <time>2022-09-13T00:54:40.666Z</time>
      </trkpt>
      <trkpt lat="47.98971" lon="12.30838">
        <ele>542.629837</ele>
        <time>2022-09-13T00:54:42.199Z</time>
      </trkpt>
      <trkpt lat="47.99004" lon="12.30841">
        <ele>542.175532</ele>
        <time>2022-09-13T00:54:49.599Z</time>
      </trkpt>
      <trkpt lat="47.99018" lon="12.30844">
        <ele>541.989882</ele>
        <time>2022-09-13T00:54:52.637Z</time>
      </trkpt>
      <trkpt lat="47.99026" lon="12.30846">
        <ele>541.873068</ele>
        <time>2022-09-13T00:54:54.527Z</time>
      </trkpt>
      <trkpt lat="47.99063" lon="12.30857">
        <ele>541.355279</ele>
        <time>2022-09-13T00:55:02.746Z</time>
      </trkpt>
      <trkpt lat="47.99097" lon="12.30857">
        <ele>540.863715</ele>
        <time>2022-09-13T00:55:10.067Z</time>
      </trkpt>
      <trkpt lat="47.99113" lon="12.30841">
        <ele>540.439507</ele>
        <time>2022-09-13T00:55:13.988Z</time>
      </trkpt>
      <trkpt lat="47.99121" lon="12.30813">
        <ele>539.962542</ele>
        <time>2022-09-13T00:55:18.339Z</time>
      </trkpt>
      <trkpt lat="47.99127" lon="12.30767">
        <ele>539.264049</ele>
        <time>2022-09-13T00:55:24.699Z</time>
      </trkpt>
      <trkpt lat="47.99138" lon="12.3075">
        <ele>538.902014</ele>
        <time>2022-09-13T00:55:27.938Z</time>
      </trkpt>
      <trkpt lat="47.99152" lon="12.30745">
        <ele>538.558263</ele>
        <time>2022-09-13T00:55:30.986Z</time>
      </trkpt>
      <trkpt lat="47.99158" lon="12.30743">
        <ele>538.425645</ele>
        <time>2022-09-13T00:55:32.167Z</time>
      </trkpt>
      <trkpt lat="47.9918" lon="12.30731">
        <ele>537.895873</ele>
        <time>2022-09-13T00:55:36.937Z</time>
      </trkpt>
      <trkpt lat="47.99189" lon="12.30731">
        <ele>537.691409</ele>
        <time>2022-09-13T00:55:38.783Z</time>
      </trkpt>
      <trkpt lat="47.99285" lon="12.30734">
        <ele>535.531895</ele>
        <time>2022-09-13T00:55:58.628Z</time>
      </trkpt>
      <trkpt lat="47.99392" lon="12.30711">
        <ele>533.105638</ele>
        <time>2022-09-13T00:56:20.987Z</time>
      </trkpt>
      <trkpt lat="47.99418" lon="12.3071">
        <ele>532.617849</ele>
        <time>2022-09-13T00:56:26.389Z</time>
      </trkpt>
      <trkpt lat="47.99467" lon="12.30709">
        <ele>531.87783</ele>
        <time>2022-09-13T00:56:36.955Z</time>
      </trkpt>
      <trkpt lat="47.99516" lon="12.30706">
        <ele>531.137044</ele>
        <time>2022-09-13T00:56:47.955Z</time>
      </trkpt>
      <trkpt lat="47.99548" lon="12.30694">
        <ele>530.639986</ele>
        <time>2022-09-13T00:56:55.323Z</time>
      </trkpt>
      <trkpt lat="47.99549" lon="12.30694">
        <ele>530.628645</ele>
        <time>2022-09-13T00:56:55.514Z</time>
      </trkpt>
      <trkpt lat="47.99555" lon="12.3069">
        <ele>530.523001</ele>
        <time>2022-09-13T00:56:57.117Z</time>
      </trkpt>
      <trkpt lat="47.99602" lon="12.30665">
        <ele>529.746682</ele>
        <time>2022-09-13T00:57:08.433Z</time>
      </trkpt>
      <trkpt lat="47.99603" lon="12.30665">
        <ele>529.730886</ele>
        <time>2022-09-13T00:57:08.650Z</time>
      </trkpt>
      <trkpt lat="47.99629" lon="12.30651">
        <ele>529.272776</ele>
        <time>2022-09-13T00:57:14.876Z</time>
      </trkpt>
      <trkpt lat="47.9963" lon="12.30642">
        <ele>529.177143</ele>
        <time>2022-09-13T00:57:16.236Z</time>
      </trkpt>
      <trkpt lat="47.9967" lon="12.30626">
        <ele>528.501429</ele>
        <time>2022-09-13T00:57:25.427Z</time>
      </trkpt>
      <trkpt lat="47.9974" lon="12.30609">
        <ele>527.325711</ele>
        <time>2022-09-13T00:57:41.377Z</time>
      </trkpt>
      <trkpt lat="47.99854" lon="12.3054">
        <ele>522.887919</ele>
        <time>2022-09-13T00:58:05.030Z</time>
      </trkpt>
      <trkpt lat="47.99884" lon="12.30532">
        <ele>521.722029</ele>
        <time>2022-09-13T00:58:10.661Z</time>
      </trkpt>
      <trkpt lat="47.9994" lon="12.30533">
        <ele>519.544399</ele>
        <time>2022-09-13T00:58:20.647Z</time>
      </trkpt>
      <trkpt lat="48.00096" lon="12.30597">
        <ele>512.75185</ele>
        <time>2022-09-13T00:58:50.682Z</time>
      </trkpt>
      <trkpt lat="48.00208" lon="12.30626">
        <ele>510.951229</ele>
        <time>2022-09-13T00:59:14.860Z</time>
      </trkpt>
      <trkpt lat="48.00217" lon="12.30633">
        <ele>510.797542</ele>
        <time>2022-09-13T00:59:17.211Z</time>
      </trkpt>
      <trkpt lat="48.00228" lon="12.30634">
        <ele>510.611059</ele>
        <time>2022-09-13T00:59:20.030Z</time>
      </trkpt>
      <trkpt lat="48.00232" lon="12.3063">
        <ele>510.54314</ele>
        <time>2022-09-13T00:59:21.052Z</time>
      </trkpt>
      <trkpt lat="48.00291" lon="12.30627">
        <ele>509.893499</ele>
        <time>2022-09-13T00:59:37.074Z</time>
      </trkpt>
      <trkpt lat="48.00341" lon="12.306">
        <ele>509.876621</ele>
        <time>2022-09-13T00:59:51.545Z</time>
      </trkpt>
      <trkpt lat="48.00407" lon="12.3055">
        <ele>509.852702</ele>
        <time>2022-09-13T01:00:12.402Z</time>
      </trkpt>
      <trkpt lat="48.00456" lon="12.30494">
        <ele>509.590589</ele>
        <time>2022-09-13T01:00:27.620Z</time>
      </trkpt>
      <trkpt lat="48.00483" lon="12.30438">
        <ele>509.164422</ele>
        <time>2022-09-13T01:00:38.312Z</time>
      </trkpt>
      <trkpt lat="48.00506" lon="12.3037">
        <ele>508.700784</ele>
        <time>2022-09-13T01:00:49.937Z</time>
      </trkpt>
      <trkpt lat="48.00507" lon="12.30367">
        <ele>508.67939</ele>
        <time>2022-09-13T01:00:50.441Z</time>
      </trkpt>
      <trkpt lat="48.00517" lon="12.30339">
        <ele>508.486407</ele>
        <time>2022-09-13T01:00:55.439Z</time>
      </trkpt>
      <trkpt lat="48.00528" lon="12.303">
        <ele>508.226097</ele>
        <time>2022-09-13T01:01:02.318Z</time>
      </trkpt>
      <trkpt lat="48.00556" lon="12.30253">
        <ele>508.048412</ele>
        <time>2022-09-13T01:01:12.545Z</time>
      </trkpt>
      <trkpt lat="48.00577" lon="12.30232">
        <ele>507.950126</ele>
        <time>2022-09-13T01:01:18.688Z</time>
      </trkpt>
      <trkpt lat="48.00604" lon="12.30216">
        <ele>507.841539</ele>
        <time>2022-09-13T01:01:25.716Z</time>
      </trkpt>
      <trkpt lat="48.00657" lon="12.30198">
        <ele>507.634173</ele>
        <time>2022-09-13T01:01:39.700Z</time>
      </trkpt>
      <trkpt lat="48.00708" lon="12.30182">
        <ele>507.838874</ele>
        <time>2022-09-13T01:01:56.702Z</time>
      </trkpt>
      <trkpt lat="48.0079" lon="12.30136">
        <ele>509.333026</ele>
        <time>2022-09-13T01:02:26.573Z</time>
      </trkpt>
      <trkpt lat="48.0082" lon="12.30112">
        <ele>509.929096</ele>
        <time>2022-09-13T01:02:38.971Z</time>
      </trkpt>
      <trkpt lat="48.00895" lon="12.30022">
        <ele>512.961911</ele>
        <time>2022-09-13T01:03:19.699Z</time>
      </trkpt>
      <trkpt lat="48.00918" lon="12.30006">
        <ele>514.018679</ele>
        <time>2022-09-13T01:03:31.888Z</time>
      </trkpt>
      <trkpt lat="48.00972" lon="12.29984">
        <ele>516.319823</ele>
        <time>2022-09-13T01:03:59.781Z</time>
      </trkpt>
      <trkpt lat="48.01062" lon="12.29952">
        <ele>520.320432</ele>
        <time>2022-09-13T01:04:49.328Z</time>
      </trkpt>
      <trkpt lat="48.01229" lon="12.29957">
        <ele>526.215185</ele>
        <time>2022-09-13T01:06:10.341Z</time>
      </trkpt>
      <trkpt lat="48.01348" lon="12.29927">
        <ele>526.848327</ele>
        <time>2022-09-13T01:06:44.088Z</time>
      </trkpt>
      <trkpt lat="48.01451" lon="12.29907">
        <ele>524.47604</ele>
        <time>2022-09-13T01:07:05.531Z</time>
      </trkpt>
      <trkpt lat="48.01511" lon="12.29907">
        <ele>522.703597</ele>
        <time>2022-09-13T01:07:17.455Z</time>
      </trkpt>
      <trkpt lat="48.01647" lon="12.29915">
        <ele>519.570414</ele>
        <time>2022-09-13T01:07:45.900Z</time>
      </trkpt>
      <trkpt lat="48.01741" lon="12.29891">
        <ele>517.915547</ele>
        <time>2022-09-13T01:08:08.701Z</time>
      </trkpt>
      <trkpt lat="48.01821" lon="12.29847">
        <ele>517.884135</ele>
        <time>2022-09-13T01:08:31.541Z</time>
      </trkpt>
      <trkpt lat="48.01895" lon="12.29783">
        <ele>517.903556</ele>
        <time>2022-09-13T01:08:57.121Z</time>
      </trkpt>
      <trkpt lat="48.0193" lon="12.29743">
        <ele>518.286619</ele>
        <time>2022-09-13T01:09:11.472Z</time>
      </trkpt>
      <trkpt lat="48.01932" lon="12.29739">
        <ele>518.311062</ele>
        <time>2022-09-13T01:09:12.406Z</time>
      </trkpt>
      <trkpt lat="48.02035" lon="12.29553">
        <ele>519.679224</ele>
        <time>2022-09-13T01:10:02.873Z</time>
      </trkpt>
      <trkpt lat="48.02056" lon="12.2951">
        <ele>519.969494</ele>
        <time>2022-09-13T01:10:13.925Z</time>
      </trkpt>
      <trkpt lat="48.02071" lon="12.29463">
        <ele>520.254614</ele>
        <time>2022-09-13T01:10:25.182Z</time>
      </trkpt>
      <trkpt lat="48.02075" lon="12.29466">
        <ele>520.291376</ele>
        <time>2022-09-13T01:10:26.634Z</time>
      </trkpt>
      <trkpt lat="48.02216" lon="12.2955">
        <ele>521.040467</ele>
        <time>2022-09-13T01:11:10.854Z</time>
      </trkpt>
      <trkpt lat="48.02301" lon="12.29288">
        <ele>521.444146</ele>
        <time>2022-09-13T01:12:02.307Z</time>
      </trkpt>
      <trkpt lat="48.02329" lon="12.29222">
        <ele>521.551031</ele>
        <time>2022-09-13T01:12:17.129Z</time>
      </trkpt>
      <trkpt lat="48.02365" lon="12.29112">
        <ele>521.969227</ele>
        <time>2022-09-13T01:12:41.333Z</time>
      </trkpt>
      <trkpt lat="48.02372" lon="12.29089">
        <ele>522.083686</ele>
        <time>2022-09-13T01:12:46.243Z</time>
      </trkpt>
      <trkpt lat="48.02383" lon="12.29055">
        <ele>522.258571</ele>
        <time>2022-09-13T01:12:54.294Z</time>
      </trkpt>
      <trkpt lat="48.02405" lon="12.28986">
        <ele>522.61407</ele>
        <time>2022-09-13T01:13:10.341Z</time>
      </trkpt>
      <trkpt lat="48.02431" lon="12.28933">
        <ele>522.793061</ele>
        <time>2022-09-13T01:13:23.537Z</time>
      </trkpt>
      <trkpt lat="48.02466" lon="12.28891">
        <ele>522.384968</ele>
        <time>2022-09-13T01:13:35.943Z</time>
      </trkpt>
      <trkpt lat="48.02495" lon="12.2888">
        <ele>522.110144</ele>
        <time>2022-09-13T01:13:44.365Z</time>
      </trkpt>
      <trkpt lat="48.02504" lon="12.2888">
        <ele>522.026852</ele>
        <time>2022-09-13T01:13:46.735Z</time>
      </trkpt>
      <trkpt lat="48.02531" lon="12.28884">
        <ele>521.783189</ele>
        <time>2022-09-13T01:13:53.167Z</time>
      </trkpt>
      <trkpt lat="48.02556" lon="12.28876">
        <ele>521.555522</ele>
        <time>2022-09-13T01:13:58.762Z</time>
      </trkpt>
      <trkpt lat="48.02563" lon="12.28869">
        <ele>521.475953</ele>
        <time>2022-09-13T01:14:00.545Z</time>
      </trkpt>
      <trkpt lat="48.02585" lon="12.28815">
        <ele>520.374534</ele>
        <time>2022-09-13T01:14:08.819Z</time>
      </trkpt>
      <trkpt lat="48.02588" lon="12.28801">
        <ele>519.838033</ele>
        <time>2022-09-13T01:14:10.678Z</time>
      </trkpt>
      <trkpt lat="48.02588" lon="12.28786">
        <ele>519.252569</ele>
        <time>2022-09-13T01:14:12.702Z</time>
      </trkpt>
      <trkpt lat="48.02589" lon="12.2875">
        <ele>517.927758</ele>
        <time>2022-09-13T01:14:17.096Z</time>
      </trkpt>
      <trkpt lat="48.02596" lon="12.28685">
        <ele>515.507405</ele>
        <time>2022-09-13T01:14:24.860Z</time>
      </trkpt>
      <trkpt lat="48.02597" lon="12.28679">
        <ele>515.282606</ele>
        <time>2022-09-13T01:14:25.568Z</time>
      </trkpt>
      <trkpt lat="48.02607" lon="12.28589">
        <ele>511.872736</ele>
        <time>2022-09-13T01:14:36.109Z</time>
      </trkpt>
      <trkpt lat="48.02627" lon="12.28429">
        <ele>505.335519</ele>
        <time>2022-09-13T01:14:54.566Z</time>
      </trkpt>
      <trkpt lat="48.02642" lon="12.28384">
        <ele>503.272876</ele>
        <time>2022-09-13T01:15:00.640Z</time>
      </trkpt>
      <trkpt lat="48.02677" lon="12.28337">
        <ele>500.425884</ele>
        <time>2022-09-13T01:15:09.246Z</time>
      </trkpt>
      <trkpt lat="48.02732" lon="12.28271">
        <ele>498.18299</ele>
        <time>2022-09-13T01:15:22.697Z</time>
      </trkpt>
      <trkpt lat="48.02748" lon="12.28237">
        <ele>497.306562</ele>
        <time>2022-09-13T01:15:28.269Z</time>
      </trkpt>
      <trkpt lat="48.02764" lon="12.28182">
        <ele>496.055407</ele>
        <time>2022-09-13T01:15:36.300Z</time>
      </trkpt>
      <trkpt lat="48.02783" lon="12.28086">
        <ele>494.141523</ele>
        <time>2022-09-13T01:15:50.379Z</time>
      </trkpt>
      <trkpt lat="48.02779" lon="12.2804">
        <ele>493.401963</ele>
        <time>2022-09-13T01:15:56.780Z</time>
      </trkpt>
      <trkpt lat="48.02854" lon="12.27991">
        <ele>491.464734</ele>
        <time>2022-09-13T01:16:13.351Z</time>
      </trkpt>
      <trkpt lat="48.02864" lon="12.27985">
        <ele>491.218994</ele>
        <time>2022-09-13T01:16:15.465Z</time>
      </trkpt>
      <trkpt lat="48.02868" lon="12.27982">
        <ele>491.091588</ele>
        <time>2022-09-13T01:16:16.556Z</time>
      </trkpt>
      <trkpt lat="48.03007" lon="12.27889">
        <ele>487.8541</ele>
        <time>2022-09-13T01:16:48.087Z</time>
      </trkpt>
      <trkpt lat="48.03083" lon="12.27831">
        <ele>486.193504</ele>
        <time>2022-09-13T01:17:06.337Z</time>
      </trkpt>
      <trkpt lat="48.03129" lon="12.27771">
        <ele>485.163442</ele>
        <time>2022-09-13T01:17:19.720Z</time>
      </trkpt>
      <trkpt lat="48.03188" lon="12.2766">
        <ele>483.625076</ele>
        <time>2022-09-13T01:17:40.458Z</time>
      </trkpt>
      <trkpt lat="48.03215" lon="12.27583">
        <ele>483.12337</ele>
        <time>2022-09-13T01:17:52.970Z</time>
      </trkpt>
      <trkpt lat="48.03222" lon="12.27552">
        <ele>482.934326</ele>
        <time>2022-09-13T01:17:57.876Z</time>
      </trkpt>
      <trkpt lat="48.03239" lon="12.27415">
        <ele>482.123285</ele>
        <time>2022-09-13T01:18:20.773Z</time>
      </trkpt>
      <trkpt lat="48.03248" lon="12.27334">
        <ele>482.970912</ele>
        <time>2022-09-13T01:18:37.083Z</time>
      </trkpt>
      <trkpt lat="48.03268" lon="12.27182">
        <ele>484.589577</ele>
        <time>2022-09-13T01:19:13.574Z</time>
      </trkpt>
      <trkpt lat="48.03307" lon="12.26965">
        <ele>489.044245</ele>
        <time>2022-09-13T01:20:17.735Z</time>
      </trkpt>
      <trkpt lat="48.03347" lon="12.268">
        <ele>492.062321</ele>
        <time>2022-09-13T01:21:07.468Z</time>
      </trkpt>
      <trkpt lat="48.03399" lon="12.26647">
        <ele>494.440342</ele>
        <time>2022-09-13T01:21:48.412Z</time>
      </trkpt>
      <trkpt lat="48.03412" lon="12.2662">
        <ele>494.25288</ele>
        <time>2022-09-13T01:21:54.707Z</time>
      </trkpt>
      <trkpt lat="48.03575" lon="12.26347">
        <ele>491.237257</ele>
        <time>2022-09-13T01:22:49.087Z</time>
      </trkpt>
      <trkpt lat="48.03608" lon="12.26297">
        <ele>490.333852</ele>
        <time>2022-09-13T01:22:58.913Z</time>
      </trkpt>
      <trkpt lat="48.03683" lon="12.26155">
        <ele>487.599226</ele>
        <time>2022-09-13T01:23:23.436Z</time>
      </trkpt>
      <trkpt lat="48.03746" lon="12.26039">
        <ele>485.115347</ele>
        <time>2022-09-13T01:23:43.653Z</time>
      </trkpt>
      <trkpt lat="48.03843" lon="12.25898">
        <ele>482.949591</ele>
        <time>2022-09-13T01:24:12.587Z</time>
      </trkpt>
      <trkpt lat="48.03908" lon="12.25775">
        <ele>481.816335</ele>
        <time>2022-09-13T01:24:37.569Z</time>
      </trkpt>
      <trkpt lat="48.03949" lon="12.25685">
        <ele>481.342</ele>
        <time>2022-09-13T01:24:55.545Z</time>
      </trkpt>
      <trkpt lat="48.04015" lon="12.25532">
        <ele>480.703455</ele>
        <time>2022-09-13T01:25:25.139Z</time>
      </trkpt>
      <trkpt lat="48.04065" lon="12.25417">
        <ele>480.31134</ele>
        <time>2022-09-13T01:25:48.001Z</time>
      </trkpt>
      <trkpt lat="48.04073" lon="12.25381">
        <ele>480.222153</ele>
        <time>2022-09-13T01:25:54.822Z</time>
      </trkpt>
      <trkpt lat="48.04105" lon="12.25068">
        <ele>479.558596</ele>
        <time>2022-09-13T01:26:49.895Z</time>
      </trkpt>
      <trkpt lat="48.04113" lon="12.25008">
        <ele>479.217778</ele>
        <time>2022-09-13T01:26:59.477Z</time>
      </trkpt>
      <trkpt lat="48.04132" lon="12.24936">
        <ele>478.78237</ele>
        <time>2022-09-13T01:27:11.294Z</time>
      </trkpt>
      <trkpt lat="48.04162" lon="12.24837">
        <ele>478.306337</ele>
        <time>2022-09-13T01:27:27.798Z</time>
      </trkpt>
      <trkpt lat="48.04172" lon="12.24759">
        <ele>478.137793</ele>
        <time>2022-09-13T01:27:40.167Z</time>
      </trkpt>
      <trkpt lat="48.04178" lon="12.24745">
        <ele>478.102787</ele>
        <time>2022-09-13T01:27:42.813Z</time>
      </trkpt>
      <trkpt lat="48.04167" lon="12.24659">
        <ele>477.918917</ele>
        <time>2022-09-13T01:27:58.425Z</time>
      </trkpt>
      <trkpt lat="48.04128" lon="12.24538">
        <ele>478.448526</ele>
        <time>2022-09-13T01:28:25.795Z</time>
      </trkpt>
      <trkpt lat="48.04123" lon="12.24541">
        <ele>478.508728</ele>
        <time>2022-09-13T01:28:27.473Z</time>
      </trkpt>
      <trkpt lat="48.04089" lon="12.24434">
        <ele>479.3542</ele>
        <time>2022-09-13T01:28:53.642Z</time>
      </trkpt>
      <trkpt lat="48.04088" lon="12.24428">
        <ele>479.39922</ele>
        <time>2022-09-13T01:28:55.052Z</time>
      </trkpt>
      <trkpt lat="48.04083" lon="12.2435">
        <ele>479.916319</ele>
        <time>2022-09-13T01:29:12.491Z</time>
      </trkpt>
      <trkpt lat="48.04083" lon="12.24343">
        <ele>479.958778</ele>
        <time>2022-09-13T01:29:14.096Z</time>
      </trkpt>
      <trkpt lat="48.04084" lon="12.2429">
        <ele>480.26822</ele>
        <time>2022-09-13T01:29:26.028Z</time>
      </trkpt>
      <trkpt lat="48.04084" lon="12.24281">
        <ele>480.322273</ele>
        <time>2022-09-13T01:29:28.061Z</time>
      </trkpt>
      <trkpt lat="48.04085" lon="12.24267">
        <ele>480.401327</ele>
        <time>2022-09-13T01:29:31.015Z</time>
      </trkpt>
      <trkpt lat="48.04085" lon="12.24259">
        <ele>480.448399</ele>
        <time>2022-09-13T01:29:32.789Z</time>
      </trkpt>
      <trkpt lat="48.04085" lon="12.24239">
        <ele>480.56405</ele>
        <time>2022-09-13T01:29:37.058Z</time>
      </trkpt>
      <trkpt lat="48.04083" lon="12.24152">
        <ele>481.072264</ele>
        <time>2022-09-13T01:29:54.689Z</time>
      </trkpt>
      <trkpt lat="48.04094" lon="12.24149">
        <ele>481.170307</ele>
        <time>2022-09-13T01:29:57.914Z</time>
      </trkpt>
      <trkpt lat="48.04164" lon="12.24082">
        <ele>481.011782</ele>
        <time>2022-09-13T01:30:19.120Z</time>
      </trkpt>
      <trkpt lat="48.04241" lon="12.24027">
        <ele>480.643819</ele>
        <time>2022-09-13T01:30:39.405Z</time>
      </trkpt>
      <trkpt lat="48.04277" lon="12.24002">
        <ele>480.495084</ele>
        <time>2022-09-13T01:30:49.268Z</time>
      </trkpt>
      <trkpt lat="48.04329" lon="12.23964">
        <ele>480.354223</ele>
        <time>2022-09-13T01:31:03.849Z</time>
      </trkpt>
      <trkpt lat="48.04371" lon="12.23934">
        <ele>480.240548</ele>
        <time>2022-09-13T01:31:15.889Z</time>
      </trkpt>
      <trkpt lat="48.04416" lon="12.23919">
        <ele>480.129434</ele>
        <time>2022-09-13T01:31:27.814Z</time>
      </trkpt>
      <trkpt lat="48.04452" lon="12.23908">
        <ele>480.046552</ele>
        <time>2022-09-13T01:31:37.897Z</time>
      </trkpt>
      <trkpt lat="48.04471" lon="12.23903">
        <ele>480.006422</ele>
        <time>2022-09-13T01:31:43.203Z</time>
      </trkpt>
      <trkpt lat="48.04485" lon="12.23899">
        <ele>479.977563</ele>
        <time>2022-09-13T01:31:47.156Z</time>
      </trkpt>
      <trkpt lat="48.04535" lon="12.23887">
        <ele>479.874633</ele>
        <time>2022-09-13T01:32:00.787Z</time>
      </trkpt>
      <trkpt lat="48.04567" lon="12.23888">
        <ele>479.807784</ele>
        <time>2022-09-13T01:32:09.262Z</time>
      </trkpt>
      <trkpt lat="48.04579" lon="12.23888">
        <ele>479.783927</ele>
        <time>2022-09-13T01:32:12.212Z</time>
      </trkpt>
      <trkpt lat="48.04613" lon="12.23881">
        <ele>479.654123</ele>
        <time>2022-09-13T01:32:20.666Z</time>
      </trkpt>
      <trkpt lat="48.04662" lon="12.23862">
        <ele>478.555477</ele>
        <time>2022-09-13T01:32:32.061Z</time>
      </trkpt>
      <trkpt lat="48.04715" lon="12.23819">
        <ele>477.233623</ele>
        <time>2022-09-13T01:32:44.507Z</time>
      </trkpt>
      <trkpt lat="48.04725" lon="12.23809">
        <ele>476.970025</ele>
        <time>2022-09-13T01:32:46.875Z</time>
      </trkpt>
      <trkpt lat="48.04754" lon="12.23773">
        <ele>476.140364</ele>
        <time>2022-09-13T01:32:54.207Z</time>
      </trkpt>
      <trkpt lat="48.04764" lon="12.23765">
        <ele>475.884281</ele>
        <time>2022-09-13T01:32:56.569Z</time>
      </trkpt>
      <trkpt lat="48.04832" lon="12.23723">
        <ele>474.456304</ele>
        <time>2022-09-13T01:33:10.977Z</time>
      </trkpt>
      <trkpt lat="48.04874" lon="12.23677">
        <ele>473.436402</ele>
        <time>2022-09-13T01:33:21.488Z</time>
      </trkpt>
      <trkpt lat="48.04877" lon="12.23673">
        <ele>473.349456</ele>
        <time>2022-09-13T01:33:22.507Z</time>
      </trkpt>
      <trkpt lat="48.04889" lon="12.23656">
        <ele>473.03778</ele>
        <time>2022-09-13T01:33:26.292Z</time>
      </trkpt>
      <trkpt lat="48.04899" lon="12.23642">
        <ele>472.773407</ele>
        <time>2022-09-13T01:33:29.189Z</time>
      </trkpt>
      <trkpt lat="48.04911" lon="12.23629">
        <ele>472.479317</ele>
        <time>2022-09-13T01:33:33.368Z</time>
      </trkpt>
      <trkpt lat="48.04932" lon="12.23611">
        <ele>472.525473</ele>
        <time>2022-09-13T01:33:39.557Z</time>
      </trkpt>
      <trkpt lat="48.04934" lon="12.2361">
        <ele>472.56019</ele>
        <time>2022-09-13T01:33:40.164Z</time>
      </trkpt>
      <trkpt lat="48.04963" lon="12.23591">
        <ele>473.111206</ele>
        <time>2022-09-13T01:33:50.104Z</time>
      </trkpt>
      <trkpt lat="48.05005" lon="12.23575">
        <ele>473.86004</ele>
        <time>2022-09-13T01:34:06.004Z</time>
      </trkpt>
      <trkpt lat="48.05062" lon="12.23569">
        <ele>474.859522</ele>
        <time>2022-09-13T01:34:29.205Z</time>
      </trkpt>
      <trkpt lat="48.05119" lon="12.23552">
        <ele>475.821004</ele>
        <time>2022-09-13T01:34:51.980Z</time>
      </trkpt>
      <trkpt lat="48.05232" lon="12.23487">
        <ele>477.7067</ele>
        <time>2022-09-13T01:35:31.951Z</time>
      </trkpt>
      <trkpt lat="48.05257" lon="12.2347">
        <ele>478.146064</ele>
        <time>2022-09-13T01:35:40.629Z</time>
      </trkpt>
      <trkpt lat="48.05289" lon="12.23447">
        <ele>478.680901</ele>
        <time>2022-09-13T01:35:52.045Z</time>
      </trkpt>
      <trkpt lat="48.05308" lon="12.23435">
        <ele>478.995301</ele>
        <time>2022-09-13T01:35:58.876Z</time>
      </trkpt>
      <trkpt lat="48.05348" lon="12.23463">
        <ele>479.661711</ele>
        <time>2022-09-13T01:36:14.031Z</time>
      </trkpt>
      <trkpt lat="48.05416" lon="12.235">
        <ele>480.747553</ele>
        <time>2022-09-13T01:36:38.829Z</time>
      </trkpt>
      <trkpt lat="48.05429" lon="12.23477">
        <ele>480.842545</ele>
        <time>2022-09-13T01:36:46.026Z</time>
      </trkpt>
      <trkpt lat="48.0546" lon="12.23458">
        <ele>480.416756</ele>
        <time>2022-09-13T01:36:58.797Z</time>
      </trkpt>
      <trkpt lat="48.05477" lon="12.23428">
        <ele>480.089297</ele>
        <time>2022-09-13T01:37:07.178Z</time>
      </trkpt>
      <trkpt lat="48.05473" lon="12.23411">
        <ele>479.943174</ele>
        <time>2022-09-13T01:37:10.167Z</time>
      </trkpt>
      <trkpt lat="48.05464" lon="12.23312">
        <ele>479.111851</ele>
        <time>2022-09-13T01:37:25.197Z</time>
      </trkpt>
      <trkpt lat="48.05437" lon="12.23247">
        <ele>477.235718</ele>
        <time>2022-09-13T01:37:34.359Z</time>
      </trkpt>
      <trkpt lat="48.05422" lon="12.23185">
        <ele>473.596639</ele>
        <time>2022-09-13T01:37:41.840Z</time>
      </trkpt>
      <trkpt lat="48.05409" lon="12.23061">
        <ele>466.750729</ele>
        <time>2022-09-13T01:37:55.732Z</time>
      </trkpt>
      <trkpt lat="48.05413" lon="12.23038">
        <ele>465.434375</ele>
        <time>2022-09-13T01:37:58.254Z</time>
      </trkpt>
      <trkpt lat="48.05427" lon="12.23018">
        <ele>463.816426</ele>
        <time>2022-09-13T01:38:01.599Z</time>
      </trkpt>
      <trkpt lat="48.05448" lon="12.23033">
        <ele>461.780905</ele>
        <time>2022-09-13T01:38:05.329Z</time>
      </trkpt>
      <trkpt lat="48.05481" lon="12.23056">
        <ele>458.598284</ele>
        <time>2022-09-13T01:38:11.357Z</time>
      </trkpt>
      <trkpt lat="48.05515" lon="12.23077">
        <ele>455.435989</ele>
        <time>2022-09-13T01:38:17.341Z</time>
      </trkpt>
      <trkpt lat="48.0554" lon="12.23083">
        <ele>453.257482</ele>
        <time>2022-09-13T01:38:21.406Z</time>
      </trkpt>
      <trkpt lat="48.05547" lon="12.23082">
        <ele>452.625172</ele>
        <time>2022-09-13T01:38:22.618Z</time>
      </trkpt>
      <trkpt lat="48.05559" lon="12.23081">
        <ele>451.575558</ele>
        <time>2022-09-13T01:38:24.693Z</time>
      </trkpt>
      <trkpt lat="48.05562" lon="12.23081">
        <ele>451.322799</ele>
        <time>2022-09-13T01:38:25.199Z</time>
      </trkpt>
      <trkpt lat="48.05581" lon="12.23078">
        <ele>449.724551</ele>
        <time>2022-09-13T01:38:28.523Z</time>
      </trkpt>
      <trkpt lat="48.05588" lon="12.23076">
        <ele>449.0564</ele>
        <time>2022-09-13T01:38:29.898Z</time>
      </trkpt>
      <trkpt lat="48.05622" lon="12.23071">
        <ele>447.509149</ele>
        <time>2022-09-13T01:38:35.961Z</time>
      </trkpt>
      <trkpt lat="48.05641" lon="12.23071">
        <ele>446.86734</ele>
        <time>2022-09-13T01:38:39.569Z</time>
      </trkpt>
      <trkpt lat="48.05728" lon="12.23088">
        <ele>443.969644</ele>
        <time>2022-09-13T01:38:57.389Z</time>
      </trkpt>
      <trkpt lat="48.05752" lon="12.23103">
        <ele>443.119536</ele>
        <time>2022-09-13T01:39:03.048Z</time>
      </trkpt>
      <trkpt lat="48.0576" lon="12.23113">
        <ele>442.769759</ele>
        <time>2022-09-13T01:39:05.241Z</time>
      </trkpt>
      <trkpt lat="48.05784" lon="12.23183">
        <ele>441.051057</ele>
        <time>2022-09-13T01:39:15.950Z</time>
      </trkpt>
      <trkpt lat="48.05803" lon="12.23215">
        <ele>440.100236</ele>
        <time>2022-09-13T01:39:21.623Z</time>
      </trkpt>
      <trkpt lat="48.05806" lon="12.23218">
        <ele>439.976716</ele>
        <time>2022-09-13T01:39:22.346Z</time>
      </trkpt>
      <trkpt lat="48.05822" lon="12.23234">
        <ele>439.348819</ele>
        <time>2022-09-13T01:39:26.018Z</time>
      </trkpt>
      <trkpt lat="48.05836" lon="12.2324">
        <ele>438.8712</ele>
        <time>2022-09-13T01:39:28.708Z</time>
      </trkpt>
      <trkpt lat="48.05863" lon="12.23245">
        <ele>437.991106</ele>
        <time>2022-09-13T01:39:33.821Z</time>
      </trkpt>
      <trkpt lat="48.05877" lon="12.23247">
        <ele>437.516596</ele>
        <time>2022-09-13T01:39:36.667Z</time>
      </trkpt>
      <trkpt lat="48.05879" lon="12.23247">
        <ele>437.470628</ele>
        <time>2022-09-13T01:39:36.938Z</time>
      </trkpt>
      <trkpt lat="48.05995" lon="12.23246">
        <ele>434.263876</ele>
        <time>2022-09-13T01:39:59.196Z</time>
      </trkpt>
      <trkpt lat="48.06002" lon="12.23245">
        <ele>434.074624</ele>
        <time>2022-09-13T01:40:00.618Z</time>
      </trkpt>
      <trkpt lat="48.06004" lon="12.23244">
        <ele>434.02523</ele>
        <time>2022-09-13T01:40:00.992Z</time>
      </trkpt>
      <trkpt lat="48.06016" lon="12.23241">
        <ele>433.726951</ele>
        <time>2022-09-13T01:40:03.193Z</time>
      </trkpt>
      <trkpt lat="48.06047" lon="12.23224">
        <ele>432.869157</ele>
        <time>2022-09-13T01:40:09.985Z</time>
      </trkpt>
      <trkpt lat="48.06056" lon="12.23228">
        <ele>432.629332</ele>
        <time>2022-09-13T01:40:11.984Z</time>
      </trkpt>
      <trkpt lat="48.06061" lon="12.23237">
        <ele>432.433181</ele>
        <time>2022-09-13T01:40:13.623Z</time>
      </trkpt>
      <trkpt lat="48.06069" lon="12.23273">
        <ele>431.904444</ele>
        <time>2022-09-13T01:40:20.042Z</time>
      </trkpt>
      <trkpt lat="48.06079" lon="12.23315">
        <ele>432.036053</ele>
        <time>2022-09-13T01:40:28.798Z</time>
      </trkpt>
      <trkpt lat="48.0608" lon="12.23319">
        <ele>432.047044</ele>
        <time>2022-09-13T01:40:29.569Z</time>
      </trkpt>
      <trkpt lat="48.06084" lon="12.23345">
        <ele>432.1251</ele>
        <time>2022-09-13T01:40:35.183Z</time>
      </trkpt>
      <trkpt lat="48.06085" lon="12.23354">
        <ele>432.151794</ele>
        <time>2022-09-13T01:40:37.458Z</time>
      </trkpt>
      <trkpt lat="48.06086" lon="12.23365">
        <ele>432.184118</ele>
        <time>2022-09-13T01:40:40.143Z</time>
      </trkpt>
      <trkpt lat="48.06108" lon="12.23347">
        <ele>432.291563</ele>
        <time>2022-09-13T01:40:48.931Z</time>
      </trkpt>
      <trkpt lat="48.06149" lon="12.23311">
        <ele>432.496509</ele>
        <time>2022-09-13T01:41:03.594Z</time>
      </trkpt>
      <trkpt lat="48.06176" lon="12.23292">
        <ele>432.624891</ele>
        <time>2022-09-13T01:41:12.050Z</time>
      </trkpt>
      <trkpt lat="48.06194" lon="12.23271">
        <ele>432.702199</ele>
        <time>2022-09-13T01:41:18.376Z</time>
      </trkpt>
      <trkpt lat="48.06219" lon="12.23247">
        <ele>432.784974</ele>
        <time>2022-09-13T01:41:26.724Z</time>
      </trkpt>
      <trkpt lat="48.06222" lon="12.23244">
        <ele>432.794886</ele>
        <time>2022-09-13T01:41:27.732Z</time>
      </trkpt>
      <trkpt lat="48.06244" lon="12.23255">
        <ele>432.861393</ele>
        <time>2022-09-13T01:41:34.629Z</time>
      </trkpt>
      <trkpt lat="48.06255" lon="12.23248">
        <ele>432.893236</ele>
        <time>2022-09-13T01:41:37.615Z</time>
      </trkpt>
      <trkpt lat="48.06256" lon="12.23207">
        <ele>432.969642</ele>
        <time>2022-09-13T01:41:45.337Z</time>
      </trkpt>
      <trkpt lat="48.06253" lon="12.23195">
        <ele>432.993004</ele>
        <time>2022-09-13T01:41:47.574Z</time>
      </trkpt>
      <trkpt lat="48.06189" lon="12.23047">
        <ele>433.329199</ele>
        <time>2022-09-13T01:42:22.846Z</time>
      </trkpt>
      <trkpt lat="48.06176" lon="12.23012">
        <ele>433.406432</ele>
        <time>2022-09-13T01:42:31.691Z</time>
      </trkpt>
      <trkpt lat="48.06161" lon="12.22957">
        <ele>433.52146</ele>
        <time>2022-09-13T01:42:43.232Z</time>
      </trkpt>
      <trkpt lat="48.06162" lon="12.22942">
        <ele>433.549802</ele>
        <time>2022-09-13T01:42:45.675Z</time>
      </trkpt>
      <trkpt lat="48.06162" lon="12.22929">
        <ele>433.575791</ele>
        <time>2022-09-13T01:42:47.992Z</time>
      </trkpt>
      <trkpt lat="48.0616" lon="12.22867">
        <ele>433.631092</ele>
        <time>2022-09-13T01:42:58.197Z</time>
      </trkpt>
      <trkpt lat="48.06151" lon="12.22815">
        <ele>433.086818</ele>
        <time>2022-09-13T01:43:06.700Z</time>
      </trkpt>
      <trkpt lat="48.06185" lon="12.22783">
        <ele>432.475802</ele>
        <time>2022-09-13T01:43:15.987Z</time>
      </trkpt>
      <trkpt lat="48.06207" lon="12.22755">
        <ele>432.048641</ele>
        <time>2022-09-13T01:43:22.145Z</time>
      </trkpt>
      <trkpt lat="48.06232" lon="12.22722">
        <ele>431.541492</ele>
        <time>2022-09-13T01:43:29.276Z</time>
      </trkpt>
      <trkpt lat="48.06234" lon="12.22708">
        <ele>431.393213</ele>
        <time>2022-09-13T01:43:31.360Z</time>
      </trkpt>
      <trkpt lat="48.06235" lon="12.22697">
        <ele>431.287675</ele>
        <time>2022-09-13T01:43:32.773Z</time>
      </trkpt>
      <trkpt lat="48.06243" lon="12.22691">
        <ele>431.151305</ele>
        <time>2022-09-13T01:43:34.610Z</time>
      </trkpt>
      <trkpt lat="48.06241" lon="12.2268">
        <ele>431.035519</ele>
        <time>2022-09-13T01:43:36.151Z</time>
      </trkpt>
      <trkpt lat="48.06231" lon="12.22681">
        <ele>430.919812</ele>
        <time>2022-09-13T01:43:38.281Z</time>
      </trkpt>
      <trkpt lat="48.06187" lon="12.22627">
        <ele>430.435015</ele>
        <time>2022-09-13T01:43:50.352Z</time>
      </trkpt>
      <trkpt lat="48.06182" lon="12.22619">
        <ele>430.369695</ele>
        <time>2022-09-13T01:43:52.050Z</time>
      </trkpt>
      <trkpt lat="48.06175" lon="12.22612">
        <ele>430.301312</ele>
        <time>2022-09-13T01:43:53.991Z</time>
      </trkpt>
      <trkpt lat="48.06135" lon="12.22562">
        <ele>429.853331</ele>
        <time>2022-09-13T01:44:07.664Z</time>
      </trkpt>
      <trkpt lat="48.06109" lon="12.22533">
        <ele>429.582455</ele>
        <time>2022-09-13T01:44:16.845Z</time>
      </trkpt>
      <trkpt lat="48.061" lon="12.22522">
        <ele>429.480599</ele>
        <time>2022-09-13T01:44:20.487Z</time>
      </trkpt>
      <trkpt lat="48.06088" lon="12.22497">
        <ele>429.976438</ele>
        <time>2022-09-13T01:44:26.762Z</time>
      </trkpt>
      <trkpt lat="48.06089" lon="12.22433">
        <ele>431.469163</ele>
        <time>2022-09-13T01:44:42.933Z</time>
      </trkpt>
      <trkpt lat="48.06082" lon="12.22304">
        <ele>434.477964</ele>
        <time>2022-09-13T01:45:18.094Z</time>
      </trkpt>
      <trkpt lat="48.06078" lon="12.22247">
        <ele>436.084884</ele>
        <time>2022-09-13T01:45:40.928Z</time>
      </trkpt>
      <trkpt lat="48.06078" lon="12.22224">
        <ele>437.751305</ele>
        <time>2022-09-13T01:45:52.278Z</time>
      </trkpt>
      <trkpt lat="48.06061" lon="12.22095">
        <ele>447.272019</ele>
        <time>2022-09-13T01:46:57.268Z</time>
      </trkpt>
      <trkpt lat="48.06064" lon="12.22048">
        <ele>450.727692</ele>
        <time>2022-09-13T01:47:25.803Z</time>
      </trkpt>
      <trkpt lat="48.06064" lon="12.22039">
        <ele>451.363933</ele>
        <time>2022-09-13T01:47:30.780Z</time>
      </trkpt>
      <trkpt lat="48.06076" lon="12.21947">
        <ele>458.725583</ele>
        <time>2022-09-13T01:48:30.409Z</time>
      </trkpt>
      <trkpt lat="48.06075" lon="12.21904">
        <ele>462.398671</ele>
        <time>2022-09-13T01:48:58.874Z</time>
      </trkpt>
      <trkpt lat="48.06082" lon="12.21874">
        <ele>465.106284</ele>
        <time>2022-09-13T01:49:19.292Z</time>
      </trkpt>
      <trkpt lat="48.06107" lon="12.21804">
        <ele>471.871522</ele>
        <time>2022-09-13T01:50:09.751Z</time>
      </trkpt>
      <trkpt lat="48.0611" lon="12.21783">
        <ele>473.742118</ele>
        <time>2022-09-13T01:50:21.566Z</time>
      </trkpt>
      <trkpt lat="48.06123" lon="12.21692">
        <ele>479.550487</ele>
        <time>2022-09-13T01:51:07.775Z</time>
      </trkpt>
      <trkpt lat="48.06131" lon="12.21631">
        <ele>481.495213</ele>
        <time>2022-09-13T01:51:31.958Z</time>
      </trkpt>
      <trkpt lat="48.06132" lon="12.21583">
        <ele>482.978929</ele>
        <time>2022-09-13T01:51:47.640Z</time>
      </trkpt>
      <trkpt lat="48.06118" lon="12.21475">
        <ele>486.414009</ele>
        <time>2022-09-13T01:52:14.224Z</time>
      </trkpt>
      <trkpt lat="48.06114" lon="12.21414">
        <ele>486.535904</ele>
        <time>2022-09-13T01:52:24.284Z</time>
      </trkpt>
      <trkpt lat="48.06122" lon="12.21344">
        <ele>486.304201</ele>
        <time>2022-09-13T01:52:35.156Z</time>
      </trkpt>
      <trkpt lat="48.06133" lon="12.21283">
        <ele>486.099751</ele>
        <time>2022-09-13T01:52:44.697Z</time>
      </trkpt>
      <trkpt lat="48.06138" lon="12.21188">
        <ele>485.86716</ele>
        <time>2022-09-13T01:53:00.061Z</time>
      </trkpt>
      <trkpt lat="48.06141" lon="12.21056">
        <ele>486.284894</ele>
        <time>2022-09-13T01:53:24.579Z</time>
      </trkpt>
      <trkpt lat="48.06151" lon="12.21">
        <ele>486.469734</ele>
        <time>2022-09-13T01:53:36.311Z</time>
      </trkpt>
      <trkpt lat="48.06176" lon="12.20944">
        <ele>486.68343</ele>
        <time>2022-09-13T01:53:50.826Z</time>
      </trkpt>
      <trkpt lat="48.06182" lon="12.20924">
        <ele>486.859664</ele>
        <time>2022-09-13T01:53:55.789Z</time>
      </trkpt>
      <trkpt lat="48.06185" lon="12.20912">
        <ele>486.96032</ele>
        <time>2022-09-13T01:53:59.363Z</time>
      </trkpt>
      <trkpt lat="48.06174" lon="12.20896">
        <ele>487.144699</ele>
        <time>2022-09-13T01:54:05.939Z</time>
      </trkpt>
      <trkpt lat="48.06168" lon="12.20878">
        <ele>487.300563</ele>
        <time>2022-09-13T01:54:11.504Z</time>
      </trkpt>
      <trkpt lat="48.06161" lon="12.20861">
        <ele>487.456187</ele>
        <time>2022-09-13T01:54:17.098Z</time>
      </trkpt>
      <trkpt lat="48.06156" lon="12.20859">
        <ele>487.521943</ele>
        <time>2022-09-13T01:54:19.004Z</time>
      </trkpt>
      <trkpt lat="48.06149" lon="12.20857">
        <ele>487.597533</ele>
        <time>2022-09-13T01:54:21.072Z</time>
      </trkpt>
      <trkpt lat="48.06151" lon="12.20827">
        <ele>487.834801</ele>
        <time>2022-09-13T01:54:27.928Z</time>
      </trkpt>
      <trkpt lat="48.06171" lon="12.20775">
        <ele>488.306916</ele>
        <time>2022-09-13T01:54:41.012Z</time>
      </trkpt>
      <trkpt lat="48.06183" lon="12.20728">
        <ele>488.706</ele>
        <time>2022-09-13T01:54:51.338Z</time>
      </trkpt>
      <trkpt lat="48.06215" lon="12.20587">
        <ele>489.319838</ele>
        <time>2022-09-13T01:55:21.242Z</time>
      </trkpt>
      <trkpt lat="48.06273" lon="12.20316">
        <ele>490.236449</ele>
        <time>2022-09-13T01:56:15.392Z</time>
      </trkpt>
      <trkpt lat="48.06266" lon="12.20286">
        <ele>490.322345</ele>
        <time>2022-09-13T01:56:21.024Z</time>
      </trkpt>
      <trkpt lat="48.06268" lon="12.20272">
        <ele>490.361018</ele>
        <time>2022-09-13T01:56:23.840Z</time>
      </trkpt>
      <trkpt lat="48.06272" lon="12.20261">
        <ele>490.394579</ele>
        <time>2022-09-13T01:56:26.255Z</time>
      </trkpt>
      <trkpt lat="48.06283" lon="12.20256">
        <ele>490.440363</ele>
        <time>2022-09-13T01:56:29.433Z</time>
      </trkpt>
      <trkpt lat="48.06291" lon="12.20246">
        <ele>490.483541</ele>
        <time>2022-09-13T01:56:32.633Z</time>
      </trkpt>
      <trkpt lat="48.06294" lon="12.20238">
        <ele>490.509083</ele>
        <time>2022-09-13T01:56:34.543Z</time>
      </trkpt>
      <trkpt lat="48.06301" lon="12.20175">
        <ele>490.847511</ele>
        <time>2022-09-13T01:56:47.274Z</time>
      </trkpt>
      <trkpt lat="48.06298" lon="12.20138">
        <ele>491.082411</ele>
        <time>2022-09-13T01:56:55.040Z</time>
      </trkpt>
      <trkpt lat="48.06285" lon="12.20103">
        <ele>491.329875</ele>
        <time>2022-09-13T01:57:03.322Z</time>
      </trkpt>
      <trkpt lat="48.06261" lon="12.20054">
        <ele>491.71127</ele>
        <time>2022-09-13T01:57:16.844Z</time>
      </trkpt>
      <trkpt lat="48.06148" lon="12.19851">
        <ele>492.638616</ele>
        <time>2022-09-13T01:58:11.859Z</time>
      </trkpt>
      <trkpt lat="48.06144" lon="12.19842">
        <ele>492.664806</ele>
        <time>2022-09-13T01:58:13.837Z</time>
      </trkpt>
      <trkpt lat="48.06122" lon="12.1979">
        <ele>492.804323</ele>
        <time>2022-09-13T01:58:23.808Z</time>
      </trkpt>
      <trkpt lat="48.06064" lon="12.19697">
        <ele>491.714978</ele>
        <time>2022-09-13T01:58:42.873Z</time>
      </trkpt>
      <trkpt lat="48.06" lon="12.19618">
        <ele>490.467313</ele>
        <time>2022-09-13T01:59:00.417Z</time>
      </trkpt>
      <trkpt lat="48.05957" lon="12.19568">
        <ele>489.913713</ele>
        <time>2022-09-13T01:59:12.140Z</time>
      </trkpt>
      <trkpt lat="48.05891" lon="12.19446">
        <ele>489.202565</ele>
        <time>2022-09-13T01:59:36.610Z</time>
      </trkpt>
      <trkpt lat="48.05831" lon="12.19281">
        <ele>490.166223</ele>
        <time>2022-09-13T02:00:14.596Z</time>
      </trkpt>
      <trkpt lat="48.05808" lon="12.19152">
        <ele>491.513664</ele>
        <time>2022-09-13T02:00:47.703Z</time>
      </trkpt>
      <trkpt lat="48.05797" lon="12.1899">
        <ele>493.615798</ele>
        <time>2022-09-13T02:01:31.037Z</time>
      </trkpt>
      <trkpt lat="48.05795" lon="12.18938">
        <ele>494.294421</ele>
        <time>2022-09-13T02:01:43.893Z</time>
      </trkpt>
      <trkpt lat="48.0578" lon="12.18892">
        <ele>494.968189</ele>
        <time>2022-09-13T02:01:55.063Z</time>
      </trkpt>
      <trkpt lat="48.05768" lon="12.18868">
        <ele>495.110032</ele>
        <time>2022-09-13T02:02:00.707Z</time>
      </trkpt>
      <trkpt lat="48.05745" lon="12.18839">
        <ele>494.979128</ele>
        <time>2022-09-13T02:02:08.536Z</time>
      </trkpt>
      <trkpt lat="48.05698" lon="12.18789">
        <ele>494.723521</ele>
        <time>2022-09-13T02:02:22.477Z</time>
      </trkpt>
      <trkpt lat="48.05671" lon="12.18751">
        <ele>494.561959</ele>
        <time>2022-09-13T02:02:31.457Z</time>
      </trkpt>
      <trkpt lat="48.05671" lon="12.18735">
        <ele>494.514225</ele>
        <time>2022-09-13T02:02:34.057Z</time>
      </trkpt>
      <trkpt lat="48.05671" lon="12.1873">
        <ele>494.499191</ele>
        <time>2022-09-13T02:02:34.901Z</time>
      </trkpt>
      <trkpt lat="48.05671" lon="12.18711">
        <ele>494.44378</ele>
        <time>2022-09-13T02:02:37.869Z</time>
      </trkpt>
      <trkpt lat="48.05671" lon="12.18684">
        <ele>494.364801</ele>
        <time>2022-09-13T02:02:42.191Z</time>
      </trkpt>
      <trkpt lat="48.05666" lon="12.18659">
        <ele>494.032136</ele>
        <time>2022-09-13T02:02:46.322Z</time>
      </trkpt>
      <trkpt lat="48.05611" lon="12.18645">
        <ele>492.978118</ele>
        <time>2022-09-13T02:02:58.169Z</time>
      </trkpt>
      <trkpt lat="48.05596" lon="12.18641">
        <ele>492.691107</ele>
        <time>2022-09-13T02:03:01.338Z</time>
      </trkpt>
      <trkpt lat="48.05593" lon="12.1864">
        <ele>492.647293</ele>
        <time>2022-09-13T02:03:01.843Z</time>
      </trkpt>
      <trkpt lat="48.0552" lon="12.18635">
        <ele>491.265745</ele>
        <time>2022-09-13T02:03:17.249Z</time>
      </trkpt>
      <trkpt lat="48.05482" lon="12.18636">
        <ele>490.373012</ele>
        <time>2022-09-13T02:03:25.137Z</time>
      </trkpt>
      <trkpt lat="48.05462" lon="12.18634">
        <ele>489.83355</ele>
        <time>2022-09-13T02:03:29.143Z</time>
      </trkpt>
      <trkpt lat="48.05427" lon="12.18611">
        <ele>488.810824</ele>
        <time>2022-09-13T02:03:36.773Z</time>
      </trkpt>
      <trkpt lat="48.05372" lon="12.18557">
        <ele>487.039381</ele>
        <time>2022-09-13T02:03:49.623Z</time>
      </trkpt>
      <trkpt lat="48.05331" lon="12.18513">
        <ele>485.927649</ele>
        <time>2022-09-13T02:03:59.746Z</time>
      </trkpt>
      <trkpt lat="48.05325" lon="12.18508">
        <ele>485.838648</ele>
        <time>2022-09-13T02:04:01.181Z</time>
      </trkpt>
      <trkpt lat="48.05261" lon="12.18453">
        <ele>484.874813</ele>
        <time>2022-09-13T02:04:17.948Z</time>
      </trkpt>
      <trkpt lat="48.05205" lon="12.1841">
        <ele>484.052156</ele>
        <time>2022-09-13T02:04:33.391Z</time>
      </trkpt>
      <trkpt lat="48.05216" lon="12.18351">
        <ele>483.330322</ele>
        <time>2022-09-13T02:04:43.272Z</time>
      </trkpt>
      <trkpt lat="48.05246" lon="12.18212">
        <ele>481.211341</ele>
        <time>2022-09-13T02:05:05.084Z</time>
      </trkpt>
      <trkpt lat="48.05244" lon="12.18198">
        <ele>481.004545</ele>
        <time>2022-09-13T02:05:06.919Z</time>
      </trkpt>
      <trkpt lat="48.05209" lon="12.18106">
        <ele>479.129794</ele>
        <time>2022-09-13T02:05:20.278Z</time>
      </trkpt>
      <trkpt lat="48.052" lon="12.18043">
        <ele>477.514312</ele>
        <time>2022-09-13T02:05:28.179Z</time>
      </trkpt>
      <trkpt lat="48.05201" lon="12.17981">
        <ele>475.953858</ele>
        <time>2022-09-13T02:05:35.813Z</time>
      </trkpt>
      <trkpt lat="48.05203" lon="12.17948">
        <ele>475.106379</ele>
        <time>2022-09-13T02:05:40.100Z</time>
      </trkpt>
      <trkpt lat="48.05208" lon="12.1784">
        <ele>472.921152</ele>
        <time>2022-09-13T02:05:54.265Z</time>
      </trkpt>
      <trkpt lat="48.05213" lon="12.17774">
        <ele>472.431225</ele>
        <time>2022-09-13T02:06:03.747Z</time>
      </trkpt>
      <trkpt lat="48.05231" lon="12.17738">
        <ele>472.098</ele>
        <time>2022-09-13T02:06:11.221Z</time>
      </trkpt>
      <trkpt lat="48.05247" lon="12.17718">
        <ele>471.87201</ele>
        <time>2022-09-13T02:06:16.679Z</time>
      </trkpt>
      <trkpt lat="48.05261" lon="12.17684">
        <ele>471.576497</ele>
        <time>2022-09-13T02:06:23.556Z</time>
      </trkpt>
      <trkpt lat="48.05272" lon="12.17576">
        <ele>470.876889</ele>
        <time>2022-09-13T02:06:42.333Z</time>
      </trkpt>
      <trkpt lat="48.05278" lon="12.17544">
        <ele>470.700533</ele>
        <time>2022-09-13T02:06:47.954Z</time>
      </trkpt>
      <trkpt lat="48.0528" lon="12.17532">
        <ele>470.632179</ele>
        <time>2022-09-13T02:06:50.134Z</time>
      </trkpt>
      <trkpt lat="48.05297" lon="12.17446">
        <ele>470.154335</ele>
        <time>2022-09-13T02:07:04.027Z</time>
      </trkpt>
      <trkpt lat="48.05318" lon="12.17345">
        <ele>469.753679</ele>
        <time>2022-09-13T02:07:19.772Z</time>
      </trkpt>
      <trkpt lat="48.05324" lon="12.1732">
        <ele>469.784999</ele>
        <time>2022-09-13T02:07:23.603Z</time>
      </trkpt>
      <trkpt lat="48.05325" lon="12.17313">
        <ele>469.795071</ele>
        <time>2022-09-13T02:07:24.831Z</time>
      </trkpt>
      <trkpt lat="48.05345" lon="12.17251">
        <ele>469.878199</ele>
        <time>2022-09-13T02:07:35.684Z</time>
      </trkpt>
      <trkpt lat="48.054" lon="12.17153">
        <ele>470.03396</ele>
        <time>2022-09-13T02:08:02.037Z</time>
      </trkpt>
      <trkpt lat="48.05401" lon="12.17138">
        <ele>470.067973</ele>
        <time>2022-09-13T02:08:05.693Z</time>
      </trkpt>
      <trkpt lat="48.0539" lon="12.17078">
        <ele>471.166633</ele>
        <time>2022-09-13T02:08:21.410Z</time>
      </trkpt>
      <trkpt lat="48.05404" lon="12.17025">
        <ele>472.151241</ele>
        <time>2022-09-13T02:08:36.713Z</time>
      </trkpt>
      <trkpt lat="48.05445" lon="12.16807">
        <ele>475.67746</ele>
        <time>2022-09-13T02:09:39.293Z</time>
      </trkpt>
      <trkpt lat="48.05463" lon="12.1674">
        <ele>476.513619</ele>
        <time>2022-09-13T02:09:56.554Z</time>
      </trkpt>
      <trkpt lat="48.05469" lon="12.16708">
        <ele>476.892826</ele>
        <time>2022-09-13T02:10:03.712Z</time>
      </trkpt>
      <trkpt lat="48.05468" lon="12.16669">
        <ele>477.348116</ele>
        <time>2022-09-13T02:10:11.989Z</time>
      </trkpt>
      <trkpt lat="48.05471" lon="12.16645">
        <ele>477.629869</ele>
        <time>2022-09-13T02:10:16.982Z</time>
      </trkpt>
      <trkpt lat="48.05501" lon="12.16577">
        <ele>478.054796</ele>
        <time>2022-09-13T02:10:32.132Z</time>
      </trkpt>
      <trkpt lat="48.05509" lon="12.16566">
        <ele>478.10165</ele>
        <time>2022-09-13T02:10:35.231Z</time>
      </trkpt>
      <trkpt lat="48.05536" lon="12.16535">
        <ele>478.243594</ele>
        <time>2022-09-13T02:10:44.890Z</time>
      </trkpt>
      <trkpt lat="48.05572" lon="12.16496">
        <ele>478.428051</ele>
        <time>2022-09-13T02:10:58.040Z</time>
      </trkpt>
      <trkpt lat="48.05592" lon="12.16483">
        <ele>478.518882</ele>
        <time>2022-09-13T02:11:04.331Z</time>
      </trkpt>
      <trkpt lat="48.05589" lon="12.16465">
        <ele>478.572254</ele>
        <time>2022-09-13T02:11:08.182Z</time>
      </trkpt>
      <trkpt lat="48.05595" lon="12.1643">
        <ele>478.692991</ele>
        <time>2022-09-13T02:11:15.104Z</time>
      </trkpt>
      <trkpt lat="48.05601" lon="12.16418">
        <ele>478.763569</ele>
        <time>2022-09-13T02:11:18.053Z</time>
      </trkpt>
      <trkpt lat="48.05653" lon="12.16313">
        <ele>479.392291</ele>
        <time>2022-09-13T02:11:44.031Z</time>
      </trkpt>
      <trkpt lat="48.05672" lon="12.16275">
        <ele>479.623103</ele>
        <time>2022-09-13T02:11:54.055Z</time>
      </trkpt>
      <trkpt lat="48.05684" lon="12.16252">
        <ele>479.765419</ele>
        <time>2022-09-13T02:12:00.201Z</time>
      </trkpt>
      <trkpt lat="48.05701" lon="12.16222">
        <ele>479.950028</ele>
        <time>2022-09-13T02:12:08.332Z</time>
      </trkpt>
      <trkpt lat="48.05717" lon="12.16194">
        <ele>480.056466</ele>
        <time>2022-09-13T02:12:15.644Z</time>
      </trkpt>
      <trkpt lat="48.05731" lon="12.16164">
        <ele>480.164567</ele>
        <time>2022-09-13T02:12:22.985Z</time>
      </trkpt>
      <trkpt lat="48.05739" lon="12.16129">
        <ele>480.271745</ele>
        <time>2022-09-13T02:12:30.197Z</time>
      </trkpt>
      <trkpt lat="48.05747" lon="12.1602">
        <ele>480.590964</ele>
        <time>2022-09-13T02:12:50.804Z</time>
      </trkpt>
      <trkpt lat="48.05748" lon="12.1601">
        <ele>480.619848</ele>
        <time>2022-09-13T02:12:52.626Z</time>
      </trkpt>
      <trkpt lat="48.05758" lon="12.15901">
        <ele>480.526616</ele>
        <time>2022-09-13T02:13:13.280Z</time>
      </trkpt>
      <trkpt lat="48.05768" lon="12.15838">
        <ele>480.350176</ele>
        <time>2022-09-13T02:13:23.793Z</time>
      </trkpt>
      <trkpt lat="48.05792" lon="12.15763">
        <ele>480.122326</ele>
        <time>2022-09-13T02:13:37.011Z</time>
      </trkpt>
      <trkpt lat="48.05795" lon="12.15753">
        <ele>480.092238</ele>
        <time>2022-09-13T02:13:38.725Z</time>
      </trkpt>
      <trkpt lat="48.05803" lon="12.15723">
        <ele>480.004452</ele>
        <time>2022-09-13T02:13:43.864Z</time>
      </trkpt>
      <trkpt lat="48.05811" lon="12.15696">
        <ele>479.950562</ele>
        <time>2022-09-13T02:13:48.593Z</time>
      </trkpt>
      <trkpt lat="48.05819" lon="12.15688">
        <ele>479.927247</ele>
        <time>2022-09-13T02:13:50.888Z</time>
      </trkpt>
      <trkpt lat="48.0582" lon="12.15674">
        <ele>479.904418</ele>
        <time>2022-09-13T02:13:53.203Z</time>
      </trkpt>
      <trkpt lat="48.05818" lon="12.15666">
        <ele>479.889684</ele>
        <time>2022-09-13T02:13:54.663Z</time>
      </trkpt>
      <trkpt lat="48.05817" lon="12.15649">
        <ele>479.861275</ele>
        <time>2022-09-13T02:13:57.444Z</time>
      </trkpt>
      <trkpt lat="48.05812" lon="12.15647">
        <ele>479.848644</ele>
        <time>2022-09-13T02:13:58.717Z</time>
      </trkpt>
      <trkpt lat="48.05809" lon="12.15644">
        <ele>479.838863</ele>
        <time>2022-09-13T02:13:59.690Z</time>
      </trkpt>
      <trkpt lat="48.05853" lon="12.15425">
        <ele>479.917582</ele>
        <time>2022-09-13T02:14:39.728Z</time>
      </trkpt>
      <trkpt lat="48.05888" lon="12.15279">
        <ele>481.020735</ele>
        <time>2022-09-13T02:15:12.568Z</time>
      </trkpt>
      <trkpt lat="48.05893" lon="12.15214">
        <ele>481.525433</ele>
        <time>2022-09-13T02:15:27.678Z</time>
      </trkpt>
      <trkpt lat="48.05875" lon="12.14614">
        <ele>492.891604</ele>
        <time>2022-09-13T02:18:09.518Z</time>
      </trkpt>
      <trkpt lat="48.05866" lon="12.14573">
        <ele>493.868956</ele>
        <time>2022-09-13T02:18:21.608Z</time>
      </trkpt>
      <trkpt lat="48.05872" lon="12.14535">
        <ele>494.774346</ele>
        <time>2022-09-13T02:18:32.950Z</time>
      </trkpt>
      <trkpt lat="48.05873" lon="12.14184">
        <ele>502.699723</ele>
        <time>2022-09-13T02:20:17.847Z</time>
      </trkpt>
      <trkpt lat="48.05914" lon="12.13659">
        <ele>509.230837</ele>
        <time>2022-09-13T02:22:24.172Z</time>
      </trkpt>
      <trkpt lat="48.05929" lon="12.13443">
        <ele>508.989512</ele>
        <time>2022-09-13T02:23:00.862Z</time>
      </trkpt>
      <trkpt lat="48.05935" lon="12.13237">
        <ele>508.274759</ele>
        <time>2022-09-13T02:23:31.702Z</time>
      </trkpt>
      <trkpt lat="48.05974" lon="12.12984">
        <ele>508.268712</ele>
        <time>2022-09-13T02:24:19.340Z</time>
      </trkpt>
      <trkpt lat="48.05979" lon="12.12766">
        <ele>508.277142</ele>
        <time>2022-09-13T02:25:07.826Z</time>
      </trkpt>
      <trkpt lat="48.06001" lon="12.1262">
        <ele>505.511459</ele>
        <time>2022-09-13T02:25:28.234Z</time>
      </trkpt>
      <trkpt lat="48.06007" lon="12.12543">
        <ele>504.035724</ele>
        <time>2022-09-13T02:25:37.400Z</time>
      </trkpt>
      <trkpt lat="48.06016" lon="12.12462">
        <ele>501.022287</ele>
        <time>2022-09-13T02:25:46.775Z</time>
      </trkpt>
      <trkpt lat="48.06056" lon="12.12213">
        <ele>493.240587</ele>
        <time>2022-09-13T02:26:17.694Z</time>
      </trkpt>
      <trkpt lat="48.06062" lon="12.12009">
        <ele>490.477228</ele>
        <time>2022-09-13T02:26:48.683Z</time>
      </trkpt>
      <trkpt lat="48.06079" lon="12.11946">
        <ele>490.819783</ele>
        <time>2022-09-13T02:27:02.280Z</time>
      </trkpt>
      <trkpt lat="48.06106" lon="12.11885">
        <ele>491.187511</ele>
        <time>2022-09-13T02:27:18.075Z</time>
      </trkpt>
      <trkpt lat="48.06129" lon="12.11827">
        <ele>491.524314</ele>
        <time>2022-09-13T02:27:32.854Z</time>
      </trkpt>
      <trkpt lat="48.06138" lon="12.1178">
        <ele>491.76841</ele>
        <time>2022-09-13T02:27:43.212Z</time>
      </trkpt>
      <trkpt lat="48.0615" lon="12.11739">
        <ele>492.082949</ele>
        <time>2022-09-13T02:27:52.822Z</time>
      </trkpt>
      <trkpt lat="48.06162" lon="12.11688">
        <ele>492.478867</ele>
        <time>2022-09-13T02:28:04.482Z</time>
      </trkpt>
      <trkpt lat="48.06184" lon="12.11641">
        <ele>492.899777</ele>
        <time>2022-09-13T02:28:16.948Z</time>
      </trkpt>
      <trkpt lat="48.06211" lon="12.11595">
        <ele>493.343034</ele>
        <time>2022-09-13T02:28:30.084Z</time>
      </trkpt>
      <trkpt lat="48.06235" lon="12.11535">
        <ele>493.828589</ele>
        <time>2022-09-13T02:28:44.763Z</time>
      </trkpt>
      <trkpt lat="48.06244" lon="12.11493">
        <ele>494.055227</ele>
        <time>2022-09-13T02:28:53.468Z</time>
      </trkpt>
      <trkpt lat="48.06248" lon="12.11449">
        <ele>494.28816</ele>
        <time>2022-09-13T02:29:02.326Z</time>
      </trkpt>
      <trkpt lat="48.06246" lon="12.11405">
        <ele>494.516219</ele>
        <time>2022-09-13T02:29:10.984Z</time>
      </trkpt>
      <trkpt lat="48.06207" lon="12.11186">
        <ele>495.299825</ele>
        <time>2022-09-13T02:29:57.941Z</time>
      </trkpt>
      <trkpt lat="48.06196" lon="12.11142">
        <ele>495.365845</ele>
        <time>2022-09-13T02:30:06.729Z</time>
      </trkpt>
      <trkpt lat="48.06181" lon="12.11127">
        <ele>495.403745</ele>
        <time>2022-09-13T02:30:11.583Z</time>
      </trkpt>
      <trkpt lat="48.06179" lon="12.11118">
        <ele>495.416592</ele>
        <time>2022-09-13T02:30:13.291Z</time>
      </trkpt>
      <trkpt lat="48.0618" lon="12.11109">
        <ele>495.429835</ele>
        <time>2022-09-13T02:30:14.870Z</time>
      </trkpt>
      <trkpt lat="48.0618" lon="12.11103">
        <ele>495.437641</ele>
        <time>2022-09-13T02:30:15.783Z</time>
      </trkpt>
      <trkpt lat="48.06191" lon="12.11082">
        <ele>495.474814</ele>
        <time>2022-09-13T02:30:20.246Z</time>
      </trkpt>
      <trkpt lat="48.06197" lon="12.11081">
        <ele>495.488396</ele>
        <time>2022-09-13T02:30:21.940Z</time>
      </trkpt>
      <trkpt lat="48.06218" lon="12.11093">
        <ele>495.52294</ele>
        <time>2022-09-13T02:30:27.132Z</time>
      </trkpt>
      <trkpt lat="48.06367" lon="12.1105">
        <ele>494.513976</ele>
        <time>2022-09-13T02:31:02.880Z</time>
      </trkpt>
      <trkpt lat="48.06371" lon="12.11049">
        <ele>494.489822</ele>
        <time>2022-09-13T02:31:03.751Z</time>
      </trkpt>
      <trkpt lat="48.06492" lon="12.11025">
        <ele>494.693519</ele>
        <time>2022-09-13T02:31:35.859Z</time>
      </trkpt>
      <trkpt lat="48.06597" lon="12.11043">
        <ele>495.363428</ele>
        <time>2022-09-13T02:32:09.017Z</time>
      </trkpt>
      <trkpt lat="48.06627" lon="12.11035">
        <ele>495.818966</ele>
        <time>2022-09-13T02:32:19.062Z</time>
      </trkpt>
      <trkpt lat="48.06734" lon="12.10946">
        <ele>497.649354</ele>
        <time>2022-09-13T02:33:01.413Z</time>
      </trkpt>
      <trkpt lat="48.06787" lon="12.10865">
        <ele>499.134972</ele>
        <time>2022-09-13T02:33:28.434Z</time>
      </trkpt>
      <trkpt lat="48.06838" lon="12.10818">
        <ele>500.316263</ele>
        <time>2022-09-13T02:33:49.780Z</time>
      </trkpt>
      <trkpt lat="48.06881" lon="12.10788">
        <ele>501.228774</ele>
        <time>2022-09-13T02:34:08.097Z</time>
      </trkpt>
      <trkpt lat="48.06928" lon="12.10768">
        <ele>501.886894</ele>
        <time>2022-09-13T02:34:26.448Z</time>
      </trkpt>
      <trkpt lat="48.06962" lon="12.10746">
        <ele>502.380565</ele>
        <time>2022-09-13T02:34:39.266Z</time>
      </trkpt>
      <trkpt lat="48.07026" lon="12.10734">
        <ele>503.258606</ele>
        <time>2022-09-13T02:35:00.283Z</time>
      </trkpt>
      <trkpt lat="48.07132" lon="12.10736">
        <ele>503.232177</ele>
        <time>2022-09-13T02:35:28.155Z</time>
      </trkpt>
      <trkpt lat="48.0716" lon="12.10729">
        <ele>503.087969</ele>
        <time>2022-09-13T02:35:34.693Z</time>
      </trkpt>
      <trkpt lat="48.07242" lon="12.10692">
        <ele>502.9533</ele>
        <time>2022-09-13T02:35:53.834Z</time>
      </trkpt>
      <trkpt lat="48.07272" lon="12.10669">
        <ele>503.584637</ele>
        <time>2022-09-13T02:36:03.169Z</time>
      </trkpt>
      <trkpt lat="48.07294" lon="12.10638">
        <ele>504.140923</ele>
        <time>2022-09-13T02:36:13.196Z</time>
      </trkpt>
      <trkpt lat="48.07321" lon="12.10571">
        <ele>505.111551</ele>
        <time>2022-09-13T02:36:33.651Z</time>
      </trkpt>
      <trkpt lat="48.07327" lon="12.1053">
        <ele>505.634141</ele>
        <time>2022-09-13T02:36:45.394Z</time>
      </trkpt>
      <trkpt lat="48.07412" lon="12.10471">
        <ele>508.667655</ele>
        <time>2022-09-13T02:37:28.955Z</time>
      </trkpt>
      <trkpt lat="48.07497" lon="12.10416">
        <ele>512.071194</ele>
        <time>2022-09-13T02:38:11.674Z</time>
      </trkpt>
      <trkpt lat="48.07551" lon="12.10392">
        <ele>513.165664</ele>
        <time>2022-09-13T02:38:33.710Z</time>
      </trkpt>
      <trkpt lat="48.07765" lon="12.10268">
        <ele>514.887594</ele>
        <time>2022-09-13T02:39:41.287Z</time>
      </trkpt>
      <trkpt lat="48.07845" lon="12.10228">
        <ele>514.879159</ele>
        <time>2022-09-13T02:40:01.884Z</time>
      </trkpt>
      <trkpt lat="48.07849" lon="12.10179">
        <ele>514.973636</ele>
        <time>2022-09-13T02:40:10.065Z</time>
      </trkpt>
      <trkpt lat="48.07863" lon="12.10141">
        <ele>515.079175</ele>
        <time>2022-09-13T02:40:17.260Z</time>
      </trkpt>
      <trkpt lat="48.0787" lon="12.1009">
        <ele>515.206225</ele>
        <time>2022-09-13T02:40:25.837Z</time>
      </trkpt>
      <trkpt lat="48.07886" lon="12.10046">
        <ele>515.325753</ele>
        <time>2022-09-13T02:40:34.822Z</time>
      </trkpt>
      <trkpt lat="48.07943" lon="12.0974">
        <ele>517.277629</ele>
        <time>2022-09-13T02:41:49.444Z</time>
      </trkpt>
      <trkpt lat="48.07961" lon="12.09669">
        <ele>516.739442</ele>
        <time>2022-09-13T02:42:01.546Z</time>
      </trkpt>
      <trkpt lat="48.07989" lon="12.09584">
        <ele>514.817749</ele>
        <time>2022-09-13T02:42:14.714Z</time>
      </trkpt>
      <trkpt lat="48.08013" lon="12.09513">
        <ele>513.216821</ele>
        <time>2022-09-13T02:42:24.605Z</time>
      </trkpt>
      <trkpt lat="48.08031" lon="12.09469">
        <ele>512.174694</ele>
        <time>2022-09-13T02:42:30.867Z</time>
      </trkpt>
      <trkpt lat="48.08055" lon="12.09381">
        <ele>509.606661</ele>
        <time>2022-09-13T02:42:42.200Z</time>
      </trkpt>
      <trkpt lat="48.08054" lon="12.09356">
        <ele>508.929114</ele>
        <time>2022-09-13T02:42:45.048Z</time>
      </trkpt>
      <trkpt lat="48.08055" lon="12.09345">
        <ele>508.631633</ele>
        <time>2022-09-13T02:42:46.426Z</time>
      </trkpt>
      <trkpt lat="48.08069" lon="12.09354">
        <ele>507.998435</ele>
        <time>2022-09-13T02:42:49.370Z</time>
      </trkpt>
      <trkpt lat="48.0807" lon="12.0935">
        <ele>507.875112</ele>
        <time>2022-09-13T02:42:49.895Z</time>
      </trkpt>
      <trkpt lat="48.08122" lon="12.09168">
        <ele>504.085383</ele>
        <time>2022-09-13T02:43:17.126Z</time>
      </trkpt>
      <trkpt lat="48.08143" lon="12.09093">
        <ele>503.378985</ele>
        <time>2022-09-13T02:43:31.358Z</time>
      </trkpt>
      <trkpt lat="48.08144" lon="12.0909">
        <ele>503.350629</ele>
        <time>2022-09-13T02:43:31.886Z</time>
      </trkpt>
      <trkpt lat="48.0815" lon="12.0907">
        <ele>503.169461</ele>
        <time>2022-09-13T02:43:35.192Z</time>
      </trkpt>
      <trkpt lat="48.0817" lon="12.09016">
        <ele>502.628651</ele>
        <time>2022-09-13T02:43:45.005Z</time>
      </trkpt>
      <trkpt lat="48.08204" lon="12.08968">
        <ele>501.714912</ele>
        <time>2022-09-13T02:43:55.236Z</time>
      </trkpt>
      <trkpt lat="48.0819" lon="12.08927">
        <ele>501.059968</ele>
        <time>2022-09-13T02:44:01.614Z</time>
      </trkpt>
      <trkpt lat="48.0818" lon="12.08833">
        <ele>499.695925</ele>
        <time>2022-09-13T02:44:14.576Z</time>
      </trkpt>
      <trkpt lat="48.08168" lon="12.08762">
        <ele>498.637644</ele>
        <time>2022-09-13T02:44:24.646Z</time>
      </trkpt>
      <trkpt lat="48.08157" lon="12.08643">
        <ele>497.411374</ele>
        <time>2022-09-13T02:44:40.788Z</time>
      </trkpt>
      <trkpt lat="48.08154" lon="12.08568">
        <ele>496.650489</ele>
        <time>2022-09-13T02:44:51.774Z</time>
      </trkpt>
      <trkpt lat="48.08146" lon="12.08473">
        <ele>496.086939</ele>
        <time>2022-09-13T02:45:08.168Z</time>
      </trkpt>
      <trkpt lat="48.08146" lon="12.08426">
        <ele>496.554703</ele>
        <time>2022-09-13T02:45:17.491Z</time>
      </trkpt>
      <trkpt lat="48.08158" lon="12.08293">
        <ele>497.865572</ele>
        <time>2022-09-13T02:45:47.505Z</time>
      </trkpt>
      <trkpt lat="48.08155" lon="12.08277">
        <ele>498.021886</ele>
        <time>2022-09-13T02:45:51.610Z</time>
      </trkpt>
      <trkpt lat="48.08134" lon="12.082">
        <ele>499.183959</ele>
        <time>2022-09-13T02:46:14.534Z</time>
      </trkpt>
      <trkpt lat="48.08129" lon="12.08136">
        <ele>500.529454</ele>
        <time>2022-09-13T02:46:33.240Z</time>
      </trkpt>
      <trkpt lat="48.08138" lon="12.08137">
        <ele>500.800236</ele>
        <time>2022-09-13T02:46:37.015Z</time>
      </trkpt>
      <trkpt lat="48.082" lon="12.08137">
        <ele>502.724908</ele>
        <time>2022-09-13T02:47:03.083Z</time>
      </trkpt>
      <trkpt lat="48.08213" lon="12.08065">
        <ele>504.220665</ele>
        <time>2022-09-13T02:47:24.864Z</time>
      </trkpt>
      <trkpt lat="48.08276" lon="12.07907">
        <ele>506.894275</ele>
        <time>2022-09-13T02:48:14.602Z</time>
      </trkpt>
      <trkpt lat="48.0827" lon="12.07822">
        <ele>507.991735</ele>
        <time>2022-09-13T02:48:33.116Z</time>
      </trkpt>
      <trkpt lat="48.08283" lon="12.07775">
        <ele>507.951436</ele>
        <time>2022-09-13T02:48:42.770Z</time>
      </trkpt>
      <trkpt lat="48.08286" lon="12.07724">
        <ele>507.910446</ele>
        <time>2022-09-13T02:48:52.015Z</time>
      </trkpt>
      <trkpt lat="48.08267" lon="12.07626">
        <ele>507.829825</ele>
        <time>2022-09-13T02:49:08.969Z</time>
      </trkpt>
      <trkpt lat="48.08266" lon="12.07585">
        <ele>507.797331</ele>
        <time>2022-09-13T02:49:20.303Z</time>
      </trkpt>
      <trkpt lat="48.08283" lon="12.07457">
        <ele>507.030458</ele>
        <time>2022-09-13T02:49:55.041Z</time>
      </trkpt>
      <trkpt lat="48.08285" lon="12.07364">
        <ele>506.413406</ele>
        <time>2022-09-13T02:50:09.229Z</time>
      </trkpt>
      <trkpt lat="48.08297" lon="12.07297">
        <ele>506.024124</ele>
        <time>2022-09-13T02:50:20.214Z</time>
      </trkpt>
      <trkpt lat="48.08312" lon="12.07219">
        <ele>506.098697</ele>
        <time>2022-09-13T02:50:34.170Z</time>
      </trkpt>
      <trkpt lat="48.08314" lon="12.07181">
        <ele>506.133435</ele>
        <time>2022-09-13T02:50:40.835Z</time>
      </trkpt>
      <trkpt lat="48.08316" lon="12.07148">
        <ele>506.16449</ele>
        <time>2022-09-13T02:50:46.971Z</time>
      </trkpt>
      <trkpt lat="48.08314" lon="12.07101">
        <ele>506.207918</ele>
        <time>2022-09-13T02:50:55.698Z</time>
      </trkpt>
      <trkpt lat="48.08293" lon="12.06954">
        <ele>506.948786</ele>
        <time>2022-09-13T02:51:27.491Z</time>
      </trkpt>
      <trkpt lat="48.08284" lon="12.06849">
        <ele>507.756645</ele>
        <time>2022-09-13T02:51:51.032Z</time>
      </trkpt>
      <trkpt lat="48.0825" lon="12.06578">
        <ele>509.355965</ele>
        <time>2022-09-13T02:52:49.583Z</time>
      </trkpt>
      <trkpt lat="48.08236" lon="12.06355">
        <ele>509.25217</ele>
        <time>2022-09-13T02:53:28.999Z</time>
      </trkpt>
      <trkpt lat="48.08217" lon="12.06273">
        <ele>508.998839</ele>
        <time>2022-09-13T02:53:42.762Z</time>
      </trkpt>
      <trkpt lat="48.08194" lon="12.06241">
        <ele>508.775659</ele>
        <time>2022-09-13T02:53:49.984Z</time>
      </trkpt>
      <trkpt lat="48.08163" lon="12.06215">
        <ele>508.409908</ele>
        <time>2022-09-13T02:53:57.767Z</time>
      </trkpt>
      <trkpt lat="48.08145" lon="12.06173">
        <ele>508.057799</ele>
        <time>2022-09-13T02:54:05.099Z</time>
      </trkpt>
      <trkpt lat="48.08154" lon="12.06107">
        <ele>507.584353</ele>
        <time>2022-09-13T02:54:15.211Z</time>
      </trkpt>
      <trkpt lat="48.08155" lon="12.06105">
        <ele>507.572722</ele>
        <time>2022-09-13T02:54:15.484Z</time>
      </trkpt>
      <trkpt lat="48.08158" lon="12.06077">
        <ele>507.373358</ele>
        <time>2022-09-13T02:54:20.107Z</time>
      </trkpt>
      <trkpt lat="48.08151" lon="12.06076">
        <ele>507.298952</ele>
        <time>2022-09-13T02:54:21.800Z</time>
      </trkpt>
      <trkpt lat="48.0815" lon="12.06035">
        <ele>507.046582</ele>
        <time>2022-09-13T02:54:28.362Z</time>
      </trkpt>
      <trkpt lat="48.0815" lon="12.05966">
        <ele>507.241582</ele>
        <time>2022-09-13T02:54:40.127Z</time>
      </trkpt>
      <trkpt lat="48.0815" lon="12.05959">
        <ele>507.259917</ele>
        <time>2022-09-13T02:54:41.359Z</time>
      </trkpt>
      <trkpt lat="48.08149" lon="12.05937">
        <ele>507.323895</ele>
        <time>2022-09-13T02:54:45.504Z</time>
      </trkpt>
      <trkpt lat="48.08148" lon="12.05907">
        <ele>507.40687</ele>
        <time>2022-09-13T02:54:51.131Z</time>
      </trkpt>
      <trkpt lat="48.08156" lon="12.0589">
        <ele>507.465681</ele>
        <time>2022-09-13T02:54:55.105Z</time>
      </trkpt>
      <trkpt lat="48.08176" lon="12.05876">
        <ele>507.559169</ele>
        <time>2022-09-13T02:55:01.710Z</time>
      </trkpt>
      <trkpt lat="48.08183" lon="12.05839">
        <ele>507.667761</ele>
        <time>2022-09-13T02:55:09.713Z</time>
      </trkpt>
      <trkpt lat="48.08206" lon="12.05805">
        <ele>507.807834</ele>
        <time>2022-09-13T02:55:20.456Z</time>
      </trkpt>
      <trkpt lat="48.0822" lon="12.05802">
        <ele>507.914788</ele>
        <time>2022-09-13T02:55:25.348Z</time>
      </trkpt>
      <trkpt lat="48.08307" lon="12.05803">
        <ele>508.557638</ele>
        <time>2022-09-13T02:55:53.822Z</time>
      </trkpt>
      <trkpt lat="48.08322" lon="12.05803">
        <ele>508.665151</ele>
        <time>2022-09-13T02:55:57.897Z</time>
      </trkpt>
      <trkpt lat="48.0835" lon="12.05801">
        <ele>508.876694</ele>
        <time>2022-09-13T02:56:06.283Z</time>
      </trkpt>
      <trkpt lat="48.08359" lon="12.05585">
        <ele>508.878148</ele>
        <time>2022-09-13T02:56:43.167Z</time>
      </trkpt>
      <trkpt lat="48.0837" lon="12.05518">
        <ele>508.773817</ele>
        <time>2022-09-13T02:56:53.833Z</time>
      </trkpt>
      <trkpt lat="48.08431" lon="12.05267">
        <ele>509.296713</ele>
        <time>2022-09-13T02:57:44.464Z</time>
      </trkpt>
      <trkpt lat="48.0844" lon="12.05159">
        <ele>509.445887</ele>
        <time>2022-09-13T02:58:07.190Z</time>
      </trkpt>
      <trkpt lat="48.08436" lon="12.0507">
        <ele>509.513752</ele>
        <time>2022-09-13T02:58:24.749Z</time>
      </trkpt>
      <trkpt lat="48.08359" lon="12.04669">
        <ele>508.777117</ele>
        <time>2022-09-13T02:59:31.748Z</time>
      </trkpt>
      <trkpt lat="48.08345" lon="12.0458">
        <ele>509.292549</ele>
        <time>2022-09-13T02:59:50.575Z</time>
      </trkpt>
      <trkpt lat="48.08344" lon="12.0452">
        <ele>509.634558</ele>
        <time>2022-09-13T03:00:04.670Z</time>
      </trkpt>
      <trkpt lat="48.08345" lon="12.04502">
        <ele>509.737702</ele>
        <time>2022-09-13T03:00:09.237Z</time>
      </trkpt>
      <trkpt lat="48.08373" lon="12.04262">
        <ele>510.489431</ele>
        <time>2022-09-13T03:01:01.375Z</time>
      </trkpt>
      <trkpt lat="48.08386" lon="12.04115">
        <ele>509.996037</ele>
        <time>2022-09-13T03:01:23.877Z</time>
      </trkpt>
      <trkpt lat="48.08415" lon="12.03922">
        <ele>507.845831</ele>
        <time>2022-09-13T03:01:51.477Z</time>
      </trkpt>
      <trkpt lat="48.08439" lon="12.03765">
        <ele>507.350292</ele>
        <time>2022-09-13T03:02:17.620Z</time>
      </trkpt>
      <trkpt lat="48.08458" lon="12.03697">
        <ele>507.157643</ele>
        <time>2022-09-13T03:02:30.747Z</time>
      </trkpt>
      <trkpt lat="48.08485" lon="12.036">
        <ele>507.532135</ele>
        <time>2022-09-13T03:02:50.724Z</time>
      </trkpt>
      <trkpt lat="48.0849" lon="12.03586">
        <ele>507.656938</ele>
        <time>2022-09-13T03:02:54.093Z</time>
      </trkpt>
      <trkpt lat="48.08497" lon="12.03557">
        <ele>507.905005</ele>
        <time>2022-09-13T03:03:00.525Z</time>
      </trkpt>
      <trkpt lat="48.08504" lon="12.03462">
        <ele>508.656367</ele>
        <time>2022-09-13T03:03:22.025Z</time>
      </trkpt>
      <trkpt lat="48.08505" lon="12.03453">
        <ele>508.727045</ele>
        <time>2022-09-13T03:03:24.132Z</time>
      </trkpt>
      <trkpt lat="48.08512" lon="12.03454">
        <ele>508.805292</ele>
        <time>2022-09-13T03:03:26.345Z</time>
      </trkpt>
      <trkpt lat="48.08517" lon="12.03404">
        <ele>509.226294</ele>
        <time>2022-09-13T03:03:38.333Z</time>
      </trkpt>
      <trkpt lat="48.08524" lon="12.03378">
        <ele>509.570358</ele>
        <time>2022-09-13T03:03:44.987Z</time>
      </trkpt>
      <trkpt lat="48.08529" lon="12.03367">
        <ele>509.733818</ele>
        <time>2022-09-13T03:03:48.123Z</time>
      </trkpt>
      <trkpt lat="48.08545" lon="12.03349">
        <ele>510.098374</ele>
        <time>2022-09-13T03:03:55.092Z</time>
      </trkpt>
      <trkpt lat="48.08567" lon="12.03335">
        <ele>510.539326</ele>
        <time>2022-09-13T03:04:03.752Z</time>
      </trkpt>
      <trkpt lat="48.08566" lon="12.0333">
        <ele>510.61386</ele>
        <time>2022-09-13T03:04:05.220Z</time>
      </trkpt>
      <trkpt lat="48.08547" lon="12.03273">
        <ele>511.40026</ele>
        <time>2022-09-13T03:04:20.674Z</time>
      </trkpt>
      <trkpt lat="48.08544" lon="12.03159">
        <ele>512.691123</ele>
        <time>2022-09-13T03:04:47.810Z</time>
      </trkpt>
      <trkpt lat="48.08545" lon="12.03132">
        <ele>512.904141</ele>
        <time>2022-09-13T03:04:54.025Z</time>
      </trkpt>
      <trkpt lat="48.0856" lon="12.0311">
        <ele>513.156782</ele>
        <time>2022-09-13T03:05:01.246Z</time>
      </trkpt>
      <trkpt lat="48.08561" lon="12.03099">
        <ele>513.240722</ele>
        <time>2022-09-13T03:05:03.394Z</time>
      </trkpt>
      <trkpt lat="48.0856" lon="12.03089">
        <ele>513.323745</ele>
        <time>2022-09-13T03:05:05.596Z</time>
      </trkpt>
      <trkpt lat="48.08551" lon="12.03015">
        <ele>513.911348</ele>
        <time>2022-09-13T03:05:21.538Z</time>
      </trkpt>
      <trkpt lat="48.08555" lon="12.02998">
        <ele>514.047554</ele>
        <time>2022-09-13T03:05:25.015Z</time>
      </trkpt>
      <trkpt lat="48.08566" lon="12.02989">
        <ele>514.197215</ele>
        <time>2022-09-13T03:05:28.841Z</time>
      </trkpt>
      <trkpt lat="48.0858" lon="12.02984">
        <ele>514.367253</ele>
        <time>2022-09-13T03:05:33.467Z</time>
      </trkpt>
      <trkpt lat="48.08581" lon="12.02984">
        <ele>514.380351</ele>
        <time>2022-09-13T03:05:33.843Z</time>
      </trkpt>
      <trkpt lat="48.08579" lon="12.02978">
        <ele>514.434751</ele>
        <time>2022-09-13T03:05:35.173Z</time>
      </trkpt>
      <trkpt lat="48.08574" lon="12.02958">
        <ele>514.605315</ele>
        <time>2022-09-13T03:05:39.520Z</time>
      </trkpt>
      <trkpt lat="48.0857" lon="12.02943">
        <ele>514.688547</ele>
        <time>2022-09-13T03:05:42.825Z</time>
      </trkpt>
      <trkpt lat="48.0856" lon="12.02894">
        <ele>514.954914</ele>
        <time>2022-09-13T03:05:53.344Z</time>
      </trkpt>
      <trkpt lat="48.08562" lon="12.02897">
        <ele>514.980272</ele>
        <time>2022-09-13T03:05:54.404Z</time>
      </trkpt>
      <trkpt lat="48.0856" lon="12.02881">
        <ele>515.068691</ele>
        <time>2022-09-13T03:05:57.918Z</time>
      </trkpt>
      <trkpt lat="48.08561" lon="12.02866">
        <ele>515.147829</ele>
        <time>2022-09-13T03:06:01.164Z</time>
      </trkpt>
      <trkpt lat="48.08559" lon="12.02854">
        <ele>515.207157</ele>
        <time>2022-09-13T03:06:03.624Z</time>
      </trkpt>
      <trkpt lat="48.08549" lon="12.02792">
        <ele>515.541835</ele>
        <time>2022-09-13T03:06:17.520Z</time>
      </trkpt>
      <trkpt lat="48.08548" lon="12.02785">
        <ele>515.58162</ele>
        <time>2022-09-13T03:06:19.175Z</time>
      </trkpt>
      <trkpt lat="48.08543" lon="12.02741">
        <ele>515.813031</ele>
        <time>2022-09-13T03:06:27.637Z</time>
      </trkpt>
      <trkpt lat="48.08555" lon="12.02739">
        <ele>515.907522</ele>
        <time>2022-09-13T03:06:31.085Z</time>
      </trkpt>
      <trkpt lat="48.08554" lon="12.02728">
        <ele>515.966026</ele>
        <time>2022-09-13T03:06:33.872Z</time>
      </trkpt>
      <trkpt lat="48.08553" lon="12.02689">
        <ele>515.929268</ele>
        <time>2022-09-13T03:06:43.117Z</time>
      </trkpt>
      <trkpt lat="48.08553" lon="12.02666">
        <ele>515.859905</ele>
        <time>2022-09-13T03:06:47.751Z</time>
      </trkpt>
      <trkpt lat="48.08548" lon="12.02648">
        <ele>515.802395</ele>
        <time>2022-09-13T03:06:51.332Z</time>
      </trkpt>
      <trkpt lat="48.08542" lon="12.02625">
        <ele>515.729701</ele>
        <time>2022-09-13T03:06:56.187Z</time>
      </trkpt>
      <trkpt lat="48.08545" lon="12.02621">
        <ele>515.712292</ele>
        <time>2022-09-13T03:06:57.295Z</time>
      </trkpt>
      <trkpt lat="48.08549" lon="12.0262">
        <ele>515.696423</ele>
        <time>2022-09-13T03:06:58.286Z</time>
      </trkpt>
      <trkpt lat="48.08546" lon="12.02608">
        <ele>515.65889</ele>
        <time>2022-09-13T03:07:00.514Z</time>
      </trkpt>
      <trkpt lat="48.0852" lon="12.02496">
        <ele>515.308006</ele>
        <time>2022-09-13T03:07:19.869Z</time>
      </trkpt>
      <trkpt lat="48.08499" lon="12.02401">
        <ele>514.577983</ele>
        <time>2022-09-13T03:07:34.128Z</time>
      </trkpt>
      <trkpt lat="48.08484" lon="12.02332">
        <ele>513.915819</ele>
        <time>2022-09-13T03:07:44.403Z</time>
      </trkpt>
      <trkpt lat="48.08476" lon="12.02329">
        <ele>513.802033</ele>
        <time>2022-09-13T03:07:46.251Z</time>
      </trkpt>
      <trkpt lat="48.08473" lon="12.02316">
        <ele>513.677221</ele>
        <time>2022-09-13T03:07:48.142Z</time>
      </trkpt>
      <trkpt lat="48.08457" lon="12.02316">
        <ele>513.458332</ele>
        <time>2022-09-13T03:07:51.799Z</time>
      </trkpt>
      <trkpt lat="48.08445" lon="12.02306">
        <ele>513.268944</ele>
        <time>2022-09-13T03:07:54.962Z</time>
      </trkpt>
      <trkpt lat="48.08438" lon="12.02297">
        <ele>513.146205</ele>
        <time>2022-09-13T03:07:56.969Z</time>
      </trkpt>
      <trkpt lat="48.08435" lon="12.02293">
        <ele>513.085756</ele>
        <time>2022-09-13T03:07:57.992Z</time>
      </trkpt>
      <trkpt lat="48.08362" lon="12.02213">
        <ele>513.085411</ele>
        <time>2022-09-13T03:08:20.277Z</time>
      </trkpt>
      <trkpt lat="48.08353" lon="12.02205">
        <ele>513.138132</ele>
        <time>2022-09-13T03:08:23.178Z</time>
      </trkpt>
      <trkpt lat="48.08269" lon="12.02152">
        <ele>513.591286</ele>
        <time>2022-09-13T03:08:52.712Z</time>
      </trkpt>
      <trkpt lat="48.08218" lon="12.02135">
        <ele>514.188813</ele>
        <time>2022-09-13T03:09:10.650Z</time>
      </trkpt>
      <trkpt lat="48.08204" lon="12.0213">
        <ele>514.37453</ele>
        <time>2022-09-13T03:09:15.459Z</time>
      </trkpt>
      <trkpt lat="48.08163" lon="12.02108">
        <ele>514.960006</ele>
        <time>2022-09-13T03:09:30.455Z</time>
      </trkpt>
      <trkpt lat="48.08148" lon="12.0208">
        <ele>515.279021</ele>
        <time>2022-09-13T03:09:38.551Z</time>
      </trkpt>
      <trkpt lat="48.08135" lon="12.02005">
        <ele>515.969323</ele>
        <time>2022-09-13T03:09:55.406Z</time>
      </trkpt>
      <trkpt lat="48.08122" lon="12.01957">
        <ele>516.453452</ele>
        <time>2022-09-13T03:10:05.811Z</time>
      </trkpt>
      <trkpt lat="48.08083" lon="12.01868">
        <ele>517.439614</ele>
        <time>2022-09-13T03:10:26.716Z</time>
      </trkpt>
      <trkpt lat="48.08064" lon="12.01791">
        <ele>518.2077</ele>
        <time>2022-09-13T03:10:44.501Z</time>
      </trkpt>
      <trkpt lat="48.08016" lon="12.0168">
        <ele>521.400989</ele>
        <time>2022-09-13T03:11:22.337Z</time>
      </trkpt>
      <trkpt lat="48.07997" lon="12.01618">
        <ele>523.452517</ele>
        <time>2022-09-13T03:11:45.813Z</time>
      </trkpt>
      <trkpt lat="48.07974" lon="12.01504">
        <ele>526.826056</ele>
        <time>2022-09-13T03:12:29.873Z</time>
      </trkpt>
      <trkpt lat="48.07952" lon="12.01353">
        <ele>529.079524</ele>
        <time>2022-09-13T03:13:17.221Z</time>
      </trkpt>
      <trkpt lat="48.07936" lon="12.01196">
        <ele>529.229759</ele>
        <time>2022-09-13T03:13:41.731Z</time>
      </trkpt>
      <trkpt lat="48.07926" lon="12.01074">
        <ele>526.381127</ele>
        <time>2022-09-13T03:13:56.764Z</time>
      </trkpt>
      <trkpt lat="48.07906" lon="12.00919">
        <ele>523.402236</ele>
        <time>2022-09-13T03:14:16.495Z</time>
      </trkpt>
      <trkpt lat="48.07885" lon="12.00807">
        <ele>521.89551</ele>
        <time>2022-09-13T03:14:32.927Z</time>
      </trkpt>
      <trkpt lat="48.0788" lon="12.00764">
        <ele>521.321008</ele>
        <time>2022-09-13T03:14:40.039Z</time>
      </trkpt>
      <trkpt lat="48.07878" lon="12.00665">
        <ele>521.082399</ele>
        <time>2022-09-13T03:14:58.380Z</time>
      </trkpt>
      <trkpt lat="48.0787" lon="12.00604">
        <ele>521.382243</ele>
        <time>2022-09-13T03:15:11.099Z</time>
      </trkpt>
      <trkpt lat="48.07816" lon="12.00428">
        <ele>522.40663</ele>
        <time>2022-09-13T03:15:52.095Z</time>
      </trkpt>
      <trkpt lat="48.07803" lon="12.00377">
        <ele>522.771855</ele>
        <time>2022-09-13T03:16:03.699Z</time>
      </trkpt>
      <trkpt lat="48.07799" lon="12.00341">
        <ele>523.012557</ele>
        <time>2022-09-13T03:16:11.211Z</time>
      </trkpt>
      <trkpt lat="48.07798" lon="12.00332">
        <ele>523.077078</ele>
        <time>2022-09-13T03:16:13.236Z</time>
      </trkpt>
      <trkpt lat="48.07787" lon="12.00248">
        <ele>523.653252</ele>
        <time>2022-09-13T03:16:30.783Z</time>
      </trkpt>
      <trkpt lat="48.07784" lon="12.00167">
        <ele>524.685902</ele>
        <time>2022-09-13T03:16:47.476Z</time>
      </trkpt>
      <trkpt lat="48.07788" lon="12.00021">
        <ele>527.317459</ele>
        <time>2022-09-13T03:17:24.520Z</time>
      </trkpt>
      <trkpt lat="48.078" lon="11.99915">
        <ele>529.626046</ele>
        <time>2022-09-13T03:17:58.772Z</time>
      </trkpt>
      <trkpt lat="48.07815" lon="11.99838">
        <ele>532.127167</ele>
        <time>2022-09-13T03:18:25.437Z</time>
      </trkpt>
      <trkpt lat="48.07816" lon="11.99762">
        <ele>534.521529</ele>
        <time>2022-09-13T03:18:50.871Z</time>
      </trkpt>
      <trkpt lat="48.07821" lon="11.99737">
        <ele>535.345812</ele>
        <time>2022-09-13T03:19:00.484Z</time>
      </trkpt>
      <trkpt lat="48.07828" lon="11.99725">
        <ele>535.868468</ele>
        <time>2022-09-13T03:19:05.777Z</time>
      </trkpt>
      <trkpt lat="48.07856" lon="11.99712">
        <ele>537.229747</ele>
        <time>2022-09-13T03:19:20.879Z</time>
      </trkpt>
      <trkpt lat="48.07864" lon="11.99702">
        <ele>537.488174</ele>
        <time>2022-09-13T03:19:25.739Z</time>
      </trkpt>
      <trkpt lat="48.07871" lon="11.99681">
        <ele>537.872978</ele>
        <time>2022-09-13T03:19:33.395Z</time>
      </trkpt>
      <trkpt lat="48.07872" lon="11.99644">
        <ele>538.479555</ele>
        <time>2022-09-13T03:19:44.392Z</time>
      </trkpt>
      <trkpt lat="48.07869" lon="11.9959">
        <ele>539.384985</ele>
        <time>2022-09-13T03:19:58.818Z</time>
      </trkpt>
      <trkpt lat="48.07838" lon="11.99535">
        <ele>540.562267</ele>
        <time>2022-09-13T03:20:14.244Z</time>
      </trkpt>
      <trkpt lat="48.07807" lon="11.99468">
        <ele>541.425999</ele>
        <time>2022-09-13T03:20:33.046Z</time>
      </trkpt>
      <trkpt lat="48.07805" lon="11.9944">
        <ele>541.031781</ele>
        <time>2022-09-13T03:20:39.439Z</time>
      </trkpt>
      <trkpt lat="48.07815" lon="11.99402">
        <ele>540.445556</ele>
        <time>2022-09-13T03:20:46.915Z</time>
      </trkpt>
      <trkpt lat="48.0782" lon="11.99372">
        <ele>539.996477</ele>
        <time>2022-09-13T03:20:51.760Z</time>
      </trkpt>
      <trkpt lat="48.07817" lon="11.99331">
        <ele>539.407088</ele>
        <time>2022-09-13T03:20:57.472Z</time>
      </trkpt>
      <trkpt lat="48.07814" lon="11.99313">
        <ele>539.140529</ele>
        <time>2022-09-13T03:20:59.849Z</time>
      </trkpt>
      <trkpt lat="48.07805" lon="11.99252">
        <ele>538.257283</ele>
        <time>2022-09-13T03:21:07.413Z</time>
      </trkpt>
      <trkpt lat="48.07807" lon="11.9923">
        <ele>537.931231</ele>
        <time>2022-09-13T03:21:10.164Z</time>
      </trkpt>
      <trkpt lat="48.07817" lon="11.99165">
        <ele>535.674105</ele>
        <time>2022-09-13T03:21:18.069Z</time>
      </trkpt>
      <trkpt lat="48.07839" lon="11.99057">
        <ele>531.527697</ele>
        <time>2022-09-13T03:21:31.544Z</time>
      </trkpt>
      <trkpt lat="48.07854" lon="11.98995">
        <ele>529.122833</ele>
        <time>2022-09-13T03:21:39.138Z</time>
      </trkpt>
      <trkpt lat="48.07889" lon="11.989">
        <ele>526.531773</ele>
        <time>2022-09-13T03:21:52.185Z</time>
      </trkpt>
      <trkpt lat="48.07942" lon="11.98776">
        <ele>523.856706</ele>
        <time>2022-09-13T03:22:13.029Z</time>
      </trkpt>
      <trkpt lat="48.0795" lon="11.98762">
        <ele>523.519411</ele>
        <time>2022-09-13T03:22:15.883Z</time>
      </trkpt>
      <trkpt lat="48.07962" lon="11.98742">
        <ele>523.022142</ele>
        <time>2022-09-13T03:22:20.156Z</time>
      </trkpt>
      <trkpt lat="48.07964" lon="11.98739">
        <ele>523.004815</ele>
        <time>2022-09-13T03:22:20.808Z</time>
      </trkpt>
      <trkpt lat="48.07961" lon="11.98736">
        <ele>523.000998</ele>
        <time>2022-09-13T03:22:21.633Z</time>
      </trkpt>
      <trkpt lat="48.07956" lon="11.98728">
        <ele>522.992291</ele>
        <time>2022-09-13T03:22:23.554Z</time>
      </trkpt>
      <trkpt lat="48.07947" lon="11.98711">
        <ele>522.976491</ele>
        <time>2022-09-13T03:22:27.106Z</time>
      </trkpt>
      <trkpt lat="48.0798" lon="11.98529">
        <ele>522.838988</ele>
        <time>2022-09-13T03:23:00.761Z</time>
      </trkpt>
      <trkpt lat="48.07984" lon="11.98489">
        <ele>522.81564</ele>
        <time>2022-09-13T03:23:08.497Z</time>
      </trkpt>
      <trkpt lat="48.07957" lon="11.98436">
        <ele>523.123083</ele>
        <time>2022-09-13T03:23:21.454Z</time>
      </trkpt>
      <trkpt lat="48.07948" lon="11.98415">
        <ele>523.240042</ele>
        <time>2022-09-13T03:23:26.567Z</time>
      </trkpt>
      <trkpt lat="48.07953" lon="11.98406">
        <ele>523.29668</ele>
        <time>2022-09-13T03:23:29.059Z</time>
      </trkpt>
      <trkpt lat="48.07964" lon="11.9839">
        <ele>523.40429</ele>
        <time>2022-09-13T03:23:33.759Z</time>
      </trkpt>
      <trkpt lat="48.07973" lon="11.98379">
        <ele>523.485586</ele>
        <time>2022-09-13T03:23:37.431Z</time>
      </trkpt>
      <trkpt lat="48.07877" lon="11.98274">
        <ele>524.375492</ele>
        <time>2022-09-13T03:24:13.801Z</time>
      </trkpt>
      <trkpt lat="48.07837" lon="11.98237">
        <ele>524.786733</ele>
        <time>2022-09-13T03:24:27.654Z</time>
      </trkpt>
      <trkpt lat="48.07754" lon="11.98178">
        <ele>525.578621</ele>
        <time>2022-09-13T03:24:55.220Z</time>
      </trkpt>
      <trkpt lat="48.07737" lon="11.98151">
        <ele>526.189002</ele>
        <time>2022-09-13T03:25:03.735Z</time>
      </trkpt>
      <trkpt lat="48.07729" lon="11.98096">
        <ele>527.256334</ele>
        <time>2022-09-13T03:25:17.489Z</time>
      </trkpt>
      <trkpt lat="48.07716" lon="11.98087">
        <ele>527.66682</ele>
        <time>2022-09-13T03:25:23.127Z</time>
      </trkpt>
      <trkpt lat="48.07698" lon="11.98093">
        <ele>528.189631</ele>
        <time>2022-09-13T03:25:30.384Z</time>
      </trkpt>
      <trkpt lat="48.07675" lon="11.98084">
        <ele>528.872479</ele>
        <time>2022-09-13T03:25:40.472Z</time>
      </trkpt>
      <trkpt lat="48.07551" lon="11.97985">
        <ele>534.390657</ele>
        <time>2022-09-13T03:26:44.997Z</time>
      </trkpt>
      <trkpt lat="48.07516" lon="11.97946">
        <ele>536.522268</ele>
        <time>2022-09-13T03:27:08.347Z</time>
      </trkpt>
      <trkpt lat="48.07478" lon="11.97886">
        <ele>539.20837</ele>
        <time>2022-09-13T03:27:37.395Z</time>
      </trkpt>
      <trkpt lat="48.07456" lon="11.97873">
        <ele>540.446941</ele>
        <time>2022-09-13T03:27:50.074Z</time>
      </trkpt>
      <trkpt lat="48.07451" lon="11.97844">
        <ele>541.56719</ele>
        <time>2022-09-13T03:28:01.253Z</time>
      </trkpt>
      <trkpt lat="48.07448" lon="11.97824">
        <ele>542.296315</ele>
        <time>2022-09-13T03:28:08.210Z</time>
      </trkpt>
      <trkpt lat="48.07454" lon="11.9781">
        <ele>542.907417</ele>
        <time>2022-09-13T03:28:14.661Z</time>
      </trkpt>
      <trkpt lat="48.0745" lon="11.97727">
        <ele>545.943846</ele>
        <time>2022-09-13T03:28:44.851Z</time>
      </trkpt>
      <trkpt lat="48.07456" lon="11.9768">
        <ele>547.708467</ele>
        <time>2022-09-13T03:29:02.657Z</time>
      </trkpt>
      <trkpt lat="48.07492" lon="11.97563">
        <ele>551.858691</ele>
        <time>2022-09-13T03:29:47.092Z</time>
      </trkpt>
      <trkpt lat="48.07503" lon="11.97511">
        <ele>553.460139</ele>
        <time>2022-09-13T03:30:04.956Z</time>
      </trkpt>
      <trkpt lat="48.07512" lon="11.97439">
        <ele>555.650945</ele>
        <time>2022-09-13T03:30:29.020Z</time>
      </trkpt>
      <trkpt lat="48.0751" lon="11.97357">
        <ele>557.852278</ele>
        <time>2022-09-13T03:30:54.507Z</time>
      </trkpt>
      <trkpt lat="48.07508" lon="11.97345">
        <ele>558.094006</ele>
        <time>2022-09-13T03:30:58.705Z</time>
      </trkpt>
      <trkpt lat="48.07513" lon="11.97337">
        <ele>558.326674</ele>
        <time>2022-09-13T03:31:01.989Z</time>
      </trkpt>
      <trkpt lat="48.07512" lon="11.97319">
        <ele>558.682141</ele>
        <time>2022-09-13T03:31:06.989Z</time>
      </trkpt>
      <trkpt lat="48.07511" lon="11.97312">
        <ele>558.828001</ele>
        <time>2022-09-13T03:31:09.025Z</time>
      </trkpt>
      <trkpt lat="48.07511" lon="11.97236">
        <ele>560.368499</ele>
        <time>2022-09-13T03:31:30.654Z</time>
      </trkpt>
      <trkpt lat="48.07515" lon="11.97206">
        <ele>560.989901</ele>
        <time>2022-09-13T03:31:39.151Z</time>
      </trkpt>
      <trkpt lat="48.07526" lon="11.97179">
        <ele>561.608426</ele>
        <time>2022-09-13T03:31:47.633Z</time>
      </trkpt>
      <trkpt lat="48.07537" lon="11.97164">
        <ele>562.083232</ele>
        <time>2022-09-13T03:31:53.671Z</time>
      </trkpt>
      <trkpt lat="48.07535" lon="11.9714">
        <ele>562.565501</ele>
        <time>2022-09-13T03:31:59.715Z</time>
      </trkpt>
      <trkpt lat="48.07535" lon="11.97137">
        <ele>562.641213</ele>
        <time>2022-09-13T03:32:00.591Z</time>
      </trkpt>
      <trkpt lat="48.07534" lon="11.97133">
        <ele>562.725547</ele>
        <time>2022-09-13T03:32:01.598Z</time>
      </trkpt>
      <trkpt lat="48.0753" lon="11.97094">
        <ele>563.008628</ele>
        <time>2022-09-13T03:32:10.619Z</time>
      </trkpt>
      <trkpt lat="48.07529" lon="11.97069">
        <ele>563.179562</ele>
        <time>2022-09-13T03:32:16.536Z</time>
      </trkpt>
      <trkpt lat="48.07528" lon="11.97049">
        <ele>563.309956</ele>
        <time>2022-09-13T03:32:20.737Z</time>
      </trkpt>
      <trkpt lat="48.07527" lon="11.9703">
        <ele>563.436933</ele>
        <time>2022-09-13T03:32:24.898Z</time>
      </trkpt>
      <trkpt lat="48.07525" lon="11.97008">
        <ele>563.577819</ele>
        <time>2022-09-13T03:32:29.187Z</time>
      </trkpt>
      <trkpt lat="48.07522" lon="11.96954">
        <ele>563.935901</ele>
        <time>2022-09-13T03:32:39.611Z</time>
      </trkpt>
      <trkpt lat="48.07517" lon="11.96829">
        <ele>564.739061</ele>
        <time>2022-09-13T03:33:03.789Z</time>
      </trkpt>
      <trkpt lat="48.07515" lon="11.96778">
        <ele>565.040199</ele>
        <time>2022-09-13T03:33:14.255Z</time>
      </trkpt>
      <trkpt lat="48.07514" lon="11.96755">
        <ele>565.171825</ele>
        <time>2022-09-13T03:33:18.874Z</time>
      </trkpt>
      <trkpt lat="48.07513" lon="11.9674">
        <ele>565.261477</ele>
        <time>2022-09-13T03:33:22.001Z</time>
      </trkpt>
      <trkpt lat="48.0751" lon="11.96696">
        <ele>565.521813</ele>
        <time>2022-09-13T03:33:30.986Z</time>
      </trkpt>
      <trkpt lat="48.07505" lon="11.96666">
        <ele>565.69975</ele>
        <time>2022-09-13T03:33:37.235Z</time>
      </trkpt>
      <trkpt lat="48.07502" lon="11.96649">
        <ele>565.800333</ele>
        <time>2022-09-13T03:33:40.797Z</time>
      </trkpt>
      <trkpt lat="48.07496" lon="11.96614">
        <ele>566.015471</ele>
        <time>2022-09-13T03:33:48.480Z</time>
      </trkpt>
      <trkpt lat="48.07491" lon="11.96585">
        <ele>566.310319</ele>
        <time>2022-09-13T03:33:54.859Z</time>
      </trkpt>
      <trkpt lat="48.07485" lon="11.96537">
        <ele>567.076544</ele>
        <time>2022-09-13T03:34:06.196Z</time>
      </trkpt>
      <trkpt lat="48.07482" lon="11.96487">
        <ele>567.870317</ele>
        <time>2022-09-13T03:34:18.700Z</time>
      </trkpt>
      <trkpt lat="48.07483" lon="11.96446">
        <ele>568.509001</ele>
        <time>2022-09-13T03:34:29.415Z</time>
      </trkpt>
      <trkpt lat="48.07484" lon="11.96422">
        <ele>568.890656</ele>
        <time>2022-09-13T03:34:35.936Z</time>
      </trkpt>
      <trkpt lat="48.07486" lon="11.96382">
        <ele>569.506394</ele>
        <time>2022-09-13T03:34:46.730Z</time>
      </trkpt>
      <trkpt lat="48.07491" lon="11.96354">
        <ele>569.97461</ele>
        <time>2022-09-13T03:34:55.060Z</time>
      </trkpt>
      <trkpt lat="48.07485" lon="11.96336">
        <ele>570.291878</ele>
        <time>2022-09-13T03:35:00.681Z</time>
      </trkpt>
      <trkpt lat="48.0748" lon="11.96319">
        <ele>570.521503</ele>
        <time>2022-09-13T03:35:05.558Z</time>
      </trkpt>
      <trkpt lat="48.07475" lon="11.96297">
        <ele>570.818584</ele>
        <time>2022-09-13T03:35:12.241Z</time>
      </trkpt>
      <trkpt lat="48.07462" lon="11.96261">
        <ele>571.315955</ele>
        <time>2022-09-13T03:35:22.944Z</time>
      </trkpt>
      <trkpt lat="48.07439" lon="11.96205">
        <ele>572.130258</ele>
        <time>2022-09-13T03:35:39.988Z</time>
      </trkpt>
      <trkpt lat="48.07432" lon="11.96179">
        <ele>572.488212</ele>
        <time>2022-09-13T03:35:47.180Z</time>
      </trkpt>
      <trkpt lat="48.07426" lon="11.96155">
        <ele>572.806433</ele>
        <time>2022-09-13T03:35:53.279Z</time>
      </trkpt>
      <trkpt lat="48.0741" lon="11.96078">
        <ele>573.549102</ele>
        <time>2022-09-13T03:36:09.501Z</time>
      </trkpt>
      <trkpt lat="48.07398" lon="11.95967">
        <ele>572.234845</ele>
        <time>2022-09-13T03:36:26.353Z</time>
      </trkpt>
      <trkpt lat="48.07384" lon="11.95832">
        <ele>570.645557</ele>
        <time>2022-09-13T03:36:44.374Z</time>
      </trkpt>
      <trkpt lat="48.07383" lon="11.95814">
        <ele>570.486314</ele>
        <time>2022-09-13T03:36:46.890Z</time>
      </trkpt>
      <trkpt lat="48.07382" lon="11.95767">
        <ele>570.259276</ele>
        <time>2022-09-13T03:36:53.344Z</time>
      </trkpt>
      <trkpt lat="48.07382" lon="11.95758">
        <ele>570.211566</ele>
        <time>2022-09-13T03:36:54.753Z</time>
      </trkpt>
      <trkpt lat="48.07385" lon="11.95724">
        <ele>570.04414</ele>
        <time>2022-09-13T03:36:59.762Z</time>
      </trkpt>
      <trkpt lat="48.07386" lon="11.95715">
        <ele>570.003754</ele>
        <time>2022-09-13T03:37:01.015Z</time>
      </trkpt>
      <trkpt lat="48.07389" lon="11.95696">
        <ele>569.904924</ele>
        <time>2022-09-13T03:37:04.059Z</time>
      </trkpt>
      <trkpt lat="48.07398" lon="11.95634">
        <ele>569.598776</ele>
        <time>2022-09-13T03:37:14.565Z</time>
      </trkpt>
      <trkpt lat="48.074" lon="11.9563">
        <ele>569.574488</ele>
        <time>2022-09-13T03:37:15.491Z</time>
      </trkpt>
      <trkpt lat="48.07416" lon="11.95624">
        <ele>569.454408</ele>
        <time>2022-09-13T03:37:20.465Z</time>
      </trkpt>
      <trkpt lat="48.0742" lon="11.95602">
        <ele>569.343499</ele>
        <time>2022-09-13T03:37:24.939Z</time>
      </trkpt>
      <trkpt lat="48.0747" lon="11.95582">
        <ele>569.592495</ele>
        <time>2022-09-13T03:37:42.190Z</time>
      </trkpt>
      <trkpt lat="48.07484" lon="11.95565">
        <ele>569.795739</ele>
        <time>2022-09-13T03:37:48.449Z</time>
      </trkpt>
      <trkpt lat="48.07513" lon="11.95554">
        <ele>570.126877</ele>
        <time>2022-09-13T03:37:59.053Z</time>
      </trkpt>
      <trkpt lat="48.07554" lon="11.9554">
        <ele>570.587223</ele>
        <time>2022-09-13T03:38:13.281Z</time>
      </trkpt>
      <trkpt lat="48.0756" lon="11.95538">
        <ele>570.658538</ele>
        <time>2022-09-13T03:38:15.397Z</time>
      </trkpt>
      <trkpt lat="48.07562" lon="11.95555">
        <ele>570.780884</ele>
        <time>2022-09-13T03:38:19.034Z</time>
      </trkpt>
      <trkpt lat="48.0757" lon="11.95553">
        <ele>570.871064</ele>
        <time>2022-09-13T03:38:21.595Z</time>
      </trkpt>
      <trkpt lat="48.07563" lon="11.95474">
        <ele>570.915609</ele>
        <time>2022-09-13T03:38:37.208Z</time>
      </trkpt>
      <trkpt lat="48.0756" lon="11.95454">
        <ele>570.751372</ele>
        <time>2022-09-13T03:38:40.884Z</time>
      </trkpt>
      <trkpt lat="48.07559" lon="11.95445">
        <ele>570.678934</ele>
        <time>2022-09-13T03:38:42.400Z</time>
      </trkpt>
      <trkpt lat="48.07558" lon="11.95442">
        <ele>570.651103</ele>
        <time>2022-09-13T03:38:42.963Z</time>
      </trkpt>
      <trkpt lat="48.07545" lon="11.95265">
        <ele>569.20541</ele>
        <time>2022-09-13T03:39:08.748Z</time>
      </trkpt>
      <trkpt lat="48.07537" lon="11.95267">
        <ele>569.102249</ele>
        <time>2022-09-13T03:39:10.502Z</time>
      </trkpt>
      <trkpt lat="48.0753" lon="11.95211">
        <ele>568.418326</ele>
        <time>2022-09-13T03:39:18.271Z</time>
      </trkpt>
      <trkpt lat="48.07526" lon="11.95189">
        <ele>568.12737</ele>
        <time>2022-09-13T03:39:21.344Z</time>
      </trkpt>
      <trkpt lat="48.07521" lon="11.9516">
        <ele>567.744355</ele>
        <time>2022-09-13T03:39:25.459Z</time>
      </trkpt>
      <trkpt lat="48.07497" lon="11.95071">
        <ele>566.516568</ele>
        <time>2022-09-13T03:39:38.792Z</time>
      </trkpt>
      <trkpt lat="48.07453" lon="11.94952">
        <ele>565.64133</ele>
        <time>2022-09-13T03:39:59.132Z</time>
      </trkpt>
      <trkpt lat="48.07463" lon="11.94942">
        <ele>565.661798</ele>
        <time>2022-09-13T03:40:02.463Z</time>
      </trkpt>
      <trkpt lat="48.07416" lon="11.94859">
        <ele>565.782499</ele>
        <time>2022-09-13T03:40:23.766Z</time>
      </trkpt>
      <trkpt lat="48.07373" lon="11.94769">
        <ele>566.130197</ele>
        <time>2022-09-13T03:40:47.767Z</time>
      </trkpt>
      <trkpt lat="48.07147" lon="11.9439">
        <ele>570.267615</ele>
        <time>2022-09-13T03:42:38.135Z</time>
      </trkpt>
      <trkpt lat="48.07136" lon="11.94377">
        <ele>570.453804</ele>
        <time>2022-09-13T03:42:42.531Z</time>
      </trkpt>
      <trkpt lat="48.07087" lon="11.94335">
        <ele>571.197958</ele>
        <time>2022-09-13T03:43:01.126Z</time>
      </trkpt>
      <trkpt lat="48.0698" lon="11.94218">
        <ele>573.070183</ele>
        <time>2022-09-13T03:43:45.237Z</time>
      </trkpt>
      <trkpt lat="48.06926" lon="11.94135">
        <ele>574.495648</ele>
        <time>2022-09-13T03:44:12.429Z</time>
      </trkpt>
      <trkpt lat="48.06885" lon="11.94044">
        <ele>575.848247</ele>
        <time>2022-09-13T03:44:39.700Z</time>
      </trkpt>
      <trkpt lat="48.06809" lon="11.93792">
        <ele>578.886537</ele>
        <time>2022-09-13T03:45:45.862Z</time>
      </trkpt>
      <trkpt lat="48.06733" lon="11.93534">
        <ele>578.293002</ele>
        <time>2022-09-13T03:46:33.056Z</time>
      </trkpt>
      <trkpt lat="48.067" lon="11.93327">
        <ele>575.884132</ele>
        <time>2022-09-13T03:47:03.275Z</time>
      </trkpt>
      <trkpt lat="48.06688" lon="11.9324">
        <ele>574.924364</ele>
        <time>2022-09-13T03:47:15.856Z</time>
      </trkpt>
      <trkpt lat="48.06681" lon="11.93132">
        <ele>573.806682</ele>
        <time>2022-09-13T03:47:31.580Z</time>
      </trkpt>
      <trkpt lat="48.06683" lon="11.93052">
        <ele>572.974371</ele>
        <time>2022-09-13T03:47:43.483Z</time>
      </trkpt>
      <trkpt lat="48.06693" lon="11.92969">
        <ele>572.266273</ele>
        <time>2022-09-13T03:47:56.263Z</time>
      </trkpt>
      <trkpt lat="48.0672" lon="11.92832">
        <ele>571.250759</ele>
        <time>2022-09-13T03:48:18.443Z</time>
      </trkpt>
      <trkpt lat="48.06757" lon="11.92725">
        <ele>570.336393</ele>
        <time>2022-09-13T03:48:36.987Z</time>
      </trkpt>
      <trkpt lat="48.06914" lon="11.92244">
        <ele>566.021643</ele>
        <time>2022-09-13T03:49:57.200Z</time>
      </trkpt>
      <trkpt lat="48.06976" lon="11.92024">
        <ele>564.880645</ele>
        <time>2022-09-13T03:50:36.008Z</time>
      </trkpt>
      <trkpt lat="48.07007" lon="11.91878">
        <ele>564.494449</ele>
        <time>2022-09-13T03:51:01.866Z</time>
      </trkpt>
      <trkpt lat="48.07027" lon="11.9175">
        <ele>564.189794</ele>
        <time>2022-09-13T03:51:24.005Z</time>
      </trkpt>
      <trkpt lat="48.07042" lon="11.91612">
        <ele>563.986814</ele>
        <time>2022-09-13T03:51:48.042Z</time>
      </trkpt>
      <trkpt lat="48.07047" lon="11.91357">
        <ele>563.720338</ele>
        <time>2022-09-13T03:52:31.931Z</time>
      </trkpt>
      <trkpt lat="48.07057" lon="11.91242">
        <ele>563.632341</ele>
        <time>2022-09-13T03:52:52.531Z</time>
      </trkpt>
      <trkpt lat="48.07061" lon="11.9122">
        <ele>563.661436</ele>
        <time>2022-09-13T03:52:56.508Z</time>
      </trkpt>
      <trkpt lat="48.07079" lon="11.91137">
        <ele>563.795854</ele>
        <time>2022-09-13T03:53:12.869Z</time>
      </trkpt>
      <trkpt lat="48.07123" lon="11.90999">
        <ele>564.029392</ele>
        <time>2022-09-13T03:53:41.830Z</time>
      </trkpt>
      <trkpt lat="48.07143" lon="11.90933">
        <ele>563.918443</ele>
        <time>2022-09-13T03:53:55.246Z</time>
      </trkpt>
      <trkpt lat="48.07156" lon="11.90884">
        <ele>563.817688</ele>
        <time>2022-09-13T03:54:04.000Z</time>
      </trkpt>
      <trkpt lat="48.0716" lon="11.90843">
        <ele>563.736495</ele>
        <time>2022-09-13T03:54:10.972Z</time>
      </trkpt>
      <trkpt lat="48.0716" lon="11.90767">
        <ele>563.589354</ele>
        <time>2022-09-13T03:54:23.468Z</time>
      </trkpt>
      <trkpt lat="48.07156" lon="11.9073">
        <ele>563.516183</ele>
        <time>2022-09-13T03:54:29.512Z</time>
      </trkpt>
      <trkpt lat="48.07142" lon="11.90683">
        <ele>563.418529</ele>
        <time>2022-09-13T03:54:37.812Z</time>
      </trkpt>
      <trkpt lat="48.07107" lon="11.90601">
        <ele>563.232469</ele>
        <time>2022-09-13T03:54:54.029Z</time>
      </trkpt>
      <trkpt lat="48.071" lon="11.90562">
        <ele>563.154263</ele>
        <time>2022-09-13T03:55:01.139Z</time>
      </trkpt>
      <trkpt lat="48.07101" lon="11.90534">
        <ele>563.101635</ele>
        <time>2022-09-13T03:55:05.853Z</time>
      </trkpt>
      <trkpt lat="48.07125" lon="11.90431">
        <ele>562.695525</ele>
        <time>2022-09-13T03:55:26.008Z</time>
      </trkpt>
      <trkpt lat="48.07125" lon="11.90421">
        <ele>562.641752</ele>
        <time>2022-09-13T03:55:27.939Z</time>
      </trkpt>
      <trkpt lat="48.07118" lon="11.90371">
        <ele>562.369792</ele>
        <time>2022-09-13T03:55:36.666Z</time>
      </trkpt>
      <trkpt lat="48.07056" lon="11.90233">
        <ele>561.400721</ele>
        <time>2022-09-13T03:56:01.574Z</time>
      </trkpt>
      <trkpt lat="48.0705" lon="11.90207">
        <ele>561.119073</ele>
        <time>2022-09-13T03:56:05.487Z</time>
      </trkpt>
      <trkpt lat="48.07038" lon="11.90154">
        <ele>560.543675</ele>
        <time>2022-09-13T03:56:13.396Z</time>
      </trkpt>
      <trkpt lat="48.07033" lon="11.90125">
        <ele>560.232102</ele>
        <time>2022-09-13T03:56:17.608Z</time>
      </trkpt>
      <trkpt lat="48.07013" lon="11.90022">
        <ele>559.118676</ele>
        <time>2022-09-13T03:56:33.058Z</time>
      </trkpt>
      <trkpt lat="48.06981" lon="11.89884">
        <ele>558.698976</ele>
        <time>2022-09-13T03:56:56.502Z</time>
      </trkpt>
      <trkpt lat="48.06976" lon="11.89858">
        <ele>558.674832</ele>
        <time>2022-09-13T03:57:01.364Z</time>
      </trkpt>
      <trkpt lat="48.06967" lon="11.89747">
        <ele>558.572662</ele>
        <time>2022-09-13T03:57:22.824Z</time>
      </trkpt>
      <trkpt lat="48.06963" lon="11.89697">
        <ele>558.689927</ele>
        <time>2022-09-13T03:57:32.926Z</time>
      </trkpt>
      <trkpt lat="48.06964" lon="11.89596">
        <ele>559.069398</ele>
        <time>2022-09-13T03:57:53.725Z</time>
      </trkpt>
      <trkpt lat="48.06977" lon="11.89496">
        <ele>559.451656</ele>
        <time>2022-09-13T03:58:12.936Z</time>
      </trkpt>
      <trkpt lat="48.0698" lon="11.89476">
        <ele>559.525139</ele>
        <time>2022-09-13T03:58:16.581Z</time>
      </trkpt>
      <trkpt lat="48.06982" lon="11.89456">
        <ele>559.621187</ele>
        <time>2022-09-13T03:58:20.557Z</time>
      </trkpt>
      <trkpt lat="48.06985" lon="11.89407">
        <ele>559.893137</ele>
        <time>2022-09-13T03:58:30.192Z</time>
      </trkpt>
      <trkpt lat="48.06984" lon="11.89364">
        <ele>560.132827</ele>
        <time>2022-09-13T03:58:39.137Z</time>
      </trkpt>
      <trkpt lat="48.0696" lon="11.89278">
        <ele>560.651526</ele>
        <time>2022-09-13T03:58:58.817Z</time>
      </trkpt>
      <trkpt lat="48.06923" lon="11.89168">
        <ele>561.276669</ele>
        <time>2022-09-13T03:59:24.409Z</time>
      </trkpt>
      <trkpt lat="48.06919" lon="11.89159">
        <ele>561.323195</ele>
        <time>2022-09-13T03:59:26.639Z</time>
      </trkpt>
      <trkpt lat="48.0691" lon="11.89148">
        <ele>561.399252</ele>
        <time>2022-09-13T03:59:29.987Z</time>
      </trkpt>
      <trkpt lat="48.06922" lon="11.89122">
        <ele>561.536553</ele>
        <time>2022-09-13T03:59:36.613Z</time>
      </trkpt>
      <trkpt lat="48.06965" lon="11.8904">
        <ele>561.994521</ele>
        <time>2022-09-13T03:59:57.931Z</time>
      </trkpt>
      <trkpt lat="48.07001" lon="11.88989">
        <ele>562.219588</ele>
        <time>2022-09-13T04:00:11.671Z</time>
      </trkpt>
      <trkpt lat="48.07074" lon="11.88873">
        <ele>561.997586</ele>
        <time>2022-09-13T04:00:38.668Z</time>
      </trkpt>
      <trkpt lat="48.07095" lon="11.88839">
        <ele>561.931806</ele>
        <time>2022-09-13T04:00:46.772Z</time>
      </trkpt>
      <trkpt lat="48.07101" lon="11.88831">
        <ele>561.915314</ele>
        <time>2022-09-13T04:00:48.756Z</time>
      </trkpt>
      <trkpt lat="48.0711" lon="11.8882">
        <ele>561.892067</ele>
        <time>2022-09-13T04:00:51.469Z</time>
      </trkpt>
      <trkpt lat="48.07132" lon="11.88785">
        <ele>561.849433</ele>
        <time>2022-09-13T04:00:59.585Z</time>
      </trkpt>
      <trkpt lat="48.07145" lon="11.8877">
        <ele>561.834982</ele>
        <time>2022-09-13T04:01:03.640Z</time>
      </trkpt>
      <trkpt lat="48.07166" lon="11.88787">
        <ele>561.813304</ele>
        <time>2022-09-13T04:01:09.684Z</time>
      </trkpt>
      <trkpt lat="48.07178" lon="11.88767">
        <ele>561.797709</ele>
        <time>2022-09-13T04:01:14.144Z</time>
      </trkpt>
      <trkpt lat="48.07206" lon="11.88717">
        <ele>561.758438</ele>
        <time>2022-09-13T04:01:26.066Z</time>
      </trkpt>
      <trkpt lat="48.07242" lon="11.88673">
        <ele>561.716888</ele>
        <time>2022-09-13T04:01:39.111Z</time>
      </trkpt>
      <trkpt lat="48.07263" lon="11.88661">
        <ele>561.68581</ele>
        <time>2022-09-13T04:01:45.370Z</time>
      </trkpt>
      <trkpt lat="48.07291" lon="11.88642">
        <ele>561.629927</ele>
        <time>2022-09-13T04:01:53.823Z</time>
      </trkpt>
      <trkpt lat="48.07336" lon="11.88574">
        <ele>561.514416</ele>
        <time>2022-09-13T04:02:10.233Z</time>
      </trkpt>
      <trkpt lat="48.07339" lon="11.8857">
        <ele>561.507479</ele>
        <time>2022-09-13T04:02:11.172Z</time>
      </trkpt>
      <trkpt lat="48.07361" lon="11.8853">
        <ele>561.444783</ele>
        <time>2022-09-13T04:02:19.762Z</time>
      </trkpt>
      <trkpt lat="48.07376" lon="11.88505">
        <ele>561.403753</ele>
        <time>2022-09-13T04:02:25.463Z</time>
      </trkpt>
      <trkpt lat="48.07384" lon="11.88492">
        <ele>561.3826</ele>
        <time>2022-09-13T04:02:28.350Z</time>
      </trkpt>
      <trkpt lat="48.07419" lon="11.8843">
        <ele>561.150051</ele>
        <time>2022-09-13T04:02:41.852Z</time>
      </trkpt>
      <trkpt lat="48.07449" lon="11.8837">
        <ele>560.932475</ele>
        <time>2022-09-13T04:02:53.972Z</time>
      </trkpt>
      <trkpt lat="48.07465" lon="11.88292">
        <ele>560.694961</ele>
        <time>2022-09-13T04:03:07.303Z</time>
      </trkpt>
      <trkpt lat="48.07473" lon="11.88244">
        <ele>560.675625</ele>
        <time>2022-09-13T04:03:15.721Z</time>
      </trkpt>
      <trkpt lat="48.07481" lon="11.88192">
        <ele>560.872372</ele>
        <time>2022-09-13T04:03:25.877Z</time>
      </trkpt>
      <trkpt lat="48.07482" lon="11.88176">
        <ele>560.931444</ele>
        <time>2022-09-13T04:03:29.293Z</time>
      </trkpt>
      <trkpt lat="48.07445" lon="11.88144">
        <ele>561.16666</ele>
        <time>2022-09-13T04:03:42.963Z</time>
      </trkpt>
      <trkpt lat="48.07421" lon="11.88103">
        <ele>561.36831</ele>
        <time>2022-09-13T04:03:54.294Z</time>
      </trkpt>
      <trkpt lat="48.0738" lon="11.88049">
        <ele>561.61951</ele>
        <time>2022-09-13T04:04:09.865Z</time>
      </trkpt>
      <trkpt lat="48.07378" lon="11.88024">
        <ele>561.649892</ele>
        <time>2022-09-13T04:04:14.874Z</time>
      </trkpt>
      <trkpt lat="48.07427" lon="11.87994">
        <ele>561.745256</ele>
        <time>2022-09-13T04:04:30.170Z</time>
      </trkpt>
      <trkpt lat="48.07478" lon="11.88014">
        <ele>561.840999</ele>
        <time>2022-09-13T04:04:45.455Z</time>
      </trkpt>
      <trkpt lat="48.07493" lon="11.87996">
        <ele>561.875408</ele>
        <time>2022-09-13T04:04:50.268Z</time>
      </trkpt>
      <trkpt lat="48.07535" lon="11.87929">
        <ele>561.854658</ele>
        <time>2022-09-13T04:05:04.810Z</time>
      </trkpt>
      <trkpt lat="48.07547" lon="11.87908">
        <ele>561.82054</ele>
        <time>2022-09-13T04:05:09.214Z</time>
      </trkpt>
      <trkpt lat="48.07576" lon="11.87857">
        <ele>561.737266</ele>
        <time>2022-09-13T04:05:20.278Z</time>
      </trkpt>
      <trkpt lat="48.07619" lon="11.87788">
        <ele>561.61923</ele>
        <time>2022-09-13T04:05:37.662Z</time>
      </trkpt>
      <trkpt lat="48.07625" lon="11.87777">
        <ele>561.601198</ele>
        <time>2022-09-13T04:05:40.462Z</time>
      </trkpt>
      <trkpt lat="48.07647" lon="11.8774">
        <ele>561.697664</ele>
        <time>2022-09-13T04:05:50.712Z</time>
      </trkpt>
      <trkpt lat="48.07837" lon="11.87416">
        <ele>562.812243</ele>
        <time>2022-09-13T04:07:22.979Z</time>
      </trkpt>
      <trkpt lat="48.07935" lon="11.87197">
        <ele>562.684627</ele>
        <time>2022-09-13T04:08:13.752Z</time>
      </trkpt>
      <trkpt lat="48.07993" lon="11.87033">
        <ele>562.545611</ele>
        <time>2022-09-13T04:08:49.018Z</time>
      </trkpt>
      <trkpt lat="48.08046" lon="11.86878">
        <ele>562.534072</ele>
        <time>2022-09-13T04:09:20.175Z</time>
      </trkpt>
      <trkpt lat="48.08046" lon="11.86864">
        <ele>562.571372</ele>
        <time>2022-09-13T04:09:23.054Z</time>
      </trkpt>
      <trkpt lat="48.08047" lon="11.86843">
        <ele>562.626168</ele>
        <time>2022-09-13T04:09:27.020Z</time>
      </trkpt>
      <trkpt lat="48.08048" lon="11.86796">
        <ele>562.747074</ele>
        <time>2022-09-13T04:09:36.333Z</time>
      </trkpt>
      <trkpt lat="48.0805" lon="11.86744">
        <ele>562.878782</ele>
        <time>2022-09-13T04:09:46.560Z</time>
      </trkpt>
      <trkpt lat="48.0805" lon="11.8674">
        <ele>562.890354</ele>
        <time>2022-09-13T04:09:47.439Z</time>
      </trkpt>
      <trkpt lat="48.08051" lon="11.86698">
        <ele>562.998888</ele>
        <time>2022-09-13T04:09:55.811Z</time>
      </trkpt>
      <trkpt lat="48.08052" lon="11.86664">
        <ele>563.085291</ele>
        <time>2022-09-13T04:10:02.196Z</time>
      </trkpt>
      <trkpt lat="48.08052" lon="11.86644">
        <ele>563.137503</ele>
        <time>2022-09-13T04:10:06.136Z</time>
      </trkpt>
      <trkpt lat="48.08053" lon="11.86615">
        <ele>563.162526</ele>
        <time>2022-09-13T04:10:11.439Z</time>
      </trkpt>
      <trkpt lat="48.08052" lon="11.86588">
        <ele>563.082316</ele>
        <time>2022-09-13T04:10:16.126Z</time>
      </trkpt>
      <trkpt lat="48.08051" lon="11.86571">
        <ele>563.030638</ele>
        <time>2022-09-13T04:10:19.160Z</time>
      </trkpt>
      <trkpt lat="48.0805" lon="11.86517">
        <ele>562.865359</ele>
        <time>2022-09-13T04:10:28.550Z</time>
      </trkpt>
      <trkpt lat="48.08049" lon="11.865">
        <ele>562.815193</ele>
        <time>2022-09-13T04:10:31.296Z</time>
      </trkpt>
      <trkpt lat="48.08048" lon="11.86469">
        <ele>562.719398</ele>
        <time>2022-09-13T04:10:36.586Z</time>
      </trkpt>
      <trkpt lat="48.08048" lon="11.86465">
        <ele>562.709078</ele>
        <time>2022-09-13T04:10:37.169Z</time>
      </trkpt>
      <trkpt lat="48.08047" lon="11.86443">
        <ele>562.641575</ele>
        <time>2022-09-13T04:10:40.778Z</time>
      </trkpt>
      <trkpt lat="48.08045" lon="11.86416">
        <ele>562.560059</ele>
        <time>2022-09-13T04:10:45.117Z</time>
      </trkpt>
      <trkpt lat="48.08045" lon="11.86402">
        <ele>562.515426</ele>
        <time>2022-09-13T04:10:47.453Z</time>
      </trkpt>
      <trkpt lat="48.08044" lon="11.86384">
        <ele>562.463446</ele>
        <time>2022-09-13T04:10:50.127Z</time>
      </trkpt>
      <trkpt lat="48.08041" lon="11.86322">
        <ele>562.107786</ele>
        <time>2022-09-13T04:10:59.672Z</time>
      </trkpt>
      <trkpt lat="48.08036" lon="11.86249">
        <ele>561.516711</ele>
        <time>2022-09-13T04:11:10.519Z</time>
      </trkpt>
      <trkpt lat="48.0806" lon="11.86229">
        <ele>561.189101</ele>
        <time>2022-09-13T04:11:16.484Z</time>
      </trkpt>
      <trkpt lat="48.0807" lon="11.86221">
        <ele>561.059076</ele>
        <time>2022-09-13T04:11:18.881Z</time>
      </trkpt>
      <trkpt lat="48.08102" lon="11.86199">
        <ele>560.636348</ele>
        <time>2022-09-13T04:11:26.869Z</time>
      </trkpt>
      <trkpt lat="48.08125" lon="11.86191">
        <ele>560.351785</ele>
        <time>2022-09-13T04:11:32.377Z</time>
      </trkpt>
      <trkpt lat="48.08129" lon="11.8619">
        <ele>560.301653</ele>
        <time>2022-09-13T04:11:33.355Z</time>
      </trkpt>
      <trkpt lat="48.08134" lon="11.86191">
        <ele>560.243742</ele>
        <time>2022-09-13T04:11:34.496Z</time>
      </trkpt>
      <trkpt lat="48.0814" lon="11.86136">
        <ele>559.92392</ele>
        <time>2022-09-13T04:11:43.264Z</time>
      </trkpt>
      <trkpt lat="48.08155" lon="11.86067">
        <ele>559.516407</ele>
        <time>2022-09-13T04:11:54.605Z</time>
      </trkpt>
      <trkpt lat="48.0817" lon="11.86007">
        <ele>559.161361</ele>
        <time>2022-09-13T04:12:04.487Z</time>
      </trkpt>
      <trkpt lat="48.08189" lon="11.85925">
        <ele>558.691015</ele>
        <time>2022-09-13T04:12:18.579Z</time>
      </trkpt>
      <trkpt lat="48.08192" lon="11.85914">
        <ele>558.657718</ele>
        <time>2022-09-13T04:12:20.400Z</time>
      </trkpt>
      <trkpt lat="48.08193" lon="11.85907">
        <ele>558.634267</ele>
        <time>2022-09-13T04:12:21.702Z</time>
      </trkpt>
      <trkpt lat="48.08195" lon="11.85899">
        <ele>558.609198</ele>
        <time>2022-09-13T04:12:23.050Z</time>
      </trkpt>
      <trkpt lat="48.08206" lon="11.85846">
        <ele>558.438867</ele>
        <time>2022-09-13T04:12:32.273Z</time>
      </trkpt>
      <trkpt lat="48.08207" lon="11.85835">
        <ele>558.406186</ele>
        <time>2022-09-13T04:12:34.048Z</time>
      </trkpt>
      <trkpt lat="48.08208" lon="11.85822">
        <ele>558.365583</ele>
        <time>2022-09-13T04:12:36.225Z</time>
      </trkpt>
      <trkpt lat="48.08226" lon="11.85684">
        <ele>557.935718</ele>
        <time>2022-09-13T04:12:59.475Z</time>
      </trkpt>
      <trkpt lat="48.08229" lon="11.85663">
        <ele>557.880702</ele>
        <time>2022-09-13T04:13:03.062Z</time>
      </trkpt>
      <trkpt lat="48.08231" lon="11.8565">
        <ele>557.865204</ele>
        <time>2022-09-13T04:13:05.906Z</time>
      </trkpt>
      <trkpt lat="48.08237" lon="11.85607">
        <ele>557.811137</ele>
        <time>2022-09-13T04:13:13.512Z</time>
      </trkpt>
      <trkpt lat="48.08251" lon="11.85522">
        <ele>557.703581</ele>
        <time>2022-09-13T04:13:28.870Z</time>
      </trkpt>
      <trkpt lat="48.08252" lon="11.85513">
        <ele>557.691716</ele>
        <time>2022-09-13T04:13:30.565Z</time>
      </trkpt>
      <trkpt lat="48.08254" lon="11.85499">
        <ele>557.675011</ele>
        <time>2022-09-13T04:13:32.891Z</time>
      </trkpt>
      <trkpt lat="48.08255" lon="11.85489">
        <ele>557.661714</ele>
        <time>2022-09-13T04:13:34.748Z</time>
      </trkpt>
      <trkpt lat="48.08256" lon="11.85484">
        <ele>557.655752</ele>
        <time>2022-09-13T04:13:35.592Z</time>
      </trkpt>
      <trkpt lat="48.08259" lon="11.85456">
        <ele>557.620432</ele>
        <time>2022-09-13T04:13:40.586Z</time>
      </trkpt>
      <trkpt lat="48.08262" lon="11.85424">
        <ele>557.581152</ele>
        <time>2022-09-13T04:13:46.061Z</time>
      </trkpt>
      <trkpt lat="48.08266" lon="11.85367">
        <ele>557.588411</ele>
        <time>2022-09-13T04:13:56.242Z</time>
      </trkpt>
      <trkpt lat="48.08264" lon="11.85345">
        <ele>557.607185</ele>
        <time>2022-09-13T04:14:00.316Z</time>
      </trkpt>
      <trkpt lat="48.08271" lon="11.85224">
        <ele>557.708732</ele>
        <time>2022-09-13T04:14:22.097Z</time>
      </trkpt>
      <trkpt lat="48.08272" lon="11.85208">
        <ele>557.722066</ele>
        <time>2022-09-13T04:14:24.998Z</time>
      </trkpt>
      <trkpt lat="48.08272" lon="11.85188">
        <ele>557.738283</ele>
        <time>2022-09-13T04:14:28.611Z</time>
      </trkpt>
      <trkpt lat="48.08277" lon="11.84909">
        <ele>558.26548</ele>
        <time>2022-09-13T04:15:22.529Z</time>
      </trkpt>
      <trkpt lat="48.08289" lon="11.84743">
        <ele>558.26818</ele>
        <time>2022-09-13T04:15:51.968Z</time>
      </trkpt>
      <trkpt lat="48.08318" lon="11.845">
        <ele>558.257446</ele>
        <time>2022-09-13T04:16:34.210Z</time>
      </trkpt>
      <trkpt lat="48.08324" lon="11.84469">
        <ele>558.284544</ele>
        <time>2022-09-13T04:16:40.061Z</time>
      </trkpt>
      <trkpt lat="48.08339" lon="11.84445">
        <ele>558.312428</ele>
        <time>2022-09-13T04:16:46.165Z</time>
      </trkpt>
      <trkpt lat="48.08362" lon="11.84288">
        <ele>558.668768</ele>
        <time>2022-09-13T04:17:17.223Z</time>
      </trkpt>
      <trkpt lat="48.08368" lon="11.84146">
        <ele>559.316935</ele>
        <time>2022-09-13T04:17:46.010Z</time>
      </trkpt>
      <trkpt lat="48.0837" lon="11.83959">
        <ele>560.233512</ele>
        <time>2022-09-13T04:18:23.575Z</time>
      </trkpt>
      <trkpt lat="48.08366" lon="11.83861">
        <ele>560.734563</ele>
        <time>2022-09-13T04:18:43.244Z</time>
      </trkpt>
      <trkpt lat="48.08368" lon="11.83828">
        <ele>560.906208</ele>
        <time>2022-09-13T04:18:49.951Z</time>
      </trkpt>
      <trkpt lat="48.08381" lon="11.83809">
        <ele>561.092093</ele>
        <time>2022-09-13T04:18:55.877Z</time>
      </trkpt>
      <trkpt lat="48.0838" lon="11.83806">
        <ele>561.122851</ele>
        <time>2022-09-13T04:18:56.476Z</time>
      </trkpt>
      <trkpt lat="48.08379" lon="11.83801">
        <ele>561.177762</ele>
        <time>2022-09-13T04:18:57.501Z</time>
      </trkpt>
      <trkpt lat="48.08379" lon="11.83789">
        <ele>561.307043</ele>
        <time>2022-09-13T04:18:59.942Z</time>
      </trkpt>
      <trkpt lat="48.08366" lon="11.8377">
        <ele>561.600271</ele>
        <time>2022-09-13T04:19:05.922Z</time>
      </trkpt>
      <trkpt lat="48.08368" lon="11.83717">
        <ele>562.174481</ele>
        <time>2022-09-13T04:19:17.680Z</time>
      </trkpt>
      <trkpt lat="48.08363" lon="11.83673">
        <ele>562.657459</ele>
        <time>2022-09-13T04:19:27.858Z</time>
      </trkpt>
      <trkpt lat="48.08365" lon="11.83399">
        <ele>566.2289</ele>
        <time>2022-09-13T04:20:35.220Z</time>
      </trkpt>
      <trkpt lat="48.08373" lon="11.83368">
        <ele>566.72774</ele>
        <time>2022-09-13T04:20:44.211Z</time>
      </trkpt>
      <trkpt lat="48.08374" lon="11.83242">
        <ele>568.454891</ele>
        <time>2022-09-13T04:21:15.680Z</time>
      </trkpt>
      <trkpt lat="48.08394" lon="11.83246">
        <ele>568.82604</ele>
        <time>2022-09-13T04:21:23.171Z</time>
      </trkpt>
      <trkpt lat="48.0841" lon="11.83258">
        <ele>569.154243</ele>
        <time>2022-09-13T04:21:29.738Z</time>
      </trkpt>
      <trkpt lat="48.08411" lon="11.83228">
        <ele>569.516049</ele>
        <time>2022-09-13T04:21:38.609Z</time>
      </trkpt>
      <trkpt lat="48.08401" lon="11.83173">
        <ele>570.207678</ele>
        <time>2022-09-13T04:21:52.203Z</time>
      </trkpt>
      <trkpt lat="48.08394" lon="11.83139">
        <ele>570.638943</ele>
        <time>2022-09-13T04:22:00.751Z</time>
      </trkpt>
      <trkpt lat="48.08384" lon="11.83137">
        <ele>570.827514</ele>
        <time>2022-09-13T04:22:04.310Z</time>
      </trkpt>
      <trkpt lat="48.08374" lon="11.83126">
        <ele>571.052165</ele>
        <time>2022-09-13T04:22:08.341Z</time>
      </trkpt>
      <trkpt lat="48.08367" lon="11.83094">
        <ele>570.970178</ele>
        <time>2022-09-13T04:22:16.040Z</time>
      </trkpt>
      <trkpt lat="48.08361" lon="11.83042">
        <ele>570.668166</ele>
        <time>2022-09-13T04:22:26.389Z</time>
      </trkpt>
      <trkpt lat="48.0836" lon="11.8302">
        <ele>570.541154</ele>
        <time>2022-09-13T04:22:29.993Z</time>
      </trkpt>
      <trkpt lat="48.08358" lon="11.82988">
        <ele>570.359849</ele>
        <time>2022-09-13T04:22:35.177Z</time>
      </trkpt>
      <trkpt lat="48.08363" lon="11.82929">
        <ele>570.015036</ele>
        <time>2022-09-13T04:22:44.138Z</time>
      </trkpt>
      <trkpt lat="48.08384" lon="11.82839">
        <ele>569.159003</ele>
        <time>2022-09-13T04:22:57.003Z</time>
      </trkpt>
      <trkpt lat="48.08382" lon="11.82754">
        <ele>567.376869</ele>
        <time>2022-09-13T04:23:07.924Z</time>
      </trkpt>
      <trkpt lat="48.08379" lon="11.82708">
        <ele>566.406085</ele>
        <time>2022-09-13T04:23:13.826Z</time>
      </trkpt>
      <trkpt lat="48.08379" lon="11.82702">
        <ele>566.269118</ele>
        <time>2022-09-13T04:23:14.664Z</time>
      </trkpt>
      <trkpt lat="48.08378" lon="11.8269">
        <ele>566.009986</ele>
        <time>2022-09-13T04:23:16.275Z</time>
      </trkpt>
      <trkpt lat="48.08376" lon="11.82667">
        <ele>565.524986</ele>
        <time>2022-09-13T04:23:19.225Z</time>
      </trkpt>
      <trkpt lat="48.08375" lon="11.82656">
        <ele>565.307604</ele>
        <time>2022-09-13T04:23:20.524Z</time>
      </trkpt>
      <trkpt lat="48.08371" lon="11.826">
        <ele>564.102248</ele>
        <time>2022-09-13T04:23:28.011Z</time>
      </trkpt>
      <trkpt lat="48.0837" lon="11.82578">
        <ele>563.750354</ele>
        <time>2022-09-13T04:23:30.955Z</time>
      </trkpt>
      <trkpt lat="48.08359" lon="11.82506">
        <ele>562.785575</ele>
        <time>2022-09-13T04:23:41.023Z</time>
      </trkpt>
      <trkpt lat="48.08347" lon="11.8245">
        <ele>562.028463</ele>
        <time>2022-09-13T04:23:49.273Z</time>
      </trkpt>
      <trkpt lat="48.08342" lon="11.82444">
        <ele>561.90846</ele>
        <time>2022-09-13T04:23:50.569Z</time>
      </trkpt>
      <trkpt lat="48.08332" lon="11.82433">
        <ele>561.668331</ele>
        <time>2022-09-13T04:23:53.396Z</time>
      </trkpt>
      <trkpt lat="48.08319" lon="11.82423">
        <ele>561.379009</ele>
        <time>2022-09-13T04:23:56.790Z</time>
      </trkpt>
      <trkpt lat="48.08285" lon="11.82409">
        <ele>560.698011</ele>
        <time>2022-09-13T04:24:04.719Z</time>
      </trkpt>
      <trkpt lat="48.0829" lon="11.82378">
        <ele>560.30097</ele>
        <time>2022-09-13T04:24:09.421Z</time>
      </trkpt>
      <trkpt lat="48.083" lon="11.82316">
        <ele>559.585478</ele>
        <time>2022-09-13T04:24:18.792Z</time>
      </trkpt>
      <trkpt lat="48.08301" lon="11.82305">
        <ele>559.46118</ele>
        <time>2022-09-13T04:24:20.424Z</time>
      </trkpt>
      <trkpt lat="48.0831" lon="11.82245">
        <ele>558.762533</ele>
        <time>2022-09-13T04:24:29.289Z</time>
      </trkpt>
      <trkpt lat="48.08311" lon="11.82241">
        <ele>558.719752</ele>
        <time>2022-09-13T04:24:29.832Z</time>
      </trkpt>
      <trkpt lat="48.08317" lon="11.822">
        <ele>558.240094</ele>
        <time>2022-09-13T04:24:35.910Z</time>
      </trkpt>
      <trkpt lat="48.08322" lon="11.82168">
        <ele>557.872682</ele>
        <time>2022-09-13T04:24:40.517Z</time>
      </trkpt>
      <trkpt lat="48.08332" lon="11.82109">
        <ele>557.244609</ele>
        <time>2022-09-13T04:24:49.159Z</time>
      </trkpt>
      <trkpt lat="48.08335" lon="11.82037">
        <ele>556.623995</ele>
        <time>2022-09-13T04:24:59.825Z</time>
      </trkpt>
      <trkpt lat="48.08335" lon="11.82024">
        <ele>556.514708</ele>
        <time>2022-09-13T04:25:01.770Z</time>
      </trkpt>
      <trkpt lat="48.08334" lon="11.82006">
        <ele>556.358732</ele>
        <time>2022-09-13T04:25:04.542Z</time>
      </trkpt>
      <trkpt lat="48.08332" lon="11.81992">
        <ele>556.240716</ele>
        <time>2022-09-13T04:25:06.632Z</time>
      </trkpt>
      <trkpt lat="48.08328" lon="11.81958">
        <ele>555.946279</ele>
        <time>2022-09-13T04:25:12.040Z</time>
      </trkpt>
      <trkpt lat="48.08324" lon="11.81931">
        <ele>555.706245</ele>
        <time>2022-09-13T04:25:16.375Z</time>
      </trkpt>
      <trkpt lat="48.08323" lon="11.81918">
        <ele>555.594941</ele>
        <time>2022-09-13T04:25:18.406Z</time>
      </trkpt>
      <trkpt lat="48.08317" lon="11.81834">
        <ele>554.927668</ele>
        <time>2022-09-13T04:25:31.405Z</time>
      </trkpt>
      <trkpt lat="48.08312" lon="11.81819">
        <ele>554.821482</ele>
        <time>2022-09-13T04:25:33.918Z</time>
      </trkpt>
      <trkpt lat="48.08309" lon="11.8173">
        <ele>554.24816</ele>
        <time>2022-09-13T04:25:47.621Z</time>
      </trkpt>
      <trkpt lat="48.08302" lon="11.81704">
        <ele>554.068203</ele>
        <time>2022-09-13T04:25:51.887Z</time>
      </trkpt>
      <trkpt lat="48.08312" lon="11.8158">
        <ele>553.328448</ele>
        <time>2022-09-13T04:26:11.213Z</time>
      </trkpt>
      <trkpt lat="48.08318" lon="11.81552">
        <ele>553.265271</ele>
        <time>2022-09-13T04:26:15.789Z</time>
      </trkpt>
      <trkpt lat="48.08374" lon="11.81358">
        <ele>552.813242</ele>
        <time>2022-09-13T04:26:51.920Z</time>
      </trkpt>
      <trkpt lat="48.08407" lon="11.81244">
        <ele>553.072839</ele>
        <time>2022-09-13T04:27:16.053Z</time>
      </trkpt>
      <trkpt lat="48.08418" lon="11.81178">
        <ele>553.250536</ele>
        <time>2022-09-13T04:27:29.205Z</time>
      </trkpt>
      <trkpt lat="48.08421" lon="11.81115">
        <ele>553.416404</ele>
        <time>2022-09-13T04:27:41.366Z</time>
      </trkpt>
      <trkpt lat="48.08417" lon="11.80968">
        <ele>553.556419</ele>
        <time>2022-09-13T04:28:09.333Z</time>
      </trkpt>
      <trkpt lat="48.08421" lon="11.80905">
        <ele>553.592958</ele>
        <time>2022-09-13T04:28:20.702Z</time>
      </trkpt>
      <trkpt lat="48.08432" lon="11.80848">
        <ele>553.62765</ele>
        <time>2022-09-13T04:28:31.097Z</time>
      </trkpt>
      <trkpt lat="48.08453" lon="11.80806">
        <ele>553.574029</ele>
        <time>2022-09-13T04:28:39.796Z</time>
      </trkpt>
      <trkpt lat="48.08472" lon="11.80782">
        <ele>553.47128</ele>
        <time>2022-09-13T04:28:46.106Z</time>
      </trkpt>
      <trkpt lat="48.08473" lon="11.80764">
        <ele>553.422748</ele>
        <time>2022-09-13T04:28:49.101Z</time>
      </trkpt>
      <trkpt lat="48.08468" lon="11.80755">
        <ele>553.390694</ele>
        <time>2022-09-13T04:28:51.000Z</time>
      </trkpt>
      <trkpt lat="48.08459" lon="11.80743">
        <ele>553.341706</ele>
        <time>2022-09-13T04:28:54.039Z</time>
      </trkpt>
      <trkpt lat="48.08451" lon="11.80731">
        <ele>553.296224</ele>
        <time>2022-09-13T04:28:56.827Z</time>
      </trkpt>
      <trkpt lat="48.08514" lon="11.8063">
        <ele>552.923348</ele>
        <time>2022-09-13T04:29:19.548Z</time>
      </trkpt>
      <trkpt lat="48.08564" lon="11.80519">
        <ele>552.862948</ele>
        <time>2022-09-13T04:29:42.369Z</time>
      </trkpt>
      <trkpt lat="48.08663" lon="11.80358">
        <ele>553.130798</ele>
        <time>2022-09-13T04:30:22.691Z</time>
      </trkpt>
      <trkpt lat="48.08726" lon="11.80251">
        <ele>553.703737</ele>
        <time>2022-09-13T04:30:51.389Z</time>
      </trkpt>
      <trkpt lat="48.08778" lon="11.80138">
        <ele>554.5139</ele>
        <time>2022-09-13T04:31:20.097Z</time>
      </trkpt>
      <trkpt lat="48.08803" lon="11.80071">
        <ele>555.03557</ele>
        <time>2022-09-13T04:31:36.549Z</time>
      </trkpt>
      <trkpt lat="48.08897" lon="11.79739">
        <ele>557.330645</ele>
        <time>2022-09-13T04:32:53.014Z</time>
      </trkpt>
      <trkpt lat="48.09002" lon="11.79358">
        <ele>557.457164</ele>
        <time>2022-09-13T04:34:06.701Z</time>
      </trkpt>
      <trkpt lat="48.09024" lon="11.79241">
        <ele>557.326581</ele>
        <time>2022-09-13T04:34:27.605Z</time>
      </trkpt>
      <trkpt lat="48.09106" lon="11.78695">
        <ele>555.490271</ele>
        <time>2022-09-13T04:35:59.946Z</time>
      </trkpt>
      <trkpt lat="48.09131" lon="11.78558">
        <ele>554.73323</ele>
        <time>2022-09-13T04:36:21.994Z</time>
      </trkpt>
      <trkpt lat="48.09157" lon="11.78445">
        <ele>554.093867</ele>
        <time>2022-09-13T04:36:40.858Z</time>
      </trkpt>
      <trkpt lat="48.09188" lon="11.78345">
        <ele>553.769535</ele>
        <time>2022-09-13T04:36:58.529Z</time>
      </trkpt>
      <trkpt lat="48.09193" lon="11.78327">
        <ele>553.711924</ele>
        <time>2022-09-13T04:37:01.896Z</time>
      </trkpt>
      <trkpt lat="48.09282" lon="11.78069">
        <ele>553.345677</ele>
        <time>2022-09-13T04:37:51.654Z</time>
      </trkpt>
      <trkpt lat="48.09309" lon="11.7799">
        <ele>553.369391</ele>
        <time>2022-09-13T04:38:08.230Z</time>
      </trkpt>
      <trkpt lat="48.09458" lon="11.77552">
        <ele>554.822628</ele>
        <time>2022-09-13T04:39:44.733Z</time>
      </trkpt>
      <trkpt lat="48.09489" lon="11.77456">
        <ele>554.938882</ele>
        <time>2022-09-13T04:40:04.155Z</time>
      </trkpt>
      <trkpt lat="48.09588" lon="11.77173">
        <ele>553.850838</ele>
        <time>2022-09-13T04:40:56.897Z</time>
      </trkpt>
      <trkpt lat="48.09697" lon="11.76856">
        <ele>551.723815</ele>
        <time>2022-09-13T04:41:51.343Z</time>
      </trkpt>
      <trkpt lat="48.09703" lon="11.7683">
        <ele>551.560847</ele>
        <time>2022-09-13T04:41:57.132Z</time>
      </trkpt>
      <trkpt lat="48.09702" lon="11.76819">
        <ele>551.498106</ele>
        <time>2022-09-13T04:41:59.367Z</time>
      </trkpt>
      <trkpt lat="48.09711" lon="11.76805">
        <ele>551.378828</ele>
        <time>2022-09-13T04:42:02.696Z</time>
      </trkpt>
      <trkpt lat="48.09838" lon="11.7645">
        <ele>550.517339</ele>
        <time>2022-09-13T04:43:14.419Z</time>
      </trkpt>
      <trkpt lat="48.09989" lon="11.76011">
        <ele>549.841523</ele>
        <time>2022-09-13T04:44:43.784Z</time>
      </trkpt>
      <trkpt lat="48.09992" lon="11.76001">
        <ele>549.818043</ele>
        <time>2022-09-13T04:44:45.716Z</time>
      </trkpt>
      <trkpt lat="48.10004" lon="11.75966">
        <ele>549.728834</ele>
        <time>2022-09-13T04:44:52.516Z</time>
      </trkpt>
      <trkpt lat="48.10004" lon="11.75953">
        <ele>549.701116</ele>
        <time>2022-09-13T04:44:54.793Z</time>
      </trkpt>
      <trkpt lat="48.10008" lon="11.75949">
        <ele>549.684447</ele>
        <time>2022-09-13T04:44:55.972Z</time>
      </trkpt>
      <trkpt lat="48.10013" lon="11.7594">
        <ele>549.658243</ele>
        <time>2022-09-13T04:44:57.874Z</time>
      </trkpt>
      <trkpt lat="48.10016" lon="11.7593">
        <ele>549.633722</ele>
        <time>2022-09-13T04:44:59.688Z</time>
      </trkpt>
      <trkpt lat="48.10017" lon="11.75915">
        <ele>549.599336</ele>
        <time>2022-09-13T04:45:02.292Z</time>
      </trkpt>
      <trkpt lat="48.10016" lon="11.75908">
        <ele>549.584109</ele>
        <time>2022-09-13T04:45:03.541Z</time>
      </trkpt>
      <trkpt lat="48.10023" lon="11.75902">
        <ele>549.557296</ele>
        <time>2022-09-13T04:45:05.560Z</time>
      </trkpt>
      <trkpt lat="48.10116" lon="11.75647">
        <ele>548.803053</ele>
        <time>2022-09-13T04:45:57.129Z</time>
      </trkpt>
      <trkpt lat="48.10229" lon="11.75312">
        <ele>547.189571</ele>
        <time>2022-09-13T04:46:59.422Z</time>
      </trkpt>
      <trkpt lat="48.10229" lon="11.7531">
        <ele>547.184677</ele>
        <time>2022-09-13T04:46:59.849Z</time>
      </trkpt>
      <trkpt lat="48.10268" lon="11.75174">
        <ele>546.908655</ele>
        <time>2022-09-13T04:47:24.403Z</time>
      </trkpt>
      <trkpt lat="48.10274" lon="11.75151">
        <ele>546.862029</ele>
        <time>2022-09-13T04:47:29.081Z</time>
      </trkpt>
      <trkpt lat="48.10277" lon="11.75137">
        <ele>546.833719</ele>
        <time>2022-09-13T04:47:31.788Z</time>
      </trkpt>
      <trkpt lat="48.10285" lon="11.75109">
        <ele>546.778173</ele>
        <time>2022-09-13T04:47:37.605Z</time>
      </trkpt>
      <trkpt lat="48.10326" lon="11.74931">
        <ele>548.010022</ele>
        <time>2022-09-13T04:48:20.027Z</time>
      </trkpt>
      <trkpt lat="48.10392" lon="11.74622">
        <ele>549.810764</ele>
        <time>2022-09-13T04:49:33.345Z</time>
      </trkpt>
      <trkpt lat="48.10408" lon="11.74526">
        <ele>549.47119</ele>
        <time>2022-09-13T04:49:49.026Z</time>
      </trkpt>
      <trkpt lat="48.10412" lon="11.74501">
        <ele>549.191186</ele>
        <time>2022-09-13T04:49:53.045Z</time>
      </trkpt>
      <trkpt lat="48.10422" lon="11.74465">
        <ele>548.771406</ele>
        <time>2022-09-13T04:49:58.916Z</time>
      </trkpt>
      <trkpt lat="48.10444" lon="11.74376">
        <ele>547.750932</ele>
        <time>2022-09-13T04:50:12.660Z</time>
      </trkpt>
      <trkpt lat="48.10516" lon="11.74016">
        <ele>544.259426</ele>
        <time>2022-09-13T04:51:10.089Z</time>
      </trkpt>
      <trkpt lat="48.10582" lon="11.73663">
        <ele>543.829587</ele>
        <time>2022-09-13T04:52:18.575Z</time>
      </trkpt>
      <trkpt lat="48.10593" lon="11.73669">
        <ele>543.83776</ele>
        <time>2022-09-13T04:52:21.835Z</time>
      </trkpt>
      <trkpt lat="48.10604" lon="11.73674">
        <ele>543.846039</ele>
        <time>2022-09-13T04:52:25.088Z</time>
      </trkpt>
      <trkpt lat="48.10612" lon="11.73678">
        <ele>543.851836</ele>
        <time>2022-09-13T04:52:27.238Z</time>
      </trkpt>
      <trkpt lat="48.10618" lon="11.73651">
        <ele>543.865653</ele>
        <time>2022-09-13T04:52:32.817Z</time>
      </trkpt>
      <trkpt lat="48.10621" lon="11.73637">
        <ele>543.872418</ele>
        <time>2022-09-13T04:52:35.536Z</time>
      </trkpt>
      <trkpt lat="48.10626" lon="11.73614">
        <ele>543.883988</ele>
        <time>2022-09-13T04:52:40.052Z</time>
      </trkpt>
      <trkpt lat="48.10678" lon="11.73377">
        <ele>543.868453</ele>
        <time>2022-09-13T04:53:26.928Z</time>
      </trkpt>
      <trkpt lat="48.10709" lon="11.73229">
        <ele>543.839582</ele>
        <time>2022-09-13T04:53:54.137Z</time>
      </trkpt>
      <trkpt lat="48.10714" lon="11.73208">
        <ele>543.835073</ele>
        <time>2022-09-13T04:53:58.349Z</time>
      </trkpt>
      <trkpt lat="48.10721" lon="11.73176">
        <ele>543.827837</ele>
        <time>2022-09-13T04:54:04.800Z</time>
      </trkpt>
      <trkpt lat="48.10723" lon="11.73168">
        <ele>543.826102</ele>
        <time>2022-09-13T04:54:06.472Z</time>
      </trkpt>
      <trkpt lat="48.10725" lon="11.73157">
        <ele>543.823812</ele>
        <time>2022-09-13T04:54:08.714Z</time>
      </trkpt>
      <trkpt lat="48.10728" lon="11.73144">
        <ele>543.820888</ele>
        <time>2022-09-13T04:54:11.350Z</time>
      </trkpt>
      <trkpt lat="48.10729" lon="11.73137">
        <ele>543.819322</ele>
        <time>2022-09-13T04:54:12.821Z</time>
      </trkpt>
      <trkpt lat="48.10738" lon="11.731">
        <ele>543.811155</ele>
        <time>2022-09-13T04:54:20.447Z</time>
      </trkpt>
      <trkpt lat="48.10741" lon="11.73084">
        <ele>543.80812</ele>
        <time>2022-09-13T04:54:23.489Z</time>
      </trkpt>
      <trkpt lat="48.10747" lon="11.73052">
        <ele>543.802396</ele>
        <time>2022-09-13T04:54:29.792Z</time>
      </trkpt>
      <trkpt lat="48.1075" lon="11.73036">
        <ele>543.799505</ele>
        <time>2022-09-13T04:54:32.799Z</time>
      </trkpt>
      <trkpt lat="48.10763" lon="11.72977">
        <ele>543.788784</ele>
        <time>2022-09-13T04:54:44.307Z</time>
      </trkpt>
      <trkpt lat="48.10774" lon="11.72921">
        <ele>543.778579</ele>
        <time>2022-09-13T04:54:55.227Z</time>
      </trkpt>
      <trkpt lat="48.10777" lon="11.72905">
        <ele>543.775778</ele>
        <time>2022-09-13T04:54:58.120Z</time>
      </trkpt>
      <trkpt lat="48.10788" lon="11.72853">
        <ele>543.766269</ele>
        <time>2022-09-13T04:55:08.259Z</time>
      </trkpt>
      <trkpt lat="48.10798" lon="11.72805">
        <ele>543.680923</ele>
        <time>2022-09-13T04:55:17.499Z</time>
      </trkpt>
      <trkpt lat="48.10812" lon="11.72739">
        <ele>543.507188</ele>
        <time>2022-09-13T04:55:29.558Z</time>
      </trkpt>
      <trkpt lat="48.10817" lon="11.72714">
        <ele>543.443277</ele>
        <time>2022-09-13T04:55:33.944Z</time>
      </trkpt>
      <trkpt lat="48.10819" lon="11.72699">
        <ele>543.40536</ele>
        <time>2022-09-13T04:55:36.477Z</time>
      </trkpt>
      <trkpt lat="48.10822" lon="11.72683">
        <ele>543.364847</ele>
        <time>2022-09-13T04:55:39.273Z</time>
      </trkpt>
      <trkpt lat="48.10824" lon="11.72673">
        <ele>543.337924</ele>
        <time>2022-09-13T04:55:41.132Z</time>
      </trkpt>
      <trkpt lat="48.10826" lon="11.72662">
        <ele>543.30935</ele>
        <time>2022-09-13T04:55:43.096Z</time>
      </trkpt>
      <trkpt lat="48.10833" lon="11.7262">
        <ele>543.200855</ele>
        <time>2022-09-13T04:55:50.747Z</time>
      </trkpt>
      <trkpt lat="48.10844" lon="11.72548">
        <ele>543.030013</ele>
        <time>2022-09-13T04:56:03.680Z</time>
      </trkpt>
      <trkpt lat="48.10844" lon="11.72546">
        <ele>543.025746</ele>
        <time>2022-09-13T04:56:04.029Z</time>
      </trkpt>
      <trkpt lat="48.10866" lon="11.72406">
        <ele>542.72553</ele>
        <time>2022-09-13T04:56:29.403Z</time>
      </trkpt>
      <trkpt lat="48.10868" lon="11.72389">
        <ele>542.690104</ele>
        <time>2022-09-13T04:56:32.359Z</time>
      </trkpt>
      <trkpt lat="48.10871" lon="11.72372">
        <ele>542.653875</ele>
        <time>2022-09-13T04:56:35.569Z</time>
      </trkpt>
      <trkpt lat="48.10871" lon="11.72361">
        <ele>542.630141</ele>
        <time>2022-09-13T04:56:37.638Z</time>
      </trkpt>
      <trkpt lat="48.10873" lon="11.72348">
        <ele>542.603237</ele>
        <time>2022-09-13T04:56:39.931Z</time>
      </trkpt>
      <trkpt lat="48.10891" lon="11.7227">
        <ele>542.37068</ele>
        <time>2022-09-13T04:56:54.939Z</time>
      </trkpt>
      <trkpt lat="48.10954" lon="11.72081">
        <ele>541.661353</ele>
        <time>2022-09-13T04:57:31.120Z</time>
      </trkpt>
      <trkpt lat="48.10956" lon="11.72074">
        <ele>541.636871</ele>
        <time>2022-09-13T04:57:32.342Z</time>
      </trkpt>
      <trkpt lat="48.10961" lon="11.72058">
        <ele>541.556722</ele>
        <time>2022-09-13T04:57:35.149Z</time>
      </trkpt>
      <trkpt lat="48.10967" lon="11.72041">
        <ele>541.461803</ele>
        <time>2022-09-13T04:57:38.353Z</time>
      </trkpt>
      <trkpt lat="48.10973" lon="11.72025">
        <ele>541.378713</ele>
        <time>2022-09-13T04:57:41.191Z</time>
      </trkpt>
      <trkpt lat="48.10978" lon="11.72011">
        <ele>541.299722</ele>
        <time>2022-09-13T04:57:43.808Z</time>
      </trkpt>
      <trkpt lat="48.10986" lon="11.71986">
        <ele>541.165672</ele>
        <time>2022-09-13T04:57:48.406Z</time>
      </trkpt>
      <trkpt lat="48.1099" lon="11.71971">
        <ele>541.089453</ele>
        <time>2022-09-13T04:57:50.999Z</time>
      </trkpt>
      <trkpt lat="48.10997" lon="11.71949">
        <ele>540.976434</ele>
        <time>2022-09-13T04:57:54.854Z</time>
      </trkpt>
      <trkpt lat="48.11017" lon="11.7188">
        <ele>540.612386</ele>
        <time>2022-09-13T04:58:07.639Z</time>
      </trkpt>
      <trkpt lat="48.11035" lon="11.71812">
        <ele>540.314519</ele>
        <time>2022-09-13T04:58:20.233Z</time>
      </trkpt>
      <trkpt lat="48.1106" lon="11.71699">
        <ele>540.111602</ele>
        <time>2022-09-13T04:58:40.953Z</time>
      </trkpt>
      <trkpt lat="48.11065" lon="11.71672">
        <ele>540.064193</ele>
        <time>2022-09-13T04:58:46.018Z</time>
      </trkpt>
      <trkpt lat="48.1107" lon="11.71646">
        <ele>540.01706</ele>
        <time>2022-09-13T04:58:50.848Z</time>
      </trkpt>
      <trkpt lat="48.11074" lon="11.71625">
        <ele>539.980368</ele>
        <time>2022-09-13T04:58:54.896Z</time>
      </trkpt>
      <trkpt lat="48.11076" lon="11.71613">
        <ele>539.959552</ele>
        <time>2022-09-13T04:58:57.122Z</time>
      </trkpt>
      <trkpt lat="48.11078" lon="11.71598">
        <ele>539.933033</ele>
        <time>2022-09-13T04:59:00.018Z</time>
      </trkpt>
      <trkpt lat="48.11083" lon="11.71568">
        <ele>539.883146</ele>
        <time>2022-09-13T04:59:05.819Z</time>
      </trkpt>
      <trkpt lat="48.11084" lon="11.71558">
        <ele>539.887604</ele>
        <time>2022-09-13T04:59:07.793Z</time>
      </trkpt>
      <trkpt lat="48.11085" lon="11.71548">
        <ele>539.891928</ele>
        <time>2022-09-13T04:59:09.716Z</time>
      </trkpt>
      <trkpt lat="48.11087" lon="11.7153">
        <ele>539.899372</ele>
        <time>2022-09-13T04:59:13.176Z</time>
      </trkpt>
      <trkpt lat="48.11088" lon="11.71525">
        <ele>539.901651</ele>
        <time>2022-09-13T04:59:14.237Z</time>
      </trkpt>
      <trkpt lat="48.11092" lon="11.71494">
        <ele>539.914424</ele>
        <time>2022-09-13T04:59:20.010Z</time>
      </trkpt>
      <trkpt lat="48.11103" lon="11.71381">
        <ele>539.962053</ele>
        <time>2022-09-13T04:59:41.633Z</time>
      </trkpt>
      <trkpt lat="48.11106" lon="11.71337">
        <ele>539.980492</ele>
        <time>2022-09-13T04:59:49.763Z</time>
      </trkpt>
      <trkpt lat="48.11124" lon="11.71154">
        <ele>540.005508</ele>
        <time>2022-09-13T05:00:24.291Z</time>
      </trkpt>
      <trkpt lat="48.11125" lon="11.71141">
        <ele>540.006474</ele>
        <time>2022-09-13T05:00:26.804Z</time>
      </trkpt>
      <trkpt lat="48.1113" lon="11.71089">
        <ele>540.010131</ele>
        <time>2022-09-13T05:00:36.471Z</time>
      </trkpt>
      <trkpt lat="48.11136" lon="11.7104">
        <ele>540.013603</ele>
        <time>2022-09-13T05:00:45.724Z</time>
      </trkpt>
      <trkpt lat="48.11144" lon="11.70993">
        <ele>540.017367</ele>
        <time>2022-09-13T05:00:54.765Z</time>
      </trkpt>
      <trkpt lat="48.11154" lon="11.70951">
        <ele>540.020906</ele>
        <time>2022-09-13T05:01:03.155Z</time>
      </trkpt>
      <trkpt lat="48.11157" lon="11.70937">
        <ele>540.022001</ele>
        <time>2022-09-13T05:01:05.752Z</time>
      </trkpt>
      <trkpt lat="48.11159" lon="11.70922">
        <ele>540.023237</ele>
        <time>2022-09-13T05:01:08.706Z</time>
      </trkpt>
      <trkpt lat="48.11201" lon="11.70713">
        <ele>539.96149</ele>
        <time>2022-09-13T05:01:49.018Z</time>
      </trkpt>
      <trkpt lat="48.11216" lon="11.70636">
        <ele>539.874272</ele>
        <time>2022-09-13T05:02:03.709Z</time>
      </trkpt>
      <trkpt lat="48.11227" lon="11.70581">
        <ele>539.812546</ele>
        <time>2022-09-13T05:02:13.889Z</time>
      </trkpt>
      <trkpt lat="48.11228" lon="11.70577">
        <ele>539.807821</ele>
        <time>2022-09-13T05:02:14.658Z</time>
      </trkpt>
      <trkpt lat="48.11249" lon="11.70473">
        <ele>539.653705</ele>
        <time>2022-09-13T05:02:33.844Z</time>
      </trkpt>
      <trkpt lat="48.11251" lon="11.70463">
        <ele>539.635165</ele>
        <time>2022-09-13T05:02:35.683Z</time>
      </trkpt>
      <trkpt lat="48.11253" lon="11.70454">
        <ele>539.617488</ele>
        <time>2022-09-13T05:02:37.410Z</time>
      </trkpt>
      <trkpt lat="48.11282" lon="11.7032">
        <ele>539.363231</ele>
        <time>2022-09-13T05:03:02.055Z</time>
      </trkpt>
      <trkpt lat="48.11288" lon="11.70292">
        <ele>539.309256</ele>
        <time>2022-09-13T05:03:07.363Z</time>
      </trkpt>
      <trkpt lat="48.11311" lon="11.70196">
        <ele>539.112519</ele>
        <time>2022-09-13T05:03:26.052Z</time>
      </trkpt>
      <trkpt lat="48.11312" lon="11.70192">
        <ele>539.102307</ele>
        <time>2022-09-13T05:03:26.979Z</time>
      </trkpt>
      <trkpt lat="48.11314" lon="11.70187">
        <ele>539.091386</ele>
        <time>2022-09-13T05:03:27.979Z</time>
      </trkpt>
      <trkpt lat="48.11328" lon="11.70137">
        <ele>538.983876</ele>
        <time>2022-09-13T05:03:37.994Z</time>
      </trkpt>
      <trkpt lat="48.1133" lon="11.70132">
        <ele>538.972734</ele>
        <time>2022-09-13T05:03:39.023Z</time>
      </trkpt>
      <trkpt lat="48.11337" lon="11.70113">
        <ele>538.929444</ele>
        <time>2022-09-13T05:03:43.025Z</time>
      </trkpt>
      <trkpt lat="48.11343" lon="11.70092">
        <ele>538.884196</ele>
        <time>2022-09-13T05:03:46.961Z</time>
      </trkpt>
      <trkpt lat="48.11364" lon="11.70034">
        <ele>538.753237</ele>
        <time>2022-09-13T05:03:58.214Z</time>
      </trkpt>
      <trkpt lat="48.11366" lon="11.70028">
        <ele>538.739249</ele>
        <time>2022-09-13T05:03:59.406Z</time>
      </trkpt>
      <trkpt lat="48.11368" lon="11.70024">
        <ele>538.729406</ele>
        <time>2022-09-13T05:04:00.244Z</time>
      </trkpt>
      <trkpt lat="48.11386" lon="11.69971">
        <ele>538.368272</ele>
        <time>2022-09-13T05:04:09.918Z</time>
      </trkpt>
      <trkpt lat="48.11414" lon="11.69892">
        <ele>537.786863</ele>
        <time>2022-09-13T05:04:24.509Z</time>
      </trkpt>
      <trkpt lat="48.11448" lon="11.69797">
        <ele>537.084076</ele>
        <time>2022-09-13T05:04:41.749Z</time>
      </trkpt>
      <trkpt lat="48.11465" lon="11.69748">
        <ele>536.822583</ele>
        <time>2022-09-13T05:04:50.551Z</time>
      </trkpt>
      <trkpt lat="48.11468" lon="11.69739">
        <ele>536.784932</ele>
        <time>2022-09-13T05:04:52.134Z</time>
      </trkpt>
      <trkpt lat="48.11471" lon="11.69729">
        <ele>536.743638</ele>
        <time>2022-09-13T05:04:53.883Z</time>
      </trkpt>
      <trkpt lat="48.11473" lon="11.69721">
        <ele>536.711809</ele>
        <time>2022-09-13T05:04:55.222Z</time>
      </trkpt>
      <trkpt lat="48.11479" lon="11.69707">
        <ele>536.646128</ele>
        <time>2022-09-13T05:04:58.028Z</time>
      </trkpt>
      <trkpt lat="48.11486" lon="11.69692">
        <ele>536.577549</ele>
        <time>2022-09-13T05:05:01.076Z</time>
      </trkpt>
      <trkpt lat="48.11488" lon="11.69687">
        <ele>536.554158</ele>
        <time>2022-09-13T05:05:02.086Z</time>
      </trkpt>
      <trkpt lat="48.11491" lon="11.69681">
        <ele>536.52288</ele>
        <time>2022-09-13T05:05:03.458Z</time>
      </trkpt>
      <trkpt lat="48.11501" lon="11.69667">
        <ele>536.445296</ele>
        <time>2022-09-13T05:05:06.968Z</time>
      </trkpt>
      <trkpt lat="48.11558" lon="11.69542">
        <ele>535.884036</ele>
        <time>2022-09-13T05:05:33.828Z</time>
      </trkpt>
      <trkpt lat="48.11564" lon="11.6953">
        <ele>535.843281</ele>
        <time>2022-09-13T05:05:36.435Z</time>
      </trkpt>
      <trkpt lat="48.11569" lon="11.69517">
        <ele>535.802984</ele>
        <time>2022-09-13T05:05:39.079Z</time>
      </trkpt>
      <trkpt lat="48.11577" lon="11.69501">
        <ele>535.749253</ele>
        <time>2022-09-13T05:05:42.560Z</time>
      </trkpt>
      <trkpt lat="48.11581" lon="11.69491">
        <ele>535.71724</ele>
        <time>2022-09-13T05:05:44.592Z</time>
      </trkpt>
      <trkpt lat="48.11587" lon="11.69477">
        <ele>535.671345</ele>
        <time>2022-09-13T05:05:47.682Z</time>
      </trkpt>
      <trkpt lat="48.11595" lon="11.69461">
        <ele>535.620066</ele>
        <time>2022-09-13T05:05:51.137Z</time>
      </trkpt>
      <trkpt lat="48.11608" lon="11.69431">
        <ele>535.521116</ele>
        <time>2022-09-13T05:05:57.624Z</time>
      </trkpt>
      <trkpt lat="48.11619" lon="11.69407">
        <ele>535.442527</ele>
        <time>2022-09-13T05:06:02.723Z</time>
      </trkpt>
      <trkpt lat="48.11631" lon="11.69382">
        <ele>535.363273</ele>
        <time>2022-09-13T05:06:07.842Z</time>
      </trkpt>
      <trkpt lat="48.11642" lon="11.69357">
        <ele>535.28178</ele>
        <time>2022-09-13T05:06:13.016Z</time>
      </trkpt>
      <trkpt lat="48.11644" lon="11.69353">
        <ele>535.267452</ele>
        <time>2022-09-13T05:06:13.954Z</time>
      </trkpt>
      <trkpt lat="48.11646" lon="11.69348">
        <ele>535.251324</ele>
        <time>2022-09-13T05:06:14.963Z</time>
      </trkpt>
      <trkpt lat="48.11661" lon="11.69312">
        <ele>535.13448</ele>
        <time>2022-09-13T05:06:22.089Z</time>
      </trkpt>
      <trkpt lat="48.11684" lon="11.69264">
        <ele>534.969333</ele>
        <time>2022-09-13T05:06:31.804Z</time>
      </trkpt>
      <trkpt lat="48.11759" lon="11.69099">
        <ele>534.423143</ele>
        <time>2022-09-13T05:07:07.204Z</time>
      </trkpt>
      <trkpt lat="48.11763" lon="11.69091">
        <ele>534.405667</ele>
        <time>2022-09-13T05:07:08.923Z</time>
      </trkpt>
      <trkpt lat="48.11765" lon="11.69086">
        <ele>534.393864</ele>
        <time>2022-09-13T05:07:10.106Z</time>
      </trkpt>
      <trkpt lat="48.11768" lon="11.69079">
        <ele>534.378994</ele>
        <time>2022-09-13T05:07:11.524Z</time>
      </trkpt>
      <trkpt lat="48.11783" lon="11.69032">
        <ele>534.284008</ele>
        <time>2022-09-13T05:07:20.574Z</time>
      </trkpt>
      <trkpt lat="48.11793" lon="11.68978">
        <ele>534.180302</ele>
        <time>2022-09-13T05:07:30.537Z</time>
      </trkpt>
      <trkpt lat="48.11803" lon="11.68874">
        <ele>533.98654</ele>
        <time>2022-09-13T05:07:49.427Z</time>
      </trkpt>
      <trkpt lat="48.11804" lon="11.68868">
        <ele>533.974629</ele>
        <time>2022-09-13T05:07:50.568Z</time>
      </trkpt>
      <trkpt lat="48.11805" lon="11.68856">
        <ele>533.95224</ele>
        <time>2022-09-13T05:07:52.653Z</time>
      </trkpt>
      <trkpt lat="48.11805" lon="11.6885">
        <ele>533.932986</ele>
        <time>2022-09-13T05:07:53.735Z</time>
      </trkpt>
      <trkpt lat="48.11821" lon="11.6869">
        <ele>533.418833</ele>
        <time>2022-09-13T05:08:21.697Z</time>
      </trkpt>
      <trkpt lat="48.11834" lon="11.68566">
        <ele>532.998697</ele>
        <time>2022-09-13T05:08:43.093Z</time>
      </trkpt>
      <trkpt lat="48.11852" lon="11.68389">
        <ele>532.272939</ele>
        <time>2022-09-13T05:09:13.537Z</time>
      </trkpt>
      <trkpt lat="48.11857" lon="11.68373">
        <ele>532.201457</ele>
        <time>2022-09-13T05:09:16.417Z</time>
      </trkpt>
      <trkpt lat="48.11858" lon="11.6836">
        <ele>532.148554</ele>
        <time>2022-09-13T05:09:18.588Z</time>
      </trkpt>
      <trkpt lat="48.1186" lon="11.68346">
        <ele>532.09074</ele>
        <time>2022-09-13T05:09:20.968Z</time>
      </trkpt>
      <trkpt lat="48.11872" lon="11.68274">
        <ele>531.929564</ele>
        <time>2022-09-13T05:09:33.341Z</time>
      </trkpt>
      <trkpt lat="48.119" lon="11.68121">
        <ele>531.701647</ele>
        <time>2022-09-13T05:10:01.721Z</time>
      </trkpt>
      <trkpt lat="48.11935" lon="11.67932">
        <ele>531.752139</ele>
        <time>2022-09-13T05:10:39.530Z</time>
      </trkpt>
      <trkpt lat="48.11937" lon="11.67914">
        <ele>531.770549</ele>
        <time>2022-09-13T05:10:43.276Z</time>
      </trkpt>
      <trkpt lat="48.11945" lon="11.67846">
        <ele>531.837169</ele>
        <time>2022-09-13T05:10:56.409Z</time>
      </trkpt>
      <trkpt lat="48.11947" lon="11.67832">
        <ele>531.850265</ele>
        <time>2022-09-13T05:10:58.850Z</time>
      </trkpt>
      <trkpt lat="48.11953" lon="11.67762">
        <ele>531.839048</ele>
        <time>2022-09-13T05:11:11.933Z</time>
      </trkpt>
      <trkpt lat="48.11957" lon="11.67698">
        <ele>531.777625</ele>
        <time>2022-09-13T05:11:23.975Z</time>
      </trkpt>
      <trkpt lat="48.11957" lon="11.67683">
        <ele>531.762843</ele>
        <time>2022-09-13T05:11:26.938Z</time>
      </trkpt>
      <trkpt lat="48.11958" lon="11.67667">
        <ele>531.747302</ele>
        <time>2022-09-13T05:11:29.918Z</time>
      </trkpt>
      <trkpt lat="48.11959" lon="11.67658">
        <ele>531.738422</ele>
        <time>2022-09-13T05:11:31.639Z</time>
      </trkpt>
      <trkpt lat="48.11959" lon="11.67652">
        <ele>531.732338</ele>
        <time>2022-09-13T05:11:32.825Z</time>
      </trkpt>
      <trkpt lat="48.1196" lon="11.67611">
        <ele>531.693026</ele>
        <time>2022-09-13T05:11:39.904Z</time>
      </trkpt>
      <trkpt lat="48.11959" lon="11.67545">
        <ele>531.629935</ele>
        <time>2022-09-13T05:11:51.071Z</time>
      </trkpt>
      <trkpt lat="48.11958" lon="11.67433">
        <ele>531.542048</ele>
        <time>2022-09-13T05:12:11.307Z</time>
      </trkpt>
      <trkpt lat="48.11958" lon="11.67384">
        <ele>531.505046</ele>
        <time>2022-09-13T05:12:20.698Z</time>
      </trkpt>
      <trkpt lat="48.11958" lon="11.67368">
        <ele>531.493092</ele>
        <time>2022-09-13T05:12:23.829Z</time>
      </trkpt>
      <trkpt lat="48.11959" lon="11.67324">
        <ele>531.459047</ele>
        <time>2022-09-13T05:12:32.549Z</time>
      </trkpt>
      <trkpt lat="48.11971" lon="11.67152">
        <ele>531.140856</ele>
        <time>2022-09-13T05:13:02.666Z</time>
      </trkpt>
      <trkpt lat="48.11973" lon="11.67144">
        <ele>531.120625</ele>
        <time>2022-09-13T05:13:04.162Z</time>
      </trkpt>
      <trkpt lat="48.11974" lon="11.67136">
        <ele>531.102237</ele>
        <time>2022-09-13T05:13:05.569Z</time>
      </trkpt>
      <trkpt lat="48.11975" lon="11.67117">
        <ele>531.056093</ele>
        <time>2022-09-13T05:13:08.976Z</time>
      </trkpt>
      <trkpt lat="48.11977" lon="11.67107">
        <ele>531.031352</ele>
        <time>2022-09-13T05:13:10.726Z</time>
      </trkpt>
      <trkpt lat="48.11996" lon="11.66987">
        <ele>530.708196</ele>
        <time>2022-09-13T05:13:32.447Z</time>
      </trkpt>
      <trkpt lat="48.11998" lon="11.66979">
        <ele>530.670493</ele>
        <time>2022-09-13T05:13:33.963Z</time>
      </trkpt>
      <trkpt lat="48.12014" lon="11.66907">
        <ele>530.340278</ele>
        <time>2022-09-13T05:13:46.514Z</time>
      </trkpt>
      <trkpt lat="48.12028" lon="11.66854">
        <ele>530.090402</ele>
        <time>2022-09-13T05:13:55.856Z</time>
      </trkpt>
      <trkpt lat="48.12033" lon="11.66838">
        <ele>530.014138</ele>
        <time>2022-09-13T05:13:58.719Z</time>
      </trkpt>
      <trkpt lat="48.12059" lon="11.66757">
        <ele>529.623426</ele>
        <time>2022-09-13T05:14:14.003Z</time>
      </trkpt>
      <trkpt lat="48.12063" lon="11.66747">
        <ele>529.576837</ele>
        <time>2022-09-13T05:14:16.085Z</time>
      </trkpt>
      <trkpt lat="48.12067" lon="11.66734">
        <ele>529.532008</ele>
        <time>2022-09-13T05:14:18.518Z</time>
      </trkpt>
      <trkpt lat="48.12097" lon="11.66639">
        <ele>529.197231</ele>
        <time>2022-09-13T05:14:36.834Z</time>
      </trkpt>
      <trkpt lat="48.12146" lon="11.66497">
        <ele>528.69383</ele>
        <time>2022-09-13T05:15:04.210Z</time>
      </trkpt>
      <trkpt lat="48.12151" lon="11.66488">
        <ele>528.658885</ele>
        <time>2022-09-13T05:15:06.352Z</time>
      </trkpt>
      <trkpt lat="48.12153" lon="11.66475">
        <ele>528.621226</ele>
        <time>2022-09-13T05:15:08.595Z</time>
      </trkpt>
      <trkpt lat="48.12173" lon="11.66416">
        <ele>528.432867</ele>
        <time>2022-09-13T05:15:19.920Z</time>
      </trkpt>
      <trkpt lat="48.1219" lon="11.66366">
        <ele>528.271633</ele>
        <time>2022-09-13T05:15:29.549Z</time>
      </trkpt>
      <trkpt lat="48.12216" lon="11.66292">
        <ele>528.032933</ele>
        <time>2022-09-13T05:15:44.132Z</time>
      </trkpt>
      <trkpt lat="48.1223" lon="11.66252">
        <ele>527.946571</ele>
        <time>2022-09-13T05:15:52.137Z</time>
      </trkpt>
      <trkpt lat="48.12238" lon="11.66228">
        <ele>527.925184</ele>
        <time>2022-09-13T05:15:56.717Z</time>
      </trkpt>
      <trkpt lat="48.12245" lon="11.66207">
        <ele>527.906165</ele>
        <time>2022-09-13T05:16:00.739Z</time>
      </trkpt>
      <trkpt lat="48.12247" lon="11.66201">
        <ele>527.900232</ele>
        <time>2022-09-13T05:16:02.013Z</time>
      </trkpt>
      <trkpt lat="48.12252" lon="11.66188">
        <ele>527.888093</ele>
        <time>2022-09-13T05:16:04.668Z</time>
      </trkpt>
      <trkpt lat="48.12273" lon="11.66125">
        <ele>527.831182</ele>
        <time>2022-09-13T05:16:17.509Z</time>
      </trkpt>
      <trkpt lat="48.12349" lon="11.65902">
        <ele>527.8815</ele>
        <time>2022-09-13T05:17:04.733Z</time>
      </trkpt>
      <trkpt lat="48.1238" lon="11.65815">
        <ele>527.97359</ele>
        <time>2022-09-13T05:17:23.402Z</time>
      </trkpt>
      <trkpt lat="48.12385" lon="11.658">
        <ele>527.990019</ele>
        <time>2022-09-13T05:17:26.571Z</time>
      </trkpt>
      <trkpt lat="48.12389" lon="11.65789">
        <ele>528.003968</ele>
        <time>2022-09-13T05:17:28.726Z</time>
      </trkpt>
      <trkpt lat="48.12455" lon="11.65586">
        <ele>528.38383</ele>
        <time>2022-09-13T05:18:12.481Z</time>
      </trkpt>
      <trkpt lat="48.12463" lon="11.65556">
        <ele>528.43722</ele>
        <time>2022-09-13T05:18:18.650Z</time>
      </trkpt>
      <trkpt lat="48.12473" lon="11.65519">
        <ele>528.492007</ele>
        <time>2022-09-13T05:18:26.627Z</time>
      </trkpt>
      <trkpt lat="48.12478" lon="11.655">
        <ele>528.518319</ele>
        <time>2022-09-13T05:18:30.607Z</time>
      </trkpt>
      <trkpt lat="48.12482" lon="11.65482">
        <ele>528.543259</ele>
        <time>2022-09-13T05:18:34.571Z</time>
      </trkpt>
      <trkpt lat="48.12491" lon="11.65444">
        <ele>528.596542</ele>
        <time>2022-09-13T05:18:42.554Z</time>
      </trkpt>
      <trkpt lat="48.12496" lon="11.6544">
        <ele>528.607137</ele>
        <time>2022-09-13T05:18:44.233Z</time>
      </trkpt>
      <trkpt lat="48.12498" lon="11.6543">
        <ele>528.62</ele>
        <time>2022-09-13T05:18:46.085Z</time>
      </trkpt>
      <trkpt lat="48.125" lon="11.65417">
        <ele>528.637344</ele>
        <time>2022-09-13T05:18:48.501Z</time>
      </trkpt>
      <trkpt lat="48.12501" lon="11.65395">
        <ele>528.666495</ele>
        <time>2022-09-13T05:18:52.727Z</time>
      </trkpt>
      <trkpt lat="48.12506" lon="11.65348">
        <ele>528.72818</ele>
        <time>2022-09-13T05:19:01.810Z</time>
      </trkpt>
      <trkpt lat="48.12509" lon="11.6533">
        <ele>528.751739</ele>
        <time>2022-09-13T05:19:05.427Z</time>
      </trkpt>
      <trkpt lat="48.12529" lon="11.65192">
        <ele>528.645368</ele>
        <time>2022-09-13T05:19:30.535Z</time>
      </trkpt>
      <trkpt lat="48.12553" lon="11.65007">
        <ele>528.384087</ele>
        <time>2022-09-13T05:20:03.879Z</time>
      </trkpt>
      <trkpt lat="48.12554" lon="11.64998">
        <ele>528.378405</ele>
        <time>2022-09-13T05:20:05.587Z</time>
      </trkpt>
      <trkpt lat="48.12556" lon="11.64987">
        <ele>528.372045</ele>
        <time>2022-09-13T05:20:07.491Z</time>
      </trkpt>
      <trkpt lat="48.12556" lon="11.64981">
        <ele>528.368515</ele>
        <time>2022-09-13T05:20:08.580Z</time>
      </trkpt>
      <trkpt lat="48.12562" lon="11.64934">
        <ele>528.339917</ele>
        <time>2022-09-13T05:20:17.423Z</time>
      </trkpt>
      <trkpt lat="48.12567" lon="11.64888">
        <ele>528.312288</ele>
        <time>2022-09-13T05:20:26.056Z</time>
      </trkpt>
      <trkpt lat="48.12568" lon="11.64876">
        <ele>528.304499</ele>
        <time>2022-09-13T05:20:28.549Z</time>
      </trkpt>
      <trkpt lat="48.12571" lon="11.64854">
        <ele>528.291695</ele>
        <time>2022-09-13T05:20:32.565Z</time>
      </trkpt>
      <trkpt lat="48.12574" lon="11.6483">
        <ele>528.276893</ele>
        <time>2022-09-13T05:20:37.151Z</time>
      </trkpt>
      <trkpt lat="48.12572" lon="11.64821">
        <ele>528.271179</ele>
        <time>2022-09-13T05:20:38.887Z</time>
      </trkpt>
      <trkpt lat="48.12577" lon="11.64778">
        <ele>528.245149</ele>
        <time>2022-09-13T05:20:46.451Z</time>
      </trkpt>
      <trkpt lat="48.12583" lon="11.64763">
        <ele>528.238509</ele>
        <time>2022-09-13T05:20:49.566Z</time>
      </trkpt>
      <trkpt lat="48.1259" lon="11.64717">
        <ele>528.255373</ele>
        <time>2022-09-13T05:20:57.808Z</time>
      </trkpt>
      <trkpt lat="48.126" lon="11.64643">
        <ele>528.282085</ele>
        <time>2022-09-13T05:21:11.415Z</time>
      </trkpt>
      <trkpt lat="48.12606" lon="11.64593">
        <ele>528.300281</ele>
        <time>2022-09-13T05:21:20.872Z</time>
      </trkpt>
      <trkpt lat="48.12604" lon="11.6457">
        <ele>528.308222</ele>
        <time>2022-09-13T05:21:25.099Z</time>
      </trkpt>
      <trkpt lat="48.12617" lon="11.64506">
        <ele>528.331984</ele>
        <time>2022-09-13T05:21:37.994Z</time>
      </trkpt>
      <trkpt lat="48.1262" lon="11.64488">
        <ele>528.346809</ele>
        <time>2022-09-13T05:21:41.601Z</time>
      </trkpt>
      <trkpt lat="48.12622" lon="11.64475">
        <ele>528.357658</ele>
        <time>2022-09-13T05:21:43.914Z</time>
      </trkpt>
      <trkpt lat="48.12629" lon="11.64418">
        <ele>528.406229</ele>
        <time>2022-09-13T05:21:54.412Z</time>
      </trkpt>
      <trkpt lat="48.12641" lon="11.64328">
        <ele>528.482378</ele>
        <time>2022-09-13T05:22:11.520Z</time>
      </trkpt>
      <trkpt lat="48.12648" lon="11.64275">
        <ele>528.527429</ele>
        <time>2022-09-13T05:22:22.163Z</time>
      </trkpt>
      <trkpt lat="48.12656" lon="11.642">
        <ele>528.570722</ele>
        <time>2022-09-13T05:22:36.968Z</time>
      </trkpt>
      <trkpt lat="48.12656" lon="11.64196">
        <ele>528.572161</ele>
        <time>2022-09-13T05:22:37.795Z</time>
      </trkpt>
      <trkpt lat="48.12665" lon="11.6405">
        <ele>528.619334</ele>
        <time>2022-09-13T05:23:04.580Z</time>
      </trkpt>
      <trkpt lat="48.12679" lon="11.63844">
        <ele>528.758005</ele>
        <time>2022-09-13T05:23:43.699Z</time>
      </trkpt>
      <trkpt lat="48.12681" lon="11.63826">
        <ele>528.774044</ele>
        <time>2022-09-13T05:23:47.138Z</time>
      </trkpt>
      <trkpt lat="48.12682" lon="11.63812">
        <ele>528.786583</ele>
        <time>2022-09-13T05:23:49.856Z</time>
      </trkpt>
      <trkpt lat="48.12693" lon="11.63751">
        <ele>528.84155</ele>
        <time>2022-09-13T05:24:01.888Z</time>
      </trkpt>
      <trkpt lat="48.12708" lon="11.63672">
        <ele>528.874415</ele>
        <time>2022-09-13T05:24:17.929Z</time>
      </trkpt>
      <trkpt lat="48.12717" lon="11.63621">
        <ele>528.863192</ele>
        <time>2022-09-13T05:24:27.903Z</time>
      </trkpt>
      <trkpt lat="48.12726" lon="11.63572">
        <ele>528.852545</ele>
        <time>2022-09-13T05:24:37.181Z</time>
      </trkpt>
      <trkpt lat="48.1273" lon="11.63556">
        <ele>528.848937</ele>
        <time>2022-09-13T05:24:40.369Z</time>
      </trkpt>
      <trkpt lat="48.12745" lon="11.63485">
        <ele>528.833255</ele>
        <time>2022-09-13T05:24:53.695Z</time>
      </trkpt>
      <trkpt lat="48.12751" lon="11.63455">
        <ele>528.826482</ele>
        <time>2022-09-13T05:24:59.528Z</time>
      </trkpt>
      <trkpt lat="48.12755" lon="11.63426">
        <ele>528.845115</ele>
        <time>2022-09-13T05:25:04.721Z</time>
      </trkpt>
      <trkpt lat="48.12773" lon="11.63342">
        <ele>528.920344</ele>
        <time>2022-09-13T05:25:20.220Z</time>
      </trkpt>
      <trkpt lat="48.12776" lon="11.63328">
        <ele>528.933043</ele>
        <time>2022-09-13T05:25:22.836Z</time>
      </trkpt>
      <trkpt lat="48.12796" lon="11.63245">
        <ele>529.008453</ele>
        <time>2022-09-13T05:25:39.445Z</time>
      </trkpt>
      <trkpt lat="48.12816" lon="11.63167">
        <ele>529.353456</ele>
        <time>2022-09-13T05:25:56.874Z</time>
      </trkpt>
      <trkpt lat="48.1282" lon="11.63153">
        <ele>529.521443</ele>
        <time>2022-09-13T05:26:00.428Z</time>
      </trkpt>
      <trkpt lat="48.12827" lon="11.63125">
        <ele>529.8488</ele>
        <time>2022-09-13T05:26:07.485Z</time>
      </trkpt>
      <trkpt lat="48.12836" lon="11.6309">
        <ele>530.254448</ele>
        <time>2022-09-13T05:26:16.123Z</time>
      </trkpt>
      <trkpt lat="48.12841" lon="11.63073">
        <ele>530.455127</ele>
        <time>2022-09-13T05:26:20.246Z</time>
      </trkpt>
      <trkpt lat="48.12846" lon="11.63054">
        <ele>530.672068</ele>
        <time>2022-09-13T05:26:24.750Z</time>
      </trkpt>
      <trkpt lat="48.12848" lon="11.63043">
        <ele>530.793851</ele>
        <time>2022-09-13T05:26:27.447Z</time>
      </trkpt>
      <trkpt lat="48.12851" lon="11.63031">
        <ele>530.933046</ele>
        <time>2022-09-13T05:26:30.471Z</time>
      </trkpt>
      <trkpt lat="48.12878" lon="11.62929">
        <ele>532.129171</ele>
        <time>2022-09-13T05:26:58.193Z</time>
      </trkpt>
      <trkpt lat="48.12887" lon="11.6289">
        <ele>532.609443</ele>
        <time>2022-09-13T05:27:10.090Z</time>
      </trkpt>
      <trkpt lat="48.12893" lon="11.62866">
        <ele>532.907996</ele>
        <time>2022-09-13T05:27:17.263Z</time>
      </trkpt>
      <trkpt lat="48.12915" lon="11.62762">
        <ele>534.185338</ele>
        <time>2022-09-13T05:27:46.146Z</time>
      </trkpt>
      <trkpt lat="48.12927" lon="11.62678">
        <ele>535.078304</ele>
        <time>2022-09-13T05:28:03.195Z</time>
      </trkpt>
      <trkpt lat="48.12931" lon="11.62654">
        <ele>534.961222</ele>
        <time>2022-09-13T05:28:07.355Z</time>
      </trkpt>
      <trkpt lat="48.12932" lon="11.62647">
        <ele>534.929842</ele>
        <time>2022-09-13T05:28:08.562Z</time>
      </trkpt>
      <trkpt lat="48.12946" lon="11.62555">
        <ele>534.487966</ele>
        <time>2022-09-13T05:28:25.142Z</time>
      </trkpt>
      <trkpt lat="48.1295" lon="11.62531">
        <ele>534.37137</ele>
        <time>2022-09-13T05:28:29.460Z</time>
      </trkpt>
      <trkpt lat="48.12951" lon="11.62523">
        <ele>534.334381</ele>
        <time>2022-09-13T05:28:30.860Z</time>
      </trkpt>
      <trkpt lat="48.12956" lon="11.6249">
        <ele>534.176536</ele>
        <time>2022-09-13T05:28:36.396Z</time>
      </trkpt>
      <trkpt lat="48.12965" lon="11.62431">
        <ele>533.892205</ele>
        <time>2022-09-13T05:28:45.663Z</time>
      </trkpt>
      <trkpt lat="48.12979" lon="11.62337">
        <ele>533.527555</ele>
        <time>2022-09-13T05:28:59.877Z</time>
      </trkpt>
      <trkpt lat="48.12983" lon="11.62312">
        <ele>533.433183</ele>
        <time>2022-09-13T05:29:03.806Z</time>
      </trkpt>
      <trkpt lat="48.12985" lon="11.62301">
        <ele>533.390691</ele>
        <time>2022-09-13T05:29:05.624Z</time>
      </trkpt>
      <trkpt lat="48.12987" lon="11.62289">
        <ele>533.344705</ele>
        <time>2022-09-13T05:29:07.635Z</time>
      </trkpt>
      <trkpt lat="48.12988" lon="11.62277">
        <ele>533.300046</ele>
        <time>2022-09-13T05:29:09.592Z</time>
      </trkpt>
      <trkpt lat="48.1299" lon="11.62268">
        <ele>533.267785</ele>
        <time>2022-09-13T05:29:11.195Z</time>
      </trkpt>
      <trkpt lat="48.13006" lon="11.62168">
        <ele>532.885717</ele>
        <time>2022-09-13T05:29:32.731Z</time>
      </trkpt>
      <trkpt lat="48.13018" lon="11.62097">
        <ele>533.092404</ele>
        <time>2022-09-13T05:29:48.174Z</time>
      </trkpt>
      <trkpt lat="48.13025" lon="11.62058">
        <ele>533.241756</ele>
        <time>2022-09-13T05:29:56.409Z</time>
      </trkpt>
      <trkpt lat="48.13026" lon="11.62053">
        <ele>533.263678</ele>
        <time>2022-09-13T05:29:57.561Z</time>
      </trkpt>
      <trkpt lat="48.13027" lon="11.62046">
        <ele>533.288005</ele>
        <time>2022-09-13T05:29:58.799Z</time>
      </trkpt>
      <trkpt lat="48.13029" lon="11.62037">
        <ele>533.324229</ele>
        <time>2022-09-13T05:30:00.705Z</time>
      </trkpt>
      <trkpt lat="48.13035" lon="11.62001">
        <ele>533.462657</ele>
        <time>2022-09-13T05:30:08.223Z</time>
      </trkpt>
      <trkpt lat="48.13048" lon="11.61925">
        <ele>533.754535</ele>
        <time>2022-09-13T05:30:24.139Z</time>
      </trkpt>
      <trkpt lat="48.13056" lon="11.61881">
        <ele>533.842119</ele>
        <time>2022-09-13T05:30:33.341Z</time>
      </trkpt>
      <trkpt lat="48.13063" lon="11.61838">
        <ele>533.81027</ele>
        <time>2022-09-13T05:30:42.214Z</time>
      </trkpt>
      <trkpt lat="48.13073" lon="11.61785">
        <ele>533.77065</ele>
        <time>2022-09-13T05:30:52.249Z</time>
      </trkpt>
      <trkpt lat="48.13085" lon="11.61719">
        <ele>533.721195</ele>
        <time>2022-09-13T05:31:04.016Z</time>
      </trkpt>
      <trkpt lat="48.13087" lon="11.61707">
        <ele>533.712045</ele>
        <time>2022-09-13T05:31:06.189Z</time>
      </trkpt>
      <trkpt lat="48.13089" lon="11.61697">
        <ele>533.704678</ele>
        <time>2022-09-13T05:31:07.941Z</time>
      </trkpt>
      <trkpt lat="48.13106" lon="11.616">
        <ele>533.555587</ele>
        <time>2022-09-13T05:31:25.487Z</time>
      </trkpt>
      <trkpt lat="48.13107" lon="11.61593">
        <ele>533.535417</ele>
        <time>2022-09-13T05:31:26.668Z</time>
      </trkpt>
      <trkpt lat="48.13107" lon="11.6159">
        <ele>533.528636</ele>
        <time>2022-09-13T05:31:27.095Z</time>
      </trkpt>
      <trkpt lat="48.13111" lon="11.61565">
        <ele>533.459579</ele>
        <time>2022-09-13T05:31:31.694Z</time>
      </trkpt>
      <trkpt lat="48.13112" lon="11.61559">
        <ele>533.44264</ele>
        <time>2022-09-13T05:31:32.795Z</time>
      </trkpt>
      <trkpt lat="48.13112" lon="11.6155">
        <ele>533.419412</ele>
        <time>2022-09-13T05:31:34.176Z</time>
      </trkpt>
      <trkpt lat="48.13116" lon="11.61531">
        <ele>533.367672</ele>
        <time>2022-09-13T05:31:37.497Z</time>
      </trkpt>
      <trkpt lat="48.13117" lon="11.61523">
        <ele>533.344717</ele>
        <time>2022-09-13T05:31:39.083Z</time>
      </trkpt>
      <trkpt lat="48.13129" lon="11.61454">
        <ele>533.154265</ele>
        <time>2022-09-13T05:31:51.924Z</time>
      </trkpt>
      <trkpt lat="48.13134" lon="11.61425">
        <ele>533.075044</ele>
        <time>2022-09-13T05:31:56.880Z</time>
      </trkpt>
      <trkpt lat="48.13136" lon="11.61414">
        <ele>533.043835</ele>
        <time>2022-09-13T05:31:59.021Z</time>
      </trkpt>
      <trkpt lat="48.13136" lon="11.6141">
        <ele>533.033312</ele>
        <time>2022-09-13T05:31:59.742Z</time>
      </trkpt>
      <trkpt lat="48.13138" lon="11.61399">
        <ele>533.002818</ele>
        <time>2022-09-13T05:32:01.642Z</time>
      </trkpt>
      <trkpt lat="48.1314" lon="11.61386">
        <ele>532.967198</ele>
        <time>2022-09-13T05:32:03.655Z</time>
      </trkpt>
      <trkpt lat="48.1314" lon="11.61384">
        <ele>532.962063</ele>
        <time>2022-09-13T05:32:03.955Z</time>
      </trkpt>
      <trkpt lat="48.13152" lon="11.61304">
        <ele>532.830064</ele>
        <time>2022-09-13T05:32:17.673Z</time>
      </trkpt>
      <trkpt lat="48.13161" lon="11.61246">
        <ele>532.738999</ele>
        <time>2022-09-13T05:32:28.610Z</time>
      </trkpt>
      <trkpt lat="48.13177" lon="11.61192">
        <ele>532.650592</ele>
        <time>2022-09-13T05:32:39.346Z</time>
      </trkpt>
      <trkpt lat="48.13215" lon="11.61108">
        <ele>532.530131</ele>
        <time>2022-09-13T05:32:58.609Z</time>
      </trkpt>
      <trkpt lat="48.1325" lon="11.61039">
        <ele>532.51336</ele>
        <time>2022-09-13T05:33:14.502Z</time>
      </trkpt>
      <trkpt lat="48.13256" lon="11.61037">
        <ele>532.511671</ele>
        <time>2022-09-13T05:33:15.947Z</time>
      </trkpt>
      <trkpt lat="48.13258" lon="11.61025">
        <ele>532.509346</ele>
        <time>2022-09-13T05:33:17.872Z</time>
      </trkpt>
      <trkpt lat="48.13259" lon="11.61017">
        <ele>532.507775</ele>
        <time>2022-09-13T05:33:19.384Z</time>
      </trkpt>
      <trkpt lat="48.1326" lon="11.61012">
        <ele>532.506745</ele>
        <time>2022-09-13T05:33:20.368Z</time>
      </trkpt>
      <trkpt lat="48.13261" lon="11.61007">
        <ele>532.505633</ele>
        <time>2022-09-13T05:33:21.427Z</time>
      </trkpt>
      <trkpt lat="48.13261" lon="11.60998">
        <ele>532.504052</ele>
        <time>2022-09-13T05:33:22.892Z</time>
      </trkpt>
      <trkpt lat="48.13261" lon="11.60987">
        <ele>532.501864</ele>
        <time>2022-09-13T05:33:24.879Z</time>
      </trkpt>
      <trkpt lat="48.13256" lon="11.60985">
        <ele>532.500404</ele>
        <time>2022-09-13T05:33:26.100Z</time>
      </trkpt>
      <trkpt lat="48.13275" lon="11.60883">
        <ele>532.472469</ele>
        <time>2022-09-13T05:33:45.335Z</time>
      </trkpt>
      <trkpt lat="48.13279" lon="11.60861">
        <ele>532.457447</ele>
        <time>2022-09-13T05:33:49.420Z</time>
      </trkpt>
      <trkpt lat="48.13279" lon="11.60859">
        <ele>532.455814</ele>
        <time>2022-09-13T05:33:49.874Z</time>
      </trkpt>
      <trkpt lat="48.13295" lon="11.60766">
        <ele>532.392827</ele>
        <time>2022-09-13T05:34:06.099Z</time>
      </trkpt>
      <trkpt lat="48.13298" lon="11.60745">
        <ele>532.378225</ele>
        <time>2022-09-13T05:34:09.955Z</time>
      </trkpt>
      <trkpt lat="48.13301" lon="11.60711">
        <ele>532.35564</ele>
        <time>2022-09-13T05:34:15.865Z</time>
      </trkpt>
      <trkpt lat="48.13314" lon="11.60519">
        <ele>532.304114</ele>
        <time>2022-09-13T05:34:50.289Z</time>
      </trkpt>
      <trkpt lat="48.13313" lon="11.60505">
        <ele>532.303994</ele>
        <time>2022-09-13T05:34:52.843Z</time>
      </trkpt>
      <trkpt lat="48.13314" lon="11.60491">
        <ele>532.303877</ele>
        <time>2022-09-13T05:34:55.383Z</time>
      </trkpt>
      <trkpt lat="48.13321" lon="11.60415">
        <ele>532.303214</ele>
        <time>2022-09-13T05:35:10.478Z</time>
      </trkpt>
      <trkpt lat="48.13373" lon="11.60189">
        <ele>531.663081</ele>
        <time>2022-09-13T05:35:49.127Z</time>
      </trkpt>
      <trkpt lat="48.13367" lon="11.60178">
        <ele>531.617662</ele>
        <time>2022-09-13T05:35:51.207Z</time>
      </trkpt>
      <trkpt lat="48.13329" lon="11.60158">
        <ele>531.415328</ele>
        <time>2022-09-13T05:36:00.833Z</time>
      </trkpt>
      <trkpt lat="48.133" lon="11.60094">
        <ele>531.306245</ele>
        <time>2022-09-13T05:36:14.238Z</time>
      </trkpt>
      <trkpt lat="48.13294" lon="11.60082">
        <ele>531.286919</ele>
        <time>2022-09-13T05:36:17.080Z</time>
      </trkpt>
      <trkpt lat="48.13263" lon="11.60014">
        <ele>531.184027</ele>
        <time>2022-09-13T05:36:31.452Z</time>
      </trkpt>
      <trkpt lat="48.13243" lon="11.59969">
        <ele>531.116228</ele>
        <time>2022-09-13T05:36:40.728Z</time>
      </trkpt>
      <trkpt lat="48.13239" lon="11.59957">
        <ele>531.099666</ele>
        <time>2022-09-13T05:36:42.911Z</time>
      </trkpt>
      <trkpt lat="48.13234" lon="11.59908">
        <ele>531.066174</ele>
        <time>2022-09-13T05:36:51.739Z</time>
      </trkpt>
      <trkpt lat="48.13232" lon="11.59809">
        <ele>531.114055</ele>
        <time>2022-09-13T05:37:09.036Z</time>
      </trkpt>
      <trkpt lat="48.13231" lon="11.59777">
        <ele>531.129983</ele>
        <time>2022-09-13T05:37:15.216Z</time>
      </trkpt>
      <trkpt lat="48.13231" lon="11.5976">
        <ele>531.138141</ele>
        <time>2022-09-13T05:37:18.366Z</time>
      </trkpt>
      <trkpt lat="48.13231" lon="11.59751">
        <ele>531.142413</ele>
        <time>2022-09-13T05:37:19.991Z</time>
      </trkpt>
      <trkpt lat="48.13229" lon="11.59647">
        <ele>531.218691</ele>
        <time>2022-09-13T05:37:39.445Z</time>
      </trkpt>
      <trkpt lat="48.13229" lon="11.59637">
        <ele>531.254529</ele>
        <time>2022-09-13T05:37:41.014Z</time>
      </trkpt>
      <trkpt lat="48.13228" lon="11.59458">
        <ele>531.910912</ele>
        <time>2022-09-13T05:38:14.743Z</time>
      </trkpt>
      <trkpt lat="48.13228" lon="11.5945">
        <ele>531.940165</ele>
        <time>2022-09-13T05:38:16.973Z</time>
      </trkpt>
      <trkpt lat="48.13228" lon="11.59417">
        <ele>532.061564</ele>
        <time>2022-09-13T05:38:26.100Z</time>
      </trkpt>
      <trkpt lat="48.13228" lon="11.5936">
        <ele>532.051323</ele>
        <time>2022-09-13T05:38:42.937Z</time>
      </trkpt>
      <trkpt lat="48.13228" lon="11.59353">
        <ele>532.017841</ele>
        <time>2022-09-13T05:38:45.163Z</time>
      </trkpt>
      <trkpt lat="48.13228" lon="11.59342">
        <ele>531.967848</ele>
        <time>2022-09-13T05:38:47.715Z</time>
      </trkpt>
      <trkpt lat="48.13227" lon="11.59328">
        <ele>531.903697</ele>
        <time>2022-09-13T05:38:50.302Z</time>
      </trkpt>
      <trkpt lat="48.13224" lon="11.59126">
        <ele>530.94742</ele>
        <time>2022-09-13T05:39:21.230Z</time>
      </trkpt>
      <trkpt lat="48.13225" lon="11.59071">
        <ele>529.825072</ele>
        <time>2022-09-13T05:39:28.758Z</time>
      </trkpt>
      <trkpt lat="48.1323" lon="11.59058">
        <ele>529.453197</ele>
        <time>2022-09-13T05:39:30.806Z</time>
      </trkpt>
      <trkpt lat="48.13234" lon="11.5905">
        <ele>529.226439</ele>
        <time>2022-09-13T05:39:32.059Z</time>
      </trkpt>
      <trkpt lat="48.1324" lon="11.59039">
        <ele>528.905111</ele>
        <time>2022-09-13T05:39:33.864Z</time>
      </trkpt>
      <trkpt lat="48.1324" lon="11.59032">
        <ele>528.72879</ele>
        <time>2022-09-13T05:39:34.825Z</time>
      </trkpt>
      <trkpt lat="48.13208" lon="11.58989">
        <ele>527.187485</ele>
        <time>2022-09-13T05:39:43.108Z</time>
      </trkpt>
      <trkpt lat="48.13184" lon="11.58949">
        <ele>525.925243</ele>
        <time>2022-09-13T05:39:49.664Z</time>
      </trkpt>
      <trkpt lat="48.13177" lon="11.58924">
        <ele>525.2812</ele>
        <time>2022-09-13T05:39:53.066Z</time>
      </trkpt>
      <trkpt lat="48.13171" lon="11.58846">
        <ele>523.587368</ele>
        <time>2022-09-13T05:40:03.214Z</time>
      </trkpt>
      <trkpt lat="48.13166" lon="11.58768">
        <ele>521.994838</ele>
        <time>2022-09-13T05:40:13.870Z</time>
      </trkpt>
      <trkpt lat="48.13166" lon="11.58755">
        <ele>521.72959</ele>
        <time>2022-09-13T05:40:15.734Z</time>
      </trkpt>
      <trkpt lat="48.13166" lon="11.58747">
        <ele>521.569414</ele>
        <time>2022-09-13T05:40:16.876Z</time>
      </trkpt>
      <trkpt lat="48.13183" lon="11.58659">
        <ele>519.722175</ele>
        <time>2022-09-13T05:40:29.199Z</time>
      </trkpt>
      <trkpt lat="48.13186" lon="11.58642">
        <ele>519.366928</ele>
        <time>2022-09-13T05:40:31.690Z</time>
      </trkpt>
      <trkpt lat="48.1319" lon="11.58631">
        <ele>519.11417</ele>
        <time>2022-09-13T05:40:33.460Z</time>
      </trkpt>
      <trkpt lat="48.132" lon="11.58597">
        <ele>518.968895</ele>
        <time>2022-09-13T05:40:38.947Z</time>
      </trkpt>
      <trkpt lat="48.13203" lon="11.58587">
        <ele>518.935966</ele>
        <time>2022-09-13T05:40:40.597Z</time>
      </trkpt>
      <trkpt lat="48.13204" lon="11.58585">
        <ele>518.928373</ele>
        <time>2022-09-13T05:40:40.989Z</time>
      </trkpt>
      <trkpt lat="48.13228" lon="11.5853">
        <ele>518.737138</ele>
        <time>2022-09-13T05:40:51.335Z</time>
      </trkpt>
      <trkpt lat="48.13237" lon="11.58513">
        <ele>518.67458</ele>
        <time>2022-09-13T05:40:54.944Z</time>
      </trkpt>
      <trkpt lat="48.13243" lon="11.58501">
        <ele>518.629134</ele>
        <time>2022-09-13T05:40:57.664Z</time>
      </trkpt>
      <trkpt lat="48.13249" lon="11.58487">
        <ele>518.579922</ele>
        <time>2022-09-13T05:41:00.702Z</time>
      </trkpt>
      <trkpt lat="48.13299" lon="11.58384">
        <ele>518.285914</ele>
        <time>2022-09-13T05:41:25.232Z</time>
      </trkpt>
      <trkpt lat="48.13312" lon="11.58359">
        <ele>518.292433</ele>
        <time>2022-09-13T05:41:31.220Z</time>
      </trkpt>
      <trkpt lat="48.13326" lon="11.58348">
        <ele>518.297433</ele>
        <time>2022-09-13T05:41:35.566Z</time>
      </trkpt>
      <trkpt lat="48.13331" lon="11.58344">
        <ele>518.29922</ele>
        <time>2022-09-13T05:41:37.118Z</time>
      </trkpt>
      <trkpt lat="48.13347" lon="11.58332">
        <ele>518.304797</ele>
        <time>2022-09-13T05:41:41.923Z</time>
      </trkpt>
      <trkpt lat="48.13368" lon="11.58315">
        <ele>518.312382</ele>
        <time>2022-09-13T05:41:48.371Z</time>
      </trkpt>
      <trkpt lat="48.13385" lon="11.58303">
        <ele>518.318156</ele>
        <time>2022-09-13T05:41:53.039Z</time>
      </trkpt>
      <trkpt lat="48.13393" lon="11.58291">
        <ele>518.321605</ele>
        <time>2022-09-13T05:41:55.702Z</time>
      </trkpt>
      <trkpt lat="48.13403" lon="11.58284">
        <ele>518.325086</ele>
        <time>2022-09-13T05:41:58.589Z</time>
      </trkpt>
      <trkpt lat="48.13404" lon="11.58283">
        <ele>518.325507</ele>
        <time>2022-09-13T05:41:58.927Z</time>
      </trkpt>
      <trkpt lat="48.13423" lon="11.58271">
        <ele>518.331948</ele>
        <time>2022-09-13T05:42:04.071Z</time>
      </trkpt>
      <trkpt lat="48.13444" lon="11.58257">
        <ele>518.383718</ele>
        <time>2022-09-13T05:42:10.075Z</time>
      </trkpt>
      <trkpt lat="48.13483" lon="11.58239">
        <ele>518.627982</ele>
        <time>2022-09-13T05:42:21.145Z</time>
      </trkpt>
      <trkpt lat="48.1349" lon="11.58237">
        <ele>518.673379</ele>
        <time>2022-09-13T05:42:23.291Z</time>
      </trkpt>
      <trkpt lat="48.13505" lon="11.58227">
        <ele>518.772455</ele>
        <time>2022-09-13T05:42:28.236Z</time>
      </trkpt>
      <trkpt lat="48.13511" lon="11.58223">
        <ele>518.811791</ele>
        <time>2022-09-13T05:42:30.077Z</time>
      </trkpt>
      <trkpt lat="48.13524" lon="11.58205">
        <ele>518.917421</ele>
        <time>2022-09-13T05:42:35.263Z</time>
      </trkpt>
      <trkpt lat="48.13532" lon="11.58188">
        <ele>519.004752</ele>
        <time>2022-09-13T05:42:39.652Z</time>
      </trkpt>
      <trkpt lat="48.13536" lon="11.58153">
        <ele>519.146576</ele>
        <time>2022-09-13T05:42:46.889Z</time>
      </trkpt>
      <trkpt lat="48.13538" lon="11.58135">
        <ele>519.220758</ele>
        <time>2022-09-13T05:42:50.776Z</time>
      </trkpt>
      <trkpt lat="48.13541" lon="11.58129">
        <ele>519.248582</ele>
        <time>2022-09-13T05:42:52.186Z</time>
      </trkpt>
      <trkpt lat="48.13566" lon="11.58053">
        <ele>519.693809</ele>
        <time>2022-09-13T05:43:10.968Z</time>
      </trkpt>
      <trkpt lat="48.13578" lon="11.5802">
        <ele>519.93398</ele>
        <time>2022-09-13T05:43:18.799Z</time>
      </trkpt>
      <trkpt lat="48.13588" lon="11.5798">
        <ele>520.213003</ele>
        <time>2022-09-13T05:43:28.009Z</time>
      </trkpt>
      <trkpt lat="48.13596" lon="11.57952">
        <ele>520.413789</ele>
        <time>2022-09-13T05:43:34.922Z</time>
      </trkpt>
      <trkpt lat="48.13604" lon="11.5792">
        <ele>520.634992</ele>
        <time>2022-09-13T05:43:42.125Z</time>
      </trkpt>
      <trkpt lat="48.13606" lon="11.57908">
        <ele>520.71736</ele>
        <time>2022-09-13T05:43:44.826Z</time>
      </trkpt>
      <trkpt lat="48.13613" lon="11.57857">
        <ele>521.053367</ele>
        <time>2022-09-13T05:43:55.238Z</time>
      </trkpt>
      <trkpt lat="48.1362" lon="11.57823">
        <ele>521.182019</ele>
        <time>2022-09-13T05:44:02.187Z</time>
      </trkpt>
      <trkpt lat="48.13626" lon="11.57795">
        <ele>521.182019</ele>
        <time>2022-09-13T05:44:07.838Z</time>
      </trkpt>
      <trkpt lat="48.13629" lon="11.57786">
        <ele>521.182019</ele>
        <time>2022-09-13T05:44:09.528Z</time>
      </trkpt>
      <trkpt lat="48.13644" lon="11.57745">
        <ele>521.182019</ele>
        <time>2022-09-13T05:44:18.238Z</time>
      </trkpt>
      <trkpt lat="48.13659" lon="11.5772">
        <ele>521.182019</ele>
        <time>2022-09-13T05:44:24.408Z</time>
      </trkpt>
      <trkpt lat="48.13665" lon="11.57711">
        <ele>521.182019</ele>
        <time>2022-09-13T05:44:29.919Z</time>
      </trkpt>
      <trkpt lat="48.13684" lon="11.5768">
        <ele>521.182019</ele>
        <time>2022-09-13T05:44:37.062Z</time>
      </trkpt>
      <trkpt lat="48.13689" lon="11.57673">
        <ele>521.182019</ele>
        <time>2022-09-13T05:44:39.341Z</time>
      </trkpt>
      <trkpt lat="48.137" lon="11.57647">
        <ele>521.182019</ele>
        <time>2022-09-13T05:44:46.340Z</time>
      </trkpt>
      <trkpt lat="48.13706" lon="11.57624">
        <ele>521.182019</ele>
        <time>2022-09-13T05:44:52.134Z</time>
      </trkpt>
      <trkpt lat="48.1371" lon="11.57627">
        <ele>521.182019</ele>
        <time>2022-09-13T05:44:53.661Z</time>
      </trkpt>
    </trkseg>
  </trk>
  <trk>
    <name><![CDATA[7_Munich à Mignavillers_482km]]></name>
    <extensions>
      <line xmlns="http://www.topografix.com/GPX/gpx_style/0/2">
        <color>FF0000</color>
        <width>4</width>
      </line>
    </extensions>
    <trkseg>
      <trkpt lat="48.1371" lon="11.57627">
        <ele>522.803429</ele>
        <time>2022-09-13T10:49:10.603Z</time>
      </trkpt>
      <trkpt lat="48.13706" lon="11.57624">
        <ele>522.803429</ele>
        <time>2022-09-13T10:49:12.222Z</time>
      </trkpt>
      <trkpt lat="48.13705" lon="11.57589">
        <ele>522.803429</ele>
        <time>2022-09-13T10:49:20.688Z</time>
      </trkpt>
      <trkpt lat="48.13702" lon="11.57581">
        <ele>522.803429</ele>
        <time>2022-09-13T10:49:23.015Z</time>
      </trkpt>
      <trkpt lat="48.13674" lon="11.57554">
        <ele>522.803429</ele>
        <time>2022-09-13T10:49:35.187Z</time>
      </trkpt>
      <trkpt lat="48.13662" lon="11.57539">
        <ele>522.803429</ele>
        <time>2022-09-13T10:49:40.832Z</time>
      </trkpt>
      <trkpt lat="48.1365" lon="11.57523">
        <ele>522.787454</ele>
        <time>2022-09-13T10:49:46.573Z</time>
      </trkpt>
      <trkpt lat="48.1364" lon="11.57506">
        <ele>522.759248</ele>
        <time>2022-09-13T10:49:51.980Z</time>
      </trkpt>
      <trkpt lat="48.13628" lon="11.57479">
        <ele>522.718429</ele>
        <time>2022-09-13T10:49:59.873Z</time>
      </trkpt>
      <trkpt lat="48.13626" lon="11.57474">
        <ele>522.711281</ele>
        <time>2022-09-13T10:50:00.928Z</time>
      </trkpt>
      <trkpt lat="48.13625" lon="11.57472">
        <ele>522.707553</ele>
        <time>2022-09-13T10:50:01.462Z</time>
      </trkpt>
      <trkpt lat="48.13622" lon="11.57467">
        <ele>522.699675</ele>
        <time>2022-09-13T10:50:02.526Z</time>
      </trkpt>
      <trkpt lat="48.13616" lon="11.57452">
        <ele>522.678027</ele>
        <time>2022-09-13T10:50:05.539Z</time>
      </trkpt>
      <trkpt lat="48.13611" lon="11.5744">
        <ele>522.659891</ele>
        <time>2022-09-13T10:50:08.082Z</time>
      </trkpt>
      <trkpt lat="48.13608" lon="11.57431">
        <ele>522.647698</ele>
        <time>2022-09-13T10:50:09.860Z</time>
      </trkpt>
      <trkpt lat="48.1358" lon="11.57352">
        <ele>522.537046</ele>
        <time>2022-09-13T10:50:24.131Z</time>
      </trkpt>
      <trkpt lat="48.13577" lon="11.57345">
        <ele>522.525237</ele>
        <time>2022-09-13T10:50:25.720Z</time>
      </trkpt>
      <trkpt lat="48.13569" lon="11.57328">
        <ele>522.500053</ele>
        <time>2022-09-13T10:50:29.171Z</time>
      </trkpt>
      <trkpt lat="48.13549" lon="11.57287">
        <ele>522.585163</ele>
        <time>2022-09-13T10:50:37.796Z</time>
      </trkpt>
      <trkpt lat="48.1354" lon="11.57269">
        <ele>522.695571</ele>
        <time>2022-09-13T10:50:41.609Z</time>
      </trkpt>
      <trkpt lat="48.13537" lon="11.57262">
        <ele>522.734929</ele>
        <time>2022-09-13T10:50:43.062Z</time>
      </trkpt>
      <trkpt lat="48.13526" lon="11.57211">
        <ele>522.995692</ele>
        <time>2022-09-13T10:50:53.446Z</time>
      </trkpt>
      <trkpt lat="48.13513" lon="11.57166">
        <ele>523.231207</ele>
        <time>2022-09-13T10:51:03.682Z</time>
      </trkpt>
      <trkpt lat="48.13518" lon="11.5716">
        <ele>523.27401</ele>
        <time>2022-09-13T10:51:06.202Z</time>
      </trkpt>
      <trkpt lat="48.1356" lon="11.57115">
        <ele>523.647687</ele>
        <time>2022-09-13T10:51:27.834Z</time>
      </trkpt>
      <trkpt lat="48.13582" lon="11.57087">
        <ele>523.865463</ele>
        <time>2022-09-13T10:51:37.146Z</time>
      </trkpt>
      <trkpt lat="48.13594" lon="11.57059">
        <ele>524.048353</ele>
        <time>2022-09-13T10:51:44.535Z</time>
      </trkpt>
      <trkpt lat="48.13613" lon="11.57006">
        <ele>524.367823</ele>
        <time>2022-09-13T10:51:57.579Z</time>
      </trkpt>
      <trkpt lat="48.13625" lon="11.56965">
        <ele>524.610738</ele>
        <time>2022-09-13T10:52:07.637Z</time>
      </trkpt>
      <trkpt lat="48.13613" lon="11.56922">
        <ele>524.861555</ele>
        <time>2022-09-13T10:52:17.272Z</time>
      </trkpt>
      <trkpt lat="48.1363" lon="11.5684">
        <ele>525.13131</ele>
        <time>2022-09-13T10:52:32.580Z</time>
      </trkpt>
      <trkpt lat="48.13656" lon="11.56688">
        <ele>524.455569</ele>
        <time>2022-09-13T10:52:57.412Z</time>
      </trkpt>
      <trkpt lat="48.13656" lon="11.56669">
        <ele>524.370581</ele>
        <time>2022-09-13T10:53:00.303Z</time>
      </trkpt>
      <trkpt lat="48.13657" lon="11.56631">
        <ele>524.20787</ele>
        <time>2022-09-13T10:53:06.051Z</time>
      </trkpt>
      <trkpt lat="48.1366" lon="11.56594">
        <ele>524.054408</ele>
        <time>2022-09-13T10:53:11.953Z</time>
      </trkpt>
      <trkpt lat="48.13661" lon="11.5659">
        <ele>524.051538</ele>
        <time>2022-09-13T10:53:12.651Z</time>
      </trkpt>
      <trkpt lat="48.13663" lon="11.56579">
        <ele>524.042799</ele>
        <time>2022-09-13T10:53:14.625Z</time>
      </trkpt>
      <trkpt lat="48.13667" lon="11.56536">
        <ele>524.011356</ele>
        <time>2022-09-13T10:53:21.806Z</time>
      </trkpt>
      <trkpt lat="48.13674" lon="11.56528">
        <ele>524.0014</ele>
        <time>2022-09-13T10:53:24.127Z</time>
      </trkpt>
      <trkpt lat="48.13668" lon="11.56515">
        <ele>523.990064</ele>
        <time>2022-09-13T10:53:26.726Z</time>
      </trkpt>
      <trkpt lat="48.13642" lon="11.56461">
        <ele>523.941086</ele>
        <time>2022-09-13T10:53:38.344Z</time>
      </trkpt>
      <trkpt lat="48.13638" lon="11.56449">
        <ele>523.931836</ele>
        <time>2022-09-13T10:53:40.728Z</time>
      </trkpt>
      <trkpt lat="48.13633" lon="11.56443">
        <ele>523.924238</ele>
        <time>2022-09-13T10:53:42.623Z</time>
      </trkpt>
      <trkpt lat="48.13633" lon="11.5644">
        <ele>523.922196</ele>
        <time>2022-09-13T10:53:43.891Z</time>
      </trkpt>
      <trkpt lat="48.13633" lon="11.5642">
        <ele>523.907777</ele>
        <time>2022-09-13T10:53:47.649Z</time>
      </trkpt>
      <trkpt lat="48.13633" lon="11.56384">
        <ele>523.881268</ele>
        <time>2022-09-13T10:53:54.815Z</time>
      </trkpt>
      <trkpt lat="48.13633" lon="11.56317">
        <ele>523.9615</ele>
        <time>2022-09-13T10:54:07.244Z</time>
      </trkpt>
      <trkpt lat="48.13633" lon="11.563">
        <ele>524.009823</ele>
        <time>2022-09-13T10:54:10.385Z</time>
      </trkpt>
      <trkpt lat="48.13633" lon="11.56244">
        <ele>524.167063</ele>
        <time>2022-09-13T10:54:21.298Z</time>
      </trkpt>
      <trkpt lat="48.13633" lon="11.56236">
        <ele>524.189964</ele>
        <time>2022-09-13T10:54:22.954Z</time>
      </trkpt>
      <trkpt lat="48.13634" lon="11.56196">
        <ele>524.300841</ele>
        <time>2022-09-13T10:54:31.111Z</time>
      </trkpt>
      <trkpt lat="48.13634" lon="11.56094">
        <ele>524.586273</ele>
        <time>2022-09-13T10:54:50.586Z</time>
      </trkpt>
      <trkpt lat="48.13635" lon="11.55862">
        <ele>524.653168</ele>
        <time>2022-09-13T10:55:32.154Z</time>
      </trkpt>
      <trkpt lat="48.13744" lon="11.55864">
        <ele>524.516012</ele>
        <time>2022-09-13T10:56:00.904Z</time>
      </trkpt>
      <trkpt lat="48.13841" lon="11.55863">
        <ele>524.334843</ele>
        <time>2022-09-13T10:56:26.663Z</time>
      </trkpt>
      <trkpt lat="48.13882" lon="11.55862">
        <ele>524.333039</ele>
        <time>2022-09-13T10:56:37.348Z</time>
      </trkpt>
      <trkpt lat="48.13899" lon="11.55862">
        <ele>524.336333</ele>
        <time>2022-09-13T10:56:42.083Z</time>
      </trkpt>
      <trkpt lat="48.13911" lon="11.55862">
        <ele>524.33867</ele>
        <time>2022-09-13T10:56:45.448Z</time>
      </trkpt>
      <trkpt lat="48.13918" lon="11.55862">
        <ele>524.340106</ele>
        <time>2022-09-13T10:56:47.571Z</time>
      </trkpt>
      <trkpt lat="48.13935" lon="11.55864">
        <ele>524.34327</ele>
        <time>2022-09-13T10:56:52.157Z</time>
      </trkpt>
      <trkpt lat="48.1394" lon="11.55864">
        <ele>524.344287</ele>
        <time>2022-09-13T10:56:53.662Z</time>
      </trkpt>
      <trkpt lat="48.1394" lon="11.5585">
        <ele>524.346114</ele>
        <time>2022-09-13T10:56:56.293Z</time>
      </trkpt>
      <trkpt lat="48.13939" lon="11.5583">
        <ele>524.348665</ele>
        <time>2022-09-13T10:57:00.166Z</time>
      </trkpt>
      <trkpt lat="48.13934" lon="11.55796">
        <ele>524.35314</ele>
        <time>2022-09-13T10:57:06.660Z</time>
      </trkpt>
      <trkpt lat="48.13929" lon="11.55772">
        <ele>524.356274</ele>
        <time>2022-09-13T10:57:11.305Z</time>
      </trkpt>
      <trkpt lat="48.13926" lon="11.55605">
        <ele>524.352043</ele>
        <time>2022-09-13T10:57:40.039Z</time>
      </trkpt>
      <trkpt lat="48.13926" lon="11.55595">
        <ele>524.351386</ele>
        <time>2022-09-13T10:57:41.784Z</time>
      </trkpt>
      <trkpt lat="48.13926" lon="11.5558">
        <ele>524.350436</ele>
        <time>2022-09-13T10:57:44.285Z</time>
      </trkpt>
      <trkpt lat="48.13924" lon="11.55543">
        <ele>524.347989</ele>
        <time>2022-09-13T10:57:51.284Z</time>
      </trkpt>
      <trkpt lat="48.13923" lon="11.55514">
        <ele>524.346085</ele>
        <time>2022-09-13T10:57:56.730Z</time>
      </trkpt>
      <trkpt lat="48.13923" lon="11.5551">
        <ele>524.345831</ele>
        <time>2022-09-13T10:57:57.446Z</time>
      </trkpt>
      <trkpt lat="48.13922" lon="11.55505">
        <ele>524.345549</ele>
        <time>2022-09-13T10:57:58.256Z</time>
      </trkpt>
      <trkpt lat="48.13921" lon="11.55453">
        <ele>524.368776</ele>
        <time>2022-09-13T10:58:07.938Z</time>
      </trkpt>
      <trkpt lat="48.13919" lon="11.55395">
        <ele>524.468095</ele>
        <time>2022-09-13T10:58:18.362Z</time>
      </trkpt>
      <trkpt lat="48.13913" lon="11.55246">
        <ele>524.719425</ele>
        <time>2022-09-13T10:58:45.153Z</time>
      </trkpt>
      <trkpt lat="48.13912" lon="11.55231">
        <ele>524.74533</ele>
        <time>2022-09-13T10:58:47.999Z</time>
      </trkpt>
      <trkpt lat="48.13911" lon="11.55187">
        <ele>524.888316</ele>
        <time>2022-09-13T10:58:56.844Z</time>
      </trkpt>
      <trkpt lat="48.1391" lon="11.55181">
        <ele>524.938118</ele>
        <time>2022-09-13T10:58:58.149Z</time>
      </trkpt>
      <trkpt lat="48.1391" lon="11.55166">
        <ele>525.049591</ele>
        <time>2022-09-13T10:59:01.339Z</time>
      </trkpt>
      <trkpt lat="48.13909" lon="11.55151">
        <ele>525.157407</ele>
        <time>2022-09-13T10:59:04.494Z</time>
      </trkpt>
      <trkpt lat="48.13909" lon="11.55144">
        <ele>525.214682</ele>
        <time>2022-09-13T10:59:06.179Z</time>
      </trkpt>
      <trkpt lat="48.13908" lon="11.55103">
        <ele>525.517251</ele>
        <time>2022-09-13T10:59:14.760Z</time>
      </trkpt>
      <trkpt lat="48.13906" lon="11.55">
        <ele>526.279386</ele>
        <time>2022-09-13T10:59:36.697Z</time>
      </trkpt>
      <trkpt lat="48.13906" lon="11.54977">
        <ele>526.453892</ele>
        <time>2022-09-13T10:59:41.864Z</time>
      </trkpt>
      <trkpt lat="48.13907" lon="11.54915">
        <ele>526.939225</ele>
        <time>2022-09-13T10:59:56.142Z</time>
      </trkpt>
      <trkpt lat="48.13907" lon="11.54901">
        <ele>527.060865</ele>
        <time>2022-09-13T10:59:59.174Z</time>
      </trkpt>
      <trkpt lat="48.13932" lon="11.54729">
        <ele>528.635833</ele>
        <time>2022-09-13T11:00:38.840Z</time>
      </trkpt>
      <trkpt lat="48.13934" lon="11.54715">
        <ele>528.757587</ele>
        <time>2022-09-13T11:00:41.974Z</time>
      </trkpt>
      <trkpt lat="48.13937" lon="11.54698">
        <ele>528.919169</ele>
        <time>2022-09-13T11:00:46.105Z</time>
      </trkpt>
      <trkpt lat="48.1395" lon="11.54471">
        <ele>530.025405</ele>
        <time>2022-09-13T11:01:34.641Z</time>
      </trkpt>
      <trkpt lat="48.13951" lon="11.54457">
        <ele>530.082871</ele>
        <time>2022-09-13T11:01:37.160Z</time>
      </trkpt>
      <trkpt lat="48.13968" lon="11.54198">
        <ele>530.058021</ele>
        <time>2022-09-13T11:02:25.096Z</time>
      </trkpt>
      <trkpt lat="48.1397" lon="11.54154">
        <ele>529.996211</ele>
        <time>2022-09-13T11:02:32.865Z</time>
      </trkpt>
      <trkpt lat="48.13971" lon="11.54144">
        <ele>529.982801</ele>
        <time>2022-09-13T11:02:34.502Z</time>
      </trkpt>
      <trkpt lat="48.13972" lon="11.54126">
        <ele>529.943615</ele>
        <time>2022-09-13T11:02:37.514Z</time>
      </trkpt>
      <trkpt lat="48.13975" lon="11.54078">
        <ele>529.615103</ele>
        <time>2022-09-13T11:02:45.487Z</time>
      </trkpt>
      <trkpt lat="48.13981" lon="11.53989">
        <ele>529.017638</ele>
        <time>2022-09-13T11:02:59.490Z</time>
      </trkpt>
      <trkpt lat="48.13992" lon="11.53832">
        <ele>528.173193</ele>
        <time>2022-09-13T11:03:24.529Z</time>
      </trkpt>
      <trkpt lat="48.13992" lon="11.53826">
        <ele>528.178259</ele>
        <time>2022-09-13T11:03:25.427Z</time>
      </trkpt>
      <trkpt lat="48.13993" lon="11.53807">
        <ele>528.19571</ele>
        <time>2022-09-13T11:03:28.515Z</time>
      </trkpt>
      <trkpt lat="48.13994" lon="11.53801">
        <ele>528.200674</ele>
        <time>2022-09-13T11:03:29.397Z</time>
      </trkpt>
      <trkpt lat="48.14009" lon="11.53557">
        <ele>528.611335</ele>
        <time>2022-09-13T11:04:18.841Z</time>
      </trkpt>
      <trkpt lat="48.14016" lon="11.53488">
        <ele>529.054955</ele>
        <time>2022-09-13T11:04:35.696Z</time>
      </trkpt>
      <trkpt lat="48.14018" lon="11.53483">
        <ele>529.08796</ele>
        <time>2022-09-13T11:04:36.834Z</time>
      </trkpt>
      <trkpt lat="48.14018" lon="11.53472">
        <ele>529.155669</ele>
        <time>2022-09-13T11:04:39.224Z</time>
      </trkpt>
      <trkpt lat="48.14023" lon="11.53402">
        <ele>529.601598</ele>
        <time>2022-09-13T11:04:55.217Z</time>
      </trkpt>
      <trkpt lat="48.14024" lon="11.53389">
        <ele>529.685999</ele>
        <time>2022-09-13T11:04:58.319Z</time>
      </trkpt>
      <trkpt lat="48.14021" lon="11.53383">
        <ele>529.734864</ele>
        <time>2022-09-13T11:05:00.178Z</time>
      </trkpt>
      <trkpt lat="48.14022" lon="11.53348">
        <ele>529.95134</ele>
        <time>2022-09-13T11:05:07.447Z</time>
      </trkpt>
      <trkpt lat="48.14037" lon="11.53109">
        <ele>529.687788</ele>
        <time>2022-09-13T11:05:51.387Z</time>
      </trkpt>
      <trkpt lat="48.14038" lon="11.53091">
        <ele>529.655078</ele>
        <time>2022-09-13T11:05:54.212Z</time>
      </trkpt>
      <trkpt lat="48.14043" lon="11.53024">
        <ele>529.329449</ele>
        <time>2022-09-13T11:06:04.747Z</time>
      </trkpt>
      <trkpt lat="48.14062" lon="11.52729">
        <ele>527.088042</ele>
        <time>2022-09-13T11:06:51.569Z</time>
      </trkpt>
      <trkpt lat="48.14075" lon="11.52544">
        <ele>525.810245</ele>
        <time>2022-09-13T11:07:21.712Z</time>
      </trkpt>
      <trkpt lat="48.14077" lon="11.52511">
        <ele>525.62808</ele>
        <time>2022-09-13T11:07:27.101Z</time>
      </trkpt>
      <trkpt lat="48.14084" lon="11.5245">
        <ele>525.431035</ele>
        <time>2022-09-13T11:07:37.748Z</time>
      </trkpt>
      <trkpt lat="48.14086" lon="11.52428">
        <ele>525.361029</ele>
        <time>2022-09-13T11:07:41.601Z</time>
      </trkpt>
      <trkpt lat="48.14088" lon="11.52403">
        <ele>525.281695</ele>
        <time>2022-09-13T11:07:45.720Z</time>
      </trkpt>
      <trkpt lat="48.14093" lon="11.52337">
        <ele>525.073037</ele>
        <time>2022-09-13T11:07:56.945Z</time>
      </trkpt>
      <trkpt lat="48.14099" lon="11.52265">
        <ele>524.845704</ele>
        <time>2022-09-13T11:08:09.452Z</time>
      </trkpt>
      <trkpt lat="48.141" lon="11.52257">
        <ele>524.817945</ele>
        <time>2022-09-13T11:08:11.102Z</time>
      </trkpt>
      <trkpt lat="48.14104" lon="11.52218">
        <ele>524.945465</ele>
        <time>2022-09-13T11:08:18.907Z</time>
      </trkpt>
      <trkpt lat="48.14106" lon="11.522">
        <ele>525.009563</ele>
        <time>2022-09-13T11:08:22.731Z</time>
      </trkpt>
      <trkpt lat="48.14134" lon="11.51961">
        <ele>525.926088</ele>
        <time>2022-09-13T11:09:12.648Z</time>
      </trkpt>
      <trkpt lat="48.14147" lon="11.51896">
        <ele>526.286844</ele>
        <time>2022-09-13T11:09:27.715Z</time>
      </trkpt>
      <trkpt lat="48.14149" lon="11.51882">
        <ele>526.368685</ele>
        <time>2022-09-13T11:09:31.003Z</time>
      </trkpt>
      <trkpt lat="48.1415" lon="11.51876">
        <ele>526.397521</ele>
        <time>2022-09-13T11:09:32.111Z</time>
      </trkpt>
      <trkpt lat="48.14154" lon="11.51858">
        <ele>526.503025</ele>
        <time>2022-09-13T11:09:36.313Z</time>
      </trkpt>
      <trkpt lat="48.14161" lon="11.51792">
        <ele>526.857639</ele>
        <time>2022-09-13T11:09:49.864Z</time>
      </trkpt>
      <trkpt lat="48.14159" lon="11.51777">
        <ele>526.941552</ele>
        <time>2022-09-13T11:09:52.811Z</time>
      </trkpt>
      <trkpt lat="48.14161" lon="11.5177">
        <ele>526.983572</ele>
        <time>2022-09-13T11:09:54.289Z</time>
      </trkpt>
      <trkpt lat="48.14178" lon="11.51623">
        <ele>527.508645</ele>
        <time>2022-09-13T11:10:25.236Z</time>
      </trkpt>
      <trkpt lat="48.14179" lon="11.5161">
        <ele>527.546078</ele>
        <time>2022-09-13T11:10:28.037Z</time>
      </trkpt>
      <trkpt lat="48.14184" lon="11.51564">
        <ele>527.672273</ele>
        <time>2022-09-13T11:10:36.903Z</time>
      </trkpt>
      <trkpt lat="48.14192" lon="11.51504">
        <ele>527.842023</ele>
        <time>2022-09-13T11:10:47.428Z</time>
      </trkpt>
      <trkpt lat="48.14198" lon="11.51453">
        <ele>527.965458</ele>
        <time>2022-09-13T11:10:56.134Z</time>
      </trkpt>
      <trkpt lat="48.14208" lon="11.51359">
        <ele>528.035837</ele>
        <time>2022-09-13T11:11:13.088Z</time>
      </trkpt>
      <trkpt lat="48.14212" lon="11.51328">
        <ele>528.05931</ele>
        <time>2022-09-13T11:11:19.119Z</time>
      </trkpt>
      <trkpt lat="48.1422" lon="11.51256">
        <ele>528.113343</ele>
        <time>2022-09-13T11:11:33.321Z</time>
      </trkpt>
      <trkpt lat="48.14222" lon="11.5124">
        <ele>528.125334</ele>
        <time>2022-09-13T11:11:36.419Z</time>
      </trkpt>
      <trkpt lat="48.14223" lon="11.51226">
        <ele>528.135685</ele>
        <time>2022-09-13T11:11:38.815Z</time>
      </trkpt>
      <trkpt lat="48.14228" lon="11.51189">
        <ele>528.152242</ele>
        <time>2022-09-13T11:11:45.431Z</time>
      </trkpt>
      <trkpt lat="48.14249" lon="11.50997">
        <ele>527.992368</ele>
        <time>2022-09-13T11:12:20.368Z</time>
      </trkpt>
      <trkpt lat="48.14275" lon="11.50769">
        <ele>527.23372</ele>
        <time>2022-09-13T11:12:58.304Z</time>
      </trkpt>
      <trkpt lat="48.14276" lon="11.50764">
        <ele>527.21142</ele>
        <time>2022-09-13T11:12:59.077Z</time>
      </trkpt>
      <trkpt lat="48.14287" lon="11.50667">
        <ele>526.786477</ele>
        <time>2022-09-13T11:13:14.371Z</time>
      </trkpt>
      <trkpt lat="48.14293" lon="11.50654">
        <ele>526.720664</ele>
        <time>2022-09-13T11:13:16.825Z</time>
      </trkpt>
      <trkpt lat="48.14338" lon="11.50358">
        <ele>525.746899</ele>
        <time>2022-09-13T11:14:08.094Z</time>
      </trkpt>
      <trkpt lat="48.14336" lon="11.50338">
        <ele>525.801383</ele>
        <time>2022-09-13T11:14:11.972Z</time>
      </trkpt>
      <trkpt lat="48.14338" lon="11.50299">
        <ele>525.907387</ele>
        <time>2022-09-13T11:14:19.904Z</time>
      </trkpt>
      <trkpt lat="48.1434" lon="11.50285">
        <ele>525.946492</ele>
        <time>2022-09-13T11:14:22.686Z</time>
      </trkpt>
      <trkpt lat="48.14342" lon="11.50276">
        <ele>525.973805</ele>
        <time>2022-09-13T11:14:24.722Z</time>
      </trkpt>
      <trkpt lat="48.14344" lon="11.50264">
        <ele>526.005345</ele>
        <time>2022-09-13T11:14:27.095Z</time>
      </trkpt>
      <trkpt lat="48.14344" lon="11.50256">
        <ele>526.029093</ele>
        <time>2022-09-13T11:14:28.905Z</time>
      </trkpt>
      <trkpt lat="48.14344" lon="11.5018">
        <ele>526.235696</ele>
        <time>2022-09-13T11:14:44.324Z</time>
      </trkpt>
      <trkpt lat="48.14344" lon="11.50176">
        <ele>526.246075</ele>
        <time>2022-09-13T11:14:45.101Z</time>
      </trkpt>
      <trkpt lat="48.14345" lon="11.50167">
        <ele>526.27042</ele>
        <time>2022-09-13T11:14:46.991Z</time>
      </trkpt>
      <trkpt lat="48.14346" lon="11.50138">
        <ele>526.350513</ele>
        <time>2022-09-13T11:14:53.326Z</time>
      </trkpt>
      <trkpt lat="48.1436" lon="11.4996">
        <ele>527.671787</ele>
        <time>2022-09-13T11:15:34.164Z</time>
      </trkpt>
      <trkpt lat="48.14361" lon="11.49945">
        <ele>527.790061</ele>
        <time>2022-09-13T11:15:37.975Z</time>
      </trkpt>
      <trkpt lat="48.14365" lon="11.49904">
        <ele>528.091854</ele>
        <time>2022-09-13T11:15:46.999Z</time>
      </trkpt>
      <trkpt lat="48.14375" lon="11.49799">
        <ele>528.572021</ele>
        <time>2022-09-13T11:16:08.669Z</time>
      </trkpt>
      <trkpt lat="48.14383" lon="11.49715">
        <ele>528.836875</ele>
        <time>2022-09-13T11:16:26.156Z</time>
      </trkpt>
      <trkpt lat="48.14387" lon="11.49678">
        <ele>528.952296</ele>
        <time>2022-09-13T11:16:33.465Z</time>
      </trkpt>
      <trkpt lat="48.14391" lon="11.4963">
        <ele>529.102475</ele>
        <time>2022-09-13T11:16:42.822Z</time>
      </trkpt>
      <trkpt lat="48.14399" lon="11.4955">
        <ele>529.129623</ele>
        <time>2022-09-13T11:16:58.291Z</time>
      </trkpt>
      <trkpt lat="48.14431" lon="11.4923">
        <ele>528.566008</ele>
        <time>2022-09-13T11:17:55.741Z</time>
      </trkpt>
      <trkpt lat="48.14454" lon="11.48996">
        <ele>527.867385</ele>
        <time>2022-09-13T11:18:35.831Z</time>
      </trkpt>
      <trkpt lat="48.14456" lon="11.48973">
        <ele>527.803989</ele>
        <time>2022-09-13T11:18:39.663Z</time>
      </trkpt>
      <trkpt lat="48.14475" lon="11.48751">
        <ele>527.412846</ele>
        <time>2022-09-13T11:19:19.262Z</time>
      </trkpt>
      <trkpt lat="48.14493" lon="11.48541">
        <ele>527.709335</ele>
        <time>2022-09-13T11:20:00.228Z</time>
      </trkpt>
      <trkpt lat="48.14501" lon="11.4847">
        <ele>527.920552</ele>
        <time>2022-09-13T11:20:15.368Z</time>
      </trkpt>
      <trkpt lat="48.14502" lon="11.48463">
        <ele>527.943948</ele>
        <time>2022-09-13T11:20:16.837Z</time>
      </trkpt>
      <trkpt lat="48.14508" lon="11.48394">
        <ele>528.158226</ele>
        <time>2022-09-13T11:20:31.007Z</time>
      </trkpt>
      <trkpt lat="48.14515" lon="11.48309">
        <ele>528.422517</ele>
        <time>2022-09-13T11:20:48.341Z</time>
      </trkpt>
      <trkpt lat="48.14518" lon="11.4827">
        <ele>528.541914</ele>
        <time>2022-09-13T11:20:56.196Z</time>
      </trkpt>
      <trkpt lat="48.14519" lon="11.48252">
        <ele>528.556769</ele>
        <time>2022-09-13T11:20:59.792Z</time>
      </trkpt>
      <trkpt lat="48.1452" lon="11.48236">
        <ele>528.564665</ele>
        <time>2022-09-13T11:21:02.779Z</time>
      </trkpt>
      <trkpt lat="48.14527" lon="11.48046">
        <ele>528.659132</ele>
        <time>2022-09-13T11:21:37.675Z</time>
      </trkpt>
      <trkpt lat="48.14528" lon="11.48003">
        <ele>528.680741</ele>
        <time>2022-09-13T11:21:45.858Z</time>
      </trkpt>
      <trkpt lat="48.14528" lon="11.47995">
        <ele>528.687171</ele>
        <time>2022-09-13T11:21:47.490Z</time>
      </trkpt>
      <trkpt lat="48.14529" lon="11.4797">
        <ele>528.713394</ele>
        <time>2022-09-13T11:21:52.227Z</time>
      </trkpt>
      <trkpt lat="48.1453" lon="11.47953">
        <ele>528.732488</ele>
        <time>2022-09-13T11:21:55.546Z</time>
      </trkpt>
      <trkpt lat="48.14531" lon="11.4791">
        <ele>528.778021</ele>
        <time>2022-09-13T11:22:03.611Z</time>
      </trkpt>
      <trkpt lat="48.14532" lon="11.47877">
        <ele>528.814595</ele>
        <time>2022-09-13T11:22:10.103Z</time>
      </trkpt>
      <trkpt lat="48.14536" lon="11.47755">
        <ele>528.94561</ele>
        <time>2022-09-13T11:22:33.028Z</time>
      </trkpt>
      <trkpt lat="48.14537" lon="11.47736">
        <ele>528.965789</ele>
        <time>2022-09-13T11:22:36.416Z</time>
      </trkpt>
      <trkpt lat="48.14538" lon="11.4769">
        <ele>529.007357</ele>
        <time>2022-09-13T11:22:45.514Z</time>
      </trkpt>
      <trkpt lat="48.14538" lon="11.47677">
        <ele>529.018048</ele>
        <time>2022-09-13T11:22:47.841Z</time>
      </trkpt>
      <trkpt lat="48.14539" lon="11.47625">
        <ele>529.06261</ele>
        <time>2022-09-13T11:22:58.567Z</time>
      </trkpt>
      <trkpt lat="48.14543" lon="11.4754">
        <ele>529.135877</ele>
        <time>2022-09-13T11:23:16.107Z</time>
      </trkpt>
      <trkpt lat="48.14545" lon="11.47461">
        <ele>529.203118</ele>
        <time>2022-09-13T11:23:29.690Z</time>
      </trkpt>
      <trkpt lat="48.14548" lon="11.47368">
        <ele>528.925553</ele>
        <time>2022-09-13T11:23:45.505Z</time>
      </trkpt>
      <trkpt lat="48.14552" lon="11.47256">
        <ele>528.585789</ele>
        <time>2022-09-13T11:24:04.375Z</time>
      </trkpt>
      <trkpt lat="48.1456" lon="11.47217">
        <ele>528.465127</ele>
        <time>2022-09-13T11:24:11.702Z</time>
      </trkpt>
      <trkpt lat="48.14556" lon="11.47214">
        <ele>528.447417</ele>
        <time>2022-09-13T11:24:12.871Z</time>
      </trkpt>
      <trkpt lat="48.14552" lon="11.47209">
        <ele>528.42245</ele>
        <time>2022-09-13T11:24:14.378Z</time>
      </trkpt>
      <trkpt lat="48.14553" lon="11.47197">
        <ele>528.392443</ele>
        <time>2022-09-13T11:24:16.427Z</time>
      </trkpt>
      <trkpt lat="48.14554" lon="11.47187">
        <ele>528.398793</ele>
        <time>2022-09-13T11:24:18.280Z</time>
      </trkpt>
      <trkpt lat="48.14555" lon="11.47173">
        <ele>528.407347</ele>
        <time>2022-09-13T11:24:20.741Z</time>
      </trkpt>
      <trkpt lat="48.14556" lon="11.4716">
        <ele>528.414611</ele>
        <time>2022-09-13T11:24:22.972Z</time>
      </trkpt>
      <trkpt lat="48.14557" lon="11.47116">
        <ele>528.440787</ele>
        <time>2022-09-13T11:24:30.526Z</time>
      </trkpt>
      <trkpt lat="48.14559" lon="11.47027">
        <ele>528.493602</ele>
        <time>2022-09-13T11:24:47.261Z</time>
      </trkpt>
      <trkpt lat="48.14571" lon="11.46906">
        <ele>528.603059</ele>
        <time>2022-09-13T11:25:11.625Z</time>
      </trkpt>
      <trkpt lat="48.1458" lon="11.46844">
        <ele>528.731287</ele>
        <time>2022-09-13T11:25:24.456Z</time>
      </trkpt>
      <trkpt lat="48.1463" lon="11.46553">
        <ele>529.216068</ele>
        <time>2022-09-13T11:26:22.492Z</time>
      </trkpt>
      <trkpt lat="48.14632" lon="11.46546">
        <ele>529.222406</ele>
        <time>2022-09-13T11:26:23.803Z</time>
      </trkpt>
      <trkpt lat="48.14634" lon="11.4653">
        <ele>529.238332</ele>
        <time>2022-09-13T11:26:26.754Z</time>
      </trkpt>
      <trkpt lat="48.14635" lon="11.46511">
        <ele>529.256828</ele>
        <time>2022-09-13T11:26:30.004Z</time>
      </trkpt>
      <trkpt lat="48.14636" lon="11.46502">
        <ele>529.265489</ele>
        <time>2022-09-13T11:26:31.624Z</time>
      </trkpt>
      <trkpt lat="48.14639" lon="11.4648">
        <ele>529.287269</ele>
        <time>2022-09-13T11:26:35.936Z</time>
      </trkpt>
      <trkpt lat="48.14648" lon="11.46426">
        <ele>529.341133</ele>
        <time>2022-09-13T11:26:46.235Z</time>
      </trkpt>
      <trkpt lat="48.14663" lon="11.4633">
        <ele>529.584505</ele>
        <time>2022-09-13T11:27:05.196Z</time>
      </trkpt>
      <trkpt lat="48.14664" lon="11.46317">
        <ele>529.624733</ele>
        <time>2022-09-13T11:27:08.007Z</time>
      </trkpt>
      <trkpt lat="48.14666" lon="11.46294">
        <ele>529.689242</ele>
        <time>2022-09-13T11:27:12.438Z</time>
      </trkpt>
      <trkpt lat="48.14668" lon="11.46245">
        <ele>529.831654</ele>
        <time>2022-09-13T11:27:22.369Z</time>
      </trkpt>
      <trkpt lat="48.14668" lon="11.46241">
        <ele>529.84232</ele>
        <time>2022-09-13T11:27:23.099Z</time>
      </trkpt>
      <trkpt lat="48.14671" lon="11.46207">
        <ele>529.939787</ele>
        <time>2022-09-13T11:27:29.954Z</time>
      </trkpt>
      <trkpt lat="48.14674" lon="11.46166">
        <ele>530.057488</ele>
        <time>2022-09-13T11:27:38.454Z</time>
      </trkpt>
      <trkpt lat="48.14674" lon="11.46153">
        <ele>530.094443</ele>
        <time>2022-09-13T11:27:41.145Z</time>
      </trkpt>
      <trkpt lat="48.14674" lon="11.46133">
        <ele>530.153843</ele>
        <time>2022-09-13T11:27:45.450Z</time>
      </trkpt>
      <trkpt lat="48.14674" lon="11.4613">
        <ele>530.162654</ele>
        <time>2022-09-13T11:27:46.057Z</time>
      </trkpt>
      <trkpt lat="48.14672" lon="11.46121">
        <ele>530.191098</ele>
        <time>2022-09-13T11:27:48.002Z</time>
      </trkpt>
      <trkpt lat="48.14671" lon="11.46115">
        <ele>530.210409</ele>
        <time>2022-09-13T11:27:49.298Z</time>
      </trkpt>
      <trkpt lat="48.14663" lon="11.46118">
        <ele>530.251101</ele>
        <time>2022-09-13T11:27:52.693Z</time>
      </trkpt>
      <trkpt lat="48.14655" lon="11.46121">
        <ele>530.287578</ele>
        <time>2022-09-13T11:27:55.829Z</time>
      </trkpt>
      <trkpt lat="48.14655" lon="11.46068">
        <ele>530.449923</ele>
        <time>2022-09-13T11:28:07.068Z</time>
      </trkpt>
      <trkpt lat="48.14658" lon="11.46023">
        <ele>530.58604</ele>
        <time>2022-09-13T11:28:16.252Z</time>
      </trkpt>
      <trkpt lat="48.14659" lon="11.4601">
        <ele>530.624751</ele>
        <time>2022-09-13T11:28:18.931Z</time>
      </trkpt>
      <trkpt lat="48.14665" lon="11.45965">
        <ele>530.765193</ele>
        <time>2022-09-13T11:28:28.320Z</time>
      </trkpt>
      <trkpt lat="48.14668" lon="11.4596">
        <ele>530.785068</ele>
        <time>2022-09-13T11:28:29.967Z</time>
      </trkpt>
      <trkpt lat="48.1467" lon="11.45955">
        <ele>530.80299</ele>
        <time>2022-09-13T11:28:31.448Z</time>
      </trkpt>
      <trkpt lat="48.14682" lon="11.4591">
        <ele>530.949661</ele>
        <time>2022-09-13T11:28:43.289Z</time>
      </trkpt>
      <trkpt lat="48.1469" lon="11.45902">
        <ele>530.862964</ele>
        <time>2022-09-13T11:28:46.553Z</time>
      </trkpt>
      <trkpt lat="48.14693" lon="11.45888">
        <ele>530.778137</ele>
        <time>2022-09-13T11:28:49.760Z</time>
      </trkpt>
      <trkpt lat="48.147" lon="11.45842">
        <ele>530.498623</ele>
        <time>2022-09-13T11:28:57.265Z</time>
      </trkpt>
      <trkpt lat="48.14704" lon="11.45798">
        <ele>530.238016</ele>
        <time>2022-09-13T11:29:04.213Z</time>
      </trkpt>
      <trkpt lat="48.14709" lon="11.45706">
        <ele>529.68874</ele>
        <time>2022-09-13T11:29:18.167Z</time>
      </trkpt>
      <trkpt lat="48.14712" lon="11.4569">
        <ele>529.589207</ele>
        <time>2022-09-13T11:29:20.573Z</time>
      </trkpt>
      <trkpt lat="48.14713" lon="11.45663">
        <ele>529.43419</ele>
        <time>2022-09-13T11:29:24.500Z</time>
      </trkpt>
      <trkpt lat="48.14713" lon="11.45659">
        <ele>529.410492</ele>
        <time>2022-09-13T11:29:25.102Z</time>
      </trkpt>
      <trkpt lat="48.14713" lon="11.45656">
        <ele>529.387404</ele>
        <time>2022-09-13T11:29:25.703Z</time>
      </trkpt>
      <trkpt lat="48.14714" lon="11.45639">
        <ele>529.291229</ele>
        <time>2022-09-13T11:29:28.075Z</time>
      </trkpt>
      <trkpt lat="48.14714" lon="11.45628">
        <ele>529.229885</ele>
        <time>2022-09-13T11:29:29.628Z</time>
      </trkpt>
      <trkpt lat="48.14715" lon="11.45592">
        <ele>529.019425</ele>
        <time>2022-09-13T11:29:35.123Z</time>
      </trkpt>
      <trkpt lat="48.14708" lon="11.45384">
        <ele>527.815292</ele>
        <time>2022-09-13T11:30:07.770Z</time>
      </trkpt>
      <trkpt lat="48.14713" lon="11.45364">
        <ele>527.828051</ele>
        <time>2022-09-13T11:30:11.578Z</time>
      </trkpt>
      <trkpt lat="48.14709" lon="11.45357">
        <ele>527.844549</ele>
        <time>2022-09-13T11:30:13.247Z</time>
      </trkpt>
      <trkpt lat="48.14702" lon="11.45345">
        <ele>527.872581</ele>
        <time>2022-09-13T11:30:16.205Z</time>
      </trkpt>
      <trkpt lat="48.14701" lon="11.45331">
        <ele>527.897666</ele>
        <time>2022-09-13T11:30:18.875Z</time>
      </trkpt>
      <trkpt lat="48.14699" lon="11.45315">
        <ele>527.927315</ele>
        <time>2022-09-13T11:30:22.024Z</time>
      </trkpt>
      <trkpt lat="48.14703" lon="11.4531">
        <ele>527.940907</ele>
        <time>2022-09-13T11:30:23.456Z</time>
      </trkpt>
      <trkpt lat="48.14708" lon="11.45302">
        <ele>527.959459</ele>
        <time>2022-09-13T11:30:25.435Z</time>
      </trkpt>
      <trkpt lat="48.14693" lon="11.45267">
        <ele>528.03425</ele>
        <time>2022-09-13T11:30:33.546Z</time>
      </trkpt>
      <trkpt lat="48.14683" lon="11.45205">
        <ele>528.149755</ele>
        <time>2022-09-13T11:30:46.000Z</time>
      </trkpt>
      <trkpt lat="48.14677" lon="11.45169">
        <ele>528.216362</ele>
        <time>2022-09-13T11:30:53.262Z</time>
      </trkpt>
      <trkpt lat="48.14668" lon="11.45108">
        <ele>528.292514</ele>
        <time>2022-09-13T11:31:05.394Z</time>
      </trkpt>
      <trkpt lat="48.14664" lon="11.45079">
        <ele>528.305353</ele>
        <time>2022-09-13T11:31:11.074Z</time>
      </trkpt>
      <trkpt lat="48.14608" lon="11.44662">
        <ele>528.220713</ele>
        <time>2022-09-13T11:32:25.535Z</time>
      </trkpt>
      <trkpt lat="48.14607" lon="11.44654">
        <ele>528.213312</ele>
        <time>2022-09-13T11:32:27.028Z</time>
      </trkpt>
      <trkpt lat="48.14605" lon="11.44644">
        <ele>528.204897</ele>
        <time>2022-09-13T11:32:28.752Z</time>
      </trkpt>
      <trkpt lat="48.14599" lon="11.44598">
        <ele>528.168685</ele>
        <time>2022-09-13T11:32:36.853Z</time>
      </trkpt>
      <trkpt lat="48.14587" lon="11.44513">
        <ele>528.135426</ele>
        <time>2022-09-13T11:32:51.512Z</time>
      </trkpt>
      <trkpt lat="48.14579" lon="11.44453">
        <ele>528.11216</ele>
        <time>2022-09-13T11:33:02.040Z</time>
      </trkpt>
      <trkpt lat="48.14576" lon="11.4443">
        <ele>528.102974</ele>
        <time>2022-09-13T11:33:06.330Z</time>
      </trkpt>
      <trkpt lat="48.14564" lon="11.44344">
        <ele>528.069524</ele>
        <time>2022-09-13T11:33:22.485Z</time>
      </trkpt>
      <trkpt lat="48.14555" lon="11.44325">
        <ele>528.118526</ele>
        <time>2022-09-13T11:33:26.728Z</time>
      </trkpt>
      <trkpt lat="48.14556" lon="11.4431">
        <ele>528.155141</ele>
        <time>2022-09-13T11:33:29.435Z</time>
      </trkpt>
      <trkpt lat="48.14559" lon="11.44256">
        <ele>528.285994</ele>
        <time>2022-09-13T11:33:39.522Z</time>
      </trkpt>
      <trkpt lat="48.14562" lon="11.44194">
        <ele>528.435911</ele>
        <time>2022-09-13T11:33:51.130Z</time>
      </trkpt>
      <trkpt lat="48.14562" lon="11.4418">
        <ele>528.47064</ele>
        <time>2022-09-13T11:33:53.870Z</time>
      </trkpt>
      <trkpt lat="48.14565" lon="11.44124">
        <ele>528.605599</ele>
        <time>2022-09-13T11:34:04.499Z</time>
      </trkpt>
      <trkpt lat="48.14566" lon="11.44093">
        <ele>528.681533</ele>
        <time>2022-09-13T11:34:10.398Z</time>
      </trkpt>
      <trkpt lat="48.14565" lon="11.44071">
        <ele>528.748527</ele>
        <time>2022-09-13T11:34:14.877Z</time>
      </trkpt>
      <trkpt lat="48.14549" lon="11.44013">
        <ele>529.049925</ele>
        <time>2022-09-13T11:34:27.411Z</time>
      </trkpt>
      <trkpt lat="48.14511" lon="11.43937">
        <ele>529.508351</ele>
        <time>2022-09-13T11:34:46.919Z</time>
      </trkpt>
      <trkpt lat="48.14494" lon="11.43885">
        <ele>529.79091</ele>
        <time>2022-09-13T11:34:59.326Z</time>
      </trkpt>
      <trkpt lat="48.14488" lon="11.43852">
        <ele>529.954366</ele>
        <time>2022-09-13T11:35:06.416Z</time>
      </trkpt>
      <trkpt lat="48.14493" lon="11.43831">
        <ele>530.030778</ele>
        <time>2022-09-13T11:35:10.914Z</time>
      </trkpt>
      <trkpt lat="48.14473" lon="11.43689">
        <ele>530.191951</ele>
        <time>2022-09-13T11:35:37.647Z</time>
      </trkpt>
      <trkpt lat="48.1447" lon="11.43674">
        <ele>530.209814</ele>
        <time>2022-09-13T11:35:40.297Z</time>
      </trkpt>
      <trkpt lat="48.14469" lon="11.43664">
        <ele>530.221393</ele>
        <time>2022-09-13T11:35:42.249Z</time>
      </trkpt>
      <trkpt lat="48.14447" lon="11.43507">
        <ele>530.143466</ele>
        <time>2022-09-13T11:36:10.233Z</time>
      </trkpt>
      <trkpt lat="48.14445" lon="11.43489">
        <ele>530.094688</ele>
        <time>2022-09-13T11:36:13.369Z</time>
      </trkpt>
      <trkpt lat="48.14443" lon="11.43476">
        <ele>530.060237</ele>
        <time>2022-09-13T11:36:15.542Z</time>
      </trkpt>
      <trkpt lat="48.14443" lon="11.43474">
        <ele>530.055234</ele>
        <time>2022-09-13T11:36:15.853Z</time>
      </trkpt>
      <trkpt lat="48.14441" lon="11.4346">
        <ele>530.018623</ele>
        <time>2022-09-13T11:36:18.114Z</time>
      </trkpt>
      <trkpt lat="48.14439" lon="11.43448">
        <ele>529.988519</ele>
        <time>2022-09-13T11:36:20.044Z</time>
      </trkpt>
      <trkpt lat="48.1443" lon="11.43376">
        <ele>529.800792</ele>
        <time>2022-09-13T11:36:31.609Z</time>
      </trkpt>
      <trkpt lat="48.14412" lon="11.43249">
        <ele>529.729132</ele>
        <time>2022-09-13T11:36:53.578Z</time>
      </trkpt>
      <trkpt lat="48.14404" lon="11.43195">
        <ele>529.814492</ele>
        <time>2022-09-13T11:37:04.480Z</time>
      </trkpt>
      <trkpt lat="48.14402" lon="11.43178">
        <ele>529.841407</ele>
        <time>2022-09-13T11:37:07.762Z</time>
      </trkpt>
      <trkpt lat="48.14394" lon="11.43121">
        <ele>529.930535</ele>
        <time>2022-09-13T11:37:18.423Z</time>
      </trkpt>
      <trkpt lat="48.1438" lon="11.43026">
        <ele>530.184362</ele>
        <time>2022-09-13T11:37:37.293Z</time>
      </trkpt>
      <trkpt lat="48.14377" lon="11.43001">
        <ele>530.33826</ele>
        <time>2022-09-13T11:37:42.532Z</time>
      </trkpt>
      <trkpt lat="48.14361" lon="11.42884">
        <ele>531.065147</ele>
        <time>2022-09-13T11:38:07.818Z</time>
      </trkpt>
      <trkpt lat="48.14348" lon="11.42784">
        <ele>531.684276</ele>
        <time>2022-09-13T11:38:29.445Z</time>
      </trkpt>
      <trkpt lat="48.14338" lon="11.42709">
        <ele>532.022493</ele>
        <time>2022-09-13T11:38:45.054Z</time>
      </trkpt>
      <trkpt lat="48.14333" lon="11.42676">
        <ele>532.173678</ele>
        <time>2022-09-13T11:38:52.039Z</time>
      </trkpt>
      <trkpt lat="48.14321" lon="11.42591">
        <ele>532.558351</ele>
        <time>2022-09-13T11:39:09.720Z</time>
      </trkpt>
      <trkpt lat="48.1431" lon="11.42511">
        <ele>532.882591</ele>
        <time>2022-09-13T11:39:25.110Z</time>
      </trkpt>
      <trkpt lat="48.14298" lon="11.42424">
        <ele>532.883411</ele>
        <time>2022-09-13T11:39:40.700Z</time>
      </trkpt>
      <trkpt lat="48.14295" lon="11.42397">
        <ele>532.883664</ele>
        <time>2022-09-13T11:39:45.402Z</time>
      </trkpt>
      <trkpt lat="48.14293" lon="11.42387">
        <ele>532.883763</ele>
        <time>2022-09-13T11:39:47.258Z</time>
      </trkpt>
      <trkpt lat="48.14292" lon="11.42377">
        <ele>532.883855</ele>
        <time>2022-09-13T11:39:49.040Z</time>
      </trkpt>
      <trkpt lat="48.14291" lon="11.4237">
        <ele>532.883919</ele>
        <time>2022-09-13T11:39:50.307Z</time>
      </trkpt>
      <trkpt lat="48.14289" lon="11.42357">
        <ele>532.884041</ele>
        <time>2022-09-13T11:39:52.617Z</time>
      </trkpt>
      <trkpt lat="48.14275" lon="11.42263">
        <ele>532.884933</ele>
        <time>2022-09-13T11:40:10.044Z</time>
      </trkpt>
      <trkpt lat="48.1427" lon="11.42231">
        <ele>532.886501</ele>
        <time>2022-09-13T11:40:15.789Z</time>
      </trkpt>
      <trkpt lat="48.14263" lon="11.42177">
        <ele>532.889695</ele>
        <time>2022-09-13T11:40:25.327Z</time>
      </trkpt>
      <trkpt lat="48.14258" lon="11.42145">
        <ele>532.891587</ele>
        <time>2022-09-13T11:40:30.938Z</time>
      </trkpt>
      <trkpt lat="48.14247" lon="11.42062">
        <ele>532.896514</ele>
        <time>2022-09-13T11:40:45.511Z</time>
      </trkpt>
      <trkpt lat="48.14225" lon="11.41896">
        <ele>533.242711</ele>
        <time>2022-09-13T11:41:17.408Z</time>
      </trkpt>
      <trkpt lat="48.14216" lon="11.41831">
        <ele>533.474693</ele>
        <time>2022-09-13T11:41:30.628Z</time>
      </trkpt>
      <trkpt lat="48.14212" lon="11.41803">
        <ele>533.576121</ele>
        <time>2022-09-13T11:41:36.471Z</time>
      </trkpt>
      <trkpt lat="48.14193" lon="11.41666">
        <ele>533.760727</ele>
        <time>2022-09-13T11:42:04.433Z</time>
      </trkpt>
      <trkpt lat="48.14187" lon="11.41623">
        <ele>533.702876</ele>
        <time>2022-09-13T11:42:12.665Z</time>
      </trkpt>
      <trkpt lat="48.1418" lon="11.41574">
        <ele>533.637701</ele>
        <time>2022-09-13T11:42:21.395Z</time>
      </trkpt>
      <trkpt lat="48.14177" lon="11.41552">
        <ele>533.609006</ele>
        <time>2022-09-13T11:42:25.098Z</time>
      </trkpt>
      <trkpt lat="48.14174" lon="11.41527">
        <ele>533.575462</ele>
        <time>2022-09-13T11:42:29.228Z</time>
      </trkpt>
      <trkpt lat="48.14164" lon="11.41458">
        <ele>533.449111</ele>
        <time>2022-09-13T11:42:40.179Z</time>
      </trkpt>
      <trkpt lat="48.14162" lon="11.41441">
        <ele>533.332835</ele>
        <time>2022-09-13T11:42:42.806Z</time>
      </trkpt>
      <trkpt lat="48.14152" lon="11.41379">
        <ele>532.904778</ele>
        <time>2022-09-13T11:42:52.281Z</time>
      </trkpt>
      <trkpt lat="48.14146" lon="11.41343">
        <ele>532.655182</ele>
        <time>2022-09-13T11:42:57.839Z</time>
      </trkpt>
      <trkpt lat="48.14145" lon="11.41334">
        <ele>532.59541</ele>
        <time>2022-09-13T11:42:59.156Z</time>
      </trkpt>
      <trkpt lat="48.14144" lon="11.4133">
        <ele>532.571183</ele>
        <time>2022-09-13T11:42:59.682Z</time>
      </trkpt>
      <trkpt lat="48.14131" lon="11.41245">
        <ele>531.983042</ele>
        <time>2022-09-13T11:43:13.026Z</time>
      </trkpt>
      <trkpt lat="48.14127" lon="11.41174">
        <ele>531.760609</ele>
        <time>2022-09-13T11:43:24.594Z</time>
      </trkpt>
      <trkpt lat="48.14127" lon="11.41163">
        <ele>531.793523</ele>
        <time>2022-09-13T11:43:26.542Z</time>
      </trkpt>
      <trkpt lat="48.14124" lon="11.41141">
        <ele>531.855537</ele>
        <time>2022-09-13T11:43:30.309Z</time>
      </trkpt>
      <trkpt lat="48.14116" lon="11.41089">
        <ele>532.011674</ele>
        <time>2022-09-13T11:43:40.329Z</time>
      </trkpt>
      <trkpt lat="48.14095" lon="11.40933">
        <ele>532.468861</ele>
        <time>2022-09-13T11:44:13.716Z</time>
      </trkpt>
      <trkpt lat="48.14064" lon="11.40753">
        <ele>532.993012</ele>
        <time>2022-09-13T11:44:50.036Z</time>
      </trkpt>
      <trkpt lat="48.1406" lon="11.40732">
        <ele>533.053723</ele>
        <time>2022-09-13T11:44:54.092Z</time>
      </trkpt>
      <trkpt lat="48.14052" lon="11.4067">
        <ele>533.218564</ele>
        <time>2022-09-13T11:45:05.865Z</time>
      </trkpt>
      <trkpt lat="48.14014" lon="11.40403">
        <ele>533.175261</ele>
        <time>2022-09-13T11:45:53.197Z</time>
      </trkpt>
      <trkpt lat="48.14013" lon="11.40386">
        <ele>533.192109</ele>
        <time>2022-09-13T11:45:56.362Z</time>
      </trkpt>
      <trkpt lat="48.14012" lon="11.40376">
        <ele>533.202112</ele>
        <time>2022-09-13T11:45:58.248Z</time>
      </trkpt>
      <trkpt lat="48.13987" lon="11.40197">
        <ele>533.382459</ele>
        <time>2022-09-13T11:46:32.780Z</time>
      </trkpt>
      <trkpt lat="48.13947" lon="11.40044">
        <ele>533.477361</ele>
        <time>2022-09-13T11:47:01.339Z</time>
      </trkpt>
      <trkpt lat="48.13942" lon="11.40026">
        <ele>533.485123</ele>
        <time>2022-09-13T11:47:04.890Z</time>
      </trkpt>
      <trkpt lat="48.13941" lon="11.4002">
        <ele>533.487531</ele>
        <time>2022-09-13T11:47:05.920Z</time>
      </trkpt>
      <trkpt lat="48.13936" lon="11.4">
        <ele>533.495896</ele>
        <time>2022-09-13T11:47:09.653Z</time>
      </trkpt>
      <trkpt lat="48.13914" lon="11.39868">
        <ele>533.60092</ele>
        <time>2022-09-13T11:47:34.795Z</time>
      </trkpt>
      <trkpt lat="48.13908" lon="11.3985">
        <ele>533.64965</ele>
        <time>2022-09-13T11:47:38.357Z</time>
      </trkpt>
      <trkpt lat="48.13899" lon="11.39823">
        <ele>533.721631</ele>
        <time>2022-09-13T11:47:44.182Z</time>
      </trkpt>
      <trkpt lat="48.13862" lon="11.39765">
        <ele>533.912257</ele>
        <time>2022-09-13T11:47:58.731Z</time>
      </trkpt>
      <trkpt lat="48.13854" lon="11.39744">
        <ele>533.972432</ele>
        <time>2022-09-13T11:48:03.876Z</time>
      </trkpt>
      <trkpt lat="48.1383" lon="11.39665">
        <ele>534.178264</ele>
        <time>2022-09-13T11:48:20.709Z</time>
      </trkpt>
      <trkpt lat="48.13828" lon="11.39656">
        <ele>534.202911</ele>
        <time>2022-09-13T11:48:22.792Z</time>
      </trkpt>
      <trkpt lat="48.13807" lon="11.39552">
        <ele>534.480986</ele>
        <time>2022-09-13T11:48:43.717Z</time>
      </trkpt>
      <trkpt lat="48.13719" lon="11.39304">
        <ele>535.192314</ele>
        <time>2022-09-13T11:49:35.953Z</time>
      </trkpt>
      <trkpt lat="48.13698" lon="11.39249">
        <ele>535.352101</ele>
        <time>2022-09-13T11:49:48.289Z</time>
      </trkpt>
      <trkpt lat="48.13683" lon="11.39212">
        <ele>535.46296</ele>
        <time>2022-09-13T11:49:56.928Z</time>
      </trkpt>
      <trkpt lat="48.13659" lon="11.39134">
        <ele>535.72014</ele>
        <time>2022-09-13T11:50:13.728Z</time>
      </trkpt>
      <trkpt lat="48.13641" lon="11.3907">
        <ele>535.95341</ele>
        <time>2022-09-13T11:50:27.225Z</time>
      </trkpt>
      <trkpt lat="48.1363" lon="11.39042">
        <ele>536.063065</ele>
        <time>2022-09-13T11:50:33.512Z</time>
      </trkpt>
      <trkpt lat="48.13599" lon="11.38934">
        <ele>536.457276</ele>
        <time>2022-09-13T11:50:56.074Z</time>
      </trkpt>
      <trkpt lat="48.13594" lon="11.38895">
        <ele>536.631826</ele>
        <time>2022-09-13T11:51:03.717Z</time>
      </trkpt>
      <trkpt lat="48.1359" lon="11.38896">
        <ele>536.656631</ele>
        <time>2022-09-13T11:51:04.850Z</time>
      </trkpt>
      <trkpt lat="48.13586" lon="11.38896">
        <ele>536.682744</ele>
        <time>2022-09-13T11:51:06.035Z</time>
      </trkpt>
      <trkpt lat="48.13582" lon="11.38876">
        <ele>536.778657</ele>
        <time>2022-09-13T11:51:10.195Z</time>
      </trkpt>
      <trkpt lat="48.13573" lon="11.3885">
        <ele>536.904973</ele>
        <time>2022-09-13T11:51:15.896Z</time>
      </trkpt>
      <trkpt lat="48.13544" lon="11.38753">
        <ele>537.381631</ele>
        <time>2022-09-13T11:51:37.487Z</time>
      </trkpt>
      <trkpt lat="48.1352" lon="11.38673">
        <ele>537.742162</ele>
        <time>2022-09-13T11:51:55.156Z</time>
      </trkpt>
      <trkpt lat="48.13498" lon="11.38604">
        <ele>537.986354</ele>
        <time>2022-09-13T11:52:10.434Z</time>
      </trkpt>
      <trkpt lat="48.13492" lon="11.38584">
        <ele>538.057114</ele>
        <time>2022-09-13T11:52:14.829Z</time>
      </trkpt>
      <trkpt lat="48.13485" lon="11.38563">
        <ele>538.129149</ele>
        <time>2022-09-13T11:52:19.306Z</time>
      </trkpt>
      <trkpt lat="48.13408" lon="11.38313">
        <ele>538.722822</ele>
        <time>2022-09-13T11:53:10.475Z</time>
      </trkpt>
      <trkpt lat="48.1338" lon="11.38222">
        <ele>538.854127</ele>
        <time>2022-09-13T11:53:28.567Z</time>
      </trkpt>
      <trkpt lat="48.13354" lon="11.38125">
        <ele>539.107508</ele>
        <time>2022-09-13T11:53:47.887Z</time>
      </trkpt>
      <trkpt lat="48.1335" lon="11.38105">
        <ele>539.162831</ele>
        <time>2022-09-13T11:53:51.969Z</time>
      </trkpt>
      <trkpt lat="48.13349" lon="11.381">
        <ele>539.17575</ele>
        <time>2022-09-13T11:53:52.888Z</time>
      </trkpt>
      <trkpt lat="48.1334" lon="11.38059">
        <ele>539.290406</ele>
        <time>2022-09-13T11:54:01.427Z</time>
      </trkpt>
      <trkpt lat="48.13328" lon="11.37987">
        <ele>539.485045</ele>
        <time>2022-09-13T11:54:16.274Z</time>
      </trkpt>
      <trkpt lat="48.1332" lon="11.37921">
        <ele>539.563877</ele>
        <time>2022-09-13T11:54:29.345Z</time>
      </trkpt>
      <trkpt lat="48.13319" lon="11.37913">
        <ele>539.559497</ele>
        <time>2022-09-13T11:54:30.896Z</time>
      </trkpt>
      <trkpt lat="48.13318" lon="11.3779">
        <ele>539.489237</ele>
        <time>2022-09-13T11:54:53.056Z</time>
      </trkpt>
      <trkpt lat="48.13308" lon="11.37654">
        <ele>539.350974</ele>
        <time>2022-09-13T11:55:15.509Z</time>
      </trkpt>
      <trkpt lat="48.13306" lon="11.37583">
        <ele>539.163565</ele>
        <time>2022-09-13T11:55:26.804Z</time>
      </trkpt>
      <trkpt lat="48.13299" lon="11.37532">
        <ele>539.02514</ele>
        <time>2022-09-13T11:55:35.138Z</time>
      </trkpt>
      <trkpt lat="48.1329" lon="11.37485">
        <ele>538.895532</ele>
        <time>2022-09-13T11:55:43.115Z</time>
      </trkpt>
      <trkpt lat="48.13289" lon="11.3748">
        <ele>538.880653</ele>
        <time>2022-09-13T11:55:44.056Z</time>
      </trkpt>
      <trkpt lat="48.13228" lon="11.37221">
        <ele>539.034496</ele>
        <time>2022-09-13T11:56:34.243Z</time>
      </trkpt>
      <trkpt lat="48.13205" lon="11.37104">
        <ele>539.265688</ele>
        <time>2022-09-13T11:56:58.279Z</time>
      </trkpt>
      <trkpt lat="48.13204" lon="11.37098">
        <ele>539.279603</ele>
        <time>2022-09-13T11:56:59.505Z</time>
      </trkpt>
      <trkpt lat="48.132" lon="11.37079">
        <ele>539.323462</ele>
        <time>2022-09-13T11:57:03.338Z</time>
      </trkpt>
      <trkpt lat="48.13195" lon="11.37054">
        <ele>539.381964</ele>
        <time>2022-09-13T11:57:08.405Z</time>
      </trkpt>
      <trkpt lat="48.13189" lon="11.37027">
        <ele>539.443662</ele>
        <time>2022-09-13T11:57:13.720Z</time>
      </trkpt>
      <trkpt lat="48.1319" lon="11.3701">
        <ele>539.482711</ele>
        <time>2022-09-13T11:57:17.076Z</time>
      </trkpt>
      <trkpt lat="48.13178" lon="11.36947">
        <ele>539.628611</ele>
        <time>2022-09-13T11:57:29.415Z</time>
      </trkpt>
      <trkpt lat="48.13149" lon="11.36766">
        <ele>539.584104</ele>
        <time>2022-09-13T11:58:02.456Z</time>
      </trkpt>
      <trkpt lat="48.13141" lon="11.36714">
        <ele>539.531783</ele>
        <time>2022-09-13T11:58:11.486Z</time>
      </trkpt>
      <trkpt lat="48.13134" lon="11.36678">
        <ele>539.495429</ele>
        <time>2022-09-13T11:58:17.587Z</time>
      </trkpt>
      <trkpt lat="48.13115" lon="11.36563">
        <ele>539.464223</ele>
        <time>2022-09-13T11:58:37.756Z</time>
      </trkpt>
      <trkpt lat="48.1311" lon="11.36529">
        <ele>539.465535</ele>
        <time>2022-09-13T11:58:43.916Z</time>
      </trkpt>
      <trkpt lat="48.131" lon="11.36498">
        <ele>539.466801</ele>
        <time>2022-09-13T11:58:49.879Z</time>
      </trkpt>
      <trkpt lat="48.13098" lon="11.36486">
        <ele>539.467274</ele>
        <time>2022-09-13T11:58:52.154Z</time>
      </trkpt>
      <trkpt lat="48.13097" lon="11.36478">
        <ele>539.467579</ele>
        <time>2022-09-13T11:58:53.627Z</time>
      </trkpt>
      <trkpt lat="48.13095" lon="11.3647">
        <ele>539.467905</ele>
        <time>2022-09-13T11:58:55.160Z</time>
      </trkpt>
      <trkpt lat="48.13093" lon="11.36458">
        <ele>539.468384</ele>
        <time>2022-09-13T11:58:57.431Z</time>
      </trkpt>
      <trkpt lat="48.13093" lon="11.36423">
        <ele>539.46967</ele>
        <time>2022-09-13T11:59:03.866Z</time>
      </trkpt>
      <trkpt lat="48.13088" lon="11.36411">
        <ele>539.470217</ele>
        <time>2022-09-13T11:59:06.490Z</time>
      </trkpt>
      <trkpt lat="48.13086" lon="11.36397">
        <ele>539.470746</ele>
        <time>2022-09-13T11:59:09.161Z</time>
      </trkpt>
      <trkpt lat="48.13078" lon="11.36351">
        <ele>539.629195</ele>
        <time>2022-09-13T11:59:18.268Z</time>
      </trkpt>
      <trkpt lat="48.13058" lon="11.36276">
        <ele>539.986047</ele>
        <time>2022-09-13T11:59:33.834Z</time>
      </trkpt>
      <trkpt lat="48.13056" lon="11.3627">
        <ele>540.019171</ele>
        <time>2022-09-13T11:59:35.289Z</time>
      </trkpt>
      <trkpt lat="48.13007" lon="11.36126">
        <ele>540.741584</ele>
        <time>2022-09-13T12:00:08.522Z</time>
      </trkpt>
      <trkpt lat="48.1297" lon="11.36042">
        <ele>541.209377</ele>
        <time>2022-09-13T12:00:29.033Z</time>
      </trkpt>
      <trkpt lat="48.12966" lon="11.36034">
        <ele>541.254805</ele>
        <time>2022-09-13T12:00:31.034Z</time>
      </trkpt>
      <trkpt lat="48.12943" lon="11.35997">
        <ele>541.488343</ele>
        <time>2022-09-13T12:00:41.222Z</time>
      </trkpt>
      <trkpt lat="48.12927" lon="11.35971">
        <ele>541.655308</ele>
        <time>2022-09-13T12:00:48.596Z</time>
      </trkpt>
      <trkpt lat="48.12829" lon="11.35806">
        <ele>542.078635</ele>
        <time>2022-09-13T12:01:30.902Z</time>
      </trkpt>
      <trkpt lat="48.12805" lon="11.35746">
        <ele>542.143172</ele>
        <time>2022-09-13T12:01:42.762Z</time>
      </trkpt>
      <trkpt lat="48.12804" lon="11.35722">
        <ele>542.166398</ele>
        <time>2022-09-13T12:01:46.923Z</time>
      </trkpt>
      <trkpt lat="48.12794" lon="11.3571">
        <ele>542.162143</ele>
        <time>2022-09-13T12:01:50.288Z</time>
      </trkpt>
      <trkpt lat="48.12777" lon="11.35706">
        <ele>542.103275</ele>
        <time>2022-09-13T12:01:54.528Z</time>
      </trkpt>
      <trkpt lat="48.12761" lon="11.35687">
        <ele>542.030682</ele>
        <time>2022-09-13T12:01:59.680Z</time>
      </trkpt>
      <trkpt lat="48.12741" lon="11.3565">
        <ele>541.918969</ele>
        <time>2022-09-13T12:02:07.573Z</time>
      </trkpt>
      <trkpt lat="48.12668" lon="11.35482">
        <ele>541.541694</ele>
        <time>2022-09-13T12:02:41.268Z</time>
      </trkpt>
      <trkpt lat="48.12662" lon="11.35467">
        <ele>541.540855</ele>
        <time>2022-09-13T12:02:44.181Z</time>
      </trkpt>
      <trkpt lat="48.12642" lon="11.35419">
        <ele>541.538087</ele>
        <time>2022-09-13T12:02:54.097Z</time>
      </trkpt>
      <trkpt lat="48.12594" lon="11.35307">
        <ele>541.531532</ele>
        <time>2022-09-13T12:03:18.115Z</time>
      </trkpt>
      <trkpt lat="48.12509" lon="11.35102">
        <ele>542.19338</ele>
        <time>2022-09-13T12:04:04.520Z</time>
      </trkpt>
      <trkpt lat="48.12503" lon="11.35088">
        <ele>542.241929</ele>
        <time>2022-09-13T12:04:07.727Z</time>
      </trkpt>
      <trkpt lat="48.12401" lon="11.34842">
        <ele>543.380062</ele>
        <time>2022-09-13T12:05:05.417Z</time>
      </trkpt>
      <trkpt lat="48.12368" lon="11.3478">
        <ele>543.655859</ele>
        <time>2022-09-13T12:05:20.657Z</time>
      </trkpt>
      <trkpt lat="48.12352" lon="11.3475">
        <ele>543.791825</ele>
        <time>2022-09-13T12:05:28.262Z</time>
      </trkpt>
      <trkpt lat="48.12197" lon="11.34524">
        <ele>544.896404</ele>
        <time>2022-09-13T12:06:30.996Z</time>
      </trkpt>
      <trkpt lat="48.11909" lon="11.34157">
        <ele>546.915559</ele>
        <time>2022-09-13T12:08:20.917Z</time>
      </trkpt>
      <trkpt lat="48.11771" lon="11.33933">
        <ele>548.548368</ele>
        <time>2022-09-13T12:09:22.945Z</time>
      </trkpt>
      <trkpt lat="48.1169" lon="11.33812">
        <ele>550.054658</ele>
        <time>2022-09-13T12:10:00.334Z</time>
      </trkpt>
      <trkpt lat="48.11658" lon="11.3377">
        <ele>550.681878</ele>
        <time>2022-09-13T12:10:14.932Z</time>
      </trkpt>
      <trkpt lat="48.11515" lon="11.33612">
        <ele>554.083249</ele>
        <time>2022-09-13T12:11:17.584Z</time>
      </trkpt>
      <trkpt lat="48.11468" lon="11.33567">
        <ele>555.272575</ele>
        <time>2022-09-13T12:11:38.390Z</time>
      </trkpt>
      <trkpt lat="48.11293" lon="11.33336">
        <ele>564.817442</ele>
        <time>2022-09-13T12:13:22.215Z</time>
      </trkpt>
      <trkpt lat="48.11108" lon="11.33036">
        <ele>579.380452</ele>
        <time>2022-09-13T12:16:04.115Z</time>
      </trkpt>
      <trkpt lat="48.1098" lon="11.32828">
        <ele>579.142648</ele>
        <time>2022-09-13T12:16:47.510Z</time>
      </trkpt>
      <trkpt lat="48.1091" lon="11.32699">
        <ele>576.378346</ele>
        <time>2022-09-13T12:17:08.636Z</time>
      </trkpt>
      <trkpt lat="48.10896" lon="11.32669">
        <ele>575.686884</ele>
        <time>2022-09-13T12:17:13.383Z</time>
      </trkpt>
      <trkpt lat="48.10886" lon="11.32647">
        <ele>575.174988</ele>
        <time>2022-09-13T12:17:16.925Z</time>
      </trkpt>
      <trkpt lat="48.10884" lon="11.32642">
        <ele>575.068781</ele>
        <time>2022-09-13T12:17:17.662Z</time>
      </trkpt>
      <trkpt lat="48.10865" lon="11.32595">
        <ele>574.015933</ele>
        <time>2022-09-13T12:17:25.164Z</time>
      </trkpt>
      <trkpt lat="48.10863" lon="11.32591">
        <ele>573.91433</ele>
        <time>2022-09-13T12:17:25.902Z</time>
      </trkpt>
      <trkpt lat="48.108" lon="11.32401">
        <ele>572.176803</ele>
        <time>2022-09-13T12:17:59.011Z</time>
      </trkpt>
      <trkpt lat="48.10776" lon="11.32315">
        <ele>571.406484</ele>
        <time>2022-09-13T12:18:13.529Z</time>
      </trkpt>
      <trkpt lat="48.10775" lon="11.32305">
        <ele>571.30422</ele>
        <time>2022-09-13T12:18:15.027Z</time>
      </trkpt>
      <trkpt lat="48.107" lon="11.32089">
        <ele>568.769625</ele>
        <time>2022-09-13T12:18:50.424Z</time>
      </trkpt>
      <trkpt lat="48.10693" lon="11.32044">
        <ele>568.17173</ele>
        <time>2022-09-13T12:18:56.916Z</time>
      </trkpt>
      <trkpt lat="48.10692" lon="11.32031">
        <ele>567.998413</ele>
        <time>2022-09-13T12:18:58.799Z</time>
      </trkpt>
      <trkpt lat="48.1069" lon="11.32022">
        <ele>567.885629</ele>
        <time>2022-09-13T12:19:00.049Z</time>
      </trkpt>
      <trkpt lat="48.10715" lon="11.31881">
        <ele>566.003446</ele>
        <time>2022-09-13T12:19:20.604Z</time>
      </trkpt>
      <trkpt lat="48.10747" lon="11.31741">
        <ele>564.536511</ele>
        <time>2022-09-13T12:19:41.778Z</time>
      </trkpt>
      <trkpt lat="48.10787" lon="11.31509">
        <ele>562.740092</ele>
        <time>2022-09-13T12:20:18.826Z</time>
      </trkpt>
      <trkpt lat="48.10787" lon="11.31467">
        <ele>562.534297</ele>
        <time>2022-09-13T12:20:25.628Z</time>
      </trkpt>
      <trkpt lat="48.10773" lon="11.314">
        <ele>562.186686</ele>
        <time>2022-09-13T12:20:36.901Z</time>
      </trkpt>
      <trkpt lat="48.10782" lon="11.31266">
        <ele>561.649185</ele>
        <time>2022-09-13T12:20:58.786Z</time>
      </trkpt>
      <trkpt lat="48.10777" lon="11.31237">
        <ele>561.575442</ele>
        <time>2022-09-13T12:21:03.664Z</time>
      </trkpt>
      <trkpt lat="48.10774" lon="11.312">
        <ele>561.484742</ele>
        <time>2022-09-13T12:21:09.709Z</time>
      </trkpt>
      <trkpt lat="48.10734" lon="11.31085">
        <ele>561.169175</ele>
        <time>2022-09-13T12:21:31.461Z</time>
      </trkpt>
      <trkpt lat="48.10725" lon="11.31044">
        <ele>561.181797</ele>
        <time>2022-09-13T12:21:39.161Z</time>
      </trkpt>
      <trkpt lat="48.10715" lon="11.31009">
        <ele>561.313446</ele>
        <time>2022-09-13T12:21:46.132Z</time>
      </trkpt>
      <trkpt lat="48.10678" lon="11.30933">
        <ele>561.642532</ele>
        <time>2022-09-13T12:22:05.030Z</time>
      </trkpt>
      <trkpt lat="48.10625" lon="11.30829">
        <ele>562.096747</ele>
        <time>2022-09-13T12:22:31.187Z</time>
      </trkpt>
      <trkpt lat="48.10614" lon="11.30818">
        <ele>562.161983</ele>
        <time>2022-09-13T12:22:35.606Z</time>
      </trkpt>
      <trkpt lat="48.1061" lon="11.30807">
        <ele>562.200167</ele>
        <time>2022-09-13T12:22:38.001Z</time>
      </trkpt>
      <trkpt lat="48.10612" lon="11.30801">
        <ele>562.220823</ele>
        <time>2022-09-13T12:22:39.387Z</time>
      </trkpt>
      <trkpt lat="48.10594" lon="11.30776">
        <ele>562.338454</ele>
        <time>2022-09-13T12:22:47.290Z</time>
      </trkpt>
      <trkpt lat="48.1054" lon="11.30686">
        <ele>562.725057</ele>
        <time>2022-09-13T12:23:11.101Z</time>
      </trkpt>
      <trkpt lat="48.10525" lon="11.30652">
        <ele>562.85721</ele>
        <time>2022-09-13T12:23:18.680Z</time>
      </trkpt>
      <trkpt lat="48.10527" lon="11.30622">
        <ele>562.89659</ele>
        <time>2022-09-13T12:23:23.770Z</time>
      </trkpt>
      <trkpt lat="48.106" lon="11.30505">
        <ele>562.586669</ele>
        <time>2022-09-13T12:23:51.199Z</time>
      </trkpt>
      <trkpt lat="48.10615" lon="11.30489">
        <ele>562.53447</ele>
        <time>2022-09-13T12:23:55.726Z</time>
      </trkpt>
      <trkpt lat="48.1062" lon="11.30481">
        <ele>562.511721</ele>
        <time>2022-09-13T12:23:57.676Z</time>
      </trkpt>
      <trkpt lat="48.10628" lon="11.3047">
        <ele>562.481119</ele>
        <time>2022-09-13T12:24:00.363Z</time>
      </trkpt>
      <trkpt lat="48.10634" lon="11.30464">
        <ele>562.459741</ele>
        <time>2022-09-13T12:24:02.182Z</time>
      </trkpt>
      <trkpt lat="48.10648" lon="11.30444">
        <ele>562.404263</ele>
        <time>2022-09-13T12:24:06.832Z</time>
      </trkpt>
      <trkpt lat="48.10657" lon="11.30427">
        <ele>562.353908</ele>
        <time>2022-09-13T12:24:10.383Z</time>
      </trkpt>
      <trkpt lat="48.10651" lon="11.30419">
        <ele>562.324879</ele>
        <time>2022-09-13T12:24:12.316Z</time>
      </trkpt>
      <trkpt lat="48.10648" lon="11.30415">
        <ele>562.311351</ele>
        <time>2022-09-13T12:24:13.203Z</time>
      </trkpt>
      <trkpt lat="48.10652" lon="11.30401">
        <ele>562.275223</ele>
        <time>2022-09-13T12:24:15.633Z</time>
      </trkpt>
      <trkpt lat="48.10659" lon="11.3039">
        <ele>562.238472</ele>
        <time>2022-09-13T12:24:18.160Z</time>
      </trkpt>
      <trkpt lat="48.10665" lon="11.3038">
        <ele>562.205611</ele>
        <time>2022-09-13T12:24:20.388Z</time>
      </trkpt>
      <trkpt lat="48.10604" lon="11.30258">
        <ele>561.837307</ele>
        <time>2022-09-13T12:24:45.945Z</time>
      </trkpt>
      <trkpt lat="48.10557" lon="11.30159">
        <ele>561.900173</ele>
        <time>2022-09-13T12:25:07.575Z</time>
      </trkpt>
      <trkpt lat="48.10547" lon="11.30139">
        <ele>561.945851</ele>
        <time>2022-09-13T12:25:12.167Z</time>
      </trkpt>
      <trkpt lat="48.10487" lon="11.30018">
        <ele>562.214687</ele>
        <time>2022-09-13T12:25:41.029Z</time>
      </trkpt>
      <trkpt lat="48.10451" lon="11.29945">
        <ele>562.613165</ele>
        <time>2022-09-13T12:25:59.286Z</time>
      </trkpt>
      <trkpt lat="48.10395" lon="11.29835">
        <ele>563.268065</ele>
        <time>2022-09-13T12:26:27.524Z</time>
      </trkpt>
      <trkpt lat="48.10347" lon="11.29739">
        <ele>563.812392</ele>
        <time>2022-09-13T12:26:51.280Z</time>
      </trkpt>
      <trkpt lat="48.10304" lon="11.29655">
        <ele>564.283681</ele>
        <time>2022-09-13T12:27:12.209Z</time>
      </trkpt>
      <trkpt lat="48.103" lon="11.29649">
        <ele>564.324907</ele>
        <time>2022-09-13T12:27:14.048Z</time>
      </trkpt>
      <trkpt lat="48.10252" lon="11.29559">
        <ele>564.856342</ele>
        <time>2022-09-13T12:27:36.933Z</time>
      </trkpt>
      <trkpt lat="48.10238" lon="11.29533">
        <ele>565.029739</ele>
        <time>2022-09-13T12:27:43.751Z</time>
      </trkpt>
      <trkpt lat="48.10196" lon="11.29467">
        <ele>565.500715</ele>
        <time>2022-09-13T12:28:02.309Z</time>
      </trkpt>
      <trkpt lat="48.10192" lon="11.29458">
        <ele>565.556813</ele>
        <time>2022-09-13T12:28:04.506Z</time>
      </trkpt>
      <trkpt lat="48.10185" lon="11.29447">
        <ele>565.633457</ele>
        <time>2022-09-13T12:28:07.534Z</time>
      </trkpt>
      <trkpt lat="48.10178" lon="11.29434">
        <ele>565.722911</ele>
        <time>2022-09-13T12:28:11.092Z</time>
      </trkpt>
      <trkpt lat="48.10175" lon="11.29429">
        <ele>565.753673</ele>
        <time>2022-09-13T12:28:12.302Z</time>
      </trkpt>
      <trkpt lat="48.10072" lon="11.29265">
        <ele>566.812569</ele>
        <time>2022-09-13T12:28:58.292Z</time>
      </trkpt>
      <trkpt lat="48.10055" lon="11.29239">
        <ele>566.978124</ele>
        <time>2022-09-13T12:29:05.549Z</time>
      </trkpt>
      <trkpt lat="48.09944" lon="11.29062">
        <ele>567.795194</ele>
        <time>2022-09-13T12:29:52.073Z</time>
      </trkpt>
      <trkpt lat="48.09941" lon="11.29057">
        <ele>567.813474</ele>
        <time>2022-09-13T12:29:53.215Z</time>
      </trkpt>
      <trkpt lat="48.09916" lon="11.29016">
        <ele>567.971863</ele>
        <time>2022-09-13T12:30:03.829Z</time>
      </trkpt>
      <trkpt lat="48.0989" lon="11.28973">
        <ele>568.185558</ele>
        <time>2022-09-13T12:30:15.194Z</time>
      </trkpt>
      <trkpt lat="48.09874" lon="11.28947">
        <ele>568.355584</ele>
        <time>2022-09-13T12:30:21.979Z</time>
      </trkpt>
      <trkpt lat="48.09861" lon="11.28927">
        <ele>568.492662</ele>
        <time>2022-09-13T12:30:27.359Z</time>
      </trkpt>
      <trkpt lat="48.09857" lon="11.2892">
        <ele>568.539287</ele>
        <time>2022-09-13T12:30:29.274Z</time>
      </trkpt>
      <trkpt lat="48.0985" lon="11.28908">
        <ele>568.618617</ele>
        <time>2022-09-13T12:30:32.493Z</time>
      </trkpt>
      <trkpt lat="48.09823" lon="11.28866">
        <ele>568.905048</ele>
        <time>2022-09-13T12:30:44.356Z</time>
      </trkpt>
      <trkpt lat="48.09792" lon="11.28817">
        <ele>569.231202</ele>
        <time>2022-09-13T12:30:58.311Z</time>
      </trkpt>
      <trkpt lat="48.09763" lon="11.28783">
        <ele>569.475572</ele>
        <time>2022-09-13T12:31:09.991Z</time>
      </trkpt>
      <trkpt lat="48.09758" lon="11.28778">
        <ele>569.504113</ele>
        <time>2022-09-13T12:31:11.647Z</time>
      </trkpt>
      <trkpt lat="48.09742" lon="11.28761">
        <ele>569.61012</ele>
        <time>2022-09-13T12:31:17.843Z</time>
      </trkpt>
      <trkpt lat="48.09706" lon="11.28721">
        <ele>569.84179</ele>
        <time>2022-09-13T12:31:31.276Z</time>
      </trkpt>
      <trkpt lat="48.09664" lon="11.2868">
        <ele>570.104927</ele>
        <time>2022-09-13T12:31:45.742Z</time>
      </trkpt>
      <trkpt lat="48.0966" lon="11.28675">
        <ele>570.135565</ele>
        <time>2022-09-13T12:31:47.380Z</time>
      </trkpt>
      <trkpt lat="48.09636" lon="11.28648">
        <ele>570.292119</ele>
        <time>2022-09-13T12:31:55.703Z</time>
      </trkpt>
      <trkpt lat="48.09587" lon="11.28595">
        <ele>570.349307</ele>
        <time>2022-09-13T12:32:11.611Z</time>
      </trkpt>
      <trkpt lat="48.09558" lon="11.28561">
        <ele>570.355262</ele>
        <time>2022-09-13T12:32:21.439Z</time>
      </trkpt>
      <trkpt lat="48.09482" lon="11.28474">
        <ele>570.390286</ele>
        <time>2022-09-13T12:32:46.894Z</time>
      </trkpt>
      <trkpt lat="48.09464" lon="11.28481">
        <ele>570.498651</ele>
        <time>2022-09-13T12:32:51.733Z</time>
      </trkpt>
      <trkpt lat="48.09457" lon="11.28484">
        <ele>570.536505</ele>
        <time>2022-09-13T12:32:53.404Z</time>
      </trkpt>
      <trkpt lat="48.0945" lon="11.28479">
        <ele>570.580979</ele>
        <time>2022-09-13T12:32:55.455Z</time>
      </trkpt>
      <trkpt lat="48.09441" lon="11.28471">
        <ele>570.642053</ele>
        <time>2022-09-13T12:32:58.437Z</time>
      </trkpt>
      <trkpt lat="48.09429" lon="11.28454">
        <ele>570.737007</ele>
        <time>2022-09-13T12:33:02.776Z</time>
      </trkpt>
      <trkpt lat="48.09394" lon="11.2836">
        <ele>571.147775</ele>
        <time>2022-09-13T12:33:24.296Z</time>
      </trkpt>
      <trkpt lat="48.09369" lon="11.2831">
        <ele>571.384769</ele>
        <time>2022-09-13T12:33:37.708Z</time>
      </trkpt>
      <trkpt lat="48.09356" lon="11.28287">
        <ele>571.62297</ele>
        <time>2022-09-13T12:33:44.718Z</time>
      </trkpt>
      <trkpt lat="48.09309" lon="11.28197">
        <ele>572.576929</ele>
        <time>2022-09-13T12:34:10.023Z</time>
      </trkpt>
      <trkpt lat="48.09265" lon="11.28113">
        <ele>573.465708</ele>
        <time>2022-09-13T12:34:33.229Z</time>
      </trkpt>
      <trkpt lat="48.09234" lon="11.28063">
        <ele>573.909955</ele>
        <time>2022-09-13T12:34:48.039Z</time>
      </trkpt>
      <trkpt lat="48.0923" lon="11.2806">
        <ele>573.943266</ele>
        <time>2022-09-13T12:34:49.331Z</time>
      </trkpt>
      <trkpt lat="48.09222" lon="11.28051">
        <ele>574.027388</ele>
        <time>2022-09-13T12:34:52.591Z</time>
      </trkpt>
      <trkpt lat="48.0916" lon="11.27997">
        <ele>574.632546</ele>
        <time>2022-09-13T12:35:15.568Z</time>
      </trkpt>
      <trkpt lat="48.09157" lon="11.27995">
        <ele>574.659385</ele>
        <time>2022-09-13T12:35:16.496Z</time>
      </trkpt>
      <trkpt lat="48.09155" lon="11.27993">
        <ele>574.681948</ele>
        <time>2022-09-13T12:35:17.296Z</time>
      </trkpt>
      <trkpt lat="48.0912" lon="11.27971">
        <ele>575.000798</ele>
        <time>2022-09-13T12:35:28.556Z</time>
      </trkpt>
      <trkpt lat="48.09097" lon="11.27976">
        <ele>575.176233</ele>
        <time>2022-09-13T12:35:34.862Z</time>
      </trkpt>
      <trkpt lat="48.09061" lon="11.28002">
        <ele>575.346322</ele>
        <time>2022-09-13T12:35:45.391Z</time>
      </trkpt>
      <trkpt lat="48.09047" lon="11.28012">
        <ele>575.411188</ele>
        <time>2022-09-13T12:35:49.660Z</time>
      </trkpt>
      <trkpt lat="48.09031" lon="11.28039">
        <ele>575.515432</ele>
        <time>2022-09-13T12:35:56.250Z</time>
      </trkpt>
      <trkpt lat="48.09024" lon="11.28043">
        <ele>575.546806</ele>
        <time>2022-09-13T12:35:58.442Z</time>
      </trkpt>
      <trkpt lat="48.09018" lon="11.28034">
        <ele>575.580433</ele>
        <time>2022-09-13T12:36:00.743Z</time>
      </trkpt>
      <trkpt lat="48.09025" lon="11.28004">
        <ele>575.670271</ele>
        <time>2022-09-13T12:36:06.768Z</time>
      </trkpt>
      <trkpt lat="48.09026" lon="11.27996">
        <ele>575.692683</ele>
        <time>2022-09-13T12:36:08.435Z</time>
      </trkpt>
      <trkpt lat="48.09023" lon="11.27992">
        <ele>575.708726</ele>
        <time>2022-09-13T12:36:09.626Z</time>
      </trkpt>
      <trkpt lat="48.09016" lon="11.27987">
        <ele>575.742638</ele>
        <time>2022-09-13T12:36:11.995Z</time>
      </trkpt>
      <trkpt lat="48.09007" lon="11.27981">
        <ele>575.785235</ele>
        <time>2022-09-13T12:36:14.889Z</time>
      </trkpt>
      <trkpt lat="48.08965" lon="11.27953">
        <ele>576.060936</ele>
        <time>2022-09-13T12:36:28.730Z</time>
      </trkpt>
      <trkpt lat="48.08811" lon="11.27875">
        <ele>577.653363</ele>
        <time>2022-09-13T12:37:19.505Z</time>
      </trkpt>
      <trkpt lat="48.08778" lon="11.27851">
        <ele>578.170659</ele>
        <time>2022-09-13T12:37:32.285Z</time>
      </trkpt>
      <trkpt lat="48.08735" lon="11.27824">
        <ele>578.833282</ele>
        <time>2022-09-13T12:37:48.110Z</time>
      </trkpt>
      <trkpt lat="48.08652" lon="11.27758">
        <ele>580.16518</ele>
        <time>2022-09-13T12:38:19.237Z</time>
      </trkpt>
      <trkpt lat="48.08507" lon="11.27611">
        <ele>583.458521</ele>
        <time>2022-09-13T12:39:19.957Z</time>
      </trkpt>
      <trkpt lat="48.08505" lon="11.27609">
        <ele>583.504766</ele>
        <time>2022-09-13T12:39:20.918Z</time>
      </trkpt>
      <trkpt lat="48.08503" lon="11.27607">
        <ele>583.541908</ele>
        <time>2022-09-13T12:39:21.659Z</time>
      </trkpt>
      <trkpt lat="48.08501" lon="11.27606">
        <ele>583.57905</ele>
        <time>2022-09-13T12:39:22.399Z</time>
      </trkpt>
      <trkpt lat="48.08345" lon="11.27408">
        <ele>589.657468</ele>
        <time>2022-09-13T12:40:51.009Z</time>
      </trkpt>
      <trkpt lat="48.0831" lon="11.27349">
        <ele>590.469389</ele>
        <time>2022-09-13T12:41:10.813Z</time>
      </trkpt>
      <trkpt lat="48.083" lon="11.27314">
        <ele>590.862772</ele>
        <time>2022-09-13T12:41:19.937Z</time>
      </trkpt>
      <trkpt lat="48.08278" lon="11.27238">
        <ele>591.722463</ele>
        <time>2022-09-13T12:41:36.755Z</time>
      </trkpt>
      <trkpt lat="48.08253" lon="11.27079">
        <ele>591.962285</ele>
        <time>2022-09-13T12:42:03.836Z</time>
      </trkpt>
      <trkpt lat="48.08234" lon="11.26903">
        <ele>591.989665</ele>
        <time>2022-09-13T12:42:34.129Z</time>
      </trkpt>
      <trkpt lat="48.08202" lon="11.26667">
        <ele>593.511417</ele>
        <time>2022-09-13T12:43:26.361Z</time>
      </trkpt>
      <trkpt lat="48.08193" lon="11.26632">
        <ele>593.724134</ele>
        <time>2022-09-13T12:43:35.036Z</time>
      </trkpt>
      <trkpt lat="48.08178" lon="11.26612">
        <ele>593.891046</ele>
        <time>2022-09-13T12:43:41.665Z</time>
      </trkpt>
      <trkpt lat="48.08168" lon="11.26597">
        <ele>594.014442</ele>
        <time>2022-09-13T12:43:46.497Z</time>
      </trkpt>
      <trkpt lat="48.08167" lon="11.26588">
        <ele>594.06777</ele>
        <time>2022-09-13T12:43:48.602Z</time>
      </trkpt>
      <trkpt lat="48.08167" lon="11.2658">
        <ele>594.109608</ele>
        <time>2022-09-13T12:43:50.229Z</time>
      </trkpt>
      <trkpt lat="48.08165" lon="11.26571">
        <ele>594.167122</ele>
        <time>2022-09-13T12:43:52.367Z</time>
      </trkpt>
      <trkpt lat="48.0817" lon="11.2655">
        <ele>594.293418</ele>
        <time>2022-09-13T12:43:57.083Z</time>
      </trkpt>
      <trkpt lat="48.08166" lon="11.26521">
        <ele>594.457595</ele>
        <time>2022-09-13T12:44:03.083Z</time>
      </trkpt>
      <trkpt lat="48.08127" lon="11.26398">
        <ele>595.063538</ele>
        <time>2022-09-13T12:44:28.775Z</time>
      </trkpt>
      <trkpt lat="48.08101" lon="11.26351">
        <ele>595.169714</ele>
        <time>2022-09-13T12:44:40.051Z</time>
      </trkpt>
      <trkpt lat="48.08057" lon="11.26251">
        <ele>595.375381</ele>
        <time>2022-09-13T12:45:01.588Z</time>
      </trkpt>
      <trkpt lat="48.08038" lon="11.2618">
        <ele>595.567322</ele>
        <time>2022-09-13T12:45:16.427Z</time>
      </trkpt>
      <trkpt lat="48.0801" lon="11.26133">
        <ele>595.800869</ele>
        <time>2022-09-13T12:45:29.084Z</time>
      </trkpt>
      <trkpt lat="48.07982" lon="11.26049">
        <ele>596.152266</ele>
        <time>2022-09-13T12:45:47.788Z</time>
      </trkpt>
      <trkpt lat="48.07931" lon="11.25935">
        <ele>596.713702</ele>
        <time>2022-09-13T12:46:14.220Z</time>
      </trkpt>
      <trkpt lat="48.07868" lon="11.25794">
        <ele>597.489719</ele>
        <time>2022-09-13T12:46:48.791Z</time>
      </trkpt>
      <trkpt lat="48.07802" lon="11.25626">
        <ele>597.877039</ele>
        <time>2022-09-13T12:47:27.772Z</time>
      </trkpt>
      <trkpt lat="48.07781" lon="11.25563">
        <ele>597.958425</ele>
        <time>2022-09-13T12:47:40.450Z</time>
      </trkpt>
      <trkpt lat="48.07754" lon="11.25441">
        <ele>597.302446</ele>
        <time>2022-09-13T12:48:00.576Z</time>
      </trkpt>
      <trkpt lat="48.07738" lon="11.25368">
        <ele>596.604659</ele>
        <time>2022-09-13T12:48:11.770Z</time>
      </trkpt>
      <trkpt lat="48.07723" lon="11.25328">
        <ele>596.187463</ele>
        <time>2022-09-13T12:48:18.200Z</time>
      </trkpt>
      <trkpt lat="48.07726" lon="11.25325">
        <ele>596.125907</ele>
        <time>2022-09-13T12:48:19.923Z</time>
      </trkpt>
      <trkpt lat="48.07741" lon="11.25302">
        <ele>595.839605</ele>
        <time>2022-09-13T12:48:24.623Z</time>
      </trkpt>
      <trkpt lat="48.07742" lon="11.2529">
        <ele>595.728899</ele>
        <time>2022-09-13T12:48:26.397Z</time>
      </trkpt>
      <trkpt lat="48.07736" lon="11.25265">
        <ele>595.539738</ele>
        <time>2022-09-13T12:48:30.453Z</time>
      </trkpt>
      <trkpt lat="48.07697" lon="11.25085">
        <ele>594.93012</ele>
        <time>2022-09-13T12:49:02.324Z</time>
      </trkpt>
      <trkpt lat="48.07694" lon="11.25066">
        <ele>594.866298</ele>
        <time>2022-09-13T12:49:06.245Z</time>
      </trkpt>
      <trkpt lat="48.07692" lon="11.25054">
        <ele>594.824873</ele>
        <time>2022-09-13T12:49:08.849Z</time>
      </trkpt>
      <trkpt lat="48.07683" lon="11.25005">
        <ele>594.751634</ele>
        <time>2022-09-13T12:49:18.732Z</time>
      </trkpt>
      <trkpt lat="48.07672" lon="11.24962">
        <ele>594.939584</ele>
        <time>2022-09-13T12:49:27.756Z</time>
      </trkpt>
      <trkpt lat="48.07661" lon="11.24948">
        <ele>595.023269</ele>
        <time>2022-09-13T12:49:31.830Z</time>
      </trkpt>
      <trkpt lat="48.07632" lon="11.24941">
        <ele>595.205294</ele>
        <time>2022-09-13T12:49:40.663Z</time>
      </trkpt>
      <trkpt lat="48.0762" lon="11.2491">
        <ele>595.349935</ele>
        <time>2022-09-13T12:49:47.796Z</time>
      </trkpt>
      <trkpt lat="48.07602" lon="11.24882">
        <ele>595.507237</ele>
        <time>2022-09-13T12:49:55.671Z</time>
      </trkpt>
      <trkpt lat="48.07519" lon="11.24794">
        <ele>595.95176</ele>
        <time>2022-09-13T12:50:26.383Z</time>
      </trkpt>
      <trkpt lat="48.07481" lon="11.24753">
        <ele>596.082856</ele>
        <time>2022-09-13T12:50:38.872Z</time>
      </trkpt>
      <trkpt lat="48.07498" lon="11.24721">
        <ele>596.160441</ele>
        <time>2022-09-13T12:50:46.624Z</time>
      </trkpt>
      <trkpt lat="48.07532" lon="11.24641">
        <ele>596.286836</ele>
        <time>2022-09-13T12:51:04.533Z</time>
      </trkpt>
      <trkpt lat="48.07552" lon="11.24603">
        <ele>596.236439</ele>
        <time>2022-09-13T12:51:13.747Z</time>
      </trkpt>
      <trkpt lat="48.07584" lon="11.24539">
        <ele>596.151655</ele>
        <time>2022-09-13T12:51:28.864Z</time>
      </trkpt>
      <trkpt lat="48.0762" lon="11.24488">
        <ele>596.074272</ele>
        <time>2022-09-13T12:51:41.617Z</time>
      </trkpt>
      <trkpt lat="48.07625" lon="11.24483">
        <ele>596.064634</ele>
        <time>2022-09-13T12:51:43.074Z</time>
      </trkpt>
      <trkpt lat="48.07711" lon="11.24416">
        <ele>594.898534</ele>
        <time>2022-09-13T12:52:05.519Z</time>
      </trkpt>
      <trkpt lat="48.07735" lon="11.24371">
        <ele>594.289947</ele>
        <time>2022-09-13T12:52:13.731Z</time>
      </trkpt>
      <trkpt lat="48.07763" lon="11.24284">
        <ele>593.258118</ele>
        <time>2022-09-13T12:52:27.246Z</time>
      </trkpt>
      <trkpt lat="48.07766" lon="11.24273">
        <ele>593.113648</ele>
        <time>2022-09-13T12:52:28.950Z</time>
      </trkpt>
      <trkpt lat="48.07814" lon="11.24126">
        <ele>590.661947</ele>
        <time>2022-09-13T12:52:50.992Z</time>
      </trkpt>
      <trkpt lat="48.07844" lon="11.23937">
        <ele>588.695726</ele>
        <time>2022-09-13T12:53:18.738Z</time>
      </trkpt>
      <trkpt lat="48.07858" lon="11.23885">
        <ele>588.451283</ele>
        <time>2022-09-13T12:53:27.412Z</time>
      </trkpt>
      <trkpt lat="48.07881" lon="11.23826">
        <ele>588.152506</ele>
        <time>2022-09-13T12:53:38.526Z</time>
      </trkpt>
      <trkpt lat="48.07905" lon="11.23761">
        <ele>588.31903</ele>
        <time>2022-09-13T12:53:53.002Z</time>
      </trkpt>
      <trkpt lat="48.07946" lon="11.2362">
        <ele>591.523754</ele>
        <time>2022-09-13T12:54:35.288Z</time>
      </trkpt>
      <trkpt lat="48.07955" lon="11.2359">
        <ele>592.18983</ele>
        <time>2022-09-13T12:54:45.717Z</time>
      </trkpt>
      <trkpt lat="48.08007" lon="11.23419">
        <ele>596.093374</ele>
        <time>2022-09-13T12:55:46.057Z</time>
      </trkpt>
      <trkpt lat="48.08086" lon="11.23156">
        <ele>599.139757</ele>
        <time>2022-09-13T12:56:55.791Z</time>
      </trkpt>
      <trkpt lat="48.0813" lon="11.23043">
        <ele>599.031309</ele>
        <time>2022-09-13T12:57:14.553Z</time>
      </trkpt>
      <trkpt lat="48.08138" lon="11.2303">
        <ele>598.619058</ele>
        <time>2022-09-13T12:57:16.968Z</time>
      </trkpt>
      <trkpt lat="48.08172" lon="11.2297">
        <ele>596.766875</ele>
        <time>2022-09-13T12:57:27.067Z</time>
      </trkpt>
      <trkpt lat="48.08224" lon="11.22847">
        <ele>593.346094</ele>
        <time>2022-09-13T12:57:45.081Z</time>
      </trkpt>
      <trkpt lat="48.08261" lon="11.22717">
        <ele>591.601343</ele>
        <time>2022-09-13T12:58:03.677Z</time>
      </trkpt>
      <trkpt lat="48.08272" lon="11.22716">
        <ele>591.426894</ele>
        <time>2022-09-13T12:58:06.483Z</time>
      </trkpt>
      <trkpt lat="48.08286" lon="11.22684">
        <ele>591.031669</ele>
        <time>2022-09-13T12:58:12.342Z</time>
      </trkpt>
      <trkpt lat="48.08299" lon="11.22678">
        <ele>590.827598</ele>
        <time>2022-09-13T12:58:16.063Z</time>
      </trkpt>
      <trkpt lat="48.08382" lon="11.22667">
        <ele>589.769932</ele>
        <time>2022-09-13T12:58:40.747Z</time>
      </trkpt>
      <trkpt lat="48.08467" lon="11.22665">
        <ele>589.02407</ele>
        <time>2022-09-13T12:59:02.594Z</time>
      </trkpt>
      <trkpt lat="48.08481" lon="11.2267">
        <ele>588.895189</ele>
        <time>2022-09-13T12:59:05.460Z</time>
      </trkpt>
      <trkpt lat="48.08501" lon="11.22691">
        <ele>588.67847</ele>
        <time>2022-09-13T12:59:10.991Z</time>
      </trkpt>
      <trkpt lat="48.08504" lon="11.22704">
        <ele>588.598713</ele>
        <time>2022-09-13T12:59:12.655Z</time>
      </trkpt>
      <trkpt lat="48.08511" lon="11.22711">
        <ele>588.523755</ele>
        <time>2022-09-13T12:59:14.617Z</time>
      </trkpt>
      <trkpt lat="48.08621" lon="11.22721">
        <ele>585.05751</ele>
        <time>2022-09-13T12:59:36.262Z</time>
      </trkpt>
      <trkpt lat="48.08618" lon="11.22709">
        <ele>584.781881</ele>
        <time>2022-09-13T12:59:37.925Z</time>
      </trkpt>
      <trkpt lat="48.08614" lon="11.22674">
        <ele>584.005497</ele>
        <time>2022-09-13T12:59:42.369Z</time>
      </trkpt>
      <trkpt lat="48.08613" lon="11.22664">
        <ele>583.799333</ele>
        <time>2022-09-13T12:59:43.565Z</time>
      </trkpt>
      <trkpt lat="48.08637" lon="11.22656">
        <ele>582.996672</ele>
        <time>2022-09-13T12:59:48.310Z</time>
      </trkpt>
      <trkpt lat="48.08664" lon="11.22636">
        <ele>582.346348</ele>
        <time>2022-09-13T12:59:54.175Z</time>
      </trkpt>
      <trkpt lat="48.08674" lon="11.22612">
        <ele>582.023791</ele>
        <time>2022-09-13T12:59:57.976Z</time>
      </trkpt>
      <trkpt lat="48.08649" lon="11.22358">
        <ele>579.432159</ele>
        <time>2022-09-13T13:00:37.005Z</time>
      </trkpt>
      <trkpt lat="48.08643" lon="11.22254">
        <ele>579.013308</ele>
        <time>2022-09-13T13:00:53.766Z</time>
      </trkpt>
      <trkpt lat="48.0864" lon="11.21942">
        <ele>578.233813</ele>
        <time>2022-09-13T13:01:46.642Z</time>
      </trkpt>
      <trkpt lat="48.08643" lon="11.21764">
        <ele>578.183684</ele>
        <time>2022-09-13T13:02:18.436Z</time>
      </trkpt>
      <trkpt lat="48.08631" lon="11.21608">
        <ele>578.284933</ele>
        <time>2022-09-13T13:02:46.969Z</time>
      </trkpt>
      <trkpt lat="48.08633" lon="11.21556">
        <ele>578.328462</ele>
        <time>2022-09-13T13:02:56.474Z</time>
      </trkpt>
      <trkpt lat="48.08624" lon="11.21501">
        <ele>578.378947</ele>
        <time>2022-09-13T13:03:07.225Z</time>
      </trkpt>
      <trkpt lat="48.08613" lon="11.21352">
        <ele>578.510935</ele>
        <time>2022-09-13T13:03:35.236Z</time>
      </trkpt>
      <trkpt lat="48.08591" lon="11.21174">
        <ele>578.167524</ele>
        <time>2022-09-13T13:04:05.555Z</time>
      </trkpt>
      <trkpt lat="48.08548" lon="11.20906">
        <ele>578.158137</ele>
        <time>2022-09-13T13:04:51.537Z</time>
      </trkpt>
      <trkpt lat="48.08541" lon="11.20858">
        <ele>578.22709</ele>
        <time>2022-09-13T13:05:01.048Z</time>
      </trkpt>
      <trkpt lat="48.08492" lon="11.20577">
        <ele>580.775791</ele>
        <time>2022-09-13T13:06:07.963Z</time>
      </trkpt>
      <trkpt lat="48.08476" lon="11.20412">
        <ele>581.941483</ele>
        <time>2022-09-13T13:06:45.956Z</time>
      </trkpt>
      <trkpt lat="48.08481" lon="11.20377">
        <ele>582.162986</ele>
        <time>2022-09-13T13:06:53.352Z</time>
      </trkpt>
      <trkpt lat="48.08496" lon="11.20369">
        <ele>582.311285</ele>
        <time>2022-09-13T13:06:57.885Z</time>
      </trkpt>
      <trkpt lat="48.08487" lon="11.20125">
        <ele>582.484709</ele>
        <time>2022-09-13T13:07:41.456Z</time>
      </trkpt>
      <trkpt lat="48.08486" lon="11.20093">
        <ele>582.432147</ele>
        <time>2022-09-13T13:07:46.704Z</time>
      </trkpt>
      <trkpt lat="48.08484" lon="11.20083">
        <ele>582.413751</ele>
        <time>2022-09-13T13:07:48.435Z</time>
      </trkpt>
      <trkpt lat="48.08469" lon="11.19947">
        <ele>582.186428</ele>
        <time>2022-09-13T13:08:10.540Z</time>
      </trkpt>
      <trkpt lat="48.08465" lon="11.1993">
        <ele>582.157898</ele>
        <time>2022-09-13T13:08:13.293Z</time>
      </trkpt>
      <trkpt lat="48.08463" lon="11.19883">
        <ele>582.079957</ele>
        <time>2022-09-13T13:08:21.299Z</time>
      </trkpt>
      <trkpt lat="48.08463" lon="11.19862">
        <ele>582.045447</ele>
        <time>2022-09-13T13:08:24.821Z</time>
      </trkpt>
      <trkpt lat="48.0845" lon="11.19862">
        <ele>582.014209</ele>
        <time>2022-09-13T13:08:28.179Z</time>
      </trkpt>
      <trkpt lat="48.0845" lon="11.19843">
        <ele>581.983486</ele>
        <time>2022-09-13T13:08:31.352Z</time>
      </trkpt>
      <trkpt lat="48.08444" lon="11.19842">
        <ele>581.969107</ele>
        <time>2022-09-13T13:08:32.871Z</time>
      </trkpt>
      <trkpt lat="48.08432" lon="11.19842">
        <ele>581.937381</ele>
        <time>2022-09-13T13:08:36.494Z</time>
      </trkpt>
      <trkpt lat="48.08431" lon="11.19829">
        <ele>581.915353</ele>
        <time>2022-09-13T13:08:38.938Z</time>
      </trkpt>
      <trkpt lat="48.08431" lon="11.19807">
        <ele>581.879844</ele>
        <time>2022-09-13T13:08:42.854Z</time>
      </trkpt>
      <trkpt lat="48.08428" lon="11.19729">
        <ele>582.594314</ele>
        <time>2022-09-13T13:08:58.795Z</time>
      </trkpt>
      <trkpt lat="48.08421" lon="11.19665">
        <ele>583.185315</ele>
        <time>2022-09-13T13:09:12.726Z</time>
      </trkpt>
      <trkpt lat="48.08418" lon="11.19595">
        <ele>583.828458</ele>
        <time>2022-09-13T13:09:29.245Z</time>
      </trkpt>
      <trkpt lat="48.08425" lon="11.1951">
        <ele>584.679609</ele>
        <time>2022-09-13T13:09:50.843Z</time>
      </trkpt>
      <trkpt lat="48.0842" lon="11.19312">
        <ele>586.990131</ele>
        <time>2022-09-13T13:10:38.806Z</time>
      </trkpt>
      <trkpt lat="48.08429" lon="11.19195">
        <ele>587.526134</ele>
        <time>2022-09-13T13:11:03.387Z</time>
      </trkpt>
      <trkpt lat="48.08434" lon="11.18862">
        <ele>586.781914</ele>
        <time>2022-09-13T13:11:59.247Z</time>
      </trkpt>
      <trkpt lat="48.08431" lon="11.18768">
        <ele>586.201026</ele>
        <time>2022-09-13T13:12:13.707Z</time>
      </trkpt>
      <trkpt lat="48.08429" lon="11.18654">
        <ele>584.875974</ele>
        <time>2022-09-13T13:12:29.627Z</time>
      </trkpt>
      <trkpt lat="48.0842" lon="11.18612">
        <ele>584.269397</ele>
        <time>2022-09-13T13:12:35.640Z</time>
      </trkpt>
      <trkpt lat="48.08402" lon="11.18583">
        <ele>583.707255</ele>
        <time>2022-09-13T13:12:41.212Z</time>
      </trkpt>
      <trkpt lat="48.08383" lon="11.18583">
        <ele>583.316055</ele>
        <time>2022-09-13T13:12:44.916Z</time>
      </trkpt>
      <trkpt lat="48.08373" lon="11.18561">
        <ele>582.942035</ele>
        <time>2022-09-13T13:12:48.831Z</time>
      </trkpt>
      <trkpt lat="48.0838" lon="11.18533">
        <ele>582.524752</ele>
        <time>2022-09-13T13:12:52.760Z</time>
      </trkpt>
      <trkpt lat="48.08408" lon="11.18525">
        <ele>582.025726</ele>
        <time>2022-09-13T13:12:58.839Z</time>
      </trkpt>
      <trkpt lat="48.08416" lon="11.18512">
        <ele>581.86351</ele>
        <time>2022-09-13T13:13:01.383Z</time>
      </trkpt>
      <trkpt lat="48.08411" lon="11.18397">
        <ele>580.836728</ele>
        <time>2022-09-13T13:13:17.967Z</time>
      </trkpt>
      <trkpt lat="48.08399" lon="11.18259">
        <ele>579.87006</ele>
        <time>2022-09-13T13:13:39.945Z</time>
      </trkpt>
      <trkpt lat="48.08359" lon="11.18204">
        <ele>580.110899</ele>
        <time>2022-09-13T13:13:55.038Z</time>
      </trkpt>
      <trkpt lat="48.08335" lon="11.18143">
        <ele>580.319787</ele>
        <time>2022-09-13T13:14:08.565Z</time>
      </trkpt>
      <trkpt lat="48.08334" lon="11.18119">
        <ele>580.391114</ele>
        <time>2022-09-13T13:14:13.357Z</time>
      </trkpt>
      <trkpt lat="48.08348" lon="11.18078">
        <ele>580.526817</ele>
        <time>2022-09-13T13:14:23.463Z</time>
      </trkpt>
      <trkpt lat="48.08352" lon="11.18064">
        <ele>580.572937</ele>
        <time>2022-09-13T13:14:27.050Z</time>
      </trkpt>
      <trkpt lat="48.08351" lon="11.18043">
        <ele>580.717874</ele>
        <time>2022-09-13T13:14:31.819Z</time>
      </trkpt>
      <trkpt lat="48.08353" lon="11.18012">
        <ele>581.023346</ele>
        <time>2022-09-13T13:14:38.579Z</time>
      </trkpt>
      <trkpt lat="48.08348" lon="11.17963">
        <ele>581.521177</ele>
        <time>2022-09-13T13:14:49.454Z</time>
      </trkpt>
      <trkpt lat="48.08325" lon="11.17859">
        <ele>582.606711</ele>
        <time>2022-09-13T13:15:13.159Z</time>
      </trkpt>
      <trkpt lat="48.08325" lon="11.1783">
        <ele>582.899722</ele>
        <time>2022-09-13T13:15:19.383Z</time>
      </trkpt>
      <trkpt lat="48.08301" lon="11.17675">
        <ele>585.71265</ele>
        <time>2022-09-13T13:16:00.501Z</time>
      </trkpt>
      <trkpt lat="48.08277" lon="11.17636">
        <ele>586.798386</ele>
        <time>2022-09-13T13:16:15.009Z</time>
      </trkpt>
      <trkpt lat="48.08269" lon="11.17588">
        <ele>587.791781</ele>
        <time>2022-09-13T13:16:28.575Z</time>
      </trkpt>
      <trkpt lat="48.08268" lon="11.17525">
        <ele>589.266355</ele>
        <time>2022-09-13T13:16:48.224Z</time>
      </trkpt>
      <trkpt lat="48.08286" lon="11.17454">
        <ele>591.782948</ele>
        <time>2022-09-13T13:17:14.117Z</time>
      </trkpt>
      <trkpt lat="48.08296" lon="11.17387">
        <ele>594.053777</ele>
        <time>2022-09-13T13:17:39.144Z</time>
      </trkpt>
      <trkpt lat="48.08295" lon="11.17325">
        <ele>596.097598</ele>
        <time>2022-09-13T13:18:02.233Z</time>
      </trkpt>
      <trkpt lat="48.08264" lon="11.17079">
        <ele>600.680204</ele>
        <time>2022-09-13T13:19:18.520Z</time>
      </trkpt>
      <trkpt lat="48.08253" lon="11.16903">
        <ele>597.816248</ele>
        <time>2022-09-13T13:19:42.385Z</time>
      </trkpt>
      <trkpt lat="48.08242" lon="11.16871">
        <ele>596.585856</ele>
        <time>2022-09-13T13:19:46.610Z</time>
      </trkpt>
      <trkpt lat="48.08184" lon="11.16836">
        <ele>593.428646</ele>
        <time>2022-09-13T13:19:57.215Z</time>
      </trkpt>
      <trkpt lat="48.08146" lon="11.16806">
        <ele>590.834207</ele>
        <time>2022-09-13T13:20:04.460Z</time>
      </trkpt>
      <trkpt lat="48.08104" lon="11.16751">
        <ele>587.15076</ele>
        <time>2022-09-13T13:20:13.767Z</time>
      </trkpt>
      <trkpt lat="48.08082" lon="11.16648">
        <ele>582.320891</ele>
        <time>2022-09-13T13:20:26.290Z</time>
      </trkpt>
      <trkpt lat="48.0804" lon="11.16358">
        <ele>574.358733</ele>
        <time>2022-09-13T13:21:04.009Z</time>
      </trkpt>
      <trkpt lat="48.08031" lon="11.16296">
        <ele>573.253805</ele>
        <time>2022-09-13T13:21:13.312Z</time>
      </trkpt>
      <trkpt lat="48.08024" lon="11.16247">
        <ele>572.483467</ele>
        <time>2022-09-13T13:21:20.744Z</time>
      </trkpt>
      <trkpt lat="48.08022" lon="11.16068">
        <ele>569.764124</ele>
        <time>2022-09-13T13:21:44.890Z</time>
      </trkpt>
      <trkpt lat="48.08018" lon="11.16033">
        <ele>569.318223</ele>
        <time>2022-09-13T13:21:49.991Z</time>
      </trkpt>
      <trkpt lat="48.08009" lon="11.15974">
        <ele>568.551027</ele>
        <time>2022-09-13T13:21:59.176Z</time>
      </trkpt>
      <trkpt lat="48.07976" lon="11.15886">
        <ele>567.292624</ele>
        <time>2022-09-13T13:22:13.799Z</time>
      </trkpt>
      <trkpt lat="48.07966" lon="11.15817">
        <ele>566.351671</ele>
        <time>2022-09-13T13:22:23.628Z</time>
      </trkpt>
      <trkpt lat="48.07951" lon="11.15751">
        <ele>565.048926</ele>
        <time>2022-09-13T13:22:33.184Z</time>
      </trkpt>
      <trkpt lat="48.07922" lon="11.15694">
        <ele>563.719525</ele>
        <time>2022-09-13T13:22:42.975Z</time>
      </trkpt>
      <trkpt lat="48.07907" lon="11.15618">
        <ele>562.223945</ele>
        <time>2022-09-13T13:22:53.669Z</time>
      </trkpt>
      <trkpt lat="48.07884" lon="11.15485">
        <ele>559.167399</ele>
        <time>2022-09-13T13:23:11.760Z</time>
      </trkpt>
      <trkpt lat="48.07874" lon="11.15434">
        <ele>557.906326</ele>
        <time>2022-09-13T13:23:18.615Z</time>
      </trkpt>
      <trkpt lat="48.07868" lon="11.15327">
        <ele>555.360985</ele>
        <time>2022-09-13T13:23:32.999Z</time>
      </trkpt>
      <trkpt lat="48.07863" lon="11.15241">
        <ele>555.06482</ele>
        <time>2022-09-13T13:23:46.080Z</time>
      </trkpt>
      <trkpt lat="48.0786" lon="11.15221">
        <ele>555.056668</ele>
        <time>2022-09-13T13:23:49.338Z</time>
      </trkpt>
      <trkpt lat="48.07837" lon="11.15201">
        <ele>555.039999</ele>
        <time>2022-09-13T13:23:56.896Z</time>
      </trkpt>
      <trkpt lat="48.07808" lon="11.15189">
        <ele>555.021917</ele>
        <time>2022-09-13T13:24:05.643Z</time>
      </trkpt>
      <trkpt lat="48.07774" lon="11.15193">
        <ele>555.000683</ele>
        <time>2022-09-13T13:24:16.888Z</time>
      </trkpt>
      <trkpt lat="48.07771" lon="11.15124">
        <ele>555.485041</ele>
        <time>2022-09-13T13:24:33.556Z</time>
      </trkpt>
      <trkpt lat="48.0777" lon="11.15091">
        <ele>555.993826</ele>
        <time>2022-09-13T13:24:41.719Z</time>
      </trkpt>
      <trkpt lat="48.0776" lon="11.14964">
        <ele>558.000282</ele>
        <time>2022-09-13T13:25:15.133Z</time>
      </trkpt>
      <trkpt lat="48.07767" lon="11.14782">
        <ele>560.820266</ele>
        <time>2022-09-13T13:26:02.624Z</time>
      </trkpt>
      <trkpt lat="48.07761" lon="11.14696">
        <ele>562.150678</ele>
        <time>2022-09-13T13:26:24.351Z</time>
      </trkpt>
      <trkpt lat="48.07742" lon="11.14498">
        <ele>564.71874</ele>
        <time>2022-09-13T13:27:12.506Z</time>
      </trkpt>
      <trkpt lat="48.07742" lon="11.14455">
        <ele>565.199224</ele>
        <time>2022-09-13T13:27:23.113Z</time>
      </trkpt>
      <trkpt lat="48.07736" lon="11.14436">
        <ele>565.443357</ele>
        <time>2022-09-13T13:27:30.334Z</time>
      </trkpt>
      <trkpt lat="48.07731" lon="11.1439">
        <ele>565.973566</ele>
        <time>2022-09-13T13:27:43.684Z</time>
      </trkpt>
      <trkpt lat="48.07729" lon="11.14332">
        <ele>566.209549</ele>
        <time>2022-09-13T13:27:58.547Z</time>
      </trkpt>
      <trkpt lat="48.07735" lon="11.14293">
        <ele>565.924727</ele>
        <time>2022-09-13T13:28:07.519Z</time>
      </trkpt>
      <trkpt lat="48.07754" lon="11.1422">
        <ele>565.369208</ele>
        <time>2022-09-13T13:28:24.920Z</time>
      </trkpt>
      <trkpt lat="48.07785" lon="11.1415">
        <ele>564.772071</ele>
        <time>2022-09-13T13:28:46.849Z</time>
      </trkpt>
      <trkpt lat="48.07823" lon="11.14022">
        <ele>561.520285</ele>
        <time>2022-09-13T13:29:19.833Z</time>
      </trkpt>
      <trkpt lat="48.07821" lon="11.14004">
        <ele>560.971546</ele>
        <time>2022-09-13T13:29:22.026Z</time>
      </trkpt>
      <trkpt lat="48.07814" lon="11.13976">
        <ele>560.033268</ele>
        <time>2022-09-13T13:29:25.719Z</time>
      </trkpt>
      <trkpt lat="48.07796" lon="11.13939">
        <ele>558.630587</ele>
        <time>2022-09-13T13:29:31.185Z</time>
      </trkpt>
      <trkpt lat="48.07764" lon="11.13903">
        <ele>556.814525</ele>
        <time>2022-09-13T13:29:38.265Z</time>
      </trkpt>
      <trkpt lat="48.07692" lon="11.13871">
        <ele>552.456967</ele>
        <time>2022-09-13T13:29:51.527Z</time>
      </trkpt>
      <trkpt lat="48.07683" lon="11.13865">
        <ele>551.893575</ele>
        <time>2022-09-13T13:29:53.177Z</time>
      </trkpt>
      <trkpt lat="48.07666" lon="11.1385">
        <ele>550.73234</ele>
        <time>2022-09-13T13:29:56.553Z</time>
      </trkpt>
      <trkpt lat="48.0764" lon="11.13809">
        <ele>548.46197</ele>
        <time>2022-09-13T13:30:03.211Z</time>
      </trkpt>
      <trkpt lat="48.07623" lon="11.13755">
        <ele>546.046502</ele>
        <time>2022-09-13T13:30:10.282Z</time>
      </trkpt>
      <trkpt lat="48.07612" lon="11.13684">
        <ele>543.7749</ele>
        <time>2022-09-13T13:30:18.932Z</time>
      </trkpt>
      <trkpt lat="48.07607" lon="11.13586">
        <ele>540.969778</ele>
        <time>2022-09-13T13:30:30.749Z</time>
      </trkpt>
      <trkpt lat="48.07611" lon="11.13543">
        <ele>539.740123</ele>
        <time>2022-09-13T13:30:36.115Z</time>
      </trkpt>
      <trkpt lat="48.07619" lon="11.1352">
        <ele>538.98683</ele>
        <time>2022-09-13T13:30:39.565Z</time>
      </trkpt>
      <trkpt lat="48.07684" lon="11.13373">
        <ele>536.801275</ele>
        <time>2022-09-13T13:31:05.359Z</time>
      </trkpt>
      <trkpt lat="48.07688" lon="11.13361">
        <ele>536.711411</ele>
        <time>2022-09-13T13:31:07.415Z</time>
      </trkpt>
      <trkpt lat="48.07694" lon="11.13347">
        <ele>536.590834</ele>
        <time>2022-09-13T13:31:10.263Z</time>
      </trkpt>
      <trkpt lat="48.07705" lon="11.13314">
        <ele>536.342076</ele>
        <time>2022-09-13T13:31:15.830Z</time>
      </trkpt>
      <trkpt lat="48.07717" lon="11.13276">
        <ele>536.047501</ele>
        <time>2022-09-13T13:31:22.795Z</time>
      </trkpt>
      <trkpt lat="48.07723" lon="11.13258">
        <ele>535.906866</ele>
        <time>2022-09-13T13:31:26.426Z</time>
      </trkpt>
      <trkpt lat="48.07744" lon="11.13196">
        <ele>536.024189</ele>
        <time>2022-09-13T13:31:39.875Z</time>
      </trkpt>
      <trkpt lat="48.07749" lon="11.13185">
        <ele>536.06103</ele>
        <time>2022-09-13T13:31:42.356Z</time>
      </trkpt>
      <trkpt lat="48.07755" lon="11.13169">
        <ele>536.114966</ele>
        <time>2022-09-13T13:31:46.271Z</time>
      </trkpt>
      <trkpt lat="48.07774" lon="11.13123">
        <ele>536.272452</ele>
        <time>2022-09-13T13:31:57.937Z</time>
      </trkpt>
      <trkpt lat="48.07784" lon="11.13101">
        <ele>536.349017</ele>
        <time>2022-09-13T13:32:03.452Z</time>
      </trkpt>
      <trkpt lat="48.07787" lon="11.13094">
        <ele>536.372684</ele>
        <time>2022-09-13T13:32:05.086Z</time>
      </trkpt>
      <trkpt lat="48.07838" lon="11.12946">
        <ele>536.581669</ele>
        <time>2022-09-13T13:32:35.301Z</time>
      </trkpt>
      <trkpt lat="48.07834" lon="11.12822">
        <ele>536.512598</ele>
        <time>2022-09-13T13:32:57.172Z</time>
      </trkpt>
      <trkpt lat="48.07824" lon="11.12773">
        <ele>536.484344</ele>
        <time>2022-09-13T13:33:05.792Z</time>
      </trkpt>
      <trkpt lat="48.07798" lon="11.12274">
        <ele>535.783525</ele>
        <time>2022-09-13T13:34:31.305Z</time>
      </trkpt>
      <trkpt lat="48.07781" lon="11.12051">
        <ele>535.979925</ele>
        <time>2022-09-13T13:35:11.530Z</time>
      </trkpt>
      <trkpt lat="48.07753" lon="11.11821">
        <ele>536.863305</ele>
        <time>2022-09-13T13:35:58.071Z</time>
      </trkpt>
      <trkpt lat="48.07727" lon="11.11632">
        <ele>537.938686</ele>
        <time>2022-09-13T13:36:38.480Z</time>
      </trkpt>
      <trkpt lat="48.07737" lon="11.11625">
        <ele>538.03399</ele>
        <time>2022-09-13T13:36:41.676Z</time>
      </trkpt>
      <trkpt lat="48.0774" lon="11.11615">
        <ele>538.099835</ele>
        <time>2022-09-13T13:36:43.970Z</time>
      </trkpt>
      <trkpt lat="48.07736" lon="11.11532">
        <ele>538.596904</ele>
        <time>2022-09-13T13:37:01.428Z</time>
      </trkpt>
      <trkpt lat="48.07741" lon="11.11531">
        <ele>538.644058</ele>
        <time>2022-09-13T13:37:02.987Z</time>
      </trkpt>
      <trkpt lat="48.07747" lon="11.11529">
        <ele>538.69979</ele>
        <time>2022-09-13T13:37:04.901Z</time>
      </trkpt>
      <trkpt lat="48.07753" lon="11.11526">
        <ele>538.752676</ele>
        <time>2022-09-13T13:37:06.702Z</time>
      </trkpt>
      <trkpt lat="48.07762" lon="11.11501">
        <ele>538.925059</ele>
        <time>2022-09-13T13:37:12.761Z</time>
      </trkpt>
      <trkpt lat="48.07778" lon="11.1148">
        <ele>539.117004</ele>
        <time>2022-09-13T13:37:19.215Z</time>
      </trkpt>
      <trkpt lat="48.07777" lon="11.11475">
        <ele>539.148062</ele>
        <time>2022-09-13T13:37:20.325Z</time>
      </trkpt>
      <trkpt lat="48.07774" lon="11.11469">
        <ele>539.189928</ele>
        <time>2022-09-13T13:37:21.864Z</time>
      </trkpt>
      <trkpt lat="48.07785" lon="11.11463">
        <ele>539.27007</ele>
        <time>2022-09-13T13:37:25.174Z</time>
      </trkpt>
      <trkpt lat="48.0781" lon="11.11446">
        <ele>539.465834</ele>
        <time>2022-09-13T13:37:33.544Z</time>
      </trkpt>
      <trkpt lat="48.07833" lon="11.11442">
        <ele>539.634119</ele>
        <time>2022-09-13T13:37:40.596Z</time>
      </trkpt>
      <trkpt lat="48.07843" lon="11.11441">
        <ele>539.707285</ele>
        <time>2022-09-13T13:37:43.746Z</time>
      </trkpt>
      <trkpt lat="48.07855" lon="11.11438">
        <ele>539.78888</ele>
        <time>2022-09-13T13:37:47.010Z</time>
      </trkpt>
      <trkpt lat="48.07865" lon="11.11436">
        <ele>539.861522</ele>
        <time>2022-09-13T13:37:49.955Z</time>
      </trkpt>
      <trkpt lat="48.07893" lon="11.11436">
        <ele>540.063848</ele>
        <time>2022-09-13T13:38:03.258Z</time>
      </trkpt>
      <trkpt lat="48.07892" lon="11.1145">
        <ele>540.129236</ele>
        <time>2022-09-13T13:38:06.027Z</time>
      </trkpt>
      <trkpt lat="48.07968" lon="11.11449">
        <ele>540.928738</ele>
        <time>2022-09-13T13:38:29.373Z</time>
      </trkpt>
      <trkpt lat="48.08013" lon="11.11448">
        <ele>541.648261</ele>
        <time>2022-09-13T13:38:44.414Z</time>
      </trkpt>
      <trkpt lat="48.08031" lon="11.11448">
        <ele>541.925257</ele>
        <time>2022-09-13T13:38:50.017Z</time>
      </trkpt>
      <trkpt lat="48.08037" lon="11.11431">
        <ele>542.128964</ele>
        <time>2022-09-13T13:38:54.774Z</time>
      </trkpt>
      <trkpt lat="48.08039" lon="11.11398">
        <ele>542.484391</ele>
        <time>2022-09-13T13:39:02.390Z</time>
      </trkpt>
      <trkpt lat="48.08056" lon="11.11388">
        <ele>542.771908</ele>
        <time>2022-09-13T13:39:09.403Z</time>
      </trkpt>
      <trkpt lat="48.08071" lon="11.11368">
        <ele>543.097156</ele>
        <time>2022-09-13T13:39:16.701Z</time>
      </trkpt>
      <trkpt lat="48.08076" lon="11.11349">
        <ele>543.313181</ele>
        <time>2022-09-13T13:39:22.122Z</time>
      </trkpt>
      <trkpt lat="48.0815" lon="11.11311">
        <ele>545.198778</ele>
        <time>2022-09-13T13:39:51.397Z</time>
      </trkpt>
      <trkpt lat="48.08161" lon="11.11305">
        <ele>545.477019</ele>
        <time>2022-09-13T13:39:55.713Z</time>
      </trkpt>
      <trkpt lat="48.08188" lon="11.11293">
        <ele>546.149224</ele>
        <time>2022-09-13T13:40:06.579Z</time>
      </trkpt>
      <trkpt lat="48.08195" lon="11.1129">
        <ele>546.335789</ele>
        <time>2022-09-13T13:40:09.607Z</time>
      </trkpt>
      <trkpt lat="48.08193" lon="11.11259">
        <ele>546.84394</ele>
        <time>2022-09-13T13:40:18.069Z</time>
      </trkpt>
      <trkpt lat="48.08186" lon="11.11191">
        <ele>547.910678</ele>
        <time>2022-09-13T13:40:35.957Z</time>
      </trkpt>
      <trkpt lat="48.08179" lon="11.11141">
        <ele>548.618936</ele>
        <time>2022-09-13T13:40:49.404Z</time>
      </trkpt>
      <trkpt lat="48.08175" lon="11.11103">
        <ele>549.144135</ele>
        <time>2022-09-13T13:40:59.172Z</time>
      </trkpt>
      <trkpt lat="48.08173" lon="11.11062">
        <ele>549.705489</ele>
        <time>2022-09-13T13:41:09.143Z</time>
      </trkpt>
      <trkpt lat="48.08171" lon="11.10939">
        <ele>551.392857</ele>
        <time>2022-09-13T13:41:37.593Z</time>
      </trkpt>
      <trkpt lat="48.0817" lon="11.10862">
        <ele>551.95461</ele>
        <time>2022-09-13T13:41:55.404Z</time>
      </trkpt>
      <trkpt lat="48.08177" lon="11.10673">
        <ele>553.330429</ele>
        <time>2022-09-13T13:42:34.333Z</time>
      </trkpt>
      <trkpt lat="48.08175" lon="11.10572">
        <ele>554.452141</ele>
        <time>2022-09-13T13:42:55.118Z</time>
      </trkpt>
      <trkpt lat="48.08171" lon="11.10485">
        <ele>555.425312</ele>
        <time>2022-09-13T13:43:14.957Z</time>
      </trkpt>
      <trkpt lat="48.08163" lon="11.1033">
        <ele>557.77251</ele>
        <time>2022-09-13T13:43:56.102Z</time>
      </trkpt>
      <trkpt lat="48.08155" lon="11.10215">
        <ele>560.016934</ele>
        <time>2022-09-13T13:44:28.595Z</time>
      </trkpt>
      <trkpt lat="48.08149" lon="11.10137">
        <ele>561.552554</ele>
        <time>2022-09-13T13:44:50.594Z</time>
      </trkpt>
      <trkpt lat="48.08126" lon="11.1004">
        <ele>562.74075</ele>
        <time>2022-09-13T13:45:16.895Z</time>
      </trkpt>
      <trkpt lat="48.08077" lon="11.09922">
        <ele>564.338405</ele>
        <time>2022-09-13T13:45:47.616Z</time>
      </trkpt>
      <trkpt lat="48.08054" lon="11.09847">
        <ele>565.129923</ele>
        <time>2022-09-13T13:46:03.621Z</time>
      </trkpt>
      <trkpt lat="48.08041" lon="11.0982">
        <ele>565.413129</ele>
        <time>2022-09-13T13:46:10.253Z</time>
      </trkpt>
      <trkpt lat="48.07982" lon="11.09769">
        <ele>566.280975</ele>
        <time>2022-09-13T13:46:32.223Z</time>
      </trkpt>
      <trkpt lat="48.07961" lon="11.09737">
        <ele>566.659193</ele>
        <time>2022-09-13T13:46:42.335Z</time>
      </trkpt>
      <trkpt lat="48.07948" lon="11.09703">
        <ele>567.03002</ele>
        <time>2022-09-13T13:46:51.729Z</time>
      </trkpt>
      <trkpt lat="48.07941" lon="11.0967">
        <ele>567.737992</ele>
        <time>2022-09-13T13:47:00.472Z</time>
      </trkpt>
      <trkpt lat="48.07944" lon="11.09586">
        <ele>569.478577</ele>
        <time>2022-09-13T13:47:23.471Z</time>
      </trkpt>
      <trkpt lat="48.07964" lon="11.09348">
        <ele>575.004082</ele>
        <time>2022-09-13T13:48:33.692Z</time>
      </trkpt>
      <trkpt lat="48.0796" lon="11.09316">
        <ele>575.872493</ele>
        <time>2022-09-13T13:48:43.426Z</time>
      </trkpt>
      <trkpt lat="48.07934" lon="11.09216">
        <ele>578.790481</ele>
        <time>2022-09-13T13:49:18.224Z</time>
      </trkpt>
      <trkpt lat="48.07916" lon="11.09109">
        <ele>581.649147</ele>
        <time>2022-09-13T13:49:52.890Z</time>
      </trkpt>
      <trkpt lat="48.0792" lon="11.08943">
        <ele>585.866895</ele>
        <time>2022-09-13T13:50:44.137Z</time>
      </trkpt>
      <trkpt lat="48.0793" lon="11.08802">
        <ele>588.013563</ele>
        <time>2022-09-13T13:51:20.031Z</time>
      </trkpt>
      <trkpt lat="48.07926" lon="11.0868">
        <ele>589.544144</ele>
        <time>2022-09-13T13:51:47.446Z</time>
      </trkpt>
      <trkpt lat="48.07939" lon="11.08632">
        <ele>589.987465</ele>
        <time>2022-09-13T13:51:58.479Z</time>
      </trkpt>
      <trkpt lat="48.07926" lon="11.0855">
        <ele>590.045715</ele>
        <time>2022-09-13T13:52:16.204Z</time>
      </trkpt>
      <trkpt lat="48.07927" lon="11.08512">
        <ele>590.072081</ele>
        <time>2022-09-13T13:52:23.696Z</time>
      </trkpt>
      <trkpt lat="48.07963" lon="11.08391">
        <ele>590.120224</ele>
        <time>2022-09-13T13:52:45.523Z</time>
      </trkpt>
      <trkpt lat="48.08007" lon="11.08219">
        <ele>588.144553</ele>
        <time>2022-09-13T13:53:12.175Z</time>
      </trkpt>
      <trkpt lat="48.08009" lon="11.08194">
        <ele>587.869925</ele>
        <time>2022-09-13T13:53:15.584Z</time>
      </trkpt>
      <trkpt lat="48.08013" lon="11.08184">
        <ele>587.744563</ele>
        <time>2022-09-13T13:53:17.297Z</time>
      </trkpt>
      <trkpt lat="48.08015" lon="11.08182">
        <ele>587.707102</ele>
        <time>2022-09-13T13:53:17.836Z</time>
      </trkpt>
      <trkpt lat="48.08044" lon="11.08159">
        <ele>587.228544</ele>
        <time>2022-09-13T13:53:24.675Z</time>
      </trkpt>
      <trkpt lat="48.08057" lon="11.08137">
        <ele>587.090452</ele>
        <time>2022-09-13T13:53:28.893Z</time>
      </trkpt>
      <trkpt lat="48.08064" lon="11.08052">
        <ele>586.685597</ele>
        <time>2022-09-13T13:53:41.302Z</time>
      </trkpt>
      <trkpt lat="48.08101" lon="11.07844">
        <ele>586.809376</ele>
        <time>2022-09-13T13:54:20.399Z</time>
      </trkpt>
      <trkpt lat="48.08123" lon="11.07759">
        <ele>587.895572</ele>
        <time>2022-09-13T13:54:43.098Z</time>
      </trkpt>
      <trkpt lat="48.08124" lon="11.07716">
        <ele>588.411761</ele>
        <time>2022-09-13T13:54:54.514Z</time>
      </trkpt>
      <trkpt lat="48.08111" lon="11.07556">
        <ele>590.711125</ele>
        <time>2022-09-13T13:55:36.279Z</time>
      </trkpt>
      <trkpt lat="48.08113" lon="11.07488">
        <ele>591.800688</ele>
        <time>2022-09-13T13:55:54.424Z</time>
      </trkpt>
      <trkpt lat="48.08162" lon="11.07336">
        <ele>594.695392</ele>
        <time>2022-09-13T13:56:35.884Z</time>
      </trkpt>
      <trkpt lat="48.08167" lon="11.07303">
        <ele>595.361751</ele>
        <time>2022-09-13T13:56:43.897Z</time>
      </trkpt>
      <trkpt lat="48.08167" lon="11.07226">
        <ele>596.839768</ele>
        <time>2022-09-13T13:57:03.097Z</time>
      </trkpt>
      <trkpt lat="48.08196" lon="11.07089">
        <ele>600.17669</ele>
        <time>2022-09-13T13:57:47.579Z</time>
      </trkpt>
      <trkpt lat="48.08195" lon="11.06951">
        <ele>604.431433</ele>
        <time>2022-09-13T13:58:32.754Z</time>
      </trkpt>
      <trkpt lat="48.08195" lon="11.0694">
        <ele>604.791432</ele>
        <time>2022-09-13T13:58:36.796Z</time>
      </trkpt>
      <trkpt lat="48.08194" lon="11.06882">
        <ele>606.590566</ele>
        <time>2022-09-13T13:58:56.387Z</time>
      </trkpt>
      <trkpt lat="48.08213" lon="11.06834">
        <ele>608.135148</ele>
        <time>2022-09-13T13:59:15.781Z</time>
      </trkpt>
      <trkpt lat="48.08252" lon="11.06764">
        <ele>610.550764</ele>
        <time>2022-09-13T13:59:46.167Z</time>
      </trkpt>
      <trkpt lat="48.08274" lon="11.06659">
        <ele>613.455061</ele>
        <time>2022-09-13T14:00:18.646Z</time>
      </trkpt>
      <trkpt lat="48.08259" lon="11.0652">
        <ele>614.168084</ele>
        <time>2022-09-13T14:00:52.064Z</time>
      </trkpt>
      <trkpt lat="48.08264" lon="11.06381">
        <ele>614.154181</ele>
        <time>2022-09-13T14:01:13.632Z</time>
      </trkpt>
      <trkpt lat="48.08282" lon="11.0633">
        <ele>613.238239</ele>
        <time>2022-09-13T14:01:21.255Z</time>
      </trkpt>
      <trkpt lat="48.083" lon="11.06311">
        <ele>612.484599</ele>
        <time>2022-09-13T14:01:25.512Z</time>
      </trkpt>
      <trkpt lat="48.08359" lon="11.06252">
        <ele>610.104218</ele>
        <time>2022-09-13T14:01:38.902Z</time>
      </trkpt>
      <trkpt lat="48.0842" lon="11.06165">
        <ele>607.702912</ele>
        <time>2022-09-13T14:01:54.838Z</time>
      </trkpt>
      <trkpt lat="48.0853" lon="11.06002">
        <ele>605.06708</ele>
        <time>2022-09-13T14:02:28.997Z</time>
      </trkpt>
      <trkpt lat="48.08539" lon="11.05989">
        <ele>605.086035</ele>
        <time>2022-09-13T14:02:32.647Z</time>
      </trkpt>
      <trkpt lat="48.08551" lon="11.05973">
        <ele>605.109933</ele>
        <time>2022-09-13T14:02:37.322Z</time>
      </trkpt>
      <trkpt lat="48.08556" lon="11.05966">
        <ele>605.119987</ele>
        <time>2022-09-13T14:02:39.397Z</time>
      </trkpt>
      <trkpt lat="48.08571" lon="11.05949">
        <ele>605.148055</ele>
        <time>2022-09-13T14:02:45.066Z</time>
      </trkpt>
      <trkpt lat="48.0858" lon="11.05942">
        <ele>605.16326</ele>
        <time>2022-09-13T14:02:48.103Z</time>
      </trkpt>
      <trkpt lat="48.08587" lon="11.05938">
        <ele>605.174698</ele>
        <time>2022-09-13T14:02:50.479Z</time>
      </trkpt>
      <trkpt lat="48.08597" lon="11.05932">
        <ele>605.190663</ele>
        <time>2022-09-13T14:02:53.794Z</time>
      </trkpt>
      <trkpt lat="48.08607" lon="11.05926">
        <ele>605.206768</ele>
        <time>2022-09-13T14:02:56.916Z</time>
      </trkpt>
      <trkpt lat="48.08629" lon="11.05911">
        <ele>605.242823</ele>
        <time>2022-09-13T14:03:04.171Z</time>
      </trkpt>
      <trkpt lat="48.08636" lon="11.05907">
        <ele>605.254003</ele>
        <time>2022-09-13T14:03:06.192Z</time>
      </trkpt>
      <trkpt lat="48.08648" lon="11.059">
        <ele>605.273755</ele>
        <time>2022-09-13T14:03:09.912Z</time>
      </trkpt>
      <trkpt lat="48.0867" lon="11.05887">
        <ele>605.308135</ele>
        <time>2022-09-13T14:03:16.173Z</time>
      </trkpt>
      <trkpt lat="48.08696" lon="11.05877">
        <ele>605.129873</ele>
        <time>2022-09-13T14:03:23.415Z</time>
      </trkpt>
      <trkpt lat="48.08688" lon="11.05842">
        <ele>604.546056</ele>
        <time>2022-09-13T14:03:29.790Z</time>
      </trkpt>
      <trkpt lat="48.08676" lon="11.05789">
        <ele>603.668127</ele>
        <time>2022-09-13T14:03:38.946Z</time>
      </trkpt>
      <trkpt lat="48.08665" lon="11.05749">
        <ele>602.979368</ele>
        <time>2022-09-13T14:03:45.180Z</time>
      </trkpt>
      <trkpt lat="48.08662" lon="11.05719">
        <ele>602.490154</ele>
        <time>2022-09-13T14:03:49.359Z</time>
      </trkpt>
      <trkpt lat="48.08664" lon="11.05677">
        <ele>601.836249</ele>
        <time>2022-09-13T14:03:54.644Z</time>
      </trkpt>
      <trkpt lat="48.08676" lon="11.05658">
        <ele>601.417652</ele>
        <time>2022-09-13T14:03:57.887Z</time>
      </trkpt>
      <trkpt lat="48.08707" lon="11.05631">
        <ele>599.735653</ele>
        <time>2022-09-13T14:04:04.319Z</time>
      </trkpt>
      <trkpt lat="48.08704" lon="11.05622">
        <ele>599.324438</ele>
        <time>2022-09-13T14:04:05.483Z</time>
      </trkpt>
      <trkpt lat="48.08693" lon="11.05588">
        <ele>597.7515</ele>
        <time>2022-09-13T14:04:09.863Z</time>
      </trkpt>
      <trkpt lat="48.08677" lon="11.05545">
        <ele>595.733047</ele>
        <time>2022-09-13T14:04:15.520Z</time>
      </trkpt>
      <trkpt lat="48.08667" lon="11.05515">
        <ele>594.376741</ele>
        <time>2022-09-13T14:04:19.352Z</time>
      </trkpt>
      <trkpt lat="48.08658" lon="11.05486">
        <ele>593.019439</ele>
        <time>2022-09-13T14:04:23.201Z</time>
      </trkpt>
      <trkpt lat="48.08656" lon="11.05481">
        <ele>592.818401</ele>
        <time>2022-09-13T14:04:23.775Z</time>
      </trkpt>
      <trkpt lat="48.08651" lon="11.05464">
        <ele>592.011574</ele>
        <time>2022-09-13T14:04:26.079Z</time>
      </trkpt>
      <trkpt lat="48.08625" lon="11.05386">
        <ele>588.673165</ele>
        <time>2022-09-13T14:04:35.997Z</time>
      </trkpt>
      <trkpt lat="48.0865" lon="11.05364">
        <ele>587.151846</ele>
        <time>2022-09-13T14:04:41.029Z</time>
      </trkpt>
      <trkpt lat="48.08681" lon="11.05352">
        <ele>585.459721</ele>
        <time>2022-09-13T14:04:46.685Z</time>
      </trkpt>
      <trkpt lat="48.08693" lon="11.05336">
        <ele>584.586936</ele>
        <time>2022-09-13T14:04:49.653Z</time>
      </trkpt>
      <trkpt lat="48.08685" lon="11.0532">
        <ele>583.882757</ele>
        <time>2022-09-13T14:04:52.076Z</time>
      </trkpt>
      <trkpt lat="48.08677" lon="11.05301">
        <ele>583.085681</ele>
        <time>2022-09-13T14:04:54.787Z</time>
      </trkpt>
      <trkpt lat="48.08674" lon="11.05293">
        <ele>582.729933</ele>
        <time>2022-09-13T14:04:56.037Z</time>
      </trkpt>
      <trkpt lat="48.08646" lon="11.05087">
        <ele>577.047322</ele>
        <time>2022-09-13T14:05:22.629Z</time>
      </trkpt>
      <trkpt lat="48.08633" lon="11.04966">
        <ele>574.19151</ele>
        <time>2022-09-13T14:05:38.538Z</time>
      </trkpt>
      <trkpt lat="48.08632" lon="11.04889">
        <ele>573.281268</ele>
        <time>2022-09-13T14:05:48.875Z</time>
      </trkpt>
      <trkpt lat="48.08644" lon="11.04695">
        <ele>571.058825</ele>
        <time>2022-09-13T14:06:17.415Z</time>
      </trkpt>
      <trkpt lat="48.08646" lon="11.04674">
        <ele>571.138384</ele>
        <time>2022-09-13T14:06:20.958Z</time>
      </trkpt>
      <trkpt lat="48.08692" lon="11.04303">
        <ele>573.536545</ele>
        <time>2022-09-13T14:07:39.785Z</time>
      </trkpt>
      <trkpt lat="48.0871" lon="11.04161">
        <ele>575.198651</ele>
        <time>2022-09-13T14:08:16.357Z</time>
      </trkpt>
      <trkpt lat="48.08715" lon="11.04117">
        <ele>575.975307</ele>
        <time>2022-09-13T14:08:28.078Z</time>
      </trkpt>
      <trkpt lat="48.08744" lon="11.03902">
        <ele>579.812324</ele>
        <time>2022-09-13T14:09:25.568Z</time>
      </trkpt>
      <trkpt lat="48.08748" lon="11.03846">
        <ele>580.609394</ele>
        <time>2022-09-13T14:09:40.887Z</time>
      </trkpt>
      <trkpt lat="48.08749" lon="11.03783">
        <ele>581.49339</ele>
        <time>2022-09-13T14:09:56.884Z</time>
      </trkpt>
      <trkpt lat="48.0874" lon="11.03677">
        <ele>583.00657</ele>
        <time>2022-09-13T14:10:21.939Z</time>
      </trkpt>
      <trkpt lat="48.08713" lon="11.036">
        <ele>584.195298</ele>
        <time>2022-09-13T14:10:42.420Z</time>
      </trkpt>
      <trkpt lat="48.08672" lon="11.03525">
        <ele>585.449545</ele>
        <time>2022-09-13T14:11:04.984Z</time>
      </trkpt>
      <trkpt lat="48.08651" lon="11.03472">
        <ele>586.25738</ele>
        <time>2022-09-13T14:11:19.681Z</time>
      </trkpt>
      <trkpt lat="48.08646" lon="11.034">
        <ele>587.196319</ele>
        <time>2022-09-13T14:11:37.908Z</time>
      </trkpt>
      <trkpt lat="48.08652" lon="11.03331">
        <ele>587.998446</ele>
        <time>2022-09-13T14:11:56.326Z</time>
      </trkpt>
      <trkpt lat="48.08669" lon="11.03232">
        <ele>589.186694</ele>
        <time>2022-09-13T14:12:21.732Z</time>
      </trkpt>
      <trkpt lat="48.0867" lon="11.03224">
        <ele>589.282551</ele>
        <time>2022-09-13T14:12:23.381Z</time>
      </trkpt>
      <trkpt lat="48.08685" lon="11.03129">
        <ele>590.241405</ele>
        <time>2022-09-13T14:12:43.655Z</time>
      </trkpt>
      <trkpt lat="48.08694" lon="11.03069">
        <ele>590.183154</ele>
        <time>2022-09-13T14:12:55.368Z</time>
      </trkpt>
      <trkpt lat="48.08719" lon="11.02959">
        <ele>590.073404</ele>
        <time>2022-09-13T14:13:13.638Z</time>
      </trkpt>
      <trkpt lat="48.08729" lon="11.02885">
        <ele>590.001678</ele>
        <time>2022-09-13T14:13:25.897Z</time>
      </trkpt>
      <trkpt lat="48.08734" lon="11.0281">
        <ele>590.774707</ele>
        <time>2022-09-13T14:13:40.344Z</time>
      </trkpt>
      <trkpt lat="48.08736" lon="11.0278">
        <ele>591.102176</ele>
        <time>2022-09-13T14:13:47.299Z</time>
      </trkpt>
      <trkpt lat="48.08737" lon="11.02758">
        <ele>591.338828</ele>
        <time>2022-09-13T14:13:52.267Z</time>
      </trkpt>
      <trkpt lat="48.08739" lon="11.02739">
        <ele>591.540339</ele>
        <time>2022-09-13T14:13:56.952Z</time>
      </trkpt>
      <trkpt lat="48.08737" lon="11.02675">
        <ele>592.214419</ele>
        <time>2022-09-13T14:14:13.327Z</time>
      </trkpt>
      <trkpt lat="48.0874" lon="11.02631">
        <ele>592.687724</ele>
        <time>2022-09-13T14:14:24.914Z</time>
      </trkpt>
      <trkpt lat="48.08741" lon="11.02622">
        <ele>592.783229</ele>
        <time>2022-09-13T14:14:27.148Z</time>
      </trkpt>
      <trkpt lat="48.08739" lon="11.02568">
        <ele>593.711805</ele>
        <time>2022-09-13T14:14:41.092Z</time>
      </trkpt>
      <trkpt lat="48.08721" lon="11.02527">
        <ele>594.617539</ele>
        <time>2022-09-13T14:14:54.964Z</time>
      </trkpt>
      <trkpt lat="48.08718" lon="11.02523">
        <ele>594.715952</ele>
        <time>2022-09-13T14:14:56.491Z</time>
      </trkpt>
      <trkpt lat="48.08701" lon="11.02495">
        <ele>595.409527</ele>
        <time>2022-09-13T14:15:06.929Z</time>
      </trkpt>
      <trkpt lat="48.08696" lon="11.02483">
        <ele>595.667547</ele>
        <time>2022-09-13T14:15:10.864Z</time>
      </trkpt>
      <trkpt lat="48.08692" lon="11.02469">
        <ele>595.943997</ele>
        <time>2022-09-13T14:15:14.946Z</time>
      </trkpt>
      <trkpt lat="48.08681" lon="11.0245">
        <ele>596.412445</ele>
        <time>2022-09-13T14:15:21.801Z</time>
      </trkpt>
      <trkpt lat="48.08652" lon="11.02436">
        <ele>597.232891</ele>
        <time>2022-09-13T14:15:33.395Z</time>
      </trkpt>
      <trkpt lat="48.08646" lon="11.02405">
        <ele>597.820512</ele>
        <time>2022-09-13T14:15:45.916Z</time>
      </trkpt>
      <trkpt lat="48.08648" lon="11.02386">
        <ele>598.112741</ele>
        <time>2022-09-13T14:15:52.864Z</time>
      </trkpt>
      <trkpt lat="48.08651" lon="11.02385">
        <ele>598.16606</ele>
        <time>2022-09-13T14:15:53.692Z</time>
      </trkpt>
      <trkpt lat="48.08668" lon="11.02377">
        <ele>598.596667</ele>
        <time>2022-09-13T14:16:00.793Z</time>
      </trkpt>
      <trkpt lat="48.08685" lon="11.02366">
        <ele>599.015533</ele>
        <time>2022-09-13T14:16:07.296Z</time>
      </trkpt>
      <trkpt lat="48.08695" lon="11.02351">
        <ele>599.354807</ele>
        <time>2022-09-13T14:16:12.644Z</time>
      </trkpt>
      <trkpt lat="48.08696" lon="11.02294">
        <ele>600.236316</ele>
        <time>2022-09-13T14:16:26.539Z</time>
      </trkpt>
      <trkpt lat="48.08715" lon="11.02223">
        <ele>601.421757</ele>
        <time>2022-09-13T14:16:46.864Z</time>
      </trkpt>
      <trkpt lat="48.08707" lon="11.02224">
        <ele>601.60394</ele>
        <time>2022-09-13T14:16:49.947Z</time>
      </trkpt>
      <trkpt lat="48.08699" lon="11.02225">
        <ele>601.790555</ele>
        <time>2022-09-13T14:16:53.174Z</time>
      </trkpt>
      <trkpt lat="48.08657" lon="11.02232">
        <ele>602.32332</ele>
        <time>2022-09-13T14:17:08.792Z</time>
      </trkpt>
      <trkpt lat="48.08657" lon="11.02227">
        <ele>602.361867</ele>
        <time>2022-09-13T14:17:10.140Z</time>
      </trkpt>
      <trkpt lat="48.08653" lon="11.02181">
        <ele>602.691551</ele>
        <time>2022-09-13T14:17:20.272Z</time>
      </trkpt>
      <trkpt lat="48.08653" lon="11.02143">
        <ele>602.963285</ele>
        <time>2022-09-13T14:17:28.286Z</time>
      </trkpt>
      <trkpt lat="48.08654" lon="11.02132">
        <ele>603.03799</ele>
        <time>2022-09-13T14:17:30.291Z</time>
      </trkpt>
      <trkpt lat="48.08654" lon="11.02129">
        <ele>603.060213</ele>
        <time>2022-09-13T14:17:30.926Z</time>
      </trkpt>
      <trkpt lat="48.08655" lon="11.02117">
        <ele>603.1463</ele>
        <time>2022-09-13T14:17:33.439Z</time>
      </trkpt>
      <trkpt lat="48.08656" lon="11.02109">
        <ele>603.206499</ele>
        <time>2022-09-13T14:17:35.186Z</time>
      </trkpt>
      <trkpt lat="48.08657" lon="11.02099">
        <ele>603.276835</ele>
        <time>2022-09-13T14:17:37.100Z</time>
      </trkpt>
      <trkpt lat="48.08658" lon="11.02088">
        <ele>603.353643</ele>
        <time>2022-09-13T14:17:38.993Z</time>
      </trkpt>
      <trkpt lat="48.08662" lon="11.02048">
        <ele>603.643405</ele>
        <time>2022-09-13T14:17:46.709Z</time>
      </trkpt>
      <trkpt lat="48.08666" lon="11.02013">
        <ele>603.863103</ele>
        <time>2022-09-13T14:17:53.099Z</time>
      </trkpt>
      <trkpt lat="48.0867" lon="11.01974">
        <ele>603.838691</ele>
        <time>2022-09-13T14:18:00.482Z</time>
      </trkpt>
      <trkpt lat="48.08625" lon="11.01604">
        <ele>605.021553</ele>
        <time>2022-09-13T14:19:05.395Z</time>
      </trkpt>
      <trkpt lat="48.0862" lon="11.01546">
        <ele>605.53636</ele>
        <time>2022-09-13T14:19:18.886Z</time>
      </trkpt>
      <trkpt lat="48.08616" lon="11.01497">
        <ele>605.965218</ele>
        <time>2022-09-13T14:19:32.271Z</time>
      </trkpt>
      <trkpt lat="48.0861" lon="11.01418">
        <ele>609.581972</ele>
        <time>2022-09-13T14:19:59.292Z</time>
      </trkpt>
      <trkpt lat="48.08604" lon="11.01359">
        <ele>612.653279</ele>
        <time>2022-09-13T14:20:23.275Z</time>
      </trkpt>
      <trkpt lat="48.08596" lon="11.01274">
        <ele>617.052954</ele>
        <time>2022-09-13T14:21:02.765Z</time>
      </trkpt>
      <trkpt lat="48.08595" lon="11.01268">
        <ele>617.373961</ele>
        <time>2022-09-13T14:21:06.083Z</time>
      </trkpt>
      <trkpt lat="48.08467" lon="11.01003">
        <ele>639.666665</ele>
        <time>2022-09-13T14:24:02.874Z</time>
      </trkpt>
      <trkpt lat="48.08442" lon="11.00965">
        <ele>641.788829</ele>
        <time>2022-09-13T14:24:26.790Z</time>
      </trkpt>
      <trkpt lat="48.08433" lon="11.00951">
        <ele>642.571737</ele>
        <time>2022-09-13T14:24:34.829Z</time>
      </trkpt>
      <trkpt lat="48.08402" lon="11.00866">
        <ele>646.43679</ele>
        <time>2022-09-13T14:25:12.050Z</time>
      </trkpt>
      <trkpt lat="48.08368" lon="11.00807">
        <ele>649.599769</ele>
        <time>2022-09-13T14:25:35.817Z</time>
      </trkpt>
      <trkpt lat="48.08341" lon="11.00738">
        <ele>649.480023</ele>
        <time>2022-09-13T14:25:52.317Z</time>
      </trkpt>
      <trkpt lat="48.08316" lon="11.00621">
        <ele>648.342451</ele>
        <time>2022-09-13T14:26:10.030Z</time>
      </trkpt>
      <trkpt lat="48.08314" lon="11.00368">
        <ele>642.273436</ele>
        <time>2022-09-13T14:26:41.625Z</time>
      </trkpt>
      <trkpt lat="48.08361" lon="11.00232">
        <ele>637.444258</ele>
        <time>2022-09-13T14:26:59.914Z</time>
      </trkpt>
      <trkpt lat="48.08384" lon="11.00149">
        <ele>634.538804</ele>
        <time>2022-09-13T14:27:10.844Z</time>
      </trkpt>
      <trkpt lat="48.08384" lon="11.0014">
        <ele>634.239769</ele>
        <time>2022-09-13T14:27:12.893Z</time>
      </trkpt>
      <trkpt lat="48.08369" lon="11.00025">
        <ele>630.465633</ele>
        <time>2022-09-13T14:27:39.003Z</time>
      </trkpt>
      <trkpt lat="48.08339" lon="10.99971">
        <ele>628.569259</ele>
        <time>2022-09-13T14:27:54.787Z</time>
      </trkpt>
      <trkpt lat="48.08306" lon="10.99892">
        <ele>626.089421</ele>
        <time>2022-09-13T14:28:15.784Z</time>
      </trkpt>
      <trkpt lat="48.08297" lon="10.99858">
        <ele>625.100212</ele>
        <time>2022-09-13T14:28:24.460Z</time>
      </trkpt>
      <trkpt lat="48.08301" lon="10.99814">
        <ele>623.913403</ele>
        <time>2022-09-13T14:28:34.960Z</time>
      </trkpt>
      <trkpt lat="48.08362" lon="10.99494">
        <ele>617.078391</ele>
        <time>2022-09-13T14:29:53.134Z</time>
      </trkpt>
      <trkpt lat="48.08366" lon="10.99409">
        <ele>616.176269</ele>
        <time>2022-09-13T14:30:14.125Z</time>
      </trkpt>
      <trkpt lat="48.08277" lon="10.99049">
        <ele>615.552342</ele>
        <time>2022-09-13T14:32:03.360Z</time>
      </trkpt>
      <trkpt lat="48.08207" lon="10.98705">
        <ele>625.484242</ele>
        <time>2022-09-13T14:34:46.724Z</time>
      </trkpt>
      <trkpt lat="48.08183" lon="10.98658">
        <ele>627.129591</ele>
        <time>2022-09-13T14:35:13.985Z</time>
      </trkpt>
      <trkpt lat="48.08182" lon="10.98612">
        <ele>628.418722</ele>
        <time>2022-09-13T14:35:34.514Z</time>
      </trkpt>
      <trkpt lat="48.08201" lon="10.98561">
        <ele>630.027326</ele>
        <time>2022-09-13T14:35:58.712Z</time>
      </trkpt>
      <trkpt lat="48.08218" lon="10.98463">
        <ele>631.722956</ele>
        <time>2022-09-13T14:36:37.880Z</time>
      </trkpt>
      <trkpt lat="48.08231" lon="10.98434">
        <ele>632.026167</ele>
        <time>2022-09-13T14:36:50.065Z</time>
      </trkpt>
      <trkpt lat="48.08263" lon="10.9839">
        <ele>632.591842</ele>
        <time>2022-09-13T14:37:11.575Z</time>
      </trkpt>
      <trkpt lat="48.08291" lon="10.98327">
        <ele>633.255528</ele>
        <time>2022-09-13T14:37:35.669Z</time>
      </trkpt>
      <trkpt lat="48.08296" lon="10.9828">
        <ele>633.496067</ele>
        <time>2022-09-13T14:37:50.011Z</time>
      </trkpt>
      <trkpt lat="48.08308" lon="10.98157">
        <ele>632.925028</ele>
        <time>2022-09-13T14:38:25.466Z</time>
      </trkpt>
      <trkpt lat="48.08324" lon="10.98083">
        <ele>632.565641</ele>
        <time>2022-09-13T14:38:46.999Z</time>
      </trkpt>
      <trkpt lat="48.08338" lon="10.97906">
        <ele>630.381227</ele>
        <time>2022-09-13T14:39:32.755Z</time>
      </trkpt>
      <trkpt lat="48.08336" lon="10.9781">
        <ele>628.8715</ele>
        <time>2022-09-13T14:39:56.231Z</time>
      </trkpt>
      <trkpt lat="48.08286" lon="10.97551">
        <ele>623.319163</ele>
        <time>2022-09-13T14:40:59.818Z</time>
      </trkpt>
      <trkpt lat="48.0824" lon="10.97401">
        <ele>619.831532</ele>
        <time>2022-09-13T14:41:38.543Z</time>
      </trkpt>
      <trkpt lat="48.08232" lon="10.97361">
        <ele>618.964775</ele>
        <time>2022-09-13T14:41:48.289Z</time>
      </trkpt>
      <trkpt lat="48.08221" lon="10.97164">
        <ele>615.826957</ele>
        <time>2022-09-13T14:42:36.109Z</time>
      </trkpt>
      <trkpt lat="48.08215" lon="10.97128">
        <ele>615.477784</ele>
        <time>2022-09-13T14:42:45.368Z</time>
      </trkpt>
      <trkpt lat="48.08202" lon="10.97098">
        <ele>615.137561</ele>
        <time>2022-09-13T14:42:54.800Z</time>
      </trkpt>
      <trkpt lat="48.08199" lon="10.97091">
        <ele>615.056226</ele>
        <time>2022-09-13T14:42:56.096Z</time>
      </trkpt>
      <trkpt lat="48.08197" lon="10.97084">
        <ele>614.991017</ele>
        <time>2022-09-13T14:42:57.149Z</time>
      </trkpt>
      <trkpt lat="48.08196" lon="10.97077">
        <ele>614.92129</ele>
        <time>2022-09-13T14:42:58.329Z</time>
      </trkpt>
      <trkpt lat="48.08192" lon="10.97057">
        <ele>614.721081</ele>
        <time>2022-09-13T14:43:01.758Z</time>
      </trkpt>
      <trkpt lat="48.08191" lon="10.97041">
        <ele>614.57394</ele>
        <time>2022-09-13T14:43:04.331Z</time>
      </trkpt>
      <trkpt lat="48.08189" lon="10.96995">
        <ele>614.135353</ele>
        <time>2022-09-13T14:43:12.633Z</time>
      </trkpt>
      <trkpt lat="48.08187" lon="10.96949">
        <ele>614.395216</ele>
        <time>2022-09-13T14:43:21.382Z</time>
      </trkpt>
      <trkpt lat="48.08186" lon="10.96935">
        <ele>614.496429</ele>
        <time>2022-09-13T14:43:24.252Z</time>
      </trkpt>
      <trkpt lat="48.08185" lon="10.96925">
        <ele>614.566243</ele>
        <time>2022-09-13T14:43:26.232Z</time>
      </trkpt>
      <trkpt lat="48.08182" lon="10.96876">
        <ele>614.908779</ele>
        <time>2022-09-13T14:43:36.902Z</time>
      </trkpt>
      <trkpt lat="48.08182" lon="10.96871">
        <ele>614.943743</ele>
        <time>2022-09-13T14:43:38.036Z</time>
      </trkpt>
      <trkpt lat="48.0818" lon="10.96844">
        <ele>615.132145</ele>
        <time>2022-09-13T14:43:44.331Z</time>
      </trkpt>
      <trkpt lat="48.08175" lon="10.96808">
        <ele>615.38227</ele>
        <time>2022-09-13T14:43:52.758Z</time>
      </trkpt>
      <trkpt lat="48.08174" lon="10.96778">
        <ele>615.591357</ele>
        <time>2022-09-13T14:43:59.932Z</time>
      </trkpt>
      <trkpt lat="48.08178" lon="10.96737">
        <ele>615.882749</ele>
        <time>2022-09-13T14:44:09.758Z</time>
      </trkpt>
      <trkpt lat="48.08179" lon="10.96723">
        <ele>615.975897</ele>
        <time>2022-09-13T14:44:12.806Z</time>
      </trkpt>
      <trkpt lat="48.08181" lon="10.96708">
        <ele>616.083168</ele>
        <time>2022-09-13T14:44:16.238Z</time>
      </trkpt>
      <trkpt lat="48.08183" lon="10.96662">
        <ele>616.398032</ele>
        <time>2022-09-13T14:44:26.404Z</time>
      </trkpt>
      <trkpt lat="48.08184" lon="10.96643">
        <ele>616.535697</ele>
        <time>2022-09-13T14:44:30.740Z</time>
      </trkpt>
      <trkpt lat="48.08185" lon="10.96627">
        <ele>616.643082</ele>
        <time>2022-09-13T14:44:34.249Z</time>
      </trkpt>
      <trkpt lat="48.08183" lon="10.96569">
        <ele>617.042935</ele>
        <time>2022-09-13T14:44:45.813Z</time>
      </trkpt>
      <trkpt lat="48.08154" lon="10.96467">
        <ele>617.812585</ele>
        <time>2022-09-13T14:45:08.803Z</time>
      </trkpt>
      <trkpt lat="48.08146" lon="10.96448">
        <ele>618.12647</ele>
        <time>2022-09-13T14:45:13.267Z</time>
      </trkpt>
      <trkpt lat="48.08114" lon="10.96409">
        <ele>619.060679</ele>
        <time>2022-09-13T14:45:26.642Z</time>
      </trkpt>
      <trkpt lat="48.07944" lon="10.96235">
        <ele>624.389683</ele>
        <time>2022-09-13T14:46:49.929Z</time>
      </trkpt>
      <trkpt lat="48.07904" lon="10.96156">
        <ele>626.451278</ele>
        <time>2022-09-13T14:47:19.165Z</time>
      </trkpt>
      <trkpt lat="48.07889" lon="10.96107">
        <ele>627.516127</ele>
        <time>2022-09-13T14:47:34.148Z</time>
      </trkpt>
      <trkpt lat="48.07879" lon="10.96008">
        <ele>628.425317</ele>
        <time>2022-09-13T14:48:00.712Z</time>
      </trkpt>
      <trkpt lat="48.07878" lon="10.95946">
        <ele>628.988124</ele>
        <time>2022-09-13T14:48:15.126Z</time>
      </trkpt>
      <trkpt lat="48.07867" lon="10.95809">
        <ele>629.490572</ele>
        <time>2022-09-13T14:48:39.225Z</time>
      </trkpt>
      <trkpt lat="48.07858" lon="10.95771">
        <ele>628.98684</ele>
        <time>2022-09-13T14:48:44.955Z</time>
      </trkpt>
      <trkpt lat="48.07796" lon="10.95564">
        <ele>626.321414</ele>
        <time>2022-09-13T14:49:15.838Z</time>
      </trkpt>
      <trkpt lat="48.07772" lon="10.95425">
        <ele>625.313144</ele>
        <time>2022-09-13T14:49:38.223Z</time>
      </trkpt>
      <trkpt lat="48.07759" lon="10.95377">
        <ele>624.950765</ele>
        <time>2022-09-13T14:49:46.617Z</time>
      </trkpt>
      <trkpt lat="48.07749" lon="10.95344">
        <ele>624.700345</ele>
        <time>2022-09-13T14:49:52.559Z</time>
      </trkpt>
      <trkpt lat="48.0772" lon="10.953">
        <ele>623.989023</ele>
        <time>2022-09-13T14:50:03.629Z</time>
      </trkpt>
      <trkpt lat="48.07664" lon="10.95249">
        <ele>622.830548</ele>
        <time>2022-09-13T14:50:19.620Z</time>
      </trkpt>
      <trkpt lat="48.07566" lon="10.95133">
        <ele>619.091809</ele>
        <time>2022-09-13T14:50:43.863Z</time>
      </trkpt>
      <trkpt lat="48.07545" lon="10.95085">
        <ele>617.253343</ele>
        <time>2022-09-13T14:50:50.664Z</time>
      </trkpt>
      <trkpt lat="48.07502" lon="10.9494">
        <ele>612.290786</ele>
        <time>2022-09-13T14:51:09.413Z</time>
      </trkpt>
      <trkpt lat="48.07477" lon="10.94744">
        <ele>607.317258</ele>
        <time>2022-09-13T14:51:34.376Z</time>
      </trkpt>
      <trkpt lat="48.0745" lon="10.94537">
        <ele>605.297053</ele>
        <time>2022-09-13T14:52:06.937Z</time>
      </trkpt>
      <trkpt lat="48.07399" lon="10.94116">
        <ele>604.523358</ele>
        <time>2022-09-13T14:53:22.544Z</time>
      </trkpt>
      <trkpt lat="48.07366" lon="10.93554">
        <ele>603.746922</ele>
        <time>2022-09-13T14:54:58.483Z</time>
      </trkpt>
      <trkpt lat="48.07339" lon="10.9324">
        <ele>604.422205</ele>
        <time>2022-09-13T14:56:00.438Z</time>
      </trkpt>
      <trkpt lat="48.07333" lon="10.93171">
        <ele>604.700938</ele>
        <time>2022-09-13T14:56:15.120Z</time>
      </trkpt>
      <trkpt lat="48.0731" lon="10.93158">
        <ele>604.851358</ele>
        <time>2022-09-13T14:56:23.076Z</time>
      </trkpt>
      <trkpt lat="48.07287" lon="10.93149">
        <ele>604.989294</ele>
        <time>2022-09-13T14:56:30.390Z</time>
      </trkpt>
      <trkpt lat="48.07279" lon="10.93121">
        <ele>605.329138</ele>
        <time>2022-09-13T14:56:36.637Z</time>
      </trkpt>
      <trkpt lat="48.07276" lon="10.93112">
        <ele>605.457591</ele>
        <time>2022-09-13T14:56:38.722Z</time>
      </trkpt>
      <trkpt lat="48.0727" lon="10.9309">
        <ele>605.761549</ele>
        <time>2022-09-13T14:56:43.669Z</time>
      </trkpt>
      <trkpt lat="48.07261" lon="10.93058">
        <ele>606.192803</ele>
        <time>2022-09-13T14:56:50.977Z</time>
      </trkpt>
      <trkpt lat="48.07251" lon="10.93023">
        <ele>606.674158</ele>
        <time>2022-09-13T14:56:59.370Z</time>
      </trkpt>
      <trkpt lat="48.07244" lon="10.92985">
        <ele>607.169869</ele>
        <time>2022-09-13T14:57:08.544Z</time>
      </trkpt>
      <trkpt lat="48.07243" lon="10.92982">
        <ele>607.203835</ele>
        <time>2022-09-13T14:57:09.184Z</time>
      </trkpt>
      <trkpt lat="48.07241" lon="10.92974">
        <ele>607.317633</ele>
        <time>2022-09-13T14:57:11.361Z</time>
      </trkpt>
      <trkpt lat="48.07236" lon="10.92946">
        <ele>607.675749</ele>
        <time>2022-09-13T14:57:18.516Z</time>
      </trkpt>
      <trkpt lat="48.07234" lon="10.92933">
        <ele>607.849723</ele>
        <time>2022-09-13T14:57:22.118Z</time>
      </trkpt>
      <trkpt lat="48.0723" lon="10.92916">
        <ele>608.071973</ele>
        <time>2022-09-13T14:57:26.961Z</time>
      </trkpt>
      <trkpt lat="48.07229" lon="10.92908">
        <ele>608.17508</ele>
        <time>2022-09-13T14:57:29.230Z</time>
      </trkpt>
      <trkpt lat="48.07228" lon="10.92905">
        <ele>608.213193</ele>
        <time>2022-09-13T14:57:30.100Z</time>
      </trkpt>
      <trkpt lat="48.07221" lon="10.92872">
        <ele>609.000037</ele>
        <time>2022-09-13T14:57:40.336Z</time>
      </trkpt>
      <trkpt lat="48.07213" lon="10.92831">
        <ele>610.241888</ele>
        <time>2022-09-13T14:57:53.678Z</time>
      </trkpt>
      <trkpt lat="48.07207" lon="10.92805">
        <ele>611.061517</ele>
        <time>2022-09-13T14:58:02.839Z</time>
      </trkpt>
      <trkpt lat="48.07192" lon="10.92737">
        <ele>613.157017</ele>
        <time>2022-09-13T14:58:26.637Z</time>
      </trkpt>
      <trkpt lat="48.0719" lon="10.92729">
        <ele>613.388615</ele>
        <time>2022-09-13T14:58:29.259Z</time>
      </trkpt>
      <trkpt lat="48.07184" lon="10.92696">
        <ele>614.40566</ele>
        <time>2022-09-13T14:58:41.013Z</time>
      </trkpt>
      <trkpt lat="48.07183" lon="10.92689">
        <ele>614.612491</ele>
        <time>2022-09-13T14:58:43.389Z</time>
      </trkpt>
      <trkpt lat="48.07182" lon="10.92686">
        <ele>614.702908</ele>
        <time>2022-09-13T14:58:44.442Z</time>
      </trkpt>
      <trkpt lat="48.07176" lon="10.92654">
        <ele>615.666384</ele>
        <time>2022-09-13T14:58:55.532Z</time>
      </trkpt>
      <trkpt lat="48.07174" lon="10.92643">
        <ele>616.003741</ele>
        <time>2022-09-13T14:58:59.303Z</time>
      </trkpt>
      <trkpt lat="48.07168" lon="10.92604">
        <ele>616.821997</ele>
        <time>2022-09-13T14:59:12.274Z</time>
      </trkpt>
      <trkpt lat="48.07167" lon="10.92593">
        <ele>617.040774</ele>
        <time>2022-09-13T14:59:16.037Z</time>
      </trkpt>
      <trkpt lat="48.07161" lon="10.92558">
        <ele>617.696508</ele>
        <time>2022-09-13T14:59:27.279Z</time>
      </trkpt>
      <trkpt lat="48.07149" lon="10.92475">
        <ele>619.241011</ele>
        <time>2022-09-13T14:59:51.405Z</time>
      </trkpt>
      <trkpt lat="48.07148" lon="10.92469">
        <ele>619.353372</ele>
        <time>2022-09-13T14:59:53.028Z</time>
      </trkpt>
      <trkpt lat="48.07142" lon="10.92436">
        <ele>619.983247</ele>
        <time>2022-09-13T15:00:01.633Z</time>
      </trkpt>
      <trkpt lat="48.07152" lon="10.92427">
        <ele>620.303282</ele>
        <time>2022-09-13T15:00:05.536Z</time>
      </trkpt>
      <trkpt lat="48.07147" lon="10.92403">
        <ele>620.771201</ele>
        <time>2022-09-13T15:00:10.929Z</time>
      </trkpt>
      <trkpt lat="48.07126" lon="10.92397">
        <ele>621.127843</ele>
        <time>2022-09-13T15:00:16.723Z</time>
      </trkpt>
      <trkpt lat="48.07091" lon="10.92368">
        <ele>620.794516</ele>
        <time>2022-09-13T15:00:26.727Z</time>
      </trkpt>
      <trkpt lat="48.069" lon="10.92184">
        <ele>618.513016</ele>
        <time>2022-09-13T15:01:17.808Z</time>
      </trkpt>
      <trkpt lat="48.06855" lon="10.9214">
        <ele>617.83875</ele>
        <time>2022-09-13T15:01:29.644Z</time>
      </trkpt>
      <trkpt lat="48.06682" lon="10.91952">
        <ele>616.173496</ele>
        <time>2022-09-13T15:02:19.131Z</time>
      </trkpt>
      <trkpt lat="48.06527" lon="10.91824">
        <ele>618.560065</ele>
        <time>2022-09-13T15:03:19.189Z</time>
      </trkpt>
      <trkpt lat="48.06484" lon="10.91769">
        <ele>619.939811</ele>
        <time>2022-09-13T15:03:41.941Z</time>
      </trkpt>
      <trkpt lat="48.06351" lon="10.91565">
        <ele>624.198154</ele>
        <time>2022-09-13T15:04:55.879Z</time>
      </trkpt>
      <trkpt lat="48.06227" lon="10.91419">
        <ele>626.626018</ele>
        <time>2022-09-13T15:05:49.343Z</time>
      </trkpt>
      <trkpt lat="48.05958" lon="10.91086">
        <ele>628.304747</ele>
        <time>2022-09-13T15:07:29.782Z</time>
      </trkpt>
      <trkpt lat="48.05789" lon="10.90869">
        <ele>627.758633</ele>
        <time>2022-09-13T15:08:25.719Z</time>
      </trkpt>
      <trkpt lat="48.05753" lon="10.90794">
        <ele>627.556282</ele>
        <time>2022-09-13T15:08:41.194Z</time>
      </trkpt>
      <trkpt lat="48.05704" lon="10.90725">
        <ele>627.426314</ele>
        <time>2022-09-13T15:08:58.489Z</time>
      </trkpt>
      <trkpt lat="48.05688" lon="10.90715">
        <ele>627.432589</ele>
        <time>2022-09-13T15:09:02.956Z</time>
      </trkpt>
      <trkpt lat="48.05558" lon="10.90525">
        <ele>627.628547</ele>
        <time>2022-09-13T15:09:52.686Z</time>
      </trkpt>
      <trkpt lat="48.05515" lon="10.90458">
        <ele>627.834914</ele>
        <time>2022-09-13T15:10:11.131Z</time>
      </trkpt>
      <trkpt lat="48.05497" lon="10.90449">
        <ele>627.896509</ele>
        <time>2022-09-13T15:10:16.403Z</time>
      </trkpt>
      <trkpt lat="48.0549" lon="10.90446">
        <ele>627.919262</ele>
        <time>2022-09-13T15:10:18.393Z</time>
      </trkpt>
      <trkpt lat="48.05478" lon="10.90436">
        <ele>627.965461</ele>
        <time>2022-09-13T15:10:22.306Z</time>
      </trkpt>
      <trkpt lat="48.05475" lon="10.90421">
        <ele>627.999985</ele>
        <time>2022-09-13T15:10:25.226Z</time>
      </trkpt>
      <trkpt lat="48.05474" lon="10.90411">
        <ele>628.022644</ele>
        <time>2022-09-13T15:10:27.098Z</time>
      </trkpt>
      <trkpt lat="48.05467" lon="10.90397">
        <ele>628.060623</ele>
        <time>2022-09-13T15:10:30.387Z</time>
      </trkpt>
      <trkpt lat="48.05454" lon="10.90375">
        <ele>628.065409</ele>
        <time>2022-09-13T15:10:35.604Z</time>
      </trkpt>
      <trkpt lat="48.05449" lon="10.90347">
        <ele>628.050435</ele>
        <time>2022-09-13T15:10:40.817Z</time>
      </trkpt>
      <trkpt lat="48.05367" lon="10.90181">
        <ele>627.941853</ele>
        <time>2022-09-13T15:11:17.135Z</time>
      </trkpt>
      <trkpt lat="48.05301" lon="10.89987">
        <ele>627.803649</ele>
        <time>2022-09-13T15:11:53.856Z</time>
      </trkpt>
      <trkpt lat="48.05289" lon="10.89937">
        <ele>627.769943</ele>
        <time>2022-09-13T15:12:03.533Z</time>
      </trkpt>
      <trkpt lat="48.05277" lon="10.8991">
        <ele>627.928291</ele>
        <time>2022-09-13T15:12:09.864Z</time>
      </trkpt>
      <trkpt lat="48.0526" lon="10.89787">
        <ele>628.846208</ele>
        <time>2022-09-13T15:12:35.585Z</time>
      </trkpt>
      <trkpt lat="48.05253" lon="10.89774">
        <ele>628.96748</ele>
        <time>2022-09-13T15:12:39.212Z</time>
      </trkpt>
      <trkpt lat="48.05239" lon="10.89694">
        <ele>629.57779</ele>
        <time>2022-09-13T15:12:58.167Z</time>
      </trkpt>
      <trkpt lat="48.05176" lon="10.8944">
        <ele>632.559623</ele>
        <time>2022-09-13T15:14:03.265Z</time>
      </trkpt>
      <trkpt lat="48.05172" lon="10.89423">
        <ele>632.769989</ele>
        <time>2022-09-13T15:14:07.278Z</time>
      </trkpt>
      <trkpt lat="48.05137" lon="10.89291">
        <ele>633.068076</ele>
        <time>2022-09-13T15:14:35.302Z</time>
      </trkpt>
      <trkpt lat="48.05136" lon="10.89283">
        <ele>633.086558</ele>
        <time>2022-09-13T15:14:36.918Z</time>
      </trkpt>
      <trkpt lat="48.0514" lon="10.89278">
        <ele>633.103288</ele>
        <time>2022-09-13T15:14:38.349Z</time>
      </trkpt>
      <trkpt lat="48.05134" lon="10.89261">
        <ele>633.143349</ele>
        <time>2022-09-13T15:14:41.785Z</time>
      </trkpt>
      <trkpt lat="48.05128" lon="10.8924">
        <ele>633.189506</ele>
        <time>2022-09-13T15:14:45.881Z</time>
      </trkpt>
      <trkpt lat="48.05126" lon="10.89236">
        <ele>633.200675</ele>
        <time>2022-09-13T15:14:46.812Z</time>
      </trkpt>
      <trkpt lat="48.05125" lon="10.89231">
        <ele>633.210975</ele>
        <time>2022-09-13T15:14:47.655Z</time>
      </trkpt>
      <trkpt lat="48.0511" lon="10.89191">
        <ele>633.30563</ele>
        <time>2022-09-13T15:14:55.258Z</time>
      </trkpt>
      <trkpt lat="48.05105" lon="10.89178">
        <ele>633.330493</ele>
        <time>2022-09-13T15:14:57.519Z</time>
      </trkpt>
      <trkpt lat="48.051" lon="10.89166">
        <ele>633.313219</ele>
        <time>2022-09-13T15:14:59.834Z</time>
      </trkpt>
      <trkpt lat="48.05082" lon="10.89117">
        <ele>633.245257</ele>
        <time>2022-09-13T15:15:08.992Z</time>
      </trkpt>
      <trkpt lat="48.05055" lon="10.89046">
        <ele>633.147167</ele>
        <time>2022-09-13T15:15:22.481Z</time>
      </trkpt>
      <trkpt lat="48.05037" lon="10.88984">
        <ele>633.066334</ele>
        <time>2022-09-13T15:15:34.027Z</time>
      </trkpt>
      <trkpt lat="48.0501" lon="10.88835">
        <ele>633.720111</ele>
        <time>2022-09-13T15:16:05.092Z</time>
      </trkpt>
      <trkpt lat="48.04987" lon="10.88743">
        <ele>634.371645</ele>
        <time>2022-09-13T15:16:26.053Z</time>
      </trkpt>
      <trkpt lat="48.04982" lon="10.88724">
        <ele>634.510434</ele>
        <time>2022-09-13T15:16:30.716Z</time>
      </trkpt>
      <trkpt lat="48.0497" lon="10.88687">
        <ele>634.786511</ele>
        <time>2022-09-13T15:16:39.920Z</time>
      </trkpt>
      <trkpt lat="48.04968" lon="10.8868">
        <ele>634.8392</ele>
        <time>2022-09-13T15:16:41.586Z</time>
      </trkpt>
      <trkpt lat="48.0494" lon="10.88586">
        <ele>635.594403</ele>
        <time>2022-09-13T15:17:04.615Z</time>
      </trkpt>
      <trkpt lat="48.04931" lon="10.88553">
        <ele>635.857936</ele>
        <time>2022-09-13T15:17:12.472Z</time>
      </trkpt>
      <trkpt lat="48.04923" lon="10.8852">
        <ele>636.115737</ele>
        <time>2022-09-13T15:17:20.244Z</time>
      </trkpt>
      <trkpt lat="48.04915" lon="10.88491">
        <ele>636.348201</ele>
        <time>2022-09-13T15:17:27.054Z</time>
      </trkpt>
      <trkpt lat="48.04905" lon="10.88451">
        <ele>636.661959</ele>
        <time>2022-09-13T15:17:35.711Z</time>
      </trkpt>
      <trkpt lat="48.04904" lon="10.88446">
        <ele>636.698968</ele>
        <time>2022-09-13T15:17:36.775Z</time>
      </trkpt>
      <trkpt lat="48.04897" lon="10.88419">
        <ele>636.641141</ele>
        <time>2022-09-13T15:17:42.426Z</time>
      </trkpt>
      <trkpt lat="48.04897" lon="10.88416">
        <ele>636.612467</ele>
        <time>2022-09-13T15:17:43.071Z</time>
      </trkpt>
      <trkpt lat="48.04893" lon="10.88401">
        <ele>636.476361</ele>
        <time>2022-09-13T15:17:46.086Z</time>
      </trkpt>
      <trkpt lat="48.04889" lon="10.88382">
        <ele>636.305498</ele>
        <time>2022-09-13T15:17:49.829Z</time>
      </trkpt>
      <trkpt lat="48.04888" lon="10.88379">
        <ele>636.279645</ele>
        <time>2022-09-13T15:17:50.372Z</time>
      </trkpt>
      <trkpt lat="48.04885" lon="10.88365">
        <ele>636.153223</ele>
        <time>2022-09-13T15:17:52.863Z</time>
      </trkpt>
      <trkpt lat="48.04882" lon="10.88354">
        <ele>636.048412</ele>
        <time>2022-09-13T15:17:54.919Z</time>
      </trkpt>
      <trkpt lat="48.04869" lon="10.88301">
        <ele>635.57082</ele>
        <time>2022-09-13T15:18:03.867Z</time>
      </trkpt>
      <trkpt lat="48.04862" lon="10.88291">
        <ele>635.450536</ele>
        <time>2022-09-13T15:18:06.036Z</time>
      </trkpt>
      <trkpt lat="48.04875" lon="10.88277">
        <ele>635.253092</ele>
        <time>2022-09-13T15:18:09.390Z</time>
      </trkpt>
      <trkpt lat="48.04871" lon="10.88267">
        <ele>635.154499</ele>
        <time>2022-09-13T15:18:11.132Z</time>
      </trkpt>
      <trkpt lat="48.04865" lon="10.88246">
        <ele>634.953252</ele>
        <time>2022-09-13T15:18:14.624Z</time>
      </trkpt>
      <trkpt lat="48.04863" lon="10.8824">
        <ele>634.902949</ele>
        <time>2022-09-13T15:18:15.469Z</time>
      </trkpt>
      <trkpt lat="48.04863" lon="10.88235">
        <ele>634.858372</ele>
        <time>2022-09-13T15:18:16.205Z</time>
      </trkpt>
      <trkpt lat="48.04863" lon="10.88234">
        <ele>634.848918</ele>
        <time>2022-09-13T15:18:16.370Z</time>
      </trkpt>
      <trkpt lat="48.04862" lon="10.88227">
        <ele>634.78628</ele>
        <time>2022-09-13T15:18:17.404Z</time>
      </trkpt>
      <trkpt lat="48.04862" lon="10.88224">
        <ele>634.763146</ele>
        <time>2022-09-13T15:18:17.793Z</time>
      </trkpt>
      <trkpt lat="48.04861" lon="10.88219">
        <ele>634.72364</ele>
        <time>2022-09-13T15:18:18.447Z</time>
      </trkpt>
      <trkpt lat="48.04861" lon="10.88212">
        <ele>634.661146</ele>
        <time>2022-09-13T15:18:19.491Z</time>
      </trkpt>
      <trkpt lat="48.04859" lon="10.882">
        <ele>634.560525</ele>
        <time>2022-09-13T15:18:21.106Z</time>
      </trkpt>
      <trkpt lat="48.04858" lon="10.88176">
        <ele>633.819575</ele>
        <time>2022-09-13T15:18:24.433Z</time>
      </trkpt>
      <trkpt lat="48.04857" lon="10.88158">
        <ele>633.11033</ele>
        <time>2022-09-13T15:18:26.822Z</time>
      </trkpt>
      <trkpt lat="48.04855" lon="10.88148">
        <ele>632.700627</ele>
        <time>2022-09-13T15:18:28.169Z</time>
      </trkpt>
      <trkpt lat="48.04851" lon="10.88108">
        <ele>631.103081</ele>
        <time>2022-09-13T15:18:33.331Z</time>
      </trkpt>
      <trkpt lat="48.04848" lon="10.88078">
        <ele>629.920928</ele>
        <time>2022-09-13T15:18:37.090Z</time>
      </trkpt>
      <trkpt lat="48.04846" lon="10.8807">
        <ele>629.594804</ele>
        <time>2022-09-13T15:18:38.110Z</time>
      </trkpt>
      <trkpt lat="48.04844" lon="10.88052">
        <ele>628.888336</ele>
        <time>2022-09-13T15:18:40.321Z</time>
      </trkpt>
      <trkpt lat="48.04842" lon="10.88">
        <ele>626.825663</ele>
        <time>2022-09-13T15:18:46.629Z</time>
      </trkpt>
      <trkpt lat="48.04844" lon="10.87992">
        <ele>626.503191</ele>
        <time>2022-09-13T15:18:47.595Z</time>
      </trkpt>
      <trkpt lat="48.04851" lon="10.87967">
        <ele>625.427826</ele>
        <time>2022-09-13T15:18:50.821Z</time>
      </trkpt>
      <trkpt lat="48.04887" lon="10.87924">
        <ele>622.23028</ele>
        <time>2022-09-13T15:18:59.048Z</time>
      </trkpt>
      <trkpt lat="48.04909" lon="10.87899">
        <ele>619.960722</ele>
        <time>2022-09-13T15:19:03.960Z</time>
      </trkpt>
      <trkpt lat="48.04922" lon="10.87882">
        <ele>618.59796</ele>
        <time>2022-09-13T15:19:06.928Z</time>
      </trkpt>
      <trkpt lat="48.04927" lon="10.87874">
        <ele>617.985136</ele>
        <time>2022-09-13T15:19:08.231Z</time>
      </trkpt>
      <trkpt lat="48.04974" lon="10.87781">
        <ele>611.637645</ele>
        <time>2022-09-13T15:19:21.799Z</time>
      </trkpt>
      <trkpt lat="48.04953" lon="10.8778">
        <ele>609.970737</ele>
        <time>2022-09-13T15:19:25.383Z</time>
      </trkpt>
      <trkpt lat="48.04945" lon="10.87765">
        <ele>608.97816</ele>
        <time>2022-09-13T15:19:27.612Z</time>
      </trkpt>
      <trkpt lat="48.04958" lon="10.87758">
        <ele>608.130399</ele>
        <time>2022-09-13T15:19:29.876Z</time>
      </trkpt>
      <trkpt lat="48.04967" lon="10.87751">
        <ele>607.45448</ele>
        <time>2022-09-13T15:19:31.690Z</time>
      </trkpt>
      <trkpt lat="48.04968" lon="10.8775">
        <ele>607.433979</ele>
        <time>2022-09-13T15:19:31.748Z</time>
      </trkpt>
      <trkpt lat="48.04978" lon="10.87739">
        <ele>606.646641</ele>
        <time>2022-09-13T15:19:33.875Z</time>
      </trkpt>
      <trkpt lat="48.04981" lon="10.87723">
        <ele>605.945768</ele>
        <time>2022-09-13T15:19:35.840Z</time>
      </trkpt>
      <trkpt lat="48.04975" lon="10.87712">
        <ele>605.366998</ele>
        <time>2022-09-13T15:19:37.478Z</time>
      </trkpt>
      <trkpt lat="48.04927" lon="10.87669">
        <ele>601.828536</ele>
        <time>2022-09-13T15:19:47.626Z</time>
      </trkpt>
      <trkpt lat="48.04908" lon="10.8766">
        <ele>600.631199</ele>
        <time>2022-09-13T15:19:51.125Z</time>
      </trkpt>
      <trkpt lat="48.0487" lon="10.8765">
        <ele>598.191336</ele>
        <time>2022-09-13T15:19:58.030Z</time>
      </trkpt>
      <trkpt lat="48.04828" lon="10.87647">
        <ele>596.328166</ele>
        <time>2022-09-13T15:20:05.458Z</time>
      </trkpt>
      <trkpt lat="48.04809" lon="10.87646">
        <ele>595.49903</ele>
        <time>2022-09-13T15:20:09.042Z</time>
      </trkpt>
      <trkpt lat="48.04807" lon="10.87644">
        <ele>595.420914</ele>
        <time>2022-09-13T15:20:09.370Z</time>
      </trkpt>
      <trkpt lat="48.04805" lon="10.87642">
        <ele>595.316051</ele>
        <time>2022-09-13T15:20:09.795Z</time>
      </trkpt>
      <trkpt lat="48.04794" lon="10.87626">
        <ele>594.641721</ele>
        <time>2022-09-13T15:20:12.577Z</time>
      </trkpt>
      <trkpt lat="48.04782" lon="10.87609">
        <ele>593.93994</ele>
        <time>2022-09-13T15:20:15.758Z</time>
      </trkpt>
      <trkpt lat="48.0478" lon="10.87607">
        <ele>593.838586</ele>
        <time>2022-09-13T15:20:16.184Z</time>
      </trkpt>
      <trkpt lat="48.04775" lon="10.87596">
        <ele>593.466343</ele>
        <time>2022-09-13T15:20:17.743Z</time>
      </trkpt>
      <trkpt lat="48.04771" lon="10.87584">
        <ele>593.072091</ele>
        <time>2022-09-13T15:20:19.500Z</time>
      </trkpt>
      <trkpt lat="48.0477" lon="10.87582">
        <ele>593.009869</ele>
        <time>2022-09-13T15:20:19.779Z</time>
      </trkpt>
      <trkpt lat="48.04767" lon="10.87572">
        <ele>592.682975</ele>
        <time>2022-09-13T15:20:21.349Z</time>
      </trkpt>
      <trkpt lat="48.04726" lon="10.87429">
        <ele>589.639011</ele>
        <time>2022-09-13T15:20:42.537Z</time>
      </trkpt>
      <trkpt lat="48.04722" lon="10.87414">
        <ele>589.50181</ele>
        <time>2022-09-13T15:20:44.848Z</time>
      </trkpt>
      <trkpt lat="48.04717" lon="10.87399">
        <ele>589.35652</ele>
        <time>2022-09-13T15:20:47.212Z</time>
      </trkpt>
      <trkpt lat="48.0471" lon="10.87376">
        <ele>589.140943</ele>
        <time>2022-09-13T15:20:50.772Z</time>
      </trkpt>
      <trkpt lat="48.04699" lon="10.87341">
        <ele>588.812673</ele>
        <time>2022-09-13T15:20:56.730Z</time>
      </trkpt>
      <trkpt lat="48.04694" lon="10.87325">
        <ele>588.656116</ele>
        <time>2022-09-13T15:20:59.690Z</time>
      </trkpt>
      <trkpt lat="48.0469" lon="10.87312">
        <ele>588.529876</ele>
        <time>2022-09-13T15:21:02.242Z</time>
      </trkpt>
      <trkpt lat="48.04688" lon="10.87307">
        <ele>588.483622</ele>
        <time>2022-09-13T15:21:03.179Z</time>
      </trkpt>
      <trkpt lat="48.04677" lon="10.87273">
        <ele>588.163652</ele>
        <time>2022-09-13T15:21:10.102Z</time>
      </trkpt>
      <trkpt lat="48.04668" lon="10.87243">
        <ele>588.003365</ele>
        <time>2022-09-13T15:21:16.949Z</time>
      </trkpt>
      <trkpt lat="48.04659" lon="10.87215">
        <ele>588.324479</ele>
        <time>2022-09-13T15:21:23.689Z</time>
      </trkpt>
      <trkpt lat="48.04653" lon="10.87201">
        <ele>588.493002</ele>
        <time>2022-09-13T15:21:27.419Z</time>
      </trkpt>
      <trkpt lat="48.04643" lon="10.8718">
        <ele>588.772681</ele>
        <time>2022-09-13T15:21:33.524Z</time>
      </trkpt>
      <trkpt lat="48.04621" lon="10.87157">
        <ele>589.189418</ele>
        <time>2022-09-13T15:21:42.757Z</time>
      </trkpt>
      <trkpt lat="48.04583" lon="10.87132">
        <ele>589.837703</ele>
        <time>2022-09-13T15:21:57.255Z</time>
      </trkpt>
      <trkpt lat="48.04572" lon="10.87125">
        <ele>590.018841</ele>
        <time>2022-09-13T15:22:01.518Z</time>
      </trkpt>
      <trkpt lat="48.04564" lon="10.8712">
        <ele>590.162066</ele>
        <time>2022-09-13T15:22:04.845Z</time>
      </trkpt>
      <trkpt lat="48.04537" lon="10.87103">
        <ele>590.615112</ele>
        <time>2022-09-13T15:22:15.408Z</time>
      </trkpt>
      <trkpt lat="48.04535" lon="10.87102">
        <ele>590.650485</ele>
        <time>2022-09-13T15:22:16.206Z</time>
      </trkpt>
      <trkpt lat="48.04514" lon="10.87085">
        <ele>591.204947</ele>
        <time>2022-09-13T15:22:24.554Z</time>
      </trkpt>
      <trkpt lat="48.04496" lon="10.87067">
        <ele>591.782249</ele>
        <time>2022-09-13T15:22:32.637Z</time>
      </trkpt>
      <trkpt lat="48.04486" lon="10.87056">
        <ele>592.084295</ele>
        <time>2022-09-13T15:22:36.916Z</time>
      </trkpt>
      <trkpt lat="48.04459" lon="10.87022">
        <ele>593.01754</ele>
        <time>2022-09-13T15:22:50.701Z</time>
      </trkpt>
      <trkpt lat="48.0444" lon="10.86997">
        <ele>593.673763</ele>
        <time>2022-09-13T15:23:00.496Z</time>
      </trkpt>
      <trkpt lat="48.04406" lon="10.86945">
        <ele>594.94018</ele>
        <time>2022-09-13T15:23:20.143Z</time>
      </trkpt>
      <trkpt lat="48.04392" lon="10.86919">
        <ele>595.569162</ele>
        <time>2022-09-13T15:23:29.626Z</time>
      </trkpt>
      <trkpt lat="48.0439" lon="10.86915">
        <ele>595.677361</ele>
        <time>2022-09-13T15:23:30.969Z</time>
      </trkpt>
      <trkpt lat="48.04357" lon="10.86865">
        <ele>597.294207</ele>
        <time>2022-09-13T15:23:51.610Z</time>
      </trkpt>
      <trkpt lat="48.04318" lon="10.86815">
        <ele>599.069509</ele>
        <time>2022-09-13T15:24:15.650Z</time>
      </trkpt>
      <trkpt lat="48.04303" lon="10.86776">
        <ele>600.106611</ele>
        <time>2022-09-13T15:24:29.397Z</time>
      </trkpt>
      <trkpt lat="48.04292" lon="10.86744">
        <ele>600.938383</ele>
        <time>2022-09-13T15:24:39.889Z</time>
      </trkpt>
      <trkpt lat="48.04288" lon="10.86733">
        <ele>601.242155</ele>
        <time>2022-09-13T15:24:43.569Z</time>
      </trkpt>
      <trkpt lat="48.04284" lon="10.86721">
        <ele>601.556262</ele>
        <time>2022-09-13T15:24:47.239Z</time>
      </trkpt>
      <trkpt lat="48.04257" lon="10.8662">
        <ele>602.721202</ele>
        <time>2022-09-13T15:25:13.724Z</time>
      </trkpt>
      <trkpt lat="48.04246" lon="10.86569">
        <ele>603.265759</ele>
        <time>2022-09-13T15:25:25.636Z</time>
      </trkpt>
      <trkpt lat="48.04239" lon="10.86535">
        <ele>603.628765</ele>
        <time>2022-09-13T15:25:33.100Z</time>
      </trkpt>
      <trkpt lat="48.04234" lon="10.86513">
        <ele>603.866852</ele>
        <time>2022-09-13T15:25:38.112Z</time>
      </trkpt>
      <trkpt lat="48.04226" lon="10.86475">
        <ele>604.280265</ele>
        <time>2022-09-13T15:25:46.561Z</time>
      </trkpt>
      <trkpt lat="48.04218" lon="10.86455">
        <ele>604.4592</ele>
        <time>2022-09-13T15:25:51.168Z</time>
      </trkpt>
      <trkpt lat="48.04218" lon="10.86441">
        <ele>604.52836</ele>
        <time>2022-09-13T15:25:53.872Z</time>
      </trkpt>
      <trkpt lat="48.04225" lon="10.86385">
        <ele>604.801126</ele>
        <time>2022-09-13T15:26:04.431Z</time>
      </trkpt>
      <trkpt lat="48.04227" lon="10.86377">
        <ele>604.843767</ele>
        <time>2022-09-13T15:26:06.067Z</time>
      </trkpt>
      <trkpt lat="48.04231" lon="10.86361">
        <ele>604.92791</ele>
        <time>2022-09-13T15:26:09.343Z</time>
      </trkpt>
      <trkpt lat="48.04229" lon="10.86356">
        <ele>604.952845</ele>
        <time>2022-09-13T15:26:10.295Z</time>
      </trkpt>
      <trkpt lat="48.04228" lon="10.86346">
        <ele>605.002434</ele>
        <time>2022-09-13T15:26:12.167Z</time>
      </trkpt>
      <trkpt lat="48.04227" lon="10.86335">
        <ele>605.058599</ele>
        <time>2022-09-13T15:26:14.307Z</time>
      </trkpt>
      <trkpt lat="48.04244" lon="10.8633">
        <ele>605.188747</ele>
        <time>2022-09-13T15:26:19.461Z</time>
      </trkpt>
      <trkpt lat="48.0425" lon="10.86326">
        <ele>605.236645</ele>
        <time>2022-09-13T15:26:21.347Z</time>
      </trkpt>
      <trkpt lat="48.04245" lon="10.86314">
        <ele>605.30337</ele>
        <time>2022-09-13T15:26:24.022Z</time>
      </trkpt>
      <trkpt lat="48.0422" lon="10.86262">
        <ele>605.615426</ele>
        <time>2022-09-13T15:26:37.559Z</time>
      </trkpt>
      <trkpt lat="48.04213" lon="10.86248">
        <ele>605.69834</ele>
        <time>2022-09-13T15:26:41.521Z</time>
      </trkpt>
      <trkpt lat="48.04207" lon="10.86236">
        <ele>605.86064</ele>
        <time>2022-09-13T15:26:45.076Z</time>
      </trkpt>
      <trkpt lat="48.04206" lon="10.86234">
        <ele>605.886724</ele>
        <time>2022-09-13T15:26:45.578Z</time>
      </trkpt>
      <trkpt lat="48.0419" lon="10.86203">
        <ele>606.337623</ele>
        <time>2022-09-13T15:26:54.733Z</time>
      </trkpt>
      <trkpt lat="48.04175" lon="10.86172">
        <ele>606.784605</ele>
        <time>2022-09-13T15:27:03.982Z</time>
      </trkpt>
      <trkpt lat="48.04154" lon="10.86126">
        <ele>607.427214</ele>
        <time>2022-09-13T15:27:17.457Z</time>
      </trkpt>
      <trkpt lat="48.04139" lon="10.86069">
        <ele>608.149079</ele>
        <time>2022-09-13T15:27:32.418Z</time>
      </trkpt>
      <trkpt lat="48.04125" lon="10.86014">
        <ele>608.821998</ele>
        <time>2022-09-13T15:27:46.262Z</time>
      </trkpt>
      <trkpt lat="48.04119" lon="10.85992">
        <ele>608.966357</ele>
        <time>2022-09-13T15:27:51.747Z</time>
      </trkpt>
      <trkpt lat="48.04106" lon="10.85942">
        <ele>609.286787</ele>
        <time>2022-09-13T15:28:03.801Z</time>
      </trkpt>
      <trkpt lat="48.04099" lon="10.85916">
        <ele>609.455956</ele>
        <time>2022-09-13T15:28:09.774Z</time>
      </trkpt>
      <trkpt lat="48.04091" lon="10.85879">
        <ele>609.685734</ele>
        <time>2022-09-13T15:28:17.807Z</time>
      </trkpt>
      <trkpt lat="48.04075" lon="10.85834">
        <ele>609.989124</ele>
        <time>2022-09-13T15:28:27.842Z</time>
      </trkpt>
      <trkpt lat="48.04097" lon="10.85817">
        <ele>610.213333</ele>
        <time>2022-09-13T15:28:35.054Z</time>
      </trkpt>
      <trkpt lat="48.04124" lon="10.85805">
        <ele>610.428853</ele>
        <time>2022-09-13T15:28:42.767Z</time>
      </trkpt>
      <trkpt lat="48.04162" lon="10.85786">
        <ele>610.387301</ele>
        <time>2022-09-13T15:28:53.492Z</time>
      </trkpt>
      <trkpt lat="48.0418" lon="10.85777">
        <ele>610.366574</ele>
        <time>2022-09-13T15:28:58.796Z</time>
      </trkpt>
      <trkpt lat="48.04185" lon="10.85775">
        <ele>610.3617</ele>
        <time>2022-09-13T15:29:00.065Z</time>
      </trkpt>
      <trkpt lat="48.04209" lon="10.8576">
        <ele>610.334214</ele>
        <time>2022-09-13T15:29:07.180Z</time>
      </trkpt>
      <trkpt lat="48.04233" lon="10.85747">
        <ele>610.307348</ele>
        <time>2022-09-13T15:29:13.722Z</time>
      </trkpt>
      <trkpt lat="48.04247" lon="10.8574">
        <ele>610.29226</ele>
        <time>2022-09-13T15:29:17.220Z</time>
      </trkpt>
      <trkpt lat="48.04269" lon="10.85729">
        <ele>610.267468</ele>
        <time>2022-09-13T15:29:23.160Z</time>
      </trkpt>
      <trkpt lat="48.04304" lon="10.85711">
        <ele>610.217798</ele>
        <time>2022-09-13T15:29:32.392Z</time>
      </trkpt>
      <trkpt lat="48.04304" lon="10.85659">
        <ele>610.156297</ele>
        <time>2022-09-13T15:29:41.191Z</time>
      </trkpt>
      <trkpt lat="48.04303" lon="10.85574">
        <ele>610.05605</ele>
        <time>2022-09-13T15:29:56.220Z</time>
      </trkpt>
      <trkpt lat="48.04287" lon="10.85492">
        <ele>609.955219</ele>
        <time>2022-09-13T15:30:11.325Z</time>
      </trkpt>
      <trkpt lat="48.04284" lon="10.85462">
        <ele>609.92601</ele>
        <time>2022-09-13T15:30:16.469Z</time>
      </trkpt>
      <trkpt lat="48.04291" lon="10.85424">
        <ele>609.924911</ele>
        <time>2022-09-13T15:30:23.201Z</time>
      </trkpt>
      <trkpt lat="48.04298" lon="10.85359">
        <ele>609.923118</ele>
        <time>2022-09-13T15:30:34.722Z</time>
      </trkpt>
      <trkpt lat="48.04286" lon="10.8513">
        <ele>609.87569</ele>
        <time>2022-09-13T15:31:16.462Z</time>
      </trkpt>
      <trkpt lat="48.04285" lon="10.85015">
        <ele>609.805855</ele>
        <time>2022-09-13T15:31:36.097Z</time>
      </trkpt>
      <trkpt lat="48.04276" lon="10.84924">
        <ele>609.774574</ele>
        <time>2022-09-13T15:31:52.114Z</time>
      </trkpt>
      <trkpt lat="48.04278" lon="10.84843">
        <ele>609.946126</ele>
        <time>2022-09-13T15:32:06.589Z</time>
      </trkpt>
      <trkpt lat="48.04268" lon="10.84675">
        <ele>610.301203</ele>
        <time>2022-09-13T15:32:39.068Z</time>
      </trkpt>
      <trkpt lat="48.04252" lon="10.84597">
        <ele>610.777752</ele>
        <time>2022-09-13T15:32:55.593Z</time>
      </trkpt>
      <trkpt lat="48.04253" lon="10.84555">
        <ele>611.047864</ele>
        <time>2022-09-13T15:33:04.289Z</time>
      </trkpt>
      <trkpt lat="48.04242" lon="10.84465">
        <ele>611.633864</ele>
        <time>2022-09-13T15:33:23.685Z</time>
      </trkpt>
      <trkpt lat="48.0425" lon="10.84368">
        <ele>612.223665</ele>
        <time>2022-09-13T15:33:44.952Z</time>
      </trkpt>
      <trkpt lat="48.04245" lon="10.84287">
        <ele>612.659064</ele>
        <time>2022-09-13T15:34:02.944Z</time>
      </trkpt>
      <trkpt lat="48.04239" lon="10.84211">
        <ele>613.064924</ele>
        <time>2022-09-13T15:34:18.592Z</time>
      </trkpt>
      <trkpt lat="48.04237" lon="10.84195">
        <ele>613.149906</ele>
        <time>2022-09-13T15:34:21.730Z</time>
      </trkpt>
      <trkpt lat="48.04234" lon="10.8415">
        <ele>613.391926</ele>
        <time>2022-09-13T15:34:30.641Z</time>
      </trkpt>
      <trkpt lat="48.04229" lon="10.84122">
        <ele>613.442567</ele>
        <time>2022-09-13T15:34:36.005Z</time>
      </trkpt>
      <trkpt lat="48.04204" lon="10.84049">
        <ele>613.224202</ele>
        <time>2022-09-13T15:34:50.986Z</time>
      </trkpt>
      <trkpt lat="48.04198" lon="10.84028">
        <ele>613.163822</ele>
        <time>2022-09-13T15:34:54.921Z</time>
      </trkpt>
      <trkpt lat="48.04199" lon="10.84004">
        <ele>613.098938</ele>
        <time>2022-09-13T15:34:59.157Z</time>
      </trkpt>
      <trkpt lat="48.04225" lon="10.83901">
        <ele>612.805455</ele>
        <time>2022-09-13T15:35:17.520Z</time>
      </trkpt>
      <trkpt lat="48.04235" lon="10.83844">
        <ele>612.593288</ele>
        <time>2022-09-13T15:35:27.219Z</time>
      </trkpt>
      <trkpt lat="48.04238" lon="10.83693">
        <ele>611.993282</ele>
        <time>2022-09-13T15:35:52.398Z</time>
      </trkpt>
      <trkpt lat="48.04245" lon="10.83657">
        <ele>611.842867</ele>
        <time>2022-09-13T15:35:59.112Z</time>
      </trkpt>
      <trkpt lat="48.04248" lon="10.8361">
        <ele>611.684814</ele>
        <time>2022-09-13T15:36:07.589Z</time>
      </trkpt>
      <trkpt lat="48.04201" lon="10.83408">
        <ele>611.612015</ele>
        <time>2022-09-13T15:36:46.814Z</time>
      </trkpt>
      <trkpt lat="48.04184" lon="10.83269">
        <ele>611.743811</ele>
        <time>2022-09-13T15:37:14.045Z</time>
      </trkpt>
      <trkpt lat="48.04167" lon="10.8318">
        <ele>611.88866</ele>
        <time>2022-09-13T15:37:32.063Z</time>
      </trkpt>
      <trkpt lat="48.04154" lon="10.83136">
        <ele>611.965156</ele>
        <time>2022-09-13T15:37:41.676Z</time>
      </trkpt>
      <trkpt lat="48.04095" lon="10.82877">
        <ele>612.12519</ele>
        <time>2022-09-13T15:38:33.775Z</time>
      </trkpt>
      <trkpt lat="48.04047" lon="10.82673">
        <ele>611.626411</ele>
        <time>2022-09-13T15:39:09.988Z</time>
      </trkpt>
      <trkpt lat="48.04027" lon="10.82618">
        <ele>611.452679</ele>
        <time>2022-09-13T15:39:19.931Z</time>
      </trkpt>
      <trkpt lat="48.03974" lon="10.82385">
        <ele>611.081983</ele>
        <time>2022-09-13T15:40:01.241Z</time>
      </trkpt>
      <trkpt lat="48.03932" lon="10.82205">
        <ele>611.490205</ele>
        <time>2022-09-13T15:40:37.974Z</time>
      </trkpt>
      <trkpt lat="48.04027" lon="10.82168">
        <ele>611.879186</ele>
        <time>2022-09-13T15:41:07.582Z</time>
      </trkpt>
      <trkpt lat="48.04152" lon="10.82108">
        <ele>611.915137</ele>
        <time>2022-09-13T15:41:42.790Z</time>
      </trkpt>
      <trkpt lat="48.04245" lon="10.82076">
        <ele>611.537805</ele>
        <time>2022-09-13T15:42:06.491Z</time>
      </trkpt>
      <trkpt lat="48.04318" lon="10.82036">
        <ele>611.071177</ele>
        <time>2022-09-13T15:42:25.139Z</time>
      </trkpt>
      <trkpt lat="48.04312" lon="10.82025">
        <ele>611.018006</ele>
        <time>2022-09-13T15:42:27.175Z</time>
      </trkpt>
      <trkpt lat="48.04383" lon="10.81979">
        <ele>610.593469</ele>
        <time>2022-09-13T15:42:45.467Z</time>
      </trkpt>
      <trkpt lat="48.04386" lon="10.81992">
        <ele>610.543141</ele>
        <time>2022-09-13T15:42:47.868Z</time>
      </trkpt>
      <trkpt lat="48.0442" lon="10.81974">
        <ele>610.357742</ele>
        <time>2022-09-13T15:42:56.455Z</time>
      </trkpt>
      <trkpt lat="48.04543" lon="10.81926">
        <ele>609.858633</ele>
        <time>2022-09-13T15:43:29.172Z</time>
      </trkpt>
      <trkpt lat="48.04554" lon="10.81922">
        <ele>609.844022</ele>
        <time>2022-09-13T15:43:32.042Z</time>
      </trkpt>
      <trkpt lat="48.04626" lon="10.81896">
        <ele>609.746955</ele>
        <time>2022-09-13T15:43:51.699Z</time>
      </trkpt>
      <trkpt lat="48.04647" lon="10.81889">
        <ele>609.718229</ele>
        <time>2022-09-13T15:43:57.617Z</time>
      </trkpt>
      <trkpt lat="48.04746" lon="10.81853">
        <ele>609.371007</ele>
        <time>2022-09-13T15:44:23.438Z</time>
      </trkpt>
      <trkpt lat="48.04769" lon="10.8185">
        <ele>609.271136</ele>
        <time>2022-09-13T15:44:29.004Z</time>
      </trkpt>
      <trkpt lat="48.04778" lon="10.81856">
        <ele>609.226448</ele>
        <time>2022-09-13T15:44:31.488Z</time>
      </trkpt>
      <trkpt lat="48.04782" lon="10.81859">
        <ele>609.207845</ele>
        <time>2022-09-13T15:44:32.552Z</time>
      </trkpt>
      <trkpt lat="48.04786" lon="10.8186">
        <ele>609.188968</ele>
        <time>2022-09-13T15:44:33.601Z</time>
      </trkpt>
      <trkpt lat="48.04799" lon="10.81853">
        <ele>609.130618</ele>
        <time>2022-09-13T15:44:36.767Z</time>
      </trkpt>
      <trkpt lat="48.04801" lon="10.81846">
        <ele>609.107694</ele>
        <time>2022-09-13T15:44:38.015Z</time>
      </trkpt>
      <trkpt lat="48.04801" lon="10.81829">
        <ele>609.056373</ele>
        <time>2022-09-13T15:44:40.839Z</time>
      </trkpt>
      <trkpt lat="48.04796" lon="10.8182">
        <ele>609.021145</ele>
        <time>2022-09-13T15:44:42.757Z</time>
      </trkpt>
      <trkpt lat="48.04794" lon="10.81817">
        <ele>609.007367</ele>
        <time>2022-09-13T15:44:43.521Z</time>
      </trkpt>
      <trkpt lat="48.04772" lon="10.81767">
        <ele>608.842973</ele>
        <time>2022-09-13T15:44:53.840Z</time>
      </trkpt>
      <trkpt lat="48.04757" lon="10.81714">
        <ele>608.713231</ele>
        <time>2022-09-13T15:45:03.750Z</time>
      </trkpt>
      <trkpt lat="48.04709" lon="10.81446">
        <ele>608.553689</ele>
        <time>2022-09-13T15:45:53.165Z</time>
      </trkpt>
      <trkpt lat="48.0469" lon="10.813">
        <ele>609.048832</ele>
        <time>2022-09-13T15:46:22.491Z</time>
      </trkpt>
      <trkpt lat="48.04669" lon="10.811">
        <ele>613.033184</ele>
        <time>2022-09-13T15:47:13.403Z</time>
      </trkpt>
      <trkpt lat="48.0467" lon="10.80982">
        <ele>616.20691</ele>
        <time>2022-09-13T15:47:55.847Z</time>
      </trkpt>
      <trkpt lat="48.04686" lon="10.80821">
        <ele>624.579196</ele>
        <time>2022-09-13T15:49:07.237Z</time>
      </trkpt>
      <trkpt lat="48.04698" lon="10.8069">
        <ele>630.841258</ele>
        <time>2022-09-13T15:50:09.433Z</time>
      </trkpt>
      <trkpt lat="48.047" lon="10.80569">
        <ele>635.511108</ele>
        <time>2022-09-13T15:50:57.790Z</time>
      </trkpt>
      <trkpt lat="48.04709" lon="10.80408">
        <ele>639.884402</ele>
        <time>2022-09-13T15:51:46.580Z</time>
      </trkpt>
      <trkpt lat="48.04716" lon="10.80333">
        <ele>640.255145</ele>
        <time>2022-09-13T15:52:02.554Z</time>
      </trkpt>
      <trkpt lat="48.04711" lon="10.80227">
        <ele>640.774787</ele>
        <time>2022-09-13T15:52:20.944Z</time>
      </trkpt>
      <trkpt lat="48.04697" lon="10.80109">
        <ele>640.32149</ele>
        <time>2022-09-13T15:52:40.444Z</time>
      </trkpt>
      <trkpt lat="48.04671" lon="10.80005">
        <ele>639.562879</ele>
        <time>2022-09-13T15:52:58.064Z</time>
      </trkpt>
      <trkpt lat="48.04644" lon="10.79934">
        <ele>638.94878</ele>
        <time>2022-09-13T15:53:11.200Z</time>
      </trkpt>
      <trkpt lat="48.04637" lon="10.799">
        <ele>638.519517</ele>
        <time>2022-09-13T15:53:16.926Z</time>
      </trkpt>
      <trkpt lat="48.04644" lon="10.79867">
        <ele>638.117314</ele>
        <time>2022-09-13T15:53:22.441Z</time>
      </trkpt>
      <trkpt lat="48.04676" lon="10.79801">
        <ele>637.156966</ele>
        <time>2022-09-13T15:53:35.553Z</time>
      </trkpt>
      <trkpt lat="48.04743" lon="10.79625">
        <ele>632.602869</ele>
        <time>2022-09-13T15:54:04.178Z</time>
      </trkpt>
      <trkpt lat="48.04775" lon="10.79556">
        <ele>629.757931</ele>
        <time>2022-09-13T15:54:14.611Z</time>
      </trkpt>
      <trkpt lat="48.04813" lon="10.795">
        <ele>627.062818</ele>
        <time>2022-09-13T15:54:24.192Z</time>
      </trkpt>
      <trkpt lat="48.04794" lon="10.79406">
        <ele>623.129023</ele>
        <time>2022-09-13T15:54:35.841Z</time>
      </trkpt>
      <trkpt lat="48.04734" lon="10.79227">
        <ele>615.574741</ele>
        <time>2022-09-13T15:55:00.500Z</time>
      </trkpt>
      <trkpt lat="48.04681" lon="10.79099">
        <ele>613.881237</ele>
        <time>2022-09-13T15:55:23.047Z</time>
      </trkpt>
      <trkpt lat="48.04663" lon="10.79037">
        <ele>613.122709</ele>
        <time>2022-09-13T15:55:35.632Z</time>
      </trkpt>
      <trkpt lat="48.04634" lon="10.78902">
        <ele>612.914937</ele>
        <time>2022-09-13T15:56:06.640Z</time>
      </trkpt>
      <trkpt lat="48.04624" lon="10.78857">
        <ele>612.969551</ele>
        <time>2022-09-13T15:56:16.515Z</time>
      </trkpt>
      <trkpt lat="48.04622" lon="10.78847">
        <ele>612.981518</ele>
        <time>2022-09-13T15:56:18.575Z</time>
      </trkpt>
      <trkpt lat="48.04601" lon="10.78743">
        <ele>612.988914</ele>
        <time>2022-09-13T15:56:37.098Z</time>
      </trkpt>
      <trkpt lat="48.04602" lon="10.78697">
        <ele>612.422892</ele>
        <time>2022-09-13T15:56:44.296Z</time>
      </trkpt>
      <trkpt lat="48.0461" lon="10.78663">
        <ele>611.990689</ele>
        <time>2022-09-13T15:56:49.715Z</time>
      </trkpt>
      <trkpt lat="48.04635" lon="10.78601">
        <ele>611.104829</ele>
        <time>2022-09-13T15:57:00.542Z</time>
      </trkpt>
      <trkpt lat="48.04687" lon="10.78542">
        <ele>609.922244</ele>
        <time>2022-09-13T15:57:14.497Z</time>
      </trkpt>
      <trkpt lat="48.04723" lon="10.78506">
        <ele>609.530937</ele>
        <time>2022-09-13T15:57:23.997Z</time>
      </trkpt>
      <trkpt lat="48.04755" lon="10.78469">
        <ele>609.21481</ele>
        <time>2022-09-13T15:57:33.513Z</time>
      </trkpt>
      <trkpt lat="48.04768" lon="10.78453">
        <ele>609.082425</ele>
        <time>2022-09-13T15:57:37.748Z</time>
      </trkpt>
      <trkpt lat="48.04782" lon="10.7842">
        <ele>608.878251</ele>
        <time>2022-09-13T15:57:44.548Z</time>
      </trkpt>
      <trkpt lat="48.04785" lon="10.78411">
        <ele>608.820213</ele>
        <time>2022-09-13T15:57:46.531Z</time>
      </trkpt>
      <trkpt lat="48.0479" lon="10.78394">
        <ele>608.7223</ele>
        <time>2022-09-13T15:57:49.969Z</time>
      </trkpt>
      <trkpt lat="48.04811" lon="10.78336">
        <ele>608.459933</ele>
        <time>2022-09-13T15:58:02.668Z</time>
      </trkpt>
      <trkpt lat="48.04799" lon="10.78297">
        <ele>608.696804</ele>
        <time>2022-09-13T15:58:11.108Z</time>
      </trkpt>
      <trkpt lat="48.04795" lon="10.78271">
        <ele>608.843892</ele>
        <time>2022-09-13T15:58:16.428Z</time>
      </trkpt>
      <trkpt lat="48.04794" lon="10.78261">
        <ele>608.896367</ele>
        <time>2022-09-13T15:58:18.399Z</time>
      </trkpt>
      <trkpt lat="48.04791" lon="10.78227">
        <ele>609.087097</ele>
        <time>2022-09-13T15:58:25.507Z</time>
      </trkpt>
      <trkpt lat="48.04787" lon="10.78195">
        <ele>609.267767</ele>
        <time>2022-09-13T15:58:32.361Z</time>
      </trkpt>
      <trkpt lat="48.04783" lon="10.78162">
        <ele>609.454442</ele>
        <time>2022-09-13T15:58:39.392Z</time>
      </trkpt>
      <trkpt lat="48.0478" lon="10.78142">
        <ele>609.566229</ele>
        <time>2022-09-13T15:58:43.663Z</time>
      </trkpt>
      <trkpt lat="48.04779" lon="10.78135">
        <ele>609.60607</ele>
        <time>2022-09-13T15:58:45.155Z</time>
      </trkpt>
      <trkpt lat="48.04776" lon="10.78118">
        <ele>609.702263</ele>
        <time>2022-09-13T15:58:48.784Z</time>
      </trkpt>
      <trkpt lat="48.04763" lon="10.7804">
        <ele>610.27377</ele>
        <time>2022-09-13T15:59:06.269Z</time>
      </trkpt>
      <trkpt lat="48.04761" lon="10.78028">
        <ele>610.37872</ele>
        <time>2022-09-13T15:59:09.033Z</time>
      </trkpt>
      <trkpt lat="48.04753" lon="10.77986">
        <ele>610.739994</ele>
        <time>2022-09-13T15:59:18.775Z</time>
      </trkpt>
      <trkpt lat="48.04749" lon="10.77963">
        <ele>610.935814</ele>
        <time>2022-09-13T15:59:23.880Z</time>
      </trkpt>
      <trkpt lat="48.04738" lon="10.77906">
        <ele>611.43219</ele>
        <time>2022-09-13T15:59:36.968Z</time>
      </trkpt>
      <trkpt lat="48.04735" lon="10.77888">
        <ele>611.586072</ele>
        <time>2022-09-13T15:59:41.121Z</time>
      </trkpt>
      <trkpt lat="48.04734" lon="10.77879">
        <ele>611.667115</ele>
        <time>2022-09-13T15:59:43.177Z</time>
      </trkpt>
      <trkpt lat="48.04732" lon="10.77869">
        <ele>611.748967</ele>
        <time>2022-09-13T15:59:45.294Z</time>
      </trkpt>
      <trkpt lat="48.04727" lon="10.77838">
        <ele>612.018431</ele>
        <time>2022-09-13T15:59:52.351Z</time>
      </trkpt>
      <trkpt lat="48.04724" lon="10.77822">
        <ele>612.153678</ele>
        <time>2022-09-13T15:59:55.821Z</time>
      </trkpt>
      <trkpt lat="48.04718" lon="10.77786">
        <ele>612.40221</ele>
        <time>2022-09-13T16:00:03.906Z</time>
      </trkpt>
      <trkpt lat="48.04716" lon="10.77774">
        <ele>612.489424</ele>
        <time>2022-09-13T16:00:06.694Z</time>
      </trkpt>
      <trkpt lat="48.04714" lon="10.77763">
        <ele>612.565484</ele>
        <time>2022-09-13T16:00:09.158Z</time>
      </trkpt>
      <trkpt lat="48.04712" lon="10.77746">
        <ele>612.678268</ele>
        <time>2022-09-13T16:00:12.876Z</time>
      </trkpt>
      <trkpt lat="48.04707" lon="10.7772">
        <ele>612.858154</ele>
        <time>2022-09-13T16:00:18.696Z</time>
      </trkpt>
      <trkpt lat="48.04696" lon="10.77664">
        <ele>613.255319</ele>
        <time>2022-09-13T16:00:31.283Z</time>
      </trkpt>
      <trkpt lat="48.04701" lon="10.7763">
        <ele>613.482834</ele>
        <time>2022-09-13T16:00:38.743Z</time>
      </trkpt>
      <trkpt lat="48.04701" lon="10.77597">
        <ele>613.707165</ele>
        <time>2022-09-13T16:00:45.890Z</time>
      </trkpt>
      <trkpt lat="48.0469" lon="10.77558">
        <ele>613.971709</ele>
        <time>2022-09-13T16:00:54.538Z</time>
      </trkpt>
      <trkpt lat="48.04684" lon="10.7754">
        <ele>614.026302</ele>
        <time>2022-09-13T16:00:58.625Z</time>
      </trkpt>
      <trkpt lat="48.04676" lon="10.77519">
        <ele>614.093024</ele>
        <time>2022-09-13T16:01:03.467Z</time>
      </trkpt>
      <trkpt lat="48.04653" lon="10.77472">
        <ele>614.251393</ele>
        <time>2022-09-13T16:01:15.258Z</time>
      </trkpt>
      <trkpt lat="48.04662" lon="10.77435">
        <ele>614.357858</ele>
        <time>2022-09-13T16:01:23.085Z</time>
      </trkpt>
      <trkpt lat="48.04663" lon="10.77402">
        <ele>614.448218</ele>
        <time>2022-09-13T16:01:29.793Z</time>
      </trkpt>
      <trkpt lat="48.04653" lon="10.77325">
        <ele>614.659733</ele>
        <time>2022-09-13T16:01:44.643Z</time>
      </trkpt>
      <trkpt lat="48.04653" lon="10.77323">
        <ele>614.665935</ele>
        <time>2022-09-13T16:01:45.065Z</time>
      </trkpt>
      <trkpt lat="48.04651" lon="10.77316">
        <ele>614.686191</ele>
        <time>2022-09-13T16:01:46.373Z</time>
      </trkpt>
      <trkpt lat="48.04629" lon="10.77226">
        <ele>614.726619</ele>
        <time>2022-09-13T16:02:03.992Z</time>
      </trkpt>
      <trkpt lat="48.04593" lon="10.77112">
        <ele>614.776082</ele>
        <time>2022-09-13T16:02:26.552Z</time>
      </trkpt>
      <trkpt lat="48.04574" lon="10.77029">
        <ele>614.785567</ele>
        <time>2022-09-13T16:02:42.206Z</time>
      </trkpt>
      <trkpt lat="48.04571" lon="10.76691">
        <ele>614.616542</ele>
        <time>2022-09-13T16:03:42.242Z</time>
      </trkpt>
      <trkpt lat="48.04567" lon="10.76372">
        <ele>614.264692</ele>
        <time>2022-09-13T16:04:36.550Z</time>
      </trkpt>
      <trkpt lat="48.04571" lon="10.76031">
        <ele>614.083951</ele>
        <time>2022-09-13T16:05:36.540Z</time>
      </trkpt>
      <trkpt lat="48.04578" lon="10.7602">
        <ele>614.080356</ele>
        <time>2022-09-13T16:05:39.750Z</time>
      </trkpt>
      <trkpt lat="48.046" lon="10.76009">
        <ele>614.085591</ele>
        <time>2022-09-13T16:05:45.806Z</time>
      </trkpt>
      <trkpt lat="48.04629" lon="10.76009">
        <ele>614.125559</ele>
        <time>2022-09-13T16:05:53.753Z</time>
      </trkpt>
      <trkpt lat="48.04645" lon="10.75998">
        <ele>614.149868</ele>
        <time>2022-09-13T16:05:58.801Z</time>
      </trkpt>
      <trkpt lat="48.04653" lon="10.75977">
        <ele>614.172341</ele>
        <time>2022-09-13T16:06:03.118Z</time>
      </trkpt>
      <trkpt lat="48.04656" lon="10.75906">
        <ele>614.239354</ele>
        <time>2022-09-13T16:06:16.467Z</time>
      </trkpt>
      <trkpt lat="48.04656" lon="10.75588">
        <ele>614.480064</ele>
        <time>2022-09-13T16:07:13.800Z</time>
      </trkpt>
      <trkpt lat="48.04659" lon="10.75511">
        <ele>614.609251</ele>
        <time>2022-09-13T16:07:28.166Z</time>
      </trkpt>
      <trkpt lat="48.04656" lon="10.75269">
        <ele>615.341282</ele>
        <time>2022-09-13T16:08:14.909Z</time>
      </trkpt>
      <trkpt lat="48.0462" lon="10.74957">
        <ele>616.876531</ele>
        <time>2022-09-13T16:09:17.962Z</time>
      </trkpt>
      <trkpt lat="48.04551" lon="10.74572">
        <ele>619.514326</ele>
        <time>2022-09-13T16:10:44.314Z</time>
      </trkpt>
      <trkpt lat="48.04483" lon="10.74199">
        <ele>620.87243</ele>
        <time>2022-09-13T16:11:58.622Z</time>
      </trkpt>
      <trkpt lat="48.04428" lon="10.73885">
        <ele>620.969337</ele>
        <time>2022-09-13T16:12:57.418Z</time>
      </trkpt>
      <trkpt lat="48.0438" lon="10.7362">
        <ele>620.672432</ele>
        <time>2022-09-13T16:13:44.363Z</time>
      </trkpt>
      <trkpt lat="48.04355" lon="10.73473">
        <ele>620.512923</ele>
        <time>2022-09-13T16:14:10.026Z</time>
      </trkpt>
      <trkpt lat="48.04338" lon="10.73403">
        <ele>620.799376</ele>
        <time>2022-09-13T16:14:23.350Z</time>
      </trkpt>
      <trkpt lat="48.04334" lon="10.73398">
        <ele>620.846252</ele>
        <time>2022-09-13T16:14:24.844Z</time>
      </trkpt>
      <trkpt lat="48.04332" lon="10.73396">
        <ele>620.868175</ele>
        <time>2022-09-13T16:14:25.535Z</time>
      </trkpt>
      <trkpt lat="48.04279" lon="10.73358">
        <ele>621.424232</ele>
        <time>2022-09-13T16:14:43.577Z</time>
      </trkpt>
      <trkpt lat="48.04273" lon="10.73354">
        <ele>621.480284</ele>
        <time>2022-09-13T16:14:45.520Z</time>
      </trkpt>
      <trkpt lat="48.04262" lon="10.73347">
        <ele>621.596591</ele>
        <time>2022-09-13T16:14:49.691Z</time>
      </trkpt>
      <trkpt lat="48.04254" lon="10.73337">
        <ele>621.693248</ele>
        <time>2022-09-13T16:14:53.143Z</time>
      </trkpt>
      <trkpt lat="48.04239" lon="10.7332">
        <ele>621.872701</ele>
        <time>2022-09-13T16:14:59.776Z</time>
      </trkpt>
      <trkpt lat="48.04237" lon="10.73316">
        <ele>621.903749</ele>
        <time>2022-09-13T16:15:00.951Z</time>
      </trkpt>
      <trkpt lat="48.04221" lon="10.73291">
        <ele>622.120882</ele>
        <time>2022-09-13T16:15:09.118Z</time>
      </trkpt>
      <trkpt lat="48.04211" lon="10.73276">
        <ele>622.2274</ele>
        <time>2022-09-13T16:15:14.208Z</time>
      </trkpt>
      <trkpt lat="48.04183" lon="10.7323">
        <ele>622.485058</ele>
        <time>2022-09-13T16:15:28.880Z</time>
      </trkpt>
      <trkpt lat="48.04167" lon="10.73197">
        <ele>622.656037</ele>
        <time>2022-09-13T16:15:38.063Z</time>
      </trkpt>
      <trkpt lat="48.04142" lon="10.73138">
        <ele>622.94394</ele>
        <time>2022-09-13T16:15:52.414Z</time>
      </trkpt>
      <trkpt lat="48.04137" lon="10.73117">
        <ele>623.034705</ele>
        <time>2022-09-13T16:15:56.519Z</time>
      </trkpt>
      <trkpt lat="48.04135" lon="10.73109">
        <ele>623.072704</ele>
        <time>2022-09-13T16:15:58.217Z</time>
      </trkpt>
      <trkpt lat="48.04134" lon="10.73048">
        <ele>623.149346</ele>
        <time>2022-09-13T16:16:08.144Z</time>
      </trkpt>
      <trkpt lat="48.04134" lon="10.73042">
        <ele>623.049214</ele>
        <time>2022-09-13T16:16:08.954Z</time>
      </trkpt>
      <trkpt lat="48.04134" lon="10.73036">
        <ele>622.929055</ele>
        <time>2022-09-13T16:16:09.927Z</time>
      </trkpt>
      <trkpt lat="48.04133" lon="10.73014">
        <ele>622.540326</ele>
        <time>2022-09-13T16:16:13.001Z</time>
      </trkpt>
      <trkpt lat="48.04116" lon="10.72916">
        <ele>620.686982</ele>
        <time>2022-09-13T16:16:26.586Z</time>
      </trkpt>
      <trkpt lat="48.04109" lon="10.72862">
        <ele>619.680537</ele>
        <time>2022-09-13T16:16:33.686Z</time>
      </trkpt>
      <trkpt lat="48.04105" lon="10.72843">
        <ele>619.323819</ele>
        <time>2022-09-13T16:16:36.178Z</time>
      </trkpt>
      <trkpt lat="48.04103" lon="10.72828">
        <ele>619.061954</ele>
        <time>2022-09-13T16:16:37.991Z</time>
      </trkpt>
      <trkpt lat="48.04096" lon="10.72774">
        <ele>618.132732</ele>
        <time>2022-09-13T16:16:45.062Z</time>
      </trkpt>
      <trkpt lat="48.04083" lon="10.72694">
        <ele>616.985384</ele>
        <time>2022-09-13T16:16:55.873Z</time>
      </trkpt>
      <trkpt lat="48.04079" lon="10.72668">
        <ele>616.608552</ele>
        <time>2022-09-13T16:16:59.472Z</time>
      </trkpt>
      <trkpt lat="48.04074" lon="10.72632">
        <ele>616.103995</ele>
        <time>2022-09-13T16:17:04.493Z</time>
      </trkpt>
      <trkpt lat="48.04069" lon="10.72598">
        <ele>615.621087</ele>
        <time>2022-09-13T16:17:09.519Z</time>
      </trkpt>
      <trkpt lat="48.04066" lon="10.72598">
        <ele>615.556482</ele>
        <time>2022-09-13T16:17:10.234Z</time>
      </trkpt>
      <trkpt lat="48.04043" lon="10.72596">
        <ele>615.062073</ele>
        <time>2022-09-13T16:17:15.979Z</time>
      </trkpt>
      <trkpt lat="48.04008" lon="10.72597">
        <ele>614.676473</ele>
        <time>2022-09-13T16:17:25.341Z</time>
      </trkpt>
      <trkpt lat="48.03997" lon="10.72531">
        <ele>614.755357</ele>
        <time>2022-09-13T16:17:38.680Z</time>
      </trkpt>
      <trkpt lat="48.03988" lon="10.72483">
        <ele>614.812097</ele>
        <time>2022-09-13T16:17:50.874Z</time>
      </trkpt>
      <trkpt lat="48.03984" lon="10.72474">
        <ele>614.824956</ele>
        <time>2022-09-13T16:17:53.652Z</time>
      </trkpt>
      <trkpt lat="48.03971" lon="10.72449">
        <ele>614.861441</ele>
        <time>2022-09-13T16:18:01.512Z</time>
      </trkpt>
      <trkpt lat="48.03965" lon="10.72446">
        <ele>614.872775</ele>
        <time>2022-09-13T16:18:03.460Z</time>
      </trkpt>
      <trkpt lat="48.03964" lon="10.72439">
        <ele>614.880243</ele>
        <time>2022-09-13T16:18:05.041Z</time>
      </trkpt>
      <trkpt lat="48.03963" lon="10.72426">
        <ele>614.895379</ele>
        <time>2022-09-13T16:18:09.183Z</time>
      </trkpt>
      <trkpt lat="48.0396" lon="10.72381">
        <ele>614.947018</ele>
        <time>2022-09-13T16:18:20.090Z</time>
      </trkpt>
      <trkpt lat="48.03953" lon="10.72251">
        <ele>614.988919</ele>
        <time>2022-09-13T16:18:51.048Z</time>
      </trkpt>
      <trkpt lat="48.03957" lon="10.72251">
        <ele>614.990528</ele>
        <time>2022-09-13T16:18:52.542Z</time>
      </trkpt>
      <trkpt lat="48.03956" lon="10.72211">
        <ele>615.000175</ele>
        <time>2022-09-13T16:19:01.865Z</time>
      </trkpt>
      <trkpt lat="48.03947" lon="10.72204">
        <ele>615.003662</ele>
        <time>2022-09-13T16:19:05.068Z</time>
      </trkpt>
      <trkpt lat="48.03953" lon="10.72175">
        <ele>615.011165</ele>
        <time>2022-09-13T16:19:10.931Z</time>
      </trkpt>
      <trkpt lat="48.03947" lon="10.72162">
        <ele>615.014902</ele>
        <time>2022-09-13T16:19:13.700Z</time>
      </trkpt>
      <trkpt lat="48.03939" lon="10.72155">
        <ele>615.018351</ele>
        <time>2022-09-13T16:19:16.389Z</time>
      </trkpt>
      <trkpt lat="48.03925" lon="10.72138">
        <ele>615.024875</ele>
        <time>2022-09-13T16:19:21.513Z</time>
      </trkpt>
      <trkpt lat="48.03907" lon="10.72119">
        <ele>615.053289</ele>
        <time>2022-09-13T16:19:27.520Z</time>
      </trkpt>
      <trkpt lat="48.03887" lon="10.72094">
        <ele>615.088695</ele>
        <time>2022-09-13T16:19:34.618Z</time>
      </trkpt>
      <trkpt lat="48.03861" lon="10.72067">
        <ele>615.131119</ele>
        <time>2022-09-13T16:19:43.332Z</time>
      </trkpt>
      <trkpt lat="48.0385" lon="10.72058">
        <ele>615.148228</ele>
        <time>2022-09-13T16:19:46.835Z</time>
      </trkpt>
      <trkpt lat="48.03816" lon="10.72029">
        <ele>615.200909</ele>
        <time>2022-09-13T16:19:57.968Z</time>
      </trkpt>
      <trkpt lat="48.03806" lon="10.72021">
        <ele>615.217009</ele>
        <time>2022-09-13T16:20:01.397Z</time>
      </trkpt>
      <trkpt lat="48.03799" lon="10.72017">
        <ele>615.226707</ele>
        <time>2022-09-13T16:20:03.556Z</time>
      </trkpt>
      <trkpt lat="48.03762" lon="10.7199">
        <ele>615.278831</ele>
        <time>2022-09-13T16:20:15.832Z</time>
      </trkpt>
      <trkpt lat="48.03744" lon="10.71977">
        <ele>615.301067</ele>
        <time>2022-09-13T16:20:22.158Z</time>
      </trkpt>
      <trkpt lat="48.03752" lon="10.7192">
        <ele>615.343364</ele>
        <time>2022-09-13T16:20:33.449Z</time>
      </trkpt>
      <trkpt lat="48.03768" lon="10.71867">
        <ele>615.384824</ele>
        <time>2022-09-13T16:20:43.707Z</time>
      </trkpt>
      <trkpt lat="48.03774" lon="10.71856">
        <ele>615.394635</ele>
        <time>2022-09-13T16:20:45.994Z</time>
      </trkpt>
      <trkpt lat="48.03777" lon="10.71849">
        <ele>615.400846</ele>
        <time>2022-09-13T16:20:47.471Z</time>
      </trkpt>
      <trkpt lat="48.03781" lon="10.71841">
        <ele>615.408369</ele>
        <time>2022-09-13T16:20:49.258Z</time>
      </trkpt>
      <trkpt lat="48.03782" lon="10.71837">
        <ele>615.411451</ele>
        <time>2022-09-13T16:20:49.979Z</time>
      </trkpt>
      <trkpt lat="48.03777" lon="10.71809">
        <ele>615.432242</ele>
        <time>2022-09-13T16:20:54.930Z</time>
      </trkpt>
      <trkpt lat="48.03771" lon="10.71805">
        <ele>615.439706</ele>
        <time>2022-09-13T16:20:56.852Z</time>
      </trkpt>
      <trkpt lat="48.03773" lon="10.71794">
        <ele>615.447983</ele>
        <time>2022-09-13T16:20:58.948Z</time>
      </trkpt>
      <trkpt lat="48.03783" lon="10.71729">
        <ele>615.278125</ele>
        <time>2022-09-13T16:21:10.820Z</time>
      </trkpt>
      <trkpt lat="48.03789" lon="10.71676">
        <ele>615.075502</ele>
        <time>2022-09-13T16:21:19.963Z</time>
      </trkpt>
      <trkpt lat="48.03792" lon="10.71653">
        <ele>614.988346</ele>
        <time>2022-09-13T16:21:23.742Z</time>
      </trkpt>
      <trkpt lat="48.03795" lon="10.7162">
        <ele>614.863689</ele>
        <time>2022-09-13T16:21:29.056Z</time>
      </trkpt>
      <trkpt lat="48.03799" lon="10.71581">
        <ele>614.714296</ele>
        <time>2022-09-13T16:21:35.395Z</time>
      </trkpt>
      <trkpt lat="48.03801" lon="10.71567">
        <ele>614.659024</ele>
        <time>2022-09-13T16:21:37.677Z</time>
      </trkpt>
      <trkpt lat="48.03804" lon="10.71544">
        <ele>614.574006</ele>
        <time>2022-09-13T16:21:41.228Z</time>
      </trkpt>
      <trkpt lat="48.03805" lon="10.71527">
        <ele>614.508476</ele>
        <time>2022-09-13T16:21:43.938Z</time>
      </trkpt>
      <trkpt lat="48.03808" lon="10.71507">
        <ele>614.431308</ele>
        <time>2022-09-13T16:21:47.031Z</time>
      </trkpt>
      <trkpt lat="48.03809" lon="10.71491">
        <ele>614.363565</ele>
        <time>2022-09-13T16:21:49.589Z</time>
      </trkpt>
      <trkpt lat="48.03816" lon="10.71432">
        <ele>614.112792</ele>
        <time>2022-09-13T16:21:58.924Z</time>
      </trkpt>
      <trkpt lat="48.03818" lon="10.71419">
        <ele>614.060998</ele>
        <time>2022-09-13T16:22:00.884Z</time>
      </trkpt>
      <trkpt lat="48.03826" lon="10.71384">
        <ele>613.905272</ele>
        <time>2022-09-13T16:22:06.881Z</time>
      </trkpt>
      <trkpt lat="48.0382" lon="10.71373">
        <ele>613.84237</ele>
        <time>2022-09-13T16:22:09.441Z</time>
      </trkpt>
      <trkpt lat="48.03823" lon="10.71322">
        <ele>613.630361</ele>
        <time>2022-09-13T16:22:18.052Z</time>
      </trkpt>
      <trkpt lat="48.03826" lon="10.71266">
        <ele>613.396603</ele>
        <time>2022-09-13T16:22:27.830Z</time>
      </trkpt>
      <trkpt lat="48.03827" lon="10.7124">
        <ele>613.32535</ele>
        <time>2022-09-13T16:22:32.470Z</time>
      </trkpt>
      <trkpt lat="48.03828" lon="10.7123">
        <ele>613.319765</ele>
        <time>2022-09-13T16:22:34.350Z</time>
      </trkpt>
      <trkpt lat="48.03832" lon="10.7116">
        <ele>613.281724</ele>
        <time>2022-09-13T16:22:47.775Z</time>
      </trkpt>
      <trkpt lat="48.03832" lon="10.7115">
        <ele>613.276139</ele>
        <time>2022-09-13T16:22:49.766Z</time>
      </trkpt>
      <trkpt lat="48.03832" lon="10.71104">
        <ele>613.25145</ele>
        <time>2022-09-13T16:22:58.620Z</time>
      </trkpt>
      <trkpt lat="48.03832" lon="10.71057">
        <ele>613.226321</ele>
        <time>2022-09-13T16:23:07.304Z</time>
      </trkpt>
      <trkpt lat="48.03827" lon="10.71011">
        <ele>613.200904</ele>
        <time>2022-09-13T16:23:15.661Z</time>
      </trkpt>
      <trkpt lat="48.03826" lon="10.71002">
        <ele>613.196014</ele>
        <time>2022-09-13T16:23:17.244Z</time>
      </trkpt>
      <trkpt lat="48.0382" lon="10.7096">
        <ele>613.127097</ele>
        <time>2022-09-13T16:23:24.805Z</time>
      </trkpt>
      <trkpt lat="48.03817" lon="10.70929">
        <ele>613.048008</ele>
        <time>2022-09-13T16:23:30.194Z</time>
      </trkpt>
      <trkpt lat="48.03814" lon="10.70905">
        <ele>612.987357</ele>
        <time>2022-09-13T16:23:34.469Z</time>
      </trkpt>
      <trkpt lat="48.03813" lon="10.70894">
        <ele>612.959549</ele>
        <time>2022-09-13T16:23:36.437Z</time>
      </trkpt>
      <trkpt lat="48.03809" lon="10.70859">
        <ele>612.871344</ele>
        <time>2022-09-13T16:23:42.727Z</time>
      </trkpt>
      <trkpt lat="48.03808" lon="10.70847">
        <ele>612.8395</ele>
        <time>2022-09-13T16:23:44.969Z</time>
      </trkpt>
      <trkpt lat="48.03803" lon="10.70813">
        <ele>612.751285</ele>
        <time>2022-09-13T16:23:51.148Z</time>
      </trkpt>
      <trkpt lat="48.038" lon="10.70793">
        <ele>612.702045</ele>
        <time>2022-09-13T16:23:54.554Z</time>
      </trkpt>
      <trkpt lat="48.03795" lon="10.70758">
        <ele>612.61129</ele>
        <time>2022-09-13T16:24:00.813Z</time>
      </trkpt>
      <trkpt lat="48.03792" lon="10.70729">
        <ele>612.536406</ele>
        <time>2022-09-13T16:24:05.931Z</time>
      </trkpt>
      <trkpt lat="48.03788" lon="10.70704">
        <ele>612.479458</ele>
        <time>2022-09-13T16:24:10.280Z</time>
      </trkpt>
      <trkpt lat="48.03786" lon="10.70688">
        <ele>612.445307</ele>
        <time>2022-09-13T16:24:13.156Z</time>
      </trkpt>
      <trkpt lat="48.03782" lon="10.7065">
        <ele>612.366643</ele>
        <time>2022-09-13T16:24:19.831Z</time>
      </trkpt>
      <trkpt lat="48.03775" lon="10.70645">
        <ele>612.341497</ele>
        <time>2022-09-13T16:24:23.289Z</time>
      </trkpt>
      <trkpt lat="48.03781" lon="10.70644">
        <ele>612.32101</ele>
        <time>2022-09-13T16:24:24.963Z</time>
      </trkpt>
      <trkpt lat="48.0378" lon="10.70634">
        <ele>612.300403</ele>
        <time>2022-09-13T16:24:26.800Z</time>
      </trkpt>
      <trkpt lat="48.03779" lon="10.70619">
        <ele>612.269648</ele>
        <time>2022-09-13T16:24:29.318Z</time>
      </trkpt>
      <trkpt lat="48.03741" lon="10.70243">
        <ele>611.455891</ele>
        <time>2022-09-13T16:25:34.478Z</time>
      </trkpt>
      <trkpt lat="48.03711" lon="10.6985">
        <ele>609.935533</ele>
        <time>2022-09-13T16:26:38.258Z</time>
      </trkpt>
      <trkpt lat="48.03965" lon="10.6991">
        <ele>609.086324</ele>
        <time>2022-09-13T16:27:43.141Z</time>
      </trkpt>
      <trkpt lat="48.0396" lon="10.69488">
        <ele>609.112433</ele>
        <time>2022-09-13T16:29:00.293Z</time>
      </trkpt>
      <trkpt lat="48.03952" lon="10.69061">
        <ele>608.49033</ele>
        <time>2022-09-13T16:30:12.673Z</time>
      </trkpt>
      <trkpt lat="48.0395" lon="10.68861">
        <ele>608.578643</ele>
        <time>2022-09-13T16:30:48.423Z</time>
      </trkpt>
      <trkpt lat="48.03943" lon="10.68627">
        <ele>609.073521</ele>
        <time>2022-09-13T16:31:33.074Z</time>
      </trkpt>
      <trkpt lat="48.03916" lon="10.68353">
        <ele>610.157816</ele>
        <time>2022-09-13T16:32:27.412Z</time>
      </trkpt>
      <trkpt lat="48.03914" lon="10.68331">
        <ele>610.259231</ele>
        <time>2022-09-13T16:32:31.949Z</time>
      </trkpt>
      <trkpt lat="48.03902" lon="10.68218">
        <ele>610.766126</ele>
        <time>2022-09-13T16:32:55.778Z</time>
      </trkpt>
      <trkpt lat="48.039" lon="10.68199">
        <ele>610.822896</ele>
        <time>2022-09-13T16:32:59.893Z</time>
      </trkpt>
      <trkpt lat="48.03892" lon="10.68137">
        <ele>611.000327</ele>
        <time>2022-09-13T16:33:12.755Z</time>
      </trkpt>
      <trkpt lat="48.03884" lon="10.68071">
        <ele>611.189483</ele>
        <time>2022-09-13T16:33:25.995Z</time>
      </trkpt>
      <trkpt lat="48.03879" lon="10.68031">
        <ele>611.30507</ele>
        <time>2022-09-13T16:33:33.884Z</time>
      </trkpt>
      <trkpt lat="48.03876" lon="10.68007">
        <ele>611.374675</ele>
        <time>2022-09-13T16:33:38.640Z</time>
      </trkpt>
      <trkpt lat="48.03875" lon="10.67998">
        <ele>611.39941</ele>
        <time>2022-09-13T16:33:40.256Z</time>
      </trkpt>
      <trkpt lat="48.03873" lon="10.67987">
        <ele>611.430131</ele>
        <time>2022-09-13T16:33:42.283Z</time>
      </trkpt>
      <trkpt lat="48.03871" lon="10.67973">
        <ele>611.46985</ele>
        <time>2022-09-13T16:33:44.960Z</time>
      </trkpt>
      <trkpt lat="48.03867" lon="10.67938">
        <ele>611.514904</ele>
        <time>2022-09-13T16:33:51.680Z</time>
      </trkpt>
      <trkpt lat="48.03863" lon="10.67902">
        <ele>611.55195</ele>
        <time>2022-09-13T16:33:58.592Z</time>
      </trkpt>
      <trkpt lat="48.0386" lon="10.67874">
        <ele>611.581772</ele>
        <time>2022-09-13T16:34:04.281Z</time>
      </trkpt>
      <trkpt lat="48.03854" lon="10.6782">
        <ele>611.636938</ele>
        <time>2022-09-13T16:34:14.559Z</time>
      </trkpt>
      <trkpt lat="48.03853" lon="10.67807">
        <ele>611.651032</ele>
        <time>2022-09-13T16:34:17.177Z</time>
      </trkpt>
      <trkpt lat="48.03869" lon="10.67775">
        <ele>611.692014</ele>
        <time>2022-09-13T16:34:24.700Z</time>
      </trkpt>
      <trkpt lat="48.03889" lon="10.6774">
        <ele>611.738633</ele>
        <time>2022-09-13T16:34:33.538Z</time>
      </trkpt>
      <trkpt lat="48.03891" lon="10.67736">
        <ele>611.744428</ele>
        <time>2022-09-13T16:34:34.645Z</time>
      </trkpt>
      <trkpt lat="48.03903" lon="10.67713">
        <ele>611.777688</ele>
        <time>2022-09-13T16:34:40.283Z</time>
      </trkpt>
      <trkpt lat="48.03928" lon="10.67672">
        <ele>611.848989</ele>
        <time>2022-09-13T16:34:51.172Z</time>
      </trkpt>
      <trkpt lat="48.03934" lon="10.6766">
        <ele>611.867811</ele>
        <time>2022-09-13T16:34:54.038Z</time>
      </trkpt>
      <trkpt lat="48.03953" lon="10.67621">
        <ele>611.930035</ele>
        <time>2022-09-13T16:35:03.357Z</time>
      </trkpt>
      <trkpt lat="48.03981" lon="10.6759">
        <ele>611.996428</ele>
        <time>2022-09-13T16:35:13.232Z</time>
      </trkpt>
      <trkpt lat="48.03983" lon="10.67588">
        <ele>612.000717</ele>
        <time>2022-09-13T16:35:13.891Z</time>
      </trkpt>
      <trkpt lat="48.03988" lon="10.67583">
        <ele>612.011744</ele>
        <time>2022-09-13T16:35:15.472Z</time>
      </trkpt>
      <trkpt lat="48.04001" lon="10.67568">
        <ele>612.042988</ele>
        <time>2022-09-13T16:35:20.161Z</time>
      </trkpt>
      <trkpt lat="48.04046" lon="10.67581">
        <ele>612.093851</ele>
        <time>2022-09-13T16:35:33.434Z</time>
      </trkpt>
      <trkpt lat="48.04064" lon="10.67575">
        <ele>612.084029</ele>
        <time>2022-09-13T16:35:38.807Z</time>
      </trkpt>
      <trkpt lat="48.04069" lon="10.67571">
        <ele>612.081328</ele>
        <time>2022-09-13T16:35:40.311Z</time>
      </trkpt>
      <trkpt lat="48.04094" lon="10.67554">
        <ele>612.067357</ele>
        <time>2022-09-13T16:35:47.652Z</time>
      </trkpt>
      <trkpt lat="48.04093" lon="10.67498">
        <ele>612.04836</ele>
        <time>2022-09-13T16:35:57.269Z</time>
      </trkpt>
      <trkpt lat="48.04093" lon="10.6749">
        <ele>612.045378</ele>
        <time>2022-09-13T16:35:58.864Z</time>
      </trkpt>
      <trkpt lat="48.04092" lon="10.67484">
        <ele>612.043362</ele>
        <time>2022-09-13T16:35:59.934Z</time>
      </trkpt>
      <trkpt lat="48.04089" lon="10.67468">
        <ele>612.037585</ele>
        <time>2022-09-13T16:36:02.786Z</time>
      </trkpt>
      <trkpt lat="48.04083" lon="10.67437">
        <ele>612.026668</ele>
        <time>2022-09-13T16:36:08.462Z</time>
      </trkpt>
      <trkpt lat="48.04064" lon="10.67328">
        <ele>612.050483</ele>
        <time>2022-09-13T16:36:30.907Z</time>
      </trkpt>
      <trkpt lat="48.04047" lon="10.67309">
        <ele>612.07054</ele>
        <time>2022-09-13T16:36:37.003Z</time>
      </trkpt>
      <trkpt lat="48.04038" lon="10.67223">
        <ele>612.125819</ele>
        <time>2022-09-13T16:36:54.466Z</time>
      </trkpt>
      <trkpt lat="48.04036" lon="10.67206">
        <ele>612.137352</ele>
        <time>2022-09-13T16:36:57.710Z</time>
      </trkpt>
      <trkpt lat="48.04029" lon="10.67162">
        <ele>612.165955</ele>
        <time>2022-09-13T16:37:05.641Z</time>
      </trkpt>
      <trkpt lat="48.04017" lon="10.67133">
        <ele>612.112809</ele>
        <time>2022-09-13T16:37:11.532Z</time>
      </trkpt>
      <trkpt lat="48.04009" lon="10.6712">
        <ele>611.977638</ele>
        <time>2022-09-13T16:37:14.425Z</time>
      </trkpt>
      <trkpt lat="48.03999" lon="10.67109">
        <ele>611.833584</ele>
        <time>2022-09-13T16:37:17.454Z</time>
      </trkpt>
      <trkpt lat="48.03982" lon="10.67094">
        <ele>611.612146</ele>
        <time>2022-09-13T16:37:22.210Z</time>
      </trkpt>
      <trkpt lat="48.03973" lon="10.67079">
        <ele>611.45524</ele>
        <time>2022-09-13T16:37:25.595Z</time>
      </trkpt>
      <trkpt lat="48.03982" lon="10.67054">
        <ele>611.233432</ele>
        <time>2022-09-13T16:37:30.053Z</time>
      </trkpt>
      <trkpt lat="48.03993" lon="10.67016">
        <ele>610.918771</ele>
        <time>2022-09-13T16:37:36.357Z</time>
      </trkpt>
      <trkpt lat="48.03997" lon="10.6699">
        <ele>610.715171</ele>
        <time>2022-09-13T16:37:40.325Z</time>
      </trkpt>
      <trkpt lat="48.03997" lon="10.66986">
        <ele>610.68116</ele>
        <time>2022-09-13T16:37:40.998Z</time>
      </trkpt>
      <trkpt lat="48.04002" lon="10.66939">
        <ele>610.318512</ele>
        <time>2022-09-13T16:37:47.802Z</time>
      </trkpt>
      <trkpt lat="48.04004" lon="10.66923">
        <ele>610.19384</ele>
        <time>2022-09-13T16:37:50.112Z</time>
      </trkpt>
      <trkpt lat="48.04007" lon="10.66886">
        <ele>609.888152</ele>
        <time>2022-09-13T16:37:55.254Z</time>
      </trkpt>
      <trkpt lat="48.04" lon="10.66886">
        <ele>609.809076</ele>
        <time>2022-09-13T16:37:56.669Z</time>
      </trkpt>
      <trkpt lat="48.04017" lon="10.66618">
        <ele>607.731255</ele>
        <time>2022-09-13T16:38:37.549Z</time>
      </trkpt>
      <trkpt lat="48.04038" lon="10.66272">
        <ele>607.058446</ele>
        <time>2022-09-13T16:39:37.610Z</time>
      </trkpt>
      <trkpt lat="48.04058" lon="10.65905">
        <ele>606.914349</ele>
        <time>2022-09-13T16:40:42.768Z</time>
      </trkpt>
      <trkpt lat="48.04075" lon="10.65673">
        <ele>606.988798</ele>
        <time>2022-09-13T16:41:24.306Z</time>
      </trkpt>
      <trkpt lat="48.04077" lon="10.65634">
        <ele>607.007737</ele>
        <time>2022-09-13T16:41:31.519Z</time>
      </trkpt>
      <trkpt lat="48.04132" lon="10.64674">
        <ele>608.816247</ele>
        <time>2022-09-13T16:44:32.887Z</time>
      </trkpt>
      <trkpt lat="48.04124" lon="10.6463">
        <ele>608.877041</ele>
        <time>2022-09-13T16:44:41.199Z</time>
      </trkpt>
      <trkpt lat="48.04136" lon="10.64575">
        <ele>608.952086</ele>
        <time>2022-09-13T16:44:51.265Z</time>
      </trkpt>
      <trkpt lat="48.0414" lon="10.64564">
        <ele>608.969817</ele>
        <time>2022-09-13T16:44:53.718Z</time>
      </trkpt>
      <trkpt lat="48.04149" lon="10.64468">
        <ele>609.032511</ele>
        <time>2022-09-13T16:45:11.919Z</time>
      </trkpt>
      <trkpt lat="48.04154" lon="10.64387">
        <ele>609.035227</ele>
        <time>2022-09-13T16:45:27.990Z</time>
      </trkpt>
      <trkpt lat="48.04157" lon="10.6433">
        <ele>609.037163</ele>
        <time>2022-09-13T16:45:38.746Z</time>
      </trkpt>
      <trkpt lat="48.04173" lon="10.64166">
        <ele>608.729715</ele>
        <time>2022-09-13T16:46:07.633Z</time>
      </trkpt>
      <trkpt lat="48.04211" lon="10.63972">
        <ele>607.941885</ele>
        <time>2022-09-13T16:46:42.269Z</time>
      </trkpt>
      <trkpt lat="48.04273" lon="10.63722">
        <ele>606.255834</ele>
        <time>2022-09-13T16:47:24.944Z</time>
      </trkpt>
      <trkpt lat="48.04281" lon="10.63724">
        <ele>606.220438</ele>
        <time>2022-09-13T16:47:26.778Z</time>
      </trkpt>
      <trkpt lat="48.04314" lon="10.63714">
        <ele>606.068463</ele>
        <time>2022-09-13T16:47:35.372Z</time>
      </trkpt>
      <trkpt lat="48.04313" lon="10.63708">
        <ele>606.050268</ele>
        <time>2022-09-13T16:47:36.409Z</time>
      </trkpt>
      <trkpt lat="48.04319" lon="10.63507">
        <ele>605.486349</ele>
        <time>2022-09-13T16:48:14.491Z</time>
      </trkpt>
      <trkpt lat="48.04343" lon="10.62991">
        <ele>605.463652</ele>
        <time>2022-09-13T16:49:47.479Z</time>
      </trkpt>
      <trkpt lat="48.04343" lon="10.62752">
        <ele>605.246327</ele>
        <time>2022-09-13T16:50:29.114Z</time>
      </trkpt>
      <trkpt lat="48.04348" lon="10.62697">
        <ele>605.173088</ele>
        <time>2022-09-13T16:50:38.645Z</time>
      </trkpt>
      <trkpt lat="48.04426" lon="10.62375">
        <ele>604.747469</ele>
        <time>2022-09-13T16:51:36.415Z</time>
      </trkpt>
      <trkpt lat="48.0444" lon="10.62351">
        <ele>604.767189</ele>
        <time>2022-09-13T16:51:42.137Z</time>
      </trkpt>
      <trkpt lat="48.04488" lon="10.62306">
        <ele>604.81786</ele>
        <time>2022-09-13T16:51:57.702Z</time>
      </trkpt>
      <trkpt lat="48.045" lon="10.62286">
        <ele>604.834055</ele>
        <time>2022-09-13T16:52:02.972Z</time>
      </trkpt>
      <trkpt lat="48.04513" lon="10.62247">
        <ele>604.910511</ele>
        <time>2022-09-13T16:52:11.654Z</time>
      </trkpt>
      <trkpt lat="48.04515" lon="10.62231">
        <ele>604.989323</ele>
        <time>2022-09-13T16:52:15.017Z</time>
      </trkpt>
      <trkpt lat="48.04462" lon="10.62218">
        <ele>605.369035</ele>
        <time>2022-09-13T16:52:31.291Z</time>
      </trkpt>
      <trkpt lat="48.04435" lon="10.62201">
        <ele>605.581671</ele>
        <time>2022-09-13T16:52:40.797Z</time>
      </trkpt>
      <trkpt lat="48.04395" lon="10.6216">
        <ele>605.922058</ele>
        <time>2022-09-13T16:52:56.167Z</time>
      </trkpt>
      <trkpt lat="48.044" lon="10.62146">
        <ele>605.992937</ele>
        <time>2022-09-13T16:52:59.963Z</time>
      </trkpt>
      <trkpt lat="48.04342" lon="10.62092">
        <ele>606.208651</ele>
        <time>2022-09-13T16:53:21.308Z</time>
      </trkpt>
      <trkpt lat="48.04342" lon="10.62084">
        <ele>606.217915</ele>
        <time>2022-09-13T16:53:22.968Z</time>
      </trkpt>
      <trkpt lat="48.04341" lon="10.61994">
        <ele>606.319803</ele>
        <time>2022-09-13T16:53:40.099Z</time>
      </trkpt>
      <trkpt lat="48.04341" lon="10.61926">
        <ele>606.395711</ele>
        <time>2022-09-13T16:53:51.948Z</time>
      </trkpt>
      <trkpt lat="48.04336" lon="10.61563">
        <ele>605.813356</ele>
        <time>2022-09-13T16:54:56.479Z</time>
      </trkpt>
      <trkpt lat="48.04325" lon="10.61554">
        <ele>605.779014</ele>
        <time>2022-09-13T16:54:59.955Z</time>
      </trkpt>
      <trkpt lat="48.04323" lon="10.61376">
        <ele>605.449133</ele>
        <time>2022-09-13T16:55:30.603Z</time>
      </trkpt>
      <trkpt lat="48.04318" lon="10.61117">
        <ele>604.767256</ele>
        <time>2022-09-13T16:56:13.442Z</time>
      </trkpt>
      <trkpt lat="48.04317" lon="10.61067">
        <ele>604.768674</ele>
        <time>2022-09-13T16:56:21.626Z</time>
      </trkpt>
      <trkpt lat="48.04302" lon="10.60293">
        <ele>605.895525</ele>
        <time>2022-09-13T16:58:46.653Z</time>
      </trkpt>
      <trkpt lat="48.04302" lon="10.60278">
        <ele>605.868704</ele>
        <time>2022-09-13T16:58:49.472Z</time>
      </trkpt>
      <trkpt lat="48.04301" lon="10.60265">
        <ele>605.846976</ele>
        <time>2022-09-13T16:58:51.727Z</time>
      </trkpt>
      <trkpt lat="48.04299" lon="10.60158">
        <ele>605.66121</ele>
        <time>2022-09-13T16:59:10.274Z</time>
      </trkpt>
      <trkpt lat="48.043" lon="10.59944">
        <ele>605.268366</ele>
        <time>2022-09-13T16:59:45.916Z</time>
      </trkpt>
      <trkpt lat="48.04293" lon="10.59944">
        <ele>605.249948</ele>
        <time>2022-09-13T16:59:47.446Z</time>
      </trkpt>
      <trkpt lat="48.04292" lon="10.59833">
        <ele>605.026067</ele>
        <time>2022-09-13T17:00:05.990Z</time>
      </trkpt>
      <trkpt lat="48.04261" lon="10.5939">
        <ele>604.683947</ele>
        <time>2022-09-13T17:01:24.180Z</time>
      </trkpt>
      <trkpt lat="48.04254" lon="10.59103">
        <ele>604.443573</ele>
        <time>2022-09-13T17:02:14.654Z</time>
      </trkpt>
      <trkpt lat="48.04259" lon="10.591">
        <ele>604.43524</ele>
        <time>2022-09-13T17:02:16.026Z</time>
      </trkpt>
      <trkpt lat="48.04272" lon="10.59091">
        <ele>604.410892</ele>
        <time>2022-09-13T17:02:19.601Z</time>
      </trkpt>
      <trkpt lat="48.04281" lon="10.59054">
        <ele>604.36539</ele>
        <time>2022-09-13T17:02:26.428Z</time>
      </trkpt>
      <trkpt lat="48.04282" lon="10.59051">
        <ele>604.361634</ele>
        <time>2022-09-13T17:02:26.995Z</time>
      </trkpt>
      <trkpt lat="48.04286" lon="10.59033">
        <ele>604.339562</ele>
        <time>2022-09-13T17:02:30.242Z</time>
      </trkpt>
      <trkpt lat="48.04286" lon="10.59029">
        <ele>604.334876</ele>
        <time>2022-09-13T17:02:30.916Z</time>
      </trkpt>
      <trkpt lat="48.04277" lon="10.58997">
        <ele>604.295691</ele>
        <time>2022-09-13T17:02:36.906Z</time>
      </trkpt>
      <trkpt lat="48.0427" lon="10.58975">
        <ele>604.29616</ele>
        <time>2022-09-13T17:02:41.107Z</time>
      </trkpt>
      <trkpt lat="48.04266" lon="10.58932">
        <ele>604.357926</ele>
        <time>2022-09-13T17:02:48.757Z</time>
      </trkpt>
      <trkpt lat="48.04272" lon="10.58823">
        <ele>604.513061</ele>
        <time>2022-09-13T17:03:08.037Z</time>
      </trkpt>
      <trkpt lat="48.04294" lon="10.5827">
        <ele>606.946015</ele>
        <time>2022-09-13T17:04:58.457Z</time>
      </trkpt>
      <trkpt lat="48.04302" lon="10.57825">
        <ele>611.486546</ele>
        <time>2022-09-13T17:06:39.078Z</time>
      </trkpt>
      <trkpt lat="48.04298" lon="10.577">
        <ele>613.391787</ele>
        <time>2022-09-13T17:07:11.451Z</time>
      </trkpt>
      <trkpt lat="48.04302" lon="10.57675">
        <ele>613.790547</ele>
        <time>2022-09-13T17:07:18.261Z</time>
      </trkpt>
      <trkpt lat="48.04297" lon="10.57644">
        <ele>614.266787</ele>
        <time>2022-09-13T17:07:26.894Z</time>
      </trkpt>
      <trkpt lat="48.04292" lon="10.57519">
        <ele>616.871167</ele>
        <time>2022-09-13T17:08:01.761Z</time>
      </trkpt>
      <trkpt lat="48.04299" lon="10.57502">
        <ele>617.287661</ele>
        <time>2022-09-13T17:08:07.227Z</time>
      </trkpt>
      <trkpt lat="48.04291" lon="10.57488">
        <ele>617.66457</ele>
        <time>2022-09-13T17:08:12.124Z</time>
      </trkpt>
      <trkpt lat="48.04261" lon="10.5714">
        <ele>625.564575</ele>
        <time>2022-09-13T17:09:52.221Z</time>
      </trkpt>
      <trkpt lat="48.04266" lon="10.57108">
        <ele>626.38999</ele>
        <time>2022-09-13T17:10:02.312Z</time>
      </trkpt>
      <trkpt lat="48.04256" lon="10.57071">
        <ele>627.497499</ele>
        <time>2022-09-13T17:10:15.172Z</time>
      </trkpt>
      <trkpt lat="48.04243" lon="10.56933">
        <ele>631.366428</ele>
        <time>2022-09-13T17:10:59.436Z</time>
      </trkpt>
      <trkpt lat="48.0424" lon="10.56801">
        <ele>635.311713</ele>
        <time>2022-09-13T17:11:40.354Z</time>
      </trkpt>
      <trkpt lat="48.04246" lon="10.56674">
        <ele>639.490543</ele>
        <time>2022-09-13T17:12:20.656Z</time>
      </trkpt>
      <trkpt lat="48.04269" lon="10.56535">
        <ele>644.731679</ele>
        <time>2022-09-13T17:13:14.295Z</time>
      </trkpt>
      <trkpt lat="48.04316" lon="10.56341">
        <ele>653.615829</ele>
        <time>2022-09-13T17:14:35.653Z</time>
      </trkpt>
      <trkpt lat="48.04327" lon="10.56176">
        <ele>658.858962</ele>
        <time>2022-09-13T17:15:36.765Z</time>
      </trkpt>
      <trkpt lat="48.04327" lon="10.56123">
        <ele>660.509425</ele>
        <time>2022-09-13T17:15:52.207Z</time>
      </trkpt>
      <trkpt lat="48.04349" lon="10.56044">
        <ele>662.679936</ele>
        <time>2022-09-13T17:16:13.439Z</time>
      </trkpt>
      <trkpt lat="48.04351" lon="10.56016">
        <ele>663.051612</ele>
        <time>2022-09-13T17:16:20.318Z</time>
      </trkpt>
      <trkpt lat="48.04344" lon="10.5593">
        <ele>664.186703</ele>
        <time>2022-09-13T17:16:42.093Z</time>
      </trkpt>
      <trkpt lat="48.04365" lon="10.55792">
        <ele>666.005997</ele>
        <time>2022-09-13T17:17:14.505Z</time>
      </trkpt>
      <trkpt lat="48.04359" lon="10.55756">
        <ele>666.407717</ele>
        <time>2022-09-13T17:17:23.038Z</time>
      </trkpt>
      <trkpt lat="48.04342" lon="10.55728">
        <ele>666.811361</ele>
        <time>2022-09-13T17:17:31.720Z</time>
      </trkpt>
      <trkpt lat="48.043" lon="10.55695">
        <ele>667.574202</ele>
        <time>2022-09-13T17:17:48.272Z</time>
      </trkpt>
      <trkpt lat="48.04274" lon="10.55345">
        <ele>670.637285</ele>
        <time>2022-09-13T17:19:08.500Z</time>
      </trkpt>
      <trkpt lat="48.04255" lon="10.54942">
        <ele>667.832288</ele>
        <time>2022-09-13T17:20:13.212Z</time>
      </trkpt>
      <trkpt lat="48.04256" lon="10.54828">
        <ele>665.680154</ele>
        <time>2022-09-13T17:20:27.553Z</time>
      </trkpt>
      <trkpt lat="48.04274" lon="10.54775">
        <ele>664.592342</ele>
        <time>2022-09-13T17:20:34.774Z</time>
      </trkpt>
      <trkpt lat="48.04278" lon="10.54738">
        <ele>663.958609</ele>
        <time>2022-09-13T17:20:39.493Z</time>
      </trkpt>
      <trkpt lat="48.04275" lon="10.54725">
        <ele>663.720459</ele>
        <time>2022-09-13T17:20:41.078Z</time>
      </trkpt>
      <trkpt lat="48.04259" lon="10.54698">
        <ele>663.106538</ele>
        <time>2022-09-13T17:20:45.748Z</time>
      </trkpt>
      <trkpt lat="48.0425" lon="10.5467">
        <ele>662.592691</ele>
        <time>2022-09-13T17:20:49.434Z</time>
      </trkpt>
      <trkpt lat="48.04249" lon="10.54656">
        <ele>662.355755</ele>
        <time>2022-09-13T17:20:51.408Z</time>
      </trkpt>
      <trkpt lat="48.04256" lon="10.5464">
        <ele>662.040785</ele>
        <time>2022-09-13T17:20:54.157Z</time>
      </trkpt>
      <trkpt lat="48.04283" lon="10.54604">
        <ele>661.122045</ele>
        <time>2022-09-13T17:21:02.229Z</time>
      </trkpt>
      <trkpt lat="48.04295" lon="10.54575">
        <ele>660.553518</ele>
        <time>2022-09-13T17:21:07.489Z</time>
      </trkpt>
      <trkpt lat="48.04315" lon="10.54531">
        <ele>661.028018</ele>
        <time>2022-09-13T17:21:17.400Z</time>
      </trkpt>
      <trkpt lat="48.04321" lon="10.54518">
        <ele>661.372717</ele>
        <time>2022-09-13T17:21:22.177Z</time>
      </trkpt>
      <trkpt lat="48.04379" lon="10.54382">
        <ele>664.740262</ele>
        <time>2022-09-13T17:22:09.210Z</time>
      </trkpt>
      <trkpt lat="48.04418" lon="10.54246">
        <ele>667.857795</ele>
        <time>2022-09-13T17:23:00.082Z</time>
      </trkpt>
      <trkpt lat="48.04429" lon="10.54223">
        <ele>668.468976</ele>
        <time>2022-09-13T17:23:08.759Z</time>
      </trkpt>
      <trkpt lat="48.04461" lon="10.54091">
        <ele>671.433619</ele>
        <time>2022-09-13T17:23:44.159Z</time>
      </trkpt>
      <trkpt lat="48.04512" lon="10.53918">
        <ele>671.96394</ele>
        <time>2022-09-13T17:24:21.783Z</time>
      </trkpt>
      <trkpt lat="48.04527" lon="10.53828">
        <ele>672.086448</ele>
        <time>2022-09-13T17:24:37.030Z</time>
      </trkpt>
      <trkpt lat="48.04539" lon="10.53808">
        <ele>671.760788</ele>
        <time>2022-09-13T17:24:41.258Z</time>
      </trkpt>
      <trkpt lat="48.04548" lon="10.53725">
        <ele>670.781287</ele>
        <time>2022-09-13T17:24:53.556Z</time>
      </trkpt>
      <trkpt lat="48.04568" lon="10.53471">
        <ele>667.854522</ele>
        <time>2022-09-13T17:25:28.848Z</time>
      </trkpt>
      <trkpt lat="48.0459" lon="10.53196">
        <ele>665.884624</ele>
        <time>2022-09-13T17:26:10.871Z</time>
      </trkpt>
      <trkpt lat="48.0462" lon="10.52812">
        <ele>664.287998</ele>
        <time>2022-09-13T17:27:26.151Z</time>
      </trkpt>
      <trkpt lat="48.04651" lon="10.52514">
        <ele>652.608762</ele>
        <time>2022-09-13T17:28:01.500Z</time>
      </trkpt>
      <trkpt lat="48.04666" lon="10.52295">
        <ele>638.155169</ele>
        <time>2022-09-13T17:28:25.174Z</time>
      </trkpt>
      <trkpt lat="48.04676" lon="10.51985">
        <ele>620.434694</ele>
        <time>2022-09-13T17:28:59.621Z</time>
      </trkpt>
      <trkpt lat="48.04682" lon="10.51925">
        <ele>618.166681</ele>
        <time>2022-09-13T17:29:06.945Z</time>
      </trkpt>
      <trkpt lat="48.04691" lon="10.51762">
        <ele>613.198876</ele>
        <time>2022-09-13T17:29:27.139Z</time>
      </trkpt>
      <trkpt lat="48.047" lon="10.51692">
        <ele>611.223474</ele>
        <time>2022-09-13T17:29:36.515Z</time>
      </trkpt>
      <trkpt lat="48.04755" lon="10.51439">
        <ele>607.772312</ele>
        <time>2022-09-13T17:30:14.498Z</time>
      </trkpt>
      <trkpt lat="48.04781" lon="10.5129">
        <ele>606.957279</ele>
        <time>2022-09-13T17:30:38.859Z</time>
      </trkpt>
      <trkpt lat="48.04819" lon="10.51021">
        <ele>605.973248</ele>
        <time>2022-09-13T17:31:24.595Z</time>
      </trkpt>
      <trkpt lat="48.04821" lon="10.50952">
        <ele>605.800057</ele>
        <time>2022-09-13T17:31:36.121Z</time>
      </trkpt>
      <trkpt lat="48.04813" lon="10.50816">
        <ele>605.884644</ele>
        <time>2022-09-13T17:31:59.816Z</time>
      </trkpt>
      <trkpt lat="48.04812" lon="10.50795">
        <ele>605.919274</ele>
        <time>2022-09-13T17:32:03.943Z</time>
      </trkpt>
      <trkpt lat="48.04815" lon="10.50656">
        <ele>606.137817</ele>
        <time>2022-09-13T17:32:31.231Z</time>
      </trkpt>
      <trkpt lat="48.0481" lon="10.50606">
        <ele>606.166192</ele>
        <time>2022-09-13T17:32:41.044Z</time>
      </trkpt>
      <trkpt lat="48.04799" lon="10.50569">
        <ele>606.184379</ele>
        <time>2022-09-13T17:32:48.657Z</time>
      </trkpt>
      <trkpt lat="48.04798" lon="10.50545">
        <ele>606.195199</ele>
        <time>2022-09-13T17:32:53.274Z</time>
      </trkpt>
      <trkpt lat="48.04804" lon="10.50495">
        <ele>606.218166</ele>
        <time>2022-09-13T17:33:02.527Z</time>
      </trkpt>
      <trkpt lat="48.04807" lon="10.50462">
        <ele>606.23324</ele>
        <time>2022-09-13T17:33:08.659Z</time>
      </trkpt>
      <trkpt lat="48.04804" lon="10.50282">
        <ele>605.804419</ele>
        <time>2022-09-13T17:33:59.943Z</time>
      </trkpt>
      <trkpt lat="48.0481" lon="10.50282">
        <ele>605.76719</ele>
        <time>2022-09-13T17:34:01.342Z</time>
      </trkpt>
      <trkpt lat="48.04816" lon="10.50222">
        <ele>605.503462</ele>
        <time>2022-09-13T17:34:10.771Z</time>
      </trkpt>
      <trkpt lat="48.04824" lon="10.50161">
        <ele>605.231681</ele>
        <time>2022-09-13T17:34:20.445Z</time>
      </trkpt>
      <trkpt lat="48.04827" lon="10.50142">
        <ele>605.14758</ele>
        <time>2022-09-13T17:34:23.509Z</time>
      </trkpt>
      <trkpt lat="48.04833" lon="10.50094">
        <ele>605.00409</ele>
        <time>2022-09-13T17:34:31.281Z</time>
      </trkpt>
      <trkpt lat="48.04834" lon="10.50091">
        <ele>604.995314</ele>
        <time>2022-09-13T17:34:31.866Z</time>
      </trkpt>
      <trkpt lat="48.04834" lon="10.50085">
        <ele>604.979832</ele>
        <time>2022-09-13T17:34:32.886Z</time>
      </trkpt>
      <trkpt lat="48.04835" lon="10.50078">
        <ele>604.964036</ele>
        <time>2022-09-13T17:34:33.945Z</time>
      </trkpt>
      <trkpt lat="48.04836" lon="10.5005">
        <ele>604.893795</ele>
        <time>2022-09-13T17:34:38.755Z</time>
      </trkpt>
      <trkpt lat="48.04837" lon="10.50033">
        <ele>604.853278</ele>
        <time>2022-09-13T17:34:41.565Z</time>
      </trkpt>
      <trkpt lat="48.04836" lon="10.50003">
        <ele>604.778953</ele>
        <time>2022-09-13T17:34:46.687Z</time>
      </trkpt>
      <trkpt lat="48.04834" lon="10.49969">
        <ele>604.696518</ele>
        <time>2022-09-13T17:34:52.387Z</time>
      </trkpt>
      <trkpt lat="48.04833" lon="10.49956">
        <ele>604.662835</ele>
        <time>2022-09-13T17:34:54.649Z</time>
      </trkpt>
      <trkpt lat="48.04831" lon="10.49944">
        <ele>604.633313</ele>
        <time>2022-09-13T17:34:56.657Z</time>
      </trkpt>
      <trkpt lat="48.0483" lon="10.49936">
        <ele>604.613449</ele>
        <time>2022-09-13T17:34:58.001Z</time>
      </trkpt>
      <trkpt lat="48.04827" lon="10.49921">
        <ele>604.575393</ele>
        <time>2022-09-13T17:35:00.559Z</time>
      </trkpt>
      <trkpt lat="48.0482" lon="10.49876">
        <ele>604.461309</ele>
        <time>2022-09-13T17:35:08.505Z</time>
      </trkpt>
      <trkpt lat="48.04819" lon="10.49871">
        <ele>604.447987</ele>
        <time>2022-09-13T17:35:09.467Z</time>
      </trkpt>
      <trkpt lat="48.04809" lon="10.49808">
        <ele>604.556493</ele>
        <time>2022-09-13T17:35:21.265Z</time>
      </trkpt>
      <trkpt lat="48.04798" lon="10.49745">
        <ele>604.695663</ele>
        <time>2022-09-13T17:35:33.893Z</time>
      </trkpt>
      <trkpt lat="48.04789" lon="10.49694">
        <ele>604.810233</ele>
        <time>2022-09-13T17:35:44.577Z</time>
      </trkpt>
      <trkpt lat="48.04786" lon="10.49678">
        <ele>604.84511</ele>
        <time>2022-09-13T17:35:47.861Z</time>
      </trkpt>
      <trkpt lat="48.04782" lon="10.49657">
        <ele>604.891993</ele>
        <time>2022-09-13T17:35:52.115Z</time>
      </trkpt>
      <trkpt lat="48.04775" lon="10.49624">
        <ele>604.966392</ele>
        <time>2022-09-13T17:35:58.689Z</time>
      </trkpt>
      <trkpt lat="48.04764" lon="10.49574">
        <ele>605.036021</ele>
        <time>2022-09-13T17:36:08.199Z</time>
      </trkpt>
      <trkpt lat="48.04758" lon="10.49545">
        <ele>605.060747</ele>
        <time>2022-09-13T17:36:13.593Z</time>
      </trkpt>
      <trkpt lat="48.04755" lon="10.49529">
        <ele>605.074024</ele>
        <time>2022-09-13T17:36:16.610Z</time>
      </trkpt>
      <trkpt lat="48.04744" lon="10.49468">
        <ele>605.126066</ele>
        <time>2022-09-13T17:36:28.745Z</time>
      </trkpt>
      <trkpt lat="48.04738" lon="10.49439">
        <ele>605.150356</ele>
        <time>2022-09-13T17:36:34.438Z</time>
      </trkpt>
      <trkpt lat="48.0473" lon="10.49388">
        <ele>605.19394</ele>
        <time>2022-09-13T17:36:44.679Z</time>
      </trkpt>
      <trkpt lat="48.04726" lon="10.49361">
        <ele>605.215962</ele>
        <time>2022-09-13T17:36:49.658Z</time>
      </trkpt>
      <trkpt lat="48.04718" lon="10.49303">
        <ele>605.143766</ele>
        <time>2022-09-13T17:37:00.056Z</time>
      </trkpt>
      <trkpt lat="48.04711" lon="10.4925">
        <ele>605.036637</ele>
        <time>2022-09-13T17:37:09.194Z</time>
      </trkpt>
      <trkpt lat="48.04708" lon="10.49221">
        <ele>604.978656</ele>
        <time>2022-09-13T17:37:14.228Z</time>
      </trkpt>
      <trkpt lat="48.04707" lon="10.49203">
        <ele>604.942097</ele>
        <time>2022-09-13T17:37:17.378Z</time>
      </trkpt>
      <trkpt lat="48.04705" lon="10.49188">
        <ele>604.912135</ele>
        <time>2022-09-13T17:37:20.083Z</time>
      </trkpt>
      <trkpt lat="48.04704" lon="10.49176">
        <ele>604.887553</ele>
        <time>2022-09-13T17:37:22.348Z</time>
      </trkpt>
      <trkpt lat="48.04703" lon="10.49166">
        <ele>604.867958</ele>
        <time>2022-09-13T17:37:24.116Z</time>
      </trkpt>
      <trkpt lat="48.04701" lon="10.4914">
        <ele>604.817026</ele>
        <time>2022-09-13T17:37:28.742Z</time>
      </trkpt>
      <trkpt lat="48.047" lon="10.49127">
        <ele>604.790441</ele>
        <time>2022-09-13T17:37:31.261Z</time>
      </trkpt>
      <trkpt lat="48.04699" lon="10.49123">
        <ele>604.782821</ele>
        <time>2022-09-13T17:37:31.966Z</time>
      </trkpt>
      <trkpt lat="48.04696" lon="10.49106">
        <ele>604.747609</ele>
        <time>2022-09-13T17:37:35.161Z</time>
      </trkpt>
      <trkpt lat="48.04693" lon="10.49085">
        <ele>604.704704</ele>
        <time>2022-09-13T17:37:39.056Z</time>
      </trkpt>
      <trkpt lat="48.0468" lon="10.49024">
        <ele>604.564358</ele>
        <time>2022-09-13T17:37:50.529Z</time>
      </trkpt>
      <trkpt lat="48.04665" lon="10.48958">
        <ele>604.408933</ele>
        <time>2022-09-13T17:38:06.365Z</time>
      </trkpt>
      <trkpt lat="48.04657" lon="10.48927">
        <ele>604.335697</ele>
        <time>2022-09-13T17:38:13.722Z</time>
      </trkpt>
      <trkpt lat="48.04643" lon="10.48869">
        <ele>604.198664</ele>
        <time>2022-09-13T17:38:27.398Z</time>
      </trkpt>
      <trkpt lat="48.04627" lon="10.48804">
        <ele>603.992289</ele>
        <time>2022-09-13T17:38:43.189Z</time>
      </trkpt>
      <trkpt lat="48.04587" lon="10.4865">
        <ele>603.272788</ele>
        <time>2022-09-13T17:39:19.092Z</time>
      </trkpt>
      <trkpt lat="48.04575" lon="10.48586">
        <ele>602.983209</ele>
        <time>2022-09-13T17:39:33.118Z</time>
      </trkpt>
      <trkpt lat="48.04577" lon="10.48577">
        <ele>602.942323</ele>
        <time>2022-09-13T17:39:35.114Z</time>
      </trkpt>
      <trkpt lat="48.0458" lon="10.48563">
        <ele>602.9957</ele>
        <time>2022-09-13T17:39:38.156Z</time>
      </trkpt>
      <trkpt lat="48.04581" lon="10.48547">
        <ele>603.093643</ele>
        <time>2022-09-13T17:39:41.633Z</time>
      </trkpt>
      <trkpt lat="48.04582" lon="10.48532">
        <ele>603.181875</ele>
        <time>2022-09-13T17:39:44.762Z</time>
      </trkpt>
      <trkpt lat="48.04582" lon="10.48521">
        <ele>603.248434</ele>
        <time>2022-09-13T17:39:47.135Z</time>
      </trkpt>
      <trkpt lat="48.04579" lon="10.48485">
        <ele>603.465673</ele>
        <time>2022-09-13T17:39:55.182Z</time>
      </trkpt>
      <trkpt lat="48.04578" lon="10.48467">
        <ele>603.574284</ele>
        <time>2022-09-13T17:39:58.218Z</time>
      </trkpt>
      <trkpt lat="48.04577" lon="10.48461">
        <ele>603.60826</ele>
        <time>2022-09-13T17:39:59.249Z</time>
      </trkpt>
      <trkpt lat="48.04577" lon="10.48454">
        <ele>603.650196</ele>
        <time>2022-09-13T17:40:00.490Z</time>
      </trkpt>
      <trkpt lat="48.04575" lon="10.48442">
        <ele>603.720674</ele>
        <time>2022-09-13T17:40:02.570Z</time>
      </trkpt>
      <trkpt lat="48.04574" lon="10.48428">
        <ele>603.804928</ele>
        <time>2022-09-13T17:40:05.072Z</time>
      </trkpt>
      <trkpt lat="48.04573" lon="10.48421">
        <ele>603.851232</ele>
        <time>2022-09-13T17:40:06.443Z</time>
      </trkpt>
      <trkpt lat="48.04571" lon="10.48406">
        <ele>603.940746</ele>
        <time>2022-09-13T17:40:09.537Z</time>
      </trkpt>
      <trkpt lat="48.04567" lon="10.48385">
        <ele>604.069794</ele>
        <time>2022-09-13T17:40:14.201Z</time>
      </trkpt>
      <trkpt lat="48.04566" lon="10.48378">
        <ele>604.112965</ele>
        <time>2022-09-13T17:40:15.775Z</time>
      </trkpt>
      <trkpt lat="48.04555" lon="10.48318">
        <ele>604.482567</ele>
        <time>2022-09-13T17:40:31.673Z</time>
      </trkpt>
      <trkpt lat="48.04559" lon="10.48317">
        <ele>604.521561</ele>
        <time>2022-09-13T17:40:33.520Z</time>
      </trkpt>
      <trkpt lat="48.0454" lon="10.48216">
        <ele>608.500072</ele>
        <time>2022-09-13T17:41:10.445Z</time>
      </trkpt>
      <trkpt lat="48.04535" lon="10.48174">
        <ele>610.111457</ele>
        <time>2022-09-13T17:41:27.060Z</time>
      </trkpt>
      <trkpt lat="48.0453" lon="10.48117">
        <ele>612.304682</ele>
        <time>2022-09-13T17:41:49.550Z</time>
      </trkpt>
      <trkpt lat="48.04525" lon="10.48119">
        <ele>612.613047</ele>
        <time>2022-09-13T17:41:52.316Z</time>
      </trkpt>
      <trkpt lat="48.04524" lon="10.48107">
        <ele>613.06497</ele>
        <time>2022-09-13T17:41:57.136Z</time>
      </trkpt>
      <trkpt lat="48.04523" lon="10.48096">
        <ele>613.493186</ele>
        <time>2022-09-13T17:42:01.758Z</time>
      </trkpt>
      <trkpt lat="48.04522" lon="10.48075">
        <ele>614.284922</ele>
        <time>2022-09-13T17:42:10.141Z</time>
      </trkpt>
      <trkpt lat="48.04522" lon="10.48028">
        <ele>616.614782</ele>
        <time>2022-09-13T17:42:29.059Z</time>
      </trkpt>
      <trkpt lat="48.04523" lon="10.48022">
        <ele>616.952195</ele>
        <time>2022-09-13T17:42:31.601Z</time>
      </trkpt>
      <trkpt lat="48.04531" lon="10.47993">
        <ele>618.658168</ele>
        <time>2022-09-13T17:42:44.311Z</time>
      </trkpt>
      <trkpt lat="48.04559" lon="10.47965">
        <ele>621.362739</ele>
        <time>2022-09-13T17:43:06.934Z</time>
      </trkpt>
      <trkpt lat="48.04604" lon="10.47942">
        <ele>625.19445</ele>
        <time>2022-09-13T17:43:40.604Z</time>
      </trkpt>
      <trkpt lat="48.04669" lon="10.47888">
        <ele>631.695669</ele>
        <time>2022-09-13T17:44:27.931Z</time>
      </trkpt>
      <trkpt lat="48.0467" lon="10.4786">
        <ele>633.633265</ele>
        <time>2022-09-13T17:44:40.653Z</time>
      </trkpt>
      <trkpt lat="48.04655" lon="10.47841">
        <ele>635.598708</ele>
        <time>2022-09-13T17:44:55.374Z</time>
      </trkpt>
      <trkpt lat="48.04553" lon="10.47807">
        <ele>646.381487</ele>
        <time>2022-09-13T17:46:21.386Z</time>
      </trkpt>
      <trkpt lat="48.04544" lon="10.47802">
        <ele>647.338473</ele>
        <time>2022-09-13T17:46:29.308Z</time>
      </trkpt>
      <trkpt lat="48.04516" lon="10.4778">
        <ele>649.79371</ele>
        <time>2022-09-13T17:46:55.043Z</time>
      </trkpt>
      <trkpt lat="48.04508" lon="10.47772">
        <ele>650.479517</ele>
        <time>2022-09-13T17:47:01.342Z</time>
      </trkpt>
      <trkpt lat="48.04505" lon="10.47766">
        <ele>650.864514</ele>
        <time>2022-09-13T17:47:04.908Z</time>
      </trkpt>
      <trkpt lat="48.045" lon="10.47731">
        <ele>652.614867</ele>
        <time>2022-09-13T17:47:19.960Z</time>
      </trkpt>
      <trkpt lat="48.04495" lon="10.47685">
        <ele>654.895977</ele>
        <time>2022-09-13T17:47:39.278Z</time>
      </trkpt>
      <trkpt lat="48.04494" lon="10.47676">
        <ele>655.384248</ele>
        <time>2022-09-13T17:47:43.275Z</time>
      </trkpt>
      <trkpt lat="48.04492" lon="10.47596">
        <ele>659.287885</ele>
        <time>2022-09-13T17:48:14.581Z</time>
      </trkpt>
      <trkpt lat="48.045" lon="10.4749">
        <ele>660.769269</ele>
        <time>2022-09-13T17:48:46.101Z</time>
      </trkpt>
      <trkpt lat="48.04475" lon="10.4742">
        <ele>660.511062</ele>
        <time>2022-09-13T17:49:01.443Z</time>
      </trkpt>
      <trkpt lat="48.04444" lon="10.47335">
        <ele>660.199441</ele>
        <time>2022-09-13T17:49:14.426Z</time>
      </trkpt>
      <trkpt lat="48.04425" lon="10.47287">
        <ele>657.886858</ele>
        <time>2022-09-13T17:49:21.031Z</time>
      </trkpt>
      <trkpt lat="48.0439" lon="10.47227">
        <ele>652.788307</ele>
        <time>2022-09-13T17:49:29.986Z</time>
      </trkpt>
      <trkpt lat="48.04358" lon="10.47154">
        <ele>647.24055</ele>
        <time>2022-09-13T17:49:39.415Z</time>
      </trkpt>
      <trkpt lat="48.04334" lon="10.4707">
        <ele>640.951594</ele>
        <time>2022-09-13T17:49:49.049Z</time>
      </trkpt>
      <trkpt lat="48.04212" lon="10.46745">
        <ele>613.021227</ele>
        <time>2022-09-13T17:50:28.619Z</time>
      </trkpt>
      <trkpt lat="48.042" lon="10.46707">
        <ele>610.470094</ele>
        <time>2022-09-13T17:50:33.438Z</time>
      </trkpt>
      <trkpt lat="48.04184" lon="10.46614">
        <ele>604.759464</ele>
        <time>2022-09-13T17:50:44.595Z</time>
      </trkpt>
      <trkpt lat="48.04255" lon="10.46423">
        <ele>600.41766</ele>
        <time>2022-09-13T17:51:15.098Z</time>
      </trkpt>
      <trkpt lat="48.04268" lon="10.4641">
        <ele>599.976489</ele>
        <time>2022-09-13T17:51:18.651Z</time>
      </trkpt>
      <trkpt lat="48.04311" lon="10.46394">
        <ele>599.167704</ele>
        <time>2022-09-13T17:51:29.115Z</time>
      </trkpt>
      <trkpt lat="48.04401" lon="10.46313">
        <ele>598.241937</ele>
        <time>2022-09-13T17:51:54.481Z</time>
      </trkpt>
      <trkpt lat="48.04402" lon="10.46307">
        <ele>598.209325</ele>
        <time>2022-09-13T17:51:55.389Z</time>
      </trkpt>
      <trkpt lat="48.04402" lon="10.46292">
        <ele>598.122649</ele>
        <time>2022-09-13T17:51:57.835Z</time>
      </trkpt>
      <trkpt lat="48.04575" lon="10.45798">
        <ele>598.713957</ele>
        <time>2022-09-13T17:53:42.367Z</time>
      </trkpt>
      <trkpt lat="48.04582" lon="10.45779">
        <ele>598.801503</ele>
        <time>2022-09-13T17:53:47.803Z</time>
      </trkpt>
      <trkpt lat="48.04605" lon="10.45704">
        <ele>600.509626</ele>
        <time>2022-09-13T17:54:09.859Z</time>
      </trkpt>
      <trkpt lat="48.04637" lon="10.45553">
        <ele>604.325177</ele>
        <time>2022-09-13T17:55:01.181Z</time>
      </trkpt>
      <trkpt lat="48.04643" lon="10.4554">
        <ele>604.678916</ele>
        <time>2022-09-13T17:55:06.347Z</time>
      </trkpt>
      <trkpt lat="48.04611" lon="10.45499">
        <ele>606.120458</ele>
        <time>2022-09-13T17:55:26.204Z</time>
      </trkpt>
      <trkpt lat="48.04598" lon="10.45491">
        <ele>606.603473</ele>
        <time>2022-09-13T17:55:32.965Z</time>
      </trkpt>
      <trkpt lat="48.04594" lon="10.4547">
        <ele>607.083397</ele>
        <time>2022-09-13T17:55:40.125Z</time>
      </trkpt>
      <trkpt lat="48.04595" lon="10.45455">
        <ele>607.425303</ele>
        <time>2022-09-13T17:55:44.493Z</time>
      </trkpt>
      <trkpt lat="48.04633" lon="10.45253">
        <ele>611.44459</ele>
        <time>2022-09-13T17:56:42.084Z</time>
      </trkpt>
      <trkpt lat="48.04645" lon="10.45142">
        <ele>611.941167</ele>
        <time>2022-09-13T17:57:04.234Z</time>
      </trkpt>
      <trkpt lat="48.04645" lon="10.45138">
        <ele>611.956576</ele>
        <time>2022-09-13T17:57:04.904Z</time>
      </trkpt>
      <trkpt lat="48.04656" lon="10.44969">
        <ele>612.355961</ele>
        <time>2022-09-13T17:57:33.968Z</time>
      </trkpt>
      <trkpt lat="48.04662" lon="10.44755">
        <ele>611.886365</ele>
        <time>2022-09-13T17:58:09.367Z</time>
      </trkpt>
      <trkpt lat="48.04653" lon="10.44388">
        <ele>612.377111</ele>
        <time>2022-09-13T17:59:18.836Z</time>
      </trkpt>
      <trkpt lat="48.04642" lon="10.43981">
        <ele>612.553362</ele>
        <time>2022-09-13T18:00:31.599Z</time>
      </trkpt>
      <trkpt lat="48.04642" lon="10.43587">
        <ele>612.196376</ele>
        <time>2022-09-13T18:01:40.916Z</time>
      </trkpt>
      <trkpt lat="48.04641" lon="10.43215">
        <ele>611.51376</ele>
        <time>2022-09-13T18:02:43.130Z</time>
      </trkpt>
      <trkpt lat="48.04628" lon="10.42809">
        <ele>611.227139</ele>
        <time>2022-09-13T18:03:54.917Z</time>
      </trkpt>
      <trkpt lat="48.0459" lon="10.42469">
        <ele>611.255816</ele>
        <time>2022-09-13T18:04:56.142Z</time>
      </trkpt>
      <trkpt lat="48.04587" lon="10.42439">
        <ele>611.268232</ele>
        <time>2022-09-13T18:05:01.452Z</time>
      </trkpt>
      <trkpt lat="48.04581" lon="10.42441">
        <ele>611.271859</ele>
        <time>2022-09-13T18:05:02.989Z</time>
      </trkpt>
      <trkpt lat="48.04575" lon="10.42409">
        <ele>611.285225</ele>
        <time>2022-09-13T18:05:08.982Z</time>
      </trkpt>
      <trkpt lat="48.04559" lon="10.42279">
        <ele>611.571493</ele>
        <time>2022-09-13T18:05:34.416Z</time>
      </trkpt>
      <trkpt lat="48.04542" lon="10.42171">
        <ele>611.970633</ele>
        <time>2022-09-13T18:05:55.010Z</time>
      </trkpt>
      <trkpt lat="48.04537" lon="10.42137">
        <ele>612.095606</ele>
        <time>2022-09-13T18:06:02.095Z</time>
      </trkpt>
      <trkpt lat="48.04537" lon="10.42134">
        <ele>612.107076</ele>
        <time>2022-09-13T18:06:02.797Z</time>
      </trkpt>
      <trkpt lat="48.04519" lon="10.42025">
        <ele>612.526775</ele>
        <time>2022-09-13T18:06:26.720Z</time>
      </trkpt>
      <trkpt lat="48.04515" lon="10.41994">
        <ele>612.64871</ele>
        <time>2022-09-13T18:06:33.361Z</time>
      </trkpt>
      <trkpt lat="48.04514" lon="10.41985">
        <ele>612.682453</ele>
        <time>2022-09-13T18:06:35.222Z</time>
      </trkpt>
      <trkpt lat="48.04505" lon="10.41986">
        <ele>612.736653</ele>
        <time>2022-09-13T18:06:38.437Z</time>
      </trkpt>
      <trkpt lat="48.04485" lon="10.4199">
        <ele>612.849736</ele>
        <time>2022-09-13T18:06:44.524Z</time>
      </trkpt>
      <trkpt lat="48.04463" lon="10.41994">
        <ele>612.978232</ele>
        <time>2022-09-13T18:06:51.257Z</time>
      </trkpt>
      <trkpt lat="48.04436" lon="10.41999">
        <ele>613.134437</ele>
        <time>2022-09-13T18:06:58.698Z</time>
      </trkpt>
      <trkpt lat="48.04404" lon="10.42001">
        <ele>613.307795</ele>
        <time>2022-09-13T18:07:07.438Z</time>
      </trkpt>
      <trkpt lat="48.0438" lon="10.42002">
        <ele>613.30225</ele>
        <time>2022-09-13T18:07:14.167Z</time>
      </trkpt>
      <trkpt lat="48.04355" lon="10.42002">
        <ele>613.296291</ele>
        <time>2022-09-13T18:07:21.570Z</time>
      </trkpt>
      <trkpt lat="48.04341" lon="10.41995">
        <ele>613.293004</ele>
        <time>2022-09-13T18:07:25.671Z</time>
      </trkpt>
      <trkpt lat="48.04336" lon="10.41982">
        <ele>613.290686</ele>
        <time>2022-09-13T18:07:28.574Z</time>
      </trkpt>
      <trkpt lat="48.04328" lon="10.41959">
        <ele>613.286711</ele>
        <time>2022-09-13T18:07:33.553Z</time>
      </trkpt>
      <trkpt lat="48.04326" lon="10.41951">
        <ele>613.28538</ele>
        <time>2022-09-13T18:07:35.165Z</time>
      </trkpt>
      <trkpt lat="48.0432" lon="10.41931">
        <ele>613.281892</ele>
        <time>2022-09-13T18:07:39.381Z</time>
      </trkpt>
      <trkpt lat="48.04306" lon="10.41902">
        <ele>613.276344</ele>
        <time>2022-09-13T18:07:45.986Z</time>
      </trkpt>
      <trkpt lat="48.04294" lon="10.41893">
        <ele>613.273226</ele>
        <time>2022-09-13T18:07:49.639Z</time>
      </trkpt>
      <trkpt lat="48.04231" lon="10.41865">
        <ele>612.782281</ele>
        <time>2022-09-13T18:08:06.918Z</time>
      </trkpt>
      <trkpt lat="48.04202" lon="10.41864">
        <ele>612.388538</ele>
        <time>2022-09-13T18:08:14.043Z</time>
      </trkpt>
      <trkpt lat="48.04097" lon="10.41806">
        <ele>610.88143</ele>
        <time>2022-09-13T18:08:40.111Z</time>
      </trkpt>
      <trkpt lat="48.04052" lon="10.4176">
        <ele>609.331054</ele>
        <time>2022-09-13T18:08:51.038Z</time>
      </trkpt>
      <trkpt lat="48.04033" lon="10.41717">
        <ele>608.325365</ele>
        <time>2022-09-13T18:08:57.935Z</time>
      </trkpt>
      <trkpt lat="48.04029" lon="10.41685">
        <ele>607.677032</ele>
        <time>2022-09-13T18:09:02.536Z</time>
      </trkpt>
      <trkpt lat="48.04034" lon="10.41604">
        <ele>606.082411</ele>
        <time>2022-09-13T18:09:13.529Z</time>
      </trkpt>
      <trkpt lat="48.04033" lon="10.41586">
        <ele>605.716821</ele>
        <time>2022-09-13T18:09:16.200Z</time>
      </trkpt>
      <trkpt lat="48.04032" lon="10.41579">
        <ele>605.588615</ele>
        <time>2022-09-13T18:09:17.128Z</time>
      </trkpt>
      <trkpt lat="48.0403" lon="10.41562">
        <ele>605.406017</ele>
        <time>2022-09-13T18:09:19.534Z</time>
      </trkpt>
      <trkpt lat="48.04027" lon="10.4154">
        <ele>605.208844</ele>
        <time>2022-09-13T18:09:22.810Z</time>
      </trkpt>
      <trkpt lat="48.03976" lon="10.41419">
        <ele>603.948714</ele>
        <time>2022-09-13T18:09:44.167Z</time>
      </trkpt>
      <trkpt lat="48.03928" lon="10.4118">
        <ele>603.450049</ele>
        <time>2022-09-13T18:10:33.505Z</time>
      </trkpt>
      <trkpt lat="48.039" lon="10.41182">
        <ele>603.520595</ele>
        <time>2022-09-13T18:10:41.417Z</time>
      </trkpt>
      <trkpt lat="48.03814" lon="10.4123">
        <ele>603.709665</ele>
        <time>2022-09-13T18:11:07.738Z</time>
      </trkpt>
      <trkpt lat="48.03625" lon="10.41309">
        <ele>604.226751</ele>
        <time>2022-09-13T18:12:03.716Z</time>
      </trkpt>
      <trkpt lat="48.03615" lon="10.41311">
        <ele>604.277293</ele>
        <time>2022-09-13T18:12:06.815Z</time>
      </trkpt>
      <trkpt lat="48.03549" lon="10.41316">
        <ele>604.601063</ele>
        <time>2022-09-13T18:12:26.815Z</time>
      </trkpt>
      <trkpt lat="48.03449" lon="10.4131">
        <ele>605.454658</ele>
        <time>2022-09-13T18:12:58.504Z</time>
      </trkpt>
      <trkpt lat="48.03397" lon="10.41304">
        <ele>606.033583</ele>
        <time>2022-09-13T18:13:16.229Z</time>
      </trkpt>
      <trkpt lat="48.03273" lon="10.4128">
        <ele>607.515752</ele>
        <time>2022-09-13T18:13:58.649Z</time>
      </trkpt>
      <trkpt lat="48.03273" lon="10.41263">
        <ele>607.664104</ele>
        <time>2022-09-13T18:14:02.614Z</time>
      </trkpt>
      <trkpt lat="48.03275" lon="10.41185">
        <ele>608.344433</ele>
        <time>2022-09-13T18:14:20.273Z</time>
      </trkpt>
      <trkpt lat="48.03268" lon="10.4115">
        <ele>608.661102</ele>
        <time>2022-09-13T18:14:28.479Z</time>
      </trkpt>
      <trkpt lat="48.03137" lon="10.40915">
        <ele>611.64388</ele>
        <time>2022-09-13T18:15:38.987Z</time>
      </trkpt>
      <trkpt lat="48.03101" lon="10.40781">
        <ele>613.748452</ele>
        <time>2022-09-13T18:16:15.343Z</time>
      </trkpt>
      <trkpt lat="48.03075" lon="10.40726">
        <ele>614.766614</ele>
        <time>2022-09-13T18:16:32.490Z</time>
      </trkpt>
      <trkpt lat="48.03052" lon="10.40692">
        <ele>615.498837</ele>
        <time>2022-09-13T18:16:45.504Z</time>
      </trkpt>
      <trkpt lat="48.03009" lon="10.40663">
        <ele>617.120157</ele>
        <time>2022-09-13T18:17:05.488Z</time>
      </trkpt>
      <trkpt lat="48.02993" lon="10.40627">
        <ele>618.264375</ele>
        <time>2022-09-13T18:17:18.288Z</time>
      </trkpt>
      <trkpt lat="48.02987" lon="10.40588">
        <ele>619.336735</ele>
        <time>2022-09-13T18:17:30.768Z</time>
      </trkpt>
      <trkpt lat="48.02983" lon="10.40453">
        <ele>622.95944</ele>
        <time>2022-09-13T18:18:15.939Z</time>
      </trkpt>
      <trkpt lat="48.02977" lon="10.40326">
        <ele>626.310991</ele>
        <time>2022-09-13T18:18:59.541Z</time>
      </trkpt>
      <trkpt lat="48.02962" lon="10.40186">
        <ele>630.065886</ele>
        <time>2022-09-13T18:19:43.533Z</time>
      </trkpt>
      <trkpt lat="48.0296" lon="10.40106">
        <ele>630.055533</ele>
        <time>2022-09-13T18:20:02.370Z</time>
      </trkpt>
      <trkpt lat="48.02954" lon="10.40073">
        <ele>630.013667</ele>
        <time>2022-09-13T18:20:08.740Z</time>
      </trkpt>
      <trkpt lat="48.02952" lon="10.40062">
        <ele>629.998536</ele>
        <time>2022-09-13T18:20:10.775Z</time>
      </trkpt>
      <trkpt lat="48.02951" lon="10.40057">
        <ele>629.992298</ele>
        <time>2022-09-13T18:20:11.616Z</time>
      </trkpt>
      <trkpt lat="48.02938" lon="10.39991">
        <ele>629.907404</ele>
        <time>2022-09-13T18:20:22.488Z</time>
      </trkpt>
      <trkpt lat="48.02904" lon="10.39901">
        <ele>629.488758</ele>
        <time>2022-09-13T18:20:37.753Z</time>
      </trkpt>
      <trkpt lat="48.02885" lon="10.3983">
        <ele>628.685697</ele>
        <time>2022-09-13T18:20:48.744Z</time>
      </trkpt>
      <trkpt lat="48.02855" lon="10.39746">
        <ele>627.698912</ele>
        <time>2022-09-13T18:21:02.729Z</time>
      </trkpt>
      <trkpt lat="48.02849" lon="10.39715">
        <ele>627.35499</ele>
        <time>2022-09-13T18:21:08.038Z</time>
      </trkpt>
      <trkpt lat="48.02846" lon="10.39671">
        <ele>627.110534</ele>
        <time>2022-09-13T18:21:15.572Z</time>
      </trkpt>
      <trkpt lat="48.02854" lon="10.39594">
        <ele>627.924053</ele>
        <time>2022-09-13T18:21:31.656Z</time>
      </trkpt>
      <trkpt lat="48.02843" lon="10.39389">
        <ele>630.341594</ele>
        <time>2022-09-13T18:22:24.794Z</time>
      </trkpt>
      <trkpt lat="48.02875" lon="10.39304">
        <ele>632.372685</ele>
        <time>2022-09-13T18:22:53.836Z</time>
      </trkpt>
      <trkpt lat="48.02887" lon="10.39289">
        <ele>632.861752</ele>
        <time>2022-09-13T18:22:59.996Z</time>
      </trkpt>
      <trkpt lat="48.02955" lon="10.39257">
        <ele>635.102868</ele>
        <time>2022-09-13T18:23:31.888Z</time>
      </trkpt>
      <trkpt lat="48.02961" lon="10.39244">
        <ele>635.42014</ele>
        <time>2022-09-13T18:23:37.174Z</time>
      </trkpt>
      <trkpt lat="48.02976" lon="10.39148">
        <ele>636.756587</ele>
        <time>2022-09-13T18:24:03.889Z</time>
      </trkpt>
      <trkpt lat="48.02985" lon="10.39135">
        <ele>637.014125</ele>
        <time>2022-09-13T18:24:08.918Z</time>
      </trkpt>
      <trkpt lat="48.03036" lon="10.39121">
        <ele>638.067317</ele>
        <time>2022-09-13T18:24:28.055Z</time>
      </trkpt>
      <trkpt lat="48.03227" lon="10.39085">
        <ele>640.25206</ele>
        <time>2022-09-13T18:25:29.157Z</time>
      </trkpt>
      <trkpt lat="48.03331" lon="10.39022">
        <ele>641.59098</ele>
        <time>2022-09-13T18:26:04.285Z</time>
      </trkpt>
      <trkpt lat="48.03466" lon="10.38973">
        <ele>644.166145</ele>
        <time>2022-09-13T18:26:54.395Z</time>
      </trkpt>
      <trkpt lat="48.03488" lon="10.38942">
        <ele>645.196763</ele>
        <time>2022-09-13T18:27:07.034Z</time>
      </trkpt>
      <trkpt lat="48.03539" lon="10.38815">
        <ele>648.516435</ele>
        <time>2022-09-13T18:27:51.928Z</time>
      </trkpt>
      <trkpt lat="48.03569" lon="10.38716">
        <ele>652.965737</ele>
        <time>2022-09-13T18:28:29.140Z</time>
      </trkpt>
      <trkpt lat="48.03589" lon="10.38666">
        <ele>655.678926</ele>
        <time>2022-09-13T18:28:52.298Z</time>
      </trkpt>
      <trkpt lat="48.03591" lon="10.38643">
        <ele>656.795339</ele>
        <time>2022-09-13T18:29:02.541Z</time>
      </trkpt>
      <trkpt lat="48.03584" lon="10.38582">
        <ele>659.685568</ele>
        <time>2022-09-13T18:29:32.343Z</time>
      </trkpt>
      <trkpt lat="48.03567" lon="10.38539">
        <ele>661.975959</ele>
        <time>2022-09-13T18:29:56.453Z</time>
      </trkpt>
      <trkpt lat="48.03559" lon="10.38502">
        <ele>663.776761</ele>
        <time>2022-09-13T18:30:15.053Z</time>
      </trkpt>
      <trkpt lat="48.03532" lon="10.38356">
        <ele>670.69826</ele>
        <time>2022-09-13T18:31:22.549Z</time>
      </trkpt>
      <trkpt lat="48.0341" lon="10.38269">
        <ele>673.367342</ele>
        <time>2022-09-13T18:32:19.627Z</time>
      </trkpt>
      <trkpt lat="48.03385" lon="10.38249">
        <ele>673.181559</ele>
        <time>2022-09-13T18:32:25.560Z</time>
      </trkpt>
      <trkpt lat="48.03315" lon="10.38183">
        <ele>671.797492</ele>
        <time>2022-09-13T18:32:41.484Z</time>
      </trkpt>
      <trkpt lat="48.03262" lon="10.38115">
        <ele>668.356839</ele>
        <time>2022-09-13T18:32:54.423Z</time>
      </trkpt>
      <trkpt lat="48.03231" lon="10.38039">
        <ele>665.435783</ele>
        <time>2022-09-13T18:33:05.652Z</time>
      </trkpt>
      <trkpt lat="48.03206" lon="10.37944">
        <ele>662.890397</ele>
        <time>2022-09-13T18:33:19.217Z</time>
      </trkpt>
      <trkpt lat="48.03152" lon="10.37685">
        <ele>656.876823</ele>
        <time>2022-09-13T18:33:58.615Z</time>
      </trkpt>
      <trkpt lat="48.0314" lon="10.37572">
        <ele>652.903198</ele>
        <time>2022-09-13T18:34:13.307Z</time>
      </trkpt>
      <trkpt lat="48.03144" lon="10.37469">
        <ele>649.224681</ele>
        <time>2022-09-13T18:34:25.651Z</time>
      </trkpt>
      <trkpt lat="48.03144" lon="10.37306">
        <ele>641.22894</ele>
        <time>2022-09-13T18:34:44.748Z</time>
      </trkpt>
      <trkpt lat="48.03125" lon="10.37045">
        <ele>630.913917</ele>
        <time>2022-09-13T18:35:16.987Z</time>
      </trkpt>
      <trkpt lat="48.03114" lon="10.3697">
        <ele>628.359682</ele>
        <time>2022-09-13T18:35:27.505Z</time>
      </trkpt>
      <trkpt lat="48.03053" lon="10.36727">
        <ele>622.641123</ele>
        <time>2022-09-13T18:36:03.150Z</time>
      </trkpt>
      <trkpt lat="48.03034" lon="10.36683">
        <ele>621.740481</ele>
        <time>2022-09-13T18:36:10.486Z</time>
      </trkpt>
      <trkpt lat="48.02998" lon="10.36652">
        <ele>621.264196</ele>
        <time>2022-09-13T18:36:19.386Z</time>
      </trkpt>
      <trkpt lat="48.02947" lon="10.36635">
        <ele>620.672164</ele>
        <time>2022-09-13T18:36:31.253Z</time>
      </trkpt>
      <trkpt lat="48.02925" lon="10.36633">
        <ele>620.411466</ele>
        <time>2022-09-13T18:36:36.799Z</time>
      </trkpt>
      <trkpt lat="48.02865" lon="10.36649">
        <ele>619.915407</ele>
        <time>2022-09-13T18:36:54.162Z</time>
      </trkpt>
      <trkpt lat="48.02844" lon="10.36645">
        <ele>620.294428</ele>
        <time>2022-09-13T18:37:01.745Z</time>
      </trkpt>
      <trkpt lat="48.0283" lon="10.36638">
        <ele>620.548757</ele>
        <time>2022-09-13T18:37:06.864Z</time>
      </trkpt>
      <trkpt lat="48.0281" lon="10.36612">
        <ele>621.035794</ele>
        <time>2022-09-13T18:37:17.426Z</time>
      </trkpt>
      <trkpt lat="48.02816" lon="10.36329">
        <ele>622.948664</ele>
        <time>2022-09-13T18:38:29.387Z</time>
      </trkpt>
      <trkpt lat="48.0281" lon="10.36269">
        <ele>622.90497</ele>
        <time>2022-09-13T18:38:39.497Z</time>
      </trkpt>
      <trkpt lat="48.02797" lon="10.36231">
        <ele>622.874096</ele>
        <time>2022-09-13T18:38:45.980Z</time>
      </trkpt>
      <trkpt lat="48.02722" lon="10.36044">
        <ele>620.101807</ele>
        <time>2022-09-13T18:39:16.287Z</time>
      </trkpt>
      <trkpt lat="48.0266" lon="10.35919">
        <ele>618.590629</ele>
        <time>2022-09-13T18:39:39.162Z</time>
      </trkpt>
      <trkpt lat="48.02656" lon="10.35893">
        <ele>618.641507</ele>
        <time>2022-09-13T18:39:44.281Z</time>
      </trkpt>
      <trkpt lat="48.0266" lon="10.35823">
        <ele>618.773078</ele>
        <time>2022-09-13T18:39:58.802Z</time>
      </trkpt>
      <trkpt lat="48.02656" lon="10.35668">
        <ele>619.332479</ele>
        <time>2022-09-13T18:40:35.049Z</time>
      </trkpt>
      <trkpt lat="48.02648" lon="10.35618">
        <ele>619.779835</ele>
        <time>2022-09-13T18:40:47.388Z</time>
      </trkpt>
      <trkpt lat="48.02617" lon="10.35502">
        <ele>620.868959</ele>
        <time>2022-09-13T18:41:16.700Z</time>
      </trkpt>
      <trkpt lat="48.02615" lon="10.3548">
        <ele>621.061252</ele>
        <time>2022-09-13T18:41:21.330Z</time>
      </trkpt>
      <trkpt lat="48.02603" lon="10.35356">
        <ele>621.470858</ele>
        <time>2022-09-13T18:41:46.675Z</time>
      </trkpt>
      <trkpt lat="48.02557" lon="10.35197">
        <ele>621.735049</ele>
        <time>2022-09-13T18:42:19.280Z</time>
      </trkpt>
      <trkpt lat="48.02522" lon="10.35094">
        <ele>621.205323</ele>
        <time>2022-09-13T18:42:39.672Z</time>
      </trkpt>
      <trkpt lat="48.02505" lon="10.34999">
        <ele>620.75092</ele>
        <time>2022-09-13T18:42:55.547Z</time>
      </trkpt>
      <trkpt lat="48.02483" lon="10.35005">
        <ele>620.596058</ele>
        <time>2022-09-13T18:43:00.931Z</time>
      </trkpt>
      <trkpt lat="48.02463" lon="10.34999">
        <ele>620.392829</ele>
        <time>2022-09-13T18:43:05.777Z</time>
      </trkpt>
      <trkpt lat="48.02432" lon="10.34969">
        <ele>619.64071</ele>
        <time>2022-09-13T18:43:14.675Z</time>
      </trkpt>
      <trkpt lat="48.02406" lon="10.34871">
        <ele>618.199668</ele>
        <time>2022-09-13T18:43:31.147Z</time>
      </trkpt>
      <trkpt lat="48.02402" lon="10.34856">
        <ele>617.974433</ele>
        <time>2022-09-13T18:43:33.663Z</time>
      </trkpt>
      <trkpt lat="48.02364" lon="10.34749">
        <ele>615.860254</ele>
        <time>2022-09-13T18:43:50.046Z</time>
      </trkpt>
      <trkpt lat="48.02332" lon="10.34661">
        <ele>613.232491</ele>
        <time>2022-09-13T18:44:03.276Z</time>
      </trkpt>
      <trkpt lat="48.02322" lon="10.34648">
        <ele>612.689126</ele>
        <time>2022-09-13T18:44:05.876Z</time>
      </trkpt>
      <trkpt lat="48.02299" lon="10.34641">
        <ele>611.802023</ele>
        <time>2022-09-13T18:44:10.493Z</time>
      </trkpt>
      <trkpt lat="48.02288" lon="10.34639">
        <ele>611.353427</ele>
        <time>2022-09-13T18:44:12.642Z</time>
      </trkpt>
      <trkpt lat="48.02278" lon="10.34627">
        <ele>610.855248</ele>
        <time>2022-09-13T18:44:15.205Z</time>
      </trkpt>
      <trkpt lat="48.02271" lon="10.34609">
        <ele>610.310057</ele>
        <time>2022-09-13T18:44:17.953Z</time>
      </trkpt>
      <trkpt lat="48.02268" lon="10.3458">
        <ele>609.626597</ele>
        <time>2022-09-13T18:44:21.731Z</time>
      </trkpt>
      <trkpt lat="48.02253" lon="10.34529">
        <ele>608.737146</ele>
        <time>2022-09-13T18:44:29.070Z</time>
      </trkpt>
      <trkpt lat="48.02186" lon="10.34355">
        <ele>605.55018</ele>
        <time>2022-09-13T18:44:58.509Z</time>
      </trkpt>
      <trkpt lat="48.02185" lon="10.34351">
        <ele>605.480822</ele>
        <time>2022-09-13T18:44:59.368Z</time>
      </trkpt>
      <trkpt lat="48.02179" lon="10.34336">
        <ele>605.479779</ele>
        <time>2022-09-13T18:45:02.505Z</time>
      </trkpt>
      <trkpt lat="48.02173" lon="10.34324">
        <ele>605.478896</ele>
        <time>2022-09-13T18:45:05.184Z</time>
      </trkpt>
      <trkpt lat="48.02099" lon="10.34116">
        <ele>605.464839</ele>
        <time>2022-09-13T18:45:51.421Z</time>
      </trkpt>
      <trkpt lat="48.0209" lon="10.34038">
        <ele>605.41496</ele>
        <time>2022-09-13T18:46:06.824Z</time>
      </trkpt>
      <trkpt lat="48.02081" lon="10.3401">
        <ele>605.395767</ele>
        <time>2022-09-13T18:46:12.704Z</time>
      </trkpt>
      <trkpt lat="48.02051" lon="10.34033">
        <ele>605.363843</ele>
        <time>2022-09-13T18:46:22.020Z</time>
      </trkpt>
      <trkpt lat="48.02043" lon="10.34009">
        <ele>605.346538</ele>
        <time>2022-09-13T18:46:26.762Z</time>
      </trkpt>
      <trkpt lat="48.02033" lon="10.3398">
        <ele>605.326</ele>
        <time>2022-09-13T18:46:32.592Z</time>
      </trkpt>
      <trkpt lat="48.01906" lon="10.3373">
        <ele>604.646135</ele>
        <time>2022-09-13T18:47:26.610Z</time>
      </trkpt>
      <trkpt lat="48.01892" lon="10.33698">
        <ele>604.763966</ele>
        <time>2022-09-13T18:47:34.065Z</time>
      </trkpt>
      <trkpt lat="48.01897" lon="10.33687">
        <ele>604.817134</ele>
        <time>2022-09-13T18:47:36.914Z</time>
      </trkpt>
      <trkpt lat="48.01898" lon="10.33673">
        <ele>604.870411</ele>
        <time>2022-09-13T18:47:39.822Z</time>
      </trkpt>
      <trkpt lat="48.01896" lon="10.33667">
        <ele>604.897395</ele>
        <time>2022-09-13T18:47:41.186Z</time>
      </trkpt>
      <trkpt lat="48.01888" lon="10.33658">
        <ele>604.950615</ele>
        <time>2022-09-13T18:47:43.811Z</time>
      </trkpt>
      <trkpt lat="48.01874" lon="10.33662">
        <ele>605.028115</ele>
        <time>2022-09-13T18:47:47.954Z</time>
      </trkpt>
      <trkpt lat="48.01863" lon="10.3364">
        <ele>605.132991</ele>
        <time>2022-09-13T18:47:53.715Z</time>
      </trkpt>
      <trkpt lat="48.01837" lon="10.33585">
        <ele>605.383134</ele>
        <time>2022-09-13T18:48:07.562Z</time>
      </trkpt>
      <trkpt lat="48.01836" lon="10.33563">
        <ele>605.466988</ele>
        <time>2022-09-13T18:48:12.554Z</time>
      </trkpt>
      <trkpt lat="48.01844" lon="10.33547">
        <ele>605.540932</ele>
        <time>2022-09-13T18:48:16.627Z</time>
      </trkpt>
      <trkpt lat="48.01904" lon="10.33495">
        <ele>605.917221</ele>
        <time>2022-09-13T18:48:39.061Z</time>
      </trkpt>
      <trkpt lat="48.01914" lon="10.3347">
        <ele>606.020096</ele>
        <time>2022-09-13T18:48:45.201Z</time>
      </trkpt>
      <trkpt lat="48.01916" lon="10.33441">
        <ele>606.126287</ele>
        <time>2022-09-13T18:48:51.403Z</time>
      </trkpt>
      <trkpt lat="48.01877" lon="10.33311">
        <ele>606.618809</ele>
        <time>2022-09-13T18:49:18.695Z</time>
      </trkpt>
      <trkpt lat="48.01859" lon="10.331">
        <ele>607.034875</ele>
        <time>2022-09-13T18:50:00.417Z</time>
      </trkpt>
      <trkpt lat="48.01842" lon="10.33043">
        <ele>607.13921</ele>
        <time>2022-09-13T18:50:12.717Z</time>
      </trkpt>
      <trkpt lat="48.0182" lon="10.33009">
        <ele>607.168969</ele>
        <time>2022-09-13T18:50:21.914Z</time>
      </trkpt>
      <trkpt lat="48.01808" lon="10.33005">
        <ele>607.180648</ele>
        <time>2022-09-13T18:50:25.299Z</time>
      </trkpt>
      <trkpt lat="48.01756" lon="10.33001">
        <ele>607.230295</ele>
        <time>2022-09-13T18:50:40.431Z</time>
      </trkpt>
      <trkpt lat="48.01526" lon="10.32961">
        <ele>607.039957</ele>
        <time>2022-09-13T18:51:43.540Z</time>
      </trkpt>
      <trkpt lat="48.01533" lon="10.32777">
        <ele>606.568546</ele>
        <time>2022-09-13T18:52:14.785Z</time>
      </trkpt>
      <trkpt lat="48.01548" lon="10.32696">
        <ele>606.327031</ele>
        <time>2022-09-13T18:52:28.676Z</time>
      </trkpt>
      <trkpt lat="48.01564" lon="10.32646">
        <ele>606.120955</ele>
        <time>2022-09-13T18:52:37.666Z</time>
      </trkpt>
      <trkpt lat="48.01643" lon="10.32444">
        <ele>604.935514</ele>
        <time>2022-09-13T18:53:14.621Z</time>
      </trkpt>
      <trkpt lat="48.01661" lon="10.32356">
        <ele>604.593143</ele>
        <time>2022-09-13T18:53:29.471Z</time>
      </trkpt>
      <trkpt lat="48.01664" lon="10.32326">
        <ele>604.487893</ele>
        <time>2022-09-13T18:53:34.364Z</time>
      </trkpt>
      <trkpt lat="48.01655" lon="10.32134">
        <ele>603.91345</ele>
        <time>2022-09-13T18:54:06.515Z</time>
      </trkpt>
      <trkpt lat="48.01659" lon="10.32077">
        <ele>603.87556</ele>
        <time>2022-09-13T18:54:16.708Z</time>
      </trkpt>
      <trkpt lat="48.01687" lon="10.31985">
        <ele>603.808869</ele>
        <time>2022-09-13T18:54:34.839Z</time>
      </trkpt>
      <trkpt lat="48.01722" lon="10.31871">
        <ele>603.643887</ele>
        <time>2022-09-13T18:54:57.222Z</time>
      </trkpt>
      <trkpt lat="48.01563" lon="10.31699">
        <ele>602.986812</ele>
        <time>2022-09-13T18:55:45.958Z</time>
      </trkpt>
      <trkpt lat="48.0155" lon="10.3169">
        <ele>602.948436</ele>
        <time>2022-09-13T18:55:49.468Z</time>
      </trkpt>
      <trkpt lat="48.01474" lon="10.31644">
        <ele>602.721802</ele>
        <time>2022-09-13T18:56:10.512Z</time>
      </trkpt>
      <trkpt lat="48.01452" lon="10.31612">
        <ele>602.637767</ele>
        <time>2022-09-13T18:56:18.462Z</time>
      </trkpt>
      <trkpt lat="48.0144" lon="10.31573">
        <ele>602.741407</ele>
        <time>2022-09-13T18:56:25.997Z</time>
      </trkpt>
      <trkpt lat="48.01438" lon="10.31563">
        <ele>602.774318</ele>
        <time>2022-09-13T18:56:27.904Z</time>
      </trkpt>
      <trkpt lat="48.01418" lon="10.31514">
        <ele>602.950996</ele>
        <time>2022-09-13T18:56:38.275Z</time>
      </trkpt>
      <trkpt lat="48.01414" lon="10.31504">
        <ele>602.988172</ele>
        <time>2022-09-13T18:56:40.578Z</time>
      </trkpt>
      <trkpt lat="48.01411" lon="10.31498">
        <ele>603.011664</ele>
        <time>2022-09-13T18:56:42.008Z</time>
      </trkpt>
      <trkpt lat="48.0139" lon="10.31452">
        <ele>603.183303</ele>
        <time>2022-09-13T18:56:52.877Z</time>
      </trkpt>
      <trkpt lat="48.01287" lon="10.3113">
        <ele>605.334668</ele>
        <time>2022-09-13T18:58:07.185Z</time>
      </trkpt>
      <trkpt lat="48.01264" lon="10.31075">
        <ele>606.157978</ele>
        <time>2022-09-13T18:58:22.934Z</time>
      </trkpt>
      <trkpt lat="48.01249" lon="10.31006">
        <ele>607.07825</ele>
        <time>2022-09-13T18:58:41.140Z</time>
      </trkpt>
      <trkpt lat="48.01245" lon="10.30971">
        <ele>607.524782</ele>
        <time>2022-09-13T18:58:49.845Z</time>
      </trkpt>
      <trkpt lat="48.01242" lon="10.30938">
        <ele>607.942516</ele>
        <time>2022-09-13T18:58:58.379Z</time>
      </trkpt>
      <trkpt lat="48.01232" lon="10.30825">
        <ele>608.799147</ele>
        <time>2022-09-13T18:59:27.273Z</time>
      </trkpt>
      <trkpt lat="48.01232" lon="10.30726">
        <ele>608.871753</ele>
        <time>2022-09-13T18:59:47.826Z</time>
      </trkpt>
      <trkpt lat="48.01211" lon="10.30643">
        <ele>608.935519</ele>
        <time>2022-09-13T19:00:02.600Z</time>
      </trkpt>
      <trkpt lat="48.01196" lon="10.30517">
        <ele>607.527678</ele>
        <time>2022-09-13T19:00:21.416Z</time>
      </trkpt>
      <trkpt lat="48.01196" lon="10.30507">
        <ele>607.380989</ele>
        <time>2022-09-13T19:00:22.842Z</time>
      </trkpt>
      <trkpt lat="48.01195" lon="10.30477">
        <ele>606.943772</ele>
        <time>2022-09-13T19:00:27.134Z</time>
      </trkpt>
      <trkpt lat="48.01187" lon="10.30394">
        <ele>605.702525</ele>
        <time>2022-09-13T19:00:38.942Z</time>
      </trkpt>
      <trkpt lat="48.01213" lon="10.30382">
        <ele>605.101974</ele>
        <time>2022-09-13T19:00:44.718Z</time>
      </trkpt>
      <trkpt lat="48.01235" lon="10.30373">
        <ele>604.762909</ele>
        <time>2022-09-13T19:00:49.592Z</time>
      </trkpt>
      <trkpt lat="48.01267" lon="10.3036">
        <ele>604.334896</ele>
        <time>2022-09-13T19:00:57.151Z</time>
      </trkpt>
      <trkpt lat="48.01275" lon="10.3036">
        <ele>604.232865</ele>
        <time>2022-09-13T19:00:59.019Z</time>
      </trkpt>
      <trkpt lat="48.0132" lon="10.30337">
        <ele>603.621851</ele>
        <time>2022-09-13T19:01:10.411Z</time>
      </trkpt>
      <trkpt lat="48.01363" lon="10.3029">
        <ele>602.945669</ele>
        <time>2022-09-13T19:01:23.661Z</time>
      </trkpt>
      <trkpt lat="48.01398" lon="10.30262">
        <ele>602.578898</ele>
        <time>2022-09-13T19:01:33.595Z</time>
      </trkpt>
      <trkpt lat="48.01399" lon="10.30261">
        <ele>602.571558</ele>
        <time>2022-09-13T19:01:33.935Z</time>
      </trkpt>
      <trkpt lat="48.01455" lon="10.3023">
        <ele>602.238906</ele>
        <time>2022-09-13T19:01:49.273Z</time>
      </trkpt>
      <trkpt lat="48.01472" lon="10.30221">
        <ele>602.13912</ele>
        <time>2022-09-13T19:01:53.914Z</time>
      </trkpt>
      <trkpt lat="48.01506" lon="10.3021">
        <ele>601.948636</ele>
        <time>2022-09-13T19:02:02.830Z</time>
      </trkpt>
      <trkpt lat="48.01527" lon="10.30215">
        <ele>601.828743</ele>
        <time>2022-09-13T19:02:08.447Z</time>
      </trkpt>
      <trkpt lat="48.01526" lon="10.30203">
        <ele>601.782033</ele>
        <time>2022-09-13T19:02:10.663Z</time>
      </trkpt>
      <trkpt lat="48.01525" lon="10.30194">
        <ele>601.749801</ele>
        <time>2022-09-13T19:02:12.171Z</time>
      </trkpt>
      <trkpt lat="48.01517" lon="10.30168">
        <ele>601.660655</ele>
        <time>2022-09-13T19:02:17.039Z</time>
      </trkpt>
      <trkpt lat="48.01503" lon="10.30128">
        <ele>601.554449</ele>
        <time>2022-09-13T19:02:24.893Z</time>
      </trkpt>
      <trkpt lat="48.01483" lon="10.30094">
        <ele>601.452086</ele>
        <time>2022-09-13T19:02:32.387Z</time>
      </trkpt>
      <trkpt lat="48.01465" lon="10.30078">
        <ele>601.377926</ele>
        <time>2022-09-13T19:02:37.782Z</time>
      </trkpt>
      <trkpt lat="48.01442" lon="10.29998">
        <ele>601.17684</ele>
        <time>2022-09-13T19:02:52.719Z</time>
      </trkpt>
      <trkpt lat="48.01441" lon="10.29992">
        <ele>601.162331</ele>
        <time>2022-09-13T19:02:53.877Z</time>
      </trkpt>
      <trkpt lat="48.01438" lon="10.29972">
        <ele>601.117042</ele>
        <time>2022-09-13T19:02:57.409Z</time>
      </trkpt>
      <trkpt lat="48.01437" lon="10.29963">
        <ele>601.09419</ele>
        <time>2022-09-13T19:02:59.173Z</time>
      </trkpt>
      <trkpt lat="48.0143" lon="10.29786">
        <ele>602.391632</ele>
        <time>2022-09-13T19:03:35.730Z</time>
      </trkpt>
      <trkpt lat="48.01424" lon="10.29709">
        <ele>603.014961</ele>
        <time>2022-09-13T19:03:55.337Z</time>
      </trkpt>
      <trkpt lat="48.01421" lon="10.29692">
        <ele>603.155039</ele>
        <time>2022-09-13T19:03:59.667Z</time>
      </trkpt>
      <trkpt lat="48.01415" lon="10.2967">
        <ele>603.557001</ele>
        <time>2022-09-13T19:04:06.322Z</time>
      </trkpt>
      <trkpt lat="48.01414" lon="10.29659">
        <ele>603.784641</ele>
        <time>2022-09-13T19:04:09.168Z</time>
      </trkpt>
      <trkpt lat="48.01414" lon="10.29643">
        <ele>604.141668</ele>
        <time>2022-09-13T19:04:13.460Z</time>
      </trkpt>
      <trkpt lat="48.01421" lon="10.29611">
        <ele>604.866666</ele>
        <time>2022-09-13T19:04:23.144Z</time>
      </trkpt>
      <trkpt lat="48.01421" lon="10.29582">
        <ele>605.49247</ele>
        <time>2022-09-13T19:04:31.448Z</time>
      </trkpt>
      <trkpt lat="48.01397" lon="10.29527">
        <ele>606.902729</ele>
        <time>2022-09-13T19:04:51.376Z</time>
      </trkpt>
      <trkpt lat="48.01343" lon="10.2944">
        <ele>609.526433</ele>
        <time>2022-09-13T19:05:27.062Z</time>
      </trkpt>
      <trkpt lat="48.01317" lon="10.29412">
        <ele>610.748754</ele>
        <time>2022-09-13T19:05:41.158Z</time>
      </trkpt>
      <trkpt lat="48.01269" lon="10.29388">
        <ele>612.67352</ele>
        <time>2022-09-13T19:06:03.966Z</time>
      </trkpt>
      <trkpt lat="48.01221" lon="10.29321">
        <ele>615.179431</ele>
        <time>2022-09-13T19:06:34.702Z</time>
      </trkpt>
      <trkpt lat="48.01132" lon="10.29243">
        <ele>619.135692</ele>
        <time>2022-09-13T19:07:25.438Z</time>
      </trkpt>
      <trkpt lat="48.01076" lon="10.29204">
        <ele>621.473472</ele>
        <time>2022-09-13T19:07:50.876Z</time>
      </trkpt>
      <trkpt lat="48.01056" lon="10.29174">
        <ele>622.558477</ele>
        <time>2022-09-13T19:08:03.603Z</time>
      </trkpt>
      <trkpt lat="48.01051" lon="10.29156">
        <ele>623.124247</ele>
        <time>2022-09-13T19:08:09.015Z</time>
      </trkpt>
      <trkpt lat="48.01017" lon="10.29022">
        <ele>627.520139</ele>
        <time>2022-09-13T19:09:12.671Z</time>
      </trkpt>
      <trkpt lat="48.00996" lon="10.28951">
        <ele>629.891148</ele>
        <time>2022-09-13T19:09:47.543Z</time>
      </trkpt>
      <trkpt lat="48.00972" lon="10.28814">
        <ele>634.77433</ele>
        <time>2022-09-13T19:10:55.008Z</time>
      </trkpt>
      <trkpt lat="48.00947" lon="10.28456">
        <ele>645.955809</ele>
        <time>2022-09-13T19:13:43.533Z</time>
      </trkpt>
      <trkpt lat="48.00959" lon="10.28388">
        <ele>647.878928</ele>
        <time>2022-09-13T19:14:09.293Z</time>
      </trkpt>
      <trkpt lat="48.00964" lon="10.28353">
        <ele>647.82451</ele>
        <time>2022-09-13T19:14:20.353Z</time>
      </trkpt>
      <trkpt lat="48.00988" lon="10.2796">
        <ele>645.861725</ele>
        <time>2022-09-13T19:16:08.165Z</time>
      </trkpt>
      <trkpt lat="48.00992" lon="10.27861">
        <ele>644.985254</ele>
        <time>2022-09-13T19:16:35.408Z</time>
      </trkpt>
      <trkpt lat="48.01015" lon="10.2748">
        <ele>633.664204</ele>
        <time>2022-09-13T19:18:03.729Z</time>
      </trkpt>
      <trkpt lat="48.01018" lon="10.27426">
        <ele>631.109254</ele>
        <time>2022-09-13T19:18:14.484Z</time>
      </trkpt>
      <trkpt lat="48.01019" lon="10.2741">
        <ele>630.37226</ele>
        <time>2022-09-13T19:18:17.591Z</time>
      </trkpt>
      <trkpt lat="48.01021" lon="10.27369">
        <ele>628.450424</ele>
        <time>2022-09-13T19:18:25.723Z</time>
      </trkpt>
      <trkpt lat="48.01016" lon="10.27327">
        <ele>626.429421</ele>
        <time>2022-09-13T19:18:30.462Z</time>
      </trkpt>
      <trkpt lat="48.01007" lon="10.27209">
        <ele>621.278557</ele>
        <time>2022-09-13T19:18:43.717Z</time>
      </trkpt>
      <trkpt lat="48.00948" lon="10.27205">
        <ele>617.526103</ele>
        <time>2022-09-13T19:18:54.307Z</time>
      </trkpt>
      <trkpt lat="48.00897" lon="10.27204">
        <ele>614.402363</ele>
        <time>2022-09-13T19:19:04.731Z</time>
      </trkpt>
      <trkpt lat="48.00894" lon="10.27203">
        <ele>614.388447</ele>
        <time>2022-09-13T19:19:05.440Z</time>
      </trkpt>
      <trkpt lat="48.00876" lon="10.27196">
        <ele>614.30375</ele>
        <time>2022-09-13T19:19:09.737Z</time>
      </trkpt>
      <trkpt lat="48.00868" lon="10.27189">
        <ele>614.264451</ele>
        <time>2022-09-13T19:19:11.711Z</time>
      </trkpt>
      <trkpt lat="48.00847" lon="10.27172">
        <ele>614.155415</ele>
        <time>2022-09-13T19:19:18.090Z</time>
      </trkpt>
      <trkpt lat="48.0079" lon="10.27095">
        <ele>613.808825</ele>
        <time>2022-09-13T19:19:39.922Z</time>
      </trkpt>
      <trkpt lat="48.00766" lon="10.27075">
        <ele>613.685133</ele>
        <time>2022-09-13T19:19:48.071Z</time>
      </trkpt>
      <trkpt lat="48.00716" lon="10.26807">
        <ele>614.892344</ele>
        <time>2022-09-13T19:20:49.745Z</time>
      </trkpt>
      <trkpt lat="48.00709" lon="10.26752">
        <ele>614.78673</ele>
        <time>2022-09-13T19:20:59.856Z</time>
      </trkpt>
      <trkpt lat="48.00704" lon="10.26707">
        <ele>614.569473</ele>
        <time>2022-09-13T19:21:07.247Z</time>
      </trkpt>
      <trkpt lat="48.00692" lon="10.26675">
        <ele>614.39192</ele>
        <time>2022-09-13T19:21:13.129Z</time>
      </trkpt>
      <trkpt lat="48.00716" lon="10.26616">
        <ele>614.058939</ele>
        <time>2022-09-13T19:21:23.756Z</time>
      </trkpt>
      <trkpt lat="48.00744" lon="10.26546">
        <ele>613.677662</ele>
        <time>2022-09-13T19:21:36.203Z</time>
      </trkpt>
      <trkpt lat="48.00747" lon="10.26543">
        <ele>613.67593</ele>
        <time>2022-09-13T19:21:36.993Z</time>
      </trkpt>
      <trkpt lat="48.00751" lon="10.26536">
        <ele>613.67296</ele>
        <time>2022-09-13T19:21:38.420Z</time>
      </trkpt>
      <trkpt lat="48.00761" lon="10.26513">
        <ele>613.663417</ele>
        <time>2022-09-13T19:21:42.949Z</time>
      </trkpt>
      <trkpt lat="48.0076" lon="10.26488">
        <ele>613.65481</ele>
        <time>2022-09-13T19:21:47.121Z</time>
      </trkpt>
      <trkpt lat="48.00749" lon="10.26452">
        <ele>613.641565</ele>
        <time>2022-09-13T19:21:53.579Z</time>
      </trkpt>
      <trkpt lat="48.00724" lon="10.26411">
        <ele>613.622759</ele>
        <time>2022-09-13T19:22:03.257Z</time>
      </trkpt>
      <trkpt lat="48.00711" lon="10.26208">
        <ele>614.228287</ele>
        <time>2022-09-13T19:22:47.761Z</time>
      </trkpt>
      <trkpt lat="48.00689" lon="10.26095">
        <ele>614.984495</ele>
        <time>2022-09-13T19:23:14.157Z</time>
      </trkpt>
      <trkpt lat="48.00622" lon="10.25801">
        <ele>616.122471</ele>
        <time>2022-09-13T19:24:15.189Z</time>
      </trkpt>
      <trkpt lat="48.00568" lon="10.25544">
        <ele>616.095762</ele>
        <time>2022-09-13T19:25:01.829Z</time>
      </trkpt>
      <trkpt lat="48.00516" lon="10.25304">
        <ele>616.484516</ele>
        <time>2022-09-13T19:25:48.486Z</time>
      </trkpt>
      <trkpt lat="48.00443" lon="10.24964">
        <ele>617.650546</ele>
        <time>2022-09-13T19:26:58.488Z</time>
      </trkpt>
      <trkpt lat="48.00376" lon="10.24652">
        <ele>618.523954</ele>
        <time>2022-09-13T19:28:03.644Z</time>
      </trkpt>
      <trkpt lat="48.0036" lon="10.24408">
        <ele>618.284478</ele>
        <time>2022-09-13T19:28:44.405Z</time>
      </trkpt>
      <trkpt lat="48.00347" lon="10.24203">
        <ele>617.803744</ele>
        <time>2022-09-13T19:29:18.211Z</time>
      </trkpt>
      <trkpt lat="48.00343" lon="10.24187">
        <ele>617.819656</ele>
        <time>2022-09-13T19:29:21.193Z</time>
      </trkpt>
      <trkpt lat="48.00207" lon="10.24182">
        <ele>618.010671</ele>
        <time>2022-09-13T19:29:59.136Z</time>
      </trkpt>
      <trkpt lat="48.00127" lon="10.2385">
        <ele>619.256448</ele>
        <time>2022-09-13T19:31:09.067Z</time>
      </trkpt>
      <trkpt lat="48.00058" lon="10.2357">
        <ele>620.272686</ele>
        <time>2022-09-13T19:32:04.696Z</time>
      </trkpt>
      <trkpt lat="47.99961" lon="10.23286">
        <ele>622.074121</ele>
        <time>2022-09-13T19:33:13.541Z</time>
      </trkpt>
      <trkpt lat="47.99858" lon="10.22983">
        <ele>623.397864</ele>
        <time>2022-09-13T19:34:20.824Z</time>
      </trkpt>
      <trkpt lat="47.99775" lon="10.22667">
        <ele>623.184502</ele>
        <time>2022-09-13T19:35:18.709Z</time>
      </trkpt>
      <trkpt lat="47.99683" lon="10.22322">
        <ele>623.36635</ele>
        <time>2022-09-13T19:36:25.740Z</time>
      </trkpt>
      <trkpt lat="47.99637" lon="10.22144">
        <ele>623.74829</ele>
        <time>2022-09-13T19:37:02.162Z</time>
      </trkpt>
      <trkpt lat="47.99638" lon="10.22125">
        <ele>623.808817</ele>
        <time>2022-09-13T19:37:06.077Z</time>
      </trkpt>
      <trkpt lat="47.9964" lon="10.22116">
        <ele>623.838565</ele>
        <time>2022-09-13T19:37:07.728Z</time>
      </trkpt>
      <trkpt lat="47.99575" lon="10.22048">
        <ele>624.223726</ele>
        <time>2022-09-13T19:37:30.985Z</time>
      </trkpt>
      <trkpt lat="47.99528" lon="10.22009">
        <ele>624.477541</ele>
        <time>2022-09-13T19:37:46.585Z</time>
      </trkpt>
      <trkpt lat="47.99413" lon="10.21954">
        <ele>624.798597</ele>
        <time>2022-09-13T19:38:20.531Z</time>
      </trkpt>
      <trkpt lat="47.9937" lon="10.21924">
        <ele>624.924374</ele>
        <time>2022-09-13T19:38:34.151Z</time>
      </trkpt>
      <trkpt lat="47.99329" lon="10.21887">
        <ele>624.854275</ele>
        <time>2022-09-13T19:38:46.849Z</time>
      </trkpt>
      <trkpt lat="47.99266" lon="10.21814">
        <ele>624.666212</ele>
        <time>2022-09-13T19:39:06.100Z</time>
      </trkpt>
      <trkpt lat="47.99189" lon="10.21725">
        <ele>624.380288</ele>
        <time>2022-09-13T19:39:31.511Z</time>
      </trkpt>
      <trkpt lat="47.9917" lon="10.21703">
        <ele>624.290341</ele>
        <time>2022-09-13T19:39:38.559Z</time>
      </trkpt>
      <trkpt lat="47.99151" lon="10.21682">
        <ele>624.198869</ele>
        <time>2022-09-13T19:39:44.784Z</time>
      </trkpt>
      <trkpt lat="47.99141" lon="10.21679">
        <ele>624.161541</ele>
        <time>2022-09-13T19:39:47.021Z</time>
      </trkpt>
      <trkpt lat="47.99117" lon="10.21691">
        <ele>624.063284</ele>
        <time>2022-09-13T19:39:53.356Z</time>
      </trkpt>
      <trkpt lat="47.99098" lon="10.21664">
        <ele>623.962523</ele>
        <time>2022-09-13T19:39:59.723Z</time>
      </trkpt>
      <trkpt lat="47.9909" lon="10.21672">
        <ele>623.926801</ele>
        <time>2022-09-13T19:40:02.429Z</time>
      </trkpt>
      <trkpt lat="47.99073" lon="10.21636">
        <ele>623.774027</ele>
        <time>2022-09-13T19:40:09.323Z</time>
      </trkpt>
      <trkpt lat="47.99061" lon="10.21649">
        <ele>623.594306</ele>
        <time>2022-09-13T19:40:13.170Z</time>
      </trkpt>
      <trkpt lat="47.9905" lon="10.21595">
        <ele>623.136111</ele>
        <time>2022-09-13T19:40:22.205Z</time>
      </trkpt>
      <trkpt lat="47.99034" lon="10.21561">
        <ele>622.812971</ele>
        <time>2022-09-13T19:40:28.675Z</time>
      </trkpt>
      <trkpt lat="47.99032" lon="10.21528">
        <ele>622.545378</ele>
        <time>2022-09-13T19:40:33.558Z</time>
      </trkpt>
      <trkpt lat="47.99026" lon="10.21517">
        <ele>622.429454</ele>
        <time>2022-09-13T19:40:36.017Z</time>
      </trkpt>
      <trkpt lat="47.99026" lon="10.21506">
        <ele>622.341806</ele>
        <time>2022-09-13T19:40:37.570Z</time>
      </trkpt>
      <trkpt lat="47.99021" lon="10.21506">
        <ele>622.287008</ele>
        <time>2022-09-13T19:40:38.566Z</time>
      </trkpt>
      <trkpt lat="47.99019" lon="10.21491">
        <ele>622.167031</ele>
        <time>2022-09-13T19:40:40.761Z</time>
      </trkpt>
      <trkpt lat="47.99003" lon="10.21466">
        <ele>621.891175</ele>
        <time>2022-09-13T19:40:45.852Z</time>
      </trkpt>
      <trkpt lat="47.98965" lon="10.21412">
        <ele>620.916651</ele>
        <time>2022-09-13T19:40:56.944Z</time>
      </trkpt>
      <trkpt lat="47.98922" lon="10.21352">
        <ele>619.637308</ele>
        <time>2022-09-13T19:41:09.277Z</time>
      </trkpt>
      <trkpt lat="47.98912" lon="10.21333">
        <ele>619.276665</ele>
        <time>2022-09-13T19:41:12.711Z</time>
      </trkpt>
      <trkpt lat="47.98897" lon="10.21282">
        <ele>618.473944</ele>
        <time>2022-09-13T19:41:20.323Z</time>
      </trkpt>
      <trkpt lat="47.98891" lon="10.21257">
        <ele>618.076114</ele>
        <time>2022-09-13T19:41:24.125Z</time>
      </trkpt>
      <trkpt lat="47.98867" lon="10.21152">
        <ele>615.536139</ele>
        <time>2022-09-13T19:41:38.961Z</time>
      </trkpt>
      <trkpt lat="47.98834" lon="10.21051">
        <ele>612.761972</ele>
        <time>2022-09-13T19:41:52.995Z</time>
      </trkpt>
      <trkpt lat="47.98824" lon="10.21025">
        <ele>612.020989</ele>
        <time>2022-09-13T19:41:56.632Z</time>
      </trkpt>
      <trkpt lat="47.9882" lon="10.21014">
        <ele>611.692049</ele>
        <time>2022-09-13T19:41:58.245Z</time>
      </trkpt>
      <trkpt lat="47.98756" lon="10.20846">
        <ele>606.811907</ele>
        <time>2022-09-13T19:42:22.308Z</time>
      </trkpt>
      <trkpt lat="47.98754" lon="10.2084">
        <ele>606.634807</ele>
        <time>2022-09-13T19:42:23.274Z</time>
      </trkpt>
      <trkpt lat="47.98713" lon="10.20751">
        <ele>604.047089</ele>
        <time>2022-09-13T19:42:38.139Z</time>
      </trkpt>
      <trkpt lat="47.98693" lon="10.20767">
        <ele>603.526011</ele>
        <time>2022-09-13T19:42:42.721Z</time>
      </trkpt>
      <trkpt lat="47.9868" lon="10.20765">
        <ele>603.227908</ele>
        <time>2022-09-13T19:42:45.389Z</time>
      </trkpt>
      <trkpt lat="47.98631" lon="10.20692">
        <ele>601.648619</ele>
        <time>2022-09-13T19:42:59.870Z</time>
      </trkpt>
      <trkpt lat="47.98624" lon="10.20674">
        <ele>601.330186</ele>
        <time>2022-09-13T19:43:02.821Z</time>
      </trkpt>
      <trkpt lat="47.98622" lon="10.20645">
        <ele>600.894395</ele>
        <time>2022-09-13T19:43:06.822Z</time>
      </trkpt>
      <trkpt lat="47.9862" lon="10.20631">
        <ele>600.667945</ele>
        <time>2022-09-13T19:43:08.857Z</time>
      </trkpt>
      <trkpt lat="47.98598" lon="10.20597">
        <ele>600.033235</ele>
        <time>2022-09-13T19:43:15.510Z</time>
      </trkpt>
      <trkpt lat="47.9859" lon="10.20571">
        <ele>599.748847</ele>
        <time>2022-09-13T19:43:19.744Z</time>
      </trkpt>
      <trkpt lat="47.98582" lon="10.20472">
        <ele>598.77429</ele>
        <time>2022-09-13T19:43:34.341Z</time>
      </trkpt>
      <trkpt lat="47.98578" lon="10.20412">
        <ele>598.193028</ele>
        <time>2022-09-13T19:43:43.263Z</time>
      </trkpt>
      <trkpt lat="47.98578" lon="10.20402">
        <ele>598.091631</ele>
        <time>2022-09-13T19:43:44.864Z</time>
      </trkpt>
      <trkpt lat="47.98578" lon="10.20395">
        <ele>598.025297</ele>
        <time>2022-09-13T19:43:45.907Z</time>
      </trkpt>
      <trkpt lat="47.98587" lon="10.20336">
        <ele>597.517487</ele>
        <time>2022-09-13T19:43:55.125Z</time>
      </trkpt>
      <trkpt lat="47.98579" lon="10.20273">
        <ele>597.331788</ele>
        <time>2022-09-13T19:44:05.007Z</time>
      </trkpt>
      <trkpt lat="47.98578" lon="10.20264">
        <ele>597.304068</ele>
        <time>2022-09-13T19:44:06.518Z</time>
      </trkpt>
      <trkpt lat="47.98569" lon="10.20223">
        <ele>597.179377</ele>
        <time>2022-09-13T19:44:13.656Z</time>
      </trkpt>
      <trkpt lat="47.98567" lon="10.20202">
        <ele>597.115556</ele>
        <time>2022-09-13T19:44:17.537Z</time>
      </trkpt>
      <trkpt lat="47.98552" lon="10.20099">
        <ele>596.809964</ele>
        <time>2022-09-13T19:44:37.295Z</time>
      </trkpt>
      <trkpt lat="47.98535" lon="10.19968">
        <ele>597.038986</ele>
        <time>2022-09-13T19:45:01.753Z</time>
      </trkpt>
      <trkpt lat="47.98517" lon="10.19891">
        <ele>597.221754</ele>
        <time>2022-09-13T19:45:17.698Z</time>
      </trkpt>
      <trkpt lat="47.9851" lon="10.19848">
        <ele>597.320812</ele>
        <time>2022-09-13T19:45:27.600Z</time>
      </trkpt>
      <trkpt lat="47.98512" lon="10.19796">
        <ele>597.423511</ele>
        <time>2022-09-13T19:45:39.300Z</time>
      </trkpt>
      <trkpt lat="47.98525" lon="10.19718">
        <ele>597.566816</ele>
        <time>2022-09-13T19:45:56.065Z</time>
      </trkpt>
      <trkpt lat="47.98529" lon="10.19692">
        <ele>597.613368</ele>
        <time>2022-09-13T19:46:00.752Z</time>
      </trkpt>
      <trkpt lat="47.98537" lon="10.19624">
        <ele>597.735636</ele>
        <time>2022-09-13T19:46:13.177Z</time>
      </trkpt>
      <trkpt lat="47.98543" lon="10.19563">
        <ele>597.84418</ele>
        <time>2022-09-13T19:46:24.286Z</time>
      </trkpt>
      <trkpt lat="47.98557" lon="10.19462">
        <ele>597.658019</ele>
        <time>2022-09-13T19:46:43.273Z</time>
      </trkpt>
      <trkpt lat="47.98524" lon="10.19428">
        <ele>597.545305</ele>
        <time>2022-09-13T19:46:53.730Z</time>
      </trkpt>
      <trkpt lat="47.98557" lon="10.19345">
        <ele>597.364144</ele>
        <time>2022-09-13T19:47:09.240Z</time>
      </trkpt>
      <trkpt lat="47.9858" lon="10.1925">
        <ele>597.331428</ele>
        <time>2022-09-13T19:47:26.597Z</time>
      </trkpt>
      <trkpt lat="47.98634" lon="10.19186">
        <ele>597.320099</ele>
        <time>2022-09-13T19:47:44.917Z</time>
      </trkpt>
      <trkpt lat="47.98693" lon="10.19123">
        <ele>597.408732</ele>
        <time>2022-09-13T19:48:05.423Z</time>
      </trkpt>
      <trkpt lat="47.98698" lon="10.19117">
        <ele>597.439575</ele>
        <time>2022-09-13T19:48:07.277Z</time>
      </trkpt>
      <trkpt lat="47.98706" lon="10.19111">
        <ele>597.481998</ele>
        <time>2022-09-13T19:48:09.793Z</time>
      </trkpt>
      <trkpt lat="47.9872" lon="10.191">
        <ele>597.55335</ele>
        <time>2022-09-13T19:48:14.181Z</time>
      </trkpt>
      <trkpt lat="47.98726" lon="10.19095">
        <ele>597.583981</ele>
        <time>2022-09-13T19:48:16.055Z</time>
      </trkpt>
      <trkpt lat="47.98772" lon="10.19063">
        <ele>597.822614</ele>
        <time>2022-09-13T19:48:30.790Z</time>
      </trkpt>
      <trkpt lat="47.98782" lon="10.19058">
        <ele>597.869255</ele>
        <time>2022-09-13T19:48:33.744Z</time>
      </trkpt>
      <trkpt lat="47.98779" lon="10.19045">
        <ele>597.910855</ele>
        <time>2022-09-13T19:48:36.394Z</time>
      </trkpt>
      <trkpt lat="47.98765" lon="10.18973">
        <ele>598.143709</ele>
        <time>2022-09-13T19:48:51.492Z</time>
      </trkpt>
      <trkpt lat="47.98752" lon="10.18911">
        <ele>598.386604</ele>
        <time>2022-09-13T19:49:04.450Z</time>
      </trkpt>
      <trkpt lat="47.98743" lon="10.18866">
        <ele>598.562256</ele>
        <time>2022-09-13T19:49:13.501Z</time>
      </trkpt>
      <trkpt lat="47.98732" lon="10.18814">
        <ele>598.769214</ele>
        <time>2022-09-13T19:49:23.988Z</time>
      </trkpt>
      <trkpt lat="47.98733" lon="10.18805">
        <ele>598.803278</ele>
        <time>2022-09-13T19:49:25.830Z</time>
      </trkpt>
      <trkpt lat="47.98733" lon="10.18797">
        <ele>598.832935</ele>
        <time>2022-09-13T19:49:27.289Z</time>
      </trkpt>
      <trkpt lat="47.98726" lon="10.18766">
        <ele>598.953867</ele>
        <time>2022-09-13T19:49:33.487Z</time>
      </trkpt>
      <trkpt lat="47.98729" lon="10.1874">
        <ele>599.055202</ele>
        <time>2022-09-13T19:49:38.895Z</time>
      </trkpt>
      <trkpt lat="47.98717" lon="10.18723">
        <ele>599.14917</ele>
        <time>2022-09-13T19:49:43.970Z</time>
      </trkpt>
      <trkpt lat="47.98712" lon="10.18686">
        <ele>599.276467</ele>
        <time>2022-09-13T19:49:51.864Z</time>
      </trkpt>
      <trkpt lat="47.98712" lon="10.18684">
        <ele>599.284025</ele>
        <time>2022-09-13T19:49:52.316Z</time>
      </trkpt>
      <trkpt lat="47.98713" lon="10.18674">
        <ele>599.317972</ele>
        <time>2022-09-13T19:49:54.408Z</time>
      </trkpt>
      <trkpt lat="47.98703" lon="10.18657">
        <ele>599.395889</ele>
        <time>2022-09-13T19:49:59.246Z</time>
      </trkpt>
      <trkpt lat="47.98704" lon="10.18639">
        <ele>599.457988</ele>
        <time>2022-09-13T19:50:02.639Z</time>
      </trkpt>
      <trkpt lat="47.98703" lon="10.18635">
        <ele>599.46928</ele>
        <time>2022-09-13T19:50:03.674Z</time>
      </trkpt>
      <trkpt lat="47.987" lon="10.18623">
        <ele>599.514478</ele>
        <time>2022-09-13T19:50:07.891Z</time>
      </trkpt>
      <trkpt lat="47.98696" lon="10.18606">
        <ele>599.575518</ele>
        <time>2022-09-13T19:50:13.620Z</time>
      </trkpt>
      <trkpt lat="47.98692" lon="10.18611">
        <ele>599.601251</ele>
        <time>2022-09-13T19:50:15.268Z</time>
      </trkpt>
      <trkpt lat="47.98675" lon="10.18507">
        <ele>599.965437</ele>
        <time>2022-09-13T19:50:40.619Z</time>
      </trkpt>
      <trkpt lat="47.98671" lon="10.1848">
        <ele>600.061014</ele>
        <time>2022-09-13T19:50:47.965Z</time>
      </trkpt>
      <trkpt lat="47.98659" lon="10.18415">
        <ele>600.385205</ele>
        <time>2022-09-13T19:51:06.199Z</time>
      </trkpt>
      <trkpt lat="47.98656" lon="10.18396">
        <ele>600.48034</ele>
        <time>2022-09-13T19:51:11.416Z</time>
      </trkpt>
      <trkpt lat="47.9865" lon="10.18367">
        <ele>600.626539</ele>
        <time>2022-09-13T19:51:18.344Z</time>
      </trkpt>
      <trkpt lat="47.98648" lon="10.18356">
        <ele>600.681918</ele>
        <time>2022-09-13T19:51:21.416Z</time>
      </trkpt>
      <trkpt lat="47.98643" lon="10.18335">
        <ele>600.788437</ele>
        <time>2022-09-13T19:51:27.333Z</time>
      </trkpt>
      <trkpt lat="47.98638" lon="10.18302">
        <ele>600.953209</ele>
        <time>2022-09-13T19:51:35.947Z</time>
      </trkpt>
      <trkpt lat="47.98628" lon="10.18249">
        <ele>601.219415</ele>
        <time>2022-09-13T19:51:49.043Z</time>
      </trkpt>
      <trkpt lat="47.98617" lon="10.18208">
        <ele>601.364363</ele>
        <time>2022-09-13T19:52:00.179Z</time>
      </trkpt>
      <trkpt lat="47.98623" lon="10.18135">
        <ele>601.362649</ele>
        <time>2022-09-13T19:52:19.223Z</time>
      </trkpt>
      <trkpt lat="47.98626" lon="10.18082">
        <ele>601.36144</ele>
        <time>2022-09-13T19:52:31.958Z</time>
      </trkpt>
      <trkpt lat="47.98626" lon="10.18065">
        <ele>601.361045</ele>
        <time>2022-09-13T19:52:36.306Z</time>
      </trkpt>
      <trkpt lat="47.98626" lon="10.18062">
        <ele>601.360961</ele>
        <time>2022-09-13T19:52:37.232Z</time>
      </trkpt>
      <trkpt lat="47.98625" lon="10.18058">
        <ele>601.360858</ele>
        <time>2022-09-13T19:52:38.217Z</time>
      </trkpt>
      <trkpt lat="47.98622" lon="10.18038">
        <ele>601.360406</ele>
        <time>2022-09-13T19:52:42.416Z</time>
      </trkpt>
      <trkpt lat="47.98613" lon="10.17999">
        <ele>601.359435</ele>
        <time>2022-09-13T19:52:51.971Z</time>
      </trkpt>
      <trkpt lat="47.98602" lon="10.1796">
        <ele>601.358472</ele>
        <time>2022-09-13T19:53:00.951Z</time>
      </trkpt>
      <trkpt lat="47.98591" lon="10.17974">
        <ele>601.303953</ele>
        <time>2022-09-13T19:53:03.976Z</time>
      </trkpt>
      <trkpt lat="47.98575" lon="10.17982">
        <ele>601.236367</ele>
        <time>2022-09-13T19:53:08.104Z</time>
      </trkpt>
      <trkpt lat="47.98553" lon="10.17988">
        <ele>601.148478</ele>
        <time>2022-09-13T19:53:13.106Z</time>
      </trkpt>
      <trkpt lat="47.98519" lon="10.17998">
        <ele>601.010228</ele>
        <time>2022-09-13T19:53:21.499Z</time>
      </trkpt>
      <trkpt lat="47.98502" lon="10.18">
        <ele>600.941111</ele>
        <time>2022-09-13T19:53:26.241Z</time>
      </trkpt>
      <trkpt lat="47.98485" lon="10.18">
        <ele>600.875725</ele>
        <time>2022-09-13T19:53:30.129Z</time>
      </trkpt>
      <trkpt lat="47.98472" lon="10.17999">
        <ele>600.824562</ele>
        <time>2022-09-13T19:53:33.320Z</time>
      </trkpt>
      <trkpt lat="47.98457" lon="10.17996">
        <ele>600.764984</ele>
        <time>2022-09-13T19:53:36.977Z</time>
      </trkpt>
      <trkpt lat="47.98449" lon="10.17992">
        <ele>600.728753</ele>
        <time>2022-09-13T19:53:39.174Z</time>
      </trkpt>
      <trkpt lat="47.98443" lon="10.17987">
        <ele>600.700959</ele>
        <time>2022-09-13T19:53:41.549Z</time>
      </trkpt>
      <trkpt lat="47.9844" lon="10.17985">
        <ele>600.688772</ele>
        <time>2022-09-13T19:53:42.603Z</time>
      </trkpt>
      <trkpt lat="47.98384" lon="10.17947">
        <ele>601.359805</ele>
        <time>2022-09-13T19:54:01.735Z</time>
      </trkpt>
      <trkpt lat="47.98365" lon="10.17946">
        <ele>601.630944</ele>
        <time>2022-09-13T19:54:08.411Z</time>
      </trkpt>
      <trkpt lat="47.98325" lon="10.17949">
        <ele>602.20205</ele>
        <time>2022-09-13T19:54:22.663Z</time>
      </trkpt>
      <trkpt lat="47.98311" lon="10.17941">
        <ele>602.409734</ele>
        <time>2022-09-13T19:54:28.102Z</time>
      </trkpt>
      <trkpt lat="47.98296" lon="10.17914">
        <ele>602.750758</ele>
        <time>2022-09-13T19:54:36.777Z</time>
      </trkpt>
      <trkpt lat="47.98292" lon="10.17908">
        <ele>602.82468</ele>
        <time>2022-09-13T19:54:38.699Z</time>
      </trkpt>
      <trkpt lat="47.98286" lon="10.17893">
        <ele>602.985983</ele>
        <time>2022-09-13T19:54:42.857Z</time>
      </trkpt>
      <trkpt lat="47.98283" lon="10.17885">
        <ele>603.080819</ele>
        <time>2022-09-13T19:54:45.337Z</time>
      </trkpt>
      <trkpt lat="47.98248" lon="10.17834">
        <ele>603.59268</ele>
        <time>2022-09-13T19:55:01.860Z</time>
      </trkpt>
      <trkpt lat="47.98239" lon="10.17823">
        <ele>603.710406</ele>
        <time>2022-09-13T19:55:05.972Z</time>
      </trkpt>
      <trkpt lat="47.98211" lon="10.17786">
        <ele>604.072012</ele>
        <time>2022-09-13T19:55:18.174Z</time>
      </trkpt>
      <trkpt lat="47.98205" lon="10.17773">
        <ele>604.178214</ele>
        <time>2022-09-13T19:55:21.857Z</time>
      </trkpt>
      <trkpt lat="47.98175" lon="10.177">
        <ele>604.740028</ele>
        <time>2022-09-13T19:55:38.806Z</time>
      </trkpt>
      <trkpt lat="47.98148" lon="10.17653">
        <ele>604.884306</ele>
        <time>2022-09-13T19:55:49.728Z</time>
      </trkpt>
      <trkpt lat="47.98106" lon="10.17594">
        <ele>604.661849</ele>
        <time>2022-09-13T19:56:04.156Z</time>
      </trkpt>
      <trkpt lat="47.9808" lon="10.17529">
        <ele>604.466074</ele>
        <time>2022-09-13T19:56:16.715Z</time>
      </trkpt>
      <trkpt lat="47.98081" lon="10.17515">
        <ele>604.430772</ele>
        <time>2022-09-13T19:56:18.978Z</time>
      </trkpt>
      <trkpt lat="47.98036" lon="10.17366">
        <ele>603.947582</ele>
        <time>2022-09-13T19:56:45.645Z</time>
      </trkpt>
      <trkpt lat="47.98039" lon="10.17355">
        <ele>603.912646</ele>
        <time>2022-09-13T19:56:47.417Z</time>
      </trkpt>
      <trkpt lat="47.98036" lon="10.17343">
        <ele>603.871328</ele>
        <time>2022-09-13T19:56:49.520Z</time>
      </trkpt>
      <trkpt lat="47.98034" lon="10.17332">
        <ele>603.833047</ele>
        <time>2022-09-13T19:56:51.475Z</time>
      </trkpt>
      <trkpt lat="47.98028" lon="10.17324">
        <ele>603.795839</ele>
        <time>2022-09-13T19:56:53.311Z</time>
      </trkpt>
      <trkpt lat="47.98006" lon="10.1724">
        <ele>603.506316</ele>
        <time>2022-09-13T19:57:08.300Z</time>
      </trkpt>
      <trkpt lat="47.97976" lon="10.17137">
        <ele>603.262844</ele>
        <time>2022-09-13T19:57:28.088Z</time>
      </trkpt>
      <trkpt lat="47.97935" lon="10.17001">
        <ele>602.998993</ele>
        <time>2022-09-13T19:57:52.637Z</time>
      </trkpt>
      <trkpt lat="47.97935" lon="10.16979">
        <ele>602.961113</ele>
        <time>2022-09-13T19:57:56.299Z</time>
      </trkpt>
      <trkpt lat="47.97927" lon="10.16947">
        <ele>603.093778</ele>
        <time>2022-09-13T19:58:02.556Z</time>
      </trkpt>
      <trkpt lat="47.97926" lon="10.16942">
        <ele>603.141677</ele>
        <time>2022-09-13T19:58:03.461Z</time>
      </trkpt>
      <trkpt lat="47.97912" lon="10.16908">
        <ele>603.519565</ele>
        <time>2022-09-13T19:58:10.920Z</time>
      </trkpt>
      <trkpt lat="47.97897" lon="10.16862">
        <ele>604.006665</ele>
        <time>2022-09-13T19:58:20.963Z</time>
      </trkpt>
      <trkpt lat="47.9789" lon="10.16822">
        <ele>604.400002</ele>
        <time>2022-09-13T19:58:29.713Z</time>
      </trkpt>
      <trkpt lat="47.97875" lon="10.16792">
        <ele>604.755451</ele>
        <time>2022-09-13T19:58:38.112Z</time>
      </trkpt>
      <trkpt lat="47.97845" lon="10.16638">
        <ele>607.665844</ele>
        <time>2022-09-13T19:59:23.486Z</time>
      </trkpt>
      <trkpt lat="47.97816" lon="10.1646">
        <ele>612.417661</ele>
        <time>2022-09-13T20:00:22.546Z</time>
      </trkpt>
      <trkpt lat="47.97811" lon="10.16435">
        <ele>612.815275</ele>
        <time>2022-09-13T20:00:30.776Z</time>
      </trkpt>
      <trkpt lat="47.97782" lon="10.16312">
        <ele>614.636832</ele>
        <time>2022-09-13T20:01:05.917Z</time>
      </trkpt>
      <trkpt lat="47.97738" lon="10.16173">
        <ele>616.175467</ele>
        <time>2022-09-13T20:01:36.198Z</time>
      </trkpt>
      <trkpt lat="47.97735" lon="10.16156">
        <ele>616.151378</ele>
        <time>2022-09-13T20:01:39.211Z</time>
      </trkpt>
      <trkpt lat="47.97732" lon="10.1614">
        <ele>616.12769</ele>
        <time>2022-09-13T20:01:42.114Z</time>
      </trkpt>
      <trkpt lat="47.97723" lon="10.16141">
        <ele>616.107369</ele>
        <time>2022-09-13T20:01:44.577Z</time>
      </trkpt>
      <trkpt lat="47.9768" lon="10.16045">
        <ele>615.948144</ele>
        <time>2022-09-13T20:02:04.240Z</time>
      </trkpt>
      <trkpt lat="47.97667" lon="10.16016">
        <ele>615.899328</ele>
        <time>2022-09-13T20:02:10.326Z</time>
      </trkpt>
      <trkpt lat="47.97629" lon="10.15931">
        <ele>614.859991</ele>
        <time>2022-09-13T20:02:26.501Z</time>
      </trkpt>
      <trkpt lat="47.97604" lon="10.15867">
        <ele>613.828963</ele>
        <time>2022-09-13T20:02:37.424Z</time>
      </trkpt>
      <trkpt lat="47.97602" lon="10.15835">
        <ele>613.383898</ele>
        <time>2022-09-13T20:02:41.963Z</time>
      </trkpt>
      <trkpt lat="47.97538" lon="10.15619">
        <ele>608.382972</ele>
        <time>2022-09-13T20:03:12.069Z</time>
      </trkpt>
      <trkpt lat="47.97518" lon="10.1557">
        <ele>606.887575</ele>
        <time>2022-09-13T20:03:19.151Z</time>
      </trkpt>
      <trkpt lat="47.975" lon="10.15538">
        <ele>605.802217</ele>
        <time>2022-09-13T20:03:24.336Z</time>
      </trkpt>
      <trkpt lat="47.9749" lon="10.15548">
        <ele>605.366458</ele>
        <time>2022-09-13T20:03:26.567Z</time>
      </trkpt>
      <trkpt lat="47.97483" lon="10.15556">
        <ele>605.12763</ele>
        <time>2022-09-13T20:03:28.244Z</time>
      </trkpt>
      <trkpt lat="47.97475" lon="10.15534">
        <ele>604.910128</ele>
        <time>2022-09-13T20:03:31.414Z</time>
      </trkpt>
      <trkpt lat="47.97427" lon="10.1544">
        <ele>603.882584</ele>
        <time>2022-09-13T20:03:47.649Z</time>
      </trkpt>
      <trkpt lat="47.97416" lon="10.15417">
        <ele>603.63193</ele>
        <time>2022-09-13T20:03:51.868Z</time>
      </trkpt>
      <trkpt lat="47.97375" lon="10.15317">
        <ele>603.355622</ele>
        <time>2022-09-13T20:04:16.018Z</time>
      </trkpt>
      <trkpt lat="47.97367" lon="10.15311">
        <ele>603.634006</ele>
        <time>2022-09-13T20:04:19.431Z</time>
      </trkpt>
      <trkpt lat="47.97286" lon="10.15101">
        <ele>608.435195</ele>
        <time>2022-09-13T20:05:30.005Z</time>
      </trkpt>
      <trkpt lat="47.97242" lon="10.15008">
        <ele>610.606014</ele>
        <time>2022-09-13T20:06:03.258Z</time>
      </trkpt>
      <trkpt lat="47.97104" lon="10.14778">
        <ele>615.447361</ele>
        <time>2022-09-13T20:07:20.138Z</time>
      </trkpt>
      <trkpt lat="47.97088" lon="10.14745">
        <ele>615.989406</ele>
        <time>2022-09-13T20:07:29.410Z</time>
      </trkpt>
      <trkpt lat="47.97085" lon="10.14726">
        <ele>616.250927</ele>
        <time>2022-09-13T20:07:34.653Z</time>
      </trkpt>
      <trkpt lat="47.97076" lon="10.14699">
        <ele>616.638586</ele>
        <time>2022-09-13T20:07:41.018Z</time>
      </trkpt>
      <trkpt lat="47.97058" lon="10.14666">
        <ele>617.070665</ele>
        <time>2022-09-13T20:07:51.162Z</time>
      </trkpt>
      <trkpt lat="47.96776" lon="10.14205">
        <ele>622.127957</ele>
        <time>2022-09-13T20:10:07.909Z</time>
      </trkpt>
      <trkpt lat="47.96604" lon="10.13924">
        <ele>623.619757</ele>
        <time>2022-09-13T20:11:21.245Z</time>
      </trkpt>
      <trkpt lat="47.96551" lon="10.13838">
        <ele>623.887652</ele>
        <time>2022-09-13T20:11:44.323Z</time>
      </trkpt>
      <trkpt lat="47.9648" lon="10.13723">
        <ele>624.187652</ele>
        <time>2022-09-13T20:12:13.907Z</time>
      </trkpt>
      <trkpt lat="47.96386" lon="10.13564">
        <ele>623.963532</ele>
        <time>2022-09-13T20:12:50.262Z</time>
      </trkpt>
      <trkpt lat="47.96374" lon="10.13545">
        <ele>623.921137</ele>
        <time>2022-09-13T20:12:54.679Z</time>
      </trkpt>
      <trkpt lat="47.96294" lon="10.13386">
        <ele>623.688631</ele>
        <time>2022-09-13T20:13:28.568Z</time>
      </trkpt>
      <trkpt lat="47.96156" lon="10.13115">
        <ele>623.535338</ele>
        <time>2022-09-13T20:14:29.013Z</time>
      </trkpt>
      <trkpt lat="47.96143" lon="10.13078">
        <ele>623.530152</ele>
        <time>2022-09-13T20:14:36.569Z</time>
      </trkpt>
      <trkpt lat="47.96078" lon="10.1293">
        <ele>623.704497</ele>
        <time>2022-09-13T20:15:08.853Z</time>
      </trkpt>
      <trkpt lat="47.95997" lon="10.12718">
        <ele>624.044299</ele>
        <time>2022-09-13T20:15:54.902Z</time>
      </trkpt>
      <trkpt lat="47.95946" lon="10.12523">
        <ele>624.098543</ele>
        <time>2022-09-13T20:16:33.599Z</time>
      </trkpt>
      <trkpt lat="47.95912" lon="10.12331">
        <ele>623.628362</ele>
        <time>2022-09-13T20:17:06.549Z</time>
      </trkpt>
      <trkpt lat="47.95833" lon="10.11996">
        <ele>621.037438</ele>
        <time>2022-09-13T20:18:00.547Z</time>
      </trkpt>
      <trkpt lat="47.95822" lon="10.11962">
        <ele>620.747788</ele>
        <time>2022-09-13T20:18:06.468Z</time>
      </trkpt>
      <trkpt lat="47.9579" lon="10.11935">
        <ele>620.341185</ele>
        <time>2022-09-13T20:18:14.745Z</time>
      </trkpt>
      <trkpt lat="47.95732" lon="10.11919">
        <ele>619.67022</ele>
        <time>2022-09-13T20:18:28.447Z</time>
      </trkpt>
      <trkpt lat="47.95642" lon="10.119">
        <ele>617.80981</ele>
        <time>2022-09-13T20:18:49.003Z</time>
      </trkpt>
      <trkpt lat="47.95579" lon="10.11855">
        <ele>616.369448</ele>
        <time>2022-09-13T20:19:03.271Z</time>
      </trkpt>
      <trkpt lat="47.95569" lon="10.11831">
        <ele>615.98011</ele>
        <time>2022-09-13T20:19:06.764Z</time>
      </trkpt>
      <trkpt lat="47.95543" lon="10.11702">
        <ele>613.803175</ele>
        <time>2022-09-13T20:19:24.006Z</time>
      </trkpt>
      <trkpt lat="47.95543" lon="10.11669">
        <ele>613.253277</ele>
        <time>2022-09-13T20:19:28.447Z</time>
      </trkpt>
      <trkpt lat="47.95543" lon="10.11663">
        <ele>613.15595</ele>
        <time>2022-09-13T20:19:29.302Z</time>
      </trkpt>
      <trkpt lat="47.95541" lon="10.11631">
        <ele>612.643567</ele>
        <time>2022-09-13T20:19:33.548Z</time>
      </trkpt>
      <trkpt lat="47.95526" lon="10.11633">
        <ele>612.283627</ele>
        <time>2022-09-13T20:19:37.130Z</time>
      </trkpt>
      <trkpt lat="47.95514" lon="10.11625">
        <ele>611.963759</ele>
        <time>2022-09-13T20:19:40.078Z</time>
      </trkpt>
      <trkpt lat="47.95502" lon="10.11607">
        <ele>611.739676</ele>
        <time>2022-09-13T20:19:44.528Z</time>
      </trkpt>
      <trkpt lat="47.95485" lon="10.11579">
        <ele>612.278495</ele>
        <time>2022-09-13T20:19:51.961Z</time>
      </trkpt>
      <trkpt lat="47.95477" lon="10.11572">
        <ele>612.459219</ele>
        <time>2022-09-13T20:19:55.239Z</time>
      </trkpt>
      <trkpt lat="47.95453" lon="10.1157">
        <ele>612.950197</ele>
        <time>2022-09-13T20:20:03.102Z</time>
      </trkpt>
      <trkpt lat="47.95449" lon="10.11576">
        <ele>613.075784</ele>
        <time>2022-09-13T20:20:05.324Z</time>
      </trkpt>
      <trkpt lat="47.95414" lon="10.11615">
        <ele>613.96802</ele>
        <time>2022-09-13T20:20:22.365Z</time>
      </trkpt>
      <trkpt lat="47.95392" lon="10.11626">
        <ele>614.444155</ele>
        <time>2022-09-13T20:20:32.131Z</time>
      </trkpt>
      <trkpt lat="47.9537" lon="10.11646">
        <ele>614.978899</ele>
        <time>2022-09-13T20:20:43.506Z</time>
      </trkpt>
      <trkpt lat="47.95357" lon="10.11656">
        <ele>615.284375</ele>
        <time>2022-09-13T20:20:49.882Z</time>
      </trkpt>
      <trkpt lat="47.95341" lon="10.11658">
        <ele>615.48844</ele>
        <time>2022-09-13T20:20:57.233Z</time>
      </trkpt>
      <trkpt lat="47.9532" lon="10.11659">
        <ele>615.69928</ele>
        <time>2022-09-13T20:21:06.667Z</time>
      </trkpt>
      <trkpt lat="47.95282" lon="10.11649">
        <ele>616.084555</ele>
        <time>2022-09-13T20:21:23.221Z</time>
      </trkpt>
      <trkpt lat="47.95276" lon="10.11647">
        <ele>616.145722</ele>
        <time>2022-09-13T20:21:25.262Z</time>
      </trkpt>
      <trkpt lat="47.95167" lon="10.11621">
        <ele>617.08232</ele>
        <time>2022-09-13T20:21:52.663Z</time>
      </trkpt>
      <trkpt lat="47.95141" lon="10.11623">
        <ele>616.805746</ele>
        <time>2022-09-13T20:21:58.062Z</time>
      </trkpt>
      <trkpt lat="47.95107" lon="10.11626">
        <ele>616.448632</ele>
        <time>2022-09-13T20:22:04.873Z</time>
      </trkpt>
      <trkpt lat="47.95082" lon="10.11636">
        <ele>616.171845</ele>
        <time>2022-09-13T20:22:10.211Z</time>
      </trkpt>
      <trkpt lat="47.94987" lon="10.11686">
        <ele>615.627253</ele>
        <time>2022-09-13T20:22:35.042Z</time>
      </trkpt>
      <trkpt lat="47.94961" lon="10.11685">
        <ele>616.239854</ele>
        <time>2022-09-13T20:22:43.302Z</time>
      </trkpt>
      <trkpt lat="47.94925" lon="10.11659">
        <ele>617.166708</ele>
        <time>2022-09-13T20:22:57.833Z</time>
      </trkpt>
      <trkpt lat="47.94919" lon="10.11651">
        <ele>617.371739</ele>
        <time>2022-09-13T20:23:01.159Z</time>
      </trkpt>
      <trkpt lat="47.949" lon="10.11617">
        <ele>618.057569</ele>
        <time>2022-09-13T20:23:13.210Z</time>
      </trkpt>
      <trkpt lat="47.94884" lon="10.11603">
        <ele>618.478528</ele>
        <time>2022-09-13T20:23:20.642Z</time>
      </trkpt>
      <trkpt lat="47.94754" lon="10.11522">
        <ele>623.424656</ele>
        <time>2022-09-13T20:24:27.499Z</time>
      </trkpt>
      <trkpt lat="47.94643" lon="10.11489">
        <ele>627.645726</ele>
        <time>2022-09-13T20:25:17.927Z</time>
      </trkpt>
      <trkpt lat="47.94523" lon="10.1148">
        <ele>631.424664</ele>
        <time>2022-09-13T20:26:09.673Z</time>
      </trkpt>
      <trkpt lat="47.94509" lon="10.11477">
        <ele>631.869129</ele>
        <time>2022-09-13T20:26:15.577Z</time>
      </trkpt>
      <trkpt lat="47.94493" lon="10.11464">
        <ele>632.328013</ele>
        <time>2022-09-13T20:26:21.683Z</time>
      </trkpt>
      <trkpt lat="47.94472" lon="10.11427">
        <ele>632.572788</ele>
        <time>2022-09-13T20:26:32.672Z</time>
      </trkpt>
      <trkpt lat="47.94431" lon="10.11338">
        <ele>633.131365</ele>
        <time>2022-09-13T20:26:55.216Z</time>
      </trkpt>
      <trkpt lat="47.94386" lon="10.11183">
        <ele>633.25505</ele>
        <time>2022-09-13T20:27:24.290Z</time>
      </trkpt>
      <trkpt lat="47.94343" lon="10.11086">
        <ele>632.502619</ele>
        <time>2022-09-13T20:27:44.543Z</time>
      </trkpt>
      <trkpt lat="47.94275" lon="10.10977">
        <ele>629.439002</ele>
        <time>2022-09-13T20:28:05.428Z</time>
      </trkpt>
      <trkpt lat="47.94271" lon="10.10973">
        <ele>629.173677</ele>
        <time>2022-09-13T20:28:06.298Z</time>
      </trkpt>
      <trkpt lat="47.94233" lon="10.10928">
        <ele>626.188621</ele>
        <time>2022-09-13T20:28:15.321Z</time>
      </trkpt>
      <trkpt lat="47.94215" lon="10.10911">
        <ele>624.850629</ele>
        <time>2022-09-13T20:28:19.390Z</time>
      </trkpt>
      <trkpt lat="47.9412" lon="10.10834">
        <ele>616.790882</ele>
        <time>2022-09-13T20:28:37.983Z</time>
      </trkpt>
      <trkpt lat="47.94125" lon="10.10819">
        <ele>615.729477</ele>
        <time>2022-09-13T20:28:39.736Z</time>
      </trkpt>
      <trkpt lat="47.94109" lon="10.10811">
        <ele>614.092062</ele>
        <time>2022-09-13T20:28:42.521Z</time>
      </trkpt>
      <trkpt lat="47.94086" lon="10.10797">
        <ele>611.695739</ele>
        <time>2022-09-13T20:28:46.531Z</time>
      </trkpt>
      <trkpt lat="47.94049" lon="10.10775">
        <ele>607.924496</ele>
        <time>2022-09-13T20:28:52.952Z</time>
      </trkpt>
      <trkpt lat="47.94004" lon="10.10734">
        <ele>603.359064</ele>
        <time>2022-09-13T20:29:01.808Z</time>
      </trkpt>
      <trkpt lat="47.93973" lon="10.10699">
        <ele>601.683021</ele>
        <time>2022-09-13T20:29:08.680Z</time>
      </trkpt>
      <trkpt lat="47.93944" lon="10.10668">
        <ele>600.133175</ele>
        <time>2022-09-13T20:29:15.245Z</time>
      </trkpt>
      <trkpt lat="47.93939" lon="10.10664">
        <ele>599.924869</ele>
        <time>2022-09-13T20:29:16.214Z</time>
      </trkpt>
      <trkpt lat="47.93896" lon="10.10631">
        <ele>597.799286</ele>
        <time>2022-09-13T20:29:25.467Z</time>
      </trkpt>
      <trkpt lat="47.93873" lon="10.10622">
        <ele>596.777253</ele>
        <time>2022-09-13T20:29:30.387Z</time>
      </trkpt>
      <trkpt lat="47.939" lon="10.10534">
        <ele>595.660034</ele>
        <time>2022-09-13T20:29:46.772Z</time>
      </trkpt>
      <trkpt lat="47.93927" lon="10.10447">
        <ele>595.202778</ele>
        <time>2022-09-13T20:30:04.764Z</time>
      </trkpt>
      <trkpt lat="47.93942" lon="10.10385">
        <ele>594.887211</ele>
        <time>2022-09-13T20:30:15.760Z</time>
      </trkpt>
      <trkpt lat="47.93966" lon="10.10306">
        <ele>594.559317</ele>
        <time>2022-09-13T20:30:29.952Z</time>
      </trkpt>
      <trkpt lat="47.93999" lon="10.10301">
        <ele>594.411859</ele>
        <time>2022-09-13T20:30:37.960Z</time>
      </trkpt>
      <trkpt lat="47.94012" lon="10.10284">
        <ele>594.331706</ele>
        <time>2022-09-13T20:30:42.311Z</time>
      </trkpt>
      <trkpt lat="47.94015" lon="10.10269">
        <ele>594.286587</ele>
        <time>2022-09-13T20:30:44.859Z</time>
      </trkpt>
      <trkpt lat="47.94043" lon="10.10018">
        <ele>593.66481</ele>
        <time>2022-09-13T20:31:32.267Z</time>
      </trkpt>
      <trkpt lat="47.9405" lon="10.09951">
        <ele>593.539758</ele>
        <time>2022-09-13T20:31:43.752Z</time>
      </trkpt>
      <trkpt lat="47.94048" lon="10.09916">
        <ele>593.475179</ele>
        <time>2022-09-13T20:31:50.054Z</time>
      </trkpt>
      <trkpt lat="47.94039" lon="10.09791">
        <ele>593.042597</ele>
        <time>2022-09-13T20:32:11.806Z</time>
      </trkpt>
      <trkpt lat="47.94028" lon="10.09586">
        <ele>592.305021</ele>
        <time>2022-09-13T20:32:45.886Z</time>
      </trkpt>
      <trkpt lat="47.94007" lon="10.09484">
        <ele>592.355951</ele>
        <time>2022-09-13T20:33:06.575Z</time>
      </trkpt>
      <trkpt lat="47.93989" lon="10.09403">
        <ele>592.397039</ele>
        <time>2022-09-13T20:33:23.145Z</time>
      </trkpt>
      <trkpt lat="47.93977" lon="10.09337">
        <ele>592.473784</ele>
        <time>2022-09-13T20:33:36.452Z</time>
      </trkpt>
      <trkpt lat="47.93975" lon="10.0929">
        <ele>592.621586</ele>
        <time>2022-09-13T20:33:45.695Z</time>
      </trkpt>
      <trkpt lat="47.93984" lon="10.09258">
        <ele>592.73159</ele>
        <time>2022-09-13T20:33:52.564Z</time>
      </trkpt>
      <trkpt lat="47.93995" lon="10.09239">
        <ele>592.811125</ele>
        <time>2022-09-13T20:33:57.473Z</time>
      </trkpt>
      <trkpt lat="47.93966" lon="10.09192">
        <ele>593.015331</ele>
        <time>2022-09-13T20:34:10.619Z</time>
      </trkpt>
      <trkpt lat="47.93924" lon="10.09151">
        <ele>593.250908</ele>
        <time>2022-09-13T20:34:26.058Z</time>
      </trkpt>
      <trkpt lat="47.93927" lon="10.09121">
        <ele>593.384038</ele>
        <time>2022-09-13T20:34:31.840Z</time>
      </trkpt>
      <trkpt lat="47.93922" lon="10.09066">
        <ele>593.648936</ele>
        <time>2022-09-13T20:34:42.861Z</time>
      </trkpt>
      <trkpt lat="47.93922" lon="10.09047">
        <ele>593.739327</ele>
        <time>2022-09-13T20:34:46.926Z</time>
      </trkpt>
      <trkpt lat="47.93929" lon="10.08973">
        <ele>594.097087</ele>
        <time>2022-09-13T20:35:02.017Z</time>
      </trkpt>
      <trkpt lat="47.93892" lon="10.08945">
        <ele>594.392151</ele>
        <time>2022-09-13T20:35:14.150Z</time>
      </trkpt>
      <trkpt lat="47.93874" lon="10.08922">
        <ele>594.577448</ele>
        <time>2022-09-13T20:35:21.215Z</time>
      </trkpt>
      <trkpt lat="47.93854" lon="10.08879">
        <ele>595.196831</ele>
        <time>2022-09-13T20:35:31.983Z</time>
      </trkpt>
      <trkpt lat="47.93807" lon="10.0877">
        <ele>596.73129</ele>
        <time>2022-09-13T20:36:02.686Z</time>
      </trkpt>
      <trkpt lat="47.93791" lon="10.08733">
        <ele>597.249565</ele>
        <time>2022-09-13T20:36:13.056Z</time>
      </trkpt>
      <trkpt lat="47.93769" lon="10.08692">
        <ele>597.969507</ele>
        <time>2022-09-13T20:36:26.533Z</time>
      </trkpt>
      <trkpt lat="47.93743" lon="10.08688">
        <ele>598.741872</ele>
        <time>2022-09-13T20:36:37.860Z</time>
      </trkpt>
      <trkpt lat="47.93695" lon="10.08665">
        <ele>600.252222</ele>
        <time>2022-09-13T20:36:59.068Z</time>
      </trkpt>
      <trkpt lat="47.93676" lon="10.08649">
        <ele>600.908095</ele>
        <time>2022-09-13T20:37:08.941Z</time>
      </trkpt>
      <trkpt lat="47.93651" lon="10.08618">
        <ele>601.870814</ele>
        <time>2022-09-13T20:37:23.237Z</time>
      </trkpt>
      <trkpt lat="47.93625" lon="10.08581">
        <ele>602.951994</ele>
        <time>2022-09-13T20:37:38.735Z</time>
      </trkpt>
      <trkpt lat="47.93547" lon="10.0843">
        <ele>604.720387</ele>
        <time>2022-09-13T20:38:22.065Z</time>
      </trkpt>
      <trkpt lat="47.93526" lon="10.08386">
        <ele>605.194054</ele>
        <time>2022-09-13T20:38:32.379Z</time>
      </trkpt>
      <trkpt lat="47.93518" lon="10.08372">
        <ele>605.365267</ele>
        <time>2022-09-13T20:38:36.001Z</time>
      </trkpt>
      <trkpt lat="47.93509" lon="10.08368">
        <ele>605.484678</ele>
        <time>2022-09-13T20:38:38.231Z</time>
      </trkpt>
      <trkpt lat="47.93496" lon="10.08374">
        <ele>605.598145</ele>
        <time>2022-09-13T20:38:42.247Z</time>
      </trkpt>
      <trkpt lat="47.93466" lon="10.08412">
        <ele>605.921284</ele>
        <time>2022-09-13T20:38:53.208Z</time>
      </trkpt>
      <trkpt lat="47.93435" lon="10.08435">
        <ele>606.201498</ele>
        <time>2022-09-13T20:39:02.949Z</time>
      </trkpt>
      <trkpt lat="47.93183" lon="10.08608">
        <ele>609.112869</ele>
        <time>2022-09-13T20:40:33.821Z</time>
      </trkpt>
      <trkpt lat="47.9307" lon="10.08661">
        <ele>609.837839</ele>
        <time>2022-09-13T20:41:08.628Z</time>
      </trkpt>
      <trkpt lat="47.93011" lon="10.08677">
        <ele>610.188344</ele>
        <time>2022-09-13T20:41:25.785Z</time>
      </trkpt>
      <trkpt lat="47.92987" lon="10.08677">
        <ele>610.26543</ele>
        <time>2022-09-13T20:41:32.789Z</time>
      </trkpt>
      <trkpt lat="47.92966" lon="10.08668">
        <ele>610.334679</ele>
        <time>2022-09-13T20:41:39.196Z</time>
      </trkpt>
      <trkpt lat="47.92944" lon="10.08644">
        <ele>610.422337</ele>
        <time>2022-09-13T20:41:47.108Z</time>
      </trkpt>
      <trkpt lat="47.92943" lon="10.0864">
        <ele>610.432164</ele>
        <time>2022-09-13T20:41:48.092Z</time>
      </trkpt>
      <trkpt lat="47.92937" lon="10.08589">
        <ele>610.543617</ele>
        <time>2022-09-13T20:41:57.959Z</time>
      </trkpt>
      <trkpt lat="47.92925" lon="10.08556">
        <ele>610.625027</ele>
        <time>2022-09-13T20:42:04.971Z</time>
      </trkpt>
      <trkpt lat="47.92875" lon="10.08516">
        <ele>610.684908</ele>
        <time>2022-09-13T20:42:20.425Z</time>
      </trkpt>
      <trkpt lat="47.92753" lon="10.08439">
        <ele>610.151436</ele>
        <time>2022-09-13T20:42:53.030Z</time>
      </trkpt>
      <trkpt lat="47.92611" lon="10.08394">
        <ele>609.749291</ele>
        <time>2022-09-13T20:43:28.568Z</time>
      </trkpt>
      <trkpt lat="47.9252" lon="10.08377">
        <ele>609.683772</ele>
        <time>2022-09-13T20:43:54.045Z</time>
      </trkpt>
      <trkpt lat="47.92423" lon="10.08361">
        <ele>610.041556</ele>
        <time>2022-09-13T20:44:22.428Z</time>
      </trkpt>
      <trkpt lat="47.92402" lon="10.08358">
        <ele>610.115394</ele>
        <time>2022-09-13T20:44:28.195Z</time>
      </trkpt>
      <trkpt lat="47.92294" lon="10.08353">
        <ele>610.454413</ele>
        <time>2022-09-13T20:44:59.003Z</time>
      </trkpt>
      <trkpt lat="47.92218" lon="10.08357">
        <ele>610.670771</ele>
        <time>2022-09-13T20:45:20.599Z</time>
      </trkpt>
      <trkpt lat="47.92203" lon="10.0835">
        <ele>610.716994</ele>
        <time>2022-09-13T20:45:25.040Z</time>
      </trkpt>
      <trkpt lat="47.9217" lon="10.08317">
        <ele>610.665392</ele>
        <time>2022-09-13T20:45:35.879Z</time>
      </trkpt>
      <trkpt lat="47.92123" lon="10.08299">
        <ele>610.4848</ele>
        <time>2022-09-13T20:45:48.074Z</time>
      </trkpt>
      <trkpt lat="47.92038" lon="10.08267">
        <ele>610.157552</ele>
        <time>2022-09-13T20:46:09.504Z</time>
      </trkpt>
      <trkpt lat="47.91974" lon="10.08227">
        <ele>609.853188</ele>
        <time>2022-09-13T20:46:26.330Z</time>
      </trkpt>
      <trkpt lat="47.91867" lon="10.08216">
        <ele>609.352646</ele>
        <time>2022-09-13T20:46:52.476Z</time>
      </trkpt>
      <trkpt lat="47.91809" lon="10.08222">
        <ele>609.286923</ele>
        <time>2022-09-13T20:47:08.286Z</time>
      </trkpt>
      <trkpt lat="47.91776" lon="10.08217">
        <ele>609.317486</ele>
        <time>2022-09-13T20:47:17.403Z</time>
      </trkpt>
      <trkpt lat="47.91713" lon="10.08154">
        <ele>609.389151</ele>
        <time>2022-09-13T20:47:38.297Z</time>
      </trkpt>
      <trkpt lat="47.91588" lon="10.08095">
        <ele>609.474255</ele>
        <time>2022-09-13T20:48:13.460Z</time>
      </trkpt>
      <trkpt lat="47.91513" lon="10.08004">
        <ele>609.542853</ele>
        <time>2022-09-13T20:48:39.479Z</time>
      </trkpt>
      <trkpt lat="47.9149" lon="10.07993">
        <ele>609.583726</ele>
        <time>2022-09-13T20:48:45.983Z</time>
      </trkpt>
      <trkpt lat="47.91453" lon="10.08003">
        <ele>609.648924</ele>
        <time>2022-09-13T20:48:56.417Z</time>
      </trkpt>
      <trkpt lat="47.91355" lon="10.08061">
        <ele>609.830008</ele>
        <time>2022-09-13T20:49:25.845Z</time>
      </trkpt>
      <trkpt lat="47.913" lon="10.08101">
        <ele>609.924603</ele>
        <time>2022-09-13T20:49:42.841Z</time>
      </trkpt>
      <trkpt lat="47.9127" lon="10.08111">
        <ele>609.97247</ele>
        <time>2022-09-13T20:49:51.359Z</time>
      </trkpt>
      <trkpt lat="47.91241" lon="10.08105">
        <ele>610.017847</ele>
        <time>2022-09-13T20:49:59.336Z</time>
      </trkpt>
      <trkpt lat="47.91171" lon="10.08052">
        <ele>610.121056</ele>
        <time>2022-09-13T20:50:20.508Z</time>
      </trkpt>
      <trkpt lat="47.9101" lon="10.07983">
        <ele>610.25194</ele>
        <time>2022-09-13T20:51:05.422Z</time>
      </trkpt>
      <trkpt lat="47.90988" lon="10.07965">
        <ele>610.343773</ele>
        <time>2022-09-13T20:51:12.509Z</time>
      </trkpt>
      <trkpt lat="47.9096" lon="10.0787">
        <ele>610.592449</ele>
        <time>2022-09-13T20:51:32.067Z</time>
      </trkpt>
      <trkpt lat="47.90886" lon="10.07769">
        <ele>610.958119</ele>
        <time>2022-09-13T20:52:01.363Z</time>
      </trkpt>
      <trkpt lat="47.9073" lon="10.07623">
        <ele>611.569175</ele>
        <time>2022-09-13T20:52:53.888Z</time>
      </trkpt>
      <trkpt lat="47.90691" lon="10.07594">
        <ele>611.59408</ele>
        <time>2022-09-13T20:53:05.747Z</time>
      </trkpt>
      <trkpt lat="47.90682" lon="10.07588">
        <ele>611.599537</ele>
        <time>2022-09-13T20:53:08.253Z</time>
      </trkpt>
      <trkpt lat="47.90665" lon="10.07585">
        <ele>611.609485</ele>
        <time>2022-09-13T20:53:12.845Z</time>
      </trkpt>
      <trkpt lat="47.90629" lon="10.07548">
        <ele>611.634334</ele>
        <time>2022-09-13T20:53:24.384Z</time>
      </trkpt>
      <trkpt lat="47.9061" lon="10.07546">
        <ele>611.645247</ele>
        <time>2022-09-13T20:53:29.348Z</time>
      </trkpt>
      <trkpt lat="47.90551" lon="10.07568">
        <ele>611.656275</ele>
        <time>2022-09-13T20:53:45.188Z</time>
      </trkpt>
      <trkpt lat="47.90511" lon="10.07574">
        <ele>611.65629</ele>
        <time>2022-09-13T20:53:55.770Z</time>
      </trkpt>
      <trkpt lat="47.9034" lon="10.07637">
        <ele>611.803013</ele>
        <time>2022-09-13T20:54:43.295Z</time>
      </trkpt>
      <trkpt lat="47.90239" lon="10.07702">
        <ele>612.034316</ele>
        <time>2022-09-13T20:55:14.099Z</time>
      </trkpt>
      <trkpt lat="47.90204" lon="10.07706">
        <ele>612.206283</ele>
        <time>2022-09-13T20:55:24.237Z</time>
      </trkpt>
      <trkpt lat="47.90148" lon="10.077">
        <ele>612.47872</ele>
        <time>2022-09-13T20:55:40.616Z</time>
      </trkpt>
      <trkpt lat="47.90027" lon="10.07713">
        <ele>613.106142</ele>
        <time>2022-09-13T20:56:16.190Z</time>
      </trkpt>
      <trkpt lat="47.89979" lon="10.07723">
        <ele>613.387815</ele>
        <time>2022-09-13T20:56:30.499Z</time>
      </trkpt>
      <trkpt lat="47.8993" lon="10.0773">
        <ele>613.679241</ele>
        <time>2022-09-13T20:56:45.257Z</time>
      </trkpt>
      <trkpt lat="47.89765" lon="10.07746">
        <ele>614.579341</ele>
        <time>2022-09-13T20:57:33.641Z</time>
      </trkpt>
      <trkpt lat="47.89737" lon="10.0776">
        <ele>614.739133</ele>
        <time>2022-09-13T20:57:42.257Z</time>
      </trkpt>
      <trkpt lat="47.89692" lon="10.07848">
        <ele>615.053733</ele>
        <time>2022-09-13T20:58:03.736Z</time>
      </trkpt>
      <trkpt lat="47.89666" lon="10.07832">
        <ele>615.156613</ele>
        <time>2022-09-13T20:58:12.136Z</time>
      </trkpt>
      <trkpt lat="47.89622" lon="10.07828">
        <ele>615.317163</ele>
        <time>2022-09-13T20:58:25.023Z</time>
      </trkpt>
      <trkpt lat="47.896" lon="10.07799">
        <ele>615.425583</ele>
        <time>2022-09-13T20:58:33.671Z</time>
      </trkpt>
      <trkpt lat="47.89561" lon="10.07727">
        <ele>615.495102</ele>
        <time>2022-09-13T20:58:51.608Z</time>
      </trkpt>
      <trkpt lat="47.89534" lon="10.077">
        <ele>615.45286</ele>
        <time>2022-09-13T20:59:01.008Z</time>
      </trkpt>
      <trkpt lat="47.8952" lon="10.07689">
        <ele>615.432686</ele>
        <time>2022-09-13T20:59:05.430Z</time>
      </trkpt>
      <trkpt lat="47.89498" lon="10.07676">
        <ele>615.401904</ele>
        <time>2022-09-13T20:59:12.059Z</time>
      </trkpt>
      <trkpt lat="47.89474" lon="10.07669">
        <ele>615.370842</ele>
        <time>2022-09-13T20:59:18.493Z</time>
      </trkpt>
      <trkpt lat="47.89437" lon="10.07644">
        <ele>615.317335</ele>
        <time>2022-09-13T20:59:29.050Z</time>
      </trkpt>
      <trkpt lat="47.89456" lon="10.07592">
        <ele>615.149055</ele>
        <time>2022-09-13T20:59:38.584Z</time>
      </trkpt>
      <trkpt lat="47.89467" lon="10.07563">
        <ele>615.029688</ele>
        <time>2022-09-13T20:59:43.878Z</time>
      </trkpt>
      <trkpt lat="47.89403" lon="10.07464">
        <ele>614.541008</ele>
        <time>2022-09-13T21:00:05.995Z</time>
      </trkpt>
      <trkpt lat="47.89373" lon="10.07372">
        <ele>614.703918</ele>
        <time>2022-09-13T21:00:23.175Z</time>
      </trkpt>
      <trkpt lat="47.89325" lon="10.07105">
        <ele>617.334511</ele>
        <time>2022-09-13T21:01:25.773Z</time>
      </trkpt>
      <trkpt lat="47.89305" lon="10.07035">
        <ele>618.679377</ele>
        <time>2022-09-13T21:01:46.682Z</time>
      </trkpt>
      <trkpt lat="47.89278" lon="10.06953">
        <ele>620.305776</ele>
        <time>2022-09-13T21:02:12.522Z</time>
      </trkpt>
      <trkpt lat="47.89265" lon="10.06897">
        <ele>621.284089</ele>
        <time>2022-09-13T21:02:29.428Z</time>
      </trkpt>
      <trkpt lat="47.89255" lon="10.06709">
        <ele>623.793615</ele>
        <time>2022-09-13T21:03:16.865Z</time>
      </trkpt>
      <trkpt lat="47.89257" lon="10.06685">
        <ele>624.122958</ele>
        <time>2022-09-13T21:03:22.257Z</time>
      </trkpt>
      <trkpt lat="47.89303" lon="10.06495">
        <ele>625.05793</ele>
        <time>2022-09-13T21:04:02.467Z</time>
      </trkpt>
      <trkpt lat="47.89346" lon="10.06251">
        <ele>624.94592</ele>
        <time>2022-09-13T21:04:45.981Z</time>
      </trkpt>
      <trkpt lat="47.89362" lon="10.06153">
        <ele>624.685676</ele>
        <time>2022-09-13T21:05:03.381Z</time>
      </trkpt>
      <trkpt lat="47.89396" lon="10.05964">
        <ele>623.185593</ele>
        <time>2022-09-13T21:05:34.208Z</time>
      </trkpt>
      <trkpt lat="47.89379" lon="10.05933">
        <ele>622.854828</ele>
        <time>2022-09-13T21:05:40.323Z</time>
      </trkpt>
      <trkpt lat="47.89296" lon="10.05864">
        <ele>621.579371</ele>
        <time>2022-09-13T21:06:02.690Z</time>
      </trkpt>
      <trkpt lat="47.89273" lon="10.05744">
        <ele>620.42091</ele>
        <time>2022-09-13T21:06:21.624Z</time>
      </trkpt>
      <trkpt lat="47.89224" lon="10.05606">
        <ele>619.33923</ele>
        <time>2022-09-13T21:06:47.259Z</time>
      </trkpt>
      <trkpt lat="47.89219" lon="10.05539">
        <ele>618.962583</ele>
        <time>2022-09-13T21:06:58.495Z</time>
      </trkpt>
      <trkpt lat="47.89196" lon="10.05482">
        <ele>618.598743</ele>
        <time>2022-09-13T21:07:09.468Z</time>
      </trkpt>
      <trkpt lat="47.89153" lon="10.05427">
        <ele>618.307649</ele>
        <time>2022-09-13T21:07:24.129Z</time>
      </trkpt>
      <trkpt lat="47.89097" lon="10.05378">
        <ele>618.121952</ele>
        <time>2022-09-13T21:07:40.906Z</time>
      </trkpt>
      <trkpt lat="47.88995" lon="10.05315">
        <ele>617.996101</ele>
        <time>2022-09-13T21:08:10.844Z</time>
      </trkpt>
      <trkpt lat="47.8883" lon="10.05133">
        <ele>619.249382</ele>
        <time>2022-09-13T21:09:13.204Z</time>
      </trkpt>
      <trkpt lat="47.88796" lon="10.05067">
        <ele>619.93229</ele>
        <time>2022-09-13T21:09:31.994Z</time>
      </trkpt>
      <trkpt lat="47.88767" lon="10.05086">
        <ele>620.334315</ele>
        <time>2022-09-13T21:09:42.729Z</time>
      </trkpt>
      <trkpt lat="47.88719" lon="10.04946">
        <ele>621.955552</ele>
        <time>2022-09-13T21:10:20.642Z</time>
      </trkpt>
      <trkpt lat="47.88736" lon="10.04924">
        <ele>622.347495</ele>
        <time>2022-09-13T21:10:28.795Z</time>
      </trkpt>
      <trkpt lat="47.88752" lon="10.04879">
        <ele>622.928661</ele>
        <time>2022-09-13T21:10:40.842Z</time>
      </trkpt>
      <trkpt lat="47.88753" lon="10.04873">
        <ele>623.001418</ele>
        <time>2022-09-13T21:10:42.343Z</time>
      </trkpt>
      <trkpt lat="47.88756" lon="10.04804">
        <ele>623.790741</ele>
        <time>2022-09-13T21:10:58.456Z</time>
      </trkpt>
      <trkpt lat="47.88748" lon="10.04765">
        <ele>624.058316</ele>
        <time>2022-09-13T21:11:07.365Z</time>
      </trkpt>
      <trkpt lat="47.88733" lon="10.0474">
        <ele>624.24503</ele>
        <time>2022-09-13T21:11:14.468Z</time>
      </trkpt>
      <trkpt lat="47.88672" lon="10.04664">
        <ele>624.90563</ele>
        <time>2022-09-13T21:11:38.985Z</time>
      </trkpt>
      <trkpt lat="47.88641" lon="10.04637">
        <ele>625.202087</ele>
        <time>2022-09-13T21:11:49.605Z</time>
      </trkpt>
      <trkpt lat="47.88611" lon="10.04614">
        <ele>625.385043</ele>
        <time>2022-09-13T21:11:58.936Z</time>
      </trkpt>
      <trkpt lat="47.88566" lon="10.04577">
        <ele>625.466359</ele>
        <time>2022-09-13T21:12:12.637Z</time>
      </trkpt>
      <trkpt lat="47.88526" lon="10.04538">
        <ele>625.541066</ele>
        <time>2022-09-13T21:12:25.356Z</time>
      </trkpt>
      <trkpt lat="47.88472" lon="10.04449">
        <ele>625.738008</ele>
        <time>2022-09-13T21:12:47.593Z</time>
      </trkpt>
      <trkpt lat="47.88434" lon="10.04379">
        <ele>626.134955</ele>
        <time>2022-09-13T21:13:04.848Z</time>
      </trkpt>
      <trkpt lat="47.8836" lon="10.04244">
        <ele>626.96753</ele>
        <time>2022-09-13T21:13:40.660Z</time>
      </trkpt>
      <trkpt lat="47.88328" lon="10.04204">
        <ele>627.489613</ele>
        <time>2022-09-13T21:13:54.547Z</time>
      </trkpt>
      <trkpt lat="47.88291" lon="10.04171">
        <ele>628.030756</ele>
        <time>2022-09-13T21:14:08.929Z</time>
      </trkpt>
      <trkpt lat="47.88257" lon="10.04145">
        <ele>628.507858</ele>
        <time>2022-09-13T21:14:21.653Z</time>
      </trkpt>
      <trkpt lat="47.88208" lon="10.04109">
        <ele>629.120687</ele>
        <time>2022-09-13T21:14:39.754Z</time>
      </trkpt>
      <trkpt lat="47.88181" lon="10.0408">
        <ele>629.304379</ele>
        <time>2022-09-13T21:14:50.543Z</time>
      </trkpt>
      <trkpt lat="47.88144" lon="10.04023">
        <ele>629.59611</ele>
        <time>2022-09-13T21:15:06.248Z</time>
      </trkpt>
      <trkpt lat="47.88094" lon="10.03936">
        <ele>630.012013</ele>
        <time>2022-09-13T21:15:27.259Z</time>
      </trkpt>
      <trkpt lat="47.88082" lon="10.03917">
        <ele>630.062246</ele>
        <time>2022-09-13T21:15:31.860Z</time>
      </trkpt>
      <trkpt lat="47.88053" lon="10.03871">
        <ele>630.111942</ele>
        <time>2022-09-13T21:15:43.072Z</time>
      </trkpt>
      <trkpt lat="47.88019" lon="10.03827">
        <ele>630.165075</ele>
        <time>2022-09-13T21:15:55.239Z</time>
      </trkpt>
      <trkpt lat="47.87953" lon="10.03762">
        <ele>630.25839</ele>
        <time>2022-09-13T21:16:16.703Z</time>
      </trkpt>
      <trkpt lat="47.87856" lon="10.0369">
        <ele>630.481683</ele>
        <time>2022-09-13T21:16:47.887Z</time>
      </trkpt>
      <trkpt lat="47.87834" lon="10.03677">
        <ele>630.531271</ele>
        <time>2022-09-13T21:16:54.379Z</time>
      </trkpt>
      <trkpt lat="47.87834" lon="10.0366">
        <ele>630.554985</ele>
        <time>2022-09-13T21:16:57.613Z</time>
      </trkpt>
      <trkpt lat="47.87819" lon="10.03621">
        <ele>630.617128</ele>
        <time>2022-09-13T21:17:05.685Z</time>
      </trkpt>
      <trkpt lat="47.87786" lon="10.03587">
        <ele>630.533084</ele>
        <time>2022-09-13T21:17:16.444Z</time>
      </trkpt>
      <trkpt lat="47.87443" lon="10.03225">
        <ele>629.130859</ele>
        <time>2022-09-13T21:19:02.086Z</time>
      </trkpt>
      <trkpt lat="47.87339" lon="10.03107">
        <ele>628.6733</ele>
        <time>2022-09-13T21:19:35.182Z</time>
      </trkpt>
      <trkpt lat="47.87201" lon="10.02927">
        <ele>628.05708</ele>
        <time>2022-09-13T21:20:21.122Z</time>
      </trkpt>
      <trkpt lat="47.87084" lon="10.0277">
        <ele>627.747074</ele>
        <time>2022-09-13T21:21:01.168Z</time>
      </trkpt>
      <trkpt lat="47.87022" lon="10.02673">
        <ele>627.952233</ele>
        <time>2022-09-13T21:21:25.510Z</time>
      </trkpt>
      <trkpt lat="47.86991" lon="10.02618">
        <ele>628.062294</ele>
        <time>2022-09-13T21:21:39.632Z</time>
      </trkpt>
      <trkpt lat="47.86958" lon="10.02543">
        <ele>628.456835</ele>
        <time>2022-09-13T21:21:58.093Z</time>
      </trkpt>
      <trkpt lat="47.86914" lon="10.02419">
        <ele>629.245645</ele>
        <time>2022-09-13T21:22:27.994Z</time>
      </trkpt>
      <trkpt lat="47.86875" lon="10.02284">
        <ele>629.53852</ele>
        <time>2022-09-13T21:22:56.924Z</time>
      </trkpt>
      <trkpt lat="47.86845" lon="10.02222">
        <ele>629.471321</ele>
        <time>2022-09-13T21:23:10.252Z</time>
      </trkpt>
      <trkpt lat="47.86813" lon="10.0218">
        <ele>629.416579</ele>
        <time>2022-09-13T21:23:20.464Z</time>
      </trkpt>
      <trkpt lat="47.86779" lon="10.02139">
        <ele>629.347791</ele>
        <time>2022-09-13T21:23:31.077Z</time>
      </trkpt>
      <trkpt lat="47.86757" lon="10.02096">
        <ele>629.269564</ele>
        <time>2022-09-13T21:23:39.688Z</time>
      </trkpt>
      <trkpt lat="47.86741" lon="10.02046">
        <ele>629.190063</ele>
        <time>2022-09-13T21:23:48.575Z</time>
      </trkpt>
      <trkpt lat="47.8664" lon="10.01786">
        <ele>629.512231</ele>
        <time>2022-09-13T21:24:46.542Z</time>
      </trkpt>
      <trkpt lat="47.86602" lon="10.01653">
        <ele>630.146122</ele>
        <time>2022-09-13T21:25:17.332Z</time>
      </trkpt>
      <trkpt lat="47.86559" lon="10.01553">
        <ele>631.040559</ele>
        <time>2022-09-13T21:25:44.894Z</time>
      </trkpt>
      <trkpt lat="47.86545" lon="10.01488">
        <ele>631.557011</ele>
        <time>2022-09-13T21:26:00.514Z</time>
      </trkpt>
      <trkpt lat="47.86538" lon="10.01365">
        <ele>632.032346</ele>
        <time>2022-09-13T21:26:27.026Z</time>
      </trkpt>
      <trkpt lat="47.86522" lon="10.01304">
        <ele>632.152959</ele>
        <time>2022-09-13T21:26:40.091Z</time>
      </trkpt>
      <trkpt lat="47.86429" lon="10.01123">
        <ele>632.047546</ele>
        <time>2022-09-13T21:27:20.715Z</time>
      </trkpt>
      <trkpt lat="47.86414" lon="10.01077">
        <ele>631.881673</ele>
        <time>2022-09-13T21:27:29.491Z</time>
      </trkpt>
      <trkpt lat="47.86407" lon="10.01039">
        <ele>631.757348</ele>
        <time>2022-09-13T21:27:36.082Z</time>
      </trkpt>
      <trkpt lat="47.86406" lon="10.00953">
        <ele>631.483939</ele>
        <time>2022-09-13T21:27:50.727Z</time>
      </trkpt>
      <trkpt lat="47.86412" lon="10.00903">
        <ele>631.323528</ele>
        <time>2022-09-13T21:27:59.438Z</time>
      </trkpt>
      <trkpt lat="47.86425" lon="10.00775">
        <ele>630.912473</ele>
        <time>2022-09-13T21:28:22.153Z</time>
      </trkpt>
      <trkpt lat="47.86416" lon="10.00666">
        <ele>630.572817</ele>
        <time>2022-09-13T21:28:41.264Z</time>
      </trkpt>
      <trkpt lat="47.86402" lon="10.00597">
        <ele>630.368432</ele>
        <time>2022-09-13T21:28:53.627Z</time>
      </trkpt>
      <trkpt lat="47.86381" lon="10.00535">
        <ele>630.170161</ele>
        <time>2022-09-13T21:29:05.771Z</time>
      </trkpt>
      <trkpt lat="47.86284" lon="10.00348">
        <ele>629.879977</ele>
        <time>2022-09-13T21:29:47.743Z</time>
      </trkpt>
      <trkpt lat="47.86254" lon="10.00269">
        <ele>629.861805</ele>
        <time>2022-09-13T21:30:05.117Z</time>
      </trkpt>
      <trkpt lat="47.86242" lon="10.0021">
        <ele>629.966172</ele>
        <time>2022-09-13T21:30:17.480Z</time>
      </trkpt>
      <trkpt lat="47.8625" lon="10.00173">
        <ele>630.114824</ele>
        <time>2022-09-13T21:30:25.314Z</time>
      </trkpt>
      <trkpt lat="47.86254" lon="10.00163">
        <ele>630.157751</ele>
        <time>2022-09-13T21:30:27.682Z</time>
      </trkpt>
      <trkpt lat="47.86272" lon="10.00176">
        <ele>630.270593</ele>
        <time>2022-09-13T21:30:33.732Z</time>
      </trkpt>
      <trkpt lat="47.86254" lon="10.0012">
        <ele>630.506309</ele>
        <time>2022-09-13T21:30:46.402Z</time>
      </trkpt>
      <trkpt lat="47.86186" lon="10.00031">
        <ele>630.951533</ele>
        <time>2022-09-13T21:31:13.211Z</time>
      </trkpt>
      <trkpt lat="47.86165" lon="9.99987">
        <ele>631.064667</ele>
        <time>2022-09-13T21:31:23.372Z</time>
      </trkpt>
      <trkpt lat="47.86163" lon="9.99982">
        <ele>631.076395</ele>
        <time>2022-09-13T21:31:24.376Z</time>
      </trkpt>
      <trkpt lat="47.86155" lon="9.99942">
        <ele>631.163494</ele>
        <time>2022-09-13T21:31:31.708Z</time>
      </trkpt>
      <trkpt lat="47.86122" lon="9.99673">
        <ele>632.468827</ele>
        <time>2022-09-13T21:32:23.591Z</time>
      </trkpt>
      <trkpt lat="47.86088" lon="9.99441">
        <ele>634.527885</ele>
        <time>2022-09-13T21:33:20.834Z</time>
      </trkpt>
      <trkpt lat="47.86037" lon="9.99211">
        <ele>636.32224</ele>
        <time>2022-09-13T21:34:14.053Z</time>
      </trkpt>
      <trkpt lat="47.86031" lon="9.99215">
        <ele>636.345112</ele>
        <time>2022-09-13T21:34:15.863Z</time>
      </trkpt>
      <trkpt lat="47.86014" lon="9.99147">
        <ele>636.525549</ele>
        <time>2022-09-13T21:34:29.965Z</time>
      </trkpt>
      <trkpt lat="47.86" lon="9.99101">
        <ele>636.652892</ele>
        <time>2022-09-13T21:34:39.381Z</time>
      </trkpt>
      <trkpt lat="47.85964" lon="9.99004">
        <ele>636.460651</ele>
        <time>2022-09-13T21:34:58.530Z</time>
      </trkpt>
      <trkpt lat="47.85948" lon="9.98962">
        <ele>636.221732</ele>
        <time>2022-09-13T21:35:06.761Z</time>
      </trkpt>
      <trkpt lat="47.85889" lon="9.98847">
        <ele>635.513687</ele>
        <time>2022-09-13T21:35:30.716Z</time>
      </trkpt>
      <trkpt lat="47.85858" lon="9.98789">
        <ele>635.162152</ele>
        <time>2022-09-13T21:35:42.500Z</time>
      </trkpt>
      <trkpt lat="47.85804" lon="9.98674">
        <ele>634.497368</ele>
        <time>2022-09-13T21:36:05.779Z</time>
      </trkpt>
      <trkpt lat="47.85593" lon="9.98157">
        <ele>633.759205</ele>
        <time>2022-09-13T21:37:56.224Z</time>
      </trkpt>
      <trkpt lat="47.85487" lon="9.97974">
        <ele>633.957414</ele>
        <time>2022-09-13T21:38:42.420Z</time>
      </trkpt>
      <trkpt lat="47.85299" lon="9.97713">
        <ele>634.785558</ele>
        <time>2022-09-13T21:39:57.406Z</time>
      </trkpt>
      <trkpt lat="47.85179" lon="9.97565">
        <ele>635.503394</ele>
        <time>2022-09-13T21:40:44.687Z</time>
      </trkpt>
      <trkpt lat="47.84951" lon="9.97307">
        <ele>636.937891</ele>
        <time>2022-09-13T21:42:11.578Z</time>
      </trkpt>
      <trkpt lat="47.84809" lon="9.97093">
        <ele>637.831158</ele>
        <time>2022-09-13T21:43:10.977Z</time>
      </trkpt>
      <trkpt lat="47.84818" lon="9.97078">
        <ele>637.890524</ele>
        <time>2022-09-13T21:43:15.326Z</time>
      </trkpt>
      <trkpt lat="47.84812" lon="9.97054">
        <ele>637.999174</ele>
        <time>2022-09-13T21:43:20.468Z</time>
      </trkpt>
      <trkpt lat="47.8481" lon="9.96999">
        <ele>638.22866</ele>
        <time>2022-09-13T21:43:32.206Z</time>
      </trkpt>
      <trkpt lat="47.84835" lon="9.96831">
        <ele>638.950942</ele>
        <time>2022-09-13T21:44:07.185Z</time>
      </trkpt>
      <trkpt lat="47.84834" lon="9.96794">
        <ele>638.982148</ele>
        <time>2022-09-13T21:44:13.830Z</time>
      </trkpt>
      <trkpt lat="47.84833" lon="9.96785">
        <ele>638.971039</ele>
        <time>2022-09-13T21:44:15.508Z</time>
      </trkpt>
      <trkpt lat="47.84815" lon="9.96672">
        <ele>638.830127</ele>
        <time>2022-09-13T21:44:35.069Z</time>
      </trkpt>
      <trkpt lat="47.84807" lon="9.96672">
        <ele>638.815867</ele>
        <time>2022-09-13T21:44:37.031Z</time>
      </trkpt>
      <trkpt lat="47.84796" lon="9.96672">
        <ele>638.795833</ele>
        <time>2022-09-13T21:44:39.774Z</time>
      </trkpt>
      <trkpt lat="47.84783" lon="9.96674">
        <ele>638.772615</ele>
        <time>2022-09-13T21:44:43.108Z</time>
      </trkpt>
      <trkpt lat="47.8478" lon="9.96633">
        <ele>638.722402</ele>
        <time>2022-09-13T21:44:50.085Z</time>
      </trkpt>
      <trkpt lat="47.84782" lon="9.96463">
        <ele>638.851015</ele>
        <time>2022-09-13T21:45:19.786Z</time>
      </trkpt>
      <trkpt lat="47.84777" lon="9.96371">
        <ele>638.960296</ele>
        <time>2022-09-13T21:45:37.833Z</time>
      </trkpt>
      <trkpt lat="47.84764" lon="9.96229">
        <ele>639.344691</ele>
        <time>2022-09-13T21:46:06.532Z</time>
      </trkpt>
      <trkpt lat="47.84757" lon="9.96151">
        <ele>639.595479</ele>
        <time>2022-09-13T21:46:21.876Z</time>
      </trkpt>
      <trkpt lat="47.84768" lon="9.96142">
        <ele>639.653094</ele>
        <time>2022-09-13T21:46:25.261Z</time>
      </trkpt>
      <trkpt lat="47.84779" lon="9.96097">
        <ele>639.807386</ele>
        <time>2022-09-13T21:46:34.311Z</time>
      </trkpt>
      <trkpt lat="47.84783" lon="9.96058">
        <ele>639.851685</ele>
        <time>2022-09-13T21:46:41.547Z</time>
      </trkpt>
      <trkpt lat="47.84778" lon="9.95995">
        <ele>639.828178</ele>
        <time>2022-09-13T21:46:53.220Z</time>
      </trkpt>
      <trkpt lat="47.84767" lon="9.95955">
        <ele>639.811897</ele>
        <time>2022-09-13T21:47:01.173Z</time>
      </trkpt>
      <trkpt lat="47.84741" lon="9.95893">
        <ele>639.785008</ele>
        <time>2022-09-13T21:47:14.017Z</time>
      </trkpt>
      <trkpt lat="47.84722" lon="9.95827">
        <ele>639.743006</ele>
        <time>2022-09-13T21:47:26.194Z</time>
      </trkpt>
      <trkpt lat="47.84705" lon="9.95726">
        <ele>639.422282</ele>
        <time>2022-09-13T21:47:43.111Z</time>
      </trkpt>
      <trkpt lat="47.84698" lon="9.95639">
        <ele>639.153421</ele>
        <time>2022-09-13T21:47:57.641Z</time>
      </trkpt>
      <trkpt lat="47.84677" lon="9.95573">
        <ele>638.940205</ele>
        <time>2022-09-13T21:48:09.870Z</time>
      </trkpt>
      <trkpt lat="47.84646" lon="9.95509">
        <ele>638.974492</ele>
        <time>2022-09-13T21:48:24.129Z</time>
      </trkpt>
      <trkpt lat="47.8459" lon="9.95359">
        <ele>639.049064</ele>
        <time>2022-09-13T21:48:56.876Z</time>
      </trkpt>
      <trkpt lat="47.84574" lon="9.95297">
        <ele>639.285024</ele>
        <time>2022-09-13T21:49:10.585Z</time>
      </trkpt>
      <trkpt lat="47.84539" lon="9.95046">
        <ele>640.46012</ele>
        <time>2022-09-13T21:50:04.185Z</time>
      </trkpt>
      <trkpt lat="47.84493" lon="9.94871">
        <ele>641.529731</ele>
        <time>2022-09-13T21:50:44.788Z</time>
      </trkpt>
      <trkpt lat="47.84492" lon="9.94816">
        <ele>641.851738</ele>
        <time>2022-09-13T21:50:56.963Z</time>
      </trkpt>
      <trkpt lat="47.84511" lon="9.94752">
        <ele>642.2901</ele>
        <time>2022-09-13T21:51:11.897Z</time>
      </trkpt>
      <trkpt lat="47.84554" lon="9.94635">
        <ele>643.120344</ele>
        <time>2022-09-13T21:51:38.267Z</time>
      </trkpt>
      <trkpt lat="47.84552" lon="9.94611">
        <ele>643.274834</ele>
        <time>2022-09-13T21:51:43.336Z</time>
      </trkpt>
      <trkpt lat="47.84527" lon="9.94617">
        <ele>643.777347</ele>
        <time>2022-09-13T21:51:51.807Z</time>
      </trkpt>
      <trkpt lat="47.84503" lon="9.94613">
        <ele>644.792874</ele>
        <time>2022-09-13T21:52:01.211Z</time>
      </trkpt>
      <trkpt lat="47.84491" lon="9.94607">
        <ele>645.339456</ele>
        <time>2022-09-13T21:52:06.906Z</time>
      </trkpt>
      <trkpt lat="47.84452" lon="9.94557">
        <ele>647.508092</ele>
        <time>2022-09-13T21:52:30.399Z</time>
      </trkpt>
      <trkpt lat="47.84425" lon="9.94532">
        <ele>648.833013</ele>
        <time>2022-09-13T21:52:45.635Z</time>
      </trkpt>
      <trkpt lat="47.84412" lon="9.94521">
        <ele>649.475529</ele>
        <time>2022-09-13T21:52:52.896Z</time>
      </trkpt>
      <trkpt lat="47.84404" lon="9.94515">
        <ele>649.844453</ele>
        <time>2022-09-13T21:52:57.947Z</time>
      </trkpt>
      <trkpt lat="47.84402" lon="9.94513">
        <ele>649.933472</ele>
        <time>2022-09-13T21:52:59.244Z</time>
      </trkpt>
      <trkpt lat="47.84379" lon="9.94496">
        <ele>651.025823</ele>
        <time>2022-09-13T21:53:13.471Z</time>
      </trkpt>
      <trkpt lat="47.84362" lon="9.94483">
        <ele>652.420223</ele>
        <time>2022-09-13T21:53:25.873Z</time>
      </trkpt>
      <trkpt lat="47.84402" lon="9.94361">
        <ele>658.943234</ele>
        <time>2022-09-13T21:54:22.615Z</time>
      </trkpt>
      <trkpt lat="47.84398" lon="9.94354">
        <ele>659.392355</ele>
        <time>2022-09-13T21:54:27.103Z</time>
      </trkpt>
      <trkpt lat="47.84394" lon="9.94334">
        <ele>660.382257</ele>
        <time>2022-09-13T21:54:37.028Z</time>
      </trkpt>
      <trkpt lat="47.84394" lon="9.9426">
        <ele>663.937526</ele>
        <time>2022-09-13T21:55:07.703Z</time>
      </trkpt>
      <trkpt lat="47.84429" lon="9.94136">
        <ele>668.824813</ele>
        <time>2022-09-13T21:56:00.177Z</time>
      </trkpt>
      <trkpt lat="47.84455" lon="9.94049">
        <ele>672.269834</ele>
        <time>2022-09-13T21:56:31.870Z</time>
      </trkpt>
      <trkpt lat="47.84461" lon="9.93973">
        <ele>673.984695</ele>
        <time>2022-09-13T21:56:55.927Z</time>
      </trkpt>
      <trkpt lat="47.84454" lon="9.93914">
        <ele>674.50284</ele>
        <time>2022-09-13T21:57:13.764Z</time>
      </trkpt>
      <trkpt lat="47.84467" lon="9.93877">
        <ele>674.865956</ele>
        <time>2022-09-13T21:57:25.132Z</time>
      </trkpt>
      <trkpt lat="47.84469" lon="9.93856">
        <ele>675.044751</ele>
        <time>2022-09-13T21:57:29.654Z</time>
      </trkpt>
      <trkpt lat="47.84442" lon="9.93781">
        <ele>675.777457</ele>
        <time>2022-09-13T21:57:44.315Z</time>
      </trkpt>
      <trkpt lat="47.84419" lon="9.9375">
        <ele>675.324142</ele>
        <time>2022-09-13T21:57:51.128Z</time>
      </trkpt>
      <trkpt lat="47.84404" lon="9.93759">
        <ele>674.711536</ele>
        <time>2022-09-13T21:57:54.241Z</time>
      </trkpt>
      <trkpt lat="47.84389" lon="9.93792">
        <ele>673.710355</ele>
        <time>2022-09-13T21:57:59.694Z</time>
      </trkpt>
      <trkpt lat="47.84302" lon="9.93878">
        <ele>669.733154</ele>
        <time>2022-09-13T21:58:20.255Z</time>
      </trkpt>
      <trkpt lat="47.84293" lon="9.93871">
        <ele>669.354146</ele>
        <time>2022-09-13T21:58:22.023Z</time>
      </trkpt>
      <trkpt lat="47.84273" lon="9.93834">
        <ele>667.882481</ele>
        <time>2022-09-13T21:58:28.172Z</time>
      </trkpt>
      <trkpt lat="47.84263" lon="9.93768">
        <ele>665.705286</ele>
        <time>2022-09-13T21:58:36.756Z</time>
      </trkpt>
      <trkpt lat="47.8424" lon="9.93699">
        <ele>663.238653</ele>
        <time>2022-09-13T21:58:46.749Z</time>
      </trkpt>
      <trkpt lat="47.84227" lon="9.93629">
        <ele>660.92956</ele>
        <time>2022-09-13T21:58:56.183Z</time>
      </trkpt>
      <trkpt lat="47.84217" lon="9.93612">
        <ele>660.227839</ele>
        <time>2022-09-13T21:58:59.131Z</time>
      </trkpt>
      <trkpt lat="47.8401" lon="9.93432">
        <ele>650.797008</ele>
        <time>2022-09-13T21:59:45.309Z</time>
      </trkpt>
      <trkpt lat="47.83993" lon="9.93409">
        <ele>650.300589</ele>
        <time>2022-09-13T21:59:49.961Z</time>
      </trkpt>
      <trkpt lat="47.83976" lon="9.93365">
        <ele>649.557375</ele>
        <time>2022-09-13T21:59:57.031Z</time>
      </trkpt>
      <trkpt lat="47.84079" lon="9.93208">
        <ele>651.664248</ele>
        <time>2022-09-13T22:01:14.276Z</time>
      </trkpt>
      <trkpt lat="47.84086" lon="9.93183">
        <ele>652.311054</ele>
        <time>2022-09-13T22:01:26.532Z</time>
      </trkpt>
      <trkpt lat="47.84112" lon="9.93099">
        <ele>654.551694</ele>
        <time>2022-09-13T22:02:11.299Z</time>
      </trkpt>
      <trkpt lat="47.84085" lon="9.93068">
        <ele>656.408479</ele>
        <time>2022-09-13T22:02:37.204Z</time>
      </trkpt>
      <trkpt lat="47.84071" lon="9.93041">
        <ele>657.758748</ele>
        <time>2022-09-13T22:02:54.499Z</time>
      </trkpt>
      <trkpt lat="47.84043" lon="9.93015">
        <ele>659.658565</ele>
        <time>2022-09-13T22:03:19.401Z</time>
      </trkpt>
      <trkpt lat="47.84009" lon="9.92932">
        <ele>663.483983</ele>
        <time>2022-09-13T22:04:08.636Z</time>
      </trkpt>
      <trkpt lat="47.84005" lon="9.92799">
        <ele>667.224108</ele>
        <time>2022-09-13T22:05:06.916Z</time>
      </trkpt>
      <trkpt lat="47.83922" lon="9.92579">
        <ele>671.276572</ele>
        <time>2022-09-13T22:06:42.845Z</time>
      </trkpt>
      <trkpt lat="47.83909" lon="9.92454">
        <ele>671.591526</ele>
        <time>2022-09-13T22:07:21.791Z</time>
      </trkpt>
      <trkpt lat="47.83903" lon="9.92411">
        <ele>671.698771</ele>
        <time>2022-09-13T22:07:33.814Z</time>
      </trkpt>
      <trkpt lat="47.83895" lon="9.92389">
        <ele>671.761886</ele>
        <time>2022-09-13T22:07:40.787Z</time>
      </trkpt>
      <trkpt lat="47.83873" lon="9.92363">
        <ele>671.105101</ele>
        <time>2022-09-13T22:07:51.314Z</time>
      </trkpt>
      <trkpt lat="47.83812" lon="9.92332">
        <ele>669.456</ele>
        <time>2022-09-13T22:08:14.411Z</time>
      </trkpt>
      <trkpt lat="47.83799" lon="9.92313">
        <ele>668.976945</ele>
        <time>2022-09-13T22:08:21.281Z</time>
      </trkpt>
      <trkpt lat="47.83531" lon="9.91859">
        <ele>656.801991</ele>
        <time>2022-09-13T22:10:44.197Z</time>
      </trkpt>
      <trkpt lat="47.83541" lon="9.9172">
        <ele>656.503026</ele>
        <time>2022-09-13T22:11:06.676Z</time>
      </trkpt>
      <trkpt lat="47.83534" lon="9.91629">
        <ele>656.898928</ele>
        <time>2022-09-13T22:11:25.416Z</time>
      </trkpt>
      <trkpt lat="47.83513" lon="9.91511">
        <ele>658.516162</ele>
        <time>2022-09-13T22:12:01.314Z</time>
      </trkpt>
      <trkpt lat="47.83521" lon="9.91488">
        <ele>659.221242</ele>
        <time>2022-09-13T22:12:09.758Z</time>
      </trkpt>
      <trkpt lat="47.83505" lon="9.91432">
        <ele>660.904372</ele>
        <time>2022-09-13T22:12:29.865Z</time>
      </trkpt>
      <trkpt lat="47.83512" lon="9.9135">
        <ele>663.158749</ele>
        <time>2022-09-13T22:12:57.323Z</time>
      </trkpt>
      <trkpt lat="47.83495" lon="9.91288">
        <ele>664.932013</ele>
        <time>2022-09-13T22:13:19.718Z</time>
      </trkpt>
      <trkpt lat="47.8344" lon="9.91086">
        <ele>669.846983</ele>
        <time>2022-09-13T22:14:27.268Z</time>
      </trkpt>
      <trkpt lat="47.83423" lon="9.9099">
        <ele>670.628176</ele>
        <time>2022-09-13T22:14:48.712Z</time>
      </trkpt>
      <trkpt lat="47.83381" lon="9.90911">
        <ele>670.622818</ele>
        <time>2022-09-13T22:15:09.414Z</time>
      </trkpt>
      <trkpt lat="47.83365" lon="9.90831">
        <ele>670.618326</ele>
        <time>2022-09-13T22:15:23.973Z</time>
      </trkpt>
      <trkpt lat="47.83332" lon="9.90733">
        <ele>668.426813</ele>
        <time>2022-09-13T22:15:39.054Z</time>
      </trkpt>
      <trkpt lat="47.8332" lon="9.90658">
        <ele>666.587369</ele>
        <time>2022-09-13T22:15:49.372Z</time>
      </trkpt>
      <trkpt lat="47.83314" lon="9.90647">
        <ele>666.245764</ele>
        <time>2022-09-13T22:15:51.154Z</time>
      </trkpt>
      <trkpt lat="47.83317" lon="9.9059">
        <ele>664.888476</ele>
        <time>2022-09-13T22:15:58.522Z</time>
      </trkpt>
      <trkpt lat="47.83326" lon="9.90541">
        <ele>663.744722</ele>
        <time>2022-09-13T22:16:05.039Z</time>
      </trkpt>
      <trkpt lat="47.83327" lon="9.9045">
        <ele>661.86316</ele>
        <time>2022-09-13T22:16:17.020Z</time>
      </trkpt>
      <trkpt lat="47.83338" lon="9.90313">
        <ele>659.038551</ele>
        <time>2022-09-13T22:16:36.391Z</time>
      </trkpt>
      <trkpt lat="47.83385" lon="9.90214">
        <ele>658.989428</ele>
        <time>2022-09-13T22:16:57.918Z</time>
      </trkpt>
      <trkpt lat="47.83385" lon="9.90108">
        <ele>659.320683</ele>
        <time>2022-09-13T22:17:21.419Z</time>
      </trkpt>
      <trkpt lat="47.83393" lon="9.90038">
        <ele>659.683493</ele>
        <time>2022-09-13T22:17:38.916Z</time>
      </trkpt>
      <trkpt lat="47.83395" lon="9.90033">
        <ele>659.758948</ele>
        <time>2022-09-13T22:17:40.195Z</time>
      </trkpt>
      <trkpt lat="47.83412" lon="9.90012">
        <ele>660.22696</ele>
        <time>2022-09-13T22:17:48.335Z</time>
      </trkpt>
      <trkpt lat="47.83442" lon="9.89917">
        <ele>661.687168</ele>
        <time>2022-09-13T22:18:14.430Z</time>
      </trkpt>
      <trkpt lat="47.83443" lon="9.89915">
        <ele>661.727462</ele>
        <time>2022-09-13T22:18:15.214Z</time>
      </trkpt>
      <trkpt lat="47.83481" lon="9.89828">
        <ele>663.169061</ele>
        <time>2022-09-13T22:18:42.757Z</time>
      </trkpt>
      <trkpt lat="47.83489" lon="9.89811">
        <ele>663.552527</ele>
        <time>2022-09-13T22:18:48.117Z</time>
      </trkpt>
      <trkpt lat="47.83513" lon="9.89788">
        <ele>664.387268</ele>
        <time>2022-09-13T22:18:59.309Z</time>
      </trkpt>
      <trkpt lat="47.83535" lon="9.89727">
        <ele>665.725418</ele>
        <time>2022-09-13T22:19:17.212Z</time>
      </trkpt>
      <trkpt lat="47.83545" lon="9.89679">
        <ele>666.706656</ele>
        <time>2022-09-13T22:19:30.693Z</time>
      </trkpt>
      <trkpt lat="47.83567" lon="9.89489">
        <ele>671.435927</ele>
        <time>2022-09-13T22:20:30.796Z</time>
      </trkpt>
      <trkpt lat="47.83566" lon="9.89443">
        <ele>672.759002</ele>
        <time>2022-09-13T22:20:46.175Z</time>
      </trkpt>
      <trkpt lat="47.83555" lon="9.89362">
        <ele>675.125161</ele>
        <time>2022-09-13T22:21:14.663Z</time>
      </trkpt>
      <trkpt lat="47.83523" lon="9.89162">
        <ele>679.720167</ele>
        <time>2022-09-13T22:22:21.145Z</time>
      </trkpt>
      <trkpt lat="47.83546" lon="9.89029">
        <ele>681.504459</ele>
        <time>2022-09-13T22:22:54.261Z</time>
      </trkpt>
      <trkpt lat="47.83579" lon="9.88915">
        <ele>680.596888</ele>
        <time>2022-09-13T22:23:13.529Z</time>
      </trkpt>
      <trkpt lat="47.83574" lon="9.8882">
        <ele>679.899437</ele>
        <time>2022-09-13T22:23:27.279Z</time>
      </trkpt>
      <trkpt lat="47.8356" lon="9.88765">
        <ele>679.528963</ele>
        <time>2022-09-13T22:23:36.073Z</time>
      </trkpt>
      <trkpt lat="47.83531" lon="9.88686">
        <ele>679.001246</ele>
        <time>2022-09-13T22:23:49.880Z</time>
      </trkpt>
      <trkpt lat="47.83484" lon="9.88474">
        <ele>678.452197</ele>
        <time>2022-09-13T22:24:32.573Z</time>
      </trkpt>
      <trkpt lat="47.8348" lon="9.88403">
        <ele>678.61589</ele>
        <time>2022-09-13T22:24:48.877Z</time>
      </trkpt>
      <trkpt lat="47.83486" lon="9.88268">
        <ele>678.624168</ele>
        <time>2022-09-13T22:25:14.191Z</time>
      </trkpt>
      <trkpt lat="47.83479" lon="9.88212">
        <ele>678.234303</ele>
        <time>2022-09-13T22:25:23.944Z</time>
      </trkpt>
      <trkpt lat="47.83482" lon="9.88173">
        <ele>677.964508</ele>
        <time>2022-09-13T22:25:30.396Z</time>
      </trkpt>
      <trkpt lat="47.83487" lon="9.88146">
        <ele>677.771356</ele>
        <time>2022-09-13T22:25:34.819Z</time>
      </trkpt>
      <trkpt lat="47.83491" lon="9.88067">
        <ele>677.237478</ele>
        <time>2022-09-13T22:25:46.881Z</time>
      </trkpt>
      <trkpt lat="47.8351" lon="9.87959">
        <ele>676.645608</ele>
        <time>2022-09-13T22:26:03.925Z</time>
      </trkpt>
      <trkpt lat="47.8351" lon="9.87913">
        <ele>676.42542</ele>
        <time>2022-09-13T22:26:11.188Z</time>
      </trkpt>
      <trkpt lat="47.83485" lon="9.87796">
        <ele>675.847399</ele>
        <time>2022-09-13T22:26:33.318Z</time>
      </trkpt>
      <trkpt lat="47.83476" lon="9.87775">
        <ele>675.802265</ele>
        <time>2022-09-13T22:26:37.840Z</time>
      </trkpt>
      <trkpt lat="47.83444" lon="9.8769">
        <ele>676.406145</ele>
        <time>2022-09-13T22:26:59.509Z</time>
      </trkpt>
      <trkpt lat="47.83444" lon="9.87609">
        <ele>676.912754</ele>
        <time>2022-09-13T22:27:18.155Z</time>
      </trkpt>
      <trkpt lat="47.83446" lon="9.87607">
        <ele>676.929878</ele>
        <time>2022-09-13T22:27:18.816Z</time>
      </trkpt>
      <trkpt lat="47.83456" lon="9.87593">
        <ele>677.061466</ele>
        <time>2022-09-13T22:27:23.642Z</time>
      </trkpt>
      <trkpt lat="47.83449" lon="9.87581">
        <ele>677.163671</ele>
        <time>2022-09-13T22:27:26.837Z</time>
      </trkpt>
      <trkpt lat="47.83485" lon="9.87517">
        <ele>677.487369</ele>
        <time>2022-09-13T22:27:45.408Z</time>
      </trkpt>
      <trkpt lat="47.83497" lon="9.87497">
        <ele>677.527193</ele>
        <time>2022-09-13T22:27:50.816Z</time>
      </trkpt>
      <trkpt lat="47.83471" lon="9.87446">
        <ele>677.622357</ele>
        <time>2022-09-13T22:28:03.195Z</time>
      </trkpt>
      <trkpt lat="47.8343" lon="9.87393">
        <ele>677.74237</ele>
        <time>2022-09-13T22:28:18.304Z</time>
      </trkpt>
      <trkpt lat="47.83481" lon="9.87296">
        <ele>677.901229</ele>
        <time>2022-09-13T22:28:39.763Z</time>
      </trkpt>
      <trkpt lat="47.83549" lon="9.87144">
        <ele>678.109831</ele>
        <time>2022-09-13T22:29:14.958Z</time>
      </trkpt>
      <trkpt lat="47.83572" lon="9.87083">
        <ele>678.807736</ele>
        <time>2022-09-13T22:29:30.113Z</time>
      </trkpt>
      <trkpt lat="47.83593" lon="9.86961">
        <ele>680.432481</ele>
        <time>2022-09-13T22:29:58.575Z</time>
      </trkpt>
      <trkpt lat="47.83616" lon="9.86913">
        <ele>681.186154</ele>
        <time>2022-09-13T22:30:13.881Z</time>
      </trkpt>
      <trkpt lat="47.83625" lon="9.869">
        <ele>681.432164</ele>
        <time>2022-09-13T22:30:19.430Z</time>
      </trkpt>
      <trkpt lat="47.83657" lon="9.86845">
        <ele>683.625431</ele>
        <time>2022-09-13T22:30:44.349Z</time>
      </trkpt>
      <trkpt lat="47.83683" lon="9.8675">
        <ele>687.051556</ele>
        <time>2022-09-13T22:31:25.070Z</time>
      </trkpt>
      <trkpt lat="47.83704" lon="9.86661">
        <ele>690.194586</ele>
        <time>2022-09-13T22:31:58.617Z</time>
      </trkpt>
      <trkpt lat="47.83735" lon="9.86568">
        <ele>691.246129</ele>
        <time>2022-09-13T22:32:27.817Z</time>
      </trkpt>
      <trkpt lat="47.83749" lon="9.8652">
        <ele>691.646384</ele>
        <time>2022-09-13T22:32:40.301Z</time>
      </trkpt>
      <trkpt lat="47.83745" lon="9.86445">
        <ele>692.223741</ele>
        <time>2022-09-13T22:32:54.413Z</time>
      </trkpt>
      <trkpt lat="47.83749" lon="9.86408">
        <ele>692.512195</ele>
        <time>2022-09-13T22:33:00.285Z</time>
      </trkpt>
      <trkpt lat="47.83771" lon="9.8637">
        <ele>692.325268</ele>
        <time>2022-09-13T22:33:07.540Z</time>
      </trkpt>
      <trkpt lat="47.83787" lon="9.8634">
        <ele>692.09771</ele>
        <time>2022-09-13T22:33:12.799Z</time>
      </trkpt>
      <trkpt lat="47.83799" lon="9.86302">
        <ele>691.845978</ele>
        <time>2022-09-13T22:33:19.017Z</time>
      </trkpt>
      <trkpt lat="47.83811" lon="9.8623">
        <ele>691.405036</ele>
        <time>2022-09-13T22:33:30.896Z</time>
      </trkpt>
      <trkpt lat="47.83885" lon="9.86153">
        <ele>691.827776</ele>
        <time>2022-09-13T22:34:00.731Z</time>
      </trkpt>
      <trkpt lat="47.83914" lon="9.86141">
        <ele>692.423765</ele>
        <time>2022-09-13T22:34:11.294Z</time>
      </trkpt>
      <trkpt lat="47.83967" lon="9.86138">
        <ele>693.489838</ele>
        <time>2022-09-13T22:34:29.554Z</time>
      </trkpt>
      <trkpt lat="47.84017" lon="9.8616">
        <ele>694.536152</ele>
        <time>2022-09-13T22:34:48.559Z</time>
      </trkpt>
      <trkpt lat="47.84031" lon="9.86159">
        <ele>695.532457</ele>
        <time>2022-09-13T22:34:55.627Z</time>
      </trkpt>
      <trkpt lat="47.84044" lon="9.86149">
        <ele>696.724076</ele>
        <time>2022-09-13T22:35:02.669Z</time>
      </trkpt>
      <trkpt lat="47.8406" lon="9.86121">
        <ele>698.768965</ele>
        <time>2022-09-13T22:35:18.167Z</time>
      </trkpt>
      <trkpt lat="47.84062" lon="9.86043">
        <ele>703.092101</ele>
        <time>2022-09-13T22:35:58.605Z</time>
      </trkpt>
      <trkpt lat="47.84081" lon="9.86001">
        <ele>705.843934</ele>
        <time>2022-09-13T22:36:24.507Z</time>
      </trkpt>
      <trkpt lat="47.84083" lon="9.85999">
        <ele>706.019407</ele>
        <time>2022-09-13T22:36:25.755Z</time>
      </trkpt>
      <trkpt lat="47.84087" lon="9.85991">
        <ele>706.583562</ele>
        <time>2022-09-13T22:36:30.250Z</time>
      </trkpt>
      <trkpt lat="47.84111" lon="9.85935">
        <ele>709.968644</ele>
        <time>2022-09-13T22:37:03.946Z</time>
      </trkpt>
      <trkpt lat="47.84119" lon="9.85913">
        <ele>710.884015</ele>
        <time>2022-09-13T22:37:19.390Z</time>
      </trkpt>
      <trkpt lat="47.84119" lon="9.8584">
        <ele>713.51407</ele>
        <time>2022-09-13T22:37:55.175Z</time>
      </trkpt>
      <trkpt lat="47.84093" lon="9.85498">
        <ele>719.175996</ele>
        <time>2022-09-13T22:39:27.747Z</time>
      </trkpt>
      <trkpt lat="47.84069" lon="9.85393">
        <ele>718.351702</ele>
        <time>2022-09-13T22:39:42.130Z</time>
      </trkpt>
      <trkpt lat="47.84066" lon="9.85353">
        <ele>717.285848</ele>
        <time>2022-09-13T22:39:47.361Z</time>
      </trkpt>
      <trkpt lat="47.84073" lon="9.85314">
        <ele>716.255614</ele>
        <time>2022-09-13T22:39:52.469Z</time>
      </trkpt>
      <trkpt lat="47.841" lon="9.85239">
        <ele>714.027384</ele>
        <time>2022-09-13T22:40:03.522Z</time>
      </trkpt>
      <trkpt lat="47.84162" lon="9.85107">
        <ele>711.996157</ele>
        <time>2022-09-13T22:40:26.605Z</time>
      </trkpt>
      <trkpt lat="47.84243" lon="9.84981">
        <ele>711.569532</ele>
        <time>2022-09-13T22:41:03.004Z</time>
      </trkpt>
      <trkpt lat="47.84271" lon="9.8495">
        <ele>712.198859</ele>
        <time>2022-09-13T22:41:15.507Z</time>
      </trkpt>
      <trkpt lat="47.84306" lon="9.84923">
        <ele>712.960105</ele>
        <time>2022-09-13T22:41:29.697Z</time>
      </trkpt>
      <trkpt lat="47.84306" lon="9.84905">
        <ele>713.197586</ele>
        <time>2022-09-13T22:41:34.893Z</time>
      </trkpt>
      <trkpt lat="47.84321" lon="9.8485">
        <ele>713.958879</ele>
        <time>2022-09-13T22:41:49.584Z</time>
      </trkpt>
      <trkpt lat="47.84344" lon="9.84793">
        <ele>714.817221</ele>
        <time>2022-09-13T22:42:06.651Z</time>
      </trkpt>
      <trkpt lat="47.84348" lon="9.84755">
        <ele>715.346354</ele>
        <time>2022-09-13T22:42:16.549Z</time>
      </trkpt>
      <trkpt lat="47.84342" lon="9.84713">
        <ele>715.971899</ele>
        <time>2022-09-13T22:42:28.532Z</time>
      </trkpt>
      <trkpt lat="47.8431" lon="9.84645">
        <ele>717.184443</ele>
        <time>2022-09-13T22:42:51.637Z</time>
      </trkpt>
      <trkpt lat="47.84305" lon="9.84623">
        <ele>717.524885</ele>
        <time>2022-09-13T22:42:58.293Z</time>
      </trkpt>
      <trkpt lat="47.84312" lon="9.8454">
        <ele>718.746135</ele>
        <time>2022-09-13T22:43:18.148Z</time>
      </trkpt>
      <trkpt lat="47.84323" lon="9.84501">
        <ele>718.917208</ele>
        <time>2022-09-13T22:43:28.262Z</time>
      </trkpt>
      <trkpt lat="47.84357" lon="9.84418">
        <ele>718.897737</ele>
        <time>2022-09-13T22:43:47.500Z</time>
      </trkpt>
      <trkpt lat="47.84358" lon="9.8439">
        <ele>718.89211</ele>
        <time>2022-09-13T22:43:52.166Z</time>
      </trkpt>
      <trkpt lat="47.84342" lon="9.84329">
        <ele>718.878769</ele>
        <time>2022-09-13T22:44:04.305Z</time>
      </trkpt>
      <trkpt lat="47.844" lon="9.84233">
        <ele>718.316033</ele>
        <time>2022-09-13T22:44:23.331Z</time>
      </trkpt>
      <trkpt lat="47.84437" lon="9.84125">
        <ele>717.509053</ele>
        <time>2022-09-13T22:44:41.107Z</time>
      </trkpt>
      <trkpt lat="47.845" lon="9.84018">
        <ele>717.408511</ele>
        <time>2022-09-13T22:45:07.113Z</time>
      </trkpt>
      <trkpt lat="47.84535" lon="9.83908">
        <ele>717.925502</ele>
        <time>2022-09-13T22:45:33.447Z</time>
      </trkpt>
      <trkpt lat="47.84546" lon="9.83884">
        <ele>718.047844</ele>
        <time>2022-09-13T22:45:39.871Z</time>
      </trkpt>
      <trkpt lat="47.84559" lon="9.83872">
        <ele>718.141238</ele>
        <time>2022-09-13T22:45:44.319Z</time>
      </trkpt>
      <trkpt lat="47.84607" lon="9.83844">
        <ele>718.523103</ele>
        <time>2022-09-13T22:45:59.150Z</time>
      </trkpt>
      <trkpt lat="47.84681" lon="9.83828">
        <ele>719.094854</ele>
        <time>2022-09-13T22:46:20.432Z</time>
      </trkpt>
      <trkpt lat="47.84707" lon="9.83824">
        <ele>719.295586</ele>
        <time>2022-09-13T22:46:29.160Z</time>
      </trkpt>
      <trkpt lat="47.84712" lon="9.83823">
        <ele>719.334086</ele>
        <time>2022-09-13T22:46:30.834Z</time>
      </trkpt>
      <trkpt lat="47.84723" lon="9.8382">
        <ele>719.417715</ele>
        <time>2022-09-13T22:46:34.267Z</time>
      </trkpt>
      <trkpt lat="47.84754" lon="9.83805">
        <ele>719.665142</ele>
        <time>2022-09-13T22:46:45.468Z</time>
      </trkpt>
      <trkpt lat="47.8479" lon="9.83758">
        <ele>720.029917</ele>
        <time>2022-09-13T22:47:00.319Z</time>
      </trkpt>
      <trkpt lat="47.84781" lon="9.83698">
        <ele>720.348526</ele>
        <time>2022-09-13T22:47:13.149Z</time>
      </trkpt>
      <trkpt lat="47.84777" lon="9.83662">
        <ele>720.532244</ele>
        <time>2022-09-13T22:47:20.131Z</time>
      </trkpt>
      <trkpt lat="47.84772" lon="9.83618">
        <ele>720.764738</ele>
        <time>2022-09-13T22:47:29.206Z</time>
      </trkpt>
      <trkpt lat="47.84762" lon="9.83521">
        <ele>720.271326</ele>
        <time>2022-09-13T22:47:48.461Z</time>
      </trkpt>
      <trkpt lat="47.84761" lon="9.8349">
        <ele>719.912693</ele>
        <time>2022-09-13T22:47:53.692Z</time>
      </trkpt>
      <trkpt lat="47.8476" lon="9.83442">
        <ele>719.354034</ele>
        <time>2022-09-13T22:48:00.881Z</time>
      </trkpt>
      <trkpt lat="47.84748" lon="9.83322">
        <ele>717.929461</ele>
        <time>2022-09-13T22:48:16.981Z</time>
      </trkpt>
      <trkpt lat="47.84715" lon="9.83182">
        <ele>713.96392</ele>
        <time>2022-09-13T22:48:35.511Z</time>
      </trkpt>
      <trkpt lat="47.84679" lon="9.8308">
        <ele>710.773106</ele>
        <time>2022-09-13T22:48:50.005Z</time>
      </trkpt>
      <trkpt lat="47.84656" lon="9.83017">
        <ele>708.584851</ele>
        <time>2022-09-13T22:48:58.909Z</time>
      </trkpt>
      <trkpt lat="47.84653" lon="9.83011">
        <ele>708.374278</ele>
        <time>2022-09-13T22:48:59.664Z</time>
      </trkpt>
      <trkpt lat="47.84641" lon="9.82912">
        <ele>705.217283</ele>
        <time>2022-09-13T22:49:12.196Z</time>
      </trkpt>
      <trkpt lat="47.84615" lon="9.82829">
        <ele>702.394552</ele>
        <time>2022-09-13T22:49:23.390Z</time>
      </trkpt>
      <trkpt lat="47.84615" lon="9.82804">
        <ele>701.55277</ele>
        <time>2022-09-13T22:49:26.432Z</time>
      </trkpt>
      <trkpt lat="47.84614" lon="9.82792">
        <ele>701.117033</ele>
        <time>2022-09-13T22:49:27.945Z</time>
      </trkpt>
      <trkpt lat="47.8462" lon="9.8277">
        <ele>700.267513</ele>
        <time>2022-09-13T22:49:30.928Z</time>
      </trkpt>
      <trkpt lat="47.84625" lon="9.82738">
        <ele>699.114593</ele>
        <time>2022-09-13T22:49:34.809Z</time>
      </trkpt>
      <trkpt lat="47.84627" lon="9.82731">
        <ele>698.826544</ele>
        <time>2022-09-13T22:49:35.741Z</time>
      </trkpt>
      <trkpt lat="47.84633" lon="9.82704">
        <ele>697.807253</ele>
        <time>2022-09-13T22:49:39.188Z</time>
      </trkpt>
      <trkpt lat="47.84644" lon="9.82672">
        <ele>696.53278</ele>
        <time>2022-09-13T22:49:43.363Z</time>
      </trkpt>
      <trkpt lat="47.84671" lon="9.82608">
        <ele>693.834843</ele>
        <time>2022-09-13T22:49:52.512Z</time>
      </trkpt>
      <trkpt lat="47.84686" lon="9.82591">
        <ele>692.815033</ele>
        <time>2022-09-13T22:49:55.894Z</time>
      </trkpt>
      <trkpt lat="47.84682" lon="9.82565">
        <ele>691.898519</ele>
        <time>2022-09-13T22:49:59.231Z</time>
      </trkpt>
      <trkpt lat="47.84684" lon="9.82536">
        <ele>690.905751</ele>
        <time>2022-09-13T22:50:02.674Z</time>
      </trkpt>
      <trkpt lat="47.847" lon="9.82481">
        <ele>688.897897</ele>
        <time>2022-09-13T22:50:09.801Z</time>
      </trkpt>
      <trkpt lat="47.84758" lon="9.82392">
        <ele>684.682478</ele>
        <time>2022-09-13T22:50:24.792Z</time>
      </trkpt>
      <trkpt lat="47.84827" lon="9.8234">
        <ele>681.871336</ele>
        <time>2022-09-13T22:50:39.284Z</time>
      </trkpt>
      <trkpt lat="47.84885" lon="9.82174">
        <ele>678.068341</ele>
        <time>2022-09-13T22:51:04.592Z</time>
      </trkpt>
      <trkpt lat="47.84934" lon="9.82098">
        <ele>677.625823</ele>
        <time>2022-09-13T22:51:20.430Z</time>
      </trkpt>
      <trkpt lat="47.85046" lon="9.82038">
        <ele>677.110945</ele>
        <time>2022-09-13T22:51:51.277Z</time>
      </trkpt>
      <trkpt lat="47.85071" lon="9.81718">
        <ele>680.609966</ele>
        <time>2022-09-13T22:53:08.191Z</time>
      </trkpt>
      <trkpt lat="47.85071" lon="9.81612">
        <ele>681.90911</ele>
        <time>2022-09-13T22:53:34.770Z</time>
      </trkpt>
      <trkpt lat="47.851" lon="9.8145">
        <ele>683.857299</ele>
        <time>2022-09-13T22:54:12.493Z</time>
      </trkpt>
      <trkpt lat="47.85133" lon="9.81344">
        <ele>685.126701</ele>
        <time>2022-09-13T22:54:37.280Z</time>
      </trkpt>
      <trkpt lat="47.85129" lon="9.8128">
        <ele>685.817028</ele>
        <time>2022-09-13T22:54:51.866Z</time>
      </trkpt>
      <trkpt lat="47.85117" lon="9.8123">
        <ele>686.988974</ele>
        <time>2022-09-13T22:55:13.066Z</time>
      </trkpt>
      <trkpt lat="47.85068" lon="9.81111">
        <ele>690.627998</ele>
        <time>2022-09-13T22:56:13.711Z</time>
      </trkpt>
      <trkpt lat="47.85049" lon="9.81051">
        <ele>692.365396</ele>
        <time>2022-09-13T22:56:45.381Z</time>
      </trkpt>
      <trkpt lat="47.85033" lon="9.81">
        <ele>692.971756</ele>
        <time>2022-09-13T22:57:09.650Z</time>
      </trkpt>
      <trkpt lat="47.85003" lon="9.80938">
        <ele>692.882025</ele>
        <time>2022-09-13T22:57:38.336Z</time>
      </trkpt>
      <trkpt lat="47.84984" lon="9.80867">
        <ele>692.792959</ele>
        <time>2022-09-13T22:58:02.820Z</time>
      </trkpt>
      <trkpt lat="47.8515" lon="9.8066">
        <ele>683.976618</ele>
        <time>2022-09-13T22:59:13.233Z</time>
      </trkpt>
      <trkpt lat="47.85177" lon="9.80604">
        <ele>681.734306</ele>
        <time>2022-09-13T22:59:27.771Z</time>
      </trkpt>
      <trkpt lat="47.85246" lon="9.80415">
        <ele>675.538118</ele>
        <time>2022-09-13T23:00:15.879Z</time>
      </trkpt>
      <trkpt lat="47.85249" lon="9.80342">
        <ele>676.37802</ele>
        <time>2022-09-13T23:00:36.904Z</time>
      </trkpt>
      <trkpt lat="47.8526" lon="9.80299">
        <ele>677.283663</ele>
        <time>2022-09-13T23:00:52.403Z</time>
      </trkpt>
      <trkpt lat="47.85262" lon="9.80265">
        <ele>677.968026</ele>
        <time>2022-09-13T23:01:05.340Z</time>
      </trkpt>
      <trkpt lat="47.85259" lon="9.80051">
        <ele>682.062694</ele>
        <time>2022-09-13T23:02:54.373Z</time>
      </trkpt>
      <trkpt lat="47.85232" lon="9.79909">
        <ele>684.662983</ele>
        <time>2022-09-13T23:03:49.466Z</time>
      </trkpt>
      <trkpt lat="47.85215" lon="9.79884">
        <ele>685.247703</ele>
        <time>2022-09-13T23:03:54.474Z</time>
      </trkpt>
      <trkpt lat="47.85205" lon="9.7983">
        <ele>683.0863</ele>
        <time>2022-09-13T23:04:01.786Z</time>
      </trkpt>
      <trkpt lat="47.85204" lon="9.79766">
        <ele>680.62726</ele>
        <time>2022-09-13T23:04:09.435Z</time>
      </trkpt>
      <trkpt lat="47.8519" lon="9.79703">
        <ele>678.068147</ele>
        <time>2022-09-13T23:04:17.130Z</time>
      </trkpt>
      <trkpt lat="47.85188" lon="9.79668">
        <ele>676.706869</ele>
        <time>2022-09-13T23:04:21.016Z</time>
      </trkpt>
      <trkpt lat="47.85173" lon="9.79582">
        <ele>673.264782</ele>
        <time>2022-09-13T23:04:30.959Z</time>
      </trkpt>
      <trkpt lat="47.85169" lon="9.79494">
        <ele>669.84368</ele>
        <time>2022-09-13T23:04:41.450Z</time>
      </trkpt>
      <trkpt lat="47.85171" lon="9.79424">
        <ele>667.150815</ele>
        <time>2022-09-13T23:04:49.808Z</time>
      </trkpt>
      <trkpt lat="47.85177" lon="9.79409">
        <ele>666.469715</ele>
        <time>2022-09-13T23:04:52.057Z</time>
      </trkpt>
      <trkpt lat="47.85175" lon="9.79381">
        <ele>665.391089</ele>
        <time>2022-09-13T23:04:55.547Z</time>
      </trkpt>
      <trkpt lat="47.85168" lon="9.79379">
        <ele>664.954786</ele>
        <time>2022-09-13T23:04:56.981Z</time>
      </trkpt>
      <trkpt lat="47.85165" lon="9.79379">
        <ele>664.792192</ele>
        <time>2022-09-13T23:04:57.524Z</time>
      </trkpt>
      <trkpt lat="47.85146" lon="9.79375">
        <ele>664.115289</ele>
        <time>2022-09-13T23:05:01.195Z</time>
      </trkpt>
      <trkpt lat="47.8514" lon="9.79374">
        <ele>663.92053</ele>
        <time>2022-09-13T23:05:02.427Z</time>
      </trkpt>
      <trkpt lat="47.85139" lon="9.79363">
        <ele>663.692291</ele>
        <time>2022-09-13T23:05:03.898Z</time>
      </trkpt>
      <trkpt lat="47.85132" lon="9.79213">
        <ele>660.648064</ele>
        <time>2022-09-13T23:05:23.814Z</time>
      </trkpt>
      <trkpt lat="47.85006" lon="9.7921">
        <ele>657.832606</ele>
        <time>2022-09-13T23:05:49.835Z</time>
      </trkpt>
      <trkpt lat="47.84932" lon="9.79197">
        <ele>656.551025</ele>
        <time>2022-09-13T23:06:06.269Z</time>
      </trkpt>
      <trkpt lat="47.84847" lon="9.79176">
        <ele>655.847388</ele>
        <time>2022-09-13T23:06:26.251Z</time>
      </trkpt>
      <trkpt lat="47.84797" lon="9.79155">
        <ele>655.65747</ele>
        <time>2022-09-13T23:06:39.386Z</time>
      </trkpt>
      <trkpt lat="47.84702" lon="9.79103">
        <ele>655.245266</ele>
        <time>2022-09-13T23:07:07.422Z</time>
      </trkpt>
      <trkpt lat="47.84634" lon="9.79032">
        <ele>654.82571</ele>
        <time>2022-09-13T23:07:28.928Z</time>
      </trkpt>
      <trkpt lat="47.84594" lon="9.78986">
        <ele>654.566125</ele>
        <time>2022-09-13T23:07:40.958Z</time>
      </trkpt>
      <trkpt lat="47.84608" lon="9.78928">
        <ele>653.846438</ele>
        <time>2022-09-13T23:07:50.471Z</time>
      </trkpt>
      <trkpt lat="47.84594" lon="9.78858">
        <ele>652.625556</ele>
        <time>2022-09-13T23:08:01.308Z</time>
      </trkpt>
      <trkpt lat="47.84546" lon="9.78737">
        <ele>650.275893</ele>
        <time>2022-09-13T23:08:20.581Z</time>
      </trkpt>
      <trkpt lat="47.8451" lon="9.78661">
        <ele>648.491147</ele>
        <time>2022-09-13T23:08:33.667Z</time>
      </trkpt>
      <trkpt lat="47.84492" lon="9.78663">
        <ele>647.95255</ele>
        <time>2022-09-13T23:08:37.344Z</time>
      </trkpt>
      <trkpt lat="47.84487" lon="9.78616">
        <ele>647.013915</ele>
        <time>2022-09-13T23:08:43.553Z</time>
      </trkpt>
      <trkpt lat="47.84458" lon="9.78486">
        <ele>644.628124</ele>
        <time>2022-09-13T23:09:01.938Z</time>
      </trkpt>
      <trkpt lat="47.84453" lon="9.78432">
        <ele>644.379939</ele>
        <time>2022-09-13T23:09:09.643Z</time>
      </trkpt>
      <trkpt lat="47.84455" lon="9.78382">
        <ele>644.151151</ele>
        <time>2022-09-13T23:09:17.512Z</time>
      </trkpt>
      <trkpt lat="47.84467" lon="9.78309">
        <ele>643.806702</ele>
        <time>2022-09-13T23:09:30.705Z</time>
      </trkpt>
      <trkpt lat="47.84488" lon="9.78242">
        <ele>643.566091</ele>
        <time>2022-09-13T23:09:44.624Z</time>
      </trkpt>
      <trkpt lat="47.84507" lon="9.78206">
        <ele>644.049927</ele>
        <time>2022-09-13T23:09:54.562Z</time>
      </trkpt>
      <trkpt lat="47.84604" lon="9.78082">
        <ele>646.042501</ele>
        <time>2022-09-13T23:10:42.349Z</time>
      </trkpt>
      <trkpt lat="47.84684" lon="9.78012">
        <ele>645.740336</ele>
        <time>2022-09-13T23:11:10.233Z</time>
      </trkpt>
      <trkpt lat="47.84699" lon="9.77992">
        <ele>645.592911</ele>
        <time>2022-09-13T23:11:15.004Z</time>
      </trkpt>
      <trkpt lat="47.84805" lon="9.77794">
        <ele>642.802969</ele>
        <time>2022-09-13T23:11:50.112Z</time>
      </trkpt>
      <trkpt lat="47.84815" lon="9.77764">
        <ele>642.23297</ele>
        <time>2022-09-13T23:11:54.542Z</time>
      </trkpt>
      <trkpt lat="47.8484" lon="9.77623">
        <ele>640.042596</ele>
        <time>2022-09-13T23:12:14.087Z</time>
      </trkpt>
      <trkpt lat="47.84839" lon="9.77362">
        <ele>637.966749</ele>
        <time>2022-09-13T23:12:53.363Z</time>
      </trkpt>
      <trkpt lat="47.84839" lon="9.77336">
        <ele>638.118571</ele>
        <time>2022-09-13T23:12:58.210Z</time>
      </trkpt>
      <trkpt lat="47.84837" lon="9.77185">
        <ele>639.011907</ele>
        <time>2022-09-13T23:13:31.129Z</time>
      </trkpt>
      <trkpt lat="47.84833" lon="9.77134">
        <ele>639.312735</ele>
        <time>2022-09-13T23:13:43.744Z</time>
      </trkpt>
      <trkpt lat="47.84783" lon="9.76731">
        <ele>643.334314</ele>
        <time>2022-09-13T23:15:23.969Z</time>
      </trkpt>
      <trkpt lat="47.84741" lon="9.76683">
        <ele>643.557266</ele>
        <time>2022-09-13T23:15:37.351Z</time>
      </trkpt>
      <trkpt lat="47.84699" lon="9.76588">
        <ele>642.349925</ele>
        <time>2022-09-13T23:15:53.693Z</time>
      </trkpt>
      <trkpt lat="47.84659" lon="9.76514">
        <ele>640.210921</ele>
        <time>2022-09-13T23:16:05.956Z</time>
      </trkpt>
      <trkpt lat="47.84636" lon="9.76462">
        <ele>638.801588</ele>
        <time>2022-09-13T23:16:13.798Z</time>
      </trkpt>
      <trkpt lat="47.8456" lon="9.7624">
        <ele>631.449179</ele>
        <time>2022-09-13T23:16:44.508Z</time>
      </trkpt>
      <trkpt lat="47.84553" lon="9.76225">
        <ele>630.869765</ele>
        <time>2022-09-13T23:16:46.768Z</time>
      </trkpt>
      <trkpt lat="47.84544" lon="9.76206">
        <ele>630.144826</ele>
        <time>2022-09-13T23:16:49.606Z</time>
      </trkpt>
      <trkpt lat="47.84519" lon="9.76174">
        <ele>628.553873</ele>
        <time>2022-09-13T23:16:55.562Z</time>
      </trkpt>
      <trkpt lat="47.8448" lon="9.76144">
        <ele>626.305691</ele>
        <time>2022-09-13T23:17:03.587Z</time>
      </trkpt>
      <trkpt lat="47.84456" lon="9.76102">
        <ele>624.385762</ele>
        <time>2022-09-13T23:17:10.462Z</time>
      </trkpt>
      <trkpt lat="47.8445" lon="9.76082">
        <ele>623.648789</ele>
        <time>2022-09-13T23:17:13.006Z</time>
      </trkpt>
      <trkpt lat="47.84468" lon="9.76062">
        <ele>622.483843</ele>
        <time>2022-09-13T23:17:17.080Z</time>
      </trkpt>
      <trkpt lat="47.84501" lon="9.76014">
        <ele>620.12296</ele>
        <time>2022-09-13T23:17:25.265Z</time>
      </trkpt>
      <trkpt lat="47.84528" lon="9.75955">
        <ele>617.363724</ele>
        <time>2022-09-13T23:17:33.791Z</time>
      </trkpt>
      <trkpt lat="47.84551" lon="9.75868">
        <ele>613.74323</ele>
        <time>2022-09-13T23:17:44.635Z</time>
      </trkpt>
      <trkpt lat="47.84569" lon="9.75792">
        <ele>610.599216</ele>
        <time>2022-09-13T23:17:54.273Z</time>
      </trkpt>
      <trkpt lat="47.84574" lon="9.7573">
        <ele>609.022031</ele>
        <time>2022-09-13T23:18:01.772Z</time>
      </trkpt>
      <trkpt lat="47.84578" lon="9.75678">
        <ele>608.142402</ele>
        <time>2022-09-13T23:18:08.490Z</time>
      </trkpt>
      <trkpt lat="47.84572" lon="9.75605">
        <ele>606.935123</ele>
        <time>2022-09-13T23:18:18.708Z</time>
      </trkpt>
      <trkpt lat="47.84571" lon="9.75563">
        <ele>606.235074</ele>
        <time>2022-09-13T23:18:25.044Z</time>
      </trkpt>
      <trkpt lat="47.84574" lon="9.7554">
        <ele>605.835614</ele>
        <time>2022-09-13T23:18:28.670Z</time>
      </trkpt>
      <trkpt lat="47.84623" lon="9.75453">
        <ele>605.386677</ele>
        <time>2022-09-13T23:18:48.324Z</time>
      </trkpt>
      <trkpt lat="47.8464" lon="9.75389">
        <ele>605.565037</ele>
        <time>2022-09-13T23:19:02.603Z</time>
      </trkpt>
      <trkpt lat="47.84654" lon="9.7534">
        <ele>605.701531</ele>
        <time>2022-09-13T23:19:14.087Z</time>
      </trkpt>
      <trkpt lat="47.84692" lon="9.75255">
        <ele>605.800739</ele>
        <time>2022-09-13T23:19:34.737Z</time>
      </trkpt>
      <trkpt lat="47.84715" lon="9.75175">
        <ele>605.57027</ele>
        <time>2022-09-13T23:19:49.507Z</time>
      </trkpt>
      <trkpt lat="47.84753" lon="9.75034">
        <ele>605.158255</ele>
        <time>2022-09-13T23:20:13.826Z</time>
      </trkpt>
      <trkpt lat="47.8477" lon="9.75022">
        <ele>604.950064</ele>
        <time>2022-09-13T23:20:18.147Z</time>
      </trkpt>
      <trkpt lat="47.84783" lon="9.75022">
        <ele>604.810481</ele>
        <time>2022-09-13T23:20:20.914Z</time>
      </trkpt>
      <trkpt lat="47.84785" lon="9.74998">
        <ele>604.633322</ele>
        <time>2022-09-13T23:20:24.626Z</time>
      </trkpt>
      <trkpt lat="47.848" lon="9.7497">
        <ele>604.370511</ele>
        <time>2022-09-13T23:20:30.016Z</time>
      </trkpt>
      <trkpt lat="47.84815" lon="9.74955">
        <ele>604.178563</ele>
        <time>2022-09-13T23:20:34.090Z</time>
      </trkpt>
      <trkpt lat="47.8485" lon="9.74906">
        <ele>603.64993</ele>
        <time>2022-09-13T23:20:45.214Z</time>
      </trkpt>
      <trkpt lat="47.8486" lon="9.74891">
        <ele>603.493569</ele>
        <time>2022-09-13T23:20:48.548Z</time>
      </trkpt>
      <trkpt lat="47.8487" lon="9.74875">
        <ele>603.33227</ele>
        <time>2022-09-13T23:20:51.888Z</time>
      </trkpt>
      <trkpt lat="47.84903" lon="9.74841">
        <ele>602.845344</ele>
        <time>2022-09-13T23:21:01.031Z</time>
      </trkpt>
      <trkpt lat="47.8492" lon="9.74829">
        <ele>602.614185</ele>
        <time>2022-09-13T23:21:05.148Z</time>
      </trkpt>
      <trkpt lat="47.84944" lon="9.74811">
        <ele>602.278723</ele>
        <time>2022-09-13T23:21:10.991Z</time>
      </trkpt>
      <trkpt lat="47.84961" lon="9.74795">
        <ele>602.030535</ele>
        <time>2022-09-13T23:21:15.274Z</time>
      </trkpt>
      <trkpt lat="47.84966" lon="9.74789">
        <ele>601.9453</ele>
        <time>2022-09-13T23:21:16.751Z</time>
      </trkpt>
      <trkpt lat="47.84983" lon="9.74765">
        <ele>601.65861</ele>
        <time>2022-09-13T23:21:21.858Z</time>
      </trkpt>
      <trkpt lat="47.85016" lon="9.74695">
        <ele>600.949518</ele>
        <time>2022-09-13T23:21:35.330Z</time>
      </trkpt>
      <trkpt lat="47.85056" lon="9.74604">
        <ele>600.865114</ele>
        <time>2022-09-13T23:21:52.413Z</time>
      </trkpt>
      <trkpt lat="47.85117" lon="9.74466">
        <ele>600.870764</ele>
        <time>2022-09-13T23:22:22.105Z</time>
      </trkpt>
      <trkpt lat="47.85103" lon="9.74423">
        <ele>601.699729</ele>
        <time>2022-09-13T23:22:33.439Z</time>
      </trkpt>
      <trkpt lat="47.85083" lon="9.7435">
        <ele>603.058481</ele>
        <time>2022-09-13T23:22:55.246Z</time>
      </trkpt>
      <trkpt lat="47.85074" lon="9.74308">
        <ele>603.822745</ele>
        <time>2022-09-13T23:23:08.302Z</time>
      </trkpt>
      <trkpt lat="47.85062" lon="9.7424">
        <ele>605.050746</ele>
        <time>2022-09-13T23:23:29.267Z</time>
      </trkpt>
      <trkpt lat="47.85056" lon="9.742">
        <ele>605.42251</ele>
        <time>2022-09-13T23:23:40.856Z</time>
      </trkpt>
      <trkpt lat="47.85053" lon="9.74133">
        <ele>605.54359</ele>
        <time>2022-09-13T23:23:57.591Z</time>
      </trkpt>
      <trkpt lat="47.85048" lon="9.74049">
        <ele>605.695377</ele>
        <time>2022-09-13T23:24:13.549Z</time>
      </trkpt>
      <trkpt lat="47.8504" lon="9.7397">
        <ele>605.838008</ele>
        <time>2022-09-13T23:24:25.453Z</time>
      </trkpt>
      <trkpt lat="47.85039" lon="9.73952">
        <ele>605.78794</ele>
        <time>2022-09-13T23:24:27.881Z</time>
      </trkpt>
      <trkpt lat="47.8504" lon="9.73931">
        <ele>605.180514</ele>
        <time>2022-09-13T23:24:30.867Z</time>
      </trkpt>
      <trkpt lat="47.85045" lon="9.73877">
        <ele>603.632989</ele>
        <time>2022-09-13T23:24:38.199Z</time>
      </trkpt>
      <trkpt lat="47.85045" lon="9.73846">
        <ele>602.752899</ele>
        <time>2022-09-13T23:24:42.171Z</time>
      </trkpt>
      <trkpt lat="47.85038" lon="9.73781">
        <ele>600.879863</ele>
        <time>2022-09-13T23:24:50.481Z</time>
      </trkpt>
      <trkpt lat="47.85039" lon="9.73744">
        <ele>599.822534</ele>
        <time>2022-09-13T23:24:55.152Z</time>
      </trkpt>
      <trkpt lat="47.85048" lon="9.7369">
        <ele>598.265092</ele>
        <time>2022-09-13T23:25:02.134Z</time>
      </trkpt>
      <trkpt lat="47.85076" lon="9.73585">
        <ele>595.878149</ele>
        <time>2022-09-13T23:25:17.319Z</time>
      </trkpt>
      <trkpt lat="47.85101" lon="9.73453">
        <ele>592.962679</ele>
        <time>2022-09-13T23:25:36.891Z</time>
      </trkpt>
      <trkpt lat="47.851" lon="9.73377">
        <ele>591.922349</ele>
        <time>2022-09-13T23:25:48.138Z</time>
      </trkpt>
      <trkpt lat="47.85082" lon="9.73288">
        <ele>590.854673</ele>
        <time>2022-09-13T23:26:02.879Z</time>
      </trkpt>
      <trkpt lat="47.85055" lon="9.73193">
        <ele>589.656606</ele>
        <time>2022-09-13T23:26:19.840Z</time>
      </trkpt>
      <trkpt lat="47.85012" lon="9.7307">
        <ele>584.36229</ele>
        <time>2022-09-13T23:26:38.831Z</time>
      </trkpt>
      <trkpt lat="47.85004" lon="9.73033">
        <ele>582.794248</ele>
        <time>2022-09-13T23:26:43.425Z</time>
      </trkpt>
      <trkpt lat="47.85004" lon="9.73008">
        <ele>581.776845</ele>
        <time>2022-09-13T23:26:46.315Z</time>
      </trkpt>
      <trkpt lat="47.84995" lon="9.72979">
        <ele>580.430061</ele>
        <time>2022-09-13T23:26:50.215Z</time>
      </trkpt>
      <trkpt lat="47.84942" lon="9.72897">
        <ele>573.182742</ele>
        <time>2022-09-13T23:27:03.213Z</time>
      </trkpt>
      <trkpt lat="47.84922" lon="9.72837">
        <ele>567.852848</ele>
        <time>2022-09-13T23:27:10.684Z</time>
      </trkpt>
      <trkpt lat="47.84908" lon="9.72812">
        <ele>565.28894</ele>
        <time>2022-09-13T23:27:14.303Z</time>
      </trkpt>
      <trkpt lat="47.84892" lon="9.72741">
        <ele>559.358584</ele>
        <time>2022-09-13T23:27:22.491Z</time>
      </trkpt>
      <trkpt lat="47.84867" lon="9.72675">
        <ele>554.288395</ele>
        <time>2022-09-13T23:27:31.078Z</time>
      </trkpt>
      <trkpt lat="47.84853" lon="9.72588">
        <ele>549.016136</ele>
        <time>2022-09-13T23:27:41.564Z</time>
      </trkpt>
      <trkpt lat="47.84853" lon="9.72549">
        <ele>546.771481</ele>
        <time>2022-09-13T23:27:46.358Z</time>
      </trkpt>
      <trkpt lat="47.84859" lon="9.72537">
        <ele>545.893025</ele>
        <time>2022-09-13T23:27:48.029Z</time>
      </trkpt>
      <trkpt lat="47.84908" lon="9.72473">
        <ele>540.597995</ele>
        <time>2022-09-13T23:27:59.919Z</time>
      </trkpt>
      <trkpt lat="47.84916" lon="9.7246">
        <ele>539.928892</ele>
        <time>2022-09-13T23:28:01.917Z</time>
      </trkpt>
      <trkpt lat="47.84921" lon="9.72433">
        <ele>538.825055</ele>
        <time>2022-09-13T23:28:05.531Z</time>
      </trkpt>
      <trkpt lat="47.84922" lon="9.72427">
        <ele>538.569842</ele>
        <time>2022-09-13T23:28:06.296Z</time>
      </trkpt>
      <trkpt lat="47.84929" lon="9.72319">
        <ele>534.321108</ele>
        <time>2022-09-13T23:28:19.804Z</time>
      </trkpt>
      <trkpt lat="47.84936" lon="9.72293">
        <ele>533.243899</ele>
        <time>2022-09-13T23:28:23.487Z</time>
      </trkpt>
      <trkpt lat="47.84952" lon="9.72265">
        <ele>531.808029</ele>
        <time>2022-09-13T23:28:28.109Z</time>
      </trkpt>
      <trkpt lat="47.84915" lon="9.72193">
        <ele>529.345894</ele>
        <time>2022-09-13T23:28:39.206Z</time>
      </trkpt>
      <trkpt lat="47.84899" lon="9.72148">
        <ele>528.148277</ele>
        <time>2022-09-13T23:28:45.564Z</time>
      </trkpt>
      <trkpt lat="47.84896" lon="9.72142">
        <ele>527.9842</ele>
        <time>2022-09-13T23:28:46.408Z</time>
      </trkpt>
      <trkpt lat="47.84867" lon="9.72036">
        <ele>525.315462</ele>
        <time>2022-09-13T23:29:01.681Z</time>
      </trkpt>
      <trkpt lat="47.84803" lon="9.71763">
        <ele>522.027248</ele>
        <time>2022-09-13T23:29:45.176Z</time>
      </trkpt>
      <trkpt lat="47.8477" lon="9.71674">
        <ele>520.714159</ele>
        <time>2022-09-13T23:29:59.751Z</time>
      </trkpt>
      <trkpt lat="47.84741" lon="9.71619">
        <ele>519.80411</ele>
        <time>2022-09-13T23:30:09.732Z</time>
      </trkpt>
      <trkpt lat="47.84709" lon="9.71575">
        <ele>518.957326</ele>
        <time>2022-09-13T23:30:18.881Z</time>
      </trkpt>
      <trkpt lat="47.84666" lon="9.71533">
        <ele>518.165821</ele>
        <time>2022-09-13T23:30:29.472Z</time>
      </trkpt>
      <trkpt lat="47.84615" lon="9.71497">
        <ele>517.481882</ele>
        <time>2022-09-13T23:30:41.491Z</time>
      </trkpt>
      <trkpt lat="47.84568" lon="9.71479">
        <ele>516.891754</ele>
        <time>2022-09-13T23:30:52.746Z</time>
      </trkpt>
      <trkpt lat="47.84507" lon="9.71465">
        <ele>516.402694</ele>
        <time>2022-09-13T23:31:08.485Z</time>
      </trkpt>
      <trkpt lat="47.8441" lon="9.71454">
        <ele>517.007201</ele>
        <time>2022-09-13T23:31:36.631Z</time>
      </trkpt>
      <trkpt lat="47.84238" lon="9.7141">
        <ele>518.137047</ele>
        <time>2022-09-13T23:32:33.162Z</time>
      </trkpt>
      <trkpt lat="47.84136" lon="9.71409">
        <ele>518.470272</ele>
        <time>2022-09-13T23:33:00.299Z</time>
      </trkpt>
      <trkpt lat="47.84086" lon="9.71401">
        <ele>518.188648</ele>
        <time>2022-09-13T23:33:12.607Z</time>
      </trkpt>
      <trkpt lat="47.84046" lon="9.71384">
        <ele>517.957005</ele>
        <time>2022-09-13T23:33:22.508Z</time>
      </trkpt>
      <trkpt lat="47.84001" lon="9.71352">
        <ele>517.674978</ele>
        <time>2022-09-13T23:33:34.712Z</time>
      </trkpt>
      <trkpt lat="47.83941" lon="9.71281">
        <ele>516.97114</ele>
        <time>2022-09-13T23:33:52.705Z</time>
      </trkpt>
      <trkpt lat="47.83897" lon="9.71194">
        <ele>516.253194</ele>
        <time>2022-09-13T23:34:09.876Z</time>
      </trkpt>
      <trkpt lat="47.83871" lon="9.71125">
        <ele>515.684979</ele>
        <time>2022-09-13T23:34:21.735Z</time>
      </trkpt>
      <trkpt lat="47.83829" lon="9.70987">
        <ele>514.275288</ele>
        <time>2022-09-13T23:34:44.075Z</time>
      </trkpt>
      <trkpt lat="47.83797" lon="9.70841">
        <ele>513.112861</ele>
        <time>2022-09-13T23:35:06.982Z</time>
      </trkpt>
      <trkpt lat="47.83766" lon="9.7059">
        <ele>511.968558</ele>
        <time>2022-09-13T23:35:49.397Z</time>
      </trkpt>
      <trkpt lat="47.83751" lon="9.70491">
        <ele>511.684364</ele>
        <time>2022-09-13T23:36:06.687Z</time>
      </trkpt>
      <trkpt lat="47.837" lon="9.70304">
        <ele>510.515527</ele>
        <time>2022-09-13T23:36:40.223Z</time>
      </trkpt>
      <trkpt lat="47.83683" lon="9.70211">
        <ele>509.525898</ele>
        <time>2022-09-13T23:36:54.383Z</time>
      </trkpt>
      <trkpt lat="47.8368" lon="9.70127">
        <ele>508.664139</ele>
        <time>2022-09-13T23:37:06.194Z</time>
      </trkpt>
      <trkpt lat="47.83693" lon="9.70024">
        <ele>506.615179</ele>
        <time>2022-09-13T23:37:20.213Z</time>
      </trkpt>
      <trkpt lat="47.83714" lon="9.69874">
        <ele>503.489596</ele>
        <time>2022-09-13T23:37:40.060Z</time>
      </trkpt>
      <trkpt lat="47.83712" lon="9.69746">
        <ele>501.818753</ele>
        <time>2022-09-13T23:37:57.362Z</time>
      </trkpt>
      <trkpt lat="47.8369" lon="9.69612">
        <ele>500.179526</ele>
        <time>2022-09-13T23:38:18.227Z</time>
      </trkpt>
      <trkpt lat="47.83659" lon="9.69413">
        <ele>499.446384</ele>
        <time>2022-09-13T23:38:52.243Z</time>
      </trkpt>
      <trkpt lat="47.83648" lon="9.69223">
        <ele>499.501383</ele>
        <time>2022-09-13T23:39:26.018Z</time>
      </trkpt>
      <trkpt lat="47.83655" lon="9.68933">
        <ele>499.992588</ele>
        <time>2022-09-13T23:40:24.436Z</time>
      </trkpt>
      <trkpt lat="47.83649" lon="9.68837">
        <ele>500.046151</ele>
        <time>2022-09-13T23:40:42.517Z</time>
      </trkpt>
      <trkpt lat="47.83639" lon="9.68769">
        <ele>499.539669</ele>
        <time>2022-09-13T23:40:54.176Z</time>
      </trkpt>
      <trkpt lat="47.83581" lon="9.68517">
        <ele>494.104467</ele>
        <time>2022-09-13T23:41:29.166Z</time>
      </trkpt>
      <trkpt lat="47.83551" lon="9.68358">
        <ele>488.477376</ele>
        <time>2022-09-13T23:41:48.864Z</time>
      </trkpt>
      <trkpt lat="47.83545" lon="9.68282">
        <ele>485.844925</ele>
        <time>2022-09-13T23:41:57.952Z</time>
      </trkpt>
      <trkpt lat="47.83544" lon="9.68159">
        <ele>482.943429</ele>
        <time>2022-09-13T23:42:13.028Z</time>
      </trkpt>
      <trkpt lat="47.83549" lon="9.68053">
        <ele>480.440088</ele>
        <time>2022-09-13T23:42:27.412Z</time>
      </trkpt>
      <trkpt lat="47.83552" lon="9.67902">
        <ele>478.874695</ele>
        <time>2022-09-13T23:42:50.199Z</time>
      </trkpt>
      <trkpt lat="47.83549" lon="9.67821">
        <ele>478.40143</ele>
        <time>2022-09-13T23:43:03.755Z</time>
      </trkpt>
      <trkpt lat="47.8353" lon="9.67683">
        <ele>477.66314</ele>
        <time>2022-09-13T23:43:27.524Z</time>
      </trkpt>
      <trkpt lat="47.8347" lon="9.67371">
        <ele>476.095731</ele>
        <time>2022-09-13T23:44:19.116Z</time>
      </trkpt>
      <trkpt lat="47.83366" lon="9.66825">
        <ele>473.077549</ele>
        <time>2022-09-13T23:45:49.684Z</time>
      </trkpt>
      <trkpt lat="47.83336" lon="9.66725">
        <ele>472.485885</ele>
        <time>2022-09-13T23:46:06.891Z</time>
      </trkpt>
      <trkpt lat="47.83278" lon="9.6656">
        <ele>471.693156</ele>
        <time>2022-09-13T23:46:36.553Z</time>
      </trkpt>
      <trkpt lat="47.8324" lon="9.66378">
        <ele>471.229984</ele>
        <time>2022-09-13T23:47:09.717Z</time>
      </trkpt>
      <trkpt lat="47.83234" lon="9.6635">
        <ele>471.201035</ele>
        <time>2022-09-13T23:47:14.960Z</time>
      </trkpt>
      <trkpt lat="47.83313" lon="9.6628">
        <ele>471.056605</ele>
        <time>2022-09-13T23:47:40.617Z</time>
      </trkpt>
      <trkpt lat="47.83227" lon="9.66071">
        <ele>470.056825</ele>
        <time>2022-09-13T23:48:22.174Z</time>
      </trkpt>
      <trkpt lat="47.83167" lon="9.65985">
        <ele>469.334375</ele>
        <time>2022-09-13T23:48:42.057Z</time>
      </trkpt>
      <trkpt lat="47.83154" lon="9.65957">
        <ele>469.130016</ele>
        <time>2022-09-13T23:48:47.199Z</time>
      </trkpt>
      <trkpt lat="47.83154" lon="9.65884">
        <ele>468.67969</ele>
        <time>2022-09-13T23:48:58.728Z</time>
      </trkpt>
      <trkpt lat="47.83165" lon="9.65818">
        <ele>468.278633</ele>
        <time>2022-09-13T23:49:09.608Z</time>
      </trkpt>
      <trkpt lat="47.83231" lon="9.65679">
        <ele>467.543748</ele>
        <time>2022-09-13T23:49:37.501Z</time>
      </trkpt>
      <trkpt lat="47.83274" lon="9.65566">
        <ele>466.999605</ele>
        <time>2022-09-13T23:49:58.543Z</time>
      </trkpt>
      <trkpt lat="47.83278" lon="9.65552">
        <ele>466.942955</ele>
        <time>2022-09-13T23:50:00.824Z</time>
      </trkpt>
      <trkpt lat="47.83276" lon="9.65547">
        <ele>466.924009</ele>
        <time>2022-09-13T23:50:01.588Z</time>
      </trkpt>
      <trkpt lat="47.83304" lon="9.65409">
        <ele>466.365751</ele>
        <time>2022-09-13T23:50:24.944Z</time>
      </trkpt>
      <trkpt lat="47.83309" lon="9.65395">
        <ele>466.304289</ele>
        <time>2022-09-13T23:50:27.548Z</time>
      </trkpt>
      <trkpt lat="47.8333" lon="9.65381">
        <ele>466.171625</ele>
        <time>2022-09-13T23:50:33.393Z</time>
      </trkpt>
      <trkpt lat="47.83335" lon="9.65354">
        <ele>466.096109</ele>
        <time>2022-09-13T23:50:38.257Z</time>
      </trkpt>
      <trkpt lat="47.83336" lon="9.65339">
        <ele>466.0668</ele>
        <time>2022-09-13T23:50:40.959Z</time>
      </trkpt>
      <trkpt lat="47.83313" lon="9.6534">
        <ele>465.999981</ele>
        <time>2022-09-13T23:50:47.282Z</time>
      </trkpt>
      <trkpt lat="47.83288" lon="9.65332">
        <ele>465.928834</ele>
        <time>2022-09-13T23:50:53.913Z</time>
      </trkpt>
      <trkpt lat="47.8318" lon="9.65296">
        <ele>465.603418</ele>
        <time>2022-09-13T23:51:22.341Z</time>
      </trkpt>
      <trkpt lat="47.8308" lon="9.65246">
        <ele>464.721098</ele>
        <time>2022-09-13T23:51:47.528Z</time>
      </trkpt>
      <trkpt lat="47.83033" lon="9.65241">
        <ele>464.328001</ele>
        <time>2022-09-13T23:51:58.128Z</time>
      </trkpt>
      <trkpt lat="47.82979" lon="9.65226">
        <ele>463.871211</ele>
        <time>2022-09-13T23:52:10.786Z</time>
      </trkpt>
      <trkpt lat="47.82916" lon="9.65188">
        <ele>463.329617</ele>
        <time>2022-09-13T23:52:26.505Z</time>
      </trkpt>
      <trkpt lat="47.82891" lon="9.65172">
        <ele>463.112621</ele>
        <time>2022-09-13T23:52:33.044Z</time>
      </trkpt>
      <trkpt lat="47.8289" lon="9.65177">
        <ele>463.083323</ele>
        <time>2022-09-13T23:52:34.011Z</time>
      </trkpt>
      <trkpt lat="47.82884" lon="9.65173">
        <ele>463.035045</ele>
        <time>2022-09-13T23:52:35.523Z</time>
      </trkpt>
      <trkpt lat="47.82838" lon="9.65154">
        <ele>462.656414</ele>
        <time>2022-09-13T23:52:47.517Z</time>
      </trkpt>
      <trkpt lat="47.82811" lon="9.65155">
        <ele>462.507856</ele>
        <time>2022-09-13T23:52:54.106Z</time>
      </trkpt>
      <trkpt lat="47.82771" lon="9.65176">
        <ele>462.271841</ele>
        <time>2022-09-13T23:53:04.708Z</time>
      </trkpt>
      <trkpt lat="47.82748" lon="9.6518">
        <ele>462.139127</ele>
        <time>2022-09-13T23:53:10.701Z</time>
      </trkpt>
      <trkpt lat="47.8274" lon="9.65179">
        <ele>462.094301</ele>
        <time>2022-09-13T23:53:12.694Z</time>
      </trkpt>
      <trkpt lat="47.8273" lon="9.65176">
        <ele>462.038572</ele>
        <time>2022-09-13T23:53:15.155Z</time>
      </trkpt>
      <trkpt lat="47.827" lon="9.65151">
        <ele>461.848269</ele>
        <time>2022-09-13T23:53:23.341Z</time>
      </trkpt>
      <trkpt lat="47.82661" lon="9.65132">
        <ele>461.566024</ele>
        <time>2022-09-13T23:53:33.033Z</time>
      </trkpt>
      <trkpt lat="47.82626" lon="9.65131">
        <ele>461.170445</ele>
        <time>2022-09-13T23:53:41.363Z</time>
      </trkpt>
      <trkpt lat="47.82606" lon="9.65115">
        <ele>460.919691</ele>
        <time>2022-09-13T23:53:46.507Z</time>
      </trkpt>
      <trkpt lat="47.82595" lon="9.65099">
        <ele>460.746692</ele>
        <time>2022-09-13T23:53:50.071Z</time>
      </trkpt>
      <trkpt lat="47.82592" lon="9.65095">
        <ele>460.70083</ele>
        <time>2022-09-13T23:53:51.002Z</time>
      </trkpt>
      <trkpt lat="47.82587" lon="9.65087">
        <ele>460.61128</ele>
        <time>2022-09-13T23:53:52.729Z</time>
      </trkpt>
      <trkpt lat="47.82565" lon="9.65052">
        <ele>460.250627</ele>
        <time>2022-09-13T23:53:59.803Z</time>
      </trkpt>
      <trkpt lat="47.82563" lon="9.6505">
        <ele>460.230893</ele>
        <time>2022-09-13T23:54:00.176Z</time>
      </trkpt>
      <trkpt lat="47.82556" lon="9.65033">
        <ele>460.076318</ele>
        <time>2022-09-13T23:54:03.208Z</time>
      </trkpt>
      <trkpt lat="47.82553" lon="9.65019">
        <ele>459.961886</ele>
        <time>2022-09-13T23:54:05.534Z</time>
      </trkpt>
      <trkpt lat="47.82549" lon="9.65002">
        <ele>459.827758</ele>
        <time>2022-09-13T23:54:08.151Z</time>
      </trkpt>
      <trkpt lat="47.82545" lon="9.64984">
        <ele>459.68672</ele>
        <time>2022-09-13T23:54:10.973Z</time>
      </trkpt>
      <trkpt lat="47.82543" lon="9.64974">
        <ele>459.600674</ele>
        <time>2022-09-13T23:54:12.736Z</time>
      </trkpt>
      <trkpt lat="47.82539" lon="9.64958">
        <ele>459.470019</ele>
        <time>2022-09-13T23:54:15.316Z</time>
      </trkpt>
      <trkpt lat="47.82532" lon="9.64943">
        <ele>459.326547</ele>
        <time>2022-09-13T23:54:18.035Z</time>
      </trkpt>
      <trkpt lat="47.82526" lon="9.6493">
        <ele>459.202339</ele>
        <time>2022-09-13T23:54:20.519Z</time>
      </trkpt>
      <trkpt lat="47.82516" lon="9.64917">
        <ele>459.049335</ele>
        <time>2022-09-13T23:54:23.572Z</time>
      </trkpt>
      <trkpt lat="47.82481" lon="9.64876">
        <ele>458.53352</ele>
        <time>2022-09-13T23:54:33.577Z</time>
      </trkpt>
      <trkpt lat="47.82454" lon="9.64844">
        <ele>458.12893</ele>
        <time>2022-09-13T23:54:41.535Z</time>
      </trkpt>
      <trkpt lat="47.82426" lon="9.64817">
        <ele>457.743371</ele>
        <time>2022-09-13T23:54:49.084Z</time>
      </trkpt>
      <trkpt lat="47.8241" lon="9.64798">
        <ele>457.519593</ele>
        <time>2022-09-13T23:54:53.597Z</time>
      </trkpt>
      <trkpt lat="47.82408" lon="9.64787">
        <ele>457.455061</ele>
        <time>2022-09-13T23:54:55.415Z</time>
      </trkpt>
      <trkpt lat="47.824" lon="9.64779">
        <ele>457.37668</ele>
        <time>2022-09-13T23:54:57.527Z</time>
      </trkpt>
      <trkpt lat="47.8239" lon="9.64781">
        <ele>457.29381</ele>
        <time>2022-09-13T23:54:59.794Z</time>
      </trkpt>
      <trkpt lat="47.8237" lon="9.64769">
        <ele>457.112899</ele>
        <time>2022-09-13T23:55:05.078Z</time>
      </trkpt>
      <trkpt lat="47.82364" lon="9.64753">
        <ele>457.012083</ele>
        <time>2022-09-13T23:55:07.819Z</time>
      </trkpt>
      <trkpt lat="47.82325" lon="9.64709">
        <ele>456.60421</ele>
        <time>2022-09-13T23:55:19.830Z</time>
      </trkpt>
      <trkpt lat="47.82268" lon="9.64629">
        <ele>455.990107</ele>
        <time>2022-09-13T23:55:38.287Z</time>
      </trkpt>
      <trkpt lat="47.82231" lon="9.64581">
        <ele>455.723043</ele>
        <time>2022-09-13T23:55:50.230Z</time>
      </trkpt>
      <trkpt lat="47.82097" lon="9.64446">
        <ele>454.79767</ele>
        <time>2022-09-13T23:56:30.486Z</time>
      </trkpt>
      <trkpt lat="47.82088" lon="9.64426">
        <ele>454.697108</ele>
        <time>2022-09-13T23:56:34.393Z</time>
      </trkpt>
      <trkpt lat="47.82078" lon="9.64416">
        <ele>454.615687</ele>
        <time>2022-09-13T23:56:37.364Z</time>
      </trkpt>
      <trkpt lat="47.82069" lon="9.64409">
        <ele>454.550719</ele>
        <time>2022-09-13T23:56:39.852Z</time>
      </trkpt>
      <trkpt lat="47.82059" lon="9.64416">
        <ele>454.477364</ele>
        <time>2022-09-13T23:56:42.660Z</time>
      </trkpt>
      <trkpt lat="47.81893" lon="9.64273">
        <ele>453.148903</ele>
        <time>2022-09-13T23:57:28.240Z</time>
      </trkpt>
      <trkpt lat="47.81797" lon="9.64182">
        <ele>452.547852</ele>
        <time>2022-09-13T23:57:55.330Z</time>
      </trkpt>
      <trkpt lat="47.81774" lon="9.64147">
        <ele>452.505186</ele>
        <time>2022-09-13T23:58:03.679Z</time>
      </trkpt>
      <trkpt lat="47.81769" lon="9.64148">
        <ele>452.498935</ele>
        <time>2022-09-13T23:58:04.929Z</time>
      </trkpt>
      <trkpt lat="47.81757" lon="9.64144">
        <ele>452.483627</ele>
        <time>2022-09-13T23:58:07.999Z</time>
      </trkpt>
      <trkpt lat="47.81748" lon="9.64134">
        <ele>452.469172</ele>
        <time>2022-09-13T23:58:10.983Z</time>
      </trkpt>
      <trkpt lat="47.81731" lon="9.64123">
        <ele>452.444992</ele>
        <time>2022-09-13T23:58:16.035Z</time>
      </trkpt>
      <trkpt lat="47.81726" lon="9.64115">
        <ele>452.435608</ele>
        <time>2022-09-13T23:58:18.007Z</time>
      </trkpt>
      <trkpt lat="47.81703" lon="9.64106">
        <ele>452.404872</ele>
        <time>2022-09-13T23:58:24.660Z</time>
      </trkpt>
      <trkpt lat="47.81561" lon="9.63983">
        <ele>452.928672</ele>
        <time>2022-09-13T23:59:12.495Z</time>
      </trkpt>
      <trkpt lat="47.81546" lon="9.63951">
        <ele>453.036295</ele>
        <time>2022-09-13T23:59:20.046Z</time>
      </trkpt>
      <trkpt lat="47.81539" lon="9.6395">
        <ele>453.067385</ele>
        <time>2022-09-13T23:59:22.316Z</time>
      </trkpt>
      <trkpt lat="47.81528" lon="9.6395">
        <ele>453.11117</ele>
        <time>2022-09-13T23:59:24.899Z</time>
      </trkpt>
      <trkpt lat="47.81471" lon="9.63905">
        <ele>453.297809</ele>
        <time>2022-09-13T23:59:43.105Z</time>
      </trkpt>
      <trkpt lat="47.81289" lon="9.63742">
        <ele>454.53945</ele>
        <time>2022-09-14T00:00:42.361Z</time>
      </trkpt>
      <trkpt lat="47.81285" lon="9.63731">
        <ele>454.623326</ele>
        <time>2022-09-14T00:00:45.124Z</time>
      </trkpt>
      <trkpt lat="47.81281" lon="9.63732">
        <ele>454.654982</ele>
        <time>2022-09-14T00:00:46.263Z</time>
      </trkpt>
      <trkpt lat="47.81268" lon="9.63723">
        <ele>454.795426</ele>
        <time>2022-09-14T00:00:51.197Z</time>
      </trkpt>
      <trkpt lat="47.81258" lon="9.63718">
        <ele>454.889588</ele>
        <time>2022-09-14T00:00:54.528Z</time>
      </trkpt>
      <trkpt lat="47.81256" lon="9.63716">
        <ele>454.91757</ele>
        <time>2022-09-14T00:00:55.506Z</time>
      </trkpt>
      <trkpt lat="47.8125" lon="9.6371">
        <ele>454.981014</ele>
        <time>2022-09-14T00:00:57.751Z</time>
      </trkpt>
      <trkpt lat="47.81163" lon="9.63689">
        <ele>456.459225</ele>
        <time>2022-09-14T00:01:29.980Z</time>
      </trkpt>
      <trkpt lat="47.81087" lon="9.6369">
        <ele>458.136721</ele>
        <time>2022-09-14T00:01:59.090Z</time>
      </trkpt>
      <trkpt lat="47.81059" lon="9.63691">
        <ele>458.755564</ele>
        <time>2022-09-14T00:02:09.658Z</time>
      </trkpt>
      <trkpt lat="47.80941" lon="9.63697">
        <ele>460.692347</ele>
        <time>2022-09-14T00:02:53.132Z</time>
      </trkpt>
      <trkpt lat="47.80931" lon="9.63698">
        <ele>460.830053</ele>
        <time>2022-09-14T00:02:56.312Z</time>
      </trkpt>
      <trkpt lat="47.80922" lon="9.63699">
        <ele>460.968887</ele>
        <time>2022-09-14T00:02:59.523Z</time>
      </trkpt>
      <trkpt lat="47.80904" lon="9.637">
        <ele>461.230012</ele>
        <time>2022-09-14T00:03:05.411Z</time>
      </trkpt>
      <trkpt lat="47.80896" lon="9.637">
        <ele>461.346399</ele>
        <time>2022-09-14T00:03:07.794Z</time>
      </trkpt>
      <trkpt lat="47.80819" lon="9.63704">
        <ele>461.839652</ele>
        <time>2022-09-14T00:03:30.216Z</time>
      </trkpt>
      <trkpt lat="47.80795" lon="9.63705">
        <ele>461.754349</ele>
        <time>2022-09-14T00:03:36.572Z</time>
      </trkpt>
      <trkpt lat="47.80785" lon="9.63703">
        <ele>461.719595</ele>
        <time>2022-09-14T00:03:38.995Z</time>
      </trkpt>
      <trkpt lat="47.8074" lon="9.63703">
        <ele>461.555548</ele>
        <time>2022-09-14T00:03:50.362Z</time>
      </trkpt>
      <trkpt lat="47.80693" lon="9.63696">
        <ele>461.386954</ele>
        <time>2022-09-14T00:04:01.601Z</time>
      </trkpt>
      <trkpt lat="47.80673" lon="9.63692">
        <ele>461.297351</ele>
        <time>2022-09-14T00:04:06.154Z</time>
      </trkpt>
      <trkpt lat="47.80657" lon="9.63689">
        <ele>461.085062</ele>
        <time>2022-09-14T00:04:09.834Z</time>
      </trkpt>
      <trkpt lat="47.80641" lon="9.63687">
        <ele>460.872062</ele>
        <time>2022-09-14T00:04:13.441Z</time>
      </trkpt>
      <trkpt lat="47.80476" lon="9.63662">
        <ele>458.68299</ele>
        <time>2022-09-14T00:04:50.245Z</time>
      </trkpt>
      <trkpt lat="47.8045" lon="9.63649">
        <ele>458.305763</ele>
        <time>2022-09-14T00:04:56.445Z</time>
      </trkpt>
      <trkpt lat="47.80415" lon="9.63645">
        <ele>457.803916</ele>
        <time>2022-09-14T00:05:04.629Z</time>
      </trkpt>
      <trkpt lat="47.80399" lon="9.63641">
        <ele>457.574833</ele>
        <time>2022-09-14T00:05:08.268Z</time>
      </trkpt>
      <trkpt lat="47.80375" lon="9.63621">
        <ele>457.190052</ele>
        <time>2022-09-14T00:05:14.337Z</time>
      </trkpt>
      <trkpt lat="47.80362" lon="9.63596">
        <ele>456.894058</ele>
        <time>2022-09-14T00:05:19.033Z</time>
      </trkpt>
      <trkpt lat="47.80334" lon="9.63502">
        <ele>455.706301</ele>
        <time>2022-09-14T00:05:33.726Z</time>
      </trkpt>
      <trkpt lat="47.80319" lon="9.63464">
        <ele>455.118458</ele>
        <time>2022-09-14T00:05:39.937Z</time>
      </trkpt>
      <trkpt lat="47.80297" lon="9.63435">
        <ele>454.525107</ele>
        <time>2022-09-14T00:05:46.259Z</time>
      </trkpt>
      <trkpt lat="47.80278" lon="9.6342">
        <ele>454.103146</ele>
        <time>2022-09-14T00:05:50.781Z</time>
      </trkpt>
      <trkpt lat="47.80222" lon="9.63383">
        <ele>452.884148</ele>
        <time>2022-09-14T00:06:03.390Z</time>
      </trkpt>
      <trkpt lat="47.80201" lon="9.6336">
        <ele>452.772279</ele>
        <time>2022-09-14T00:06:08.752Z</time>
      </trkpt>
      <trkpt lat="47.80182" lon="9.63332">
        <ele>452.686061</ele>
        <time>2022-09-14T00:06:14.548Z</time>
      </trkpt>
      <trkpt lat="47.80141" lon="9.63248">
        <ele>452.462134</ele>
        <time>2022-09-14T00:06:31.161Z</time>
      </trkpt>
      <trkpt lat="47.80108" lon="9.63203">
        <ele>452.319827</ele>
        <time>2022-09-14T00:06:45.686Z</time>
      </trkpt>
      <trkpt lat="47.80093" lon="9.63182">
        <ele>452.398896</ele>
        <time>2022-09-14T00:06:53.279Z</time>
      </trkpt>
      <trkpt lat="47.80053" lon="9.63156">
        <ele>453.256818</ele>
        <time>2022-09-14T00:07:09.467Z</time>
      </trkpt>
      <trkpt lat="47.80027" lon="9.63152">
        <ele>453.780294</ele>
        <time>2022-09-14T00:07:20.142Z</time>
      </trkpt>
      <trkpt lat="47.79963" lon="9.6312">
        <ele>455.109499</ele>
        <time>2022-09-14T00:07:46.254Z</time>
      </trkpt>
      <trkpt lat="47.79897" lon="9.63047">
        <ele>455.093354</ele>
        <time>2022-09-14T00:08:13.935Z</time>
      </trkpt>
      <trkpt lat="47.79795" lon="9.62887">
        <ele>452.396288</ele>
        <time>2022-09-14T00:08:43.964Z</time>
      </trkpt>
      <trkpt lat="47.79708" lon="9.62747">
        <ele>447.480431</ele>
        <time>2022-09-14T00:09:07.404Z</time>
      </trkpt>
      <trkpt lat="47.79627" lon="9.62597">
        <ele>444.692261</ele>
        <time>2022-09-14T00:09:33.529Z</time>
      </trkpt>
      <trkpt lat="47.79621" lon="9.62577">
        <ele>444.477499</ele>
        <time>2022-09-14T00:09:36.810Z</time>
      </trkpt>
      <trkpt lat="47.79612" lon="9.62574">
        <ele>444.341266</ele>
        <time>2022-09-14T00:09:39.369Z</time>
      </trkpt>
      <trkpt lat="47.796" lon="9.62574">
        <ele>444.162922</ele>
        <time>2022-09-14T00:09:42.814Z</time>
      </trkpt>
      <trkpt lat="47.79591" lon="9.62563">
        <ele>443.988156</ele>
        <time>2022-09-14T00:09:45.785Z</time>
      </trkpt>
      <trkpt lat="47.79583" lon="9.62555">
        <ele>443.853901</ele>
        <time>2022-09-14T00:09:48.291Z</time>
      </trkpt>
      <trkpt lat="47.79578" lon="9.62549">
        <ele>443.76479</ele>
        <time>2022-09-14T00:09:50.076Z</time>
      </trkpt>
      <trkpt lat="47.79562" lon="9.62532">
        <ele>443.472688</ele>
        <time>2022-09-14T00:09:55.515Z</time>
      </trkpt>
      <trkpt lat="47.79555" lon="9.62522">
        <ele>443.448279</ele>
        <time>2022-09-14T00:09:58.502Z</time>
      </trkpt>
      <trkpt lat="47.79496" lon="9.62481">
        <ele>443.899828</ele>
        <time>2022-09-14T00:10:17.565Z</time>
      </trkpt>
      <trkpt lat="47.7934" lon="9.62395">
        <ele>444.91891</ele>
        <time>2022-09-14T00:11:08.858Z</time>
      </trkpt>
      <trkpt lat="47.7932" lon="9.62379">
        <ele>445.022824</ele>
        <time>2022-09-14T00:11:14.907Z</time>
      </trkpt>
      <trkpt lat="47.79305" lon="9.62357">
        <ele>445.120154</ele>
        <time>2022-09-14T00:11:21.175Z</time>
      </trkpt>
      <trkpt lat="47.79292" lon="9.62346">
        <ele>445.18601</ele>
        <time>2022-09-14T00:11:24.985Z</time>
      </trkpt>
      <trkpt lat="47.79284" lon="9.62343">
        <ele>445.22367</ele>
        <time>2022-09-14T00:11:27.793Z</time>
      </trkpt>
      <trkpt lat="47.79255" lon="9.62301">
        <ele>445.408303</ele>
        <time>2022-09-14T00:11:39.102Z</time>
      </trkpt>
      <trkpt lat="47.79163" lon="9.62207">
        <ele>444.721507</ele>
        <time>2022-09-14T00:12:09.373Z</time>
      </trkpt>
      <trkpt lat="47.79133" lon="9.6218">
        <ele>444.44224</ele>
        <time>2022-09-14T00:12:17.289Z</time>
      </trkpt>
      <trkpt lat="47.79072" lon="9.62119">
        <ele>443.468388</ele>
        <time>2022-09-14T00:12:32.816Z</time>
      </trkpt>
      <trkpt lat="47.79068" lon="9.62117">
        <ele>443.377471</ele>
        <time>2022-09-14T00:12:33.694Z</time>
      </trkpt>
      <trkpt lat="47.79067" lon="9.62104">
        <ele>443.18247</ele>
        <time>2022-09-14T00:12:35.373Z</time>
      </trkpt>
      <trkpt lat="47.79069" lon="9.62076">
        <ele>442.738553</ele>
        <time>2022-09-14T00:12:39.207Z</time>
      </trkpt>
      <trkpt lat="47.79031" lon="9.61966">
        <ele>440.778643</ele>
        <time>2022-09-14T00:12:57.115Z</time>
      </trkpt>
      <trkpt lat="47.78989" lon="9.61881">
        <ele>439.326131</ele>
        <time>2022-09-14T00:13:11.178Z</time>
      </trkpt>
      <trkpt lat="47.78981" lon="9.61864">
        <ele>439.086477</ele>
        <time>2022-09-14T00:13:14.177Z</time>
      </trkpt>
      <trkpt lat="47.78946" lon="9.61796">
        <ele>438.132289</ele>
        <time>2022-09-14T00:13:26.699Z</time>
      </trkpt>
      <trkpt lat="47.7893" lon="9.61757">
        <ele>437.609051</ele>
        <time>2022-09-14T00:13:34.076Z</time>
      </trkpt>
      <trkpt lat="47.78924" lon="9.61736">
        <ele>437.360592</ele>
        <time>2022-09-14T00:13:37.445Z</time>
      </trkpt>
      <trkpt lat="47.78916" lon="9.61716">
        <ele>437.094139</ele>
        <time>2022-09-14T00:13:41.142Z</time>
      </trkpt>
      <trkpt lat="47.78847" lon="9.61599">
        <ele>435.967393</ele>
        <time>2022-09-14T00:14:04.702Z</time>
      </trkpt>
      <trkpt lat="47.78843" lon="9.61586">
        <ele>435.879686</ele>
        <time>2022-09-14T00:14:06.799Z</time>
      </trkpt>
      <trkpt lat="47.78846" lon="9.61514">
        <ele>435.410901</ele>
        <time>2022-09-14T00:14:18.295Z</time>
      </trkpt>
      <trkpt lat="47.78847" lon="9.61499">
        <ele>435.31436</ele>
        <time>2022-09-14T00:14:20.728Z</time>
      </trkpt>
      <trkpt lat="47.78847" lon="9.61486">
        <ele>435.225759</ele>
        <time>2022-09-14T00:14:22.957Z</time>
      </trkpt>
      <trkpt lat="47.7882" lon="9.61367">
        <ele>435.094862</ele>
        <time>2022-09-14T00:14:43.456Z</time>
      </trkpt>
      <trkpt lat="47.78807" lon="9.61333">
        <ele>435.097946</ele>
        <time>2022-09-14T00:14:49.962Z</time>
      </trkpt>
      <trkpt lat="47.78799" lon="9.61311">
        <ele>435.099948</ele>
        <time>2022-09-14T00:14:54.521Z</time>
      </trkpt>
      <trkpt lat="47.78796" lon="9.61303">
        <ele>435.100679</ele>
        <time>2022-09-14T00:14:56.232Z</time>
      </trkpt>
      <trkpt lat="47.78791" lon="9.6129">
        <ele>435.101875</ele>
        <time>2022-09-14T00:14:58.997Z</time>
      </trkpt>
      <trkpt lat="47.78789" lon="9.61284">
        <ele>435.102433</ele>
        <time>2022-09-14T00:15:00.386Z</time>
      </trkpt>
      <trkpt lat="47.7875" lon="9.61183">
        <ele>435.389199</ele>
        <time>2022-09-14T00:15:24.634Z</time>
      </trkpt>
      <trkpt lat="47.78739" lon="9.61158">
        <ele>435.568558</ele>
        <time>2022-09-14T00:15:31.286Z</time>
      </trkpt>
      <trkpt lat="47.78726" lon="9.61144">
        <ele>435.713229</ele>
        <time>2022-09-14T00:15:36.518Z</time>
      </trkpt>
      <trkpt lat="47.7868" lon="9.61115">
        <ele>436.152226</ele>
        <time>2022-09-14T00:15:52.647Z</time>
      </trkpt>
      <trkpt lat="47.78632" lon="9.61089">
        <ele>436.604775</ele>
        <time>2022-09-14T00:16:08.025Z</time>
      </trkpt>
      <trkpt lat="47.78575" lon="9.61056">
        <ele>436.650908</ele>
        <time>2022-09-14T00:16:25.622Z</time>
      </trkpt>
      <trkpt lat="47.78567" lon="9.61047">
        <ele>436.640689</ele>
        <time>2022-09-14T00:16:28.305Z</time>
      </trkpt>
      <trkpt lat="47.78555" lon="9.6105">
        <ele>436.629211</ele>
        <time>2022-09-14T00:16:31.366Z</time>
      </trkpt>
      <trkpt lat="47.78547" lon="9.61048">
        <ele>436.621107</ele>
        <time>2022-09-14T00:16:33.583Z</time>
      </trkpt>
      <trkpt lat="47.78546" lon="9.61036">
        <ele>436.612756</ele>
        <time>2022-09-14T00:16:35.600Z</time>
      </trkpt>
      <trkpt lat="47.7854" lon="9.61019">
        <ele>436.599923</ele>
        <time>2022-09-14T00:16:38.708Z</time>
      </trkpt>
      <trkpt lat="47.78525" lon="9.6093">
        <ele>436.538373</ele>
        <time>2022-09-14T00:16:55.082Z</time>
      </trkpt>
      <trkpt lat="47.78512" lon="9.60834">
        <ele>436.310904</ele>
        <time>2022-09-14T00:17:11.676Z</time>
      </trkpt>
      <trkpt lat="47.78507" lon="9.60805">
        <ele>436.224094</ele>
        <time>2022-09-14T00:17:16.366Z</time>
      </trkpt>
      <trkpt lat="47.78498" lon="9.60798">
        <ele>436.179919</ele>
        <time>2022-09-14T00:17:18.869Z</time>
      </trkpt>
      <trkpt lat="47.78476" lon="9.60783">
        <ele>436.076315</ele>
        <time>2022-09-14T00:17:24.695Z</time>
      </trkpt>
      <trkpt lat="47.78476" lon="9.60791">
        <ele>436.052525</ele>
        <time>2022-09-14T00:17:26.102Z</time>
      </trkpt>
      <trkpt lat="47.78397" lon="9.60742">
        <ele>435.74979</ele>
        <time>2022-09-14T00:17:48.797Z</time>
      </trkpt>
      <trkpt lat="47.78372" lon="9.6073">
        <ele>435.757894</ele>
        <time>2022-09-14T00:17:56.640Z</time>
      </trkpt>
      <trkpt lat="47.78353" lon="9.60723">
        <ele>435.763932</ele>
        <time>2022-09-14T00:18:02.664Z</time>
      </trkpt>
      <trkpt lat="47.78327" lon="9.60712">
        <ele>435.772428</ele>
        <time>2022-09-14T00:18:10.846Z</time>
      </trkpt>
      <trkpt lat="47.78286" lon="9.60695">
        <ele>435.785562</ele>
        <time>2022-09-14T00:18:22.410Z</time>
      </trkpt>
      <trkpt lat="47.78248" lon="9.6068">
        <ele>435.7978</ele>
        <time>2022-09-14T00:18:32.157Z</time>
      </trkpt>
      <trkpt lat="47.78239" lon="9.6068">
        <ele>435.800553</ele>
        <time>2022-09-14T00:18:34.281Z</time>
      </trkpt>
      <trkpt lat="47.78223" lon="9.60681">
        <ele>435.648284</ele>
        <time>2022-09-14T00:18:38.107Z</time>
      </trkpt>
      <trkpt lat="47.78206" lon="9.60678">
        <ele>435.446035</ele>
        <time>2022-09-14T00:18:43.010Z</time>
      </trkpt>
      <trkpt lat="47.7817" lon="9.60659">
        <ele>435.01682</ele>
        <time>2022-09-14T00:18:52.976Z</time>
      </trkpt>
      <trkpt lat="47.78176" lon="9.60638">
        <ele>434.838656</ele>
        <time>2022-09-14T00:18:56.460Z</time>
      </trkpt>
      <trkpt lat="47.78184" lon="9.60618">
        <ele>434.661199</ele>
        <time>2022-09-14T00:19:00.144Z</time>
      </trkpt>
      <trkpt lat="47.78205" lon="9.60561">
        <ele>434.174167</ele>
        <time>2022-09-14T00:19:09.899Z</time>
      </trkpt>
      <trkpt lat="47.78207" lon="9.60547">
        <ele>434.0583</ele>
        <time>2022-09-14T00:19:12.103Z</time>
      </trkpt>
      <trkpt lat="47.78209" lon="9.60534">
        <ele>433.955498</ele>
        <time>2022-09-14T00:19:14.152Z</time>
      </trkpt>
      <trkpt lat="47.78249" lon="9.60413">
        <ele>432.553005</ele>
        <time>2022-09-14T00:19:33.554Z</time>
      </trkpt>
      <trkpt lat="47.78261" lon="9.60383">
        <ele>432.155506</ele>
        <time>2022-09-14T00:19:38.640Z</time>
      </trkpt>
      <trkpt lat="47.78267" lon="9.60356">
        <ele>431.839011</ele>
        <time>2022-09-14T00:19:42.706Z</time>
      </trkpt>
      <trkpt lat="47.78263" lon="9.60302">
        <ele>431.228232</ele>
        <time>2022-09-14T00:19:50.735Z</time>
      </trkpt>
      <trkpt lat="47.78253" lon="9.60248">
        <ele>430.580108</ele>
        <time>2022-09-14T00:19:59.004Z</time>
      </trkpt>
      <trkpt lat="47.78254" lon="9.60219">
        <ele>430.208693</ele>
        <time>2022-09-14T00:20:03.246Z</time>
      </trkpt>
      <trkpt lat="47.78257" lon="9.602">
        <ele>429.953709</ele>
        <time>2022-09-14T00:20:06.175Z</time>
      </trkpt>
      <trkpt lat="47.78257" lon="9.60196">
        <ele>429.910141</ele>
        <time>2022-09-14T00:20:06.693Z</time>
      </trkpt>
      <trkpt lat="47.78265" lon="9.60153">
        <ele>429.329253</ele>
        <time>2022-09-14T00:20:13.242Z</time>
      </trkpt>
      <trkpt lat="47.78275" lon="9.60094">
        <ele>428.552118</ele>
        <time>2022-09-14T00:20:21.598Z</time>
      </trkpt>
      <trkpt lat="47.78276" lon="9.60048">
        <ele>427.961729</ele>
        <time>2022-09-14T00:20:27.836Z</time>
      </trkpt>
      <trkpt lat="47.78271" lon="9.60003">
        <ele>427.372658</ele>
        <time>2022-09-14T00:20:34.138Z</time>
      </trkpt>
      <trkpt lat="47.78269" lon="9.59979">
        <ele>427.508028</ele>
        <time>2022-09-14T00:20:45.717Z</time>
      </trkpt>
      <trkpt lat="47.78268" lon="9.59955">
        <ele>427.696441</ele>
        <time>2022-09-14T00:20:49.110Z</time>
      </trkpt>
      <trkpt lat="47.78262" lon="9.59932">
        <ele>427.896445</ele>
        <time>2022-09-14T00:20:53.217Z</time>
      </trkpt>
      <trkpt lat="47.78246" lon="9.59907">
        <ele>428.16748</ele>
        <time>2022-09-14T00:20:59.067Z</time>
      </trkpt>
      <trkpt lat="47.78228" lon="9.5984">
        <ele>428.738878</ele>
        <time>2022-09-14T00:21:15.082Z</time>
      </trkpt>
      <trkpt lat="47.78224" lon="9.59804">
        <ele>429.029616</ele>
        <time>2022-09-14T00:21:24.358Z</time>
      </trkpt>
      <trkpt lat="47.78211" lon="9.59774">
        <ele>429.318641</ele>
        <time>2022-09-14T00:21:34.761Z</time>
      </trkpt>
      <trkpt lat="47.78206" lon="9.59768">
        <ele>429.398423</ele>
        <time>2022-09-14T00:21:37.959Z</time>
      </trkpt>
      <trkpt lat="47.78156" lon="9.59639">
        <ele>435.831009</ele>
        <time>2022-09-14T00:22:31.214Z</time>
      </trkpt>
      <trkpt lat="47.78124" lon="9.59534">
        <ele>441.068757</ele>
        <time>2022-09-14T00:23:24.020Z</time>
      </trkpt>
      <trkpt lat="47.78107" lon="9.5944">
        <ele>445.77292</ele>
        <time>2022-09-14T00:24:09.621Z</time>
      </trkpt>
      <trkpt lat="47.781" lon="9.59353">
        <ele>449.993797</ele>
        <time>2022-09-14T00:24:46.768Z</time>
      </trkpt>
      <trkpt lat="47.78097" lon="9.59299">
        <ele>452.614839</ele>
        <time>2022-09-14T00:25:06.906Z</time>
      </trkpt>
      <trkpt lat="47.78103" lon="9.59279">
        <ele>453.686342</ele>
        <time>2022-09-14T00:25:14.500Z</time>
      </trkpt>
      <trkpt lat="47.78141" lon="9.59231">
        <ele>455.779029</ele>
        <time>2022-09-14T00:25:39.922Z</time>
      </trkpt>
      <trkpt lat="47.78144" lon="9.59221">
        <ele>456.023827</ele>
        <time>2022-09-14T00:25:43.926Z</time>
      </trkpt>
      <trkpt lat="47.78123" lon="9.59158">
        <ele>457.538427</ele>
        <time>2022-09-14T00:26:05.272Z</time>
      </trkpt>
      <trkpt lat="47.78098" lon="9.59057">
        <ele>459.90779</ele>
        <time>2022-09-14T00:26:32.171Z</time>
      </trkpt>
      <trkpt lat="47.7809" lon="9.59025">
        <ele>460.485002</ele>
        <time>2022-09-14T00:26:39.433Z</time>
      </trkpt>
      <trkpt lat="47.78071" lon="9.58929">
        <ele>460.876253</ele>
        <time>2022-09-14T00:26:59.965Z</time>
      </trkpt>
      <trkpt lat="47.7807" lon="9.58905">
        <ele>460.970367</ele>
        <time>2022-09-14T00:27:05.096Z</time>
      </trkpt>
      <trkpt lat="47.78071" lon="9.58891">
        <ele>461.022504</ele>
        <time>2022-09-14T00:27:07.755Z</time>
      </trkpt>
      <trkpt lat="47.78072" lon="9.58876">
        <ele>461.08336</ele>
        <time>2022-09-14T00:27:10.800Z</time>
      </trkpt>
      <trkpt lat="47.78072" lon="9.58853">
        <ele>461.171135</ele>
        <time>2022-09-14T00:27:15.477Z</time>
      </trkpt>
      <trkpt lat="47.78064" lon="9.58812">
        <ele>461.339058</ele>
        <time>2022-09-14T00:27:23.797Z</time>
      </trkpt>
      <trkpt lat="47.78054" lon="9.58776">
        <ele>461.492342</ele>
        <time>2022-09-14T00:27:30.806Z</time>
      </trkpt>
      <trkpt lat="47.78042" lon="9.58746">
        <ele>461.339234</ele>
        <time>2022-09-14T00:27:36.929Z</time>
      </trkpt>
      <trkpt lat="47.78018" lon="9.58708">
        <ele>461.107195</ele>
        <time>2022-09-14T00:27:45.528Z</time>
      </trkpt>
      <trkpt lat="47.78006" lon="9.58695">
        <ele>461.007042</ele>
        <time>2022-09-14T00:27:48.992Z</time>
      </trkpt>
      <trkpt lat="47.77987" lon="9.58711">
        <ele>460.857252</ele>
        <time>2022-09-14T00:27:54.328Z</time>
      </trkpt>
      <trkpt lat="47.77987" lon="9.58706">
        <ele>460.833037</ele>
        <time>2022-09-14T00:27:55.147Z</time>
      </trkpt>
      <trkpt lat="47.77977" lon="9.58697">
        <ele>460.756081</ele>
        <time>2022-09-14T00:27:57.709Z</time>
      </trkpt>
      <trkpt lat="47.77952" lon="9.5861">
        <ele>460.332648</ele>
        <time>2022-09-14T00:28:13.268Z</time>
      </trkpt>
      <trkpt lat="47.77951" lon="9.58604">
        <ele>460.300861</ele>
        <time>2022-09-14T00:28:14.387Z</time>
      </trkpt>
      <trkpt lat="47.77937" lon="9.58555">
        <ele>460.269694</ele>
        <time>2022-09-14T00:28:23.013Z</time>
      </trkpt>
      <trkpt lat="47.77914" lon="9.58475">
        <ele>460.229985</ele>
        <time>2022-09-14T00:28:37.133Z</time>
      </trkpt>
      <trkpt lat="47.77844" lon="9.5822">
        <ele>461.517462</ele>
        <time>2022-09-14T00:29:31.420Z</time>
      </trkpt>
      <trkpt lat="47.77839" lon="9.58218">
        <ele>461.592598</ele>
        <time>2022-09-14T00:29:33.288Z</time>
      </trkpt>
      <trkpt lat="47.77828" lon="9.58189">
        <ele>461.903647</ele>
        <time>2022-09-14T00:29:41.292Z</time>
      </trkpt>
      <trkpt lat="47.77817" lon="9.58151">
        <ele>462.280147</ele>
        <time>2022-09-14T00:29:51.433Z</time>
      </trkpt>
      <trkpt lat="47.77779" lon="9.57994">
        <ele>465.166835</ele>
        <time>2022-09-14T00:30:36.641Z</time>
      </trkpt>
      <trkpt lat="47.77767" lon="9.57944">
        <ele>466.217925</ele>
        <time>2022-09-14T00:30:51.925Z</time>
      </trkpt>
      <trkpt lat="47.77748" lon="9.57868">
        <ele>467.803387</ele>
        <time>2022-09-14T00:31:14.706Z</time>
      </trkpt>
      <trkpt lat="47.77725" lon="9.57768">
        <ele>468.926985</ele>
        <time>2022-09-14T00:31:43.091Z</time>
      </trkpt>
      <trkpt lat="47.7772" lon="9.57746">
        <ele>469.156509</ele>
        <time>2022-09-14T00:31:48.672Z</time>
      </trkpt>
      <trkpt lat="47.77728" lon="9.5774">
        <ele>469.298857</ele>
        <time>2022-09-14T00:31:52.125Z</time>
      </trkpt>
      <trkpt lat="47.77684" lon="9.57573">
        <ele>470.392798</ele>
        <time>2022-09-14T00:32:26.854Z</time>
      </trkpt>
      <trkpt lat="47.77622" lon="9.57353">
        <ele>469.472214</ele>
        <time>2022-09-14T00:33:04.092Z</time>
      </trkpt>
      <trkpt lat="47.77612" lon="9.57359">
        <ele>469.478849</ele>
        <time>2022-09-14T00:33:06.333Z</time>
      </trkpt>
      <trkpt lat="47.77583" lon="9.57237">
        <ele>469.53583</ele>
        <time>2022-09-14T00:33:27.570Z</time>
      </trkpt>
      <trkpt lat="47.77581" lon="9.57185">
        <ele>469.558551</ele>
        <time>2022-09-14T00:33:38.135Z</time>
      </trkpt>
      <trkpt lat="47.77559" lon="9.57181">
        <ele>469.572814</ele>
        <time>2022-09-14T00:33:45.143Z</time>
      </trkpt>
      <trkpt lat="47.77531" lon="9.57144">
        <ele>470.226005</ele>
        <time>2022-09-14T00:33:58.336Z</time>
      </trkpt>
      <trkpt lat="47.77492" lon="9.57041">
        <ele>472.307746</ele>
        <time>2022-09-14T00:34:30.703Z</time>
      </trkpt>
      <trkpt lat="47.77475" lon="9.57033">
        <ele>472.768564</ele>
        <time>2022-09-14T00:34:38.211Z</time>
      </trkpt>
      <trkpt lat="47.77429" lon="9.57055">
        <ele>474.014621</ele>
        <time>2022-09-14T00:34:58.360Z</time>
      </trkpt>
      <trkpt lat="47.77396" lon="9.57025">
        <ele>475.289699</ele>
        <time>2022-09-14T00:35:15.588Z</time>
      </trkpt>
      <trkpt lat="47.77387" lon="9.57017">
        <ele>475.651266</ele>
        <time>2022-09-14T00:35:20.192Z</time>
      </trkpt>
      <trkpt lat="47.77376" lon="9.57013">
        <ele>476.060554</ele>
        <time>2022-09-14T00:35:25.332Z</time>
      </trkpt>
      <trkpt lat="47.77388" lon="9.56977">
        <ele>477.022728</ele>
        <time>2022-09-14T00:35:37.518Z</time>
      </trkpt>
      <trkpt lat="47.77399" lon="9.56911">
        <ele>478.632906</ele>
        <time>2022-09-14T00:35:57.965Z</time>
      </trkpt>
      <trkpt lat="47.77402" lon="9.5687">
        <ele>479.605257</ele>
        <time>2022-09-14T00:36:10.371Z</time>
      </trkpt>
      <trkpt lat="47.77396" lon="9.56811">
        <ele>480.921757</ele>
        <time>2022-09-14T00:36:28.334Z</time>
      </trkpt>
      <trkpt lat="47.77383" lon="9.56723">
        <ele>482.6271</ele>
        <time>2022-09-14T00:36:53.496Z</time>
      </trkpt>
      <trkpt lat="47.77361" lon="9.56673">
        <ele>483.739254</ele>
        <time>2022-09-14T00:37:09.516Z</time>
      </trkpt>
      <trkpt lat="47.77336" lon="9.5661">
        <ele>485.108668</ele>
        <time>2022-09-14T00:37:29.011Z</time>
      </trkpt>
      <trkpt lat="47.77233" lon="9.56338">
        <ele>488.772239</ele>
        <time>2022-09-14T00:38:41.577Z</time>
      </trkpt>
      <trkpt lat="47.77229" lon="9.56319">
        <ele>488.908564</ele>
        <time>2022-09-14T00:38:46.514Z</time>
      </trkpt>
      <trkpt lat="47.77138" lon="9.56058">
        <ele>490.508866</ele>
        <time>2022-09-14T00:39:47.171Z</time>
      </trkpt>
      <trkpt lat="47.77115" lon="9.56007">
        <ele>490.552339</ele>
        <time>2022-09-14T00:39:58.165Z</time>
      </trkpt>
      <trkpt lat="47.77092" lon="9.55918">
        <ele>490.618859</ele>
        <time>2022-09-14T00:40:14.507Z</time>
      </trkpt>
      <trkpt lat="47.77032" lon="9.55747">
        <ele>491.126906</ele>
        <time>2022-09-14T00:40:48.296Z</time>
      </trkpt>
      <trkpt lat="47.77026" lon="9.55747">
        <ele>491.154557</ele>
        <time>2022-09-14T00:40:49.963Z</time>
      </trkpt>
      <trkpt lat="47.76989" lon="9.55644">
        <ele>491.575187</ele>
        <time>2022-09-14T00:41:15.183Z</time>
      </trkpt>
      <trkpt lat="47.76873" lon="9.55373">
        <ele>495.243924</ele>
        <time>2022-09-14T00:42:31.792Z</time>
      </trkpt>
      <trkpt lat="47.7686" lon="9.55358">
        <ele>495.486065</ele>
        <time>2022-09-14T00:42:37.590Z</time>
      </trkpt>
      <trkpt lat="47.76834" lon="9.55365">
        <ele>495.87959</ele>
        <time>2022-09-14T00:42:46.712Z</time>
      </trkpt>
      <trkpt lat="47.76824" lon="9.55333">
        <ele>496.231432</ele>
        <time>2022-09-14T00:42:55.102Z</time>
      </trkpt>
      <trkpt lat="47.76824" lon="9.55307">
        <ele>496.490775</ele>
        <time>2022-09-14T00:43:01.217Z</time>
      </trkpt>
      <trkpt lat="47.76814" lon="9.55263">
        <ele>496.950494</ele>
        <time>2022-09-14T00:43:11.767Z</time>
      </trkpt>
      <trkpt lat="47.76725" lon="9.55109">
        <ele>498.261118</ele>
        <time>2022-09-14T00:43:56.324Z</time>
      </trkpt>
      <trkpt lat="47.76503" lon="9.54725">
        <ele>500.321476</ele>
        <time>2022-09-14T00:45:39.289Z</time>
      </trkpt>
      <trkpt lat="47.76301" lon="9.54423">
        <ele>502.417541</ele>
        <time>2022-09-14T00:47:06.378Z</time>
      </trkpt>
      <trkpt lat="47.76264" lon="9.54353">
        <ele>502.750247</ele>
        <time>2022-09-14T00:47:25.330Z</time>
      </trkpt>
      <trkpt lat="47.76239" lon="9.54311">
        <ele>502.960749</ele>
        <time>2022-09-14T00:47:36.740Z</time>
      </trkpt>
      <trkpt lat="47.76227" lon="9.54279">
        <ele>503.101339</ele>
        <time>2022-09-14T00:47:44.138Z</time>
      </trkpt>
      <trkpt lat="47.76217" lon="9.5426">
        <ele>503.190006</ele>
        <time>2022-09-14T00:47:48.684Z</time>
      </trkpt>
      <trkpt lat="47.76156" lon="9.54157">
        <ele>502.898687</ele>
        <time>2022-09-14T00:48:11.726Z</time>
      </trkpt>
      <trkpt lat="47.76149" lon="9.54153">
        <ele>502.852218</ele>
        <time>2022-09-14T00:48:13.499Z</time>
      </trkpt>
      <trkpt lat="47.76141" lon="9.54158">
        <ele>502.802045</ele>
        <time>2022-09-14T00:48:15.443Z</time>
      </trkpt>
      <trkpt lat="47.76137" lon="9.5415">
        <ele>502.761755</ele>
        <time>2022-09-14T00:48:16.869Z</time>
      </trkpt>
      <trkpt lat="47.76133" lon="9.54141">
        <ele>502.71808</ele>
        <time>2022-09-14T00:48:18.507Z</time>
      </trkpt>
      <trkpt lat="47.76134" lon="9.54125">
        <ele>502.651831</ele>
        <time>2022-09-14T00:48:21.097Z</time>
      </trkpt>
      <trkpt lat="47.76101" lon="9.54076">
        <ele>502.36787</ele>
        <time>2022-09-14T00:48:31.751Z</time>
      </trkpt>
      <trkpt lat="47.76063" lon="9.54036">
        <ele>502.356604</ele>
        <time>2022-09-14T00:48:43.116Z</time>
      </trkpt>
      <trkpt lat="47.7603" lon="9.54007">
        <ele>502.575969</ele>
        <time>2022-09-14T00:48:52.989Z</time>
      </trkpt>
      <trkpt lat="47.76001" lon="9.53977">
        <ele>502.78347</ele>
        <time>2022-09-14T00:49:02.743Z</time>
      </trkpt>
      <trkpt lat="47.75994" lon="9.53969">
        <ele>502.836314</ele>
        <time>2022-09-14T00:49:05.476Z</time>
      </trkpt>
      <trkpt lat="47.75971" lon="9.53941">
        <ele>503.008743</ele>
        <time>2022-09-14T00:49:14.442Z</time>
      </trkpt>
      <trkpt lat="47.75941" lon="9.53852">
        <ele>503.784273</ele>
        <time>2022-09-14T00:49:38.994Z</time>
      </trkpt>
      <trkpt lat="47.75932" lon="9.53795">
        <ele>504.675933</ele>
        <time>2022-09-14T00:49:54.127Z</time>
      </trkpt>
      <trkpt lat="47.75932" lon="9.53734">
        <ele>505.622599</ele>
        <time>2022-09-14T00:50:10.092Z</time>
      </trkpt>
      <trkpt lat="47.75932" lon="9.53658">
        <ele>506.794735</ele>
        <time>2022-09-14T00:50:29.553Z</time>
      </trkpt>
      <trkpt lat="47.75924" lon="9.53592">
        <ele>507.779838</ele>
        <time>2022-09-14T00:50:46.374Z</time>
      </trkpt>
      <trkpt lat="47.7589" lon="9.53401">
        <ele>510.42999</ele>
        <time>2022-09-14T00:51:35.990Z</time>
      </trkpt>
      <trkpt lat="47.75875" lon="9.53293">
        <ele>511.18066</ele>
        <time>2022-09-14T00:52:00.281Z</time>
      </trkpt>
      <trkpt lat="47.75863" lon="9.53196">
        <ele>511.440417</ele>
        <time>2022-09-14T00:52:19.684Z</time>
      </trkpt>
      <trkpt lat="47.75857" lon="9.53152">
        <ele>511.557132</ele>
        <time>2022-09-14T00:52:27.658Z</time>
      </trkpt>
      <trkpt lat="47.75836" lon="9.52995">
        <ele>510.805433</ele>
        <time>2022-09-14T00:52:53.029Z</time>
      </trkpt>
      <trkpt lat="47.75825" lon="9.52913">
        <ele>510.088171</ele>
        <time>2022-09-14T00:53:05.073Z</time>
      </trkpt>
      <trkpt lat="47.75813" lon="9.52819">
        <ele>509.315338</ele>
        <time>2022-09-14T00:53:19.080Z</time>
      </trkpt>
      <trkpt lat="47.75798" lon="9.52708">
        <ele>508.706677</ele>
        <time>2022-09-14T00:53:36.578Z</time>
      </trkpt>
      <trkpt lat="47.75779" lon="9.52589">
        <ele>508.053361</ele>
        <time>2022-09-14T00:53:56.978Z</time>
      </trkpt>
      <trkpt lat="47.75725" lon="9.52371">
        <ele>507.640246</ele>
        <time>2022-09-14T00:54:37.858Z</time>
      </trkpt>
      <trkpt lat="47.75698" lon="9.52309">
        <ele>507.473187</ele>
        <time>2022-09-14T00:54:50.273Z</time>
      </trkpt>
      <trkpt lat="47.7567" lon="9.52253">
        <ele>507.191966</ele>
        <time>2022-09-14T00:55:01.505Z</time>
      </trkpt>
      <trkpt lat="47.75583" lon="9.5211">
        <ele>506.492797</ele>
        <time>2022-09-14T00:55:32.192Z</time>
      </trkpt>
      <trkpt lat="47.75515" lon="9.51982">
        <ele>506.581953</ele>
        <time>2022-09-14T00:56:03.474Z</time>
      </trkpt>
      <trkpt lat="47.75447" lon="9.51856">
        <ele>506.448793</ele>
        <time>2022-09-14T00:56:33.160Z</time>
      </trkpt>
      <trkpt lat="47.75408" lon="9.51773">
        <ele>506.203169</ele>
        <time>2022-09-14T00:56:50.360Z</time>
      </trkpt>
      <trkpt lat="47.75317" lon="9.51581">
        <ele>505.76381</ele>
        <time>2022-09-14T00:57:27.794Z</time>
      </trkpt>
      <trkpt lat="47.75288" lon="9.51529">
        <ele>505.661299</ele>
        <time>2022-09-14T00:57:39.546Z</time>
      </trkpt>
      <trkpt lat="47.75211" lon="9.51412">
        <ele>506.056388</ele>
        <time>2022-09-14T00:58:13.423Z</time>
      </trkpt>
      <trkpt lat="47.75196" lon="9.51393">
        <ele>506.188536</ele>
        <time>2022-09-14T00:58:19.695Z</time>
      </trkpt>
      <trkpt lat="47.75175" lon="9.51369">
        <ele>506.365654</ele>
        <time>2022-09-14T00:58:27.754Z</time>
      </trkpt>
      <trkpt lat="47.75102" lon="9.51286">
        <ele>506.700831</ele>
        <time>2022-09-14T00:58:54.492Z</time>
      </trkpt>
      <trkpt lat="47.75059" lon="9.51243">
        <ele>506.570292</ele>
        <time>2022-09-14T00:59:08.360Z</time>
      </trkpt>
      <trkpt lat="47.75032" lon="9.51217">
        <ele>506.490954</ele>
        <time>2022-09-14T00:59:16.730Z</time>
      </trkpt>
      <trkpt lat="47.74953" lon="9.5113">
        <ele>505.937455</ele>
        <time>2022-09-14T00:59:39.957Z</time>
      </trkpt>
      <trkpt lat="47.74904" lon="9.51056">
        <ele>505.097291</ele>
        <time>2022-09-14T00:59:55.765Z</time>
      </trkpt>
      <trkpt lat="47.74866" lon="9.50993">
        <ele>504.420378</ele>
        <time>2022-09-14T01:00:08.227Z</time>
      </trkpt>
      <trkpt lat="47.74824" lon="9.50911">
        <ele>503.71859</ele>
        <time>2022-09-14T01:00:23.600Z</time>
      </trkpt>
      <trkpt lat="47.74823" lon="9.50907">
        <ele>503.687192</ele>
        <time>2022-09-14T01:00:24.341Z</time>
      </trkpt>
      <trkpt lat="47.74792" lon="9.50834">
        <ele>503.146496</ele>
        <time>2022-09-14T01:00:37.853Z</time>
      </trkpt>
      <trkpt lat="47.74764" lon="9.50749">
        <ele>502.547273</ele>
        <time>2022-09-14T01:00:53.311Z</time>
      </trkpt>
      <trkpt lat="47.74752" lon="9.5071">
        <ele>502.275789</ele>
        <time>2022-09-14T01:01:00.375Z</time>
      </trkpt>
      <trkpt lat="47.74743" lon="9.50697">
        <ele>502.159658</ele>
        <time>2022-09-14T01:01:03.410Z</time>
      </trkpt>
      <trkpt lat="47.74741" lon="9.50672">
        <ele>501.99672</ele>
        <time>2022-09-14T01:01:07.782Z</time>
      </trkpt>
      <trkpt lat="47.74723" lon="9.50585">
        <ele>501.417523</ele>
        <time>2022-09-14T01:01:22.780Z</time>
      </trkpt>
      <trkpt lat="47.74695" lon="9.50411">
        <ele>499.529349</ele>
        <time>2022-09-14T01:01:49.002Z</time>
      </trkpt>
      <trkpt lat="47.7467" lon="9.5012">
        <ele>495.588406</ele>
        <time>2022-09-14T01:02:28.746Z</time>
      </trkpt>
      <trkpt lat="47.74651" lon="9.50041">
        <ele>494.821037</ele>
        <time>2022-09-14T01:02:41.476Z</time>
      </trkpt>
      <trkpt lat="47.74595" lon="9.49915">
        <ele>494.423165</ele>
        <time>2022-09-14T01:03:09.238Z</time>
      </trkpt>
      <trkpt lat="47.74579" lon="9.49856">
        <ele>494.701069</ele>
        <time>2022-09-14T01:03:22.935Z</time>
      </trkpt>
      <trkpt lat="47.74577" lon="9.49711">
        <ele>495.354626</ele>
        <time>2022-09-14T01:03:53.081Z</time>
      </trkpt>
      <trkpt lat="47.74566" lon="9.49653">
        <ele>495.698234</ele>
        <time>2022-09-14T01:04:04.866Z</time>
      </trkpt>
      <trkpt lat="47.74572" lon="9.49611">
        <ele>495.947328</ele>
        <time>2022-09-14T01:04:13.263Z</time>
      </trkpt>
      <trkpt lat="47.74569" lon="9.49545">
        <ele>496.324596</ele>
        <time>2022-09-14T01:04:26.573Z</time>
      </trkpt>
      <trkpt lat="47.74562" lon="9.49514">
        <ele>496.517516</ele>
        <time>2022-09-14T01:04:33.205Z</time>
      </trkpt>
      <trkpt lat="47.74539" lon="9.4949">
        <ele>496.759802</ele>
        <time>2022-09-14T01:04:42.381Z</time>
      </trkpt>
      <trkpt lat="47.74534" lon="9.49478">
        <ele>496.868735</ele>
        <time>2022-09-14T01:04:45.260Z</time>
      </trkpt>
      <trkpt lat="47.7444" lon="9.49073">
        <ele>501.018422</ele>
        <time>2022-09-14T01:06:33.250Z</time>
      </trkpt>
      <trkpt lat="47.74388" lon="9.48878">
        <ele>499.107711</ele>
        <time>2022-09-14T01:07:06.913Z</time>
      </trkpt>
      <trkpt lat="47.74285" lon="9.48649">
        <ele>491.865803</ele>
        <time>2022-09-14T01:07:42.346Z</time>
      </trkpt>
      <trkpt lat="47.7428" lon="9.48638">
        <ele>491.479737</ele>
        <time>2022-09-14T01:07:43.934Z</time>
      </trkpt>
      <trkpt lat="47.74227" lon="9.48527">
        <ele>487.24093</ele>
        <time>2022-09-14T01:08:00.796Z</time>
      </trkpt>
      <trkpt lat="47.74184" lon="9.48441">
        <ele>484.753976</ele>
        <time>2022-09-14T01:08:14.782Z</time>
      </trkpt>
      <trkpt lat="47.74158" lon="9.48371">
        <ele>482.902856</ele>
        <time>2022-09-14T01:08:25.384Z</time>
      </trkpt>
      <trkpt lat="47.74159" lon="9.48353">
        <ele>482.471131</ele>
        <time>2022-09-14T01:08:27.838Z</time>
      </trkpt>
      <trkpt lat="47.74135" lon="9.48334">
        <ele>481.533154</ele>
        <time>2022-09-14T01:08:33.378Z</time>
      </trkpt>
      <trkpt lat="47.74108" lon="9.483">
        <ele>480.240851</ele>
        <time>2022-09-14T01:08:40.355Z</time>
      </trkpt>
      <trkpt lat="47.74102" lon="9.48285">
        <ele>479.783236</ele>
        <time>2022-09-14T01:08:42.539Z</time>
      </trkpt>
      <trkpt lat="47.74107" lon="9.48282">
        <ele>479.590163</ele>
        <time>2022-09-14T01:08:43.461Z</time>
      </trkpt>
      <trkpt lat="47.74092" lon="9.48246">
        <ele>478.476632</ele>
        <time>2022-09-14T01:08:53.139Z</time>
      </trkpt>
      <trkpt lat="47.74063" lon="9.48156">
        <ele>475.832503</ele>
        <time>2022-09-14T01:09:16.141Z</time>
      </trkpt>
      <trkpt lat="47.7405" lon="9.4807">
        <ele>473.494656</ele>
        <time>2022-09-14T01:09:36.210Z</time>
      </trkpt>
      <trkpt lat="47.74045" lon="9.48031">
        <ele>472.423019</ele>
        <time>2022-09-14T01:09:45.297Z</time>
      </trkpt>
      <trkpt lat="47.74039" lon="9.48021">
        <ele>472.063875</ele>
        <time>2022-09-14T01:09:48.273Z</time>
      </trkpt>
      <trkpt lat="47.73923" lon="9.47754">
        <ele>464.308724</ele>
        <time>2022-09-14T01:11:01.802Z</time>
      </trkpt>
      <trkpt lat="47.73879" lon="9.47651">
        <ele>461.857329</ele>
        <time>2022-09-14T01:11:31.763Z</time>
      </trkpt>
      <trkpt lat="47.73863" lon="9.47572">
        <ele>460.840938</ele>
        <time>2022-09-14T01:11:52.756Z</time>
      </trkpt>
      <trkpt lat="47.73854" lon="9.47476">
        <ele>460.012617</ele>
        <time>2022-09-14T01:12:18.460Z</time>
      </trkpt>
      <trkpt lat="47.73853" lon="9.47396">
        <ele>459.329469</ele>
        <time>2022-09-14T01:12:40.416Z</time>
      </trkpt>
      <trkpt lat="47.73853" lon="9.47383">
        <ele>459.210652</ele>
        <time>2022-09-14T01:12:44.348Z</time>
      </trkpt>
      <trkpt lat="47.73852" lon="9.47352">
        <ele>458.991496</ele>
        <time>2022-09-14T01:12:53.046Z</time>
      </trkpt>
      <trkpt lat="47.73846" lon="9.47284">
        <ele>458.744677</ele>
        <time>2022-09-14T01:13:12.500Z</time>
      </trkpt>
      <trkpt lat="47.73825" lon="9.47223">
        <ele>458.492868</ele>
        <time>2022-09-14T01:13:32.451Z</time>
      </trkpt>
      <trkpt lat="47.73798" lon="9.47185">
        <ele>458.295043</ele>
        <time>2022-09-14T01:13:48.002Z</time>
      </trkpt>
      <trkpt lat="47.73778" lon="9.47161">
        <ele>458.153549</ele>
        <time>2022-09-14T01:13:58.996Z</time>
      </trkpt>
      <trkpt lat="47.73768" lon="9.4716">
        <ele>458.100567</ele>
        <time>2022-09-14T01:14:03.132Z</time>
      </trkpt>
      <trkpt lat="47.73753" lon="9.47145">
        <ele>457.979008</ele>
        <time>2022-09-14T01:14:10.593Z</time>
      </trkpt>
      <trkpt lat="47.73711" lon="9.47084">
        <ele>457.496523</ele>
        <time>2022-09-14T01:14:34.967Z</time>
      </trkpt>
      <trkpt lat="47.73629" lon="9.46959">
        <ele>456.529595</ele>
        <time>2022-09-14T01:15:02.448Z</time>
      </trkpt>
      <trkpt lat="47.73481" lon="9.46742">
        <ele>454.962403</ele>
        <time>2022-09-14T01:15:51.495Z</time>
      </trkpt>
      <trkpt lat="47.73436" lon="9.46668">
        <ele>454.645607</ele>
        <time>2022-09-14T01:16:08.365Z</time>
      </trkpt>
      <trkpt lat="47.73383" lon="9.46541">
        <ele>454.171977</ele>
        <time>2022-09-14T01:16:33.532Z</time>
      </trkpt>
      <trkpt lat="47.73381" lon="9.46501">
        <ele>454.043513</ele>
        <time>2022-09-14T01:16:40.372Z</time>
      </trkpt>
      <trkpt lat="47.73378" lon="9.46491">
        <ele>454.007252</ele>
        <time>2022-09-14T01:16:42.225Z</time>
      </trkpt>
      <trkpt lat="47.73355" lon="9.46479">
        <ele>453.893502</ele>
        <time>2022-09-14T01:16:48.288Z</time>
      </trkpt>
      <trkpt lat="47.73348" lon="9.46455">
        <ele>453.811685</ele>
        <time>2022-09-14T01:16:52.580Z</time>
      </trkpt>
      <trkpt lat="47.73342" lon="9.4645">
        <ele>453.779606</ele>
        <time>2022-09-14T01:16:54.236Z</time>
      </trkpt>
      <trkpt lat="47.7332" lon="9.46459">
        <ele>453.673828</ele>
        <time>2022-09-14T01:17:00.034Z</time>
      </trkpt>
      <trkpt lat="47.73314" lon="9.46465">
        <ele>453.641581</ele>
        <time>2022-09-14T01:17:01.724Z</time>
      </trkpt>
      <trkpt lat="47.73291" lon="9.46384">
        <ele>453.392462</ele>
        <time>2022-09-14T01:17:16.824Z</time>
      </trkpt>
      <trkpt lat="47.73158" lon="9.46088">
        <ele>453.347679</ele>
        <time>2022-09-14T01:18:18.390Z</time>
      </trkpt>
      <trkpt lat="47.73047" lon="9.45839">
        <ele>455.079046</ele>
        <time>2022-09-14T01:19:22.127Z</time>
      </trkpt>
      <trkpt lat="47.73032" lon="9.45798">
        <ele>455.466283</ele>
        <time>2022-09-14T01:19:32.028Z</time>
      </trkpt>
      <trkpt lat="47.73001" lon="9.45676">
        <ele>456.870252</ele>
        <time>2022-09-14T01:20:01.928Z</time>
      </trkpt>
      <trkpt lat="47.7299" lon="9.45598">
        <ele>458.072955</ele>
        <time>2022-09-14T01:20:22.329Z</time>
      </trkpt>
      <trkpt lat="47.72971" lon="9.45335">
        <ele>461.919417</ele>
        <time>2022-09-14T01:21:34.325Z</time>
      </trkpt>
      <trkpt lat="47.72956" lon="9.45184">
        <ele>463.993299</ele>
        <time>2022-09-14T01:22:11.090Z</time>
      </trkpt>
      <trkpt lat="47.72953" lon="9.45168">
        <ele>464.166859</ele>
        <time>2022-09-14T01:22:14.883Z</time>
      </trkpt>
      <trkpt lat="47.72888" lon="9.45036">
        <ele>465.824228</ele>
        <time>2022-09-14T01:22:51.967Z</time>
      </trkpt>
      <trkpt lat="47.72871" lon="9.44973">
        <ele>466.506534</ele>
        <time>2022-09-14T01:23:09.034Z</time>
      </trkpt>
      <trkpt lat="47.72871" lon="9.44944">
        <ele>466.644616</ele>
        <time>2022-09-14T01:23:16.569Z</time>
      </trkpt>
      <trkpt lat="47.72863" lon="9.44938">
        <ele>466.685346</ele>
        <time>2022-09-14T01:23:20.102Z</time>
      </trkpt>
      <trkpt lat="47.72832" lon="9.44883">
        <ele>466.886578</ele>
        <time>2022-09-14T01:23:35.442Z</time>
      </trkpt>
      <trkpt lat="47.72837" lon="9.44868">
        <ele>466.935489</ele>
        <time>2022-09-14T01:23:39.607Z</time>
      </trkpt>
      <trkpt lat="47.7285" lon="9.44866">
        <ele>466.987847</ele>
        <time>2022-09-14T01:23:43.697Z</time>
      </trkpt>
      <trkpt lat="47.72855" lon="9.44866">
        <ele>467.010659</ele>
        <time>2022-09-14T01:23:44.974Z</time>
      </trkpt>
      <trkpt lat="47.72847" lon="9.44853">
        <ele>467.060492</ele>
        <time>2022-09-14T01:23:47.766Z</time>
      </trkpt>
      <trkpt lat="47.72846" lon="9.44821">
        <ele>467.150574</ele>
        <time>2022-09-14T01:23:54.450Z</time>
      </trkpt>
      <trkpt lat="47.72837" lon="9.44825">
        <ele>467.189797</ele>
        <time>2022-09-14T01:23:56.350Z</time>
      </trkpt>
      <trkpt lat="47.72793" lon="9.4477">
        <ele>466.828446</ele>
        <time>2022-09-14T01:24:11.058Z</time>
      </trkpt>
      <trkpt lat="47.72779" lon="9.44752">
        <ele>466.413666</ele>
        <time>2022-09-14T01:24:14.472Z</time>
      </trkpt>
      <trkpt lat="47.7265" lon="9.44641">
        <ele>462.9371</ele>
        <time>2022-09-14T01:24:44.251Z</time>
      </trkpt>
      <trkpt lat="47.72587" lon="9.44573">
        <ele>461.661302</ele>
        <time>2022-09-14T01:25:00.555Z</time>
      </trkpt>
      <trkpt lat="47.72504" lon="9.44442">
        <ele>460.025374</ele>
        <time>2022-09-14T01:25:28.694Z</time>
      </trkpt>
      <trkpt lat="47.72449" lon="9.44329">
        <ele>459.649057</ele>
        <time>2022-09-14T01:25:51.778Z</time>
      </trkpt>
      <trkpt lat="47.72395" lon="9.44167">
        <ele>459.433271</ele>
        <time>2022-09-14T01:26:24.353Z</time>
      </trkpt>
      <trkpt lat="47.72379" lon="9.44101">
        <ele>459.445987</ele>
        <time>2022-09-14T01:26:37.489Z</time>
      </trkpt>
      <trkpt lat="47.72353" lon="9.44018">
        <ele>459.46241</ele>
        <time>2022-09-14T01:26:54.392Z</time>
      </trkpt>
      <trkpt lat="47.7223" lon="9.43729">
        <ele>458.410936</ele>
        <time>2022-09-14T01:27:52.053Z</time>
      </trkpt>
      <trkpt lat="47.72179" lon="9.43595">
        <ele>457.410878</ele>
        <time>2022-09-14T01:28:15.760Z</time>
      </trkpt>
      <trkpt lat="47.72107" lon="9.43416">
        <ele>455.992809</ele>
        <time>2022-09-14T01:28:47.442Z</time>
      </trkpt>
      <trkpt lat="47.72086" lon="9.43434">
        <ele>455.747651</ele>
        <time>2022-09-14T01:28:52.985Z</time>
      </trkpt>
      <trkpt lat="47.72046" lon="9.43334">
        <ele>454.961621</ele>
        <time>2022-09-14T01:29:11.896Z</time>
      </trkpt>
      <trkpt lat="47.72044" lon="9.43319">
        <ele>454.867662</ele>
        <time>2022-09-14T01:29:14.361Z</time>
      </trkpt>
      <trkpt lat="47.72033" lon="9.43293">
        <ele>454.665055</ele>
        <time>2022-09-14T01:29:19.334Z</time>
      </trkpt>
      <trkpt lat="47.71985" lon="9.43214">
        <ele>453.976898</ele>
        <time>2022-09-14T01:29:36.316Z</time>
      </trkpt>
      <trkpt lat="47.71973" lon="9.43178">
        <ele>453.717708</ele>
        <time>2022-09-14T01:29:42.472Z</time>
      </trkpt>
      <trkpt lat="47.71949" lon="9.4314">
        <ele>453.224548</ele>
        <time>2022-09-14T01:29:50.170Z</time>
      </trkpt>
      <trkpt lat="47.71939" lon="9.43126">
        <ele>452.925193</ele>
        <time>2022-09-14T01:29:53.216Z</time>
      </trkpt>
      <trkpt lat="47.71926" lon="9.43121">
        <ele>452.635088</ele>
        <time>2022-09-14T01:29:56.144Z</time>
      </trkpt>
      <trkpt lat="47.71911" lon="9.43099">
        <ele>452.189552</ele>
        <time>2022-09-14T01:30:00.519Z</time>
      </trkpt>
      <trkpt lat="47.71898" lon="9.4307">
        <ele>451.687695</ele>
        <time>2022-09-14T01:30:05.408Z</time>
      </trkpt>
      <trkpt lat="47.71863" lon="9.43028">
        <ele>450.721293</ele>
        <time>2022-09-14T01:30:14.700Z</time>
      </trkpt>
      <trkpt lat="47.7181" lon="9.42965">
        <ele>449.164388</ele>
        <time>2022-09-14T01:30:28.435Z</time>
      </trkpt>
      <trkpt lat="47.71721" lon="9.42795">
        <ele>445.209739</ele>
        <time>2022-09-14T01:30:57.468Z</time>
      </trkpt>
      <trkpt lat="47.71712" lon="9.42776">
        <ele>444.804115</ele>
        <time>2022-09-14T01:31:00.499Z</time>
      </trkpt>
      <trkpt lat="47.71703" lon="9.42754">
        <ele>444.370189</ele>
        <time>2022-09-14T01:31:04.001Z</time>
      </trkpt>
      <trkpt lat="47.71666" lon="9.42668">
        <ele>442.677106</ele>
        <time>2022-09-14T01:31:17.847Z</time>
      </trkpt>
      <trkpt lat="47.7166" lon="9.42661">
        <ele>442.486882</ele>
        <time>2022-09-14T01:31:19.291Z</time>
      </trkpt>
      <trkpt lat="47.71634" lon="9.4258">
        <ele>440.999332</ele>
        <time>2022-09-14T01:31:31.782Z</time>
      </trkpt>
      <trkpt lat="47.71602" lon="9.42436">
        <ele>439.35234</ele>
        <time>2022-09-14T01:31:53.502Z</time>
      </trkpt>
      <trkpt lat="47.71594" lon="9.42313">
        <ele>438.257</ele>
        <time>2022-09-14T01:32:12.918Z</time>
      </trkpt>
      <trkpt lat="47.71597" lon="9.42296">
        <ele>438.093154</ele>
        <time>2022-09-14T01:32:15.708Z</time>
      </trkpt>
      <trkpt lat="47.71588" lon="9.42222">
        <ele>437.85694</ele>
        <time>2022-09-14T01:32:27.685Z</time>
      </trkpt>
      <trkpt lat="47.7154" lon="9.41973">
        <ele>437.922547</ele>
        <time>2022-09-14T01:33:13.102Z</time>
      </trkpt>
      <trkpt lat="47.71531" lon="9.41908">
        <ele>438.487271</ele>
        <time>2022-09-14T01:33:27.246Z</time>
      </trkpt>
      <trkpt lat="47.71538" lon="9.41898">
        <ele>438.611276</ele>
        <time>2022-09-14T01:33:30.283Z</time>
      </trkpt>
      <trkpt lat="47.7153" lon="9.41751">
        <ele>439.940135</ele>
        <time>2022-09-14T01:34:05.753Z</time>
      </trkpt>
      <trkpt lat="47.7153" lon="9.4173">
        <ele>440.232292</ele>
        <time>2022-09-14T01:34:11.264Z</time>
      </trkpt>
      <trkpt lat="47.71533" lon="9.41666">
        <ele>441.119221</ele>
        <time>2022-09-14T01:34:28.900Z</time>
      </trkpt>
      <trkpt lat="47.71529" lon="9.41664">
        <ele>441.210349</ele>
        <time>2022-09-14T01:34:32.037Z</time>
      </trkpt>
      <trkpt lat="47.71556" lon="9.41449">
        <ele>443.727718</ele>
        <time>2022-09-14T01:35:24.163Z</time>
      </trkpt>
      <trkpt lat="47.7156" lon="9.41426">
        <ele>443.849066</ele>
        <time>2022-09-14T01:35:29.407Z</time>
      </trkpt>
      <trkpt lat="47.71565" lon="9.41374">
        <ele>444.118458</ele>
        <time>2022-09-14T01:35:40.550Z</time>
      </trkpt>
      <trkpt lat="47.71561" lon="9.41359">
        <ele>444.198756</ele>
        <time>2022-09-14T01:35:43.573Z</time>
      </trkpt>
      <trkpt lat="47.71577" lon="9.40981">
        <ele>444.807902</ele>
        <time>2022-09-14T01:36:51.822Z</time>
      </trkpt>
      <trkpt lat="47.71577" lon="9.40969">
        <ele>444.767899</ele>
        <time>2022-09-14T01:36:54.072Z</time>
      </trkpt>
      <trkpt lat="47.71577" lon="9.40961">
        <ele>444.711293</ele>
        <time>2022-09-14T01:36:55.590Z</time>
      </trkpt>
      <trkpt lat="47.71582" lon="9.40943">
        <ele>444.573154</ele>
        <time>2022-09-14T01:36:59.225Z</time>
      </trkpt>
      <trkpt lat="47.71589" lon="9.40872">
        <ele>444.054826</ele>
        <time>2022-09-14T01:37:11.644Z</time>
      </trkpt>
      <trkpt lat="47.71599" lon="9.40721">
        <ele>442.967928</ele>
        <time>2022-09-14T01:37:34.431Z</time>
      </trkpt>
      <trkpt lat="47.71611" lon="9.40565">
        <ele>440.041506</ele>
        <time>2022-09-14T01:37:55.374Z</time>
      </trkpt>
      <trkpt lat="47.71626" lon="9.40452">
        <ele>437.787155</ele>
        <time>2022-09-14T01:38:10.370Z</time>
      </trkpt>
      <trkpt lat="47.7166" lon="9.40277">
        <ele>435.438618</ele>
        <time>2022-09-14T01:38:35.138Z</time>
      </trkpt>
      <trkpt lat="47.71653" lon="9.40259">
        <ele>435.171731</ele>
        <time>2022-09-14T01:38:38.721Z</time>
      </trkpt>
      <trkpt lat="47.7164" lon="9.40251">
        <ele>434.9117</ele>
        <time>2022-09-14T01:38:41.658Z</time>
      </trkpt>
      <trkpt lat="47.71636" lon="9.4024">
        <ele>434.748952</ele>
        <time>2022-09-14T01:38:44.191Z</time>
      </trkpt>
      <trkpt lat="47.71641" lon="9.40224">
        <ele>434.525544</ele>
        <time>2022-09-14T01:38:47.734Z</time>
      </trkpt>
      <trkpt lat="47.71649" lon="9.40208">
        <ele>434.284488</ele>
        <time>2022-09-14T01:38:50.824Z</time>
      </trkpt>
      <trkpt lat="47.71671" lon="9.40213">
        <ele>434.28686</ele>
        <time>2022-09-14T01:38:57.427Z</time>
      </trkpt>
      <trkpt lat="47.71679" lon="9.40202">
        <ele>434.28816</ele>
        <time>2022-09-14T01:39:00.307Z</time>
      </trkpt>
      <trkpt lat="47.71733" lon="9.40019">
        <ele>434.302962</ele>
        <time>2022-09-14T01:39:39.143Z</time>
      </trkpt>
      <trkpt lat="47.71784" lon="9.39892">
        <ele>434.306435</ele>
        <time>2022-09-14T01:40:05.674Z</time>
      </trkpt>
      <trkpt lat="47.71759" lon="9.39867">
        <ele>434.307205</ele>
        <time>2022-09-14T01:40:13.778Z</time>
      </trkpt>
      <trkpt lat="47.71759" lon="9.39859">
        <ele>434.307349</ele>
        <time>2022-09-14T01:40:15.244Z</time>
      </trkpt>
      <trkpt lat="47.71773" lon="9.39831">
        <ele>434.307955</ele>
        <time>2022-09-14T01:40:21.730Z</time>
      </trkpt>
      <trkpt lat="47.71808" lon="9.39772">
        <ele>434.424921</ele>
        <time>2022-09-14T01:40:36.269Z</time>
      </trkpt>
      <trkpt lat="47.71842" lon="9.39718">
        <ele>434.710657</ele>
        <time>2022-09-14T01:40:50.561Z</time>
      </trkpt>
      <trkpt lat="47.71873" lon="9.39646">
        <ele>435.039531</ele>
        <time>2022-09-14T01:41:07.138Z</time>
      </trkpt>
      <trkpt lat="47.71909" lon="9.39542">
        <ele>435.625641</ele>
        <time>2022-09-14T01:41:32.086Z</time>
      </trkpt>
      <trkpt lat="47.71915" lon="9.39544">
        <ele>435.690882</ele>
        <time>2022-09-14T01:41:34.073Z</time>
      </trkpt>
      <trkpt lat="47.71916" lon="9.39526">
        <ele>435.826517</ele>
        <time>2022-09-14T01:41:37.894Z</time>
      </trkpt>
      <trkpt lat="47.71914" lon="9.39521">
        <ele>435.866142</ele>
        <time>2022-09-14T01:41:39.035Z</time>
      </trkpt>
      <trkpt lat="47.71929" lon="9.39494">
        <ele>436.120359</ele>
        <time>2022-09-14T01:41:46.481Z</time>
      </trkpt>
      <trkpt lat="47.71941" lon="9.3944">
        <ele>436.535231</ele>
        <time>2022-09-14T01:41:58.365Z</time>
      </trkpt>
      <trkpt lat="47.71949" lon="9.39401">
        <ele>436.826707</ele>
        <time>2022-09-14T01:42:06.980Z</time>
      </trkpt>
      <trkpt lat="47.71952" lon="9.39402">
        <ele>436.863014</ele>
        <time>2022-09-14T01:42:08.093Z</time>
      </trkpt>
      <trkpt lat="47.7197" lon="9.39246">
        <ele>438.622141</ele>
        <time>2022-09-14T01:42:43.823Z</time>
      </trkpt>
      <trkpt lat="47.71978" lon="9.39144">
        <ele>439.993484</ele>
        <time>2022-09-14T01:43:09.513Z</time>
      </trkpt>
      <trkpt lat="47.71979" lon="9.39136">
        <ele>440.107177</ele>
        <time>2022-09-14T01:43:11.601Z</time>
      </trkpt>
      <trkpt lat="47.71979" lon="9.39127">
        <ele>440.228216</ele>
        <time>2022-09-14T01:43:13.904Z</time>
      </trkpt>
      <trkpt lat="47.71981" lon="9.39116">
        <ele>440.368262</ele>
        <time>2022-09-14T01:43:16.442Z</time>
      </trkpt>
      <trkpt lat="47.7199" lon="9.39036">
        <ele>441.472556</ele>
        <time>2022-09-14T01:43:37.844Z</time>
      </trkpt>
      <trkpt lat="47.71991" lon="9.3903">
        <ele>441.568159</ele>
        <time>2022-09-14T01:43:39.847Z</time>
      </trkpt>
      <trkpt lat="47.72" lon="9.38989">
        <ele>442.166647</ele>
        <time>2022-09-14T01:43:52.353Z</time>
      </trkpt>
      <trkpt lat="47.72003" lon="9.38977">
        <ele>442.342098</ele>
        <time>2022-09-14T01:43:55.622Z</time>
      </trkpt>
      <trkpt lat="47.72005" lon="9.38971">
        <ele>442.428132</ele>
        <time>2022-09-14T01:43:57.237Z</time>
      </trkpt>
      <trkpt lat="47.72022" lon="9.38909">
        <ele>443.354953</ele>
        <time>2022-09-14T01:44:13.474Z</time>
      </trkpt>
      <trkpt lat="47.72034" lon="9.38914">
        <ele>443.609024</ele>
        <time>2022-09-14T01:44:17.990Z</time>
      </trkpt>
      <trkpt lat="47.72054" lon="9.38919">
        <ele>444.03032</ele>
        <time>2022-09-14T01:44:24.532Z</time>
      </trkpt>
      <trkpt lat="47.72061" lon="9.38921">
        <ele>444.172641</ele>
        <time>2022-09-14T01:44:26.795Z</time>
      </trkpt>
      <trkpt lat="47.72092" lon="9.38934">
        <ele>444.551532</ele>
        <time>2022-09-14T01:44:37.099Z</time>
      </trkpt>
      <trkpt lat="47.72102" lon="9.38942">
        <ele>444.562461</ele>
        <time>2022-09-14T01:44:40.948Z</time>
      </trkpt>
      <trkpt lat="47.72107" lon="9.38921">
        <ele>444.577408</ele>
        <time>2022-09-14T01:44:45.497Z</time>
      </trkpt>
      <trkpt lat="47.7211" lon="9.38892">
        <ele>444.596698</ele>
        <time>2022-09-14T01:44:51.347Z</time>
      </trkpt>
      <trkpt lat="47.72114" lon="9.38826">
        <ele>444.640139</ele>
        <time>2022-09-14T01:45:03.709Z</time>
      </trkpt>
      <trkpt lat="47.72114" lon="9.38818">
        <ele>444.645036</ele>
        <time>2022-09-14T01:45:05.043Z</time>
      </trkpt>
      <trkpt lat="47.72117" lon="9.38769">
        <ele>444.677434</ele>
        <time>2022-09-14T01:45:13.670Z</time>
      </trkpt>
      <trkpt lat="47.72118" lon="9.38746">
        <ele>444.69276</ele>
        <time>2022-09-14T01:45:17.442Z</time>
      </trkpt>
      <trkpt lat="47.72125" lon="9.38718">
        <ele>444.711925</ele>
        <time>2022-09-14T01:45:22.150Z</time>
      </trkpt>
      <trkpt lat="47.72138" lon="9.38682">
        <ele>444.452758</ele>
        <time>2022-09-14T01:45:27.956Z</time>
      </trkpt>
      <trkpt lat="47.72146" lon="9.38661">
        <ele>444.294915</ele>
        <time>2022-09-14T01:45:31.664Z</time>
      </trkpt>
      <trkpt lat="47.72176" lon="9.38595">
        <ele>443.772828</ele>
        <time>2022-09-14T01:45:44.128Z</time>
      </trkpt>
      <trkpt lat="47.72182" lon="9.38562">
        <ele>443.554347</ele>
        <time>2022-09-14T01:45:49.498Z</time>
      </trkpt>
      <trkpt lat="47.72181" lon="9.38529">
        <ele>443.341182</ele>
        <time>2022-09-14T01:45:54.771Z</time>
      </trkpt>
      <trkpt lat="47.72186" lon="9.3852">
        <ele>443.264484</ele>
        <time>2022-09-14T01:45:56.664Z</time>
      </trkpt>
      <trkpt lat="47.72183" lon="9.38507">
        <ele>443.17461</ele>
        <time>2022-09-14T01:45:58.825Z</time>
      </trkpt>
      <trkpt lat="47.72192" lon="9.38467">
        <ele>442.900054</ele>
        <time>2022-09-14T01:46:05.344Z</time>
      </trkpt>
      <trkpt lat="47.72196" lon="9.38437">
        <ele>442.689228</ele>
        <time>2022-09-14T01:46:10.157Z</time>
      </trkpt>
      <trkpt lat="47.72201" lon="9.38404">
        <ele>442.456813</ele>
        <time>2022-09-14T01:46:15.534Z</time>
      </trkpt>
      <trkpt lat="47.72204" lon="9.3839">
        <ele>442.353982</ele>
        <time>2022-09-14T01:46:17.905Z</time>
      </trkpt>
      <trkpt lat="47.72206" lon="9.38383">
        <ele>442.30531</ele>
        <time>2022-09-14T01:46:19.052Z</time>
      </trkpt>
      <trkpt lat="47.7221" lon="9.38363">
        <ele>442.161255</ele>
        <time>2022-09-14T01:46:22.422Z</time>
      </trkpt>
      <trkpt lat="47.7222" lon="9.38315">
        <ele>441.819947</ele>
        <time>2022-09-14T01:46:30.251Z</time>
      </trkpt>
      <trkpt lat="47.72221" lon="9.38309">
        <ele>441.775132</ele>
        <time>2022-09-14T01:46:31.228Z</time>
      </trkpt>
      <trkpt lat="47.72226" lon="9.38282">
        <ele>441.579232</ele>
        <time>2022-09-14T01:46:35.561Z</time>
      </trkpt>
      <trkpt lat="47.72232" lon="9.38248">
        <ele>441.342359</ele>
        <time>2022-09-14T01:46:40.868Z</time>
      </trkpt>
      <trkpt lat="47.72238" lon="9.38165">
        <ele>440.639145</ele>
        <time>2022-09-14T01:46:53.523Z</time>
      </trkpt>
      <trkpt lat="47.72232" lon="9.38147">
        <ele>440.448547</ele>
        <time>2022-09-14T01:46:56.588Z</time>
      </trkpt>
      <trkpt lat="47.7223" lon="9.3811">
        <ele>440.112377</ele>
        <time>2022-09-14T01:47:02.057Z</time>
      </trkpt>
      <trkpt lat="47.7222" lon="9.38071">
        <ele>439.719165</ele>
        <time>2022-09-14T01:47:08.233Z</time>
      </trkpt>
      <trkpt lat="47.72216" lon="9.38029">
        <ele>439.32974</ele>
        <time>2022-09-14T01:47:14.332Z</time>
      </trkpt>
      <trkpt lat="47.72225" lon="9.37978">
        <ele>438.84348</ele>
        <time>2022-09-14T01:47:22.131Z</time>
      </trkpt>
      <trkpt lat="47.72265" lon="9.37819">
        <ele>438.007909</ele>
        <time>2022-09-14T01:47:48.730Z</time>
      </trkpt>
      <trkpt lat="47.723" lon="9.37715">
        <ele>437.497847</ele>
        <time>2022-09-14T01:48:08.802Z</time>
      </trkpt>
      <trkpt lat="47.72321" lon="9.37634">
        <ele>437.547263</ele>
        <time>2022-09-14T01:48:24.657Z</time>
      </trkpt>
      <trkpt lat="47.72361" lon="9.37279">
        <ele>438.210115</ele>
        <time>2022-09-14T01:49:30.883Z</time>
      </trkpt>
      <trkpt lat="47.72374" lon="9.37225">
        <ele>438.389957</ele>
        <time>2022-09-14T01:49:42.706Z</time>
      </trkpt>
      <trkpt lat="47.72376" lon="9.37212">
        <ele>438.432413</ele>
        <time>2022-09-14T01:49:45.536Z</time>
      </trkpt>
      <trkpt lat="47.72383" lon="9.37182">
        <ele>438.675768</ele>
        <time>2022-09-14T01:49:52.189Z</time>
      </trkpt>
      <trkpt lat="47.72406" lon="9.371">
        <ele>439.857428</ele>
        <time>2022-09-14T01:50:13.024Z</time>
      </trkpt>
      <trkpt lat="47.72465" lon="9.37">
        <ele>441.632021</ele>
        <time>2022-09-14T01:50:48.322Z</time>
      </trkpt>
      <trkpt lat="47.72562" lon="9.36883">
        <ele>442.874535</ele>
        <time>2022-09-14T01:51:32.118Z</time>
      </trkpt>
      <trkpt lat="47.7259" lon="9.3685">
        <ele>443.158881</ele>
        <time>2022-09-14T01:51:42.051Z</time>
      </trkpt>
      <trkpt lat="47.72665" lon="9.36758">
        <ele>442.757272</ele>
        <time>2022-09-14T01:52:04.421Z</time>
      </trkpt>
      <trkpt lat="47.72714" lon="9.36685">
        <ele>441.8896</ele>
        <time>2022-09-14T01:52:18.872Z</time>
      </trkpt>
      <trkpt lat="47.72786" lon="9.36561">
        <ele>441.543853</ele>
        <time>2022-09-14T01:52:45.190Z</time>
      </trkpt>
      <trkpt lat="47.72856" lon="9.36388">
        <ele>442.294483</ele>
        <time>2022-09-14T01:53:29.575Z</time>
      </trkpt>
      <trkpt lat="47.72911" lon="9.36223">
        <ele>443.026799</ele>
        <time>2022-09-14T01:54:09.318Z</time>
      </trkpt>
      <trkpt lat="47.72922" lon="9.36125">
        <ele>442.902203</ele>
        <time>2022-09-14T01:54:25.881Z</time>
      </trkpt>
      <trkpt lat="47.72917" lon="9.35796">
        <ele>439.437786</ele>
        <time>2022-09-14T01:55:12.837Z</time>
      </trkpt>
      <trkpt lat="47.72975" lon="9.35452">
        <ele>436.834521</ele>
        <time>2022-09-14T01:56:06.131Z</time>
      </trkpt>
      <trkpt lat="47.72966" lon="9.3535">
        <ele>436.53067</ele>
        <time>2022-09-14T01:56:26.166Z</time>
      </trkpt>
      <trkpt lat="47.72951" lon="9.35287">
        <ele>436.77988</ele>
        <time>2022-09-14T01:56:40.630Z</time>
      </trkpt>
      <trkpt lat="47.72937" lon="9.35218">
        <ele>437.049115</ele>
        <time>2022-09-14T01:56:55.514Z</time>
      </trkpt>
      <trkpt lat="47.72936" lon="9.35209">
        <ele>437.081616</ele>
        <time>2022-09-14T01:56:57.138Z</time>
      </trkpt>
      <trkpt lat="47.7294" lon="9.35184">
        <ele>437.179133</ele>
        <time>2022-09-14T01:57:02.302Z</time>
      </trkpt>
      <trkpt lat="47.72911" lon="9.35142">
        <ele>437.402358</ele>
        <time>2022-09-14T01:57:13.710Z</time>
      </trkpt>
      <trkpt lat="47.72927" lon="9.35075">
        <ele>437.238016</ele>
        <time>2022-09-14T01:57:26.836Z</time>
      </trkpt>
      <trkpt lat="47.72955" lon="9.34986">
        <ele>436.86676</ele>
        <time>2022-09-14T01:57:43.674Z</time>
      </trkpt>
      <trkpt lat="47.72967" lon="9.3493">
        <ele>436.647803</ele>
        <time>2022-09-14T01:57:52.597Z</time>
      </trkpt>
      <trkpt lat="47.72969" lon="9.34923">
        <ele>436.619474</ele>
        <time>2022-09-14T01:57:53.741Z</time>
      </trkpt>
      <trkpt lat="47.72983" lon="9.34876">
        <ele>436.407568</ele>
        <time>2022-09-14T01:58:01.522Z</time>
      </trkpt>
      <trkpt lat="47.72985" lon="9.34874">
        <ele>436.383129</ele>
        <time>2022-09-14T01:58:02.050Z</time>
      </trkpt>
      <trkpt lat="47.72992" lon="9.34871">
        <ele>436.304988</ele>
        <time>2022-09-14T01:58:05.101Z</time>
      </trkpt>
      <trkpt lat="47.73004" lon="9.34877">
        <ele>436.174995</ele>
        <time>2022-09-14T01:58:08.028Z</time>
      </trkpt>
      <trkpt lat="47.73013" lon="9.34874">
        <ele>436.081901</ele>
        <time>2022-09-14T01:58:10.139Z</time>
      </trkpt>
      <trkpt lat="47.73041" lon="9.34847">
        <ele>435.742289</ele>
        <time>2022-09-14T01:58:17.807Z</time>
      </trkpt>
      <trkpt lat="47.73021" lon="9.34806">
        <ele>435.388171</ele>
        <time>2022-09-14T01:58:26.049Z</time>
      </trkpt>
      <trkpt lat="47.73038" lon="9.34786">
        <ele>435.165614</ele>
        <time>2022-09-14T01:58:31.110Z</time>
      </trkpt>
      <trkpt lat="47.73069" lon="9.34743">
        <ele>434.734428</ele>
        <time>2022-09-14T01:58:40.999Z</time>
      </trkpt>
      <trkpt lat="47.73065" lon="9.34723">
        <ele>434.605519</ele>
        <time>2022-09-14T01:58:44.369Z</time>
      </trkpt>
      <trkpt lat="47.73059" lon="9.34704">
        <ele>434.53107</ele>
        <time>2022-09-14T01:58:47.653Z</time>
      </trkpt>
      <trkpt lat="47.73046" lon="9.34689">
        <ele>434.443748</ele>
        <time>2022-09-14T01:58:51.571Z</time>
      </trkpt>
      <trkpt lat="47.73036" lon="9.34678">
        <ele>434.382085</ele>
        <time>2022-09-14T01:58:54.305Z</time>
      </trkpt>
      <trkpt lat="47.73018" lon="9.34653">
        <ele>434.250185</ele>
        <time>2022-09-14T01:59:00.513Z</time>
      </trkpt>
      <trkpt lat="47.73016" lon="9.34637">
        <ele>434.19375</ele>
        <time>2022-09-14T01:59:03.162Z</time>
      </trkpt>
      <trkpt lat="47.73013" lon="9.3463">
        <ele>434.16383</ele>
        <time>2022-09-14T01:59:04.657Z</time>
      </trkpt>
      <trkpt lat="47.73018" lon="9.34616">
        <ele>434.106342</ele>
        <time>2022-09-14T01:59:07.516Z</time>
      </trkpt>
      <trkpt lat="47.73052" lon="9.34537">
        <ele>433.776922</ele>
        <time>2022-09-14T01:59:22.780Z</time>
      </trkpt>
      <trkpt lat="47.73058" lon="9.34525">
        <ele>433.722739</ele>
        <time>2022-09-14T01:59:25.415Z</time>
      </trkpt>
      <trkpt lat="47.73088" lon="9.3448">
        <ele>433.551718</ele>
        <time>2022-09-14T01:59:36.854Z</time>
      </trkpt>
      <trkpt lat="47.73094" lon="9.34473">
        <ele>433.522954</ele>
        <time>2022-09-14T01:59:38.799Z</time>
      </trkpt>
      <trkpt lat="47.73157" lon="9.34396">
        <ele>433.213434</ele>
        <time>2022-09-14T02:00:00.516Z</time>
      </trkpt>
      <trkpt lat="47.73179" lon="9.34384">
        <ele>433.126386</ele>
        <time>2022-09-14T02:00:06.279Z</time>
      </trkpt>
      <trkpt lat="47.73205" lon="9.34392">
        <ele>433.024733</ele>
        <time>2022-09-14T02:00:12.683Z</time>
      </trkpt>
      <trkpt lat="47.73212" lon="9.34357">
        <ele>432.654593</ele>
        <time>2022-09-14T02:00:18.249Z</time>
      </trkpt>
      <trkpt lat="47.73228" lon="9.34332">
        <ele>432.217854</ele>
        <time>2022-09-14T02:00:23.671Z</time>
      </trkpt>
      <trkpt lat="47.73233" lon="9.34306">
        <ele>431.888994</ele>
        <time>2022-09-14T02:00:27.589Z</time>
      </trkpt>
      <trkpt lat="47.7323" lon="9.34295">
        <ele>431.739806</ele>
        <time>2022-09-14T02:00:29.401Z</time>
      </trkpt>
      <trkpt lat="47.73224" lon="9.34276">
        <ele>431.473117</ele>
        <time>2022-09-14T02:00:32.462Z</time>
      </trkpt>
      <trkpt lat="47.7322" lon="9.34268">
        <ele>431.352873</ele>
        <time>2022-09-14T02:00:33.820Z</time>
      </trkpt>
      <trkpt lat="47.73222" lon="9.34237">
        <ele>430.964309</ele>
        <time>2022-09-14T02:00:38.388Z</time>
      </trkpt>
      <trkpt lat="47.73269" lon="9.34157">
        <ele>429.645776</ele>
        <time>2022-09-14T02:00:52.713Z</time>
      </trkpt>
      <trkpt lat="47.73338" lon="9.34048">
        <ele>427.085249</ele>
        <time>2022-09-14T02:01:12.792Z</time>
      </trkpt>
      <trkpt lat="47.73351" lon="9.34027">
        <ele>426.603446</ele>
        <time>2022-09-14T02:01:16.628Z</time>
      </trkpt>
      <trkpt lat="47.73371" lon="9.33996">
        <ele>425.856372</ele>
        <time>2022-09-14T02:01:22.651Z</time>
      </trkpt>
      <trkpt lat="47.73399" lon="9.33951">
        <ele>425.030195</ele>
        <time>2022-09-14T02:01:31.187Z</time>
      </trkpt>
      <trkpt lat="47.7341" lon="9.3393">
        <ele>424.915625</ele>
        <time>2022-09-14T02:01:34.934Z</time>
      </trkpt>
      <trkpt lat="47.73458" lon="9.33891">
        <ele>424.559856</ele>
        <time>2022-09-14T02:01:47.292Z</time>
      </trkpt>
      <trkpt lat="47.73545" lon="9.33848">
        <ele>423.956167</ele>
        <time>2022-09-14T02:02:11.700Z</time>
      </trkpt>
      <trkpt lat="47.73637" lon="9.33802">
        <ele>424.612206</ele>
        <time>2022-09-14T02:02:42.362Z</time>
      </trkpt>
      <trkpt lat="47.73652" lon="9.33815">
        <ele>424.740984</ele>
        <time>2022-09-14T02:02:47.665Z</time>
      </trkpt>
      <trkpt lat="47.73695" lon="9.33887">
        <ele>425.213286</ele>
        <time>2022-09-14T02:03:07.324Z</time>
      </trkpt>
      <trkpt lat="47.73777" lon="9.33771">
        <ele>425.490518</ele>
        <time>2022-09-14T02:03:39.782Z</time>
      </trkpt>
      <trkpt lat="47.74011" lon="9.33501">
        <ele>425.37002</ele>
        <time>2022-09-14T02:04:56.366Z</time>
      </trkpt>
      <trkpt lat="47.74065" lon="9.33436">
        <ele>425.46171</ele>
        <time>2022-09-14T02:05:14.879Z</time>
      </trkpt>
      <trkpt lat="47.74138" lon="9.33313">
        <ele>425.72534</ele>
        <time>2022-09-14T02:05:46.536Z</time>
      </trkpt>
      <trkpt lat="47.74152" lon="9.333">
        <ele>425.791195</ele>
        <time>2022-09-14T02:05:51.432Z</time>
      </trkpt>
      <trkpt lat="47.74182" lon="9.33291">
        <ele>425.911849</ele>
        <time>2022-09-14T02:06:00.417Z</time>
      </trkpt>
      <trkpt lat="47.74257" lon="9.3314">
        <ele>426.21094</ele>
        <time>2022-09-14T02:06:36.687Z</time>
      </trkpt>
      <trkpt lat="47.74478" lon="9.32707">
        <ele>425.240292</ele>
        <time>2022-09-14T02:08:09.114Z</time>
      </trkpt>
      <trkpt lat="47.74521" lon="9.32616">
        <ele>424.912761</ele>
        <time>2022-09-14T02:08:27.304Z</time>
      </trkpt>
      <trkpt lat="47.74516" lon="9.32601">
        <ele>424.862941</ele>
        <time>2022-09-14T02:08:29.877Z</time>
      </trkpt>
      <trkpt lat="47.74519" lon="9.32574">
        <ele>424.782983</ele>
        <time>2022-09-14T02:08:34.576Z</time>
      </trkpt>
      <trkpt lat="47.74539" lon="9.32472">
        <ele>424.69189</ele>
        <time>2022-09-14T02:08:52.833Z</time>
      </trkpt>
      <trkpt lat="47.74522" lon="9.32372">
        <ele>424.773327</ele>
        <time>2022-09-14T02:09:11.176Z</time>
      </trkpt>
      <trkpt lat="47.74528" lon="9.32271">
        <ele>424.853135</ele>
        <time>2022-09-14T02:09:31.096Z</time>
      </trkpt>
      <trkpt lat="47.74527" lon="9.32262">
        <ele>424.880719</ele>
        <time>2022-09-14T02:09:32.820Z</time>
      </trkpt>
      <trkpt lat="47.74526" lon="9.32257">
        <ele>424.904928</ele>
        <time>2022-09-14T02:09:33.891Z</time>
      </trkpt>
      <trkpt lat="47.74752" lon="9.32137">
        <ele>426.545588</ele>
        <time>2022-09-14T02:10:45.817Z</time>
      </trkpt>
      <trkpt lat="47.74847" lon="9.31975">
        <ele>427.674259</ele>
        <time>2022-09-14T02:11:29.667Z</time>
      </trkpt>
      <trkpt lat="47.74841" lon="9.31961">
        <ele>427.782796</ele>
        <time>2022-09-14T02:11:33.292Z</time>
      </trkpt>
      <trkpt lat="47.74891" lon="9.31918">
        <ele>428.32624</ele>
        <time>2022-09-14T02:11:51.657Z</time>
      </trkpt>
      <trkpt lat="47.7505" lon="9.31745">
        <ele>429.95857</ele>
        <time>2022-09-14T02:12:53.580Z</time>
      </trkpt>
      <trkpt lat="47.75158" lon="9.31645">
        <ele>430.494764</ele>
        <time>2022-09-14T02:13:29.866Z</time>
      </trkpt>
      <trkpt lat="47.75538" lon="9.31266">
        <ele>430.910566</ele>
        <time>2022-09-14T02:15:32.601Z</time>
      </trkpt>
      <trkpt lat="47.75641" lon="9.31165">
        <ele>431.242457</ele>
        <time>2022-09-14T02:16:06.170Z</time>
      </trkpt>
      <trkpt lat="47.75664" lon="9.31136">
        <ele>431.333459</ele>
        <time>2022-09-14T02:16:14.952Z</time>
      </trkpt>
      <trkpt lat="47.7568" lon="9.31102">
        <ele>431.417165</ele>
        <time>2022-09-14T02:16:23.129Z</time>
      </trkpt>
      <trkpt lat="47.75697" lon="9.31093">
        <ele>431.492838</ele>
        <time>2022-09-14T02:16:28.509Z</time>
      </trkpt>
      <trkpt lat="47.75704" lon="9.31101">
        <ele>431.570568</ele>
        <time>2022-09-14T02:16:31.198Z</time>
      </trkpt>
      <trkpt lat="47.75713" lon="9.31119">
        <ele>431.69899</ele>
        <time>2022-09-14T02:16:35.607Z</time>
      </trkpt>
      <trkpt lat="47.75753" lon="9.31201">
        <ele>432.285798</ele>
        <time>2022-09-14T02:16:56.701Z</time>
      </trkpt>
      <trkpt lat="47.75771" lon="9.31202">
        <ele>432.439228</ele>
        <time>2022-09-14T02:17:02.422Z</time>
      </trkpt>
      <trkpt lat="47.75827" lon="9.31187">
        <ele>432.929452</ele>
        <time>2022-09-14T02:17:20.432Z</time>
      </trkpt>
      <trkpt lat="47.75886" lon="9.31182">
        <ele>433.192654</ele>
        <time>2022-09-14T02:17:38.709Z</time>
      </trkpt>
      <trkpt lat="47.75886" lon="9.31165">
        <ele>433.233834</ele>
        <time>2022-09-14T02:17:42.008Z</time>
      </trkpt>
      <trkpt lat="47.75886" lon="9.3112">
        <ele>433.345964</ele>
        <time>2022-09-14T02:17:50.595Z</time>
      </trkpt>
      <trkpt lat="47.75879" lon="9.30953">
        <ele>433.712091</ele>
        <time>2022-09-14T02:18:21.100Z</time>
      </trkpt>
      <trkpt lat="47.7588" lon="9.30927">
        <ele>433.743937</ele>
        <time>2022-09-14T02:18:25.684Z</time>
      </trkpt>
      <trkpt lat="47.75894" lon="9.30869">
        <ele>433.819836</ele>
        <time>2022-09-14T02:18:36.908Z</time>
      </trkpt>
      <trkpt lat="47.75935" lon="9.30678">
        <ele>434.092719</ele>
        <time>2022-09-14T02:19:14.531Z</time>
      </trkpt>
      <trkpt lat="47.76005" lon="9.30663">
        <ele>434.273463</ele>
        <time>2022-09-14T02:19:35.051Z</time>
      </trkpt>
      <trkpt lat="47.76007" lon="9.30627">
        <ele>434.335554</ele>
        <time>2022-09-14T02:19:41.622Z</time>
      </trkpt>
      <trkpt lat="47.76006" lon="9.30578">
        <ele>434.419979</ele>
        <time>2022-09-14T02:19:50.709Z</time>
      </trkpt>
      <trkpt lat="47.76" lon="9.30548">
        <ele>434.435659</ele>
        <time>2022-09-14T02:19:56.420Z</time>
      </trkpt>
      <trkpt lat="47.75984" lon="9.30531">
        <ele>434.396461</ele>
        <time>2022-09-14T02:20:01.542Z</time>
      </trkpt>
      <trkpt lat="47.75978" lon="9.30513">
        <ele>434.369106</ele>
        <time>2022-09-14T02:20:05.349Z</time>
      </trkpt>
      <trkpt lat="47.75985" lon="9.30489">
        <ele>434.33381</ele>
        <time>2022-09-14T02:20:09.801Z</time>
      </trkpt>
      <trkpt lat="47.75991" lon="9.30476">
        <ele>434.313024</ele>
        <time>2022-09-14T02:20:12.524Z</time>
      </trkpt>
      <trkpt lat="47.75995" lon="9.30473">
        <ele>434.303638</ele>
        <time>2022-09-14T02:20:13.866Z</time>
      </trkpt>
      <trkpt lat="47.75995" lon="9.30455">
        <ele>434.279009</ele>
        <time>2022-09-14T02:20:16.895Z</time>
      </trkpt>
      <trkpt lat="47.75978" lon="9.30443">
        <ele>434.242338</ele>
        <time>2022-09-14T02:20:21.430Z</time>
      </trkpt>
      <trkpt lat="47.75945" lon="9.30428">
        <ele>434.172329</ele>
        <time>2022-09-14T02:20:30.406Z</time>
      </trkpt>
      <trkpt lat="47.75924" lon="9.30398">
        <ele>434.113557</ele>
        <time>2022-09-14T02:20:37.937Z</time>
      </trkpt>
      <trkpt lat="47.7591" lon="9.30365">
        <ele>434.022214</ele>
        <time>2022-09-14T02:20:44.590Z</time>
      </trkpt>
      <trkpt lat="47.75857" lon="9.30056">
        <ele>432.979706</ele>
        <time>2022-09-14T02:21:37.256Z</time>
      </trkpt>
      <trkpt lat="47.75827" lon="9.29873">
        <ele>432.303604</ele>
        <time>2022-09-14T02:22:07.725Z</time>
      </trkpt>
      <trkpt lat="47.75814" lon="9.29789">
        <ele>432.347432</ele>
        <time>2022-09-14T02:22:23.676Z</time>
      </trkpt>
      <trkpt lat="47.758" lon="9.29693">
        <ele>432.427686</ele>
        <time>2022-09-14T02:22:41.338Z</time>
      </trkpt>
      <trkpt lat="47.75802" lon="9.2967">
        <ele>432.446341</ele>
        <time>2022-09-14T02:22:45.795Z</time>
      </trkpt>
      <trkpt lat="47.75816" lon="9.29631">
        <ele>432.482736</ele>
        <time>2022-09-14T02:22:54.348Z</time>
      </trkpt>
      <trkpt lat="47.75822" lon="9.29613">
        <ele>432.498827</ele>
        <time>2022-09-14T02:22:58.083Z</time>
      </trkpt>
      <trkpt lat="47.7585" lon="9.29573">
        <ele>432.65473</ele>
        <time>2022-09-14T02:23:09.495Z</time>
      </trkpt>
      <trkpt lat="47.7588" lon="9.29533">
        <ele>432.816584</ele>
        <time>2022-09-14T02:23:21.265Z</time>
      </trkpt>
      <trkpt lat="47.7593" lon="9.29467">
        <ele>433.086192</ele>
        <time>2022-09-14T02:23:40.339Z</time>
      </trkpt>
      <trkpt lat="47.76016" lon="9.29356">
        <ele>433.650257</ele>
        <time>2022-09-14T02:24:12.569Z</time>
      </trkpt>
      <trkpt lat="47.76062" lon="9.29298">
        <ele>433.966253</ele>
        <time>2022-09-14T02:24:31.024Z</time>
      </trkpt>
      <trkpt lat="47.76098" lon="9.29244">
        <ele>434.21554</ele>
        <time>2022-09-14T02:24:46.050Z</time>
      </trkpt>
      <trkpt lat="47.76103" lon="9.29201">
        <ele>434.312659</ele>
        <time>2022-09-14T02:24:54.569Z</time>
      </trkpt>
      <trkpt lat="47.76098" lon="9.29179">
        <ele>434.362427</ele>
        <time>2022-09-14T02:24:58.956Z</time>
      </trkpt>
      <trkpt lat="47.76091" lon="9.2916">
        <ele>434.410384</ele>
        <time>2022-09-14T02:25:03.010Z</time>
      </trkpt>
      <trkpt lat="47.76081" lon="9.29122">
        <ele>434.498897</ele>
        <time>2022-09-14T02:25:10.376Z</time>
      </trkpt>
      <trkpt lat="47.76078" lon="9.291">
        <ele>434.548168</ele>
        <time>2022-09-14T02:25:14.320Z</time>
      </trkpt>
      <trkpt lat="47.76081" lon="9.29058">
        <ele>434.6419</ele>
        <time>2022-09-14T02:25:22.263Z</time>
      </trkpt>
      <trkpt lat="47.76096" lon="9.28919">
        <ele>434.895782</ele>
        <time>2022-09-14T02:25:49.251Z</time>
      </trkpt>
      <trkpt lat="47.76107" lon="9.28828">
        <ele>435.038061</ele>
        <time>2022-09-14T02:26:06.176Z</time>
      </trkpt>
      <trkpt lat="47.76115" lon="9.28797">
        <ele>435.08861</ele>
        <time>2022-09-14T02:26:12.413Z</time>
      </trkpt>
      <trkpt lat="47.76087" lon="9.28755">
        <ele>435.178011</ele>
        <time>2022-09-14T02:26:23.570Z</time>
      </trkpt>
      <trkpt lat="47.76056" lon="9.28742">
        <ele>435.150449</ele>
        <time>2022-09-14T02:26:32.763Z</time>
      </trkpt>
      <trkpt lat="47.7605" lon="9.28738">
        <ele>435.144869</ele>
        <time>2022-09-14T02:26:34.534Z</time>
      </trkpt>
      <trkpt lat="47.76022" lon="9.28706">
        <ele>435.115481</ele>
        <time>2022-09-14T02:26:44.074Z</time>
      </trkpt>
      <trkpt lat="47.75986" lon="9.28629">
        <ele>435.062047</ele>
        <time>2022-09-14T02:27:00.312Z</time>
      </trkpt>
      <trkpt lat="47.75951" lon="9.28627">
        <ele>435.03233</ele>
        <time>2022-09-14T02:27:09.123Z</time>
      </trkpt>
      <trkpt lat="47.75927" lon="9.28645">
        <ele>434.976086</ele>
        <time>2022-09-14T02:27:15.688Z</time>
      </trkpt>
      <trkpt lat="47.75912" lon="9.28607">
        <ele>434.898189</ele>
        <time>2022-09-14T02:27:23.185Z</time>
      </trkpt>
      <trkpt lat="47.75872" lon="9.28602">
        <ele>434.793348</ele>
        <time>2022-09-14T02:27:33.647Z</time>
      </trkpt>
      <trkpt lat="47.75807" lon="9.28564">
        <ele>434.611334</ele>
        <time>2022-09-14T02:27:51.748Z</time>
      </trkpt>
      <trkpt lat="47.75812" lon="9.28557">
        <ele>434.592698</ele>
        <time>2022-09-14T02:27:53.702Z</time>
      </trkpt>
      <trkpt lat="47.75816" lon="9.28545">
        <ele>434.569833</ele>
        <time>2022-09-14T02:27:56.016Z</time>
      </trkpt>
      <trkpt lat="47.75783" lon="9.28523">
        <ele>434.787626</ele>
        <time>2022-09-14T02:28:06.174Z</time>
      </trkpt>
      <trkpt lat="47.75727" lon="9.28468">
        <ele>435.279569</ele>
        <time>2022-09-14T02:28:26.244Z</time>
      </trkpt>
      <trkpt lat="47.75583" lon="9.28262">
        <ele>436.944248</ele>
        <time>2022-09-14T02:29:31.202Z</time>
      </trkpt>
      <trkpt lat="47.75475" lon="9.28127">
        <ele>437.409871</ele>
        <time>2022-09-14T02:30:10.976Z</time>
      </trkpt>
      <trkpt lat="47.75412" lon="9.28064">
        <ele>437.327239</ele>
        <time>2022-09-14T02:30:29.569Z</time>
      </trkpt>
      <trkpt lat="47.75289" lon="9.27965">
        <ele>437.455953</ele>
        <time>2022-09-14T02:31:05.189Z</time>
      </trkpt>
      <trkpt lat="47.75207" lon="9.27906">
        <ele>437.981685</ele>
        <time>2022-09-14T02:31:32.793Z</time>
      </trkpt>
      <trkpt lat="47.75148" lon="9.27878">
        <ele>438.977835</ele>
        <time>2022-09-14T02:31:54.089Z</time>
      </trkpt>
      <trkpt lat="47.74941" lon="9.27781">
        <ele>442.241497</ele>
        <time>2022-09-14T02:33:12.798Z</time>
      </trkpt>
      <trkpt lat="47.74841" lon="9.27673">
        <ele>442.720703</ele>
        <time>2022-09-14T02:33:46.483Z</time>
      </trkpt>
      <trkpt lat="47.74785" lon="9.27563">
        <ele>442.339158</ele>
        <time>2022-09-14T02:34:08.230Z</time>
      </trkpt>
      <trkpt lat="47.74746" lon="9.27409">
        <ele>442.254365</ele>
        <time>2022-09-14T02:34:35.288Z</time>
      </trkpt>
      <trkpt lat="47.74701" lon="9.2724">
        <ele>442.112385</ele>
        <time>2022-09-14T02:35:11.766Z</time>
      </trkpt>
      <trkpt lat="47.74669" lon="9.27123">
        <ele>441.793966</ele>
        <time>2022-09-14T02:35:35.948Z</time>
      </trkpt>
      <trkpt lat="47.74606" lon="9.26965">
        <ele>439.025322</ele>
        <time>2022-09-14T02:36:02.164Z</time>
      </trkpt>
      <trkpt lat="47.74456" lon="9.26724">
        <ele>429.535576</ele>
        <time>2022-09-14T02:36:41.897Z</time>
      </trkpt>
      <trkpt lat="47.74394" lon="9.26616">
        <ele>425.50479</ele>
        <time>2022-09-14T02:36:59.963Z</time>
      </trkpt>
      <trkpt lat="47.74369" lon="9.26561">
        <ele>424.351311</ele>
        <time>2022-09-14T02:37:08.615Z</time>
      </trkpt>
      <trkpt lat="47.74355" lon="9.26506">
        <ele>423.308616</ele>
        <time>2022-09-14T02:37:16.696Z</time>
      </trkpt>
      <trkpt lat="47.74348" lon="9.26499">
        <ele>423.09732</ele>
        <time>2022-09-14T02:37:18.395Z</time>
      </trkpt>
      <trkpt lat="47.74289" lon="9.26341">
        <ele>420.260443</ele>
        <time>2022-09-14T02:37:45.813Z</time>
      </trkpt>
      <trkpt lat="47.74239" lon="9.26232">
        <ele>418.510215</ele>
        <time>2022-09-14T02:38:05.216Z</time>
      </trkpt>
      <trkpt lat="47.74221" lon="9.26209">
        <ele>418.049221</ele>
        <time>2022-09-14T02:38:10.242Z</time>
      </trkpt>
      <trkpt lat="47.74215" lon="9.26216">
        <ele>417.895492</ele>
        <time>2022-09-14T02:38:12.263Z</time>
      </trkpt>
      <trkpt lat="47.74179" lon="9.26194">
        <ele>417.219413</ele>
        <time>2022-09-14T02:38:20.456Z</time>
      </trkpt>
      <trkpt lat="47.74145" lon="9.26184">
        <ele>416.633297</ele>
        <time>2022-09-14T02:38:27.898Z</time>
      </trkpt>
      <trkpt lat="47.74147" lon="9.26172">
        <ele>416.483789</ele>
        <time>2022-09-14T02:38:29.576Z</time>
      </trkpt>
      <trkpt lat="47.74138" lon="9.26152">
        <ele>416.217381</ele>
        <time>2022-09-14T02:38:33.214Z</time>
      </trkpt>
      <trkpt lat="47.74052" lon="9.26108">
        <ele>414.698299</ele>
        <time>2022-09-14T02:38:53.645Z</time>
      </trkpt>
      <trkpt lat="47.74005" lon="9.2606">
        <ele>414.466675</ele>
        <time>2022-09-14T02:39:09.342Z</time>
      </trkpt>
      <trkpt lat="47.73969" lon="9.26066">
        <ele>414.31965</ele>
        <time>2022-09-14T02:39:20.091Z</time>
      </trkpt>
      <trkpt lat="47.73965" lon="9.26031">
        <ele>414.221756</ele>
        <time>2022-09-14T02:39:26.960Z</time>
      </trkpt>
      <trkpt lat="47.7397" lon="9.25951">
        <ele>413.999997</ele>
        <time>2022-09-14T02:39:40.754Z</time>
      </trkpt>
      <trkpt lat="47.73974" lon="9.25908">
        <ele>413.701607</ele>
        <time>2022-09-14T02:39:47.630Z</time>
      </trkpt>
      <trkpt lat="47.73869" lon="9.25808">
        <ele>412.241343</ele>
        <time>2022-09-14T02:40:15.956Z</time>
      </trkpt>
      <trkpt lat="47.7386" lon="9.25811">
        <ele>412.141714</ele>
        <time>2022-09-14T02:40:17.946Z</time>
      </trkpt>
      <trkpt lat="47.73853" lon="9.25798">
        <ele>412.009242</ele>
        <time>2022-09-14T02:40:20.384Z</time>
      </trkpt>
      <trkpt lat="47.73835" lon="9.25812">
        <ele>411.854454</ele>
        <time>2022-09-14T02:40:24.706Z</time>
      </trkpt>
      <trkpt lat="47.73815" lon="9.25803">
        <ele>411.808423</ele>
        <time>2022-09-14T02:40:29.275Z</time>
      </trkpt>
      <trkpt lat="47.73802" lon="9.25786">
        <ele>411.770936</ele>
        <time>2022-09-14T02:40:33.231Z</time>
      </trkpt>
      <trkpt lat="47.73784" lon="9.25794">
        <ele>411.730724</ele>
        <time>2022-09-14T02:40:37.457Z</time>
      </trkpt>
      <trkpt lat="47.73722" lon="9.25678">
        <ele>411.5147</ele>
        <time>2022-09-14T02:41:05.623Z</time>
      </trkpt>
      <trkpt lat="47.73554" lon="9.25394">
        <ele>413.980975</ele>
        <time>2022-09-14T02:42:26.821Z</time>
      </trkpt>
      <trkpt lat="47.73546" lon="9.2535">
        <ele>414.312785</ele>
        <time>2022-09-14T02:42:36.615Z</time>
      </trkpt>
      <trkpt lat="47.73547" lon="9.25318">
        <ele>414.541397</ele>
        <time>2022-09-14T02:42:43.374Z</time>
      </trkpt>
      <trkpt lat="47.73559" lon="9.25271">
        <ele>414.903363</ele>
        <time>2022-09-14T02:42:54.235Z</time>
      </trkpt>
      <trkpt lat="47.73556" lon="9.25269">
        <ele>414.942358</ele>
        <time>2022-09-14T02:42:55.305Z</time>
      </trkpt>
      <trkpt lat="47.7359" lon="9.25159">
        <ele>415.532146</ele>
        <time>2022-09-14T02:43:21.486Z</time>
      </trkpt>
      <trkpt lat="47.73594" lon="9.25148">
        <ele>415.577166</ele>
        <time>2022-09-14T02:43:24.343Z</time>
      </trkpt>
      <trkpt lat="47.73642" lon="9.24898">
        <ele>415.223004</ele>
        <time>2022-09-14T02:44:13.135Z</time>
      </trkpt>
      <trkpt lat="47.73644" lon="9.24825">
        <ele>414.336125</ele>
        <time>2022-09-14T02:44:23.510Z</time>
      </trkpt>
      <trkpt lat="47.73637" lon="9.24781">
        <ele>413.799883</ele>
        <time>2022-09-14T02:44:29.574Z</time>
      </trkpt>
      <trkpt lat="47.73642" lon="9.24779">
        <ele>413.703366</ele>
        <time>2022-09-14T02:44:30.652Z</time>
      </trkpt>
      <trkpt lat="47.73625" lon="9.2471">
        <ele>412.681029</ele>
        <time>2022-09-14T02:44:40.248Z</time>
      </trkpt>
      <trkpt lat="47.7357" lon="9.24583">
        <ele>409.424901</ele>
        <time>2022-09-14T02:44:59.360Z</time>
      </trkpt>
      <trkpt lat="47.73554" lon="9.24548">
        <ele>408.518931</ele>
        <time>2022-09-14T02:45:04.865Z</time>
      </trkpt>
      <trkpt lat="47.73533" lon="9.24477">
        <ele>407.139173</ele>
        <time>2022-09-14T02:45:16.014Z</time>
      </trkpt>
      <trkpt lat="47.73526" lon="9.24443">
        <ele>407.007164</ele>
        <time>2022-09-14T02:45:21.471Z</time>
      </trkpt>
      <trkpt lat="47.73522" lon="9.2442">
        <ele>406.920472</ele>
        <time>2022-09-14T02:45:25.050Z</time>
      </trkpt>
      <trkpt lat="47.73521" lon="9.24354">
        <ele>406.674101</ele>
        <time>2022-09-14T02:45:35.679Z</time>
      </trkpt>
      <trkpt lat="47.73523" lon="9.24322">
        <ele>406.55298</ele>
        <time>2022-09-14T02:45:41.287Z</time>
      </trkpt>
      <trkpt lat="47.73525" lon="9.24307">
        <ele>406.495272</ele>
        <time>2022-09-14T02:45:43.998Z</time>
      </trkpt>
      <trkpt lat="47.73524" lon="9.24293">
        <ele>406.44334</ele>
        <time>2022-09-14T02:45:46.593Z</time>
      </trkpt>
      <trkpt lat="47.73529" lon="9.24281">
        <ele>406.391459</ele>
        <time>2022-09-14T02:45:49.279Z</time>
      </trkpt>
      <trkpt lat="47.73526" lon="9.24268">
        <ele>406.343139</ele>
        <time>2022-09-14T02:45:51.630Z</time>
      </trkpt>
      <trkpt lat="47.73527" lon="9.24254">
        <ele>406.29157</ele>
        <time>2022-09-14T02:45:54.290Z</time>
      </trkpt>
      <trkpt lat="47.73528" lon="9.24237">
        <ele>406.226843</ele>
        <time>2022-09-14T02:45:57.781Z</time>
      </trkpt>
      <trkpt lat="47.73531" lon="9.24222">
        <ele>406.207893</ele>
        <time>2022-09-14T02:46:00.979Z</time>
      </trkpt>
      <trkpt lat="47.73537" lon="9.24174">
        <ele>406.224297</ele>
        <time>2022-09-14T02:46:11.052Z</time>
      </trkpt>
      <trkpt lat="47.73538" lon="9.24164">
        <ele>406.227644</ele>
        <time>2022-09-14T02:46:13.015Z</time>
      </trkpt>
      <trkpt lat="47.73539" lon="9.24143">
        <ele>406.234608</ele>
        <time>2022-09-14T02:46:17.172Z</time>
      </trkpt>
      <trkpt lat="47.73546" lon="9.24106">
        <ele>406.247311</ele>
        <time>2022-09-14T02:46:24.905Z</time>
      </trkpt>
      <trkpt lat="47.73561" lon="9.24085">
        <ele>406.257688</ele>
        <time>2022-09-14T02:46:31.013Z</time>
      </trkpt>
      <trkpt lat="47.73619" lon="9.24075">
        <ele>406.286229</ele>
        <time>2022-09-14T02:46:45.327Z</time>
      </trkpt>
      <trkpt lat="47.73641" lon="9.24065">
        <ele>406.211119</ele>
        <time>2022-09-14T02:46:50.722Z</time>
      </trkpt>
      <trkpt lat="47.73656" lon="9.24045">
        <ele>406.016393</ele>
        <time>2022-09-14T02:46:55.385Z</time>
      </trkpt>
      <trkpt lat="47.73664" lon="9.24021">
        <ele>405.847073</ele>
        <time>2022-09-14T02:46:59.343Z</time>
      </trkpt>
      <trkpt lat="47.7367" lon="9.23973">
        <ele>405.531525</ele>
        <time>2022-09-14T02:47:07.117Z</time>
      </trkpt>
      <trkpt lat="47.73667" lon="9.23898">
        <ele>405.05196</ele>
        <time>2022-09-14T02:47:18.941Z</time>
      </trkpt>
      <trkpt lat="47.73659" lon="9.23861">
        <ele>404.799086</ele>
        <time>2022-09-14T02:47:25.313Z</time>
      </trkpt>
      <trkpt lat="47.7366" lon="9.23837">
        <ele>404.640848</ele>
        <time>2022-09-14T02:47:29.472Z</time>
      </trkpt>
      <trkpt lat="47.73652" lon="9.2383">
        <ele>404.552166</ele>
        <time>2022-09-14T02:47:31.484Z</time>
      </trkpt>
      <trkpt lat="47.73671" lon="9.23786">
        <ele>404.155996</ele>
        <time>2022-09-14T02:47:39.378Z</time>
      </trkpt>
      <trkpt lat="47.73721" lon="9.23661">
        <ele>403.039534</ele>
        <time>2022-09-14T02:48:01.528Z</time>
      </trkpt>
      <trkpt lat="47.73804" lon="9.23459">
        <ele>401.875962</ele>
        <time>2022-09-14T02:48:38.774Z</time>
      </trkpt>
      <trkpt lat="47.74032" lon="9.22897">
        <ele>401.362974</ele>
        <time>2022-09-14T02:50:36.067Z</time>
      </trkpt>
      <trkpt lat="47.74079" lon="9.22782">
        <ele>401.304418</ele>
        <time>2022-09-14T02:50:59.367Z</time>
      </trkpt>
      <trkpt lat="47.74129" lon="9.22663">
        <ele>401.327309</ele>
        <time>2022-09-14T02:51:24.572Z</time>
      </trkpt>
      <trkpt lat="47.74265" lon="9.22327">
        <ele>401.898857</ele>
        <time>2022-09-14T02:52:40.267Z</time>
      </trkpt>
      <trkpt lat="47.74318" lon="9.2219">
        <ele>401.79972</ele>
        <time>2022-09-14T02:53:06.097Z</time>
      </trkpt>
      <trkpt lat="47.74327" lon="9.22182">
        <ele>401.758725</ele>
        <time>2022-09-14T02:53:09.047Z</time>
      </trkpt>
      <trkpt lat="47.74327" lon="9.22162">
        <ele>401.704906</ele>
        <time>2022-09-14T02:53:12.526Z</time>
      </trkpt>
      <trkpt lat="47.74361" lon="9.22039">
        <ele>401.349425</ele>
        <time>2022-09-14T02:53:36.644Z</time>
      </trkpt>
      <trkpt lat="47.74389" lon="9.22012">
        <ele>401.215124</ele>
        <time>2022-09-14T02:53:44.498Z</time>
      </trkpt>
      <trkpt lat="47.74419" lon="9.21993">
        <ele>401.004009</ele>
        <time>2022-09-14T02:53:51.533Z</time>
      </trkpt>
      <trkpt lat="47.74425" lon="9.21989">
        <ele>400.956601</ele>
        <time>2022-09-14T02:53:52.996Z</time>
      </trkpt>
      <trkpt lat="47.74449" lon="9.21936">
        <ele>400.671352</ele>
        <time>2022-09-14T02:54:02.902Z</time>
      </trkpt>
      <trkpt lat="47.74454" lon="9.21907">
        <ele>400.533641</ele>
        <time>2022-09-14T02:54:08.260Z</time>
      </trkpt>
      <trkpt lat="47.74452" lon="9.21882">
        <ele>400.420564</ele>
        <time>2022-09-14T02:54:12.190Z</time>
      </trkpt>
      <trkpt lat="47.74457" lon="9.21817">
        <ele>400.121727</ele>
        <time>2022-09-14T02:54:23.409Z</time>
      </trkpt>
      <trkpt lat="47.74453" lon="9.21807">
        <ele>400.069179</ele>
        <time>2022-09-14T02:54:25.244Z</time>
      </trkpt>
      <trkpt lat="47.74459" lon="9.21793">
        <ele>399.998618</ele>
        <time>2022-09-14T02:54:27.830Z</time>
      </trkpt>
      <trkpt lat="47.74632" lon="9.21396">
        <ele>399.942069</ele>
        <time>2022-09-14T02:55:53.629Z</time>
      </trkpt>
      <trkpt lat="47.74641" lon="9.21375">
        <ele>399.945684</ele>
        <time>2022-09-14T02:55:58.461Z</time>
      </trkpt>
      <trkpt lat="47.74686" lon="9.21248">
        <ele>399.718311</ele>
        <time>2022-09-14T02:56:22.884Z</time>
      </trkpt>
      <trkpt lat="47.7476" lon="9.21026">
        <ele>399.504694</ele>
        <time>2022-09-14T02:57:04.477Z</time>
      </trkpt>
      <trkpt lat="47.74842" lon="9.20784">
        <ele>400.273297</ele>
        <time>2022-09-14T02:57:57.692Z</time>
      </trkpt>
      <trkpt lat="47.74878" lon="9.20511">
        <ele>401.758323</ele>
        <time>2022-09-14T02:58:56.209Z</time>
      </trkpt>
      <trkpt lat="47.74896" lon="9.20413">
        <ele>402.276894</ele>
        <time>2022-09-14T02:59:16.886Z</time>
      </trkpt>
      <trkpt lat="47.74946" lon="9.20256">
        <ele>402.747688</ele>
        <time>2022-09-14T02:59:51.011Z</time>
      </trkpt>
      <trkpt lat="47.75028" lon="9.20101">
        <ele>402.855805</ele>
        <time>2022-09-14T03:00:26.509Z</time>
      </trkpt>
      <trkpt lat="47.75044" lon="9.20065">
        <ele>402.749067</ele>
        <time>2022-09-14T03:00:33.615Z</time>
      </trkpt>
      <trkpt lat="47.75055" lon="9.2001">
        <ele>402.603996</ele>
        <time>2022-09-14T03:00:43.255Z</time>
      </trkpt>
      <trkpt lat="47.75072" lon="9.19952">
        <ele>402.445066</ele>
        <time>2022-09-14T03:00:53.882Z</time>
      </trkpt>
      <trkpt lat="47.75088" lon="9.19936">
        <ele>402.37328</ele>
        <time>2022-09-14T03:00:58.890Z</time>
      </trkpt>
      <trkpt lat="47.75088" lon="9.19928">
        <ele>402.353171</ele>
        <time>2022-09-14T03:01:00.239Z</time>
      </trkpt>
      <trkpt lat="47.75094" lon="9.19902">
        <ele>402.281174</ele>
        <time>2022-09-14T03:01:04.997Z</time>
      </trkpt>
      <trkpt lat="47.75111" lon="9.19849">
        <ele>401.938447</ele>
        <time>2022-09-14T03:01:14.292Z</time>
      </trkpt>
      <trkpt lat="47.75154" lon="9.19705">
        <ele>401.009816</ele>
        <time>2022-09-14T03:01:38.885Z</time>
      </trkpt>
      <trkpt lat="47.75116" lon="9.19658">
        <ele>400.579497</ele>
        <time>2022-09-14T03:01:50.584Z</time>
      </trkpt>
      <trkpt lat="47.75115" lon="9.19652">
        <ele>400.546118</ele>
        <time>2022-09-14T03:01:51.467Z</time>
      </trkpt>
      <trkpt lat="47.75128" lon="9.1959">
        <ele>400.169703</ele>
        <time>2022-09-14T03:02:01.429Z</time>
      </trkpt>
      <trkpt lat="47.75142" lon="9.19415">
        <ele>399.162272</ele>
        <time>2022-09-14T03:02:28.632Z</time>
      </trkpt>
      <trkpt lat="47.75142" lon="9.19393">
        <ele>399.192752</ele>
        <time>2022-09-14T03:02:32.645Z</time>
      </trkpt>
      <trkpt lat="47.75142" lon="9.19379">
        <ele>399.212391</ele>
        <time>2022-09-14T03:02:35.289Z</time>
      </trkpt>
      <trkpt lat="47.75141" lon="9.19367">
        <ele>399.229457</ele>
        <time>2022-09-14T03:02:37.747Z</time>
      </trkpt>
      <trkpt lat="47.75142" lon="9.19337">
        <ele>399.269828</ele>
        <time>2022-09-14T03:02:43.072Z</time>
      </trkpt>
      <trkpt lat="47.75146" lon="9.19329">
        <ele>399.2843</ele>
        <time>2022-09-14T03:02:44.972Z</time>
      </trkpt>
      <trkpt lat="47.75161" lon="9.1932">
        <ele>399.317311</ele>
        <time>2022-09-14T03:02:49.635Z</time>
      </trkpt>
      <trkpt lat="47.75175" lon="9.19324">
        <ele>399.347621</ele>
        <time>2022-09-14T03:02:53.706Z</time>
      </trkpt>
      <trkpt lat="47.75196" lon="9.19337">
        <ele>399.392613</ele>
        <time>2022-09-14T03:03:00.099Z</time>
      </trkpt>
      <trkpt lat="47.75205" lon="9.19343">
        <ele>399.412693</ele>
        <time>2022-09-14T03:03:02.856Z</time>
      </trkpt>
      <trkpt lat="47.75236" lon="9.19366">
        <ele>399.484032</ele>
        <time>2022-09-14T03:03:13.076Z</time>
      </trkpt>
      <trkpt lat="47.75241" lon="9.1937">
        <ele>399.495922</ele>
        <time>2022-09-14T03:03:14.779Z</time>
      </trkpt>
      <trkpt lat="47.75255" lon="9.19381">
        <ele>399.527295</ele>
        <time>2022-09-14T03:03:19.516Z</time>
      </trkpt>
      <trkpt lat="47.75262" lon="9.19329">
        <ele>399.552104</ele>
        <time>2022-09-14T03:03:30.374Z</time>
      </trkpt>
      <trkpt lat="47.75291" lon="9.19184">
        <ele>399.623855</ele>
        <time>2022-09-14T03:03:59.048Z</time>
      </trkpt>
      <trkpt lat="47.75293" lon="9.19156">
        <ele>399.637294</ele>
        <time>2022-09-14T03:04:03.764Z</time>
      </trkpt>
      <trkpt lat="47.75292" lon="9.19144">
        <ele>399.642828</ele>
        <time>2022-09-14T03:04:05.637Z</time>
      </trkpt>
      <trkpt lat="47.75346" lon="9.18929">
        <ele>398.454108</ele>
        <time>2022-09-14T03:04:40.831Z</time>
      </trkpt>
      <trkpt lat="47.75359" lon="9.18886">
        <ele>398.184372</ele>
        <time>2022-09-14T03:04:48.551Z</time>
      </trkpt>
      <trkpt lat="47.75363" lon="9.18865">
        <ele>398.126098</ele>
        <time>2022-09-14T03:04:52.156Z</time>
      </trkpt>
      <trkpt lat="47.75372" lon="9.18833">
        <ele>398.222631</ele>
        <time>2022-09-14T03:04:58.233Z</time>
      </trkpt>
      <trkpt lat="47.75399" lon="9.1878">
        <ele>398.409338</ele>
        <time>2022-09-14T03:05:10.238Z</time>
      </trkpt>
      <trkpt lat="47.75423" lon="9.18744">
        <ele>398.551285</ele>
        <time>2022-09-14T03:05:19.961Z</time>
      </trkpt>
      <trkpt lat="47.75446" lon="9.18713">
        <ele>398.679513</ele>
        <time>2022-09-14T03:05:29.276Z</time>
      </trkpt>
      <trkpt lat="47.75566" lon="9.18615">
        <ele>399.445036</ele>
        <time>2022-09-14T03:06:14.198Z</time>
      </trkpt>
      <trkpt lat="47.75729" lon="9.18359">
        <ele>399.461575</ele>
        <time>2022-09-14T03:07:16.932Z</time>
      </trkpt>
      <trkpt lat="47.75737" lon="9.18349">
        <ele>399.426379</ele>
        <time>2022-09-14T03:07:19.542Z</time>
      </trkpt>
      <trkpt lat="47.75754" lon="9.18316">
        <ele>399.237871</ele>
        <time>2022-09-14T03:07:26.338Z</time>
      </trkpt>
      <trkpt lat="47.75786" lon="9.18221">
        <ele>398.373921</ele>
        <time>2022-09-14T03:07:44.063Z</time>
      </trkpt>
      <trkpt lat="47.75799" lon="9.18164">
        <ele>397.885013</ele>
        <time>2022-09-14T03:07:54.111Z</time>
      </trkpt>
      <trkpt lat="47.7583" lon="9.18064">
        <ele>397.226867</ele>
        <time>2022-09-14T03:08:12.935Z</time>
      </trkpt>
      <trkpt lat="47.75834" lon="9.18049">
        <ele>397.240035</ele>
        <time>2022-09-14T03:08:15.975Z</time>
      </trkpt>
      <trkpt lat="47.75903" lon="9.17796">
        <ele>397.660695</ele>
        <time>2022-09-14T03:09:08.368Z</time>
      </trkpt>
      <trkpt lat="47.75906" lon="9.17783">
        <ele>397.729917</ele>
        <time>2022-09-14T03:09:11.293Z</time>
      </trkpt>
      <trkpt lat="47.75948" lon="9.17646">
        <ele>398.509701</ele>
        <time>2022-09-14T03:09:43.124Z</time>
      </trkpt>
      <trkpt lat="47.75972" lon="9.17544">
        <ele>398.90926</ele>
        <time>2022-09-14T03:10:05.014Z</time>
      </trkpt>
      <trkpt lat="47.75975" lon="9.1753">
        <ele>398.94041</ele>
        <time>2022-09-14T03:10:07.715Z</time>
      </trkpt>
      <trkpt lat="47.75984" lon="9.17498">
        <ele>399.015642</ele>
        <time>2022-09-14T03:10:14.277Z</time>
      </trkpt>
      <trkpt lat="47.76005" lon="9.17439">
        <ele>399.161833</ele>
        <time>2022-09-14T03:10:26.417Z</time>
      </trkpt>
      <trkpt lat="47.76008" lon="9.17429">
        <ele>399.186748</ele>
        <time>2022-09-14T03:10:28.371Z</time>
      </trkpt>
      <trkpt lat="47.76068" lon="9.1728">
        <ele>399.783022</ele>
        <time>2022-09-14T03:11:00.947Z</time>
      </trkpt>
      <trkpt lat="47.7613" lon="9.17166">
        <ele>400.477138</ele>
        <time>2022-09-14T03:11:31.356Z</time>
      </trkpt>
      <trkpt lat="47.76249" lon="9.16982">
        <ele>402.212457</ele>
        <time>2022-09-14T03:12:25.468Z</time>
      </trkpt>
      <trkpt lat="47.76263" lon="9.16961">
        <ele>402.421817</ele>
        <time>2022-09-14T03:12:31.893Z</time>
      </trkpt>
      <trkpt lat="47.76267" lon="9.16944">
        <ele>402.55231</ele>
        <time>2022-09-14T03:12:36.012Z</time>
      </trkpt>
      <trkpt lat="47.76313" lon="9.16864">
        <ele>403.336458</ele>
        <time>2022-09-14T03:12:59.959Z</time>
      </trkpt>
      <trkpt lat="47.76393" lon="9.16774">
        <ele>404.444907</ele>
        <time>2022-09-14T03:13:31.461Z</time>
      </trkpt>
      <trkpt lat="47.76395" lon="9.16772">
        <ele>404.463242</ele>
        <time>2022-09-14T03:13:32.024Z</time>
      </trkpt>
      <trkpt lat="47.76423" lon="9.16706">
        <ele>404.575107</ele>
        <time>2022-09-14T03:13:48.103Z</time>
      </trkpt>
      <trkpt lat="47.76442" lon="9.1665">
        <ele>404.607175</ele>
        <time>2022-09-14T03:14:00.072Z</time>
      </trkpt>
      <trkpt lat="47.76501" lon="9.16435">
        <ele>404.339293</ele>
        <time>2022-09-14T03:14:38.867Z</time>
      </trkpt>
      <trkpt lat="47.76509" lon="9.16413">
        <ele>404.250857</ele>
        <time>2022-09-14T03:14:42.649Z</time>
      </trkpt>
      <trkpt lat="47.76531" lon="9.16381">
        <ele>404.088065</ele>
        <time>2022-09-14T03:14:50.122Z</time>
      </trkpt>
      <trkpt lat="47.76547" lon="9.16352">
        <ele>403.959032</ele>
        <time>2022-09-14T03:14:56.320Z</time>
      </trkpt>
      <trkpt lat="47.76538" lon="9.16346">
        <ele>403.906552</ele>
        <time>2022-09-14T03:14:58.448Z</time>
      </trkpt>
      <trkpt lat="47.76542" lon="9.16338">
        <ele>403.869607</ele>
        <time>2022-09-14T03:15:03.363Z</time>
      </trkpt>
      <trkpt lat="47.76554" lon="9.16326">
        <ele>403.791576</ele>
        <time>2022-09-14T03:15:07.746Z</time>
      </trkpt>
      <trkpt lat="47.76573" lon="9.16305">
        <ele>403.718631</ele>
        <time>2022-09-14T03:15:13.067Z</time>
      </trkpt>
      <trkpt lat="47.76574" lon="9.16319">
        <ele>403.706588</ele>
        <time>2022-09-14T03:15:16.206Z</time>
      </trkpt>
      <trkpt lat="47.76584" lon="9.16302">
        <ele>403.686226</ele>
        <time>2022-09-14T03:15:21.096Z</time>
      </trkpt>
      <trkpt lat="47.76608" lon="9.16259">
        <ele>403.636228</ele>
        <time>2022-09-14T03:15:34.612Z</time>
      </trkpt>
      <trkpt lat="47.76627" lon="9.16209">
        <ele>403.585195</ele>
        <time>2022-09-14T03:15:47.913Z</time>
      </trkpt>
      <trkpt lat="47.76634" lon="9.16189">
        <ele>403.56524</ele>
        <time>2022-09-14T03:15:53.706Z</time>
      </trkpt>
      <trkpt lat="47.76664" lon="9.16083">
        <ele>403.410114</ele>
        <time>2022-09-14T03:16:19.628Z</time>
      </trkpt>
      <trkpt lat="47.76671" lon="9.16055">
        <ele>403.342074</ele>
        <time>2022-09-14T03:16:26.610Z</time>
      </trkpt>
      <trkpt lat="47.76685" lon="9.16008">
        <ele>403.227023</ele>
        <time>2022-09-14T03:16:38.699Z</time>
      </trkpt>
      <trkpt lat="47.76688" lon="9.15992">
        <ele>403.187651</ele>
        <time>2022-09-14T03:16:42.967Z</time>
      </trkpt>
      <trkpt lat="47.76691" lon="9.15973">
        <ele>403.144795</ele>
        <time>2022-09-14T03:16:47.362Z</time>
      </trkpt>
      <trkpt lat="47.76696" lon="9.15913">
        <ele>403.005343</ele>
        <time>2022-09-14T03:17:01.494Z</time>
      </trkpt>
      <trkpt lat="47.76701" lon="9.15874">
        <ele>402.916562</ele>
        <time>2022-09-14T03:17:07.732Z</time>
      </trkpt>
      <trkpt lat="47.76739" lon="9.15808">
        <ele>402.462294</ele>
        <time>2022-09-14T03:17:21.047Z</time>
      </trkpt>
      <trkpt lat="47.76774" lon="9.15739">
        <ele>401.966707</ele>
        <time>2022-09-14T03:17:34.773Z</time>
      </trkpt>
      <trkpt lat="47.76795" lon="9.15643">
        <ele>401.392884</ele>
        <time>2022-09-14T03:17:51.157Z</time>
      </trkpt>
      <trkpt lat="47.76796" lon="9.15634">
        <ele>401.347704</ele>
        <time>2022-09-14T03:17:52.585Z</time>
      </trkpt>
      <trkpt lat="47.76797" lon="9.15601">
        <ele>401.233617</ele>
        <time>2022-09-14T03:17:57.553Z</time>
      </trkpt>
      <trkpt lat="47.76806" lon="9.15577">
        <ele>401.13533</ele>
        <time>2022-09-14T03:18:01.865Z</time>
      </trkpt>
      <trkpt lat="47.76831" lon="9.15502">
        <ele>400.842174</ele>
        <time>2022-09-14T03:18:14.918Z</time>
      </trkpt>
      <trkpt lat="47.76834" lon="9.15491">
        <ele>400.800245</ele>
        <time>2022-09-14T03:18:16.838Z</time>
      </trkpt>
      <trkpt lat="47.76838" lon="9.15474">
        <ele>400.737075</ele>
        <time>2022-09-14T03:18:19.856Z</time>
      </trkpt>
      <trkpt lat="47.7684" lon="9.15465">
        <ele>400.704345</ele>
        <time>2022-09-14T03:18:21.416Z</time>
      </trkpt>
      <trkpt lat="47.76844" lon="9.15431">
        <ele>400.582364</ele>
        <time>2022-09-14T03:18:27.697Z</time>
      </trkpt>
      <trkpt lat="47.76846" lon="9.15407">
        <ele>400.495877</ele>
        <time>2022-09-14T03:18:32.291Z</time>
      </trkpt>
      <trkpt lat="47.76855" lon="9.15313">
        <ele>400.521151</ele>
        <time>2022-09-14T03:18:49.873Z</time>
      </trkpt>
      <trkpt lat="47.76855" lon="9.15303">
        <ele>400.534567</ele>
        <time>2022-09-14T03:18:51.598Z</time>
      </trkpt>
      <trkpt lat="47.76856" lon="9.15295">
        <ele>400.545771</ele>
        <time>2022-09-14T03:18:53.075Z</time>
      </trkpt>
      <trkpt lat="47.7686" lon="9.15246">
        <ele>400.615054</ele>
        <time>2022-09-14T03:19:01.823Z</time>
      </trkpt>
      <trkpt lat="47.76863" lon="9.15226">
        <ele>400.644818</ele>
        <time>2022-09-14T03:19:05.647Z</time>
      </trkpt>
      <trkpt lat="47.76868" lon="9.15205">
        <ele>400.676205</ele>
        <time>2022-09-14T03:19:09.712Z</time>
      </trkpt>
      <trkpt lat="47.76869" lon="9.15202">
        <ele>400.679274</ele>
        <time>2022-09-14T03:19:10.135Z</time>
      </trkpt>
      <trkpt lat="47.76895" lon="9.1508">
        <ele>400.769448</ele>
        <time>2022-09-14T03:19:35.523Z</time>
      </trkpt>
      <trkpt lat="47.76898" lon="9.15068">
        <ele>400.762854</ele>
        <time>2022-09-14T03:19:37.816Z</time>
      </trkpt>
      <trkpt lat="47.76909" lon="9.14983">
        <ele>400.716124</ele>
        <time>2022-09-14T03:19:54.011Z</time>
      </trkpt>
      <trkpt lat="47.76909" lon="9.14952">
        <ele>400.699753</ele>
        <time>2022-09-14T03:19:59.279Z</time>
      </trkpt>
      <trkpt lat="47.76909" lon="9.14942">
        <ele>400.694492</ele>
        <time>2022-09-14T03:20:00.916Z</time>
      </trkpt>
      <trkpt lat="47.76909" lon="9.14935">
        <ele>400.690839</ele>
        <time>2022-09-14T03:20:02.060Z</time>
      </trkpt>
      <trkpt lat="47.76904" lon="9.14849">
        <ele>400.589584</ele>
        <time>2022-09-14T03:20:16.368Z</time>
      </trkpt>
      <trkpt lat="47.76901" lon="9.14777">
        <ele>400.251486</ele>
        <time>2022-09-14T03:20:27.642Z</time>
      </trkpt>
      <trkpt lat="47.76899" lon="9.14747">
        <ele>400.111311</ele>
        <time>2022-09-14T03:20:32.390Z</time>
      </trkpt>
      <trkpt lat="47.76892" lon="9.1457">
        <ele>399.394654</ele>
        <time>2022-09-14T03:21:00.835Z</time>
      </trkpt>
      <trkpt lat="47.76894" lon="9.14518">
        <ele>399.402318</ele>
        <time>2022-09-14T03:21:09.874Z</time>
      </trkpt>
      <trkpt lat="47.76899" lon="9.14483">
        <ele>399.407629</ele>
        <time>2022-09-14T03:21:16.109Z</time>
      </trkpt>
      <trkpt lat="47.7692" lon="9.14457">
        <ele>399.413561</ele>
        <time>2022-09-14T03:21:23.357Z</time>
      </trkpt>
      <trkpt lat="47.76932" lon="9.14444">
        <ele>399.416804</ele>
        <time>2022-09-14T03:21:27.525Z</time>
      </trkpt>
      <trkpt lat="47.76939" lon="9.14427">
        <ele>399.419736</ele>
        <time>2022-09-14T03:21:31.203Z</time>
      </trkpt>
      <trkpt lat="47.77032" lon="9.1396">
        <ele>401.525271</ele>
        <time>2022-09-14T03:23:08.777Z</time>
      </trkpt>
      <trkpt lat="47.77082" lon="9.13837">
        <ele>402.474179</ele>
        <time>2022-09-14T03:23:41.029Z</time>
      </trkpt>
      <trkpt lat="47.77096" lon="9.13811">
        <ele>402.694147</ele>
        <time>2022-09-14T03:23:48.340Z</time>
      </trkpt>
      <trkpt lat="47.77104" lon="9.1381">
        <ele>402.773444</ele>
        <time>2022-09-14T03:23:50.977Z</time>
      </trkpt>
      <trkpt lat="47.77119" lon="9.13804">
        <ele>402.930696</ele>
        <time>2022-09-14T03:23:55.871Z</time>
      </trkpt>
      <trkpt lat="47.77129" lon="9.13792">
        <ele>403.063499</ele>
        <time>2022-09-14T03:24:00.592Z</time>
      </trkpt>
      <trkpt lat="47.77209" lon="9.13604">
        <ele>403.782935</ele>
        <time>2022-09-14T03:24:46.563Z</time>
      </trkpt>
      <trkpt lat="47.7726" lon="9.13513">
        <ele>403.17695</ele>
        <time>2022-09-14T03:25:04.254Z</time>
      </trkpt>
      <trkpt lat="47.77318" lon="9.13423">
        <ele>402.603017</ele>
        <time>2022-09-14T03:25:22.720Z</time>
      </trkpt>
      <trkpt lat="47.77356" lon="9.13371">
        <ele>402.335571</ele>
        <time>2022-09-14T03:25:34.345Z</time>
      </trkpt>
      <trkpt lat="47.77364" lon="9.13362">
        <ele>402.284011</ele>
        <time>2022-09-14T03:25:36.809Z</time>
      </trkpt>
      <trkpt lat="47.7743" lon="9.13292">
        <ele>401.865417</ele>
        <time>2022-09-14T03:25:58.010Z</time>
      </trkpt>
      <trkpt lat="47.77444" lon="9.13278">
        <ele>401.881032</ele>
        <time>2022-09-14T03:26:03.341Z</time>
      </trkpt>
      <trkpt lat="47.77643" lon="9.1309">
        <ele>403.127285</ele>
        <time>2022-09-14T03:27:18.211Z</time>
      </trkpt>
      <trkpt lat="47.77712" lon="9.13037">
        <ele>402.779765</ele>
        <time>2022-09-14T03:27:35.923Z</time>
      </trkpt>
      <trkpt lat="47.77724" lon="9.13028">
        <ele>402.721899</ele>
        <time>2022-09-14T03:27:38.750Z</time>
      </trkpt>
      <trkpt lat="47.77759" lon="9.13007">
        <ele>402.56204</ele>
        <time>2022-09-14T03:27:47.150Z</time>
      </trkpt>
      <trkpt lat="47.77791" lon="9.12991">
        <ele>402.440757</ele>
        <time>2022-09-14T03:27:54.277Z</time>
      </trkpt>
      <trkpt lat="47.77802" lon="9.12975">
        <ele>402.38638</ele>
        <time>2022-09-14T03:27:57.603Z</time>
      </trkpt>
      <trkpt lat="47.77907" lon="9.12914">
        <ele>401.975834</ele>
        <time>2022-09-14T03:28:27.723Z</time>
      </trkpt>
      <trkpt lat="47.78017" lon="9.12834">
        <ele>402.941751</ele>
        <time>2022-09-14T03:29:07.141Z</time>
      </trkpt>
      <trkpt lat="47.78161" lon="9.12664">
        <ele>403.675266</ele>
        <time>2022-09-14T03:30:02.773Z</time>
      </trkpt>
      <trkpt lat="47.78258" lon="9.12528">
        <ele>402.811534</ele>
        <time>2022-09-14T03:30:33.823Z</time>
      </trkpt>
      <trkpt lat="47.78329" lon="9.12384">
        <ele>401.35165</ele>
        <time>2022-09-14T03:30:59.565Z</time>
      </trkpt>
      <trkpt lat="47.78462" lon="9.12078">
        <ele>400.184237</ele>
        <time>2022-09-14T03:31:59.920Z</time>
      </trkpt>
      <trkpt lat="47.78485" lon="9.12053">
        <ele>400.182136</ele>
        <time>2022-09-14T03:32:07.700Z</time>
      </trkpt>
      <trkpt lat="47.78492" lon="9.12036">
        <ele>400.181179</ele>
        <time>2022-09-14T03:32:11.909Z</time>
      </trkpt>
      <trkpt lat="47.78503" lon="9.1201">
        <ele>400.179617</ele>
        <time>2022-09-14T03:32:17.342Z</time>
      </trkpt>
      <trkpt lat="47.78529" lon="9.11983">
        <ele>400.177268</ele>
        <time>2022-09-14T03:32:26.570Z</time>
      </trkpt>
      <trkpt lat="47.78555" lon="9.11988">
        <ele>400.212166</ele>
        <time>2022-09-14T03:32:34.668Z</time>
      </trkpt>
      <trkpt lat="47.78591" lon="9.11955">
        <ele>400.284977</ele>
        <time>2022-09-14T03:32:46.517Z</time>
      </trkpt>
      <trkpt lat="47.7861" lon="9.11948">
        <ele>400.319898</ele>
        <time>2022-09-14T03:32:52.307Z</time>
      </trkpt>
      <trkpt lat="47.78673" lon="9.11821">
        <ele>400.532095</ele>
        <time>2022-09-14T03:33:19.547Z</time>
      </trkpt>
      <trkpt lat="47.78814" lon="9.11475">
        <ele>402.922499</ele>
        <time>2022-09-14T03:34:39.967Z</time>
      </trkpt>
      <trkpt lat="47.78822" lon="9.11464">
        <ele>403.08418</ele>
        <time>2022-09-14T03:34:44.606Z</time>
      </trkpt>
      <trkpt lat="47.78845" lon="9.1146">
        <ele>403.449603</ele>
        <time>2022-09-14T03:34:53.476Z</time>
      </trkpt>
      <trkpt lat="47.78863" lon="9.1147">
        <ele>403.746911</ele>
        <time>2022-09-14T03:35:02.191Z</time>
      </trkpt>
      <trkpt lat="47.78885" lon="9.1147">
        <ele>404.083114</ele>
        <time>2022-09-14T03:35:09.495Z</time>
      </trkpt>
      <trkpt lat="47.78903" lon="9.11462">
        <ele>404.353423</ele>
        <time>2022-09-14T03:35:18.219Z</time>
      </trkpt>
      <trkpt lat="47.78969" lon="9.11365">
        <ele>405.650252</ele>
        <time>2022-09-14T03:35:52.444Z</time>
      </trkpt>
      <trkpt lat="47.79009" lon="9.11323">
        <ele>406.337054</ele>
        <time>2022-09-14T03:36:08.929Z</time>
      </trkpt>
      <trkpt lat="47.79036" lon="9.1123">
        <ele>405.877815</ele>
        <time>2022-09-14T03:36:24.194Z</time>
      </trkpt>
      <trkpt lat="47.79082" lon="9.11131">
        <ele>404.400349</ele>
        <time>2022-09-14T03:36:40.595Z</time>
      </trkpt>
      <trkpt lat="47.79115" lon="9.11034">
        <ele>403.1733</ele>
        <time>2022-09-14T03:36:55.924Z</time>
      </trkpt>
      <trkpt lat="47.79123" lon="9.10998">
        <ele>402.87445</ele>
        <time>2022-09-14T03:37:01.351Z</time>
      </trkpt>
      <trkpt lat="47.79121" lon="9.10991">
        <ele>402.812367</ele>
        <time>2022-09-14T03:37:02.466Z</time>
      </trkpt>
      <trkpt lat="47.79133" lon="9.10971">
        <ele>402.599675</ele>
        <time>2022-09-14T03:37:06.526Z</time>
      </trkpt>
      <trkpt lat="47.79221" lon="9.10784">
        <ele>401.106841</ele>
        <time>2022-09-14T03:37:42.901Z</time>
      </trkpt>
      <trkpt lat="47.79292" lon="9.10626">
        <ele>400.610466</ele>
        <time>2022-09-14T03:38:16.768Z</time>
      </trkpt>
      <trkpt lat="47.79327" lon="9.10549">
        <ele>400.104888</ele>
        <time>2022-09-14T03:38:31.459Z</time>
      </trkpt>
      <trkpt lat="47.79355" lon="9.10472">
        <ele>399.570307</ele>
        <time>2022-09-14T03:38:44.805Z</time>
      </trkpt>
      <trkpt lat="47.79417" lon="9.10242">
        <ele>398.226647</ele>
        <time>2022-09-14T03:39:23.593Z</time>
      </trkpt>
      <trkpt lat="47.79464" lon="9.10064">
        <ele>397.559187</ele>
        <time>2022-09-14T03:39:55.155Z</time>
      </trkpt>
      <trkpt lat="47.79484" lon="9.09956">
        <ele>397.456716</ele>
        <time>2022-09-14T03:40:14.492Z</time>
      </trkpt>
      <trkpt lat="47.79498" lon="9.09775">
        <ele>397.99938</ele>
        <time>2022-09-14T03:40:48.478Z</time>
      </trkpt>
      <trkpt lat="47.79508" lon="9.09728">
        <ele>398.337769</ele>
        <time>2022-09-14T03:40:59.009Z</time>
      </trkpt>
      <trkpt lat="47.79517" lon="9.09692">
        <ele>398.5981</ele>
        <time>2022-09-14T03:41:07.485Z</time>
      </trkpt>
      <trkpt lat="47.79542" lon="9.09643">
        <ele>399.016349</ele>
        <time>2022-09-14T03:41:21.311Z</time>
      </trkpt>
      <trkpt lat="47.79553" lon="9.09629">
        <ele>399.162346</ele>
        <time>2022-09-14T03:41:26.407Z</time>
      </trkpt>
      <trkpt lat="47.79556" lon="9.09633">
        <ele>399.215467</ele>
        <time>2022-09-14T03:41:28.246Z</time>
      </trkpt>
      <trkpt lat="47.79582" lon="9.09596">
        <ele>399.726018</ele>
        <time>2022-09-14T03:41:41.771Z</time>
      </trkpt>
      <trkpt lat="47.79626" lon="9.09471">
        <ele>401.079004</ele>
        <time>2022-09-14T03:42:14.631Z</time>
      </trkpt>
      <trkpt lat="47.79649" lon="9.09422">
        <ele>401.659403</ele>
        <time>2022-09-14T03:42:27.626Z</time>
      </trkpt>
      <trkpt lat="47.79713" lon="9.09277">
        <ele>401.946961</ele>
        <time>2022-09-14T03:43:00.417Z</time>
      </trkpt>
      <trkpt lat="47.79745" lon="9.09106">
        <ele>402.041826</ele>
        <time>2022-09-14T03:43:30.602Z</time>
      </trkpt>
      <trkpt lat="47.79764" lon="9.09043">
        <ele>402.02365</ele>
        <time>2022-09-14T03:43:42.462Z</time>
      </trkpt>
      <trkpt lat="47.79774" lon="9.0904">
        <ele>402.019658</ele>
        <time>2022-09-14T03:43:45.211Z</time>
      </trkpt>
      <trkpt lat="47.79782" lon="9.09045">
        <ele>402.016112</ele>
        <time>2022-09-14T03:43:47.715Z</time>
      </trkpt>
      <trkpt lat="47.79786" lon="9.09035">
        <ele>402.013014</ele>
        <time>2022-09-14T03:43:49.819Z</time>
      </trkpt>
      <trkpt lat="47.79791" lon="9.09018">
        <ele>402.008075</ele>
        <time>2022-09-14T03:43:53.055Z</time>
      </trkpt>
      <trkpt lat="47.79794" lon="9.09001">
        <ele>402.00359</ele>
        <time>2022-09-14T03:43:56.217Z</time>
      </trkpt>
      <trkpt lat="47.79796" lon="9.08983">
        <ele>401.998483</ele>
        <time>2022-09-14T03:43:59.794Z</time>
      </trkpt>
      <trkpt lat="47.79799" lon="9.08972">
        <ele>401.995329</ele>
        <time>2022-09-14T03:44:01.893Z</time>
      </trkpt>
      <trkpt lat="47.79802" lon="9.08962">
        <ele>401.992597</ele>
        <time>2022-09-14T03:44:03.810Z</time>
      </trkpt>
      <trkpt lat="47.79841" lon="9.08854">
        <ele>402.160471</ele>
        <time>2022-09-14T03:44:28.020Z</time>
      </trkpt>
      <trkpt lat="47.79864" lon="9.08813">
        <ele>402.241069</ele>
        <time>2022-09-14T03:44:37.502Z</time>
      </trkpt>
      <trkpt lat="47.79913" lon="9.08748">
        <ele>402.389985</ele>
        <time>2022-09-14T03:44:55.205Z</time>
      </trkpt>
      <trkpt lat="47.79923" lon="9.08744">
        <ele>402.410636</ele>
        <time>2022-09-14T03:44:58.583Z</time>
      </trkpt>
      <trkpt lat="47.79952" lon="9.08682">
        <ele>402.513639</ele>
        <time>2022-09-14T03:45:11.879Z</time>
      </trkpt>
      <trkpt lat="47.79999" lon="9.08631">
        <ele>402.63009</ele>
        <time>2022-09-14T03:45:27.910Z</time>
      </trkpt>
      <trkpt lat="47.80039" lon="9.08562">
        <ele>402.753634</ele>
        <time>2022-09-14T03:45:43.785Z</time>
      </trkpt>
      <trkpt lat="47.80068" lon="9.08485">
        <ele>403.933342</ele>
        <time>2022-09-14T03:46:01.948Z</time>
      </trkpt>
      <trkpt lat="47.80091" lon="9.08395">
        <ele>405.286494</ele>
        <time>2022-09-14T03:46:25.280Z</time>
      </trkpt>
      <trkpt lat="47.80252" lon="9.08086">
        <ele>413.615019</ele>
        <time>2022-09-14T03:48:23.595Z</time>
      </trkpt>
      <trkpt lat="47.80304" lon="9.07998">
        <ele>414.812147</ele>
        <time>2022-09-14T03:48:55.391Z</time>
      </trkpt>
      <trkpt lat="47.80335" lon="9.07962">
        <ele>415.412863</ele>
        <time>2022-09-14T03:49:07.177Z</time>
      </trkpt>
      <trkpt lat="47.80365" lon="9.07905">
        <ele>415.701963</ele>
        <time>2022-09-14T03:49:18.600Z</time>
      </trkpt>
      <trkpt lat="47.80456" lon="9.07707">
        <ele>411.644991</ele>
        <time>2022-09-14T03:49:50.948Z</time>
      </trkpt>
      <trkpt lat="47.80494" lon="9.07658">
        <ele>409.967894</ele>
        <time>2022-09-14T03:50:00.366Z</time>
      </trkpt>
      <trkpt lat="47.80576" lon="9.0758">
        <ele>406.548312</ele>
        <time>2022-09-14T03:50:18.917Z</time>
      </trkpt>
      <trkpt lat="47.80598" lon="9.07544">
        <ele>405.390532</ele>
        <time>2022-09-14T03:50:25.488Z</time>
      </trkpt>
      <trkpt lat="47.80635" lon="9.07476">
        <ele>403.978018</ele>
        <time>2022-09-14T03:50:37.097Z</time>
      </trkpt>
      <trkpt lat="47.80656" lon="9.07412">
        <ele>402.884081</ele>
        <time>2022-09-14T03:50:46.667Z</time>
      </trkpt>
      <trkpt lat="47.80709" lon="9.07263">
        <ele>400.928689</ele>
        <time>2022-09-14T03:51:11.082Z</time>
      </trkpt>
      <trkpt lat="47.8082" lon="9.07079">
        <ele>400.468263</ele>
        <time>2022-09-14T03:51:55.814Z</time>
      </trkpt>
      <trkpt lat="47.80854" lon="9.07024">
        <ele>400.632138</ele>
        <time>2022-09-14T03:52:10.000Z</time>
      </trkpt>
      <trkpt lat="47.80854" lon="9.06995">
        <ele>400.695786</ele>
        <time>2022-09-14T03:52:15.146Z</time>
      </trkpt>
      <trkpt lat="47.80929" lon="9.06902">
        <ele>401.043207</ele>
        <time>2022-09-14T03:52:43.379Z</time>
      </trkpt>
      <trkpt lat="47.80959" lon="9.06873">
        <ele>401.317086</ele>
        <time>2022-09-14T03:52:54.090Z</time>
      </trkpt>
      <trkpt lat="47.81221" lon="9.06671">
        <ele>403.359289</ele>
        <time>2022-09-14T03:54:24.478Z</time>
      </trkpt>
      <trkpt lat="47.81291" lon="9.06601">
        <ele>403.323664</ele>
        <time>2022-09-14T03:54:46.369Z</time>
      </trkpt>
      <trkpt lat="47.81342" lon="9.06538">
        <ele>403.125808</ele>
        <time>2022-09-14T03:55:02.670Z</time>
      </trkpt>
      <trkpt lat="47.81492" lon="9.06284">
        <ele>402.137526</ele>
        <time>2022-09-14T03:55:59.224Z</time>
      </trkpt>
      <trkpt lat="47.81512" lon="9.0625">
        <ele>401.866787</ele>
        <time>2022-09-14T03:56:06.578Z</time>
      </trkpt>
      <trkpt lat="47.8153" lon="9.06217">
        <ele>401.586758</ele>
        <time>2022-09-14T03:56:13.401Z</time>
      </trkpt>
      <trkpt lat="47.81556" lon="9.06118">
        <ele>400.890949</ele>
        <time>2022-09-14T03:56:30.144Z</time>
      </trkpt>
      <trkpt lat="47.81566" lon="9.06064">
        <ele>400.53088</ele>
        <time>2022-09-14T03:56:38.572Z</time>
      </trkpt>
      <trkpt lat="47.81569" lon="9.05966">
        <ele>399.742668</ele>
        <time>2022-09-14T03:56:52.896Z</time>
      </trkpt>
      <trkpt lat="47.81566" lon="9.05912">
        <ele>399.278361</ele>
        <time>2022-09-14T03:57:00.893Z</time>
      </trkpt>
      <trkpt lat="47.81544" lon="9.05905">
        <ele>399.003277</ele>
        <time>2022-09-14T03:57:05.677Z</time>
      </trkpt>
      <trkpt lat="47.81533" lon="9.0578">
        <ele>398.012069</ele>
        <time>2022-09-14T03:57:25.778Z</time>
      </trkpt>
      <trkpt lat="47.81526" lon="9.05692">
        <ele>397.680849</ele>
        <time>2022-09-14T03:57:39.325Z</time>
      </trkpt>
      <trkpt lat="47.81521" lon="9.05625">
        <ele>397.427497</ele>
        <time>2022-09-14T03:57:50.214Z</time>
      </trkpt>
      <trkpt lat="47.81514" lon="9.05588">
        <ele>397.282632</ele>
        <time>2022-09-14T03:57:57.064Z</time>
      </trkpt>
      <trkpt lat="47.81513" lon="9.05566">
        <ele>397.200989</ele>
        <time>2022-09-14T03:58:00.698Z</time>
      </trkpt>
      <trkpt lat="47.81512" lon="9.05528">
        <ele>397.066997</ele>
        <time>2022-09-14T03:58:07.646Z</time>
      </trkpt>
      <trkpt lat="47.81491" lon="9.05508">
        <ele>397.010883</ele>
        <time>2022-09-14T03:58:14.560Z</time>
      </trkpt>
      <trkpt lat="47.81485" lon="9.05492">
        <ele>396.981469</ele>
        <time>2022-09-14T03:58:17.826Z</time>
      </trkpt>
      <trkpt lat="47.81492" lon="9.05477">
        <ele>396.953804</ele>
        <time>2022-09-14T03:58:21.043Z</time>
      </trkpt>
      <trkpt lat="47.81499" lon="9.05474">
        <ele>396.936053</ele>
        <time>2022-09-14T03:58:23.442Z</time>
      </trkpt>
      <trkpt lat="47.81526" lon="9.05485">
        <ele>396.873305</ele>
        <time>2022-09-14T03:58:30.269Z</time>
      </trkpt>
      <trkpt lat="47.81529" lon="9.05487">
        <ele>396.864925</ele>
        <time>2022-09-14T03:58:31.291Z</time>
      </trkpt>
      <trkpt lat="47.81542" lon="9.05493">
        <ele>396.835036</ele>
        <time>2022-09-14T03:58:34.678Z</time>
      </trkpt>
      <trkpt lat="47.81547" lon="9.05457">
        <ele>396.77994</ele>
        <time>2022-09-14T03:58:40.690Z</time>
      </trkpt>
      <trkpt lat="47.81555" lon="9.05419">
        <ele>396.719229</ele>
        <time>2022-09-14T03:58:47.339Z</time>
      </trkpt>
      <trkpt lat="47.81559" lon="9.05393">
        <ele>396.677184</ele>
        <time>2022-09-14T03:58:52.483Z</time>
      </trkpt>
      <trkpt lat="47.81569" lon="9.0538">
        <ele>396.685988</ele>
        <time>2022-09-14T03:58:55.710Z</time>
      </trkpt>
      <trkpt lat="47.81574" lon="9.05351">
        <ele>396.744768</ele>
        <time>2022-09-14T03:59:01.604Z</time>
      </trkpt>
      <trkpt lat="47.81581" lon="9.05301">
        <ele>396.843578</ele>
        <time>2022-09-14T03:59:11.280Z</time>
      </trkpt>
      <trkpt lat="47.81575" lon="9.05286">
        <ele>396.877534</ele>
        <time>2022-09-14T03:59:16.596Z</time>
      </trkpt>
      <trkpt lat="47.81573" lon="9.05273">
        <ele>396.904962</ele>
        <time>2022-09-14T03:59:19.140Z</time>
      </trkpt>
      <trkpt lat="47.81581" lon="9.05215">
        <ele>397.02068</ele>
        <time>2022-09-14T03:59:30.897Z</time>
      </trkpt>
      <trkpt lat="47.81585" lon="9.05191">
        <ele>397.068504</ele>
        <time>2022-09-14T03:59:38.593Z</time>
      </trkpt>
      <trkpt lat="47.81592" lon="9.05144">
        <ele>397.160917</ele>
        <time>2022-09-14T03:59:48.166Z</time>
      </trkpt>
      <trkpt lat="47.81602" lon="9.0507">
        <ele>397.74016</ele>
        <time>2022-09-14T04:00:04.414Z</time>
      </trkpt>
      <trkpt lat="47.81615" lon="9.05044">
        <ele>398.015882</ele>
        <time>2022-09-14T04:00:11.232Z</time>
      </trkpt>
      <trkpt lat="47.81619" lon="9.05033">
        <ele>398.128832</ele>
        <time>2022-09-14T04:00:14.440Z</time>
      </trkpt>
      <trkpt lat="47.81619" lon="9.04979">
        <ele>398.598153</ele>
        <time>2022-09-14T04:00:26.965Z</time>
      </trkpt>
      <trkpt lat="47.81624" lon="9.04955">
        <ele>398.817393</ele>
        <time>2022-09-14T04:00:32.968Z</time>
      </trkpt>
      <trkpt lat="47.81724" lon="9.04529">
        <ele>402.433477</ele>
        <time>2022-09-14T04:02:13.271Z</time>
      </trkpt>
      <trkpt lat="47.81739" lon="9.04488">
        <ele>402.65139</ele>
        <time>2022-09-14T04:02:22.734Z</time>
      </trkpt>
      <trkpt lat="47.81766" lon="9.04383">
        <ele>403.173341</ele>
        <time>2022-09-14T04:02:43.963Z</time>
      </trkpt>
      <trkpt lat="47.81788" lon="9.04225">
        <ele>402.875091</ele>
        <time>2022-09-14T04:03:11.721Z</time>
      </trkpt>
      <trkpt lat="47.81836" lon="9.03763">
        <ele>401.226819</ele>
        <time>2022-09-14T04:04:27.972Z</time>
      </trkpt>
      <trkpt lat="47.81855" lon="9.03556">
        <ele>400.487497</ele>
        <time>2022-09-14T04:05:02.106Z</time>
      </trkpt>
      <trkpt lat="47.81879" lon="9.03306">
        <ele>399.988681</ele>
        <time>2022-09-14T04:05:45.443Z</time>
      </trkpt>
      <trkpt lat="47.81879" lon="9.03247">
        <ele>400.009583</ele>
        <time>2022-09-14T04:05:56.197Z</time>
      </trkpt>
      <trkpt lat="47.81869" lon="9.03104">
        <ele>400.060125</ele>
        <time>2022-09-14T04:06:22.349Z</time>
      </trkpt>
      <trkpt lat="47.81843" lon="9.02885">
        <ele>400.129651</ele>
        <time>2022-09-14T04:07:03.464Z</time>
      </trkpt>
      <trkpt lat="47.81809" lon="9.02598">
        <ele>399.606421</ele>
        <time>2022-09-14T04:07:53.789Z</time>
      </trkpt>
      <trkpt lat="47.818" lon="9.02583">
        <ele>399.551603</ele>
        <time>2022-09-14T04:07:56.837Z</time>
      </trkpt>
      <trkpt lat="47.81782" lon="9.02575">
        <ele>399.471022</ele>
        <time>2022-09-14T04:08:01.346Z</time>
      </trkpt>
      <trkpt lat="47.81698" lon="9.02554">
        <ele>398.84255</ele>
        <time>2022-09-14T04:08:21.083Z</time>
      </trkpt>
      <trkpt lat="47.81513" lon="9.02484">
        <ele>397.615259</ele>
        <time>2022-09-14T04:09:06.628Z</time>
      </trkpt>
      <trkpt lat="47.81411" lon="9.02439">
        <ele>397.222116</ele>
        <time>2022-09-14T04:09:34.730Z</time>
      </trkpt>
      <trkpt lat="47.81343" lon="9.02372">
        <ele>397.198067</ele>
        <time>2022-09-14T04:09:56.299Z</time>
      </trkpt>
      <trkpt lat="47.8133" lon="9.02349">
        <ele>397.192003</ele>
        <time>2022-09-14T04:10:01.804Z</time>
      </trkpt>
      <trkpt lat="47.81306" lon="9.02275">
        <ele>397.175515</ele>
        <time>2022-09-14T04:10:16.503Z</time>
      </trkpt>
      <trkpt lat="47.81297" lon="9.02263">
        <ele>397.171773</ele>
        <time>2022-09-14T04:10:19.900Z</time>
      </trkpt>
      <trkpt lat="47.81213" lon="9.02262">
        <ele>397.076113</ele>
        <time>2022-09-14T04:10:41.686Z</time>
      </trkpt>
      <trkpt lat="47.81153" lon="9.0228">
        <ele>397.001453</ele>
        <time>2022-09-14T04:10:57.786Z</time>
      </trkpt>
      <trkpt lat="47.81149" lon="9.02283">
        <ele>396.996265</ele>
        <time>2022-09-14T04:10:58.882Z</time>
      </trkpt>
      <trkpt lat="47.81123" lon="9.02308">
        <ele>396.958842</ele>
        <time>2022-09-14T04:11:06.926Z</time>
      </trkpt>
      <trkpt lat="47.81087" lon="9.02357">
        <ele>396.936409</ele>
        <time>2022-09-14T04:11:19.253Z</time>
      </trkpt>
      <trkpt lat="47.81083" lon="9.02364">
        <ele>396.934004</ele>
        <time>2022-09-14T04:11:20.834Z</time>
      </trkpt>
      <trkpt lat="47.81079" lon="9.02369">
        <ele>396.932105</ele>
        <time>2022-09-14T04:11:22.099Z</time>
      </trkpt>
      <trkpt lat="47.80977" lon="9.02521">
        <ele>396.926799</ele>
        <time>2022-09-14T04:12:00.920Z</time>
      </trkpt>
      <trkpt lat="47.80947" lon="9.02558">
        <ele>397.010472</ele>
        <time>2022-09-14T04:12:11.545Z</time>
      </trkpt>
      <trkpt lat="47.80888" lon="9.02609">
        <ele>397.156683</ele>
        <time>2022-09-14T04:12:30.581Z</time>
      </trkpt>
      <trkpt lat="47.80835" lon="9.0264">
        <ele>397.288857</ele>
        <time>2022-09-14T04:12:46.911Z</time>
      </trkpt>
      <trkpt lat="47.80804" lon="9.02644">
        <ele>397.450699</ele>
        <time>2022-09-14T04:12:55.733Z</time>
      </trkpt>
      <trkpt lat="47.80744" lon="9.0265">
        <ele>397.764919</ele>
        <time>2022-09-14T04:13:12.267Z</time>
      </trkpt>
      <trkpt lat="47.8071" lon="9.02646">
        <ele>397.944304</ele>
        <time>2022-09-14T04:13:21.997Z</time>
      </trkpt>
      <trkpt lat="47.80657" lon="9.02627">
        <ele>398.286918</ele>
        <time>2022-09-14T04:13:38.638Z</time>
      </trkpt>
      <trkpt lat="47.80607" lon="9.02596">
        <ele>399.325645</ele>
        <time>2022-09-14T04:13:56.658Z</time>
      </trkpt>
      <trkpt lat="47.80609" lon="9.02589">
        <ele>399.424581</ele>
        <time>2022-09-14T04:13:58.428Z</time>
      </trkpt>
      <trkpt lat="47.80612" lon="9.02581">
        <ele>399.532121</ele>
        <time>2022-09-14T04:14:00.361Z</time>
      </trkpt>
      <trkpt lat="47.80604" lon="9.02546">
        <ele>400.011328</ele>
        <time>2022-09-14T04:14:09.408Z</time>
      </trkpt>
      <trkpt lat="47.80598" lon="9.02539">
        <ele>400.154798</ele>
        <time>2022-09-14T04:14:12.099Z</time>
      </trkpt>
      <trkpt lat="47.8057" lon="9.02543">
        <ele>400.702469</ele>
        <time>2022-09-14T04:14:22.925Z</time>
      </trkpt>
      <trkpt lat="47.80405" lon="9.02457">
        <ele>404.597881</ele>
        <time>2022-09-14T04:15:32.139Z</time>
      </trkpt>
      <trkpt lat="47.80376" lon="9.02417">
        <ele>405.542629</ele>
        <time>2022-09-14T04:15:46.800Z</time>
      </trkpt>
      <trkpt lat="47.80366" lon="9.02393">
        <ele>405.920837</ele>
        <time>2022-09-14T04:15:53.075Z</time>
      </trkpt>
      <trkpt lat="47.8036" lon="9.02349">
        <ele>406.148722</ele>
        <time>2022-09-14T04:16:03.470Z</time>
      </trkpt>
      <trkpt lat="47.80365" lon="9.02279">
        <ele>406.503544</ele>
        <time>2022-09-14T04:16:18.061Z</time>
      </trkpt>
      <trkpt lat="47.80389" lon="9.02159">
        <ele>407.13501</ele>
        <time>2022-09-14T04:16:42.078Z</time>
      </trkpt>
      <trkpt lat="47.80396" lon="9.02092">
        <ele>407.174694</ele>
        <time>2022-09-14T04:16:53.906Z</time>
      </trkpt>
      <trkpt lat="47.80438" lon="9.0173">
        <ele>406.546428</ele>
        <time>2022-09-14T04:17:56.158Z</time>
      </trkpt>
      <trkpt lat="47.80488" lon="9.0131">
        <ele>406.291915</ele>
        <time>2022-09-14T04:19:11.528Z</time>
      </trkpt>
      <trkpt lat="47.80488" lon="9.01224">
        <ele>406.550506</ele>
        <time>2022-09-14T04:19:27.698Z</time>
      </trkpt>
      <trkpt lat="47.80472" lon="9.00995">
        <ele>407.371232</ele>
        <time>2022-09-14T04:20:14.330Z</time>
      </trkpt>
      <trkpt lat="47.80477" lon="9.0088">
        <ele>407.887464</ele>
        <time>2022-09-14T04:20:37.304Z</time>
      </trkpt>
      <trkpt lat="47.80509" lon="9.00698">
        <ele>409.141505</ele>
        <time>2022-09-14T04:21:14.906Z</time>
      </trkpt>
      <trkpt lat="47.80512" lon="9.0053">
        <ele>410.689282</ele>
        <time>2022-09-14T04:21:52.890Z</time>
      </trkpt>
      <trkpt lat="47.80518" lon="9.00412">
        <ele>412.918238</ele>
        <time>2022-09-14T04:22:24.009Z</time>
      </trkpt>
      <trkpt lat="47.80521" lon="9.00267">
        <ele>415.719492</ele>
        <time>2022-09-14T04:23:05.831Z</time>
      </trkpt>
      <trkpt lat="47.80499" lon="9.00137">
        <ele>418.690756</ele>
        <time>2022-09-14T04:23:45.192Z</time>
      </trkpt>
      <trkpt lat="47.8046" lon="8.99887">
        <ele>423.429349</ele>
        <time>2022-09-14T04:24:56.104Z</time>
      </trkpt>
      <trkpt lat="47.8044" lon="8.99781">
        <ele>425.143493</ele>
        <time>2022-09-14T04:25:22.665Z</time>
      </trkpt>
      <trkpt lat="47.80412" lon="8.9968">
        <ele>425.456641</ele>
        <time>2022-09-14T04:25:45.686Z</time>
      </trkpt>
      <trkpt lat="47.80296" lon="8.99389">
        <ele>424.79381</ele>
        <time>2022-09-14T04:26:41.023Z</time>
      </trkpt>
      <trkpt lat="47.80303" lon="8.99368">
        <ele>424.688943</ele>
        <time>2022-09-14T04:26:44.410Z</time>
      </trkpt>
      <trkpt lat="47.80291" lon="8.99334">
        <ele>424.517007</ele>
        <time>2022-09-14T04:26:50.342Z</time>
      </trkpt>
      <trkpt lat="47.80291" lon="8.99319">
        <ele>424.446693</ele>
        <time>2022-09-14T04:26:52.751Z</time>
      </trkpt>
      <trkpt lat="47.80295" lon="8.99303">
        <ele>424.368877</ele>
        <time>2022-09-14T04:26:55.909Z</time>
      </trkpt>
      <trkpt lat="47.80317" lon="8.99281">
        <ele>424.465609</ele>
        <time>2022-09-14T04:27:02.007Z</time>
      </trkpt>
      <trkpt lat="47.80316" lon="8.9926">
        <ele>424.582036</ele>
        <time>2022-09-14T04:27:05.796Z</time>
      </trkpt>
      <trkpt lat="47.80317" lon="8.99237">
        <ele>424.712506</ele>
        <time>2022-09-14T04:27:09.438Z</time>
      </trkpt>
      <trkpt lat="47.80315" lon="8.99222">
        <ele>424.79919</ele>
        <time>2022-09-14T04:27:12.806Z</time>
      </trkpt>
      <trkpt lat="47.80309" lon="8.9921">
        <ele>424.887041</ele>
        <time>2022-09-14T04:27:15.719Z</time>
      </trkpt>
      <trkpt lat="47.80273" lon="8.99196">
        <ele>425.193769</ele>
        <time>2022-09-14T04:27:27.204Z</time>
      </trkpt>
      <trkpt lat="47.80234" lon="8.99158">
        <ele>425.588343</ele>
        <time>2022-09-14T04:27:43.188Z</time>
      </trkpt>
      <trkpt lat="47.80194" lon="8.99095">
        <ele>426.310029</ele>
        <time>2022-09-14T04:28:05.065Z</time>
      </trkpt>
      <trkpt lat="47.80158" lon="8.99025">
        <ele>427.245408</ele>
        <time>2022-09-14T04:28:27.182Z</time>
      </trkpt>
      <trkpt lat="47.80113" lon="8.98923">
        <ele>428.565667</ele>
        <time>2022-09-14T04:28:55.128Z</time>
      </trkpt>
      <trkpt lat="47.80048" lon="8.98823">
        <ele>428.473759</ele>
        <time>2022-09-14T04:29:19.410Z</time>
      </trkpt>
      <trkpt lat="47.79861" lon="8.98644">
        <ele>428.261257</ele>
        <time>2022-09-14T04:30:12.831Z</time>
      </trkpt>
      <trkpt lat="47.79775" lon="8.98539">
        <ele>429.962314</ele>
        <time>2022-09-14T04:30:51.137Z</time>
      </trkpt>
      <trkpt lat="47.79732" lon="8.98472">
        <ele>431.741274</ele>
        <time>2022-09-14T04:31:16.608Z</time>
      </trkpt>
      <trkpt lat="47.79628" lon="8.98293">
        <ele>436.958854</ele>
        <time>2022-09-14T04:32:30.304Z</time>
      </trkpt>
      <trkpt lat="47.79573" lon="8.98218">
        <ele>439.574782</ele>
        <time>2022-09-14T04:33:01.359Z</time>
      </trkpt>
      <trkpt lat="47.79525" lon="8.9816">
        <ele>440.453131</ele>
        <time>2022-09-14T04:33:25.007Z</time>
      </trkpt>
      <trkpt lat="47.79469" lon="8.98085">
        <ele>441.385542</ele>
        <time>2022-09-14T04:33:49.503Z</time>
      </trkpt>
      <trkpt lat="47.7945" lon="8.9806">
        <ele>441.70031</ele>
        <time>2022-09-14T04:33:56.296Z</time>
      </trkpt>
      <trkpt lat="47.7944" lon="8.98057">
        <ele>441.835525</ele>
        <time>2022-09-14T04:33:59.124Z</time>
      </trkpt>
      <trkpt lat="47.79429" lon="8.98058">
        <ele>441.971152</ele>
        <time>2022-09-14T04:34:02.147Z</time>
      </trkpt>
      <trkpt lat="47.79386" lon="8.98004">
        <ele>441.747846</ele>
        <time>2022-09-14T04:34:15.433Z</time>
      </trkpt>
      <trkpt lat="47.7935" lon="8.97971">
        <ele>441.563126</ele>
        <time>2022-09-14T04:34:25.936Z</time>
      </trkpt>
      <trkpt lat="47.7932" lon="8.97953">
        <ele>441.423572</ele>
        <time>2022-09-14T04:34:33.925Z</time>
      </trkpt>
      <trkpt lat="47.79283" lon="8.9793">
        <ele>441.248963</ele>
        <time>2022-09-14T04:34:43.982Z</time>
      </trkpt>
      <trkpt lat="47.79253" lon="8.97904">
        <ele>441.005693</ele>
        <time>2022-09-14T04:34:52.609Z</time>
      </trkpt>
      <trkpt lat="47.79197" lon="8.97859">
        <ele>440.488285</ele>
        <time>2022-09-14T04:35:07.318Z</time>
      </trkpt>
      <trkpt lat="47.79179" lon="8.97844">
        <ele>440.322908</ele>
        <time>2022-09-14T04:35:12.029Z</time>
      </trkpt>
      <trkpt lat="47.79134" lon="8.97804">
        <ele>439.905419</ele>
        <time>2022-09-14T04:35:24.332Z</time>
      </trkpt>
      <trkpt lat="47.7912" lon="8.9778">
        <ele>439.741521</ele>
        <time>2022-09-14T04:35:29.645Z</time>
      </trkpt>
      <trkpt lat="47.79113" lon="8.97741">
        <ele>439.650965</ele>
        <time>2022-09-14T04:35:36.135Z</time>
      </trkpt>
      <trkpt lat="47.79119" lon="8.97691">
        <ele>439.539866</ele>
        <time>2022-09-14T04:35:44.393Z</time>
      </trkpt>
      <trkpt lat="47.7912" lon="8.97686">
        <ele>439.526809</ele>
        <time>2022-09-14T04:35:45.457Z</time>
      </trkpt>
      <trkpt lat="47.7912" lon="8.97659">
        <ele>439.467628</ele>
        <time>2022-09-14T04:35:50.013Z</time>
      </trkpt>
      <trkpt lat="47.79104" lon="8.97618">
        <ele>439.362682</ele>
        <time>2022-09-14T04:35:57.775Z</time>
      </trkpt>
      <trkpt lat="47.79087" lon="8.97611">
        <ele>439.303257</ele>
        <time>2022-09-14T04:36:01.964Z</time>
      </trkpt>
      <trkpt lat="47.78996" lon="8.97629">
        <ele>439.461632</ele>
        <time>2022-09-14T04:36:27.436Z</time>
      </trkpt>
      <trkpt lat="47.78968" lon="8.97614">
        <ele>439.662834</ele>
        <time>2022-09-14T04:36:37.373Z</time>
      </trkpt>
      <trkpt lat="47.78961" lon="8.97598">
        <ele>439.744696</ele>
        <time>2022-09-14T04:36:41.447Z</time>
      </trkpt>
      <trkpt lat="47.78962" lon="8.97578">
        <ele>439.834154</ele>
        <time>2022-09-14T04:36:45.614Z</time>
      </trkpt>
      <trkpt lat="47.78936" lon="8.97578">
        <ele>440.007049</ele>
        <time>2022-09-14T04:36:53.776Z</time>
      </trkpt>
      <trkpt lat="47.78878" lon="8.97561">
        <ele>440.352759</ele>
        <time>2022-09-14T04:37:11.805Z</time>
      </trkpt>
      <trkpt lat="47.78833" lon="8.97531">
        <ele>440.432535</ele>
        <time>2022-09-14T04:37:25.923Z</time>
      </trkpt>
      <trkpt lat="47.78754" lon="8.97457">
        <ele>440.584816</ele>
        <time>2022-09-14T04:37:50.836Z</time>
      </trkpt>
      <trkpt lat="47.78748" lon="8.97452">
        <ele>440.596963</ele>
        <time>2022-09-14T04:37:52.821Z</time>
      </trkpt>
      <trkpt lat="47.78711" lon="8.9742">
        <ele>440.553876</ele>
        <time>2022-09-14T04:38:03.936Z</time>
      </trkpt>
      <trkpt lat="47.78694" lon="8.97404">
        <ele>440.480701</ele>
        <time>2022-09-14T04:38:08.938Z</time>
      </trkpt>
      <trkpt lat="47.78679" lon="8.97388">
        <ele>440.412935</ele>
        <time>2022-09-14T04:38:13.448Z</time>
      </trkpt>
      <trkpt lat="47.78648" lon="8.97349">
        <ele>440.260379</ele>
        <time>2022-09-14T04:38:23.690Z</time>
      </trkpt>
      <trkpt lat="47.78605" lon="8.97319">
        <ele>440.084236</ele>
        <time>2022-09-14T04:38:35.383Z</time>
      </trkpt>
      <trkpt lat="47.78595" lon="8.97315">
        <ele>440.04894</ele>
        <time>2022-09-14T04:38:37.720Z</time>
      </trkpt>
      <trkpt lat="47.7857" lon="8.9731">
        <ele>439.939872</ele>
        <time>2022-09-14T04:38:44.157Z</time>
      </trkpt>
      <trkpt lat="47.78551" lon="8.97307">
        <ele>439.80887</ele>
        <time>2022-09-14T04:38:48.802Z</time>
      </trkpt>
      <trkpt lat="47.7851" lon="8.97292">
        <ele>439.512581</ele>
        <time>2022-09-14T04:38:59.760Z</time>
      </trkpt>
      <trkpt lat="47.78478" lon="8.9727">
        <ele>439.260836</ele>
        <time>2022-09-14T04:39:08.585Z</time>
      </trkpt>
      <trkpt lat="47.78363" lon="8.97211">
        <ele>437.987118</ele>
        <time>2022-09-14T04:39:36.532Z</time>
      </trkpt>
      <trkpt lat="47.78352" lon="8.97213">
        <ele>437.810664</ele>
        <time>2022-09-14T04:39:38.763Z</time>
      </trkpt>
      <trkpt lat="47.78342" lon="8.97196">
        <ele>437.543657</ele>
        <time>2022-09-14T04:39:42.250Z</time>
      </trkpt>
      <trkpt lat="47.78331" lon="8.97191">
        <ele>437.353497</ele>
        <time>2022-09-14T04:39:44.665Z</time>
      </trkpt>
      <trkpt lat="47.78248" lon="8.97151">
        <ele>435.896092</ele>
        <time>2022-09-14T04:40:02.981Z</time>
      </trkpt>
      <trkpt lat="47.78195" lon="8.97122">
        <ele>435.21699</ele>
        <time>2022-09-14T04:40:15.046Z</time>
      </trkpt>
      <trkpt lat="47.7818" lon="8.97108">
        <ele>435.029095</ele>
        <time>2022-09-14T04:40:18.994Z</time>
      </trkpt>
      <trkpt lat="47.78162" lon="8.97083">
        <ele>434.776438</ele>
        <time>2022-09-14T04:40:24.369Z</time>
      </trkpt>
      <trkpt lat="47.78078" lon="8.96978">
        <ele>433.765992</ele>
        <time>2022-09-14T04:40:51.278Z</time>
      </trkpt>
      <trkpt lat="47.7803" lon="8.96916">
        <ele>433.657104</ele>
        <time>2022-09-14T04:41:08.914Z</time>
      </trkpt>
      <trkpt lat="47.77938" lon="8.96767">
        <ele>433.001454</ele>
        <time>2022-09-14T04:41:44.857Z</time>
      </trkpt>
      <trkpt lat="47.77737" lon="8.96538">
        <ele>429.539253</ele>
        <time>2022-09-14T04:42:39.199Z</time>
      </trkpt>
      <trkpt lat="47.77629" lon="8.96447">
        <ele>430.29182</ele>
        <time>2022-09-14T04:43:08.159Z</time>
      </trkpt>
      <trkpt lat="47.77617" lon="8.96438">
        <ele>430.729927</ele>
        <time>2022-09-14T04:43:12.455Z</time>
      </trkpt>
      <trkpt lat="47.77593" lon="8.96401">
        <ele>431.875752</ele>
        <time>2022-09-14T04:43:25.035Z</time>
      </trkpt>
      <trkpt lat="47.77542" lon="8.96296">
        <ele>435.225143</ele>
        <time>2022-09-14T04:44:14.309Z</time>
      </trkpt>
      <trkpt lat="47.77499" lon="8.96292">
        <ele>439.207476</ele>
        <time>2022-09-14T04:44:46.239Z</time>
      </trkpt>
      <trkpt lat="47.77434" lon="8.96303">
        <ele>445.406034</ele>
        <time>2022-09-14T04:45:36.734Z</time>
      </trkpt>
      <trkpt lat="47.77381" lon="8.96301">
        <ele>450.449193</ele>
        <time>2022-09-14T04:46:19.788Z</time>
      </trkpt>
      <trkpt lat="47.77338" lon="8.96273">
        <ele>452.989667</ele>
        <time>2022-09-14T04:46:50.760Z</time>
      </trkpt>
      <trkpt lat="47.7727" lon="8.96173">
        <ele>457.097186</ele>
        <time>2022-09-14T04:47:36.809Z</time>
      </trkpt>
      <trkpt lat="47.77227" lon="8.96125">
        <ele>459.034398</ele>
        <time>2022-09-14T04:47:51.352Z</time>
      </trkpt>
      <trkpt lat="47.7719" lon="8.96068">
        <ele>457.900182</ele>
        <time>2022-09-14T04:48:05.066Z</time>
      </trkpt>
      <trkpt lat="47.77143" lon="8.95947">
        <ele>455.867162</ele>
        <time>2022-09-14T04:48:23.689Z</time>
      </trkpt>
      <trkpt lat="47.77124" lon="8.9591">
        <ele>454.961038</ele>
        <time>2022-09-14T04:48:29.742Z</time>
      </trkpt>
      <trkpt lat="47.77102" lon="8.95885">
        <ele>453.090017</ele>
        <time>2022-09-14T04:48:34.860Z</time>
      </trkpt>
      <trkpt lat="47.77087" lon="8.95871">
        <ele>451.90928</ele>
        <time>2022-09-14T04:48:38.071Z</time>
      </trkpt>
      <trkpt lat="47.77083" lon="8.95868">
        <ele>451.595895</ele>
        <time>2022-09-14T04:48:38.921Z</time>
      </trkpt>
      <trkpt lat="47.77032" lon="8.95851">
        <ele>448.049913</ele>
        <time>2022-09-14T04:48:47.991Z</time>
      </trkpt>
      <trkpt lat="47.76992" lon="8.95857">
        <ele>445.33607</ele>
        <time>2022-09-14T04:48:54.725Z</time>
      </trkpt>
      <trkpt lat="47.76939" lon="8.95879">
        <ele>441.122094</ele>
        <time>2022-09-14T04:49:03.736Z</time>
      </trkpt>
      <trkpt lat="47.76893" lon="8.95906">
        <ele>436.657954</ele>
        <time>2022-09-14T04:49:11.823Z</time>
      </trkpt>
      <trkpt lat="47.76873" lon="8.95934">
        <ele>434.187053</ele>
        <time>2022-09-14T04:49:16.280Z</time>
      </trkpt>
      <trkpt lat="47.76855" lon="8.96006">
        <ele>429.533692</ele>
        <time>2022-09-14T04:49:24.937Z</time>
      </trkpt>
      <trkpt lat="47.76845" lon="8.96026">
        <ele>428.03002</ele>
        <time>2022-09-14T04:49:27.664Z</time>
      </trkpt>
      <trkpt lat="47.76817" lon="8.9604">
        <ele>426.013109</ele>
        <time>2022-09-14T04:49:32.683Z</time>
      </trkpt>
      <trkpt lat="47.76798" lon="8.96031">
        <ele>424.965027</ele>
        <time>2022-09-14T04:49:36.181Z</time>
      </trkpt>
      <trkpt lat="47.76775" lon="8.96009">
        <ele>423.570875</ele>
        <time>2022-09-14T04:49:40.770Z</time>
      </trkpt>
      <trkpt lat="47.7672" lon="8.95956">
        <ele>420.151509</ele>
        <time>2022-09-14T04:49:52.527Z</time>
      </trkpt>
      <trkpt lat="47.76684" lon="8.95922">
        <ele>417.909397</ele>
        <time>2022-09-14T04:50:01.035Z</time>
      </trkpt>
      <trkpt lat="47.76639" lon="8.95876">
        <ele>417.223172</ele>
        <time>2022-09-14T04:50:13.152Z</time>
      </trkpt>
      <trkpt lat="47.76601" lon="8.9584">
        <ele>416.917829</ele>
        <time>2022-09-14T04:50:24.145Z</time>
      </trkpt>
      <trkpt lat="47.76575" lon="8.95826">
        <ele>416.728109</ele>
        <time>2022-09-14T04:50:31.246Z</time>
      </trkpt>
      <trkpt lat="47.76541" lon="8.95823">
        <ele>416.496382</ele>
        <time>2022-09-14T04:50:40.402Z</time>
      </trkpt>
      <trkpt lat="47.76513" lon="8.95828">
        <ele>416.323771</ele>
        <time>2022-09-14T04:50:48.575Z</time>
      </trkpt>
      <trkpt lat="47.76464" lon="8.95834">
        <ele>416.456946</ele>
        <time>2022-09-14T04:51:02.451Z</time>
      </trkpt>
      <trkpt lat="47.76407" lon="8.95829">
        <ele>416.614299</ele>
        <time>2022-09-14T04:51:18.623Z</time>
      </trkpt>
      <trkpt lat="47.76269" lon="8.95787">
        <ele>416.90142</ele>
        <time>2022-09-14T04:51:58.291Z</time>
      </trkpt>
      <trkpt lat="47.76263" lon="8.95785">
        <ele>416.908727</ele>
        <time>2022-09-14T04:51:59.817Z</time>
      </trkpt>
      <trkpt lat="47.76195" lon="8.95759">
        <ele>417.001437</ele>
        <time>2022-09-14T04:52:18.746Z</time>
      </trkpt>
      <trkpt lat="47.76168" lon="8.95736">
        <ele>417.042907</ele>
        <time>2022-09-14T04:52:27.086Z</time>
      </trkpt>
      <trkpt lat="47.76117" lon="8.957">
        <ele>416.810374</ele>
        <time>2022-09-14T04:52:41.805Z</time>
      </trkpt>
      <trkpt lat="47.76042" lon="8.95661">
        <ele>416.463137</ele>
        <time>2022-09-14T04:53:01.355Z</time>
      </trkpt>
      <trkpt lat="47.76002" lon="8.95627">
        <ele>416.261445</ele>
        <time>2022-09-14T04:53:12.487Z</time>
      </trkpt>
      <trkpt lat="47.7593" lon="8.95549">
        <ele>415.105832</ele>
        <time>2022-09-14T04:53:33.671Z</time>
      </trkpt>
      <trkpt lat="47.75834" lon="8.95431">
        <ele>413.517756</ele>
        <time>2022-09-14T04:54:00.308Z</time>
      </trkpt>
      <trkpt lat="47.75794" lon="8.95383">
        <ele>412.882599</ele>
        <time>2022-09-14T04:54:11.331Z</time>
      </trkpt>
      <trkpt lat="47.75737" lon="8.95232">
        <ele>411.870069</ele>
        <time>2022-09-14T04:54:38.395Z</time>
      </trkpt>
      <trkpt lat="47.75696" lon="8.95143">
        <ele>412.396231</ele>
        <time>2022-09-14T04:55:00.335Z</time>
      </trkpt>
      <trkpt lat="47.75688" lon="8.95128">
        <ele>412.491212</ele>
        <time>2022-09-14T04:55:04.747Z</time>
      </trkpt>
      <trkpt lat="47.75679" lon="8.95095">
        <ele>412.664078</ele>
        <time>2022-09-14T04:55:12.432Z</time>
      </trkpt>
      <trkpt lat="47.75675" lon="8.9508">
        <ele>412.744871</ele>
        <time>2022-09-14T04:55:16.245Z</time>
      </trkpt>
      <trkpt lat="47.75665" lon="8.95074">
        <ele>412.825064</ele>
        <time>2022-09-14T04:55:19.834Z</time>
      </trkpt>
      <trkpt lat="47.75644" lon="8.95059">
        <ele>412.991705</ele>
        <time>2022-09-14T04:55:27.582Z</time>
      </trkpt>
      <trkpt lat="47.75593" lon="8.94993">
        <ele>413.696385</ele>
        <time>2022-09-14T04:55:50.399Z</time>
      </trkpt>
      <trkpt lat="47.75598" lon="8.94952">
        <ele>413.988946</ele>
        <time>2022-09-14T04:55:59.580Z</time>
      </trkpt>
      <trkpt lat="47.75667" lon="8.94819">
        <ele>414.962598</ele>
        <time>2022-09-14T04:56:33.980Z</time>
      </trkpt>
      <trkpt lat="47.75705" lon="8.94758">
        <ele>415.032322</ele>
        <time>2022-09-14T04:56:49.552Z</time>
      </trkpt>
      <trkpt lat="47.75739" lon="8.94717">
        <ele>415.087255</ele>
        <time>2022-09-14T04:57:01.275Z</time>
      </trkpt>
      <trkpt lat="47.75827" lon="8.94642">
        <ele>414.828702</ele>
        <time>2022-09-14T04:57:27.113Z</time>
      </trkpt>
      <trkpt lat="47.75823" lon="8.94635">
        <ele>414.784068</ele>
        <time>2022-09-14T04:57:28.678Z</time>
      </trkpt>
      <trkpt lat="47.75783" lon="8.94571">
        <ele>414.355918</ele>
        <time>2022-09-14T04:57:43.368Z</time>
      </trkpt>
      <trkpt lat="47.75741" lon="8.94446">
        <ele>413.446481</ele>
        <time>2022-09-14T04:58:04.482Z</time>
      </trkpt>
      <trkpt lat="47.75739" lon="8.94436">
        <ele>413.337395</ele>
        <time>2022-09-14T04:58:05.936Z</time>
      </trkpt>
      <trkpt lat="47.75726" lon="8.9437">
        <ele>412.559409</ele>
        <time>2022-09-14T04:58:16.045Z</time>
      </trkpt>
      <trkpt lat="47.75697" lon="8.94321">
        <ele>411.828961</ele>
        <time>2022-09-14T04:58:25.384Z</time>
      </trkpt>
      <trkpt lat="47.7566" lon="8.94278">
        <ele>411.052023</ele>
        <time>2022-09-14T04:58:35.252Z</time>
      </trkpt>
      <trkpt lat="47.75628" lon="8.94227">
        <ele>410.492495</ele>
        <time>2022-09-14T04:58:45.432Z</time>
      </trkpt>
      <trkpt lat="47.75593" lon="8.94138">
        <ele>409.77476</ele>
        <time>2022-09-14T04:59:00.790Z</time>
      </trkpt>
      <trkpt lat="47.75585" lon="8.94108">
        <ele>409.545002</ele>
        <time>2022-09-14T04:59:06.083Z</time>
      </trkpt>
      <trkpt lat="47.75557" lon="8.94016">
        <ele>408.929201</ele>
        <time>2022-09-14T04:59:23.639Z</time>
      </trkpt>
      <trkpt lat="47.75542" lon="8.93964">
        <ele>408.75877</ele>
        <time>2022-09-14T04:59:33.351Z</time>
      </trkpt>
      <trkpt lat="47.75535" lon="8.93942">
        <ele>408.687462</ele>
        <time>2022-09-14T04:59:37.359Z</time>
      </trkpt>
      <trkpt lat="47.75525" lon="8.93918">
        <ele>408.604631</ele>
        <time>2022-09-14T04:59:42.091Z</time>
      </trkpt>
      <trkpt lat="47.75498" lon="8.93884">
        <ele>408.4474</ele>
        <time>2022-09-14T04:59:50.947Z</time>
      </trkpt>
      <trkpt lat="47.75483" lon="8.93875">
        <ele>408.37379</ele>
        <time>2022-09-14T04:59:55.022Z</time>
      </trkpt>
      <trkpt lat="47.75458" lon="8.93861">
        <ele>408.256472</ele>
        <time>2022-09-14T05:00:01.474Z</time>
      </trkpt>
      <trkpt lat="47.75389" lon="8.9382">
        <ele>407.783551</ele>
        <time>2022-09-14T05:00:19.340Z</time>
      </trkpt>
      <trkpt lat="47.75388" lon="8.9375">
        <ele>407.462811</ele>
        <time>2022-09-14T05:00:30.422Z</time>
      </trkpt>
      <trkpt lat="47.75379" lon="8.93669">
        <ele>407.083712</ele>
        <time>2022-09-14T05:00:43.509Z</time>
      </trkpt>
      <trkpt lat="47.75364" lon="8.9358">
        <ele>407.016279</ele>
        <time>2022-09-14T05:00:59.028Z</time>
      </trkpt>
      <trkpt lat="47.75354" lon="8.93554">
        <ele>407.038753</ele>
        <time>2022-09-14T05:01:04.567Z</time>
      </trkpt>
      <trkpt lat="47.75336" lon="8.93534">
        <ele>407.063045</ele>
        <time>2022-09-14T05:01:10.731Z</time>
      </trkpt>
      <trkpt lat="47.75308" lon="8.93517">
        <ele>407.096667</ele>
        <time>2022-09-14T05:01:19.523Z</time>
      </trkpt>
      <trkpt lat="47.75293" lon="8.93508">
        <ele>407.11423</ele>
        <time>2022-09-14T05:01:24.226Z</time>
      </trkpt>
      <trkpt lat="47.7528" lon="8.93481">
        <ele>407.138333</ele>
        <time>2022-09-14T05:01:30.729Z</time>
      </trkpt>
      <trkpt lat="47.75282" lon="8.93276">
        <ele>407.163442</ele>
        <time>2022-09-14T05:02:08.930Z</time>
      </trkpt>
      <trkpt lat="47.75281" lon="8.93247">
        <ele>407.163154</ele>
        <time>2022-09-14T05:02:14.053Z</time>
      </trkpt>
      <trkpt lat="47.7528" lon="8.93182">
        <ele>407.16252</ele>
        <time>2022-09-14T05:02:25.153Z</time>
      </trkpt>
      <trkpt lat="47.75273" lon="8.93134">
        <ele>406.903144</ele>
        <time>2022-09-14T05:02:33.275Z</time>
      </trkpt>
      <trkpt lat="47.75268" lon="8.93049">
        <ele>406.406025</ele>
        <time>2022-09-14T05:02:46.835Z</time>
      </trkpt>
      <trkpt lat="47.75257" lon="8.92848">
        <ele>405.317507</ele>
        <time>2022-09-14T05:03:17.812Z</time>
      </trkpt>
      <trkpt lat="47.75254" lon="8.92774">
        <ele>404.980833</ele>
        <time>2022-09-14T05:03:29.906Z</time>
      </trkpt>
      <trkpt lat="47.75247" lon="8.92598">
        <ele>404.496677</ele>
        <time>2022-09-14T05:03:58.934Z</time>
      </trkpt>
      <trkpt lat="47.75246" lon="8.92482">
        <ele>404.744818</ele>
        <time>2022-09-14T05:04:19.394Z</time>
      </trkpt>
      <trkpt lat="47.75254" lon="8.92305">
        <ele>406.06569</ele>
        <time>2022-09-14T05:04:57.649Z</time>
      </trkpt>
      <trkpt lat="47.75265" lon="8.92283">
        <ele>406.484391</ele>
        <time>2022-09-14T05:05:05.065Z</time>
      </trkpt>
      <trkpt lat="47.75266" lon="8.9227">
        <ele>406.687592</ele>
        <time>2022-09-14T05:05:08.453Z</time>
      </trkpt>
      <trkpt lat="47.75257" lon="8.92241">
        <ele>407.166474</ele>
        <time>2022-09-14T05:05:17.096Z</time>
      </trkpt>
      <trkpt lat="47.75258" lon="8.92219">
        <ele>407.500068</ele>
        <time>2022-09-14T05:05:22.864Z</time>
      </trkpt>
      <trkpt lat="47.75268" lon="8.92025">
        <ele>410.381351</ele>
        <time>2022-09-14T05:06:14.942Z</time>
      </trkpt>
      <trkpt lat="47.75273" lon="8.91956">
        <ele>411.411224</ele>
        <time>2022-09-14T05:06:33.067Z</time>
      </trkpt>
      <trkpt lat="47.75285" lon="8.91881">
        <ele>412.524626</ele>
        <time>2022-09-14T05:06:51.569Z</time>
      </trkpt>
      <trkpt lat="47.75321" lon="8.9175">
        <ele>413.981775</ele>
        <time>2022-09-14T05:07:21.148Z</time>
      </trkpt>
      <trkpt lat="47.75337" lon="8.9171">
        <ele>414.406682</ele>
        <time>2022-09-14T05:07:30.971Z</time>
      </trkpt>
      <trkpt lat="47.75354" lon="8.91671">
        <ele>414.833536</ele>
        <time>2022-09-14T05:07:41.330Z</time>
      </trkpt>
      <trkpt lat="47.75412" lon="8.91568">
        <ele>416.673585</ele>
        <time>2022-09-14T05:08:14.354Z</time>
      </trkpt>
      <trkpt lat="47.75544" lon="8.91365">
        <ele>421.060584</ele>
        <time>2022-09-14T05:09:30.669Z</time>
      </trkpt>
      <trkpt lat="47.75596" lon="8.91261">
        <ele>422.661831</ele>
        <time>2022-09-14T05:10:01.888Z</time>
      </trkpt>
      <trkpt lat="47.75652" lon="8.91123">
        <ele>423.901235</ele>
        <time>2022-09-14T05:10:31.918Z</time>
      </trkpt>
      <trkpt lat="47.75727" lon="8.90912">
        <ele>425.747108</ele>
        <time>2022-09-14T05:11:23.604Z</time>
      </trkpt>
      <trkpt lat="47.75769" lon="8.9079">
        <ele>427.309237</ele>
        <time>2022-09-14T05:11:57.104Z</time>
      </trkpt>
      <trkpt lat="47.75809" lon="8.90705">
        <ele>428.223257</ele>
        <time>2022-09-14T05:12:22.029Z</time>
      </trkpt>
      <trkpt lat="47.75811" lon="8.90692">
        <ele>428.317072</ele>
        <time>2022-09-14T05:12:25.303Z</time>
      </trkpt>
      <trkpt lat="47.75817" lon="8.90672">
        <ele>428.465529</ele>
        <time>2022-09-14T05:12:30.183Z</time>
      </trkpt>
      <trkpt lat="47.75842" lon="8.90595">
        <ele>429.054769</ele>
        <time>2022-09-14T05:12:47.733Z</time>
      </trkpt>
      <trkpt lat="47.75869" lon="8.90505">
        <ele>429.745337</ele>
        <time>2022-09-14T05:13:06.366Z</time>
      </trkpt>
      <trkpt lat="47.7589" lon="8.9043">
        <ele>430.41866</ele>
        <time>2022-09-14T05:13:22.694Z</time>
      </trkpt>
      <trkpt lat="47.75923" lon="8.90296">
        <ele>431.594175</ele>
        <time>2022-09-14T05:13:54.650Z</time>
      </trkpt>
      <trkpt lat="47.75975" lon="8.90016">
        <ele>435.30714</ele>
        <time>2022-09-14T05:15:06.313Z</time>
      </trkpt>
      <trkpt lat="47.76025" lon="8.89822">
        <ele>437.166909</ele>
        <time>2022-09-14T05:15:55.032Z</time>
      </trkpt>
      <trkpt lat="47.76025" lon="8.89815">
        <ele>437.22965</ele>
        <time>2022-09-14T05:15:56.549Z</time>
      </trkpt>
      <trkpt lat="47.76026" lon="8.89758">
        <ele>437.72039</ele>
        <time>2022-09-14T05:16:08.244Z</time>
      </trkpt>
      <trkpt lat="47.76053" lon="8.89606">
        <ele>436.369185</ele>
        <time>2022-09-14T05:16:34.361Z</time>
      </trkpt>
      <trkpt lat="47.76067" lon="8.89461">
        <ele>434.591094</ele>
        <time>2022-09-14T05:16:53.994Z</time>
      </trkpt>
      <trkpt lat="47.76066" lon="8.89328">
        <ele>431.454906</ele>
        <time>2022-09-14T05:17:11.010Z</time>
      </trkpt>
      <trkpt lat="47.76063" lon="8.89227">
        <ele>429.083405</ele>
        <time>2022-09-14T05:17:23.907Z</time>
      </trkpt>
      <trkpt lat="47.76061" lon="8.89142">
        <ele>428.006598</ele>
        <time>2022-09-14T05:17:35.237Z</time>
      </trkpt>
      <trkpt lat="47.76066" lon="8.89124">
        <ele>427.784369</ele>
        <time>2022-09-14T05:17:37.722Z</time>
      </trkpt>
      <trkpt lat="47.76075" lon="8.89101">
        <ele>427.456606</ele>
        <time>2022-09-14T05:17:41.682Z</time>
      </trkpt>
      <trkpt lat="47.76075" lon="8.89091">
        <ele>427.335817</ele>
        <time>2022-09-14T05:17:43.138Z</time>
      </trkpt>
      <trkpt lat="47.76075" lon="8.89083">
        <ele>427.235342</ele>
        <time>2022-09-14T05:17:44.318Z</time>
      </trkpt>
      <trkpt lat="47.76075" lon="8.89072">
        <ele>427.104985</ele>
        <time>2022-09-14T05:17:45.877Z</time>
      </trkpt>
      <trkpt lat="47.76064" lon="8.89048">
        <ele>426.759288</ele>
        <time>2022-09-14T05:17:50.255Z</time>
      </trkpt>
      <trkpt lat="47.76061" lon="8.89027">
        <ele>426.493165</ele>
        <time>2022-09-14T05:17:53.525Z</time>
      </trkpt>
      <trkpt lat="47.76078" lon="8.88823">
        <ele>426.470045</ele>
        <time>2022-09-14T05:18:31.394Z</time>
      </trkpt>
      <trkpt lat="47.76111" lon="8.88507">
        <ele>429.016954</ele>
        <time>2022-09-14T05:19:44.456Z</time>
      </trkpt>
      <trkpt lat="47.76114" lon="8.88485">
        <ele>429.230685</ele>
        <time>2022-09-14T05:19:49.804Z</time>
      </trkpt>
      <trkpt lat="47.7611" lon="8.88459">
        <ele>429.493595</ele>
        <time>2022-09-14T05:19:55.335Z</time>
      </trkpt>
      <trkpt lat="47.76119" lon="8.88127">
        <ele>432.901018</ele>
        <time>2022-09-14T05:21:09.013Z</time>
      </trkpt>
      <trkpt lat="47.76116" lon="8.88096">
        <ele>433.373759</ele>
        <time>2022-09-14T05:21:17.529Z</time>
      </trkpt>
      <trkpt lat="47.76119" lon="8.87957">
        <ele>435.468809</ele>
        <time>2022-09-14T05:21:53.993Z</time>
      </trkpt>
      <trkpt lat="47.76124" lon="8.87884">
        <ele>436.412887</ele>
        <time>2022-09-14T05:22:13.498Z</time>
      </trkpt>
      <trkpt lat="47.76145" lon="8.87857">
        <ele>436.672687</ele>
        <time>2022-09-14T05:22:23.013Z</time>
      </trkpt>
      <trkpt lat="47.76146" lon="8.87841">
        <ele>436.772936</ele>
        <time>2022-09-14T05:22:26.976Z</time>
      </trkpt>
      <trkpt lat="47.76146" lon="8.87831">
        <ele>436.837885</ele>
        <time>2022-09-14T05:22:29.216Z</time>
      </trkpt>
      <trkpt lat="47.76147" lon="8.87822">
        <ele>436.894587</ele>
        <time>2022-09-14T05:22:31.046Z</time>
      </trkpt>
      <trkpt lat="47.76127" lon="8.87792">
        <ele>437.158174</ele>
        <time>2022-09-14T05:22:40.349Z</time>
      </trkpt>
      <trkpt lat="47.76131" lon="8.87629">
        <ele>437.845929</ele>
        <time>2022-09-14T05:23:10.593Z</time>
      </trkpt>
      <trkpt lat="47.76142" lon="8.87592">
        <ele>437.666728</ele>
        <time>2022-09-14T05:23:16.906Z</time>
      </trkpt>
      <trkpt lat="47.76134" lon="8.87544">
        <ele>437.448156</ele>
        <time>2022-09-14T05:23:24.489Z</time>
      </trkpt>
      <trkpt lat="47.76143" lon="8.87415">
        <ele>436.870108</ele>
        <time>2022-09-14T05:23:45.070Z</time>
      </trkpt>
      <trkpt lat="47.76155" lon="8.8735">
        <ele>436.698439</ele>
        <time>2022-09-14T05:23:56.173Z</time>
      </trkpt>
      <trkpt lat="47.76191" lon="8.87225">
        <ele>436.427207</ele>
        <time>2022-09-14T05:24:19.752Z</time>
      </trkpt>
      <trkpt lat="47.76241" lon="8.87111">
        <ele>436.150023</ele>
        <time>2022-09-14T05:24:43.286Z</time>
      </trkpt>
      <trkpt lat="47.76262" lon="8.87035">
        <ele>435.978164</ele>
        <time>2022-09-14T05:24:57.419Z</time>
      </trkpt>
      <trkpt lat="47.76382" lon="8.8673">
        <ele>435.036359</ele>
        <time>2022-09-14T05:25:57.278Z</time>
      </trkpt>
      <trkpt lat="47.76411" lon="8.86627">
        <ele>434.500334</ele>
        <time>2022-09-14T05:26:15.021Z</time>
      </trkpt>
      <trkpt lat="47.76439" lon="8.86507">
        <ele>433.748924</ele>
        <time>2022-09-14T05:26:34.748Z</time>
      </trkpt>
      <trkpt lat="47.76459" lon="8.86375">
        <ele>433.232577</ele>
        <time>2022-09-14T05:26:56.180Z</time>
      </trkpt>
      <trkpt lat="47.7647" lon="8.86252">
        <ele>433.055509</ele>
        <time>2022-09-14T05:27:17.581Z</time>
      </trkpt>
      <trkpt lat="47.76472" lon="8.86162">
        <ele>432.970205</ele>
        <time>2022-09-14T05:27:34.736Z</time>
      </trkpt>
      <trkpt lat="47.76473" lon="8.85922">
        <ele>433.627851</ele>
        <time>2022-09-14T05:28:21.806Z</time>
      </trkpt>
      <trkpt lat="47.76479" lon="8.85474">
        <ele>433.27737</ele>
        <time>2022-09-14T05:29:40.955Z</time>
      </trkpt>
      <trkpt lat="47.76481" lon="8.85431">
        <ele>433.189624</ele>
        <time>2022-09-14T05:29:48.167Z</time>
      </trkpt>
      <trkpt lat="47.76476" lon="8.85171">
        <ele>432.051938</ele>
        <time>2022-09-14T05:30:30.138Z</time>
      </trkpt>
      <trkpt lat="47.7647" lon="8.85106">
        <ele>431.722055</ele>
        <time>2022-09-14T05:30:40.200Z</time>
      </trkpt>
      <trkpt lat="47.76461" lon="8.85011">
        <ele>431.293165</ele>
        <time>2022-09-14T05:30:55.697Z</time>
      </trkpt>
      <trkpt lat="47.76453" lon="8.84933">
        <ele>430.946013</ele>
        <time>2022-09-14T05:31:08.408Z</time>
      </trkpt>
      <trkpt lat="47.76451" lon="8.84913">
        <ele>430.856888</ele>
        <time>2022-09-14T05:31:11.712Z</time>
      </trkpt>
      <trkpt lat="47.76454" lon="8.84907">
        <ele>430.824062</ele>
        <time>2022-09-14T05:31:12.919Z</time>
      </trkpt>
      <trkpt lat="47.76451" lon="8.84878">
        <ele>430.694942</ele>
        <time>2022-09-14T05:31:17.646Z</time>
      </trkpt>
      <trkpt lat="47.76447" lon="8.84849">
        <ele>430.565187</ele>
        <time>2022-09-14T05:31:22.485Z</time>
      </trkpt>
      <trkpt lat="47.76445" lon="8.84832">
        <ele>430.533167</ele>
        <time>2022-09-14T05:31:25.387Z</time>
      </trkpt>
      <trkpt lat="47.76433" lon="8.8482">
        <ele>430.554626</ele>
        <time>2022-09-14T05:31:29.074Z</time>
      </trkpt>
      <trkpt lat="47.76429" lon="8.84814">
        <ele>430.563075</ele>
        <time>2022-09-14T05:31:30.536Z</time>
      </trkpt>
      <trkpt lat="47.76425" lon="8.84788">
        <ele>430.589977</ele>
        <time>2022-09-14T05:31:35.159Z</time>
      </trkpt>
      <trkpt lat="47.76415" lon="8.84714">
        <ele>430.665721</ele>
        <time>2022-09-14T05:31:49.701Z</time>
      </trkpt>
      <trkpt lat="47.76409" lon="8.84702">
        <ele>430.680398</ele>
        <time>2022-09-14T05:31:52.608Z</time>
      </trkpt>
      <trkpt lat="47.76402" lon="8.84634">
        <ele>430.749388</ele>
        <time>2022-09-14T05:32:05.931Z</time>
      </trkpt>
      <trkpt lat="47.76387" lon="8.84497">
        <ele>430.748129</ele>
        <time>2022-09-14T05:32:31.462Z</time>
      </trkpt>
      <trkpt lat="47.76386" lon="8.84486">
        <ele>430.742749</ele>
        <time>2022-09-14T05:32:33.436Z</time>
      </trkpt>
      <trkpt lat="47.76384" lon="8.84466">
        <ele>430.732913</ele>
        <time>2022-09-14T05:32:37.142Z</time>
      </trkpt>
      <trkpt lat="47.76381" lon="8.84448">
        <ele>430.724128</ele>
        <time>2022-09-14T05:32:40.532Z</time>
      </trkpt>
      <trkpt lat="47.76365" lon="8.84306">
        <ele>430.656904</ele>
        <time>2022-09-14T05:33:05.159Z</time>
      </trkpt>
      <trkpt lat="47.76343" lon="8.84138">
        <ele>430.584113</ele>
        <time>2022-09-14T05:33:34.522Z</time>
      </trkpt>
      <trkpt lat="47.7633" lon="8.84055">
        <ele>430.5746</ele>
        <time>2022-09-14T05:33:50.394Z</time>
      </trkpt>
      <trkpt lat="47.76325" lon="8.84017">
        <ele>430.660853</ele>
        <time>2022-09-14T05:33:57.877Z</time>
      </trkpt>
      <trkpt lat="47.7632" lon="8.83978">
        <ele>430.750237</ele>
        <time>2022-09-14T05:34:05.754Z</time>
      </trkpt>
      <trkpt lat="47.76309" lon="8.8392">
        <ele>430.883678</ele>
        <time>2022-09-14T05:34:17.678Z</time>
      </trkpt>
      <trkpt lat="47.76282" lon="8.83808">
        <ele>431.149478</ele>
        <time>2022-09-14T05:34:40.667Z</time>
      </trkpt>
      <trkpt lat="47.76279" lon="8.83798">
        <ele>431.087472</ele>
        <time>2022-09-14T05:34:42.904Z</time>
      </trkpt>
      <trkpt lat="47.76277" lon="8.8379">
        <ele>431.040854</ele>
        <time>2022-09-14T05:34:44.456Z</time>
      </trkpt>
      <trkpt lat="47.76256" lon="8.83723">
        <ele>430.646932</ele>
        <time>2022-09-14T05:34:56.476Z</time>
      </trkpt>
      <trkpt lat="47.76244" lon="8.83682">
        <ele>430.409468</ele>
        <time>2022-09-14T05:35:03.207Z</time>
      </trkpt>
      <trkpt lat="47.76239" lon="8.83668">
        <ele>430.3249</ele>
        <time>2022-09-14T05:35:05.672Z</time>
      </trkpt>
      <trkpt lat="47.76251" lon="8.83661">
        <ele>430.218743</ele>
        <time>2022-09-14T05:35:08.750Z</time>
      </trkpt>
      <trkpt lat="47.76271" lon="8.83649">
        <ele>430.04616</ele>
        <time>2022-09-14T05:35:13.637Z</time>
      </trkpt>
      <trkpt lat="47.76283" lon="8.83642">
        <ele>429.9443</ele>
        <time>2022-09-14T05:35:16.633Z</time>
      </trkpt>
      <trkpt lat="47.76307" lon="8.83627">
        <ele>429.734508</ele>
        <time>2022-09-14T05:35:22.602Z</time>
      </trkpt>
      <trkpt lat="47.76305" lon="8.83617">
        <ele>429.680698</ele>
        <time>2022-09-14T05:35:24.140Z</time>
      </trkpt>
      <trkpt lat="47.76291" lon="8.83557">
        <ele>429.348702</ele>
        <time>2022-09-14T05:35:33.667Z</time>
      </trkpt>
      <trkpt lat="47.7629" lon="8.83551">
        <ele>429.312162</ele>
        <time>2022-09-14T05:35:34.686Z</time>
      </trkpt>
      <trkpt lat="47.76289" lon="8.83546">
        <ele>429.284892</ele>
        <time>2022-09-14T05:35:35.441Z</time>
      </trkpt>
      <trkpt lat="47.76275" lon="8.83485">
        <ele>428.94514</ele>
        <time>2022-09-14T05:35:45.757Z</time>
      </trkpt>
      <trkpt lat="47.76264" lon="8.83437">
        <ele>428.674935</ele>
        <time>2022-09-14T05:35:53.948Z</time>
      </trkpt>
      <trkpt lat="47.76262" lon="8.83428">
        <ele>428.627713</ele>
        <time>2022-09-14T05:35:55.558Z</time>
      </trkpt>
      <trkpt lat="47.76291" lon="8.83416">
        <ele>428.390436</ele>
        <time>2022-09-14T05:36:02.791Z</time>
      </trkpt>
      <trkpt lat="47.76312" lon="8.83408">
        <ele>428.254877</ele>
        <time>2022-09-14T05:36:08.218Z</time>
      </trkpt>
      <trkpt lat="47.76319" lon="8.83405">
        <ele>428.217619</ele>
        <time>2022-09-14T05:36:10.131Z</time>
      </trkpt>
      <trkpt lat="47.76328" lon="8.834">
        <ele>428.170923</ele>
        <time>2022-09-14T05:36:12.859Z</time>
      </trkpt>
      <trkpt lat="47.76324" lon="8.83385">
        <ele>428.117894</ele>
        <time>2022-09-14T05:36:16.013Z</time>
      </trkpt>
      <trkpt lat="47.7632" lon="8.83366">
        <ele>428.054409</ele>
        <time>2022-09-14T05:36:19.491Z</time>
      </trkpt>
      <trkpt lat="47.76324" lon="8.83364">
        <ele>428.035402</ele>
        <time>2022-09-14T05:36:20.493Z</time>
      </trkpt>
      <trkpt lat="47.76306" lon="8.83286">
        <ele>427.764486</ele>
        <time>2022-09-14T05:36:34.515Z</time>
      </trkpt>
      <trkpt lat="47.76275" lon="8.83182">
        <ele>427.386472</ele>
        <time>2022-09-14T05:36:52.367Z</time>
      </trkpt>
      <trkpt lat="47.76226" lon="8.83034">
        <ele>426.784331</ele>
        <time>2022-09-14T05:37:18.884Z</time>
      </trkpt>
      <trkpt lat="47.76208" lon="8.8297">
        <ele>426.531007</ele>
        <time>2022-09-14T05:37:30.455Z</time>
      </trkpt>
      <trkpt lat="47.76206" lon="8.82964">
        <ele>426.506891</ele>
        <time>2022-09-14T05:37:31.560Z</time>
      </trkpt>
      <trkpt lat="47.76201" lon="8.8295">
        <ele>426.446451</ele>
        <time>2022-09-14T05:37:34.352Z</time>
      </trkpt>
      <trkpt lat="47.762" lon="8.82948">
        <ele>426.473705</ele>
        <time>2022-09-14T05:37:34.742Z</time>
      </trkpt>
      <trkpt lat="47.76197" lon="8.82938">
        <ele>426.616439</ele>
        <time>2022-09-14T05:37:36.625Z</time>
      </trkpt>
      <trkpt lat="47.76196" lon="8.82919">
        <ele>426.864316</ele>
        <time>2022-09-14T05:37:40.202Z</time>
      </trkpt>
      <trkpt lat="47.76188" lon="8.82898">
        <ele>427.188264</ele>
        <time>2022-09-14T05:37:44.770Z</time>
      </trkpt>
      <trkpt lat="47.76176" lon="8.82886">
        <ele>427.459207</ele>
        <time>2022-09-14T05:37:49.012Z</time>
      </trkpt>
      <trkpt lat="47.76172" lon="8.8288">
        <ele>427.572748</ele>
        <time>2022-09-14T05:37:50.817Z</time>
      </trkpt>
      <trkpt lat="47.76163" lon="8.82856">
        <ele>427.930353</ele>
        <time>2022-09-14T05:37:56.500Z</time>
      </trkpt>
      <trkpt lat="47.76143" lon="8.82812">
        <ele>428.629582</ele>
        <time>2022-09-14T05:38:09.249Z</time>
      </trkpt>
      <trkpt lat="47.76112" lon="8.82736">
        <ele>429.804461</ele>
        <time>2022-09-14T05:38:34.810Z</time>
      </trkpt>
      <trkpt lat="47.76107" lon="8.82722">
        <ele>430.07391</ele>
        <time>2022-09-14T05:38:39.838Z</time>
      </trkpt>
      <trkpt lat="47.76096" lon="8.82692">
        <ele>431.081617</ele>
        <time>2022-09-14T05:38:50.883Z</time>
      </trkpt>
      <trkpt lat="47.76093" lon="8.82684">
        <ele>431.368719</ele>
        <time>2022-09-14T05:38:54.223Z</time>
      </trkpt>
      <trkpt lat="47.7608" lon="8.82644">
        <ele>432.680074</ele>
        <time>2022-09-14T05:39:08.903Z</time>
      </trkpt>
      <trkpt lat="47.76059" lon="8.82575">
        <ele>434.945297</ele>
        <time>2022-09-14T05:39:34.592Z</time>
      </trkpt>
      <trkpt lat="47.76044" lon="8.82524">
        <ele>436.599281</ele>
        <time>2022-09-14T05:39:52.656Z</time>
      </trkpt>
      <trkpt lat="47.7603" lon="8.82495">
        <ele>437.684354</ele>
        <time>2022-09-14T05:40:04.164Z</time>
      </trkpt>
      <trkpt lat="47.76022" lon="8.82485">
        <ele>438.075698</ele>
        <time>2022-09-14T05:40:09.351Z</time>
      </trkpt>
      <trkpt lat="47.75997" lon="8.82464">
        <ele>438.76161</ele>
        <time>2022-09-14T05:40:22.566Z</time>
      </trkpt>
      <trkpt lat="47.75972" lon="8.82452">
        <ele>439.380574</ele>
        <time>2022-09-14T05:40:34.127Z</time>
      </trkpt>
      <trkpt lat="47.75965" lon="8.82449">
        <ele>439.561563</ele>
        <time>2022-09-14T05:40:37.434Z</time>
      </trkpt>
      <trkpt lat="47.75944" lon="8.82441">
        <ele>440.07769</ele>
        <time>2022-09-14T05:40:46.356Z</time>
      </trkpt>
      <trkpt lat="47.75914" lon="8.82418">
        <ele>440.874043</ele>
        <time>2022-09-14T05:40:58.775Z</time>
      </trkpt>
      <trkpt lat="47.75869" lon="8.82398">
        <ele>441.993151</ele>
        <time>2022-09-14T05:41:13.065Z</time>
      </trkpt>
      <trkpt lat="47.75832" lon="8.82375">
        <ele>442.323943</ele>
        <time>2022-09-14T05:41:23.841Z</time>
      </trkpt>
      <trkpt lat="47.75828" lon="8.82382">
        <ele>442.339366</ele>
        <time>2022-09-14T05:41:26.109Z</time>
      </trkpt>
      <trkpt lat="47.75825" lon="8.82389">
        <ele>442.352643</ele>
        <time>2022-09-14T05:41:27.623Z</time>
      </trkpt>
      <trkpt lat="47.75819" lon="8.82382">
        <ele>442.371137</ele>
        <time>2022-09-14T05:41:29.496Z</time>
      </trkpt>
      <trkpt lat="47.75798" lon="8.82363">
        <ele>442.433447</ele>
        <time>2022-09-14T05:41:36.127Z</time>
      </trkpt>
      <trkpt lat="47.75739" lon="8.82289">
        <ele>442.630823</ele>
        <time>2022-09-14T05:41:57.953Z</time>
      </trkpt>
      <trkpt lat="47.75714" lon="8.82259">
        <ele>442.700183</ele>
        <time>2022-09-14T05:42:06.784Z</time>
      </trkpt>
      <trkpt lat="47.75701" lon="8.82242">
        <ele>442.659413</ele>
        <time>2022-09-14T05:42:11.470Z</time>
      </trkpt>
      <trkpt lat="47.75618" lon="8.82144">
        <ele>442.410118</ele>
        <time>2022-09-14T05:42:38.953Z</time>
      </trkpt>
      <trkpt lat="47.75464" lon="8.81964">
        <ele>441.597395</ele>
        <time>2022-09-14T05:43:26.769Z</time>
      </trkpt>
      <trkpt lat="47.75446" lon="8.81952">
        <ele>441.505177</ele>
        <time>2022-09-14T05:43:31.499Z</time>
      </trkpt>
      <trkpt lat="47.75434" lon="8.81941">
        <ele>441.436621</ele>
        <time>2022-09-14T05:43:34.917Z</time>
      </trkpt>
      <trkpt lat="47.75424" lon="8.81932">
        <ele>441.468121</ele>
        <time>2022-09-14T05:43:38.049Z</time>
      </trkpt>
      <trkpt lat="47.75415" lon="8.81929">
        <ele>441.538902</ele>
        <time>2022-09-14T05:43:40.463Z</time>
      </trkpt>
      <trkpt lat="47.75416" lon="8.81924">
        <ele>441.567337</ele>
        <time>2022-09-14T05:43:41.475Z</time>
      </trkpt>
      <trkpt lat="47.75413" lon="8.81912">
        <ele>441.632375</ele>
        <time>2022-09-14T05:43:43.544Z</time>
      </trkpt>
      <trkpt lat="47.75384" lon="8.81875">
        <ele>441.920569</ele>
        <time>2022-09-14T05:43:54.377Z</time>
      </trkpt>
      <trkpt lat="47.75327" lon="8.81819">
        <ele>442.431308</ele>
        <time>2022-09-14T05:44:16.031Z</time>
      </trkpt>
      <trkpt lat="47.75285" lon="8.81793">
        <ele>442.788295</ele>
        <time>2022-09-14T05:44:31.532Z</time>
      </trkpt>
      <trkpt lat="47.75231" lon="8.81772">
        <ele>443.650955</ele>
        <time>2022-09-14T05:44:51.065Z</time>
      </trkpt>
      <trkpt lat="47.75182" lon="8.81754">
        <ele>444.438527</ele>
        <time>2022-09-14T05:45:09.099Z</time>
      </trkpt>
      <trkpt lat="47.75056" lon="8.81694">
        <ele>445.896393</ele>
        <time>2022-09-14T05:45:53.088Z</time>
      </trkpt>
      <trkpt lat="47.75047" lon="8.81689">
        <ele>445.951177</ele>
        <time>2022-09-14T05:45:55.886Z</time>
      </trkpt>
      <trkpt lat="47.74984" lon="8.81654">
        <ele>446.325782</ele>
        <time>2022-09-14T05:46:14.168Z</time>
      </trkpt>
      <trkpt lat="47.74966" lon="8.81655">
        <ele>446.423094</ele>
        <time>2022-09-14T05:46:19.117Z</time>
      </trkpt>
      <trkpt lat="47.74944" lon="8.81647">
        <ele>446.551732</ele>
        <time>2022-09-14T05:46:25.120Z</time>
      </trkpt>
      <trkpt lat="47.74917" lon="8.81614">
        <ele>446.464571</ele>
        <time>2022-09-14T05:46:34.328Z</time>
      </trkpt>
      <trkpt lat="47.74879" lon="8.81596">
        <ele>446.338009</ele>
        <time>2022-09-14T05:46:44.743Z</time>
      </trkpt>
      <trkpt lat="47.74809" lon="8.81551">
        <ele>446.10075</ele>
        <time>2022-09-14T05:47:03.213Z</time>
      </trkpt>
      <trkpt lat="47.74636" lon="8.81423">
        <ele>445.494478</ele>
        <time>2022-09-14T05:47:51.923Z</time>
      </trkpt>
      <trkpt lat="47.74636" lon="8.81413">
        <ele>445.473043</ele>
        <time>2022-09-14T05:47:53.628Z</time>
      </trkpt>
      <trkpt lat="47.74642" lon="8.81395">
        <ele>445.454867</ele>
        <time>2022-09-14T05:47:57.087Z</time>
      </trkpt>
      <trkpt lat="47.7464" lon="8.81382">
        <ele>445.499257</ele>
        <time>2022-09-14T05:47:59.571Z</time>
      </trkpt>
      <trkpt lat="47.74614" lon="8.81352">
        <ele>445.673536</ele>
        <time>2022-09-14T05:48:08.381Z</time>
      </trkpt>
      <trkpt lat="47.74569" lon="8.81261">
        <ele>446.073614</ele>
        <time>2022-09-14T05:48:31.487Z</time>
      </trkpt>
      <trkpt lat="47.74536" lon="8.81145">
        <ele>446.347878</ele>
        <time>2022-09-14T05:48:58.135Z</time>
      </trkpt>
      <trkpt lat="47.74511" lon="8.81129">
        <ele>446.310187</ele>
        <time>2022-09-14T05:49:05.130Z</time>
      </trkpt>
      <trkpt lat="47.7449" lon="8.81133">
        <ele>446.280302</ele>
        <time>2022-09-14T05:49:10.741Z</time>
      </trkpt>
      <trkpt lat="47.74464" lon="8.81149">
        <ele>446.241649</ele>
        <time>2022-09-14T05:49:18.043Z</time>
      </trkpt>
      <trkpt lat="47.74398" lon="8.81187">
        <ele>446.143927</ele>
        <time>2022-09-14T05:49:35.497Z</time>
      </trkpt>
      <trkpt lat="47.74388" lon="8.81187">
        <ele>446.10814</ele>
        <time>2022-09-14T05:49:37.779Z</time>
      </trkpt>
      <trkpt lat="47.74367" lon="8.81194">
        <ele>445.931852</ele>
        <time>2022-09-14T05:49:42.962Z</time>
      </trkpt>
      <trkpt lat="47.74355" lon="8.81191">
        <ele>445.831653</ele>
        <time>2022-09-14T05:49:45.745Z</time>
      </trkpt>
      <trkpt lat="47.74157" lon="8.81059">
        <ele>444.53144</ele>
        <time>2022-09-14T05:50:36.782Z</time>
      </trkpt>
      <trkpt lat="47.74018" lon="8.8093">
        <ele>444.059877</ele>
        <time>2022-09-14T05:51:23.402Z</time>
      </trkpt>
      <trkpt lat="47.73938" lon="8.80822">
        <ele>443.505857</ele>
        <time>2022-09-14T05:51:48.712Z</time>
      </trkpt>
      <trkpt lat="47.73893" lon="8.80731">
        <ele>442.669941</ele>
        <time>2022-09-14T05:52:05.770Z</time>
      </trkpt>
      <trkpt lat="47.73863" lon="8.80637">
        <ele>441.810175</ele>
        <time>2022-09-14T05:52:21.214Z</time>
      </trkpt>
      <trkpt lat="47.73846" lon="8.80546">
        <ele>441.102082</ele>
        <time>2022-09-14T05:52:35.565Z</time>
      </trkpt>
      <trkpt lat="47.73832" lon="8.80379">
        <ele>440.275934</ele>
        <time>2022-09-14T05:53:03.439Z</time>
      </trkpt>
      <trkpt lat="47.73813" lon="8.80144">
        <ele>439.058684</ele>
        <time>2022-09-14T05:53:41.285Z</time>
      </trkpt>
      <trkpt lat="47.73787" lon="8.79846">
        <ele>437.450033</ele>
        <time>2022-09-14T05:54:29.015Z</time>
      </trkpt>
      <trkpt lat="47.73781" lon="8.79704">
        <ele>436.888597</ele>
        <time>2022-09-14T05:54:52.014Z</time>
      </trkpt>
      <trkpt lat="47.73783" lon="8.7968">
        <ele>436.831397</ele>
        <time>2022-09-14T05:54:56.005Z</time>
      </trkpt>
      <trkpt lat="47.73791" lon="8.79661">
        <ele>436.77982</ele>
        <time>2022-09-14T05:54:59.705Z</time>
      </trkpt>
      <trkpt lat="47.73789" lon="8.79641">
        <ele>436.732519</ele>
        <time>2022-09-14T05:55:03.070Z</time>
      </trkpt>
      <trkpt lat="47.73788" lon="8.7962">
        <ele>436.684104</ele>
        <time>2022-09-14T05:55:06.533Z</time>
      </trkpt>
      <trkpt lat="47.73777" lon="8.79619">
        <ele>436.64784</ele>
        <time>2022-09-14T05:55:09.229Z</time>
      </trkpt>
      <trkpt lat="47.73772" lon="8.79608">
        <ele>436.616446</ele>
        <time>2022-09-14T05:55:11.481Z</time>
      </trkpt>
      <trkpt lat="47.73712" lon="8.78934">
        <ele>437.122148</ele>
        <time>2022-09-14T05:57:17.207Z</time>
      </trkpt>
      <trkpt lat="47.73707" lon="8.78884">
        <ele>437.186341</ele>
        <time>2022-09-14T05:57:26.924Z</time>
      </trkpt>
      <trkpt lat="47.73703" lon="8.78876">
        <ele>437.199375</ele>
        <time>2022-09-14T05:57:29.328Z</time>
      </trkpt>
      <trkpt lat="47.73698" lon="8.78854">
        <ele>437.228016</ele>
        <time>2022-09-14T05:57:33.448Z</time>
      </trkpt>
      <trkpt lat="47.7369" lon="8.7882">
        <ele>437.273108</ele>
        <time>2022-09-14T05:57:40.377Z</time>
      </trkpt>
      <trkpt lat="47.73611" lon="8.78425">
        <ele>436.977068</ele>
        <time>2022-09-14T05:58:52.360Z</time>
      </trkpt>
      <trkpt lat="47.73609" lon="8.78416">
        <ele>436.962283</ele>
        <time>2022-09-14T05:58:53.955Z</time>
      </trkpt>
      <trkpt lat="47.7357" lon="8.78235">
        <ele>436.659211</ele>
        <time>2022-09-14T05:59:26.834Z</time>
      </trkpt>
      <trkpt lat="47.73534" lon="8.78169">
        <ele>436.201383</ele>
        <time>2022-09-14T05:59:41.082Z</time>
      </trkpt>
      <trkpt lat="47.73512" lon="8.78138">
        <ele>435.935316</ele>
        <time>2022-09-14T05:59:48.501Z</time>
      </trkpt>
      <trkpt lat="47.73505" lon="8.78139">
        <ele>435.876876</ele>
        <time>2022-09-14T05:59:50.090Z</time>
      </trkpt>
      <trkpt lat="47.73535" lon="8.78058">
        <ele>435.334937</ele>
        <time>2022-09-14T06:00:04.621Z</time>
      </trkpt>
      <trkpt lat="47.73549" lon="8.7802">
        <ele>435.079801</ele>
        <time>2022-09-14T06:00:11.081Z</time>
      </trkpt>
      <trkpt lat="47.73573" lon="8.77951">
        <ele>433.912122</ele>
        <time>2022-09-14T06:00:22.213Z</time>
      </trkpt>
      <trkpt lat="47.73586" lon="8.77913">
        <ele>433.277894</ele>
        <time>2022-09-14T06:00:28.023Z</time>
      </trkpt>
      <trkpt lat="47.73588" lon="8.77903">
        <ele>433.125591</ele>
        <time>2022-09-14T06:00:29.386Z</time>
      </trkpt>
      <trkpt lat="47.73554" lon="8.7786">
        <ele>432.127363</ele>
        <time>2022-09-14T06:00:38.363Z</time>
      </trkpt>
      <trkpt lat="47.73538" lon="8.77828">
        <ele>431.527791</ele>
        <time>2022-09-14T06:00:43.819Z</time>
      </trkpt>
      <trkpt lat="47.73514" lon="8.77777">
        <ele>430.78288</ele>
        <time>2022-09-14T06:00:52.663Z</time>
      </trkpt>
      <trkpt lat="47.73487" lon="8.77736">
        <ele>430.269075</ele>
        <time>2022-09-14T06:01:00.825Z</time>
      </trkpt>
      <trkpt lat="47.73502" lon="8.77705">
        <ele>429.913934</ele>
        <time>2022-09-14T06:01:06.519Z</time>
      </trkpt>
      <trkpt lat="47.73508" lon="8.77688">
        <ele>429.738474</ele>
        <time>2022-09-14T06:01:09.465Z</time>
      </trkpt>
      <trkpt lat="47.73505" lon="8.77667">
        <ele>429.544464</ele>
        <time>2022-09-14T06:01:12.631Z</time>
      </trkpt>
      <trkpt lat="47.73498" lon="8.77652">
        <ele>429.374887</ele>
        <time>2022-09-14T06:01:15.383Z</time>
      </trkpt>
      <trkpt lat="47.73493" lon="8.7764">
        <ele>429.242575</ele>
        <time>2022-09-14T06:01:17.664Z</time>
      </trkpt>
      <trkpt lat="47.73484" lon="8.77621">
        <ele>429.029691</ele>
        <time>2022-09-14T06:01:21.267Z</time>
      </trkpt>
      <trkpt lat="47.73476" lon="8.77596">
        <ele>428.776045</ele>
        <time>2022-09-14T06:01:25.664Z</time>
      </trkpt>
      <trkpt lat="47.73475" lon="8.77582">
        <ele>428.649349</ele>
        <time>2022-09-14T06:01:27.959Z</time>
      </trkpt>
      <trkpt lat="47.73488" lon="8.77528">
        <ele>428.813367</ele>
        <time>2022-09-14T06:01:37.628Z</time>
      </trkpt>
      <trkpt lat="47.73489" lon="8.77525">
        <ele>428.82431</ele>
        <time>2022-09-14T06:01:38.236Z</time>
      </trkpt>
      <trkpt lat="47.73513" lon="8.77443">
        <ele>429.10963</ele>
        <time>2022-09-14T06:01:56.068Z</time>
      </trkpt>
      <trkpt lat="47.73525" lon="8.77404">
        <ele>429.245065</ele>
        <time>2022-09-14T06:02:05.200Z</time>
      </trkpt>
      <trkpt lat="47.73543" lon="8.77349">
        <ele>429.44193</ele>
        <time>2022-09-14T06:02:18.481Z</time>
      </trkpt>
      <trkpt lat="47.73545" lon="8.77343">
        <ele>429.462392</ele>
        <time>2022-09-14T06:02:19.822Z</time>
      </trkpt>
      <trkpt lat="47.73563" lon="8.77306">
        <ele>429.833936</ele>
        <time>2022-09-14T06:02:29.196Z</time>
      </trkpt>
      <trkpt lat="47.73567" lon="8.77298">
        <ele>429.928656</ele>
        <time>2022-09-14T06:02:31.307Z</time>
      </trkpt>
      <trkpt lat="47.73572" lon="8.77289">
        <ele>430.033645</ele>
        <time>2022-09-14T06:02:33.689Z</time>
      </trkpt>
      <trkpt lat="47.73582" lon="8.7727">
        <ele>430.247959</ele>
        <time>2022-09-14T06:02:38.530Z</time>
      </trkpt>
      <trkpt lat="47.73596" lon="8.77245">
        <ele>430.55122</ele>
        <time>2022-09-14T06:02:45.573Z</time>
      </trkpt>
      <trkpt lat="47.73618" lon="8.77206">
        <ele>431.023041</ele>
        <time>2022-09-14T06:02:57.194Z</time>
      </trkpt>
      <trkpt lat="47.73629" lon="8.77186">
        <ele>431.260968</ele>
        <time>2022-09-14T06:03:03.344Z</time>
      </trkpt>
      <trkpt lat="47.73642" lon="8.77163">
        <ele>431.530966</ele>
        <time>2022-09-14T06:03:10.558Z</time>
      </trkpt>
      <trkpt lat="47.73665" lon="8.77121">
        <ele>432.001738</ele>
        <time>2022-09-14T06:03:23.604Z</time>
      </trkpt>
      <trkpt lat="47.73673" lon="8.7709">
        <ele>432.208275</ele>
        <time>2022-09-14T06:03:31.651Z</time>
      </trkpt>
      <trkpt lat="47.73675" lon="8.77072">
        <ele>432.319186</ele>
        <time>2022-09-14T06:03:35.984Z</time>
      </trkpt>
      <trkpt lat="47.73677" lon="8.76962">
        <ele>432.982979</ele>
        <time>2022-09-14T06:03:58.923Z</time>
      </trkpt>
      <trkpt lat="47.73653" lon="8.76963">
        <ele>433.201746</ele>
        <time>2022-09-14T06:04:06.097Z</time>
      </trkpt>
      <trkpt lat="47.73665" lon="8.76916">
        <ele>433.51253</ele>
        <time>2022-09-14T06:04:16.179Z</time>
      </trkpt>
      <trkpt lat="47.73663" lon="8.76823">
        <ele>432.97991</ele>
        <time>2022-09-14T06:04:32.289Z</time>
      </trkpt>
      <trkpt lat="47.73662" lon="8.76791">
        <ele>432.7593</ele>
        <time>2022-09-14T06:04:37.198Z</time>
      </trkpt>
      <trkpt lat="47.73663" lon="8.76772">
        <ele>432.6299</ele>
        <time>2022-09-14T06:04:39.926Z</time>
      </trkpt>
      <trkpt lat="47.73664" lon="8.76755">
        <ele>432.508848</ele>
        <time>2022-09-14T06:04:42.436Z</time>
      </trkpt>
      <trkpt lat="47.73665" lon="8.76733">
        <ele>432.351537</ele>
        <time>2022-09-14T06:04:45.696Z</time>
      </trkpt>
      <trkpt lat="47.73667" lon="8.76699">
        <ele>432.11383</ele>
        <time>2022-09-14T06:04:50.543Z</time>
      </trkpt>
      <trkpt lat="47.73683" lon="8.76489">
        <ele>430.643842</ele>
        <time>2022-09-14T06:05:21.765Z</time>
      </trkpt>
      <trkpt lat="47.73693" lon="8.76352">
        <ele>429.965154</ele>
        <time>2022-09-14T06:05:44.217Z</time>
      </trkpt>
      <trkpt lat="47.73696" lon="8.76337">
        <ele>430.054553</ele>
        <time>2022-09-14T06:05:47.132Z</time>
      </trkpt>
      <trkpt lat="47.73692" lon="8.76309">
        <ele>430.218492</ele>
        <time>2022-09-14T06:05:52.664Z</time>
      </trkpt>
      <trkpt lat="47.73704" lon="8.7625">
        <ele>430.568159</ele>
        <time>2022-09-14T06:06:05.477Z</time>
      </trkpt>
      <trkpt lat="47.73719" lon="8.76106">
        <ele>431.422918</ele>
        <time>2022-09-14T06:06:37.996Z</time>
      </trkpt>
      <trkpt lat="47.73746" lon="8.75936">
        <ele>433.160111</ele>
        <time>2022-09-14T06:07:18.182Z</time>
      </trkpt>
      <trkpt lat="47.73769" lon="8.75857">
        <ele>434.017735</ele>
        <time>2022-09-14T06:07:37.824Z</time>
      </trkpt>
      <trkpt lat="47.73784" lon="8.7576">
        <ele>434.563039</ele>
        <time>2022-09-14T06:07:59.707Z</time>
      </trkpt>
      <trkpt lat="47.73787" lon="8.75664">
        <ele>435.092405</ele>
        <time>2022-09-14T06:08:19.786Z</time>
      </trkpt>
      <trkpt lat="47.73769" lon="8.75538">
        <ele>435.408636</ele>
        <time>2022-09-14T06:08:43.232Z</time>
      </trkpt>
      <trkpt lat="47.73753" lon="8.75483">
        <ele>435.320435</ele>
        <time>2022-09-14T06:08:53.629Z</time>
      </trkpt>
      <trkpt lat="47.73716" lon="8.75394">
        <ele>435.16919</ele>
        <time>2022-09-14T06:09:11.071Z</time>
      </trkpt>
      <trkpt lat="47.7367" lon="8.75313">
        <ele>435.75123</ele>
        <time>2022-09-14T06:09:28.701Z</time>
      </trkpt>
      <trkpt lat="47.7364" lon="8.75246">
        <ele>436.622289</ele>
        <time>2022-09-14T06:09:44.910Z</time>
      </trkpt>
      <trkpt lat="47.73613" lon="8.75168">
        <ele>437.575424</ele>
        <time>2022-09-14T06:10:08.106Z</time>
      </trkpt>
      <trkpt lat="47.73595" lon="8.75102">
        <ele>438.899213</ele>
        <time>2022-09-14T06:10:29.415Z</time>
      </trkpt>
      <trkpt lat="47.73592" lon="8.75084">
        <ele>439.439432</ele>
        <time>2022-09-14T06:10:35.761Z</time>
      </trkpt>
      <trkpt lat="47.7358" lon="8.74952">
        <ele>443.216393</ele>
        <time>2022-09-14T06:11:19.913Z</time>
      </trkpt>
      <trkpt lat="47.73582" lon="8.74875">
        <ele>445.429224</ele>
        <time>2022-09-14T06:11:44.935Z</time>
      </trkpt>
      <trkpt lat="47.73596" lon="8.74802">
        <ele>446.546823</ele>
        <time>2022-09-14T06:12:07.723Z</time>
      </trkpt>
      <trkpt lat="47.73634" lon="8.74676">
        <ele>448.408696</ele>
        <time>2022-09-14T06:12:40.817Z</time>
      </trkpt>
      <trkpt lat="47.73638" lon="8.74644">
        <ele>448.848963</ele>
        <time>2022-09-14T06:12:47.570Z</time>
      </trkpt>
      <trkpt lat="47.73649" lon="8.74617">
        <ele>449.18304</ele>
        <time>2022-09-14T06:12:53.963Z</time>
      </trkpt>
      <trkpt lat="47.73665" lon="8.74598">
        <ele>448.84773</ele>
        <time>2022-09-14T06:12:59.477Z</time>
      </trkpt>
      <trkpt lat="47.73736" lon="8.74432">
        <ele>446.734851</ele>
        <time>2022-09-14T06:13:28.337Z</time>
      </trkpt>
      <trkpt lat="47.73739" lon="8.74406">
        <ele>446.450363</ele>
        <time>2022-09-14T06:13:31.779Z</time>
      </trkpt>
      <trkpt lat="47.73757" lon="8.74373">
        <ele>445.421944</ele>
        <time>2022-09-14T06:13:37.246Z</time>
      </trkpt>
      <trkpt lat="47.7384" lon="8.74169">
        <ele>438.749291</ele>
        <time>2022-09-14T06:14:06.785Z</time>
      </trkpt>
      <trkpt lat="47.73869" lon="8.74074">
        <ele>436.936684</ele>
        <time>2022-09-14T06:14:20.076Z</time>
      </trkpt>
      <trkpt lat="47.73869" lon="8.74059">
        <ele>436.673306</ele>
        <time>2022-09-14T06:14:22.088Z</time>
      </trkpt>
      <trkpt lat="47.73856" lon="8.7403">
        <ele>436.070614</ele>
        <time>2022-09-14T06:14:26.897Z</time>
      </trkpt>
      <trkpt lat="47.73855" lon="8.74005">
        <ele>435.625856</ele>
        <time>2022-09-14T06:14:30.529Z</time>
      </trkpt>
      <trkpt lat="47.7386" lon="8.74004">
        <ele>435.503375</ele>
        <time>2022-09-14T06:14:31.570Z</time>
      </trkpt>
      <trkpt lat="47.73872" lon="8.74002">
        <ele>435.182623</ele>
        <time>2022-09-14T06:14:34.277Z</time>
      </trkpt>
      <trkpt lat="47.73872" lon="8.73983">
        <ele>434.85115</ele>
        <time>2022-09-14T06:14:37.133Z</time>
      </trkpt>
      <trkpt lat="47.73889" lon="8.73904">
        <ele>433.989051</ele>
        <time>2022-09-14T06:14:50.516Z</time>
      </trkpt>
      <trkpt lat="47.73903" lon="8.73858">
        <ele>433.790006</ele>
        <time>2022-09-14T06:14:58.657Z</time>
      </trkpt>
      <trkpt lat="47.73913" lon="8.73837">
        <ele>433.68827</ele>
        <time>2022-09-14T06:15:02.825Z</time>
      </trkpt>
      <trkpt lat="47.7395" lon="8.73767">
        <ele>433.340186</ele>
        <time>2022-09-14T06:15:17.671Z</time>
      </trkpt>
      <trkpt lat="47.73964" lon="8.73698">
        <ele>433.030714</ele>
        <time>2022-09-14T06:15:30.189Z</time>
      </trkpt>
      <trkpt lat="47.73981" lon="8.73594">
        <ele>432.374935</ele>
        <time>2022-09-14T06:15:47.763Z</time>
      </trkpt>
      <trkpt lat="47.73989" lon="8.73552">
        <ele>432.109006</ele>
        <time>2022-09-14T06:15:54.500Z</time>
      </trkpt>
      <trkpt lat="47.74" lon="8.73515">
        <ele>431.861351</ele>
        <time>2022-09-14T06:16:00.661Z</time>
      </trkpt>
      <trkpt lat="47.74006" lon="8.73508">
        <ele>431.790862</ele>
        <time>2022-09-14T06:16:02.382Z</time>
      </trkpt>
      <trkpt lat="47.74017" lon="8.73506">
        <ele>431.695008</ele>
        <time>2022-09-14T06:16:04.715Z</time>
      </trkpt>
      <trkpt lat="47.74021" lon="8.73438">
        <ele>431.248468</ele>
        <time>2022-09-14T06:16:14.940Z</time>
      </trkpt>
      <trkpt lat="47.7403" lon="8.73336">
        <ele>430.513128</ele>
        <time>2022-09-14T06:16:30.673Z</time>
      </trkpt>
      <trkpt lat="47.74057" lon="8.73162">
        <ele>429.53907</ele>
        <time>2022-09-14T06:16:58.731Z</time>
      </trkpt>
      <trkpt lat="47.74105" lon="8.7302">
        <ele>429.417747</ele>
        <time>2022-09-14T06:17:27.179Z</time>
      </trkpt>
      <trkpt lat="47.74131" lon="8.72895">
        <ele>429.48674</ele>
        <time>2022-09-14T06:17:51.975Z</time>
      </trkpt>
      <trkpt lat="47.74132" lon="8.7288">
        <ele>429.514306</ele>
        <time>2022-09-14T06:17:54.993Z</time>
      </trkpt>
      <trkpt lat="47.74137" lon="8.72849">
        <ele>429.56865</ele>
        <time>2022-09-14T06:18:00.888Z</time>
      </trkpt>
      <trkpt lat="47.74144" lon="8.72807">
        <ele>429.642596</ele>
        <time>2022-09-14T06:18:08.975Z</time>
      </trkpt>
      <trkpt lat="47.74163" lon="8.72774">
        <ele>429.716129</ele>
        <time>2022-09-14T06:18:17.059Z</time>
      </trkpt>
      <trkpt lat="47.7419" lon="8.72724">
        <ele>429.827642</ele>
        <time>2022-09-14T06:18:29.124Z</time>
      </trkpt>
      <trkpt lat="47.74202" lon="8.72657">
        <ele>429.921592</ele>
        <time>2022-09-14T06:18:41.704Z</time>
      </trkpt>
      <trkpt lat="47.74228" lon="8.7225">
        <ele>430.605685</ele>
        <time>2022-09-14T06:19:58.103Z</time>
      </trkpt>
      <trkpt lat="47.74224" lon="8.72204">
        <ele>430.697362</ele>
        <time>2022-09-14T06:20:07.254Z</time>
      </trkpt>
      <trkpt lat="47.74209" lon="8.72134">
        <ele>430.870198</ele>
        <time>2022-09-14T06:20:21.566Z</time>
      </trkpt>
      <trkpt lat="47.74208" lon="8.72104">
        <ele>430.940591</ele>
        <time>2022-09-14T06:20:27.232Z</time>
      </trkpt>
      <trkpt lat="47.74215" lon="8.72062">
        <ele>431.047551</ele>
        <time>2022-09-14T06:20:35.867Z</time>
      </trkpt>
      <trkpt lat="47.74208" lon="8.7203">
        <ele>431.128747</ele>
        <time>2022-09-14T06:20:42.182Z</time>
      </trkpt>
      <trkpt lat="47.74218" lon="8.71983">
        <ele>431.250192</ele>
        <time>2022-09-14T06:20:51.821Z</time>
      </trkpt>
      <trkpt lat="47.74222" lon="8.71931">
        <ele>431.362005</ele>
        <time>2022-09-14T06:21:01.791Z</time>
      </trkpt>
      <trkpt lat="47.74208" lon="8.71784">
        <ele>431.246716</ele>
        <time>2022-09-14T06:21:28.405Z</time>
      </trkpt>
      <trkpt lat="47.74213" lon="8.7169">
        <ele>431.173669</ele>
        <time>2022-09-14T06:21:44.273Z</time>
      </trkpt>
      <trkpt lat="47.74224" lon="8.7168">
        <ele>431.159578</ele>
        <time>2022-09-14T06:21:47.517Z</time>
      </trkpt>
      <trkpt lat="47.74226" lon="8.71671">
        <ele>431.151475</ele>
        <time>2022-09-14T06:21:49.024Z</time>
      </trkpt>
      <trkpt lat="47.74243" lon="8.71604">
        <ele>431.092321</ele>
        <time>2022-09-14T06:22:01.231Z</time>
      </trkpt>
      <trkpt lat="47.74262" lon="8.71552">
        <ele>431.042249</ele>
        <time>2022-09-14T06:22:11.650Z</time>
      </trkpt>
      <trkpt lat="47.7432" lon="8.71465">
        <ele>430.939557</ele>
        <time>2022-09-14T06:22:33.167Z</time>
      </trkpt>
      <trkpt lat="47.74454" lon="8.71288">
        <ele>431.965775</ele>
        <time>2022-09-14T06:23:24.832Z</time>
      </trkpt>
      <trkpt lat="47.74504" lon="8.71163">
        <ele>433.687113</ele>
        <time>2022-09-14T06:23:59.975Z</time>
      </trkpt>
      <trkpt lat="47.74511" lon="8.71165">
        <ele>433.813074</ele>
        <time>2022-09-14T06:24:02.610Z</time>
      </trkpt>
      <trkpt lat="47.74522" lon="8.71173">
        <ele>434.041655</ele>
        <time>2022-09-14T06:24:07.294Z</time>
      </trkpt>
      <trkpt lat="47.74528" lon="8.71175">
        <ele>434.148873</ele>
        <time>2022-09-14T06:24:09.472Z</time>
      </trkpt>
      <trkpt lat="47.74552" lon="8.71165">
        <ele>434.601695</ele>
        <time>2022-09-14T06:24:18.936Z</time>
      </trkpt>
      <trkpt lat="47.74562" lon="8.71164">
        <ele>434.781845</ele>
        <time>2022-09-14T06:24:22.641Z</time>
      </trkpt>
      <trkpt lat="47.7458" lon="8.71161">
        <ele>435.101071</ele>
        <time>2022-09-14T06:24:29.238Z</time>
      </trkpt>
      <trkpt lat="47.7459" lon="8.71154">
        <ele>435.280801</ele>
        <time>2022-09-14T06:24:33.052Z</time>
      </trkpt>
      <trkpt lat="47.74635" lon="8.71093">
        <ele>435.851509</ele>
        <time>2022-09-14T06:24:53.779Z</time>
      </trkpt>
      <trkpt lat="47.74665" lon="8.71048">
        <ele>436.253857</ele>
        <time>2022-09-14T06:25:07.611Z</time>
      </trkpt>
      <trkpt lat="47.74681" lon="8.71021">
        <ele>436.480172</ele>
        <time>2022-09-14T06:25:15.245Z</time>
      </trkpt>
      <trkpt lat="47.747" lon="8.70963">
        <ele>436.887229</ele>
        <time>2022-09-14T06:25:27.134Z</time>
      </trkpt>
      <trkpt lat="47.74712" lon="8.70887">
        <ele>437.027464</ele>
        <time>2022-09-14T06:25:40.056Z</time>
      </trkpt>
      <trkpt lat="47.74721" lon="8.7083">
        <ele>437.100737</ele>
        <time>2022-09-14T06:25:49.776Z</time>
      </trkpt>
      <trkpt lat="47.74741" lon="8.70794">
        <ele>437.158489</ele>
        <time>2022-09-14T06:25:58.029Z</time>
      </trkpt>
      <trkpt lat="47.74747" lon="8.70789">
        <ele>437.17177</ele>
        <time>2022-09-14T06:26:00.329Z</time>
      </trkpt>
      <trkpt lat="47.74745" lon="8.70781">
        <ele>437.182509</ele>
        <time>2022-09-14T06:26:02.013Z</time>
      </trkpt>
      <trkpt lat="47.7474" lon="8.70767">
        <ele>437.20202</ele>
        <time>2022-09-14T06:26:05.150Z</time>
      </trkpt>
      <trkpt lat="47.74735" lon="8.70752">
        <ele>437.222138</ele>
        <time>2022-09-14T06:26:08.876Z</time>
      </trkpt>
      <trkpt lat="47.74728" lon="8.70733">
        <ele>437.249415</ele>
        <time>2022-09-14T06:26:13.816Z</time>
      </trkpt>
      <trkpt lat="47.74725" lon="8.70721">
        <ele>437.265459</ele>
        <time>2022-09-14T06:26:16.278Z</time>
      </trkpt>
      <trkpt lat="47.74731" lon="8.70708">
        <ele>437.280889</ele>
        <time>2022-09-14T06:26:19.569Z</time>
      </trkpt>
      <trkpt lat="47.74725" lon="8.70697">
        <ele>437.292802</ele>
        <time>2022-09-14T06:26:22.902Z</time>
      </trkpt>
      <trkpt lat="47.74716" lon="8.70701">
        <ele>437.304429</ele>
        <time>2022-09-14T06:26:25.724Z</time>
      </trkpt>
      <trkpt lat="47.74714" lon="8.70712">
        <ele>437.313431</ele>
        <time>2022-09-14T06:26:27.724Z</time>
      </trkpt>
      <trkpt lat="47.74701" lon="8.70713">
        <ele>437.329303</ele>
        <time>2022-09-14T06:26:31.846Z</time>
      </trkpt>
      <trkpt lat="47.74632" lon="8.70678">
        <ele>437.418067</ele>
        <time>2022-09-14T06:26:52.308Z</time>
      </trkpt>
      <trkpt lat="47.74621" lon="8.70671">
        <ele>437.431523</ele>
        <time>2022-09-14T06:26:55.267Z</time>
      </trkpt>
      <trkpt lat="47.74613" lon="8.70664">
        <ele>437.443155</ele>
        <time>2022-09-14T06:26:57.484Z</time>
      </trkpt>
      <trkpt lat="47.74562" lon="8.70608">
        <ele>437.123973</ele>
        <time>2022-09-14T06:27:13.256Z</time>
      </trkpt>
      <trkpt lat="47.74558" lon="8.70604">
        <ele>437.058516</ele>
        <time>2022-09-14T06:27:14.154Z</time>
      </trkpt>
      <trkpt lat="47.74538" lon="8.70582">
        <ele>436.656444</ele>
        <time>2022-09-14T06:27:20.367Z</time>
      </trkpt>
      <trkpt lat="47.74522" lon="8.70565">
        <ele>436.347975</ele>
        <time>2022-09-14T06:27:24.582Z</time>
      </trkpt>
      <trkpt lat="47.74527" lon="8.70547">
        <ele>436.144104</ele>
        <time>2022-09-14T06:27:27.571Z</time>
      </trkpt>
      <trkpt lat="47.74523" lon="8.70493">
        <ele>435.577274</ele>
        <time>2022-09-14T06:27:35.302Z</time>
      </trkpt>
      <trkpt lat="47.74522" lon="8.7047">
        <ele>435.334874</ele>
        <time>2022-09-14T06:27:38.608Z</time>
      </trkpt>
      <trkpt lat="47.7452" lon="8.7038">
        <ele>434.766622</ele>
        <time>2022-09-14T06:27:51.950Z</time>
      </trkpt>
      <trkpt lat="47.74525" lon="8.70328">
        <ele>434.945415</ele>
        <time>2022-09-14T06:28:00.519Z</time>
      </trkpt>
      <trkpt lat="47.74531" lon="8.70173">
        <ele>435.466472</ele>
        <time>2022-09-14T06:28:31.448Z</time>
      </trkpt>
      <trkpt lat="47.74524" lon="8.6974">
        <ele>448.873216</ele>
        <time>2022-09-14T06:30:53.790Z</time>
      </trkpt>
      <trkpt lat="47.74514" lon="8.69736">
        <ele>449.587376</ele>
        <time>2022-09-14T06:31:02.300Z</time>
      </trkpt>
      <trkpt lat="47.74509" lon="8.69512">
        <ele>458.595599</ele>
        <time>2022-09-14T06:32:44.977Z</time>
      </trkpt>
      <trkpt lat="47.74505" lon="8.69495">
        <ele>459.23139</ele>
        <time>2022-09-14T06:32:51.382Z</time>
      </trkpt>
      <trkpt lat="47.74497" lon="8.69483">
        <ele>459.851425</ele>
        <time>2022-09-14T06:32:58.073Z</time>
      </trkpt>
      <trkpt lat="47.74476" lon="8.69453">
        <ele>461.404221</ele>
        <time>2022-09-14T06:33:12.606Z</time>
      </trkpt>
      <trkpt lat="47.7447" lon="8.69445">
        <ele>461.82026</ele>
        <time>2022-09-14T06:33:16.296Z</time>
      </trkpt>
      <trkpt lat="47.74416" lon="8.69368">
        <ele>463.076569</ele>
        <time>2022-09-14T06:33:43.630Z</time>
      </trkpt>
      <trkpt lat="47.74398" lon="8.69336">
        <ele>461.758203</ele>
        <time>2022-09-14T06:33:49.058Z</time>
      </trkpt>
      <trkpt lat="47.7438" lon="8.6929">
        <ele>460.073371</ele>
        <time>2022-09-14T06:33:55.311Z</time>
      </trkpt>
      <trkpt lat="47.74366" lon="8.6923">
        <ele>458.015207</ele>
        <time>2022-09-14T06:34:02.671Z</time>
      </trkpt>
      <trkpt lat="47.74359" lon="8.6916">
        <ele>455.724987</ele>
        <time>2022-09-14T06:34:10.783Z</time>
      </trkpt>
      <trkpt lat="47.74365" lon="8.6914">
        <ele>454.729206</ele>
        <time>2022-09-14T06:34:13.150Z</time>
      </trkpt>
      <trkpt lat="47.74371" lon="8.69128">
        <ele>454.024288</ele>
        <time>2022-09-14T06:34:15.105Z</time>
      </trkpt>
      <trkpt lat="47.74377" lon="8.69114">
        <ele>453.316578</ele>
        <time>2022-09-14T06:34:16.955Z</time>
      </trkpt>
      <trkpt lat="47.74381" lon="8.69099">
        <ele>452.552139</ele>
        <time>2022-09-14T06:34:18.749Z</time>
      </trkpt>
      <trkpt lat="47.74379" lon="8.69087">
        <ele>451.959963</ele>
        <time>2022-09-14T06:34:20.320Z</time>
      </trkpt>
      <trkpt lat="47.74351" lon="8.69062">
        <ele>449.80393</ele>
        <time>2022-09-14T06:34:25.670Z</time>
      </trkpt>
      <trkpt lat="47.74309" lon="8.69032">
        <ele>446.622644</ele>
        <time>2022-09-14T06:34:33.775Z</time>
      </trkpt>
      <trkpt lat="47.74229" lon="8.69007">
        <ele>442.666157</ele>
        <time>2022-09-14T06:34:48.459Z</time>
      </trkpt>
      <trkpt lat="47.74207" lon="8.68988">
        <ele>442.013371</ele>
        <time>2022-09-14T06:34:53.676Z</time>
      </trkpt>
      <trkpt lat="47.74194" lon="8.68976">
        <ele>441.618661</ele>
        <time>2022-09-14T06:34:56.976Z</time>
      </trkpt>
      <trkpt lat="47.74186" lon="8.68966">
        <ele>441.364323</ele>
        <time>2022-09-14T06:34:59.103Z</time>
      </trkpt>
      <trkpt lat="47.74159" lon="8.68955">
        <ele>440.64365</ele>
        <time>2022-09-14T06:35:05.310Z</time>
      </trkpt>
      <trkpt lat="47.74112" lon="8.68976">
        <ele>439.402877</ele>
        <time>2022-09-14T06:35:16.400Z</time>
      </trkpt>
      <trkpt lat="47.74072" lon="8.68976">
        <ele>438.783071</ele>
        <time>2022-09-14T06:35:25.679Z</time>
      </trkpt>
      <trkpt lat="47.74003" lon="8.68969">
        <ele>438.081492</ele>
        <time>2022-09-14T06:35:42.330Z</time>
      </trkpt>
      <trkpt lat="47.73961" lon="8.68978">
        <ele>437.654211</ele>
        <time>2022-09-14T06:35:52.299Z</time>
      </trkpt>
      <trkpt lat="47.73922" lon="8.69007">
        <ele>437.197331</ele>
        <time>2022-09-14T06:36:02.136Z</time>
      </trkpt>
      <trkpt lat="47.73854" lon="8.69108">
        <ele>435.156981</ele>
        <time>2022-09-14T06:36:22.677Z</time>
      </trkpt>
      <trkpt lat="47.73833" lon="8.69113">
        <ele>434.718295</ele>
        <time>2022-09-14T06:36:26.822Z</time>
      </trkpt>
      <trkpt lat="47.73798" lon="8.691">
        <ele>433.951373</ele>
        <time>2022-09-14T06:36:34.126Z</time>
      </trkpt>
      <trkpt lat="47.73748" lon="8.69067">
        <ele>433.142033</ele>
        <time>2022-09-14T06:36:45.345Z</time>
      </trkpt>
      <trkpt lat="47.73719" lon="8.69031">
        <ele>432.78285</ele>
        <time>2022-09-14T06:36:53.359Z</time>
      </trkpt>
      <trkpt lat="47.7366" lon="8.68861">
        <ele>431.780368</ele>
        <time>2022-09-14T06:37:26.021Z</time>
      </trkpt>
      <trkpt lat="47.73649" lon="8.68818">
        <ele>431.923178</ele>
        <time>2022-09-14T06:37:34.917Z</time>
      </trkpt>
      <trkpt lat="47.73647" lon="8.68785">
        <ele>432.028187</ele>
        <time>2022-09-14T06:37:41.725Z</time>
      </trkpt>
      <trkpt lat="47.7365" lon="8.68608">
        <ele>432.596004</ele>
        <time>2022-09-14T06:38:16.990Z</time>
      </trkpt>
      <trkpt lat="47.73618" lon="8.68455">
        <ele>433.246053</ele>
        <time>2022-09-14T06:38:48.561Z</time>
      </trkpt>
      <trkpt lat="47.73617" lon="8.68259">
        <ele>433.664063</ele>
        <time>2022-09-14T06:39:28.441Z</time>
      </trkpt>
      <trkpt lat="47.73607" lon="8.68176">
        <ele>433.693117</ele>
        <time>2022-09-14T06:39:43.957Z</time>
      </trkpt>
      <trkpt lat="47.73588" lon="8.681">
        <ele>433.721073</ele>
        <time>2022-09-14T06:39:57.141Z</time>
      </trkpt>
      <trkpt lat="47.73551" lon="8.68004">
        <ele>432.895688</ele>
        <time>2022-09-14T06:40:14.157Z</time>
      </trkpt>
      <trkpt lat="47.73511" lon="8.67937">
        <ele>432.224764</ele>
        <time>2022-09-14T06:40:27.407Z</time>
      </trkpt>
      <trkpt lat="47.73282" lon="8.67656">
        <ele>429.507461</ele>
        <time>2022-09-14T06:41:36.793Z</time>
      </trkpt>
      <trkpt lat="47.73146" lon="8.67485">
        <ele>428.762646</ele>
        <time>2022-09-14T06:42:19.801Z</time>
      </trkpt>
      <trkpt lat="47.72843" lon="8.67055">
        <ele>429.462288</ele>
        <time>2022-09-14T06:44:17.882Z</time>
      </trkpt>
      <trkpt lat="47.72804" lon="8.67018">
        <ele>429.591191</ele>
        <time>2022-09-14T06:44:30.078Z</time>
      </trkpt>
      <trkpt lat="47.72748" lon="8.66975">
        <ele>429.758341</ele>
        <time>2022-09-14T06:44:48.291Z</time>
      </trkpt>
      <trkpt lat="47.72686" lon="8.6694">
        <ele>429.932641</ele>
        <time>2022-09-14T06:45:07.210Z</time>
      </trkpt>
      <trkpt lat="47.72602" lon="8.66905">
        <ele>429.910426</ele>
        <time>2022-09-14T06:45:31.214Z</time>
      </trkpt>
      <trkpt lat="47.72486" lon="8.66874">
        <ele>429.297674</ele>
        <time>2022-09-14T06:45:59.702Z</time>
      </trkpt>
      <trkpt lat="47.72292" lon="8.66835">
        <ele>428.7551</ele>
        <time>2022-09-14T06:46:45.988Z</time>
      </trkpt>
      <trkpt lat="47.72274" lon="8.66814">
        <ele>429.019227</ele>
        <time>2022-09-14T06:46:54.621Z</time>
      </trkpt>
      <trkpt lat="47.72258" lon="8.66772">
        <ele>430.067234</ele>
        <time>2022-09-14T06:47:07.441Z</time>
      </trkpt>
      <trkpt lat="47.72253" lon="8.66767">
        <ele>430.251723</ele>
        <time>2022-09-14T06:47:09.492Z</time>
      </trkpt>
      <trkpt lat="47.72253" lon="8.66754">
        <ele>430.553693</ele>
        <time>2022-09-14T06:47:13.486Z</time>
      </trkpt>
      <trkpt lat="47.72261" lon="8.66619">
        <ele>433.486655</ele>
        <time>2022-09-14T06:47:55.333Z</time>
      </trkpt>
      <trkpt lat="47.72275" lon="8.66553">
        <ele>434.894273</ele>
        <time>2022-09-14T06:48:16.707Z</time>
      </trkpt>
      <trkpt lat="47.72283" lon="8.66533">
        <ele>435.304759</ele>
        <time>2022-09-14T06:48:24.065Z</time>
      </trkpt>
      <trkpt lat="47.72289" lon="8.66518">
        <ele>435.622853</ele>
        <time>2022-09-14T06:48:29.432Z</time>
      </trkpt>
      <trkpt lat="47.72316" lon="8.66469">
        <ele>436.747366</ele>
        <time>2022-09-14T06:48:47.019Z</time>
      </trkpt>
      <trkpt lat="47.72332" lon="8.66437">
        <ele>437.443503</ele>
        <time>2022-09-14T06:48:57.262Z</time>
      </trkpt>
      <trkpt lat="47.72339" lon="8.6641">
        <ele>437.94499</ele>
        <time>2022-09-14T06:49:04.022Z</time>
      </trkpt>
      <trkpt lat="47.72306" lon="8.66388">
        <ele>438.90681</ele>
        <time>2022-09-14T06:49:16.947Z</time>
      </trkpt>
      <trkpt lat="47.72266" lon="8.66343">
        <ele>439.480039</ele>
        <time>2022-09-14T06:49:33.476Z</time>
      </trkpt>
      <trkpt lat="47.7222" lon="8.66256">
        <ele>439.963063</ele>
        <time>2022-09-14T06:49:55.779Z</time>
      </trkpt>
      <trkpt lat="47.72213" lon="8.66242">
        <ele>440.037561</ele>
        <time>2022-09-14T06:49:59.156Z</time>
      </trkpt>
      <trkpt lat="47.72202" lon="8.6622">
        <ele>440.158199</ele>
        <time>2022-09-14T06:50:04.635Z</time>
      </trkpt>
      <trkpt lat="47.7216" lon="8.66137">
        <ele>440.250987</ele>
        <time>2022-09-14T06:50:22.913Z</time>
      </trkpt>
      <trkpt lat="47.7212" lon="8.66021">
        <ele>439.833439</ele>
        <time>2022-09-14T06:50:44.168Z</time>
      </trkpt>
      <trkpt lat="47.72096" lon="8.65971">
        <ele>439.637411</ele>
        <time>2022-09-14T06:50:54.051Z</time>
      </trkpt>
      <trkpt lat="47.72071" lon="8.65926">
        <ele>439.397327</ele>
        <time>2022-09-14T06:51:03.890Z</time>
      </trkpt>
      <trkpt lat="47.72058" lon="8.65903">
        <ele>439.249301</ele>
        <time>2022-09-14T06:51:08.848Z</time>
      </trkpt>
      <trkpt lat="47.72043" lon="8.65871">
        <ele>439.054063</ele>
        <time>2022-09-14T06:51:15.177Z</time>
      </trkpt>
      <trkpt lat="47.72008" lon="8.65728">
        <ele>438.303814</ele>
        <time>2022-09-14T06:51:39.472Z</time>
      </trkpt>
      <trkpt lat="47.71993" lon="8.65677">
        <ele>437.857165</ele>
        <time>2022-09-14T06:51:48.470Z</time>
      </trkpt>
      <trkpt lat="47.71977" lon="8.65637">
        <ele>437.410967</ele>
        <time>2022-09-14T06:51:55.871Z</time>
      </trkpt>
      <trkpt lat="47.7196" lon="8.65603">
        <ele>437.012635</ele>
        <time>2022-09-14T06:52:02.210Z</time>
      </trkpt>
      <trkpt lat="47.7194" lon="8.65568">
        <ele>436.581102</ele>
        <time>2022-09-14T06:52:08.942Z</time>
      </trkpt>
      <trkpt lat="47.71921" lon="8.65538">
        <ele>436.194398</ele>
        <time>2022-09-14T06:52:14.860Z</time>
      </trkpt>
      <trkpt lat="47.71903" lon="8.65515">
        <ele>435.85457</ele>
        <time>2022-09-14T06:52:19.977Z</time>
      </trkpt>
      <trkpt lat="47.71895" lon="8.65505">
        <ele>435.713115</ele>
        <time>2022-09-14T06:52:22.124Z</time>
      </trkpt>
      <trkpt lat="47.71879" lon="8.65484">
        <ele>435.159905</ele>
        <time>2022-09-14T06:52:26.686Z</time>
      </trkpt>
      <trkpt lat="47.71863" lon="8.65467">
        <ele>434.661038</ele>
        <time>2022-09-14T06:52:30.713Z</time>
      </trkpt>
      <trkpt lat="47.71822" lon="8.65424">
        <ele>433.361055</ele>
        <time>2022-09-14T06:52:41.141Z</time>
      </trkpt>
      <trkpt lat="47.71769" lon="8.65378">
        <ele>431.781735</ele>
        <time>2022-09-14T06:52:53.393Z</time>
      </trkpt>
      <trkpt lat="47.71733" lon="8.65356">
        <ele>430.663225</ele>
        <time>2022-09-14T06:53:00.904Z</time>
      </trkpt>
      <trkpt lat="47.71732" lon="8.65344">
        <ele>430.356446</ele>
        <time>2022-09-14T06:53:02.577Z</time>
      </trkpt>
      <trkpt lat="47.71726" lon="8.65337">
        <ele>430.051152</ele>
        <time>2022-09-14T06:53:04.191Z</time>
      </trkpt>
      <trkpt lat="47.71713" lon="8.65345">
        <ele>429.540267</ele>
        <time>2022-09-14T06:53:06.759Z</time>
      </trkpt>
      <trkpt lat="47.71707" lon="8.65342">
        <ele>429.283772</ele>
        <time>2022-09-14T06:53:08.095Z</time>
      </trkpt>
      <trkpt lat="47.71631" lon="8.6532">
        <ele>426.432952</ele>
        <time>2022-09-14T06:53:22.633Z</time>
      </trkpt>
      <trkpt lat="47.71605" lon="8.65305">
        <ele>425.380887</ele>
        <time>2022-09-14T06:53:27.934Z</time>
      </trkpt>
      <trkpt lat="47.71575" lon="8.65269">
        <ele>423.985521</ele>
        <time>2022-09-14T06:53:35.230Z</time>
      </trkpt>
      <trkpt lat="47.71567" lon="8.65257">
        <ele>423.585268</ele>
        <time>2022-09-14T06:53:37.422Z</time>
      </trkpt>
      <trkpt lat="47.71559" lon="8.65244">
        <ele>423.148511</ele>
        <time>2022-09-14T06:53:39.789Z</time>
      </trkpt>
      <trkpt lat="47.714" lon="8.64944">
        <ele>414.83496</ele>
        <time>2022-09-14T06:54:29.378Z</time>
      </trkpt>
      <trkpt lat="47.71342" lon="8.64833">
        <ele>412.526084</ele>
        <time>2022-09-14T06:54:48.865Z</time>
      </trkpt>
      <trkpt lat="47.71309" lon="8.64768">
        <ele>411.851801</ele>
        <time>2022-09-14T06:55:01.101Z</time>
      </trkpt>
      <trkpt lat="47.71283" lon="8.6471">
        <ele>411.280315</ele>
        <time>2022-09-14T06:55:11.935Z</time>
      </trkpt>
      <trkpt lat="47.71258" lon="8.64636">
        <ele>410.640292</ele>
        <time>2022-09-14T06:55:25.304Z</time>
      </trkpt>
      <trkpt lat="47.71175" lon="8.6436">
        <ele>410.184409</ele>
        <time>2022-09-14T06:56:17.773Z</time>
      </trkpt>
      <trkpt lat="47.71134" lon="8.64224">
        <ele>410.216407</ele>
        <time>2022-09-14T06:56:44.463Z</time>
      </trkpt>
      <trkpt lat="47.71105" lon="8.64164">
        <ele>410.232191</ele>
        <time>2022-09-14T06:56:58.256Z</time>
      </trkpt>
      <trkpt lat="47.71093" lon="8.64149">
        <ele>410.240285</ele>
        <time>2022-09-14T06:57:02.852Z</time>
      </trkpt>
      <trkpt lat="47.71082" lon="8.64146">
        <ele>410.246076</ele>
        <time>2022-09-14T06:57:06.022Z</time>
      </trkpt>
      <trkpt lat="47.7108" lon="8.64125">
        <ele>410.253788</ele>
        <time>2022-09-14T06:57:09.894Z</time>
      </trkpt>
      <trkpt lat="47.71071" lon="8.64092">
        <ele>410.266395</ele>
        <time>2022-09-14T06:57:16.752Z</time>
      </trkpt>
      <trkpt lat="47.71054" lon="8.64071">
        <ele>410.277944</ele>
        <time>2022-09-14T06:57:22.773Z</time>
      </trkpt>
      <trkpt lat="47.70919" lon="8.6398">
        <ele>410.200153</ele>
        <time>2022-09-14T06:58:01.722Z</time>
      </trkpt>
      <trkpt lat="47.70751" lon="8.63858">
        <ele>409.886948</ele>
        <time>2022-09-14T06:58:48.987Z</time>
      </trkpt>
      <trkpt lat="47.70743" lon="8.63842">
        <ele>409.883063</ele>
        <time>2022-09-14T06:58:52.959Z</time>
      </trkpt>
      <trkpt lat="47.7065" lon="8.63771">
        <ele>409.854044</ele>
        <time>2022-09-14T06:59:21.222Z</time>
      </trkpt>
      <trkpt lat="47.70637" lon="8.63755">
        <ele>409.908134</ele>
        <time>2022-09-14T06:59:25.710Z</time>
      </trkpt>
      <trkpt lat="47.70615" lon="8.63738">
        <ele>409.988486</ele>
        <time>2022-09-14T06:59:32.978Z</time>
      </trkpt>
      <trkpt lat="47.70532" lon="8.6368">
        <ele>410.290939</ele>
        <time>2022-09-14T06:59:58.277Z</time>
      </trkpt>
      <trkpt lat="47.70488" lon="8.63645">
        <ele>410.434219</ele>
        <time>2022-09-14T07:00:13.771Z</time>
      </trkpt>
      <trkpt lat="47.70459" lon="8.63642">
        <ele>410.310042</ele>
        <time>2022-09-14T07:00:22.235Z</time>
      </trkpt>
      <trkpt lat="47.70429" lon="8.63631">
        <ele>410.175591</ele>
        <time>2022-09-14T07:00:30.625Z</time>
      </trkpt>
      <trkpt lat="47.70404" lon="8.63602">
        <ele>410.039502</ele>
        <time>2022-09-14T07:00:38.818Z</time>
      </trkpt>
      <trkpt lat="47.70401" lon="8.6359">
        <ele>410.000857</ele>
        <time>2022-09-14T07:00:41.656Z</time>
      </trkpt>
      <trkpt lat="47.70361" lon="8.63573">
        <ele>409.825244</ele>
        <time>2022-09-14T07:00:51.610Z</time>
      </trkpt>
      <trkpt lat="47.70246" lon="8.63504">
        <ele>407.467028</ele>
        <time>2022-09-14T07:01:17.771Z</time>
      </trkpt>
      <trkpt lat="47.70243" lon="8.63503">
        <ele>407.383114</ele>
        <time>2022-09-14T07:01:18.412Z</time>
      </trkpt>
      <trkpt lat="47.70202" lon="8.63492">
        <ele>406.354964</ele>
        <time>2022-09-14T07:01:26.333Z</time>
      </trkpt>
      <trkpt lat="47.70169" lon="8.63485">
        <ele>405.529852</ele>
        <time>2022-09-14T07:01:32.782Z</time>
      </trkpt>
      <trkpt lat="47.70106" lon="8.63475">
        <ele>404.706161</ele>
        <time>2022-09-14T07:01:45.996Z</time>
      </trkpt>
      <trkpt lat="47.70075" lon="8.63459">
        <ele>404.391221</ele>
        <time>2022-09-14T07:01:52.983Z</time>
      </trkpt>
      <trkpt lat="47.7005" lon="8.63437">
        <ele>404.110508</ele>
        <time>2022-09-14T07:01:59.793Z</time>
      </trkpt>
      <trkpt lat="47.70045" lon="8.63439">
        <ele>404.053369</ele>
        <time>2022-09-14T07:02:01.586Z</time>
      </trkpt>
      <trkpt lat="47.70009" lon="8.63389">
        <ele>403.572816</ele>
        <time>2022-09-14T07:02:15.378Z</time>
      </trkpt>
      <trkpt lat="47.69999" lon="8.63386">
        <ele>403.473947</ele>
        <time>2022-09-14T07:02:18.395Z</time>
      </trkpt>
      <trkpt lat="47.69998" lon="8.63392">
        <ele>403.489352</ele>
        <time>2022-09-14T07:02:19.577Z</time>
      </trkpt>
      <trkpt lat="47.6999" lon="8.63432">
        <ele>404.111192</ele>
        <time>2022-09-14T07:02:28.911Z</time>
      </trkpt>
      <trkpt lat="47.6999" lon="8.63439">
        <ele>404.212359</ele>
        <time>2022-09-14T07:02:30.369Z</time>
      </trkpt>
      <trkpt lat="47.69981" lon="8.63438">
        <ele>404.406982</ele>
        <time>2022-09-14T07:02:33.269Z</time>
      </trkpt>
      <trkpt lat="47.69975" lon="8.63437">
        <ele>404.531546</ele>
        <time>2022-09-14T07:02:35.326Z</time>
      </trkpt>
      <trkpt lat="47.69973" lon="8.63433">
        <ele>404.617919</ele>
        <time>2022-09-14T07:02:36.920Z</time>
      </trkpt>
      <trkpt lat="47.69949" lon="8.63416">
        <ele>405.205098</ele>
        <time>2022-09-14T07:02:47.024Z</time>
      </trkpt>
      <trkpt lat="47.69939" lon="8.6342">
        <ele>405.436287</ele>
        <time>2022-09-14T07:02:51.426Z</time>
      </trkpt>
      <trkpt lat="47.69921" lon="8.63405">
        <ele>405.902255</ele>
        <time>2022-09-14T07:02:59.997Z</time>
      </trkpt>
      <trkpt lat="47.69871" lon="8.63359">
        <ele>407.18604</ele>
        <time>2022-09-14T07:03:28.245Z</time>
      </trkpt>
      <trkpt lat="47.69858" lon="8.63347">
        <ele>407.522851</ele>
        <time>2022-09-14T07:03:35.884Z</time>
      </trkpt>
      <trkpt lat="47.69844" lon="8.63333">
        <ele>407.862332</ele>
        <time>2022-09-14T07:03:44.542Z</time>
      </trkpt>
      <trkpt lat="47.69837" lon="8.63326">
        <ele>408.033561</ele>
        <time>2022-09-14T07:03:48.774Z</time>
      </trkpt>
      <trkpt lat="47.69794" lon="8.63284">
        <ele>409.063328</ele>
        <time>2022-09-14T07:04:12.539Z</time>
      </trkpt>
      <trkpt lat="47.69788" lon="8.63278">
        <ele>409.20955</ele>
        <time>2022-09-14T07:04:15.740Z</time>
      </trkpt>
      <trkpt lat="47.69751" lon="8.63239">
        <ele>410.111769</ele>
        <time>2022-09-14T07:04:35.983Z</time>
      </trkpt>
      <trkpt lat="47.69744" lon="8.63232">
        <ele>410.274872</ele>
        <time>2022-09-14T07:04:38.860Z</time>
      </trkpt>
      <trkpt lat="47.69739" lon="8.63227">
        <ele>410.401059</ele>
        <time>2022-09-14T07:04:40.992Z</time>
      </trkpt>
      <trkpt lat="47.6972" lon="8.63204">
        <ele>410.894386</ele>
        <time>2022-09-14T07:04:49.378Z</time>
      </trkpt>
      <trkpt lat="47.69715" lon="8.63198">
        <ele>411.019039</ele>
        <time>2022-09-14T07:04:51.557Z</time>
      </trkpt>
      <trkpt lat="47.69695" lon="8.63174">
        <ele>410.606784</ele>
        <time>2022-09-14T07:04:59.412Z</time>
      </trkpt>
      <trkpt lat="47.6967" lon="8.63165">
        <ele>410.203869</ele>
        <time>2022-09-14T07:05:06.188Z</time>
      </trkpt>
      <trkpt lat="47.69664" lon="8.63166">
        <ele>410.106317</ele>
        <time>2022-09-14T07:05:08.235Z</time>
      </trkpt>
      <trkpt lat="47.69666" lon="8.63176">
        <ele>409.9998</ele>
        <time>2022-09-14T07:05:10.096Z</time>
      </trkpt>
      <trkpt lat="47.6966" lon="8.63229">
        <ele>409.418353</ele>
        <time>2022-09-14T07:05:18.335Z</time>
      </trkpt>
      <trkpt lat="47.69613" lon="8.63223">
        <ele>408.667954</ele>
        <time>2022-09-14T07:05:27.757Z</time>
      </trkpt>
      <trkpt lat="47.69602" lon="8.63229">
        <ele>408.475254</ele>
        <time>2022-09-14T07:05:30.017Z</time>
      </trkpt>
      <trkpt lat="47.69588" lon="8.63228">
        <ele>408.248093</ele>
        <time>2022-09-14T07:05:32.672Z</time>
      </trkpt>
      <trkpt lat="47.69531" lon="8.63223">
        <ele>405.4947</ele>
        <time>2022-09-14T07:05:43.002Z</time>
      </trkpt>
      <trkpt lat="47.69528" lon="8.63223">
        <ele>405.345662</ele>
        <time>2022-09-14T07:05:43.477Z</time>
      </trkpt>
      <trkpt lat="47.69397" lon="8.63225">
        <ele>398.405008</ele>
        <time>2022-09-14T07:06:06.767Z</time>
      </trkpt>
      <trkpt lat="47.69374" lon="8.63232">
        <ele>397.464615</ele>
        <time>2022-09-14T07:06:10.746Z</time>
      </trkpt>
      <trkpt lat="47.69376" lon="8.63247">
        <ele>397.045632</ele>
        <time>2022-09-14T07:06:12.714Z</time>
      </trkpt>
      <trkpt lat="47.69369" lon="8.63249">
        <ele>396.735799</ele>
        <time>2022-09-14T07:06:14.104Z</time>
      </trkpt>
      <trkpt lat="47.69363" lon="8.63205">
        <ele>395.52352</ele>
        <time>2022-09-14T07:06:19.415Z</time>
      </trkpt>
      <trkpt lat="47.69364" lon="8.63192">
        <ele>395.158887</ele>
        <time>2022-09-14T07:06:21.065Z</time>
      </trkpt>
      <trkpt lat="47.69365" lon="8.63177">
        <ele>394.750152</ele>
        <time>2022-09-14T07:06:22.828Z</time>
      </trkpt>
      <trkpt lat="47.69342" lon="8.63177">
        <ele>393.79978</ele>
        <time>2022-09-14T07:06:27.357Z</time>
      </trkpt>
      <trkpt lat="47.69341" lon="8.63177">
        <ele>393.742619</ele>
        <time>2022-09-14T07:06:27.627Z</time>
      </trkpt>
      <trkpt lat="47.69336" lon="8.63173">
        <ele>393.511911</ele>
        <time>2022-09-14T07:06:28.657Z</time>
      </trkpt>
      <trkpt lat="47.69337" lon="8.63136">
        <ele>392.495063</ele>
        <time>2022-09-14T07:06:33.618Z</time>
      </trkpt>
      <trkpt lat="47.6934" lon="8.63134">
        <ele>392.353481</ele>
        <time>2022-09-14T07:06:34.311Z</time>
      </trkpt>
      <trkpt lat="47.69356" lon="8.63124">
        <ele>391.662738</ele>
        <time>2022-09-14T07:06:37.545Z</time>
      </trkpt>
      <trkpt lat="47.69365" lon="8.63047">
        <ele>390.472137</ele>
        <time>2022-09-14T07:06:49.715Z</time>
      </trkpt>
      <trkpt lat="47.69361" lon="8.62978">
        <ele>389.62704</ele>
        <time>2022-09-14T07:07:00.536Z</time>
      </trkpt>
      <trkpt lat="47.69334" lon="8.62916">
        <ele>388.732904</ele>
        <time>2022-09-14T07:07:10.771Z</time>
      </trkpt>
      <trkpt lat="47.69314" lon="8.62867">
        <ele>388.024125</ele>
        <time>2022-09-14T07:07:18.880Z</time>
      </trkpt>
      <trkpt lat="47.69304" lon="8.62859">
        <ele>387.852661</ele>
        <time>2022-09-14T07:07:21.149Z</time>
      </trkpt>
      <trkpt lat="47.69287" lon="8.62763">
        <ele>386.830878</ele>
        <time>2022-09-14T07:07:35.709Z</time>
      </trkpt>
      <trkpt lat="47.69291" lon="8.62705">
        <ele>386.23094</ele>
        <time>2022-09-14T07:07:43.989Z</time>
      </trkpt>
      <trkpt lat="47.69293" lon="8.62697">
        <ele>386.154915</ele>
        <time>2022-09-14T07:07:45.258Z</time>
      </trkpt>
      <trkpt lat="47.69292" lon="8.62673">
        <ele>385.901382</ele>
        <time>2022-09-14T07:07:48.846Z</time>
      </trkpt>
      <trkpt lat="47.69281" lon="8.62611">
        <ele>385.248562</ele>
        <time>2022-09-14T07:07:59.080Z</time>
      </trkpt>
      <trkpt lat="47.6927" lon="8.62594">
        <ele>385.329911</ele>
        <time>2022-09-14T07:08:02.853Z</time>
      </trkpt>
      <trkpt lat="47.69258" lon="8.62573">
        <ele>385.450902</ele>
        <time>2022-09-14T07:08:07.112Z</time>
      </trkpt>
      <trkpt lat="47.69248" lon="8.62545">
        <ele>385.594533</ele>
        <time>2022-09-14T07:08:12.342Z</time>
      </trkpt>
      <trkpt lat="47.69242" lon="8.62526">
        <ele>385.685345</ele>
        <time>2022-09-14T07:08:15.678Z</time>
      </trkpt>
      <trkpt lat="47.6924" lon="8.62519">
        <ele>385.72419</ele>
        <time>2022-09-14T07:08:17.127Z</time>
      </trkpt>
      <trkpt lat="47.69208" lon="8.62447">
        <ele>386.105185</ele>
        <time>2022-09-14T07:08:34.887Z</time>
      </trkpt>
      <trkpt lat="47.69174" lon="8.62399">
        <ele>386.414206</ele>
        <time>2022-09-14T07:08:52.045Z</time>
      </trkpt>
      <trkpt lat="47.69151" lon="8.62376">
        <ele>387.272524</ele>
        <time>2022-09-14T07:09:03.481Z</time>
      </trkpt>
      <trkpt lat="47.69104" lon="8.62346">
        <ele>388.882293</ele>
        <time>2022-09-14T07:09:25.853Z</time>
      </trkpt>
      <trkpt lat="47.69128" lon="8.62273">
        <ele>390.613191</ele>
        <time>2022-09-14T07:09:49.088Z</time>
      </trkpt>
      <trkpt lat="47.69117" lon="8.62266">
        <ele>390.987149</ele>
        <time>2022-09-14T07:09:53.747Z</time>
      </trkpt>
      <trkpt lat="47.69118" lon="8.62255">
        <ele>391.221153</ele>
        <time>2022-09-14T07:09:57.188Z</time>
      </trkpt>
      <trkpt lat="47.69132" lon="8.62249">
        <ele>391.664022</ele>
        <time>2022-09-14T07:10:03.106Z</time>
      </trkpt>
      <trkpt lat="47.69144" lon="8.62253">
        <ele>392.062932</ele>
        <time>2022-09-14T07:10:08.285Z</time>
      </trkpt>
      <trkpt lat="47.69142" lon="8.62263">
        <ele>392.330334</ele>
        <time>2022-09-14T07:10:11.648Z</time>
      </trkpt>
      <trkpt lat="47.69131" lon="8.6226">
        <ele>392.741422</ele>
        <time>2022-09-14T07:10:16.671Z</time>
      </trkpt>
      <trkpt lat="47.69129" lon="8.62253">
        <ele>392.932595</ele>
        <time>2022-09-14T07:10:18.919Z</time>
      </trkpt>
      <trkpt lat="47.69126" lon="8.62239">
        <ele>393.279819</ele>
        <time>2022-09-14T07:10:23.104Z</time>
      </trkpt>
      <trkpt lat="47.69124" lon="8.62233">
        <ele>393.450976</ele>
        <time>2022-09-14T07:10:25.224Z</time>
      </trkpt>
      <trkpt lat="47.69118" lon="8.62219">
        <ele>393.838189</ele>
        <time>2022-09-14T07:10:30.478Z</time>
      </trkpt>
      <trkpt lat="47.69115" lon="8.62213">
        <ele>394.024919</ele>
        <time>2022-09-14T07:10:32.809Z</time>
      </trkpt>
      <trkpt lat="47.69107" lon="8.62213">
        <ele>394.305248</ele>
        <time>2022-09-14T07:10:36.314Z</time>
      </trkpt>
      <trkpt lat="47.69066" lon="8.62224">
        <ele>395.826467</ele>
        <time>2022-09-14T07:10:55.413Z</time>
      </trkpt>
      <trkpt lat="47.69" lon="8.62239">
        <ele>398.206901</ele>
        <time>2022-09-14T07:11:24.029Z</time>
      </trkpt>
      <trkpt lat="47.6886" lon="8.62257">
        <ele>403.825476</ele>
        <time>2022-09-14T07:12:25.858Z</time>
      </trkpt>
      <trkpt lat="47.68763" lon="8.62249">
        <ele>407.976222</ele>
        <time>2022-09-14T07:13:15.399Z</time>
      </trkpt>
      <trkpt lat="47.68738" lon="8.62257">
        <ele>409.164076</ele>
        <time>2022-09-14T07:13:28.260Z</time>
      </trkpt>
      <trkpt lat="47.68737" lon="8.62254">
        <ele>409.263881</ele>
        <time>2022-09-14T07:13:29.498Z</time>
      </trkpt>
      <trkpt lat="47.68735" lon="8.62245">
        <ele>409.565859</ele>
        <time>2022-09-14T07:13:32.969Z</time>
      </trkpt>
      <trkpt lat="47.68733" lon="8.62239">
        <ele>409.763825</ele>
        <time>2022-09-14T07:13:35.121Z</time>
      </trkpt>
      <trkpt lat="47.68735" lon="8.62218">
        <ele>410.415322</ele>
        <time>2022-09-14T07:13:42.035Z</time>
      </trkpt>
      <trkpt lat="47.68725" lon="8.62209">
        <ele>410.933026</ele>
        <time>2022-09-14T07:13:47.374Z</time>
      </trkpt>
      <trkpt lat="47.68664" lon="8.62167">
        <ele>414.006842</ele>
        <time>2022-09-14T07:14:18.786Z</time>
      </trkpt>
      <trkpt lat="47.6863" lon="8.6214">
        <ele>415.022499</ele>
        <time>2022-09-14T07:14:36.262Z</time>
      </trkpt>
      <trkpt lat="47.68624" lon="8.62136">
        <ele>415.202825</ele>
        <time>2022-09-14T07:14:39.625Z</time>
      </trkpt>
      <trkpt lat="47.68605" lon="8.62123">
        <ele>415.748958</ele>
        <time>2022-09-14T07:14:49.016Z</time>
      </trkpt>
      <trkpt lat="47.68578" lon="8.62104">
        <ele>416.511763</ele>
        <time>2022-09-14T07:15:00.264Z</time>
      </trkpt>
      <trkpt lat="47.68567" lon="8.62097">
        <ele>416.842367</ele>
        <time>2022-09-14T07:15:04.869Z</time>
      </trkpt>
      <trkpt lat="47.68547" lon="8.62083">
        <ele>417.406068</ele>
        <time>2022-09-14T07:15:12.523Z</time>
      </trkpt>
      <trkpt lat="47.68495" lon="8.6204">
        <ele>418.86629</ele>
        <time>2022-09-14T07:15:33.261Z</time>
      </trkpt>
      <trkpt lat="47.68412" lon="8.61962">
        <ele>420.326376</ele>
        <time>2022-09-14T07:16:04.016Z</time>
      </trkpt>
      <trkpt lat="47.68383" lon="8.61935">
        <ele>420.843457</ele>
        <time>2022-09-14T07:16:15.383Z</time>
      </trkpt>
      <trkpt lat="47.68301" lon="8.61849">
        <ele>423.394368</ele>
        <time>2022-09-14T07:16:52.930Z</time>
      </trkpt>
      <trkpt lat="47.68284" lon="8.61831">
        <ele>424.049705</ele>
        <time>2022-09-14T07:17:02.023Z</time>
      </trkpt>
      <trkpt lat="47.68232" lon="8.61755">
        <ele>426.34143</ele>
        <time>2022-09-14T07:17:35.529Z</time>
      </trkpt>
      <trkpt lat="47.68228" lon="8.61743">
        <ele>426.637965</ele>
        <time>2022-09-14T07:17:39.706Z</time>
      </trkpt>
      <trkpt lat="47.68224" lon="8.61722">
        <ele>427.101889</ele>
        <time>2022-09-14T07:17:46.473Z</time>
      </trkpt>
      <trkpt lat="47.68225" lon="8.61716">
        <ele>427.203617</ele>
        <time>2022-09-14T07:17:48.033Z</time>
      </trkpt>
      <trkpt lat="47.68232" lon="8.61694">
        <ele>427.648943</ele>
        <time>2022-09-14T07:17:54.970Z</time>
      </trkpt>
      <trkpt lat="47.68251" lon="8.61632">
        <ele>428.870266</ele>
        <time>2022-09-14T07:18:14.442Z</time>
      </trkpt>
      <trkpt lat="47.68267" lon="8.61578">
        <ele>429.914495</ele>
        <time>2022-09-14T07:18:30.607Z</time>
      </trkpt>
      <trkpt lat="47.68253" lon="8.61559">
        <ele>430.429135</ele>
        <time>2022-09-14T07:18:36.761Z</time>
      </trkpt>
      <trkpt lat="47.68238" lon="8.61492">
        <ele>431.681448</ele>
        <time>2022-09-14T07:18:53.919Z</time>
      </trkpt>
      <trkpt lat="47.68227" lon="8.6144">
        <ele>432.447577</ele>
        <time>2022-09-14T07:19:07.122Z</time>
      </trkpt>
      <trkpt lat="47.68211" lon="8.61374">
        <ele>433.376194</ele>
        <time>2022-09-14T07:19:23.293Z</time>
      </trkpt>
      <trkpt lat="47.68199" lon="8.61357">
        <ele>433.703603</ele>
        <time>2022-09-14T07:19:27.454Z</time>
      </trkpt>
      <trkpt lat="47.68193" lon="8.61329">
        <ele>434.092616</ele>
        <time>2022-09-14T07:19:34.904Z</time>
      </trkpt>
      <trkpt lat="47.68207" lon="8.61262">
        <ele>435.022262</ele>
        <time>2022-09-14T07:19:51.738Z</time>
      </trkpt>
      <trkpt lat="47.68216" lon="8.6124">
        <ele>435.357366</ele>
        <time>2022-09-14T07:19:59.025Z</time>
      </trkpt>
      <trkpt lat="47.68245" lon="8.61198">
        <ele>437.373957</ele>
        <time>2022-09-14T07:20:17.375Z</time>
      </trkpt>
      <trkpt lat="47.68257" lon="8.61183">
        <ele>438.161817</ele>
        <time>2022-09-14T07:20:24.007Z</time>
      </trkpt>
      <trkpt lat="47.68317" lon="8.6111">
        <ele>442.012018</ele>
        <time>2022-09-14T07:21:06.387Z</time>
      </trkpt>
      <trkpt lat="47.6832" lon="8.61108">
        <ele>442.171746</ele>
        <time>2022-09-14T07:21:08.064Z</time>
      </trkpt>
      <trkpt lat="47.68336" lon="8.61101">
        <ele>442.988234</ele>
        <time>2022-09-14T07:21:17.801Z</time>
      </trkpt>
      <trkpt lat="47.68354" lon="8.6109">
        <ele>443.975728</ele>
        <time>2022-09-14T07:21:27.350Z</time>
      </trkpt>
      <trkpt lat="47.68358" lon="8.61087">
        <ele>444.192524</ele>
        <time>2022-09-14T07:21:29.680Z</time>
      </trkpt>
      <trkpt lat="47.68372" lon="8.61078">
        <ele>445.041901</ele>
        <time>2022-09-14T07:21:38.613Z</time>
      </trkpt>
      <trkpt lat="47.68384" lon="8.61055">
        <ele>446.199577</ele>
        <time>2022-09-14T07:21:48.424Z</time>
      </trkpt>
      <trkpt lat="47.68393" lon="8.61058">
        <ele>446.722386</ele>
        <time>2022-09-14T07:21:54.705Z</time>
      </trkpt>
      <trkpt lat="47.6848" lon="8.61016">
        <ele>452.058606</ele>
        <time>2022-09-14T07:22:47.062Z</time>
      </trkpt>
      <trkpt lat="47.6851" lon="8.61012">
        <ele>453.796072</ele>
        <time>2022-09-14T07:23:04.176Z</time>
      </trkpt>
      <trkpt lat="47.68556" lon="8.61011">
        <ele>455.964908</ele>
        <time>2022-09-14T07:23:27.649Z</time>
      </trkpt>
      <trkpt lat="47.68592" lon="8.61021">
        <ele>457.470466</ele>
        <time>2022-09-14T07:23:44.845Z</time>
      </trkpt>
      <trkpt lat="47.68701" lon="8.61072">
        <ele>462.112141</ele>
        <time>2022-09-14T07:24:35.380Z</time>
      </trkpt>
      <trkpt lat="47.68743" lon="8.61076">
        <ele>463.330491</ele>
        <time>2022-09-14T07:24:53.133Z</time>
      </trkpt>
      <trkpt lat="47.68803" lon="8.61067">
        <ele>465.073357</ele>
        <time>2022-09-14T07:25:17.921Z</time>
      </trkpt>
      <trkpt lat="47.6889" lon="8.61028">
        <ele>467.394593</ele>
        <time>2022-09-14T07:25:53.728Z</time>
      </trkpt>
      <trkpt lat="47.68927" lon="8.60995">
        <ele>467.69272</ele>
        <time>2022-09-14T07:26:08.913Z</time>
      </trkpt>
      <trkpt lat="47.68942" lon="8.60959">
        <ele>467.892853</ele>
        <time>2022-09-14T07:26:18.259Z</time>
      </trkpt>
      <trkpt lat="47.68979" lon="8.60772">
        <ele>468.679717</ele>
        <time>2022-09-14T07:26:51.351Z</time>
      </trkpt>
      <trkpt lat="47.6899" lon="8.60754">
        <ele>468.736145</ele>
        <time>2022-09-14T07:26:54.992Z</time>
      </trkpt>
      <trkpt lat="47.6905" lon="8.60743">
        <ele>468.949736</ele>
        <time>2022-09-14T07:27:09.530Z</time>
      </trkpt>
      <trkpt lat="47.69134" lon="8.60748">
        <ele>469.55803</ele>
        <time>2022-09-14T07:27:37.481Z</time>
      </trkpt>
      <trkpt lat="47.69171" lon="8.60743">
        <ele>470.433709</ele>
        <time>2022-09-14T07:27:54.352Z</time>
      </trkpt>
      <trkpt lat="47.69209" lon="8.60718">
        <ele>471.424591</ele>
        <time>2022-09-14T07:28:11.606Z</time>
      </trkpt>
      <trkpt lat="47.69261" lon="8.60675">
        <ele>472.815041</ele>
        <time>2022-09-14T07:28:34.401Z</time>
      </trkpt>
      <trkpt lat="47.69278" lon="8.60636">
        <ele>473.320141</ele>
        <time>2022-09-14T07:28:45.852Z</time>
      </trkpt>
      <trkpt lat="47.69286" lon="8.606">
        <ele>472.909801</ele>
        <time>2022-09-14T07:28:54.503Z</time>
      </trkpt>
      <trkpt lat="47.69322" lon="8.60586">
        <ele>472.323398</ele>
        <time>2022-09-14T07:29:05.658Z</time>
      </trkpt>
      <trkpt lat="47.69356" lon="8.60459">
        <ele>470.849741</ele>
        <time>2022-09-14T07:29:24.468Z</time>
      </trkpt>
      <trkpt lat="47.69435" lon="8.59884">
        <ele>450.650948</ele>
        <time>2022-09-14T07:30:34.446Z</time>
      </trkpt>
      <trkpt lat="47.69526" lon="8.59202">
        <ele>441.424747</ele>
        <time>2022-09-14T07:32:14.609Z</time>
      </trkpt>
      <trkpt lat="47.69536" lon="8.59156">
        <ele>440.95609</ele>
        <time>2022-09-14T07:32:22.341Z</time>
      </trkpt>
      <trkpt lat="47.69558" lon="8.58969">
        <ele>440.735674</ele>
        <time>2022-09-14T07:32:54.655Z</time>
      </trkpt>
      <trkpt lat="47.69561" lon="8.58872">
        <ele>440.801228</ele>
        <time>2022-09-14T07:33:14.410Z</time>
      </trkpt>
      <trkpt lat="47.69565" lon="8.58736">
        <ele>441.088653</ele>
        <time>2022-09-14T07:33:42.699Z</time>
      </trkpt>
      <trkpt lat="47.69558" lon="8.58611">
        <ele>441.375695</ele>
        <time>2022-09-14T07:34:06.503Z</time>
      </trkpt>
      <trkpt lat="47.6954" lon="8.58349">
        <ele>439.813618</ele>
        <time>2022-09-14T07:34:47.200Z</time>
      </trkpt>
      <trkpt lat="47.69533" lon="8.58292">
        <ele>439.573997</ele>
        <time>2022-09-14T07:34:55.867Z</time>
      </trkpt>
      <trkpt lat="47.69533" lon="8.58274">
        <ele>439.531216</ele>
        <time>2022-09-14T07:34:58.706Z</time>
      </trkpt>
      <trkpt lat="47.69534" lon="8.58202">
        <ele>439.364299</ele>
        <time>2022-09-14T07:35:10.022Z</time>
      </trkpt>
      <trkpt lat="47.69522" lon="8.58017">
        <ele>439.306246</ele>
        <time>2022-09-14T07:35:44.398Z</time>
      </trkpt>
      <trkpt lat="47.69488" lon="8.57603">
        <ele>441.835935</ele>
        <time>2022-09-14T07:37:15.328Z</time>
      </trkpt>
      <trkpt lat="47.69483" lon="8.57604">
        <ele>441.873547</ele>
        <time>2022-09-14T07:37:16.710Z</time>
      </trkpt>
      <trkpt lat="47.69466" lon="8.57348">
        <ele>441.828494</ele>
        <time>2022-09-14T07:38:02.701Z</time>
      </trkpt>
      <trkpt lat="47.69456" lon="8.57178">
        <ele>440.900194</ele>
        <time>2022-09-14T07:38:28.834Z</time>
      </trkpt>
      <trkpt lat="47.69453" lon="8.57108">
        <ele>440.325284</ele>
        <time>2022-09-14T07:38:39.360Z</time>
      </trkpt>
      <trkpt lat="47.69444" lon="8.56935">
        <ele>438.99954</ele>
        <time>2022-09-14T07:39:05.509Z</time>
      </trkpt>
      <trkpt lat="47.69436" lon="8.56824">
        <ele>438.244653</ele>
        <time>2022-09-14T07:39:23.293Z</time>
      </trkpt>
      <trkpt lat="47.6942" lon="8.56799">
        <ele>438.017695</ele>
        <time>2022-09-14T07:39:28.814Z</time>
      </trkpt>
      <trkpt lat="47.69423" lon="8.56777">
        <ele>437.868777</ele>
        <time>2022-09-14T07:39:32.163Z</time>
      </trkpt>
      <trkpt lat="47.69434" lon="8.56791">
        <ele>437.724294</ele>
        <time>2022-09-14T07:39:35.699Z</time>
      </trkpt>
      <trkpt lat="47.69457" lon="8.56818">
        <ele>437.411368</ele>
        <time>2022-09-14T07:39:42.415Z</time>
      </trkpt>
      <trkpt lat="47.69458" lon="8.56795">
        <ele>437.239295</ele>
        <time>2022-09-14T07:39:46.040Z</time>
      </trkpt>
      <trkpt lat="47.69456" lon="8.56546">
        <ele>435.409199</ele>
        <time>2022-09-14T07:40:24.128Z</time>
      </trkpt>
      <trkpt lat="47.69459" lon="8.56496">
        <ele>435.03366</ele>
        <time>2022-09-14T07:40:31.890Z</time>
      </trkpt>
      <trkpt lat="47.69455" lon="8.56318">
        <ele>433.725137</ele>
        <time>2022-09-14T07:40:59.362Z</time>
      </trkpt>
      <trkpt lat="47.69428" lon="8.56314">
        <ele>433.483485</ele>
        <time>2022-09-14T07:41:05.779Z</time>
      </trkpt>
      <trkpt lat="47.6941" lon="8.56056">
        <ele>432.05831</ele>
        <time>2022-09-14T07:41:46.855Z</time>
      </trkpt>
      <trkpt lat="47.69381" lon="8.55807">
        <ele>431.341244</ele>
        <time>2022-09-14T07:42:29.819Z</time>
      </trkpt>
      <trkpt lat="47.69348" lon="8.55564">
        <ele>430.92123</ele>
        <time>2022-09-14T07:43:12.900Z</time>
      </trkpt>
      <trkpt lat="47.69335" lon="8.55567">
        <ele>430.862042</ele>
        <time>2022-09-14T07:43:16.064Z</time>
      </trkpt>
      <trkpt lat="47.69308" lon="8.55473">
        <ele>430.540549</ele>
        <time>2022-09-14T07:43:33.147Z</time>
      </trkpt>
      <trkpt lat="47.69274" lon="8.55322">
        <ele>430.045265</ele>
        <time>2022-09-14T07:43:59.333Z</time>
      </trkpt>
      <trkpt lat="47.69216" lon="8.55071">
        <ele>429.361372</ele>
        <time>2022-09-14T07:44:44.227Z</time>
      </trkpt>
      <trkpt lat="47.69168" lon="8.54869">
        <ele>429.05945</ele>
        <time>2022-09-14T07:45:21.664Z</time>
      </trkpt>
      <trkpt lat="47.69102" lon="8.54583">
        <ele>428.454895</ele>
        <time>2022-09-14T07:46:13.105Z</time>
      </trkpt>
      <trkpt lat="47.69048" lon="8.54348">
        <ele>427.761111</ele>
        <time>2022-09-14T07:46:54.407Z</time>
      </trkpt>
      <trkpt lat="47.69027" lon="8.54253">
        <ele>427.692564</ele>
        <time>2022-09-14T07:47:11.800Z</time>
      </trkpt>
      <trkpt lat="47.68994" lon="8.54113">
        <ele>427.701636</ele>
        <time>2022-09-14T07:47:38.564Z</time>
      </trkpt>
      <trkpt lat="47.68882" lon="8.53617">
        <ele>429.647361</ele>
        <time>2022-09-14T07:49:21.127Z</time>
      </trkpt>
      <trkpt lat="47.68884" lon="8.53594">
        <ele>429.767993</ele>
        <time>2022-09-14T07:49:26.228Z</time>
      </trkpt>
      <trkpt lat="47.68878" lon="8.53581">
        <ele>429.849142</ele>
        <time>2022-09-14T07:49:29.621Z</time>
      </trkpt>
      <trkpt lat="47.68871" lon="8.53574">
        <ele>429.91125</ele>
        <time>2022-09-14T07:49:32.415Z</time>
      </trkpt>
      <trkpt lat="47.68863" lon="8.53552">
        <ele>430.167551</ele>
        <time>2022-09-14T07:49:38.140Z</time>
      </trkpt>
      <trkpt lat="47.68767" lon="8.53141">
        <ele>434.134039</ele>
        <time>2022-09-14T07:51:20.733Z</time>
      </trkpt>
      <trkpt lat="47.68558" lon="8.52247">
        <ele>431.12065</ele>
        <time>2022-09-14T07:53:54.311Z</time>
      </trkpt>
      <trkpt lat="47.68522" lon="8.52073">
        <ele>430.831174</ele>
        <time>2022-09-14T07:54:26.673Z</time>
      </trkpt>
      <trkpt lat="47.685" lon="8.51992">
        <ele>430.708015</ele>
        <time>2022-09-14T07:54:42.308Z</time>
      </trkpt>
      <trkpt lat="47.68461" lon="8.51804">
        <ele>430.439458</ele>
        <time>2022-09-14T07:55:16.282Z</time>
      </trkpt>
      <trkpt lat="47.68434" lon="8.51689">
        <ele>430.205319</ele>
        <time>2022-09-14T07:55:36.678Z</time>
      </trkpt>
      <trkpt lat="47.68424" lon="8.51612">
        <ele>430.053269</ele>
        <time>2022-09-14T07:55:50.126Z</time>
      </trkpt>
      <trkpt lat="47.68417" lon="8.51448">
        <ele>429.819147</ele>
        <time>2022-09-14T07:56:19.070Z</time>
      </trkpt>
      <trkpt lat="47.6842" lon="8.51375">
        <ele>429.741852</ele>
        <time>2022-09-14T07:56:31.989Z</time>
      </trkpt>
      <trkpt lat="47.68432" lon="8.51277">
        <ele>429.633551</ele>
        <time>2022-09-14T07:56:49.483Z</time>
      </trkpt>
      <trkpt lat="47.68468" lon="8.51076">
        <ele>429.005158</ele>
        <time>2022-09-14T07:57:24.208Z</time>
      </trkpt>
      <trkpt lat="47.68477" lon="8.51067">
        <ele>428.957343</ele>
        <time>2022-09-14T07:57:26.803Z</time>
      </trkpt>
      <trkpt lat="47.68501" lon="8.50968">
        <ele>428.51018</ele>
        <time>2022-09-14T07:57:44.122Z</time>
      </trkpt>
      <trkpt lat="47.68514" lon="8.50933">
        <ele>428.308194</ele>
        <time>2022-09-14T07:57:50.543Z</time>
      </trkpt>
      <trkpt lat="47.68534" lon="8.50887">
        <ele>428.032174</ele>
        <time>2022-09-14T07:57:59.225Z</time>
      </trkpt>
      <trkpt lat="47.68567" lon="8.50855">
        <ele>427.729894</ele>
        <time>2022-09-14T07:58:08.660Z</time>
      </trkpt>
      <trkpt lat="47.68787" lon="8.50616">
        <ele>425.845803</ele>
        <time>2022-09-14T07:59:12.513Z</time>
      </trkpt>
      <trkpt lat="47.68841" lon="8.50577">
        <ele>425.825845</ele>
        <time>2022-09-14T07:59:28.557Z</time>
      </trkpt>
      <trkpt lat="47.68918" lon="8.5054">
        <ele>426.000589</ele>
        <time>2022-09-14T07:59:52.985Z</time>
      </trkpt>
      <trkpt lat="47.68938" lon="8.50521">
        <ele>426.243419</ele>
        <time>2022-09-14T08:00:00.847Z</time>
      </trkpt>
      <trkpt lat="47.68964" lon="8.50493">
        <ele>426.577648</ele>
        <time>2022-09-14T08:00:11.981Z</time>
      </trkpt>
      <trkpt lat="47.68992" lon="8.50452">
        <ele>426.98599</ele>
        <time>2022-09-14T08:00:25.629Z</time>
      </trkpt>
      <trkpt lat="47.69021" lon="8.50389">
        <ele>427.516093</ele>
        <time>2022-09-14T08:00:42.616Z</time>
      </trkpt>
      <trkpt lat="47.69027" lon="8.50356">
        <ele>427.712842</ele>
        <time>2022-09-14T08:00:49.656Z</time>
      </trkpt>
      <trkpt lat="47.69031" lon="8.5033">
        <ele>427.818089</ele>
        <time>2022-09-14T08:00:55.394Z</time>
      </trkpt>
      <trkpt lat="47.69033" lon="8.5028">
        <ele>428.012935</ele>
        <time>2022-09-14T08:01:05.491Z</time>
      </trkpt>
      <trkpt lat="47.69034" lon="8.50169">
        <ele>428.443621</ele>
        <time>2022-09-14T08:01:27.551Z</time>
      </trkpt>
      <trkpt lat="47.69029" lon="8.50146">
        <ele>428.537189</ele>
        <time>2022-09-14T08:01:32.070Z</time>
      </trkpt>
      <trkpt lat="47.69035" lon="8.50125">
        <ele>428.628468</ele>
        <time>2022-09-14T08:01:38.166Z</time>
      </trkpt>
      <trkpt lat="47.69034" lon="8.50103">
        <ele>428.696018</ele>
        <time>2022-09-14T08:01:42.170Z</time>
      </trkpt>
      <trkpt lat="47.69034" lon="8.50094">
        <ele>428.679168</ele>
        <time>2022-09-14T08:01:43.840Z</time>
      </trkpt>
      <trkpt lat="47.69033" lon="8.50067">
        <ele>428.629197</ele>
        <time>2022-09-14T08:01:49.028Z</time>
      </trkpt>
      <trkpt lat="47.69025" lon="8.49912">
        <ele>428.342074</ele>
        <time>2022-09-14T08:02:16.868Z</time>
      </trkpt>
      <trkpt lat="47.6902" lon="8.49791">
        <ele>427.974677</ele>
        <time>2022-09-14T08:02:37.437Z</time>
      </trkpt>
      <trkpt lat="47.69018" lon="8.49701">
        <ele>427.547174</ele>
        <time>2022-09-14T08:02:52.566Z</time>
      </trkpt>
      <trkpt lat="47.68972" lon="8.49693">
        <ele>427.221843</ele>
        <time>2022-09-14T08:03:03.653Z</time>
      </trkpt>
      <trkpt lat="47.68961" lon="8.49691">
        <ele>427.141248</ele>
        <time>2022-09-14T08:03:06.328Z</time>
      </trkpt>
      <trkpt lat="47.68966" lon="8.49565">
        <ele>426.587677</ele>
        <time>2022-09-14T08:03:26.980Z</time>
      </trkpt>
      <trkpt lat="47.68963" lon="8.49551">
        <ele>426.525312</ele>
        <time>2022-09-14T08:03:29.315Z</time>
      </trkpt>
      <trkpt lat="47.68951" lon="8.49537">
        <ele>426.429818</ele>
        <time>2022-09-14T08:03:32.863Z</time>
      </trkpt>
      <trkpt lat="47.68949" lon="8.49518">
        <ele>426.348022</ele>
        <time>2022-09-14T08:03:36.166Z</time>
      </trkpt>
      <trkpt lat="47.68951" lon="8.49413">
        <ele>425.906763</ele>
        <time>2022-09-14T08:03:54.272Z</time>
      </trkpt>
      <trkpt lat="47.68977" lon="8.49235">
        <ele>424.578769</ele>
        <time>2022-09-14T08:04:24.214Z</time>
      </trkpt>
      <trkpt lat="47.68987" lon="8.49067">
        <ele>423.067351</ele>
        <time>2022-09-14T08:04:50.374Z</time>
      </trkpt>
      <trkpt lat="47.68992" lon="8.48994">
        <ele>422.252839</ele>
        <time>2022-09-14T08:05:01.656Z</time>
      </trkpt>
      <trkpt lat="47.68995" lon="8.48896">
        <ele>421.170719</ele>
        <time>2022-09-14T08:05:16.559Z</time>
      </trkpt>
      <trkpt lat="47.68981" lon="8.48717">
        <ele>419.326697</ele>
        <time>2022-09-14T08:05:44.074Z</time>
      </trkpt>
      <trkpt lat="47.68969" lon="8.48651">
        <ele>418.638686</ele>
        <time>2022-09-14T08:05:54.779Z</time>
      </trkpt>
      <trkpt lat="47.68926" lon="8.48481">
        <ele>417.276913</ele>
        <time>2022-09-14T08:06:23.905Z</time>
      </trkpt>
      <trkpt lat="47.68913" lon="8.48445">
        <ele>417.014234</ele>
        <time>2022-09-14T08:06:30.626Z</time>
      </trkpt>
      <trkpt lat="47.68854" lon="8.48288">
        <ele>416.148854</ele>
        <time>2022-09-14T08:07:01.300Z</time>
      </trkpt>
      <trkpt lat="47.68827" lon="8.48153">
        <ele>415.747566</ele>
        <time>2022-09-14T08:07:26.173Z</time>
      </trkpt>
      <trkpt lat="47.68797" lon="8.47996">
        <ele>415.184151</ele>
        <time>2022-09-14T08:07:55.535Z</time>
      </trkpt>
      <trkpt lat="47.68735" lon="8.47739">
        <ele>413.507035</ele>
        <time>2022-09-14T08:08:41.301Z</time>
      </trkpt>
      <trkpt lat="47.68725" lon="8.47715">
        <ele>413.243338</ele>
        <time>2022-09-14T08:08:45.759Z</time>
      </trkpt>
      <trkpt lat="47.68557" lon="8.47456">
        <ele>409.722562</ele>
        <time>2022-09-14T08:09:39.435Z</time>
      </trkpt>
      <trkpt lat="47.68502" lon="8.47373">
        <ele>410.440561</ele>
        <time>2022-09-14T08:10:03.016Z</time>
      </trkpt>
      <trkpt lat="47.68416" lon="8.47167">
        <ele>412.776761</ele>
        <time>2022-09-14T08:11:07.449Z</time>
      </trkpt>
      <trkpt lat="47.68408" lon="8.4716">
        <ele>412.893936</ele>
        <time>2022-09-14T08:11:11.074Z</time>
      </trkpt>
      <trkpt lat="47.68399" lon="8.47164">
        <ele>413.010623</ele>
        <time>2022-09-14T08:11:14.625Z</time>
      </trkpt>
      <trkpt lat="47.68316" lon="8.47232">
        <ele>414.222072</ele>
        <time>2022-09-14T08:11:46.122Z</time>
      </trkpt>
      <trkpt lat="47.68305" lon="8.47224">
        <ele>414.381773</ele>
        <time>2022-09-14T08:11:49.686Z</time>
      </trkpt>
      <trkpt lat="47.68246" lon="8.47081">
        <ele>413.680391</ele>
        <time>2022-09-14T08:12:17.164Z</time>
      </trkpt>
      <trkpt lat="47.68215" lon="8.46988">
        <ele>413.144065</ele>
        <time>2022-09-14T08:12:33.756Z</time>
      </trkpt>
      <trkpt lat="47.68206" lon="8.46977">
        <ele>413.096426</ele>
        <time>2022-09-14T08:12:36.362Z</time>
      </trkpt>
      <trkpt lat="47.67972" lon="8.46444">
        <ele>412.636078</ele>
        <time>2022-09-14T08:14:35.364Z</time>
      </trkpt>
      <trkpt lat="47.67967" lon="8.46429">
        <ele>412.610817</ele>
        <time>2022-09-14T08:14:38.528Z</time>
      </trkpt>
      <trkpt lat="47.67971" lon="8.46412">
        <ele>412.583762</ele>
        <time>2022-09-14T08:14:41.558Z</time>
      </trkpt>
      <trkpt lat="47.67963" lon="8.46394">
        <ele>412.553597</ele>
        <time>2022-09-14T08:14:45.164Z</time>
      </trkpt>
      <trkpt lat="47.67954" lon="8.46381">
        <ele>412.525644</ele>
        <time>2022-09-14T08:14:48.416Z</time>
      </trkpt>
      <trkpt lat="47.67949" lon="8.46378">
        <ele>412.514368</ele>
        <time>2022-09-14T08:14:49.642Z</time>
      </trkpt>
      <trkpt lat="47.67938" lon="8.46352">
        <ele>412.468946</ele>
        <time>2022-09-14T08:14:54.741Z</time>
      </trkpt>
      <trkpt lat="47.67935" lon="8.46355">
        <ele>412.460132</ele>
        <time>2022-09-14T08:14:55.752Z</time>
      </trkpt>
      <trkpt lat="47.67948" lon="8.46386">
        <ele>412.407227</ele>
        <time>2022-09-14T08:15:01.793Z</time>
      </trkpt>
      <trkpt lat="47.67935" lon="8.46397">
        <ele>412.450917</ele>
        <time>2022-09-14T08:15:05.675Z</time>
      </trkpt>
      <trkpt lat="47.67949" lon="8.46431">
        <ele>412.52642</ele>
        <time>2022-09-14T08:15:12.448Z</time>
      </trkpt>
      <trkpt lat="47.67944" lon="8.46439">
        <ele>412.54664</ele>
        <time>2022-09-14T08:15:14.315Z</time>
      </trkpt>
      <trkpt lat="47.67947" lon="8.46444">
        <ele>412.558849</ele>
        <time>2022-09-14T08:15:15.387Z</time>
      </trkpt>
      <trkpt lat="47.67909" lon="8.46476">
        <ele>412.683416</ele>
        <time>2022-09-14T08:15:26.772Z</time>
      </trkpt>
      <trkpt lat="47.67882" lon="8.46482">
        <ele>412.759741</ele>
        <time>2022-09-14T08:15:33.715Z</time>
      </trkpt>
      <trkpt lat="47.67883" lon="8.46489">
        <ele>412.774433</ele>
        <time>2022-09-14T08:15:35.153Z</time>
      </trkpt>
      <trkpt lat="47.67885" lon="8.46502">
        <ele>412.7993</ele>
        <time>2022-09-14T08:15:37.567Z</time>
      </trkpt>
      <trkpt lat="47.67886" lon="8.46506">
        <ele>412.806701</ele>
        <time>2022-09-14T08:15:38.272Z</time>
      </trkpt>
      <trkpt lat="47.67718" lon="8.46645">
        <ele>416.037225</ele>
        <time>2022-09-14T08:16:45.838Z</time>
      </trkpt>
      <trkpt lat="47.67661" lon="8.46641">
        <ele>417.553269</ele>
        <time>2022-09-14T08:17:09.918Z</time>
      </trkpt>
      <trkpt lat="47.67637" lon="8.4665">
        <ele>418.358167</ele>
        <time>2022-09-14T08:17:20.566Z</time>
      </trkpt>
      <trkpt lat="47.67564" lon="8.46694">
        <ele>420.895398</ele>
        <time>2022-09-14T08:17:56.614Z</time>
      </trkpt>
      <trkpt lat="47.67544" lon="8.46692">
        <ele>421.547501</ele>
        <time>2022-09-14T08:18:05.539Z</time>
      </trkpt>
      <trkpt lat="47.67415" lon="8.46659">
        <ele>423.615616</ele>
        <time>2022-09-14T08:18:53.209Z</time>
      </trkpt>
      <trkpt lat="47.67412" lon="8.46656">
        <ele>423.657579</ele>
        <time>2022-09-14T08:18:54.375Z</time>
      </trkpt>
      <trkpt lat="47.67353" lon="8.46597">
        <ele>424.479366</ele>
        <time>2022-09-14T08:19:14.167Z</time>
      </trkpt>
      <trkpt lat="47.67322" lon="8.46574">
        <ele>424.083419</ele>
        <time>2022-09-14T08:19:22.544Z</time>
      </trkpt>
      <trkpt lat="47.67166" lon="8.46513">
        <ele>422.488246</ele>
        <time>2022-09-14T08:19:59.502Z</time>
      </trkpt>
      <trkpt lat="47.67168" lon="8.46466">
        <ele>422.646989</ele>
        <time>2022-09-14T08:20:08.143Z</time>
      </trkpt>
      <trkpt lat="47.67132" lon="8.46469">
        <ele>422.827927</ele>
        <time>2022-09-14T08:20:18.620Z</time>
      </trkpt>
      <trkpt lat="47.67039" lon="8.46445">
        <ele>423.300545</ele>
        <time>2022-09-14T08:20:49.401Z</time>
      </trkpt>
      <trkpt lat="47.67022" lon="8.4644">
        <ele>423.460739</ele>
        <time>2022-09-14T08:20:55.635Z</time>
      </trkpt>
      <trkpt lat="47.66975" lon="8.46426">
        <ele>423.905635</ele>
        <time>2022-09-14T08:21:11.592Z</time>
      </trkpt>
      <trkpt lat="47.66969" lon="8.46425">
        <ele>423.965434</ele>
        <time>2022-09-14T08:21:13.585Z</time>
      </trkpt>
      <trkpt lat="47.6696" lon="8.46422">
        <ele>424.053219</ele>
        <time>2022-09-14T08:21:16.575Z</time>
      </trkpt>
      <trkpt lat="47.66945" lon="8.46417">
        <ele>424.197898</ele>
        <time>2022-09-14T08:21:21.296Z</time>
      </trkpt>
      <trkpt lat="47.66909" lon="8.46406">
        <ele>424.544153</ele>
        <time>2022-09-14T08:21:32.319Z</time>
      </trkpt>
      <trkpt lat="47.66879" lon="8.46397">
        <ele>424.836162</ele>
        <time>2022-09-14T08:21:41.535Z</time>
      </trkpt>
      <trkpt lat="47.66881" lon="8.46387">
        <ele>424.905807</ele>
        <time>2022-09-14T08:21:43.612Z</time>
      </trkpt>
      <trkpt lat="47.66884" lon="8.46371">
        <ele>425.007596</ele>
        <time>2022-09-14T08:21:46.673Z</time>
      </trkpt>
      <trkpt lat="47.66878" lon="8.46254">
        <ele>425.30015</ele>
        <time>2022-09-14T08:22:09.158Z</time>
      </trkpt>
      <trkpt lat="47.66866" lon="8.45931">
        <ele>425.543895</ele>
        <time>2022-09-14T08:23:10.841Z</time>
      </trkpt>
      <trkpt lat="47.66865" lon="8.45916">
        <ele>425.532237</ele>
        <time>2022-09-14T08:23:13.343Z</time>
      </trkpt>
      <trkpt lat="47.66838" lon="8.45731">
        <ele>424.703184</ele>
        <time>2022-09-14T08:23:42.995Z</time>
      </trkpt>
      <trkpt lat="47.66838" lon="8.45599">
        <ele>423.782289</ele>
        <time>2022-09-14T08:24:03.165Z</time>
      </trkpt>
      <trkpt lat="47.66838" lon="8.45588">
        <ele>423.701938</ele>
        <time>2022-09-14T08:24:04.983Z</time>
      </trkpt>
      <trkpt lat="47.66838" lon="8.45441">
        <ele>422.42921</ele>
        <time>2022-09-14T08:24:27.651Z</time>
      </trkpt>
      <trkpt lat="47.66831" lon="8.45346">
        <ele>421.591311</ele>
        <time>2022-09-14T08:24:41.877Z</time>
      </trkpt>
      <trkpt lat="47.66796" lon="8.45097">
        <ele>419.152249</ele>
        <time>2022-09-14T08:25:19.308Z</time>
      </trkpt>
      <trkpt lat="47.66794" lon="8.45088">
        <ele>419.061056</ele>
        <time>2022-09-14T08:25:20.768Z</time>
      </trkpt>
      <trkpt lat="47.66769" lon="8.44941">
        <ele>417.594785</ele>
        <time>2022-09-14T08:25:44.468Z</time>
      </trkpt>
      <trkpt lat="47.66772" lon="8.44866">
        <ele>416.867615</ele>
        <time>2022-09-14T08:25:55.947Z</time>
      </trkpt>
      <trkpt lat="47.66777" lon="8.44771">
        <ele>415.826017</ele>
        <time>2022-09-14T08:26:09.699Z</time>
      </trkpt>
      <trkpt lat="47.6677" lon="8.44525">
        <ele>411.443901</ele>
        <time>2022-09-14T08:26:42.648Z</time>
      </trkpt>
      <trkpt lat="47.66769" lon="8.4439">
        <ele>409.334455</ele>
        <time>2022-09-14T08:27:01.078Z</time>
      </trkpt>
      <trkpt lat="47.66773" lon="8.4434">
        <ele>408.559953</ele>
        <time>2022-09-14T08:27:08.143Z</time>
      </trkpt>
      <trkpt lat="47.66794" lon="8.44246">
        <ele>407.077289</ele>
        <time>2022-09-14T08:27:22.522Z</time>
      </trkpt>
      <trkpt lat="47.66796" lon="8.44217">
        <ele>406.777828</ele>
        <time>2022-09-14T08:27:26.630Z</time>
      </trkpt>
      <trkpt lat="47.66793" lon="8.44186">
        <ele>406.448652</ele>
        <time>2022-09-14T08:27:31.146Z</time>
      </trkpt>
      <trkpt lat="47.66749" lon="8.44032">
        <ele>404.699469</ele>
        <time>2022-09-14T08:27:55.806Z</time>
      </trkpt>
      <trkpt lat="47.66639" lon="8.43873">
        <ele>403.300801</ele>
        <time>2022-09-14T08:28:31.565Z</time>
      </trkpt>
      <trkpt lat="47.66492" lon="8.4366">
        <ele>402.54372</ele>
        <time>2022-09-14T08:29:24.015Z</time>
      </trkpt>
      <trkpt lat="47.66467" lon="8.43637">
        <ele>402.470107</ele>
        <time>2022-09-14T08:29:31.624Z</time>
      </trkpt>
      <trkpt lat="47.66459" lon="8.4362">
        <ele>402.432106</ele>
        <time>2022-09-14T08:29:35.321Z</time>
      </trkpt>
      <trkpt lat="47.66462" lon="8.43616">
        <ele>402.421747</ele>
        <time>2022-09-14T08:29:36.259Z</time>
      </trkpt>
      <trkpt lat="47.66476" lon="8.43592">
        <ele>402.361483</ele>
        <time>2022-09-14T08:29:41.968Z</time>
      </trkpt>
      <trkpt lat="47.6652" lon="8.43548">
        <ele>402.216251</ele>
        <time>2022-09-14T08:29:55.487Z</time>
      </trkpt>
      <trkpt lat="47.66535" lon="8.43525">
        <ele>402.158274</ele>
        <time>2022-09-14T08:30:00.856Z</time>
      </trkpt>
      <trkpt lat="47.66471" lon="8.43461">
        <ele>401.916562</ele>
        <time>2022-09-14T08:30:19.945Z</time>
      </trkpt>
      <trkpt lat="47.66371" lon="8.43366">
        <ele>401.4121</ele>
        <time>2022-09-14T08:30:49.452Z</time>
      </trkpt>
      <trkpt lat="47.66357" lon="8.43353">
        <ele>401.337074</ele>
        <time>2022-09-14T08:30:53.846Z</time>
      </trkpt>
      <trkpt lat="47.66312" lon="8.43309">
        <ele>401.13968</ele>
        <time>2022-09-14T08:31:07.219Z</time>
      </trkpt>
      <trkpt lat="47.66252" lon="8.43248">
        <ele>400.906609</ele>
        <time>2022-09-14T08:31:25.517Z</time>
      </trkpt>
      <trkpt lat="47.66245" lon="8.43236">
        <ele>400.871031</ele>
        <time>2022-09-14T08:31:28.350Z</time>
      </trkpt>
      <trkpt lat="47.66212" lon="8.43202">
        <ele>400.74256</ele>
        <time>2022-09-14T08:31:38.463Z</time>
      </trkpt>
      <trkpt lat="47.66192" lon="8.43182">
        <ele>400.665397</ele>
        <time>2022-09-14T08:31:44.536Z</time>
      </trkpt>
      <trkpt lat="47.66182" lon="8.43173">
        <ele>400.638292</ele>
        <time>2022-09-14T08:31:47.368Z</time>
      </trkpt>
      <trkpt lat="47.66151" lon="8.43143">
        <ele>400.562973</ele>
        <time>2022-09-14T08:31:56.922Z</time>
      </trkpt>
      <trkpt lat="47.66119" lon="8.43113">
        <ele>400.48529</ele>
        <time>2022-09-14T08:32:06.863Z</time>
      </trkpt>
      <trkpt lat="47.66115" lon="8.43109">
        <ele>400.476272</ele>
        <time>2022-09-14T08:32:08.011Z</time>
      </trkpt>
      <trkpt lat="47.66105" lon="8.43098">
        <ele>400.451341</ele>
        <time>2022-09-14T08:32:11.220Z</time>
      </trkpt>
      <trkpt lat="47.66065" lon="8.43055">
        <ele>400.352253</ele>
        <time>2022-09-14T08:32:23.830Z</time>
      </trkpt>
      <trkpt lat="47.66024" lon="8.43012">
        <ele>400.314108</ele>
        <time>2022-09-14T08:32:36.835Z</time>
      </trkpt>
      <trkpt lat="47.66008" lon="8.42995">
        <ele>400.340673</ele>
        <time>2022-09-14T08:32:42.133Z</time>
      </trkpt>
      <trkpt lat="47.65928" lon="8.42907">
        <ele>400.470996</ele>
        <time>2022-09-14T08:33:10.013Z</time>
      </trkpt>
      <trkpt lat="47.6589" lon="8.42869">
        <ele>400.517628</ele>
        <time>2022-09-14T08:33:22.660Z</time>
      </trkpt>
      <trkpt lat="47.65878" lon="8.42856">
        <ele>400.496975</ele>
        <time>2022-09-14T08:33:26.682Z</time>
      </trkpt>
      <trkpt lat="47.65861" lon="8.4289">
        <ele>400.457325</ele>
        <time>2022-09-14T08:33:34.019Z</time>
      </trkpt>
      <trkpt lat="47.65843" lon="8.42924">
        <ele>400.416312</ele>
        <time>2022-09-14T08:33:41.629Z</time>
      </trkpt>
      <trkpt lat="47.65835" lon="8.42941">
        <ele>400.395909</ele>
        <time>2022-09-14T08:33:45.432Z</time>
      </trkpt>
      <trkpt lat="47.65825" lon="8.42928">
        <ele>400.378275</ele>
        <time>2022-09-14T08:33:48.654Z</time>
      </trkpt>
      <trkpt lat="47.65817" lon="8.42898">
        <ele>400.346876</ele>
        <time>2022-09-14T08:33:54.359Z</time>
      </trkpt>
      <trkpt lat="47.65756" lon="8.4284">
        <ele>400.176525</ele>
        <time>2022-09-14T08:34:12.884Z</time>
      </trkpt>
      <trkpt lat="47.65483" lon="8.42581">
        <ele>398.585902</ele>
        <time>2022-09-14T08:35:32.149Z</time>
      </trkpt>
      <trkpt lat="47.6547" lon="8.42558">
        <ele>398.506292</ele>
        <time>2022-09-14T08:35:37.141Z</time>
      </trkpt>
      <trkpt lat="47.65284" lon="8.42381">
        <ele>398.351978</ele>
        <time>2022-09-14T08:36:37.134Z</time>
      </trkpt>
      <trkpt lat="47.65336" lon="8.42296">
        <ele>398.036083</ele>
        <time>2022-09-14T08:36:57.450Z</time>
      </trkpt>
      <trkpt lat="47.6526" lon="8.4222">
        <ele>397.471036</ele>
        <time>2022-09-14T08:37:19.112Z</time>
      </trkpt>
      <trkpt lat="47.65277" lon="8.422">
        <ele>397.256538</ele>
        <time>2022-09-14T08:37:24.169Z</time>
      </trkpt>
      <trkpt lat="47.65251" lon="8.42191">
        <ele>396.996266</ele>
        <time>2022-09-14T08:37:30.143Z</time>
      </trkpt>
      <trkpt lat="47.6512" lon="8.42051">
        <ele>395.530203</ele>
        <time>2022-09-14T08:38:07.572Z</time>
      </trkpt>
      <trkpt lat="47.65039" lon="8.41973">
        <ele>394.767817</ele>
        <time>2022-09-14T08:38:30.626Z</time>
      </trkpt>
      <trkpt lat="47.65025" lon="8.41951">
        <ele>394.610153</ele>
        <time>2022-09-14T08:38:35.711Z</time>
      </trkpt>
      <trkpt lat="47.65024" lon="8.41939">
        <ele>394.58938</ele>
        <time>2022-09-14T08:38:37.585Z</time>
      </trkpt>
      <trkpt lat="47.65016" lon="8.41892">
        <ele>394.505054</ele>
        <time>2022-09-14T08:38:45.847Z</time>
      </trkpt>
      <trkpt lat="47.64944" lon="8.41765">
        <ele>394.215996</ele>
        <time>2022-09-14T08:39:14.431Z</time>
      </trkpt>
      <trkpt lat="47.64794" lon="8.41506">
        <ele>394.099527</ele>
        <time>2022-09-14T08:40:16.215Z</time>
      </trkpt>
      <trkpt lat="47.64731" lon="8.4136">
        <ele>393.827385</ele>
        <time>2022-09-14T08:40:46.063Z</time>
      </trkpt>
      <trkpt lat="47.64607" lon="8.41168">
        <ele>393.279596</ele>
        <time>2022-09-14T08:41:31.088Z</time>
      </trkpt>
      <trkpt lat="47.64603" lon="8.4118">
        <ele>393.252195</ele>
        <time>2022-09-14T08:41:33.249Z</time>
      </trkpt>
      <trkpt lat="47.64596" lon="8.41196">
        <ele>393.209588</ele>
        <time>2022-09-14T08:41:36.600Z</time>
      </trkpt>
      <trkpt lat="47.6459" lon="8.41211">
        <ele>393.171987</ele>
        <time>2022-09-14T08:41:39.561Z</time>
      </trkpt>
      <trkpt lat="47.64575" lon="8.41183">
        <ele>393.116809</ele>
        <time>2022-09-14T08:41:45.636Z</time>
      </trkpt>
      <trkpt lat="47.64533" lon="8.41156">
        <ele>393.02868</ele>
        <time>2022-09-14T08:41:57.696Z</time>
      </trkpt>
      <trkpt lat="47.64296" lon="8.41079">
        <ele>392.648642</ele>
        <time>2022-09-14T08:43:00.444Z</time>
      </trkpt>
      <trkpt lat="47.6426" lon="8.4106">
        <ele>392.60057</ele>
        <time>2022-09-14T08:43:10.364Z</time>
      </trkpt>
      <trkpt lat="47.6393" lon="8.40849">
        <ele>392.179773</ele>
        <time>2022-09-14T08:44:44.818Z</time>
      </trkpt>
      <trkpt lat="47.63914" lon="8.40834">
        <ele>392.144166</ele>
        <time>2022-09-14T08:44:49.546Z</time>
      </trkpt>
      <trkpt lat="47.63815" lon="8.40791">
        <ele>391.658639</ele>
        <time>2022-09-14T08:45:15.019Z</time>
      </trkpt>
      <trkpt lat="47.63776" lon="8.40762">
        <ele>391.449592</ele>
        <time>2022-09-14T08:45:25.800Z</time>
      </trkpt>
      <trkpt lat="47.63564" lon="8.40498">
        <ele>390.264209</ele>
        <time>2022-09-14T08:46:34.949Z</time>
      </trkpt>
      <trkpt lat="47.63417" lon="8.40281">
        <ele>389.347355</ele>
        <time>2022-09-14T08:47:26.140Z</time>
      </trkpt>
      <trkpt lat="47.63395" lon="8.40233">
        <ele>389.180593</ele>
        <time>2022-09-14T08:47:35.821Z</time>
      </trkpt>
      <trkpt lat="47.6319" lon="8.3988">
        <ele>388.204707</ele>
        <time>2022-09-14T08:48:55.689Z</time>
      </trkpt>
      <trkpt lat="47.63175" lon="8.39863">
        <ele>388.151883</ele>
        <time>2022-09-14T08:49:00.479Z</time>
      </trkpt>
      <trkpt lat="47.63158" lon="8.39824">
        <ele>388.064347</ele>
        <time>2022-09-14T08:49:08.433Z</time>
      </trkpt>
      <trkpt lat="47.62964" lon="8.39519">
        <ele>386.958185</ele>
        <time>2022-09-14T08:50:19.814Z</time>
      </trkpt>
      <trkpt lat="47.62889" lon="8.39341">
        <ele>386.164979</ele>
        <time>2022-09-14T08:50:53.749Z</time>
      </trkpt>
      <trkpt lat="47.6284" lon="8.39241">
        <ele>385.784652</ele>
        <time>2022-09-14T08:51:13.782Z</time>
      </trkpt>
      <trkpt lat="47.62815" lon="8.39205">
        <ele>385.622261</ele>
        <time>2022-09-14T08:51:22.590Z</time>
      </trkpt>
      <trkpt lat="47.62799" lon="8.3916">
        <ele>385.46364</ele>
        <time>2022-09-14T08:51:31.360Z</time>
      </trkpt>
      <trkpt lat="47.62735" lon="8.39026">
        <ele>385.396893</ele>
        <time>2022-09-14T08:52:00.519Z</time>
      </trkpt>
      <trkpt lat="47.62698" lon="8.38921">
        <ele>385.368613</ele>
        <time>2022-09-14T08:52:22.334Z</time>
      </trkpt>
      <trkpt lat="47.62679" lon="8.38828">
        <ele>385.347167</ele>
        <time>2022-09-14T08:52:39.963Z</time>
      </trkpt>
      <trkpt lat="47.62656" lon="8.38605">
        <ele>385.188633</ele>
        <time>2022-09-14T08:53:20.004Z</time>
      </trkpt>
      <trkpt lat="47.62646" lon="8.38573">
        <ele>385.117572</ele>
        <time>2022-09-14T08:53:26.024Z</time>
      </trkpt>
      <trkpt lat="47.62622" lon="8.38574">
        <ele>385.047</ele>
        <time>2022-09-14T08:53:32.219Z</time>
      </trkpt>
      <trkpt lat="47.62609" lon="8.38385">
        <ele>384.639687</ele>
        <time>2022-09-14T08:54:04.162Z</time>
      </trkpt>
      <trkpt lat="47.62584" lon="8.3825">
        <ele>384.289742</ele>
        <time>2022-09-14T08:54:27.647Z</time>
      </trkpt>
      <trkpt lat="47.62545" lon="8.38149">
        <ele>384.035335</ele>
        <time>2022-09-14T08:54:47.834Z</time>
      </trkpt>
      <trkpt lat="47.62502" lon="8.38081">
        <ele>383.882233</ele>
        <time>2022-09-14T08:55:04.120Z</time>
      </trkpt>
      <trkpt lat="47.62454" lon="8.37977">
        <ele>383.674349</ele>
        <time>2022-09-14T08:55:25.616Z</time>
      </trkpt>
      <trkpt lat="47.62445" lon="8.37879">
        <ele>383.37816</ele>
        <time>2022-09-14T08:55:42.113Z</time>
      </trkpt>
      <trkpt lat="47.62447" lon="8.37822">
        <ele>383.204326</ele>
        <time>2022-09-14T08:55:51.676Z</time>
      </trkpt>
      <trkpt lat="47.62441" lon="8.37808">
        <ele>383.153972</ele>
        <time>2022-09-14T08:55:54.121Z</time>
      </trkpt>
      <trkpt lat="47.62455" lon="8.37623">
        <ele>383.00068</ele>
        <time>2022-09-14T08:56:26.236Z</time>
      </trkpt>
      <trkpt lat="47.62457" lon="8.37591">
        <ele>383.050331</ele>
        <time>2022-09-14T08:56:31.448Z</time>
      </trkpt>
      <trkpt lat="47.62473" lon="8.37489">
        <ele>383.214023</ele>
        <time>2022-09-14T08:56:51.874Z</time>
      </trkpt>
      <trkpt lat="47.6244" lon="8.37395">
        <ele>384.280817</ele>
        <time>2022-09-14T08:57:13.538Z</time>
      </trkpt>
      <trkpt lat="47.62401" lon="8.3716">
        <ele>388.802692</ele>
        <time>2022-09-14T08:58:18.231Z</time>
      </trkpt>
      <trkpt lat="47.62352" lon="8.37052">
        <ele>393.323428</ele>
        <time>2022-09-14T08:59:03.891Z</time>
      </trkpt>
      <trkpt lat="47.6235" lon="8.37021">
        <ele>394.423265</ele>
        <time>2022-09-14T08:59:17.134Z</time>
      </trkpt>
      <trkpt lat="47.62355" lon="8.36948">
        <ele>396.964572</ele>
        <time>2022-09-14T08:59:44.453Z</time>
      </trkpt>
      <trkpt lat="47.62347" lon="8.368">
        <ele>401.994114</ele>
        <time>2022-09-14T09:00:42.026Z</time>
      </trkpt>
      <trkpt lat="47.62318" lon="8.36691">
        <ele>405.709616</ele>
        <time>2022-09-14T09:01:16.578Z</time>
      </trkpt>
      <trkpt lat="47.62297" lon="8.36593">
        <ele>406.223914</ele>
        <time>2022-09-14T09:01:41.814Z</time>
      </trkpt>
      <trkpt lat="47.62276" lon="8.36497">
        <ele>406.723226</ele>
        <time>2022-09-14T09:02:01.757Z</time>
      </trkpt>
      <trkpt lat="47.6222" lon="8.36328">
        <ele>404.758477</ele>
        <time>2022-09-14T09:02:28.348Z</time>
      </trkpt>
      <trkpt lat="47.62218" lon="8.36258">
        <ele>403.579364</ele>
        <time>2022-09-14T09:02:37.628Z</time>
      </trkpt>
      <trkpt lat="47.62202" lon="8.36161">
        <ele>401.808893</ele>
        <time>2022-09-14T09:02:50.849Z</time>
      </trkpt>
      <trkpt lat="47.62196" lon="8.36108">
        <ele>400.781729</ele>
        <time>2022-09-14T09:02:58.033Z</time>
      </trkpt>
      <trkpt lat="47.62184" lon="8.36057">
        <ele>399.742534</ele>
        <time>2022-09-14T09:03:05.377Z</time>
      </trkpt>
      <trkpt lat="47.62168" lon="8.35985">
        <ele>398.283464</ele>
        <time>2022-09-14T09:03:15.321Z</time>
      </trkpt>
      <trkpt lat="47.62169" lon="8.35853">
        <ele>395.762547</ele>
        <time>2022-09-14T09:03:33.572Z</time>
      </trkpt>
      <trkpt lat="47.62163" lon="8.35816">
        <ele>395.019399</ele>
        <time>2022-09-14T09:03:39.034Z</time>
      </trkpt>
      <trkpt lat="47.62127" lon="8.35777">
        <ele>393.757683</ele>
        <time>2022-09-14T09:03:48.168Z</time>
      </trkpt>
      <trkpt lat="47.62129" lon="8.35747">
        <ele>393.179068</ele>
        <time>2022-09-14T09:03:52.236Z</time>
      </trkpt>
      <trkpt lat="47.62142" lon="8.35697">
        <ele>392.0935</ele>
        <time>2022-09-14T09:03:59.116Z</time>
      </trkpt>
      <trkpt lat="47.62187" lon="8.35604">
        <ele>388.874175</ele>
        <time>2022-09-14T09:04:13.274Z</time>
      </trkpt>
      <trkpt lat="47.62201" lon="8.35562">
        <ele>387.570392</ele>
        <time>2022-09-14T09:04:19.181Z</time>
      </trkpt>
      <trkpt lat="47.62201" lon="8.35517">
        <ele>386.325553</ele>
        <time>2022-09-14T09:04:24.888Z</time>
      </trkpt>
      <trkpt lat="47.62192" lon="8.35435">
        <ele>384.145152</ele>
        <time>2022-09-14T09:04:35.410Z</time>
      </trkpt>
      <trkpt lat="47.62147" lon="8.35405">
        <ele>382.461202</ele>
        <time>2022-09-14T09:04:44.973Z</time>
      </trkpt>
      <trkpt lat="47.62032" lon="8.35332">
        <ele>378.40878</ele>
        <time>2022-09-14T09:05:10.767Z</time>
      </trkpt>
      <trkpt lat="47.62046" lon="8.35203">
        <ele>376.835904</ele>
        <time>2022-09-14T09:05:36.735Z</time>
      </trkpt>
      <trkpt lat="47.62078" lon="8.35014">
        <ele>374.779868</ele>
        <time>2022-09-14T09:06:16.893Z</time>
      </trkpt>
      <trkpt lat="47.62096" lon="8.34876">
        <ele>373.626399</ele>
        <time>2022-09-14T09:06:45.628Z</time>
      </trkpt>
      <trkpt lat="47.62117" lon="8.34655">
        <ele>372.347361</ele>
        <time>2022-09-14T09:07:33.156Z</time>
      </trkpt>
      <trkpt lat="47.62125" lon="8.34497">
        <ele>371.741394</ele>
        <time>2022-09-14T09:08:08.854Z</time>
      </trkpt>
      <trkpt lat="47.62139" lon="8.3434">
        <ele>371.396927</ele>
        <time>2022-09-14T09:08:45.344Z</time>
      </trkpt>
      <trkpt lat="47.62146" lon="8.34312">
        <ele>371.334088</ele>
        <time>2022-09-14T09:08:51.803Z</time>
      </trkpt>
      <trkpt lat="47.6219" lon="8.34203">
        <ele>371.108846</ele>
        <time>2022-09-14T09:09:21.027Z</time>
      </trkpt>
      <trkpt lat="47.6222" lon="8.34155">
        <ele>370.996327</ele>
        <time>2022-09-14T09:09:35.848Z</time>
      </trkpt>
      <trkpt lat="47.62159" lon="8.34088">
        <ele>370.816435</ele>
        <time>2022-09-14T09:09:54.931Z</time>
      </trkpt>
      <trkpt lat="47.62149" lon="8.3407">
        <ele>370.786283</ele>
        <time>2022-09-14T09:09:59.169Z</time>
      </trkpt>
      <trkpt lat="47.62131" lon="8.34022">
        <ele>370.719688</ele>
        <time>2022-09-14T09:10:08.547Z</time>
      </trkpt>
      <trkpt lat="47.62127" lon="8.33997">
        <ele>370.68775</ele>
        <time>2022-09-14T09:10:13.121Z</time>
      </trkpt>
      <trkpt lat="47.62127" lon="8.33867">
        <ele>370.527331</ele>
        <time>2022-09-14T09:10:36.214Z</time>
      </trkpt>
      <trkpt lat="47.6213" lon="8.33789">
        <ele>370.360073</ele>
        <time>2022-09-14T09:10:49.341Z</time>
      </trkpt>
      <trkpt lat="47.6215" lon="8.33719">
        <ele>370.191019</ele>
        <time>2022-09-14T09:11:02.109Z</time>
      </trkpt>
      <trkpt lat="47.62165" lon="8.33669">
        <ele>370.068725</ele>
        <time>2022-09-14T09:11:11.502Z</time>
      </trkpt>
      <trkpt lat="47.62165" lon="8.3365">
        <ele>370.027816</ele>
        <time>2022-09-14T09:11:14.601Z</time>
      </trkpt>
      <trkpt lat="47.62161" lon="8.33644">
        <ele>370.007258</ele>
        <time>2022-09-14T09:11:16.249Z</time>
      </trkpt>
      <trkpt lat="47.62123" lon="8.33633">
        <ele>369.891145</ele>
        <time>2022-09-14T09:11:26.120Z</time>
      </trkpt>
      <trkpt lat="47.6211" lon="8.33623">
        <ele>369.853432</ele>
        <time>2022-09-14T09:11:29.975Z</time>
      </trkpt>
      <trkpt lat="47.62096" lon="8.33601">
        <ele>369.802328</ele>
        <time>2022-09-14T09:11:35.035Z</time>
      </trkpt>
      <trkpt lat="47.62029" lon="8.33416">
        <ele>369.374521</ele>
        <time>2022-09-14T09:12:11.698Z</time>
      </trkpt>
      <trkpt lat="47.62001" lon="8.33245">
        <ele>368.339188</ele>
        <time>2022-09-14T09:12:40.979Z</time>
      </trkpt>
      <trkpt lat="47.61966" lon="8.331">
        <ele>366.656481</ele>
        <time>2022-09-14T09:13:03.144Z</time>
      </trkpt>
      <trkpt lat="47.61938" lon="8.33026">
        <ele>365.334312</ele>
        <time>2022-09-14T09:13:14.867Z</time>
      </trkpt>
      <trkpt lat="47.61931" lon="8.33009">
        <ele>365.024029</ele>
        <time>2022-09-14T09:13:17.510Z</time>
      </trkpt>
      <trkpt lat="47.61948" lon="8.32985">
        <ele>364.47701</ele>
        <time>2022-09-14T09:13:22.261Z</time>
      </trkpt>
      <trkpt lat="47.61994" lon="8.32914">
        <ele>363.019542</ele>
        <time>2022-09-14T09:13:35.612Z</time>
      </trkpt>
      <trkpt lat="47.6201" lon="8.32868">
        <ele>362.287743</ele>
        <time>2022-09-14T09:13:42.719Z</time>
      </trkpt>
      <trkpt lat="47.62011" lon="8.32862">
        <ele>362.20537</ele>
        <time>2022-09-14T09:13:43.528Z</time>
      </trkpt>
      <trkpt lat="47.62012" lon="8.32844">
        <ele>361.951303</ele>
        <time>2022-09-14T09:13:46.003Z</time>
      </trkpt>
      <trkpt lat="47.62013" lon="8.32819">
        <ele>361.596112</ele>
        <time>2022-09-14T09:13:49.505Z</time>
      </trkpt>
      <trkpt lat="47.62014" lon="8.32813">
        <ele>361.520017</ele>
        <time>2022-09-14T09:13:50.264Z</time>
      </trkpt>
      <trkpt lat="47.62013" lon="8.32808">
        <ele>361.443921</ele>
        <time>2022-09-14T09:13:51.022Z</time>
      </trkpt>
      <trkpt lat="47.62018" lon="8.32759">
        <ele>360.754779</ele>
        <time>2022-09-14T09:13:58.196Z</time>
      </trkpt>
      <trkpt lat="47.62021" lon="8.32743">
        <ele>360.512009</ele>
        <time>2022-09-14T09:14:00.744Z</time>
      </trkpt>
      <trkpt lat="47.62035" lon="8.32684">
        <ele>359.774527</ele>
        <time>2022-09-14T09:14:10.113Z</time>
      </trkpt>
      <trkpt lat="47.62043" lon="8.32675">
        <ele>359.654627</ele>
        <time>2022-09-14T09:14:12.357Z</time>
      </trkpt>
      <trkpt lat="47.62063" lon="8.32666">
        <ele>359.396717</ele>
        <time>2022-09-14T09:14:17.325Z</time>
      </trkpt>
      <trkpt lat="47.62105" lon="8.32644">
        <ele>358.862132</ele>
        <time>2022-09-14T09:14:27.751Z</time>
      </trkpt>
      <trkpt lat="47.62133" lon="8.32616">
        <ele>358.457434</ele>
        <time>2022-09-14T09:14:35.526Z</time>
      </trkpt>
      <trkpt lat="47.6214" lon="8.32608">
        <ele>358.348726</ele>
        <time>2022-09-14T09:14:37.582Z</time>
      </trkpt>
      <trkpt lat="47.62181" lon="8.32593">
        <ele>357.836247</ele>
        <time>2022-09-14T09:14:47.014Z</time>
      </trkpt>
      <trkpt lat="47.62221" lon="8.32586">
        <ele>357.132882</ele>
        <time>2022-09-14T09:14:55.836Z</time>
      </trkpt>
      <trkpt lat="47.62236" lon="8.32581">
        <ele>356.866966</ele>
        <time>2022-09-14T09:14:58.978Z</time>
      </trkpt>
      <trkpt lat="47.62237" lon="8.32581">
        <ele>356.843441</ele>
        <time>2022-09-14T09:14:59.253Z</time>
      </trkpt>
      <trkpt lat="47.62254" lon="8.32576">
        <ele>356.533311</ele>
        <time>2022-09-14T09:15:03.064Z</time>
      </trkpt>
      <trkpt lat="47.62257" lon="8.32575">
        <ele>356.475285</ele>
        <time>2022-09-14T09:15:03.756Z</time>
      </trkpt>
      <trkpt lat="47.62263" lon="8.32573">
        <ele>356.375153</ele>
        <time>2022-09-14T09:15:04.936Z</time>
      </trkpt>
      <trkpt lat="47.62289" lon="8.32562">
        <ele>355.886112</ele>
        <time>2022-09-14T09:15:10.822Z</time>
      </trkpt>
      <trkpt lat="47.62294" lon="8.3256">
        <ele>355.795552</ele>
        <time>2022-09-14T09:15:11.911Z</time>
      </trkpt>
      <trkpt lat="47.62302" lon="8.32555">
        <ele>355.640793</ele>
        <time>2022-09-14T09:15:13.732Z</time>
      </trkpt>
      <trkpt lat="47.62339" lon="8.32535">
        <ele>354.93918</ele>
        <time>2022-09-14T09:15:22.051Z</time>
      </trkpt>
      <trkpt lat="47.62336" lon="8.32527">
        <ele>354.831609</ele>
        <time>2022-09-14T09:15:24.328Z</time>
      </trkpt>
      <trkpt lat="47.62326" lon="8.32488">
        <ele>354.333758</ele>
        <time>2022-09-14T09:15:34.917Z</time>
      </trkpt>
      <trkpt lat="47.62324" lon="8.32412">
        <ele>353.465003</ele>
        <time>2022-09-14T09:15:53.986Z</time>
      </trkpt>
      <trkpt lat="47.62331" lon="8.32353">
        <ele>352.772295</ele>
        <time>2022-09-14T09:16:09.486Z</time>
      </trkpt>
      <trkpt lat="47.62353" lon="8.32244">
        <ele>351.48072</ele>
        <time>2022-09-14T09:16:39.581Z</time>
      </trkpt>
      <trkpt lat="47.62365" lon="8.32201">
        <ele>351.18551</ele>
        <time>2022-09-14T09:16:52.453Z</time>
      </trkpt>
      <trkpt lat="47.62399" lon="8.3212">
        <ele>350.593392</ele>
        <time>2022-09-14T09:17:18.481Z</time>
      </trkpt>
      <trkpt lat="47.62521" lon="8.31904">
        <ele>349.277598</ele>
        <time>2022-09-14T09:18:37.119Z</time>
      </trkpt>
      <trkpt lat="47.62536" lon="8.31866">
        <ele>349.119838</ele>
        <time>2022-09-14T09:18:50.130Z</time>
      </trkpt>
      <trkpt lat="47.62549" lon="8.31812">
        <ele>348.918618</ele>
        <time>2022-09-14T09:19:06.883Z</time>
      </trkpt>
      <trkpt lat="47.62555" lon="8.31755">
        <ele>348.778446</ele>
        <time>2022-09-14T09:19:23.813Z</time>
      </trkpt>
      <trkpt lat="47.62553" lon="8.31691">
        <ele>348.631047</ele>
        <time>2022-09-14T09:19:42.345Z</time>
      </trkpt>
      <trkpt lat="47.62544" lon="8.31611">
        <ele>348.44341</ele>
        <time>2022-09-14T09:20:05.871Z</time>
      </trkpt>
      <trkpt lat="47.62524" lon="8.31503">
        <ele>348.136784</ele>
        <time>2022-09-14T09:20:38.092Z</time>
      </trkpt>
      <trkpt lat="47.62489" lon="8.3134">
        <ele>347.55593</ele>
        <time>2022-09-14T09:21:26.063Z</time>
      </trkpt>
      <trkpt lat="47.62387" lon="8.30874">
        <ele>347.072743</ele>
        <time>2022-09-14T09:23:50.362Z</time>
      </trkpt>
      <trkpt lat="47.62391" lon="8.3086">
        <ele>347.078226</ele>
        <time>2022-09-14T09:23:55.305Z</time>
      </trkpt>
      <trkpt lat="47.62375" lon="8.30811">
        <ele>347.098723</ele>
        <time>2022-09-14T09:24:07.673Z</time>
      </trkpt>
      <trkpt lat="47.62351" lon="8.30707">
        <ele>347.211271</ele>
        <time>2022-09-14T09:24:29.501Z</time>
      </trkpt>
      <trkpt lat="47.62346" lon="8.30666">
        <ele>347.262036</ele>
        <time>2022-09-14T09:24:39.581Z</time>
      </trkpt>
      <trkpt lat="47.62363" lon="8.30621">
        <ele>347.326284</ele>
        <time>2022-09-14T09:24:52.684Z</time>
      </trkpt>
      <trkpt lat="47.62387" lon="8.30582">
        <ele>347.391261</ele>
        <time>2022-09-14T09:25:03.039Z</time>
      </trkpt>
      <trkpt lat="47.62397" lon="8.30568">
        <ele>347.415855</ele>
        <time>2022-09-14T09:25:06.738Z</time>
      </trkpt>
      <trkpt lat="47.6241" lon="8.30549">
        <ele>347.474419</ele>
        <time>2022-09-14T09:25:11.612Z</time>
      </trkpt>
      <trkpt lat="47.62435" lon="8.3053">
        <ele>347.63823</ele>
        <time>2022-09-14T09:25:18.662Z</time>
      </trkpt>
      <trkpt lat="47.62467" lon="8.30524">
        <ele>347.823471</ele>
        <time>2022-09-14T09:25:26.222Z</time>
      </trkpt>
      <trkpt lat="47.62513" lon="8.30518">
        <ele>348.085993</ele>
        <time>2022-09-14T09:25:38.020Z</time>
      </trkpt>
      <trkpt lat="47.62517" lon="8.30517">
        <ele>348.109704</ele>
        <time>2022-09-14T09:25:39.219Z</time>
      </trkpt>
      <trkpt lat="47.62567" lon="8.30535">
        <ele>348.406808</ele>
        <time>2022-09-14T09:25:58.062Z</time>
      </trkpt>
      <trkpt lat="47.62603" lon="8.30527">
        <ele>348.832015</ele>
        <time>2022-09-14T09:26:11.442Z</time>
      </trkpt>
      <trkpt lat="47.62625" lon="8.30511">
        <ele>349.18765</ele>
        <time>2022-09-14T09:26:20.212Z</time>
      </trkpt>
      <trkpt lat="47.62669" lon="8.30485">
        <ele>349.86674</ele>
        <time>2022-09-14T09:26:36.387Z</time>
      </trkpt>
      <trkpt lat="47.62695" lon="8.30471">
        <ele>350.272034</ele>
        <time>2022-09-14T09:26:45.647Z</time>
      </trkpt>
      <trkpt lat="47.62734" lon="8.30459">
        <ele>350.842494</ele>
        <time>2022-09-14T09:26:58.423Z</time>
      </trkpt>
      <trkpt lat="47.62786" lon="8.3043">
        <ele>351.071436</ele>
        <time>2022-09-14T09:27:15.683Z</time>
      </trkpt>
      <trkpt lat="47.62796" lon="8.30423">
        <ele>351.072716</ele>
        <time>2022-09-14T09:27:18.996Z</time>
      </trkpt>
      <trkpt lat="47.62804" lon="8.30416">
        <ele>351.073741</ele>
        <time>2022-09-14T09:27:21.447Z</time>
      </trkpt>
      <trkpt lat="47.62851" lon="8.30377">
        <ele>351.079999</ele>
        <time>2022-09-14T09:27:35.422Z</time>
      </trkpt>
      <trkpt lat="47.62853" lon="8.30375">
        <ele>351.08027</ele>
        <time>2022-09-14T09:27:36.024Z</time>
      </trkpt>
      <trkpt lat="47.62879" lon="8.30339">
        <ele>351.084441</ele>
        <time>2022-09-14T09:27:44.881Z</time>
      </trkpt>
      <trkpt lat="47.62904" lon="8.30297">
        <ele>351.004513</ele>
        <time>2022-09-14T09:27:53.934Z</time>
      </trkpt>
      <trkpt lat="47.62906" lon="8.30279">
        <ele>350.899364</ele>
        <time>2022-09-14T09:27:56.911Z</time>
      </trkpt>
      <trkpt lat="47.62946" lon="8.3022">
        <ele>350.421135</ele>
        <time>2022-09-14T09:28:10.103Z</time>
      </trkpt>
      <trkpt lat="47.62957" lon="8.30206">
        <ele>350.30219</ele>
        <time>2022-09-14T09:28:13.340Z</time>
      </trkpt>
      <trkpt lat="47.62986" lon="8.30168">
        <ele>349.975317</ele>
        <time>2022-09-14T09:28:22.294Z</time>
      </trkpt>
      <trkpt lat="47.63031" lon="8.30102">
        <ele>349.475336</ele>
        <time>2022-09-14T09:28:37.499Z</time>
      </trkpt>
      <trkpt lat="47.63056" lon="8.30065">
        <ele>349.259338</ele>
        <time>2022-09-14T09:28:46.043Z</time>
      </trkpt>
      <trkpt lat="47.63062" lon="8.30054">
        <ele>349.200966</ele>
        <time>2022-09-14T09:28:48.353Z</time>
      </trkpt>
      <trkpt lat="47.63077" lon="8.30031">
        <ele>349.065445</ele>
        <time>2022-09-14T09:28:53.598Z</time>
      </trkpt>
      <trkpt lat="47.63084" lon="8.3002">
        <ele>349.00676</ele>
        <time>2022-09-14T09:28:55.873Z</time>
      </trkpt>
      <trkpt lat="47.63091" lon="8.30009">
        <ele>348.943344</ele>
        <time>2022-09-14T09:28:58.378Z</time>
      </trkpt>
      <trkpt lat="47.63099" lon="8.29995">
        <ele>348.863012</ele>
        <time>2022-09-14T09:29:01.509Z</time>
      </trkpt>
      <trkpt lat="47.63147" lon="8.29922">
        <ele>348.445147</ele>
        <time>2022-09-14T09:29:18.196Z</time>
      </trkpt>
      <trkpt lat="47.63161" lon="8.29901">
        <ele>348.337095</ele>
        <time>2022-09-14T09:29:23.030Z</time>
      </trkpt>
      <trkpt lat="47.6318" lon="8.29867">
        <ele>348.1774</ele>
        <time>2022-09-14T09:29:30.375Z</time>
      </trkpt>
      <trkpt lat="47.632" lon="8.29831">
        <ele>348.005016</ele>
        <time>2022-09-14T09:29:38.665Z</time>
      </trkpt>
      <trkpt lat="47.63203" lon="8.29826">
        <ele>347.981159</ele>
        <time>2022-09-14T09:29:39.758Z</time>
      </trkpt>
      <trkpt lat="47.63236" lon="8.29766">
        <ele>347.702606</ele>
        <time>2022-09-14T09:29:52.835Z</time>
      </trkpt>
      <trkpt lat="47.63242" lon="8.29755">
        <ele>347.652124</ele>
        <time>2022-09-14T09:29:55.051Z</time>
      </trkpt>
      <trkpt lat="47.63233" lon="8.29746">
        <ele>347.596315</ele>
        <time>2022-09-14T09:29:57.404Z</time>
      </trkpt>
      <trkpt lat="47.63253" lon="8.29702">
        <ele>347.190018</ele>
        <time>2022-09-14T09:30:05.788Z</time>
      </trkpt>
      <trkpt lat="47.6327" lon="8.29693">
        <ele>346.849471</ele>
        <time>2022-09-14T09:30:10.543Z</time>
      </trkpt>
      <trkpt lat="47.63301" lon="8.29678">
        <ele>346.273273</ele>
        <time>2022-09-14T09:30:17.825Z</time>
      </trkpt>
      <trkpt lat="47.63367" lon="8.29574">
        <ele>344.511899</ele>
        <time>2022-09-14T09:30:38.203Z</time>
      </trkpt>
      <trkpt lat="47.63369" lon="8.29563">
        <ele>344.37181</ele>
        <time>2022-09-14T09:30:39.775Z</time>
      </trkpt>
      <trkpt lat="47.6337" lon="8.29516">
        <ele>343.364533</ele>
        <time>2022-09-14T09:30:45.936Z</time>
      </trkpt>
      <trkpt lat="47.63335" lon="8.29259">
        <ele>337.063256</ele>
        <time>2022-09-14T09:31:19.151Z</time>
      </trkpt>
      <trkpt lat="47.63329" lon="8.29223">
        <ele>336.445437</ele>
        <time>2022-09-14T09:31:24.027Z</time>
      </trkpt>
      <trkpt lat="47.63324" lon="8.29198">
        <ele>336.012742</ele>
        <time>2022-09-14T09:31:27.528Z</time>
      </trkpt>
      <trkpt lat="47.63323" lon="8.29191">
        <ele>335.903789</ele>
        <time>2022-09-14T09:31:28.427Z</time>
      </trkpt>
      <trkpt lat="47.63312" lon="8.29139">
        <ele>334.989043</ele>
        <time>2022-09-14T09:31:36.042Z</time>
      </trkpt>
      <trkpt lat="47.63313" lon="8.29123">
        <ele>334.723696</ele>
        <time>2022-09-14T09:31:38.289Z</time>
      </trkpt>
      <trkpt lat="47.63326" lon="8.29104">
        <ele>334.283158</ele>
        <time>2022-09-14T09:31:42.101Z</time>
      </trkpt>
      <trkpt lat="47.6335" lon="8.29071">
        <ele>333.487616</ele>
        <time>2022-09-14T09:31:49.148Z</time>
      </trkpt>
      <trkpt lat="47.63363" lon="8.2908">
        <ele>333.13545</ele>
        <time>2022-09-14T09:31:52.289Z</time>
      </trkpt>
      <trkpt lat="47.63388" lon="8.29128">
        <ele>332.676701</ele>
        <time>2022-09-14T09:32:01.806Z</time>
      </trkpt>
      <trkpt lat="47.63403" lon="8.29128">
        <ele>332.509536</ele>
        <time>2022-09-14T09:32:05.502Z</time>
      </trkpt>
      <trkpt lat="47.63418" lon="8.29117">
        <ele>332.323226</ele>
        <time>2022-09-14T09:32:12.286Z</time>
      </trkpt>
      <trkpt lat="47.63422" lon="8.29115">
        <ele>332.27928</ele>
        <time>2022-09-14T09:32:13.910Z</time>
      </trkpt>
      <trkpt lat="47.63416" lon="8.29087">
        <ele>332.056207</ele>
        <time>2022-09-14T09:32:19.303Z</time>
      </trkpt>
      <trkpt lat="47.63388" lon="8.28961">
        <ele>331.057427</ele>
        <time>2022-09-14T09:32:42.285Z</time>
      </trkpt>
      <trkpt lat="47.63415" lon="8.28868">
        <ele>330.2655</ele>
        <time>2022-09-14T09:32:59.410Z</time>
      </trkpt>
      <trkpt lat="47.63431" lon="8.2879">
        <ele>329.621183</ele>
        <time>2022-09-14T09:33:13.513Z</time>
      </trkpt>
      <trkpt lat="47.63429" lon="8.28698">
        <ele>328.946395</ele>
        <time>2022-09-14T09:33:29.492Z</time>
      </trkpt>
      <trkpt lat="47.63393" lon="8.28561">
        <ele>328.180041</ele>
        <time>2022-09-14T09:33:55.506Z</time>
      </trkpt>
      <trkpt lat="47.63338" lon="8.28403">
        <ele>327.850334</ele>
        <time>2022-09-14T09:34:28.165Z</time>
      </trkpt>
      <trkpt lat="47.63279" lon="8.28278">
        <ele>328.270302</ele>
        <time>2022-09-14T09:35:01.165Z</time>
      </trkpt>
      <trkpt lat="47.63256" lon="8.2823">
        <ele>328.649235</ele>
        <time>2022-09-14T09:35:15.213Z</time>
      </trkpt>
      <trkpt lat="47.63188" lon="8.28074">
        <ele>331.180019</ele>
        <time>2022-09-14T09:36:05.894Z</time>
      </trkpt>
      <trkpt lat="47.62977" lon="8.276">
        <ele>337.697586</ele>
        <time>2022-09-14T09:38:40.269Z</time>
      </trkpt>
      <trkpt lat="47.62973" lon="8.27578">
        <ele>337.853246</ele>
        <time>2022-09-14T09:38:43.292Z</time>
      </trkpt>
      <trkpt lat="47.62931" lon="8.27512">
        <ele>335.892575</ele>
        <time>2022-09-14T09:38:56.470Z</time>
      </trkpt>
      <trkpt lat="47.62892" lon="8.27468">
        <ele>334.20773</ele>
        <time>2022-09-14T09:39:06.408Z</time>
      </trkpt>
      <trkpt lat="47.62835" lon="8.27427">
        <ele>332.038009</ele>
        <time>2022-09-14T09:39:19.682Z</time>
      </trkpt>
      <trkpt lat="47.62764" lon="8.27386">
        <ele>331.49909</ele>
        <time>2022-09-14T09:39:39.915Z</time>
      </trkpt>
      <trkpt lat="47.62709" lon="8.27338">
        <ele>331.297815</ele>
        <time>2022-09-14T09:40:01.041Z</time>
      </trkpt>
      <trkpt lat="47.62651" lon="8.27263">
        <ele>330.689856</ele>
        <time>2022-09-14T09:40:26.693Z</time>
      </trkpt>
      <trkpt lat="47.62608" lon="8.27176">
        <ele>329.508338</ele>
        <time>2022-09-14T09:40:45.672Z</time>
      </trkpt>
      <trkpt lat="47.62561" lon="8.27065">
        <ele>328.023752</ele>
        <time>2022-09-14T09:41:05.278Z</time>
      </trkpt>
      <trkpt lat="47.62501" lon="8.2693">
        <ele>325.653648</ele>
        <time>2022-09-14T09:41:28.587Z</time>
      </trkpt>
      <trkpt lat="47.62409" lon="8.26694">
        <ele>326.759652</ele>
        <time>2022-09-14T09:42:27.498Z</time>
      </trkpt>
      <trkpt lat="47.62401" lon="8.26672">
        <ele>327.10556</ele>
        <time>2022-09-14T09:42:36.745Z</time>
      </trkpt>
      <trkpt lat="47.62376" lon="8.26633">
        <ele>327.835758</ele>
        <time>2022-09-14T09:42:56.146Z</time>
      </trkpt>
      <trkpt lat="47.62375" lon="8.26623">
        <ele>328.012947</ele>
        <time>2022-09-14T09:42:59.581Z</time>
      </trkpt>
      <trkpt lat="47.62376" lon="8.26605">
        <ele>328.589364</ele>
        <time>2022-09-14T09:43:07.949Z</time>
      </trkpt>
      <trkpt lat="47.6237" lon="8.26591">
        <ele>329.093635</ele>
        <time>2022-09-14T09:43:14.677Z</time>
      </trkpt>
      <trkpt lat="47.6235" lon="8.26571">
        <ele>330.218092</ele>
        <time>2022-09-14T09:43:27.971Z</time>
      </trkpt>
      <trkpt lat="47.62333" lon="8.26557">
        <ele>331.129923</ele>
        <time>2022-09-14T09:43:39.476Z</time>
      </trkpt>
      <trkpt lat="47.6232" lon="8.26544">
        <ele>331.844149</ele>
        <time>2022-09-14T09:43:47.155Z</time>
      </trkpt>
      <trkpt lat="47.62282" lon="8.26497">
        <ele>334.133723</ele>
        <time>2022-09-14T09:44:14.714Z</time>
      </trkpt>
      <trkpt lat="47.62227" lon="8.26401">
        <ele>335.714326</ele>
        <time>2022-09-14T09:44:55.531Z</time>
      </trkpt>
      <trkpt lat="47.62111" lon="8.26126">
        <ele>330.06787</ele>
        <time>2022-09-14T09:45:43.483Z</time>
      </trkpt>
      <trkpt lat="47.62211" lon="8.2603">
        <ele>324.943377</ele>
        <time>2022-09-14T09:46:04.635Z</time>
      </trkpt>
      <trkpt lat="47.62198" lon="8.25996">
        <ele>324.269125</ele>
        <time>2022-09-14T09:46:09.560Z</time>
      </trkpt>
      <trkpt lat="47.6218" lon="8.25948">
        <ele>323.318955</ele>
        <time>2022-09-14T09:46:22.383Z</time>
      </trkpt>
      <trkpt lat="47.62178" lon="8.25942">
        <ele>323.212891</ele>
        <time>2022-09-14T09:46:23.191Z</time>
      </trkpt>
      <trkpt lat="47.62188" lon="8.25925">
        <ele>322.824731</ele>
        <time>2022-09-14T09:46:26.335Z</time>
      </trkpt>
      <trkpt lat="47.62189" lon="8.25911">
        <ele>322.577728</ele>
        <time>2022-09-14T09:46:28.437Z</time>
      </trkpt>
      <trkpt lat="47.62153" lon="8.25812">
        <ele>320.791547</ele>
        <time>2022-09-14T09:46:47.175Z</time>
      </trkpt>
      <trkpt lat="47.62117" lon="8.25748">
        <ele>320.869865</ele>
        <time>2022-09-14T09:47:03.683Z</time>
      </trkpt>
      <trkpt lat="47.62072" lon="8.25651">
        <ele>320.9812</ele>
        <time>2022-09-14T09:47:26.445Z</time>
      </trkpt>
      <trkpt lat="47.62049" lon="8.25599">
        <ele>321.014277</ele>
        <time>2022-09-14T09:47:37.582Z</time>
      </trkpt>
      <trkpt lat="47.62051" lon="8.2558">
        <ele>320.887242</ele>
        <time>2022-09-14T09:47:40.686Z</time>
      </trkpt>
      <trkpt lat="47.62056" lon="8.25576">
        <ele>320.833835</ele>
        <time>2022-09-14T09:47:42.131Z</time>
      </trkpt>
      <trkpt lat="47.62072" lon="8.25561">
        <ele>320.65736</ele>
        <time>2022-09-14T09:47:46.686Z</time>
      </trkpt>
      <trkpt lat="47.62074" lon="8.25557">
        <ele>320.623603</ele>
        <time>2022-09-14T09:47:47.435Z</time>
      </trkpt>
      <trkpt lat="47.62061" lon="8.25527">
        <ele>320.38715</ele>
        <time>2022-09-14T09:47:53.222Z</time>
      </trkpt>
      <trkpt lat="47.62038" lon="8.2548">
        <ele>320.011768</ele>
        <time>2022-09-14T09:48:02.048Z</time>
      </trkpt>
      <trkpt lat="47.61807" lon="8.25128">
        <ele>316.242949</ele>
        <time>2022-09-14T09:49:15.891Z</time>
      </trkpt>
      <trkpt lat="47.61648" lon="8.24895">
        <ele>314.924356</ele>
        <time>2022-09-14T09:50:11.818Z</time>
      </trkpt>
      <trkpt lat="47.61632" lon="8.24861">
        <ele>314.804411</ele>
        <time>2022-09-14T09:50:18.893Z</time>
      </trkpt>
      <trkpt lat="47.61625" lon="8.24825">
        <ele>314.698647</ele>
        <time>2022-09-14T09:50:25.147Z</time>
      </trkpt>
      <trkpt lat="47.61623" lon="8.24765">
        <ele>314.606549</ele>
        <time>2022-09-14T09:50:35.145Z</time>
      </trkpt>
      <trkpt lat="47.61614" lon="8.24737">
        <ele>314.566128</ele>
        <time>2022-09-14T09:50:40.258Z</time>
      </trkpt>
      <trkpt lat="47.61564" lon="8.2468">
        <ele>314.444348</ele>
        <time>2022-09-14T09:50:55.792Z</time>
      </trkpt>
      <trkpt lat="47.61542" lon="8.24633">
        <ele>314.368069</ele>
        <time>2022-09-14T09:51:06.229Z</time>
      </trkpt>
      <trkpt lat="47.6152" lon="8.24531">
        <ele>315.028121</ele>
        <time>2022-09-14T09:51:26.684Z</time>
      </trkpt>
      <trkpt lat="47.61473" lon="8.24195">
        <ele>318.381445</ele>
        <time>2022-09-14T09:52:49.850Z</time>
      </trkpt>
      <trkpt lat="47.61468" lon="8.24133">
        <ele>319.005697</ele>
        <time>2022-09-14T09:53:04.225Z</time>
      </trkpt>
      <trkpt lat="47.61458" lon="8.24088">
        <ele>319.480984</ele>
        <time>2022-09-14T09:53:14.446Z</time>
      </trkpt>
      <trkpt lat="47.61425" lon="8.23863">
        <ele>319.275221</ele>
        <time>2022-09-14T09:53:55.416Z</time>
      </trkpt>
      <trkpt lat="47.6143" lon="8.23844">
        <ele>319.249818</ele>
        <time>2022-09-14T09:53:58.688Z</time>
      </trkpt>
      <trkpt lat="47.61428" lon="8.23835">
        <ele>319.237513</ele>
        <time>2022-09-14T09:54:00.282Z</time>
      </trkpt>
      <trkpt lat="47.61427" lon="8.23825">
        <ele>319.224765</ele>
        <time>2022-09-14T09:54:01.662Z</time>
      </trkpt>
      <trkpt lat="47.61408" lon="8.23819">
        <ele>318.968469</ele>
        <time>2022-09-14T09:54:05.986Z</time>
      </trkpt>
      <trkpt lat="47.61349" lon="8.23713">
        <ele>317.574046</ele>
        <time>2022-09-14T09:54:26.145Z</time>
      </trkpt>
      <trkpt lat="47.61306" lon="8.2365">
        <ele>316.671574</ele>
        <time>2022-09-14T09:54:39.156Z</time>
      </trkpt>
      <trkpt lat="47.61237" lon="8.23566">
        <ele>315.552134</ele>
        <time>2022-09-14T09:54:59.010Z</time>
      </trkpt>
      <trkpt lat="47.61193" lon="8.23521">
        <ele>314.899874</ele>
        <time>2022-09-14T09:55:10.750Z</time>
      </trkpt>
      <trkpt lat="47.61162" lon="8.2349">
        <ele>314.43954</ele>
        <time>2022-09-14T09:55:19.398Z</time>
      </trkpt>
      <trkpt lat="47.6109" lon="8.23426">
        <ele>314.240703</ele>
        <time>2022-09-14T09:55:40.688Z</time>
      </trkpt>
      <trkpt lat="47.61063" lon="8.23385">
        <ele>314.201921</ele>
        <time>2022-09-14T09:55:51.513Z</time>
      </trkpt>
      <trkpt lat="47.61046" lon="8.23328">
        <ele>314.159182</ele>
        <time>2022-09-14T09:56:03.376Z</time>
      </trkpt>
      <trkpt lat="47.61026" lon="8.23268">
        <ele>314.121171</ele>
        <time>2022-09-14T09:56:15.380Z</time>
      </trkpt>
      <trkpt lat="47.61012" lon="8.23231">
        <ele>314.102445</ele>
        <time>2022-09-14T09:56:22.961Z</time>
      </trkpt>
      <trkpt lat="47.61008" lon="8.23189">
        <ele>314.083521</ele>
        <time>2022-09-14T09:56:30.698Z</time>
      </trkpt>
      <trkpt lat="47.61018" lon="8.23162">
        <ele>314.070144</ele>
        <time>2022-09-14T09:56:36.276Z</time>
      </trkpt>
      <trkpt lat="47.61006" lon="8.23155">
        <ele>314.061477</ele>
        <time>2022-09-14T09:56:39.689Z</time>
      </trkpt>
      <trkpt lat="47.60996" lon="8.23151">
        <ele>314.054802</ele>
        <time>2022-09-14T09:56:42.520Z</time>
      </trkpt>
      <trkpt lat="47.6099" lon="8.23148">
        <ele>314.05056</ele>
        <time>2022-09-14T09:56:44.362Z</time>
      </trkpt>
      <trkpt lat="47.6098" lon="8.2314">
        <ele>314.043731</ele>
        <time>2022-09-14T09:56:47.181Z</time>
      </trkpt>
      <trkpt lat="47.60978" lon="8.23132">
        <ele>314.039964</ele>
        <time>2022-09-14T09:56:48.710Z</time>
      </trkpt>
      <trkpt lat="47.60973" lon="8.23118">
        <ele>314.033043</ele>
        <time>2022-09-14T09:56:51.527Z</time>
      </trkpt>
      <trkpt lat="47.60972" lon="8.23114">
        <ele>314.031174</ele>
        <time>2022-09-14T09:56:52.287Z</time>
      </trkpt>
      <trkpt lat="47.60954" lon="8.23112">
        <ele>314.019433</ele>
        <time>2022-09-14T09:56:56.964Z</time>
      </trkpt>
      <trkpt lat="47.60954" lon="8.231">
        <ele>313.990055</ele>
        <time>2022-09-14T09:56:59.015Z</time>
      </trkpt>
      <trkpt lat="47.60954" lon="8.22997">
        <ele>313.594662</ele>
        <time>2022-09-14T09:57:15.883Z</time>
      </trkpt>
      <trkpt lat="47.60988" lon="8.22991">
        <ele>313.403149</ele>
        <time>2022-09-14T09:57:23.799Z</time>
      </trkpt>
      <trkpt lat="47.60994" lon="8.22882">
        <ele>312.98259</ele>
        <time>2022-09-14T09:57:41.932Z</time>
      </trkpt>
      <trkpt lat="47.61019" lon="8.22746">
        <ele>312.374025</ele>
        <time>2022-09-14T09:58:05.020Z</time>
      </trkpt>
      <trkpt lat="47.6107" lon="8.2261">
        <ele>311.776981</ele>
        <time>2022-09-14T09:58:30.282Z</time>
      </trkpt>
      <trkpt lat="47.61069" lon="8.22579">
        <ele>311.715747</ele>
        <time>2022-09-14T09:58:35.255Z</time>
      </trkpt>
      <trkpt lat="47.61077" lon="8.2255">
        <ele>311.652928</ele>
        <time>2022-09-14T09:58:40.307Z</time>
      </trkpt>
      <trkpt lat="47.61104" lon="8.22526">
        <ele>311.560778</ele>
        <time>2022-09-14T09:58:48.157Z</time>
      </trkpt>
      <trkpt lat="47.61111" lon="8.22521">
        <ele>311.535763</ele>
        <time>2022-09-14T09:58:50.156Z</time>
      </trkpt>
      <trkpt lat="47.6112" lon="8.22515">
        <ele>311.50721</ele>
        <time>2022-09-14T09:58:52.736Z</time>
      </trkpt>
      <trkpt lat="47.61133" lon="8.22506">
        <ele>311.465926</ele>
        <time>2022-09-14T09:58:56.431Z</time>
      </trkpt>
      <trkpt lat="47.61185" lon="8.22464">
        <ele>311.347644</ele>
        <time>2022-09-14T09:59:12.146Z</time>
      </trkpt>
      <trkpt lat="47.61206" lon="8.22444">
        <ele>311.490278</ele>
        <time>2022-09-14T09:59:19.384Z</time>
      </trkpt>
      <trkpt lat="47.61282" lon="8.22388">
        <ele>311.96106</ele>
        <time>2022-09-14T09:59:44.617Z</time>
      </trkpt>
      <trkpt lat="47.61308" lon="8.22378">
        <ele>312.114297</ele>
        <time>2022-09-14T09:59:52.377Z</time>
      </trkpt>
      <trkpt lat="47.61377" lon="8.22353">
        <ele>312.92079</ele>
        <time>2022-09-14T10:00:13.696Z</time>
      </trkpt>
      <trkpt lat="47.61435" lon="8.22333">
        <ele>313.967828</ele>
        <time>2022-09-14T10:00:34.354Z</time>
      </trkpt>
      <trkpt lat="47.61457" lon="8.22328">
        <ele>314.345849</ele>
        <time>2022-09-14T10:00:42.656Z</time>
      </trkpt>
      <trkpt lat="47.61467" lon="8.22334">
        <ele>314.536125</ele>
        <time>2022-09-14T10:00:46.740Z</time>
      </trkpt>
      <trkpt lat="47.61508" lon="8.22433">
        <ele>315.947521</ele>
        <time>2022-09-14T10:01:16.665Z</time>
      </trkpt>
      <trkpt lat="47.61518" lon="8.22456">
        <ele>316.298475</ele>
        <time>2022-09-14T10:01:23.875Z</time>
      </trkpt>
      <trkpt lat="47.61528" lon="8.22464">
        <ele>316.503625</ele>
        <time>2022-09-14T10:01:28.005Z</time>
      </trkpt>
      <trkpt lat="47.61555" lon="8.22455">
        <ele>317.022099</ele>
        <time>2022-09-14T10:01:38.415Z</time>
      </trkpt>
      <trkpt lat="47.61618" lon="8.22402">
        <ele>318.405256</ele>
        <time>2022-09-14T10:02:05.401Z</time>
      </trkpt>
      <trkpt lat="47.61709" lon="8.223">
        <ele>319.065204</ele>
        <time>2022-09-14T10:02:37.686Z</time>
      </trkpt>
      <trkpt lat="47.61762" lon="8.22225">
        <ele>319.231601</ele>
        <time>2022-09-14T10:02:58.511Z</time>
      </trkpt>
      <trkpt lat="47.61774" lon="8.22215">
        <ele>319.262775</ele>
        <time>2022-09-14T10:03:02.109Z</time>
      </trkpt>
      <trkpt lat="47.61785" lon="8.22172">
        <ele>319.480839</ele>
        <time>2022-09-14T10:03:11.833Z</time>
      </trkpt>
      <trkpt lat="47.61826" lon="8.22116">
        <ele>319.898355</ele>
        <time>2022-09-14T10:03:30.277Z</time>
      </trkpt>
      <trkpt lat="47.61864" lon="8.22042">
        <ele>320.37354</ele>
        <time>2022-09-14T10:03:51.574Z</time>
      </trkpt>
      <trkpt lat="47.61918" lon="8.2196">
        <ele>320.620526</ele>
        <time>2022-09-14T10:04:20.951Z</time>
      </trkpt>
      <trkpt lat="47.61981" lon="8.21796">
        <ele>320.59386</ele>
        <time>2022-09-14T10:04:57.216Z</time>
      </trkpt>
      <trkpt lat="47.62009" lon="8.21695">
        <ele>319.220725</ele>
        <time>2022-09-14T10:05:14.719Z</time>
      </trkpt>
      <trkpt lat="47.62041" lon="8.21605">
        <ele>317.786683</ele>
        <time>2022-09-14T10:05:30.917Z</time>
      </trkpt>
      <trkpt lat="47.62044" lon="8.21591">
        <ele>317.570853</ele>
        <time>2022-09-14T10:05:32.885Z</time>
      </trkpt>
      <trkpt lat="47.62047" lon="8.21581">
        <ele>317.414538</ele>
        <time>2022-09-14T10:05:34.336Z</time>
      </trkpt>
      <trkpt lat="47.62049" lon="8.21574">
        <ele>317.308314</ele>
        <time>2022-09-14T10:05:35.434Z</time>
      </trkpt>
      <trkpt lat="47.62091" lon="8.21429">
        <ele>315.817739</ele>
        <time>2022-09-14T10:05:59.688Z</time>
      </trkpt>
      <trkpt lat="47.62125" lon="8.21302">
        <ele>314.72077</ele>
        <time>2022-09-14T10:06:23.594Z</time>
      </trkpt>
      <trkpt lat="47.62146" lon="8.21223">
        <ele>315.28261</ele>
        <time>2022-09-14T10:06:41.936Z</time>
      </trkpt>
      <trkpt lat="47.62166" lon="8.21087">
        <ele>316.42966</ele>
        <time>2022-09-14T10:07:16.008Z</time>
      </trkpt>
      <trkpt lat="47.6218" lon="8.21001">
        <ele>317.060075</ele>
        <time>2022-09-14T10:07:40.625Z</time>
      </trkpt>
      <trkpt lat="47.62193" lon="8.20917">
        <ele>317.552921</ele>
        <time>2022-09-14T10:08:02.159Z</time>
      </trkpt>
      <trkpt lat="47.62207" lon="8.20732">
        <ele>318.15533</ele>
        <time>2022-09-14T10:08:40.163Z</time>
      </trkpt>
      <trkpt lat="47.62202" lon="8.20378">
        <ele>316.462856</ele>
        <time>2022-09-14T10:09:42.506Z</time>
      </trkpt>
      <trkpt lat="47.62202" lon="8.20305">
        <ele>316.134784</ele>
        <time>2022-09-14T10:09:56.431Z</time>
      </trkpt>
      <trkpt lat="47.62183" lon="8.20208">
        <ele>315.605725</ele>
        <time>2022-09-14T10:10:15.304Z</time>
      </trkpt>
      <trkpt lat="47.62177" lon="8.20181">
        <ele>315.421281</ele>
        <time>2022-09-14T10:10:20.284Z</time>
      </trkpt>
      <trkpt lat="47.62178" lon="8.20161">
        <ele>315.292218</ele>
        <time>2022-09-14T10:10:23.775Z</time>
      </trkpt>
      <trkpt lat="47.62103" lon="8.19893">
        <ele>313.529004</ele>
        <time>2022-09-14T10:11:10.071Z</time>
      </trkpt>
      <trkpt lat="47.62027" lon="8.19682">
        <ele>312.578978</ele>
        <time>2022-09-14T10:11:51.821Z</time>
      </trkpt>
      <trkpt lat="47.61998" lon="8.19589">
        <ele>312.432984</ele>
        <time>2022-09-14T10:12:11.140Z</time>
      </trkpt>
      <trkpt lat="47.61986" lon="8.19539">
        <ele>312.357741</ele>
        <time>2022-09-14T10:12:21.025Z</time>
      </trkpt>
      <trkpt lat="47.6195" lon="8.19363">
        <ele>311.871426</ele>
        <time>2022-09-14T10:12:53.583Z</time>
      </trkpt>
      <trkpt lat="47.61945" lon="8.1934">
        <ele>311.801666</ele>
        <time>2022-09-14T10:12:57.691Z</time>
      </trkpt>
      <trkpt lat="47.61918" lon="8.19251">
        <ele>311.516919</ele>
        <time>2022-09-14T10:13:14.511Z</time>
      </trkpt>
      <trkpt lat="47.61897" lon="8.19204">
        <ele>311.355067</ele>
        <time>2022-09-14T10:13:24.200Z</time>
      </trkpt>
      <trkpt lat="47.61888" lon="8.19206">
        <ele>311.316801</ele>
        <time>2022-09-14T10:13:26.297Z</time>
      </trkpt>
      <trkpt lat="47.61881" lon="8.19199">
        <ele>311.280194</ele>
        <time>2022-09-14T10:13:28.441Z</time>
      </trkpt>
      <trkpt lat="47.61861" lon="8.19169">
        <ele>311.157877</ele>
        <time>2022-09-14T10:13:35.527Z</time>
      </trkpt>
      <trkpt lat="47.61785" lon="8.19094">
        <ele>310.776278</ele>
        <time>2022-09-14T10:13:58.487Z</time>
      </trkpt>
      <trkpt lat="47.6177" lon="8.1909">
        <ele>310.769579</ele>
        <time>2022-09-14T10:14:02.408Z</time>
      </trkpt>
      <trkpt lat="47.61758" lon="8.19102">
        <ele>310.763386</ele>
        <time>2022-09-14T10:14:06.390Z</time>
      </trkpt>
      <trkpt lat="47.61729" lon="8.19144">
        <ele>310.746024</ele>
        <time>2022-09-14T10:14:17.317Z</time>
      </trkpt>
      <trkpt lat="47.61721" lon="8.19149">
        <ele>310.74208</ele>
        <time>2022-09-14T10:14:19.675Z</time>
      </trkpt>
      <trkpt lat="47.61702" lon="8.19136">
        <ele>310.733214</ele>
        <time>2022-09-14T10:14:25.326Z</time>
      </trkpt>
      <trkpt lat="47.61627" lon="8.19033">
        <ele>310.696909</ele>
        <time>2022-09-14T10:14:52.841Z</time>
      </trkpt>
      <trkpt lat="47.61575" lon="8.1895">
        <ele>310.687617</ele>
        <time>2022-09-14T10:15:12.935Z</time>
      </trkpt>
      <trkpt lat="47.61561" lon="8.18924">
        <ele>310.68483</ele>
        <time>2022-09-14T10:15:18.896Z</time>
      </trkpt>
      <trkpt lat="47.61546" lon="8.18894">
        <ele>310.681773</ele>
        <time>2022-09-14T10:15:25.474Z</time>
      </trkpt>
      <trkpt lat="47.6152" lon="8.18836">
        <ele>310.614539</ele>
        <time>2022-09-14T10:15:37.981Z</time>
      </trkpt>
      <trkpt lat="47.61466" lon="8.18769">
        <ele>310.324795</ele>
        <time>2022-09-14T10:15:56.261Z</time>
      </trkpt>
      <trkpt lat="47.61454" lon="8.18742">
        <ele>310.233556</ele>
        <time>2022-09-14T10:16:01.787Z</time>
      </trkpt>
      <trkpt lat="47.61441" lon="8.18702">
        <ele>310.111341</ele>
        <time>2022-09-14T10:16:08.932Z</time>
      </trkpt>
      <trkpt lat="47.61436" lon="8.18689">
        <ele>310.069446</ele>
        <time>2022-09-14T10:16:11.330Z</time>
      </trkpt>
      <trkpt lat="47.61424" lon="8.18662">
        <ele>309.979819</ele>
        <time>2022-09-14T10:16:16.587Z</time>
      </trkpt>
      <trkpt lat="47.61396" lon="8.18613">
        <ele>309.67009</ele>
        <time>2022-09-14T10:16:26.787Z</time>
      </trkpt>
      <trkpt lat="47.61355" lon="8.18509">
        <ele>309.015286</ele>
        <time>2022-09-14T10:16:45.871Z</time>
      </trkpt>
      <trkpt lat="47.61322" lon="8.18491">
        <ele>308.728649</ele>
        <time>2022-09-14T10:16:54.041Z</time>
      </trkpt>
      <trkpt lat="47.61317" lon="8.18474">
        <ele>308.625307</ele>
        <time>2022-09-14T10:16:56.975Z</time>
      </trkpt>
      <trkpt lat="47.61217" lon="8.1833">
        <ele>308.112339</ele>
        <time>2022-09-14T10:17:31.437Z</time>
      </trkpt>
      <trkpt lat="47.61181" lon="8.18267">
        <ele>307.942833</ele>
        <time>2022-09-14T10:17:46.336Z</time>
      </trkpt>
      <trkpt lat="47.61089" lon="8.18159">
        <ele>308.490565</ele>
        <time>2022-09-14T10:18:20.483Z</time>
      </trkpt>
      <trkpt lat="47.61022" lon="8.18071">
        <ele>308.876298</ele>
        <time>2022-09-14T10:18:47.091Z</time>
      </trkpt>
      <trkpt lat="47.60981" lon="8.18032">
        <ele>309.019332</ele>
        <time>2022-09-14T10:19:01.259Z</time>
      </trkpt>
      <trkpt lat="47.60844" lon="8.17911">
        <ele>309.299846</ele>
        <time>2022-09-14T10:19:44.565Z</time>
      </trkpt>
      <trkpt lat="47.60824" lon="8.17891">
        <ele>309.287183</ele>
        <time>2022-09-14T10:19:50.900Z</time>
      </trkpt>
      <trkpt lat="47.60774" lon="8.17839">
        <ele>309.255182</ele>
        <time>2022-09-14T10:20:06.723Z</time>
      </trkpt>
      <trkpt lat="47.60731" lon="8.17793">
        <ele>309.202625</ele>
        <time>2022-09-14T10:20:20.705Z</time>
      </trkpt>
      <trkpt lat="47.60711" lon="8.17772">
        <ele>309.138682</ele>
        <time>2022-09-14T10:20:27.114Z</time>
      </trkpt>
      <trkpt lat="47.60617" lon="8.17645">
        <ele>308.806138</ele>
        <time>2022-09-14T10:20:59.662Z</time>
      </trkpt>
      <trkpt lat="47.60585" lon="8.17589">
        <ele>308.708522</ele>
        <time>2022-09-14T10:21:11.923Z</time>
      </trkpt>
      <trkpt lat="47.60567" lon="8.17597">
        <ele>308.676879</ele>
        <time>2022-09-14T10:21:16.593Z</time>
      </trkpt>
      <trkpt lat="47.60527" lon="8.17578">
        <ele>308.608128</ele>
        <time>2022-09-14T10:21:27.022Z</time>
      </trkpt>
      <trkpt lat="47.60478" lon="8.1752">
        <ele>308.503391</ele>
        <time>2022-09-14T10:21:43.617Z</time>
      </trkpt>
      <trkpt lat="47.60395" lon="8.17441">
        <ele>308.771897</ele>
        <time>2022-09-14T10:22:11.704Z</time>
      </trkpt>
      <trkpt lat="47.60297" lon="8.17325">
        <ele>309.146435</ele>
        <time>2022-09-14T10:22:48.491Z</time>
      </trkpt>
      <trkpt lat="47.60259" lon="8.17292">
        <ele>309.02853</ele>
        <time>2022-09-14T10:23:00.392Z</time>
      </trkpt>
      <trkpt lat="47.60243" lon="8.17286">
        <ele>308.98476</ele>
        <time>2022-09-14T10:23:04.286Z</time>
      </trkpt>
      <trkpt lat="47.60221" lon="8.1726">
        <ele>308.912487</ele>
        <time>2022-09-14T10:23:11.289Z</time>
      </trkpt>
      <trkpt lat="47.60131" lon="8.17147">
        <ele>308.566429</ele>
        <time>2022-09-14T10:23:39.855Z</time>
      </trkpt>
      <trkpt lat="47.60065" lon="8.17051">
        <ele>308.260775</ele>
        <time>2022-09-14T10:24:02.416Z</time>
      </trkpt>
      <trkpt lat="47.60026" lon="8.16976">
        <ele>308.173524</ele>
        <time>2022-09-14T10:24:20.283Z</time>
      </trkpt>
      <trkpt lat="47.59989" lon="8.16878">
        <ele>308.325084</ele>
        <time>2022-09-14T10:24:42.948Z</time>
      </trkpt>
      <trkpt lat="47.59961" lon="8.16767">
        <ele>308.483665</ele>
        <time>2022-09-14T10:25:04.766Z</time>
      </trkpt>
      <trkpt lat="47.59966" lon="8.16748">
        <ele>308.375705</ele>
        <time>2022-09-14T10:25:08.286Z</time>
      </trkpt>
      <trkpt lat="47.59993" lon="8.1672">
        <ele>308.115001</ele>
        <time>2022-09-14T10:25:16.218Z</time>
      </trkpt>
      <trkpt lat="47.59998" lon="8.16713">
        <ele>308.062428</ele>
        <time>2022-09-14T10:25:17.753Z</time>
      </trkpt>
      <trkpt lat="47.59996" lon="8.16707">
        <ele>308.027988</ele>
        <time>2022-09-14T10:25:18.799Z</time>
      </trkpt>
      <trkpt lat="47.59941" lon="8.16744">
        <ele>307.55043</ele>
        <time>2022-09-14T10:25:33.330Z</time>
      </trkpt>
      <trkpt lat="47.5986" lon="8.16769">
        <ele>306.908629</ele>
        <time>2022-09-14T10:25:52.219Z</time>
      </trkpt>
      <trkpt lat="47.59839" lon="8.16779">
        <ele>306.735975</ele>
        <time>2022-09-14T10:25:57.290Z</time>
      </trkpt>
      <trkpt lat="47.59824" lon="8.16796">
        <ele>306.591779</ele>
        <time>2022-09-14T10:26:01.495Z</time>
      </trkpt>
      <trkpt lat="47.59801" lon="8.16825">
        <ele>306.353539</ele>
        <time>2022-09-14T10:26:08.544Z</time>
      </trkpt>
      <trkpt lat="47.59788" lon="8.16835">
        <ele>306.241594</ele>
        <time>2022-09-14T10:26:11.983Z</time>
      </trkpt>
      <trkpt lat="47.59779" lon="8.16834">
        <ele>306.173073</ele>
        <time>2022-09-14T10:26:14.063Z</time>
      </trkpt>
      <trkpt lat="47.59751" lon="8.16813">
        <ele>305.92678</ele>
        <time>2022-09-14T10:26:22.775Z</time>
      </trkpt>
      <trkpt lat="47.59728" lon="8.16784">
        <ele>305.696328</ele>
        <time>2022-09-14T10:26:31.346Z</time>
      </trkpt>
      <trkpt lat="47.59534" lon="8.16514">
        <ele>305.524915</ele>
        <time>2022-09-14T10:27:49.346Z</time>
      </trkpt>
      <trkpt lat="47.59476" lon="8.16369">
        <ele>305.644149</ele>
        <time>2022-09-14T10:28:24.173Z</time>
      </trkpt>
      <trkpt lat="47.59458" lon="8.16295">
        <ele>305.785076</ele>
        <time>2022-09-14T10:28:40.324Z</time>
      </trkpt>
      <trkpt lat="47.59444" lon="8.16197">
        <ele>305.967252</ele>
        <time>2022-09-14T10:29:01.157Z</time>
      </trkpt>
      <trkpt lat="47.59443" lon="8.16097">
        <ele>306.177156</ele>
        <time>2022-09-14T10:29:22.359Z</time>
      </trkpt>
      <trkpt lat="47.59447" lon="8.16027">
        <ele>306.354123</ele>
        <time>2022-09-14T10:29:37.209Z</time>
      </trkpt>
      <trkpt lat="47.59457" lon="8.1596">
        <ele>306.527283</ele>
        <time>2022-09-14T10:29:51.747Z</time>
      </trkpt>
      <trkpt lat="47.5948" lon="8.15868">
        <ele>306.773138</ele>
        <time>2022-09-14T10:30:12.681Z</time>
      </trkpt>
      <trkpt lat="47.59582" lon="8.15561">
        <ele>307.360114</ele>
        <time>2022-09-14T10:31:25.219Z</time>
      </trkpt>
      <trkpt lat="47.59592" lon="8.15541">
        <ele>307.351498</ele>
        <time>2022-09-14T10:31:30.219Z</time>
      </trkpt>
      <trkpt lat="47.59642" lon="8.15509">
        <ele>307.323999</ele>
        <time>2022-09-14T10:31:46.037Z</time>
      </trkpt>
      <trkpt lat="47.59665" lon="8.15418">
        <ele>307.193273</ele>
        <time>2022-09-14T10:32:04.349Z</time>
      </trkpt>
      <trkpt lat="47.59668" lon="8.15381">
        <ele>307.014264</ele>
        <time>2022-09-14T10:32:11.269Z</time>
      </trkpt>
      <trkpt lat="47.5967" lon="8.14955">
        <ele>305.131214</ele>
        <time>2022-09-14T10:33:27.689Z</time>
      </trkpt>
      <trkpt lat="47.5965" lon="8.14796">
        <ele>305.033924</ele>
        <time>2022-09-14T10:33:59.486Z</time>
      </trkpt>
      <trkpt lat="47.59629" lon="8.14705">
        <ele>305.118897</ele>
        <time>2022-09-14T10:34:19.621Z</time>
      </trkpt>
      <trkpt lat="47.59612" lon="8.14658">
        <ele>305.166421</ele>
        <time>2022-09-14T10:34:31.207Z</time>
      </trkpt>
      <trkpt lat="47.59559" lon="8.1458">
        <ele>305.65598</ele>
        <time>2022-09-14T10:34:55.533Z</time>
      </trkpt>
      <trkpt lat="47.59382" lon="8.14163">
        <ele>307.813907</ele>
        <time>2022-09-14T10:36:45.730Z</time>
      </trkpt>
      <trkpt lat="47.59331" lon="8.14058">
        <ele>308.136831</ele>
        <time>2022-09-14T10:37:12.671Z</time>
      </trkpt>
      <trkpt lat="47.59279" lon="8.13963">
        <ele>308.375235</ele>
        <time>2022-09-14T10:37:37.891Z</time>
      </trkpt>
      <trkpt lat="47.59179" lon="8.13813">
        <ele>308.626402</ele>
        <time>2022-09-14T10:38:21.372Z</time>
      </trkpt>
      <trkpt lat="47.59166" lon="8.1378">
        <ele>308.58446</ele>
        <time>2022-09-14T10:38:29.166Z</time>
      </trkpt>
      <trkpt lat="47.59158" lon="8.13699">
        <ele>308.471144</ele>
        <time>2022-09-14T10:38:44.915Z</time>
      </trkpt>
      <trkpt lat="47.59122" lon="8.13661">
        <ele>308.378569</ele>
        <time>2022-09-14T10:38:57.388Z</time>
      </trkpt>
      <trkpt lat="47.59089" lon="8.1364">
        <ele>308.304263</ele>
        <time>2022-09-14T10:39:07.253Z</time>
      </trkpt>
      <trkpt lat="47.59031" lon="8.13619">
        <ele>308.526649</ele>
        <time>2022-09-14T10:39:24.581Z</time>
      </trkpt>
      <trkpt lat="47.58929" lon="8.13602">
        <ele>309.24308</ele>
        <time>2022-09-14T10:39:57.259Z</time>
      </trkpt>
      <trkpt lat="47.58913" lon="8.13586">
        <ele>309.377479</ele>
        <time>2022-09-14T10:40:05.963Z</time>
      </trkpt>
      <trkpt lat="47.5897" lon="8.13588">
        <ele>310.108251</ele>
        <time>2022-09-14T10:40:25.856Z</time>
      </trkpt>
      <trkpt lat="47.58974" lon="8.13579">
        <ele>310.219562</ele>
        <time>2022-09-14T10:40:28.562Z</time>
      </trkpt>
      <trkpt lat="47.58986" lon="8.13467">
        <ele>311.4184</ele>
        <time>2022-09-14T10:40:55.248Z</time>
      </trkpt>
      <trkpt lat="47.58988" lon="8.13461">
        <ele>311.493824</ele>
        <time>2022-09-14T10:40:57.120Z</time>
      </trkpt>
      <trkpt lat="47.59068" lon="8.13471">
        <ele>312.619502</ele>
        <time>2022-09-14T10:41:23.192Z</time>
      </trkpt>
      <trkpt lat="47.59073" lon="8.13478">
        <ele>312.68758</ele>
        <time>2022-09-14T10:41:25.049Z</time>
      </trkpt>
      <trkpt lat="47.59131" lon="8.13495">
        <ele>313.333721</ele>
        <time>2022-09-14T10:41:44.632Z</time>
      </trkpt>
      <trkpt lat="47.59137" lon="8.13493">
        <ele>313.403508</ele>
        <time>2022-09-14T10:41:46.246Z</time>
      </trkpt>
      <trkpt lat="47.59141" lon="8.13481">
        <ele>313.499246</ele>
        <time>2022-09-14T10:41:48.452Z</time>
      </trkpt>
      <trkpt lat="47.59147" lon="8.1345">
        <ele>313.738157</ele>
        <time>2022-09-14T10:41:55.199Z</time>
      </trkpt>
      <trkpt lat="47.59157" lon="8.13405">
        <ele>314.086482</ele>
        <time>2022-09-14T10:42:05.183Z</time>
      </trkpt>
      <trkpt lat="47.59203" lon="8.13351">
        <ele>314.910143</ele>
        <time>2022-09-14T10:42:24.403Z</time>
      </trkpt>
      <trkpt lat="47.59206" lon="8.1334">
        <ele>315.0385</ele>
        <time>2022-09-14T10:42:27.974Z</time>
      </trkpt>
      <trkpt lat="47.59201" lon="8.13334">
        <ele>315.142385</ele>
        <time>2022-09-14T10:42:30.032Z</time>
      </trkpt>
      <trkpt lat="47.59196" lon="8.13328">
        <ele>315.244408</ele>
        <time>2022-09-14T10:42:32.073Z</time>
      </trkpt>
      <trkpt lat="47.59207" lon="8.13302">
        <ele>315.571672</ele>
        <time>2022-09-14T10:42:40.061Z</time>
      </trkpt>
      <trkpt lat="47.59209" lon="8.13276">
        <ele>315.841823</ele>
        <time>2022-09-14T10:42:45.712Z</time>
      </trkpt>
      <trkpt lat="47.5914" lon="8.13159">
        <ele>317.257463</ele>
        <time>2022-09-14T10:43:22.975Z</time>
      </trkpt>
      <trkpt lat="47.59125" lon="8.13123">
        <ele>317.466234</ele>
        <time>2022-09-14T10:43:31.479Z</time>
      </trkpt>
      <trkpt lat="47.59135" lon="8.13098">
        <ele>317.609483</ele>
        <time>2022-09-14T10:43:36.347Z</time>
      </trkpt>
      <trkpt lat="47.59168" lon="8.13071">
        <ele>317.884378</ele>
        <time>2022-09-14T10:43:49.923Z</time>
      </trkpt>
      <trkpt lat="47.59171" lon="8.13047">
        <ele>318.005761</ele>
        <time>2022-09-14T10:43:56.446Z</time>
      </trkpt>
      <trkpt lat="47.59154" lon="8.12998">
        <ele>318.277289</ele>
        <time>2022-09-14T10:44:10.475Z</time>
      </trkpt>
      <trkpt lat="47.59146" lon="8.12992">
        <ele>318.340466</ele>
        <time>2022-09-14T10:44:13.485Z</time>
      </trkpt>
      <trkpt lat="47.59137" lon="8.12963">
        <ele>318.638478</ele>
        <time>2022-09-14T10:44:20.635Z</time>
      </trkpt>
      <trkpt lat="47.59121" lon="8.12928">
        <ele>319.079858</ele>
        <time>2022-09-14T10:44:30.036Z</time>
      </trkpt>
      <trkpt lat="47.59065" lon="8.12792">
        <ele>320.754297</ele>
        <time>2022-09-14T10:45:07.357Z</time>
      </trkpt>
      <trkpt lat="47.59063" lon="8.12786">
        <ele>320.826756</ele>
        <time>2022-09-14T10:45:09.232Z</time>
      </trkpt>
      <trkpt lat="47.59041" lon="8.1274">
        <ele>321.554306</ele>
        <time>2022-09-14T10:45:24.703Z</time>
      </trkpt>
      <trkpt lat="47.58967" lon="8.12637">
        <ele>324.003357</ele>
        <time>2022-09-14T10:46:07.022Z</time>
      </trkpt>
      <trkpt lat="47.58959" lon="8.12626">
        <ele>324.271915</ele>
        <time>2022-09-14T10:46:11.406Z</time>
      </trkpt>
      <trkpt lat="47.58909" lon="8.12546">
        <ele>325.722015</ele>
        <time>2022-09-14T10:46:39.012Z</time>
      </trkpt>
      <trkpt lat="47.58908" lon="8.12532">
        <ele>325.800987</ele>
        <time>2022-09-14T10:46:42.535Z</time>
      </trkpt>
      <trkpt lat="47.58892" lon="8.12516">
        <ele>325.956794</ele>
        <time>2022-09-14T10:46:48.581Z</time>
      </trkpt>
      <trkpt lat="47.58867" lon="8.12466">
        <ele>326.305236</ele>
        <time>2022-09-14T10:47:01.845Z</time>
      </trkpt>
      <trkpt lat="47.58847" lon="8.12411">
        <ele>326.658346</ele>
        <time>2022-09-14T10:47:14.651Z</time>
      </trkpt>
      <trkpt lat="47.58831" lon="8.12364">
        <ele>326.952216</ele>
        <time>2022-09-14T10:47:24.878Z</time>
      </trkpt>
      <trkpt lat="47.58808" lon="8.12298">
        <ele>327.01693</ele>
        <time>2022-09-14T10:47:38.813Z</time>
      </trkpt>
      <trkpt lat="47.58793" lon="8.12256">
        <ele>327.001781</ele>
        <time>2022-09-14T10:47:47.590Z</time>
      </trkpt>
      <trkpt lat="47.58782" lon="8.12227">
        <ele>326.991295</ele>
        <time>2022-09-14T10:47:53.636Z</time>
      </trkpt>
      <trkpt lat="47.58772" lon="8.12198">
        <ele>326.981165</ele>
        <time>2022-09-14T10:47:59.347Z</time>
      </trkpt>
      <trkpt lat="47.58761" lon="8.12166">
        <ele>326.969766</ele>
        <time>2022-09-14T10:48:05.993Z</time>
      </trkpt>
      <trkpt lat="47.58755" lon="8.12145">
        <ele>326.962638</ele>
        <time>2022-09-14T10:48:10.145Z</time>
      </trkpt>
      <trkpt lat="47.58746" lon="8.12116">
        <ele>326.952189</ele>
        <time>2022-09-14T10:48:16.319Z</time>
      </trkpt>
      <trkpt lat="47.58737" lon="8.12089">
        <ele>326.987993</ele>
        <time>2022-09-14T10:48:21.997Z</time>
      </trkpt>
      <trkpt lat="47.58728" lon="8.12059">
        <ele>327.032143</ele>
        <time>2022-09-14T10:48:28.222Z</time>
      </trkpt>
      <trkpt lat="47.58727" lon="8.12057">
        <ele>327.035708</ele>
        <time>2022-09-14T10:48:28.717Z</time>
      </trkpt>
      <trkpt lat="47.58713" lon="8.12008">
        <ele>327.107348</ele>
        <time>2022-09-14T10:48:38.988Z</time>
      </trkpt>
      <trkpt lat="47.58701" lon="8.11957">
        <ele>327.180869</ele>
        <time>2022-09-14T10:48:49.645Z</time>
      </trkpt>
      <trkpt lat="47.58681" lon="8.11862">
        <ele>327.31393</ele>
        <time>2022-09-14T10:49:09.134Z</time>
      </trkpt>
      <trkpt lat="47.58679" lon="8.11847">
        <ele>327.307456</ele>
        <time>2022-09-14T10:49:12.059Z</time>
      </trkpt>
      <trkpt lat="47.5867" lon="8.11768">
        <ele>327.273785</ele>
        <time>2022-09-14T10:49:27.927Z</time>
      </trkpt>
      <trkpt lat="47.58666" lon="8.11619">
        <ele>327.210252</ele>
        <time>2022-09-14T10:49:55.767Z</time>
      </trkpt>
      <trkpt lat="47.58662" lon="8.11588">
        <ele>327.06834</ele>
        <time>2022-09-14T10:50:01.183Z</time>
      </trkpt>
      <trkpt lat="47.5865" lon="8.11547">
        <ele>326.55171</ele>
        <time>2022-09-14T10:50:08.703Z</time>
      </trkpt>
      <trkpt lat="47.58631" lon="8.11503">
        <ele>325.952075</ele>
        <time>2022-09-14T10:50:17.064Z</time>
      </trkpt>
      <trkpt lat="47.58612" lon="8.11462">
        <ele>325.382419</ele>
        <time>2022-09-14T10:50:24.674Z</time>
      </trkpt>
      <trkpt lat="47.58604" lon="8.11442">
        <ele>325.113724</ele>
        <time>2022-09-14T10:50:28.184Z</time>
      </trkpt>
      <trkpt lat="47.58598" lon="8.11428">
        <ele>324.917739</ele>
        <time>2022-09-14T10:50:30.720Z</time>
      </trkpt>
      <trkpt lat="47.58586" lon="8.11401">
        <ele>324.552454</ele>
        <time>2022-09-14T10:50:35.347Z</time>
      </trkpt>
      <trkpt lat="47.58581" lon="8.11388">
        <ele>324.37849</ele>
        <time>2022-09-14T10:50:37.497Z</time>
      </trkpt>
      <trkpt lat="47.58569" lon="8.11362">
        <ele>323.866653</ele>
        <time>2022-09-14T10:50:41.908Z</time>
      </trkpt>
      <trkpt lat="47.58556" lon="8.11332">
        <ele>322.88157</ele>
        <time>2022-09-14T10:50:46.771Z</time>
      </trkpt>
      <trkpt lat="47.58549" lon="8.11316">
        <ele>322.352858</ele>
        <time>2022-09-14T10:50:49.374Z</time>
      </trkpt>
      <trkpt lat="47.58535" lon="8.11287">
        <ele>321.397157</ele>
        <time>2022-09-14T10:50:53.997Z</time>
      </trkpt>
      <trkpt lat="47.58522" lon="8.11257">
        <ele>320.432346</ele>
        <time>2022-09-14T10:50:58.469Z</time>
      </trkpt>
      <trkpt lat="47.58516" lon="8.11243">
        <ele>319.969183</ele>
        <time>2022-09-14T10:51:00.589Z</time>
      </trkpt>
      <trkpt lat="47.58503" lon="8.11213">
        <ele>319.006373</ele>
        <time>2022-09-14T10:51:05.008Z</time>
      </trkpt>
      <trkpt lat="47.58488" lon="8.1118">
        <ele>317.912853</ele>
        <time>2022-09-14T10:51:10.001Z</time>
      </trkpt>
      <trkpt lat="47.58481" lon="8.11165">
        <ele>317.411121</ele>
        <time>2022-09-14T10:51:12.301Z</time>
      </trkpt>
      <trkpt lat="47.58472" lon="8.1115">
        <ele>316.857809</ele>
        <time>2022-09-14T10:51:14.797Z</time>
      </trkpt>
      <trkpt lat="47.58405" lon="8.11069">
        <ele>313.304732</ele>
        <time>2022-09-14T10:51:30.581Z</time>
      </trkpt>
      <trkpt lat="47.58372" lon="8.11021">
        <ele>311.389278</ele>
        <time>2022-09-14T10:51:39.111Z</time>
      </trkpt>
      <trkpt lat="47.5835" lon="8.10966">
        <ele>309.610552</ele>
        <time>2022-09-14T10:51:47.374Z</time>
      </trkpt>
      <trkpt lat="47.58345" lon="8.10951">
        <ele>309.321774</ele>
        <time>2022-09-14T10:51:49.615Z</time>
      </trkpt>
      <trkpt lat="47.58341" lon="8.10941">
        <ele>309.197525</ele>
        <time>2022-09-14T10:51:51.312Z</time>
      </trkpt>
      <trkpt lat="47.58335" lon="8.10931">
        <ele>309.069937</ele>
        <time>2022-09-14T10:51:53.081Z</time>
      </trkpt>
      <trkpt lat="47.58331" lon="8.10925">
        <ele>308.991932</ele>
        <time>2022-09-14T10:51:54.167Z</time>
      </trkpt>
      <trkpt lat="47.58316" lon="8.1091">
        <ele>308.72239</ele>
        <time>2022-09-14T10:51:57.996Z</time>
      </trkpt>
      <trkpt lat="47.58305" lon="8.10896">
        <ele>308.521789</ele>
        <time>2022-09-14T10:52:00.901Z</time>
      </trkpt>
      <trkpt lat="47.58301" lon="8.10892">
        <ele>308.440005</ele>
        <time>2022-09-14T10:52:02.087Z</time>
      </trkpt>
      <trkpt lat="47.58286" lon="8.10871">
        <ele>308.145784</ele>
        <time>2022-09-14T10:52:06.495Z</time>
      </trkpt>
      <trkpt lat="47.5828" lon="8.10872">
        <ele>308.056999</ele>
        <time>2022-09-14T10:52:07.818Z</time>
      </trkpt>
      <trkpt lat="47.58262" lon="8.10844">
        <ele>307.665681</ele>
        <time>2022-09-14T10:52:13.915Z</time>
      </trkpt>
      <trkpt lat="47.58145" lon="8.10673">
        <ele>306.669455</ele>
        <time>2022-09-14T10:52:56.981Z</time>
      </trkpt>
      <trkpt lat="47.58079" lon="8.10572">
        <ele>306.529668</ele>
        <time>2022-09-14T10:53:22.005Z</time>
      </trkpt>
      <trkpt lat="47.57973" lon="8.10451">
        <ele>306.155519</ele>
        <time>2022-09-14T10:53:55.455Z</time>
      </trkpt>
      <trkpt lat="47.57871" lon="8.10346">
        <ele>306.147717</ele>
        <time>2022-09-14T10:54:27.662Z</time>
      </trkpt>
      <trkpt lat="47.57768" lon="8.10249">
        <ele>306.47253</ele>
        <time>2022-09-14T10:55:02.156Z</time>
      </trkpt>
      <trkpt lat="47.57622" lon="8.10077">
        <ele>307.786882</ele>
        <time>2022-09-14T10:55:59.291Z</time>
      </trkpt>
      <trkpt lat="47.57601" lon="8.10055">
        <ele>307.982605</ele>
        <time>2022-09-14T10:56:07.091Z</time>
      </trkpt>
      <trkpt lat="47.57537" lon="8.10022">
        <ele>308.512896</ele>
        <time>2022-09-14T10:56:27.858Z</time>
      </trkpt>
      <trkpt lat="47.5751" lon="8.10014">
        <ele>308.727764</ele>
        <time>2022-09-14T10:56:36.250Z</time>
      </trkpt>
      <trkpt lat="47.57494" lon="8.1001">
        <ele>308.857066</ele>
        <time>2022-09-14T10:56:41.269Z</time>
      </trkpt>
      <trkpt lat="47.57416" lon="8.09982">
        <ele>309.49823</ele>
        <time>2022-09-14T10:57:04.868Z</time>
      </trkpt>
      <trkpt lat="47.57363" lon="8.09954">
        <ele>309.952875</ele>
        <time>2022-09-14T10:57:21.809Z</time>
      </trkpt>
      <trkpt lat="47.57264" lon="8.09894">
        <ele>310.906953</ele>
        <time>2022-09-14T10:57:56.022Z</time>
      </trkpt>
      <trkpt lat="47.57228" lon="8.09863">
        <ele>311.299289</ele>
        <time>2022-09-14T10:58:09.262Z</time>
      </trkpt>
      <trkpt lat="47.57204" lon="8.09816">
        <ele>311.678765</ele>
        <time>2022-09-14T10:58:21.849Z</time>
      </trkpt>
      <trkpt lat="47.57176" lon="8.09746">
        <ele>312.045049</ele>
        <time>2022-09-14T10:58:38.601Z</time>
      </trkpt>
      <trkpt lat="47.57155" lon="8.09629">
        <ele>312.293642</ele>
        <time>2022-09-14T10:59:02.082Z</time>
      </trkpt>
      <trkpt lat="47.57148" lon="8.09583">
        <ele>312.391648</ele>
        <time>2022-09-14T10:59:10.649Z</time>
      </trkpt>
      <trkpt lat="47.57125" lon="8.09455">
        <ele>312.839344</ele>
        <time>2022-09-14T10:59:33.737Z</time>
      </trkpt>
      <trkpt lat="47.57109" lon="8.09389">
        <ele>313.164889</ele>
        <time>2022-09-14T10:59:47.267Z</time>
      </trkpt>
      <trkpt lat="47.57065" lon="8.09278">
        <ele>313.771547</ele>
        <time>2022-09-14T11:00:14.976Z</time>
      </trkpt>
      <trkpt lat="47.57016" lon="8.09157">
        <ele>315.517006</ele>
        <time>2022-09-14T11:00:49.359Z</time>
      </trkpt>
      <trkpt lat="47.56953" lon="8.09004">
        <ele>317.440279</ele>
        <time>2022-09-14T11:01:33.649Z</time>
      </trkpt>
      <trkpt lat="47.56912" lon="8.08906">
        <ele>318.226169</ele>
        <time>2022-09-14T11:01:58.277Z</time>
      </trkpt>
      <trkpt lat="47.56861" lon="8.08791">
        <ele>318.708868</ele>
        <time>2022-09-14T11:02:24.555Z</time>
      </trkpt>
      <trkpt lat="47.5681" lon="8.08663">
        <ele>318.063659</ele>
        <time>2022-09-14T11:02:48.844Z</time>
      </trkpt>
      <trkpt lat="47.56781" lon="8.08591">
        <ele>317.667082</ele>
        <time>2022-09-14T11:03:01.692Z</time>
      </trkpt>
      <trkpt lat="47.56684" lon="8.08348">
        <ele>315.165802</ele>
        <time>2022-09-14T11:03:43.495Z</time>
      </trkpt>
      <trkpt lat="47.56642" lon="8.08228">
        <ele>314.950907</ele>
        <time>2022-09-14T11:04:05.836Z</time>
      </trkpt>
      <trkpt lat="47.56601" lon="8.08061">
        <ele>315.203435</ele>
        <time>2022-09-14T11:04:41.326Z</time>
      </trkpt>
      <trkpt lat="47.56584" lon="8.07961">
        <ele>315.834635</ele>
        <time>2022-09-14T11:05:04.543Z</time>
      </trkpt>
      <trkpt lat="47.5656" lon="8.07675">
        <ele>316.102975</ele>
        <time>2022-09-14T11:06:02.451Z</time>
      </trkpt>
      <trkpt lat="47.56553" lon="8.07659">
        <ele>316.072593</ele>
        <time>2022-09-14T11:06:05.485Z</time>
      </trkpt>
      <trkpt lat="47.56554" lon="8.07654">
        <ele>316.064603</ele>
        <time>2022-09-14T11:06:06.472Z</time>
      </trkpt>
      <trkpt lat="47.56552" lon="8.07639">
        <ele>316.040088</ele>
        <time>2022-09-14T11:06:09.467Z</time>
      </trkpt>
      <trkpt lat="47.56532" lon="8.07643">
        <ele>315.992029</ele>
        <time>2022-09-14T11:06:13.816Z</time>
      </trkpt>
      <trkpt lat="47.56511" lon="8.07648">
        <ele>315.365461</ele>
        <time>2022-09-14T11:06:17.948Z</time>
      </trkpt>
      <trkpt lat="47.5648" lon="8.07651">
        <ele>314.407857</ele>
        <time>2022-09-14T11:06:24.007Z</time>
      </trkpt>
      <trkpt lat="47.5647" lon="8.0765">
        <ele>314.065171</ele>
        <time>2022-09-14T11:06:26.127Z</time>
      </trkpt>
      <trkpt lat="47.56466" lon="8.07644">
        <ele>313.9135</ele>
        <time>2022-09-14T11:06:27.141Z</time>
      </trkpt>
      <trkpt lat="47.56454" lon="8.07643">
        <ele>313.524031</ele>
        <time>2022-09-14T11:06:29.584Z</time>
      </trkpt>
      <trkpt lat="47.56448" lon="8.07651">
        <ele>313.283891</ele>
        <time>2022-09-14T11:06:31.047Z</time>
      </trkpt>
      <trkpt lat="47.56437" lon="8.0766">
        <ele>312.888207</ele>
        <time>2022-09-14T11:06:33.497Z</time>
      </trkpt>
      <trkpt lat="47.56423" lon="8.07669">
        <ele>312.416763</ele>
        <time>2022-09-14T11:06:36.430Z</time>
      </trkpt>
      <trkpt lat="47.56369" lon="8.07681">
        <ele>310.695176</ele>
        <time>2022-09-14T11:06:46.758Z</time>
      </trkpt>
      <trkpt lat="47.56341" lon="8.07679">
        <ele>310.054877</ele>
        <time>2022-09-14T11:06:52.166Z</time>
      </trkpt>
      <trkpt lat="47.56323" lon="8.07673">
        <ele>309.743143</ele>
        <time>2022-09-14T11:06:55.731Z</time>
      </trkpt>
      <trkpt lat="47.56295" lon="8.07645">
        <ele>309.167956</ele>
        <time>2022-09-14T11:07:02.405Z</time>
      </trkpt>
      <trkpt lat="47.56277" lon="8.07616">
        <ele>308.703983</ele>
        <time>2022-09-14T11:07:08.301Z</time>
      </trkpt>
      <trkpt lat="47.56256" lon="8.07594">
        <ele>308.263486</ele>
        <time>2022-09-14T11:07:14.007Z</time>
      </trkpt>
      <trkpt lat="47.56251" lon="8.07586">
        <ele>308.142036</ele>
        <time>2022-09-14T11:07:15.614Z</time>
      </trkpt>
      <trkpt lat="47.56245" lon="8.07577">
        <ele>307.994761</ele>
        <time>2022-09-14T11:07:17.617Z</time>
      </trkpt>
      <trkpt lat="47.56173" lon="8.07463">
        <ele>308.76388</ele>
        <time>2022-09-14T11:07:48.201Z</time>
      </trkpt>
      <trkpt lat="47.56105" lon="8.07356">
        <ele>311.119679</ele>
        <time>2022-09-14T11:08:30.696Z</time>
      </trkpt>
      <trkpt lat="47.5608" lon="8.0732">
        <ele>312.260183</ele>
        <time>2022-09-14T11:08:45.249Z</time>
      </trkpt>
      <trkpt lat="47.56084" lon="8.07314">
        <ele>312.486462</ele>
        <time>2022-09-14T11:08:48.989Z</time>
      </trkpt>
      <trkpt lat="47.56065" lon="8.07279">
        <ele>313.740879</ele>
        <time>2022-09-14T11:09:05.484Z</time>
      </trkpt>
      <trkpt lat="47.56063" lon="8.07246">
        <ele>314.686646</ele>
        <time>2022-09-14T11:09:18.342Z</time>
      </trkpt>
      <trkpt lat="47.56096" lon="8.07112">
        <ele>318.748431</ele>
        <time>2022-09-14T11:10:05.438Z</time>
      </trkpt>
      <trkpt lat="47.5608" lon="8.07106">
        <ele>319.202068</ele>
        <time>2022-09-14T11:10:13.543Z</time>
      </trkpt>
      <trkpt lat="47.56055" lon="8.0711">
        <ele>319.461178</ele>
        <time>2022-09-14T11:10:22.262Z</time>
      </trkpt>
      <trkpt lat="47.5608" lon="8.07034">
        <ele>320.061422</ele>
        <time>2022-09-14T11:10:38.839Z</time>
      </trkpt>
      <trkpt lat="47.5609" lon="8.06978">
        <ele>320.473497</ele>
        <time>2022-09-14T11:10:50.601Z</time>
      </trkpt>
      <trkpt lat="47.561" lon="8.06924">
        <ele>320.872265</ele>
        <time>2022-09-14T11:11:02.717Z</time>
      </trkpt>
      <trkpt lat="47.56113" lon="8.06865">
        <ele>320.898961</ele>
        <time>2022-09-14T11:11:12.236Z</time>
      </trkpt>
      <trkpt lat="47.56123" lon="8.0679">
        <ele>320.699811</ele>
        <time>2022-09-14T11:11:24.002Z</time>
      </trkpt>
      <trkpt lat="47.56128" lon="8.06702">
        <ele>320.468738</ele>
        <time>2022-09-14T11:11:38.818Z</time>
      </trkpt>
      <trkpt lat="47.5612" lon="8.06583">
        <ele>320.365836</ele>
        <time>2022-09-14T11:12:01.161Z</time>
      </trkpt>
      <trkpt lat="47.56102" lon="8.06482">
        <ele>320.457018</ele>
        <time>2022-09-14T11:12:20.982Z</time>
      </trkpt>
      <trkpt lat="47.56081" lon="8.06404">
        <ele>320.530667</ele>
        <time>2022-09-14T11:12:36.324Z</time>
      </trkpt>
      <trkpt lat="47.5605" lon="8.06354">
        <ele>320.477712</ele>
        <time>2022-09-14T11:12:48.264Z</time>
      </trkpt>
      <trkpt lat="47.56034" lon="8.06317">
        <ele>320.417565</ele>
        <time>2022-09-14T11:12:55.925Z</time>
      </trkpt>
      <trkpt lat="47.5599" lon="8.06219">
        <ele>320.257739</ele>
        <time>2022-09-14T11:13:16.282Z</time>
      </trkpt>
      <trkpt lat="47.55962" lon="8.06181">
        <ele>320.182432</ele>
        <time>2022-09-14T11:13:25.971Z</time>
      </trkpt>
      <trkpt lat="47.55945" lon="8.06144">
        <ele>320.136584</ele>
        <time>2022-09-14T11:13:33.735Z</time>
      </trkpt>
      <trkpt lat="47.55913" lon="8.06078">
        <ele>320.053582</ele>
        <time>2022-09-14T11:13:47.599Z</time>
      </trkpt>
      <trkpt lat="47.55871" lon="8.05994">
        <ele>319.9467</ele>
        <time>2022-09-14T11:14:05.485Z</time>
      </trkpt>
      <trkpt lat="47.55786" lon="8.05828">
        <ele>320.756657</ele>
        <time>2022-09-14T11:14:46.039Z</time>
      </trkpt>
      <trkpt lat="47.5575" lon="8.05838">
        <ele>321.022763</ele>
        <time>2022-09-14T11:14:58.043Z</time>
      </trkpt>
      <trkpt lat="47.55698" lon="8.05843">
        <ele>321.547913</ele>
        <time>2022-09-14T11:15:15.267Z</time>
      </trkpt>
      <trkpt lat="47.55665" lon="8.05835">
        <ele>321.977636</ele>
        <time>2022-09-14T11:15:26.518Z</time>
      </trkpt>
      <trkpt lat="47.55604" lon="8.05809">
        <ele>322.79873</ele>
        <time>2022-09-14T11:15:48.265Z</time>
      </trkpt>
      <trkpt lat="47.55571" lon="8.05785">
        <ele>323.277264</ele>
        <time>2022-09-14T11:16:00.480Z</time>
      </trkpt>
      <trkpt lat="47.55408" lon="8.05631">
        <ele>324.685085</ele>
        <time>2022-09-14T11:16:58.388Z</time>
      </trkpt>
      <trkpt lat="47.55395" lon="8.05657">
        <ele>324.750985</ele>
        <time>2022-09-14T11:17:04.569Z</time>
      </trkpt>
      <trkpt lat="47.55392" lon="8.05653">
        <ele>324.757307</ele>
        <time>2022-09-14T11:17:05.667Z</time>
      </trkpt>
      <trkpt lat="47.55396" lon="8.05642">
        <ele>324.770324</ele>
        <time>2022-09-14T11:17:08.017Z</time>
      </trkpt>
      <trkpt lat="47.55393" lon="8.05629">
        <ele>324.78448</ele>
        <time>2022-09-14T11:17:10.568Z</time>
      </trkpt>
      <trkpt lat="47.55262" lon="8.05511">
        <ele>324.980995</ele>
        <time>2022-09-14T11:17:52.502Z</time>
      </trkpt>
      <trkpt lat="47.55212" lon="8.05454">
        <ele>324.824022</ele>
        <time>2022-09-14T11:18:08.259Z</time>
      </trkpt>
      <trkpt lat="47.55131" lon="8.05347">
        <ele>324.558283</ele>
        <time>2022-09-14T11:18:35.730Z</time>
      </trkpt>
      <trkpt lat="47.55074" lon="8.053">
        <ele>324.548159</ele>
        <time>2022-09-14T11:18:52.519Z</time>
      </trkpt>
      <trkpt lat="47.54915" lon="8.05206">
        <ele>324.655987</ele>
        <time>2022-09-14T11:19:39.329Z</time>
      </trkpt>
      <trkpt lat="47.54819" lon="8.05168">
        <ele>324.868522</ele>
        <time>2022-09-14T11:20:06.403Z</time>
      </trkpt>
      <trkpt lat="47.54713" lon="8.05148">
        <ele>327.676617</ele>
        <time>2022-09-14T11:20:38.009Z</time>
      </trkpt>
      <trkpt lat="47.54593" lon="8.05145">
        <ele>333.329575</ele>
        <time>2022-09-14T11:21:39.323Z</time>
      </trkpt>
      <trkpt lat="47.54527" lon="8.0513">
        <ele>340.189105</ele>
        <time>2022-09-14T11:22:27.497Z</time>
      </trkpt>
      <trkpt lat="47.54456" lon="8.05099">
        <ele>347.811788</ele>
        <time>2022-09-14T11:23:35.047Z</time>
      </trkpt>
      <trkpt lat="47.54402" lon="8.05061">
        <ele>353.448554</ele>
        <time>2022-09-14T11:24:28.268Z</time>
      </trkpt>
      <trkpt lat="47.54373" lon="8.05031">
        <ele>356.648269</ele>
        <time>2022-09-14T11:24:55.336Z</time>
      </trkpt>
      <trkpt lat="47.54371" lon="8.05019">
        <ele>357.391089</ele>
        <time>2022-09-14T11:24:59.896Z</time>
      </trkpt>
      <trkpt lat="47.54329" lon="8.04953">
        <ele>362.89932</ele>
        <time>2022-09-14T11:25:42.190Z</time>
      </trkpt>
      <trkpt lat="47.54303" lon="8.04897">
        <ele>365.409132</ele>
        <time>2022-09-14T11:26:08.595Z</time>
      </trkpt>
      <trkpt lat="47.54217" lon="8.047">
        <ele>364.304555</ele>
        <time>2022-09-14T11:26:44.944Z</time>
      </trkpt>
      <trkpt lat="47.54203" lon="8.04668">
        <ele>362.237503</ele>
        <time>2022-09-14T11:26:49.399Z</time>
      </trkpt>
      <trkpt lat="47.54165" lon="8.04594">
        <ele>356.321813</ele>
        <time>2022-09-14T11:26:59.546Z</time>
      </trkpt>
      <trkpt lat="47.54138" lon="8.04529">
        <ele>351.428505</ele>
        <time>2022-09-14T11:27:07.870Z</time>
      </trkpt>
      <trkpt lat="47.54108" lon="8.04458">
        <ele>346.506453</ele>
        <time>2022-09-14T11:27:16.909Z</time>
      </trkpt>
      <trkpt lat="47.5408" lon="8.04439">
        <ele>344.733804</ele>
        <time>2022-09-14T11:27:21.897Z</time>
      </trkpt>
      <trkpt lat="47.54032" lon="8.04442">
        <ele>341.933889</ele>
        <time>2022-09-14T11:27:30.036Z</time>
      </trkpt>
      <trkpt lat="47.54039" lon="8.04363">
        <ele>338.820229</ele>
        <time>2022-09-14T11:27:40.138Z</time>
      </trkpt>
      <trkpt lat="47.54031" lon="8.0431">
        <ele>336.837934</ele>
        <time>2022-09-14T11:27:50.934Z</time>
      </trkpt>
      <trkpt lat="47.54009" lon="8.04245">
        <ele>336.858045</ele>
        <time>2022-09-14T11:28:08.231Z</time>
      </trkpt>
      <trkpt lat="47.54007" lon="8.04239">
        <ele>336.859811</ele>
        <time>2022-09-14T11:28:09.765Z</time>
      </trkpt>
      <trkpt lat="47.54004" lon="8.0423">
        <ele>336.862676</ele>
        <time>2022-09-14T11:28:13.548Z</time>
      </trkpt>
      <trkpt lat="47.54002" lon="8.04227">
        <ele>336.863755</ele>
        <time>2022-09-14T11:28:14.959Z</time>
      </trkpt>
      <trkpt lat="47.53998" lon="8.04187">
        <ele>336.875004</ele>
        <time>2022-09-14T11:28:28.446Z</time>
      </trkpt>
      <trkpt lat="47.54003" lon="8.04148">
        <ele>336.885931</ele>
        <time>2022-09-14T11:28:36.557Z</time>
      </trkpt>
      <trkpt lat="47.54008" lon="8.04135">
        <ele>336.889953</ele>
        <time>2022-09-14T11:28:39.390Z</time>
      </trkpt>
      <trkpt lat="47.54012" lon="8.04125">
        <ele>336.893051</ele>
        <time>2022-09-14T11:28:41.593Z</time>
      </trkpt>
      <trkpt lat="47.54056" lon="8.04036">
        <ele>335.822145</ele>
        <time>2022-09-14T11:28:58.544Z</time>
      </trkpt>
      <trkpt lat="47.54061" lon="8.04024">
        <ele>335.514713</ele>
        <time>2022-09-14T11:29:00.306Z</time>
      </trkpt>
      <trkpt lat="47.54097" lon="8.03933">
        <ele>333.083766</ele>
        <time>2022-09-14T11:29:13.568Z</time>
      </trkpt>
      <trkpt lat="47.54102" lon="8.03909">
        <ele>332.515596</ele>
        <time>2022-09-14T11:29:16.577Z</time>
      </trkpt>
      <trkpt lat="47.54102" lon="8.03851">
        <ele>331.202191</ele>
        <time>2022-09-14T11:29:23.520Z</time>
      </trkpt>
      <trkpt lat="47.54032" lon="8.03059">
        <ele>321.353252</ele>
        <time>2022-09-14T11:31:19.705Z</time>
      </trkpt>
      <trkpt lat="47.54026" lon="8.02926">
        <ele>320.979351</ele>
        <time>2022-09-14T11:31:42.093Z</time>
      </trkpt>
      <trkpt lat="47.54031" lon="8.02676">
        <ele>321.261007</ele>
        <time>2022-09-14T11:32:28.125Z</time>
      </trkpt>
      <trkpt lat="47.54054" lon="8.02354">
        <ele>324.78991</ele>
        <time>2022-09-14T11:33:38.920Z</time>
      </trkpt>
      <trkpt lat="47.54035" lon="8.02233">
        <ele>327.265767</ele>
        <time>2022-09-14T11:34:16.021Z</time>
      </trkpt>
      <trkpt lat="47.5402" lon="8.02098">
        <ele>333.365059</ele>
        <time>2022-09-14T11:35:09.360Z</time>
      </trkpt>
      <trkpt lat="47.54013" lon="8.02059">
        <ele>335.155054</ele>
        <time>2022-09-14T11:35:26.754Z</time>
      </trkpt>
      <trkpt lat="47.54003" lon="8.01946">
        <ele>340.091276</ele>
        <time>2022-09-14T11:36:16.361Z</time>
      </trkpt>
      <trkpt lat="47.54001" lon="8.01866">
        <ele>343.401075</ele>
        <time>2022-09-14T11:36:50.691Z</time>
      </trkpt>
      <trkpt lat="47.53994" lon="8.01636">
        <ele>350.541281</ele>
        <time>2022-09-14T11:38:08.917Z</time>
      </trkpt>
      <trkpt lat="47.53988" lon="8.01452">
        <ele>352.8697</ele>
        <time>2022-09-14T11:38:46.268Z</time>
      </trkpt>
      <trkpt lat="47.5398" lon="8.01237">
        <ele>351.386962</ele>
        <time>2022-09-14T11:39:19.446Z</time>
      </trkpt>
      <trkpt lat="47.5397" lon="8.01111">
        <ele>350.547019</ele>
        <time>2022-09-14T11:39:38.145Z</time>
      </trkpt>
      <trkpt lat="47.53958" lon="8.00856">
        <ele>349.461559</ele>
        <time>2022-09-14T11:40:19.158Z</time>
      </trkpt>
      <trkpt lat="47.53959" lon="8.00589">
        <ele>349.370797</ele>
        <time>2022-09-14T11:41:14.205Z</time>
      </trkpt>
      <trkpt lat="47.53943" lon="8.00316">
        <ele>345.180985</ele>
        <time>2022-09-14T11:41:53.987Z</time>
      </trkpt>
      <trkpt lat="47.53944" lon="8.00296">
        <ele>344.491074</ele>
        <time>2022-09-14T11:41:56.347Z</time>
      </trkpt>
      <trkpt lat="47.53944" lon="8.00253">
        <ele>342.925782</ele>
        <time>2022-09-14T11:42:01.609Z</time>
      </trkpt>
      <trkpt lat="47.53937" lon="8.00115">
        <ele>337.854757</ele>
        <time>2022-09-14T11:42:17.529Z</time>
      </trkpt>
      <trkpt lat="47.53959" lon="7.99812">
        <ele>323.026301</ele>
        <time>2022-09-14T11:42:52.181Z</time>
      </trkpt>
      <trkpt lat="47.53973" lon="7.99727">
        <ele>320.292054</ele>
        <time>2022-09-14T11:43:02.939Z</time>
      </trkpt>
      <trkpt lat="47.53988" lon="7.9958">
        <ele>316.047226</ele>
        <time>2022-09-14T11:43:22.643Z</time>
      </trkpt>
      <trkpt lat="47.54001" lon="7.99514">
        <ele>315.390876</ele>
        <time>2022-09-14T11:43:32.681Z</time>
      </trkpt>
      <trkpt lat="47.54032" lon="7.99362">
        <ele>313.877355</ele>
        <time>2022-09-14T11:43:57.300Z</time>
      </trkpt>
      <trkpt lat="47.54026" lon="7.99224">
        <ele>313.539762</ele>
        <time>2022-09-14T11:44:19.905Z</time>
      </trkpt>
      <trkpt lat="47.54019" lon="7.99177">
        <ele>313.486574</ele>
        <time>2022-09-14T11:44:28.542Z</time>
      </trkpt>
      <trkpt lat="47.54014" lon="7.9915">
        <ele>313.456417</ele>
        <time>2022-09-14T11:44:33.559Z</time>
      </trkpt>
      <trkpt lat="47.5401" lon="7.99129">
        <ele>313.431989</ele>
        <time>2022-09-14T11:44:39.089Z</time>
      </trkpt>
      <trkpt lat="47.54002" lon="7.99055">
        <ele>313.467132</ele>
        <time>2022-09-14T11:44:53.711Z</time>
      </trkpt>
      <trkpt lat="47.54001" lon="7.99013">
        <ele>313.640872</ele>
        <time>2022-09-14T11:45:02.289Z</time>
      </trkpt>
      <trkpt lat="47.53998" lon="7.98819">
        <ele>314.440417</ele>
        <time>2022-09-14T11:45:41.640Z</time>
      </trkpt>
      <trkpt lat="47.54028" lon="7.98727">
        <ele>314.607035</ele>
        <time>2022-09-14T11:46:01.384Z</time>
      </trkpt>
      <trkpt lat="47.54034" lon="7.98693">
        <ele>314.656261</ele>
        <time>2022-09-14T11:46:08.092Z</time>
      </trkpt>
      <trkpt lat="47.54035" lon="7.98674">
        <ele>314.684382</ele>
        <time>2022-09-14T11:46:11.846Z</time>
      </trkpt>
      <trkpt lat="47.53995" lon="7.98663">
        <ele>314.769377</ele>
        <time>2022-09-14T11:46:22.985Z</time>
      </trkpt>
      <trkpt lat="47.53955" lon="7.98654">
        <ele>314.863583</ele>
        <time>2022-09-14T11:46:33.218Z</time>
      </trkpt>
      <trkpt lat="47.53927" lon="7.98649">
        <ele>315.05623</ele>
        <time>2022-09-14T11:46:39.893Z</time>
      </trkpt>
      <trkpt lat="47.53863" lon="7.98644">
        <ele>315.504991</ele>
        <time>2022-09-14T11:46:58.308Z</time>
      </trkpt>
      <trkpt lat="47.53851" lon="7.98643">
        <ele>315.585883</ele>
        <time>2022-09-14T11:47:01.359Z</time>
      </trkpt>
      <trkpt lat="47.53782" lon="7.98643">
        <ele>316.06816</ele>
        <time>2022-09-14T11:47:24.815Z</time>
      </trkpt>
      <trkpt lat="47.53782" lon="7.98619">
        <ele>316.349739</ele>
        <time>2022-09-14T11:47:30.724Z</time>
      </trkpt>
      <trkpt lat="47.53782" lon="7.98606">
        <ele>316.547029</ele>
        <time>2022-09-14T11:47:34.346Z</time>
      </trkpt>
      <trkpt lat="47.53788" lon="7.98594">
        <ele>316.773869</ele>
        <time>2022-09-14T11:47:37.321Z</time>
      </trkpt>
      <trkpt lat="47.53821" lon="7.98559">
        <ele>317.651503</ele>
        <time>2022-09-14T11:47:51.482Z</time>
      </trkpt>
      <trkpt lat="47.53777" lon="7.98499">
        <ele>318.956242</ele>
        <time>2022-09-14T11:48:13.971Z</time>
      </trkpt>
      <trkpt lat="47.53773" lon="7.98494">
        <ele>319.073765</ele>
        <time>2022-09-14T11:48:15.841Z</time>
      </trkpt>
      <trkpt lat="47.53685" lon="7.98381">
        <ele>322.326054</ele>
        <time>2022-09-14T11:49:02.386Z</time>
      </trkpt>
      <trkpt lat="47.53641" lon="7.98324">
        <ele>324.154994</ele>
        <time>2022-09-14T11:49:26.668Z</time>
      </trkpt>
      <trkpt lat="47.53676" lon="7.98223">
        <ele>326.594787</ele>
        <time>2022-09-14T11:50:01.412Z</time>
      </trkpt>
      <trkpt lat="47.53684" lon="7.98188">
        <ele>327.37986</ele>
        <time>2022-09-14T11:50:13.241Z</time>
      </trkpt>
      <trkpt lat="47.53746" lon="7.98012">
        <ele>331.435929</ele>
        <time>2022-09-14T11:51:09.779Z</time>
      </trkpt>
      <trkpt lat="47.53784" lon="7.97871">
        <ele>331.722089</ele>
        <time>2022-09-14T11:51:41.023Z</time>
      </trkpt>
      <trkpt lat="47.53811" lon="7.97724">
        <ele>331.342273</ele>
        <time>2022-09-14T11:52:03.999Z</time>
      </trkpt>
      <trkpt lat="47.53824" lon="7.97635">
        <ele>330.223316</ele>
        <time>2022-09-14T11:52:17.119Z</time>
      </trkpt>
      <trkpt lat="47.53871" lon="7.97446">
        <ele>327.5092</ele>
        <time>2022-09-14T11:52:45.737Z</time>
      </trkpt>
      <trkpt lat="47.53926" lon="7.97177">
        <ele>322.951895</ele>
        <time>2022-09-14T11:53:24.579Z</time>
      </trkpt>
      <trkpt lat="47.53978" lon="7.96959">
        <ele>319.341675</ele>
        <time>2022-09-14T11:53:55.954Z</time>
      </trkpt>
      <trkpt lat="47.5409" lon="7.96471">
        <ele>314.965892</ele>
        <time>2022-09-14T11:55:15.105Z</time>
      </trkpt>
      <trkpt lat="47.5411" lon="7.9642">
        <ele>314.674742</ele>
        <time>2022-09-14T11:55:25.049Z</time>
      </trkpt>
      <trkpt lat="47.54117" lon="7.96412">
        <ele>314.607077</ele>
        <time>2022-09-14T11:55:26.959Z</time>
      </trkpt>
      <trkpt lat="47.54102" lon="7.96382">
        <ele>314.418534</ele>
        <time>2022-09-14T11:55:34.078Z</time>
      </trkpt>
      <trkpt lat="47.54112" lon="7.96352">
        <ele>314.253315</ele>
        <time>2022-09-14T11:55:39.311Z</time>
      </trkpt>
      <trkpt lat="47.54122" lon="7.96319">
        <ele>314.074128</ele>
        <time>2022-09-14T11:55:45.053Z</time>
      </trkpt>
      <trkpt lat="47.54131" lon="7.96251">
        <ele>313.568254</ele>
        <time>2022-09-14T11:55:56.494Z</time>
      </trkpt>
      <trkpt lat="47.54131" lon="7.96238">
        <ele>313.367839</ele>
        <time>2022-09-14T11:55:58.964Z</time>
      </trkpt>
      <trkpt lat="47.54124" lon="7.96129">
        <ele>311.767577</ele>
        <time>2022-09-14T11:56:15.241Z</time>
      </trkpt>
      <trkpt lat="47.54106" lon="7.96032">
        <ele>310.28286</ele>
        <time>2022-09-14T11:56:28.671Z</time>
      </trkpt>
      <trkpt lat="47.54103" lon="7.95994">
        <ele>309.60183</ele>
        <time>2022-09-14T11:56:33.565Z</time>
      </trkpt>
      <trkpt lat="47.54101" lon="7.95958">
        <ele>308.689045</ele>
        <time>2022-09-14T11:56:38.282Z</time>
      </trkpt>
      <trkpt lat="47.54108" lon="7.95883">
        <ele>306.797147</ele>
        <time>2022-09-14T11:56:47.847Z</time>
      </trkpt>
      <trkpt lat="47.54131" lon="7.95779">
        <ele>304.072216</ele>
        <time>2022-09-14T11:57:01.807Z</time>
      </trkpt>
      <trkpt lat="47.54146" lon="7.9567">
        <ele>302.36331</ele>
        <time>2022-09-14T11:57:16.506Z</time>
      </trkpt>
      <trkpt lat="47.54153" lon="7.95553">
        <ele>301.037426</ele>
        <time>2022-09-14T11:57:33.997Z</time>
      </trkpt>
      <trkpt lat="47.54155" lon="7.95531">
        <ele>300.793708</ele>
        <time>2022-09-14T11:57:37.580Z</time>
      </trkpt>
      <trkpt lat="47.54174" lon="7.95389">
        <ele>300.35862</ele>
        <time>2022-09-14T11:58:03.370Z</time>
      </trkpt>
      <trkpt lat="47.54177" lon="7.9537">
        <ele>300.382893</ele>
        <time>2022-09-14T11:58:07.303Z</time>
      </trkpt>
      <trkpt lat="47.54179" lon="7.9536">
        <ele>300.394355</ele>
        <time>2022-09-14T11:58:09.139Z</time>
      </trkpt>
      <trkpt lat="47.54199" lon="7.95267">
        <ele>300.510554</ele>
        <time>2022-09-14T11:58:28.101Z</time>
      </trkpt>
      <trkpt lat="47.54217" lon="7.95182">
        <ele>300.620871</ele>
        <time>2022-09-14T11:58:45.211Z</time>
      </trkpt>
      <trkpt lat="47.54219" lon="7.95171">
        <ele>300.634608</ele>
        <time>2022-09-14T11:58:47.350Z</time>
      </trkpt>
      <trkpt lat="47.54244" lon="7.95069">
        <ele>300.774681</ele>
        <time>2022-09-14T11:59:07.513Z</time>
      </trkpt>
      <trkpt lat="47.54255" lon="7.95027">
        <ele>300.831102</ele>
        <time>2022-09-14T11:59:15.375Z</time>
      </trkpt>
      <trkpt lat="47.54256" lon="7.9502">
        <ele>300.840715</ele>
        <time>2022-09-14T11:59:16.797Z</time>
      </trkpt>
      <trkpt lat="47.54272" lon="7.94918">
        <ele>301.237009</ele>
        <time>2022-09-14T11:59:36.239Z</time>
      </trkpt>
      <trkpt lat="47.54284" lon="7.94823">
        <ele>301.802519</ele>
        <time>2022-09-14T11:59:55.891Z</time>
      </trkpt>
      <trkpt lat="47.54288" lon="7.948">
        <ele>301.93749</ele>
        <time>2022-09-14T12:00:00.927Z</time>
      </trkpt>
      <trkpt lat="47.54293" lon="7.9478">
        <ele>302.064879</ele>
        <time>2022-09-14T12:00:05.466Z</time>
      </trkpt>
      <trkpt lat="47.54309" lon="7.94732">
        <ele>302.378341</ele>
        <time>2022-09-14T12:00:17.398Z</time>
      </trkpt>
      <trkpt lat="47.54309" lon="7.94705">
        <ele>302.598257</ele>
        <time>2022-09-14T12:00:23.556Z</time>
      </trkpt>
      <trkpt lat="47.54306" lon="7.94694">
        <ele>302.738034</ele>
        <time>2022-09-14T12:00:26.554Z</time>
      </trkpt>
      <trkpt lat="47.54297" lon="7.9465">
        <ele>303.247818</ele>
        <time>2022-09-14T12:00:37.493Z</time>
      </trkpt>
      <trkpt lat="47.54291" lon="7.94527">
        <ele>304.622983</ele>
        <time>2022-09-14T12:01:07.537Z</time>
      </trkpt>
      <trkpt lat="47.54316" lon="7.94221">
        <ele>306.904143</ele>
        <time>2022-09-14T12:02:16.146Z</time>
      </trkpt>
      <trkpt lat="47.54344" lon="7.94067">
        <ele>305.978152</ele>
        <time>2022-09-14T12:02:41.419Z</time>
      </trkpt>
      <trkpt lat="47.54383" lon="7.93943">
        <ele>304.774624</ele>
        <time>2022-09-14T12:03:00.993Z</time>
      </trkpt>
      <trkpt lat="47.54471" lon="7.9374">
        <ele>301.599288</ele>
        <time>2022-09-14T12:03:35.427Z</time>
      </trkpt>
      <trkpt lat="47.54507" lon="7.93648">
        <ele>300.444031</ele>
        <time>2022-09-14T12:03:50.861Z</time>
      </trkpt>
      <trkpt lat="47.54546" lon="7.93511">
        <ele>298.942287</ele>
        <time>2022-09-14T12:04:12.565Z</time>
      </trkpt>
      <trkpt lat="47.5457" lon="7.93329">
        <ele>298.704449</ele>
        <time>2022-09-14T12:04:43.022Z</time>
      </trkpt>
      <trkpt lat="47.5457" lon="7.9315">
        <ele>299.583046</ele>
        <time>2022-09-14T12:05:21.742Z</time>
      </trkpt>
      <trkpt lat="47.54558" lon="7.92996">
        <ele>301.535819</ele>
        <time>2022-09-14T12:06:02.243Z</time>
      </trkpt>
      <trkpt lat="47.54548" lon="7.92842">
        <ele>301.879271</ele>
        <time>2022-09-14T12:06:37.222Z</time>
      </trkpt>
      <trkpt lat="47.54542" lon="7.92769">
        <ele>301.661147</ele>
        <time>2022-09-14T12:06:49.054Z</time>
      </trkpt>
      <trkpt lat="47.54541" lon="7.92677">
        <ele>301.35216</ele>
        <time>2022-09-14T12:07:02.193Z</time>
      </trkpt>
      <trkpt lat="47.54542" lon="7.92585">
        <ele>299.058844</ele>
        <time>2022-09-14T12:07:14.330Z</time>
      </trkpt>
      <trkpt lat="47.54548" lon="7.9244">
        <ele>295.451349</ele>
        <time>2022-09-14T12:07:32.508Z</time>
      </trkpt>
      <trkpt lat="47.54554" lon="7.92341">
        <ele>293.668813</ele>
        <time>2022-09-14T12:07:45.248Z</time>
      </trkpt>
      <trkpt lat="47.54559" lon="7.9229">
        <ele>292.868818</ele>
        <time>2022-09-14T12:07:52.372Z</time>
      </trkpt>
      <trkpt lat="47.5457" lon="7.92233">
        <ele>291.95117</ele>
        <time>2022-09-14T12:08:00.890Z</time>
      </trkpt>
      <trkpt lat="47.54581" lon="7.92176">
        <ele>291.034162</ele>
        <time>2022-09-14T12:08:09.922Z</time>
      </trkpt>
      <trkpt lat="47.54591" lon="7.92077">
        <ele>290.511096</ele>
        <time>2022-09-14T12:08:25.976Z</time>
      </trkpt>
      <trkpt lat="47.54613" lon="7.91962">
        <ele>290.2618</ele>
        <time>2022-09-14T12:08:47.640Z</time>
      </trkpt>
      <trkpt lat="47.54657" lon="7.91777">
        <ele>290.039622</ele>
        <time>2022-09-14T12:09:22.295Z</time>
      </trkpt>
      <trkpt lat="47.54703" lon="7.91622">
        <ele>290.601163</ele>
        <time>2022-09-14T12:09:50.829Z</time>
      </trkpt>
      <trkpt lat="47.54709" lon="7.91604">
        <ele>291.049258</ele>
        <time>2022-09-14T12:09:54.879Z</time>
      </trkpt>
      <trkpt lat="47.54742" lon="7.91508">
        <ele>293.47954</ele>
        <time>2022-09-14T12:10:24.675Z</time>
      </trkpt>
      <trkpt lat="47.54706" lon="7.91473">
        <ele>294.932355</ele>
        <time>2022-09-14T12:10:48.332Z</time>
      </trkpt>
      <trkpt lat="47.5467" lon="7.91434">
        <ele>296.683664</ele>
        <time>2022-09-14T12:11:12.996Z</time>
      </trkpt>
      <trkpt lat="47.54643" lon="7.91405">
        <ele>298.343081</ele>
        <time>2022-09-14T12:11:30.726Z</time>
      </trkpt>
      <trkpt lat="47.54606" lon="7.91366">
        <ele>300.635705</ele>
        <time>2022-09-14T12:11:56.770Z</time>
      </trkpt>
      <trkpt lat="47.54653" lon="7.91251">
        <ele>305.142854</ele>
        <time>2022-09-14T12:12:42.562Z</time>
      </trkpt>
      <trkpt lat="47.54726" lon="7.91121">
        <ele>306.95635</ele>
        <time>2022-09-14T12:13:23.783Z</time>
      </trkpt>
      <trkpt lat="47.54765" lon="7.91027">
        <ele>307.861776</ele>
        <time>2022-09-14T12:13:43.787Z</time>
      </trkpt>
      <trkpt lat="47.54786" lon="7.90985">
        <ele>307.559075</ele>
        <time>2022-09-14T12:13:52.834Z</time>
      </trkpt>
      <trkpt lat="47.54822" lon="7.90915">
        <ele>307.054384</ele>
        <time>2022-09-14T12:14:07.607Z</time>
      </trkpt>
      <trkpt lat="47.54881" lon="7.90829">
        <ele>306.338168</ele>
        <time>2022-09-14T12:14:26.761Z</time>
      </trkpt>
      <trkpt lat="47.54952" lon="7.90638">
        <ele>304.962025</ele>
        <time>2022-09-14T12:15:01.958Z</time>
      </trkpt>
      <trkpt lat="47.54967" lon="7.90534">
        <ele>305.116325</ele>
        <time>2022-09-14T12:15:21.921Z</time>
      </trkpt>
      <trkpt lat="47.54987" lon="7.90516">
        <ele>305.292904</ele>
        <time>2022-09-14T12:15:28.494Z</time>
      </trkpt>
      <trkpt lat="47.54987" lon="7.90501">
        <ele>305.368565</ele>
        <time>2022-09-14T12:15:31.685Z</time>
      </trkpt>
      <trkpt lat="47.55003" lon="7.90477">
        <ele>305.541464</ele>
        <time>2022-09-14T12:15:38.508Z</time>
      </trkpt>
      <trkpt lat="47.5503" lon="7.90416">
        <ele>305.925076</ele>
        <time>2022-09-14T12:15:55.369Z</time>
      </trkpt>
      <trkpt lat="47.5505" lon="7.90345">
        <ele>306.995219</ele>
        <time>2022-09-14T12:16:14.337Z</time>
      </trkpt>
      <trkpt lat="47.55069" lon="7.90245">
        <ele>309.350807</ele>
        <time>2022-09-14T12:16:43.143Z</time>
      </trkpt>
      <trkpt lat="47.55077" lon="7.90136">
        <ele>311.848895</ele>
        <time>2022-09-14T12:17:18.313Z</time>
      </trkpt>
      <trkpt lat="47.5508" lon="7.90024">
        <ele>315.307423</ele>
        <time>2022-09-14T12:17:58.161Z</time>
      </trkpt>
      <trkpt lat="47.55082" lon="7.89811">
        <ele>321.4482</ele>
        <time>2022-09-14T12:19:10.397Z</time>
      </trkpt>
      <trkpt lat="47.55064" lon="7.89635">
        <ele>324.129212</ele>
        <time>2022-09-14T12:19:54.378Z</time>
      </trkpt>
      <trkpt lat="47.55076" lon="7.89591">
        <ele>324.818496</ele>
        <time>2022-09-14T12:20:03.282Z</time>
      </trkpt>
      <trkpt lat="47.55088" lon="7.89516">
        <ele>325.249182</ele>
        <time>2022-09-14T12:20:16.425Z</time>
      </trkpt>
      <trkpt lat="47.55089" lon="7.89318">
        <ele>326.613668</ele>
        <time>2022-09-14T12:20:56.051Z</time>
      </trkpt>
      <trkpt lat="47.5509" lon="7.89173">
        <ele>330.799015</ele>
        <time>2022-09-14T12:21:40.731Z</time>
      </trkpt>
      <trkpt lat="47.55092" lon="7.8906">
        <ele>334.070934</ele>
        <time>2022-09-14T12:22:21.903Z</time>
      </trkpt>
      <trkpt lat="47.55083" lon="7.88907">
        <ele>340.399119</ele>
        <time>2022-09-14T12:23:21.012Z</time>
      </trkpt>
      <trkpt lat="47.55079" lon="7.88782">
        <ele>345.508206</ele>
        <time>2022-09-14T12:24:08.376Z</time>
      </trkpt>
      <trkpt lat="47.55068" lon="7.88648">
        <ele>350.511692</ele>
        <time>2022-09-14T12:24:57.902Z</time>
      </trkpt>
      <trkpt lat="47.55039" lon="7.88511">
        <ele>355.59362</ele>
        <time>2022-09-14T12:25:48.097Z</time>
      </trkpt>
      <trkpt lat="47.55015" lon="7.88261">
        <ele>362.728486</ele>
        <time>2022-09-14T12:27:07.808Z</time>
      </trkpt>
      <trkpt lat="47.54993" lon="7.88149">
        <ele>365.028325</ele>
        <time>2022-09-14T12:27:39.741Z</time>
      </trkpt>
      <trkpt lat="47.54973" lon="7.88079">
        <ele>366.537661</ele>
        <time>2022-09-14T12:28:00.728Z</time>
      </trkpt>
      <trkpt lat="47.54933" lon="7.87955">
        <ele>368.155419</ele>
        <time>2022-09-14T12:28:35.883Z</time>
      </trkpt>
      <trkpt lat="47.54932" lon="7.8794">
        <ele>368.236091</ele>
        <time>2022-09-14T12:28:40.114Z</time>
      </trkpt>
      <trkpt lat="47.54927" lon="7.87904">
        <ele>368.435151</ele>
        <time>2022-09-14T12:28:49.145Z</time>
      </trkpt>
      <trkpt lat="47.5488" lon="7.87716">
        <ele>367.954032</ele>
        <time>2022-09-14T12:29:22.172Z</time>
      </trkpt>
      <trkpt lat="47.54873" lon="7.87706">
        <ele>367.666607</ele>
        <time>2022-09-14T12:29:24.388Z</time>
      </trkpt>
      <trkpt lat="47.54871" lon="7.87678">
        <ele>367.1296</ele>
        <time>2022-09-14T12:29:27.992Z</time>
      </trkpt>
      <trkpt lat="47.54828" lon="7.8753">
        <ele>363.947194</ele>
        <time>2022-09-14T12:29:48.717Z</time>
      </trkpt>
      <trkpt lat="47.54772" lon="7.87334">
        <ele>356.893689</ele>
        <time>2022-09-14T12:30:14.834Z</time>
      </trkpt>
      <trkpt lat="47.54756" lon="7.87278">
        <ele>354.855063</ele>
        <time>2022-09-14T12:30:22.201Z</time>
      </trkpt>
      <trkpt lat="47.54716" lon="7.87074">
        <ele>346.716156</ele>
        <time>2022-09-14T12:30:47.642Z</time>
      </trkpt>
      <trkpt lat="47.547" lon="7.86982">
        <ele>343.386917</ele>
        <time>2022-09-14T12:30:58.886Z</time>
      </trkpt>
      <trkpt lat="47.54702" lon="7.86916">
        <ele>341.313397</ele>
        <time>2022-09-14T12:31:06.769Z</time>
      </trkpt>
      <trkpt lat="47.54695" lon="7.86882">
        <ele>340.189742</ele>
        <time>2022-09-14T12:31:11.114Z</time>
      </trkpt>
      <trkpt lat="47.54698" lon="7.8688">
        <ele>340.014057</ele>
        <time>2022-09-14T12:31:11.806Z</time>
      </trkpt>
      <trkpt lat="47.54692" lon="7.86852">
        <ele>339.097597</ele>
        <time>2022-09-14T12:31:15.402Z</time>
      </trkpt>
      <trkpt lat="47.54678" lon="7.86766">
        <ele>336.510835</ele>
        <time>2022-09-14T12:31:26.927Z</time>
      </trkpt>
      <trkpt lat="47.5467" lon="7.86714">
        <ele>336.654913</ele>
        <time>2022-09-14T12:31:34.471Z</time>
      </trkpt>
      <trkpt lat="47.54663" lon="7.86679">
        <ele>336.755332</ele>
        <time>2022-09-14T12:31:40.414Z</time>
      </trkpt>
      <trkpt lat="47.54659" lon="7.86662">
        <ele>336.804852</ele>
        <time>2022-09-14T12:31:43.878Z</time>
      </trkpt>
      <trkpt lat="47.54633" lon="7.86596">
        <ele>337.013148</ele>
        <time>2022-09-14T12:32:01.405Z</time>
      </trkpt>
      <trkpt lat="47.54682" lon="7.86549">
        <ele>337.363436</ele>
        <time>2022-09-14T12:32:25.029Z</time>
      </trkpt>
      <trkpt lat="47.54689" lon="7.86523">
        <ele>337.757269</ele>
        <time>2022-09-14T12:32:32.697Z</time>
      </trkpt>
      <trkpt lat="47.54689" lon="7.8645">
        <ele>338.763966</ele>
        <time>2022-09-14T12:32:52.971Z</time>
      </trkpt>
      <trkpt lat="47.54682" lon="7.86397">
        <ele>339.50537</ele>
        <time>2022-09-14T12:33:07.068Z</time>
      </trkpt>
      <trkpt lat="47.54659" lon="7.86301">
        <ele>340.922874</ele>
        <time>2022-09-14T12:33:32.189Z</time>
      </trkpt>
      <trkpt lat="47.54649" lon="7.86031">
        <ele>341.387583</ele>
        <time>2022-09-14T12:34:24.032Z</time>
      </trkpt>
      <trkpt lat="47.54654" lon="7.8575">
        <ele>340.869441</ele>
        <time>2022-09-14T12:35:13.816Z</time>
      </trkpt>
      <trkpt lat="47.54662" lon="7.85576">
        <ele>340.642307</ele>
        <time>2022-09-14T12:35:45.706Z</time>
      </trkpt>
      <trkpt lat="47.54695" lon="7.85172">
        <ele>339.440516</ele>
        <time>2022-09-14T12:36:58.663Z</time>
      </trkpt>
      <trkpt lat="47.54714" lon="7.85036">
        <ele>338.324859</ele>
        <time>2022-09-14T12:37:20.811Z</time>
      </trkpt>
      <trkpt lat="47.54712" lon="7.8488">
        <ele>336.582846</ele>
        <time>2022-09-14T12:37:44.202Z</time>
      </trkpt>
      <trkpt lat="47.5473" lon="7.84472">
        <ele>331.532601</ele>
        <time>2022-09-14T12:38:45.362Z</time>
      </trkpt>
      <trkpt lat="47.54731" lon="7.84374">
        <ele>330.500096</ele>
        <time>2022-09-14T12:39:01.724Z</time>
      </trkpt>
      <trkpt lat="47.54736" lon="7.84284">
        <ele>329.61121</ele>
        <time>2022-09-14T12:39:15.970Z</time>
      </trkpt>
      <trkpt lat="47.54745" lon="7.84226">
        <ele>329.024112</ele>
        <time>2022-09-14T12:39:25.227Z</time>
      </trkpt>
      <trkpt lat="47.54755" lon="7.84227">
        <ele>328.875904</ele>
        <time>2022-09-14T12:39:27.517Z</time>
      </trkpt>
      <trkpt lat="47.54767" lon="7.84227">
        <ele>328.692615</ele>
        <time>2022-09-14T12:39:30.351Z</time>
      </trkpt>
      <trkpt lat="47.54811" lon="7.84229">
        <ele>327.852535</ele>
        <time>2022-09-14T12:39:39.754Z</time>
      </trkpt>
      <trkpt lat="47.54958" lon="7.8427">
        <ele>324.787088</ele>
        <time>2022-09-14T12:40:12.170Z</time>
      </trkpt>
      <trkpt lat="47.55073" lon="7.84283">
        <ele>323.994118</ele>
        <time>2022-09-14T12:40:40.778Z</time>
      </trkpt>
      <trkpt lat="47.55145" lon="7.84282">
        <ele>323.53532</ele>
        <time>2022-09-14T12:41:01.295Z</time>
      </trkpt>
      <trkpt lat="47.55192" lon="7.8427">
        <ele>323.349028</ele>
        <time>2022-09-14T12:41:14.807Z</time>
      </trkpt>
      <trkpt lat="47.55238" lon="7.84259">
        <ele>323.166613</ele>
        <time>2022-09-14T12:41:27.744Z</time>
      </trkpt>
      <trkpt lat="47.55283" lon="7.8425">
        <ele>322.986749</ele>
        <time>2022-09-14T12:41:39.396Z</time>
      </trkpt>
      <trkpt lat="47.55313" lon="7.84243">
        <ele>322.840383</ele>
        <time>2022-09-14T12:41:46.614Z</time>
      </trkpt>
      <trkpt lat="47.55313" lon="7.84214">
        <ele>322.512203</ele>
        <time>2022-09-14T12:41:50.868Z</time>
      </trkpt>
      <trkpt lat="47.55322" lon="7.84185">
        <ele>322.147508</ele>
        <time>2022-09-14T12:41:55.594Z</time>
      </trkpt>
      <trkpt lat="47.55323" lon="7.84153">
        <ele>321.783422</ele>
        <time>2022-09-14T12:42:00.226Z</time>
      </trkpt>
      <trkpt lat="47.55294" lon="7.83953">
        <ele>319.471721</ele>
        <time>2022-09-14T12:42:29.797Z</time>
      </trkpt>
      <trkpt lat="47.55274" lon="7.83858">
        <ele>318.382124</ele>
        <time>2022-09-14T12:42:44.255Z</time>
      </trkpt>
      <trkpt lat="47.5527" lon="7.83807">
        <ele>317.820254</ele>
        <time>2022-09-14T12:42:51.897Z</time>
      </trkpt>
      <trkpt lat="47.55271" lon="7.83501">
        <ele>314.371849</ele>
        <time>2022-09-14T12:43:37.672Z</time>
      </trkpt>
      <trkpt lat="47.5527" lon="7.83379">
        <ele>312.235559</ele>
        <time>2022-09-14T12:43:54.242Z</time>
      </trkpt>
      <trkpt lat="47.55248" lon="7.83339">
        <ele>311.174033</ele>
        <time>2022-09-14T12:44:01.026Z</time>
      </trkpt>
      <trkpt lat="47.55247" lon="7.8332">
        <ele>310.77045</ele>
        <time>2022-09-14T12:44:03.617Z</time>
      </trkpt>
      <trkpt lat="47.55256" lon="7.83298">
        <ele>310.2388</ele>
        <time>2022-09-14T12:44:06.907Z</time>
      </trkpt>
      <trkpt lat="47.55268" lon="7.83272">
        <ele>309.582445</ele>
        <time>2022-09-14T12:44:11.090Z</time>
      </trkpt>
      <trkpt lat="47.55269" lon="7.8326">
        <ele>309.327446</ele>
        <time>2022-09-14T12:44:12.626Z</time>
      </trkpt>
      <trkpt lat="47.55265" lon="7.83069">
        <ele>305.716477</ele>
        <time>2022-09-14T12:44:37.909Z</time>
      </trkpt>
      <trkpt lat="47.55255" lon="7.82927">
        <ele>303.331669</ele>
        <time>2022-09-14T12:44:57.840Z</time>
      </trkpt>
      <trkpt lat="47.55242" lon="7.82882">
        <ele>302.9409</ele>
        <time>2022-09-14T12:45:05.124Z</time>
      </trkpt>
      <trkpt lat="47.55242" lon="7.82848">
        <ele>302.668236</ele>
        <time>2022-09-14T12:45:10.292Z</time>
      </trkpt>
      <trkpt lat="47.55252" lon="7.82809">
        <ele>302.339437</ele>
        <time>2022-09-14T12:45:16.759Z</time>
      </trkpt>
      <trkpt lat="47.55249" lon="7.82723">
        <ele>301.645763</ele>
        <time>2022-09-14T12:45:30.628Z</time>
      </trkpt>
      <trkpt lat="47.55257" lon="7.82451">
        <ele>300.238685</ele>
        <time>2022-09-14T12:46:14.861Z</time>
      </trkpt>
      <trkpt lat="47.55292" lon="7.82029">
        <ele>298.007927</ele>
        <time>2022-09-14T12:47:22.259Z</time>
      </trkpt>
      <trkpt lat="47.55295" lon="7.81936">
        <ele>297.609522</ele>
        <time>2022-09-14T12:47:37.499Z</time>
      </trkpt>
      <trkpt lat="47.55285" lon="7.81643">
        <ele>297.399326</ele>
        <time>2022-09-14T12:48:29.291Z</time>
      </trkpt>
      <trkpt lat="47.55271" lon="7.81296">
        <ele>298.640085</ele>
        <time>2022-09-14T12:49:39.395Z</time>
      </trkpt>
      <trkpt lat="47.55257" lon="7.81039">
        <ele>299.627852</ele>
        <time>2022-09-14T12:50:29.758Z</time>
      </trkpt>
      <trkpt lat="47.5524" lon="7.80888">
        <ele>300.362199</ele>
        <time>2022-09-14T12:51:01.360Z</time>
      </trkpt>
      <trkpt lat="47.55207" lon="7.80645">
        <ele>300.9834</ele>
        <time>2022-09-14T12:51:51.717Z</time>
      </trkpt>
      <trkpt lat="47.55202" lon="7.80631">
        <ele>301.012244</ele>
        <time>2022-09-14T12:51:54.400Z</time>
      </trkpt>
      <trkpt lat="47.55165" lon="7.80625">
        <ele>301.110843</ele>
        <time>2022-09-14T12:52:03.440Z</time>
      </trkpt>
      <trkpt lat="47.55172" lon="7.805">
        <ele>300.371586</ele>
        <time>2022-09-14T12:52:24.015Z</time>
      </trkpt>
      <trkpt lat="47.55173" lon="7.80467">
        <ele>300.16567</ele>
        <time>2022-09-14T12:52:29.536Z</time>
      </trkpt>
      <trkpt lat="47.55174" lon="7.80447">
        <ele>300.044594</ele>
        <time>2022-09-14T12:52:32.538Z</time>
      </trkpt>
      <trkpt lat="47.55169" lon="7.80351">
        <ele>299.444963</ele>
        <time>2022-09-14T12:52:47.954Z</time>
      </trkpt>
      <trkpt lat="47.55175" lon="7.80337">
        <ele>299.343768</ele>
        <time>2022-09-14T12:52:50.584Z</time>
      </trkpt>
      <trkpt lat="47.55174" lon="7.80328">
        <ele>299.287295</ele>
        <time>2022-09-14T12:52:52.137Z</time>
      </trkpt>
      <trkpt lat="47.55173" lon="7.80313">
        <ele>299.193947</ele>
        <time>2022-09-14T12:52:54.684Z</time>
      </trkpt>
      <trkpt lat="47.55169" lon="7.80239">
        <ele>298.746287</ele>
        <time>2022-09-14T12:53:07.087Z</time>
      </trkpt>
      <trkpt lat="47.55167" lon="7.80185">
        <ele>298.415844</ele>
        <time>2022-09-14T12:53:16.260Z</time>
      </trkpt>
      <trkpt lat="47.55167" lon="7.80144">
        <ele>298.162705</ele>
        <time>2022-09-14T12:53:23.063Z</time>
      </trkpt>
      <trkpt lat="47.55171" lon="7.80025">
        <ele>296.510188</ele>
        <time>2022-09-14T12:53:40.595Z</time>
      </trkpt>
      <trkpt lat="47.55179" lon="7.79943">
        <ele>294.8513</ele>
        <time>2022-09-14T12:53:51.576Z</time>
      </trkpt>
      <trkpt lat="47.55208" lon="7.79808">
        <ele>291.740267</ele>
        <time>2022-09-14T12:54:09.866Z</time>
      </trkpt>
      <trkpt lat="47.55217" lon="7.79803">
        <ele>291.30447</ele>
        <time>2022-09-14T12:54:11.577Z</time>
      </trkpt>
      <trkpt lat="47.55231" lon="7.79764">
        <ele>289.954437</ele>
        <time>2022-09-14T12:54:16.975Z</time>
      </trkpt>
      <trkpt lat="47.55239" lon="7.79745">
        <ele>289.25149</ele>
        <time>2022-09-14T12:54:19.681Z</time>
      </trkpt>
      <trkpt lat="47.55292" lon="7.79623">
        <ele>284.76789</ele>
        <time>2022-09-14T12:54:37.601Z</time>
      </trkpt>
      <trkpt lat="47.55296" lon="7.79622">
        <ele>284.581509</ele>
        <time>2022-09-14T12:54:38.275Z</time>
      </trkpt>
      <trkpt lat="47.55306" lon="7.79601">
        <ele>283.841207</ele>
        <time>2022-09-14T12:54:41.797Z</time>
      </trkpt>
      <trkpt lat="47.55329" lon="7.79577">
        <ele>282.780186</ele>
        <time>2022-09-14T12:54:47.141Z</time>
      </trkpt>
      <trkpt lat="47.55326" lon="7.7957">
        <ele>282.564904</ele>
        <time>2022-09-14T12:54:48.211Z</time>
      </trkpt>
      <trkpt lat="47.55358" lon="7.79546">
        <ele>281.161645</ele>
        <time>2022-09-14T12:54:55.346Z</time>
      </trkpt>
      <trkpt lat="47.55363" lon="7.79541">
        <ele>280.936371</ele>
        <time>2022-09-14T12:54:56.511Z</time>
      </trkpt>
      <trkpt lat="47.5537" lon="7.79531">
        <ele>280.54849</ele>
        <time>2022-09-14T12:54:58.542Z</time>
      </trkpt>
      <trkpt lat="47.55373" lon="7.79528">
        <ele>280.425962</ele>
        <time>2022-09-14T12:54:59.109Z</time>
      </trkpt>
      <trkpt lat="47.55377" lon="7.7952">
        <ele>280.137951</ele>
        <time>2022-09-14T12:55:00.505Z</time>
      </trkpt>
      <trkpt lat="47.55385" lon="7.79504">
        <ele>279.623817</ele>
        <time>2022-09-14T12:55:03.133Z</time>
      </trkpt>
      <trkpt lat="47.55388" lon="7.79495">
        <ele>279.350534</ele>
        <time>2022-09-14T12:55:04.533Z</time>
      </trkpt>
      <trkpt lat="47.55393" lon="7.79481">
        <ele>278.950062</ele>
        <time>2022-09-14T12:55:06.478Z</time>
      </trkpt>
      <trkpt lat="47.554" lon="7.79482">
        <ele>278.660665</ele>
        <time>2022-09-14T12:55:07.975Z</time>
      </trkpt>
      <trkpt lat="47.55425" lon="7.79482">
        <ele>277.689767</ele>
        <time>2022-09-14T12:55:13.075Z</time>
      </trkpt>
      <trkpt lat="47.5545" lon="7.79472">
        <ele>276.96894</ele>
        <time>2022-09-14T12:55:18.395Z</time>
      </trkpt>
      <trkpt lat="47.55486" lon="7.7946">
        <ele>276.204028</ele>
        <time>2022-09-14T12:55:26.575Z</time>
      </trkpt>
      <trkpt lat="47.55501" lon="7.79455">
        <ele>275.899794</ele>
        <time>2022-09-14T12:55:29.961Z</time>
      </trkpt>
      <trkpt lat="47.55529" lon="7.7945">
        <ele>275.332787</ele>
        <time>2022-09-14T12:55:36.313Z</time>
      </trkpt>
      <trkpt lat="47.55529" lon="7.79432">
        <ele>275.089309</ele>
        <time>2022-09-14T12:55:39.144Z</time>
      </trkpt>
      <trkpt lat="47.55528" lon="7.79403">
        <ele>274.700648</ele>
        <time>2022-09-14T12:55:43.525Z</time>
      </trkpt>
      <trkpt lat="47.55528" lon="7.79396">
        <ele>274.592568</ele>
        <time>2022-09-14T12:55:44.705Z</time>
      </trkpt>
      <trkpt lat="47.55527" lon="7.79342">
        <ele>273.86473</ele>
        <time>2022-09-14T12:55:52.974Z</time>
      </trkpt>
      <trkpt lat="47.55524" lon="7.79273">
        <ele>272.809736</ele>
        <time>2022-09-14T12:56:03.439Z</time>
      </trkpt>
      <trkpt lat="47.55513" lon="7.79231">
        <ele>272.08417</ele>
        <time>2022-09-14T12:56:10.240Z</time>
      </trkpt>
      <trkpt lat="47.55509" lon="7.79216">
        <ele>271.835135</ele>
        <time>2022-09-14T12:56:12.582Z</time>
      </trkpt>
      <trkpt lat="47.55491" lon="7.79146">
        <ele>270.644943</ele>
        <time>2022-09-14T12:56:23.598Z</time>
      </trkpt>
      <trkpt lat="47.55476" lon="7.7909">
        <ele>269.681139</ele>
        <time>2022-09-14T12:56:32.164Z</time>
      </trkpt>
      <trkpt lat="47.55487" lon="7.79068">
        <ele>269.295737</ele>
        <time>2022-09-14T12:56:35.939Z</time>
      </trkpt>
      <trkpt lat="47.55503" lon="7.78989">
        <ele>268.491108</ele>
        <time>2022-09-14T12:56:47.166Z</time>
      </trkpt>
      <trkpt lat="47.55505" lon="7.78977">
        <ele>268.366866</ele>
        <time>2022-09-14T12:56:48.905Z</time>
      </trkpt>
      <trkpt lat="47.55509" lon="7.78969">
        <ele>268.26999</ele>
        <time>2022-09-14T12:56:50.287Z</time>
      </trkpt>
      <trkpt lat="47.55594" lon="7.78883">
        <ele>266.77701</ele>
        <time>2022-09-14T12:57:15.381Z</time>
      </trkpt>
      <trkpt lat="47.55611" lon="7.78854">
        <ele>267.587247</ele>
        <time>2022-09-14T12:57:24.857Z</time>
      </trkpt>
      <trkpt lat="47.55614" lon="7.78849">
        <ele>267.723478</ele>
        <time>2022-09-14T12:57:26.587Z</time>
      </trkpt>
      <trkpt lat="47.55625" lon="7.78827">
        <ele>268.331667</ele>
        <time>2022-09-14T12:57:34.151Z</time>
      </trkpt>
      <trkpt lat="47.55636" lon="7.78806">
        <ele>268.919584</ele>
        <time>2022-09-14T12:57:41.787Z</time>
      </trkpt>
      <trkpt lat="47.55666" lon="7.78747">
        <ele>270.556622</ele>
        <time>2022-09-14T12:58:04.332Z</time>
      </trkpt>
      <trkpt lat="47.55678" lon="7.78721">
        <ele>271.264995</ele>
        <time>2022-09-14T12:58:14.558Z</time>
      </trkpt>
      <trkpt lat="47.55692" lon="7.78694">
        <ele>271.996144</ele>
        <time>2022-09-14T12:58:25.475Z</time>
      </trkpt>
      <trkpt lat="47.55702" lon="7.7868">
        <ele>272.454549</ele>
        <time>2022-09-14T12:58:32.481Z</time>
      </trkpt>
      <trkpt lat="47.55712" lon="7.78664">
        <ele>272.935939</ele>
        <time>2022-09-14T12:58:40.110Z</time>
      </trkpt>
      <trkpt lat="47.55718" lon="7.78664">
        <ele>273.135588</ele>
        <time>2022-09-14T12:58:43.154Z</time>
      </trkpt>
      <trkpt lat="47.55749" lon="7.78659">
        <ele>274.140207</ele>
        <time>2022-09-14T12:58:59.040Z</time>
      </trkpt>
      <trkpt lat="47.55756" lon="7.78658">
        <ele>274.373287</ele>
        <time>2022-09-14T12:59:02.450Z</time>
      </trkpt>
      <trkpt lat="47.55782" lon="7.78649">
        <ele>275.238849</ele>
        <time>2022-09-14T12:59:14.805Z</time>
      </trkpt>
      <trkpt lat="47.5579" lon="7.78643">
        <ele>275.516996</ele>
        <time>2022-09-14T12:59:18.447Z</time>
      </trkpt>
      <trkpt lat="47.55801" lon="7.78635">
        <ele>275.896197</ele>
        <time>2022-09-14T12:59:23.337Z</time>
      </trkpt>
      <trkpt lat="47.55817" lon="7.78617">
        <ele>276.547043</ele>
        <time>2022-09-14T12:59:31.434Z</time>
      </trkpt>
      <trkpt lat="47.55858" lon="7.7856">
        <ele>278.35677</ele>
        <time>2022-09-14T12:59:51.988Z</time>
      </trkpt>
      <trkpt lat="47.55866" lon="7.78543">
        <ele>278.495721</ele>
        <time>2022-09-14T12:59:56.493Z</time>
      </trkpt>
      <trkpt lat="47.55875" lon="7.78522">
        <ele>278.564857</ele>
        <time>2022-09-14T13:00:02.072Z</time>
      </trkpt>
      <trkpt lat="47.55878" lon="7.78513">
        <ele>278.592412</ele>
        <time>2022-09-14T13:00:04.072Z</time>
      </trkpt>
      <trkpt lat="47.55892" lon="7.78482">
        <ele>278.693672</ele>
        <time>2022-09-14T13:00:11.650Z</time>
      </trkpt>
      <trkpt lat="47.55899" lon="7.78467">
        <ele>278.740804</ele>
        <time>2022-09-14T13:00:14.896Z</time>
      </trkpt>
      <trkpt lat="47.5589" lon="7.78447">
        <ele>278.8074</ele>
        <time>2022-09-14T13:00:19.447Z</time>
      </trkpt>
      <trkpt lat="47.55888" lon="7.78435">
        <ele>278.839395</ele>
        <time>2022-09-14T13:00:21.673Z</time>
      </trkpt>
      <trkpt lat="47.55884" lon="7.78408">
        <ele>278.914867</ele>
        <time>2022-09-14T13:00:26.494Z</time>
      </trkpt>
      <trkpt lat="47.55879" lon="7.78378">
        <ele>278.998388</ele>
        <time>2022-09-14T13:00:32.123Z</time>
      </trkpt>
      <trkpt lat="47.55861" lon="7.78269">
        <ele>279.020082</ele>
        <time>2022-09-14T13:00:51.548Z</time>
      </trkpt>
      <trkpt lat="47.55854" lon="7.78209">
        <ele>278.814716</ele>
        <time>2022-09-14T13:01:02.068Z</time>
      </trkpt>
      <trkpt lat="47.55853" lon="7.782">
        <ele>278.785234</ele>
        <time>2022-09-14T13:01:03.550Z</time>
      </trkpt>
      <trkpt lat="47.55849" lon="7.78158">
        <ele>278.642089</ele>
        <time>2022-09-14T13:01:10.560Z</time>
      </trkpt>
      <trkpt lat="47.55848" lon="7.78146">
        <ele>278.602701</ele>
        <time>2022-09-14T13:01:12.418Z</time>
      </trkpt>
      <trkpt lat="47.55842" lon="7.78096">
        <ele>278.431931</ele>
        <time>2022-09-14T13:01:20.512Z</time>
      </trkpt>
      <trkpt lat="47.55841" lon="7.78088">
        <ele>278.406744</ele>
        <time>2022-09-14T13:01:21.742Z</time>
      </trkpt>
      <trkpt lat="47.55837" lon="7.78053">
        <ele>278.287422</ele>
        <time>2022-09-14T13:01:27.486Z</time>
      </trkpt>
      <trkpt lat="47.55809" lon="7.7779">
        <ele>277.187963</ele>
        <time>2022-09-14T13:02:13.567Z</time>
      </trkpt>
      <trkpt lat="47.5578" lon="7.77526">
        <ele>275.442463</ele>
        <time>2022-09-14T13:02:57.587Z</time>
      </trkpt>
      <trkpt lat="47.55772" lon="7.77468">
        <ele>275.074377</ele>
        <time>2022-09-14T13:03:06.943Z</time>
      </trkpt>
      <trkpt lat="47.5575" lon="7.77352">
        <ele>274.3167</ele>
        <time>2022-09-14T13:03:26.163Z</time>
      </trkpt>
      <trkpt lat="47.557" lon="7.77157">
        <ele>273.831714</ele>
        <time>2022-09-14T13:04:02.425Z</time>
      </trkpt>
      <trkpt lat="47.55697" lon="7.77149">
        <ele>273.836314</ele>
        <time>2022-09-14T13:04:04.392Z</time>
      </trkpt>
      <trkpt lat="47.55664" lon="7.77025">
        <ele>273.90121</ele>
        <time>2022-09-14T13:04:31.149Z</time>
      </trkpt>
      <trkpt lat="47.55659" lon="7.77002">
        <ele>274.037637</ele>
        <time>2022-09-14T13:04:36.117Z</time>
      </trkpt>
      <trkpt lat="47.55633" lon="7.76902">
        <ele>274.724024</ele>
        <time>2022-09-14T13:04:59.975Z</time>
      </trkpt>
      <trkpt lat="47.55618" lon="7.76845">
        <ele>275.111176</ele>
        <time>2022-09-14T13:05:13.819Z</time>
      </trkpt>
      <trkpt lat="47.55578" lon="7.76691">
        <ele>276.047372</ele>
        <time>2022-09-14T13:05:49.994Z</time>
      </trkpt>
      <trkpt lat="47.55571" lon="7.76656">
        <ele>276.230906</ele>
        <time>2022-09-14T13:05:57.720Z</time>
      </trkpt>
      <trkpt lat="47.55568" lon="7.76646">
        <ele>276.286942</ele>
        <time>2022-09-14T13:06:00.010Z</time>
      </trkpt>
      <trkpt lat="47.55563" lon="7.76621">
        <ele>276.418328</ele>
        <time>2022-09-14T13:06:05.295Z</time>
      </trkpt>
      <trkpt lat="47.5555" lon="7.76546">
        <ele>276.814933</ele>
        <time>2022-09-14T13:06:20.583Z</time>
      </trkpt>
      <trkpt lat="47.55543" lon="7.765">
        <ele>276.977367</ele>
        <time>2022-09-14T13:06:30.081Z</time>
      </trkpt>
      <trkpt lat="47.55526" lon="7.76354">
        <ele>277.153515</ele>
        <time>2022-09-14T13:06:58.174Z</time>
      </trkpt>
      <trkpt lat="47.55522" lon="7.76305">
        <ele>277.211983</ele>
        <time>2022-09-14T13:07:07.056Z</time>
      </trkpt>
      <trkpt lat="47.55518" lon="7.76251">
        <ele>277.257063</ele>
        <time>2022-09-14T13:07:16.659Z</time>
      </trkpt>
      <trkpt lat="47.55515" lon="7.76214">
        <ele>277.162805</ele>
        <time>2022-09-14T13:07:23.236Z</time>
      </trkpt>
      <trkpt lat="47.55514" lon="7.76195">
        <ele>277.113641</ele>
        <time>2022-09-14T13:07:26.646Z</time>
      </trkpt>
      <trkpt lat="47.55503" lon="7.76019">
        <ele>276.664387</ele>
        <time>2022-09-14T13:07:56.449Z</time>
      </trkpt>
      <trkpt lat="47.55506" lon="7.7578">
        <ele>275.471465</ele>
        <time>2022-09-14T13:08:34.739Z</time>
      </trkpt>
      <trkpt lat="47.55507" lon="7.75702">
        <ele>275.054696</ele>
        <time>2022-09-14T13:08:47.068Z</time>
      </trkpt>
      <trkpt lat="47.55507" lon="7.75663">
        <ele>274.840028</ele>
        <time>2022-09-14T13:08:53.326Z</time>
      </trkpt>
      <trkpt lat="47.55491" lon="7.75568">
        <ele>274.314575</ele>
        <time>2022-09-14T13:09:08.720Z</time>
      </trkpt>
      <trkpt lat="47.55445" lon="7.75459">
        <ele>273.682813</ele>
        <time>2022-09-14T13:09:29.663Z</time>
      </trkpt>
      <trkpt lat="47.55418" lon="7.7538">
        <ele>273.473517</ele>
        <time>2022-09-14T13:09:44.334Z</time>
      </trkpt>
      <trkpt lat="47.55408" lon="7.752">
        <ele>273.131999</ele>
        <time>2022-09-14T13:10:15.629Z</time>
      </trkpt>
      <trkpt lat="47.5543" lon="7.75041">
        <ele>273.313237</ele>
        <time>2022-09-14T13:10:45.521Z</time>
      </trkpt>
      <trkpt lat="47.55436" lon="7.74966">
        <ele>273.397165</ele>
        <time>2022-09-14T13:10:59.701Z</time>
      </trkpt>
      <trkpt lat="47.55479" lon="7.74726">
        <ele>274.348092</ele>
        <time>2022-09-14T13:11:49.112Z</time>
      </trkpt>
      <trkpt lat="47.55487" lon="7.74567">
        <ele>274.891591</ele>
        <time>2022-09-14T13:12:21.743Z</time>
      </trkpt>
      <trkpt lat="47.55509" lon="7.74494">
        <ele>275.158093</ele>
        <time>2022-09-14T13:12:37.213Z</time>
      </trkpt>
      <trkpt lat="47.55523" lon="7.74466">
        <ele>275.271503</ele>
        <time>2022-09-14T13:12:43.734Z</time>
      </trkpt>
      <trkpt lat="47.5555" lon="7.74427">
        <ele>275.294181</ele>
        <time>2022-09-14T13:12:53.939Z</time>
      </trkpt>
      <trkpt lat="47.55566" lon="7.74392">
        <ele>275.266236</ele>
        <time>2022-09-14T13:13:01.469Z</time>
      </trkpt>
      <trkpt lat="47.55611" lon="7.74153">
        <ele>275.302818</ele>
        <time>2022-09-14T13:13:44.484Z</time>
      </trkpt>
      <trkpt lat="47.5562" lon="7.74023">
        <ele>275.617435</ele>
        <time>2022-09-14T13:14:10.053Z</time>
      </trkpt>
      <trkpt lat="47.55649" lon="7.73941">
        <ele>275.927008</ele>
        <time>2022-09-14T13:14:28.804Z</time>
      </trkpt>
      <trkpt lat="47.55643" lon="7.73856">
        <ele>276.470713</ele>
        <time>2022-09-14T13:14:46.580Z</time>
      </trkpt>
      <trkpt lat="47.55642" lon="7.73836">
        <ele>276.594768</ele>
        <time>2022-09-14T13:14:50.745Z</time>
      </trkpt>
      <trkpt lat="47.55642" lon="7.73788">
        <ele>276.899073</ele>
        <time>2022-09-14T13:15:01.375Z</time>
      </trkpt>
      <trkpt lat="47.55645" lon="7.73756">
        <ele>277.102871</ele>
        <time>2022-09-14T13:15:08.517Z</time>
      </trkpt>
      <trkpt lat="47.55649" lon="7.73723">
        <ele>277.314198</ele>
        <time>2022-09-14T13:15:15.574Z</time>
      </trkpt>
      <trkpt lat="47.55658" lon="7.73676">
        <ele>277.600121</ele>
        <time>2022-09-14T13:15:25.698Z</time>
      </trkpt>
      <trkpt lat="47.55666" lon="7.73653">
        <ele>277.741106</ele>
        <time>2022-09-14T13:15:31.252Z</time>
      </trkpt>
      <trkpt lat="47.55687" lon="7.73555">
        <ele>278.283351</ele>
        <time>2022-09-14T13:15:51.997Z</time>
      </trkpt>
      <trkpt lat="47.55694" lon="7.735">
        <ele>278.581574</ele>
        <time>2022-09-14T13:16:03.574Z</time>
      </trkpt>
      <trkpt lat="47.55696" lon="7.73464">
        <ele>278.774692</ele>
        <time>2022-09-14T13:16:11.133Z</time>
      </trkpt>
      <trkpt lat="47.55691" lon="7.73398">
        <ele>279.058821</ele>
        <time>2022-09-14T13:16:24.847Z</time>
      </trkpt>
      <trkpt lat="47.55678" lon="7.73315">
        <ele>279.378804</ele>
        <time>2022-09-14T13:16:41.215Z</time>
      </trkpt>
      <trkpt lat="47.55677" lon="7.73307">
        <ele>279.408373</ele>
        <time>2022-09-14T13:16:42.739Z</time>
      </trkpt>
      <trkpt lat="47.5567" lon="7.7326">
        <ele>279.59165</ele>
        <time>2022-09-14T13:16:52.445Z</time>
      </trkpt>
      <trkpt lat="47.5567" lon="7.73253">
        <ele>279.61879</ele>
        <time>2022-09-14T13:16:53.904Z</time>
      </trkpt>
      <trkpt lat="47.5566" lon="7.7312">
        <ele>279.905173</ele>
        <time>2022-09-14T13:17:20.147Z</time>
      </trkpt>
      <trkpt lat="47.55643" lon="7.73048">
        <ele>279.91934</ele>
        <time>2022-09-14T13:17:34.815Z</time>
      </trkpt>
      <trkpt lat="47.55636" lon="7.73017">
        <ele>279.925229</ele>
        <time>2022-09-14T13:17:40.404Z</time>
      </trkpt>
      <trkpt lat="47.55623" lon="7.72985">
        <ele>279.932197</ele>
        <time>2022-09-14T13:17:47.009Z</time>
      </trkpt>
      <trkpt lat="47.55598" lon="7.72964">
        <ele>279.939903</ele>
        <time>2022-09-14T13:17:54.095Z</time>
      </trkpt>
      <trkpt lat="47.55531" lon="7.72926">
        <ele>279.371002</ele>
        <time>2022-09-14T13:18:11.511Z</time>
      </trkpt>
      <trkpt lat="47.5545" lon="7.72879">
        <ele>278.543172</ele>
        <time>2022-09-14T13:18:31.127Z</time>
      </trkpt>
      <trkpt lat="47.55455" lon="7.72862">
        <ele>278.423575</ele>
        <time>2022-09-14T13:18:34.013Z</time>
      </trkpt>
      <trkpt lat="47.5543" lon="7.72854">
        <ele>278.184375</ele>
        <time>2022-09-14T13:18:39.840Z</time>
      </trkpt>
      <trkpt lat="47.55384" lon="7.72812">
        <ele>277.737691</ele>
        <time>2022-09-14T13:18:52.233Z</time>
      </trkpt>
      <trkpt lat="47.55325" lon="7.72755">
        <ele>277.156433</ele>
        <time>2022-09-14T13:19:08.951Z</time>
      </trkpt>
      <trkpt lat="47.55303" lon="7.72711">
        <ele>276.848957</ele>
        <time>2022-09-14T13:19:18.019Z</time>
      </trkpt>
      <trkpt lat="47.55233" lon="7.72524">
        <ele>276.069124</ele>
        <time>2022-09-14T13:19:53.444Z</time>
      </trkpt>
      <trkpt lat="47.55209" lon="7.72449">
        <ele>275.811512</ele>
        <time>2022-09-14T13:20:07.273Z</time>
      </trkpt>
      <trkpt lat="47.55182" lon="7.72327">
        <ele>275.726943</ele>
        <time>2022-09-14T13:20:29.595Z</time>
      </trkpt>
      <trkpt lat="47.55162" lon="7.72264">
        <ele>275.681079</ele>
        <time>2022-09-14T13:20:42.131Z</time>
      </trkpt>
      <trkpt lat="47.55106" lon="7.72116">
        <ele>275.791716</ele>
        <time>2022-09-14T13:21:13.530Z</time>
      </trkpt>
      <trkpt lat="47.55091" lon="7.72057">
        <ele>275.874704</ele>
        <time>2022-09-14T13:21:25.299Z</time>
      </trkpt>
      <trkpt lat="47.55095" lon="7.71959">
        <ele>276.013388</ele>
        <time>2022-09-14T13:21:43.965Z</time>
      </trkpt>
      <trkpt lat="47.5509" lon="7.71926">
        <ele>276.091088</ele>
        <time>2022-09-14T13:21:50.130Z</time>
      </trkpt>
      <trkpt lat="47.55026" lon="7.71713">
        <ele>276.626232</ele>
        <time>2022-09-14T13:22:34.601Z</time>
      </trkpt>
      <trkpt lat="47.55007" lon="7.71611">
        <ele>276.789471</ele>
        <time>2022-09-14T13:22:55.817Z</time>
      </trkpt>
      <trkpt lat="47.54991" lon="7.7151">
        <ele>276.947802</ele>
        <time>2022-09-14T13:23:15.057Z</time>
      </trkpt>
      <trkpt lat="47.54964" lon="7.71416">
        <ele>276.804496</ele>
        <time>2022-09-14T13:23:33.114Z</time>
      </trkpt>
      <trkpt lat="47.54949" lon="7.71361">
        <ele>276.550911</ele>
        <time>2022-09-14T13:23:42.982Z</time>
      </trkpt>
      <trkpt lat="47.54896" lon="7.71247">
        <ele>275.965127</ele>
        <time>2022-09-14T13:24:04.686Z</time>
      </trkpt>
      <trkpt lat="47.54872" lon="7.71168">
        <ele>275.660035</ele>
        <time>2022-09-14T13:24:18.360Z</time>
      </trkpt>
      <trkpt lat="47.54797" lon="7.70829">
        <ele>274.533775</ele>
        <time>2022-09-14T13:25:19.700Z</time>
      </trkpt>
      <trkpt lat="47.54777" lon="7.70649">
        <ele>273.75629</ele>
        <time>2022-09-14T13:25:49.382Z</time>
      </trkpt>
      <trkpt lat="47.54778" lon="7.70639">
        <ele>273.690632</ele>
        <time>2022-09-14T13:25:51.065Z</time>
      </trkpt>
      <trkpt lat="47.54778" lon="7.70628">
        <ele>273.627451</ele>
        <time>2022-09-14T13:25:52.688Z</time>
      </trkpt>
      <trkpt lat="47.54772" lon="7.70608">
        <ele>273.495812</ele>
        <time>2022-09-14T13:25:55.990Z</time>
      </trkpt>
      <trkpt lat="47.54765" lon="7.70617">
        <ele>273.411299</ele>
        <time>2022-09-14T13:25:58.350Z</time>
      </trkpt>
      <trkpt lat="47.54728" lon="7.70576">
        <ele>273.000807</ele>
        <time>2022-09-14T13:26:08.791Z</time>
      </trkpt>
      <trkpt lat="47.54718" lon="7.70534">
        <ele>272.729261</ele>
        <time>2022-09-14T13:26:15.634Z</time>
      </trkpt>
      <trkpt lat="47.54713" lon="7.70532">
        <ele>272.680261</ele>
        <time>2022-09-14T13:26:16.852Z</time>
      </trkpt>
      <trkpt lat="47.54707" lon="7.7053">
        <ele>272.623548</ele>
        <time>2022-09-14T13:26:18.273Z</time>
      </trkpt>
      <trkpt lat="47.54704" lon="7.70529">
        <ele>272.60035</ele>
        <time>2022-09-14T13:26:18.900Z</time>
      </trkpt>
      <trkpt lat="47.54698" lon="7.70527">
        <ele>272.599041</ele>
        <time>2022-09-14T13:26:20.354Z</time>
      </trkpt>
      <trkpt lat="47.54706" lon="7.70471">
        <ele>272.591142</ele>
        <time>2022-09-14T13:26:29.465Z</time>
      </trkpt>
      <trkpt lat="47.54739" lon="7.70339">
        <ele>272.571524</ele>
        <time>2022-09-14T13:26:55.839Z</time>
      </trkpt>
      <trkpt lat="47.54761" lon="7.70199">
        <ele>272.767382</ele>
        <time>2022-09-14T13:27:24.849Z</time>
      </trkpt>
      <trkpt lat="47.54773" lon="7.69952">
        <ele>273.456795</ele>
        <time>2022-09-14T13:28:10.815Z</time>
      </trkpt>
      <trkpt lat="47.54781" lon="7.69876">
        <ele>273.756511</ele>
        <time>2022-09-14T13:28:25.676Z</time>
      </trkpt>
      <trkpt lat="47.54785" lon="7.69815">
        <ele>273.996577</ele>
        <time>2022-09-14T13:28:38.182Z</time>
      </trkpt>
      <trkpt lat="47.54807" lon="7.69825">
        <ele>274.128622</ele>
        <time>2022-09-14T13:28:45.689Z</time>
      </trkpt>
      <trkpt lat="47.54822" lon="7.69742">
        <ele>274.510146</ele>
        <time>2022-09-14T13:29:04.305Z</time>
      </trkpt>
      <trkpt lat="47.54831" lon="7.69683">
        <ele>274.793598</ele>
        <time>2022-09-14T13:29:17.860Z</time>
      </trkpt>
      <trkpt lat="47.54842" lon="7.69562">
        <ele>275.362354</ele>
        <time>2022-09-14T13:29:42.383Z</time>
      </trkpt>
      <trkpt lat="47.54843" lon="7.69543">
        <ele>275.447511</ele>
        <time>2022-09-14T13:29:45.759Z</time>
      </trkpt>
      <trkpt lat="47.54845" lon="7.69515">
        <ele>275.458868</ele>
        <time>2022-09-14T13:29:50.645Z</time>
      </trkpt>
      <trkpt lat="47.54859" lon="7.69432">
        <ele>275.373067</ele>
        <time>2022-09-14T13:30:04.696Z</time>
      </trkpt>
      <trkpt lat="47.54864" lon="7.69404">
        <ele>275.34382</ele>
        <time>2022-09-14T13:30:09.319Z</time>
      </trkpt>
      <trkpt lat="47.54878" lon="7.69347">
        <ele>275.281272</ele>
        <time>2022-09-14T13:30:19.951Z</time>
      </trkpt>
      <trkpt lat="47.54898" lon="7.693">
        <ele>275.22611</ele>
        <time>2022-09-14T13:30:29.806Z</time>
      </trkpt>
      <trkpt lat="47.54925" lon="7.69247">
        <ele>275.378729</ele>
        <time>2022-09-14T13:30:42.719Z</time>
      </trkpt>
      <trkpt lat="47.54933" lon="7.69232">
        <ele>275.440451</ele>
        <time>2022-09-14T13:30:46.185Z</time>
      </trkpt>
      <trkpt lat="47.54969" lon="7.69146">
        <ele>275.765571</ele>
        <time>2022-09-14T13:31:06.538Z</time>
      </trkpt>
      <trkpt lat="47.5497" lon="7.69144">
        <ele>275.774663</ele>
        <time>2022-09-14T13:31:07.076Z</time>
      </trkpt>
      <trkpt lat="47.5498" lon="7.69119">
        <ele>275.866634</ele>
        <time>2022-09-14T13:31:12.887Z</time>
      </trkpt>
      <trkpt lat="47.55011" lon="7.69071">
        <ele>276.071146</ele>
        <time>2022-09-14T13:31:26.280Z</time>
      </trkpt>
      <trkpt lat="47.55048" lon="7.69032">
        <ele>276.091139</ele>
        <time>2022-09-14T13:31:39.409Z</time>
      </trkpt>
      <trkpt lat="47.55058" lon="7.69021">
        <ele>276.09688</ele>
        <time>2022-09-14T13:31:43.064Z</time>
      </trkpt>
      <trkpt lat="47.55075" lon="7.69003">
        <ele>276.106297</ele>
        <time>2022-09-14T13:31:49.043Z</time>
      </trkpt>
      <trkpt lat="47.5509" lon="7.68983">
        <ele>276.115258</ele>
        <time>2022-09-14T13:31:54.516Z</time>
      </trkpt>
      <trkpt lat="47.55107" lon="7.68947">
        <ele>276.12853</ele>
        <time>2022-09-14T13:32:02.342Z</time>
      </trkpt>
      <trkpt lat="47.55123" lon="7.68847">
        <ele>275.954832</ele>
        <time>2022-09-14T13:32:19.304Z</time>
      </trkpt>
      <trkpt lat="47.55136" lon="7.68749">
        <ele>275.319526</ele>
        <time>2022-09-14T13:32:34.961Z</time>
      </trkpt>
      <trkpt lat="47.55145" lon="7.68704">
        <ele>275.01957</ele>
        <time>2022-09-14T13:32:42.282Z</time>
      </trkpt>
      <trkpt lat="47.55151" lon="7.68665">
        <ele>274.760703</ele>
        <time>2022-09-14T13:32:48.502Z</time>
      </trkpt>
      <trkpt lat="47.55156" lon="7.68637">
        <ele>274.575666</ele>
        <time>2022-09-14T13:32:52.958Z</time>
      </trkpt>
      <trkpt lat="47.55161" lon="7.68604">
        <ele>274.33275</ele>
        <time>2022-09-14T13:32:58.292Z</time>
      </trkpt>
      <trkpt lat="47.55172" lon="7.68521">
        <ele>273.631904</ele>
        <time>2022-09-14T13:33:11.120Z</time>
      </trkpt>
      <trkpt lat="47.55173" lon="7.68454">
        <ele>273.075254</ele>
        <time>2022-09-14T13:33:21.088Z</time>
      </trkpt>
      <trkpt lat="47.55178" lon="7.68451">
        <ele>273.009769</ele>
        <time>2022-09-14T13:33:22.328Z</time>
      </trkpt>
      <trkpt lat="47.55141" lon="7.68278">
        <ele>271.498521</ele>
        <time>2022-09-14T13:33:50.371Z</time>
      </trkpt>
      <trkpt lat="47.55114" lon="7.68105">
        <ele>270.005008</ele>
        <time>2022-09-14T13:34:17.309Z</time>
      </trkpt>
      <trkpt lat="47.55115" lon="7.68073">
        <ele>269.585822</ele>
        <time>2022-09-14T13:34:22.118Z</time>
      </trkpt>
      <trkpt lat="47.55121" lon="7.68044">
        <ele>269.194715</ele>
        <time>2022-09-14T13:34:26.456Z</time>
      </trkpt>
      <trkpt lat="47.55128" lon="7.68031">
        <ele>268.967349</ele>
        <time>2022-09-14T13:34:29.006Z</time>
      </trkpt>
      <trkpt lat="47.55127" lon="7.68014">
        <ele>268.749139</ele>
        <time>2022-09-14T13:34:31.420Z</time>
      </trkpt>
      <trkpt lat="47.55127" lon="7.68">
        <ele>268.560367</ele>
        <time>2022-09-14T13:34:33.478Z</time>
      </trkpt>
      <trkpt lat="47.55116" lon="7.67992">
        <ele>268.333437</ele>
        <time>2022-09-14T13:34:35.973Z</time>
      </trkpt>
      <trkpt lat="47.55144" lon="7.67736">
        <ele>265.034544</ele>
        <time>2022-09-14T13:35:12.374Z</time>
      </trkpt>
      <trkpt lat="47.5515" lon="7.67657">
        <ele>264.061448</ele>
        <time>2022-09-14T13:35:23.899Z</time>
      </trkpt>
      <trkpt lat="47.55147" lon="7.67553">
        <ele>263.080331</ele>
        <time>2022-09-14T13:35:39.455Z</time>
      </trkpt>
      <trkpt lat="47.55114" lon="7.67296">
        <ele>262.026528</ele>
        <time>2022-09-14T13:36:23.043Z</time>
      </trkpt>
      <trkpt lat="47.55129" lon="7.66996">
        <ele>261.70238</ele>
        <time>2022-09-14T13:37:16.519Z</time>
      </trkpt>
      <trkpt lat="47.5513" lon="7.66965">
        <ele>261.677317</ele>
        <time>2022-09-14T13:37:22.281Z</time>
      </trkpt>
      <trkpt lat="47.55127" lon="7.66954">
        <ele>261.666983</ele>
        <time>2022-09-14T13:37:24.284Z</time>
      </trkpt>
      <trkpt lat="47.55127" lon="7.66862">
        <ele>261.591838</ele>
        <time>2022-09-14T13:37:40.489Z</time>
      </trkpt>
      <trkpt lat="47.55121" lon="7.66861">
        <ele>261.585247</ele>
        <time>2022-09-14T13:37:41.659Z</time>
      </trkpt>
      <trkpt lat="47.55121" lon="7.66822">
        <ele>261.553732</ele>
        <time>2022-09-14T13:37:48.650Z</time>
      </trkpt>
      <trkpt lat="47.55121" lon="7.66799">
        <ele>261.536086</ele>
        <time>2022-09-14T13:37:52.488Z</time>
      </trkpt>
      <trkpt lat="47.55125" lon="7.66697">
        <ele>261.480304</ele>
        <time>2022-09-14T13:38:11.081Z</time>
      </trkpt>
      <trkpt lat="47.55132" lon="7.66634">
        <ele>261.445474</ele>
        <time>2022-09-14T13:38:22.981Z</time>
      </trkpt>
      <trkpt lat="47.55137" lon="7.66607">
        <ele>261.430472</ele>
        <time>2022-09-14T13:38:28.067Z</time>
      </trkpt>
      <trkpt lat="47.55149" lon="7.66555">
        <ele>261.400035</ele>
        <time>2022-09-14T13:38:37.572Z</time>
      </trkpt>
      <trkpt lat="47.55151" lon="7.66547">
        <ele>261.395339</ele>
        <time>2022-09-14T13:38:39.002Z</time>
      </trkpt>
      <trkpt lat="47.55164" lon="7.66504">
        <ele>261.360132</ele>
        <time>2022-09-14T13:38:46.808Z</time>
      </trkpt>
      <trkpt lat="47.55186" lon="7.66444">
        <ele>261.308974</ele>
        <time>2022-09-14T13:38:58.302Z</time>
      </trkpt>
      <trkpt lat="47.55201" lon="7.66407">
        <ele>261.275798</ele>
        <time>2022-09-14T13:39:06.044Z</time>
      </trkpt>
      <trkpt lat="47.55228" lon="7.6633">
        <ele>261.209236</ele>
        <time>2022-09-14T13:39:22.162Z</time>
      </trkpt>
      <trkpt lat="47.55234" lon="7.66302">
        <ele>261.197201</ele>
        <time>2022-09-14T13:39:27.450Z</time>
      </trkpt>
      <trkpt lat="47.55248" lon="7.66249">
        <ele>261.281807</ele>
        <time>2022-09-14T13:39:37.639Z</time>
      </trkpt>
      <trkpt lat="47.55251" lon="7.66238">
        <ele>261.299729</ele>
        <time>2022-09-14T13:39:39.879Z</time>
      </trkpt>
      <trkpt lat="47.55263" lon="7.66195">
        <ele>261.371222</ele>
        <time>2022-09-14T13:39:48.559Z</time>
      </trkpt>
      <trkpt lat="47.55274" lon="7.66143">
        <ele>261.453814</ele>
        <time>2022-09-14T13:39:58.831Z</time>
      </trkpt>
      <trkpt lat="47.55276" lon="7.66126">
        <ele>261.479397</ele>
        <time>2022-09-14T13:40:02.216Z</time>
      </trkpt>
      <trkpt lat="47.55278" lon="7.6611">
        <ele>261.503371</ele>
        <time>2022-09-14T13:40:05.178Z</time>
      </trkpt>
      <trkpt lat="47.55285" lon="7.66059">
        <ele>261.582516</ele>
        <time>2022-09-14T13:40:15.322Z</time>
      </trkpt>
      <trkpt lat="47.55294" lon="7.65977">
        <ele>261.59357</ele>
        <time>2022-09-14T13:40:31.216Z</time>
      </trkpt>
      <trkpt lat="47.55302" lon="7.65908">
        <ele>261.594263</ele>
        <time>2022-09-14T13:40:43.962Z</time>
      </trkpt>
      <trkpt lat="47.55303" lon="7.65902">
        <ele>261.594325</ele>
        <time>2022-09-14T13:40:45.028Z</time>
      </trkpt>
      <trkpt lat="47.55305" lon="7.65884">
        <ele>261.594508</ele>
        <time>2022-09-14T13:40:48.243Z</time>
      </trkpt>
      <trkpt lat="47.55311" lon="7.65846">
        <ele>261.594891</ele>
        <time>2022-09-14T13:40:54.905Z</time>
      </trkpt>
      <trkpt lat="47.55318" lon="7.65791">
        <ele>261.595442</ele>
        <time>2022-09-14T13:41:04.567Z</time>
      </trkpt>
      <trkpt lat="47.55327" lon="7.65728">
        <ele>261.412742</ele>
        <time>2022-09-14T13:41:15.577Z</time>
      </trkpt>
      <trkpt lat="47.55342" lon="7.6563">
        <ele>261.125103</ele>
        <time>2022-09-14T13:41:32.388Z</time>
      </trkpt>
      <trkpt lat="47.55343" lon="7.65618">
        <ele>261.089998</ele>
        <time>2022-09-14T13:41:34.443Z</time>
      </trkpt>
      <trkpt lat="47.55355" lon="7.65515">
        <ele>260.794444</ele>
        <time>2022-09-14T13:41:51.734Z</time>
      </trkpt>
      <trkpt lat="47.55379" lon="7.65379">
        <ele>260.421141</ele>
        <time>2022-09-14T13:42:15.373Z</time>
      </trkpt>
      <trkpt lat="47.55394" lon="7.65308">
        <ele>260.223508</ele>
        <time>2022-09-14T13:42:28.183Z</time>
      </trkpt>
      <trkpt lat="47.55408" lon="7.65242">
        <ele>260.036828</ele>
        <time>2022-09-14T13:42:39.875Z</time>
      </trkpt>
      <trkpt lat="47.55422" lon="7.65164">
        <ele>259.809695</ele>
        <time>2022-09-14T13:42:53.789Z</time>
      </trkpt>
      <trkpt lat="47.55446" lon="7.65033">
        <ele>259.429415</ele>
        <time>2022-09-14T13:43:16.200Z</time>
      </trkpt>
      <trkpt lat="47.55464" lon="7.64986">
        <ele>259.39836</ele>
        <time>2022-09-14T13:43:25.361Z</time>
      </trkpt>
      <trkpt lat="47.55496" lon="7.64925">
        <ele>259.445311</ele>
        <time>2022-09-14T13:43:38.424Z</time>
      </trkpt>
      <trkpt lat="47.55517" lon="7.64883">
        <ele>259.47693</ele>
        <time>2022-09-14T13:43:47.614Z</time>
      </trkpt>
      <trkpt lat="47.55535" lon="7.64847">
        <ele>259.504</ele>
        <time>2022-09-14T13:43:55.887Z</time>
      </trkpt>
      <trkpt lat="47.55615" lon="7.64685">
        <ele>261.196381</ele>
        <time>2022-09-14T13:44:39.642Z</time>
      </trkpt>
      <trkpt lat="47.55636" lon="7.64643">
        <ele>261.797068</ele>
        <time>2022-09-14T13:44:52.855Z</time>
      </trkpt>
      <trkpt lat="47.55639" lon="7.64623">
        <ele>262.035251</ele>
        <time>2022-09-14T13:44:57.870Z</time>
      </trkpt>
      <trkpt lat="47.55648" lon="7.64619">
        <ele>262.189038</ele>
        <time>2022-09-14T13:45:01.813Z</time>
      </trkpt>
      <trkpt lat="47.55762" lon="7.64451">
        <ele>265.110333</ele>
        <time>2022-09-14T13:46:03.998Z</time>
      </trkpt>
      <trkpt lat="47.55834" lon="7.64336">
        <ele>265.14015</ele>
        <time>2022-09-14T13:46:33.377Z</time>
      </trkpt>
      <trkpt lat="47.55849" lon="7.64301">
        <ele>264.797386</ele>
        <time>2022-09-14T13:46:39.422Z</time>
      </trkpt>
      <trkpt lat="47.55859" lon="7.64292">
        <ele>264.653704</ele>
        <time>2022-09-14T13:46:42.593Z</time>
      </trkpt>
      <trkpt lat="47.55858" lon="7.64282">
        <ele>264.576454</ele>
        <time>2022-09-14T13:46:43.808Z</time>
      </trkpt>
      <trkpt lat="47.55915" lon="7.64221">
        <ele>263.724774</ele>
        <time>2022-09-14T13:46:58.295Z</time>
      </trkpt>
      <trkpt lat="47.55912" lon="7.64213">
        <ele>263.596457</ele>
        <time>2022-09-14T13:46:59.429Z</time>
      </trkpt>
      <trkpt lat="47.55905" lon="7.64201">
        <ele>263.362793</ele>
        <time>2022-09-14T13:47:01.556Z</time>
      </trkpt>
      <trkpt lat="47.55903" lon="7.64194">
        <ele>263.245305</ele>
        <time>2022-09-14T13:47:02.514Z</time>
      </trkpt>
      <trkpt lat="47.55917" lon="7.64177">
        <ele>262.835363</ele>
        <time>2022-09-14T13:47:06.368Z</time>
      </trkpt>
      <trkpt lat="47.55915" lon="7.64167">
        <ele>262.693592</ele>
        <time>2022-09-14T13:47:07.578Z</time>
      </trkpt>
      <trkpt lat="47.55909" lon="7.64167">
        <ele>262.550741</ele>
        <time>2022-09-14T13:47:08.902Z</time>
      </trkpt>
      <trkpt lat="47.55897" lon="7.6419">
        <ele>262.116423</ele>
        <time>2022-09-14T13:47:12.914Z</time>
      </trkpt>
      <trkpt lat="47.55889" lon="7.64183">
        <ele>261.899068</ele>
        <time>2022-09-14T13:47:14.756Z</time>
      </trkpt>
      <trkpt lat="47.55984" lon="7.64026">
        <ele>259.293905</ele>
        <time>2022-09-14T13:47:45.156Z</time>
      </trkpt>
      <trkpt lat="47.56025" lon="7.63959">
        <ele>258.723139</ele>
        <time>2022-09-14T13:47:59.769Z</time>
      </trkpt>
      <trkpt lat="47.5609" lon="7.63844">
        <ele>257.887586</ele>
        <time>2022-09-14T13:48:24.418Z</time>
      </trkpt>
      <trkpt lat="47.56118" lon="7.63786">
        <ele>257.646295</ele>
        <time>2022-09-14T13:48:37.025Z</time>
      </trkpt>
      <trkpt lat="47.56182" lon="7.63651">
        <ele>257.057315</ele>
        <time>2022-09-14T13:49:04.459Z</time>
      </trkpt>
      <trkpt lat="47.56201" lon="7.63601">
        <ele>256.695622</ele>
        <time>2022-09-14T13:49:13.229Z</time>
      </trkpt>
      <trkpt lat="47.56219" lon="7.63527">
        <ele>256.196338</ele>
        <time>2022-09-14T13:49:25.747Z</time>
      </trkpt>
      <trkpt lat="47.56221" lon="7.63516">
        <ele>256.121451</ele>
        <time>2022-09-14T13:49:27.571Z</time>
      </trkpt>
      <trkpt lat="47.56228" lon="7.63487">
        <ele>255.925062</ele>
        <time>2022-09-14T13:49:32.575Z</time>
      </trkpt>
      <trkpt lat="47.56229" lon="7.63481">
        <ele>255.889573</ele>
        <time>2022-09-14T13:49:33.522Z</time>
      </trkpt>
      <trkpt lat="47.5623" lon="7.63477">
        <ele>255.861599</ele>
        <time>2022-09-14T13:49:34.280Z</time>
      </trkpt>
      <trkpt lat="47.56236" lon="7.63447">
        <ele>255.661917</ele>
        <time>2022-09-14T13:49:39.156Z</time>
      </trkpt>
      <trkpt lat="47.56256" lon="7.63335">
        <ele>255.137916</ele>
        <time>2022-09-14T13:49:56.788Z</time>
      </trkpt>
      <trkpt lat="47.56263" lon="7.63291">
        <ele>254.975017</ele>
        <time>2022-09-14T13:50:03.456Z</time>
      </trkpt>
      <trkpt lat="47.56268" lon="7.63244">
        <ele>254.800884</ele>
        <time>2022-09-14T13:50:11.380Z</time>
      </trkpt>
      <trkpt lat="47.56273" lon="7.63182">
        <ele>254.573963</ele>
        <time>2022-09-14T13:50:23.725Z</time>
      </trkpt>
      <trkpt lat="47.56276" lon="7.63114">
        <ele>254.417601</ele>
        <time>2022-09-14T13:50:37.016Z</time>
      </trkpt>
      <trkpt lat="47.56279" lon="7.63055">
        <ele>254.360415</ele>
        <time>2022-09-14T13:50:47.400Z</time>
      </trkpt>
      <trkpt lat="47.56281" lon="7.63014">
        <ele>254.321041</ele>
        <time>2022-09-14T13:50:54.309Z</time>
      </trkpt>
      <trkpt lat="47.56284" lon="7.62938">
        <ele>254.246855</ele>
        <time>2022-09-14T13:51:08.046Z</time>
      </trkpt>
      <trkpt lat="47.56284" lon="7.62923">
        <ele>254.232197</ele>
        <time>2022-09-14T13:51:10.800Z</time>
      </trkpt>
      <trkpt lat="47.56278" lon="7.62818">
        <ele>253.487039</ele>
        <time>2022-09-14T13:51:28.172Z</time>
      </trkpt>
      <trkpt lat="47.56263" lon="7.6271">
        <ele>252.290098</ele>
        <time>2022-09-14T13:51:44.610Z</time>
      </trkpt>
      <trkpt lat="47.56249" lon="7.62661">
        <ele>251.722807</ele>
        <time>2022-09-14T13:51:51.892Z</time>
      </trkpt>
      <trkpt lat="47.56244" lon="7.62644">
        <ele>251.524741</ele>
        <time>2022-09-14T13:51:54.564Z</time>
      </trkpt>
      <trkpt lat="47.56229" lon="7.62583">
        <ele>250.91705</ele>
        <time>2022-09-14T13:52:04.066Z</time>
      </trkpt>
      <trkpt lat="47.56209" lon="7.62509">
        <ele>250.223975</ele>
        <time>2022-09-14T13:52:15.668Z</time>
      </trkpt>
      <trkpt lat="47.56205" lon="7.62493">
        <ele>250.073438</ele>
        <time>2022-09-14T13:52:18.201Z</time>
      </trkpt>
      <trkpt lat="47.56204" lon="7.62489">
        <ele>250.038972</ele>
        <time>2022-09-14T13:52:18.795Z</time>
      </trkpt>
      <trkpt lat="47.56187" lon="7.62428">
        <ele>249.467313</ele>
        <time>2022-09-14T13:52:28.919Z</time>
      </trkpt>
      <trkpt lat="47.56119" lon="7.62185">
        <ele>249.213083</ele>
        <time>2022-09-14T13:53:19.569Z</time>
      </trkpt>
      <trkpt lat="47.56105" lon="7.62138">
        <ele>249.26453</ele>
        <time>2022-09-14T13:53:29.947Z</time>
      </trkpt>
      <trkpt lat="47.56099" lon="7.62118">
        <ele>249.299012</ele>
        <time>2022-09-14T13:53:34.352Z</time>
      </trkpt>
      <trkpt lat="47.56036" lon="7.61884">
        <ele>249.76778</ele>
        <time>2022-09-14T13:54:25.041Z</time>
      </trkpt>
      <trkpt lat="47.56028" lon="7.61878">
        <ele>249.726851</ele>
        <time>2022-09-14T13:54:27.306Z</time>
      </trkpt>
      <trkpt lat="47.55986" lon="7.61715">
        <ele>249.191189</ele>
        <time>2022-09-14T13:54:55.401Z</time>
      </trkpt>
      <trkpt lat="47.55962" lon="7.61577">
        <ele>248.795775</ele>
        <time>2022-09-14T13:55:19.770Z</time>
      </trkpt>
      <trkpt lat="47.55962" lon="7.61564">
        <ele>248.762238</ele>
        <time>2022-09-14T13:55:22.199Z</time>
      </trkpt>
      <trkpt lat="47.55938" lon="7.61413">
        <ele>248.381537</ele>
        <time>2022-09-14T13:55:48.001Z</time>
      </trkpt>
      <trkpt lat="47.55932" lon="7.61392">
        <ele>248.325553</ele>
        <time>2022-09-14T13:55:51.951Z</time>
      </trkpt>
      <trkpt lat="47.55923" lon="7.6136">
        <ele>248.297379</ele>
        <time>2022-09-14T13:55:57.983Z</time>
      </trkpt>
      <trkpt lat="47.55922" lon="7.61356">
        <ele>248.297197</ele>
        <time>2022-09-14T13:55:58.736Z</time>
      </trkpt>
      <trkpt lat="47.55921" lon="7.61354">
        <ele>248.297093</ele>
        <time>2022-09-14T13:55:59.159Z</time>
      </trkpt>
      <trkpt lat="47.55921" lon="7.61352">
        <ele>248.297024</ele>
        <time>2022-09-14T13:55:59.454Z</time>
      </trkpt>
      <trkpt lat="47.55899" lon="7.61283">
        <ele>248.29359</ele>
        <time>2022-09-14T13:56:13.266Z</time>
      </trkpt>
      <trkpt lat="47.55896" lon="7.61275">
        <ele>248.293159</ele>
        <time>2022-09-14T13:56:14.956Z</time>
      </trkpt>
      <trkpt lat="47.55887" lon="7.6127">
        <ele>248.292556</ele>
        <time>2022-09-14T13:56:17.340Z</time>
      </trkpt>
      <trkpt lat="47.55877" lon="7.6125">
        <ele>248.291442</ele>
        <time>2022-09-14T13:56:21.757Z</time>
      </trkpt>
      <trkpt lat="47.55873" lon="7.61231">
        <ele>248.290571</ele>
        <time>2022-09-14T13:56:25.318Z</time>
      </trkpt>
      <trkpt lat="47.55872" lon="7.61217">
        <ele>248.289948</ele>
        <time>2022-09-14T13:56:27.967Z</time>
      </trkpt>
      <trkpt lat="47.55874" lon="7.61199">
        <ele>248.289091</ele>
        <time>2022-09-14T13:56:31.390Z</time>
      </trkpt>
      <trkpt lat="47.55865" lon="7.61179">
        <ele>248.287999</ele>
        <time>2022-09-14T13:56:35.955Z</time>
      </trkpt>
      <trkpt lat="47.55857" lon="7.61131">
        <ele>248.481757</ele>
        <time>2022-09-14T13:56:44.563Z</time>
      </trkpt>
      <trkpt lat="47.55852" lon="7.61099">
        <ele>248.87408</ele>
        <time>2022-09-14T13:56:51.290Z</time>
      </trkpt>
      <trkpt lat="47.55837" lon="7.61037">
        <ele>249.67281</ele>
        <time>2022-09-14T13:57:06.165Z</time>
      </trkpt>
      <trkpt lat="47.55827" lon="7.60972">
        <ele>250.482767</ele>
        <time>2022-09-14T13:57:24.131Z</time>
      </trkpt>
      <trkpt lat="47.55825" lon="7.60957">
        <ele>250.668947</ele>
        <time>2022-09-14T13:57:28.936Z</time>
      </trkpt>
      <trkpt lat="47.55823" lon="7.60935">
        <ele>250.940761</ele>
        <time>2022-09-14T13:57:35.641Z</time>
      </trkpt>
      <trkpt lat="47.55815" lon="7.60936">
        <ele>251.092777</ele>
        <time>2022-09-14T13:57:39.073Z</time>
      </trkpt>
      <trkpt lat="47.55773" lon="7.60712">
        <ele>252.827974</ele>
        <time>2022-09-14T13:58:33.774Z</time>
      </trkpt>
      <trkpt lat="47.55751" lon="7.60595">
        <ele>252.481727</ele>
        <time>2022-09-14T13:58:53.015Z</time>
      </trkpt>
      <trkpt lat="47.55752" lon="7.60583">
        <ele>252.301507</ele>
        <time>2022-09-14T13:58:54.469Z</time>
      </trkpt>
      <trkpt lat="47.55745" lon="7.60529">
        <ele>251.456382</ele>
        <time>2022-09-14T13:59:02.072Z</time>
      </trkpt>
      <trkpt lat="47.55744" lon="7.60521">
        <ele>251.333758</ele>
        <time>2022-09-14T13:59:03.251Z</time>
      </trkpt>
      <trkpt lat="47.55735" lon="7.60516">
        <ele>251.11692</ele>
        <time>2022-09-14T13:59:05.219Z</time>
      </trkpt>
      <trkpt lat="47.55732" lon="7.60485">
        <ele>250.639641</ele>
        <time>2022-09-14T13:59:09.127Z</time>
      </trkpt>
      <trkpt lat="47.55722" lon="7.60386">
        <ele>249.1643</ele>
        <time>2022-09-14T13:59:22.541Z</time>
      </trkpt>
      <trkpt lat="47.55719" lon="7.6036">
        <ele>248.980106</ele>
        <time>2022-09-14T13:59:26.313Z</time>
      </trkpt>
      <trkpt lat="47.55707" lon="7.60234">
        <ele>248.081284</ele>
        <time>2022-09-14T13:59:46.366Z</time>
      </trkpt>
      <trkpt lat="47.55703" lon="7.60082">
        <ele>247.377618</ele>
        <time>2022-09-14T14:00:11.735Z</time>
      </trkpt>
      <trkpt lat="47.55701" lon="7.59904">
        <ele>247.580808</ele>
        <time>2022-09-14T14:00:45.383Z</time>
      </trkpt>
      <trkpt lat="47.55716" lon="7.59746">
        <ele>248.224065</ele>
        <time>2022-09-14T14:01:17.271Z</time>
      </trkpt>
      <trkpt lat="47.5572" lon="7.59726">
        <ele>248.329677</ele>
        <time>2022-09-14T14:01:21.431Z</time>
      </trkpt>
      <trkpt lat="47.55727" lon="7.59701">
        <ele>248.472304</ele>
        <time>2022-09-14T14:01:27.109Z</time>
      </trkpt>
      <trkpt lat="47.55741" lon="7.59663">
        <ele>248.689841</ele>
        <time>2022-09-14T14:01:35.871Z</time>
      </trkpt>
      <trkpt lat="47.55744" lon="7.59656">
        <ele>248.735755</ele>
        <time>2022-09-14T14:01:37.806Z</time>
      </trkpt>
      <trkpt lat="47.55777" lon="7.59564">
        <ele>249.338019</ele>
        <time>2022-09-14T14:02:00.165Z</time>
      </trkpt>
      <trkpt lat="47.55813" lon="7.5948">
        <ele>249.989024</ele>
        <time>2022-09-14T14:02:21.263Z</time>
      </trkpt>
      <trkpt lat="47.55834" lon="7.59436">
        <ele>250.339644</ele>
        <time>2022-09-14T14:02:32.497Z</time>
      </trkpt>
      <trkpt lat="47.55896" lon="7.59319">
        <ele>251.532416</ele>
        <time>2022-09-14T14:03:05.162Z</time>
      </trkpt>
      <trkpt lat="47.55952" lon="7.59231">
        <ele>252.616673</ele>
        <time>2022-09-14T14:03:34.848Z</time>
      </trkpt>
      <trkpt lat="47.55998" lon="7.59173">
        <ele>253.338105</ele>
        <time>2022-09-14T14:03:55.865Z</time>
      </trkpt>
      <trkpt lat="47.55998" lon="7.59162">
        <ele>253.407036</ele>
        <time>2022-09-14T14:03:58.089Z</time>
      </trkpt>
      <trkpt lat="47.56036" lon="7.59117">
        <ele>253.881458</ele>
        <time>2022-09-14T14:04:11.984Z</time>
      </trkpt>
      <trkpt lat="47.56041" lon="7.59128">
        <ele>253.973166</ele>
        <time>2022-09-14T14:04:15.103Z</time>
      </trkpt>
      <trkpt lat="47.56052" lon="7.59149">
        <ele>254.145053</ele>
        <time>2022-09-14T14:04:20.659Z</time>
      </trkpt>
      <trkpt lat="47.56055" lon="7.59155">
        <ele>254.197827</ele>
        <time>2022-09-14T14:04:22.136Z</time>
      </trkpt>
      <trkpt lat="47.56077" lon="7.59128">
        <ele>254.481728</ele>
        <time>2022-09-14T14:04:31.852Z</time>
      </trkpt>
      <trkpt lat="47.56079" lon="7.59126">
        <ele>254.501833</ele>
        <time>2022-09-14T14:04:32.519Z</time>
      </trkpt>
      <trkpt lat="47.56086" lon="7.59118">
        <ele>254.59446</ele>
        <time>2022-09-14T14:04:35.229Z</time>
      </trkpt>
      <trkpt lat="47.5607" lon="7.59082">
        <ele>254.879137</ele>
        <time>2022-09-14T14:04:45.329Z</time>
      </trkpt>
      <trkpt lat="47.56065" lon="7.59072">
        <ele>254.948847</ele>
        <time>2022-09-14T14:04:47.956Z</time>
      </trkpt>
      <trkpt lat="47.56064" lon="7.59069">
        <ele>254.964346</ele>
        <time>2022-09-14T14:04:48.583Z</time>
      </trkpt>
      <trkpt lat="47.55965" lon="7.58871">
        <ele>256.278915</ele>
        <time>2022-09-14T14:05:37.728Z</time>
      </trkpt>
      <trkpt lat="47.55963" lon="7.58856">
        <ele>256.379725</ele>
        <time>2022-09-14T14:05:41.195Z</time>
      </trkpt>
      <trkpt lat="47.55963" lon="7.58852">
        <ele>256.410566</ele>
        <time>2022-09-14T14:05:42.216Z</time>
      </trkpt>
      <trkpt lat="47.55965" lon="7.58844">
        <ele>256.463933</ele>
        <time>2022-09-14T14:05:44.020Z</time>
      </trkpt>
      <trkpt lat="47.55995" lon="7.58785">
        <ele>256.98281</ele>
        <time>2022-09-14T14:06:00.339Z</time>
      </trkpt>
      <trkpt lat="47.55996" lon="7.58783">
        <ele>257.000784</ele>
        <time>2022-09-14T14:06:00.862Z</time>
      </trkpt>
      <trkpt lat="47.56008" lon="7.58765">
        <ele>257.175759</ele>
        <time>2022-09-14T14:06:06.423Z</time>
      </trkpt>
      <trkpt lat="47.56034" lon="7.58743">
        <ele>257.492024</ele>
        <time>2022-09-14T14:06:15.832Z</time>
      </trkpt>
      <trkpt lat="47.56055" lon="7.58729">
        <ele>257.730845</ele>
        <time>2022-09-14T14:06:23.566Z</time>
      </trkpt>
      <trkpt lat="47.56066" lon="7.58721">
        <ele>257.859449</ele>
        <time>2022-09-14T14:06:27.151Z</time>
      </trkpt>
      <trkpt lat="47.56101" lon="7.58679">
        <ele>258.388281</ele>
        <time>2022-09-14T14:06:40.353Z</time>
      </trkpt>
      <trkpt lat="47.56143" lon="7.58623">
        <ele>259.210717</ele>
        <time>2022-09-14T14:06:58.617Z</time>
      </trkpt>
      <trkpt lat="47.56155" lon="7.58613">
        <ele>259.413754</ele>
        <time>2022-09-14T14:07:03.271Z</time>
      </trkpt>
      <trkpt lat="47.56154" lon="7.58591">
        <ele>259.6352</ele>
        <time>2022-09-14T14:07:09.626Z</time>
      </trkpt>
      <trkpt lat="47.56186" lon="7.58502">
        <ele>260.636391</ele>
        <time>2022-09-14T14:07:35.406Z</time>
      </trkpt>
      <trkpt lat="47.56188" lon="7.58489">
        <ele>260.77105</ele>
        <time>2022-09-14T14:07:38.534Z</time>
      </trkpt>
      <trkpt lat="47.56203" lon="7.58452">
        <ele>260.720614</ele>
        <time>2022-09-14T14:07:47.207Z</time>
      </trkpt>
      <trkpt lat="47.56259" lon="7.5837">
        <ele>260.458734</ele>
        <time>2022-09-14T14:08:06.690Z</time>
      </trkpt>
      <trkpt lat="47.56293" lon="7.5833">
        <ele>260.313124</ele>
        <time>2022-09-14T14:08:17.147Z</time>
      </trkpt>
      <trkpt lat="47.5634" lon="7.58277">
        <ele>260.040071</ele>
        <time>2022-09-14T14:08:30.142Z</time>
      </trkpt>
      <trkpt lat="47.56347" lon="7.58269">
        <ele>259.982463</ele>
        <time>2022-09-14T14:08:32.203Z</time>
      </trkpt>
      <trkpt lat="47.56356" lon="7.58257">
        <ele>259.910888</ele>
        <time>2022-09-14T14:08:34.582Z</time>
      </trkpt>
      <trkpt lat="47.56389" lon="7.58216">
        <ele>259.645921</ele>
        <time>2022-09-14T14:08:43.603Z</time>
      </trkpt>
      <trkpt lat="47.56402" lon="7.582">
        <ele>259.539667</ele>
        <time>2022-09-14T14:08:47.742Z</time>
      </trkpt>
      <trkpt lat="47.56428" lon="7.58167">
        <ele>259.332451</ele>
        <time>2022-09-14T14:08:56.082Z</time>
      </trkpt>
      <trkpt lat="47.56455" lon="7.58132">
        <ele>259.108322</ele>
        <time>2022-09-14T14:09:07.447Z</time>
      </trkpt>
      <trkpt lat="47.56494" lon="7.58076">
        <ele>260.319306</ele>
        <time>2022-09-14T14:09:27.129Z</time>
      </trkpt>
      <trkpt lat="47.56489" lon="7.58058">
        <ele>260.623343</ele>
        <time>2022-09-14T14:09:32.527Z</time>
      </trkpt>
      <trkpt lat="47.56448" lon="7.57991">
        <ele>262.044022</ele>
        <time>2022-09-14T14:09:54.300Z</time>
      </trkpt>
      <trkpt lat="47.56445" lon="7.57985">
        <ele>262.16212</ele>
        <time>2022-09-14T14:09:56.542Z</time>
      </trkpt>
      <trkpt lat="47.5641" lon="7.57925">
        <ele>263.438156</ele>
        <time>2022-09-14T14:10:19.447Z</time>
      </trkpt>
      <trkpt lat="47.56405" lon="7.57916">
        <ele>263.671597</ele>
        <time>2022-09-14T14:10:22.765Z</time>
      </trkpt>
      <trkpt lat="47.56397" lon="7.57886">
        <ele>264.310738</ele>
        <time>2022-09-14T14:10:33.278Z</time>
      </trkpt>
      <trkpt lat="47.564" lon="7.57874">
        <ele>264.564802</ele>
        <time>2022-09-14T14:10:37.079Z</time>
      </trkpt>
      <trkpt lat="47.56432" lon="7.57769">
        <ele>266.861321</ele>
        <time>2022-09-14T14:11:10.055Z</time>
      </trkpt>
      <trkpt lat="47.56436" lon="7.57758">
        <ele>267.108387</ele>
        <time>2022-09-14T14:11:13.376Z</time>
      </trkpt>
      <trkpt lat="47.56384" lon="7.57694">
        <ele>268.952846</ele>
        <time>2022-09-14T14:11:37.307Z</time>
      </trkpt>
      <trkpt lat="47.56328" lon="7.57626">
        <ele>270.511131</ele>
        <time>2022-09-14T14:12:04.712Z</time>
      </trkpt>
      <trkpt lat="47.56284" lon="7.57561">
        <ele>271.835264</ele>
        <time>2022-09-14T14:12:28.065Z</time>
      </trkpt>
      <trkpt lat="47.56194" lon="7.57421">
        <ele>274.251195</ele>
        <time>2022-09-14T14:13:14.147Z</time>
      </trkpt>
      <trkpt lat="47.56194" lon="7.57402">
        <ele>274.474858</ele>
        <time>2022-09-14T14:13:18.543Z</time>
      </trkpt>
      <trkpt lat="47.56188" lon="7.57388">
        <ele>274.668986</ele>
        <time>2022-09-14T14:13:22.581Z</time>
      </trkpt>
      <trkpt lat="47.56183" lon="7.57377">
        <ele>274.833571</ele>
        <time>2022-09-14T14:13:25.997Z</time>
      </trkpt>
      <trkpt lat="47.56143" lon="7.57321">
        <ele>275.678981</ele>
        <time>2022-09-14T14:13:45.306Z</time>
      </trkpt>
      <trkpt lat="47.5611" lon="7.57277">
        <ele>275.943737</ele>
        <time>2022-09-14T14:14:00.132Z</time>
      </trkpt>
      <trkpt lat="47.56174" lon="7.57145">
        <ele>276.596777</ele>
        <time>2022-09-14T14:14:31.759Z</time>
      </trkpt>
      <trkpt lat="47.5624" lon="7.57006">
        <ele>275.898435</ele>
        <time>2022-09-14T14:14:58.941Z</time>
      </trkpt>
      <trkpt lat="47.56246" lon="7.56994">
        <ele>275.819093</ele>
        <time>2022-09-14T14:15:01.167Z</time>
      </trkpt>
      <trkpt lat="47.56252" lon="7.56984">
        <ele>275.749061</ele>
        <time>2022-09-14T14:15:03.232Z</time>
      </trkpt>
      <trkpt lat="47.56253" lon="7.5698">
        <ele>275.727778</ele>
        <time>2022-09-14T14:15:03.864Z</time>
      </trkpt>
      <trkpt lat="47.56288" lon="7.56912">
        <ele>275.271716</ele>
        <time>2022-09-14T14:15:17.031Z</time>
      </trkpt>
      <trkpt lat="47.5629" lon="7.56909">
        <ele>275.261522</ele>
        <time>2022-09-14T14:15:17.750Z</time>
      </trkpt>
      <trkpt lat="47.56321" lon="7.56837">
        <ele>275.193523</ele>
        <time>2022-09-14T14:15:31.469Z</time>
      </trkpt>
      <trkpt lat="47.56359" lon="7.56763">
        <ele>275.119587</ele>
        <time>2022-09-14T14:15:47.104Z</time>
      </trkpt>
      <trkpt lat="47.5639" lon="7.56702">
        <ele>275.058412</ele>
        <time>2022-09-14T14:16:02.617Z</time>
      </trkpt>
      <trkpt lat="47.56386" lon="7.56695">
        <ele>275.056241</ele>
        <time>2022-09-14T14:16:04.624Z</time>
      </trkpt>
      <trkpt lat="47.56335" lon="7.56596">
        <ele>275.853082</ele>
        <time>2022-09-14T14:16:32.446Z</time>
      </trkpt>
      <trkpt lat="47.56331" lon="7.56589">
        <ele>275.907964</ele>
        <time>2022-09-14T14:16:34.321Z</time>
      </trkpt>
      <trkpt lat="47.5634" lon="7.56575">
        <ele>276.033081</ele>
        <time>2022-09-14T14:16:38.863Z</time>
      </trkpt>
      <trkpt lat="47.56369" lon="7.56478">
        <ele>276.708219</ele>
        <time>2022-09-14T14:17:01.224Z</time>
      </trkpt>
      <trkpt lat="47.56372" lon="7.56468">
        <ele>276.739629</ele>
        <time>2022-09-14T14:17:03.291Z</time>
      </trkpt>
      <trkpt lat="47.56387" lon="7.56415">
        <ele>276.64907</ele>
        <time>2022-09-14T14:17:13.888Z</time>
      </trkpt>
      <trkpt lat="47.56398" lon="7.56418">
        <ele>276.62374</ele>
        <time>2022-09-14T14:17:16.741Z</time>
      </trkpt>
      <trkpt lat="47.56415" lon="7.56397">
        <ele>276.571693</ele>
        <time>2022-09-14T14:17:26.486Z</time>
      </trkpt>
      <trkpt lat="47.56416" lon="7.56378">
        <ele>276.540929</ele>
        <time>2022-09-14T14:17:32.266Z</time>
      </trkpt>
      <trkpt lat="47.56416" lon="7.56376">
        <ele>276.537274</ele>
        <time>2022-09-14T14:17:32.964Z</time>
      </trkpt>
      <trkpt lat="47.56408" lon="7.56346">
        <ele>276.487055</ele>
        <time>2022-09-14T14:17:38.550Z</time>
      </trkpt>
      <trkpt lat="47.56406" lon="7.56336">
        <ele>276.470932</ele>
        <time>2022-09-14T14:17:41.505Z</time>
      </trkpt>
      <trkpt lat="47.56403" lon="7.56322">
        <ele>276.448251</ele>
        <time>2022-09-14T14:17:43.999Z</time>
      </trkpt>
      <trkpt lat="47.56395" lon="7.56309">
        <ele>276.420113</ele>
        <time>2022-09-14T14:17:47.034Z</time>
      </trkpt>
      <trkpt lat="47.56394" lon="7.56307">
        <ele>276.41711</ele>
        <time>2022-09-14T14:17:47.566Z</time>
      </trkpt>
      <trkpt lat="47.56381" lon="7.56264">
        <ele>276.342146</ele>
        <time>2022-09-14T14:18:00.815Z</time>
      </trkpt>
      <trkpt lat="47.56379" lon="7.56258">
        <ele>276.331222</ele>
        <time>2022-09-14T14:18:02.716Z</time>
      </trkpt>
      <trkpt lat="47.56369" lon="7.56228">
        <ele>276.162663</ele>
        <time>2022-09-14T14:18:11.951Z</time>
      </trkpt>
      <trkpt lat="47.56365" lon="7.56199">
        <ele>276.000987</ele>
        <time>2022-09-14T14:18:16.576Z</time>
      </trkpt>
      <trkpt lat="47.56354" lon="7.56159">
        <ele>275.766039</ele>
        <time>2022-09-14T14:18:23.247Z</time>
      </trkpt>
      <trkpt lat="47.56311" lon="7.56062">
        <ele>275.139981</ele>
        <time>2022-09-14T14:18:41.586Z</time>
      </trkpt>
      <trkpt lat="47.563" lon="7.56027">
        <ele>274.929976</ele>
        <time>2022-09-14T14:18:48.236Z</time>
      </trkpt>
      <trkpt lat="47.56291" lon="7.56003">
        <ele>274.812613</ele>
        <time>2022-09-14T14:18:52.957Z</time>
      </trkpt>
      <trkpt lat="47.56371" lon="7.55765">
        <ele>273.864607</ele>
        <time>2022-09-14T14:19:36.891Z</time>
      </trkpt>
      <trkpt lat="47.56367" lon="7.55762">
        <ele>273.852466</ele>
        <time>2022-09-14T14:19:37.981Z</time>
      </trkpt>
      <trkpt lat="47.56345" lon="7.55739">
        <ele>273.776617</ele>
        <time>2022-09-14T14:19:44.761Z</time>
      </trkpt>
      <trkpt lat="47.56315" lon="7.557">
        <ele>273.662345</ele>
        <time>2022-09-14T14:19:55.142Z</time>
      </trkpt>
      <trkpt lat="47.56232" lon="7.5556">
        <ele>273.440611</ele>
        <time>2022-09-14T14:20:29.477Z</time>
      </trkpt>
      <trkpt lat="47.56236" lon="7.55555">
        <ele>273.44879</ele>
        <time>2022-09-14T14:20:30.898Z</time>
      </trkpt>
      <trkpt lat="47.56283" lon="7.55491">
        <ele>273.557123</ele>
        <time>2022-09-14T14:20:48.956Z</time>
      </trkpt>
      <trkpt lat="47.56286" lon="7.55488">
        <ele>273.563351</ele>
        <time>2022-09-14T14:20:49.997Z</time>
      </trkpt>
      <trkpt lat="47.56324" lon="7.55435">
        <ele>273.651642</ele>
        <time>2022-09-14T14:21:04.501Z</time>
      </trkpt>
      <trkpt lat="47.56395" lon="7.55347">
        <ele>273.709561</ele>
        <time>2022-09-14T14:21:29.864Z</time>
      </trkpt>
      <trkpt lat="47.5639" lon="7.55334">
        <ele>273.711749</ele>
        <time>2022-09-14T14:21:32.419Z</time>
      </trkpt>
      <trkpt lat="47.56315" lon="7.5514">
        <ele>273.63271</ele>
        <time>2022-09-14T14:22:12.324Z</time>
      </trkpt>
      <trkpt lat="47.56294" lon="7.55087">
        <ele>273.543652</ele>
        <time>2022-09-14T14:22:23.387Z</time>
      </trkpt>
      <trkpt lat="47.56275" lon="7.55039">
        <ele>273.464283</ele>
        <time>2022-09-14T14:22:33.178Z</time>
      </trkpt>
      <trkpt lat="47.56158" lon="7.54694">
        <ele>271.968404</ele>
        <time>2022-09-14T14:23:36.425Z</time>
      </trkpt>
      <trkpt lat="47.56157" lon="7.5468">
        <ele>271.881314</ele>
        <time>2022-09-14T14:23:38.700Z</time>
      </trkpt>
      <trkpt lat="47.56156" lon="7.54672">
        <ele>271.83096</ele>
        <time>2022-09-14T14:23:39.995Z</time>
      </trkpt>
      <trkpt lat="47.56158" lon="7.54642">
        <ele>271.653124</ele>
        <time>2022-09-14T14:23:44.608Z</time>
      </trkpt>
      <trkpt lat="47.56168" lon="7.54521">
        <ele>270.914773</ele>
        <time>2022-09-14T14:24:03.614Z</time>
      </trkpt>
      <trkpt lat="47.56181" lon="7.54372">
        <ele>270.422983</ele>
        <time>2022-09-14T14:24:27.484Z</time>
      </trkpt>
      <trkpt lat="47.56187" lon="7.54344">
        <ele>270.367837</ele>
        <time>2022-09-14T14:24:32.535Z</time>
      </trkpt>
      <trkpt lat="47.56228" lon="7.54282">
        <ele>270.206462</ele>
        <time>2022-09-14T14:24:48.053Z</time>
      </trkpt>
      <trkpt lat="47.56234" lon="7.54268">
        <ele>270.17539</ele>
        <time>2022-09-14T14:24:51.028Z</time>
      </trkpt>
      <trkpt lat="47.56235" lon="7.54243">
        <ele>270.130081</ele>
        <time>2022-09-14T14:24:55.691Z</time>
      </trkpt>
      <trkpt lat="47.56237" lon="7.54093">
        <ele>270.926444</ele>
        <time>2022-09-14T14:25:25.957Z</time>
      </trkpt>
      <trkpt lat="47.56228" lon="7.53957">
        <ele>271.701548</ele>
        <time>2022-09-14T14:25:55.993Z</time>
      </trkpt>
      <trkpt lat="47.56229" lon="7.53933">
        <ele>271.805439</ele>
        <time>2022-09-14T14:26:01.306Z</time>
      </trkpt>
      <trkpt lat="47.5623" lon="7.53853">
        <ele>272.153853</ele>
        <time>2022-09-14T14:26:18.406Z</time>
      </trkpt>
      <trkpt lat="47.56231" lon="7.53812">
        <ele>272.331754</ele>
        <time>2022-09-14T14:26:26.635Z</time>
      </trkpt>
      <trkpt lat="47.56233" lon="7.53691">
        <ele>272.818624</ele>
        <time>2022-09-14T14:26:49.320Z</time>
      </trkpt>
      <trkpt lat="47.56229" lon="7.5356">
        <ele>272.91071</ele>
        <time>2022-09-14T14:27:12.643Z</time>
      </trkpt>
      <trkpt lat="47.56226" lon="7.53514">
        <ele>272.943789</ele>
        <time>2022-09-14T14:27:21.288Z</time>
      </trkpt>
      <trkpt lat="47.56218" lon="7.53393">
        <ele>273.221193</ele>
        <time>2022-09-14T14:27:43.784Z</time>
      </trkpt>
      <trkpt lat="47.56214" lon="7.53307">
        <ele>273.669987</ele>
        <time>2022-09-14T14:28:00.849Z</time>
      </trkpt>
      <trkpt lat="47.56214" lon="7.53269">
        <ele>273.871618</ele>
        <time>2022-09-14T14:28:08.875Z</time>
      </trkpt>
      <trkpt lat="47.56212" lon="7.53133">
        <ele>274.899361</ele>
        <time>2022-09-14T14:28:38.201Z</time>
      </trkpt>
      <trkpt lat="47.56222" lon="7.52974">
        <ele>277.142972</ele>
        <time>2022-09-14T14:29:15.226Z</time>
      </trkpt>
      <trkpt lat="47.56238" lon="7.5295">
        <ele>277.616443</ele>
        <time>2022-09-14T14:29:24.658Z</time>
      </trkpt>
      <trkpt lat="47.56224" lon="7.52931">
        <ele>278.016302</ele>
        <time>2022-09-14T14:29:32.868Z</time>
      </trkpt>
      <trkpt lat="47.56204" lon="7.52899">
        <ele>278.88151</ele>
        <time>2022-09-14T14:29:46.580Z</time>
      </trkpt>
      <trkpt lat="47.56182" lon="7.5287">
        <ele>279.78176</ele>
        <time>2022-09-14T14:29:59.655Z</time>
      </trkpt>
      <trkpt lat="47.56158" lon="7.52821">
        <ele>281.059154</ele>
        <time>2022-09-14T14:30:17.969Z</time>
      </trkpt>
      <trkpt lat="47.56155" lon="7.52809">
        <ele>281.341666</ele>
        <time>2022-09-14T14:30:21.799Z</time>
      </trkpt>
      <trkpt lat="47.56152" lon="7.52718">
        <ele>283.273449</ele>
        <time>2022-09-14T14:30:46.930Z</time>
      </trkpt>
      <trkpt lat="47.56152" lon="7.52663">
        <ele>283.886193</ele>
        <time>2022-09-14T14:31:00.652Z</time>
      </trkpt>
      <trkpt lat="47.56133" lon="7.52607">
        <ele>284.06764</ele>
        <time>2022-09-14T14:31:14.618Z</time>
      </trkpt>
      <trkpt lat="47.56124" lon="7.52555">
        <ele>284.225157</ele>
        <time>2022-09-14T14:31:25.126Z</time>
      </trkpt>
      <trkpt lat="47.56141" lon="7.52529">
        <ele>284.330862</ele>
        <time>2022-09-14T14:31:31.329Z</time>
      </trkpt>
      <trkpt lat="47.56149" lon="7.52517">
        <ele>284.37955</ele>
        <time>2022-09-14T14:31:34.139Z</time>
      </trkpt>
      <trkpt lat="47.56162" lon="7.52481">
        <ele>284.497414</ele>
        <time>2022-09-14T14:31:40.421Z</time>
      </trkpt>
      <trkpt lat="47.56156" lon="7.52435">
        <ele>284.703006</ele>
        <time>2022-09-14T14:31:47.674Z</time>
      </trkpt>
      <trkpt lat="47.56136" lon="7.52387">
        <ele>285.043784</ele>
        <time>2022-09-14T14:31:56.379Z</time>
      </trkpt>
      <trkpt lat="47.56086" lon="7.52306">
        <ele>285.709617</ele>
        <time>2022-09-14T14:32:17.958Z</time>
      </trkpt>
      <trkpt lat="47.56095" lon="7.52249">
        <ele>286.067015</ele>
        <time>2022-09-14T14:32:33.438Z</time>
      </trkpt>
      <trkpt lat="47.56098" lon="7.52184">
        <ele>287.648193</ele>
        <time>2022-09-14T14:32:52.658Z</time>
      </trkpt>
      <trkpt lat="47.56106" lon="7.52016">
        <ele>293.019194</ele>
        <time>2022-09-14T14:33:49.042Z</time>
      </trkpt>
      <trkpt lat="47.56077" lon="7.51884">
        <ele>298.294378</ele>
        <time>2022-09-14T14:34:42.154Z</time>
      </trkpt>
      <trkpt lat="47.56043" lon="7.51791">
        <ele>302.658606</ele>
        <time>2022-09-14T14:35:22.094Z</time>
      </trkpt>
      <trkpt lat="47.56037" lon="7.51778">
        <ele>303.31226</ele>
        <time>2022-09-14T14:35:28.068Z</time>
      </trkpt>
      <trkpt lat="47.55992" lon="7.51672">
        <ele>308.198187</ele>
        <time>2022-09-14T14:36:16.737Z</time>
      </trkpt>
      <trkpt lat="47.55982" lon="7.51615">
        <ele>310.374355</ele>
        <time>2022-09-14T14:36:39.405Z</time>
      </trkpt>
      <trkpt lat="47.55982" lon="7.51601">
        <ele>310.895171</ele>
        <time>2022-09-14T14:36:44.851Z</time>
      </trkpt>
      <trkpt lat="47.55988" lon="7.51552">
        <ele>312.711757</ele>
        <time>2022-09-14T14:37:02.924Z</time>
      </trkpt>
      <trkpt lat="47.56004" lon="7.51503">
        <ele>314.719511</ele>
        <time>2022-09-14T14:37:22.785Z</time>
      </trkpt>
      <trkpt lat="47.56076" lon="7.51365">
        <ele>316.739107</ele>
        <time>2022-09-14T14:38:07.359Z</time>
      </trkpt>
      <trkpt lat="47.56088" lon="7.51331">
        <ele>317.039034</ele>
        <time>2022-09-14T14:38:14.120Z</time>
      </trkpt>
      <trkpt lat="47.56096" lon="7.51289">
        <ele>317.383557</ele>
        <time>2022-09-14T14:38:21.105Z</time>
      </trkpt>
      <trkpt lat="47.56101" lon="7.51256">
        <ele>317.633043</ele>
        <time>2022-09-14T14:38:26.071Z</time>
      </trkpt>
      <trkpt lat="47.56104" lon="7.51236">
        <ele>317.221024</ele>
        <time>2022-09-14T14:38:29.231Z</time>
      </trkpt>
      <trkpt lat="47.56104" lon="7.51232">
        <ele>317.134104</ele>
        <time>2022-09-14T14:38:29.870Z</time>
      </trkpt>
      <trkpt lat="47.56105" lon="7.51225">
        <ele>316.986782</ele>
        <time>2022-09-14T14:38:30.920Z</time>
      </trkpt>
      <trkpt lat="47.56106" lon="7.5121">
        <ele>316.691018</ele>
        <time>2022-09-14T14:38:33.008Z</time>
      </trkpt>
      <trkpt lat="47.56097" lon="7.51168">
        <ele>315.81877</ele>
        <time>2022-09-14T14:38:39.191Z</time>
      </trkpt>
      <trkpt lat="47.56067" lon="7.51112">
        <ele>314.397283</ele>
        <time>2022-09-14T14:38:48.645Z</time>
      </trkpt>
      <trkpt lat="47.56034" lon="7.51077">
        <ele>313.193006</ele>
        <time>2022-09-14T14:38:56.140Z</time>
      </trkpt>
      <trkpt lat="47.55962" lon="7.51027">
        <ele>311.030859</ele>
        <time>2022-09-14T14:39:11.307Z</time>
      </trkpt>
      <trkpt lat="47.55955" lon="7.51016">
        <ele>310.774997</ele>
        <time>2022-09-14T14:39:13.397Z</time>
      </trkpt>
      <trkpt lat="47.55952" lon="7.50985">
        <ele>310.233353</ele>
        <time>2022-09-14T14:39:17.544Z</time>
      </trkpt>
      <trkpt lat="47.5595" lon="7.50943">
        <ele>309.500076</ele>
        <time>2022-09-14T14:39:23.403Z</time>
      </trkpt>
      <trkpt lat="47.55949" lon="7.50932">
        <ele>309.301619</ele>
        <time>2022-09-14T14:39:25.015Z</time>
      </trkpt>
      <trkpt lat="47.55946" lon="7.50916">
        <ele>309.022701</ele>
        <time>2022-09-14T14:39:27.354Z</time>
      </trkpt>
      <trkpt lat="47.55933" lon="7.50868">
        <ele>308.109131</ele>
        <time>2022-09-14T14:39:34.851Z</time>
      </trkpt>
      <trkpt lat="47.55903" lon="7.50825">
        <ele>307.974222</ele>
        <time>2022-09-14T14:39:43.714Z</time>
      </trkpt>
      <trkpt lat="47.55893" lon="7.50814">
        <ele>308.109685</ele>
        <time>2022-09-14T14:39:46.392Z</time>
      </trkpt>
      <trkpt lat="47.5584" lon="7.50776">
        <ele>308.764569</ele>
        <time>2022-09-14T14:40:03.870Z</time>
      </trkpt>
      <trkpt lat="47.55802" lon="7.50734">
        <ele>309.284802</ele>
        <time>2022-09-14T14:40:22.986Z</time>
      </trkpt>
      <trkpt lat="47.55779" lon="7.50722">
        <ele>309.551092</ele>
        <time>2022-09-14T14:40:33.196Z</time>
      </trkpt>
      <trkpt lat="47.55729" lon="7.50686">
        <ele>311.044113</ele>
        <time>2022-09-14T14:40:56.310Z</time>
      </trkpt>
      <trkpt lat="47.55678" lon="7.5067">
        <ele>312.662643</ele>
        <time>2022-09-14T14:41:18.619Z</time>
      </trkpt>
      <trkpt lat="47.55642" lon="7.50637">
        <ele>313.979519</ele>
        <time>2022-09-14T14:41:37.499Z</time>
      </trkpt>
      <trkpt lat="47.55621" lon="7.50608">
        <ele>314.857821</ele>
        <time>2022-09-14T14:41:49.604Z</time>
      </trkpt>
      <trkpt lat="47.55606" lon="7.50575">
        <ele>315.388548</ele>
        <time>2022-09-14T14:42:00.131Z</time>
      </trkpt>
      <trkpt lat="47.55579" lon="7.50487">
        <ele>316.010102</ele>
        <time>2022-09-14T14:42:21.650Z</time>
      </trkpt>
      <trkpt lat="47.55552" lon="7.50361">
        <ele>316.851521</ele>
        <time>2022-09-14T14:42:46.667Z</time>
      </trkpt>
      <trkpt lat="47.5554" lon="7.50293">
        <ele>317.009207</ele>
        <time>2022-09-14T14:42:59.008Z</time>
      </trkpt>
      <trkpt lat="47.55538" lon="7.50282">
        <ele>317.02104</ele>
        <time>2022-09-14T14:43:01.188Z</time>
      </trkpt>
      <trkpt lat="47.55529" lon="7.50243">
        <ele>317.061725</ele>
        <time>2022-09-14T14:43:07.623Z</time>
      </trkpt>
      <trkpt lat="47.55524" lon="7.5023">
        <ele>317.076247</ele>
        <time>2022-09-14T14:43:10.063Z</time>
      </trkpt>
      <trkpt lat="47.55506" lon="7.50149">
        <ele>317.161337</ele>
        <time>2022-09-14T14:43:24.754Z</time>
      </trkpt>
      <trkpt lat="47.55495" lon="7.4998">
        <ele>320.075303</ele>
        <time>2022-09-14T14:44:02.352Z</time>
      </trkpt>
      <trkpt lat="47.55489" lon="7.49629">
        <ele>333.44188</ele>
        <time>2022-09-14T14:46:12.079Z</time>
      </trkpt>
      <trkpt lat="47.55488" lon="7.49606">
        <ele>334.509741</ele>
        <time>2022-09-14T14:46:25.625Z</time>
      </trkpt>
      <trkpt lat="47.5546" lon="7.49385">
        <ele>344.692645</ele>
        <time>2022-09-14T14:48:13.694Z</time>
      </trkpt>
      <trkpt lat="47.55307" lon="7.48823">
        <ele>353.29479</ele>
        <time>2022-09-14T14:50:37.386Z</time>
      </trkpt>
      <trkpt lat="47.55256" lon="7.48609">
        <ele>347.97648</ele>
        <time>2022-09-14T14:51:05.335Z</time>
      </trkpt>
      <trkpt lat="47.55254" lon="7.48605">
        <ele>347.841275</ele>
        <time>2022-09-14T14:51:05.901Z</time>
      </trkpt>
      <trkpt lat="47.55135" lon="7.48303">
        <ele>341.491302</ele>
        <time>2022-09-14T14:51:53.366Z</time>
      </trkpt>
      <trkpt lat="47.55133" lon="7.48299">
        <ele>341.458341</ele>
        <time>2022-09-14T14:51:54.310Z</time>
      </trkpt>
      <trkpt lat="47.55088" lon="7.48133">
        <ele>340.38877</ele>
        <time>2022-09-14T14:52:24.359Z</time>
      </trkpt>
      <trkpt lat="47.55062" lon="7.48065">
        <ele>340.02417</ele>
        <time>2022-09-14T14:52:37.260Z</time>
      </trkpt>
      <trkpt lat="47.55033" lon="7.48023">
        <ele>339.900615</ele>
        <time>2022-09-14T14:52:46.948Z</time>
      </trkpt>
      <trkpt lat="47.55026" lon="7.48002">
        <ele>339.849147</ele>
        <time>2022-09-14T14:52:51.103Z</time>
      </trkpt>
      <trkpt lat="47.55028" lon="7.47978">
        <ele>339.798924</ele>
        <time>2022-09-14T14:52:55.026Z</time>
      </trkpt>
      <trkpt lat="47.5503" lon="7.47974">
        <ele>339.787371</ele>
        <time>2022-09-14T14:52:55.888Z</time>
      </trkpt>
      <trkpt lat="47.55038" lon="7.4796">
        <ele>339.749979</ele>
        <time>2022-09-14T14:52:58.833Z</time>
      </trkpt>
      <trkpt lat="47.55079" lon="7.47887">
        <ele>339.550209</ele>
        <time>2022-09-14T14:53:14.625Z</time>
      </trkpt>
      <trkpt lat="47.55122" lon="7.47839">
        <ele>340.961411</ele>
        <time>2022-09-14T14:53:30.503Z</time>
      </trkpt>
      <trkpt lat="47.55136" lon="7.47849">
        <ele>341.46895</ele>
        <time>2022-09-14T14:53:35.652Z</time>
      </trkpt>
      <trkpt lat="47.55182" lon="7.47918">
        <ele>343.582538</ele>
        <time>2022-09-14T14:54:03.138Z</time>
      </trkpt>
      <trkpt lat="47.55228" lon="7.4789">
        <ele>345.17258</ele>
        <time>2022-09-14T14:54:28.840Z</time>
      </trkpt>
      <trkpt lat="47.55348" lon="7.47805">
        <ele>355.281275</ele>
        <time>2022-09-14T14:55:56.000Z</time>
      </trkpt>
      <trkpt lat="47.55445" lon="7.47727">
        <ele>362.922333</ele>
        <time>2022-09-14T14:57:08.887Z</time>
      </trkpt>
      <trkpt lat="47.55439" lon="7.47686">
        <ele>364.702746</ele>
        <time>2022-09-14T14:57:26.287Z</time>
      </trkpt>
      <trkpt lat="47.55406" lon="7.47552">
        <ele>370.534081</ele>
        <time>2022-09-14T14:58:17.223Z</time>
      </trkpt>
      <trkpt lat="47.55383" lon="7.47453">
        <ele>372.435432</ele>
        <time>2022-09-14T14:58:46.854Z</time>
      </trkpt>
      <trkpt lat="47.55371" lon="7.47364">
        <ele>374.083206</ele>
        <time>2022-09-14T14:59:10.349Z</time>
      </trkpt>
      <trkpt lat="47.55336" lon="7.47196">
        <ele>376.69338</ele>
        <time>2022-09-14T14:59:52.969Z</time>
      </trkpt>
      <trkpt lat="47.55321" lon="7.47061">
        <ele>378.467413</ele>
        <time>2022-09-14T15:00:27.512Z</time>
      </trkpt>
      <trkpt lat="47.55386" lon="7.47015">
        <ele>380.272055</ele>
        <time>2022-09-14T15:00:54.874Z</time>
      </trkpt>
      <trkpt lat="47.55351" lon="7.46847">
        <ele>383.3974</ele>
        <time>2022-09-14T15:01:44.825Z</time>
      </trkpt>
      <trkpt lat="47.55354" lon="7.46837">
        <ele>383.561289</ele>
        <time>2022-09-14T15:01:47.736Z</time>
      </trkpt>
      <trkpt lat="47.55382" lon="7.46808">
        <ele>384.344502</ele>
        <time>2022-09-14T15:02:01.784Z</time>
      </trkpt>
      <trkpt lat="47.55403" lon="7.46745">
        <ele>385.432507</ele>
        <time>2022-09-14T15:02:20.237Z</time>
      </trkpt>
      <trkpt lat="47.55447" lon="7.46684">
        <ele>386.788751</ele>
        <time>2022-09-14T15:02:42.877Z</time>
      </trkpt>
      <trkpt lat="47.55496" lon="7.46651">
        <ele>387.82648</ele>
        <time>2022-09-14T15:03:02.950Z</time>
      </trkpt>
      <trkpt lat="47.55488" lon="7.46599">
        <ele>388.305608</ele>
        <time>2022-09-14T15:03:15.258Z</time>
      </trkpt>
      <trkpt lat="47.55475" lon="7.46554">
        <ele>388.755385</ele>
        <time>2022-09-14T15:03:26.092Z</time>
      </trkpt>
      <trkpt lat="47.55439" lon="7.4648">
        <ele>389.572031</ele>
        <time>2022-09-14T15:03:44.830Z</time>
      </trkpt>
      <trkpt lat="47.5542" lon="7.46408">
        <ele>390.48565</ele>
        <time>2022-09-14T15:04:01.735Z</time>
      </trkpt>
      <trkpt lat="47.55413" lon="7.46315">
        <ele>391.887808</ele>
        <time>2022-09-14T15:04:24.142Z</time>
      </trkpt>
      <trkpt lat="47.55412" lon="7.46213">
        <ele>393.424438</ele>
        <time>2022-09-14T15:04:51.115Z</time>
      </trkpt>
      <trkpt lat="47.55424" lon="7.45933">
        <ele>399.608819</ele>
        <time>2022-09-14T15:06:13.133Z</time>
      </trkpt>
      <trkpt lat="47.55423" lon="7.45775">
        <ele>403.319443</ele>
        <time>2022-09-14T15:06:59.333Z</time>
      </trkpt>
      <trkpt lat="47.55415" lon="7.45684">
        <ele>405.504687</ele>
        <time>2022-09-14T15:07:25.754Z</time>
      </trkpt>
      <trkpt lat="47.55372" lon="7.4538">
        <ele>413.766299</ele>
        <time>2022-09-14T15:09:01.578Z</time>
      </trkpt>
      <trkpt lat="47.55354" lon="7.45288">
        <ele>416.669278</ele>
        <time>2022-09-14T15:09:32.979Z</time>
      </trkpt>
      <trkpt lat="47.55342" lon="7.45233">
        <ele>418.442324</ele>
        <time>2022-09-14T15:09:52.112Z</time>
      </trkpt>
      <trkpt lat="47.55319" lon="7.45157">
        <ele>420.984986</ele>
        <time>2022-09-14T15:10:19.738Z</time>
      </trkpt>
      <trkpt lat="47.55281" lon="7.45079">
        <ele>423.791583</ele>
        <time>2022-09-14T15:10:51.261Z</time>
      </trkpt>
      <trkpt lat="47.55184" lon="7.44914">
        <ele>430.222641</ele>
        <time>2022-09-14T15:11:58.682Z</time>
      </trkpt>
      <trkpt lat="47.55174" lon="7.4486">
        <ele>432.244453</ele>
        <time>2022-09-14T15:12:18.362Z</time>
      </trkpt>
      <trkpt lat="47.55156" lon="7.4477">
        <ele>435.575163</ele>
        <time>2022-09-14T15:12:52.261Z</time>
      </trkpt>
      <trkpt lat="47.55138" lon="7.44687">
        <ele>438.645047</ele>
        <time>2022-09-14T15:13:22.335Z</time>
      </trkpt>
      <trkpt lat="47.55117" lon="7.44614">
        <ele>441.960336</ele>
        <time>2022-09-14T15:13:52.582Z</time>
      </trkpt>
      <trkpt lat="47.55067" lon="7.44487">
        <ele>448.144525</ele>
        <time>2022-09-14T15:14:50.925Z</time>
      </trkpt>
      <trkpt lat="47.5505" lon="7.44403">
        <ele>451.632363</ele>
        <time>2022-09-14T15:15:23.615Z</time>
      </trkpt>
      <trkpt lat="47.55048" lon="7.4435">
        <ele>453.667346</ele>
        <time>2022-09-14T15:15:43.003Z</time>
      </trkpt>
      <trkpt lat="47.55024" lon="7.44212">
        <ele>459.10606</ele>
        <time>2022-09-14T15:16:36.094Z</time>
      </trkpt>
      <trkpt lat="47.54991" lon="7.44103">
        <ele>462.0472</ele>
        <time>2022-09-14T15:17:14.473Z</time>
      </trkpt>
      <trkpt lat="47.5498" lon="7.4406">
        <ele>462.995374</ele>
        <time>2022-09-14T15:17:27.821Z</time>
      </trkpt>
      <trkpt lat="47.54969" lon="7.44036">
        <ele>463.587994</ele>
        <time>2022-09-14T15:17:35.736Z</time>
      </trkpt>
      <trkpt lat="47.54972" lon="7.44022">
        <ele>463.880959</ele>
        <time>2022-09-14T15:17:39.630Z</time>
      </trkpt>
      <trkpt lat="47.5497" lon="7.43994">
        <ele>464.472265</ele>
        <time>2022-09-14T15:17:47.075Z</time>
      </trkpt>
      <trkpt lat="47.54952" lon="7.43881">
        <ele>465.557538</ele>
        <time>2022-09-14T15:18:12.089Z</time>
      </trkpt>
      <trkpt lat="47.54943" lon="7.43831">
        <ele>465.476065</ele>
        <time>2022-09-14T15:18:21.096Z</time>
      </trkpt>
      <trkpt lat="47.54938" lon="7.43784">
        <ele>465.400977</ele>
        <time>2022-09-14T15:18:29.033Z</time>
      </trkpt>
      <trkpt lat="47.54925" lon="7.43742">
        <ele>465.328798</ele>
        <time>2022-09-14T15:18:36.166Z</time>
      </trkpt>
      <trkpt lat="47.54897" lon="7.43614">
        <ele>464.734643</ele>
        <time>2022-09-14T15:18:56.556Z</time>
      </trkpt>
      <trkpt lat="47.55059" lon="7.4345">
        <ele>462.162019</ele>
        <time>2022-09-14T15:19:42.395Z</time>
      </trkpt>
      <trkpt lat="47.55118" lon="7.43345">
        <ele>460.433132</ele>
        <time>2022-09-14T15:20:01.954Z</time>
      </trkpt>
      <trkpt lat="47.55253" lon="7.43167">
        <ele>454.895572</ele>
        <time>2022-09-14T15:20:36.639Z</time>
      </trkpt>
      <trkpt lat="47.55257" lon="7.43159">
        <ele>454.671667</ele>
        <time>2022-09-14T15:20:37.977Z</time>
      </trkpt>
      <trkpt lat="47.55312" lon="7.43048">
        <ele>452.835138</ele>
        <time>2022-09-14T15:20:56.538Z</time>
      </trkpt>
      <trkpt lat="47.55403" lon="7.4283">
        <ele>450.534674</ele>
        <time>2022-09-14T15:21:37.572Z</time>
      </trkpt>
      <trkpt lat="47.55443" lon="7.42729">
        <ele>449.9309</ele>
        <time>2022-09-14T15:21:57.331Z</time>
      </trkpt>
      <trkpt lat="47.55489" lon="7.42644">
        <ele>448.82399</ele>
        <time>2022-09-14T15:22:14.286Z</time>
      </trkpt>
      <trkpt lat="47.55495" lon="7.42635">
        <ele>448.663326</ele>
        <time>2022-09-14T15:22:16.000Z</time>
      </trkpt>
      <trkpt lat="47.55484" lon="7.42618">
        <ele>448.333279</ele>
        <time>2022-09-14T15:22:19.544Z</time>
      </trkpt>
      <trkpt lat="47.55463" lon="7.42557">
        <ele>447.405322</ele>
        <time>2022-09-14T15:22:29.153Z</time>
      </trkpt>
      <trkpt lat="47.55462" lon="7.4252">
        <ele>446.895503</ele>
        <time>2022-09-14T15:22:34.232Z</time>
      </trkpt>
      <trkpt lat="47.55467" lon="7.42484">
        <ele>446.398104</ele>
        <time>2022-09-14T15:22:39.135Z</time>
      </trkpt>
      <trkpt lat="47.55485" lon="7.42411">
        <ele>445.146629</ele>
        <time>2022-09-14T15:22:49.410Z</time>
      </trkpt>
      <trkpt lat="47.55535" lon="7.42255">
        <ele>442.155221</ele>
        <time>2022-09-14T15:23:12.776Z</time>
      </trkpt>
      <trkpt lat="47.55556" lon="7.42213">
        <ele>441.403517</ele>
        <time>2022-09-14T15:23:19.951Z</time>
      </trkpt>
      <trkpt lat="47.55647" lon="7.4206">
        <ele>440.465208</ele>
        <time>2022-09-14T15:23:53.613Z</time>
      </trkpt>
      <trkpt lat="47.55683" lon="7.41947">
        <ele>439.196464</ele>
        <time>2022-09-14T15:24:17.989Z</time>
      </trkpt>
      <trkpt lat="47.55745" lon="7.41779">
        <ele>436.527627</ele>
        <time>2022-09-14T15:24:44.685Z</time>
      </trkpt>
      <trkpt lat="47.55816" lon="7.41491">
        <ele>423.827692</ele>
        <time>2022-09-14T15:25:20.345Z</time>
      </trkpt>
      <trkpt lat="47.55828" lon="7.41463">
        <ele>422.718129</ele>
        <time>2022-09-14T15:25:24.097Z</time>
      </trkpt>
      <trkpt lat="47.55946" lon="7.41273">
        <ele>414.72355</ele>
        <time>2022-09-14T15:25:56.251Z</time>
      </trkpt>
      <trkpt lat="47.55944" lon="7.41247">
        <ele>414.220778</ele>
        <time>2022-09-14T15:25:59.703Z</time>
      </trkpt>
      <trkpt lat="47.55925" lon="7.4119">
        <ele>412.995257</ele>
        <time>2022-09-14T15:26:08.351Z</time>
      </trkpt>
      <trkpt lat="47.55925" lon="7.41174">
        <ele>412.682646</ele>
        <time>2022-09-14T15:26:10.628Z</time>
      </trkpt>
      <trkpt lat="47.55994" lon="7.41079">
        <ele>410.410398</ele>
        <time>2022-09-14T15:26:30.678Z</time>
      </trkpt>
      <trkpt lat="47.56051" lon="7.40958">
        <ele>408.996243</ele>
        <time>2022-09-14T15:26:53.141Z</time>
      </trkpt>
      <trkpt lat="47.56108" lon="7.40856">
        <ele>407.886837</ele>
        <time>2022-09-14T15:27:13.062Z</time>
      </trkpt>
      <trkpt lat="47.56118" lon="7.40836">
        <ele>407.709685</ele>
        <time>2022-09-14T15:27:16.987Z</time>
      </trkpt>
      <trkpt lat="47.56142" lon="7.40783">
        <ele>407.260873</ele>
        <time>2022-09-14T15:27:26.833Z</time>
      </trkpt>
      <trkpt lat="47.56164" lon="7.40706">
        <ele>406.678973</ele>
        <time>2022-09-14T15:27:39.833Z</time>
      </trkpt>
      <trkpt lat="47.56176" lon="7.40653">
        <ele>406.408024</ele>
        <time>2022-09-14T15:27:48.834Z</time>
      </trkpt>
      <trkpt lat="47.56187" lon="7.40574">
        <ele>406.390472</ele>
        <time>2022-09-14T15:28:02.535Z</time>
      </trkpt>
      <trkpt lat="47.56193" lon="7.40548">
        <ele>406.384675</ele>
        <time>2022-09-14T15:28:07.580Z</time>
      </trkpt>
      <trkpt lat="47.5621" lon="7.40507">
        <ele>406.374151</ele>
        <time>2022-09-14T15:28:16.573Z</time>
      </trkpt>
      <trkpt lat="47.5627" lon="7.40338">
        <ele>406.353296</ele>
        <time>2022-09-14T15:28:53.420Z</time>
      </trkpt>
      <trkpt lat="47.56284" lon="7.4034">
        <ele>406.353131</ele>
        <time>2022-09-14T15:28:57.367Z</time>
      </trkpt>
      <trkpt lat="47.56297" lon="7.40351">
        <ele>406.35294</ele>
        <time>2022-09-14T15:29:01.316Z</time>
      </trkpt>
      <trkpt lat="47.56303" lon="7.40307">
        <ele>406.352568</ele>
        <time>2022-09-14T15:29:09.853Z</time>
      </trkpt>
      <trkpt lat="47.563" lon="7.40293">
        <ele>406.35244</ele>
        <time>2022-09-14T15:29:12.431Z</time>
      </trkpt>
      <trkpt lat="47.56291" lon="7.40283">
        <ele>406.352307</ele>
        <time>2022-09-14T15:29:15.591Z</time>
      </trkpt>
      <trkpt lat="47.56332" lon="7.40204">
        <ele>406.023012</ele>
        <time>2022-09-14T15:29:32.334Z</time>
      </trkpt>
      <trkpt lat="47.56322" lon="7.40184">
        <ele>405.85888</ele>
        <time>2022-09-14T15:29:36.420Z</time>
      </trkpt>
      <trkpt lat="47.56325" lon="7.40173">
        <ele>405.779737</ele>
        <time>2022-09-14T15:29:38.217Z</time>
      </trkpt>
      <trkpt lat="47.56333" lon="7.40153">
        <ele>405.625648</ele>
        <time>2022-09-14T15:29:42.169Z</time>
      </trkpt>
      <trkpt lat="47.56389" lon="7.40028">
        <ele>404.62857</ele>
        <time>2022-09-14T15:30:05.922Z</time>
      </trkpt>
      <trkpt lat="47.56475" lon="7.3984">
        <ele>404.097668</ele>
        <time>2022-09-14T15:30:45.998Z</time>
      </trkpt>
      <trkpt lat="47.56522" lon="7.39745">
        <ele>404.143769</ele>
        <time>2022-09-14T15:31:09.608Z</time>
      </trkpt>
      <trkpt lat="47.56531" lon="7.39718">
        <ele>404.20542</ele>
        <time>2022-09-14T15:31:15.468Z</time>
      </trkpt>
      <trkpt lat="47.56535" lon="7.39679">
        <ele>404.286654</ele>
        <time>2022-09-14T15:31:23.286Z</time>
      </trkpt>
      <trkpt lat="47.56534" lon="7.39646">
        <ele>404.354091</ele>
        <time>2022-09-14T15:31:30.036Z</time>
      </trkpt>
      <trkpt lat="47.56526" lon="7.39554">
        <ele>404.546572</ele>
        <time>2022-09-14T15:31:48.527Z</time>
      </trkpt>
      <trkpt lat="47.56532" lon="7.39501">
        <ele>404.656318</ele>
        <time>2022-09-14T15:31:58.861Z</time>
      </trkpt>
      <trkpt lat="47.5654" lon="7.39471">
        <ele>404.721765</ele>
        <time>2022-09-14T15:32:04.871Z</time>
      </trkpt>
      <trkpt lat="47.56579" lon="7.394">
        <ele>404.90692</ele>
        <time>2022-09-14T15:32:22.256Z</time>
      </trkpt>
      <trkpt lat="47.56629" lon="7.39258">
        <ele>405.67881</ele>
        <time>2022-09-14T15:32:55.030Z</time>
      </trkpt>
      <trkpt lat="47.56673" lon="7.39086">
        <ele>407.219567</ele>
        <time>2022-09-14T15:33:38.449Z</time>
      </trkpt>
      <trkpt lat="47.56684" lon="7.39025">
        <ele>407.807114</ele>
        <time>2022-09-14T15:33:53.777Z</time>
      </trkpt>
      <trkpt lat="47.56692" lon="7.38949">
        <ele>408.536826</ele>
        <time>2022-09-14T15:34:12.451Z</time>
      </trkpt>
      <trkpt lat="47.56722" lon="7.38865">
        <ele>409.446356</ele>
        <time>2022-09-14T15:34:34.960Z</time>
      </trkpt>
      <trkpt lat="47.56763" lon="7.38702">
        <ele>410.222688</ele>
        <time>2022-09-14T15:35:11.902Z</time>
      </trkpt>
      <trkpt lat="47.56802" lon="7.38569">
        <ele>410.661057</ele>
        <time>2022-09-14T15:35:38.881Z</time>
      </trkpt>
      <trkpt lat="47.56846" lon="7.38464">
        <ele>411.495995</ele>
        <time>2022-09-14T15:36:02.074Z</time>
      </trkpt>
      <trkpt lat="47.56899" lon="7.38297">
        <ele>413.671039</ele>
        <time>2022-09-14T15:36:47.679Z</time>
      </trkpt>
      <trkpt lat="47.56953" lon="7.38106">
        <ele>418.793293</ele>
        <time>2022-09-14T15:37:54.537Z</time>
      </trkpt>
      <trkpt lat="47.56968" lon="7.38044">
        <ele>420.389837</ele>
        <time>2022-09-14T15:38:17.322Z</time>
      </trkpt>
      <trkpt lat="47.57051" lon="7.37618">
        <ele>430.145988</ele>
        <time>2022-09-14T15:40:27.534Z</time>
      </trkpt>
      <trkpt lat="47.57093" lon="7.3745">
        <ele>431.812398</ele>
        <time>2022-09-14T15:41:11.134Z</time>
      </trkpt>
      <trkpt lat="47.57121" lon="7.37279">
        <ele>432.170965</ele>
        <time>2022-09-14T15:41:44.205Z</time>
      </trkpt>
      <trkpt lat="47.57126" lon="7.37252">
        <ele>431.929558</ele>
        <time>2022-09-14T15:41:48.814Z</time>
      </trkpt>
      <trkpt lat="47.57191" lon="7.36976">
        <ele>429.53873</ele>
        <time>2022-09-14T15:42:31.021Z</time>
      </trkpt>
      <trkpt lat="47.573" lon="7.3659">
        <ele>427.509828</ele>
        <time>2022-09-14T15:43:39.490Z</time>
      </trkpt>
      <trkpt lat="47.57337" lon="7.36441">
        <ele>427.766079</ele>
        <time>2022-09-14T15:44:09.831Z</time>
      </trkpt>
      <trkpt lat="47.57357" lon="7.3628">
        <ele>428.215434</ele>
        <time>2022-09-14T15:44:41.820Z</time>
      </trkpt>
      <trkpt lat="47.57373" lon="7.36111">
        <ele>429.047695</ele>
        <time>2022-09-14T15:45:16.256Z</time>
      </trkpt>
      <trkpt lat="47.57511" lon="7.35619">
        <ele>431.342851</ele>
        <time>2022-09-14T15:47:10.745Z</time>
      </trkpt>
      <trkpt lat="47.57529" lon="7.35569">
        <ele>431.092645</ele>
        <time>2022-09-14T15:47:18.574Z</time>
      </trkpt>
      <trkpt lat="47.57581" lon="7.35359">
        <ele>425.407415</ele>
        <time>2022-09-14T15:47:46.755Z</time>
      </trkpt>
      <trkpt lat="47.57631" lon="7.35126">
        <ele>419.846542</ele>
        <time>2022-09-14T15:48:17.844Z</time>
      </trkpt>
      <trkpt lat="47.57652" lon="7.35056">
        <ele>418.565397</ele>
        <time>2022-09-14T15:48:29.108Z</time>
      </trkpt>
      <trkpt lat="47.57664" lon="7.3499">
        <ele>418.292575</ele>
        <time>2022-09-14T15:48:40.020Z</time>
      </trkpt>
      <trkpt lat="47.57687" lon="7.34929">
        <ele>418.018445</ele>
        <time>2022-09-14T15:48:52.097Z</time>
      </trkpt>
      <trkpt lat="47.57763" lon="7.34658">
        <ele>417.039744</ele>
        <time>2022-09-14T15:49:45.034Z</time>
      </trkpt>
      <trkpt lat="47.57876" lon="7.34401">
        <ele>414.740495</ele>
        <time>2022-09-14T15:50:30.979Z</time>
      </trkpt>
      <trkpt lat="47.57882" lon="7.34389">
        <ele>414.605395</ele>
        <time>2022-09-14T15:50:33.109Z</time>
      </trkpt>
      <trkpt lat="47.5801" lon="7.34128">
        <ele>412.237292</ele>
        <time>2022-09-14T15:51:22.895Z</time>
      </trkpt>
      <trkpt lat="47.58143" lon="7.33874">
        <ele>410.314832</ele>
        <time>2022-09-14T15:52:15.185Z</time>
      </trkpt>
      <trkpt lat="47.58064" lon="7.33773">
        <ele>409.006625</ele>
        <time>2022-09-14T15:52:39.277Z</time>
      </trkpt>
      <trkpt lat="47.58054" lon="7.33748">
        <ele>408.741343</ele>
        <time>2022-09-14T15:52:43.702Z</time>
      </trkpt>
      <trkpt lat="47.58065" lon="7.33649">
        <ele>407.407603</ele>
        <time>2022-09-14T15:52:58.702Z</time>
      </trkpt>
      <trkpt lat="47.58086" lon="7.33603">
        <ele>406.676139</ele>
        <time>2022-09-14T15:53:07.019Z</time>
      </trkpt>
      <trkpt lat="47.58091" lon="7.33526">
        <ele>405.645934</ele>
        <time>2022-09-14T15:53:18.729Z</time>
      </trkpt>
      <trkpt lat="47.58108" lon="7.3346">
        <ele>404.531241</ele>
        <time>2022-09-14T15:53:29.045Z</time>
      </trkpt>
      <trkpt lat="47.58148" lon="7.33367">
        <ele>402.577556</ele>
        <time>2022-09-14T15:53:44.774Z</time>
      </trkpt>
      <trkpt lat="47.58158" lon="7.33311">
        <ele>401.533191</ele>
        <time>2022-09-14T15:53:53.089Z</time>
      </trkpt>
      <trkpt lat="47.58169" lon="7.33239">
        <ele>400.250974</ele>
        <time>2022-09-14T15:54:03.311Z</time>
      </trkpt>
      <trkpt lat="47.58194" lon="7.33162">
        <ele>398.827641</ele>
        <time>2022-09-14T15:54:15.272Z</time>
      </trkpt>
      <trkpt lat="47.58205" lon="7.33141">
        <ele>398.385836</ele>
        <time>2022-09-14T15:54:18.966Z</time>
      </trkpt>
      <trkpt lat="47.58208" lon="7.33098">
        <ele>397.66037</ele>
        <time>2022-09-14T15:54:25.260Z</time>
      </trkpt>
      <trkpt lat="47.58216" lon="7.33084">
        <ele>397.356618</ele>
        <time>2022-09-14T15:54:27.898Z</time>
      </trkpt>
      <trkpt lat="47.58204" lon="7.33027">
        <ele>396.355385</ele>
        <time>2022-09-14T15:54:36.892Z</time>
      </trkpt>
      <trkpt lat="47.58204" lon="7.32908">
        <ele>395.459451</ele>
        <time>2022-09-14T15:54:55.507Z</time>
      </trkpt>
      <trkpt lat="47.58238" lon="7.32816">
        <ele>394.830451</ele>
        <time>2022-09-14T15:55:13.022Z</time>
      </trkpt>
      <trkpt lat="47.58297" lon="7.3269">
        <ele>394.857457</ele>
        <time>2022-09-14T15:55:41.900Z</time>
      </trkpt>
      <trkpt lat="47.58346" lon="7.32538">
        <ele>395.540843</ele>
        <time>2022-09-14T15:56:18.533Z</time>
      </trkpt>
      <trkpt lat="47.58356" lon="7.32479">
        <ele>396.085982</ele>
        <time>2022-09-14T15:56:32.669Z</time>
      </trkpt>
      <trkpt lat="47.58385" lon="7.32406">
        <ele>396.873739</ele>
        <time>2022-09-14T15:56:52.630Z</time>
      </trkpt>
      <trkpt lat="47.58452" lon="7.32263">
        <ele>398.181636</ele>
        <time>2022-09-14T15:57:33.375Z</time>
      </trkpt>
      <trkpt lat="47.58481" lon="7.32179">
        <ele>398.485168</ele>
        <time>2022-09-14T15:57:54.082Z</time>
      </trkpt>
      <trkpt lat="47.58512" lon="7.32041">
        <ele>398.621463</ele>
        <time>2022-09-14T15:58:21.286Z</time>
      </trkpt>
      <trkpt lat="47.58553" lon="7.31908">
        <ele>396.93049</ele>
        <time>2022-09-14T15:58:44.043Z</time>
      </trkpt>
      <trkpt lat="47.58591" lon="7.31946">
        <ele>396.147933</ele>
        <time>2022-09-14T15:58:53.466Z</time>
      </trkpt>
      <trkpt lat="47.586" lon="7.3193">
        <ele>395.912533</ele>
        <time>2022-09-14T15:58:56.404Z</time>
      </trkpt>
      <trkpt lat="47.58689" lon="7.31674">
        <ele>389.043109</ele>
        <time>2022-09-14T15:59:35.521Z</time>
      </trkpt>
      <trkpt lat="47.58736" lon="7.31561">
        <ele>385.235727</ele>
        <time>2022-09-14T15:59:52.754Z</time>
      </trkpt>
      <trkpt lat="47.58758" lon="7.31504">
        <ele>383.364187</ele>
        <time>2022-09-14T16:00:00.861Z</time>
      </trkpt>
      <trkpt lat="47.58775" lon="7.31358">
        <ele>380.281327</ele>
        <time>2022-09-14T16:00:19.832Z</time>
      </trkpt>
      <trkpt lat="47.58776" lon="7.31353">
        <ele>380.202896</ele>
        <time>2022-09-14T16:00:20.508Z</time>
      </trkpt>
      <trkpt lat="47.58778" lon="7.31342">
        <ele>380.027171</ele>
        <time>2022-09-14T16:00:22.017Z</time>
      </trkpt>
      <trkpt lat="47.58786" lon="7.31302">
        <ele>379.368266</ele>
        <time>2022-09-14T16:00:27.889Z</time>
      </trkpt>
      <trkpt lat="47.58799" lon="7.31264">
        <ele>378.705894</ele>
        <time>2022-09-14T16:00:34.176Z</time>
      </trkpt>
      <trkpt lat="47.58839" lon="7.3122">
        <ele>377.562508</ele>
        <time>2022-09-14T16:00:45.825Z</time>
      </trkpt>
      <trkpt lat="47.58863" lon="7.3117">
        <ele>377.432863</ele>
        <time>2022-09-14T16:00:56.068Z</time>
      </trkpt>
      <trkpt lat="47.58895" lon="7.31027">
        <ele>377.17861</ele>
        <time>2022-09-14T16:01:22.450Z</time>
      </trkpt>
      <trkpt lat="47.58917" lon="7.30963">
        <ele>377.11016</ele>
        <time>2022-09-14T16:01:35.313Z</time>
      </trkpt>
      <trkpt lat="47.58928" lon="7.30885">
        <ele>377.249113</ele>
        <time>2022-09-14T16:01:49.672Z</time>
      </trkpt>
      <trkpt lat="47.58942" lon="7.30782">
        <ele>377.432791</ele>
        <time>2022-09-14T16:02:09.519Z</time>
      </trkpt>
      <trkpt lat="47.58941" lon="7.30536">
        <ele>377.910087</ele>
        <time>2022-09-14T16:02:59.469Z</time>
      </trkpt>
      <trkpt lat="47.5895" lon="7.30379">
        <ele>376.983569</ele>
        <time>2022-09-14T16:03:25.925Z</time>
      </trkpt>
      <trkpt lat="47.58957" lon="7.30352">
        <ele>376.518984</ele>
        <time>2022-09-14T16:03:30.385Z</time>
      </trkpt>
      <trkpt lat="47.58967" lon="7.30309">
        <ele>375.810549</ele>
        <time>2022-09-14T16:03:36.765Z</time>
      </trkpt>
      <trkpt lat="47.58982" lon="7.30204">
        <ele>374.124369</ele>
        <time>2022-09-14T16:03:51.031Z</time>
      </trkpt>
      <trkpt lat="47.5899" lon="7.30112">
        <ele>371.127335</ele>
        <time>2022-09-14T16:04:02.249Z</time>
      </trkpt>
      <trkpt lat="47.59011" lon="7.30033">
        <ele>368.137157</ele>
        <time>2022-09-14T16:04:12.401Z</time>
      </trkpt>
      <trkpt lat="47.59017" lon="7.29992">
        <ele>366.641363</ele>
        <time>2022-09-14T16:04:17.433Z</time>
      </trkpt>
      <trkpt lat="47.59027" lon="7.29888">
        <ele>363.131258</ele>
        <time>2022-09-14T16:04:30.130Z</time>
      </trkpt>
      <trkpt lat="47.59045" lon="7.29851">
        <ele>361.73552</ele>
        <time>2022-09-14T16:04:35.677Z</time>
      </trkpt>
      <trkpt lat="47.59051" lon="7.29826">
        <ele>360.936595</ele>
        <time>2022-09-14T16:04:38.911Z</time>
      </trkpt>
      <trkpt lat="47.59066" lon="7.2968">
        <ele>356.388365</ele>
        <time>2022-09-14T16:04:57.461Z</time>
      </trkpt>
      <trkpt lat="47.59067" lon="7.29533">
        <ele>353.374455</ele>
        <time>2022-09-14T16:05:16.493Z</time>
      </trkpt>
      <trkpt lat="47.59083" lon="7.29466">
        <ele>351.9189</ele>
        <time>2022-09-14T16:05:26.146Z</time>
      </trkpt>
      <trkpt lat="47.59093" lon="7.29434">
        <ele>351.205738</ele>
        <time>2022-09-14T16:05:31.157Z</time>
      </trkpt>
      <trkpt lat="47.59096" lon="7.29423">
        <ele>350.96721</ele>
        <time>2022-09-14T16:05:32.818Z</time>
      </trkpt>
      <trkpt lat="47.59116" lon="7.29351">
        <ele>350.896802</ele>
        <time>2022-09-14T16:05:44.534Z</time>
      </trkpt>
      <trkpt lat="47.59117" lon="7.29306">
        <ele>350.909402</ele>
        <time>2022-09-14T16:05:52.178Z</time>
      </trkpt>
      <trkpt lat="47.59053" lon="7.28971">
        <ele>351.38308</ele>
        <time>2022-09-14T16:07:07.834Z</time>
      </trkpt>
      <trkpt lat="47.59037" lon="7.28871">
        <ele>350.746204</ele>
        <time>2022-09-14T16:07:23.547Z</time>
      </trkpt>
      <trkpt lat="47.58988" lon="7.28747">
        <ele>347.566614</ele>
        <time>2022-09-14T16:07:42.031Z</time>
      </trkpt>
      <trkpt lat="47.58958" lon="7.2862">
        <ele>344.625144</ele>
        <time>2022-09-14T16:07:59.016Z</time>
      </trkpt>
      <trkpt lat="47.58955" lon="7.28562">
        <ele>343.376436</ele>
        <time>2022-09-14T16:08:06.527Z</time>
      </trkpt>
      <trkpt lat="47.58948" lon="7.28531">
        <ele>342.657533</ele>
        <time>2022-09-14T16:08:10.911Z</time>
      </trkpt>
      <trkpt lat="47.58933" lon="7.28504">
        <ele>341.916345</ele>
        <time>2022-09-14T16:08:15.369Z</time>
      </trkpt>
      <trkpt lat="47.58845" lon="7.28391">
        <ele>338.504281</ele>
        <time>2022-09-14T16:08:39.367Z</time>
      </trkpt>
      <trkpt lat="47.58766" lon="7.28223">
        <ele>335.003684</ele>
        <time>2022-09-14T16:09:07.217Z</time>
      </trkpt>
      <trkpt lat="47.58739" lon="7.28152">
        <ele>333.994137</ele>
        <time>2022-09-14T16:09:18.219Z</time>
      </trkpt>
      <trkpt lat="47.58709" lon="7.28063">
        <ele>332.765896</ele>
        <time>2022-09-14T16:09:32.484Z</time>
      </trkpt>
      <trkpt lat="47.5869" lon="7.28004">
        <ele>331.948564</ele>
        <time>2022-09-14T16:09:42.682Z</time>
      </trkpt>
      <trkpt lat="47.58677" lon="7.27938">
        <ele>332.040463</ele>
        <time>2022-09-14T16:09:54.186Z</time>
      </trkpt>
      <trkpt lat="47.58668" lon="7.27856">
        <ele>332.202628</ele>
        <time>2022-09-14T16:10:09.594Z</time>
      </trkpt>
      <trkpt lat="47.58617" lon="7.27692">
        <ele>332.445778</ele>
        <time>2022-09-14T16:10:48.214Z</time>
      </trkpt>
      <trkpt lat="47.58607" lon="7.27647">
        <ele>332.4551</ele>
        <time>2022-09-14T16:10:58.265Z</time>
      </trkpt>
      <trkpt lat="47.58576" lon="7.27515">
        <ele>332.482942</ele>
        <time>2022-09-14T16:11:22.600Z</time>
      </trkpt>
      <trkpt lat="47.58552" lon="7.2746">
        <ele>331.636965</ele>
        <time>2022-09-14T16:11:32.728Z</time>
      </trkpt>
      <trkpt lat="47.58497" lon="7.2733">
        <ele>328.994318</ele>
        <time>2022-09-14T16:11:54.436Z</time>
      </trkpt>
      <trkpt lat="47.58472" lon="7.27296">
        <ele>328.1293</ele>
        <time>2022-09-14T16:12:00.906Z</time>
      </trkpt>
      <trkpt lat="47.58443" lon="7.27255">
        <ele>327.05005</ele>
        <time>2022-09-14T16:12:08.599Z</time>
      </trkpt>
      <trkpt lat="47.58442" lon="7.27236">
        <ele>326.713197</ele>
        <time>2022-09-14T16:12:10.990Z</time>
      </trkpt>
      <trkpt lat="47.58539" lon="7.26942">
        <ele>321.594947</ele>
        <time>2022-09-14T16:12:56.702Z</time>
      </trkpt>
      <trkpt lat="47.58537" lon="7.26936">
        <ele>321.509228</ele>
        <time>2022-09-14T16:12:57.815Z</time>
      </trkpt>
      <trkpt lat="47.58486" lon="7.2688">
        <ele>320.428097</ele>
        <time>2022-09-14T16:13:11.873Z</time>
      </trkpt>
      <trkpt lat="47.58482" lon="7.2686">
        <ele>320.179357</ele>
        <time>2022-09-14T16:13:15.156Z</time>
      </trkpt>
      <trkpt lat="47.58638" lon="7.26548">
        <ele>317.90635</ele>
        <time>2022-09-14T16:14:16.530Z</time>
      </trkpt>
      <trkpt lat="47.58661" lon="7.26476">
        <ele>317.59359</ele>
        <time>2022-09-14T16:14:29.651Z</time>
      </trkpt>
      <trkpt lat="47.58676" lon="7.26405">
        <ele>317.29907</ele>
        <time>2022-09-14T16:14:42.203Z</time>
      </trkpt>
      <trkpt lat="47.58678" lon="7.26399">
        <ele>317.270613</ele>
        <time>2022-09-14T16:14:43.431Z</time>
      </trkpt>
      <trkpt lat="47.58702" lon="7.26245">
        <ele>317.222034</ele>
        <time>2022-09-14T16:15:11.260Z</time>
      </trkpt>
      <trkpt lat="47.58697" lon="7.26172">
        <ele>317.204336</ele>
        <time>2022-09-14T16:15:24.822Z</time>
      </trkpt>
      <trkpt lat="47.58745" lon="7.26094">
        <ele>317.211399</ele>
        <time>2022-09-14T16:15:44.842Z</time>
      </trkpt>
      <trkpt lat="47.58795" lon="7.25969">
        <ele>317.246339</ele>
        <time>2022-09-14T16:16:11.092Z</time>
      </trkpt>
      <trkpt lat="47.58797" lon="7.25946">
        <ele>317.251983</ele>
        <time>2022-09-14T16:16:15.283Z</time>
      </trkpt>
      <trkpt lat="47.58794" lon="7.2594">
        <ele>317.253732</ele>
        <time>2022-09-14T16:16:16.478Z</time>
      </trkpt>
      <trkpt lat="47.58777" lon="7.25932">
        <ele>317.253596</ele>
        <time>2022-09-14T16:16:21.218Z</time>
      </trkpt>
      <trkpt lat="47.58774" lon="7.25931">
        <ele>317.237975</ele>
        <time>2022-09-14T16:16:22.251Z</time>
      </trkpt>
      <trkpt lat="47.58785" lon="7.25889">
        <ele>317.108096</ele>
        <time>2022-09-14T16:16:29.942Z</time>
      </trkpt>
      <trkpt lat="47.58811" lon="7.25827">
        <ele>316.898037</ele>
        <time>2022-09-14T16:16:42.216Z</time>
      </trkpt>
      <trkpt lat="47.58833" lon="7.25783">
        <ele>316.740656</ele>
        <time>2022-09-14T16:16:51.227Z</time>
      </trkpt>
      <trkpt lat="47.58889" lon="7.25702">
        <ele>316.431913</ele>
        <time>2022-09-14T16:17:10.280Z</time>
      </trkpt>
      <trkpt lat="47.5893" lon="7.25621">
        <ele>316.225053</ele>
        <time>2022-09-14T16:17:28.026Z</time>
      </trkpt>
      <trkpt lat="47.58964" lon="7.25538">
        <ele>316.02949</ele>
        <time>2022-09-14T16:17:44.763Z</time>
      </trkpt>
      <trkpt lat="47.58982" lon="7.25445">
        <ele>315.805073</ele>
        <time>2022-09-14T16:18:01.136Z</time>
      </trkpt>
      <trkpt lat="47.58957" lon="7.25427">
        <ele>315.701763</ele>
        <time>2022-09-14T16:18:08.022Z</time>
      </trkpt>
      <trkpt lat="47.5896" lon="7.25421">
        <ele>315.682814</ele>
        <time>2022-09-14T16:18:09.342Z</time>
      </trkpt>
      <trkpt lat="47.58961" lon="7.25419">
        <ele>315.677521</ele>
        <time>2022-09-14T16:18:09.714Z</time>
      </trkpt>
      <trkpt lat="47.58967" lon="7.25408">
        <ele>315.642903</ele>
        <time>2022-09-14T16:18:12.130Z</time>
      </trkpt>
      <trkpt lat="47.59027" lon="7.25326">
        <ele>315.337772</ele>
        <time>2022-09-14T16:18:33.987Z</time>
      </trkpt>
      <trkpt lat="47.59034" lon="7.253">
        <ele>315.271935</ele>
        <time>2022-09-14T16:18:38.731Z</time>
      </trkpt>
      <trkpt lat="47.59028" lon="7.25267">
        <ele>315.201382</ele>
        <time>2022-09-14T16:18:44.711Z</time>
      </trkpt>
      <trkpt lat="47.59013" lon="7.2522">
        <ele>315.095403</ele>
        <time>2022-09-14T16:18:53.596Z</time>
      </trkpt>
      <trkpt lat="47.58971" lon="7.25237">
        <ele>314.964625</ele>
        <time>2022-09-14T16:19:04.851Z</time>
      </trkpt>
      <trkpt lat="47.58971" lon="7.25223">
        <ele>314.935257</ele>
        <time>2022-09-14T16:19:07.347Z</time>
      </trkpt>
      <trkpt lat="47.59005" lon="7.25099">
        <ele>314.728367</ele>
        <time>2022-09-14T16:19:32.263Z</time>
      </trkpt>
      <trkpt lat="47.59014" lon="7.25067">
        <ele>314.719531</ele>
        <time>2022-09-14T16:19:38.721Z</time>
      </trkpt>
      <trkpt lat="47.5906" lon="7.24888">
        <ele>314.67046</ele>
        <time>2022-09-14T16:20:13.955Z</time>
      </trkpt>
      <trkpt lat="47.59056" lon="7.24882">
        <ele>314.667003</ele>
        <time>2022-09-14T16:20:15.748Z</time>
      </trkpt>
      <trkpt lat="47.59073" lon="7.24771">
        <ele>314.61091</ele>
        <time>2022-09-14T16:20:37.202Z</time>
      </trkpt>
      <trkpt lat="47.5908" lon="7.2457">
        <ele>314.320613</ele>
        <time>2022-09-14T16:21:11.875Z</time>
      </trkpt>
      <trkpt lat="47.59133" lon="7.24407">
        <ele>313.582627</ele>
        <time>2022-09-14T16:21:41.206Z</time>
      </trkpt>
      <trkpt lat="47.59275" lon="7.24017">
        <ele>311.264163</ele>
        <time>2022-09-14T16:22:53.019Z</time>
      </trkpt>
      <trkpt lat="47.59364" lon="7.23773">
        <ele>309.206935</ele>
        <time>2022-09-14T16:23:35.096Z</time>
      </trkpt>
      <trkpt lat="47.5947" lon="7.23541">
        <ele>307.148457</ele>
        <time>2022-09-14T16:24:18.092Z</time>
      </trkpt>
      <trkpt lat="47.59572" lon="7.23429">
        <ele>306.097484</ele>
        <time>2022-09-14T16:24:48.530Z</time>
      </trkpt>
      <trkpt lat="47.59693" lon="7.23251">
        <ele>304.86764</ele>
        <time>2022-09-14T16:25:29.956Z</time>
      </trkpt>
      <trkpt lat="47.59849" lon="7.23053">
        <ele>303.283994</ele>
        <time>2022-09-14T16:26:17.445Z</time>
      </trkpt>
      <trkpt lat="47.59893" lon="7.22966">
        <ele>302.836257</ele>
        <time>2022-09-14T16:26:35.414Z</time>
      </trkpt>
      <trkpt lat="47.60121" lon="7.22443">
        <ele>302.485902</ele>
        <time>2022-09-14T16:28:27.611Z</time>
      </trkpt>
      <trkpt lat="47.60127" lon="7.2243">
        <ele>302.463893</ele>
        <time>2022-09-14T16:28:30.109Z</time>
      </trkpt>
      <trkpt lat="47.60362" lon="7.219">
        <ele>301.601554</ele>
        <time>2022-09-14T16:30:19.698Z</time>
      </trkpt>
      <trkpt lat="47.60407" lon="7.21793">
        <ele>301.489904</ele>
        <time>2022-09-14T16:30:42.651Z</time>
      </trkpt>
      <trkpt lat="47.60444" lon="7.21698">
        <ele>301.42685</ele>
        <time>2022-09-14T16:31:03.039Z</time>
      </trkpt>
      <trkpt lat="47.60497" lon="7.21441">
        <ele>301.409586</ele>
        <time>2022-09-14T16:31:52.295Z</time>
      </trkpt>
      <trkpt lat="47.60516" lon="7.21367">
        <ele>301.446387</ele>
        <time>2022-09-14T16:32:07.464Z</time>
      </trkpt>
      <trkpt lat="47.60542" lon="7.21306">
        <ele>301.50899</ele>
        <time>2022-09-14T16:32:21.884Z</time>
      </trkpt>
      <trkpt lat="47.60573" lon="7.21263">
        <ele>301.643367</ele>
        <time>2022-09-14T16:32:34.720Z</time>
      </trkpt>
      <trkpt lat="47.60829" lon="7.21037">
        <ele>302.348615</ele>
        <time>2022-09-14T16:34:01.294Z</time>
      </trkpt>
      <trkpt lat="47.60865" lon="7.21016">
        <ele>302.263524</ele>
        <time>2022-09-14T16:34:11.573Z</time>
      </trkpt>
      <trkpt lat="47.60907" lon="7.21002">
        <ele>302.127948</ele>
        <time>2022-09-14T16:34:22.849Z</time>
      </trkpt>
      <trkpt lat="47.60936" lon="7.21001">
        <ele>302.038775</ele>
        <time>2022-09-14T16:34:30.148Z</time>
      </trkpt>
      <trkpt lat="47.61087" lon="7.21037">
        <ele>301.010706</ele>
        <time>2022-09-14T16:35:10.274Z</time>
      </trkpt>
      <trkpt lat="47.6112" lon="7.21051">
        <ele>300.654251</ele>
        <time>2022-09-14T16:35:18.858Z</time>
      </trkpt>
      <trkpt lat="47.61219" lon="7.21124">
        <ele>299.056418</ele>
        <time>2022-09-14T16:35:43.777Z</time>
      </trkpt>
      <trkpt lat="47.61293" lon="7.21268">
        <ele>296.419762</ele>
        <time>2022-09-14T16:36:09.743Z</time>
      </trkpt>
      <trkpt lat="47.61333" lon="7.21332">
        <ele>295.915438</ele>
        <time>2022-09-14T16:36:22.947Z</time>
      </trkpt>
      <trkpt lat="47.61336" lon="7.21315">
        <ele>295.875732</ele>
        <time>2022-09-14T16:36:25.712Z</time>
      </trkpt>
      <trkpt lat="47.61333" lon="7.21299">
        <ele>295.83785</ele>
        <time>2022-09-14T16:36:28.417Z</time>
      </trkpt>
      <trkpt lat="47.61339" lon="7.2128">
        <ele>295.790828</ele>
        <time>2022-09-14T16:36:31.929Z</time>
      </trkpt>
      <trkpt lat="47.61348" lon="7.21276">
        <ele>295.759284</ele>
        <time>2022-09-14T16:36:34.471Z</time>
      </trkpt>
      <trkpt lat="47.61375" lon="7.21279">
        <ele>295.666762</ele>
        <time>2022-09-14T16:36:42.460Z</time>
      </trkpt>
      <trkpt lat="47.61392" lon="7.21177">
        <ele>295.498885</ele>
        <time>2022-09-14T16:37:04.689Z</time>
      </trkpt>
      <trkpt lat="47.61424" lon="7.21075">
        <ele>295.908308</ele>
        <time>2022-09-14T16:37:29.225Z</time>
      </trkpt>
      <trkpt lat="47.61436" lon="7.21083">
        <ele>295.980084</ele>
        <time>2022-09-14T16:37:33.367Z</time>
      </trkpt>
      <trkpt lat="47.61482" lon="7.2107">
        <ele>296.234377</ele>
        <time>2022-09-14T16:37:47.830Z</time>
      </trkpt>
      <trkpt lat="47.61521" lon="7.21068">
        <ele>296.420395</ele>
        <time>2022-09-14T16:37:58.807Z</time>
      </trkpt>
      <trkpt lat="47.6159" lon="7.21078">
        <ele>296.300263</ele>
        <time>2022-09-14T16:38:16.482Z</time>
      </trkpt>
      <trkpt lat="47.61604" lon="7.21076">
        <ele>296.275739</ele>
        <time>2022-09-14T16:38:19.963Z</time>
      </trkpt>
      <trkpt lat="47.61611" lon="7.21081">
        <ele>296.261979</ele>
        <time>2022-09-14T16:38:21.954Z</time>
      </trkpt>
      <trkpt lat="47.61625" lon="7.21051">
        <ele>296.22017</ele>
        <time>2022-09-14T16:38:28.419Z</time>
      </trkpt>
      <trkpt lat="47.61624" lon="7.21003">
        <ele>296.164748</ele>
        <time>2022-09-14T16:38:37.146Z</time>
      </trkpt>
      <trkpt lat="47.61647" lon="7.20997">
        <ele>296.124295</ele>
        <time>2022-09-14T16:38:43.707Z</time>
      </trkpt>
      <trkpt lat="47.61657" lon="7.20988">
        <ele>296.187895</ele>
        <time>2022-09-14T16:38:46.974Z</time>
      </trkpt>
      <trkpt lat="47.61679" lon="7.20917">
        <ele>296.835461</ele>
        <time>2022-09-14T16:39:03.981Z</time>
      </trkpt>
      <trkpt lat="47.61694" lon="7.20891">
        <ele>297.114989</ele>
        <time>2022-09-14T16:39:12.104Z</time>
      </trkpt>
      <trkpt lat="47.61717" lon="7.20843">
        <ele>297.603932</ele>
        <time>2022-09-14T16:39:25.976Z</time>
      </trkpt>
      <trkpt lat="47.61718" lon="7.20799">
        <ele>297.959557</ele>
        <time>2022-09-14T16:39:36.281Z</time>
      </trkpt>
      <trkpt lat="47.61725" lon="7.20775">
        <ele>298.179115</ele>
        <time>2022-09-14T16:39:42.503Z</time>
      </trkpt>
      <trkpt lat="47.61753" lon="7.20777">
        <ele>298.607503</ele>
        <time>2022-09-14T16:39:53.157Z</time>
      </trkpt>
      <trkpt lat="47.61813" lon="7.20764">
        <ele>299.631361</ele>
        <time>2022-09-14T16:40:14.923Z</time>
      </trkpt>
      <trkpt lat="47.61849" lon="7.20792">
        <ele>300.332703</ele>
        <time>2022-09-14T16:40:29.971Z</time>
      </trkpt>
      <trkpt lat="47.61853" lon="7.20787">
        <ele>300.420316</ele>
        <time>2022-09-14T16:40:31.984Z</time>
      </trkpt>
      <trkpt lat="47.61875" lon="7.20765">
        <ele>300.876907</ele>
        <time>2022-09-14T16:40:41.285Z</time>
      </trkpt>
      <trkpt lat="47.61886" lon="7.20755">
        <ele>301.09213</ele>
        <time>2022-09-14T16:40:46.068Z</time>
      </trkpt>
      <trkpt lat="47.61881" lon="7.20738">
        <ele>301.309648</ele>
        <time>2022-09-14T16:40:50.134Z</time>
      </trkpt>
      <trkpt lat="47.61877" lon="7.20719">
        <ele>301.509348</ele>
        <time>2022-09-14T16:40:54.417Z</time>
      </trkpt>
      <trkpt lat="47.61885" lon="7.20707">
        <ele>301.676592</ele>
        <time>2022-09-14T16:40:58.701Z</time>
      </trkpt>
      <trkpt lat="47.61924" lon="7.20572">
        <ele>303.080663</ele>
        <time>2022-09-14T16:41:32.739Z</time>
      </trkpt>
      <trkpt lat="47.61938" lon="7.20526">
        <ele>303.558985</ele>
        <time>2022-09-14T16:41:44.408Z</time>
      </trkpt>
      <trkpt lat="47.61997" lon="7.20332">
        <ele>305.846423</ele>
        <time>2022-09-14T16:42:33.456Z</time>
      </trkpt>
      <trkpt lat="47.62062" lon="7.2012">
        <ele>309.529928</ele>
        <time>2022-09-14T16:43:33.298Z</time>
      </trkpt>
      <trkpt lat="47.62074" lon="7.20055">
        <ele>310.79848</ele>
        <time>2022-09-14T16:43:52.799Z</time>
      </trkpt>
      <trkpt lat="47.62081" lon="7.19897">
        <ele>314.454049</ele>
        <time>2022-09-14T16:44:42.836Z</time>
      </trkpt>
      <trkpt lat="47.62096" lon="7.19568">
        <ele>321.472256</ele>
        <time>2022-09-14T16:46:24.394Z</time>
      </trkpt>
      <trkpt lat="47.62103" lon="7.19433">
        <ele>323.017455</ele>
        <time>2022-09-14T16:46:54.822Z</time>
      </trkpt>
      <trkpt lat="47.62128" lon="7.19212">
        <ele>321.534087</ele>
        <time>2022-09-14T16:47:30.435Z</time>
      </trkpt>
      <trkpt lat="47.62135" lon="7.19025">
        <ele>318.511448</ele>
        <time>2022-09-14T16:47:56.673Z</time>
      </trkpt>
      <trkpt lat="47.62157" lon="7.18916">
        <ele>316.902408</ele>
        <time>2022-09-14T16:48:13.296Z</time>
      </trkpt>
      <trkpt lat="47.62178" lon="7.1883">
        <ele>316.489528</ele>
        <time>2022-09-14T16:48:27.292Z</time>
      </trkpt>
      <trkpt lat="47.62249" lon="7.18664">
        <ele>316.396134</ele>
        <time>2022-09-14T16:49:04.744Z</time>
      </trkpt>
      <trkpt lat="47.62288" lon="7.18533">
        <ele>318.265208</ele>
        <time>2022-09-14T16:49:42.647Z</time>
      </trkpt>
      <trkpt lat="47.62327" lon="7.18267">
        <ele>321.612014</ele>
        <time>2022-09-14T16:50:56.865Z</time>
      </trkpt>
      <trkpt lat="47.62332" lon="7.18227">
        <ele>322.097744</ele>
        <time>2022-09-14T16:51:05.466Z</time>
      </trkpt>
      <trkpt lat="47.62332" lon="7.18176">
        <ele>322.268916</ele>
        <time>2022-09-14T16:51:15.238Z</time>
      </trkpt>
      <trkpt lat="47.62323" lon="7.18021">
        <ele>320.42041</ele>
        <time>2022-09-14T16:51:39.161Z</time>
      </trkpt>
      <trkpt lat="47.62308" lon="7.17919">
        <ele>319.114861</ele>
        <time>2022-09-14T16:51:53.627Z</time>
      </trkpt>
      <trkpt lat="47.62288" lon="7.17815">
        <ele>317.039244</ele>
        <time>2022-09-14T16:52:08.965Z</time>
      </trkpt>
      <trkpt lat="47.62249" lon="7.17599">
        <ele>313.01703</ele>
        <time>2022-09-14T16:52:40.390Z</time>
      </trkpt>
      <trkpt lat="47.62241" lon="7.17543">
        <ele>312.079401</ele>
        <time>2022-09-14T16:52:48.750Z</time>
      </trkpt>
      <trkpt lat="47.62224" lon="7.17417">
        <ele>310.006341</ele>
        <time>2022-09-14T16:53:07.506Z</time>
      </trkpt>
      <trkpt lat="47.62207" lon="7.17194">
        <ele>307.920463</ele>
        <time>2022-09-14T16:53:42.577Z</time>
      </trkpt>
      <trkpt lat="47.62192" lon="7.17022">
        <ele>306.811162</ele>
        <time>2022-09-14T16:54:12.288Z</time>
      </trkpt>
      <trkpt lat="47.62191" lon="7.16895">
        <ele>306.130713</ele>
        <time>2022-09-14T16:54:33.587Z</time>
      </trkpt>
      <trkpt lat="47.62196" lon="7.16785">
        <ele>305.109392</ele>
        <time>2022-09-14T16:54:51.017Z</time>
      </trkpt>
      <trkpt lat="47.6223" lon="7.16576">
        <ele>303.21298</ele>
        <time>2022-09-14T16:55:24.096Z</time>
      </trkpt>
      <trkpt lat="47.62235" lon="7.16543">
        <ele>303.033694</ele>
        <time>2022-09-14T16:55:29.345Z</time>
      </trkpt>
      <trkpt lat="47.6227" lon="7.16463">
        <ele>302.513531</ele>
        <time>2022-09-14T16:55:45.193Z</time>
      </trkpt>
      <trkpt lat="47.6232" lon="7.16299">
        <ele>301.922415</ele>
        <time>2022-09-14T16:56:17.873Z</time>
      </trkpt>
      <trkpt lat="47.62365" lon="7.16155">
        <ele>301.758589</ele>
        <time>2022-09-14T16:56:47.686Z</time>
      </trkpt>
      <trkpt lat="47.62328" lon="7.16137">
        <ele>301.616171</ele>
        <time>2022-09-14T16:56:57.542Z</time>
      </trkpt>
      <trkpt lat="47.62315" lon="7.1612">
        <ele>301.530176</ele>
        <time>2022-09-14T16:57:01.902Z</time>
      </trkpt>
      <trkpt lat="47.62315" lon="7.16099">
        <ele>301.462116</ele>
        <time>2022-09-14T16:57:05.477Z</time>
      </trkpt>
      <trkpt lat="47.6233" lon="7.16043">
        <ele>301.262685</ele>
        <time>2022-09-14T16:57:15.627Z</time>
      </trkpt>
      <trkpt lat="47.62329" lon="7.16025">
        <ele>301.203166</ele>
        <time>2022-09-14T16:57:18.486Z</time>
      </trkpt>
      <trkpt lat="47.62283" lon="7.15943">
        <ele>300.850689</ele>
        <time>2022-09-14T16:57:35.641Z</time>
      </trkpt>
      <trkpt lat="47.6228" lon="7.1593">
        <ele>300.764534</ele>
        <time>2022-09-14T16:57:37.933Z</time>
      </trkpt>
      <trkpt lat="47.62281" lon="7.15915">
        <ele>300.671845</ele>
        <time>2022-09-14T16:57:40.398Z</time>
      </trkpt>
      <trkpt lat="47.62344" lon="7.15814">
        <ele>299.828613</ele>
        <time>2022-09-14T16:58:02.231Z</time>
      </trkpt>
      <trkpt lat="47.62412" lon="7.15671">
        <ele>298.80254</ele>
        <time>2022-09-14T16:58:29.415Z</time>
      </trkpt>
      <trkpt lat="47.62459" lon="7.15563">
        <ele>298.076468</ele>
        <time>2022-09-14T16:58:50.086Z</time>
      </trkpt>
      <trkpt lat="47.62524" lon="7.15415">
        <ele>297.388082</ele>
        <time>2022-09-14T16:59:18.761Z</time>
      </trkpt>
      <trkpt lat="47.62535" lon="7.1539">
        <ele>297.300243</ele>
        <time>2022-09-14T16:59:23.639Z</time>
      </trkpt>
      <trkpt lat="47.62563" lon="7.15332">
        <ele>297.088207</ele>
        <time>2022-09-14T16:59:35.592Z</time>
      </trkpt>
      <trkpt lat="47.62787" lon="7.14874">
        <ele>297.150626</ele>
        <time>2022-09-14T17:01:17.407Z</time>
      </trkpt>
      <trkpt lat="47.62781" lon="7.14866">
        <ele>297.162583</ele>
        <time>2022-09-14T17:01:21.662Z</time>
      </trkpt>
      <trkpt lat="47.62783" lon="7.14849">
        <ele>297.217802</ele>
        <time>2022-09-14T17:01:26.974Z</time>
      </trkpt>
      <trkpt lat="47.62818" lon="7.14793">
        <ele>297.600531</ele>
        <time>2022-09-14T17:01:52.072Z</time>
      </trkpt>
      <trkpt lat="47.62826" lon="7.14769">
        <ele>297.732206</ele>
        <time>2022-09-14T17:02:00.965Z</time>
      </trkpt>
      <trkpt lat="47.6283" lon="7.14736">
        <ele>297.896947</ele>
        <time>2022-09-14T17:02:12.075Z</time>
      </trkpt>
      <trkpt lat="47.62836" lon="7.14657">
        <ele>298.291898</ele>
        <time>2022-09-14T17:02:38.490Z</time>
      </trkpt>
      <trkpt lat="47.62838" lon="7.14423">
        <ele>298.597195</ele>
        <time>2022-09-14T17:03:50.554Z</time>
      </trkpt>
      <trkpt lat="47.62848" lon="7.14364">
        <ele>298.629097</ele>
        <time>2022-09-14T17:04:08.053Z</time>
      </trkpt>
      <trkpt lat="47.62917" lon="7.14233">
        <ele>298.650823</ele>
        <time>2022-09-14T17:04:55.599Z</time>
      </trkpt>
      <trkpt lat="47.62995" lon="7.141">
        <ele>299.214774</ele>
        <time>2022-09-14T17:05:51.687Z</time>
      </trkpt>
      <trkpt lat="47.63011" lon="7.14102">
        <ele>299.427771</ele>
        <time>2022-09-14T17:06:00.023Z</time>
      </trkpt>
      <trkpt lat="47.63028" lon="7.14024">
        <ele>300.150291</ele>
        <time>2022-09-14T17:06:18.909Z</time>
      </trkpt>
      <trkpt lat="47.6303" lon="7.14016">
        <ele>300.224618</ele>
        <time>2022-09-14T17:06:20.940Z</time>
      </trkpt>
      <trkpt lat="47.63132" lon="7.14053">
        <ele>301.732474</ele>
        <time>2022-09-14T17:06:58.655Z</time>
      </trkpt>
      <trkpt lat="47.63184" lon="7.14014">
        <ele>302.682066</ele>
        <time>2022-09-14T17:07:18.240Z</time>
      </trkpt>
      <trkpt lat="47.63228" lon="7.13963">
        <ele>303.593581</ele>
        <time>2022-09-14T17:07:37.397Z</time>
      </trkpt>
      <trkpt lat="47.6332" lon="7.1391">
        <ele>306.573143</ele>
        <time>2022-09-14T17:08:17.040Z</time>
      </trkpt>
      <trkpt lat="47.63349" lon="7.13871">
        <ele>307.891791</ele>
        <time>2022-09-14T17:08:35.010Z</time>
      </trkpt>
      <trkpt lat="47.63406" lon="7.13735">
        <ele>311.298694</ele>
        <time>2022-09-14T17:09:28.488Z</time>
      </trkpt>
      <trkpt lat="47.63444" lon="7.13609">
        <ele>313.989695</ele>
        <time>2022-09-14T17:10:09.547Z</time>
      </trkpt>
      <trkpt lat="47.63507" lon="7.13469">
        <ele>314.120016</ele>
        <time>2022-09-14T17:10:42.395Z</time>
      </trkpt>
      <trkpt lat="47.63507" lon="7.13443">
        <ele>313.860348</ele>
        <time>2022-09-14T17:10:46.248Z</time>
      </trkpt>
      <trkpt lat="47.63528" lon="7.13348">
        <ele>312.880031</ele>
        <time>2022-09-14T17:11:00.519Z</time>
      </trkpt>
      <trkpt lat="47.63555" lon="7.13272">
        <ele>311.640219</ele>
        <time>2022-09-14T17:11:12.406Z</time>
      </trkpt>
      <trkpt lat="47.6359" lon="7.13179">
        <ele>309.800997</ele>
        <time>2022-09-14T17:11:27.126Z</time>
      </trkpt>
      <trkpt lat="47.63632" lon="7.12962">
        <ele>307.349337</ele>
        <time>2022-09-14T17:12:01.149Z</time>
      </trkpt>
      <trkpt lat="47.63668" lon="7.12821">
        <ele>306.619389</ele>
        <time>2022-09-14T17:12:29.276Z</time>
      </trkpt>
      <trkpt lat="47.63701" lon="7.12728">
        <ele>306.815904</ele>
        <time>2022-09-14T17:12:52.111Z</time>
      </trkpt>
      <trkpt lat="47.63718" lon="7.12693">
        <ele>306.896202</ele>
        <time>2022-09-14T17:13:01.650Z</time>
      </trkpt>
      <trkpt lat="47.63724" lon="7.127">
        <ele>306.917845</ele>
        <time>2022-09-14T17:13:03.825Z</time>
      </trkpt>
      <trkpt lat="47.63733" lon="7.12679">
        <ele>306.964425</ele>
        <time>2022-09-14T17:13:09.089Z</time>
      </trkpt>
      <trkpt lat="47.63734" lon="7.12659">
        <ele>307.00127</ele>
        <time>2022-09-14T17:13:13.005Z</time>
      </trkpt>
      <trkpt lat="47.63747" lon="7.12628">
        <ele>307.069427</ele>
        <time>2022-09-14T17:13:19.710Z</time>
      </trkpt>
      <trkpt lat="47.63818" lon="7.12523">
        <ele>305.195962</ele>
        <time>2022-09-14T17:13:43.486Z</time>
      </trkpt>
      <trkpt lat="47.63923" lon="7.12402">
        <ele>301.805554</ele>
        <time>2022-09-14T17:14:10.479Z</time>
      </trkpt>
      <trkpt lat="47.63961" lon="7.12393">
        <ele>300.579128</ele>
        <time>2022-09-14T17:14:17.971Z</time>
      </trkpt>
      <trkpt lat="47.63973" lon="7.12383">
        <ele>300.13179</ele>
        <time>2022-09-14T17:14:20.632Z</time>
      </trkpt>
      <trkpt lat="47.64059" lon="7.1224">
        <ele>296.738663</ele>
        <time>2022-09-14T17:14:47.875Z</time>
      </trkpt>
      <trkpt lat="47.64077" lon="7.12227">
        <ele>296.500048</ele>
        <time>2022-09-14T17:14:52.234Z</time>
      </trkpt>
      <trkpt lat="47.64105" lon="7.12226">
        <ele>296.175083</ele>
        <time>2022-09-14T17:14:58.842Z</time>
      </trkpt>
      <trkpt lat="47.64118" lon="7.12219">
        <ele>296.005257</ele>
        <time>2022-09-14T17:15:02.392Z</time>
      </trkpt>
      <trkpt lat="47.64097" lon="7.12182">
        <ele>295.616629</ele>
        <time>2022-09-14T17:15:10.279Z</time>
      </trkpt>
      <trkpt lat="47.64045" lon="7.12129">
        <ele>295.137496</ele>
        <time>2022-09-14T17:15:26.485Z</time>
      </trkpt>
      <trkpt lat="47.6357" lon="7.11575">
        <ele>298.337479</ele>
        <time>2022-09-14T17:18:23.948Z</time>
      </trkpt>
      <trkpt lat="47.63557" lon="7.11545">
        <ele>298.482084</ele>
        <time>2022-09-14T17:18:31.264Z</time>
      </trkpt>
      <trkpt lat="47.63557" lon="7.11441">
        <ele>298.907549</ele>
        <time>2022-09-14T17:18:52.171Z</time>
      </trkpt>
      <trkpt lat="47.63563" lon="7.11378">
        <ele>299.085801</ele>
        <time>2022-09-14T17:19:05.019Z</time>
      </trkpt>
      <trkpt lat="47.63561" lon="7.1131">
        <ele>299.258916</ele>
        <time>2022-09-14T17:19:18.104Z</time>
      </trkpt>
      <trkpt lat="47.63566" lon="7.11231">
        <ele>299.465161</ele>
        <time>2022-09-14T17:19:32.873Z</time>
      </trkpt>
      <trkpt lat="47.63566" lon="7.11187">
        <ele>299.579071</ele>
        <time>2022-09-14T17:19:41.010Z</time>
      </trkpt>
      <trkpt lat="47.63562" lon="7.11144">
        <ele>299.75032</ele>
        <time>2022-09-14T17:19:49.067Z</time>
      </trkpt>
      <trkpt lat="47.63563" lon="7.10995">
        <ele>300.511143</ele>
        <time>2022-09-14T17:20:18.595Z</time>
      </trkpt>
      <trkpt lat="47.63549" lon="7.10885">
        <ele>301.196126</ele>
        <time>2022-09-14T17:20:43.084Z</time>
      </trkpt>
      <trkpt lat="47.63507" lon="7.10783">
        <ele>302.528104</ele>
        <time>2022-09-14T17:21:11.075Z</time>
      </trkpt>
      <trkpt lat="47.63468" lon="7.10718">
        <ele>303.496352</ele>
        <time>2022-09-14T17:21:32.013Z</time>
      </trkpt>
      <trkpt lat="47.63459" lon="7.10693">
        <ele>303.806587</ele>
        <time>2022-09-14T17:21:38.616Z</time>
      </trkpt>
      <trkpt lat="47.63419" lon="7.10635">
        <ele>304.746069</ele>
        <time>2022-09-14T17:21:58.372Z</time>
      </trkpt>
      <trkpt lat="47.63296" lon="7.10433">
        <ele>307.508619</ele>
        <time>2022-09-14T17:23:01.567Z</time>
      </trkpt>
      <trkpt lat="47.63258" lon="7.10354">
        <ele>308.223945</ele>
        <time>2022-09-14T17:23:22.822Z</time>
      </trkpt>
      <trkpt lat="47.63215" lon="7.10214">
        <ele>308.989808</ele>
        <time>2022-09-14T17:23:53.478Z</time>
      </trkpt>
      <trkpt lat="47.6319" lon="7.10117">
        <ele>309.094483</ele>
        <time>2022-09-14T17:24:12.624Z</time>
      </trkpt>
      <trkpt lat="47.63183" lon="7.10071">
        <ele>309.143072</ele>
        <time>2022-09-14T17:24:21.181Z</time>
      </trkpt>
      <trkpt lat="47.63179" lon="7.09982">
        <ele>309.14727</ele>
        <time>2022-09-14T17:24:36.535Z</time>
      </trkpt>
      <trkpt lat="47.63183" lon="7.0989">
        <ele>308.986262</ele>
        <time>2022-09-14T17:24:52.468Z</time>
      </trkpt>
      <trkpt lat="47.63197" lon="7.0982">
        <ele>308.859688</ele>
        <time>2022-09-14T17:25:05.138Z</time>
      </trkpt>
      <trkpt lat="47.63211" lon="7.09782">
        <ele>308.786088</ele>
        <time>2022-09-14T17:25:12.497Z</time>
      </trkpt>
      <trkpt lat="47.63404" lon="7.09355">
        <ele>307.719567</ele>
        <time>2022-09-14T17:26:40.143Z</time>
      </trkpt>
      <trkpt lat="47.63441" lon="7.09267">
        <ele>307.597785</ele>
        <time>2022-09-14T17:26:57.913Z</time>
      </trkpt>
      <trkpt lat="47.6347" lon="7.0917">
        <ele>307.549217</ele>
        <time>2022-09-14T17:27:16.641Z</time>
      </trkpt>
      <trkpt lat="47.63482" lon="7.09145">
        <ele>307.535254</ele>
        <time>2022-09-14T17:27:22.122Z</time>
      </trkpt>
      <trkpt lat="47.63492" lon="7.09094">
        <ele>307.511113</ele>
        <time>2022-09-14T17:27:31.856Z</time>
      </trkpt>
      <trkpt lat="47.63538" lon="7.08886">
        <ele>307.983245</ele>
        <time>2022-09-14T17:28:13.436Z</time>
      </trkpt>
      <trkpt lat="47.63546" lon="7.08833">
        <ele>308.115804</ele>
        <time>2022-09-14T17:28:24.153Z</time>
      </trkpt>
      <trkpt lat="47.63554" lon="7.08714">
        <ele>308.675404</ele>
        <time>2022-09-14T17:28:47.421Z</time>
      </trkpt>
      <trkpt lat="47.63553" lon="7.08662">
        <ele>308.935611</ele>
        <time>2022-09-14T17:28:57.827Z</time>
      </trkpt>
      <trkpt lat="47.63547" lon="7.08539">
        <ele>309.617815</ele>
        <time>2022-09-14T17:29:23.806Z</time>
      </trkpt>
      <trkpt lat="47.63535" lon="7.08472">
        <ele>310.282989</ele>
        <time>2022-09-14T17:29:39.333Z</time>
      </trkpt>
      <trkpt lat="47.63511" lon="7.08275">
        <ele>312.190726</ele>
        <time>2022-09-14T17:30:25.998Z</time>
      </trkpt>
      <trkpt lat="47.63488" lon="7.08041">
        <ele>314.145579</ele>
        <time>2022-09-14T17:31:17.977Z</time>
      </trkpt>
      <trkpt lat="47.63475" lon="7.07958">
        <ele>314.601403</ele>
        <time>2022-09-14T17:31:35.217Z</time>
      </trkpt>
      <trkpt lat="47.63424" lon="7.07496">
        <ele>316.704067</ele>
        <time>2022-09-14T17:33:08.787Z</time>
      </trkpt>
      <trkpt lat="47.63408" lon="7.07401">
        <ele>317.224742</ele>
        <time>2022-09-14T17:33:28.701Z</time>
      </trkpt>
      <trkpt lat="47.63389" lon="7.07237">
        <ele>318.133204</ele>
        <time>2022-09-14T17:34:03.037Z</time>
      </trkpt>
      <trkpt lat="47.63389" lon="7.07214">
        <ele>318.398711</ele>
        <time>2022-09-14T17:34:07.809Z</time>
      </trkpt>
      <trkpt lat="47.63377" lon="7.07153">
        <ele>319.118514</ele>
        <time>2022-09-14T17:34:21.337Z</time>
      </trkpt>
      <trkpt lat="47.6336" lon="7.06978">
        <ele>321.157225</ele>
        <time>2022-09-14T17:35:04.335Z</time>
      </trkpt>
      <trkpt lat="47.63348" lon="7.06913">
        <ele>322.535363</ele>
        <time>2022-09-14T17:35:22.367Z</time>
      </trkpt>
      <trkpt lat="47.63331" lon="7.06746">
        <ele>326.046333</ele>
        <time>2022-09-14T17:36:11.857Z</time>
      </trkpt>
      <trkpt lat="47.63304" lon="7.06554">
        <ele>329.260408</ele>
        <time>2022-09-14T17:37:04.901Z</time>
      </trkpt>
      <trkpt lat="47.63277" lon="7.06323">
        <ele>332.235991</ele>
        <time>2022-09-14T17:37:57.970Z</time>
      </trkpt>
      <trkpt lat="47.63278" lon="7.06306">
        <ele>332.422465</ele>
        <time>2022-09-14T17:38:01.688Z</time>
      </trkpt>
      <trkpt lat="47.63236" lon="7.05984">
        <ele>336.317532</ele>
        <time>2022-09-14T17:39:19.177Z</time>
      </trkpt>
      <trkpt lat="47.63224" lon="7.05927">
        <ele>337.090033</ele>
        <time>2022-09-14T17:39:34.593Z</time>
      </trkpt>
      <trkpt lat="47.63206" lon="7.05877">
        <ele>337.998011</ele>
        <time>2022-09-14T17:39:48.931Z</time>
      </trkpt>
      <trkpt lat="47.63175" lon="7.05826">
        <ele>339.071467</ele>
        <time>2022-09-14T17:40:06.161Z</time>
      </trkpt>
      <trkpt lat="47.63141" lon="7.05762">
        <ele>340.361901</ele>
        <time>2022-09-14T17:40:26.717Z</time>
      </trkpt>
      <trkpt lat="47.6314" lon="7.05739">
        <ele>340.733653</ele>
        <time>2022-09-14T17:40:32.582Z</time>
      </trkpt>
      <trkpt lat="47.63127" lon="7.05714">
        <ele>341.229395</ele>
        <time>2022-09-14T17:40:41.125Z</time>
      </trkpt>
      <trkpt lat="47.63118" lon="7.057">
        <ele>341.573002</ele>
        <time>2022-09-14T17:40:46.066Z</time>
      </trkpt>
      <trkpt lat="47.63098" lon="7.05687">
        <ele>342.167697</ele>
        <time>2022-09-14T17:40:55.397Z</time>
      </trkpt>
      <trkpt lat="47.63086" lon="7.0567">
        <ele>342.614992</ele>
        <time>2022-09-14T17:41:02.099Z</time>
      </trkpt>
      <trkpt lat="47.63081" lon="7.05654">
        <ele>342.932916</ele>
        <time>2022-09-14T17:41:07.092Z</time>
      </trkpt>
      <trkpt lat="47.63078" lon="7.05648">
        <ele>343.071124</ele>
        <time>2022-09-14T17:41:09.297Z</time>
      </trkpt>
      <trkpt lat="47.62873" lon="7.05269">
        <ele>351.149316</ele>
        <time>2022-09-14T17:43:45.801Z</time>
      </trkpt>
      <trkpt lat="47.62747" lon="7.05046">
        <ele>352.450565</ele>
        <time>2022-09-14T17:45:02.654Z</time>
      </trkpt>
      <trkpt lat="47.62455" lon="7.05244">
        <ele>347.968649</ele>
        <time>2022-09-14T17:46:11.765Z</time>
      </trkpt>
      <trkpt lat="47.62419" lon="7.05266">
        <ele>347.564154</ele>
        <time>2022-09-14T17:46:20.521Z</time>
      </trkpt>
      <trkpt lat="47.62394" lon="7.05259">
        <ele>347.311793</ele>
        <time>2022-09-14T17:46:26.242Z</time>
      </trkpt>
      <trkpt lat="47.62423" lon="7.05143">
        <ele>346.459112</ele>
        <time>2022-09-14T17:46:46.802Z</time>
      </trkpt>
      <trkpt lat="47.62425" lon="7.05109">
        <ele>346.247728</ele>
        <time>2022-09-14T17:46:52.841Z</time>
      </trkpt>
      <trkpt lat="47.6236" lon="7.04776">
        <ele>345.231372</ele>
        <time>2022-09-14T17:47:53.308Z</time>
      </trkpt>
      <trkpt lat="47.62336" lon="7.04652">
        <ele>345.01444</ele>
        <time>2022-09-14T17:48:15.322Z</time>
      </trkpt>
      <trkpt lat="47.62308" lon="7.04551">
        <ele>345.121325</ele>
        <time>2022-09-14T17:48:35.353Z</time>
      </trkpt>
      <trkpt lat="47.62307" lon="7.04532">
        <ele>345.188164</ele>
        <time>2022-09-14T17:48:39.172Z</time>
      </trkpt>
      <trkpt lat="47.62316" lon="7.04507">
        <ele>345.286963</ele>
        <time>2022-09-14T17:48:44.765Z</time>
      </trkpt>
      <trkpt lat="47.62375" lon="7.04448">
        <ele>345.64948</ele>
        <time>2022-09-14T17:49:06.192Z</time>
      </trkpt>
      <trkpt lat="47.62387" lon="7.04415">
        <ele>345.778711</ele>
        <time>2022-09-14T17:49:13.843Z</time>
      </trkpt>
      <trkpt lat="47.62385" lon="7.04398">
        <ele>345.83779</ele>
        <time>2022-09-14T17:49:18.229Z</time>
      </trkpt>
      <trkpt lat="47.6234" lon="7.04308">
        <ele>345.588355</ele>
        <time>2022-09-14T17:49:46.598Z</time>
      </trkpt>
      <trkpt lat="47.62055" lon="7.03797">
        <ele>343.735552</ele>
        <time>2022-09-14T17:52:12.452Z</time>
      </trkpt>
      <trkpt lat="47.62049" lon="7.03785">
        <ele>343.68428</ele>
        <time>2022-09-14T17:52:15.007Z</time>
      </trkpt>
      <trkpt lat="47.6204" lon="7.03769">
        <ele>343.636046</ele>
        <time>2022-09-14T17:52:19.578Z</time>
      </trkpt>
      <trkpt lat="47.61912" lon="7.03539">
        <ele>343.691501</ele>
        <time>2022-09-14T17:53:30.970Z</time>
      </trkpt>
      <trkpt lat="47.61863" lon="7.03448">
        <ele>343.896217</ele>
        <time>2022-09-14T17:54:00.205Z</time>
      </trkpt>
      <trkpt lat="47.61858" lon="7.03439">
        <ele>343.915459</ele>
        <time>2022-09-14T17:54:02.921Z</time>
      </trkpt>
      <trkpt lat="47.61854" lon="7.03432">
        <ele>343.931632</ele>
        <time>2022-09-14T17:54:05.224Z</time>
      </trkpt>
      <trkpt lat="47.61628" lon="7.03021">
        <ele>344.505447</ele>
        <time>2022-09-14T17:56:13.928Z</time>
      </trkpt>
      <trkpt lat="47.61554" lon="7.02905">
        <ele>344.353061</ele>
        <time>2022-09-14T17:56:42.422Z</time>
      </trkpt>
      <trkpt lat="47.61418" lon="7.02782">
        <ele>343.540288</ele>
        <time>2022-09-14T17:57:21.140Z</time>
      </trkpt>
      <trkpt lat="47.61302" lon="7.02678">
        <ele>342.530014</ele>
        <time>2022-09-14T17:57:52.856Z</time>
      </trkpt>
      <trkpt lat="47.61049" lon="7.02471">
        <ele>341.514184</ele>
        <time>2022-09-14T17:59:05.119Z</time>
      </trkpt>
      <trkpt lat="47.6097" lon="7.02378">
        <ele>341.507871</ele>
        <time>2022-09-14T17:59:32.837Z</time>
      </trkpt>
      <trkpt lat="47.60935" lon="7.02329">
        <ele>341.770469</ele>
        <time>2022-09-14T17:59:46.985Z</time>
      </trkpt>
      <trkpt lat="47.60886" lon="7.02236">
        <ele>342.203811</ele>
        <time>2022-09-14T18:00:10.677Z</time>
      </trkpt>
      <trkpt lat="47.60859" lon="7.02189">
        <ele>342.429329</ele>
        <time>2022-09-14T18:00:23.163Z</time>
      </trkpt>
      <trkpt lat="47.60403" lon="7.01191">
        <ele>345.393345</ele>
        <time>2022-09-14T18:04:15.206Z</time>
      </trkpt>
      <trkpt lat="47.60352" lon="7.01097">
        <ele>345.52137</ele>
        <time>2022-09-14T18:04:36.872Z</time>
      </trkpt>
      <trkpt lat="47.60194" lon="7.0086">
        <ele>344.767365</ele>
        <time>2022-09-14T18:05:34.330Z</time>
      </trkpt>
      <trkpt lat="47.60124" lon="7.00738">
        <ele>343.91917</ele>
        <time>2022-09-14T18:05:59.970Z</time>
      </trkpt>
      <trkpt lat="47.60114" lon="7.00707">
        <ele>343.743696</ele>
        <time>2022-09-14T18:06:05.047Z</time>
      </trkpt>
      <trkpt lat="47.60095" lon="7.00601">
        <ele>342.747346</ele>
        <time>2022-09-14T18:06:21.490Z</time>
      </trkpt>
      <trkpt lat="47.60089" lon="7.00462">
        <ele>341.39693</ele>
        <time>2022-09-14T18:06:41.914Z</time>
      </trkpt>
      <trkpt lat="47.60094" lon="7.00365">
        <ele>340.567748</ele>
        <time>2022-09-14T18:06:56.808Z</time>
      </trkpt>
      <trkpt lat="47.6012" lon="7.00241">
        <ele>339.555348</ele>
        <time>2022-09-14T18:07:16.581Z</time>
      </trkpt>
      <trkpt lat="47.60138" lon="7.00173">
        <ele>338.981621</ele>
        <time>2022-09-14T18:07:28.138Z</time>
      </trkpt>
      <trkpt lat="47.60142" lon="7.00159">
        <ele>338.892555</ele>
        <time>2022-09-14T18:07:30.539Z</time>
      </trkpt>
      <trkpt lat="47.60141" lon="7.00128">
        <ele>338.708107</ele>
        <time>2022-09-14T18:07:35.401Z</time>
      </trkpt>
      <trkpt lat="47.6014" lon="7.00083">
        <ele>338.434323</ele>
        <time>2022-09-14T18:07:42.454Z</time>
      </trkpt>
      <trkpt lat="47.60125" lon="7.00013">
        <ele>337.988005</ele>
        <time>2022-09-14T18:07:54.090Z</time>
      </trkpt>
      <trkpt lat="47.60098" lon="6.99946">
        <ele>337.522714</ele>
        <time>2022-09-14T18:08:06.206Z</time>
      </trkpt>
      <trkpt lat="47.60076" lon="6.99907">
        <ele>337.412937</ele>
        <time>2022-09-14T18:08:14.268Z</time>
      </trkpt>
      <trkpt lat="47.60048" lon="6.99864">
        <ele>337.492762</ele>
        <time>2022-09-14T18:08:24.599Z</time>
      </trkpt>
      <trkpt lat="47.59693" lon="6.99464">
        <ele>338.601535</ele>
        <time>2022-09-14T18:10:31.495Z</time>
      </trkpt>
      <trkpt lat="47.59646" lon="6.99381">
        <ele>338.753365</ele>
        <time>2022-09-14T18:10:52.155Z</time>
      </trkpt>
      <trkpt lat="47.59612" lon="6.99286">
        <ele>338.802218</ele>
        <time>2022-09-14T18:11:12.132Z</time>
      </trkpt>
      <trkpt lat="47.59589" lon="6.9918">
        <ele>338.811612</ele>
        <time>2022-09-14T18:11:31.772Z</time>
      </trkpt>
      <trkpt lat="47.59582" lon="6.99096">
        <ele>338.414425</ele>
        <time>2022-09-14T18:11:46.012Z</time>
      </trkpt>
      <trkpt lat="47.59572" lon="6.98841">
        <ele>337.116319</ele>
        <time>2022-09-14T18:12:26.227Z</time>
      </trkpt>
      <trkpt lat="47.59565" lon="6.98792">
        <ele>336.822473</ele>
        <time>2022-09-14T18:12:33.869Z</time>
      </trkpt>
      <trkpt lat="47.59541" lon="6.98702">
        <ele>336.243097</ele>
        <time>2022-09-14T18:12:49.252Z</time>
      </trkpt>
      <trkpt lat="47.59504" lon="6.98619">
        <ele>335.91438</ele>
        <time>2022-09-14T18:13:05.500Z</time>
      </trkpt>
      <trkpt lat="47.59283" lon="6.98258">
        <ele>335.439318</ele>
        <time>2022-09-14T18:14:31.863Z</time>
      </trkpt>
      <trkpt lat="47.59272" lon="6.98235">
        <ele>335.421819</ele>
        <time>2022-09-14T18:14:37.086Z</time>
      </trkpt>
      <trkpt lat="47.59252" lon="6.98219">
        <ele>335.401107</ele>
        <time>2022-09-14T18:14:43.291Z</time>
      </trkpt>
      <trkpt lat="47.58276" lon="6.96714">
        <ele>334.187825</ele>
        <time>2022-09-14T18:20:52.900Z</time>
      </trkpt>
      <trkpt lat="47.5827" lon="6.96705">
        <ele>334.184944</ele>
        <time>2022-09-14T18:20:55.562Z</time>
      </trkpt>
      <trkpt lat="47.58249" lon="6.96673">
        <ele>334.175446</ele>
        <time>2022-09-14T18:21:04.171Z</time>
      </trkpt>
      <trkpt lat="47.58221" lon="6.96625">
        <ele>334.161674</ele>
        <time>2022-09-14T18:21:16.492Z</time>
      </trkpt>
      <trkpt lat="47.58178" lon="6.96565">
        <ele>334.142579</ele>
        <time>2022-09-14T18:21:33.180Z</time>
      </trkpt>
      <trkpt lat="47.57899" lon="6.96134">
        <ele>331.570978</ele>
        <time>2022-09-14T18:23:13.668Z</time>
      </trkpt>
      <trkpt lat="47.57848" lon="6.96069">
        <ele>331.431126</ele>
        <time>2022-09-14T18:23:31.066Z</time>
      </trkpt>
      <trkpt lat="47.57598" lon="6.95693">
        <ele>331.681661</ele>
        <time>2022-09-14T18:25:13.095Z</time>
      </trkpt>
      <trkpt lat="47.57556" lon="6.95635">
        <ele>331.767139</ele>
        <time>2022-09-14T18:25:29.698Z</time>
      </trkpt>
      <trkpt lat="47.57347" lon="6.95396">
        <ele>331.758899</ele>
        <time>2022-09-14T18:26:43.885Z</time>
      </trkpt>
      <trkpt lat="47.57341" lon="6.9539">
        <ele>331.733158</ele>
        <time>2022-09-14T18:26:45.861Z</time>
      </trkpt>
      <trkpt lat="47.57027" lon="6.95031">
        <ele>330.470118</ele>
        <time>2022-09-14T18:28:28.554Z</time>
      </trkpt>
      <trkpt lat="47.56915" lon="6.94894">
        <ele>330.537059</ele>
        <time>2022-09-14T18:29:09.722Z</time>
      </trkpt>
      <trkpt lat="47.56664" lon="6.94502">
        <ele>332.078981</ele>
        <time>2022-09-14T18:30:59.114Z</time>
      </trkpt>
      <trkpt lat="47.56647" lon="6.94463">
        <ele>332.218981</ele>
        <time>2022-09-14T18:31:08.626Z</time>
      </trkpt>
      <trkpt lat="47.56639" lon="6.94451">
        <ele>332.26628</ele>
        <time>2022-09-14T18:31:11.808Z</time>
      </trkpt>
      <trkpt lat="47.56599" lon="6.94398">
        <ele>332.50505</ele>
        <time>2022-09-14T18:31:28.272Z</time>
      </trkpt>
      <trkpt lat="47.56405" lon="6.94086">
        <ele>333.140583</ele>
        <time>2022-09-14T18:32:54.409Z</time>
      </trkpt>
      <trkpt lat="47.56335" lon="6.93949">
        <ele>332.570357</ele>
        <time>2022-09-14T18:33:21.994Z</time>
      </trkpt>
      <trkpt lat="47.56318" lon="6.93918">
        <ele>332.321984</ele>
        <time>2022-09-14T18:33:28.483Z</time>
      </trkpt>
      <trkpt lat="47.56309" lon="6.93911">
        <ele>332.230277</ele>
        <time>2022-09-14T18:33:30.612Z</time>
      </trkpt>
      <trkpt lat="47.56141" lon="6.93615">
        <ele>330.397063</ele>
        <time>2022-09-14T18:34:36.161Z</time>
      </trkpt>
      <trkpt lat="47.56098" lon="6.93522">
        <ele>330.184352</ele>
        <time>2022-09-14T18:34:57.381Z</time>
      </trkpt>
      <trkpt lat="47.55999" lon="6.93275">
        <ele>330.057072</ele>
        <time>2022-09-14T18:35:51.187Z</time>
      </trkpt>
      <trkpt lat="47.5591" lon="6.93037">
        <ele>329.947161</ele>
        <time>2022-09-14T18:36:40.584Z</time>
      </trkpt>
      <trkpt lat="47.55904" lon="6.93001">
        <ele>329.969335</ele>
        <time>2022-09-14T18:36:47.569Z</time>
      </trkpt>
      <trkpt lat="47.55828" lon="6.92797">
        <ele>330.266061</ele>
        <time>2022-09-14T18:37:33.285Z</time>
      </trkpt>
      <trkpt lat="47.55821" lon="6.92765">
        <ele>330.348134</ele>
        <time>2022-09-14T18:37:40.201Z</time>
      </trkpt>
      <trkpt lat="47.55806" lon="6.92743">
        <ele>330.424447</ele>
        <time>2022-09-14T18:37:46.706Z</time>
      </trkpt>
      <trkpt lat="47.55782" lon="6.92678">
        <ele>330.602869</ele>
        <time>2022-09-14T18:38:01.888Z</time>
      </trkpt>
      <trkpt lat="47.55716" lon="6.92538">
        <ele>330.651669</ele>
        <time>2022-09-14T18:38:34.662Z</time>
      </trkpt>
      <trkpt lat="47.5571" lon="6.92533">
        <ele>330.647517</ele>
        <time>2022-09-14T18:38:36.920Z</time>
      </trkpt>
      <trkpt lat="47.55713" lon="6.92527">
        <ele>330.644605</ele>
        <time>2022-09-14T18:38:38.175Z</time>
      </trkpt>
      <trkpt lat="47.55724" lon="6.92502">
        <ele>330.632501</ele>
        <time>2022-09-14T18:38:43.343Z</time>
      </trkpt>
      <trkpt lat="47.55729" lon="6.92493">
        <ele>330.627699</ele>
        <time>2022-09-14T18:38:45.511Z</time>
      </trkpt>
      <trkpt lat="47.55726" lon="6.9249">
        <ele>330.625751</ele>
        <time>2022-09-14T18:38:46.519Z</time>
      </trkpt>
      <trkpt lat="47.55705" lon="6.92463">
        <ele>330.609025</ele>
        <time>2022-09-14T18:38:53.357Z</time>
      </trkpt>
      <trkpt lat="47.55644" lon="6.92341">
        <ele>330.254127</ele>
        <time>2022-09-14T18:39:18.392Z</time>
      </trkpt>
      <trkpt lat="47.55638" lon="6.92321">
        <ele>330.192969</ele>
        <time>2022-09-14T18:39:21.860Z</time>
      </trkpt>
      <trkpt lat="47.55614" lon="6.92285">
        <ele>330.048285</ele>
        <time>2022-09-14T18:39:30.151Z</time>
      </trkpt>
      <trkpt lat="47.55385" lon="6.91851">
        <ele>329.864262</ele>
        <time>2022-09-14T18:41:09.789Z</time>
      </trkpt>
      <trkpt lat="47.54794" lon="6.90745">
        <ele>330.02939</ele>
        <time>2022-09-14T18:45:20.375Z</time>
      </trkpt>
      <trkpt lat="47.54765" lon="6.90682">
        <ele>331.061304</ele>
        <time>2022-09-14T18:45:42.673Z</time>
      </trkpt>
      <trkpt lat="47.54739" lon="6.90641">
        <ele>331.81569</ele>
        <time>2022-09-14T18:45:58.102Z</time>
      </trkpt>
      <trkpt lat="47.547" lon="6.90621">
        <ele>332.618201</ele>
        <time>2022-09-14T18:46:13.732Z</time>
      </trkpt>
      <trkpt lat="47.54683" lon="6.90583">
        <ele>333.236466</ele>
        <time>2022-09-14T18:46:25.203Z</time>
      </trkpt>
      <trkpt lat="47.5468" lon="6.9058">
        <ele>333.301349</ele>
        <time>2022-09-14T18:46:26.779Z</time>
      </trkpt>
      <trkpt lat="47.54475" lon="6.90669">
        <ele>334.208396</ele>
        <time>2022-09-14T18:47:25.528Z</time>
      </trkpt>
      <trkpt lat="47.54442" lon="6.90677">
        <ele>334.355509</ele>
        <time>2022-09-14T18:47:33.456Z</time>
      </trkpt>
      <trkpt lat="47.54414" lon="6.90675">
        <ele>334.476391</ele>
        <time>2022-09-14T18:47:40.749Z</time>
      </trkpt>
      <trkpt lat="47.5438" lon="6.90662">
        <ele>334.632108</ele>
        <time>2022-09-14T18:47:51.121Z</time>
      </trkpt>
      <trkpt lat="47.54345" lon="6.90659">
        <ele>334.789197</ele>
        <time>2022-09-14T18:48:02.331Z</time>
      </trkpt>
      <trkpt lat="47.54243" lon="6.90687">
        <ele>336.291668</ele>
        <time>2022-09-14T18:48:39.309Z</time>
      </trkpt>
      <trkpt lat="47.54186" lon="6.90708">
        <ele>337.227309</ele>
        <time>2022-09-14T18:49:00.890Z</time>
      </trkpt>
      <trkpt lat="47.54138" lon="6.90735">
        <ele>337.508576</ele>
        <time>2022-09-14T18:49:17.844Z</time>
      </trkpt>
      <trkpt lat="47.54095" lon="6.90764">
        <ele>336.988162</ele>
        <time>2022-09-14T18:49:29.913Z</time>
      </trkpt>
      <trkpt lat="47.54045" lon="6.90825">
        <ele>336.282519</ele>
        <time>2022-09-14T18:49:43.961Z</time>
      </trkpt>
      <trkpt lat="47.53974" lon="6.90998">
        <ele>333.46159</ele>
        <time>2022-09-14T18:50:11.467Z</time>
      </trkpt>
      <trkpt lat="47.53958" lon="6.91025">
        <ele>332.849976</ele>
        <time>2022-09-14T18:50:16.098Z</time>
      </trkpt>
      <trkpt lat="47.53926" lon="6.91052">
        <ele>331.897864</ele>
        <time>2022-09-14T18:50:23.408Z</time>
      </trkpt>
      <trkpt lat="47.53892" lon="6.91054">
        <ele>331.073511</ele>
        <time>2022-09-14T18:50:30.505Z</time>
      </trkpt>
      <trkpt lat="47.53778" lon="6.91">
        <ele>329.713204</ele>
        <time>2022-09-14T18:50:57.698Z</time>
      </trkpt>
      <trkpt lat="47.53456" lon="6.9072">
        <ele>327.048691</ele>
        <time>2022-09-14T18:52:28.302Z</time>
      </trkpt>
      <trkpt lat="47.53406" lon="6.90662">
        <ele>326.625599</ele>
        <time>2022-09-14T18:52:43.629Z</time>
      </trkpt>
      <trkpt lat="47.53253" lon="6.90452">
        <ele>325.354771</ele>
        <time>2022-09-14T18:53:33.746Z</time>
      </trkpt>
      <trkpt lat="47.53236" lon="6.90443">
        <ele>325.289403</ele>
        <time>2022-09-14T18:53:38.096Z</time>
      </trkpt>
      <trkpt lat="47.5321" lon="6.90413">
        <ele>325.168375</ele>
        <time>2022-09-14T18:53:46.263Z</time>
      </trkpt>
      <trkpt lat="47.53202" lon="6.90387">
        <ele>325.097029</ele>
        <time>2022-09-14T18:53:51.139Z</time>
      </trkpt>
      <trkpt lat="47.52853" lon="6.89914">
        <ele>324.818691</ele>
        <time>2022-09-14T18:55:56.472Z</time>
      </trkpt>
      <trkpt lat="47.52811" lon="6.89813">
        <ele>324.946755</ele>
        <time>2022-09-14T18:56:18.721Z</time>
      </trkpt>
      <trkpt lat="47.5279" lon="6.89701">
        <ele>325.064268</ele>
        <time>2022-09-14T18:56:40.739Z</time>
      </trkpt>
      <trkpt lat="47.52788" lon="6.8965">
        <ele>325.111416</ele>
        <time>2022-09-14T18:56:50.427Z</time>
      </trkpt>
      <trkpt lat="47.52783" lon="6.8964">
        <ele>325.123241</ele>
        <time>2022-09-14T18:56:52.907Z</time>
      </trkpt>
      <trkpt lat="47.52784" lon="6.89614">
        <ele>325.146905</ele>
        <time>2022-09-14T18:56:57.692Z</time>
      </trkpt>
      <trkpt lat="47.5279" lon="6.89592">
        <ele>325.169082</ele>
        <time>2022-09-14T18:57:02.267Z</time>
      </trkpt>
      <trkpt lat="47.52813" lon="6.8897">
        <ele>325.046218</ele>
        <time>2022-09-14T18:58:53.374Z</time>
      </trkpt>
      <trkpt lat="47.528" lon="6.88863">
        <ele>324.989235</ele>
        <time>2022-09-14T18:59:12.369Z</time>
      </trkpt>
      <trkpt lat="47.52802" lon="6.88847">
        <ele>324.981097</ele>
        <time>2022-09-14T18:59:15.084Z</time>
      </trkpt>
      <trkpt lat="47.52817" lon="6.88835">
        <ele>324.967751</ele>
        <time>2022-09-14T18:59:19.837Z</time>
      </trkpt>
      <trkpt lat="47.52798" lon="6.88827">
        <ele>324.952354</ele>
        <time>2022-09-14T18:59:25.305Z</time>
      </trkpt>
      <trkpt lat="47.52795" lon="6.88828">
        <ele>324.949944</ele>
        <time>2022-09-14T18:59:26.153Z</time>
      </trkpt>
      <trkpt lat="47.52774" lon="6.88836">
        <ele>324.933361</ele>
        <time>2022-09-14T18:59:32.273Z</time>
      </trkpt>
      <trkpt lat="47.52771" lon="6.88836">
        <ele>324.931199</ele>
        <time>2022-09-14T18:59:33.062Z</time>
      </trkpt>
      <trkpt lat="47.52763" lon="6.88828">
        <ele>324.923716</ele>
        <time>2022-09-14T18:59:35.695Z</time>
      </trkpt>
      <trkpt lat="47.52746" lon="6.88778">
        <ele>324.896023</ele>
        <time>2022-09-14T18:59:46.217Z</time>
      </trkpt>
      <trkpt lat="47.52743" lon="6.88766">
        <ele>324.89125</ele>
        <time>2022-09-14T18:59:48.642Z</time>
      </trkpt>
      <trkpt lat="47.5274" lon="6.88728">
        <ele>324.876617</ele>
        <time>2022-09-14T18:59:55.400Z</time>
      </trkpt>
      <trkpt lat="47.52731" lon="6.887">
        <ele>324.864609</ele>
        <time>2022-09-14T19:00:01.102Z</time>
      </trkpt>
      <trkpt lat="47.5269" lon="6.88613">
        <ele>324.824079</ele>
        <time>2022-09-14T19:00:20.229Z</time>
      </trkpt>
      <trkpt lat="47.52475" lon="6.88299">
        <ele>324.293286</ele>
        <time>2022-09-14T19:01:38.393Z</time>
      </trkpt>
      <trkpt lat="47.52442" lon="6.88243">
        <ele>324.188221</ele>
        <time>2022-09-14T19:01:51.477Z</time>
      </trkpt>
      <trkpt lat="47.52425" lon="6.882">
        <ele>324.117795</ele>
        <time>2022-09-14T19:02:00.002Z</time>
      </trkpt>
      <trkpt lat="47.52385" lon="6.88049">
        <ele>323.889356</ele>
        <time>2022-09-14T19:02:27.330Z</time>
      </trkpt>
      <trkpt lat="47.52364" lon="6.88033">
        <ele>323.839282</ele>
        <time>2022-09-14T19:02:33.586Z</time>
      </trkpt>
      <trkpt lat="47.52327" lon="6.88043">
        <ele>323.761419</ele>
        <time>2022-09-14T19:02:43.345Z</time>
      </trkpt>
      <trkpt lat="47.52294" lon="6.8808">
        <ele>323.717496</ele>
        <time>2022-09-14T19:03:12.234Z</time>
      </trkpt>
      <trkpt lat="47.52259" lon="6.88142">
        <ele>323.795014</ele>
        <time>2022-09-14T19:03:26.857Z</time>
      </trkpt>
      <trkpt lat="47.52251" lon="6.88131">
        <ele>323.809751</ele>
        <time>2022-09-14T19:03:29.597Z</time>
      </trkpt>
      <trkpt lat="47.52245" lon="6.88119">
        <ele>323.824924</ele>
        <time>2022-09-14T19:03:32.405Z</time>
      </trkpt>
      <trkpt lat="47.52241" lon="6.8811">
        <ele>323.835047</ele>
        <time>2022-09-14T19:03:34.293Z</time>
      </trkpt>
      <trkpt lat="47.52208" lon="6.88145">
        <ele>323.892513</ele>
        <time>2022-09-14T19:03:45.645Z</time>
      </trkpt>
      <trkpt lat="47.5218" lon="6.8818">
        <ele>323.944634</ele>
        <time>2022-09-14T19:03:56.029Z</time>
      </trkpt>
      <trkpt lat="47.52145" lon="6.88203">
        <ele>323.87689</ele>
        <time>2022-09-14T19:04:06.653Z</time>
      </trkpt>
      <trkpt lat="47.52103" lon="6.88213">
        <ele>323.765122</ele>
        <time>2022-09-14T19:04:17.452Z</time>
      </trkpt>
      <trkpt lat="47.52071" lon="6.88202">
        <ele>323.675313</ele>
        <time>2022-09-14T19:04:25.972Z</time>
      </trkpt>
      <trkpt lat="47.52036" lon="6.88176">
        <ele>323.571387</ele>
        <time>2022-09-14T19:04:35.479Z</time>
      </trkpt>
      <trkpt lat="47.52009" lon="6.88136">
        <ele>323.467518</ele>
        <time>2022-09-14T19:04:44.809Z</time>
      </trkpt>
      <trkpt lat="47.51983" lon="6.88067">
        <ele>323.291195</ele>
        <time>2022-09-14T19:04:57.902Z</time>
      </trkpt>
      <trkpt lat="47.51974" lon="6.88027">
        <ele>323.199866</ele>
        <time>2022-09-14T19:05:04.634Z</time>
      </trkpt>
      <trkpt lat="47.51707" lon="6.87176">
        <ele>321.27478</ele>
        <time>2022-09-14T19:07:46.013Z</time>
      </trkpt>
      <trkpt lat="47.51303" lon="6.85873">
        <ele>321.501685</ele>
        <time>2022-09-14T19:12:06.396Z</time>
      </trkpt>
      <trkpt lat="47.51301" lon="6.85848">
        <ele>321.484054</ele>
        <time>2022-09-14T19:12:10.844Z</time>
      </trkpt>
      <trkpt lat="47.51294" lon="6.8585">
        <ele>321.4769</ele>
        <time>2022-09-14T19:12:12.680Z</time>
      </trkpt>
      <trkpt lat="47.51274" lon="6.85863">
        <ele>321.453838</ele>
        <time>2022-09-14T19:12:18.475Z</time>
      </trkpt>
      <trkpt lat="47.51271" lon="6.85866">
        <ele>321.450061</ele>
        <time>2022-09-14T19:12:19.420Z</time>
      </trkpt>
      <trkpt lat="47.51248" lon="6.85879">
        <ele>321.42427</ele>
        <time>2022-09-14T19:12:25.910Z</time>
      </trkpt>
      <trkpt lat="47.51266" lon="6.85851">
        <ele>321.396455</ele>
        <time>2022-09-14T19:12:32.903Z</time>
      </trkpt>
      <trkpt lat="47.51265" lon="6.85837">
        <ele>321.387056</ele>
        <time>2022-09-14T19:12:35.227Z</time>
      </trkpt>
      <trkpt lat="47.5103" lon="6.85083">
        <ele>320.195089</ele>
        <time>2022-09-14T19:14:58.876Z</time>
      </trkpt>
      <trkpt lat="47.51015" lon="6.85089">
        <ele>320.255655</ele>
        <time>2022-09-14T19:15:02.987Z</time>
      </trkpt>
      <trkpt lat="47.50974" lon="6.8496">
        <ele>320.629893</ele>
        <time>2022-09-14T19:15:30.584Z</time>
      </trkpt>
      <trkpt lat="47.50972" lon="6.84894">
        <ele>320.802001</ele>
        <time>2022-09-14T19:15:44.134Z</time>
      </trkpt>
      <trkpt lat="47.5093" lon="6.8476">
        <ele>321.494044</ele>
        <time>2022-09-14T19:16:15.396Z</time>
      </trkpt>
      <trkpt lat="47.50898" lon="6.84652">
        <ele>322.05486</ele>
        <time>2022-09-14T19:16:39.852Z</time>
      </trkpt>
      <trkpt lat="47.50798" lon="6.84472">
        <ele>321.795308</ele>
        <time>2022-09-14T19:17:20.151Z</time>
      </trkpt>
      <trkpt lat="47.50688" lon="6.84216">
        <ele>320.888601</ele>
        <time>2022-09-14T19:18:10.596Z</time>
      </trkpt>
      <trkpt lat="47.50686" lon="6.84203">
        <ele>320.836703</ele>
        <time>2022-09-14T19:18:12.774Z</time>
      </trkpt>
      <trkpt lat="47.50692" lon="6.8417">
        <ele>320.690932</ele>
        <time>2022-09-14T19:18:18.416Z</time>
      </trkpt>
      <trkpt lat="47.50679" lon="6.84134">
        <ele>320.517658</ele>
        <time>2022-09-14T19:18:25.199Z</time>
      </trkpt>
      <trkpt lat="47.50653" lon="6.8412">
        <ele>320.343545</ele>
        <time>2022-09-14T19:18:31.947Z</time>
      </trkpt>
      <trkpt lat="47.50594" lon="6.83901">
        <ele>319.423639</ele>
        <time>2022-09-14T19:19:10.436Z</time>
      </trkpt>
      <trkpt lat="47.50548" lon="6.83693">
        <ele>318.740428</ele>
        <time>2022-09-14T19:19:47.086Z</time>
      </trkpt>
      <trkpt lat="47.50496" lon="6.83533">
        <ele>318.371948</ele>
        <time>2022-09-14T19:20:17.517Z</time>
      </trkpt>
      <trkpt lat="47.5047" lon="6.83439">
        <ele>318.263978</ele>
        <time>2022-09-14T19:20:35.304Z</time>
      </trkpt>
      <trkpt lat="47.50459" lon="6.83382">
        <ele>318.237225</ele>
        <time>2022-09-14T19:20:45.968Z</time>
      </trkpt>
      <trkpt lat="47.50472" lon="6.83322">
        <ele>318.208851</ele>
        <time>2022-09-14T19:20:57.335Z</time>
      </trkpt>
      <trkpt lat="47.50468" lon="6.83304">
        <ele>318.200141</ele>
        <time>2022-09-14T19:21:00.848Z</time>
      </trkpt>
      <trkpt lat="47.50449" lon="6.83289">
        <ele>318.186187</ele>
        <time>2022-09-14T19:21:06.396Z</time>
      </trkpt>
      <trkpt lat="47.50436" lon="6.83253">
        <ele>318.173879</ele>
        <time>2022-09-14T19:21:13.851Z</time>
      </trkpt>
      <trkpt lat="47.50415" lon="6.83168">
        <ele>318.188561</ele>
        <time>2022-09-14T19:21:29.822Z</time>
      </trkpt>
      <trkpt lat="47.50374" lon="6.82889">
        <ele>318.411518</ele>
        <time>2022-09-14T19:22:22.153Z</time>
      </trkpt>
      <trkpt lat="47.5037" lon="6.82864">
        <ele>318.453275</ele>
        <time>2022-09-14T19:22:27.082Z</time>
      </trkpt>
      <trkpt lat="47.50362" lon="6.82831">
        <ele>318.509734</ele>
        <time>2022-09-14T19:22:34.021Z</time>
      </trkpt>
      <trkpt lat="47.50348" lon="6.82728">
        <ele>318.633258</ele>
        <time>2022-09-14T19:22:54.261Z</time>
      </trkpt>
      <trkpt lat="47.50348" lon="6.82573">
        <ele>318.516567</ele>
        <time>2022-09-14T19:23:22.074Z</time>
      </trkpt>
      <trkpt lat="47.50367" lon="6.82533">
        <ele>318.478954</ele>
        <time>2022-09-14T19:23:30.479Z</time>
      </trkpt>
      <trkpt lat="47.50365" lon="6.82435">
        <ele>318.405948</ele>
        <time>2022-09-14T19:23:46.844Z</time>
      </trkpt>
      <trkpt lat="47.50351" lon="6.82403">
        <ele>318.378277</ele>
        <time>2022-09-14T19:23:53.146Z</time>
      </trkpt>
      <trkpt lat="47.50346" lon="6.82368">
        <ele>318.35188</ele>
        <time>2022-09-14T19:23:59.174Z</time>
      </trkpt>
      <trkpt lat="47.50346" lon="6.82305">
        <ele>318.306009</ele>
        <time>2022-09-14T19:24:10.024Z</time>
      </trkpt>
      <trkpt lat="47.50398" lon="6.81637">
        <ele>320.060591</ele>
        <time>2022-09-14T19:26:21.634Z</time>
      </trkpt>
      <trkpt lat="47.50412" lon="6.81348">
        <ele>320.709388</ele>
        <time>2022-09-14T19:27:17.217Z</time>
      </trkpt>
      <trkpt lat="47.5042" lon="6.8125">
        <ele>320.844548</ele>
        <time>2022-09-14T19:27:36.337Z</time>
      </trkpt>
      <trkpt lat="47.50433" lon="6.8119">
        <ele>320.931861</ele>
        <time>2022-09-14T19:27:47.781Z</time>
      </trkpt>
      <trkpt lat="47.50435" lon="6.81171">
        <ele>320.925996</ele>
        <time>2022-09-14T19:27:51.125Z</time>
      </trkpt>
      <trkpt lat="47.50437" lon="6.81141">
        <ele>320.742896</ele>
        <time>2022-09-14T19:27:56.310Z</time>
      </trkpt>
      <trkpt lat="47.50438" lon="6.81106">
        <ele>320.528907</ele>
        <time>2022-09-14T19:28:02.174Z</time>
      </trkpt>
      <trkpt lat="47.5045" lon="6.8087">
        <ele>319.044076</ele>
        <time>2022-09-14T19:28:38.751Z</time>
      </trkpt>
      <trkpt lat="47.50446" lon="6.80813">
        <ele>318.626301</ele>
        <time>2022-09-14T19:28:47.086Z</time>
      </trkpt>
      <trkpt lat="47.50455" lon="6.80752">
        <ele>318.170966</ele>
        <time>2022-09-14T19:28:56.278Z</time>
      </trkpt>
      <trkpt lat="47.50467" lon="6.8052">
        <ele>317.06374</ele>
        <time>2022-09-14T19:29:34.731Z</time>
      </trkpt>
      <trkpt lat="47.50469" lon="6.80474">
        <ele>316.942137</ele>
        <time>2022-09-14T19:29:42.444Z</time>
      </trkpt>
      <trkpt lat="47.50466" lon="6.8045">
        <ele>316.877157</ele>
        <time>2022-09-14T19:29:46.492Z</time>
      </trkpt>
      <trkpt lat="47.50467" lon="6.80438">
        <ele>316.845987</ele>
        <time>2022-09-14T19:29:48.481Z</time>
      </trkpt>
      <trkpt lat="47.50454" lon="6.80422">
        <ele>316.778742</ele>
        <time>2022-09-14T19:29:52.947Z</time>
      </trkpt>
      <trkpt lat="47.50444" lon="6.80425">
        <ele>316.740363</ele>
        <time>2022-09-14T19:29:55.452Z</time>
      </trkpt>
      <trkpt lat="47.5044" lon="6.80448">
        <ele>316.705613</ele>
        <time>2022-09-14T19:29:59.880Z</time>
      </trkpt>
      <trkpt lat="47.50453" lon="6.80459">
        <ele>316.743643</ele>
        <time>2022-09-14T19:30:03.951Z</time>
      </trkpt>
      <trkpt lat="47.5046" lon="6.80458">
        <ele>316.761644</ele>
        <time>2022-09-14T19:30:05.865Z</time>
      </trkpt>
      <trkpt lat="47.50509" lon="6.80453">
        <ele>316.881234</ele>
        <time>2022-09-14T19:30:19.916Z</time>
      </trkpt>
      <trkpt lat="47.50537" lon="6.80457">
        <ele>316.950164</ele>
        <time>2022-09-14T19:30:27.659Z</time>
      </trkpt>
      <trkpt lat="47.50536" lon="6.80411">
        <ele>317.026924</ele>
        <time>2022-09-14T19:30:36.145Z</time>
      </trkpt>
      <trkpt lat="47.5053" lon="6.80414">
        <ele>317.042964</ele>
        <time>2022-09-14T19:30:37.923Z</time>
      </trkpt>
      <trkpt lat="47.50531" lon="6.80434">
        <ele>317.076412</ele>
        <time>2022-09-14T19:30:41.598Z</time>
      </trkpt>
      <trkpt lat="47.50526" lon="6.8044">
        <ele>317.092297</ele>
        <time>2022-09-14T19:30:43.267Z</time>
      </trkpt>
      <trkpt lat="47.505" lon="6.80413">
        <ele>317.387826</ele>
        <time>2022-09-14T19:30:52.532Z</time>
      </trkpt>
      <trkpt lat="47.50502" lon="6.80377">
        <ele>317.810724</ele>
        <time>2022-09-14T19:31:00.214Z</time>
      </trkpt>
      <trkpt lat="47.50503" lon="6.80348">
        <ele>318.143767</ele>
        <time>2022-09-14T19:31:06.643Z</time>
      </trkpt>
      <trkpt lat="47.50503" lon="6.80235">
        <ele>319.465561</ele>
        <time>2022-09-14T19:31:35.087Z</time>
      </trkpt>
      <trkpt lat="47.5052" lon="6.7987">
        <ele>323.754872</ele>
        <time>2022-09-14T19:33:08.370Z</time>
      </trkpt>
      <trkpt lat="47.50521" lon="6.79809">
        <ele>323.286464</ele>
        <time>2022-09-14T19:33:18.556Z</time>
      </trkpt>
      <trkpt lat="47.50499" lon="6.79613">
        <ele>321.600099</ele>
        <time>2022-09-14T19:33:46.318Z</time>
      </trkpt>
      <trkpt lat="47.50481" lon="6.79479">
        <ele>319.677223</ele>
        <time>2022-09-14T19:34:05.026Z</time>
      </trkpt>
      <trkpt lat="47.50486" lon="6.79419">
        <ele>318.836542</ele>
        <time>2022-09-14T19:34:13.589Z</time>
      </trkpt>
      <trkpt lat="47.50474" lon="6.79347">
        <ele>318.293713</ele>
        <time>2022-09-14T19:34:28.585Z</time>
      </trkpt>
      <trkpt lat="47.50444" lon="6.79156">
        <ele>318.714931</ele>
        <time>2022-09-14T19:35:17.176Z</time>
      </trkpt>
      <trkpt lat="47.50428" lon="6.79131">
        <ele>318.787868</ele>
        <time>2022-09-14T19:35:27.187Z</time>
      </trkpt>
      <trkpt lat="47.50421" lon="6.7912">
        <ele>318.939036</ele>
        <time>2022-09-14T19:35:31.049Z</time>
      </trkpt>
      <trkpt lat="47.50404" lon="6.79003">
        <ele>320.590466</ele>
        <time>2022-09-14T19:36:01.695Z</time>
      </trkpt>
      <trkpt lat="47.50401" lon="6.78911">
        <ele>321.865463</ele>
        <time>2022-09-14T19:36:25.776Z</time>
      </trkpt>
      <trkpt lat="47.50401" lon="6.78868">
        <ele>322.457918</ele>
        <time>2022-09-14T19:36:35.874Z</time>
      </trkpt>
      <trkpt lat="47.50413" lon="6.78758">
        <ele>323.089936</ele>
        <time>2022-09-14T19:37:01.121Z</time>
      </trkpt>
      <trkpt lat="47.50507" lon="6.78291">
        <ele>323.92753</ele>
        <time>2022-09-14T19:38:32.690Z</time>
      </trkpt>
      <trkpt lat="47.50547" lon="6.78079">
        <ele>322.438822</ele>
        <time>2022-09-14T19:39:06.646Z</time>
      </trkpt>
      <trkpt lat="47.50549" lon="6.78016">
        <ele>321.422691</ele>
        <time>2022-09-14T19:39:15.465Z</time>
      </trkpt>
      <trkpt lat="47.50535" lon="6.77918">
        <ele>319.811485</ele>
        <time>2022-09-14T19:39:29.115Z</time>
      </trkpt>
      <trkpt lat="47.50504" lon="6.77785">
        <ele>317.629482</ele>
        <time>2022-09-14T19:39:48.189Z</time>
      </trkpt>
      <trkpt lat="47.50474" lon="6.77701">
        <ele>316.234833</ele>
        <time>2022-09-14T19:40:01.307Z</time>
      </trkpt>
      <trkpt lat="47.5042" lon="6.77603">
        <ele>314.462573</ele>
        <time>2022-09-14T19:40:19.579Z</time>
      </trkpt>
      <trkpt lat="47.50382" lon="6.77558">
        <ele>313.915086</ele>
        <time>2022-09-14T19:40:30.655Z</time>
      </trkpt>
      <trkpt lat="47.50359" lon="6.77549">
        <ele>313.6414</ele>
        <time>2022-09-14T19:40:36.272Z</time>
      </trkpt>
      <trkpt lat="47.50246" lon="6.77448">
        <ele>312.414921</ele>
        <time>2022-09-14T19:41:07.046Z</time>
      </trkpt>
      <trkpt lat="47.50227" lon="6.77418">
        <ele>312.323552</ele>
        <time>2022-09-14T19:41:13.411Z</time>
      </trkpt>
      <trkpt lat="47.50157" lon="6.77373">
        <ele>312.069908</ele>
        <time>2022-09-14T19:41:31.910Z</time>
      </trkpt>
      <trkpt lat="47.50138" lon="6.77368">
        <ele>312.006597</ele>
        <time>2022-09-14T19:41:37.392Z</time>
      </trkpt>
      <trkpt lat="47.50113" lon="6.77373">
        <ele>311.940097</ele>
        <time>2022-09-14T19:41:44.982Z</time>
      </trkpt>
      <trkpt lat="47.50067" lon="6.77386">
        <ele>312.369168</ele>
        <time>2022-09-14T19:42:00.753Z</time>
      </trkpt>
      <trkpt lat="47.50055" lon="6.77369">
        <ele>312.518249</ele>
        <time>2022-09-14T19:42:06.142Z</time>
      </trkpt>
      <trkpt lat="47.5004" lon="6.77348">
        <ele>312.710949</ele>
        <time>2022-09-14T19:42:12.840Z</time>
      </trkpt>
      <trkpt lat="47.50036" lon="6.77334">
        <ele>312.802084</ele>
        <time>2022-09-14T19:42:16.015Z</time>
      </trkpt>
      <trkpt lat="47.50015" lon="6.7723">
        <ele>313.472437</ele>
        <time>2022-09-14T19:42:38.871Z</time>
      </trkpt>
      <trkpt lat="47.49897" lon="6.77289">
        <ele>313.556535</ele>
        <time>2022-09-14T19:43:15.245Z</time>
      </trkpt>
      <trkpt lat="47.49854" lon="6.773">
        <ele>313.551775</ele>
        <time>2022-09-14T19:43:25.394Z</time>
      </trkpt>
      <trkpt lat="47.49764" lon="6.7731">
        <ele>313.048511</ele>
        <time>2022-09-14T19:43:46.420Z</time>
      </trkpt>
      <trkpt lat="47.49715" lon="6.77332">
        <ele>312.677292</ele>
        <time>2022-09-14T19:43:58.666Z</time>
      </trkpt>
      <trkpt lat="47.49584" lon="6.77361">
        <ele>311.641433</ele>
        <time>2022-09-14T19:44:30.688Z</time>
      </trkpt>
      <trkpt lat="47.49336" lon="6.77345">
        <ele>309.837987</ele>
        <time>2022-09-14T19:45:28.640Z</time>
      </trkpt>
      <trkpt lat="47.4932" lon="6.7733">
        <ele>309.712642</ele>
        <time>2022-09-14T19:45:33.647Z</time>
      </trkpt>
      <trkpt lat="47.49282" lon="6.77326">
        <ele>309.703756</ele>
        <time>2022-09-14T19:45:43.927Z</time>
      </trkpt>
      <trkpt lat="47.49261" lon="6.77326">
        <ele>309.857654</ele>
        <time>2022-09-14T19:45:49.987Z</time>
      </trkpt>
      <trkpt lat="47.49244" lon="6.77339">
        <ele>309.997452</ele>
        <time>2022-09-14T19:45:55.562Z</time>
      </trkpt>
      <trkpt lat="47.49199" lon="6.77335">
        <ele>310.33484</ele>
        <time>2022-09-14T19:46:09.943Z</time>
      </trkpt>
      <trkpt lat="47.49182" lon="6.77322">
        <ele>310.476862</ele>
        <time>2022-09-14T19:46:16.257Z</time>
      </trkpt>
      <trkpt lat="47.49187" lon="6.7725">
        <ele>310.843694</ele>
        <time>2022-09-14T19:46:31.860Z</time>
      </trkpt>
      <trkpt lat="47.49182" lon="6.77238">
        <ele>310.913301</ele>
        <time>2022-09-14T19:46:35.001Z</time>
      </trkpt>
      <trkpt lat="47.49185" lon="6.77194">
        <ele>311.132694</ele>
        <time>2022-09-14T19:46:44.227Z</time>
      </trkpt>
      <trkpt lat="47.49181" lon="6.77133">
        <ele>311.433315</ele>
        <time>2022-09-14T19:46:57.207Z</time>
      </trkpt>
      <trkpt lat="47.49163" lon="6.77028">
        <ele>311.971897</ele>
        <time>2022-09-14T19:47:20.041Z</time>
      </trkpt>
      <trkpt lat="47.49156" lon="6.77015">
        <ele>312.05549</ele>
        <time>2022-09-14T19:47:23.495Z</time>
      </trkpt>
      <trkpt lat="47.49144" lon="6.77012">
        <ele>312.143767</ele>
        <time>2022-09-14T19:47:26.935Z</time>
      </trkpt>
      <trkpt lat="47.49145" lon="6.76976">
        <ele>312.454224</ele>
        <time>2022-09-14T19:47:34.117Z</time>
      </trkpt>
      <trkpt lat="47.49146" lon="6.7694">
        <ele>312.893879</ele>
        <time>2022-09-14T19:47:41.234Z</time>
      </trkpt>
      <trkpt lat="47.49148" lon="6.7679">
        <ele>314.711962</ele>
        <time>2022-09-14T19:48:13.687Z</time>
      </trkpt>
      <trkpt lat="47.49121" lon="6.76523">
        <ele>322.18153</ele>
        <time>2022-09-14T19:49:39.488Z</time>
      </trkpt>
      <trkpt lat="47.49122" lon="6.7643">
        <ele>325.381932</ele>
        <time>2022-09-14T19:50:16.001Z</time>
      </trkpt>
      <trkpt lat="47.49106" lon="6.7643">
        <ele>326.288539</ele>
        <time>2022-09-14T19:50:26.398Z</time>
      </trkpt>
      <trkpt lat="47.49098" lon="6.76433">
        <ele>326.781867</ele>
        <time>2022-09-14T19:50:31.841Z</time>
      </trkpt>
      <trkpt lat="47.49097" lon="6.76327">
        <ele>330.874029</ele>
        <time>2022-09-14T19:51:13.109Z</time>
      </trkpt>
      <trkpt lat="47.4909" lon="6.76226">
        <ele>334.379169</ele>
        <time>2022-09-14T19:51:48.491Z</time>
      </trkpt>
      <trkpt lat="47.49092" lon="6.7608">
        <ele>335.97326</ele>
        <time>2022-09-14T19:52:22.298Z</time>
      </trkpt>
      <trkpt lat="47.49099" lon="6.76045">
        <ele>336.366384</ele>
        <time>2022-09-14T19:52:28.742Z</time>
      </trkpt>
      <trkpt lat="47.49196" lon="6.75741">
        <ele>338.584838</ele>
        <time>2022-09-14T19:53:34.223Z</time>
      </trkpt>
      <trkpt lat="47.49254" lon="6.7551">
        <ele>343.840642</ele>
        <time>2022-09-14T19:54:46.350Z</time>
      </trkpt>
      <trkpt lat="47.49277" lon="6.75399">
        <ele>346.295068</ele>
        <time>2022-09-14T19:55:21.356Z</time>
      </trkpt>
      <trkpt lat="47.49293" lon="6.75315">
        <ele>348.165731</ele>
        <time>2022-09-14T19:55:46.408Z</time>
      </trkpt>
      <trkpt lat="47.4929" lon="6.75199">
        <ele>350.623634</ele>
        <time>2022-09-14T19:56:16.253Z</time>
      </trkpt>
      <trkpt lat="47.49296" lon="6.751">
        <ele>352.716833</ele>
        <time>2022-09-14T19:56:43.319Z</time>
      </trkpt>
      <trkpt lat="47.49304" lon="6.7508">
        <ele>353.203798</ele>
        <time>2022-09-14T19:56:49.842Z</time>
      </trkpt>
      <trkpt lat="47.49321" lon="6.75057">
        <ele>353.949119</ele>
        <time>2022-09-14T19:57:00.143Z</time>
      </trkpt>
      <trkpt lat="47.4933" lon="6.75015">
        <ele>354.866303</ele>
        <time>2022-09-14T19:57:12.819Z</time>
      </trkpt>
      <trkpt lat="47.4933" lon="6.74915">
        <ele>357.328883</ele>
        <time>2022-09-14T19:57:42.804Z</time>
      </trkpt>
      <trkpt lat="47.49338" lon="6.74451">
        <ele>368.772233</ele>
        <time>2022-09-14T20:00:06.783Z</time>
      </trkpt>
      <trkpt lat="47.49348" lon="6.74327">
        <ele>367.223113</ele>
        <time>2022-09-14T20:00:28.989Z</time>
      </trkpt>
      <trkpt lat="47.49369" lon="6.742">
        <ele>365.608686</ele>
        <time>2022-09-14T20:00:45.618Z</time>
      </trkpt>
      <trkpt lat="47.49403" lon="6.74083">
        <ele>360.722177</ele>
        <time>2022-09-14T20:01:01.067Z</time>
      </trkpt>
      <trkpt lat="47.49406" lon="6.74072">
        <ele>360.271169</ele>
        <time>2022-09-14T20:01:02.405Z</time>
      </trkpt>
      <trkpt lat="47.49415" lon="6.74033">
        <ele>358.573343</ele>
        <time>2022-09-14T20:01:07.314Z</time>
      </trkpt>
      <trkpt lat="47.49418" lon="6.73975">
        <ele>356.202353</ele>
        <time>2022-09-14T20:01:14.148Z</time>
      </trkpt>
      <trkpt lat="47.49412" lon="6.73867">
        <ele>351.763844</ele>
        <time>2022-09-14T20:01:26.655Z</time>
      </trkpt>
      <trkpt lat="47.49417" lon="6.73828">
        <ele>350.158595</ele>
        <time>2022-09-14T20:01:31.190Z</time>
      </trkpt>
      <trkpt lat="47.49428" lon="6.7378">
        <ele>348.033763</ele>
        <time>2022-09-14T20:01:37.446Z</time>
      </trkpt>
      <trkpt lat="47.49441" lon="6.73754">
        <ele>346.696411</ele>
        <time>2022-09-14T20:01:41.391Z</time>
      </trkpt>
      <trkpt lat="47.49463" lon="6.7372">
        <ele>344.797456</ele>
        <time>2022-09-14T20:01:46.921Z</time>
      </trkpt>
      <trkpt lat="47.49486" lon="6.73664">
        <ele>342.577692</ele>
        <time>2022-09-14T20:01:54.888Z</time>
      </trkpt>
      <trkpt lat="47.49513" lon="6.73616">
        <ele>340.876321</ele>
        <time>2022-09-14T20:02:02.164Z</time>
      </trkpt>
      <trkpt lat="47.49636" lon="6.73486">
        <ele>336.060879</ele>
        <time>2022-09-14T20:02:31.745Z</time>
      </trkpt>
      <trkpt lat="47.49778" lon="6.73275">
        <ele>336.316565</ele>
        <time>2022-09-14T20:03:29.202Z</time>
      </trkpt>
      <trkpt lat="47.49802" lon="6.73212">
        <ele>337.12581</ele>
        <time>2022-09-14T20:03:47.802Z</time>
      </trkpt>
      <trkpt lat="47.49837" lon="6.73081">
        <ele>338.777071</ele>
        <time>2022-09-14T20:04:25.121Z</time>
      </trkpt>
      <trkpt lat="47.49893" lon="6.72937">
        <ele>340.996716</ele>
        <time>2022-09-14T20:05:07.159Z</time>
      </trkpt>
      <trkpt lat="47.49921" lon="6.72949">
        <ele>341.558365</ele>
        <time>2022-09-14T20:05:17.068Z</time>
      </trkpt>
      <trkpt lat="47.49942" lon="6.72885">
        <ele>342.475351</ele>
        <time>2022-09-14T20:05:34.379Z</time>
      </trkpt>
      <trkpt lat="47.49931" lon="6.72759">
        <ele>344.082383</ele>
        <time>2022-09-14T20:06:04.980Z</time>
      </trkpt>
      <trkpt lat="47.49922" lon="6.72692">
        <ele>344.939929</ele>
        <time>2022-09-14T20:06:22.273Z</time>
      </trkpt>
      <trkpt lat="47.49928" lon="6.72591">
        <ele>346.592277</ele>
        <time>2022-09-14T20:06:48.789Z</time>
      </trkpt>
      <trkpt lat="47.49922" lon="6.72455">
        <ele>348.90989</ele>
        <time>2022-09-14T20:07:24.328Z</time>
      </trkpt>
      <trkpt lat="47.49924" lon="6.72221">
        <ele>353.133094</ele>
        <time>2022-09-14T20:08:27.709Z</time>
      </trkpt>
      <trkpt lat="47.49934" lon="6.72156">
        <ele>354.365035</ele>
        <time>2022-09-14T20:08:45.395Z</time>
      </trkpt>
      <trkpt lat="47.4995" lon="6.72063">
        <ele>356.177142</ele>
        <time>2022-09-14T20:09:11.098Z</time>
      </trkpt>
      <trkpt lat="47.49943" lon="6.71966">
        <ele>358.044952</ele>
        <time>2022-09-14T20:09:38.051Z</time>
      </trkpt>
      <trkpt lat="47.49905" lon="6.71639">
        <ele>364.326208</ele>
        <time>2022-09-14T20:11:09.073Z</time>
      </trkpt>
      <trkpt lat="47.49898" lon="6.71564">
        <ele>365.529129</ele>
        <time>2022-09-14T20:11:28.482Z</time>
      </trkpt>
      <trkpt lat="47.49908" lon="6.71406">
        <ele>367.865165</ele>
        <time>2022-09-14T20:12:07.699Z</time>
      </trkpt>
      <trkpt lat="47.49892" lon="6.71073">
        <ele>372.337637</ele>
        <time>2022-09-14T20:13:30.115Z</time>
      </trkpt>
      <trkpt lat="47.49909" lon="6.70804">
        <ele>374.325894</ele>
        <time>2022-09-14T20:14:28.918Z</time>
      </trkpt>
      <trkpt lat="47.49898" lon="6.70557">
        <ele>374.332806</ele>
        <time>2022-09-14T20:15:12.321Z</time>
      </trkpt>
      <trkpt lat="47.499" lon="6.70497">
        <ele>374.225344</ele>
        <time>2022-09-14T20:15:22.311Z</time>
      </trkpt>
      <trkpt lat="47.49929" lon="6.70448">
        <ele>374.109692</ele>
        <time>2022-09-14T20:15:33.062Z</time>
      </trkpt>
      <trkpt lat="47.49995" lon="6.70369">
        <ele>373.883574</ele>
        <time>2022-09-14T20:15:54.584Z</time>
      </trkpt>
      <trkpt lat="47.50051" lon="6.70269">
        <ele>374.746586</ele>
        <time>2022-09-14T20:16:19.598Z</time>
      </trkpt>
      <trkpt lat="47.50119" lon="6.70208">
        <ele>375.633143</ele>
        <time>2022-09-14T20:16:45.874Z</time>
      </trkpt>
      <trkpt lat="47.50201" lon="6.70111">
        <ele>378.356999</ele>
        <time>2022-09-14T20:17:27.847Z</time>
      </trkpt>
      <trkpt lat="47.50227" lon="6.70057">
        <ele>379.70139</ele>
        <time>2022-09-14T20:17:47.457Z</time>
      </trkpt>
      <trkpt lat="47.50253" lon="6.70035">
        <ele>380.567295</ele>
        <time>2022-09-14T20:18:00.167Z</time>
      </trkpt>
      <trkpt lat="47.50284" lon="6.70019">
        <ele>381.472982</ele>
        <time>2022-09-14T20:18:14.573Z</time>
      </trkpt>
      <trkpt lat="47.50332" lon="6.70009">
        <ele>382.510468</ele>
        <time>2022-09-14T20:18:35.261Z</time>
      </trkpt>
      <trkpt lat="47.50399" lon="6.69981">
        <ele>384.005966</ele>
        <time>2022-09-14T20:19:02.020Z</time>
      </trkpt>
      <trkpt lat="47.50486" lon="6.69947">
        <ele>384.932263</ele>
        <time>2022-09-14T20:19:31.327Z</time>
      </trkpt>
      <trkpt lat="47.50604" lon="6.69834">
        <ele>384.377406</ele>
        <time>2022-09-14T20:20:06.772Z</time>
      </trkpt>
      <trkpt lat="47.50753" lon="6.69689">
        <ele>380.851977</ele>
        <time>2022-09-14T20:20:45.775Z</time>
      </trkpt>
      <trkpt lat="47.50765" lon="6.6968">
        <ele>380.617608</ele>
        <time>2022-09-14T20:20:48.719Z</time>
      </trkpt>
      <trkpt lat="47.50774" lon="6.69655">
        <ele>380.30872</ele>
        <time>2022-09-14T20:20:52.492Z</time>
      </trkpt>
      <trkpt lat="47.50797" lon="6.69625">
        <ele>379.800514</ele>
        <time>2022-09-14T20:20:58.847Z</time>
      </trkpt>
      <trkpt lat="47.50868" lon="6.69542">
        <ele>378.291382</ele>
        <time>2022-09-14T20:21:19.123Z</time>
      </trkpt>
      <trkpt lat="47.50882" lon="6.69513">
        <ele>377.90198</ele>
        <time>2022-09-14T20:21:24.452Z</time>
      </trkpt>
      <trkpt lat="47.50885" lon="6.69489">
        <ele>377.627186</ele>
        <time>2022-09-14T20:21:28.348Z</time>
      </trkpt>
      <trkpt lat="47.50884" lon="6.69469">
        <ele>377.406912</ele>
        <time>2022-09-14T20:21:31.373Z</time>
      </trkpt>
      <trkpt lat="47.50888" lon="6.69413">
        <ele>376.772008</ele>
        <time>2022-09-14T20:21:40.145Z</time>
      </trkpt>
      <trkpt lat="47.50915" lon="6.69363">
        <ele>376.068048</ele>
        <time>2022-09-14T20:21:49.964Z</time>
      </trkpt>
      <trkpt lat="47.50923" lon="6.69323">
        <ele>375.605126</ele>
        <time>2022-09-14T20:21:56.235Z</time>
      </trkpt>
      <trkpt lat="47.50921" lon="6.69312">
        <ele>375.47755</ele>
        <time>2022-09-14T20:21:57.935Z</time>
      </trkpt>
      <trkpt lat="47.50963" lon="6.69234">
        <ele>374.273854</ele>
        <time>2022-09-14T20:22:12.094Z</time>
      </trkpt>
      <trkpt lat="47.51009" lon="6.69115">
        <ele>372.466018</ele>
        <time>2022-09-14T20:22:30.797Z</time>
      </trkpt>
      <trkpt lat="47.5104" lon="6.68912">
        <ele>371.570707</ele>
        <time>2022-09-14T20:23:03.808Z</time>
      </trkpt>
      <trkpt lat="47.51046" lon="6.68871">
        <ele>371.633231</ele>
        <time>2022-09-14T20:23:12.769Z</time>
      </trkpt>
      <trkpt lat="47.51054" lon="6.68807">
        <ele>371.728948</ele>
        <time>2022-09-14T20:23:27.050Z</time>
      </trkpt>
      <trkpt lat="47.51143" lon="6.68382">
        <ele>374.946935</ele>
        <time>2022-09-14T20:25:08.321Z</time>
      </trkpt>
      <trkpt lat="47.51397" lon="6.67169">
        <ele>372.197091</ele>
        <time>2022-09-14T20:28:41.710Z</time>
      </trkpt>
      <trkpt lat="47.514" lon="6.6715">
        <ele>372.181367</ele>
        <time>2022-09-14T20:28:45.101Z</time>
      </trkpt>
      <trkpt lat="47.51416" lon="6.67144">
        <ele>372.161816</ele>
        <time>2022-09-14T20:28:49.677Z</time>
      </trkpt>
      <trkpt lat="47.51496" lon="6.67052">
        <ele>372.068223</ele>
        <time>2022-09-14T20:29:17.686Z</time>
      </trkpt>
      <trkpt lat="47.5164" lon="6.66883">
        <ele>372.487014</ele>
        <time>2022-09-14T20:30:11.359Z</time>
      </trkpt>
      <trkpt lat="47.51704" lon="6.66815">
        <ele>372.63352</ele>
        <time>2022-09-14T20:30:33.988Z</time>
      </trkpt>
      <trkpt lat="47.51771" lon="6.66675">
        <ele>372.891967</ele>
        <time>2022-09-14T20:31:07.055Z</time>
      </trkpt>
      <trkpt lat="47.51857" lon="6.66585">
        <ele>373.2581</ele>
        <time>2022-09-14T20:31:37.625Z</time>
      </trkpt>
      <trkpt lat="47.5191" lon="6.66519">
        <ele>373.617335</ele>
        <time>2022-09-14T20:31:58.889Z</time>
      </trkpt>
      <trkpt lat="47.52026" lon="6.66427">
        <ele>374.796342</ele>
        <time>2022-09-14T20:32:40.574Z</time>
      </trkpt>
      <trkpt lat="47.52105" lon="6.6632">
        <ele>375.807583</ele>
        <time>2022-09-14T20:33:17.424Z</time>
      </trkpt>
      <trkpt lat="47.52145" lon="6.66263">
        <ele>376.336654</ele>
        <time>2022-09-14T20:33:35.867Z</time>
      </trkpt>
      <trkpt lat="47.52201" lon="6.6618">
        <ele>376.296788</ele>
        <time>2022-09-14T20:33:59.938Z</time>
      </trkpt>
      <trkpt lat="47.52179" lon="6.66159">
        <ele>375.941045</ele>
        <time>2022-09-14T20:34:06.415Z</time>
      </trkpt>
      <trkpt lat="47.52134" lon="6.66073">
        <ele>374.949731</ele>
        <time>2022-09-14T20:34:23.024Z</time>
      </trkpt>
      <trkpt lat="47.52125" lon="6.66056">
        <ele>374.755213</ele>
        <time>2022-09-14T20:34:26.249Z</time>
      </trkpt>
      <trkpt lat="47.52146" lon="6.66035">
        <ele>374.418194</ele>
        <time>2022-09-14T20:34:31.422Z</time>
      </trkpt>
      <trkpt lat="47.52186" lon="6.65972">
        <ele>372.736877</ele>
        <time>2022-09-14T20:34:43.454Z</time>
      </trkpt>
      <trkpt lat="47.52149" lon="6.65862">
        <ele>370.189496</ele>
        <time>2022-09-14T20:34:59.323Z</time>
      </trkpt>
      <trkpt lat="47.52138" lon="6.65828">
        <ele>369.385598</ele>
        <time>2022-09-14T20:35:04.320Z</time>
      </trkpt>
      <trkpt lat="47.52059" lon="6.65632">
        <ele>366.417705</ele>
        <time>2022-09-14T20:35:36.939Z</time>
      </trkpt>
      <trkpt lat="47.52117" lon="6.65542">
        <ele>365.57327</ele>
        <time>2022-09-14T20:35:56.427Z</time>
      </trkpt>
      <trkpt lat="47.52144" lon="6.65504">
        <ele>365.534086</ele>
        <time>2022-09-14T20:36:05.449Z</time>
      </trkpt>
      <trkpt lat="47.52155" lon="6.65488">
        <ele>365.517167</ele>
        <time>2022-09-14T20:36:09.429Z</time>
      </trkpt>
      <trkpt lat="47.5224" lon="6.65384">
        <ele>365.759057</ele>
        <time>2022-09-14T20:36:40.962Z</time>
      </trkpt>
      <trkpt lat="47.52482" lon="6.65087">
        <ele>371.738946</ele>
        <time>2022-09-14T20:38:32.796Z</time>
      </trkpt>
      <trkpt lat="47.52545" lon="6.65014">
        <ele>374.795505</ele>
        <time>2022-09-14T20:39:07.662Z</time>
      </trkpt>
      <trkpt lat="47.52638" lon="6.64947">
        <ele>379.497402</ele>
        <time>2022-09-14T20:39:57.868Z</time>
      </trkpt>
      <trkpt lat="47.52676" lon="6.64894">
        <ele>382.596356</ele>
        <time>2022-09-14T20:40:28.017Z</time>
      </trkpt>
      <trkpt lat="47.52715" lon="6.64869">
        <ele>385.579963</ele>
        <time>2022-09-14T20:40:55.359Z</time>
      </trkpt>
      <trkpt lat="47.52859" lon="6.64819">
        <ele>396.228946</ele>
        <time>2022-09-14T20:42:24.646Z</time>
      </trkpt>
      <trkpt lat="47.52908" lon="6.64821">
        <ele>400.164489</ele>
        <time>2022-09-14T20:42:57.737Z</time>
      </trkpt>
      <trkpt lat="47.52957" lon="6.64836">
        <ele>404.098682</ele>
        <time>2022-09-14T20:43:33.132Z</time>
      </trkpt>
      <trkpt lat="47.53009" lon="6.64861">
        <ele>408.033419</ele>
        <time>2022-09-14T20:44:07.778Z</time>
      </trkpt>
      <trkpt lat="47.53057" lon="6.64901">
        <ele>411.049885</ele>
        <time>2022-09-14T20:44:39.358Z</time>
      </trkpt>
      <trkpt lat="47.53089" lon="6.64915">
        <ele>412.887772</ele>
        <time>2022-09-14T20:44:57.899Z</time>
      </trkpt>
      <trkpt lat="47.53121" lon="6.64915">
        <ele>414.648392</ele>
        <time>2022-09-14T20:45:14.461Z</time>
      </trkpt>
      <trkpt lat="47.53157" lon="6.64893">
        <ele>416.810465</ele>
        <time>2022-09-14T20:45:33.014Z</time>
      </trkpt>
      <trkpt lat="47.5318" lon="6.64856">
        <ele>417.07645</ele>
        <time>2022-09-14T20:45:46.519Z</time>
      </trkpt>
      <trkpt lat="47.53192" lon="6.64821">
        <ele>417.114936</ele>
        <time>2022-09-14T20:45:54.428Z</time>
      </trkpt>
      <trkpt lat="47.53196" lon="6.64792">
        <ele>417.14357</ele>
        <time>2022-09-14T20:45:59.447Z</time>
      </trkpt>
      <trkpt lat="47.53197" lon="6.64722">
        <ele>417.212326</ele>
        <time>2022-09-14T20:46:10.015Z</time>
      </trkpt>
      <trkpt lat="47.53203" lon="6.64698">
        <ele>417.236803</ele>
        <time>2022-09-14T20:46:13.616Z</time>
      </trkpt>
      <trkpt lat="47.53216" lon="6.64674">
        <ele>417.266661</ele>
        <time>2022-09-14T20:46:18.228Z</time>
      </trkpt>
      <trkpt lat="47.53239" lon="6.64653">
        <ele>417.248151</ele>
        <time>2022-09-14T20:46:24.463Z</time>
      </trkpt>
      <trkpt lat="47.53362" lon="6.64578">
        <ele>416.590781</ele>
        <time>2022-09-14T20:46:57.874Z</time>
      </trkpt>
      <trkpt lat="47.53416" lon="6.64564">
        <ele>416.235102</ele>
        <time>2022-09-14T20:47:11.955Z</time>
      </trkpt>
      <trkpt lat="47.53465" lon="6.64563">
        <ele>415.74976</ele>
        <time>2022-09-14T20:47:24.293Z</time>
      </trkpt>
      <trkpt lat="47.53473" lon="6.64563">
        <ele>415.66588</ele>
        <time>2022-09-14T20:47:26.473Z</time>
      </trkpt>
      <trkpt lat="47.53471" lon="6.6455">
        <ele>415.579444</ele>
        <time>2022-09-14T20:47:28.305Z</time>
      </trkpt>
      <trkpt lat="47.53332" lon="6.64278">
        <ele>413.085346</ele>
        <time>2022-09-14T20:48:19.419Z</time>
      </trkpt>
      <trkpt lat="47.53306" lon="6.64192">
        <ele>412.549592</ele>
        <time>2022-09-14T20:48:34.868Z</time>
      </trkpt>
      <trkpt lat="47.53299" lon="6.64141">
        <ele>412.540245</ele>
        <time>2022-09-14T20:48:44.414Z</time>
      </trkpt>
      <trkpt lat="47.53297" lon="6.64046">
        <ele>412.523316</ele>
        <time>2022-09-14T20:49:02.496Z</time>
      </trkpt>
      <trkpt lat="47.53314" lon="6.63939">
        <ele>412.423392</ele>
        <time>2022-09-14T20:49:22.438Z</time>
      </trkpt>
      <trkpt lat="47.53336" lon="6.63873">
        <ele>412.036469</ele>
        <time>2022-09-14T20:49:35.307Z</time>
      </trkpt>
      <trkpt lat="47.53401" lon="6.63755">
        <ele>411.231264</ele>
        <time>2022-09-14T20:49:59.627Z</time>
      </trkpt>
      <trkpt lat="47.53436" lon="6.63687">
        <ele>410.047093</ele>
        <time>2022-09-14T20:50:11.769Z</time>
      </trkpt>
      <trkpt lat="47.53452" lon="6.63628">
        <ele>408.953918</ele>
        <time>2022-09-14T20:50:20.575Z</time>
      </trkpt>
      <trkpt lat="47.53472" lon="6.63457">
        <ele>405.394699</ele>
        <time>2022-09-14T20:50:43.960Z</time>
      </trkpt>
      <trkpt lat="47.53478" lon="6.63402">
        <ele>403.421531</ele>
        <time>2022-09-14T20:50:50.808Z</time>
      </trkpt>
      <trkpt lat="47.53499" lon="6.63357">
        <ele>401.471055</ele>
        <time>2022-09-14T20:50:57.359Z</time>
      </trkpt>
      <trkpt lat="47.5352" lon="6.63331">
        <ele>400.007717</ele>
        <time>2022-09-14T20:51:02.146Z</time>
      </trkpt>
      <trkpt lat="47.5353" lon="6.63327">
        <ele>399.48707</ele>
        <time>2022-09-14T20:51:03.857Z</time>
      </trkpt>
      <trkpt lat="47.53673" lon="6.63312">
        <ele>393.674303</ele>
        <time>2022-09-14T20:51:29.330Z</time>
      </trkpt>
      <trkpt lat="47.53744" lon="6.63294">
        <ele>391.16351</ele>
        <time>2022-09-14T20:51:44.527Z</time>
      </trkpt>
      <trkpt lat="47.53769" lon="6.63309">
        <ele>391.244319</ele>
        <time>2022-09-14T20:51:52.566Z</time>
      </trkpt>
      <trkpt lat="47.53788" lon="6.63301">
        <ele>391.827362</ele>
        <time>2022-09-14T20:51:59.552Z</time>
      </trkpt>
      <trkpt lat="47.53807" lon="6.63284">
        <ele>392.44946</ele>
        <time>2022-09-14T20:52:07.856Z</time>
      </trkpt>
      <trkpt lat="47.53871" lon="6.63254">
        <ele>394.350327</ele>
        <time>2022-09-14T20:52:37.644Z</time>
      </trkpt>
      <trkpt lat="47.53911" lon="6.6323">
        <ele>395.591766</ele>
        <time>2022-09-14T20:52:58.383Z</time>
      </trkpt>
      <trkpt lat="47.53962" lon="6.63174">
        <ele>398.254777</ele>
        <time>2022-09-14T20:53:28.514Z</time>
      </trkpt>
      <trkpt lat="47.53988" lon="6.63157">
        <ele>399.578304</ele>
        <time>2022-09-14T20:53:41.482Z</time>
      </trkpt>
      <trkpt lat="47.54017" lon="6.63156">
        <ele>400.868824</ele>
        <time>2022-09-14T20:53:53.514Z</time>
      </trkpt>
      <trkpt lat="47.54215" lon="6.63253">
        <ele>413.705933</ele>
        <time>2022-09-14T20:55:43.878Z</time>
      </trkpt>
      <trkpt lat="47.54335" lon="6.63312">
        <ele>424.707331</ele>
        <time>2022-09-14T20:57:25.071Z</time>
      </trkpt>
      <trkpt lat="47.5441" lon="6.63325">
        <ele>432.049502</ele>
        <time>2022-09-14T20:58:23.887Z</time>
      </trkpt>
      <trkpt lat="47.5443" lon="6.63311">
        <ele>433.998947</ele>
        <time>2022-09-14T20:58:39.110Z</time>
      </trkpt>
      <trkpt lat="47.54515" lon="6.63118">
        <ele>438.064812</ele>
        <time>2022-09-14T20:59:44.807Z</time>
      </trkpt>
      <trkpt lat="47.54542" lon="6.63062">
        <ele>437.058444</ele>
        <time>2022-09-14T20:59:53.670Z</time>
      </trkpt>
      <trkpt lat="47.54553" lon="6.63023">
        <ele>435.215161</ele>
        <time>2022-09-14T20:59:58.900Z</time>
      </trkpt>
      <trkpt lat="47.54639" lon="6.62557">
        <ele>410.980418</ele>
        <time>2022-09-14T21:00:53.507Z</time>
      </trkpt>
      <trkpt lat="47.54687" lon="6.62312">
        <ele>398.411506</ele>
        <time>2022-09-14T21:01:23.151Z</time>
      </trkpt>
      <trkpt lat="47.54762" lon="6.62114">
        <ele>386.264793</ele>
        <time>2022-09-14T21:01:48.959Z</time>
      </trkpt>
      <trkpt lat="47.54772" lon="6.62084">
        <ele>384.453459</ele>
        <time>2022-09-14T21:01:52.702Z</time>
      </trkpt>
      <trkpt lat="47.54776" lon="6.62047">
        <ele>382.365017</ele>
        <time>2022-09-14T21:01:56.998Z</time>
      </trkpt>
      <trkpt lat="47.54774" lon="6.62003">
        <ele>379.988601</ele>
        <time>2022-09-14T21:02:01.796Z</time>
      </trkpt>
      <trkpt lat="47.54761" lon="6.61925">
        <ele>375.56671</ele>
        <time>2022-09-14T21:02:10.732Z</time>
      </trkpt>
      <trkpt lat="47.54775" lon="6.61849">
        <ele>371.255038</ele>
        <time>2022-09-14T21:02:19.759Z</time>
      </trkpt>
      <trkpt lat="47.54769" lon="6.61782">
        <ele>369.205051</ele>
        <time>2022-09-14T21:02:27.849Z</time>
      </trkpt>
      <trkpt lat="47.54743" lon="6.61574">
        <ele>364.293263</ele>
        <time>2022-09-14T21:02:55.960Z</time>
      </trkpt>
      <trkpt lat="47.54735" lon="6.61516">
        <ele>364.334473</ele>
        <time>2022-09-14T21:03:08.465Z</time>
      </trkpt>
      <trkpt lat="47.54735" lon="6.61501">
        <ele>364.355306</ele>
        <time>2022-09-14T21:03:11.908Z</time>
      </trkpt>
      <trkpt lat="47.54783" lon="6.61433">
        <ele>364.490097</ele>
        <time>2022-09-14T21:03:33.379Z</time>
      </trkpt>
      <trkpt lat="47.54797" lon="6.61383">
        <ele>364.563617</ele>
        <time>2022-09-14T21:03:44.529Z</time>
      </trkpt>
      <trkpt lat="47.54786" lon="6.61274">
        <ele>364.388974</ele>
        <time>2022-09-14T21:04:02.721Z</time>
      </trkpt>
      <trkpt lat="47.54787" lon="6.61157">
        <ele>363.996391</ele>
        <time>2022-09-14T21:04:20.567Z</time>
      </trkpt>
      <trkpt lat="47.54795" lon="6.61041">
        <ele>363.967227</ele>
        <time>2022-09-14T21:04:41.121Z</time>
      </trkpt>
      <trkpt lat="47.54813" lon="6.60818">
        <ele>365.490799</ele>
        <time>2022-09-14T21:05:30.496Z</time>
      </trkpt>
      <trkpt lat="47.54827" lon="6.60574">
        <ele>368.166203</ele>
        <time>2022-09-14T21:06:30.027Z</time>
      </trkpt>
      <trkpt lat="47.54818" lon="6.60493">
        <ele>368.639319</ele>
        <time>2022-09-14T21:06:47.100Z</time>
      </trkpt>
      <trkpt lat="47.54756" lon="6.60164">
        <ele>367.703623</ele>
        <time>2022-09-14T21:07:50.757Z</time>
      </trkpt>
      <trkpt lat="47.54741" lon="6.59971">
        <ele>363.860004</ele>
        <time>2022-09-14T21:08:16.000Z</time>
      </trkpt>
      <trkpt lat="47.54706" lon="6.59702">
        <ele>353.795576</ele>
        <time>2022-09-14T21:08:48.384Z</time>
      </trkpt>
      <trkpt lat="47.54677" lon="6.59351">
        <ele>341.826934</ele>
        <time>2022-09-14T21:09:31.816Z</time>
      </trkpt>
      <trkpt lat="47.54662" lon="6.59273">
        <ele>339.272837</ele>
        <time>2022-09-14T21:09:41.883Z</time>
      </trkpt>
      <trkpt lat="47.54635" lon="6.59209">
        <ele>336.945271</ele>
        <time>2022-09-14T21:09:51.302Z</time>
      </trkpt>
      <trkpt lat="47.54595" lon="6.59148">
        <ele>334.31658</ele>
        <time>2022-09-14T21:10:02.053Z</time>
      </trkpt>
      <trkpt lat="47.5458" lon="6.59112">
        <ele>333.052572</ele>
        <time>2022-09-14T21:10:07.079Z</time>
      </trkpt>
      <trkpt lat="47.54571" lon="6.5906">
        <ele>331.41385</ele>
        <time>2022-09-14T21:10:13.688Z</time>
      </trkpt>
      <trkpt lat="47.54573" lon="6.59017">
        <ele>330.091904</ele>
        <time>2022-09-14T21:10:19.110Z</time>
      </trkpt>
      <trkpt lat="47.5458" lon="6.58976">
        <ele>329.127941</ele>
        <time>2022-09-14T21:10:24.636Z</time>
      </trkpt>
      <trkpt lat="47.54607" lon="6.58922">
        <ele>327.626977</ele>
        <time>2022-09-14T21:10:33.266Z</time>
      </trkpt>
      <trkpt lat="47.54676" lon="6.58871">
        <ele>325.022313</ele>
        <time>2022-09-14T21:10:48.601Z</time>
      </trkpt>
      <trkpt lat="47.54691" lon="6.58863">
        <ele>324.493647</ele>
        <time>2022-09-14T21:10:51.967Z</time>
      </trkpt>
      <trkpt lat="47.54729" lon="6.58844">
        <ele>323.201185</ele>
        <time>2022-09-14T21:10:59.754Z</time>
      </trkpt>
      <trkpt lat="47.54852" lon="6.58775">
        <ele>319.042145</ele>
        <time>2022-09-14T21:11:25.834Z</time>
      </trkpt>
      <trkpt lat="47.54948" lon="6.58759">
        <ele>315.607992</ele>
        <time>2022-09-14T21:11:44.073Z</time>
      </trkpt>
      <trkpt lat="47.55009" lon="6.58734">
        <ele>313.310533</ele>
        <time>2022-09-14T21:11:56.193Z</time>
      </trkpt>
      <trkpt lat="47.55024" lon="6.58719">
        <ele>312.668486</ele>
        <time>2022-09-14T21:11:59.557Z</time>
      </trkpt>
      <trkpt lat="47.5503" lon="6.58723">
        <ele>312.419249</ele>
        <time>2022-09-14T21:12:00.959Z</time>
      </trkpt>
      <trkpt lat="47.55037" lon="6.58718">
        <ele>312.160187</ele>
        <time>2022-09-14T21:12:02.386Z</time>
      </trkpt>
      <trkpt lat="47.55035" lon="6.58702">
        <ele>311.795248</ele>
        <time>2022-09-14T21:12:04.453Z</time>
      </trkpt>
      <trkpt lat="47.55081" lon="6.58627">
        <ele>310.022306</ele>
        <time>2022-09-14T21:12:18.231Z</time>
      </trkpt>
      <trkpt lat="47.55139" lon="6.58571">
        <ele>308.229129</ele>
        <time>2022-09-14T21:12:32.256Z</time>
      </trkpt>
      <trkpt lat="47.5519" lon="6.58545">
        <ele>306.96752</ele>
        <time>2022-09-14T21:12:43.555Z</time>
      </trkpt>
      <trkpt lat="47.55218" lon="6.58528">
        <ele>306.450389</ele>
        <time>2022-09-14T21:12:50.189Z</time>
      </trkpt>
      <trkpt lat="47.55206" lon="6.58439">
        <ele>305.432176</ele>
        <time>2022-09-14T21:13:03.385Z</time>
      </trkpt>
      <trkpt lat="47.55214" lon="6.58315">
        <ele>304.073053</ele>
        <time>2022-09-14T21:13:21.998Z</time>
      </trkpt>
      <trkpt lat="47.55222" lon="6.58195">
        <ele>303.132985</ele>
        <time>2022-09-14T21:13:40.189Z</time>
      </trkpt>
      <trkpt lat="47.55226" lon="6.57714">
        <ele>300.1838</ele>
        <time>2022-09-14T21:14:56.236Z</time>
      </trkpt>
      <trkpt lat="47.55242" lon="6.57631">
        <ele>299.848131</ele>
        <time>2022-09-14T21:15:10.331Z</time>
      </trkpt>
      <trkpt lat="47.55268" lon="6.57561">
        <ele>299.532907</ele>
        <time>2022-09-14T21:15:24.019Z</time>
      </trkpt>
      <trkpt lat="47.55287" lon="6.57483">
        <ele>299.548587</ele>
        <time>2022-09-14T21:15:38.422Z</time>
      </trkpt>
      <trkpt lat="47.55323" lon="6.575">
        <ele>299.615762</ele>
        <time>2022-09-14T21:15:48.930Z</time>
      </trkpt>
      <trkpt lat="47.55447" lon="6.57579">
        <ele>299.721972</ele>
        <time>2022-09-14T21:16:27.862Z</time>
      </trkpt>
      <trkpt lat="47.5551" lon="6.57619">
        <ele>299.605854</ele>
        <time>2022-09-14T21:16:45.642Z</time>
      </trkpt>
      <trkpt lat="47.55625" lon="6.57666">
        <ele>299.315838</ele>
        <time>2022-09-14T21:17:14.598Z</time>
      </trkpt>
      <trkpt lat="47.55658" lon="6.57686">
        <ele>299.185038</ele>
        <time>2022-09-14T21:17:23.458Z</time>
      </trkpt>
      <trkpt lat="47.55707" lon="6.5774">
        <ele>298.962911</ele>
        <time>2022-09-14T21:17:38.943Z</time>
      </trkpt>
      <trkpt lat="47.5573" lon="6.57752">
        <ele>298.872196</ele>
        <time>2022-09-14T21:17:45.417Z</time>
      </trkpt>
      <trkpt lat="47.55749" lon="6.57752">
        <ele>298.7993</ele>
        <time>2022-09-14T21:17:50.216Z</time>
      </trkpt>
      <trkpt lat="47.55789" lon="6.57738">
        <ele>298.624465</ele>
        <time>2022-09-14T21:18:00.632Z</time>
      </trkpt>
      <trkpt lat="47.55848" lon="6.577">
        <ele>298.345926</ele>
        <time>2022-09-14T21:18:17.959Z</time>
      </trkpt>
      <trkpt lat="47.56042" lon="6.57425">
        <ele>296.268859</ele>
        <time>2022-09-14T21:19:20.727Z</time>
      </trkpt>
      <trkpt lat="47.56118" lon="6.57252">
        <ele>295.250344</ele>
        <time>2022-09-14T21:19:53.817Z</time>
      </trkpt>
      <trkpt lat="47.56128" lon="6.57219">
        <ele>295.068359</ele>
        <time>2022-09-14T21:19:59.760Z</time>
      </trkpt>
      <trkpt lat="47.56156" lon="6.57173">
        <ele>294.712727</ele>
        <time>2022-09-14T21:20:10.232Z</time>
      </trkpt>
      <trkpt lat="47.56258" lon="6.57058">
        <ele>293.627999</ele>
        <time>2022-09-14T21:20:40.246Z</time>
      </trkpt>
      <trkpt lat="47.56332" lon="6.56979">
        <ele>293.062322</ele>
        <time>2022-09-14T21:21:01.102Z</time>
      </trkpt>
      <trkpt lat="47.5635" lon="6.56968">
        <ele>292.945708</ele>
        <time>2022-09-14T21:21:05.577Z</time>
      </trkpt>
      <trkpt lat="47.56358" lon="6.56968">
        <ele>292.89711</ele>
        <time>2022-09-14T21:21:07.485Z</time>
      </trkpt>
      <trkpt lat="47.56366" lon="6.56973">
        <ele>292.847771</ele>
        <time>2022-09-14T21:21:09.375Z</time>
      </trkpt>
      <trkpt lat="47.56372" lon="6.56983">
        <ele>292.794537</ele>
        <time>2022-09-14T21:21:11.377Z</time>
      </trkpt>
      <trkpt lat="47.56394" lon="6.57013">
        <ele>292.615107</ele>
        <time>2022-09-14T21:21:19.592Z</time>
      </trkpt>
      <trkpt lat="47.5644" lon="6.57051">
        <ele>293.076727</ele>
        <time>2022-09-14T21:21:34.727Z</time>
      </trkpt>
      <trkpt lat="47.56449" lon="6.57051">
        <ele>293.226986</ele>
        <time>2022-09-14T21:21:37.900Z</time>
      </trkpt>
      <trkpt lat="47.56468" lon="6.5703">
        <ele>293.635696</ele>
        <time>2022-09-14T21:21:46.069Z</time>
      </trkpt>
      <trkpt lat="47.56481" lon="6.56988">
        <ele>294.175469</ele>
        <time>2022-09-14T21:21:57.440Z</time>
      </trkpt>
      <trkpt lat="47.56502" lon="6.56956">
        <ele>294.690259</ele>
        <time>2022-09-14T21:22:09.695Z</time>
      </trkpt>
      <trkpt lat="47.56531" lon="6.56931">
        <ele>295.273972</ele>
        <time>2022-09-14T21:22:23.311Z</time>
      </trkpt>
      <trkpt lat="47.5654" lon="6.56933">
        <ele>295.4417</ele>
        <time>2022-09-14T21:22:26.853Z</time>
      </trkpt>
      <trkpt lat="47.56569" lon="6.56959">
        <ele>295.723182</ele>
        <time>2022-09-14T21:22:40.499Z</time>
      </trkpt>
      <trkpt lat="47.56575" lon="6.56945">
        <ele>295.778121</ele>
        <time>2022-09-14T21:22:44.961Z</time>
      </trkpt>
      <trkpt lat="47.56608" lon="6.56885">
        <ele>296.029805</ele>
        <time>2022-09-14T21:23:00.418Z</time>
      </trkpt>
      <trkpt lat="47.56692" lon="6.56827">
        <ele>296.476523</ele>
        <time>2022-09-14T21:23:23.916Z</time>
      </trkpt>
      <trkpt lat="47.56696" lon="6.56819">
        <ele>296.455188</ele>
        <time>2022-09-14T21:23:25.199Z</time>
      </trkpt>
      <trkpt lat="47.56734" lon="6.56797">
        <ele>296.327329</ele>
        <time>2022-09-14T21:23:34.423Z</time>
      </trkpt>
      <trkpt lat="47.56745" lon="6.56782">
        <ele>296.278888</ele>
        <time>2022-09-14T21:23:37.985Z</time>
      </trkpt>
      <trkpt lat="47.56822" lon="6.56629">
        <ele>296.086348</ele>
        <time>2022-09-14T21:24:10.684Z</time>
      </trkpt>
      <trkpt lat="47.56862" lon="6.56586">
        <ele>296.853099</ele>
        <time>2022-09-14T21:24:28.232Z</time>
      </trkpt>
      <trkpt lat="47.56907" lon="6.56552">
        <ele>297.620915</ele>
        <time>2022-09-14T21:24:46.730Z</time>
      </trkpt>
      <trkpt lat="47.57032" lon="6.56399">
        <ele>300.154637</ele>
        <time>2022-09-14T21:25:43.438Z</time>
      </trkpt>
      <trkpt lat="47.57141" lon="6.56327">
        <ele>301.949256</ele>
        <time>2022-09-14T21:26:23.730Z</time>
      </trkpt>
      <trkpt lat="47.57267" lon="6.56256">
        <ele>303.678332</ele>
        <time>2022-09-14T21:27:08.057Z</time>
      </trkpt>
      <trkpt lat="47.57313" lon="6.56251">
        <ele>303.889819</ele>
        <time>2022-09-14T21:27:22.728Z</time>
      </trkpt>
      <trkpt lat="47.57376" lon="6.56262">
        <ele>303.99072</ele>
        <time>2022-09-14T21:27:41.559Z</time>
      </trkpt>
      <trkpt lat="47.57565" lon="6.56263">
        <ele>303.309404</ele>
        <time>2022-09-14T21:28:27.742Z</time>
      </trkpt>
      <trkpt lat="47.57608" lon="6.56237">
        <ele>302.957378</ele>
        <time>2022-09-14T21:28:38.382Z</time>
      </trkpt>
      <trkpt lat="47.57667" lon="6.56191">
        <ele>302.377768</ele>
        <time>2022-09-14T21:28:53.705Z</time>
      </trkpt>
      <trkpt lat="47.57716" lon="6.56171">
        <ele>301.895837</ele>
        <time>2022-09-14T21:29:05.424Z</time>
      </trkpt>
      <trkpt lat="47.57926" lon="6.56114">
        <ele>299.745623</ele>
        <time>2022-09-14T21:29:55.608Z</time>
      </trkpt>
      <trkpt lat="47.58001" lon="6.56126">
        <ele>298.768166</ele>
        <time>2022-09-14T21:30:12.618Z</time>
      </trkpt>
      <trkpt lat="47.58123" lon="6.55997">
        <ele>295.774616</ele>
        <time>2022-09-14T21:30:44.438Z</time>
      </trkpt>
      <trkpt lat="47.58198" lon="6.55887">
        <ele>292.699677</ele>
        <time>2022-09-14T21:31:05.043Z</time>
      </trkpt>
      <trkpt lat="47.58218" lon="6.55833">
        <ele>291.459805</ele>
        <time>2022-09-14T21:31:13.146Z</time>
      </trkpt>
      <trkpt lat="47.58249" lon="6.55693">
        <ele>288.680402</ele>
        <time>2022-09-14T21:31:32.658Z</time>
      </trkpt>
      <trkpt lat="47.58244" lon="6.55649">
        <ele>287.871441</ele>
        <time>2022-09-14T21:31:38.673Z</time>
      </trkpt>
      <trkpt lat="47.58234" lon="6.55599">
        <ele>286.951647</ele>
        <time>2022-09-14T21:31:45.734Z</time>
      </trkpt>
      <trkpt lat="47.58195" lon="6.55489">
        <ele>285.095131</ele>
        <time>2022-09-14T21:32:03.254Z</time>
      </trkpt>
      <trkpt lat="47.58189" lon="6.55458">
        <ele>284.818224</ele>
        <time>2022-09-14T21:32:07.943Z</time>
      </trkpt>
      <trkpt lat="47.58183" lon="6.55347">
        <ele>283.872022</ele>
        <time>2022-09-14T21:32:24.499Z</time>
      </trkpt>
      <trkpt lat="47.58177" lon="6.55329">
        <ele>283.704001</ele>
        <time>2022-09-14T21:32:27.803Z</time>
      </trkpt>
      <trkpt lat="47.5816" lon="6.55306">
        <ele>283.411631</ele>
        <time>2022-09-14T21:32:33.058Z</time>
      </trkpt>
      <trkpt lat="47.58113" lon="6.55242">
        <ele>283.240596</ele>
        <time>2022-09-14T21:32:50.316Z</time>
      </trkpt>
      <trkpt lat="47.58098" lon="6.55222">
        <ele>283.282808</ele>
        <time>2022-09-14T21:32:56.478Z</time>
      </trkpt>
      <trkpt lat="47.58064" lon="6.55147">
        <ele>283.413555</ele>
        <time>2022-09-14T21:33:13.679Z</time>
      </trkpt>
      <trkpt lat="47.58049" lon="6.55124">
        <ele>283.459889</ele>
        <time>2022-09-14T21:33:19.807Z</time>
      </trkpt>
      <trkpt lat="47.58052" lon="6.55044">
        <ele>283.53253</ele>
        <time>2022-09-14T21:33:35.422Z</time>
      </trkpt>
      <trkpt lat="47.58031" lon="6.55033">
        <ele>283.53253</ele>
        <time>2022-09-14T21:33:41.571Z</time>
      </trkpt>
      <trkpt lat="47.58001" lon="6.54998">
        <ele>283.53253</ele>
        <time>2022-09-14T21:33:52.464Z</time>
      </trkpt>
      <trkpt lat="47.57969" lon="6.54945">
        <ele>283.53253</ele>
        <time>2022-09-14T21:34:06.379Z</time>
      </trkpt>
    </trkseg>
  </trk>
</gpx>